<?xml version='1.0' encoding='UTF-8'?><gpx version="1.1" creator="JPX - https://github.com/jenetics/jpx" xmlns="http://www.topografix.com/GPX/1/1"><trk><trkseg><trkpt lat="43.13682399943937" lon="11.481885254858877"><ele>147.0</ele><time>2026-04-11T02:00:44Z</time></trkpt><trkpt lat="43.13675723414243" lon="11.481881667172344"><ele>147.0</ele><time>2026-04-11T02:00:47Z</time></trkpt><trkpt lat="43.13670908065149" lon="11.48180822823311"><ele>147.0</ele><time>2026-04-11T02:00:49Z</time></trkpt><trkpt lat="43.136690382561184" lon="11.481705796255259"><ele>147.0</ele><time>2026-04-11T02:00:51Z</time></trkpt><trkpt lat="43.13666514924085" lon="11.481597625989192"><ele>147.0</ele><time>2026-04-11T02:00:53Z</time></trkpt><trkpt lat="43.13663367875752" lon="11.481508703147323"><ele>147.0</ele><time>2026-04-11T02:00:55Z</time></trkpt><trkpt lat="43.136603718454715" lon="11.481397652015088"><ele>147.0</ele><time>2026-04-11T02:00:57Z</time></trkpt><trkpt lat="43.13656842284478" lon="11.481294411100052"><ele>147.0</ele><time>2026-04-11T02:00:59Z</time></trkpt><trkpt lat="43.13653989588961" lon="11.481178891685007"><ele>147.0</ele><time>2026-04-11T02:01:01Z</time></trkpt><trkpt lat="43.13650857467612" lon="11.481053659953929"><ele>147.0</ele><time>2026-04-11T02:01:03Z</time></trkpt><trkpt lat="43.13648179462956" lon="11.480903825792717"><ele>147.0</ele><time>2026-04-11T02:01:05Z</time></trkpt><trkpt lat="43.13644346513324" lon="11.480766798121968"><ele>146.6</ele><time>2026-04-11T02:01:07Z</time></trkpt><trkpt lat="43.136404158001596" lon="11.480627703907768"><ele>146.2</ele><time>2026-04-11T02:01:09Z</time></trkpt><trkpt lat="43.13636422318169" lon="11.480486427497922"><ele>145.8</ele><time>2026-04-11T02:01:11Z</time></trkpt><trkpt lat="43.13633509221883" lon="11.48034793673761"><ele>145.4</ele><time>2026-04-11T02:01:13Z</time></trkpt><trkpt lat="43.13629736480813" lon="11.480206252821322"><ele>145.0</ele><time>2026-04-11T02:01:15Z</time></trkpt><trkpt lat="43.13625877569518" lon="11.480056637545555"><ele>144.8</ele><time>2026-04-11T02:01:17Z</time></trkpt><trkpt lat="43.13622033858825" lon="11.479911489316057"><ele>144.6</ele><time>2026-04-11T02:01:19Z</time></trkpt><trkpt lat="43.13618600627305" lon="11.47977305166206"><ele>144.4</ele><time>2026-04-11T02:01:21Z</time></trkpt><trkpt lat="43.13615361240328" lon="11.479634186922109"><ele>144.2</ele><time>2026-04-11T02:01:23Z</time></trkpt><trkpt lat="43.13611453688605" lon="11.479505187854517"><ele>144.0</ele><time>2026-04-11T02:01:25Z</time></trkpt><trkpt lat="43.13607515390126" lon="11.479370311891225"><ele>144.0</ele><time>2026-04-11T02:01:27Z</time></trkpt><trkpt lat="43.13604257537255" lon="11.479234849835741"><ele>144.0</ele><time>2026-04-11T02:01:29Z</time></trkpt><trkpt lat="43.13600882988038" lon="11.479096403647342"><ele>144.0</ele><time>2026-04-11T02:01:31Z</time></trkpt><trkpt lat="43.135975082139026" lon="11.478961394599123"><ele>144.0</ele><time>2026-04-11T02:01:33Z</time></trkpt><trkpt lat="43.13593782130835" lon="11.478826520830122"><ele>144.0</ele><time>2026-04-11T02:01:35Z</time></trkpt><trkpt lat="43.13590325348024" lon="11.4786804264583"><ele>144.2</ele><time>2026-04-11T02:01:37Z</time></trkpt><trkpt lat="43.135866455092525" lon="11.478526876094183"><ele>144.4</ele><time>2026-04-11T02:01:39Z</time></trkpt><trkpt lat="43.13583447384478" lon="11.478369907275969"><ele>144.6</ele><time>2026-04-11T02:01:41Z</time></trkpt><trkpt lat="43.13580499504682" lon="11.478215854518256"><ele>144.8</ele><time>2026-04-11T02:01:43Z</time></trkpt><trkpt lat="43.135787978999545" lon="11.478130977568465"><ele>145.0</ele><time>2026-04-11T02:01:44Z</time></trkpt><trkpt lat="43.13577204829451" lon="11.478046948026485"><ele>144.5</ele><time>2026-04-11T02:01:45Z</time></trkpt><trkpt lat="43.13573749627988" lon="11.47787975815633"><ele>144.0</ele><time>2026-04-11T02:01:47Z</time></trkpt><trkpt lat="43.135719098248785" lon="11.477795729311701"><ele>143.5</ele><time>2026-04-11T02:01:48Z</time></trkpt><trkpt lat="43.13570084191087" lon="11.477707918212742"><ele>143.0</ele><time>2026-04-11T02:01:49Z</time></trkpt><trkpt lat="43.13567886148286" lon="11.477615086504317"><ele>142.5</ele><time>2026-04-11T02:01:50Z</time></trkpt><trkpt lat="43.13565507514182" lon="11.477522371816198"><ele>142.0</ele><time>2026-04-11T02:01:51Z</time></trkpt><trkpt lat="43.13563717629578" lon="11.477433286057197"><ele>142.0</ele><time>2026-04-11T02:01:52Z</time></trkpt><trkpt lat="43.135620799933896" lon="11.477337815226964"><ele>142.0</ele><time>2026-04-11T02:01:53Z</time></trkpt><trkpt lat="43.135600083844295" lon="11.47725187020798"><ele>142.0</ele><time>2026-04-11T02:01:54Z</time></trkpt><trkpt lat="43.13558181967294" lon="11.477157197490548"><ele>142.0</ele><time>2026-04-11T02:01:55Z</time></trkpt><trkpt lat="43.135564132283314" lon="11.477066272234218"><ele>142.0</ele><time>2026-04-11T02:01:56Z</time></trkpt><trkpt lat="43.13554473476199" lon="11.476981000598718"><ele>142.0</ele><time>2026-04-11T02:01:57Z</time></trkpt><trkpt lat="43.13552700077944" lon="11.476897937448568"><ele>142.0</ele><time>2026-04-11T02:01:58Z</time></trkpt><trkpt lat="43.135509085750975" lon="11.47681488407244"><ele>141.5</ele><time>2026-04-11T02:01:59Z</time></trkpt><trkpt lat="43.135477087564645" lon="11.476656710823214"><ele>141.0</ele><time>2026-04-11T02:02:01Z</time></trkpt><trkpt lat="43.13544018259271" lon="11.476495887533087"><ele>140.5</ele><time>2026-04-11T02:02:03Z</time></trkpt><trkpt lat="43.135405918529166" lon="11.476335017354518"><ele>140.0</ele><time>2026-04-11T02:02:05Z</time></trkpt><trkpt lat="43.13536131525685" lon="11.476185293673634"><ele>139.5</ele><time>2026-04-11T02:02:07Z</time></trkpt><trkpt lat="43.13531692370359" lon="11.47603006580152"><ele>139.0</ele><time>2026-04-11T02:02:09Z</time></trkpt><trkpt lat="43.13527800162191" lon="11.475876211819863"><ele>138.5</ele><time>2026-04-11T02:02:11Z</time></trkpt><trkpt lat="43.135239885883536" lon="11.475720016318721"><ele>138.0</ele><time>2026-04-11T02:02:13Z</time></trkpt><trkpt lat="43.13519621923138" lon="11.475559883396963"><ele>138.0</ele><time>2026-04-11T02:02:15Z</time></trkpt><trkpt lat="43.135172976448246" lon="11.475476046309906"><ele>138.0</ele><time>2026-04-11T02:02:16Z</time></trkpt><trkpt lat="43.13515312817047" lon="11.475386865742582"><ele>138.0</ele><time>2026-04-11T02:02:17Z</time></trkpt><trkpt lat="43.13513088579505" lon="11.475300320154068"><ele>138.0</ele><time>2026-04-11T02:02:18Z</time></trkpt><trkpt lat="43.13510978663571" lon="11.475207150988531"><ele>138.0</ele><time>2026-04-11T02:02:19Z</time></trkpt><trkpt lat="43.135088197147425" lon="11.47511371211084"><ele>138.0</ele><time>2026-04-11T02:02:20Z</time></trkpt><trkpt lat="43.13506884833379" lon="11.475019878372537"><ele>138.0</ele><time>2026-04-11T02:02:21Z</time></trkpt><trkpt lat="43.1350513708897" lon="11.474925058322567"><ele>138.0</ele><time>2026-04-11T02:02:22Z</time></trkpt><trkpt lat="43.135034363417326" lon="11.474826383782991"><ele>138.0</ele><time>2026-04-11T02:02:23Z</time></trkpt><trkpt lat="43.13501760591614" lon="11.474728720576882"><ele>138.0</ele><time>2026-04-11T02:02:24Z</time></trkpt><trkpt lat="43.13499748144879" lon="11.474638821295454"><ele>138.0</ele><time>2026-04-11T02:02:25Z</time></trkpt><trkpt lat="43.13497777755987" lon="11.474544842662635"><ele>138.0</ele><time>2026-04-11T02:02:26Z</time></trkpt><trkpt lat="43.134957445493384" lon="11.474451273684664"><ele>138.0</ele><time>2026-04-11T02:02:27Z</time></trkpt><trkpt lat="43.1349432289427" lon="11.474356657193306"><ele>138.0</ele><time>2026-04-11T02:02:28Z</time></trkpt><trkpt lat="43.13492748451202" lon="11.474264534084151"><ele>138.0</ele><time>2026-04-11T02:02:29Z</time></trkpt><trkpt lat="43.134910925341174" lon="11.474167735074557"><ele>138.0</ele><time>2026-04-11T02:02:30Z</time></trkpt><trkpt lat="43.13489125978812" lon="11.474075673938598"><ele>138.0</ele><time>2026-04-11T02:02:31Z</time></trkpt><trkpt lat="43.13487367096617" lon="11.473986912422175"><ele>138.0</ele><time>2026-04-11T02:02:32Z</time></trkpt><trkpt lat="43.13485367232333" lon="11.473896606324356"><ele>138.0</ele><time>2026-04-11T02:02:33Z</time></trkpt><trkpt lat="43.13483730569352" lon="11.473807480587435"><ele>138.0</ele><time>2026-04-11T02:02:34Z</time></trkpt><trkpt lat="43.13482202109394" lon="11.473717748368912"><ele>138.0</ele><time>2026-04-11T02:02:35Z</time></trkpt><trkpt lat="43.13480439660184" lon="11.473630411213831"><ele>138.0</ele><time>2026-04-11T02:02:36Z</time></trkpt><trkpt lat="43.13478778202484" lon="11.473538025714522"><ele>138.0</ele><time>2026-04-11T02:02:37Z</time></trkpt><trkpt lat="43.134770471360845" lon="11.473447806301403"><ele>138.0</ele><time>2026-04-11T02:02:38Z</time></trkpt><trkpt lat="43.134752275016076" lon="11.473359336349153"><ele>138.0</ele><time>2026-04-11T02:02:39Z</time></trkpt><trkpt lat="43.13473713696266" lon="11.473272276375905"><ele>138.0</ele><time>2026-04-11T02:02:40Z</time></trkpt><trkpt lat="43.1347213891998" lon="11.473186922070063"><ele>138.0</ele><time>2026-04-11T02:02:41Z</time></trkpt><trkpt lat="43.13470699193953" lon="11.473101408278236"><ele>138.0</ele><time>2026-04-11T02:02:42Z</time></trkpt><trkpt lat="43.134692134250535" lon="11.473015211118446"><ele>138.0</ele><time>2026-04-11T02:02:43Z</time></trkpt><trkpt lat="43.134674644382414" lon="11.472930173601036"><ele>138.0</ele><time>2026-04-11T02:02:44Z</time></trkpt><trkpt lat="43.13464160025589" lon="11.47276227751308"><ele>138.0</ele><time>2026-04-11T02:02:46Z</time></trkpt><trkpt lat="43.13462629401501" lon="11.472676253930613"><ele>138.0</ele><time>2026-04-11T02:02:47Z</time></trkpt><trkpt lat="43.13461035823631" lon="11.472591779967335"><ele>138.0</ele><time>2026-04-11T02:02:48Z</time></trkpt><trkpt lat="43.13459346194094" lon="11.472508084679582"><ele>138.0</ele><time>2026-04-11T02:02:49Z</time></trkpt><trkpt lat="43.13457782093014" lon="11.472421638091362"><ele>138.0</ele><time>2026-04-11T02:02:50Z</time></trkpt><trkpt lat="43.134558773822135" lon="11.472334993906967"><ele>138.0</ele><time>2026-04-11T02:02:51Z</time></trkpt><trkpt lat="43.134541139995726" lon="11.472248024680585"><ele>138.0</ele><time>2026-04-11T02:02:52Z</time></trkpt><trkpt lat="43.13452519792632" lon="11.472161059700822"><ele>138.0</ele><time>2026-04-11T02:02:53Z</time></trkpt><trkpt lat="43.13450835875853" lon="11.472075506057017"><ele>138.0</ele><time>2026-04-11T02:02:54Z</time></trkpt><trkpt lat="43.13447526094269" lon="11.471906220144879"><ele>138.0</ele><time>2026-04-11T02:02:56Z</time></trkpt><trkpt lat="43.13445837347938" lon="11.471821233326228"><ele>138.0</ele><time>2026-04-11T02:02:57Z</time></trkpt><trkpt lat="43.1344420268226" lon="11.471737481101833"><ele>138.0</ele><time>2026-04-11T02:02:58Z</time></trkpt><trkpt lat="43.13442387773473" lon="11.471654606537134"><ele>138.0</ele><time>2026-04-11T02:02:59Z</time></trkpt><trkpt lat="43.134393431893216" lon="11.471498276944242"><ele>138.0</ele><time>2026-04-11T02:03:01Z</time></trkpt><trkpt lat="43.13437837179901" lon="11.471366266472405"><ele>138.0</ele><time>2026-04-11T02:03:03Z</time></trkpt><trkpt lat="43.13443863839621" lon="11.471281065909642"><ele>138.0</ele><time>2026-04-11T02:03:05Z</time></trkpt><trkpt lat="43.134547791647236" lon="11.471270968592481"><ele>138.5</ele><time>2026-04-11T02:03:07Z</time></trkpt><trkpt lat="43.13465085088792" lon="11.471215160182657"><ele>139.0</ele><time>2026-04-11T02:03:09Z</time></trkpt><trkpt lat="43.13476026980741" lon="11.471155907894063"><ele>139.5</ele><time>2026-04-11T02:03:11Z</time></trkpt><trkpt lat="43.13486870686904" lon="11.471096718283075"><ele>140.0</ele><time>2026-04-11T02:03:13Z</time></trkpt><trkpt lat="43.13498089438671" lon="11.471034002144792"><ele>140.0</ele><time>2026-04-11T02:03:15Z</time></trkpt><trkpt lat="43.13509019718009" lon="11.470972898652578"><ele>140.0</ele><time>2026-04-11T02:03:17Z</time></trkpt><trkpt lat="43.13519707680219" lon="11.470913149784714"><ele>140.0</ele><time>2026-04-11T02:03:19Z</time></trkpt><trkpt lat="43.13530166485141" lon="11.47085468197242"><ele>140.0</ele><time>2026-04-11T02:03:21Z</time></trkpt><trkpt lat="43.13541078707727" lon="11.470793679422277"><ele>140.0</ele><time>2026-04-11T02:03:23Z</time></trkpt><trkpt lat="43.13551802739444" lon="11.470733192296683"><ele>140.0</ele><time>2026-04-11T02:03:25Z</time></trkpt><trkpt lat="43.135625264689416" lon="11.470672608948728"><ele>140.0</ele><time>2026-04-11T02:03:27Z</time></trkpt><trkpt lat="43.135733009932586" lon="11.470611738637182"><ele>140.0</ele><time>2026-04-11T02:03:29Z</time></trkpt><trkpt lat="43.13584213054545" lon="11.470550091315074"><ele>140.25</ele><time>2026-04-11T02:03:31Z</time></trkpt><trkpt lat="43.135950350268594" lon="11.47048895294634"><ele>140.5</ele><time>2026-04-11T02:03:33Z</time></trkpt><trkpt lat="43.136065212552005" lon="11.470424061888036"><ele>140.75</ele><time>2026-04-11T02:03:35Z</time></trkpt><trkpt lat="43.13617987298749" lon="11.470360133497858"><ele>141.0</ele><time>2026-04-11T02:03:37Z</time></trkpt><trkpt lat="43.13629461272769" lon="11.47029655748729"><ele>141.0</ele><time>2026-04-11T02:03:39Z</time></trkpt><trkpt lat="43.13640716902819" lon="11.470234191294413"><ele>141.0</ele><time>2026-04-11T02:03:41Z</time></trkpt><trkpt lat="43.13651887067978" lon="11.470172298653592"><ele>141.0</ele><time>2026-04-11T02:03:43Z</time></trkpt><trkpt lat="43.13662819015726" lon="11.470111725948486"><ele>141.0</ele><time>2026-04-11T02:03:45Z</time></trkpt><trkpt lat="43.13673691941132" lon="11.470051480279963"><ele>140.75</ele><time>2026-04-11T02:03:47Z</time></trkpt><trkpt lat="43.136844068694494" lon="11.469992110055355"><ele>140.5</ele><time>2026-04-11T02:03:49Z</time></trkpt><trkpt lat="43.136945101549756" lon="11.469936128874961"><ele>140.25</ele><time>2026-04-11T02:03:51Z</time></trkpt><trkpt lat="43.13705603376205" lon="11.469874077263517"><ele>140.0</ele><time>2026-04-11T02:03:53Z</time></trkpt><trkpt lat="43.13716011585415" lon="11.46981369257486"><ele>140.0</ele><time>2026-04-11T02:03:55Z</time></trkpt><trkpt lat="43.1372629612926" lon="11.46974245819007"><ele>140.0</ele><time>2026-04-11T02:03:57Z</time></trkpt><trkpt lat="43.13736156421699" lon="11.469670031465425"><ele>140.0</ele><time>2026-04-11T02:03:59Z</time></trkpt><trkpt lat="43.13746109373305" lon="11.469590810095024"><ele>140.0</ele><time>2026-04-11T02:04:01Z</time></trkpt><trkpt lat="43.13755446815973" lon="11.469506453603369"><ele>140.2</ele><time>2026-04-11T02:04:03Z</time></trkpt><trkpt lat="43.13764508555167" lon="11.469421105069053"><ele>140.4</ele><time>2026-04-11T02:04:05Z</time></trkpt><trkpt lat="43.137723881907206" lon="11.469314743506608"><ele>140.6</ele><time>2026-04-11T02:04:07Z</time></trkpt><trkpt lat="43.137812016802535" lon="11.469225735575117"><ele>140.8</ele><time>2026-04-11T02:04:09Z</time></trkpt><trkpt lat="43.13791059030287" lon="11.469151598276497"><ele>141.0</ele><time>2026-04-11T02:04:11Z</time></trkpt><trkpt lat="43.13799105813339" lon="11.469043133651189"><ele>141.0</ele><time>2026-04-11T02:04:13Z</time></trkpt><trkpt lat="43.138078994536876" lon="11.468952585467084"><ele>141.0</ele><time>2026-04-11T02:04:15Z</time></trkpt><trkpt lat="43.13816866195311" lon="11.468857926988017"><ele>141.0</ele><time>2026-04-11T02:04:17Z</time></trkpt><trkpt lat="43.138258462608356" lon="11.468762282952706"><ele>141.0</ele><time>2026-04-11T02:04:19Z</time></trkpt><trkpt lat="43.13834960565103" lon="11.468670394568402"><ele>140.75</ele><time>2026-04-11T02:04:21Z</time></trkpt><trkpt lat="43.13844023280736" lon="11.468575299479184"><ele>140.5</ele><time>2026-04-11T02:04:23Z</time></trkpt><trkpt lat="43.1385394456127" lon="11.4684961734565"><ele>140.25</ele><time>2026-04-11T02:04:25Z</time></trkpt><trkpt lat="43.13863421053831" lon="11.468396781673603"><ele>140.0</ele><time>2026-04-11T02:04:27Z</time></trkpt><trkpt lat="43.13871837377825" lon="11.468281965536457"><ele>140.0</ele><time>2026-04-11T02:04:29Z</time></trkpt><trkpt lat="43.13881240543457" lon="11.468185575514195"><ele>140.0</ele><time>2026-04-11T02:04:31Z</time></trkpt><trkpt lat="43.13891699887956" lon="11.468101361519208"><ele>140.0</ele><time>2026-04-11T02:04:33Z</time></trkpt><trkpt lat="43.13900997383368" lon="11.468004311328187"><ele>140.0</ele><time>2026-04-11T02:04:35Z</time></trkpt><trkpt lat="43.139100875934396" lon="11.467909140084243"><ele>140.5</ele><time>2026-04-11T02:04:37Z</time></trkpt><trkpt lat="43.1391911085692" lon="11.467812990558054"><ele>141.0</ele><time>2026-04-11T02:04:39Z</time></trkpt><trkpt lat="43.13927227139939" lon="11.467702474851707"><ele>141.5</ele><time>2026-04-11T02:04:41Z</time></trkpt><trkpt lat="43.13936021289522" lon="11.467604824999258"><ele>142.0</ele><time>2026-04-11T02:04:43Z</time></trkpt><trkpt lat="43.13945926179675" lon="11.467525192719625"><ele>142.0</ele><time>2026-04-11T02:04:45Z</time></trkpt><trkpt lat="43.1395364485951" lon="11.467415969433711"><ele>142.0</ele><time>2026-04-11T02:04:47Z</time></trkpt><trkpt lat="43.13962379222017" lon="11.467323309578086"><ele>142.0</ele><time>2026-04-11T02:04:49Z</time></trkpt><trkpt lat="43.139713512680814" lon="11.467230041731147"><ele>142.0</ele><time>2026-04-11T02:04:51Z</time></trkpt><trkpt lat="43.13980291034618" lon="11.467138015749065"><ele>142.0</ele><time>2026-04-11T02:04:53Z</time></trkpt><trkpt lat="43.139890655160094" lon="11.467047339479038"><ele>142.4</ele><time>2026-04-11T02:04:55Z</time></trkpt><trkpt lat="43.13997666359712" lon="11.466951654218665"><ele>142.79999999999998</ele><time>2026-04-11T02:04:57Z</time></trkpt><trkpt lat="43.14006796005041" lon="11.466863509741545"><ele>143.2</ele><time>2026-04-11T02:04:59Z</time></trkpt><trkpt lat="43.14015776975885" lon="11.466773183625484"><ele>143.6</ele><time>2026-04-11T02:05:01Z</time></trkpt><trkpt lat="43.140248177433314" lon="11.466684146728308"><ele>144.0</ele><time>2026-04-11T02:05:03Z</time></trkpt><trkpt lat="43.140331827278025" lon="11.466591289769433"><ele>144.0</ele><time>2026-04-11T02:05:05Z</time></trkpt><trkpt lat="43.14041653627761" lon="11.46649645314794"><ele>144.0</ele><time>2026-04-11T02:05:07Z</time></trkpt><trkpt lat="43.14050170479806" lon="11.466402018900984"><ele>144.0</ele><time>2026-04-11T02:05:09Z</time></trkpt><trkpt lat="43.14059133530851" lon="11.466307197880868"><ele>144.0</ele><time>2026-04-11T02:05:11Z</time></trkpt><trkpt lat="43.14067938123589" lon="11.46621288861492"><ele>144.0</ele><time>2026-04-11T02:05:13Z</time></trkpt><trkpt lat="43.14076817185787" lon="11.466118008584141"><ele>143.8</ele><time>2026-04-11T02:05:15Z</time></trkpt><trkpt lat="43.14085786020143" lon="11.466025764004248"><ele>143.60000000000002</ele><time>2026-04-11T02:05:17Z</time></trkpt><trkpt lat="43.14095784043827" lon="11.465951160542145"><ele>143.4</ele><time>2026-04-11T02:05:19Z</time></trkpt><trkpt lat="43.141044368382595" lon="11.465864155597652"><ele>143.20000000000002</ele><time>2026-04-11T02:05:21Z</time></trkpt><trkpt lat="43.141133187599976" lon="11.4657742420388"><ele>143.0</ele><time>2026-04-11T02:05:23Z</time></trkpt><trkpt lat="43.141222921553805" lon="11.465682812139617"><ele>143.0</ele><time>2026-04-11T02:05:25Z</time></trkpt><trkpt lat="43.141311680248585" lon="11.46559237593161"><ele>143.0</ele><time>2026-04-11T02:05:27Z</time></trkpt><trkpt lat="43.14140138176973" lon="11.465500979078042"><ele>143.0</ele><time>2026-04-11T02:05:29Z</time></trkpt><trkpt lat="43.141491117657985" lon="11.4654095472082"><ele>143.0</ele><time>2026-04-11T02:05:31Z</time></trkpt><trkpt lat="43.14157784435632" lon="11.465321181403148"><ele>143.0</ele><time>2026-04-11T02:05:33Z</time></trkpt><trkpt lat="43.14166673728737" lon="11.46522976881532"><ele>143.4</ele><time>2026-04-11T02:05:35Z</time></trkpt><trkpt lat="43.141750861691136" lon="11.465142457199905"><ele>143.8</ele><time>2026-04-11T02:05:37Z</time></trkpt><trkpt lat="43.14183699809902" lon="11.465053057351998"><ele>144.2</ele><time>2026-04-11T02:05:39Z</time></trkpt><trkpt lat="43.14192510580281" lon="11.464961611522833"><ele>144.6</ele><time>2026-04-11T02:05:41Z</time></trkpt><trkpt lat="43.142009837370566" lon="11.464873581022331"><ele>145.0</ele><time>2026-04-11T02:05:43Z</time></trkpt><trkpt lat="43.142100175557225" lon="11.464779175885417"><ele>145.0</ele><time>2026-04-11T02:05:45Z</time></trkpt><trkpt lat="43.142186281801465" lon="11.464689193210312"><ele>145.0</ele><time>2026-04-11T02:05:47Z</time></trkpt><trkpt lat="43.142274257546326" lon="11.464597256869787"><ele>145.0</ele><time>2026-04-11T02:05:49Z</time></trkpt><trkpt lat="43.142361273164155" lon="11.464507771991537"><ele>145.0</ele><time>2026-04-11T02:05:51Z</time></trkpt><trkpt lat="43.14244498661222" lon="11.464422678952701"><ele>145.0</ele><time>2026-04-11T02:05:53Z</time></trkpt><trkpt lat="43.14252999763146" lon="11.464326437908714"><ele>145.2</ele><time>2026-04-11T02:05:55Z</time></trkpt><trkpt lat="43.14260401247943" lon="11.464223658605713"><ele>145.4</ele><time>2026-04-11T02:05:57Z</time></trkpt><trkpt lat="43.1426737443291" lon="11.464118067610253"><ele>145.6</ele><time>2026-04-11T02:05:59Z</time></trkpt><trkpt lat="43.14270706472326" lon="11.464041470269889"><ele>145.8</ele><time>2026-04-11T02:06:01Z</time></trkpt><trkpt lat="43.14274328385801" lon="11.463962736971874"><ele>146.0</ele><time>2026-04-11T02:06:02Z</time></trkpt><trkpt lat="43.14286684500512" lon="11.46371108111615"><ele>146.2</ele><time>2026-04-11T02:06:05Z</time></trkpt><trkpt lat="43.14291498961087" lon="11.46358829364647"><ele>146.39999999999998</ele><time>2026-04-11T02:06:07Z</time></trkpt><trkpt lat="43.142962661604074" lon="11.463463908877767"><ele>146.6</ele><time>2026-04-11T02:06:09Z</time></trkpt><trkpt lat="43.14301345250311" lon="11.46334800135344"><ele>146.79999999999998</ele><time>2026-04-11T02:06:11Z</time></trkpt><trkpt lat="43.143061073465105" lon="11.463233426055561"><ele>147.0</ele><time>2026-04-11T02:06:13Z</time></trkpt><trkpt lat="43.14310230304172" lon="11.463117945844616"><ele>147.0</ele><time>2026-04-11T02:06:15Z</time></trkpt><trkpt lat="43.14314553074998" lon="11.463006884905639"><ele>147.0</ele><time>2026-04-11T02:06:17Z</time></trkpt><trkpt lat="43.14318437457456" lon="11.462898494601793"><ele>147.0</ele><time>2026-04-11T02:06:19Z</time></trkpt><trkpt lat="43.14322800016322" lon="11.462783039108288"><ele>147.0</ele><time>2026-04-11T02:06:21Z</time></trkpt><trkpt lat="43.14327032372766" lon="11.462672553315125"><ele>147.0</ele><time>2026-04-11T02:06:23Z</time></trkpt><trkpt lat="43.14329359483549" lon="11.46257034752953"><ele>147.0</ele><time>2026-04-11T02:06:25Z</time></trkpt><trkpt lat="43.14334694808911" lon="11.462449495741037"><ele>147.6</ele><time>2026-04-11T02:06:27Z</time></trkpt><trkpt lat="43.14339657910766" lon="11.462335393328175"><ele>148.2</ele><time>2026-04-11T02:06:29Z</time></trkpt><trkpt lat="43.143448710486666" lon="11.462217022681756"><ele>148.8</ele><time>2026-04-11T02:06:31Z</time></trkpt><trkpt lat="43.14350434013268" lon="11.462112092038385"><ele>149.4</ele><time>2026-04-11T02:06:33Z</time></trkpt><trkpt lat="43.143594925457485" lon="11.462003971738778"><ele>150.0</ele><time>2026-04-11T02:06:35Z</time></trkpt><trkpt lat="43.14366536221602" lon="11.461918566049096"><ele>150.0</ele><time>2026-04-11T02:06:37Z</time></trkpt><trkpt lat="43.14373777029118" lon="11.461834543013051"><ele>150.0</ele><time>2026-04-11T02:06:39Z</time></trkpt><trkpt lat="43.14381500169189" lon="11.461765116501397"><ele>150.0</ele><time>2026-04-11T02:06:41Z</time></trkpt><trkpt lat="43.14389656469103" lon="11.461696407366542"><ele>150.0</ele><time>2026-04-11T02:06:43Z</time></trkpt><trkpt lat="43.143979267425394" lon="11.461634923261915"><ele>150.0</ele><time>2026-04-11T02:06:45Z</time></trkpt><trkpt lat="43.14406387300168" lon="11.46158523700774"><ele>151.0</ele><time>2026-04-11T02:06:47Z</time></trkpt><trkpt lat="43.14414501838213" lon="11.46152863075978"><ele>152.0</ele><time>2026-04-11T02:06:49Z</time></trkpt><trkpt lat="43.14422129735657" lon="11.461491407863544"><ele>153.0</ele><time>2026-04-11T02:06:51Z</time></trkpt><trkpt lat="43.14429588764897" lon="11.461452253464445"><ele>154.0</ele><time>2026-04-11T02:06:53Z</time></trkpt><trkpt lat="43.144384509648454" lon="11.461375441249412"><ele>155.0</ele><time>2026-04-11T02:06:58Z</time></trkpt><trkpt lat="43.14444709428664" lon="11.461346156657324"><ele>156.0</ele><time>2026-04-11T02:07:00Z</time></trkpt><trkpt lat="43.14453166934965" lon="11.461290314679658"><ele>156.14285714285714</ele><time>2026-04-11T02:07:03Z</time></trkpt><trkpt lat="43.144596557040856" lon="11.461258262538848"><ele>156.28571428571428</ele><time>2026-04-11T02:07:05Z</time></trkpt><trkpt lat="43.14466481786618" lon="11.461228184552354"><ele>156.42857142857142</ele><time>2026-04-11T02:07:07Z</time></trkpt><trkpt lat="43.144731890819486" lon="11.46119060063712"><ele>156.57142857142856</ele><time>2026-04-11T02:07:09Z</time></trkpt><trkpt lat="43.14479302815125" lon="11.46115833696938"><ele>156.71428571428572</ele><time>2026-04-11T02:07:11Z</time></trkpt><trkpt lat="43.14485579064708" lon="11.461122206170693"><ele>156.85714285714283</ele><time>2026-04-11T02:07:13Z</time></trkpt><trkpt lat="43.144930822832556" lon="11.461101795618111"><ele>157.0</ele><time>2026-04-11T02:07:16Z</time></trkpt><trkpt lat="43.145147939388394" lon="11.461010532644616"><ele>157.83333333333334</ele><time>2026-04-11T02:07:17Z</time></trkpt><trkpt lat="43.14520915914433" lon="11.460957404069005"><ele>158.66666666666669</ele><time>2026-04-11T02:07:19Z</time></trkpt><trkpt lat="43.145272016928914" lon="11.460893982706162"><ele>159.5</ele><time>2026-04-11T02:07:21Z</time></trkpt><trkpt lat="43.145339303196515" lon="11.460833380775846"><ele>160.33333333333334</ele><time>2026-04-11T02:07:23Z</time></trkpt><trkpt lat="43.14542007902576" lon="11.460781193616642"><ele>161.16666666666666</ele><time>2026-04-11T02:07:25Z</time></trkpt><trkpt lat="43.1455204341576" lon="11.460787902848024"><ele>162.0</ele><time>2026-04-11T02:07:27Z</time></trkpt><trkpt lat="43.14561986576892" lon="11.460799218726393"><ele>162.2</ele><time>2026-04-11T02:07:29Z</time></trkpt><trkpt lat="43.14571825228963" lon="11.460781061350119"><ele>162.39999999999998</ele><time>2026-04-11T02:07:31Z</time></trkpt><trkpt lat="43.14580940435629" lon="11.460757197919943"><ele>162.60000000000002</ele><time>2026-04-11T02:07:33Z</time></trkpt><trkpt lat="43.14591066752153" lon="11.460734801413036"><ele>162.8</ele><time>2026-04-11T02:07:35Z</time></trkpt><trkpt lat="43.14601606809635" lon="11.460712648228919"><ele>163.0</ele><time>2026-04-11T02:07:38Z</time></trkpt><trkpt lat="43.14613162845993" lon="11.460673876887492"><ele>163.0</ele><time>2026-04-11T02:07:40Z</time></trkpt><trkpt lat="43.14624566639158" lon="11.460636874608266"><ele>163.0</ele><time>2026-04-11T02:07:42Z</time></trkpt><trkpt lat="43.146360361865" lon="11.460599940778161"><ele>163.0</ele><time>2026-04-11T02:07:44Z</time></trkpt><trkpt lat="43.14642431689233" lon="11.460579346209691"><ele>163.0</ele><time>2026-04-11T02:07:45Z</time></trkpt><trkpt lat="43.14654548293626" lon="11.460541451707456"><ele>163.0</ele><time>2026-04-11T02:07:47Z</time></trkpt><trkpt lat="43.14666681316743" lon="11.460482599318247"><ele>162.8</ele><time>2026-04-11T02:07:49Z</time></trkpt><trkpt lat="43.14678997056571" lon="11.460465424314418"><ele>162.60000000000002</ele><time>2026-04-11T02:07:51Z</time></trkpt><trkpt lat="43.14691831613928" lon="11.460425513172325"><ele>162.39999999999998</ele><time>2026-04-11T02:07:53Z</time></trkpt><trkpt lat="43.1469813570667" lon="11.460406383855412"><ele>162.2</ele><time>2026-04-11T02:07:54Z</time></trkpt><trkpt lat="43.14704541128318" lon="11.460388348963862"><ele>162.0</ele><time>2026-04-11T02:07:55Z</time></trkpt><trkpt lat="43.14716629935601" lon="11.460354312122288"><ele>161.6</ele><time>2026-04-11T02:07:57Z</time></trkpt><trkpt lat="43.147228413225264" lon="11.460336825293076"><ele>161.2</ele><time>2026-04-11T02:07:58Z</time></trkpt><trkpt lat="43.1473537910406" lon="11.460305019248933"><ele>160.8</ele><time>2026-04-11T02:08:00Z</time></trkpt><trkpt lat="43.147421393221585" lon="11.460289288064443"><ele>160.4</ele><time>2026-04-11T02:08:01Z</time></trkpt><trkpt lat="43.14748735402683" lon="11.460277069203885"><ele>160.0</ele><time>2026-04-11T02:08:02Z</time></trkpt><trkpt lat="43.14761599225146" lon="11.460257802348657"><ele>159.14285714285714</ele><time>2026-04-11T02:08:04Z</time></trkpt><trkpt lat="43.14768467119868" lon="11.46025374182697"><ele>158.28571428571428</ele><time>2026-04-11T02:08:05Z</time></trkpt><trkpt lat="43.14775471732162" lon="11.460254156691441"><ele>157.42857142857144</ele><time>2026-04-11T02:08:06Z</time></trkpt><trkpt lat="43.14782673619961" lon="11.460260641929462"><ele>156.57142857142856</ele><time>2026-04-11T02:08:07Z</time></trkpt><trkpt lat="43.14789256164828" lon="11.460273317808616"><ele>155.71428571428572</ele><time>2026-04-11T02:08:08Z</time></trkpt><trkpt lat="43.147966414536924" lon="11.460274874304234"><ele>154.85714285714286</ele><time>2026-04-11T02:08:09Z</time></trkpt><trkpt lat="43.14803801929861" lon="11.460301082585799"><ele>154.0</ele><time>2026-04-11T02:08:10Z</time></trkpt><trkpt lat="43.14811023770936" lon="11.460336052666321"><ele>154.0</ele><time>2026-04-11T02:08:11Z</time></trkpt><trkpt lat="43.14817639584385" lon="11.460375096440126"><ele>154.0</ele><time>2026-04-11T02:08:12Z</time></trkpt><trkpt lat="43.14823002167476" lon="11.460444658236403"><ele>154.0</ele><time>2026-04-11T02:08:13Z</time></trkpt><trkpt lat="43.148295374734865" lon="11.460474183504756"><ele>154.0</ele><time>2026-04-11T02:08:14Z</time></trkpt><trkpt lat="43.14834884932313" lon="11.46053468722724"><ele>154.0</ele><time>2026-04-11T02:08:15Z</time></trkpt><trkpt lat="43.148398069286685" lon="11.460592740147089"><ele>154.0</ele><time>2026-04-11T02:08:16Z</time></trkpt><trkpt lat="43.14844103128317" lon="11.460666786350043"><ele>154.0</ele><time>2026-04-11T02:08:17Z</time></trkpt><trkpt lat="43.148485655847935" lon="11.460747666595296"><ele>153.66666666666669</ele><time>2026-04-11T02:08:18Z</time></trkpt><trkpt lat="43.148528957254946" lon="11.460837743076858"><ele>153.33333333333334</ele><time>2026-04-11T02:08:19Z</time></trkpt><trkpt lat="43.14856847877048" lon="11.460941559785892"><ele>153.0</ele><time>2026-04-11T02:08:20Z</time></trkpt><trkpt lat="43.14860954775909" lon="11.461046500648242"><ele>152.66666666666666</ele><time>2026-04-11T02:08:21Z</time></trkpt><trkpt lat="43.1486536731824" lon="11.461148205214863"><ele>152.33333333333331</ele><time>2026-04-11T02:08:22Z</time></trkpt><trkpt lat="43.14869472413197" lon="11.461251368930474"><ele>152.0</ele><time>2026-04-11T02:08:23Z</time></trkpt><trkpt lat="43.14874130031904" lon="11.46135947506496"><ele>151.66666666666666</ele><time>2026-04-11T02:08:24Z</time></trkpt><trkpt lat="43.14878563762895" lon="11.461462666724701"><ele>151.33333333333331</ele><time>2026-04-11T02:08:25Z</time></trkpt><trkpt lat="43.14882892902263" lon="11.461564262880296"><ele>151.0</ele><time>2026-04-11T02:08:26Z</time></trkpt><trkpt lat="43.14887257404468" lon="11.461672873915168"><ele>150.66666666666666</ele><time>2026-04-11T02:08:27Z</time></trkpt><trkpt lat="43.148914537580644" lon="11.461776041281624"><ele>150.33333333333334</ele><time>2026-04-11T02:08:28Z</time></trkpt><trkpt lat="43.14896180585698" lon="11.461882420963484"><ele>150.0</ele><time>2026-04-11T02:08:29Z</time></trkpt><trkpt lat="43.14900429314702" lon="11.461989144071351"><ele>148.83333333333334</ele><time>2026-04-11T02:08:30Z</time></trkpt><trkpt lat="43.1490479591035" lon="11.46208579363228"><ele>147.66666666666666</ele><time>2026-04-11T02:08:31Z</time></trkpt><trkpt lat="43.14909105689095" lon="11.46218500192529"><ele>146.5</ele><time>2026-04-11T02:08:32Z</time></trkpt><trkpt lat="43.149133216725794" lon="11.462280210977468"><ele>145.33333333333331</ele><time>2026-04-11T02:08:33Z</time></trkpt><trkpt lat="43.14917402678834" lon="11.462377700627604"><ele>144.16666666666666</ele><time>2026-04-11T02:08:34Z</time></trkpt><trkpt lat="43.14921797934168" lon="11.462473060249962"><ele>143.0</ele><time>2026-04-11T02:08:35Z</time></trkpt><trkpt lat="43.149263843096094" lon="11.462564192424333"><ele>143.0</ele><time>2026-04-11T02:08:36Z</time></trkpt><trkpt lat="43.14931343768503" lon="11.462655167456637"><ele>143.0</ele><time>2026-04-11T02:08:37Z</time></trkpt><trkpt lat="43.14936639780817" lon="11.46273612407379"><ele>143.0</ele><time>2026-04-11T02:08:38Z</time></trkpt><trkpt lat="43.149424363552676" lon="11.462816787575157"><ele>143.0</ele><time>2026-04-11T02:08:39Z</time></trkpt><trkpt lat="43.14947097471343" lon="11.462909035444843"><ele>143.0</ele><time>2026-04-11T02:08:40Z</time></trkpt><trkpt lat="43.149535601708614" lon="11.46298440944437"><ele>143.0</ele><time>2026-04-11T02:08:41Z</time></trkpt><trkpt lat="43.149607231702085" lon="11.463050482890662"><ele>143.16666666666666</ele><time>2026-04-11T02:08:42Z</time></trkpt><trkpt lat="43.14968054136128" lon="11.463102827140347"><ele>143.33333333333331</ele><time>2026-04-11T02:08:43Z</time></trkpt><trkpt lat="43.14975101829005" lon="11.463141438937278"><ele>143.5</ele><time>2026-04-11T02:08:44Z</time></trkpt><trkpt lat="43.14982990223364" lon="11.463152938941072"><ele>143.66666666666666</ele><time>2026-04-11T02:08:45Z</time></trkpt><trkpt lat="43.14991082631893" lon="11.463151254954942"><ele>143.83333333333334</ele><time>2026-04-11T02:08:46Z</time></trkpt><trkpt lat="43.14998980582163" lon="11.463127345306377"><ele>144.0</ele><time>2026-04-11T02:08:47Z</time></trkpt><trkpt lat="43.1500626893595" lon="11.46309303727577"><ele>144.0</ele><time>2026-04-11T02:08:48Z</time></trkpt><trkpt lat="43.15013517140199" lon="11.463057716494557"><ele>144.0</ele><time>2026-04-11T02:08:49Z</time></trkpt><trkpt lat="43.150211074596015" lon="11.463016018940579"><ele>144.0</ele><time>2026-04-11T02:08:50Z</time></trkpt><trkpt lat="43.15028472629646" lon="11.462975330166556"><ele>144.0</ele><time>2026-04-11T02:08:51Z</time></trkpt><trkpt lat="43.15036112752725" lon="11.462933102466822"><ele>144.0</ele><time>2026-04-11T02:08:52Z</time></trkpt><trkpt lat="43.150434016788026" lon="11.462892815897193"><ele>144.0</ele><time>2026-04-11T02:08:53Z</time></trkpt><trkpt lat="43.150512527908326" lon="11.462849422037927"><ele>144.0</ele><time>2026-04-11T02:08:54Z</time></trkpt><trkpt lat="43.150587068340485" lon="11.462808222838087"><ele>144.0</ele><time>2026-04-11T02:08:55Z</time></trkpt><trkpt lat="43.15065946095002" lon="11.462768210741087"><ele>144.0</ele><time>2026-04-11T02:08:56Z</time></trkpt><trkpt lat="43.15073417377244" lon="11.462726916262895"><ele>144.0</ele><time>2026-04-11T02:08:57Z</time></trkpt><trkpt lat="43.15080389858671" lon="11.462688378688314"><ele>144.0</ele><time>2026-04-11T02:08:58Z</time></trkpt><trkpt lat="43.15087441857426" lon="11.462649401617616"><ele>144.0</ele><time>2026-04-11T02:08:59Z</time></trkpt><trkpt lat="43.150944690218296" lon="11.46261056181139"><ele>144.0</ele><time>2026-04-11T02:09:00Z</time></trkpt><trkpt lat="43.15101133679629" lon="11.462554156305519"><ele>144.0</ele><time>2026-04-11T02:09:01Z</time></trkpt><trkpt lat="43.151082852567015" lon="11.462521155176551"><ele>144.0</ele><time>2026-04-11T02:09:02Z</time></trkpt><trkpt lat="43.15115577216968" lon="11.462482213579849"><ele>144.0</ele><time>2026-04-11T02:09:03Z</time></trkpt><trkpt lat="43.151226128312544" lon="11.46243944668958"><ele>144.0</ele><time>2026-04-11T02:09:04Z</time></trkpt><trkpt lat="43.15130004603827" lon="11.46240340128396"><ele>144.0</ele><time>2026-04-11T02:09:05Z</time></trkpt><trkpt lat="43.1513693670448" lon="11.462365150536236"><ele>144.0</ele><time>2026-04-11T02:09:06Z</time></trkpt><trkpt lat="43.151440936735376" lon="11.462326616778"><ele>144.0</ele><time>2026-04-11T02:09:07Z</time></trkpt><trkpt lat="43.15151327508825" lon="11.462288364576594"><ele>144.0</ele><time>2026-04-11T02:09:08Z</time></trkpt><trkpt lat="43.15158177005394" lon="11.46224894377851"><ele>144.0</ele><time>2026-04-11T02:09:09Z</time></trkpt><trkpt lat="43.151650717908446" lon="11.46221393876482"><ele>144.0</ele><time>2026-04-11T02:09:10Z</time></trkpt><trkpt lat="43.15171987970166" lon="11.462178685898063"><ele>144.0</ele><time>2026-04-11T02:09:11Z</time></trkpt><trkpt lat="43.15178841620724" lon="11.462136889377918"><ele>143.83333333333334</ele><time>2026-04-11T02:09:12Z</time></trkpt><trkpt lat="43.15185849026369" lon="11.462098489359303"><ele>143.66666666666666</ele><time>2026-04-11T02:09:13Z</time></trkpt><trkpt lat="43.15193292727444" lon="11.462060131980458"><ele>143.5</ele><time>2026-04-11T02:09:14Z</time></trkpt><trkpt lat="43.15199953269035" lon="11.462018787357078"><ele>143.33333333333331</ele><time>2026-04-11T02:09:15Z</time></trkpt><trkpt lat="43.1520699538484" lon="11.461979531757477"><ele>143.16666666666666</ele><time>2026-04-11T02:09:16Z</time></trkpt><trkpt lat="43.15213747804928" lon="11.461941221129957"><ele>143.0</ele><time>2026-04-11T02:09:17Z</time></trkpt><trkpt lat="43.15220669942031" lon="11.461904753945277"><ele>142.99999999999997</ele><time>2026-04-11T02:09:18Z</time></trkpt><trkpt lat="43.15227708957156" lon="11.461868285857323"><ele>143.0</ele><time>2026-04-11T02:09:19Z</time></trkpt><trkpt lat="43.1523458439224" lon="11.461833641678533"><ele>143.0</ele><time>2026-04-11T02:09:20Z</time></trkpt><trkpt lat="43.152413285915614" lon="11.461798290751023"><ele>143.0</ele><time>2026-04-11T02:09:21Z</time></trkpt><trkpt lat="43.15247841142825" lon="11.461763716360148"><ele>143.0</ele><time>2026-04-11T02:09:22Z</time></trkpt><trkpt lat="43.152547869185085" lon="11.461732422678532"><ele>142.99999999999997</ele><time>2026-04-11T02:09:23Z</time></trkpt><trkpt lat="43.15262097289596" lon="11.461694630039398"><ele>143.0</ele><time>2026-04-11T02:09:24Z</time></trkpt><trkpt lat="43.15268665352907" lon="11.461654994813882"><ele>143.28571428571428</ele><time>2026-04-11T02:09:25Z</time></trkpt><trkpt lat="43.15275354707084" lon="11.461622695389975"><ele>143.57142857142856</ele><time>2026-04-11T02:09:26Z</time></trkpt><trkpt lat="43.15282192073592" lon="11.461592676704436"><ele>143.85714285714286</ele><time>2026-04-11T02:09:27Z</time></trkpt><trkpt lat="43.15288581966952" lon="11.461558897346125"><ele>144.14285714285714</ele><time>2026-04-11T02:09:28Z</time></trkpt><trkpt lat="43.15295553219422" lon="11.461527714193327"><ele>144.42857142857144</ele><time>2026-04-11T02:09:29Z</time></trkpt><trkpt lat="43.15302151485888" lon="11.461490327935264"><ele>144.71428571428572</ele><time>2026-04-11T02:09:30Z</time></trkpt><trkpt lat="43.153086138779386" lon="11.461453284352661"><ele>145.0</ele><time>2026-04-11T02:09:31Z</time></trkpt><trkpt lat="43.1531524096529" lon="11.461418087344406"><ele>144.85714285714286</ele><time>2026-04-11T02:09:32Z</time></trkpt><trkpt lat="43.153216305144745" lon="11.461378452822197"><ele>144.71428571428572</ele><time>2026-04-11T02:09:33Z</time></trkpt><trkpt lat="43.15328449876421" lon="11.461343861071533"><ele>144.57142857142858</ele><time>2026-04-11T02:09:34Z</time></trkpt><trkpt lat="43.15334928665677" lon="11.461311568993269"><ele>144.42857142857144</ele><time>2026-04-11T02:09:35Z</time></trkpt><trkpt lat="43.153415027282506" lon="11.461278271773185"><ele>144.28571428571428</ele><time>2026-04-11T02:09:36Z</time></trkpt><trkpt lat="43.153477779674226" lon="11.461245844749271"><ele>144.14285714285717</ele><time>2026-04-11T02:09:37Z</time></trkpt><trkpt lat="43.153538098598716" lon="11.461209064693913"><ele>144.0</ele><time>2026-04-11T02:09:38Z</time></trkpt><trkpt lat="43.15359971329669" lon="11.46117468251183"><ele>144.42857142857144</ele><time>2026-04-11T02:09:39Z</time></trkpt><trkpt lat="43.153661826457636" lon="11.46114266133747"><ele>144.85714285714286</ele><time>2026-04-11T02:09:40Z</time></trkpt><trkpt lat="43.153728838608735" lon="11.461131537318911"><ele>145.28571428571428</ele><time>2026-04-11T02:09:41Z</time></trkpt><trkpt lat="43.15378685970713" lon="11.461077324948869"><ele>145.71428571428572</ele><time>2026-04-11T02:09:42Z</time></trkpt><trkpt lat="43.1538462815424" lon="11.461046048338037"><ele>146.14285714285714</ele><time>2026-04-11T02:09:43Z</time></trkpt><trkpt lat="43.15390731829881" lon="11.46101544824343"><ele>146.57142857142858</ele><time>2026-04-11T02:09:44Z</time></trkpt><trkpt lat="43.153972134606796" lon="11.461004561171782"><ele>147.0</ele><time>2026-04-11T02:09:45Z</time></trkpt><trkpt lat="43.15403137754231" lon="11.460973642300972"><ele>146.85714285714286</ele><time>2026-04-11T02:09:46Z</time></trkpt><trkpt lat="43.15409105382866" lon="11.460942497238257"><ele>146.71428571428572</ele><time>2026-04-11T02:09:47Z</time></trkpt><trkpt lat="43.154150721795666" lon="11.460911356524624"><ele>146.57142857142856</ele><time>2026-04-11T02:09:48Z</time></trkpt><trkpt lat="43.15420451288731" lon="11.460859164829468"><ele>146.42857142857144</ele><time>2026-04-11T02:09:49Z</time></trkpt><trkpt lat="43.1542645664773" lon="11.4608293670731"><ele>146.28571428571428</ele><time>2026-04-11T02:09:50Z</time></trkpt><trkpt lat="43.154327943943684" lon="11.460817972180179"><ele>146.14285714285714</ele><time>2026-04-11T02:09:51Z</time></trkpt><trkpt lat="43.15438800658491" lon="11.460785882681956"><ele>146.0</ele><time>2026-04-11T02:09:52Z</time></trkpt><trkpt lat="43.154447871669525" lon="11.460753898742633"><ele>146.0</ele><time>2026-04-11T02:09:53Z</time></trkpt><trkpt lat="43.15451004469646" lon="11.460720681753154"><ele>146.0</ele><time>2026-04-11T02:09:54Z</time></trkpt><trkpt lat="43.154573236419424" lon="11.460686920508525"><ele>146.0</ele><time>2026-04-11T02:09:55Z</time></trkpt><trkpt lat="43.154633134623104" lon="11.460654918879257"><ele>146.0</ele><time>2026-04-11T02:09:56Z</time></trkpt><trkpt lat="43.15469404001251" lon="11.460622379136426"><ele>146.0</ele><time>2026-04-11T02:09:57Z</time></trkpt><trkpt lat="43.1548114104109" lon="11.460559672004985"><ele>146.0</ele><time>2026-04-11T02:09:59Z</time></trkpt><trkpt lat="43.15492450007339" lon="11.460499251935525"><ele>146.0</ele><time>2026-04-11T02:10:01Z</time></trkpt><trkpt lat="43.15503691014958" lon="11.460439194940903"><ele>146.0</ele><time>2026-04-11T02:10:03Z</time></trkpt><trkpt lat="43.15514465650805" lon="11.460358143776803"><ele>146.0</ele><time>2026-04-11T02:10:05Z</time></trkpt><trkpt lat="43.15526238077292" lon="11.460318733436928"><ele>146.0</ele><time>2026-04-11T02:10:07Z</time></trkpt><trkpt lat="43.15531497693641" lon="11.460268080025712"><ele>146.0</ele><time>2026-04-11T02:10:08Z</time></trkpt><trkpt lat="43.15542852521628" lon="11.460208429721579"><ele>146.0</ele><time>2026-04-11T02:10:10Z</time></trkpt><trkpt lat="43.15554530573749" lon="11.46016996182339"><ele>146.0</ele><time>2026-04-11T02:10:12Z</time></trkpt><trkpt lat="43.15560482600119" lon="11.46013866446959"><ele>146.0</ele><time>2026-04-11T02:10:13Z</time></trkpt><trkpt lat="43.15572007973649" lon="11.460078060961527"><ele>146.0</ele><time>2026-04-11T02:10:15Z</time></trkpt><trkpt lat="43.15583407157188" lon="11.460018121255956"><ele>146.0</ele><time>2026-04-11T02:10:17Z</time></trkpt><trkpt lat="43.15594803294793" lon="11.459958710111582"><ele>146.0</ele><time>2026-04-11T02:10:19Z</time></trkpt><trkpt lat="43.156063560756415" lon="11.45989836497298"><ele>146.0</ele><time>2026-04-11T02:10:21Z</time></trkpt><trkpt lat="43.156176334955695" lon="11.4598394581516"><ele>146.0</ele><time>2026-04-11T02:10:23Z</time></trkpt><trkpt lat="43.15623155901233" lon="11.459787115424444"><ele>146.0</ele><time>2026-04-11T02:10:24Z</time></trkpt><trkpt lat="43.15629652698378" lon="11.459776676692162"><ele>146.0</ele><time>2026-04-11T02:10:25Z</time></trkpt><trkpt lat="43.156355992689505" lon="11.459745615199779"><ele>146.0</ele><time>2026-04-11T02:10:26Z</time></trkpt><trkpt lat="43.15647479100089" lon="11.459683459539635"><ele>146.0</ele><time>2026-04-11T02:10:28Z</time></trkpt><trkpt lat="43.1565334932756" lon="11.459652279582983"><ele>146.0</ele><time>2026-04-11T02:10:29Z</time></trkpt><trkpt lat="43.15659317579845" lon="11.459620578960463"><ele>146.0</ele><time>2026-04-11T02:10:30Z</time></trkpt><trkpt lat="43.156652483686166" lon="11.459589077332062"><ele>146.0</ele><time>2026-04-11T02:10:31Z</time></trkpt><trkpt lat="43.15671510492908" lon="11.459555815817644"><ele>146.0</ele><time>2026-04-11T02:10:32Z</time></trkpt><trkpt lat="43.15682884583281" lon="11.459495401858995"><ele>146.0</ele><time>2026-04-11T02:10:34Z</time></trkpt><trkpt lat="43.15694382754718" lon="11.459434328854682"><ele>146.0</ele><time>2026-04-11T02:10:36Z</time></trkpt><trkpt lat="43.15706182576198" lon="11.459371655284901"><ele>146.0</ele><time>2026-04-11T02:10:38Z</time></trkpt><trkpt lat="43.15712185990709" lon="11.459339734584628"><ele>146.0</ele><time>2026-04-11T02:10:39Z</time></trkpt><trkpt lat="43.15718222697972" lon="11.459307383000846"><ele>146.0</ele><time>2026-04-11T02:10:40Z</time></trkpt><trkpt lat="43.15724201027483" lon="11.459275344283043"><ele>146.0</ele><time>2026-04-11T02:10:41Z</time></trkpt><trkpt lat="43.15730220576156" lon="11.459243084650033"><ele>146.0</ele><time>2026-04-11T02:10:42Z</time></trkpt><trkpt lat="43.157362667337864" lon="11.45921068242479"><ele>146.0</ele><time>2026-04-11T02:10:43Z</time></trkpt><trkpt lat="43.1574221276195" lon="11.459178816794696"><ele>146.0</ele><time>2026-04-11T02:10:44Z</time></trkpt><trkpt lat="43.15753960697686" lon="11.459115857920585"><ele>146.0</ele><time>2026-04-11T02:10:46Z</time></trkpt><trkpt lat="43.157599058407726" lon="11.459083997058734"><ele>146.0</ele><time>2026-04-11T02:10:47Z</time></trkpt><trkpt lat="43.15765792850488" lon="11.45905244773873"><ele>146.0</ele><time>2026-04-11T02:10:48Z</time></trkpt><trkpt lat="43.15771987637666" lon="11.459019248997212"><ele>146.0</ele><time>2026-04-11T02:10:49Z</time></trkpt><trkpt lat="43.15777970874016" lon="11.458987183960842"><ele>146.0</ele><time>2026-04-11T02:10:50Z</time></trkpt><trkpt lat="43.157897227383245" lon="11.45892420402834"><ele>146.0</ele><time>2026-04-11T02:10:52Z</time></trkpt><trkpt lat="43.157955979589026" lon="11.458892847349167"><ele>146.0</ele><time>2026-04-11T02:10:53Z</time></trkpt><trkpt lat="43.15801503445348" lon="11.458861401208079"><ele>146.0</ele><time>2026-04-11T02:10:54Z</time></trkpt><trkpt lat="43.15807554027479" lon="11.45882918244778"><ele>146.0</ele><time>2026-04-11T02:10:55Z</time></trkpt><trkpt lat="43.15813448186545" lon="11.458797796612496"><ele>146.0</ele><time>2026-04-11T02:10:56Z</time></trkpt><trkpt lat="43.15825323100707" lon="11.458734872665033"><ele>146.0</ele><time>2026-04-11T02:10:58Z</time></trkpt><trkpt lat="43.15837103460263" lon="11.458672865014911"><ele>145.75</ele><time>2026-04-11T02:11:00Z</time></trkpt><trkpt lat="43.15848659942322" lon="11.458612035760563"><ele>145.5</ele><time>2026-04-11T02:11:02Z</time></trkpt><trkpt lat="43.15859877338894" lon="11.458552991344291"><ele>145.25</ele><time>2026-04-11T02:11:04Z</time></trkpt><trkpt lat="43.15870720353263" lon="11.458495485597796"><ele>145.0</ele><time>2026-04-11T02:11:06Z</time></trkpt><trkpt lat="43.15881512291407" lon="11.458438049727327"><ele>145.0</ele><time>2026-04-11T02:11:08Z</time></trkpt><trkpt lat="43.15888039974685" lon="11.458403308698921"><ele>145.0</ele><time>2026-04-11T02:11:09Z</time></trkpt><trkpt lat="43.15894167109838" lon="11.458370699420428"><ele>145.0</ele><time>2026-04-11T02:11:10Z</time></trkpt><trkpt lat="43.15900207853521" lon="11.458338549917103"><ele>145.0</ele><time>2026-04-11T02:11:11Z</time></trkpt><trkpt lat="43.1590628666664" lon="11.458306197816915"><ele>145.0</ele><time>2026-04-11T02:11:12Z</time></trkpt><trkpt lat="43.159122158554254" lon="11.458274642030194"><ele>145.0</ele><time>2026-04-11T02:11:13Z</time></trkpt><trkpt lat="43.15918123983999" lon="11.45824319832998"><ele>145.0</ele><time>2026-04-11T02:11:14Z</time></trkpt><trkpt lat="43.15924186047096" lon="11.45821093536839"><ele>145.2</ele><time>2026-04-11T02:11:15Z</time></trkpt><trkpt lat="43.159300887641166" lon="11.458179520474507"><ele>145.4</ele><time>2026-04-11T02:11:16Z</time></trkpt><trkpt lat="43.1593616734555" lon="11.458146952266983"><ele>145.6</ele><time>2026-04-11T02:11:17Z</time></trkpt><trkpt lat="43.15947957805281" lon="11.45808363651434"><ele>145.8</ele><time>2026-04-11T02:11:19Z</time></trkpt><trkpt lat="43.15959636544797" lon="11.458020920706339"><ele>146.0</ele><time>2026-04-11T02:11:21Z</time></trkpt><trkpt lat="43.15971364764401" lon="11.457957939188361"><ele>146.0</ele><time>2026-04-11T02:11:23Z</time></trkpt><trkpt lat="43.15983224541617" lon="11.457894251224996"><ele>146.0</ele><time>2026-04-11T02:11:25Z</time></trkpt><trkpt lat="43.15994866007558" lon="11.457831735586588"><ele>146.0</ele><time>2026-04-11T02:11:27Z</time></trkpt><trkpt lat="43.16006429363266" lon="11.457770229934606"><ele>146.0</ele><time>2026-04-11T02:11:29Z</time></trkpt><trkpt lat="43.16018267787514" lon="11.457707727597937"><ele>146.0</ele><time>2026-04-11T02:11:31Z</time></trkpt><trkpt lat="43.16024050778074" lon="11.457670411264722"><ele>146.0</ele><time>2026-04-11T02:11:32Z</time></trkpt><trkpt lat="43.160342071142615" lon="11.457571442163895"><ele>146.0</ele><time>2026-04-11T02:11:34Z</time></trkpt><trkpt lat="43.1603874059998" lon="11.457502833309904"><ele>146.0</ele><time>2026-04-11T02:11:35Z</time></trkpt><trkpt lat="43.16041815378823" lon="11.457417135549685"><ele>146.0</ele><time>2026-04-11T02:11:36Z</time></trkpt><trkpt lat="43.16041283929302" lon="11.457317420080557"><ele>146.0</ele><time>2026-04-11T02:11:37Z</time></trkpt><trkpt lat="43.160447788898246" lon="11.457162866217178"><ele>146.4</ele><time>2026-04-11T02:11:39Z</time></trkpt><trkpt lat="43.160476986423575" lon="11.457036085433359"><ele>146.8</ele><time>2026-04-11T02:11:41Z</time></trkpt><trkpt lat="43.16052304250181" lon="11.456922121036182"><ele>147.20000000000002</ele><time>2026-04-11T02:11:43Z</time></trkpt><trkpt lat="43.160588876079366" lon="11.456851181299134"><ele>147.6</ele><time>2026-04-11T02:11:45Z</time></trkpt><trkpt lat="43.16065960653788" lon="11.456806259063729"><ele>148.0</ele><time>2026-04-11T02:11:47Z</time></trkpt><trkpt lat="43.16076580942213" lon="11.456888361017528"><ele>148.0</ele><time>2026-04-11T02:11:50Z</time></trkpt><trkpt lat="43.16081177192245" lon="11.456976333988315"><ele>148.0</ele><time>2026-04-11T02:11:52Z</time></trkpt><trkpt lat="43.160849105490215" lon="11.457064386925143"><ele>148.0</ele><time>2026-04-11T02:11:54Z</time></trkpt><trkpt lat="43.160879203731014" lon="11.45716423091947"><ele>148.0</ele><time>2026-04-11T02:11:57Z</time></trkpt><trkpt lat="43.16090748647407" lon="11.45726762843507"><ele>148.0</ele><time>2026-04-11T02:12:00Z</time></trkpt><trkpt lat="43.16094647079338" lon="11.457377856044104"><ele>148.0</ele><time>2026-04-11T02:12:02Z</time></trkpt><trkpt lat="43.16101360421498" lon="11.457631595449714"><ele>148.0</ele><time>2026-04-11T02:12:04Z</time></trkpt><trkpt lat="43.16104720841444" lon="11.457771849363514"><ele>148.0</ele><time>2026-04-11T02:12:06Z</time></trkpt><trkpt lat="43.16107424664387" lon="11.457942053249884"><ele>148.0</ele><time>2026-04-11T02:12:08Z</time></trkpt><trkpt lat="43.16108590881448" lon="11.458040211916417"><ele>148.0</ele><time>2026-04-11T02:12:09Z</time></trkpt><trkpt lat="43.161095175209496" lon="11.458134805272065"><ele>148.0</ele><time>2026-04-11T02:12:10Z</time></trkpt><trkpt lat="43.16110418879621" lon="11.458240131410244"><ele>147.83333333333334</ele><time>2026-04-11T02:12:11Z</time></trkpt><trkpt lat="43.161112419092284" lon="11.458352427248178"><ele>147.66666666666669</ele><time>2026-04-11T02:12:12Z</time></trkpt><trkpt lat="43.16112098532425" lon="11.458473872352831"><ele>147.5</ele><time>2026-04-11T02:12:13Z</time></trkpt><trkpt lat="43.16112910007025" lon="11.45858891654398"><ele>147.33333333333334</ele><time>2026-04-11T02:12:14Z</time></trkpt><trkpt lat="43.16113803483033" lon="11.45871558624382"><ele>147.16666666666666</ele><time>2026-04-11T02:12:15Z</time></trkpt><trkpt lat="43.161147173683084" lon="11.458838846688518"><ele>147.0</ele><time>2026-04-11T02:12:16Z</time></trkpt><trkpt lat="43.161157185401976" lon="11.458961154772227"><ele>146.83333333333334</ele><time>2026-04-11T02:12:17Z</time></trkpt><trkpt lat="43.161168923290184" lon="11.459082262518248"><ele>146.66666666666666</ele><time>2026-04-11T02:12:18Z</time></trkpt><trkpt lat="43.16118242684886" lon="11.459203184909638"><ele>146.5</ele><time>2026-04-11T02:12:19Z</time></trkpt><trkpt lat="43.16119673763219" lon="11.45932156141772"><ele>146.33333333333331</ele><time>2026-04-11T02:12:20Z</time></trkpt><trkpt lat="43.16121262939217" lon="11.459439951740599"><ele>146.16666666666666</ele><time>2026-04-11T02:12:21Z</time></trkpt><trkpt lat="43.16123031656776" lon="11.459561450979589"><ele>146.0</ele><time>2026-04-11T02:12:22Z</time></trkpt><trkpt lat="43.16124632723088" lon="11.459661574993877"><ele>146.0</ele><time>2026-04-11T02:12:23Z</time></trkpt><trkpt lat="43.161281259933865" lon="11.459764560608843"><ele>146.0</ele><time>2026-04-11T02:12:24Z</time></trkpt><trkpt lat="43.16129968135282" lon="11.459874081722141"><ele>146.0</ele><time>2026-04-11T02:12:25Z</time></trkpt><trkpt lat="43.16131755059181" lon="11.459981576383598"><ele>146.0</ele><time>2026-04-11T02:12:26Z</time></trkpt><trkpt lat="43.16133137271384" lon="11.460082283215808"><ele>146.0</ele><time>2026-04-11T02:12:27Z</time></trkpt><trkpt lat="43.16136738544384" lon="11.460181513782606"><ele>146.0</ele><time>2026-04-11T02:12:28Z</time></trkpt><trkpt lat="43.16141675077194" lon="11.460279923051345"><ele>146.0</ele><time>2026-04-11T02:12:29Z</time></trkpt><trkpt lat="43.16147757051917" lon="11.460365830839683"><ele>146.0</ele><time>2026-04-11T02:12:30Z</time></trkpt><trkpt lat="43.1615398962261" lon="11.460444628431743"><ele>146.0</ele><time>2026-04-11T02:12:31Z</time></trkpt><trkpt lat="43.16160424654772" lon="11.460516438807671"><ele>146.0</ele><time>2026-04-11T02:12:32Z</time></trkpt><trkpt lat="43.16167605383279" lon="11.460584941061537"><ele>146.0</ele><time>2026-04-11T02:12:33Z</time></trkpt><trkpt lat="43.16174354996703" lon="11.460649868511505"><ele>146.0</ele><time>2026-04-11T02:12:34Z</time></trkpt><trkpt lat="43.161818673055315" lon="11.460698915674023"><ele>145.83333333333331</ele><time>2026-04-11T02:12:35Z</time></trkpt><trkpt lat="43.16188132266851" lon="11.460776796978413"><ele>145.66666666666666</ele><time>2026-04-11T02:12:36Z</time></trkpt><trkpt lat="43.1619479370517" lon="11.460840836927183"><ele>145.5</ele><time>2026-04-11T02:12:37Z</time></trkpt><trkpt lat="43.162008618231056" lon="11.460905932261785"><ele>145.33333333333334</ele><time>2026-04-11T02:12:38Z</time></trkpt><trkpt lat="43.162074032431306" lon="11.460971284872729"><ele>145.16666666666669</ele><time>2026-04-11T02:12:39Z</time></trkpt><trkpt lat="43.16213811893405" lon="11.461033271882869"><ele>145.0</ele><time>2026-04-11T02:12:40Z</time></trkpt><trkpt lat="43.16220237352733" lon="11.461098217087239"><ele>145.0</ele><time>2026-04-11T02:12:41Z</time></trkpt><trkpt lat="43.16225996930539" lon="11.461167250612956"><ele>145.0</ele><time>2026-04-11T02:12:42Z</time></trkpt><trkpt lat="43.16232487469301" lon="11.461231615272204"><ele>145.0</ele><time>2026-04-11T02:12:43Z</time></trkpt><trkpt lat="43.16238450895086" lon="11.461296833153437"><ele>145.0</ele><time>2026-04-11T02:12:44Z</time></trkpt><trkpt lat="43.16244532726444" lon="11.461358884032416"><ele>145.0</ele><time>2026-04-11T02:12:45Z</time></trkpt><trkpt lat="43.162506251029185" lon="11.461420113424284"><ele>145.0</ele><time>2026-04-11T02:12:46Z</time></trkpt><trkpt lat="43.162567425144665" lon="11.461483212573604"><ele>144.66666666666669</ele><time>2026-04-11T02:12:47Z</time></trkpt><trkpt lat="43.162623837335424" lon="11.461549119945518"><ele>144.33333333333334</ele><time>2026-04-11T02:12:48Z</time></trkpt><trkpt lat="43.162683008933136" lon="11.46160754901948"><ele>144.0</ele><time>2026-04-11T02:12:49Z</time></trkpt><trkpt lat="43.162744266708955" lon="11.461672583034009"><ele>143.66666666666666</ele><time>2026-04-11T02:12:50Z</time></trkpt><trkpt lat="43.162810827313734" lon="11.461731958319614"><ele>143.33333333333331</ele><time>2026-04-11T02:12:51Z</time></trkpt><trkpt lat="43.16287202240109" lon="11.46178942159575"><ele>143.0</ele><time>2026-04-11T02:12:52Z</time></trkpt><trkpt lat="43.16293710756899" lon="11.461849112421824"><ele>143.0</ele><time>2026-04-11T02:12:53Z</time></trkpt><trkpt lat="43.16300232943797" lon="11.46191599434625"><ele>143.0</ele><time>2026-04-11T02:12:54Z</time></trkpt><trkpt lat="43.16306533849654" lon="11.461983611661726"><ele>143.0</ele><time>2026-04-11T02:12:55Z</time></trkpt><trkpt lat="43.163139486481306" lon="11.462024399349653"><ele>143.0</ele><time>2026-04-11T02:12:56Z</time></trkpt><trkpt lat="43.163211283457144" lon="11.462067543835419"><ele>143.0</ele><time>2026-04-11T02:12:57Z</time></trkpt><trkpt lat="43.16328326885378" lon="11.4621087308681"><ele>143.0</ele><time>2026-04-11T02:12:58Z</time></trkpt><trkpt lat="43.163355291949436" lon="11.462168861584058"><ele>143.0</ele><time>2026-04-11T02:12:59Z</time></trkpt><trkpt lat="43.163431528205805" lon="11.462210671130343"><ele>143.0</ele><time>2026-04-11T02:13:00Z</time></trkpt><trkpt lat="43.16349913805257" lon="11.462270035986538"><ele>143.0</ele><time>2026-04-11T02:13:01Z</time></trkpt><trkpt lat="43.163554244649625" lon="11.46235238152605"><ele>143.0</ele><time>2026-04-11T02:13:02Z</time></trkpt><trkpt lat="43.16359308253061" lon="11.462440279692325"><ele>143.0</ele><time>2026-04-11T02:13:03Z</time></trkpt><trkpt lat="43.163623964517285" lon="11.46252871515864"><ele>143.0</ele><time>2026-04-11T02:13:04Z</time></trkpt><trkpt lat="43.16365744545426" lon="11.462615705684309"><ele>143.0</ele><time>2026-04-11T02:13:05Z</time></trkpt><trkpt lat="43.16369984776746" lon="11.462689600261204"><ele>143.0</ele><time>2026-04-11T02:13:06Z</time></trkpt><trkpt lat="43.16374783709181" lon="11.462750636759978"><ele>143.0</ele><time>2026-04-11T02:13:07Z</time></trkpt><trkpt lat="43.16380607934833" lon="11.462803019060821"><ele>143.0</ele><time>2026-04-11T02:13:08Z</time></trkpt><trkpt lat="43.1638642389557" lon="11.462843446590428"><ele>143.0</ele><time>2026-04-11T02:13:09Z</time></trkpt><trkpt lat="43.16397442860187" lon="11.46290458979248"><ele>143.0</ele><time>2026-04-11T02:13:11Z</time></trkpt><trkpt lat="43.16403387799502" lon="11.46293343060166"><ele>143.20000000000002</ele><time>2026-04-11T02:13:12Z</time></trkpt><trkpt lat="43.164128607274904" lon="11.462985980354949"><ele>143.4</ele><time>2026-04-11T02:13:14Z</time></trkpt><trkpt lat="43.164217959678226" lon="11.463060198869378"><ele>143.60000000000002</ele><time>2026-04-11T02:13:16Z</time></trkpt><trkpt lat="43.1643136189523" lon="11.463131760539406"><ele>143.8</ele><time>2026-04-11T02:13:18Z</time></trkpt><trkpt lat="43.16439178245939" lon="11.463210956629077"><ele>144.0</ele><time>2026-04-11T02:13:20Z</time></trkpt><trkpt lat="43.16447049996315" lon="11.463285751916342"><ele>144.0</ele><time>2026-04-11T02:13:22Z</time></trkpt><trkpt lat="43.16454663300103" lon="11.463368028911043"><ele>144.0</ele><time>2026-04-11T02:13:24Z</time></trkpt><trkpt lat="43.164609478042905" lon="11.463441787034437"><ele>144.0</ele><time>2026-04-11T02:13:26Z</time></trkpt><trkpt lat="43.16466452166113" lon="11.463494607426888"><ele>144.0</ele><time>2026-04-11T02:13:28Z</time></trkpt><trkpt lat="43.164715304394875" lon="11.463554500517319"><ele>144.0</ele><time>2026-04-11T02:13:30Z</time></trkpt><trkpt lat="43.16478311557194" lon="11.463629561616345"><ele>144.0</ele><time>2026-04-11T02:13:32Z</time></trkpt><trkpt lat="43.16485092097698" lon="11.463721802810127"><ele>144.2</ele><time>2026-04-11T02:13:34Z</time></trkpt><trkpt lat="43.164948473642504" lon="11.463819358413918"><ele>144.4</ele><time>2026-04-11T02:13:36Z</time></trkpt><trkpt lat="43.165058528227405" lon="11.463893620172488"><ele>144.6</ele><time>2026-04-11T02:13:38Z</time></trkpt><trkpt lat="43.16511476299888" lon="11.46393605298099"><ele>144.8</ele><time>2026-04-11T02:13:39Z</time></trkpt><trkpt lat="43.16517296598329" lon="11.463985883005057"><ele>145.0</ele><time>2026-04-11T02:13:40Z</time></trkpt><trkpt lat="43.165272630839475" lon="11.46406171817448"><ele>145.0</ele><time>2026-04-11T02:13:42Z</time></trkpt><trkpt lat="43.16533334816021" lon="11.464089185848751"><ele>145.0</ele><time>2026-04-11T02:13:43Z</time></trkpt><trkpt lat="43.16539102099684" lon="11.464125743146974"><ele>145.0</ele><time>2026-04-11T02:13:44Z</time></trkpt><trkpt lat="43.165448269649694" lon="11.464165910018469"><ele>145.0</ele><time>2026-04-11T02:13:45Z</time></trkpt><trkpt lat="43.16550764662226" lon="11.464207694050407"><ele>145.0</ele><time>2026-04-11T02:13:46Z</time></trkpt><trkpt lat="43.16556643723693" lon="11.464247984613765"><ele>145.0</ele><time>2026-04-11T02:13:47Z</time></trkpt><trkpt lat="43.165679827346196" lon="11.464326216345196"><ele>145.16666666666669</ele><time>2026-04-11T02:13:49Z</time></trkpt><trkpt lat="43.16572818693506" lon="11.464385744585607"><ele>145.33333333333334</ele><time>2026-04-11T02:13:50Z</time></trkpt><trkpt lat="43.1657881723447" lon="11.46442584436148"><ele>145.5</ele><time>2026-04-11T02:13:51Z</time></trkpt><trkpt lat="43.16584879425716" lon="11.464460191819086"><ele>145.66666666666666</ele><time>2026-04-11T02:13:52Z</time></trkpt><trkpt lat="43.16591267173377" lon="11.464491385536718"><ele>145.83333333333331</ele><time>2026-04-11T02:13:53Z</time></trkpt><trkpt lat="43.16597425688579" lon="11.464520054173837"><ele>146.0</ele><time>2026-04-11T02:13:54Z</time></trkpt><trkpt lat="43.1661125265127" lon="11.464385527479259"><ele>146.0</ele><time>2026-04-11T02:13:56Z</time></trkpt><trkpt lat="43.16615562253439" lon="11.464305501980245"><ele>146.0</ele><time>2026-04-11T02:13:57Z</time></trkpt><trkpt lat="43.16619268632832" lon="11.464226281457018"><ele>146.0</ele><time>2026-04-11T02:13:58Z</time></trkpt><trkpt lat="43.16623349094844" lon="11.464152496083821"><ele>146.0</ele><time>2026-04-11T02:13:59Z</time></trkpt><trkpt lat="43.16627587053057" lon="11.464076374861587"><ele>146.0</ele><time>2026-04-11T02:14:00Z</time></trkpt><trkpt lat="43.16631647300971" lon="11.464003454880325"><ele>146.0</ele><time>2026-04-11T02:14:01Z</time></trkpt><trkpt lat="43.1663582955622" lon="11.463928775888622"><ele>146.0</ele><time>2026-04-11T02:14:02Z</time></trkpt><trkpt lat="43.16640348929456" lon="11.463856569952295"><ele>146.0</ele><time>2026-04-11T02:14:03Z</time></trkpt><trkpt lat="43.1664545725766" lon="11.463794017083782"><ele>146.0</ele><time>2026-04-11T02:14:04Z</time></trkpt><trkpt lat="43.16650656345787" lon="11.463733497935689"><ele>146.0</ele><time>2026-04-11T02:14:05Z</time></trkpt><trkpt lat="43.166560400961785" lon="11.46367570919922"><ele>146.0</ele><time>2026-04-11T02:14:06Z</time></trkpt><trkpt lat="43.16661965788425" lon="11.46362279392363"><ele>146.0</ele><time>2026-04-11T02:14:07Z</time></trkpt><trkpt lat="43.166681798045694" lon="11.46357715878869"><ele>146.0</ele><time>2026-04-11T02:14:08Z</time></trkpt><trkpt lat="43.166741221702864" lon="11.463535238431843"><ele>146.0</ele><time>2026-04-11T02:14:09Z</time></trkpt><trkpt lat="43.16683943813747" lon="11.463456481221945"><ele>146.25</ele><time>2026-04-11T02:14:11Z</time></trkpt><trkpt lat="43.16693478385547" lon="11.46340190772168"><ele>146.5</ele><time>2026-04-11T02:14:13Z</time></trkpt><trkpt lat="43.16702599291482" lon="11.463493205882449"><ele>146.75</ele><time>2026-04-11T02:14:15Z</time></trkpt><trkpt lat="43.16711605348719" lon="11.46359857876794"><ele>147.0</ele><time>2026-04-11T02:14:17Z</time></trkpt><trkpt lat="43.16722860646517" lon="11.46369625051308"><ele>147.0</ele><time>2026-04-11T02:14:19Z</time></trkpt><trkpt lat="43.16732866088314" lon="11.463758779570444"><ele>147.0</ele><time>2026-04-11T02:14:21Z</time></trkpt><trkpt lat="43.167482455341094" lon="11.46384656670569"><ele>147.0</ele><time>2026-04-11T02:14:24Z</time></trkpt><trkpt lat="43.167583635537284" lon="11.463905822904556"><ele>147.0</ele><time>2026-04-11T02:14:26Z</time></trkpt><trkpt lat="43.16768445756471" lon="11.463964869354731"><ele>147.2</ele><time>2026-04-11T02:14:28Z</time></trkpt><trkpt lat="43.16777839808768" lon="11.464019362512753"><ele>147.39999999999998</ele><time>2026-04-11T02:14:30Z</time></trkpt><trkpt lat="43.16786275952303" lon="11.464067954744046"><ele>147.60000000000002</ele><time>2026-04-11T02:14:32Z</time></trkpt><trkpt lat="43.167950074474234" lon="11.464118248041437"><ele>147.8</ele><time>2026-04-11T02:14:34Z</time></trkpt><trkpt lat="43.16803932114327" lon="11.464169654213544"><ele>148.0</ele><time>2026-04-11T02:14:36Z</time></trkpt><trkpt lat="43.16811877207695" lon="11.464221610059766"><ele>148.0</ele><time>2026-04-11T02:14:38Z</time></trkpt><trkpt lat="43.168173478229356" lon="11.464296304497083"><ele>148.0</ele><time>2026-04-11T02:14:40Z</time></trkpt><trkpt lat="43.16810853936306" lon="11.464409203876228"><ele>148.0</ele><time>2026-04-11T02:14:42Z</time></trkpt><trkpt lat="43.16806335038837" lon="11.464542918487316"><ele>148.0</ele><time>2026-04-11T02:14:44Z</time></trkpt><trkpt lat="43.16801567812051" lon="11.464683904455793"><ele>148.0</ele><time>2026-04-11T02:14:46Z</time></trkpt><trkpt lat="43.1680046883836" lon="11.46476962415787"><ele>148.16666666666669</ele><time>2026-04-11T02:14:47Z</time></trkpt><trkpt lat="43.16792380822456" lon="11.4649024816003"><ele>148.33333333333334</ele><time>2026-04-11T02:14:49Z</time></trkpt><trkpt lat="43.1678706562172" lon="11.464950002234266"><ele>148.5</ele><time>2026-04-11T02:14:50Z</time></trkpt><trkpt lat="43.167807102284904" lon="11.46498399592155"><ele>148.66666666666666</ele><time>2026-04-11T02:14:51Z</time></trkpt><trkpt lat="43.167747440898516" lon="11.465014318821545"><ele>148.83333333333331</ele><time>2026-04-11T02:14:52Z</time></trkpt><trkpt lat="43.16768949546262" lon="11.4650641767463"><ele>149.0</ele><time>2026-04-11T02:14:53Z</time></trkpt><trkpt lat="43.16756962555007" lon="11.46512254581031"><ele>149.0</ele><time>2026-04-11T02:14:55Z</time></trkpt><trkpt lat="43.16747573272089" lon="11.465042720783973"><ele>149.0</ele><time>2026-04-11T02:14:56Z</time></trkpt><trkpt lat="43.16740220651984" lon="11.4650339543189"><ele>149.0</ele><time>2026-04-11T02:14:57Z</time></trkpt><trkpt lat="43.16732775539037" lon="11.465026033764246"><ele>149.0</ele><time>2026-04-11T02:14:58Z</time></trkpt><trkpt lat="43.16725630279092" lon="11.465024531769707"><ele>149.0</ele><time>2026-04-11T02:14:59Z</time></trkpt><trkpt lat="43.16717952858391" lon="11.465028365150609"><ele>149.0</ele><time>2026-04-11T02:15:00Z</time></trkpt><trkpt lat="43.16710540285747" lon="11.465041984539104"><ele>148.83333333333331</ele><time>2026-04-11T02:15:01Z</time></trkpt><trkpt lat="43.16703544232519" lon="11.465066788323973"><ele>148.66666666666666</ele><time>2026-04-11T02:15:02Z</time></trkpt><trkpt lat="43.16696266874284" lon="11.4650947768237"><ele>148.5</ele><time>2026-04-11T02:15:03Z</time></trkpt><trkpt lat="43.166890184594" lon="11.465132841071782"><ele>148.33333333333334</ele><time>2026-04-11T02:15:04Z</time></trkpt><trkpt lat="43.16682025935557" lon="11.465155834342463"><ele>148.16666666666669</ele><time>2026-04-11T02:15:05Z</time></trkpt><trkpt lat="43.16674837156676" lon="11.465196445096426"><ele>148.0</ele><time>2026-04-11T02:15:06Z</time></trkpt><trkpt lat="43.16667676609073" lon="11.465243670049125"><ele>148.0</ele><time>2026-04-11T02:15:07Z</time></trkpt><trkpt lat="43.166611077809065" lon="11.465294112273357"><ele>148.0</ele><time>2026-04-11T02:15:08Z</time></trkpt><trkpt lat="43.1665386999647" lon="11.465358017938408"><ele>148.0</ele><time>2026-04-11T02:15:09Z</time></trkpt><trkpt lat="43.16647007065647" lon="11.465420696438716"><ele>148.0</ele><time>2026-04-11T02:15:10Z</time></trkpt><trkpt lat="43.1664087033488" lon="11.465489988637128"><ele>148.0</ele><time>2026-04-11T02:15:11Z</time></trkpt><trkpt lat="43.166349238906214" lon="11.46556394633852"><ele>148.0</ele><time>2026-04-11T02:15:12Z</time></trkpt><trkpt lat="43.16629312130608" lon="11.465635960877755"><ele>147.33333333333334</ele><time>2026-04-11T02:15:13Z</time></trkpt><trkpt lat="43.16624052469388" lon="11.465705460048095"><ele>146.66666666666669</ele><time>2026-04-11T02:15:14Z</time></trkpt><trkpt lat="43.166183823546504" lon="11.465780636628537"><ele>146.0</ele><time>2026-04-11T02:15:15Z</time></trkpt><trkpt lat="43.166132944317205" lon="11.465849454518928"><ele>145.33333333333334</ele><time>2026-04-11T02:15:16Z</time></trkpt><trkpt lat="43.16607847677928" lon="11.465923125802444"><ele>144.66666666666666</ele><time>2026-04-11T02:15:17Z</time></trkpt><trkpt lat="43.1660250427492" lon="11.465996005722598"><ele>144.0</ele><time>2026-04-11T02:15:18Z</time></trkpt><trkpt lat="43.16597032632006" lon="11.466071457463382"><ele>144.0</ele><time>2026-04-11T02:15:19Z</time></trkpt><trkpt lat="43.16591809939696" lon="11.466143476363253"><ele>144.0</ele><time>2026-04-11T02:15:20Z</time></trkpt><trkpt lat="43.16585981701637" lon="11.466223039745184"><ele>144.0</ele><time>2026-04-11T02:15:21Z</time></trkpt><trkpt lat="43.16580708153925" lon="11.466290058401725"><ele>144.0</ele><time>2026-04-11T02:15:22Z</time></trkpt><trkpt lat="43.1657479096753" lon="11.46635609421991"><ele>144.0</ele><time>2026-04-11T02:15:23Z</time></trkpt><trkpt lat="43.16567574999093" lon="11.466410619372239"><ele>144.0</ele><time>2026-04-11T02:15:24Z</time></trkpt><trkpt lat="43.16558752739503" lon="11.46645271024875"><ele>144.8</ele><time>2026-04-11T02:15:25Z</time></trkpt><trkpt lat="43.16550055440688" lon="11.466494651860833"><ele>145.60000000000002</ele><time>2026-04-11T02:15:26Z</time></trkpt><trkpt lat="43.16541753860965" lon="11.466534713157044"><ele>146.4</ele><time>2026-04-11T02:15:27Z</time></trkpt><trkpt lat="43.165332257111466" lon="11.466584260169295"><ele>147.20000000000002</ele><time>2026-04-11T02:15:28Z</time></trkpt><trkpt lat="43.16524836050492" lon="11.466637913307315"><ele>148.0</ele><time>2026-04-11T02:15:29Z</time></trkpt><trkpt lat="43.16516666075281" lon="11.466690160181086"><ele>148.0</ele><time>2026-04-11T02:15:30Z</time></trkpt><trkpt lat="43.165103126647914" lon="11.466762278028138"><ele>148.0</ele><time>2026-04-11T02:15:31Z</time></trkpt><trkpt lat="43.16502433356473" lon="11.466808796310913"><ele>148.0</ele><time>2026-04-11T02:15:32Z</time></trkpt><trkpt lat="43.16496119105167" lon="11.466852498821636"><ele>148.0</ele><time>2026-04-11T02:15:33Z</time></trkpt><trkpt lat="43.16489314731713" lon="11.466896143314536"><ele>148.0</ele><time>2026-04-11T02:15:34Z</time></trkpt><trkpt lat="43.164823397944545" lon="11.466938440874998"><ele>148.0</ele><time>2026-04-11T02:15:35Z</time></trkpt><trkpt lat="43.16475694081217" lon="11.466984997035922"><ele>147.71428571428572</ele><time>2026-04-11T02:15:36Z</time></trkpt><trkpt lat="43.164691147010956" lon="11.467028083373659"><ele>147.42857142857142</ele><time>2026-04-11T02:15:37Z</time></trkpt><trkpt lat="43.1646354741388" lon="11.46707561309081"><ele>147.14285714285714</ele><time>2026-04-11T02:15:38Z</time></trkpt><trkpt lat="43.16457867818925" lon="11.467118553512737"><ele>146.85714285714286</ele><time>2026-04-11T02:15:39Z</time></trkpt><trkpt lat="43.16451935015013" lon="11.467161086150735"><ele>146.57142857142858</ele><time>2026-04-11T02:15:40Z</time></trkpt><trkpt lat="43.16446397107859" lon="11.467210656707472"><ele>146.28571428571428</ele><time>2026-04-11T02:15:41Z</time></trkpt><trkpt lat="43.164400124410854" lon="11.467231293795308"><ele>146.0</ele><time>2026-04-11T02:15:42Z</time></trkpt><trkpt lat="43.16434658657427" lon="11.467293833065417"><ele>146.0</ele><time>2026-04-11T02:15:43Z</time></trkpt><trkpt lat="43.16428456500382" lon="11.467331709276959"><ele>146.0</ele><time>2026-04-11T02:15:44Z</time></trkpt><trkpt lat="43.1642261595653" lon="11.467375859604195"><ele>146.0</ele><time>2026-04-11T02:15:45Z</time></trkpt><trkpt lat="43.16416330847584" lon="11.467397202208875"><ele>146.0</ele><time>2026-04-11T02:15:46Z</time></trkpt><trkpt lat="43.16410711805277" lon="11.467436573565514"><ele>146.0</ele><time>2026-04-11T02:15:47Z</time></trkpt><trkpt lat="43.16400558599217" lon="11.46750771470266"><ele>146.0</ele><time>2026-04-11T02:15:49Z</time></trkpt><trkpt lat="43.16392082570583" lon="11.467567104141688"><ele>146.0</ele><time>2026-04-11T02:15:51Z</time></trkpt><trkpt lat="43.163876379382785" lon="11.467877109655431"><ele>146.0</ele><time>2026-04-11T02:15:54Z</time></trkpt><trkpt lat="43.16391100310299" lon="11.467979178896615"><ele>146.0</ele><time>2026-04-11T02:15:56Z</time></trkpt><trkpt lat="43.16394925301747" lon="11.46809693991213"><ele>146.0</ele><time>2026-04-11T02:15:58Z</time></trkpt><trkpt lat="43.16399177606689" lon="11.468229307144696"><ele>146.0</ele><time>2026-04-11T02:16:00Z</time></trkpt><trkpt lat="43.164018066370204" lon="11.468311971408557"><ele>146.0</ele><time>2026-04-11T02:16:03Z</time></trkpt><trkpt lat="43.16409872239845" lon="11.468713711662062"><ele>146.0</ele><time>2026-04-11T02:16:06Z</time></trkpt><trkpt lat="43.16406832637499" lon="11.46883105194704"><ele>147.4</ele><time>2026-04-11T02:16:08Z</time></trkpt><trkpt lat="43.16401472675309" lon="11.468937168495904"><ele>148.8</ele><time>2026-04-11T02:16:10Z</time></trkpt><trkpt lat="43.163934587937966" lon="11.46900669935681"><ele>150.20000000000002</ele><time>2026-04-11T02:16:12Z</time></trkpt><trkpt lat="43.163838664954284" lon="11.469039816481203"><ele>151.6</ele><time>2026-04-11T02:16:14Z</time></trkpt><trkpt lat="43.16374066483686" lon="11.469064087811162"><ele>153.0</ele><time>2026-04-11T02:16:16Z</time></trkpt><trkpt lat="43.16364294749574" lon="11.469087134054782"><ele>153.0</ele><time>2026-04-11T02:16:18Z</time></trkpt><trkpt lat="43.16354614208981" lon="11.469112625506806"><ele>153.0</ele><time>2026-04-11T02:16:20Z</time></trkpt><trkpt lat="43.16343722314179" lon="11.469151969767603"><ele>153.0</ele><time>2026-04-11T02:16:22Z</time></trkpt><trkpt lat="43.163310638132266" lon="11.469186997547403"><ele>153.0</ele><time>2026-04-11T02:16:24Z</time></trkpt><trkpt lat="43.163213287198005" lon="11.46923981754704"><ele>153.0</ele><time>2026-04-11T02:16:26Z</time></trkpt><trkpt lat="43.16313435523048" lon="11.469301677176816"><ele>152.83333333333334</ele><time>2026-04-11T02:16:28Z</time></trkpt><trkpt lat="43.16305827134888" lon="11.469378462659387"><ele>152.66666666666666</ele><time>2026-04-11T02:16:30Z</time></trkpt><trkpt lat="43.162990682515115" lon="11.469448030834235"><ele>152.5</ele><time>2026-04-11T02:16:32Z</time></trkpt><trkpt lat="43.16291399991842" lon="11.469509551217536"><ele>152.33333333333331</ele><time>2026-04-11T02:16:34Z</time></trkpt><trkpt lat="43.16285444343898" lon="11.469588083367832"><ele>152.16666666666666</ele><time>2026-04-11T02:16:36Z</time></trkpt><trkpt lat="43.162800811652446" lon="11.46966752887931"><ele>152.0</ele><time>2026-04-11T02:16:38Z</time></trkpt><trkpt lat="43.16275167452944" lon="11.469758304635095"><ele>152.83333333333331</ele><time>2026-04-11T02:16:40Z</time></trkpt><trkpt lat="43.16270870185256" lon="11.469873239044265"><ele>153.66666666666666</ele><time>2026-04-11T02:16:43Z</time></trkpt><trkpt lat="43.16268145835095" lon="11.46997838785025"><ele>154.5</ele><time>2026-04-11T02:16:46Z</time></trkpt><trkpt lat="43.16266480045571" lon="11.470062063989188"><ele>155.33333333333334</ele><time>2026-04-11T02:16:48Z</time></trkpt><trkpt lat="43.16268559314602" lon="11.47014363762773"><ele>156.16666666666669</ele><time>2026-04-11T02:16:50Z</time></trkpt><trkpt lat="43.162663697752166" lon="11.470283732238553"><ele>157.0</ele><time>2026-04-11T02:16:53Z</time></trkpt><trkpt lat="43.162660091496036" lon="11.47041470020425"><ele>157.83333333333334</ele><time>2026-04-11T02:16:56Z</time></trkpt><trkpt lat="43.16264713235531" lon="11.470534798554834"><ele>158.66666666666669</ele><time>2026-04-11T02:16:59Z</time></trkpt><trkpt lat="43.16263786441096" lon="11.470660499894622"><ele>159.5</ele><time>2026-04-11T02:17:02Z</time></trkpt><trkpt lat="43.162635930378194" lon="11.470763967941034"><ele>160.33333333333334</ele><time>2026-04-11T02:17:04Z</time></trkpt><trkpt lat="43.16262628157534" lon="11.470886942288656"><ele>161.16666666666666</ele><time>2026-04-11T02:17:07Z</time></trkpt><trkpt lat="43.16262526109148" lon="11.47098943739895"><ele>162.0</ele><time>2026-04-11T02:17:10Z</time></trkpt><trkpt lat="43.1626174182207" lon="11.471104031480905"><ele>162.0</ele><time>2026-04-11T02:17:13Z</time></trkpt><trkpt lat="43.162619596096484" lon="11.471205385137322"><ele>162.0</ele><time>2026-04-11T02:17:16Z</time></trkpt><trkpt lat="43.16261145974545" lon="11.471309316286126"><ele>162.0</ele><time>2026-04-11T02:17:19Z</time></trkpt><trkpt lat="43.16259195479972" lon="11.471421802104944"><ele>162.0</ele><time>2026-04-11T02:17:22Z</time></trkpt><trkpt lat="43.162569368939984" lon="11.471536105392492"><ele>162.0</ele><time>2026-04-11T02:17:25Z</time></trkpt><trkpt lat="43.16254703664632" lon="11.471616822496351"><ele>162.0</ele><time>2026-04-11T02:17:28Z</time></trkpt><trkpt lat="43.16251489806012" lon="11.471702088161779"><ele>162.71428571428572</ele><time>2026-04-11T02:17:31Z</time></trkpt><trkpt lat="43.16248189069525" lon="11.47178751836525"><ele>163.42857142857142</ele><time>2026-04-11T02:17:34Z</time></trkpt><trkpt lat="43.162450064050084" lon="11.471882994634273"><ele>164.14285714285714</ele><time>2026-04-11T02:17:37Z</time></trkpt><trkpt lat="43.16240772446605" lon="11.4719736323468"><ele>164.85714285714286</ele><time>2026-04-11T02:17:40Z</time></trkpt><trkpt lat="43.16237182388224" lon="11.472059570742964"><ele>165.57142857142858</ele><time>2026-04-11T02:17:43Z</time></trkpt><trkpt lat="43.16233747404914" lon="11.472141522472699"><ele>166.28571428571428</ele><time>2026-04-11T02:17:46Z</time></trkpt><trkpt lat="43.16230071877017" lon="11.47221399709902"><ele>167.0</ele><time>2026-04-11T02:17:48Z</time></trkpt><trkpt lat="43.162259217441616" lon="11.472298397572006"><ele>167.71428571428572</ele><time>2026-04-11T02:17:51Z</time></trkpt><trkpt lat="43.16221336696415" lon="11.472375587386363"><ele>168.42857142857144</ele><time>2026-04-11T02:17:54Z</time></trkpt><trkpt lat="43.162176440119076" lon="11.472449952254248"><ele>169.14285714285717</ele><time>2026-04-11T02:17:56Z</time></trkpt><trkpt lat="43.16213545209826" lon="11.472524984499293"><ele>169.85714285714286</ele><time>2026-04-11T02:17:59Z</time></trkpt><trkpt lat="43.16210619136749" lon="11.472606955664725"><ele>170.57142857142858</ele><time>2026-04-11T02:18:01Z</time></trkpt><trkpt lat="43.16205550247127" lon="11.472710325180937"><ele>171.2857142857143</ele><time>2026-04-11T02:18:04Z</time></trkpt><trkpt lat="43.16201581886746" lon="11.472798767420423"><ele>172.0</ele><time>2026-04-11T02:18:07Z</time></trkpt><trkpt lat="43.16197603026789" lon="11.472873884073573"><ele>173.0</ele><time>2026-04-11T02:18:09Z</time></trkpt><trkpt lat="43.16193506074668" lon="11.47295239999628"><ele>174.0</ele><time>2026-04-11T02:18:12Z</time></trkpt><trkpt lat="43.16189466339267" lon="11.47306246594519"><ele>175.0</ele><time>2026-04-11T02:18:15Z</time></trkpt><trkpt lat="43.161862241781535" lon="11.473157937975246"><ele>176.0</ele><time>2026-04-11T02:18:18Z</time></trkpt><trkpt lat="43.16184141144777" lon="11.473267762679214"><ele>177.0</ele><time>2026-04-11T02:18:21Z</time></trkpt><trkpt lat="43.16184427437532" lon="11.473366437838102"><ele>178.0</ele><time>2026-04-11T02:18:24Z</time></trkpt><trkpt lat="43.16185753269206" lon="11.47346675461821"><ele>178.0</ele><time>2026-04-11T02:18:27Z</time></trkpt><trkpt lat="43.16186979227438" lon="11.473570346846437"><ele>178.0</ele><time>2026-04-11T02:18:30Z</time></trkpt><trkpt lat="43.16189243988726" lon="11.473668108834357"><ele>178.0</ele><time>2026-04-11T02:18:33Z</time></trkpt><trkpt lat="43.161909871197764" lon="11.473769521351379"><ele>178.0</ele><time>2026-04-11T02:18:36Z</time></trkpt><trkpt lat="43.161917285723014" lon="11.473878867145716"><ele>178.0</ele><time>2026-04-11T02:18:39Z</time></trkpt><trkpt lat="43.16190900597533" lon="11.473983527593687"><ele>178.0</ele><time>2026-04-11T02:18:42Z</time></trkpt><trkpt lat="43.16189778280872" lon="11.474112385423835"><ele>178.28571428571428</ele><time>2026-04-11T02:18:45Z</time></trkpt><trkpt lat="43.16190355310263" lon="11.474199951937596"><ele>178.57142857142856</ele><time>2026-04-11T02:18:47Z</time></trkpt><trkpt lat="43.16191274206395" lon="11.474291368007059"><ele>178.85714285714283</ele><time>2026-04-11T02:18:49Z</time></trkpt><trkpt lat="43.16194312036093" lon="11.474387917749203"><ele>179.14285714285714</ele><time>2026-04-11T02:18:51Z</time></trkpt><trkpt lat="43.16197376324558" lon="11.474495119345717"><ele>179.42857142857144</ele><time>2026-04-11T02:18:54Z</time></trkpt><trkpt lat="43.16201305227734" lon="11.474586912442284"><ele>179.7142857142857</ele><time>2026-04-11T02:18:57Z</time></trkpt><trkpt lat="43.16206583423412" lon="11.474657664292835"><ele>180.0</ele><time>2026-04-11T02:19:00Z</time></trkpt><trkpt lat="43.162112534027344" lon="11.474725659683676"><ele>180.0</ele><time>2026-04-11T02:19:02Z</time></trkpt><trkpt lat="43.16217781300159" lon="11.474769711482013"><ele>180.0</ele><time>2026-04-11T02:19:05Z</time></trkpt><trkpt lat="43.16224592754836" lon="11.474802717426703"><ele>180.0</ele><time>2026-04-11T02:19:07Z</time></trkpt><trkpt lat="43.16232085953018" lon="11.474846969853917"><ele>180.0</ele><time>2026-04-11T02:19:10Z</time></trkpt><trkpt lat="43.16239867650539" lon="11.474871758634533"><ele>180.0</ele><time>2026-04-11T02:19:13Z</time></trkpt><trkpt lat="43.16247846341701" lon="11.474889652409814"><ele>180.0</ele><time>2026-04-11T02:19:16Z</time></trkpt><trkpt lat="43.16257083880869" lon="11.474937654600026"><ele>182.0</ele><time>2026-04-11T02:19:19Z</time></trkpt><trkpt lat="43.16265889142622" lon="11.474996875094154"><ele>184.0</ele><time>2026-04-11T02:19:21Z</time></trkpt><trkpt lat="43.16275239162893" lon="11.475031393848871"><ele>186.0</ele><time>2026-04-11T02:19:25Z</time></trkpt><trkpt lat="43.16282056995631" lon="11.475066790040424"><ele>188.0</ele><time>2026-04-11T02:19:27Z</time></trkpt><trkpt lat="43.16292796848526" lon="11.4751265955832"><ele>190.0</ele><time>2026-04-11T02:19:30Z</time></trkpt><trkpt lat="43.16299110256665" lon="11.475169558154239"><ele>190.0</ele><time>2026-04-11T02:19:31Z</time></trkpt><trkpt lat="43.163112619919616" lon="11.475210881886865"><ele>190.0</ele><time>2026-04-11T02:19:33Z</time></trkpt><trkpt lat="43.16323191721228" lon="11.475286680774518"><ele>190.0</ele><time>2026-04-11T02:19:35Z</time></trkpt><trkpt lat="43.16334146386495" lon="11.475354151074322"><ele>190.0</ele><time>2026-04-11T02:19:37Z</time></trkpt><trkpt lat="43.1634419890157" lon="11.475410705502668"><ele>189.4</ele><time>2026-04-11T02:19:39Z</time></trkpt><trkpt lat="43.163508497980274" lon="11.475448679666611"><ele>188.8</ele><time>2026-04-11T02:19:40Z</time></trkpt><trkpt lat="43.163578256996885" lon="11.475485528350509"><ele>188.2</ele><time>2026-04-11T02:19:41Z</time></trkpt><trkpt lat="43.163676906076034" lon="11.475619427516353"><ele>187.6</ele><time>2026-04-11T02:19:43Z</time></trkpt><trkpt lat="43.16379504068226" lon="11.475673031149261"><ele>187.0</ele><time>2026-04-11T02:19:45Z</time></trkpt><trkpt lat="43.16386264966074" lon="11.475707200590268"><ele>187.0</ele><time>2026-04-11T02:19:46Z</time></trkpt><trkpt lat="43.16395343707449" lon="11.475762314098423"><ele>187.0</ele><time>2026-04-11T02:19:48Z</time></trkpt><trkpt lat="43.16403090572963" lon="11.475724674371813"><ele>187.0</ele><time>2026-04-11T02:19:49Z</time></trkpt><trkpt lat="43.164095256791875" lon="11.475764994348024"><ele>187.0</ele><time>2026-04-11T02:19:50Z</time></trkpt><trkpt lat="43.16416074837878" lon="11.475807688945928"><ele>187.0</ele><time>2026-04-11T02:19:51Z</time></trkpt><trkpt lat="43.16422427518089" lon="11.475848422766704"><ele>187.0</ele><time>2026-04-11T02:19:52Z</time></trkpt><trkpt lat="43.16427209015036" lon="11.475941143495906"><ele>187.0</ele><time>2026-04-11T02:19:53Z</time></trkpt><trkpt lat="43.16433926374571" lon="11.47597859395981"><ele>187.0</ele><time>2026-04-11T02:19:54Z</time></trkpt><trkpt lat="43.1644045506903" lon="11.476012708362843"><ele>187.0</ele><time>2026-04-11T02:19:55Z</time></trkpt><trkpt lat="43.1644663544194" lon="11.476044033639267"><ele>187.0</ele><time>2026-04-11T02:19:56Z</time></trkpt><trkpt lat="43.16458850933017" lon="11.47609740603205"><ele>187.0</ele><time>2026-04-11T02:19:58Z</time></trkpt><trkpt lat="43.16470883295443" lon="11.476141060096914"><ele>187.0</ele><time>2026-04-11T02:20:00Z</time></trkpt><trkpt lat="43.164821055507495" lon="11.47618009255017"><ele>187.0</ele><time>2026-04-11T02:20:02Z</time></trkpt><trkpt lat="43.16494372907219" lon="11.476222484315294"><ele>187.0</ele><time>2026-04-11T02:20:04Z</time></trkpt><trkpt lat="43.1650330517405" lon="11.476252509336238"><ele>187.0</ele><time>2026-04-11T02:20:06Z</time></trkpt><trkpt lat="43.165132064373694" lon="11.47628315203206"><ele>187.0</ele><time>2026-04-11T02:20:08Z</time></trkpt><trkpt lat="43.16520789759494" lon="11.476304858956283"><ele>186.25</ele><time>2026-04-11T02:20:10Z</time></trkpt><trkpt lat="43.16539420300722" lon="11.47633168617788"><ele>185.5</ele><time>2026-04-11T02:20:14Z</time></trkpt><trkpt lat="43.16548927642677" lon="11.476387387808593"><ele>184.75</ele><time>2026-04-11T02:20:16Z</time></trkpt><trkpt lat="43.16559339264687" lon="11.4764560648928"><ele>184.0</ele><time>2026-04-11T02:20:18Z</time></trkpt><trkpt lat="43.165641548823785" lon="11.476535766765087"><ele>185.75</ele><time>2026-04-11T02:20:21Z</time></trkpt><trkpt lat="43.16582323311382" lon="11.476653640707857"><ele>187.5</ele><time>2026-04-11T02:20:23Z</time></trkpt><trkpt lat="43.16591647503773" lon="11.476712193565163"><ele>189.25</ele><time>2026-04-11T02:20:25Z</time></trkpt><trkpt lat="43.166005563411204" lon="11.476772368204216"><ele>191.0</ele><time>2026-04-11T02:20:27Z</time></trkpt><trkpt lat="43.166062779545165" lon="11.476811014575144"><ele>191.0</ele><time>2026-04-11T02:20:29Z</time></trkpt><trkpt lat="43.16615261000181" lon="11.476871690065195"><ele>191.0</ele><time>2026-04-11T02:20:31Z</time></trkpt><trkpt lat="43.166236302732756" lon="11.47692876611143"><ele>191.0</ele><time>2026-04-11T02:20:33Z</time></trkpt><trkpt lat="43.16631236002606" lon="11.476980910485944"><ele>191.0</ele><time>2026-04-11T02:20:35Z</time></trkpt><trkpt lat="43.16639455024479" lon="11.477038898837378"><ele>191.0</ele><time>2026-04-11T02:20:37Z</time></trkpt><trkpt lat="43.166463270603224" lon="11.477091703109325"><ele>191.33333333333331</ele><time>2026-04-11T02:20:39Z</time></trkpt><trkpt lat="43.1665403451389" lon="11.477161350252986"><ele>191.66666666666666</ele><time>2026-04-11T02:20:42Z</time></trkpt><trkpt lat="43.16661339662386" lon="11.477234700613113"><ele>192.0</ele><time>2026-04-11T02:20:45Z</time></trkpt><trkpt lat="43.16667419996368" lon="11.477263597565681"><ele>192.33333333333331</ele><time>2026-04-11T02:20:47Z</time></trkpt><trkpt lat="43.16672758797004" lon="11.477317687283465"><ele>192.66666666666666</ele><time>2026-04-11T02:20:49Z</time></trkpt><trkpt lat="43.166791062739144" lon="11.477380961784116"><ele>193.0</ele><time>2026-04-11T02:20:51Z</time></trkpt><trkpt lat="43.166868185027255" lon="11.477443645886105"><ele>192.99999999999997</ele><time>2026-04-11T02:20:53Z</time></trkpt><trkpt lat="43.16694644107985" lon="11.477503665216043"><ele>193.0</ele><time>2026-04-11T02:20:55Z</time></trkpt><trkpt lat="43.16700668648429" lon="11.477561368129804"><ele>193.0</ele><time>2026-04-11T02:20:56Z</time></trkpt><trkpt lat="43.167082287183405" lon="11.477607658261089"><ele>193.0</ele><time>2026-04-11T02:20:57Z</time></trkpt><trkpt lat="43.16712283160709" lon="11.477751803292147"><ele>192.99999999999997</ele><time>2026-04-11T02:20:58Z</time></trkpt><trkpt lat="43.16720701799164" lon="11.477796392186013"><ele>193.0</ele><time>2026-04-11T02:20:59Z</time></trkpt><trkpt lat="43.16728340229778" lon="11.477821999602202"><ele>193.0</ele><time>2026-04-11T02:21:00Z</time></trkpt><trkpt lat="43.167353181931226" lon="11.477838164534408"><ele>193.0</ele><time>2026-04-11T02:21:01Z</time></trkpt><trkpt lat="43.167426655652946" lon="11.477844698861224"><ele>193.0</ele><time>2026-04-11T02:21:02Z</time></trkpt><trkpt lat="43.16753631619772" lon="11.477847496751782"><ele>193.0</ele><time>2026-04-11T02:21:04Z</time></trkpt><trkpt lat="43.16763532555747" lon="11.477845758748169"><ele>193.0</ele><time>2026-04-11T02:21:06Z</time></trkpt><trkpt lat="43.167734153573065" lon="11.47784270926164"><ele>193.16666666666666</ele><time>2026-04-11T02:21:08Z</time></trkpt><trkpt lat="43.16781890692763" lon="11.477840094078692"><ele>193.33333333333331</ele><time>2026-04-11T02:21:10Z</time></trkpt><trkpt lat="43.16790479501429" lon="11.477837443878084"><ele>193.5</ele><time>2026-04-11T02:21:12Z</time></trkpt><trkpt lat="43.16798578761133" lon="11.4778349447355"><ele>193.66666666666669</ele><time>2026-04-11T02:21:14Z</time></trkpt><trkpt lat="43.16805990577254" lon="11.477833499039617"><ele>193.83333333333334</ele><time>2026-04-11T02:21:16Z</time></trkpt><trkpt lat="43.168152950928175" lon="11.477835505599728"><ele>194.0</ele><time>2026-04-11T02:21:19Z</time></trkpt><trkpt lat="43.16822490860975" lon="11.47784174107023"><ele>194.39999999999998</ele><time>2026-04-11T02:21:21Z</time></trkpt><trkpt lat="43.1683620367784" lon="11.477869590977207"><ele>194.8</ele><time>2026-04-11T02:21:22Z</time></trkpt><trkpt lat="43.16845234802685" lon="11.477892276398345"><ele>195.2</ele><time>2026-04-11T02:21:24Z</time></trkpt><trkpt lat="43.16854932451607" lon="11.477878401632834"><ele>195.60000000000002</ele><time>2026-04-11T02:21:26Z</time></trkpt><trkpt lat="43.16865026741779" lon="11.477898787253343"><ele>196.0</ele><time>2026-04-11T02:21:28Z</time></trkpt><trkpt lat="43.16874275239924" lon="11.477913400649143"><ele>195.99999999999997</ele><time>2026-04-11T02:21:30Z</time></trkpt><trkpt lat="43.16882742076526" lon="11.477927197872333"><ele>196.0</ele><time>2026-04-11T02:21:32Z</time></trkpt><trkpt lat="43.168913097530904" lon="11.477944323128032"><ele>196.0</ele><time>2026-04-11T02:21:34Z</time></trkpt><trkpt lat="43.16900119085288" lon="11.477976601433289"><ele>196.0</ele><time>2026-04-11T02:21:36Z</time></trkpt><trkpt lat="43.169084561813996" lon="11.47800825827101"><ele>195.99999999999997</ele><time>2026-04-11T02:21:38Z</time></trkpt><trkpt lat="43.169166252127404" lon="11.478050513244312"><ele>196.0</ele><time>2026-04-11T02:21:40Z</time></trkpt><trkpt lat="43.16923532886904" lon="11.478104624539634"><ele>196.0</ele><time>2026-04-11T02:21:42Z</time></trkpt><trkpt lat="43.169356170764985" lon="11.478218830761987"><ele>196.0</ele><time>2026-04-11T02:21:45Z</time></trkpt><trkpt lat="43.169411463377244" lon="11.47832002116439"><ele>196.0</ele><time>2026-04-11T02:21:47Z</time></trkpt><trkpt lat="43.169462507410714" lon="11.478417164932964"><ele>196.0</ele><time>2026-04-11T02:21:49Z</time></trkpt><trkpt lat="43.169509065494545" lon="11.478534171859307"><ele>196.0</ele><time>2026-04-11T02:21:51Z</time></trkpt><trkpt lat="43.16955695468515" lon="11.478621102902277"><ele>195.99999999999997</ele><time>2026-04-11T02:21:53Z</time></trkpt><trkpt lat="43.16959949503675" lon="11.478723955717458"><ele>196.0</ele><time>2026-04-11T02:21:55Z</time></trkpt><trkpt lat="43.16964568556885" lon="11.478817936964811"><ele>196.0</ele><time>2026-04-11T02:21:57Z</time></trkpt><trkpt lat="43.169697908632166" lon="11.478916923515387"><ele>196.0</ele><time>2026-04-11T02:21:59Z</time></trkpt><trkpt lat="43.169747654045295" lon="11.479024085462267"><ele>195.99999999999997</ele><time>2026-04-11T02:22:01Z</time></trkpt><trkpt lat="43.16980258087271" lon="11.479111925409201"><ele>196.0</ele><time>2026-04-11T02:22:03Z</time></trkpt><trkpt lat="43.16986442585687" lon="11.479188721250607"><ele>196.83333333333331</ele><time>2026-04-11T02:22:06Z</time></trkpt><trkpt lat="43.16993021108922" lon="11.479245718620207"><ele>197.66666666666666</ele><time>2026-04-11T02:22:09Z</time></trkpt><trkpt lat="43.1700270940818" lon="11.479307025373453"><ele>198.5</ele><time>2026-04-11T02:22:12Z</time></trkpt><trkpt lat="43.17008939676805" lon="11.479343960489905"><ele>199.33333333333331</ele><time>2026-04-11T02:22:14Z</time></trkpt><trkpt lat="43.17016077559351" lon="11.479372730945766"><ele>200.16666666666666</ele><time>2026-04-11T02:22:17Z</time></trkpt><trkpt lat="43.17022774066441" lon="11.479383079567608"><ele>201.0</ele><time>2026-04-11T02:22:19Z</time></trkpt><trkpt lat="43.17033520475789" lon="11.479432370565506"><ele>201.0</ele><time>2026-04-11T02:22:22Z</time></trkpt><trkpt lat="43.17042036480969" lon="11.479470273086173"><ele>201.0</ele><time>2026-04-11T02:22:25Z</time></trkpt><trkpt lat="43.170511092456444" lon="11.479518165664015"><ele>201.0</ele><time>2026-04-11T02:22:27Z</time></trkpt><trkpt lat="43.170570429427414" lon="11.47957021178545"><ele>201.0</ele><time>2026-04-11T02:22:30Z</time></trkpt><trkpt lat="43.170642266590235" lon="11.479639566324442"><ele>201.0</ele><time>2026-04-11T02:22:31Z</time></trkpt><trkpt lat="43.170694500060826" lon="11.479700940281504"><ele>201.0</ele><time>2026-04-11T02:22:33Z</time></trkpt><trkpt lat="43.17076112415481" lon="11.479842956491712"><ele>202.5</ele><time>2026-04-11T02:22:36Z</time></trkpt><trkpt lat="43.17099751695432" lon="11.480225925167032"><ele>204.0</ele><time>2026-04-11T02:22:38Z</time></trkpt><trkpt lat="43.171025291719644" lon="11.480352280465226"><ele>203.79999999999998</ele><time>2026-04-11T02:22:40Z</time></trkpt><trkpt lat="43.17105105845418" lon="11.480471341138177"><ele>203.6</ele><time>2026-04-11T02:22:42Z</time></trkpt><trkpt lat="43.171080309192625" lon="11.480590112206283"><ele>203.4</ele><time>2026-04-11T02:22:44Z</time></trkpt><trkpt lat="43.17110498150931" lon="11.480710171007194"><ele>203.2</ele><time>2026-04-11T02:22:46Z</time></trkpt><trkpt lat="43.171136102580135" lon="11.480836033957496"><ele>203.0</ele><time>2026-04-11T02:22:48Z</time></trkpt><trkpt lat="43.17115197766104" lon="11.480946323297545"><ele>203.00000000000003</ele><time>2026-04-11T02:22:50Z</time></trkpt><trkpt lat="43.17117935404988" lon="11.481054308175061"><ele>203.0</ele><time>2026-04-11T02:22:52Z</time></trkpt><trkpt lat="43.171195797385984" lon="11.481164799666455"><ele>203.0</ele><time>2026-04-11T02:22:54Z</time></trkpt><trkpt lat="43.17121491602136" lon="11.481284111743063"><ele>203.0</ele><time>2026-04-11T02:22:56Z</time></trkpt><trkpt lat="43.17122315899361" lon="11.481387136526111"><ele>203.00000000000003</ele><time>2026-04-11T02:22:58Z</time></trkpt><trkpt lat="43.17124252934538" lon="11.481493444818042"><ele>203.0</ele><time>2026-04-11T02:23:02Z</time></trkpt><trkpt lat="43.17126214101637" lon="11.48161503743512"><ele>203.00000000000003</ele><time>2026-04-11T02:23:05Z</time></trkpt><trkpt lat="43.17127959318242" lon="11.481722019844641"><ele>203.0</ele><time>2026-04-11T02:23:08Z</time></trkpt><trkpt lat="43.171294150735235" lon="11.48182342457353"><ele>203.0</ele><time>2026-04-11T02:23:11Z</time></trkpt><trkpt lat="43.171319543140726" lon="11.481934063046701"><ele>203.0</ele><time>2026-04-11T02:23:14Z</time></trkpt><trkpt lat="43.17134618636062" lon="11.482029388245213"><ele>203.00000000000003</ele><time>2026-04-11T02:23:17Z</time></trkpt><trkpt lat="43.171388625715124" lon="11.482143447897284"><ele>203.0</ele><time>2026-04-11T02:23:20Z</time></trkpt><trkpt lat="43.17141215458081" lon="11.482229348094375"><ele>202.00000000000003</ele><time>2026-04-11T02:23:22Z</time></trkpt><trkpt lat="43.171454038697505" lon="11.482340659907871"><ele>201.0</ele><time>2026-04-11T02:23:25Z</time></trkpt><trkpt lat="43.17149827549834" lon="11.482443252602462"><ele>200.0</ele><time>2026-04-11T02:23:28Z</time></trkpt><trkpt lat="43.171541952989" lon="11.482558303479781"><ele>199.0</ele><time>2026-04-11T02:23:31Z</time></trkpt><trkpt lat="43.17159768260267" lon="11.482661180476098"><ele>198.00000000000003</ele><time>2026-04-11T02:23:34Z</time></trkpt><trkpt lat="43.17164059832386" lon="11.482752766072228"><ele>197.0</ele><time>2026-04-11T02:23:36Z</time></trkpt><trkpt lat="43.171694360757165" lon="11.482881140656565"><ele>199.33333333333334</ele><time>2026-04-11T02:23:39Z</time></trkpt><trkpt lat="43.17175410348451" lon="11.48294879695911"><ele>201.66666666666669</ele><time>2026-04-11T02:23:42Z</time></trkpt><trkpt lat="43.17181694023935" lon="11.483025328978673"><ele>204.0</ele><time>2026-04-11T02:23:44Z</time></trkpt><trkpt lat="43.171898235649984" lon="11.483115603794522"><ele>206.33333333333331</ele><time>2026-04-11T02:23:47Z</time></trkpt><trkpt lat="43.171971081886504" lon="11.483199198357593"><ele>208.66666666666666</ele><time>2026-04-11T02:23:50Z</time></trkpt><trkpt lat="43.17202336666338" lon="11.483255888817844"><ele>211.0</ele><time>2026-04-11T02:23:52Z</time></trkpt><trkpt lat="43.17210394427116" lon="11.483348619624893"><ele>210.99999999999997</ele><time>2026-04-11T02:23:54Z</time></trkpt><trkpt lat="43.172164015895284" lon="11.483417849789774"><ele>211.0</ele><time>2026-04-11T02:23:56Z</time></trkpt><trkpt lat="43.17222021231708" lon="11.483491675297529"><ele>211.0</ele><time>2026-04-11T02:23:58Z</time></trkpt><trkpt lat="43.17227414604379" lon="11.483560106955691"><ele>211.0</ele><time>2026-04-11T02:24:00Z</time></trkpt><trkpt lat="43.1723406962448" lon="11.483630283587273"><ele>210.99999999999997</ele><time>2026-04-11T02:24:03Z</time></trkpt><trkpt lat="43.172402305737826" lon="11.483664820341922"><ele>211.0</ele><time>2026-04-11T02:24:05Z</time></trkpt><trkpt lat="43.172463529235976" lon="11.48371701630968"><ele>212.66666666666666</ele><time>2026-04-11T02:24:08Z</time></trkpt><trkpt lat="43.17254584800946" lon="11.483745749082098"><ele>214.33333333333331</ele><time>2026-04-11T02:24:11Z</time></trkpt><trkpt lat="43.172615874547" lon="11.483777222870842"><ele>216.0</ele><time>2026-04-11T02:24:14Z</time></trkpt><trkpt lat="43.17268078815273" lon="11.483818293068659"><ele>217.66666666666669</ele><time>2026-04-11T02:24:17Z</time></trkpt><trkpt lat="43.172760661563935" lon="11.483854155982398"><ele>219.33333333333334</ele><time>2026-04-11T02:24:20Z</time></trkpt><trkpt lat="43.172846548192275" lon="11.483876307099488"><ele>221.0</ele><time>2026-04-11T02:24:23Z</time></trkpt><trkpt lat="43.17291188810275" lon="11.483908326778142"><ele>221.66666666666669</ele><time>2026-04-11T02:24:26Z</time></trkpt><trkpt lat="43.172983078510896" lon="11.483943375591245"><ele>222.33333333333334</ele><time>2026-04-11T02:24:29Z</time></trkpt><trkpt lat="43.17305515479862" lon="11.483964188210162"><ele>223.0</ele><time>2026-04-11T02:24:32Z</time></trkpt><trkpt lat="43.17313325421992" lon="11.483974028018958"><ele>223.66666666666669</ele><time>2026-04-11T02:24:35Z</time></trkpt><trkpt lat="43.173203318587476" lon="11.484022613183061"><ele>224.33333333333334</ele><time>2026-04-11T02:24:38Z</time></trkpt><trkpt lat="43.17327255784754" lon="11.48403444622215"><ele>225.0</ele><time>2026-04-11T02:24:40Z</time></trkpt><trkpt lat="43.17334693796443" lon="11.48403696930377"><ele>225.66666666666666</ele><time>2026-04-11T02:24:43Z</time></trkpt><trkpt lat="43.17341985135803" lon="11.484050741705843"><ele>226.33333333333331</ele><time>2026-04-11T02:24:45Z</time></trkpt><trkpt lat="43.173507325095" lon="11.484101189335846"><ele>227.0</ele><time>2026-04-11T02:24:48Z</time></trkpt><trkpt lat="43.173566543389626" lon="11.484154183786918"><ele>227.66666666666666</ele><time>2026-04-11T02:24:50Z</time></trkpt><trkpt lat="43.17364663681793" lon="11.484154191695369"><ele>228.33333333333331</ele><time>2026-04-11T02:24:52Z</time></trkpt><trkpt lat="43.173714220931885" lon="11.484176710677078"><ele>229.0</ele><time>2026-04-11T02:24:54Z</time></trkpt><trkpt lat="43.173824689386855" lon="11.484210825770296"><ele>228.99999999999997</ele><time>2026-04-11T02:24:57Z</time></trkpt><trkpt lat="43.173904589373414" lon="11.484241823567167"><ele>229.0</ele><time>2026-04-11T02:25:00Z</time></trkpt><trkpt lat="43.17397040586216" lon="11.484227043869621"><ele>229.0</ele><time>2026-04-11T02:25:02Z</time></trkpt><trkpt lat="43.17405414582666" lon="11.484229573211678"><ele>229.0</ele><time>2026-04-11T02:25:04Z</time></trkpt><trkpt lat="43.17415158218609" lon="11.48425421108849"><ele>228.99999999999997</ele><time>2026-04-11T02:25:07Z</time></trkpt><trkpt lat="43.17425934732128" lon="11.48431292262675"><ele>229.0</ele><time>2026-04-11T02:25:10Z</time></trkpt><trkpt lat="43.17432390407267" lon="11.484347676197652"><ele>229.0</ele><time>2026-04-11T02:25:12Z</time></trkpt><trkpt lat="43.17440118077486" lon="11.484385222530928"><ele>228.99999999999997</ele><time>2026-04-11T02:25:14Z</time></trkpt><trkpt lat="43.17448205296524" lon="11.484421977327662"><ele>228.99999999999997</ele><time>2026-04-11T02:25:16Z</time></trkpt><trkpt lat="43.17460118917962" lon="11.484482497303182"><ele>229.0</ele><time>2026-04-11T02:25:18Z</time></trkpt><trkpt lat="43.17466277308906" lon="11.484526406574389"><ele>229.0</ele><time>2026-04-11T02:25:19Z</time></trkpt><trkpt lat="43.174761951066266" lon="11.484596238413616"><ele>228.99999999999997</ele><time>2026-04-11T02:25:21Z</time></trkpt><trkpt lat="43.174790818338394" lon="11.484683886374171"><ele>229.0</ele><time>2026-04-11T02:25:22Z</time></trkpt><trkpt lat="43.17487985036061" lon="11.484740892977927"><ele>229.0</ele><time>2026-04-11T02:25:25Z</time></trkpt><trkpt lat="43.17493842397688" lon="11.484778397206798"><ele>229.0</ele><time>2026-04-11T02:25:27Z</time></trkpt><trkpt lat="43.17500491585367" lon="11.484820971579396"><ele>228.99999999999997</ele><time>2026-04-11T02:25:29Z</time></trkpt><trkpt lat="43.175063095563104" lon="11.484858223641517"><ele>229.0</ele><time>2026-04-11T02:25:31Z</time></trkpt><trkpt lat="43.175144981046536" lon="11.484910654359853"><ele>229.0</ele><time>2026-04-11T02:25:34Z</time></trkpt><trkpt lat="43.17521504180595" lon="11.484954405672333"><ele>229.0</ele><time>2026-04-11T02:25:37Z</time></trkpt><trkpt lat="43.17546426681748" lon="11.484998815048945"><ele>229.0</ele><time>2026-04-11T02:25:40Z</time></trkpt><trkpt lat="43.175585183132945" lon="11.484775187095876"><ele>229.0</ele><time>2026-04-11T02:25:42Z</time></trkpt><trkpt lat="43.17562354565227" lon="11.484700029678459"><ele>228.99999999999997</ele><time>2026-04-11T02:25:44Z</time></trkpt><trkpt lat="43.17568503367069" lon="11.484575461995426"><ele>228.99999999999997</ele><time>2026-04-11T02:25:46Z</time></trkpt><trkpt lat="43.17572913653779" lon="11.4844484138863"><ele>229.0</ele><time>2026-04-11T02:25:48Z</time></trkpt><trkpt lat="43.17579632945341" lon="11.48432231981898"><ele>229.0</ele><time>2026-04-11T02:25:50Z</time></trkpt><trkpt lat="43.17583247073541" lon="11.484187863260594"><ele>229.0</ele><time>2026-04-11T02:25:52Z</time></trkpt><trkpt lat="43.17584074569777" lon="11.48403225740295"><ele>228.99999999999997</ele><time>2026-04-11T02:25:54Z</time></trkpt><trkpt lat="43.17583364766326" lon="11.48387832617645"><ele>228.99999999999997</ele><time>2026-04-11T02:25:56Z</time></trkpt><trkpt lat="43.175820311106314" lon="11.483703636210128"><ele>229.0</ele><time>2026-04-11T02:25:58Z</time></trkpt><trkpt lat="43.17581291276565" lon="11.483614532563225"><ele>229.0</ele><time>2026-04-11T02:25:59Z</time></trkpt><trkpt lat="43.17580534159475" lon="11.4835233473943"><ele>227.66666666666666</ele><time>2026-04-11T02:26:00Z</time></trkpt><trkpt lat="43.17579686151271" lon="11.483421215470097"><ele>226.33333333333331</ele><time>2026-04-11T02:26:01Z</time></trkpt><trkpt lat="43.175780490486424" lon="11.483283133194595"><ele>225.0</ele><time>2026-04-11T02:26:02Z</time></trkpt><trkpt lat="43.17577217351226" lon="11.483180193565666"><ele>223.66666666666669</ele><time>2026-04-11T02:26:03Z</time></trkpt><trkpt lat="43.17576705433488" lon="11.483093758927213"><ele>222.33333333333334</ele><time>2026-04-11T02:26:04Z</time></trkpt><trkpt lat="43.17575180973803" lon="11.482954968181708"><ele>221.0</ele><time>2026-04-11T02:26:06Z</time></trkpt><trkpt lat="43.175734768286006" lon="11.482831372439351"><ele>220.16666666666669</ele><time>2026-04-11T02:26:08Z</time></trkpt><trkpt lat="43.17571082721992" lon="11.482719591309987"><ele>219.33333333333334</ele><time>2026-04-11T02:26:10Z</time></trkpt><trkpt lat="43.17565933766767" lon="11.48263868232297"><ele>218.5</ele><time>2026-04-11T02:26:12Z</time></trkpt><trkpt lat="43.17561618923342" lon="11.482521237128676"><ele>217.66666666666669</ele><time>2026-04-11T02:26:14Z</time></trkpt><trkpt lat="43.17563622548741" lon="11.482439217442428"><ele>216.83333333333334</ele><time>2026-04-11T02:26:15Z</time></trkpt><trkpt lat="43.17564237511282" lon="11.482266822128745"><ele>216.0</ele><time>2026-04-11T02:26:17Z</time></trkpt><trkpt lat="43.1756712762014" lon="11.482105130057112"><ele>214.20000000000002</ele><time>2026-04-11T02:26:19Z</time></trkpt><trkpt lat="43.17569531833927" lon="11.481948328622462"><ele>212.40000000000003</ele><time>2026-04-11T02:26:21Z</time></trkpt><trkpt lat="43.175735249318286" lon="11.481801449574592"><ele>210.6</ele><time>2026-04-11T02:26:23Z</time></trkpt><trkpt lat="43.17581119828067" lon="11.481694955539034"><ele>208.8</ele><time>2026-04-11T02:26:25Z</time></trkpt><trkpt lat="43.175897102993936" lon="11.481630294163429"><ele>207.0</ele><time>2026-04-11T02:26:27Z</time></trkpt><trkpt lat="43.17597693690055" lon="11.48154066091275"><ele>207.0</ele><time>2026-04-11T02:26:29Z</time></trkpt><trkpt lat="43.17604132332596" lon="11.48141653223063"><ele>207.0</ele><time>2026-04-11T02:26:31Z</time></trkpt><trkpt lat="43.17607869622554" lon="11.481264497990841"><ele>207.0</ele><time>2026-04-11T02:26:33Z</time></trkpt><trkpt lat="43.17611492661365" lon="11.481109380754953"><ele>207.0</ele><time>2026-04-11T02:26:35Z</time></trkpt><trkpt lat="43.17613571383015" lon="11.480946674805194"><ele>205.2</ele><time>2026-04-11T02:26:37Z</time></trkpt><trkpt lat="43.17615467514076" lon="11.480788317617103"><ele>203.39999999999998</ele><time>2026-04-11T02:26:39Z</time></trkpt><trkpt lat="43.17617244789548" lon="11.480631516771329"><ele>201.60000000000002</ele><time>2026-04-11T02:26:41Z</time></trkpt><trkpt lat="43.17618239744108" lon="11.480544265441793"><ele>199.8</ele><time>2026-04-11T02:26:42Z</time></trkpt><trkpt lat="43.17620326709642" lon="11.480386521309404"><ele>198.0</ele><time>2026-04-11T02:26:44Z</time></trkpt><trkpt lat="43.176227168268255" lon="11.480243330420564"><ele>197.5</ele><time>2026-04-11T02:26:46Z</time></trkpt><trkpt lat="43.17629241765574" lon="11.480111182067544"><ele>197.0</ele><time>2026-04-11T02:26:48Z</time></trkpt><trkpt lat="43.176341009676044" lon="11.48005176230497"><ele>196.5</ele><time>2026-04-11T02:26:49Z</time></trkpt><trkpt lat="43.17639162768173" lon="11.479987845998442"><ele>196.0</ele><time>2026-04-11T02:26:50Z</time></trkpt><trkpt lat="43.176443736827984" lon="11.479918398528838"><ele>195.5</ele><time>2026-04-11T02:26:51Z</time></trkpt><trkpt lat="43.17649417762932" lon="11.479846426516293"><ele>195.0</ele><time>2026-04-11T02:26:52Z</time></trkpt><trkpt lat="43.17654425238793" lon="11.479770882003827"><ele>195.0</ele><time>2026-04-11T02:26:53Z</time></trkpt><trkpt lat="43.17659066843867" lon="11.479695755392289"><ele>195.0</ele><time>2026-04-11T02:26:54Z</time></trkpt><trkpt lat="43.17663180344017" lon="11.479619411019591"><ele>195.0</ele><time>2026-04-11T02:26:55Z</time></trkpt><trkpt lat="43.17666457242242" lon="11.479535507802536"><ele>195.0</ele><time>2026-04-11T02:26:56Z</time></trkpt><trkpt lat="43.176687025543224" lon="11.47945048275446"><ele>195.0</ele><time>2026-04-11T02:26:57Z</time></trkpt><trkpt lat="43.17670342919987" lon="11.479361271959728"><ele>195.0</ele><time>2026-04-11T02:26:58Z</time></trkpt><trkpt lat="43.17671131485437" lon="11.479190407935933"><ele>193.4</ele><time>2026-04-11T02:27:00Z</time></trkpt><trkpt lat="43.176704394292884" lon="11.47902957384752"><ele>191.8</ele><time>2026-04-11T02:27:02Z</time></trkpt><trkpt lat="43.176688435131716" lon="11.478861042868227"><ele>190.2</ele><time>2026-04-11T02:27:04Z</time></trkpt><trkpt lat="43.17667703723085" lon="11.478776041541023"><ele>188.6</ele><time>2026-04-11T02:27:05Z</time></trkpt><trkpt lat="43.17666011918964" lon="11.478600509831047"><ele>187.0</ele><time>2026-04-11T02:27:07Z</time></trkpt><trkpt lat="43.17665981371004" lon="11.478509476314791"><ele>185.39999999999998</ele><time>2026-04-11T02:27:08Z</time></trkpt><trkpt lat="43.176660649579176" lon="11.478420198178807"><ele>183.79999999999998</ele><time>2026-04-11T02:27:09Z</time></trkpt><trkpt lat="43.176667883156355" lon="11.478324639331838"><ele>182.2</ele><time>2026-04-11T02:27:10Z</time></trkpt><trkpt lat="43.176685981822615" lon="11.478157402640159"><ele>180.6</ele><time>2026-04-11T02:27:12Z</time></trkpt><trkpt lat="43.1767130525408" lon="11.477999156051018"><ele>179.0</ele><time>2026-04-11T02:27:14Z</time></trkpt><trkpt lat="43.17673755462814" lon="11.477855965050678"><ele>177.0</ele><time>2026-04-11T02:27:16Z</time></trkpt><trkpt lat="43.176776946348824" lon="11.477721189847932"><ele>175.0</ele><time>2026-04-11T02:27:18Z</time></trkpt><trkpt lat="43.176849439424295" lon="11.477606392059384"><ele>173.0</ele><time>2026-04-11T02:27:20Z</time></trkpt><trkpt lat="43.17696049206924" lon="11.477533447852434"><ele>171.0</ele><time>2026-04-11T02:27:22Z</time></trkpt><trkpt lat="43.17702752927629" lon="11.477534316262277"><ele>169.0</ele><time>2026-04-11T02:27:23Z</time></trkpt><trkpt lat="43.17709324541736" lon="11.477519217442763"><ele>169.0</ele><time>2026-04-11T02:27:24Z</time></trkpt><trkpt lat="43.177167601598626" lon="11.477502652611653"><ele>169.0</ele><time>2026-04-11T02:27:25Z</time></trkpt><trkpt lat="43.17724954107829" lon="11.477487099771322"><ele>169.0</ele><time>2026-04-11T02:27:26Z</time></trkpt><trkpt lat="43.1773368373849" lon="11.477471877286824"><ele>169.0</ele><time>2026-04-11T02:27:27Z</time></trkpt><trkpt lat="43.177426939572975" lon="11.477456786756173"><ele>169.0</ele><time>2026-04-11T02:27:28Z</time></trkpt><trkpt lat="43.177516640644015" lon="11.477442384805423"><ele>169.0</ele><time>2026-04-11T02:27:29Z</time></trkpt><trkpt lat="43.17760635934231" lon="11.477408212308536"><ele>167.66666666666669</ele><time>2026-04-11T02:27:30Z</time></trkpt><trkpt lat="43.17769859613814" lon="11.477394683769718"><ele>166.33333333333334</ele><time>2026-04-11T02:27:31Z</time></trkpt><trkpt lat="43.177789255597304" lon="11.477404502621308"><ele>165.0</ele><time>2026-04-11T02:27:32Z</time></trkpt><trkpt lat="43.17787621401646" lon="11.477371641609473"><ele>163.66666666666666</ele><time>2026-04-11T02:27:33Z</time></trkpt><trkpt lat="43.177963409078984" lon="11.477359671569472"><ele>162.33333333333331</ele><time>2026-04-11T02:27:34Z</time></trkpt><trkpt lat="43.17804990019121" lon="11.47734405747119"><ele>161.0</ele><time>2026-04-11T02:27:35Z</time></trkpt><trkpt lat="43.17813991076081" lon="11.477353868166984"><ele>160.20000000000002</ele><time>2026-04-11T02:27:36Z</time></trkpt><trkpt lat="43.17822804855496" lon="11.47733916471562"><ele>159.4</ele><time>2026-04-11T02:27:37Z</time></trkpt><trkpt lat="43.17831667036365" lon="11.477301264800651"><ele>158.6</ele><time>2026-04-11T02:27:38Z</time></trkpt><trkpt lat="43.178407778430994" lon="11.47728603316789"><ele>157.8</ele><time>2026-04-11T02:27:39Z</time></trkpt><trkpt lat="43.17849768451481" lon="11.477267885156323"><ele>157.0</ele><time>2026-04-11T02:27:40Z</time></trkpt><trkpt lat="43.17858641604726" lon="11.477246760231541"><ele>157.0</ele><time>2026-04-11T02:27:41Z</time></trkpt><trkpt lat="43.17867689997578" lon="11.477225420560384"><ele>157.0</ele><time>2026-04-11T02:27:42Z</time></trkpt><trkpt lat="43.17876510985775" lon="11.477198716118775"><ele>157.0</ele><time>2026-04-11T02:27:43Z</time></trkpt><trkpt lat="43.17885334035861" lon="11.477174118019674"><ele>157.0</ele><time>2026-04-11T02:27:44Z</time></trkpt><trkpt lat="43.178939664920854" lon="11.477149784854419"><ele>157.0</ele><time>2026-04-11T02:27:45Z</time></trkpt><trkpt lat="43.17902533647644" lon="11.477123761996598"><ele>157.0</ele><time>2026-04-11T02:27:46Z</time></trkpt><trkpt lat="43.17910942053761" lon="11.477098464722783"><ele>156.66666666666669</ele><time>2026-04-11T02:27:47Z</time></trkpt><trkpt lat="43.17919338456805" lon="11.47708012598911"><ele>156.33333333333334</ele><time>2026-04-11T02:27:48Z</time></trkpt><trkpt lat="43.179277355185" lon="11.477069329537285"><ele>156.0</ele><time>2026-04-11T02:27:49Z</time></trkpt><trkpt lat="43.17935617476116" lon="11.477093920971791"><ele>155.66666666666666</ele><time>2026-04-11T02:27:50Z</time></trkpt><trkpt lat="43.17942802495169" lon="11.477103416102125"><ele>155.33333333333331</ele><time>2026-04-11T02:27:51Z</time></trkpt><trkpt lat="43.17950675701525" lon="11.477115889575863"><ele>155.0</ele><time>2026-04-11T02:27:52Z</time></trkpt><trkpt lat="43.17957811127193" lon="11.477113528882654"><ele>155.0</ele><time>2026-04-11T02:27:53Z</time></trkpt><trkpt lat="43.17964834925152" lon="11.477134410450219"><ele>155.0</ele><time>2026-04-11T02:27:54Z</time></trkpt><trkpt lat="43.17976774878797" lon="11.477165333866422"><ele>155.0</ele><time>2026-04-11T02:27:56Z</time></trkpt><trkpt lat="43.17988291902814" lon="11.477193226582507"><ele>155.0</ele><time>2026-04-11T02:27:58Z</time></trkpt><trkpt lat="43.17999492144146" lon="11.47724781404573"><ele>155.0</ele><time>2026-04-11T02:28:00Z</time></trkpt><trkpt lat="43.18011276631511" lon="11.477281742116801"><ele>155.0</ele><time>2026-04-11T02:28:02Z</time></trkpt><trkpt lat="43.180228424555104" lon="11.477313963439908"><ele>155.0</ele><time>2026-04-11T02:28:04Z</time></trkpt><trkpt lat="43.18034826008577" lon="11.47732512181743"><ele>155.0</ele><time>2026-04-11T02:28:06Z</time></trkpt><trkpt lat="43.18046274932159" lon="11.477352090455405"><ele>155.0</ele><time>2026-04-11T02:28:08Z</time></trkpt><trkpt lat="43.180584738018624" lon="11.47737608231507"><ele>155.0</ele><time>2026-04-11T02:28:10Z</time></trkpt><trkpt lat="43.180649485842416" lon="11.47739253013687"><ele>155.0</ele><time>2026-04-11T02:28:11Z</time></trkpt><trkpt lat="43.18077001671484" lon="11.477435904284743"><ele>155.0</ele><time>2026-04-11T02:28:13Z</time></trkpt><trkpt lat="43.180886787414515" lon="11.477459910929152"><ele>155.0</ele><time>2026-04-11T02:28:15Z</time></trkpt><trkpt lat="43.18100573051208" lon="11.477487171558241"><ele>155.0</ele><time>2026-04-11T02:28:17Z</time></trkpt><trkpt lat="43.18112444127155" lon="11.477494742074867"><ele>155.2</ele><time>2026-04-11T02:28:19Z</time></trkpt><trkpt lat="43.18123829731312" lon="11.477543466094179"><ele>155.4</ele><time>2026-04-11T02:28:21Z</time></trkpt><trkpt lat="43.18135836212253" lon="11.477553789239904"><ele>155.6</ele><time>2026-04-11T02:28:23Z</time></trkpt><trkpt lat="43.1814785629449" lon="11.477589211665432"><ele>155.8</ele><time>2026-04-11T02:28:25Z</time></trkpt><trkpt lat="43.18154027418314" lon="11.47760807531319"><ele>156.0</ele><time>2026-04-11T02:28:26Z</time></trkpt><trkpt lat="43.181597291663486" lon="11.477645269118828"><ele>156.0</ele><time>2026-04-11T02:28:27Z</time></trkpt><trkpt lat="43.18171583886629" lon="11.477680347698708"><ele>156.0</ele><time>2026-04-11T02:28:29Z</time></trkpt><trkpt lat="43.181837412625605" lon="11.477716766526996"><ele>156.0</ele><time>2026-04-11T02:28:31Z</time></trkpt><trkpt lat="43.18189908001023" lon="11.477736154801649"><ele>156.0</ele><time>2026-04-11T02:28:32Z</time></trkpt><trkpt lat="43.18196349892151" lon="11.477756408156326"><ele>156.0</ele><time>2026-04-11T02:28:33Z</time></trkpt><trkpt lat="43.18202795929715" lon="11.47777667457892"><ele>156.0</ele><time>2026-04-11T02:28:34Z</time></trkpt><trkpt lat="43.18209121855778" lon="11.477796409540305"><ele>156.0</ele><time>2026-04-11T02:28:35Z</time></trkpt><trkpt lat="43.182155259412056" lon="11.477814523426254"><ele>156.0</ele><time>2026-04-11T02:28:36Z</time></trkpt><trkpt lat="43.18221884229614" lon="11.477831935143902"><ele>156.0</ele><time>2026-04-11T02:28:37Z</time></trkpt><trkpt lat="43.182341189802614" lon="11.477854666262175"><ele>156.0</ele><time>2026-04-11T02:28:39Z</time></trkpt><trkpt lat="43.1824069329401" lon="11.477850554266492"><ele>156.0</ele><time>2026-04-11T02:28:40Z</time></trkpt><trkpt lat="43.18247268142218" lon="11.477776411193279"><ele>156.0</ele><time>2026-04-11T02:28:41Z</time></trkpt><trkpt lat="43.18253621640876" lon="11.47772546785775"><ele>155.85714285714286</ele><time>2026-04-11T02:28:42Z</time></trkpt><trkpt lat="43.18259767864083" lon="11.477666758672708"><ele>155.7142857142857</ele><time>2026-04-11T02:28:43Z</time></trkpt><trkpt lat="43.18266917160283" lon="11.477630070236788"><ele>155.57142857142856</ele><time>2026-04-11T02:28:44Z</time></trkpt><trkpt lat="43.182732457451" lon="11.477575814295822"><ele>155.42857142857144</ele><time>2026-04-11T02:28:45Z</time></trkpt><trkpt lat="43.18279240368345" lon="11.477524421434511"><ele>155.28571428571428</ele><time>2026-04-11T02:28:46Z</time></trkpt><trkpt lat="43.182851614266" lon="11.47747365921983"><ele>155.14285714285714</ele><time>2026-04-11T02:28:47Z</time></trkpt><trkpt lat="43.1829085408259" lon="11.477424855163305"><ele>155.0</ele><time>2026-04-11T02:28:48Z</time></trkpt><trkpt lat="43.18295660409177" lon="11.47736096157942"><ele>155.0</ele><time>2026-04-11T02:28:49Z</time></trkpt><trkpt lat="43.18301235290127" lon="11.477318160707789"><ele>155.0</ele><time>2026-04-11T02:28:50Z</time></trkpt><trkpt lat="43.18307225801293" lon="11.477269788719159"><ele>155.0</ele><time>2026-04-11T02:28:51Z</time></trkpt><trkpt lat="43.18313343226087" lon="11.4772227417968"><ele>155.0</ele><time>2026-04-11T02:28:52Z</time></trkpt><trkpt lat="43.183196284737804" lon="11.477184074747075"><ele>155.0</ele><time>2026-04-11T02:28:53Z</time></trkpt><trkpt lat="43.18325643244179" lon="11.47713805971788"><ele>155.0</ele><time>2026-04-11T02:28:54Z</time></trkpt><trkpt lat="43.18331319899675" lon="11.47708572435483"><ele>155.0</ele><time>2026-04-11T02:28:55Z</time></trkpt><trkpt lat="43.183368970005056" lon="11.477033549223746"><ele>154.71428571428572</ele><time>2026-04-11T02:28:56Z</time></trkpt><trkpt lat="43.1834265295145" lon="11.476982878962982"><ele>154.42857142857142</ele><time>2026-04-11T02:28:57Z</time></trkpt><trkpt lat="43.18348322621917" lon="11.476934353730803"><ele>154.14285714285714</ele><time>2026-04-11T02:28:58Z</time></trkpt><trkpt lat="43.18354551521028" lon="11.47688483228629"><ele>153.85714285714286</ele><time>2026-04-11T02:28:59Z</time></trkpt><trkpt lat="43.18360237376886" lon="11.476839426350438"><ele>153.57142857142858</ele><time>2026-04-11T02:29:00Z</time></trkpt><trkpt lat="43.183661627058726" lon="11.476799099016608"><ele>153.28571428571428</ele><time>2026-04-11T02:29:01Z</time></trkpt><trkpt lat="43.18371625278838" lon="11.476747598800106"><ele>153.0</ele><time>2026-04-11T02:29:02Z</time></trkpt><trkpt lat="43.18377322431861" lon="11.476697098344562"><ele>153.0</ele><time>2026-04-11T02:29:03Z</time></trkpt><trkpt lat="43.183829551344516" lon="11.476646934032894"><ele>153.0</ele><time>2026-04-11T02:29:04Z</time></trkpt><trkpt lat="43.18388651047798" lon="11.476602363812773"><ele>153.0</ele><time>2026-04-11T02:29:05Z</time></trkpt><trkpt lat="43.18394771066868" lon="11.476561527507569"><ele>153.0</ele><time>2026-04-11T02:29:06Z</time></trkpt><trkpt lat="43.18400675044485" lon="11.476515732676067"><ele>153.0</ele><time>2026-04-11T02:29:07Z</time></trkpt><trkpt lat="43.18406572179986" lon="11.476470697086302"><ele>153.0</ele><time>2026-04-11T02:29:08Z</time></trkpt><trkpt lat="43.18412693740887" lon="11.476425784360055"><ele>153.0</ele><time>2026-04-11T02:29:09Z</time></trkpt><trkpt lat="43.184185155530926" lon="11.476383744913718"><ele>153.14285714285714</ele><time>2026-04-11T02:29:10Z</time></trkpt><trkpt lat="43.18423999764534" lon="11.476331903617574"><ele>153.28571428571428</ele><time>2026-04-11T02:29:11Z</time></trkpt><trkpt lat="43.18429397965611" lon="11.476283264162385"><ele>153.42857142857144</ele><time>2026-04-11T02:29:12Z</time></trkpt><trkpt lat="43.184352536223926" lon="11.476237756488182"><ele>153.57142857142856</ele><time>2026-04-11T02:29:13Z</time></trkpt><trkpt lat="43.18441212187326" lon="11.476193509184016"><ele>153.71428571428572</ele><time>2026-04-11T02:29:14Z</time></trkpt><trkpt lat="43.18446566544804" lon="11.476143925551106"><ele>153.85714285714286</ele><time>2026-04-11T02:29:15Z</time></trkpt><trkpt lat="43.18451961213045" lon="11.476096240575595"><ele>154.0</ele><time>2026-04-11T02:29:16Z</time></trkpt><trkpt lat="43.18462147420616" lon="11.476020826464087"><ele>154.0</ele><time>2026-04-11T02:29:18Z</time></trkpt><trkpt lat="43.18471930935581" lon="11.475932943152202"><ele>154.0</ele><time>2026-04-11T02:29:20Z</time></trkpt><trkpt lat="43.18481811291998" lon="11.475846233845884"><ele>154.0</ele><time>2026-04-11T02:29:22Z</time></trkpt><trkpt lat="43.18492177752916" lon="11.475766881305635"><ele>154.0</ele><time>2026-04-11T02:29:24Z</time></trkpt><trkpt lat="43.185019937295344" lon="11.475676636586856"><ele>154.0</ele><time>2026-04-11T02:29:26Z</time></trkpt><trkpt lat="43.18512929228043" lon="11.475610494937278"><ele>154.0</ele><time>2026-04-11T02:29:28Z</time></trkpt><trkpt lat="43.18523786320977" lon="11.475519296122329"><ele>154.0</ele><time>2026-04-11T02:29:30Z</time></trkpt><trkpt lat="43.18529193221005" lon="11.475473878521225"><ele>154.0</ele><time>2026-04-11T02:29:31Z</time></trkpt><trkpt lat="43.18533990802053" lon="11.475409540000303"><ele>154.0</ele><time>2026-04-11T02:29:32Z</time></trkpt><trkpt lat="43.18544959222771" lon="11.4753222181146"><ele>154.0</ele><time>2026-04-11T02:29:34Z</time></trkpt><trkpt lat="43.185506038199904" lon="11.475274153192437"><ele>154.0</ele><time>2026-04-11T02:29:35Z</time></trkpt><trkpt lat="43.18556401783414" lon="11.475223092589934"><ele>154.0</ele><time>2026-04-11T02:29:36Z</time></trkpt><trkpt lat="43.18561983829879" lon="11.47517455892417"><ele>154.0</ele><time>2026-04-11T02:29:37Z</time></trkpt><trkpt lat="43.185681193615274" lon="11.47512731772856"><ele>154.0</ele><time>2026-04-11T02:29:38Z</time></trkpt><trkpt lat="43.185740251478926" lon="11.47507957641745"><ele>154.0</ele><time>2026-04-11T02:29:39Z</time></trkpt><trkpt lat="43.185797197839314" lon="11.475033679332373"><ele>154.0</ele><time>2026-04-11T02:29:40Z</time></trkpt><trkpt lat="43.185899620186845" lon="11.474952371200915"><ele>154.0</ele><time>2026-04-11T02:29:42Z</time></trkpt><trkpt lat="43.18600603151507" lon="11.474916224531041"><ele>154.0</ele><time>2026-04-11T02:29:44Z</time></trkpt><trkpt lat="43.186114702656276" lon="11.474871641540537"><ele>154.0</ele><time>2026-04-11T02:29:46Z</time></trkpt><trkpt lat="43.1862232801582" lon="11.474849572352086"><ele>154.0</ele><time>2026-04-11T02:29:48Z</time></trkpt><trkpt lat="43.186334368522125" lon="11.474850156001379"><ele>154.0</ele><time>2026-04-11T02:29:50Z</time></trkpt><trkpt lat="43.18645698522429" lon="11.474849111785751"><ele>154.25</ele><time>2026-04-11T02:29:52Z</time></trkpt><trkpt lat="43.186577364403576" lon="11.474848135142864"><ele>154.5</ele><time>2026-04-11T02:29:54Z</time></trkpt><trkpt lat="43.18670024949454" lon="11.474819713808369"><ele>154.75</ele><time>2026-04-11T02:29:56Z</time></trkpt><trkpt lat="43.18681862887084" lon="11.474796584227482"><ele>155.0</ele><time>2026-04-11T02:29:58Z</time></trkpt><trkpt lat="43.18693428619776" lon="11.474794363175217"><ele>155.0</ele><time>2026-04-11T02:30:00Z</time></trkpt><trkpt lat="43.18704740287197" lon="11.47478152808788"><ele>155.0</ele><time>2026-04-11T02:30:02Z</time></trkpt><trkpt lat="43.187154858368594" lon="11.474774644025542"><ele>155.0</ele><time>2026-04-11T02:30:04Z</time></trkpt><trkpt lat="43.187244400666" lon="11.474763065775502"><ele>155.0</ele><time>2026-04-11T02:30:06Z</time></trkpt><trkpt lat="43.187331322428946" lon="11.474811607445544"><ele>155.0</ele><time>2026-04-11T02:30:08Z</time></trkpt><trkpt lat="43.18741155648194" lon="11.474860560882108"><ele>155.8</ele><time>2026-04-11T02:30:10Z</time></trkpt><trkpt lat="43.18748465963312" lon="11.47491124067983"><ele>156.6</ele><time>2026-04-11T02:30:12Z</time></trkpt><trkpt lat="43.18756378469539" lon="11.47496851591292"><ele>157.4</ele><time>2026-04-11T02:30:14Z</time></trkpt><trkpt lat="43.18765818555253" lon="11.475013356241057"><ele>158.2</ele><time>2026-04-11T02:30:16Z</time></trkpt><trkpt lat="43.18776828310778" lon="11.475011982718218"><ele>159.0</ele><time>2026-04-11T02:30:18Z</time></trkpt><trkpt lat="43.18785843302633" lon="11.474915764425571"><ele>159.0</ele><time>2026-04-11T02:30:20Z</time></trkpt><trkpt lat="43.1879183481162" lon="11.474793557290928"><ele>159.0</ele><time>2026-04-11T02:30:22Z</time></trkpt><trkpt lat="43.18794091956408" lon="11.474698169035424"><ele>159.0</ele><time>2026-04-11T02:30:24Z</time></trkpt><trkpt lat="43.18796594172432" lon="11.474596548366886"><ele>159.0</ele><time>2026-04-11T02:30:25Z</time></trkpt><trkpt lat="43.188004454501474" lon="11.47448702048152"><ele>159.0</ele><time>2026-04-11T02:30:27Z</time></trkpt><trkpt lat="43.18805626481969" lon="11.474388228727902"><ele>159.0</ele><time>2026-04-11T02:30:29Z</time></trkpt><trkpt lat="43.188127207722786" lon="11.474311702151706"><ele>159.85714285714286</ele><time>2026-04-11T02:30:31Z</time></trkpt><trkpt lat="43.18819624629862" lon="11.474220933857177"><ele>160.71428571428572</ele><time>2026-04-11T02:30:33Z</time></trkpt><trkpt lat="43.188272368831534" lon="11.474164866161331"><ele>161.57142857142858</ele><time>2026-04-11T02:30:35Z</time></trkpt><trkpt lat="43.188332140005414" lon="11.474108954764079"><ele>162.42857142857144</ele><time>2026-04-11T02:30:37Z</time></trkpt><trkpt lat="43.18838368931539" lon="11.4740564576503"><ele>163.28571428571428</ele><time>2026-04-11T02:30:39Z</time></trkpt><trkpt lat="43.188422181073534" lon="11.473986083407421"><ele>164.14285714285717</ele><time>2026-04-11T02:30:41Z</time></trkpt><trkpt lat="43.18845272682901" lon="11.473909833045331"><ele>165.0</ele><time>2026-04-11T02:30:43Z</time></trkpt><trkpt lat="43.18848839644776" lon="11.473837544403018"><ele>165.0</ele><time>2026-04-11T02:30:45Z</time></trkpt><trkpt lat="43.1885198614212" lon="11.473759021471343"><ele>165.0</ele><time>2026-04-11T02:30:47Z</time></trkpt><trkpt lat="43.18854618253977" lon="11.473677773520754"><ele>165.0</ele><time>2026-04-11T02:30:49Z</time></trkpt><trkpt lat="43.1885841140502" lon="11.473565056887006"><ele>165.0</ele><time>2026-04-11T02:30:52Z</time></trkpt><trkpt lat="43.18861230913382" lon="11.47348039522544"><ele>165.0</ele><time>2026-04-11T02:30:54Z</time></trkpt><trkpt lat="43.18864304245747" lon="11.473365153036287"><ele>165.0</ele><time>2026-04-11T02:30:58Z</time></trkpt><trkpt lat="43.18867063158238" lon="11.473273371829718"><ele>165.0</ele><time>2026-04-11T02:31:00Z</time></trkpt><trkpt lat="43.188706329753344" lon="11.473193437839523"><ele>165.0</ele><time>2026-04-11T02:31:01Z</time></trkpt><trkpt lat="43.18875044324539" lon="11.473105933315301"><ele>165.0</ele><time>2026-04-11T02:31:03Z</time></trkpt><trkpt lat="43.188792497533235" lon="11.473005904777484"><ele>165.0</ele><time>2026-04-11T02:31:05Z</time></trkpt><trkpt lat="43.18884533523633" lon="11.472881201247263"><ele>165.0</ele><time>2026-04-11T02:31:07Z</time></trkpt><trkpt lat="43.18893660887665" lon="11.472759933561429"><ele>164.2</ele><time>2026-04-11T02:31:09Z</time></trkpt><trkpt lat="43.18896534665551" lon="11.472670613087935"><ele>163.4</ele><time>2026-04-11T02:31:10Z</time></trkpt><trkpt lat="43.188990280222335" lon="11.472583148612118"><ele>162.60000000000002</ele><time>2026-04-11T02:31:11Z</time></trkpt><trkpt lat="43.1890321289248" lon="11.47242768966547"><ele>161.8</ele><time>2026-04-11T02:31:13Z</time></trkpt><trkpt lat="43.189071573713726" lon="11.472276212739068"><ele>161.0</ele><time>2026-04-11T02:31:15Z</time></trkpt><trkpt lat="43.1891123364475" lon="11.47211967457194"><ele>162.20000000000002</ele><time>2026-04-11T02:31:17Z</time></trkpt><trkpt lat="43.18915344953603" lon="11.471976940349647"><ele>163.4</ele><time>2026-04-11T02:31:19Z</time></trkpt><trkpt lat="43.18920218064968" lon="11.471836995677839"><ele>164.6</ele><time>2026-04-11T02:31:21Z</time></trkpt><trkpt lat="43.18926911944048" lon="11.471694248959418"><ele>165.8</ele><time>2026-04-11T02:31:23Z</time></trkpt><trkpt lat="43.18931320175718" lon="11.471620821623425"><ele>167.0</ele><time>2026-04-11T02:31:24Z</time></trkpt><trkpt lat="43.18936115710963" lon="11.471550725054625"><ele>167.0</ele><time>2026-04-11T02:31:25Z</time></trkpt><trkpt lat="43.18941046991547" lon="11.471486145589836"><ele>167.0</ele><time>2026-04-11T02:31:26Z</time></trkpt><trkpt lat="43.18946253420325" lon="11.471428994146363"><ele>167.0</ele><time>2026-04-11T02:31:27Z</time></trkpt><trkpt lat="43.18951719071815" lon="11.471376944059896"><ele>167.0</ele><time>2026-04-11T02:31:28Z</time></trkpt><trkpt lat="43.18957820975324" lon="11.471332263245584"><ele>167.0</ele><time>2026-04-11T02:31:29Z</time></trkpt><trkpt lat="43.189643819292556" lon="11.471291808315684"><ele>167.0</ele><time>2026-04-11T02:31:30Z</time></trkpt><trkpt lat="43.18971090564983" lon="11.471250004442842"><ele>167.0</ele><time>2026-04-11T02:31:31Z</time></trkpt><trkpt lat="43.18977725998926" lon="11.47121029452306"><ele>166.71428571428572</ele><time>2026-04-11T02:31:32Z</time></trkpt><trkpt lat="43.18984078163756" lon="11.471174449557045"><ele>166.42857142857144</ele><time>2026-04-11T02:31:33Z</time></trkpt><trkpt lat="43.189906964844425" lon="11.471139931372257"><ele>166.14285714285717</ele><time>2026-04-11T02:31:34Z</time></trkpt><trkpt lat="43.18997229868283" lon="11.471104663065562"><ele>165.85714285714286</ele><time>2026-04-11T02:31:35Z</time></trkpt><trkpt lat="43.19003158796242" lon="11.47106462622975"><ele>165.57142857142858</ele><time>2026-04-11T02:31:36Z</time></trkpt><trkpt lat="43.19008538196085" lon="11.470999709257187"><ele>165.2857142857143</ele><time>2026-04-11T02:31:37Z</time></trkpt><trkpt lat="43.1901536897154" lon="11.470960620229201"><ele>165.0</ele><time>2026-04-11T02:31:38Z</time></trkpt><trkpt lat="43.190210979927706" lon="11.470896372200095"><ele>165.00000000000003</ele><time>2026-04-11T02:31:39Z</time></trkpt><trkpt lat="43.19026648542857" lon="11.47084076344219"><ele>165.0</ele><time>2026-04-11T02:31:40Z</time></trkpt><trkpt lat="43.19031801468972" lon="11.470783341333465"><ele>165.0</ele><time>2026-04-11T02:31:41Z</time></trkpt><trkpt lat="43.190366038285994" lon="11.47072155766371"><ele>165.0</ele><time>2026-04-11T02:31:42Z</time></trkpt><trkpt lat="43.19041734468495" lon="11.47066301129137"><ele>165.0</ele><time>2026-04-11T02:31:43Z</time></trkpt><trkpt lat="43.19046843502145" lon="11.470606797923184"><ele>165.00000000000003</ele><time>2026-04-11T02:31:44Z</time></trkpt><trkpt lat="43.19051420024363" lon="11.470545876433928"><ele>165.0</ele><time>2026-04-11T02:31:45Z</time></trkpt><trkpt lat="43.19061801028253" lon="11.470447300335207"><ele>164.57142857142858</ele><time>2026-04-11T02:31:47Z</time></trkpt><trkpt lat="43.1906693161834" lon="11.470386860435026"><ele>164.14285714285714</ele><time>2026-04-11T02:31:48Z</time></trkpt><trkpt lat="43.190720178998376" lon="11.470315684657262"><ele>163.71428571428572</ele><time>2026-04-11T02:31:49Z</time></trkpt><trkpt lat="43.19076264736694" lon="11.47024236445891"><ele>163.28571428571428</ele><time>2026-04-11T02:31:50Z</time></trkpt><trkpt lat="43.19080500437429" lon="11.470168257199512"><ele>162.85714285714286</ele><time>2026-04-11T02:31:51Z</time></trkpt><trkpt lat="43.19083261758865" lon="11.470071637246345"><ele>162.42857142857144</ele><time>2026-04-11T02:31:52Z</time></trkpt><trkpt lat="43.19088901194165" lon="11.469999651977183"><ele>162.0</ele><time>2026-04-11T02:31:53Z</time></trkpt><trkpt lat="43.1909306543221" lon="11.469916209609362"><ele>162.0</ele><time>2026-04-11T02:31:54Z</time></trkpt><trkpt lat="43.190970672373375" lon="11.469824185049992"><ele>162.0</ele><time>2026-04-11T02:31:55Z</time></trkpt><trkpt lat="43.191008806962806" lon="11.469732731762917"><ele>162.0</ele><time>2026-04-11T02:31:56Z</time></trkpt><trkpt lat="43.191030131415" lon="11.469626656471405"><ele>162.0</ele><time>2026-04-11T02:31:57Z</time></trkpt><trkpt lat="43.19107986501479" lon="11.469543377712435"><ele>162.0</ele><time>2026-04-11T02:31:58Z</time></trkpt><trkpt lat="43.19111648167239" lon="11.469446062133857"><ele>162.0</ele><time>2026-04-11T02:31:59Z</time></trkpt><trkpt lat="43.19115447890456" lon="11.469349009232406"><ele>161.16666666666666</ele><time>2026-04-11T02:32:00Z</time></trkpt><trkpt lat="43.191195606133896" lon="11.46925456838855"><ele>160.33333333333334</ele><time>2026-04-11T02:32:01Z</time></trkpt><trkpt lat="43.19124192826596" lon="11.469164832967005"><ele>159.5</ele><time>2026-04-11T02:32:02Z</time></trkpt><trkpt lat="43.19129194669567" lon="11.469089648526532"><ele>158.66666666666669</ele><time>2026-04-11T02:32:03Z</time></trkpt><trkpt lat="43.1913458096957" lon="11.469021260360293"><ele>157.83333333333334</ele><time>2026-04-11T02:32:04Z</time></trkpt><trkpt lat="43.19140306178152" lon="11.468958122270065"><ele>157.0</ele><time>2026-04-11T02:32:05Z</time></trkpt><trkpt lat="43.19146004978512" lon="11.468900601666927"><ele>157.33333333333334</ele><time>2026-04-11T02:32:06Z</time></trkpt><trkpt lat="43.19151855574628" lon="11.46884414339887"><ele>157.66666666666669</ele><time>2026-04-11T02:32:07Z</time></trkpt><trkpt lat="43.19157880902133" lon="11.46878656691176"><ele>158.0</ele><time>2026-04-11T02:32:08Z</time></trkpt><trkpt lat="43.191637054552864" lon="11.46873277279427"><ele>158.33333333333334</ele><time>2026-04-11T02:32:09Z</time></trkpt><trkpt lat="43.19169412622214" lon="11.468680511969849"><ele>158.66666666666666</ele><time>2026-04-11T02:32:10Z</time></trkpt><trkpt lat="43.191748861389435" lon="11.468630390702367"><ele>159.0</ele><time>2026-04-11T02:32:11Z</time></trkpt><trkpt lat="43.19185131555841" lon="11.468536572896005"><ele>159.0</ele><time>2026-04-11T02:32:13Z</time></trkpt><trkpt lat="43.19190373936665" lon="11.468488568118405"><ele>159.0</ele><time>2026-04-11T02:32:14Z</time></trkpt><trkpt lat="43.19195822066777" lon="11.468439180625063"><ele>159.0</ele><time>2026-04-11T02:32:15Z</time></trkpt><trkpt lat="43.192016508738014" lon="11.468384206224034"><ele>159.0</ele><time>2026-04-11T02:32:16Z</time></trkpt><trkpt lat="43.19207626662242" lon="11.468325232623606"><ele>159.0</ele><time>2026-04-11T02:32:17Z</time></trkpt><trkpt lat="43.192133637276314" lon="11.468267861737898"><ele>159.0</ele><time>2026-04-11T02:32:18Z</time></trkpt><trkpt lat="43.19219126410552" lon="11.468208790868342"><ele>159.0</ele><time>2026-04-11T02:32:19Z</time></trkpt><trkpt lat="43.192246292687116" lon="11.468152707770207"><ele>159.0</ele><time>2026-04-11T02:32:20Z</time></trkpt><trkpt lat="43.19230211974409" lon="11.468096397587692"><ele>159.0</ele><time>2026-04-11T02:32:21Z</time></trkpt><trkpt lat="43.19235771114754" lon="11.468040460741422"><ele>159.0</ele><time>2026-04-11T02:32:22Z</time></trkpt><trkpt lat="43.192412810556924" lon="11.467985018937869"><ele>159.0</ele><time>2026-04-11T02:32:23Z</time></trkpt><trkpt lat="43.19246731685819" lon="11.467930207257831"><ele>159.0</ele><time>2026-04-11T02:32:24Z</time></trkpt><trkpt lat="43.192521754064146" lon="11.467876710036291"><ele>159.0</ele><time>2026-04-11T02:32:25Z</time></trkpt><trkpt lat="43.19257498849638" lon="11.46782439482691"><ele>159.0</ele><time>2026-04-11T02:32:26Z</time></trkpt><trkpt lat="43.19262741138794" lon="11.46777287714146"><ele>158.5</ele><time>2026-04-11T02:32:27Z</time></trkpt><trkpt lat="43.19268046104562" lon="11.467720743509247"><ele>158.0</ele><time>2026-04-11T02:32:28Z</time></trkpt><trkpt lat="43.19273406086847" lon="11.467668069217275"><ele>157.5</ele><time>2026-04-11T02:32:29Z</time></trkpt><trkpt lat="43.19278641653283" lon="11.467616617603534"><ele>157.0</ele><time>2026-04-11T02:32:30Z</time></trkpt><trkpt lat="43.19283845356306" lon="11.467565479117185"><ele>156.5</ele><time>2026-04-11T02:32:31Z</time></trkpt><trkpt lat="43.192892609431084" lon="11.467512258375036"><ele>156.0</ele><time>2026-04-11T02:32:32Z</time></trkpt><trkpt lat="43.192986529071234" lon="11.467396272548624"><ele>156.0</ele><time>2026-04-11T02:32:34Z</time></trkpt><trkpt lat="43.19309742852552" lon="11.467312192976639"><ele>156.0</ele><time>2026-04-11T02:32:36Z</time></trkpt><trkpt lat="43.19314937274867" lon="11.467262940548228"><ele>156.0</ele><time>2026-04-11T02:32:37Z</time></trkpt><trkpt lat="43.193248381466994" lon="11.467171213905972"><ele>156.0</ele><time>2026-04-11T02:32:39Z</time></trkpt><trkpt lat="43.193351875072715" lon="11.467078183256358"><ele>156.0</ele><time>2026-04-11T02:32:41Z</time></trkpt><trkpt lat="43.19340739287339" lon="11.467027791591724"><ele>156.0</ele><time>2026-04-11T02:32:42Z</time></trkpt><trkpt lat="43.19346426023483" lon="11.466975741219242"><ele>156.0</ele><time>2026-04-11T02:32:43Z</time></trkpt><trkpt lat="43.19351892638877" lon="11.466924983525027"><ele>156.0</ele><time>2026-04-11T02:32:44Z</time></trkpt><trkpt lat="43.19360881398874" lon="11.466815544303891"><ele>156.0</ele><time>2026-04-11T02:32:46Z</time></trkpt><trkpt lat="43.19366675010264" lon="11.466766527928232"><ele>156.0</ele><time>2026-04-11T02:32:47Z</time></trkpt><trkpt lat="43.19372705432402" lon="11.466712592208095"><ele>156.0</ele><time>2026-04-11T02:32:48Z</time></trkpt><trkpt lat="43.19378935949111" lon="11.466658396334184"><ele>156.0</ele><time>2026-04-11T02:32:49Z</time></trkpt><trkpt lat="43.193853326404515" lon="11.466606317906825"><ele>156.0</ele><time>2026-04-11T02:32:50Z</time></trkpt><trkpt lat="43.19391534433502" lon="11.466550498608033"><ele>156.0</ele><time>2026-04-11T02:32:51Z</time></trkpt><trkpt lat="43.19397760642066" lon="11.466495471606404"><ele>156.0</ele><time>2026-04-11T02:32:52Z</time></trkpt><trkpt lat="43.194039063282" lon="11.466441569142015"><ele>156.0</ele><time>2026-04-11T02:32:53Z</time></trkpt><trkpt lat="43.1940929299928" lon="11.466387426179546"><ele>156.0</ele><time>2026-04-11T02:32:54Z</time></trkpt><trkpt lat="43.1941459943096" lon="11.46633950788659"><ele>156.0</ele><time>2026-04-11T02:32:55Z</time></trkpt><trkpt lat="43.19424218672039" lon="11.466251069148717"><ele>155.8</ele><time>2026-04-11T02:32:57Z</time></trkpt><trkpt lat="43.19433868865649" lon="11.46616501925093"><ele>155.6</ele><time>2026-04-11T02:32:59Z</time></trkpt><trkpt lat="43.194421781881346" lon="11.466056304551401"><ele>155.4</ele><time>2026-04-11T02:33:01Z</time></trkpt><trkpt lat="43.19451699356722" lon="11.465994360301261"><ele>155.2</ele><time>2026-04-11T02:33:03Z</time></trkpt><trkpt lat="43.19460351991284" lon="11.465915571423794"><ele>155.0</ele><time>2026-04-11T02:33:05Z</time></trkpt><trkpt lat="43.19469226856664" lon="11.465831668584105"><ele>155.0</ele><time>2026-04-11T02:33:07Z</time></trkpt><trkpt lat="43.19478219941204" lon="11.465740892502923"><ele>155.0</ele><time>2026-04-11T02:33:09Z</time></trkpt><trkpt lat="43.19485212662354" lon="11.465683852508034"><ele>155.0</ele><time>2026-04-11T02:33:11Z</time></trkpt><trkpt lat="43.19492847400604" lon="11.46574065069718"><ele>155.0</ele><time>2026-04-11T02:33:13Z</time></trkpt><trkpt lat="43.19497241686101" lon="11.46584700141829"><ele>155.0</ele><time>2026-04-11T02:33:15Z</time></trkpt><trkpt lat="43.19502445305407" lon="11.465936964994288"><ele>155.0</ele><time>2026-04-11T02:33:17Z</time></trkpt><trkpt lat="43.19509582756789" lon="11.466013271841888"><ele>155.0</ele><time>2026-04-11T02:33:20Z</time></trkpt><trkpt lat="43.19517356622195" lon="11.466092611095569"><ele>155.0</ele><time>2026-04-11T02:33:22Z</time></trkpt><trkpt lat="43.19522689041749" lon="11.46616240848621"><ele>155.0</ele><time>2026-04-11T02:33:23Z</time></trkpt><trkpt lat="43.195277400847424" lon="11.466285602687984"><ele>155.0</ele><time>2026-04-11T02:33:25Z</time></trkpt><trkpt lat="43.195336877187195" lon="11.4663926962434"><ele>155.6</ele><time>2026-04-11T02:33:27Z</time></trkpt><trkpt lat="43.195394052558946" lon="11.466497751267461"><ele>156.2</ele><time>2026-04-11T02:33:29Z</time></trkpt><trkpt lat="43.19541941746336" lon="11.466629950069452"><ele>156.8</ele><time>2026-04-11T02:33:31Z</time></trkpt><trkpt lat="43.19544123536495" lon="11.466757088951953"><ele>157.4</ele><time>2026-04-11T02:33:33Z</time></trkpt><trkpt lat="43.195447370639855" lon="11.466872633658019"><ele>158.0</ele><time>2026-04-11T02:33:35Z</time></trkpt><trkpt lat="43.19546445098669" lon="11.46697358971031"><ele>158.00000000000003</ele><time>2026-04-11T02:33:37Z</time></trkpt><trkpt lat="43.19545785206611" lon="11.467060354442056"><ele>158.0</ele><time>2026-04-11T02:33:39Z</time></trkpt><trkpt lat="43.1954671558589" lon="11.467150185741588"><ele>158.0</ele><time>2026-04-11T02:33:41Z</time></trkpt><trkpt lat="43.19547876687778" lon="11.46723948810918"><ele>158.0</ele><time>2026-04-11T02:33:43Z</time></trkpt><trkpt lat="43.19549920786325" lon="11.467342837348939"><ele>158.0</ele><time>2026-04-11T02:33:45Z</time></trkpt><trkpt lat="43.19552617437214" lon="11.467441557413647"><ele>158.00000000000003</ele><time>2026-04-11T02:33:47Z</time></trkpt><trkpt lat="43.19557414743703" lon="11.467534869794648"><ele>158.0</ele><time>2026-04-11T02:33:49Z</time></trkpt><trkpt lat="43.195647672252264" lon="11.467596756590414"><ele>159.16666666666666</ele><time>2026-04-11T02:33:53Z</time></trkpt><trkpt lat="43.195710662180566" lon="11.467575146323316"><ele>160.33333333333331</ele><time>2026-04-11T02:33:55Z</time></trkpt><trkpt lat="43.195798470724945" lon="11.467600384106698"><ele>161.5</ele><time>2026-04-11T02:33:58Z</time></trkpt><trkpt lat="43.195884385944666" lon="11.46763331371923"><ele>162.66666666666666</ele><time>2026-04-11T02:34:01Z</time></trkpt><trkpt lat="43.1959776343361" lon="11.467668975993993"><ele>163.83333333333334</ele><time>2026-04-11T02:34:04Z</time></trkpt><trkpt lat="43.19604454438787" lon="11.467723923139246"><ele>165.0</ele><time>2026-04-11T02:34:07Z</time></trkpt><trkpt lat="43.19611557439201" lon="11.467775881839296"><ele>165.0</ele><time>2026-04-11T02:34:10Z</time></trkpt><trkpt lat="43.19618859840603" lon="11.467833057391633"><ele>165.0</ele><time>2026-04-11T02:34:13Z</time></trkpt><trkpt lat="43.19624333059231" lon="11.46789968496885"><ele>165.0</ele><time>2026-04-11T02:34:16Z</time></trkpt><trkpt lat="43.19631053683678" lon="11.468006189281526"><ele>165.0</ele><time>2026-04-11T02:34:19Z</time></trkpt><trkpt lat="43.19636453745503" lon="11.468096415997522"><ele>165.0</ele><time>2026-04-11T02:34:22Z</time></trkpt><trkpt lat="43.196423730449965" lon="11.468182774387921"><ele>165.0</ele><time>2026-04-11T02:34:26Z</time></trkpt><trkpt lat="43.19647061677274" lon="11.468248722597618"><ele>166.66666666666666</ele><time>2026-04-11T02:34:29Z</time></trkpt><trkpt lat="43.19651517979671" lon="11.468329016367726"><ele>168.33333333333334</ele><time>2026-04-11T02:34:32Z</time></trkpt><trkpt lat="43.19654927776435" lon="11.468421684226602"><ele>170.0</ele><time>2026-04-11T02:34:35Z</time></trkpt><trkpt lat="43.19657697014141" lon="11.468524238426525"><ele>171.66666666666669</ele><time>2026-04-11T02:34:38Z</time></trkpt><trkpt lat="43.19659764080819" lon="11.468634018005133"><ele>173.33333333333334</ele><time>2026-04-11T02:34:41Z</time></trkpt><trkpt lat="43.19661325733465" lon="11.468740571649764"><ele>175.0</ele><time>2026-04-11T02:34:45Z</time></trkpt><trkpt lat="43.196634646645364" lon="11.468830203220335"><ele>176.0</ele><time>2026-04-11T02:34:48Z</time></trkpt><trkpt lat="43.196679481787505" lon="11.468909265515673"><ele>177.0</ele><time>2026-04-11T02:34:51Z</time></trkpt><trkpt lat="43.19672836489346" lon="11.468988986052974"><ele>178.0</ele><time>2026-04-11T02:34:55Z</time></trkpt><trkpt lat="43.19677042978409" lon="11.4690559382821"><ele>179.0</ele><time>2026-04-11T02:34:58Z</time></trkpt><trkpt lat="43.19683146987849" lon="11.4691510083734"><ele>180.0</ele><time>2026-04-11T02:35:01Z</time></trkpt><trkpt lat="43.19688562533448" lon="11.469241367238336"><ele>181.0</ele><time>2026-04-11T02:35:05Z</time></trkpt><trkpt lat="43.19692227051457" lon="11.469311705822166"><ele>181.0</ele><time>2026-04-11T02:35:08Z</time></trkpt><trkpt lat="43.19695508436099" lon="11.469385897999821"><ele>181.0</ele><time>2026-04-11T02:35:11Z</time></trkpt><trkpt lat="43.197006517348335" lon="11.469490680628105"><ele>181.0</ele><time>2026-04-11T02:35:15Z</time></trkpt><trkpt lat="43.19704185427773" lon="11.469590156019528"><ele>181.0</ele><time>2026-04-11T02:35:19Z</time></trkpt><trkpt lat="43.19708125934877" lon="11.469674583016936"><ele>181.0</ele><time>2026-04-11T02:35:22Z</time></trkpt><trkpt lat="43.19712481132212" lon="11.469768375774294"><ele>181.0</ele><time>2026-04-11T02:35:26Z</time></trkpt><trkpt lat="43.19716083337542" lon="11.469862174891391"><ele>181.14285714285714</ele><time>2026-04-11T02:35:29Z</time></trkpt><trkpt lat="43.1971977773911" lon="11.469963746065888"><ele>181.28571428571428</ele><time>2026-04-11T02:35:32Z</time></trkpt><trkpt lat="43.19723104169552" lon="11.470043112305694"><ele>181.42857142857144</ele><time>2026-04-11T02:35:35Z</time></trkpt><trkpt lat="43.197263000438305" lon="11.470125754740478"><ele>181.57142857142856</ele><time>2026-04-11T02:35:38Z</time></trkpt><trkpt lat="43.19730052278974" lon="11.47020391304815"><ele>181.71428571428572</ele><time>2026-04-11T02:35:41Z</time></trkpt><trkpt lat="43.19734308310053" lon="11.470274204555"><ele>181.85714285714286</ele><time>2026-04-11T02:35:44Z</time></trkpt><trkpt lat="43.19739479646264" lon="11.470341222698215"><ele>182.0</ele><time>2026-04-11T02:35:47Z</time></trkpt><trkpt lat="43.197456993259145" lon="11.470392069355883"><ele>183.0</ele><time>2026-04-11T02:35:50Z</time></trkpt><trkpt lat="43.19751800413443" lon="11.470438558784988"><ele>184.0</ele><time>2026-04-11T02:35:53Z</time></trkpt><trkpt lat="43.19758273719102" lon="11.470467474196772"><ele>185.0</ele><time>2026-04-11T02:35:56Z</time></trkpt><trkpt lat="43.19765106931865" lon="11.470493290878224"><ele>186.0</ele><time>2026-04-11T02:35:59Z</time></trkpt><trkpt lat="43.1977217943674" lon="11.470511762720207"><ele>187.0</ele><time>2026-04-11T02:36:02Z</time></trkpt><trkpt lat="43.197785738570694" lon="11.470538185608188"><ele>188.0</ele><time>2026-04-11T02:36:05Z</time></trkpt><trkpt lat="43.19785450989857" lon="11.470560774407408"><ele>189.0</ele><time>2026-04-11T02:36:08Z</time></trkpt><trkpt lat="43.197922171840474" lon="11.470612043613107"><ele>190.83333333333334</ele><time>2026-04-11T02:36:11Z</time></trkpt><trkpt lat="43.197995865672524" lon="11.470670053520099"><ele>192.66666666666669</ele><time>2026-04-11T02:36:15Z</time></trkpt><trkpt lat="43.19806512177786" lon="11.47071706471515"><ele>194.5</ele><time>2026-04-11T02:36:19Z</time></trkpt><trkpt lat="43.19812727666186" lon="11.470764766888987"><ele>196.33333333333334</ele><time>2026-04-11T02:36:22Z</time></trkpt><trkpt lat="43.19818291925639" lon="11.470831270206208"><ele>198.16666666666669</ele><time>2026-04-11T02:36:25Z</time></trkpt><trkpt lat="43.19823221063728" lon="11.4709055797545"><ele>200.0</ele><time>2026-04-11T02:36:28Z</time></trkpt><trkpt lat="43.19828670791396" lon="11.470990604430607"><ele>200.66666666666669</ele><time>2026-04-11T02:36:32Z</time></trkpt><trkpt lat="43.198329437686084" lon="11.471086948634259"><ele>201.33333333333334</ele><time>2026-04-11T02:36:35Z</time></trkpt><trkpt lat="43.19836683101664" lon="11.471188704097045"><ele>202.0</ele><time>2026-04-11T02:36:38Z</time></trkpt><trkpt lat="43.198408688176066" lon="11.471261923555325"><ele>202.66666666666669</ele><time>2026-04-11T02:36:41Z</time></trkpt><trkpt lat="43.198441655624826" lon="11.471349548899001"><ele>203.33333333333334</ele><time>2026-04-11T02:36:44Z</time></trkpt><trkpt lat="43.19846926882615" lon="11.471453380647349"><ele>204.0</ele><time>2026-04-11T02:36:47Z</time></trkpt><trkpt lat="43.19848714709734" lon="11.471568415308147"><ele>205.0</ele><time>2026-04-11T02:36:50Z</time></trkpt><trkpt lat="43.19850680290974" lon="11.471681870383481"><ele>206.0</ele><time>2026-04-11T02:36:53Z</time></trkpt><trkpt lat="43.198515990146795" lon="11.471781884362862"><ele>207.0</ele><time>2026-04-11T02:36:55Z</time></trkpt><trkpt lat="43.198525674694814" lon="11.47189708648491"><ele>208.0</ele><time>2026-04-11T02:36:58Z</time></trkpt><trkpt lat="43.198534842247625" lon="11.472014491289379"><ele>209.0</ele><time>2026-04-11T02:37:01Z</time></trkpt><trkpt lat="43.19852778634517" lon="11.472128958023736"><ele>210.0</ele><time>2026-04-11T02:37:03Z</time></trkpt><trkpt lat="43.19853086485439" lon="11.47225839379252"><ele>210.6</ele><time>2026-04-11T02:37:06Z</time></trkpt><trkpt lat="43.19851183447422" lon="11.472342036746618"><ele>211.2</ele><time>2026-04-11T02:37:08Z</time></trkpt><trkpt lat="43.19852112071343" lon="11.47249330855405"><ele>211.8</ele><time>2026-04-11T02:37:11Z</time></trkpt><trkpt lat="43.19853676808065" lon="11.472601454082923"><ele>212.4</ele><time>2026-04-11T02:37:12Z</time></trkpt><trkpt lat="43.198584026608586" lon="11.472741429218322"><ele>213.0</ele><time>2026-04-11T02:37:14Z</time></trkpt><trkpt lat="43.19862716128848" lon="11.472882890152244"><ele>213.25</ele><time>2026-04-11T02:37:16Z</time></trkpt><trkpt lat="43.19867355944752" lon="11.473029670838908"><ele>213.5</ele><time>2026-04-11T02:37:18Z</time></trkpt><trkpt lat="43.19873395534866" lon="11.473179244601392"><ele>213.75</ele><time>2026-04-11T02:37:20Z</time></trkpt><trkpt lat="43.19878426814853" lon="11.473301853422681"><ele>214.0</ele><time>2026-04-11T02:37:22Z</time></trkpt><trkpt lat="43.198831608314194" lon="11.4734360565508"><ele>214.0</ele><time>2026-04-11T02:37:24Z</time></trkpt><trkpt lat="43.19886442147045" lon="11.473580286839914"><ele>213.99999999999997</ele><time>2026-04-11T02:37:26Z</time></trkpt><trkpt lat="43.198874016472736" lon="11.473665965870719"><ele>213.99999999999997</ele><time>2026-04-11T02:37:27Z</time></trkpt><trkpt lat="43.19887870757399" lon="11.473826221035"><ele>214.0</ele><time>2026-04-11T02:37:29Z</time></trkpt><trkpt lat="43.19885176353413" lon="11.473990687527115"><ele>214.0</ele><time>2026-04-11T02:37:31Z</time></trkpt><trkpt lat="43.198843148360325" lon="11.474082508939386"><ele>212.2</ele><time>2026-04-11T02:37:32Z</time></trkpt><trkpt lat="43.19884414908865" lon="11.474172452686442"><ele>210.39999999999998</ele><time>2026-04-11T02:37:33Z</time></trkpt><trkpt lat="43.19885444568763" lon="11.474259817035584"><ele>208.6</ele><time>2026-04-11T02:37:34Z</time></trkpt><trkpt lat="43.19889708154873" lon="11.474433021370547"><ele>206.8</ele><time>2026-04-11T02:37:36Z</time></trkpt><trkpt lat="43.19895977546665" lon="11.474579129206145"><ele>205.0</ele><time>2026-04-11T02:37:38Z</time></trkpt><trkpt lat="43.199026795249395" lon="11.474714688033632"><ele>203.8</ele><time>2026-04-11T02:37:40Z</time></trkpt><trkpt lat="43.19909721388888" lon="11.474845113589199"><ele>202.6</ele><time>2026-04-11T02:37:42Z</time></trkpt><trkpt lat="43.199165979071466" lon="11.474966972274876"><ele>201.39999999999998</ele><time>2026-04-11T02:37:44Z</time></trkpt><trkpt lat="43.19923146288948" lon="11.475079001736505"><ele>200.2</ele><time>2026-04-11T02:37:46Z</time></trkpt><trkpt lat="43.1992952652376" lon="11.475186427099842"><ele>199.0</ele><time>2026-04-11T02:37:48Z</time></trkpt><trkpt lat="43.1993635136592" lon="11.475272807619797"><ele>198.99999999999997</ele><time>2026-04-11T02:37:50Z</time></trkpt><trkpt lat="43.19942063745495" lon="11.475362443843801"><ele>199.0</ele><time>2026-04-11T02:37:52Z</time></trkpt><trkpt lat="43.19946794097199" lon="11.475454013613003"><ele>199.0</ele><time>2026-04-11T02:37:54Z</time></trkpt><trkpt lat="43.19952772752509" lon="11.475531766365055"><ele>199.0</ele><time>2026-04-11T02:37:56Z</time></trkpt><trkpt lat="43.199587717140744" lon="11.47560085787704"><ele>198.99999999999997</ele><time>2026-04-11T02:37:58Z</time></trkpt><trkpt lat="43.199662146940675" lon="11.475626465058124"><ele>199.0</ele><time>2026-04-11T02:38:00Z</time></trkpt><trkpt lat="43.19971462910356" lon="11.47568227283666"><ele>200.16666666666666</ele><time>2026-04-11T02:38:02Z</time></trkpt><trkpt lat="43.19976937749996" lon="11.475725090435006"><ele>201.33333333333331</ele><time>2026-04-11T02:38:04Z</time></trkpt><trkpt lat="43.19983174690647" lon="11.475756269161561"><ele>202.5</ele><time>2026-04-11T02:38:06Z</time></trkpt><trkpt lat="43.19991696743523" lon="11.47581463857547"><ele>203.66666666666669</ele><time>2026-04-11T02:38:09Z</time></trkpt><trkpt lat="43.19999219113179" lon="11.47587546065305"><ele>204.83333333333334</ele><time>2026-04-11T02:38:12Z</time></trkpt><trkpt lat="43.200041883751766" lon="11.47593570821842"><ele>206.0</ele><time>2026-04-11T02:38:14Z</time></trkpt><trkpt lat="43.20010992928064" lon="11.476013273017681"><ele>206.00000000000003</ele><time>2026-04-11T02:38:18Z</time></trkpt><trkpt lat="43.20016700980625" lon="11.476072952392126"><ele>206.0</ele><time>2026-04-11T02:38:21Z</time></trkpt><trkpt lat="43.200222710843434" lon="11.47612929379555"><ele>206.0</ele><time>2026-04-11T02:38:24Z</time></trkpt><trkpt lat="43.20029201310076" lon="11.476197740733884"><ele>206.0</ele><time>2026-04-11T02:38:27Z</time></trkpt><trkpt lat="43.200365865034414" lon="11.476265355464925"><ele>206.00000000000003</ele><time>2026-04-11T02:38:30Z</time></trkpt><trkpt lat="43.2004392155809" lon="11.476328378566926"><ele>206.0</ele><time>2026-04-11T02:38:33Z</time></trkpt><trkpt lat="43.20051430710971" lon="11.476416635055305"><ele>206.8</ele><time>2026-04-11T02:38:36Z</time></trkpt><trkpt lat="43.200574999888595" lon="11.476495264526214"><ele>207.60000000000002</ele><time>2026-04-11T02:38:37Z</time></trkpt><trkpt lat="43.2006120264752" lon="11.47656726073244"><ele>208.4</ele><time>2026-04-11T02:38:38Z</time></trkpt><trkpt lat="43.20068183590403" lon="11.476699116285554"><ele>209.2</ele><time>2026-04-11T02:38:40Z</time></trkpt><trkpt lat="43.20074949865799" lon="11.476818899796259"><ele>210.0</ele><time>2026-04-11T02:38:42Z</time></trkpt><trkpt lat="43.20080764154227" lon="11.476953753736908"><ele>210.0</ele><time>2026-04-11T02:38:44Z</time></trkpt><trkpt lat="43.20087042148555" lon="11.477078765448402"><ele>210.0</ele><time>2026-04-11T02:38:46Z</time></trkpt><trkpt lat="43.20093004049321" lon="11.477205381097944"><ele>210.0</ele><time>2026-04-11T02:38:48Z</time></trkpt><trkpt lat="43.2009786226022" lon="11.47732867027285"><ele>210.0</ele><time>2026-04-11T02:38:50Z</time></trkpt><trkpt lat="43.20102456231908" lon="11.4774096004004"><ele>210.0</ele><time>2026-04-11T02:38:53Z</time></trkpt><trkpt lat="43.20105724431043" lon="11.477486522316887"><ele>209.33333333333334</ele><time>2026-04-11T02:38:55Z</time></trkpt><trkpt lat="43.201090460267636" lon="11.477570491629937"><ele>208.66666666666669</ele><time>2026-04-11T02:38:57Z</time></trkpt><trkpt lat="43.201128046989304" lon="11.477665131937256"><ele>208.0</ele><time>2026-04-11T02:39:00Z</time></trkpt><trkpt lat="43.20114492807156" lon="11.477780530042477"><ele>207.33333333333334</ele><time>2026-04-11T02:39:02Z</time></trkpt><trkpt lat="43.20118990511023" lon="11.477890901289687"><ele>206.66666666666669</ele><time>2026-04-11T02:39:04Z</time></trkpt><trkpt lat="43.20121104124664" lon="11.477987668744086"><ele>206.0</ele><time>2026-04-11T02:39:06Z</time></trkpt><trkpt lat="43.201251351954305" lon="11.478080086417815"><ele>206.75</ele><time>2026-04-11T02:39:08Z</time></trkpt><trkpt lat="43.20136404461637" lon="11.478266023876856"><ele>207.5</ele><time>2026-04-11T02:39:09Z</time></trkpt><trkpt lat="43.201406812897915" lon="11.478369435377955"><ele>208.25</ele><time>2026-04-11T02:39:11Z</time></trkpt><trkpt lat="43.20144374419229" lon="11.47848994596424"><ele>209.0</ele><time>2026-04-11T02:39:15Z</time></trkpt><trkpt lat="43.201501496236276" lon="11.478612519307044"><ele>209.0</ele><time>2026-04-11T02:39:17Z</time></trkpt><trkpt lat="43.20154626518696" lon="11.478722106115457"><ele>209.0</ele><time>2026-04-11T02:39:19Z</time></trkpt><trkpt lat="43.20161183947274" lon="11.478891743957622"><ele>209.0</ele><time>2026-04-11T02:39:22Z</time></trkpt><trkpt lat="43.201647194213976" lon="11.47899603001814"><ele>209.0</ele><time>2026-04-11T02:39:24Z</time></trkpt><trkpt lat="43.20167907487707" lon="11.479115908938793"><ele>209.0</ele><time>2026-04-11T02:39:26Z</time></trkpt><trkpt lat="43.20172119982465" lon="11.479212952622637"><ele>209.42857142857142</ele><time>2026-04-11T02:39:28Z</time></trkpt><trkpt lat="43.20174900230724" lon="11.479303924209882"><ele>209.85714285714283</ele><time>2026-04-11T02:39:30Z</time></trkpt><trkpt lat="43.201769999268215" lon="11.479394549801764"><ele>210.28571428571428</ele><time>2026-04-11T02:39:32Z</time></trkpt><trkpt lat="43.20178770784075" lon="11.479480996833434"><ele>210.71428571428572</ele><time>2026-04-11T02:39:34Z</time></trkpt><trkpt lat="43.20181999408738" lon="11.479570554075604"><ele>211.14285714285714</ele><time>2026-04-11T02:39:36Z</time></trkpt><trkpt lat="43.20183445026766" lon="11.479664228005138"><ele>211.57142857142858</ele><time>2026-04-11T02:39:38Z</time></trkpt><trkpt lat="43.201863303748624" lon="11.479780034075487"><ele>212.0</ele><time>2026-04-11T02:39:41Z</time></trkpt><trkpt lat="43.201886232714955" lon="11.479867414264472"><ele>212.00000000000003</ele><time>2026-04-11T02:39:43Z</time></trkpt><trkpt lat="43.201918125291336" lon="11.47996381328205"><ele>212.0</ele><time>2026-04-11T02:39:46Z</time></trkpt><trkpt lat="43.20197098520743" lon="11.480085010244094"><ele>212.0</ele><time>2026-04-11T02:39:49Z</time></trkpt><trkpt lat="43.20200415509813" lon="11.480172615472306"><ele>212.0</ele><time>2026-04-11T02:39:51Z</time></trkpt><trkpt lat="43.20203515879975" lon="11.480261963956075"><ele>212.00000000000003</ele><time>2026-04-11T02:39:53Z</time></trkpt><trkpt lat="43.20208490449179" lon="11.480368067594892"><ele>212.0</ele><time>2026-04-11T02:39:56Z</time></trkpt><trkpt lat="43.20212245907397" lon="11.48044888703986"><ele>211.50000000000003</ele><time>2026-04-11T02:39:58Z</time></trkpt><trkpt lat="43.202155399865134" lon="11.480529088845072"><ele>211.0</ele><time>2026-04-11T02:40:00Z</time></trkpt><trkpt lat="43.20217823417595" lon="11.480614770287968"><ele>210.5</ele><time>2026-04-11T02:40:02Z</time></trkpt><trkpt lat="43.20221340492112" lon="11.480748518679107"><ele>210.0</ele><time>2026-04-11T02:40:05Z</time></trkpt><trkpt lat="43.20222204909139" lon="11.480863259741069"><ele>209.50000000000003</ele><time>2026-04-11T02:40:07Z</time></trkpt><trkpt lat="43.20223947421826" lon="11.48096985314293"><ele>209.0</ele><time>2026-04-11T02:40:09Z</time></trkpt><trkpt lat="43.20224881029723" lon="11.481065157772639"><ele>209.00000000000003</ele><time>2026-04-11T02:40:12Z</time></trkpt><trkpt lat="43.202270592115774" lon="11.481203283100472"><ele>209.0</ele><time>2026-04-11T02:40:15Z</time></trkpt><trkpt lat="43.20228677796213" lon="11.481304695527525"><ele>209.0</ele><time>2026-04-11T02:40:17Z</time></trkpt><trkpt lat="43.20230062007486" lon="11.481389356509219"><ele>209.0</ele><time>2026-04-11T02:40:19Z</time></trkpt><trkpt lat="43.20230941947619" lon="11.481491736515368"><ele>209.00000000000003</ele><time>2026-04-11T02:40:22Z</time></trkpt><trkpt lat="43.20232064308227" lon="11.481612611741081"><ele>209.0</ele><time>2026-04-11T02:40:26Z</time></trkpt><trkpt lat="43.202325893378976" lon="11.481707813444215"><ele>209.71428571428572</ele><time>2026-04-11T02:40:29Z</time></trkpt><trkpt lat="43.202320841128035" lon="11.481800056215373"><ele>210.42857142857142</ele><time>2026-04-11T02:40:32Z</time></trkpt><trkpt lat="43.202310419132786" lon="11.481901287579866"><ele>211.14285714285717</ele><time>2026-04-11T02:40:35Z</time></trkpt><trkpt lat="43.20229305582768" lon="11.482002007133735"><ele>211.85714285714286</ele><time>2026-04-11T02:40:38Z</time></trkpt><trkpt lat="43.202281375920194" lon="11.48209483020801"><ele>212.57142857142858</ele><time>2026-04-11T02:40:41Z</time></trkpt><trkpt lat="43.20225933683572" lon="11.482178212284158"><ele>213.2857142857143</ele><time>2026-04-11T02:40:44Z</time></trkpt><trkpt lat="43.20223966639359" lon="11.482278204102146"><ele>214.0</ele><time>2026-04-11T02:40:47Z</time></trkpt><trkpt lat="43.20222769027989" lon="11.482429465294784"><ele>215.49999999999997</ele><time>2026-04-11T02:40:50Z</time></trkpt><trkpt lat="43.20222230587867" lon="11.482547204782529"><ele>217.0</ele><time>2026-04-11T02:40:54Z</time></trkpt><trkpt lat="43.20221448441575" lon="11.482671677515711"><ele>218.5</ele><time>2026-04-11T02:40:57Z</time></trkpt><trkpt lat="43.202205733393264" lon="11.482769620904591"><ele>220.0</ele><time>2026-04-11T02:41:00Z</time></trkpt><trkpt lat="43.202212494132745" lon="11.482872723312397"><ele>221.49999999999997</ele><time>2026-04-11T02:41:02Z</time></trkpt><trkpt lat="43.202206455458935" lon="11.48297733473005"><ele>223.0</ele><time>2026-04-11T02:41:05Z</time></trkpt><trkpt lat="43.20218356432669" lon="11.483082253062967"><ele>225.33333333333331</ele><time>2026-04-11T02:41:08Z</time></trkpt><trkpt lat="43.20215615805928" lon="11.483195075301841"><ele>227.66666666666666</ele><time>2026-04-11T02:41:10Z</time></trkpt><trkpt lat="43.20211627332032" lon="11.483295998690927"><ele>230.0</ele><time>2026-04-11T02:41:13Z</time></trkpt><trkpt lat="43.20208200751699" lon="11.483412412980496"><ele>232.33333333333331</ele><time>2026-04-11T02:41:16Z</time></trkpt><trkpt lat="43.20203099005882" lon="11.483507796740195"><ele>234.66666666666666</ele><time>2026-04-11T02:41:19Z</time></trkpt><trkpt lat="43.20199157638021" lon="11.483588414737072"><ele>237.0</ele><time>2026-04-11T02:41:22Z</time></trkpt><trkpt lat="43.201947378968704" lon="11.483672725755918"><ele>236.99999999999997</ele><time>2026-04-11T02:41:26Z</time></trkpt><trkpt lat="43.20190664467165" lon="11.483762392427206"><ele>237.0</ele><time>2026-04-11T02:41:30Z</time></trkpt><trkpt lat="43.20185930954574" lon="11.483837624141339"><ele>236.99999999999997</ele><time>2026-04-11T02:41:34Z</time></trkpt><trkpt lat="43.20182264252634" lon="11.48391874022735"><ele>236.99999999999997</ele><time>2026-04-11T02:41:38Z</time></trkpt><trkpt lat="43.201812056348345" lon="11.48400799862653"><ele>237.0</ele><time>2026-04-11T02:41:42Z</time></trkpt><trkpt lat="43.20181158736354" lon="11.484097030171062"><ele>236.99999999999997</ele><time>2026-04-11T02:41:46Z</time></trkpt><trkpt lat="43.20183435414506" lon="11.484182756062024"><ele>236.99999999999997</ele><time>2026-04-11T02:41:50Z</time></trkpt><trkpt lat="43.20187407810577" lon="11.484261766092668"><ele>239.28571428571425</ele><time>2026-04-11T02:41:54Z</time></trkpt><trkpt lat="43.20190929162898" lon="11.484343047488334"><ele>241.57142857142856</ele><time>2026-04-11T02:41:58Z</time></trkpt><trkpt lat="43.201933312474075" lon="11.484428344480179"><ele>243.85714285714286</ele><time>2026-04-11T02:42:02Z</time></trkpt><trkpt lat="43.20196640947366" lon="11.484510057526036"><ele>246.14285714285714</ele><time>2026-04-11T02:42:06Z</time></trkpt><trkpt lat="43.202000060449144" lon="11.484594818932226"><ele>248.42857142857144</ele><time>2026-04-11T02:42:10Z</time></trkpt><trkpt lat="43.20203942628478" lon="11.48468912314592"><ele>250.71428571428575</ele><time>2026-04-11T02:42:15Z</time></trkpt><trkpt lat="43.2020653560746" lon="11.484787858754538"><ele>253.00000000000003</ele><time>2026-04-11T02:42:19Z</time></trkpt><trkpt lat="43.20208451677441" lon="11.484883396945156"><ele>253.14285714285717</ele><time>2026-04-11T02:42:23Z</time></trkpt><trkpt lat="43.20210696787955" lon="11.48498444148033"><ele>253.28571428571428</ele><time>2026-04-11T02:42:27Z</time></trkpt><trkpt lat="43.20212164420364" lon="11.485072226000504"><ele>253.42857142857144</ele><time>2026-04-11T02:42:30Z</time></trkpt><trkpt lat="43.202138747805016" lon="11.48515930656882"><ele>253.57142857142858</ele><time>2026-04-11T02:42:33Z</time></trkpt><trkpt lat="43.20216320937273" lon="11.485271516598232"><ele>253.71428571428572</ele><time>2026-04-11T02:42:37Z</time></trkpt><trkpt lat="43.202178327712254" lon="11.485367397129469"><ele>253.85714285714286</ele><time>2026-04-11T02:42:40Z</time></trkpt><trkpt lat="43.20220828167188" lon="11.485475167407248"><ele>254.0</ele><time>2026-04-11T02:42:42Z</time></trkpt><trkpt lat="43.20223576210263" lon="11.485600372764779"><ele>254.00000000000003</ele><time>2026-04-11T02:42:44Z</time></trkpt><trkpt lat="43.20226450042374" lon="11.485685651160546"><ele>254.0</ele><time>2026-04-11T02:42:45Z</time></trkpt><trkpt lat="43.20230355015481" lon="11.485786172122676"><ele>254.0</ele><time>2026-04-11T02:42:47Z</time></trkpt><trkpt lat="43.202352007210216" lon="11.485864604278182"><ele>254.0</ele><time>2026-04-11T02:42:49Z</time></trkpt><trkpt lat="43.20240653461659" lon="11.485995920749321"><ele>254.00000000000003</ele><time>2026-04-11T02:42:51Z</time></trkpt><trkpt lat="43.20246464549204" lon="11.486106794992141"><ele>254.0</ele><time>2026-04-11T02:42:53Z</time></trkpt><trkpt lat="43.20252206730964" lon="11.486207204408613"><ele>252.79999999999998</ele><time>2026-04-11T02:42:55Z</time></trkpt><trkpt lat="43.20258824031359" lon="11.486321319617769"><ele>251.59999999999997</ele><time>2026-04-11T02:42:57Z</time></trkpt><trkpt lat="43.202665494458984" lon="11.486420959961741"><ele>250.4</ele><time>2026-04-11T02:42:59Z</time></trkpt><trkpt lat="43.20275173336358" lon="11.486527505447814"><ele>249.2</ele><time>2026-04-11T02:43:01Z</time></trkpt><trkpt lat="43.20281910328174" lon="11.486638061904243"><ele>248.0</ele><time>2026-04-11T02:43:03Z</time></trkpt><trkpt lat="43.20289098470975" lon="11.486735863341242"><ele>248.00000000000003</ele><time>2026-04-11T02:43:05Z</time></trkpt><trkpt lat="43.20295747330225" lon="11.486815967727471"><ele>248.0</ele><time>2026-04-11T02:43:07Z</time></trkpt><trkpt lat="43.20302967982489" lon="11.486900325181391"><ele>248.0</ele><time>2026-04-11T02:43:09Z</time></trkpt><trkpt lat="43.20309389791355" lon="11.48698436560426"><ele>248.0</ele><time>2026-04-11T02:43:11Z</time></trkpt><trkpt lat="43.2031477449699" lon="11.487053426102184"><ele>248.00000000000003</ele><time>2026-04-11T02:43:13Z</time></trkpt><trkpt lat="43.20321077686142" lon="11.487155136085168"><ele>248.0</ele><time>2026-04-11T02:43:15Z</time></trkpt><trkpt lat="43.20327626755702" lon="11.487237137331904"><ele>248.16666666666669</ele><time>2026-04-11T02:43:17Z</time></trkpt><trkpt lat="43.20333609746347" lon="11.487312285387556"><ele>248.33333333333334</ele><time>2026-04-11T02:43:19Z</time></trkpt><trkpt lat="43.203383380002315" lon="11.487387475911103"><ele>248.5</ele><time>2026-04-11T02:43:21Z</time></trkpt><trkpt lat="43.203460300817206" lon="11.487465098892567"><ele>248.66666666666669</ele><time>2026-04-11T02:43:23Z</time></trkpt><trkpt lat="43.20351482914549" lon="11.48754249362702"><ele>248.83333333333334</ele><time>2026-04-11T02:43:25Z</time></trkpt><trkpt lat="43.20358705778237" lon="11.487618371118053"><ele>249.0</ele><time>2026-04-11T02:43:28Z</time></trkpt><trkpt lat="43.20363268455191" lon="11.487707833094357"><ele>249.0</ele><time>2026-04-11T02:43:31Z</time></trkpt><trkpt lat="43.2036706384087" lon="11.487795179586119"><ele>249.0</ele><time>2026-04-11T02:43:33Z</time></trkpt><trkpt lat="43.203726685907945" lon="11.487905661234944"><ele>249.0</ele><time>2026-04-11T02:43:36Z</time></trkpt><trkpt lat="43.20393754679197" lon="11.488268120392393"><ele>248.79999999999998</ele><time>2026-04-11T02:43:39Z</time></trkpt><trkpt lat="43.20399894411323" lon="11.488373084234974"><ele>248.59999999999997</ele><time>2026-04-11T02:43:41Z</time></trkpt><trkpt lat="43.204047877940425" lon="11.488499563098848"><ele>248.4</ele><time>2026-04-11T02:43:43Z</time></trkpt><trkpt lat="43.20408871938567" lon="11.48856674667997"><ele>248.2</ele><time>2026-04-11T02:43:44Z</time></trkpt><trkpt lat="43.204152890698694" lon="11.488670889643119"><ele>248.0</ele><time>2026-04-11T02:43:46Z</time></trkpt><trkpt lat="43.20421416761468" lon="11.48876933715889"><ele>248.0</ele><time>2026-04-11T02:43:48Z</time></trkpt><trkpt lat="43.204281032610915" lon="11.488864411035422"><ele>248.0</ele><time>2026-04-11T02:43:50Z</time></trkpt><trkpt lat="43.204329842989644" lon="11.488932546046764"><ele>248.0</ele><time>2026-04-11T02:43:51Z</time></trkpt><trkpt lat="43.20437554579224" lon="11.488999602750685"><ele>248.0</ele><time>2026-04-11T02:43:52Z</time></trkpt><trkpt lat="43.20445824470371" lon="11.489119781751105"><ele>248.0</ele><time>2026-04-11T02:43:54Z</time></trkpt><trkpt lat="43.20451709283606" lon="11.489258268374536"><ele>248.00000000000003</ele><time>2026-04-11T02:43:56Z</time></trkpt><trkpt lat="43.20454332056171" lon="11.489350318892086"><ele>248.0</ele><time>2026-04-11T02:43:57Z</time></trkpt><trkpt lat="43.20458943303434" lon="11.489502307321471"><ele>248.0</ele><time>2026-04-11T02:43:59Z</time></trkpt><trkpt lat="43.204641141011116" lon="11.489648588962414"><ele>248.0</ele><time>2026-04-11T02:44:01Z</time></trkpt><trkpt lat="43.20466412025692" lon="11.48973095008825"><ele>248.00000000000003</ele><time>2026-04-11T02:44:02Z</time></trkpt><trkpt lat="43.20468889315514" lon="11.489814872981785"><ele>248.0</ele><time>2026-04-11T02:44:03Z</time></trkpt><trkpt lat="43.204710638963554" lon="11.489898047820741"><ele>247.4</ele><time>2026-04-11T02:44:04Z</time></trkpt><trkpt lat="43.204754740069646" lon="11.490062090001233"><ele>246.8</ele><time>2026-04-11T02:44:06Z</time></trkpt><trkpt lat="43.20481714000878" lon="11.490197645618137"><ele>246.2</ele><time>2026-04-11T02:44:08Z</time></trkpt><trkpt lat="43.20486353926593" lon="11.490275971145582"><ele>245.6</ele><time>2026-04-11T02:44:09Z</time></trkpt><trkpt lat="43.20489560915584" lon="11.490363910717479"><ele>245.0</ele><time>2026-04-11T02:44:10Z</time></trkpt><trkpt lat="43.20493714274295" lon="11.490435024928008"><ele>245.00000000000003</ele><time>2026-04-11T02:44:11Z</time></trkpt><trkpt lat="43.204988761326014" lon="11.490497094568205"><ele>245.0</ele><time>2026-04-11T02:44:12Z</time></trkpt><trkpt lat="43.205062961297735" lon="11.490591175009927"><ele>245.0</ele><time>2026-04-11T02:44:14Z</time></trkpt><trkpt lat="43.20513304775408" lon="11.490675971585253"><ele>245.0</ele><time>2026-04-11T02:44:16Z</time></trkpt><trkpt lat="43.205199274333694" lon="11.490748899064243"><ele>245.00000000000003</ele><time>2026-04-11T02:44:18Z</time></trkpt><trkpt lat="43.20527676510985" lon="11.49081795756234"><ele>245.0</ele><time>2026-04-11T02:44:21Z</time></trkpt><trkpt lat="43.20533648934645" lon="11.490857130326033"><ele>245.0</ele><time>2026-04-11T02:44:23Z</time></trkpt><trkpt lat="43.205396673096054" lon="11.490884838898474"><ele>245.0</ele><time>2026-04-11T02:44:25Z</time></trkpt><trkpt lat="43.205477832612615" lon="11.490908136176607"><ele>245.0</ele><time>2026-04-11T02:44:28Z</time></trkpt><trkpt lat="43.20555888128492" lon="11.49092255085776"><ele>245.0</ele><time>2026-04-11T02:44:31Z</time></trkpt><trkpt lat="43.20562823547926" lon="11.49092885073648"><ele>245.0</ele><time>2026-04-11T02:44:35Z</time></trkpt><trkpt lat="43.20570874796844" lon="11.490924977129195"><ele>245.0</ele><time>2026-04-11T02:44:38Z</time></trkpt><trkpt lat="43.20576241346718" lon="11.490863184235879"><ele>245.0</ele><time>2026-04-11T02:44:41Z</time></trkpt><trkpt lat="43.20582538953274" lon="11.49085208589558"><ele>247.16666666666669</ele><time>2026-04-11T02:44:44Z</time></trkpt><trkpt lat="43.20590223479096" lon="11.490842118331607"><ele>249.33333333333334</ele><time>2026-04-11T02:44:47Z</time></trkpt><trkpt lat="43.20597446943146" lon="11.490834718107704"><ele>251.5</ele><time>2026-04-11T02:44:50Z</time></trkpt><trkpt lat="43.206056822771046" lon="11.49082678001588"><ele>253.66666666666669</ele><time>2026-04-11T02:44:53Z</time></trkpt><trkpt lat="43.20613280788855" lon="11.490838132543315"><ele>255.83333333333334</ele><time>2026-04-11T02:44:57Z</time></trkpt><trkpt lat="43.20619963110566" lon="11.490849912425896"><ele>258.0</ele><time>2026-04-11T02:45:00Z</time></trkpt><trkpt lat="43.20627660298009" lon="11.490864989220183"><ele>258.0</ele><time>2026-04-11T02:45:03Z</time></trkpt><trkpt lat="43.20634303447501" lon="11.490884775014182"><ele>258.0</ele><time>2026-04-11T02:45:06Z</time></trkpt><trkpt lat="43.20641210667648" lon="11.490912927591573"><ele>258.0</ele><time>2026-04-11T02:45:09Z</time></trkpt><trkpt lat="43.20649551581798" lon="11.490975468879597"><ele>258.0</ele><time>2026-04-11T02:45:12Z</time></trkpt><trkpt lat="43.20656811210938" lon="11.491074817984003"><ele>258.0</ele><time>2026-04-11T02:45:14Z</time></trkpt><trkpt lat="43.206615673064285" lon="11.491169422859056"><ele>258.0</ele><time>2026-04-11T02:45:16Z</time></trkpt><trkpt lat="43.206660356966196" lon="11.49126313766471"><ele>257.0</ele><time>2026-04-11T02:45:18Z</time></trkpt><trkpt lat="43.20671442204766" lon="11.491369435206712"><ele>256.0</ele><time>2026-04-11T02:45:20Z</time></trkpt><trkpt lat="43.20677419029053" lon="11.491497716105162"><ele>255.0</ele><time>2026-04-11T02:45:22Z</time></trkpt><trkpt lat="43.20683050197889" lon="11.491625624870272"><ele>254.0</ele><time>2026-04-11T02:45:24Z</time></trkpt><trkpt lat="43.20690534255231" lon="11.491751368824742"><ele>253.0</ele><time>2026-04-11T02:45:26Z</time></trkpt><trkpt lat="43.206942452378264" lon="11.491823889746328"><ele>253.0</ele><time>2026-04-11T02:45:27Z</time></trkpt><trkpt lat="43.207016972073156" lon="11.491971146125051"><ele>253.0</ele><time>2026-04-11T02:45:29Z</time></trkpt><trkpt lat="43.207065146592754" lon="11.492038063528051"><ele>253.0</ele><time>2026-04-11T02:45:30Z</time></trkpt><trkpt lat="43.20711482296672" lon="11.49209524385179"><ele>253.0</ele><time>2026-04-11T02:45:31Z</time></trkpt><trkpt lat="43.20721439512329" lon="11.492199182005299"><ele>253.0</ele><time>2026-04-11T02:45:33Z</time></trkpt><trkpt lat="43.20726713508703" lon="11.492252021231684"><ele>252.0</ele><time>2026-04-11T02:45:34Z</time></trkpt><trkpt lat="43.20736500711898" lon="11.492350690633327"><ele>251.0</ele><time>2026-04-11T02:45:36Z</time></trkpt><trkpt lat="43.20742087701853" lon="11.492407627666077"><ele>250.0</ele><time>2026-04-11T02:45:37Z</time></trkpt><trkpt lat="43.20751866514368" lon="11.49250728344219"><ele>249.0</ele><time>2026-04-11T02:45:39Z</time></trkpt><trkpt lat="43.20759212152007" lon="11.492582234769362"><ele>248.0</ele><time>2026-04-11T02:45:41Z</time></trkpt><trkpt lat="43.20769381471156" lon="11.492686213673604"><ele>248.0</ele><time>2026-04-11T02:45:43Z</time></trkpt><trkpt lat="43.20777887569721" lon="11.492773186624154"><ele>248.0</ele><time>2026-04-11T02:45:45Z</time></trkpt><trkpt lat="43.20787332896727" lon="11.492871924575228"><ele>248.0</ele><time>2026-04-11T02:45:47Z</time></trkpt><trkpt lat="43.20796238149588" lon="11.4929653382021"><ele>248.0</ele><time>2026-04-11T02:45:49Z</time></trkpt><trkpt lat="43.2080437555752" lon="11.493050769620973"><ele>248.0</ele><time>2026-04-11T02:45:51Z</time></trkpt><trkpt lat="43.20812578238731" lon="11.493132196662078"><ele>248.4</ele><time>2026-04-11T02:45:53Z</time></trkpt><trkpt lat="43.20821678800228" lon="11.493221284720986"><ele>248.8</ele><time>2026-04-11T02:45:55Z</time></trkpt><trkpt lat="43.2083149723158" lon="11.493265323026868"><ele>249.2</ele><time>2026-04-11T02:45:57Z</time></trkpt><trkpt lat="43.208402919498305" lon="11.493338917601562"><ele>249.6</ele><time>2026-04-11T02:45:59Z</time></trkpt><trkpt lat="43.20849302142784" lon="11.493405969881032"><ele>250.0</ele><time>2026-04-11T02:46:01Z</time></trkpt><trkpt lat="43.2085746985973" lon="11.493464430747597"><ele>250.0</ele><time>2026-04-11T02:46:03Z</time></trkpt><trkpt lat="43.208648884121914" lon="11.493525401452645"><ele>250.0</ele><time>2026-04-11T02:46:05Z</time></trkpt><trkpt lat="43.20871295125007" lon="11.493575304886384"><ele>250.0</ele><time>2026-04-11T02:46:07Z</time></trkpt><trkpt lat="43.20875791068119" lon="11.493641555826521"><ele>250.0</ele><time>2026-04-11T02:46:09Z</time></trkpt><trkpt lat="43.208805022345295" lon="11.493712925829547"><ele>250.0</ele><time>2026-04-11T02:46:11Z</time></trkpt><trkpt lat="43.208849511076835" lon="11.49379919424468"><ele>250.0</ele><time>2026-04-11T02:46:13Z</time></trkpt><trkpt lat="43.208885052466634" lon="11.49387259913519"><ele>250.0</ele><time>2026-04-11T02:46:15Z</time></trkpt><trkpt lat="43.20892323796137" lon="11.493961871628672"><ele>251.49999999999997</ele><time>2026-04-11T02:46:18Z</time></trkpt><trkpt lat="43.20895485566319" lon="11.494053246847097"><ele>253.0</ele><time>2026-04-11T02:46:21Z</time></trkpt><trkpt lat="43.209001885146186" lon="11.494162815188396"><ele>254.5</ele><time>2026-04-11T02:46:24Z</time></trkpt><trkpt lat="43.209038829425985" lon="11.494276808106825"><ele>256.0</ele><time>2026-04-11T02:46:27Z</time></trkpt><trkpt lat="43.20906798214539" lon="11.494374425721105"><ele>257.5</ele><time>2026-04-11T02:46:31Z</time></trkpt><trkpt lat="43.209093334655236" lon="11.49445759771403"><ele>259.0</ele><time>2026-04-11T02:46:34Z</time></trkpt><trkpt lat="43.20911221577886" lon="11.494541854730238"><ele>259.2857142857143</ele><time>2026-04-11T02:46:37Z</time></trkpt><trkpt lat="43.209127517840244" lon="11.494626254775577"><ele>259.57142857142856</ele><time>2026-04-11T02:46:40Z</time></trkpt><trkpt lat="43.20914581648394" lon="11.494712314931673"><ele>259.8571428571429</ele><time>2026-04-11T02:46:43Z</time></trkpt><trkpt lat="43.20916339217835" lon="11.494829476080648"><ele>260.1428571428571</ele><time>2026-04-11T02:46:47Z</time></trkpt><trkpt lat="43.209178151234454" lon="11.494925354372041"><ele>260.42857142857144</ele><time>2026-04-11T02:46:50Z</time></trkpt><trkpt lat="43.20919113334478" lon="11.495015544242126"><ele>260.7142857142857</ele><time>2026-04-11T02:46:53Z</time></trkpt><trkpt lat="43.209201136657875" lon="11.495101753813548"><ele>261.0</ele><time>2026-04-11T02:46:56Z</time></trkpt><trkpt lat="43.20921803407596" lon="11.495189182865847"><ele>261.0</ele><time>2026-04-11T02:46:59Z</time></trkpt><trkpt lat="43.209241773031444" lon="11.49528164760331"><ele>261.0</ele><time>2026-04-11T02:47:02Z</time></trkpt><trkpt lat="43.20927175084812" lon="11.495376677285375"><ele>261.0</ele><time>2026-04-11T02:47:05Z</time></trkpt><trkpt lat="43.20930129835512" lon="11.495453320686892"><ele>261.0</ele><time>2026-04-11T02:47:08Z</time></trkpt><trkpt lat="43.20934315805282" lon="11.495551761357827"><ele>261.0</ele><time>2026-04-11T02:47:12Z</time></trkpt><trkpt lat="43.20937039252851" lon="11.495638636759162"><ele>261.0</ele><time>2026-04-11T02:47:15Z</time></trkpt><trkpt lat="43.20940651641834" lon="11.49574423320683"><ele>261.0</ele><time>2026-04-11T02:47:19Z</time></trkpt><trkpt lat="43.20944488330828" lon="11.495853955392763"><ele>261.2857142857143</ele><time>2026-04-11T02:47:23Z</time></trkpt><trkpt lat="43.209468862544604" lon="11.4959345546465"><ele>261.57142857142856</ele><time>2026-04-11T02:47:26Z</time></trkpt><trkpt lat="43.209493260111664" lon="11.496025499381794"><ele>261.85714285714283</ele><time>2026-04-11T02:47:28Z</time></trkpt><trkpt lat="43.209511373585535" lon="11.496113218383353"><ele>262.1428571428571</ele><time>2026-04-11T02:47:30Z</time></trkpt><trkpt lat="43.209546956441635" lon="11.496202735716762"><ele>262.4285714285714</ele><time>2026-04-11T02:47:32Z</time></trkpt><trkpt lat="43.209588278735936" lon="11.496299289008315"><ele>262.7142857142857</ele><time>2026-04-11T02:47:34Z</time></trkpt><trkpt lat="43.209625325658926" lon="11.496382054439907"><ele>263.0</ele><time>2026-04-11T02:47:35Z</time></trkpt><trkpt lat="43.209695474644526" lon="11.496502457182963"><ele>263.4</ele><time>2026-04-11T02:47:37Z</time></trkpt><trkpt lat="43.20977049015324" lon="11.496602791990949"><ele>263.8</ele><time>2026-04-11T02:47:39Z</time></trkpt><trkpt lat="43.209779944179516" lon="11.496693146193252"><ele>264.2</ele><time>2026-04-11T02:47:40Z</time></trkpt><trkpt lat="43.209865192284454" lon="11.496779897036713"><ele>264.6</ele><time>2026-04-11T02:47:42Z</time></trkpt><trkpt lat="43.20994890315128" lon="11.49684956379564"><ele>265.0</ele><time>2026-04-11T02:47:44Z</time></trkpt><trkpt lat="43.210043191308664" lon="11.496923684144411"><ele>265.0</ele><time>2026-04-11T02:47:46Z</time></trkpt><trkpt lat="43.210123807301244" lon="11.496982289952184"><ele>265.0</ele><time>2026-04-11T02:47:48Z</time></trkpt><trkpt lat="43.21021184975072" lon="11.497046294764546"><ele>265.0</ele><time>2026-04-11T02:47:50Z</time></trkpt><trkpt lat="43.21030177302432" lon="11.497113812717695"><ele>265.0</ele><time>2026-04-11T02:47:52Z</time></trkpt><trkpt lat="43.21038902590552" lon="11.497185773871403"><ele>265.0</ele><time>2026-04-11T02:47:54Z</time></trkpt><trkpt lat="43.210482323679315" lon="11.497263275587935"><ele>264.8</ele><time>2026-04-11T02:47:56Z</time></trkpt><trkpt lat="43.21058724460234" lon="11.497344552258161"><ele>264.6</ele><time>2026-04-11T02:47:58Z</time></trkpt><trkpt lat="43.2106734092994" lon="11.497424867326222"><ele>264.4</ele><time>2026-04-11T02:48:00Z</time></trkpt><trkpt lat="43.21074613170729" lon="11.497514166327548"><ele>264.2</ele><time>2026-04-11T02:48:02Z</time></trkpt><trkpt lat="43.210795760501526" lon="11.497626715651457"><ele>264.0</ele><time>2026-04-11T02:48:04Z</time></trkpt><trkpt lat="43.21082910264434" lon="11.497753097616354"><ele>264.0</ele><time>2026-04-11T02:48:06Z</time></trkpt><trkpt lat="43.21086773497513" lon="11.49787453879884"><ele>264.0</ele><time>2026-04-11T02:48:08Z</time></trkpt><trkpt lat="43.21088846684233" lon="11.498007578975058"><ele>264.0</ele><time>2026-04-11T02:48:10Z</time></trkpt><trkpt lat="43.21090974504648" lon="11.498148972490881"><ele>264.0</ele><time>2026-04-11T02:48:12Z</time></trkpt><trkpt lat="43.21091899864196" lon="11.498280856402483"><ele>264.0</ele><time>2026-04-11T02:48:14Z</time></trkpt><trkpt lat="43.21095336053822" lon="11.498399358406866"><ele>263.0</ele><time>2026-04-11T02:48:16Z</time></trkpt><trkpt lat="43.21102551825711" lon="11.49852403832006"><ele>262.0</ele><time>2026-04-11T02:48:18Z</time></trkpt><trkpt lat="43.21111769871215" lon="11.498606168840142"><ele>261.0</ele><time>2026-04-11T02:48:20Z</time></trkpt><trkpt lat="43.211200164168574" lon="11.49865756081922"><ele>260.0</ele><time>2026-04-11T02:48:22Z</time></trkpt><trkpt lat="43.2112788634492" lon="11.498681815279104"><ele>259.0</ele><time>2026-04-11T02:48:24Z</time></trkpt><trkpt lat="43.211359715754696" lon="11.498699573533813"><ele>259.0</ele><time>2026-04-11T02:48:26Z</time></trkpt><trkpt lat="43.21145348589585" lon="11.498695007664633"><ele>259.0</ele><time>2026-04-11T02:48:28Z</time></trkpt><trkpt lat="43.211533297014654" lon="11.498682482556864"><ele>259.0</ele><time>2026-04-11T02:48:30Z</time></trkpt><trkpt lat="43.21162688370014" lon="11.49866274489953"><ele>259.0</ele><time>2026-04-11T02:48:32Z</time></trkpt><trkpt lat="43.21172160670595" lon="11.49863560226856"><ele>259.0</ele><time>2026-04-11T02:48:34Z</time></trkpt><trkpt lat="43.21181042127261" lon="11.498613093664963"><ele>257.5</ele><time>2026-04-11T02:48:36Z</time></trkpt><trkpt lat="43.211891264415726" lon="11.498601708497365"><ele>256.0</ele><time>2026-04-11T02:48:38Z</time></trkpt><trkpt lat="43.2119544422367" lon="11.498623735462708"><ele>254.5</ele><time>2026-04-11T02:48:40Z</time></trkpt><trkpt lat="43.212027954285176" lon="11.498644320665457"><ele>253.0</ele><time>2026-04-11T02:48:42Z</time></trkpt><trkpt lat="43.212091212596256" lon="11.498731861703508"><ele>251.49999999999997</ele><time>2026-04-11T02:48:44Z</time></trkpt><trkpt lat="43.21214769420243" lon="11.498841888479326"><ele>250.0</ele><time>2026-04-11T02:48:46Z</time></trkpt><trkpt lat="43.21218168057793" lon="11.49895328352261"><ele>248.8</ele><time>2026-04-11T02:48:48Z</time></trkpt><trkpt lat="43.212199926307804" lon="11.499084949443098"><ele>247.6</ele><time>2026-04-11T02:48:50Z</time></trkpt><trkpt lat="43.212205733212876" lon="11.499218929589063"><ele>246.39999999999998</ele><time>2026-04-11T02:48:52Z</time></trkpt><trkpt lat="43.21218258411797" lon="11.499347939526489"><ele>245.2</ele><time>2026-04-11T02:48:54Z</time></trkpt><trkpt lat="43.2121388260649" lon="11.499453124860906"><ele>244.0</ele><time>2026-04-11T02:48:56Z</time></trkpt><trkpt lat="43.21206761132551" lon="11.499536632062737"><ele>241.39999999999998</ele><time>2026-04-11T02:48:58Z</time></trkpt><trkpt lat="43.2119772686242" lon="11.499586083930765"><ele>238.79999999999998</ele><time>2026-04-11T02:49:00Z</time></trkpt><trkpt lat="43.21187785162285" lon="11.499622075673923"><ele>236.20000000000002</ele><time>2026-04-11T02:49:02Z</time></trkpt><trkpt lat="43.21177989554374" lon="11.499661588638846"><ele>233.60000000000002</ele><time>2026-04-11T02:49:04Z</time></trkpt><trkpt lat="43.21171626763765" lon="11.499706766503316"><ele>231.0</ele><time>2026-04-11T02:49:06Z</time></trkpt><trkpt lat="43.2116466667149" lon="11.499755717894933"><ele>231.0</ele><time>2026-04-11T02:49:08Z</time></trkpt><trkpt lat="43.21158336224433" lon="11.499880107336024"><ele>231.00000000000003</ele><time>2026-04-11T02:49:10Z</time></trkpt><trkpt lat="43.21154633260314" lon="11.50001267561442"><ele>231.00000000000003</ele><time>2026-04-11T02:49:12Z</time></trkpt><trkpt lat="43.21151025820301" lon="11.500151895957336"><ele>231.0</ele><time>2026-04-11T02:49:14Z</time></trkpt><trkpt lat="43.21148774863733" lon="11.500271894897319"><ele>231.0</ele><time>2026-04-11T02:49:16Z</time></trkpt><trkpt lat="43.21146450689309" lon="11.500413953900322"><ele>228.60000000000002</ele><time>2026-04-11T02:49:18Z</time></trkpt><trkpt lat="43.21143716365875" lon="11.50054903499452"><ele>226.20000000000002</ele><time>2026-04-11T02:49:20Z</time></trkpt><trkpt lat="43.211407764329245" lon="11.500675084478116"><ele>223.79999999999998</ele><time>2026-04-11T02:49:22Z</time></trkpt><trkpt lat="43.21138721617092" lon="11.5008207636579"><ele>221.39999999999998</ele><time>2026-04-11T02:49:24Z</time></trkpt><trkpt lat="43.211315037961455" lon="11.500917568397872"><ele>219.0</ele><time>2026-04-11T02:49:26Z</time></trkpt><trkpt lat="43.211252174681064" lon="11.501011795950733"><ele>219.0</ele><time>2026-04-11T02:49:28Z</time></trkpt><trkpt lat="43.21115378455" lon="11.501045945854196"><ele>218.99999999999997</ele><time>2026-04-11T02:49:30Z</time></trkpt><trkpt lat="43.211088312511755" lon="11.501116019012175"><ele>218.99999999999997</ele><time>2026-04-11T02:49:32Z</time></trkpt><trkpt lat="43.21099399662395" lon="11.50116947945188"><ele>219.0</ele><time>2026-04-11T02:49:34Z</time></trkpt><trkpt lat="43.21091586603571" lon="11.501218037369382"><ele>219.0</ele><time>2026-04-11T02:49:36Z</time></trkpt><trkpt lat="43.21083462963252" lon="11.501289774443205"><ele>219.2</ele><time>2026-04-11T02:49:38Z</time></trkpt><trkpt lat="43.21075957956553" lon="11.501365603262611"><ele>219.39999999999998</ele><time>2026-04-11T02:49:40Z</time></trkpt><trkpt lat="43.21069248912329" lon="11.501460228873219"><ele>219.6</ele><time>2026-04-11T02:49:42Z</time></trkpt><trkpt lat="43.21062807372037" lon="11.501565082001372"><ele>219.8</ele><time>2026-04-11T02:49:44Z</time></trkpt><trkpt lat="43.21057395513211" lon="11.501688816202794"><ele>220.0</ele><time>2026-04-11T02:49:46Z</time></trkpt><trkpt lat="43.2105308630735" lon="11.501792231645416"><ele>219.99999999999997</ele><time>2026-04-11T02:49:48Z</time></trkpt><trkpt lat="43.21049873231188" lon="11.50190753250779"><ele>220.0</ele><time>2026-04-11T02:49:50Z</time></trkpt><trkpt lat="43.210465840409725" lon="11.502020986494932"><ele>220.0</ele><time>2026-04-11T02:49:52Z</time></trkpt><trkpt lat="43.2104272278321" lon="11.50212056550649"><ele>220.0</ele><time>2026-04-11T02:49:54Z</time></trkpt><trkpt lat="43.21038455819411" lon="11.502219612741326"><ele>219.99999999999997</ele><time>2026-04-11T02:49:56Z</time></trkpt><trkpt lat="43.21033120649921" lon="11.502318501137982"><ele>220.0</ele><time>2026-04-11T02:49:58Z</time></trkpt><trkpt lat="43.21025358865299" lon="11.502402840558199"><ele>220.6</ele><time>2026-04-11T02:50:00Z</time></trkpt><trkpt lat="43.21019093088233" lon="11.502485460665989"><ele>221.2</ele><time>2026-04-11T02:50:02Z</time></trkpt><trkpt lat="43.2101045689807" lon="11.502581325295239"><ele>221.8</ele><time>2026-04-11T02:50:04Z</time></trkpt><trkpt lat="43.20999709343231" lon="11.502633405228147"><ele>222.4</ele><time>2026-04-11T02:50:06Z</time></trkpt><trkpt lat="43.20991075287941" lon="11.502718021653463"><ele>223.0</ele><time>2026-04-11T02:50:08Z</time></trkpt><trkpt lat="43.209823567503264" lon="11.50280432532054"><ele>223.0</ele><time>2026-04-11T02:50:10Z</time></trkpt><trkpt lat="43.20973601901715" lon="11.502893927926726"><ele>223.0</ele><time>2026-04-11T02:50:12Z</time></trkpt><trkpt lat="43.209643583780675" lon="11.502990680913765"><ele>223.0</ele><time>2026-04-11T02:50:14Z</time></trkpt><trkpt lat="43.20955846967403" lon="11.503083189096088"><ele>223.0</ele><time>2026-04-11T02:50:16Z</time></trkpt><trkpt lat="43.20947189729182" lon="11.503179141959862"><ele>223.0</ele><time>2026-04-11T02:50:18Z</time></trkpt><trkpt lat="43.20938570389529" lon="11.503275773588289"><ele>222.2</ele><time>2026-04-11T02:50:20Z</time></trkpt><trkpt lat="43.209312137428654" lon="11.503367214765248"><ele>221.4</ele><time>2026-04-11T02:50:22Z</time></trkpt><trkpt lat="43.20924095878728" lon="11.503478981760207"><ele>220.59999999999997</ele><time>2026-04-11T02:50:24Z</time></trkpt><trkpt lat="43.209177141644645" lon="11.503589465888437"><ele>219.79999999999998</ele><time>2026-04-11T02:50:26Z</time></trkpt><trkpt lat="43.209124751361855" lon="11.503720837480348"><ele>219.0</ele><time>2026-04-11T02:50:28Z</time></trkpt><trkpt lat="43.209045922934166" lon="11.503827336221317"><ele>216.79999999999998</ele><time>2026-04-11T02:50:30Z</time></trkpt><trkpt lat="43.20898232469415" lon="11.503942943605022"><ele>214.59999999999997</ele><time>2026-04-11T02:50:32Z</time></trkpt><trkpt lat="43.208922511070355" lon="11.504051671271808"><ele>212.4</ele><time>2026-04-11T02:50:34Z</time></trkpt><trkpt lat="43.20885451132539" lon="11.504170852265855"><ele>210.2</ele><time>2026-04-11T02:50:36Z</time></trkpt><trkpt lat="43.2087891887905" lon="11.504278779480085"><ele>208.0</ele><time>2026-04-11T02:50:38Z</time></trkpt><trkpt lat="43.208726578890904" lon="11.504396825312568"><ele>208.0</ele><time>2026-04-11T02:50:40Z</time></trkpt><trkpt lat="43.20864968769098" lon="11.504467504867874"><ele>208.0</ele><time>2026-04-11T02:50:42Z</time></trkpt><trkpt lat="43.20855718206858" lon="11.504523947166465"><ele>208.0</ele><time>2026-04-11T02:50:44Z</time></trkpt><trkpt lat="43.2084556008357" lon="11.50454953364973"><ele>208.0</ele><time>2026-04-11T02:50:46Z</time></trkpt><trkpt lat="43.20835734714689" lon="11.50456431363422"><ele>208.0</ele><time>2026-04-11T02:50:48Z</time></trkpt><trkpt lat="43.2082640314384" lon="11.504570147628161"><ele>204.8</ele><time>2026-04-11T02:50:50Z</time></trkpt><trkpt lat="43.20816275497988" lon="11.504582950871823"><ele>201.60000000000002</ele><time>2026-04-11T02:50:52Z</time></trkpt><trkpt lat="43.208060782215995" lon="11.50457614003748"><ele>198.39999999999998</ele><time>2026-04-11T02:50:54Z</time></trkpt><trkpt lat="43.20795242158786" lon="11.50456086237664"><ele>195.2</ele><time>2026-04-11T02:50:56Z</time></trkpt><trkpt lat="43.20787339561188" lon="11.504534503897093"><ele>192.0</ele><time>2026-04-11T02:50:58Z</time></trkpt><trkpt lat="43.20780591144835" lon="11.50454135332625"><ele>190.0</ele><time>2026-04-11T02:51:00Z</time></trkpt><trkpt lat="43.207733246054204" lon="11.504584811707016"><ele>188.0</ele><time>2026-04-11T02:51:02Z</time></trkpt><trkpt lat="43.20774494044454" lon="11.504722174345556"><ele>186.0</ele><time>2026-04-11T02:51:04Z</time></trkpt><trkpt lat="43.207899159062784" lon="11.504748768032533"><ele>184.0</ele><time>2026-04-11T02:51:07Z</time></trkpt><trkpt lat="43.20798827608391" lon="11.504797734211836"><ele>182.0</ele><time>2026-04-11T02:51:09Z</time></trkpt><trkpt lat="43.2080770360403" lon="11.504832179400244"><ele>182.0</ele><time>2026-04-11T02:51:11Z</time></trkpt><trkpt lat="43.20815859876589" lon="11.504868003845505"><ele>182.0</ele><time>2026-04-11T02:51:13Z</time></trkpt><trkpt lat="43.20825596408521" lon="11.504927401027334"><ele>182.0</ele><time>2026-04-11T02:51:15Z</time></trkpt><trkpt lat="43.20832863418228" lon="11.505026869390726"><ele>182.0</ele><time>2026-04-11T02:51:17Z</time></trkpt><trkpt lat="43.20843477436727" lon="11.50508295104822"><ele>182.0</ele><time>2026-04-11T02:51:19Z</time></trkpt><trkpt lat="43.20855038580743" lon="11.505102250340222"><ele>182.6</ele><time>2026-04-11T02:51:21Z</time></trkpt><trkpt lat="43.20867015125041" lon="11.505113949271546"><ele>183.2</ele><time>2026-04-11T02:51:23Z</time></trkpt><trkpt lat="43.20877857685632" lon="11.505135864466634"><ele>183.8</ele><time>2026-04-11T02:51:25Z</time></trkpt><trkpt lat="43.2088794499732" lon="11.505160063699947"><ele>184.4</ele><time>2026-04-11T02:51:27Z</time></trkpt><trkpt lat="43.20896962374397" lon="11.505178752179521"><ele>185.0</ele><time>2026-04-11T02:51:29Z</time></trkpt><trkpt lat="43.209083739924246" lon="11.505156674125796"><ele>185.0</ele><time>2026-04-11T02:51:31Z</time></trkpt><trkpt lat="43.20919528188196" lon="11.505099071626601"><ele>185.0</ele><time>2026-04-11T02:51:33Z</time></trkpt><trkpt lat="43.20929265761269" lon="11.505028199277923"><ele>185.0</ele><time>2026-04-11T02:51:35Z</time></trkpt><trkpt lat="43.20938003660801" lon="11.50496516085421"><ele>185.0</ele><time>2026-04-11T02:51:37Z</time></trkpt><trkpt lat="43.209473204629255" lon="11.504930322802027"><ele>185.0</ele><time>2026-04-11T02:51:39Z</time></trkpt><trkpt lat="43.209568878198624" lon="11.50492763117844"><ele>185.0</ele><time>2026-04-11T02:51:41Z</time></trkpt><trkpt lat="43.20966313525329" lon="11.50494857871401"><ele>185.0</ele><time>2026-04-11T02:51:43Z</time></trkpt><trkpt lat="43.20975701055273" lon="11.50500967822925"><ele>185.0</ele><time>2026-04-11T02:51:45Z</time></trkpt><trkpt lat="43.20984613676016" lon="11.505076026295024"><ele>185.0</ele><time>2026-04-11T02:51:47Z</time></trkpt><trkpt lat="43.209940299556685" lon="11.505161902322538"><ele>185.0</ele><time>2026-04-11T02:51:49Z</time></trkpt><trkpt lat="43.2100249512754" lon="11.505256432140024"><ele>183.4</ele><time>2026-04-11T02:51:51Z</time></trkpt><trkpt lat="43.21011738308573" lon="11.505338081890274"><ele>181.8</ele><time>2026-04-11T02:51:53Z</time></trkpt><trkpt lat="43.21021503479067" lon="11.505393254264975"><ele>180.2</ele><time>2026-04-11T02:51:55Z</time></trkpt><trkpt lat="43.210328557134055" lon="11.505429915768575"><ele>178.6</ele><time>2026-04-11T02:51:57Z</time></trkpt><trkpt lat="43.21044025226611" lon="11.5054563651642"><ele>177.0</ele><time>2026-04-11T02:51:59Z</time></trkpt><trkpt lat="43.21055095698724" lon="11.505481451331313"><ele>176.5</ele><time>2026-04-11T02:52:01Z</time></trkpt><trkpt lat="43.21068303216441" lon="11.505481135941409"><ele>176.0</ele><time>2026-04-11T02:52:03Z</time></trkpt><trkpt lat="43.21075838163946" lon="11.505466045157602"><ele>175.5</ele><time>2026-04-11T02:52:04Z</time></trkpt><trkpt lat="43.21083618987317" lon="11.505441886181206"><ele>175.0</ele><time>2026-04-11T02:52:05Z</time></trkpt><trkpt lat="43.210907553107" lon="11.505411163488974"><ele>174.5</ele><time>2026-04-11T02:52:06Z</time></trkpt><trkpt lat="43.21096883474292" lon="11.505385911646231"><ele>174.0</ele><time>2026-04-11T02:52:07Z</time></trkpt><trkpt lat="43.211067666455286" lon="11.50535690976009"><ele>174.0</ele><time>2026-04-11T02:52:09Z</time></trkpt><trkpt lat="43.21116389524779" lon="11.505360430549826"><ele>174.0</ele><time>2026-04-11T02:52:11Z</time></trkpt><trkpt lat="43.2112557068784" lon="11.505419944475587"><ele>174.0</ele><time>2026-04-11T02:52:13Z</time></trkpt><trkpt lat="43.211338489174025" lon="11.50552894662357"><ele>174.0</ele><time>2026-04-11T02:52:15Z</time></trkpt><trkpt lat="43.21139396836343" lon="11.505680978938328"><ele>174.0</ele><time>2026-04-11T02:52:17Z</time></trkpt><trkpt lat="43.21141735624449" lon="11.505763127772077"><ele>171.75</ele><time>2026-04-11T02:52:18Z</time></trkpt><trkpt lat="43.21146230147968" lon="11.50592134795608"><ele>169.5</ele><time>2026-04-11T02:52:20Z</time></trkpt><trkpt lat="43.21150692179465" lon="11.506077554226335"><ele>167.25</ele><time>2026-04-11T02:52:22Z</time></trkpt><trkpt lat="43.21154848304451" lon="11.506223051377084"><ele>165.0</ele><time>2026-04-11T02:52:24Z</time></trkpt><trkpt lat="43.211592004827665" lon="11.506375411730414"><ele>165.0</ele><time>2026-04-11T02:52:26Z</time></trkpt><trkpt lat="43.21163636568057" lon="11.506530709667338"><ele>165.0</ele><time>2026-04-11T02:52:28Z</time></trkpt><trkpt lat="43.21168034163679" lon="11.506684660134166"><ele>165.0</ele><time>2026-04-11T02:52:30Z</time></trkpt><trkpt lat="43.21172167986438" lon="11.506829376442058"><ele>165.0</ele><time>2026-04-11T02:52:32Z</time></trkpt><trkpt lat="43.21176305561116" lon="11.506974224063446"><ele>164.75</ele><time>2026-04-11T02:52:34Z</time></trkpt><trkpt lat="43.21180454641517" lon="11.507119474593662"><ele>164.5</ele><time>2026-04-11T02:52:36Z</time></trkpt><trkpt lat="43.21184879919777" lon="11.5072726219532"><ele>164.25</ele><time>2026-04-11T02:52:38Z</time></trkpt><trkpt lat="43.21189618262379" lon="11.507422322988687"><ele>164.0</ele><time>2026-04-11T02:52:40Z</time></trkpt><trkpt lat="43.21195479752028" lon="11.50757136600204"><ele>164.0</ele><time>2026-04-11T02:52:42Z</time></trkpt><trkpt lat="43.21204433564308" lon="11.507696110060724"><ele>164.0</ele><time>2026-04-11T02:52:44Z</time></trkpt><trkpt lat="43.21215377037857" lon="11.507782533496481"><ele>164.0</ele><time>2026-04-11T02:52:46Z</time></trkpt><trkpt lat="43.21226572460277" lon="11.507838907548464"><ele>164.0</ele><time>2026-04-11T02:52:48Z</time></trkpt><trkpt lat="43.212372489198835" lon="11.507900882226487"><ele>163.66666666666666</ele><time>2026-04-11T02:52:50Z</time></trkpt><trkpt lat="43.21245845616693" lon="11.507975044792357"><ele>163.33333333333331</ele><time>2026-04-11T02:52:52Z</time></trkpt><trkpt lat="43.21251334705674" lon="11.508029264404732"><ele>163.0</ele><time>2026-04-11T02:52:54Z</time></trkpt><trkpt lat="43.2125586628194" lon="11.508093851899297"><ele>162.66666666666666</ele><time>2026-04-11T02:52:56Z</time></trkpt><trkpt lat="43.212624132855424" lon="11.508232783645628"><ele>162.33333333333334</ele><time>2026-04-11T02:52:58Z</time></trkpt><trkpt lat="43.212660620843145" lon="11.508314121374346"><ele>162.0</ele><time>2026-04-11T02:52:59Z</time></trkpt><trkpt lat="43.21272068085469" lon="11.508448852803607"><ele>162.0</ele><time>2026-04-11T02:53:01Z</time></trkpt><trkpt lat="43.21275370331505" lon="11.508522931380549"><ele>162.0</ele><time>2026-04-11T02:53:02Z</time></trkpt><trkpt lat="43.21281585099645" lon="11.508660417677513"><ele>162.0</ele><time>2026-04-11T02:53:04Z</time></trkpt><trkpt lat="43.21288125053018" lon="11.50879932507631"><ele>162.0</ele><time>2026-04-11T02:53:06Z</time></trkpt><trkpt lat="43.212916531087856" lon="11.508874260707213"><ele>162.0</ele><time>2026-04-11T02:53:07Z</time></trkpt><trkpt lat="43.21298756454803" lon="11.509018008918833"><ele>161.83333333333334</ele><time>2026-04-11T02:53:09Z</time></trkpt><trkpt lat="43.21302289902655" lon="11.509089796461685"><ele>161.66666666666666</ele><time>2026-04-11T02:53:10Z</time></trkpt><trkpt lat="43.213058847327254" lon="11.509162831035328"><ele>161.5</ele><time>2026-04-11T02:53:11Z</time></trkpt><trkpt lat="43.21312393502939" lon="11.509293067223005"><ele>161.33333333333331</ele><time>2026-04-11T02:53:13Z</time></trkpt><trkpt lat="43.213179893292846" lon="11.509402617227218"><ele>161.16666666666666</ele><time>2026-04-11T02:53:15Z</time></trkpt><trkpt lat="43.21323852786784" lon="11.509509965110945"><ele>161.0</ele><time>2026-04-11T02:53:17Z</time></trkpt><trkpt lat="43.21331462664869" lon="11.509625831698706"><ele>161.4</ele><time>2026-04-11T02:53:19Z</time></trkpt><trkpt lat="43.21339260395898" lon="11.509722424213285"><ele>161.8</ele><time>2026-04-11T02:53:21Z</time></trkpt><trkpt lat="43.21347309238689" lon="11.509812341705398"><ele>162.20000000000002</ele><time>2026-04-11T02:53:23Z</time></trkpt><trkpt lat="43.21356488307638" lon="11.509911487551898"><ele>162.60000000000002</ele><time>2026-04-11T02:53:25Z</time></trkpt><trkpt lat="43.21365475774247" lon="11.510019250676187"><ele>163.0</ele><time>2026-04-11T02:53:27Z</time></trkpt><trkpt lat="43.213741017353385" lon="11.51013520987679"><ele>163.0</ele><time>2026-04-11T02:53:29Z</time></trkpt><trkpt lat="43.21383653273054" lon="11.510239428525294"><ele>163.0</ele><time>2026-04-11T02:53:31Z</time></trkpt><trkpt lat="43.21390684185791" lon="11.510366480544798"><ele>163.0</ele><time>2026-04-11T02:53:33Z</time></trkpt><trkpt lat="43.21396663217302" lon="11.510483003711746"><ele>163.0</ele><time>2026-04-11T02:53:35Z</time></trkpt><trkpt lat="43.214009877556556" lon="11.51059319253313"><ele>163.0</ele><time>2026-04-11T02:53:37Z</time></trkpt><trkpt lat="43.21406660384625" lon="11.510707741277749"><ele>163.16666666666669</ele><time>2026-04-11T02:53:39Z</time></trkpt><trkpt lat="43.214102244295546" lon="11.51077971089911"><ele>163.33333333333334</ele><time>2026-04-11T02:53:40Z</time></trkpt><trkpt lat="43.21414677019381" lon="11.510866071944042"><ele>163.5</ele><time>2026-04-11T02:53:42Z</time></trkpt><trkpt lat="43.214194058823" lon="11.510956872520183"><ele>163.66666666666666</ele><time>2026-04-11T02:53:43Z</time></trkpt><trkpt lat="43.21423792587797" lon="11.51109283259988"><ele>163.83333333333331</ele><time>2026-04-11T02:53:45Z</time></trkpt><trkpt lat="43.21424003289593" lon="11.511255300956721"><ele>164.0</ele><time>2026-04-11T02:53:47Z</time></trkpt><trkpt lat="43.214216757230446" lon="11.511405910307216"><ele>164.33333333333331</ele><time>2026-04-11T02:53:49Z</time></trkpt><trkpt lat="43.21420034011638" lon="11.511527494533595"><ele>164.66666666666666</ele><time>2026-04-11T02:53:51Z</time></trkpt><trkpt lat="43.21418584168762" lon="11.511626158599679"><ele>165.0</ele><time>2026-04-11T02:53:53Z</time></trkpt><trkpt lat="43.21417868446243" lon="11.51172563211402"><ele>165.33333333333334</ele><time>2026-04-11T02:53:55Z</time></trkpt><trkpt lat="43.21419386375808" lon="11.511853817567793"><ele>165.66666666666669</ele><time>2026-04-11T02:53:58Z</time></trkpt><trkpt lat="43.21421543149583" lon="11.511953884663695"><ele>166.0</ele><time>2026-04-11T02:54:00Z</time></trkpt><trkpt lat="43.21423815014119" lon="11.512066620853608"><ele>166.33333333333334</ele><time>2026-04-11T02:54:04Z</time></trkpt><trkpt lat="43.21427517331582" lon="11.512150446493061"><ele>166.66666666666669</ele><time>2026-04-11T02:54:07Z</time></trkpt><trkpt lat="43.21433645709888" lon="11.5122605278601"><ele>167.0</ele><time>2026-04-11T02:54:10Z</time></trkpt><trkpt lat="43.21439610758395" lon="11.512338258556134"><ele>167.33333333333334</ele><time>2026-04-11T02:54:13Z</time></trkpt><trkpt lat="43.214453325118654" lon="11.512390594963337"><ele>167.66666666666666</ele><time>2026-04-11T02:54:16Z</time></trkpt><trkpt lat="43.21453776920736" lon="11.5123688144003"><ele>168.0</ele><time>2026-04-11T02:54:19Z</time></trkpt><trkpt lat="43.21460649148951" lon="11.512425138495487"><ele>168.0</ele><time>2026-04-11T02:54:23Z</time></trkpt><trkpt lat="43.21465367054257" lon="11.51248321424082"><ele>168.0</ele><time>2026-04-11T02:54:26Z</time></trkpt><trkpt lat="43.214735495977116" lon="11.51255251183549"><ele>168.0</ele><time>2026-04-11T02:54:30Z</time></trkpt><trkpt lat="43.21478911328257" lon="11.51260205177291"><ele>168.0</ele><time>2026-04-11T02:54:33Z</time></trkpt><trkpt lat="43.21484884611362" lon="11.512668667385832"><ele>168.0</ele><time>2026-04-11T02:54:37Z</time></trkpt><trkpt lat="43.21490629271427" lon="11.512717463839012"><ele>168.0</ele><time>2026-04-11T02:54:40Z</time></trkpt><trkpt lat="43.214962500134206" lon="11.512768827280366"><ele>168.0</ele><time>2026-04-11T02:54:43Z</time></trkpt><trkpt lat="43.215020931610546" lon="11.512821250776591"><ele>169.66666666666666</ele><time>2026-04-11T02:54:46Z</time></trkpt><trkpt lat="43.215075388098136" lon="11.5128749538746"><ele>171.33333333333334</ele><time>2026-04-11T02:54:49Z</time></trkpt><trkpt lat="43.21512856533455" lon="11.512938148323078"><ele>173.0</ele><time>2026-04-11T02:54:52Z</time></trkpt><trkpt lat="43.21518441595774" lon="11.51301567234393"><ele>174.66666666666669</ele><time>2026-04-11T02:54:55Z</time></trkpt><trkpt lat="43.215233021005446" lon="11.51308614113318"><ele>176.33333333333334</ele><time>2026-04-11T02:54:58Z</time></trkpt><trkpt lat="43.215288544083116" lon="11.513176869851495"><ele>178.0</ele><time>2026-04-11T02:55:01Z</time></trkpt><trkpt lat="43.21533919481682" lon="11.513267861428291"><ele>178.33333333333334</ele><time>2026-04-11T02:55:04Z</time></trkpt><trkpt lat="43.21536737379806" lon="11.513375076828549"><ele>178.66666666666669</ele><time>2026-04-11T02:55:07Z</time></trkpt><trkpt lat="43.215417704033285" lon="11.513460563707069"><ele>179.0</ele><time>2026-04-11T02:55:10Z</time></trkpt><trkpt lat="43.215429749029205" lon="11.513557865247328"><ele>179.33333333333334</ele><time>2026-04-11T02:55:13Z</time></trkpt><trkpt lat="43.215454325865196" lon="11.513654815492417"><ele>179.66666666666666</ele><time>2026-04-11T02:55:16Z</time></trkpt><trkpt lat="43.21547399722171" lon="11.513737608672699"><ele>180.0</ele><time>2026-04-11T02:55:18Z</time></trkpt><trkpt lat="43.21549320151763" lon="11.51385560618805"><ele>180.4</ele><time>2026-04-11T02:55:21Z</time></trkpt><trkpt lat="43.2155401166662" lon="11.514045362375048"><ele>180.8</ele><time>2026-04-11T02:55:24Z</time></trkpt><trkpt lat="43.215566950849094" lon="11.514128805468978"><ele>181.2</ele><time>2026-04-11T02:55:25Z</time></trkpt><trkpt lat="43.21558298326643" lon="11.514303677257832"><ele>181.6</ele><time>2026-04-11T02:55:27Z</time></trkpt><trkpt lat="43.21561297045706" lon="11.514388822070662"><ele>182.0</ele><time>2026-04-11T02:55:28Z</time></trkpt><trkpt lat="43.2156420834511" lon="11.514466113465637"><ele>182.28571428571428</ele><time>2026-04-11T02:55:29Z</time></trkpt><trkpt lat="43.215671208159684" lon="11.514543435952518"><ele>182.57142857142856</ele><time>2026-04-11T02:55:30Z</time></trkpt><trkpt lat="43.21570200618039" lon="11.514625200877854"><ele>182.85714285714286</ele><time>2026-04-11T02:55:31Z</time></trkpt><trkpt lat="43.21573256706866" lon="11.51470594969963"><ele>183.14285714285714</ele><time>2026-04-11T02:55:32Z</time></trkpt><trkpt lat="43.21576456444211" lon="11.514790371570001"><ele>183.42857142857142</ele><time>2026-04-11T02:55:33Z</time></trkpt><trkpt lat="43.21579502891492" lon="11.514874483660659"><ele>183.71428571428572</ele><time>2026-04-11T02:55:34Z</time></trkpt><trkpt lat="43.21583686183288" lon="11.514943615973683"><ele>184.0</ele><time>2026-04-11T02:55:35Z</time></trkpt><trkpt lat="43.21586505185676" lon="11.515024549355463"><ele>182.57142857142858</ele><time>2026-04-11T02:55:36Z</time></trkpt><trkpt lat="43.215892505657486" lon="11.515106481558854"><ele>181.14285714285714</ele><time>2026-04-11T02:55:37Z</time></trkpt><trkpt lat="43.2159187508384" lon="11.515193088684532"><ele>179.71428571428572</ele><time>2026-04-11T02:55:38Z</time></trkpt><trkpt lat="43.21593373723683" lon="11.515283108455495"><ele>178.28571428571428</ele><time>2026-04-11T02:55:39Z</time></trkpt><trkpt lat="43.2159629868498" lon="11.515368158853981"><ele>176.85714285714286</ele><time>2026-04-11T02:55:40Z</time></trkpt><trkpt lat="43.21599454940872" lon="11.51545585561525"><ele>175.42857142857142</ele><time>2026-04-11T02:55:41Z</time></trkpt><trkpt lat="43.21602852026999" lon="11.51555032600282"><ele>174.0</ele><time>2026-04-11T02:55:42Z</time></trkpt><trkpt lat="43.21606424956775" lon="11.51563731907515"><ele>173.0</ele><time>2026-04-11T02:55:43Z</time></trkpt><trkpt lat="43.21610193322234" lon="11.515725615164733"><ele>172.0</ele><time>2026-04-11T02:55:44Z</time></trkpt><trkpt lat="43.21614046753105" lon="11.515811628981526"><ele>171.0</ele><time>2026-04-11T02:55:45Z</time></trkpt><trkpt lat="43.21618275708158" lon="11.515902765184237"><ele>170.0</ele><time>2026-04-11T02:55:46Z</time></trkpt><trkpt lat="43.216226403474344" lon="11.515992348992544"><ele>169.0</ele><time>2026-04-11T02:55:47Z</time></trkpt><trkpt lat="43.21626833438285" lon="11.516075605304536"><ele>168.0</ele><time>2026-04-11T02:55:48Z</time></trkpt><trkpt lat="43.21631635955013" lon="11.516168637347494"><ele>168.14285714285714</ele><time>2026-04-11T02:55:49Z</time></trkpt><trkpt lat="43.216361495079106" lon="11.516253148845944"><ele>168.28571428571428</ele><time>2026-04-11T02:55:50Z</time></trkpt><trkpt lat="43.21640582544124" lon="11.516336152759266"><ele>168.42857142857144</ele><time>2026-04-11T02:55:51Z</time></trkpt><trkpt lat="43.21644812467976" lon="11.516415353603342"><ele>168.57142857142856</ele><time>2026-04-11T02:55:52Z</time></trkpt><trkpt lat="43.21649152767667" lon="11.516497356207584"><ele>168.71428571428572</ele><time>2026-04-11T02:55:53Z</time></trkpt><trkpt lat="43.21653093681361" lon="11.516571922296688"><ele>168.85714285714286</ele><time>2026-04-11T02:55:54Z</time></trkpt><trkpt lat="43.216573838291495" lon="11.516653096253446"><ele>169.0</ele><time>2026-04-11T02:55:55Z</time></trkpt><trkpt lat="43.21664525162014" lon="11.516797715114695"><ele>169.0</ele><time>2026-04-11T02:55:57Z</time></trkpt><trkpt lat="43.21670593446644" lon="11.51693357561703"><ele>169.0</ele><time>2026-04-11T02:55:59Z</time></trkpt><trkpt lat="43.21676081020847" lon="11.517061572212214"><ele>169.0</ele><time>2026-04-11T02:56:01Z</time></trkpt><trkpt lat="43.21680478567247" lon="11.51716414413212"><ele>169.0</ele><time>2026-04-11T02:56:03Z</time></trkpt><trkpt lat="43.21684840489164" lon="11.517265885114488"><ele>169.0</ele><time>2026-04-11T02:56:05Z</time></trkpt><trkpt lat="43.21689874831733" lon="11.517387395441258"><ele>169.0</ele><time>2026-04-11T02:56:07Z</time></trkpt><trkpt lat="43.21694622631051" lon="11.51750277840975"><ele>169.0</ele><time>2026-04-11T02:56:09Z</time></trkpt><trkpt lat="43.216991104299034" lon="11.517611842736027"><ele>169.0</ele><time>2026-04-11T02:56:11Z</time></trkpt><trkpt lat="43.217032405381495" lon="11.517716081847789"><ele>169.0</ele><time>2026-04-11T02:56:13Z</time></trkpt><trkpt lat="43.21707057494977" lon="11.51781265885283"><ele>169.0</ele><time>2026-04-11T02:56:15Z</time></trkpt><trkpt lat="43.217111027618834" lon="11.517916602669992"><ele>169.0</ele><time>2026-04-11T02:56:17Z</time></trkpt><trkpt lat="43.21715022311533" lon="11.518017492165148"><ele>169.0</ele><time>2026-04-11T02:56:19Z</time></trkpt><trkpt lat="43.21719054812062" lon="11.518121289025855"><ele>169.0</ele><time>2026-04-11T02:56:21Z</time></trkpt><trkpt lat="43.217232550085775" lon="11.518229402380225"><ele>169.0</ele><time>2026-04-11T02:56:23Z</time></trkpt><trkpt lat="43.217276953176565" lon="11.518343303101833"><ele>169.0</ele><time>2026-04-11T02:56:25Z</time></trkpt><trkpt lat="43.21732819991884" lon="11.518413364000665"><ele>169.0</ele><time>2026-04-11T02:56:27Z</time></trkpt><trkpt lat="43.217367490227225" lon="11.518507844082633"><ele>169.0</ele><time>2026-04-11T02:56:29Z</time></trkpt><trkpt lat="43.217398077229774" lon="11.518621267873923"><ele>170.25</ele><time>2026-04-11T02:56:31Z</time></trkpt><trkpt lat="43.21745741559508" lon="11.518917900966503"><ele>171.5</ele><time>2026-04-11T02:56:33Z</time></trkpt><trkpt lat="43.21747544041489" lon="11.519070098403676"><ele>172.75</ele><time>2026-04-11T02:56:35Z</time></trkpt><trkpt lat="43.21747457685689" lon="11.519161976032729"><ele>174.0</ele><time>2026-04-11T02:56:36Z</time></trkpt><trkpt lat="43.21746061382468" lon="11.519288096086058"><ele>174.0</ele><time>2026-04-11T02:56:38Z</time></trkpt><trkpt lat="43.2174510163532" lon="11.519404197084064"><ele>174.0</ele><time>2026-04-11T02:56:40Z</time></trkpt><trkpt lat="43.2174431087315" lon="11.519500942359203"><ele>174.0</ele><time>2026-04-11T02:56:42Z</time></trkpt><trkpt lat="43.2174326930665" lon="11.519628372121817"><ele>174.0</ele><time>2026-04-11T02:56:45Z</time></trkpt><trkpt lat="43.217425855192204" lon="11.51973254224807"><ele>174.0</ele><time>2026-04-11T02:56:48Z</time></trkpt><trkpt lat="43.21742031304094" lon="11.519831289656016"><ele>174.0</ele><time>2026-04-11T02:56:51Z</time></trkpt><trkpt lat="43.21741430410364" lon="11.519938354077048"><ele>175.0</ele><time>2026-04-11T02:56:54Z</time></trkpt><trkpt lat="43.21740842852887" lon="11.520053048538657"><ele>176.0</ele><time>2026-04-11T02:56:58Z</time></trkpt><trkpt lat="43.21740321184521" lon="11.52016065137326"><ele>177.0</ele><time>2026-04-11T02:57:01Z</time></trkpt><trkpt lat="43.21742428963462" lon="11.5202625629456"><ele>178.0</ele><time>2026-04-11T02:57:04Z</time></trkpt><trkpt lat="43.21742142219294" lon="11.520370203063578"><ele>179.0</ele><time>2026-04-11T02:57:07Z</time></trkpt><trkpt lat="43.217413587680504" lon="11.52045940407574"><ele>180.0</ele><time>2026-04-11T02:57:10Z</time></trkpt><trkpt lat="43.217410923351686" lon="11.52055592708276"><ele>180.83333333333334</ele><time>2026-04-11T02:57:13Z</time></trkpt><trkpt lat="43.21741145210365" lon="11.520648077497988"><ele>181.66666666666666</ele><time>2026-04-11T02:57:16Z</time></trkpt><trkpt lat="43.21741777391974" lon="11.52075069049935"><ele>182.5</ele><time>2026-04-11T02:57:19Z</time></trkpt><trkpt lat="43.21743563145429" lon="11.520849555711695"><ele>183.33333333333331</ele><time>2026-04-11T02:57:23Z</time></trkpt><trkpt lat="43.21747820139064" lon="11.520956401396353"><ele>184.16666666666666</ele><time>2026-04-11T02:57:27Z</time></trkpt><trkpt lat="43.217520400970955" lon="11.521047502953824"><ele>185.0</ele><time>2026-04-11T02:57:29Z</time></trkpt><trkpt lat="43.21756199140218" lon="11.521132168461431"><ele>185.0</ele><time>2026-04-11T02:57:31Z</time></trkpt><trkpt lat="43.21762140489069" lon="11.521180798833555"><ele>185.0</ele><time>2026-04-11T02:57:34Z</time></trkpt><trkpt lat="43.217704843603066" lon="11.521280328242623"><ele>185.0</ele><time>2026-04-11T02:57:37Z</time></trkpt><trkpt lat="43.21784870926893" lon="11.521442016983052"><ele>185.0</ele><time>2026-04-11T02:57:38Z</time></trkpt><trkpt lat="43.217944859968725" lon="11.521505374826832"><ele>185.4</ele><time>2026-04-11T02:57:40Z</time></trkpt><trkpt lat="43.21802606698113" lon="11.521590357736988"><ele>185.8</ele><time>2026-04-11T02:57:42Z</time></trkpt><trkpt lat="43.218094088759614" lon="11.52165555011133"><ele>186.2</ele><time>2026-04-11T02:57:44Z</time></trkpt><trkpt lat="43.2181514642156" lon="11.52175709977962"><ele>186.6</ele><time>2026-04-11T02:57:46Z</time></trkpt><trkpt lat="43.21816333589446" lon="11.521894911324848"><ele>187.0</ele><time>2026-04-11T02:57:48Z</time></trkpt><trkpt lat="43.218173871974756" lon="11.522039567837487"><ele>185.6</ele><time>2026-04-11T02:57:50Z</time></trkpt><trkpt lat="43.218176152874165" lon="11.522185595013278"><ele>184.2</ele><time>2026-04-11T02:57:52Z</time></trkpt><trkpt lat="43.2182074555906" lon="11.522333470955708"><ele>182.8</ele><time>2026-04-11T02:57:54Z</time></trkpt><trkpt lat="43.21824583469471" lon="11.522471310109626"><ele>181.4</ele><time>2026-04-11T02:57:56Z</time></trkpt><trkpt lat="43.21828283686541" lon="11.522597391586773"><ele>180.0</ele><time>2026-04-11T02:57:58Z</time></trkpt><trkpt lat="43.21830719481907" lon="11.52267710152215"><ele>180.0</ele><time>2026-04-11T02:57:59Z</time></trkpt><trkpt lat="43.2183540548814" lon="11.52282320035669"><ele>180.0</ele><time>2026-04-11T02:58:01Z</time></trkpt><trkpt lat="43.218392898871684" lon="11.522944294018762"><ele>180.0</ele><time>2026-04-11T02:58:03Z</time></trkpt><trkpt lat="43.21844277991448" lon="11.523088079938399"><ele>180.0</ele><time>2026-04-11T02:58:05Z</time></trkpt><trkpt lat="43.21850371931312" lon="11.523235656383738"><ele>178.4</ele><time>2026-04-11T02:58:07Z</time></trkpt><trkpt lat="43.21853947994857" lon="11.523307834923983"><ele>176.8</ele><time>2026-04-11T02:58:08Z</time></trkpt><trkpt lat="43.21861153557527" lon="11.523442051413776"><ele>175.2</ele><time>2026-04-11T02:58:10Z</time></trkpt><trkpt lat="43.218686596460756" lon="11.523573526422823"><ele>173.6</ele><time>2026-04-11T02:58:12Z</time></trkpt><trkpt lat="43.218758773573214" lon="11.523695723344876"><ele>172.0</ele><time>2026-04-11T02:58:14Z</time></trkpt><trkpt lat="43.21882936831519" lon="11.523815241242913"><ele>172.0</ele><time>2026-04-11T02:58:16Z</time></trkpt><trkpt lat="43.21890246008017" lon="11.523942648703429"><ele>172.0</ele><time>2026-04-11T02:58:18Z</time></trkpt><trkpt lat="43.21897768751856" lon="11.524073001825654"><ele>172.0</ele><time>2026-04-11T02:58:20Z</time></trkpt><trkpt lat="43.21905170703744" lon="11.52420126188106"><ele>172.0</ele><time>2026-04-11T02:58:22Z</time></trkpt><trkpt lat="43.21912665917381" lon="11.524330911675042"><ele>172.0</ele><time>2026-04-11T02:58:24Z</time></trkpt><trkpt lat="43.21919956131997" lon="11.524455107004068"><ele>172.0</ele><time>2026-04-11T02:58:26Z</time></trkpt><trkpt lat="43.21927815278028" lon="11.524583781805608"><ele>172.0</ele><time>2026-04-11T02:58:28Z</time></trkpt><trkpt lat="43.21934740727996" lon="11.52469936571199"><ele>172.0</ele><time>2026-04-11T02:58:30Z</time></trkpt><trkpt lat="43.21941259355373" lon="11.524810882406463"><ele>172.16666666666669</ele><time>2026-04-11T02:58:32Z</time></trkpt><trkpt lat="43.21946903040976" lon="11.524880949596433"><ele>172.33333333333334</ele><time>2026-04-11T02:58:34Z</time></trkpt><trkpt lat="43.2195264135534" lon="11.52493402000332"><ele>172.5</ele><time>2026-04-11T02:58:36Z</time></trkpt><trkpt lat="43.21960106962788" lon="11.524986061181274"><ele>172.66666666666666</ele><time>2026-04-11T02:58:39Z</time></trkpt><trkpt lat="43.219669382435164" lon="11.52492236597172"><ele>172.83333333333331</ele><time>2026-04-11T02:58:41Z</time></trkpt><trkpt lat="43.21974923727217" lon="11.524952918240652"><ele>173.0</ele><time>2026-04-11T02:58:44Z</time></trkpt><trkpt lat="43.21984317438858" lon="11.524955633991185"><ele>173.0</ele><time>2026-04-11T02:58:47Z</time></trkpt><trkpt lat="43.21990767892994" lon="11.524954585809533"><ele>173.0</ele><time>2026-04-11T02:58:49Z</time></trkpt><trkpt lat="43.21997814492333" lon="11.524936033438014"><ele>173.0</ele><time>2026-04-11T02:58:51Z</time></trkpt><trkpt lat="43.22005068016391" lon="11.52490886118596"><ele>173.0</ele><time>2026-04-11T02:58:53Z</time></trkpt><trkpt lat="43.220127890335384" lon="11.524872214831834"><ele>173.0</ele><time>2026-04-11T02:58:56Z</time></trkpt><trkpt lat="43.220203681826334" lon="11.52484461132725"><ele>173.0</ele><time>2026-04-11T02:58:58Z</time></trkpt><trkpt lat="43.220341731535186" lon="11.524821406629684"><ele>173.0</ele><time>2026-04-11T02:59:01Z</time></trkpt><trkpt lat="43.2204302247535" lon="11.524832202951668"><ele>173.0</ele><time>2026-04-11T02:59:03Z</time></trkpt><trkpt lat="43.22050191178984" lon="11.52486160889587"><ele>173.0</ele><time>2026-04-11T02:59:04Z</time></trkpt><trkpt lat="43.22060024152756" lon="11.524938691047506"><ele>173.0</ele><time>2026-04-11T02:59:06Z</time></trkpt><trkpt lat="43.22069616701159" lon="11.525011614206429"><ele>173.0</ele><time>2026-04-11T02:59:08Z</time></trkpt><trkpt lat="43.220793281041075" lon="11.525087814066136"><ele>174.0</ele><time>2026-04-11T02:59:10Z</time></trkpt><trkpt lat="43.22089502139807" lon="11.525178926039256"><ele>175.0</ele><time>2026-04-11T02:59:12Z</time></trkpt><trkpt lat="43.22101321176984" lon="11.52523525216911"><ele>176.0</ele><time>2026-04-11T02:59:14Z</time></trkpt><trkpt lat="43.22107468221393" lon="11.52525610181131"><ele>177.0</ele><time>2026-04-11T02:59:15Z</time></trkpt><trkpt lat="43.22118781781647" lon="11.525288430670352"><ele>178.0</ele><time>2026-04-11T02:59:17Z</time></trkpt><trkpt lat="43.221297241430996" lon="11.525309346197352"><ele>178.0</ele><time>2026-04-11T02:59:19Z</time></trkpt><trkpt lat="43.22140977050097" lon="11.525330855319929"><ele>178.0</ele><time>2026-04-11T02:59:21Z</time></trkpt><trkpt lat="43.221526907949816" lon="11.52535324530793"><ele>178.0</ele><time>2026-04-11T02:59:23Z</time></trkpt><trkpt lat="43.221634541960526" lon="11.525372215092437"><ele>178.0</ele><time>2026-04-11T02:59:25Z</time></trkpt><trkpt lat="43.22174648022822" lon="11.525388369458968"><ele>176.60000000000002</ele><time>2026-04-11T02:59:27Z</time></trkpt><trkpt lat="43.22185290917108" lon="11.525402454943427"><ele>175.20000000000002</ele><time>2026-04-11T02:59:29Z</time></trkpt><trkpt lat="43.22193861360784" lon="11.52541438436625"><ele>173.8</ele><time>2026-04-11T02:59:31Z</time></trkpt><trkpt lat="43.22203709277619" lon="11.525430817630607"><ele>172.4</ele><time>2026-04-11T02:59:33Z</time></trkpt><trkpt lat="43.222139191426095" lon="11.52540832425175"><ele>171.0</ele><time>2026-04-11T02:59:35Z</time></trkpt><trkpt lat="43.222238290888534" lon="11.525432231442661"><ele>170.60000000000002</ele><time>2026-04-11T02:59:37Z</time></trkpt><trkpt lat="43.22234224226918" lon="11.525450816426765"><ele>170.2</ele><time>2026-04-11T02:59:39Z</time></trkpt><trkpt lat="43.22243086818466" lon="11.525433996254911"><ele>169.8</ele><time>2026-04-11T02:59:41Z</time></trkpt><trkpt lat="43.222482284865904" lon="11.525490097921084"><ele>169.39999999999998</ele><time>2026-04-11T02:59:43Z</time></trkpt><trkpt lat="43.22255612335473" lon="11.52548982103485"><ele>169.0</ele><time>2026-04-11T02:59:45Z</time></trkpt><trkpt lat="43.22278116538398" lon="11.525573663016557"><ele>169.0</ele><time>2026-04-11T02:59:46Z</time></trkpt><trkpt lat="43.22286768681357" lon="11.525657603364262"><ele>169.0</ele><time>2026-04-11T02:59:48Z</time></trkpt><trkpt lat="43.22295105831869" lon="11.525766334080979"><ele>169.0</ele><time>2026-04-11T02:59:50Z</time></trkpt><trkpt lat="43.22304177508782" lon="11.525856485974487"><ele>169.0</ele><time>2026-04-11T02:59:52Z</time></trkpt><trkpt lat="43.22312322867025" lon="11.525918984486824"><ele>169.0</ele><time>2026-04-11T02:59:54Z</time></trkpt><trkpt lat="43.223208444057654" lon="11.52596580843855"><ele>170.39999999999998</ele><time>2026-04-11T02:59:56Z</time></trkpt><trkpt lat="43.22332050642087" lon="11.525987615448525"><ele>171.8</ele><time>2026-04-11T02:59:58Z</time></trkpt><trkpt lat="43.22343155089762" lon="11.525985792172769"><ele>173.2</ele><time>2026-04-11T03:00:00Z</time></trkpt><trkpt lat="43.22354217651564" lon="11.525983640234395"><ele>174.60000000000002</ele><time>2026-04-11T03:00:02Z</time></trkpt><trkpt lat="43.223650001899" lon="11.525985522060642"><ele>176.0</ele><time>2026-04-11T03:00:04Z</time></trkpt><trkpt lat="43.22374849360883" lon="11.525987369033231"><ele>176.0</ele><time>2026-04-11T03:00:06Z</time></trkpt><trkpt lat="43.22384859254425" lon="11.525984839362325"><ele>176.0</ele><time>2026-04-11T03:00:08Z</time></trkpt><trkpt lat="43.22395421266057" lon="11.525969560438488"><ele>176.0</ele><time>2026-04-11T03:00:10Z</time></trkpt><trkpt lat="43.22404961341322" lon="11.525951273164704"><ele>176.0</ele><time>2026-04-11T03:00:12Z</time></trkpt><trkpt lat="43.2241731800835" lon="11.525931270898797"><ele>176.0</ele><time>2026-04-11T03:00:14Z</time></trkpt><trkpt lat="43.224292504142596" lon="11.525923518719525"><ele>176.16666666666666</ele><time>2026-04-11T03:00:16Z</time></trkpt><trkpt lat="43.22435580900855" lon="11.525924911468097"><ele>176.33333333333331</ele><time>2026-04-11T03:00:17Z</time></trkpt><trkpt lat="43.22442730559732" lon="11.52591525390415"><ele>176.5</ele><time>2026-04-11T03:00:18Z</time></trkpt><trkpt lat="43.224489294239035" lon="11.525951539557592"><ele>176.66666666666666</ele><time>2026-04-11T03:00:19Z</time></trkpt><trkpt lat="43.22460676138566" lon="11.525987907952922"><ele>176.83333333333334</ele><time>2026-04-11T03:00:21Z</time></trkpt><trkpt lat="43.224721061752504" lon="11.526022180544208"><ele>177.0</ele><time>2026-04-11T03:00:23Z</time></trkpt><trkpt lat="43.22483050567376" lon="11.526054302460144"><ele>177.6</ele><time>2026-04-11T03:00:25Z</time></trkpt><trkpt lat="43.22492991923962" lon="11.526082124976812"><ele>178.2</ele><time>2026-04-11T03:00:27Z</time></trkpt><trkpt lat="43.22503374087071" lon="11.526111181145318"><ele>178.8</ele><time>2026-04-11T03:00:29Z</time></trkpt><trkpt lat="43.2251372104128" lon="11.526136401048188"><ele>179.4</ele><time>2026-04-11T03:00:31Z</time></trkpt><trkpt lat="43.225244805423124" lon="11.526162558533446"><ele>180.0</ele><time>2026-04-11T03:00:33Z</time></trkpt><trkpt lat="43.22535737117476" lon="11.526170736452311"><ele>180.0</ele><time>2026-04-11T03:00:35Z</time></trkpt><trkpt lat="43.2254637515654" lon="11.52622546849365"><ele>180.0</ele><time>2026-04-11T03:00:37Z</time></trkpt><trkpt lat="43.225561353171145" lon="11.52626115371303"><ele>180.0</ele><time>2026-04-11T03:00:39Z</time></trkpt><trkpt lat="43.22565927861712" lon="11.526257281038399"><ele>180.0</ele><time>2026-04-11T03:00:41Z</time></trkpt><trkpt lat="43.22574083755848" lon="11.526299505227492"><ele>180.0</ele><time>2026-04-11T03:00:43Z</time></trkpt><trkpt lat="43.22580772219118" lon="11.526319964833922"><ele>179.16666666666666</ele><time>2026-04-11T03:00:45Z</time></trkpt><trkpt lat="43.22587959178854" lon="11.526325167481351"><ele>178.33333333333334</ele><time>2026-04-11T03:00:49Z</time></trkpt><trkpt lat="43.22594901730088" lon="11.526334261229131"><ele>177.5</ele><time>2026-04-11T03:00:51Z</time></trkpt><trkpt lat="43.22603814842124" lon="11.526351676945445"><ele>176.66666666666669</ele><time>2026-04-11T03:00:53Z</time></trkpt><trkpt lat="43.226113773170596" lon="11.526343814553677"><ele>175.83333333333334</ele><time>2026-04-11T03:00:55Z</time></trkpt><trkpt lat="43.226199350105276" lon="11.52634495849598"><ele>175.0</ele><time>2026-04-11T03:00:57Z</time></trkpt><trkpt lat="43.22628778229331" lon="11.526355606280976"><ele>175.0</ele><time>2026-04-11T03:00:59Z</time></trkpt><trkpt lat="43.226373166054664" lon="11.526339159581504"><ele>175.0</ele><time>2026-04-11T03:01:01Z</time></trkpt><trkpt lat="43.22646086501769" lon="11.526327546501525"><ele>175.0</ele><time>2026-04-11T03:01:03Z</time></trkpt><trkpt lat="43.22653128398526" lon="11.526308160772"><ele>175.0</ele><time>2026-04-11T03:01:05Z</time></trkpt><trkpt lat="43.22660111950673" lon="11.526301586731202"><ele>175.0</ele><time>2026-04-11T03:01:08Z</time></trkpt><trkpt lat="43.22667594672284" lon="11.526293058164626"><ele>175.0</ele><time>2026-04-11T03:01:10Z</time></trkpt><trkpt lat="43.22679139968422" lon="11.526270876242743"><ele>175.33333333333334</ele><time>2026-04-11T03:01:12Z</time></trkpt><trkpt lat="43.22689599169226" lon="11.526287622581242"><ele>175.66666666666669</ele><time>2026-04-11T03:01:13Z</time></trkpt><trkpt lat="43.22697406887974" lon="11.526383901855237"><ele>176.0</ele><time>2026-04-11T03:01:14Z</time></trkpt><trkpt lat="43.2270439828754" lon="11.526386502753946"><ele>176.33333333333334</ele><time>2026-04-11T03:01:15Z</time></trkpt><trkpt lat="43.22712012724642" lon="11.526402670056259"><ele>176.66666666666666</ele><time>2026-04-11T03:01:16Z</time></trkpt><trkpt lat="43.227195033387645" lon="11.526408643735708"><ele>177.0</ele><time>2026-04-11T03:01:17Z</time></trkpt><trkpt lat="43.227260857274416" lon="11.526476951044712"><ele>176.2</ele><time>2026-04-11T03:01:18Z</time></trkpt><trkpt lat="43.227325150020114" lon="11.526542901446872"><ele>175.39999999999998</ele><time>2026-04-11T03:01:19Z</time></trkpt><trkpt lat="43.22738990081226" lon="11.526605809750198"><ele>174.60000000000002</ele><time>2026-04-11T03:01:20Z</time></trkpt><trkpt lat="43.22751739368448" lon="11.526735737724827"><ele>173.8</ele><time>2026-04-11T03:01:22Z</time></trkpt><trkpt lat="43.2275754934869" lon="11.526791484604868"><ele>173.0</ele><time>2026-04-11T03:01:23Z</time></trkpt><trkpt lat="43.227635472723875" lon="11.5268516250752"><ele>173.0</ele><time>2026-04-11T03:01:24Z</time></trkpt><trkpt lat="43.2276909744454" lon="11.526905295549414"><ele>173.0</ele><time>2026-04-11T03:01:25Z</time></trkpt><trkpt lat="43.22774451058881" lon="11.526957318795546"><ele>173.0</ele><time>2026-04-11T03:01:26Z</time></trkpt><trkpt lat="43.22780904288804" lon="11.527002660545767"><ele>173.0</ele><time>2026-04-11T03:01:27Z</time></trkpt><trkpt lat="43.22786883871826" lon="11.527053911562383"><ele>173.0</ele><time>2026-04-11T03:01:28Z</time></trkpt><trkpt lat="43.22792134771024" lon="11.527119606490896"><ele>173.0</ele><time>2026-04-11T03:01:29Z</time></trkpt><trkpt lat="43.22798915358211" lon="11.527173513786842"><ele>173.0</ele><time>2026-04-11T03:01:30Z</time></trkpt><trkpt lat="43.22806423794994" lon="11.527222413706294"><ele>172.83333333333331</ele><time>2026-04-11T03:01:31Z</time></trkpt><trkpt lat="43.228126430456335" lon="11.52725674781212"><ele>172.66666666666666</ele><time>2026-04-11T03:01:32Z</time></trkpt><trkpt lat="43.22821198630136" lon="11.527297497914338"><ele>172.5</ele><time>2026-04-11T03:01:33Z</time></trkpt><trkpt lat="43.228288358953115" lon="11.527332198349429"><ele>172.33333333333334</ele><time>2026-04-11T03:01:34Z</time></trkpt><trkpt lat="43.228364491691465" lon="11.527365407755568"><ele>172.16666666666669</ele><time>2026-04-11T03:01:35Z</time></trkpt><trkpt lat="43.22843774267917" lon="11.527397758146918"><ele>172.0</ele><time>2026-04-11T03:01:36Z</time></trkpt><trkpt lat="43.228512808761735" lon="11.527431832838044"><ele>171.42857142857144</ele><time>2026-04-11T03:01:37Z</time></trkpt><trkpt lat="43.228578387749316" lon="11.527462273952096"><ele>170.85714285714286</ele><time>2026-04-11T03:01:38Z</time></trkpt><trkpt lat="43.22864447568467" lon="11.527497225578097"><ele>170.28571428571428</ele><time>2026-04-11T03:01:39Z</time></trkpt><trkpt lat="43.2287057985506" lon="11.527540196391548"><ele>169.71428571428572</ele><time>2026-04-11T03:01:40Z</time></trkpt><trkpt lat="43.228758774904954" lon="11.527591629069745"><ele>169.14285714285714</ele><time>2026-04-11T03:01:41Z</time></trkpt><trkpt lat="43.22881222965752" lon="11.527651563642578"><ele>168.57142857142858</ele><time>2026-04-11T03:01:42Z</time></trkpt><trkpt lat="43.22886699603097" lon="11.527715831128917"><ele>168.0</ele><time>2026-04-11T03:01:43Z</time></trkpt><trkpt lat="43.228924154738785" lon="11.52778272065921"><ele>169.2</ele><time>2026-04-11T03:01:44Z</time></trkpt><trkpt lat="43.229010581242036" lon="11.52788693076282"><ele>170.4</ele><time>2026-04-11T03:01:46Z</time></trkpt><trkpt lat="43.22908436807565" lon="11.527976870864029"><ele>171.6</ele><time>2026-04-11T03:01:48Z</time></trkpt><trkpt lat="43.229157253881716" lon="11.528062614718323"><ele>172.79999999999998</ele><time>2026-04-11T03:01:50Z</time></trkpt><trkpt lat="43.229213181378455" lon="11.528128313024204"><ele>174.0</ele><time>2026-04-11T03:01:52Z</time></trkpt><trkpt lat="43.22927950224614" lon="11.528206114729239"><ele>174.0</ele><time>2026-04-11T03:01:54Z</time></trkpt><trkpt lat="43.22932974075682" lon="11.528265050131559"><ele>174.0</ele><time>2026-04-11T03:01:56Z</time></trkpt><trkpt lat="43.22939906949316" lon="11.528348827002516"><ele>174.0</ele><time>2026-04-11T03:01:59Z</time></trkpt><trkpt lat="43.22945790267117" lon="11.528420959733413"><ele>174.0</ele><time>2026-04-11T03:02:01Z</time></trkpt><trkpt lat="43.22951476309107" lon="11.52849073436783"><ele>174.0</ele><time>2026-04-11T03:02:03Z</time></trkpt><trkpt lat="43.229573616141536" lon="11.528561035232613"><ele>174.0</ele><time>2026-04-11T03:02:05Z</time></trkpt><trkpt lat="43.229625846048684" lon="11.528617706621603"><ele>174.0</ele><time>2026-04-11T03:02:08Z</time></trkpt><trkpt lat="43.22969278966267" lon="11.528681287296529"><ele>174.0</ele><time>2026-04-11T03:02:11Z</time></trkpt><trkpt lat="43.22978551969145" lon="11.528659479962345"><ele>174.0</ele><time>2026-04-11T03:02:14Z</time></trkpt><trkpt lat="43.22985162957953" lon="11.528715142174804"><ele>174.0</ele><time>2026-04-11T03:02:17Z</time></trkpt><trkpt lat="43.22992834658744" lon="11.528800334099527"><ele>174.0</ele><time>2026-04-11T03:02:20Z</time></trkpt><trkpt lat="43.22999951660599" lon="11.528812179541463"><ele>174.0</ele><time>2026-04-11T03:02:23Z</time></trkpt><trkpt lat="43.230236839349864" lon="11.529195425493898"><ele>174.28571428571428</ele><time>2026-04-11T03:02:24Z</time></trkpt><trkpt lat="43.23028973212808" lon="11.529258662251292"><ele>174.57142857142858</ele><time>2026-04-11T03:02:25Z</time></trkpt><trkpt lat="43.2303173530816" lon="11.529368920451804"><ele>174.85714285714286</ele><time>2026-04-11T03:02:26Z</time></trkpt><trkpt lat="43.23037661918503" lon="11.529449928924473"><ele>175.14285714285714</ele><time>2026-04-11T03:02:27Z</time></trkpt><trkpt lat="43.23042156350901" lon="11.52951136143736"><ele>175.42857142857142</ele><time>2026-04-11T03:02:28Z</time></trkpt><trkpt lat="43.23047049425772" lon="11.529578242889286"><ele>175.71428571428572</ele><time>2026-04-11T03:02:29Z</time></trkpt><trkpt lat="43.230518511024584" lon="11.529643654411602"><ele>176.0</ele><time>2026-04-11T03:02:30Z</time></trkpt><trkpt lat="43.230567235957196" lon="11.529709878433495"><ele>175.42857142857144</ele><time>2026-04-11T03:02:31Z</time></trkpt><trkpt lat="43.23062118766849" lon="11.529783205515022"><ele>174.85714285714286</ele><time>2026-04-11T03:02:32Z</time></trkpt><trkpt lat="43.23067254343221" lon="11.529853005526157"><ele>174.28571428571428</ele><time>2026-04-11T03:02:33Z</time></trkpt><trkpt lat="43.23072306481339" lon="11.529921671021173"><ele>173.71428571428572</ele><time>2026-04-11T03:02:34Z</time></trkpt><trkpt lat="43.23077824282466" lon="11.529996665448246"><ele>173.14285714285714</ele><time>2026-04-11T03:02:35Z</time></trkpt><trkpt lat="43.230830442525885" lon="11.530069262193955"><ele>172.57142857142858</ele><time>2026-04-11T03:02:36Z</time></trkpt><trkpt lat="43.23088442663224" lon="11.530144885443953"><ele>172.0</ele><time>2026-04-11T03:02:37Z</time></trkpt><trkpt lat="43.230944395750164" lon="11.530228893174906"><ele>172.0</ele><time>2026-04-11T03:02:38Z</time></trkpt><trkpt lat="43.23099977738931" lon="11.53030575227891"><ele>172.0</ele><time>2026-04-11T03:02:39Z</time></trkpt><trkpt lat="43.231060608068006" lon="11.530388695932407"><ele>172.0</ele><time>2026-04-11T03:02:40Z</time></trkpt><trkpt lat="43.231117046356445" lon="11.53046565047363"><ele>172.0</ele><time>2026-04-11T03:02:41Z</time></trkpt><trkpt lat="43.23120548511949" lon="11.530609664732754"><ele>172.0</ele><time>2026-04-11T03:02:43Z</time></trkpt><trkpt lat="43.231259442246" lon="11.530708457700241"><ele>171.39999999999998</ele><time>2026-04-11T03:02:44Z</time></trkpt><trkpt lat="43.23130943005391" lon="11.5308070613581"><ele>170.79999999999998</ele><time>2026-04-11T03:02:45Z</time></trkpt><trkpt lat="43.23134610081128" lon="11.530909608597149"><ele>170.2</ele><time>2026-04-11T03:02:46Z</time></trkpt><trkpt lat="43.231376125805554" lon="11.531009541847556"><ele>169.6</ele><time>2026-04-11T03:02:47Z</time></trkpt><trkpt lat="43.231431994910196" lon="11.53117485277776"><ele>169.0</ele><time>2026-04-11T03:02:49Z</time></trkpt><trkpt lat="43.231456522094135" lon="11.531294400415375"><ele>169.16666666666669</ele><time>2026-04-11T03:02:50Z</time></trkpt><trkpt lat="43.23148067251281" lon="11.531418833109301"><ele>169.33333333333334</ele><time>2026-04-11T03:02:51Z</time></trkpt><trkpt lat="43.231492295827834" lon="11.531535994428321"><ele>169.5</ele><time>2026-04-11T03:02:52Z</time></trkpt><trkpt lat="43.2315127433004" lon="11.531638244265963"><ele>169.66666666666666</ele><time>2026-04-11T03:02:53Z</time></trkpt><trkpt lat="43.23153599736854" lon="11.531754397770404"><ele>169.83333333333331</ele><time>2026-04-11T03:02:54Z</time></trkpt><trkpt lat="43.231559617087505" lon="11.53187226942698"><ele>170.0</ele><time>2026-04-11T03:02:55Z</time></trkpt><trkpt lat="43.231583934482586" lon="11.531993195855057"><ele>170.0</ele><time>2026-04-11T03:02:56Z</time></trkpt><trkpt lat="43.2316089191848" lon="11.532117440717522"><ele>170.0</ele><time>2026-04-11T03:02:57Z</time></trkpt><trkpt lat="43.231630634091196" lon="11.532225425201577"><ele>170.0</ele><time>2026-04-11T03:02:58Z</time></trkpt><trkpt lat="43.23165184725571" lon="11.532330915012484"><ele>170.0</ele><time>2026-04-11T03:02:59Z</time></trkpt><trkpt lat="43.23167241486833" lon="11.532433194468783"><ele>170.0</ele><time>2026-04-11T03:03:00Z</time></trkpt><trkpt lat="43.231693576401135" lon="11.532538427384132"><ele>170.0</ele><time>2026-04-11T03:03:01Z</time></trkpt><trkpt lat="43.23171538133827" lon="11.532646859806565"><ele>170.0</ele><time>2026-04-11T03:03:02Z</time></trkpt><trkpt lat="43.23173621668473" lon="11.5327504705734"><ele>170.0</ele><time>2026-04-11T03:03:03Z</time></trkpt><trkpt lat="43.23175766091717" lon="11.532857109305457"><ele>170.0</ele><time>2026-04-11T03:03:04Z</time></trkpt><trkpt lat="43.23177856103268" lon="11.532960766552593"><ele>170.0</ele><time>2026-04-11T03:03:05Z</time></trkpt><trkpt lat="43.23179920533278" lon="11.533061468795955"><ele>170.0</ele><time>2026-04-11T03:03:06Z</time></trkpt><trkpt lat="43.23181851334814" lon="11.533155652697022"><ele>170.0</ele><time>2026-04-11T03:03:07Z</time></trkpt><trkpt lat="43.23183940268852" lon="11.533257550261732"><ele>170.0</ele><time>2026-04-11T03:03:08Z</time></trkpt><trkpt lat="43.23186103179011" lon="11.533363056385758"><ele>170.0</ele><time>2026-04-11T03:03:09Z</time></trkpt><trkpt lat="43.23188217218172" lon="11.533466178393265"><ele>170.0</ele><time>2026-04-11T03:03:10Z</time></trkpt><trkpt lat="43.23190234770096" lon="11.533565405502326"><ele>170.0</ele><time>2026-04-11T03:03:11Z</time></trkpt><trkpt lat="43.23192304511876" lon="11.533670016560544"><ele>170.0</ele><time>2026-04-11T03:03:12Z</time></trkpt><trkpt lat="43.23194709380364" lon="11.533768975978228"><ele>170.0</ele><time>2026-04-11T03:03:13Z</time></trkpt><trkpt lat="43.23199331468282" lon="11.533865570965666"><ele>169.66666666666666</ele><time>2026-04-11T03:03:14Z</time></trkpt><trkpt lat="43.23202879215551" lon="11.53396491881238"><ele>169.33333333333331</ele><time>2026-04-11T03:03:15Z</time></trkpt><trkpt lat="43.23206037617417" lon="11.534066249265393"><ele>169.0</ele><time>2026-04-11T03:03:16Z</time></trkpt><trkpt lat="43.23211258961974" lon="11.534152936620663"><ele>168.66666666666666</ele><time>2026-04-11T03:03:17Z</time></trkpt><trkpt lat="43.23216749759201" lon="11.534229930649655"><ele>168.33333333333334</ele><time>2026-04-11T03:03:18Z</time></trkpt><trkpt lat="43.23222771826976" lon="11.534306877423138"><ele>168.0</ele><time>2026-04-11T03:03:19Z</time></trkpt><trkpt lat="43.23229497471095" lon="11.534372340403838"><ele>168.33333333333334</ele><time>2026-04-11T03:03:20Z</time></trkpt><trkpt lat="43.23236249482422" lon="11.53443303424888"><ele>168.66666666666666</ele><time>2026-04-11T03:03:21Z</time></trkpt><trkpt lat="43.23243429257736" lon="11.534490926710669"><ele>169.0</ele><time>2026-04-11T03:03:22Z</time></trkpt><trkpt lat="43.23250708730965" lon="11.534548456488912"><ele>169.33333333333331</ele><time>2026-04-11T03:03:23Z</time></trkpt><trkpt lat="43.23257654882946" lon="11.5346016249634"><ele>169.66666666666666</ele><time>2026-04-11T03:03:24Z</time></trkpt><trkpt lat="43.23264932489942" lon="11.534657330482661"><ele>170.0</ele><time>2026-04-11T03:03:25Z</time></trkpt><trkpt lat="43.23271948581693" lon="11.534711034411712"><ele>170.0</ele><time>2026-04-11T03:03:26Z</time></trkpt><trkpt lat="43.232791837589716" lon="11.534766415221709"><ele>170.0</ele><time>2026-04-11T03:03:27Z</time></trkpt><trkpt lat="43.23286342692383" lon="11.534821212406285"><ele>170.0</ele><time>2026-04-11T03:03:28Z</time></trkpt><trkpt lat="43.23293748284116" lon="11.53487789763583"><ele>170.0</ele><time>2026-04-11T03:03:29Z</time></trkpt><trkpt lat="43.233009636293026" lon="11.534933126628117"><ele>170.0</ele><time>2026-04-11T03:03:30Z</time></trkpt><trkpt lat="43.23308190311804" lon="11.534988442418951"><ele>170.0</ele><time>2026-04-11T03:03:31Z</time></trkpt><trkpt lat="43.233151186909694" lon="11.535041925781726"><ele>169.83333333333331</ele><time>2026-04-11T03:03:32Z</time></trkpt><trkpt lat="43.23322434484907" lon="11.535098438793709"><ele>169.66666666666666</ele><time>2026-04-11T03:03:33Z</time></trkpt><trkpt lat="43.233296815140754" lon="11.535154420397856"><ele>169.5</ele><time>2026-04-11T03:03:34Z</time></trkpt><trkpt lat="43.23336735860231" lon="11.535214545806188"><ele>169.33333333333334</ele><time>2026-04-11T03:03:35Z</time></trkpt><trkpt lat="43.233427163144206" lon="11.535270477307485"><ele>169.16666666666669</ele><time>2026-04-11T03:03:36Z</time></trkpt><trkpt lat="43.23349234786334" lon="11.535333907867768"><ele>169.0</ele><time>2026-04-11T03:03:37Z</time></trkpt><trkpt lat="43.23355017280023" lon="11.535404872835906"><ele>169.0</ele><time>2026-04-11T03:03:38Z</time></trkpt><trkpt lat="43.23360574294963" lon="11.535477932123154"><ele>169.0</ele><time>2026-04-11T03:03:39Z</time></trkpt><trkpt lat="43.23365301277134" lon="11.535558760614585"><ele>169.0</ele><time>2026-04-11T03:03:40Z</time></trkpt><trkpt lat="43.23370555749218" lon="11.535651429131276"><ele>169.0</ele><time>2026-04-11T03:03:41Z</time></trkpt><trkpt lat="43.233753899015255" lon="11.535739983009663"><ele>169.0</ele><time>2026-04-11T03:03:42Z</time></trkpt><trkpt lat="43.233800358322455" lon="11.535825781542488"><ele>169.0</ele><time>2026-04-11T03:03:43Z</time></trkpt><trkpt lat="43.2338496765636" lon="11.535917162991593"><ele>169.0</ele><time>2026-04-11T03:03:44Z</time></trkpt><trkpt lat="43.23389674877755" lon="11.536004382792658"><ele>169.0</ele><time>2026-04-11T03:03:45Z</time></trkpt><trkpt lat="43.233945729279874" lon="11.53609513851554"><ele>169.0</ele><time>2026-04-11T03:03:46Z</time></trkpt><trkpt lat="43.23399357332391" lon="11.536183788444102"><ele>169.0</ele><time>2026-04-11T03:03:47Z</time></trkpt><trkpt lat="43.23403961584903" lon="11.536269100403185"><ele>169.0</ele><time>2026-04-11T03:03:48Z</time></trkpt><trkpt lat="43.23408859971307" lon="11.536359976624563"><ele>169.0</ele><time>2026-04-11T03:03:49Z</time></trkpt><trkpt lat="43.23413372505484" lon="11.536445231015875"><ele>169.5</ele><time>2026-04-11T03:03:50Z</time></trkpt><trkpt lat="43.234179321104676" lon="11.53653137466955"><ele>170.0</ele><time>2026-04-11T03:03:51Z</time></trkpt><trkpt lat="43.23422624183247" lon="11.536620055247118"><ele>170.5</ele><time>2026-04-11T03:03:52Z</time></trkpt><trkpt lat="43.234270401591495" lon="11.536702685648091"><ele>171.0</ele><time>2026-04-11T03:03:53Z</time></trkpt><trkpt lat="43.234314878109764" lon="11.536785908857995"><ele>171.5</ele><time>2026-04-11T03:03:54Z</time></trkpt><trkpt lat="43.23436080433706" lon="11.536871844683995"><ele>172.0</ele><time>2026-04-11T03:03:55Z</time></trkpt><trkpt lat="43.23440669497645" lon="11.536957713985426"><ele>172.0</ele><time>2026-04-11T03:03:56Z</time></trkpt><trkpt lat="43.23445308470984" lon="11.537044517069491"><ele>172.0</ele><time>2026-04-11T03:03:57Z</time></trkpt><trkpt lat="43.23449873780439" lon="11.537129941912221"><ele>172.0</ele><time>2026-04-11T03:03:58Z</time></trkpt><trkpt lat="43.234545890560334" lon="11.537218172815896"><ele>172.0</ele><time>2026-04-11T03:03:59Z</time></trkpt><trkpt lat="43.23459098878362" lon="11.537302559319285"><ele>172.0</ele><time>2026-04-11T03:04:00Z</time></trkpt><trkpt lat="43.2346364026431" lon="11.537387536469485"><ele>172.0</ele><time>2026-04-11T03:04:01Z</time></trkpt><trkpt lat="43.23468210853393" lon="11.537473060027915"><ele>172.0</ele><time>2026-04-11T03:04:02Z</time></trkpt><trkpt lat="43.23472637045346" lon="11.53755588165964"><ele>172.0</ele><time>2026-04-11T03:04:03Z</time></trkpt><trkpt lat="43.23476783230778" lon="11.537632544196487"><ele>172.0</ele><time>2026-04-11T03:04:04Z</time></trkpt><trkpt lat="43.23480790437698" lon="11.537706427052559"><ele>172.0</ele><time>2026-04-11T03:04:05Z</time></trkpt><trkpt lat="43.234879334927754" lon="11.537838155808545"><ele>172.0</ele><time>2026-04-11T03:04:07Z</time></trkpt><trkpt lat="43.234953362775094" lon="11.537974769406405"><ele>172.5</ele><time>2026-04-11T03:04:09Z</time></trkpt><trkpt lat="43.23502682259866" lon="11.53811033474924"><ele>173.0</ele><time>2026-04-11T03:04:11Z</time></trkpt><trkpt lat="43.23509958833639" lon="11.53824462042434"><ele>173.5</ele><time>2026-04-11T03:04:13Z</time></trkpt><trkpt lat="43.23518112813989" lon="11.538368362427669"><ele>174.0</ele><time>2026-04-11T03:04:15Z</time></trkpt><trkpt lat="43.23525304827531" lon="11.538500519705181"><ele>174.0</ele><time>2026-04-11T03:04:17Z</time></trkpt><trkpt lat="43.235316771268614" lon="11.538645417328777"><ele>174.0</ele><time>2026-04-11T03:04:19Z</time></trkpt><trkpt lat="43.235400563075906" lon="11.538775866422531"><ele>174.0</ele><time>2026-04-11T03:04:21Z</time></trkpt><trkpt lat="43.23546482787774" lon="11.538918646196828"><ele>174.0</ele><time>2026-04-11T03:04:23Z</time></trkpt><trkpt lat="43.235539895129214" lon="11.53905717785754"><ele>173.83333333333334</ele><time>2026-04-11T03:04:25Z</time></trkpt><trkpt lat="43.235577584319145" lon="11.53912683081251"><ele>173.66666666666666</ele><time>2026-04-11T03:04:26Z</time></trkpt><trkpt lat="43.235616799493194" lon="11.539199645671191"><ele>173.5</ele><time>2026-04-11T03:04:27Z</time></trkpt><trkpt lat="43.235665495559495" lon="11.539266732083151"><ele>173.33333333333331</ele><time>2026-04-11T03:04:28Z</time></trkpt><trkpt lat="43.23574194986861" lon="11.539407738750983"><ele>173.16666666666666</ele><time>2026-04-11T03:04:30Z</time></trkpt><trkpt lat="43.2357798444637" lon="11.539480294845157"><ele>173.0</ele><time>2026-04-11T03:04:31Z</time></trkpt><trkpt lat="43.2358446393996" lon="11.539636655971103"><ele>173.33333333333331</ele><time>2026-04-11T03:04:33Z</time></trkpt><trkpt lat="43.23586701931983" lon="11.53972509188551"><ele>173.66666666666666</ele><time>2026-04-11T03:04:34Z</time></trkpt><trkpt lat="43.2358821100899" lon="11.539816728939554"><ele>174.0</ele><time>2026-04-11T03:04:35Z</time></trkpt><trkpt lat="43.23589182984537" lon="11.539991928406733"><ele>174.33333333333334</ele><time>2026-04-11T03:04:37Z</time></trkpt><trkpt lat="43.235888647596596" lon="11.540084723200955"><ele>174.66666666666669</ele><time>2026-04-11T03:04:38Z</time></trkpt><trkpt lat="43.2358783004391" lon="11.540170268887728"><ele>175.0</ele><time>2026-04-11T03:04:39Z</time></trkpt><trkpt lat="43.23587515673812" lon="11.540260186485394"><ele>175.0</ele><time>2026-04-11T03:04:40Z</time></trkpt><trkpt lat="43.235864481415064" lon="11.540424582251104"><ele>175.0</ele><time>2026-04-11T03:04:42Z</time></trkpt><trkpt lat="43.235860635875476" lon="11.540588071521428"><ele>175.0</ele><time>2026-04-11T03:04:44Z</time></trkpt><trkpt lat="43.23585607276798" lon="11.540741853692541"><ele>175.0</ele><time>2026-04-11T03:04:46Z</time></trkpt><trkpt lat="43.23585015505777" lon="11.540896808783764"><ele>175.0</ele><time>2026-04-11T03:04:48Z</time></trkpt><trkpt lat="43.23584434411742" lon="11.541055433662658"><ele>175.0</ele><time>2026-04-11T03:04:50Z</time></trkpt><trkpt lat="43.235837317795486" lon="11.541205585095573"><ele>175.0</ele><time>2026-04-11T03:04:52Z</time></trkpt><trkpt lat="43.23583495644283" lon="11.541356400101785"><ele>175.0</ele><time>2026-04-11T03:04:54Z</time></trkpt><trkpt lat="43.23583051941906" lon="11.541493261783991"><ele>175.0</ele><time>2026-04-11T03:04:56Z</time></trkpt><trkpt lat="43.23581803968989" lon="11.541647692977254"><ele>175.8</ele><time>2026-04-11T03:04:58Z</time></trkpt><trkpt lat="43.235811597276935" lon="11.541788669463081"><ele>176.6</ele><time>2026-04-11T03:05:00Z</time></trkpt><trkpt lat="43.23581216109792" lon="11.541927021659129"><ele>177.39999999999998</ele><time>2026-04-11T03:05:02Z</time></trkpt><trkpt lat="43.23580448485133" lon="11.542065932003107"><ele>178.2</ele><time>2026-04-11T03:05:04Z</time></trkpt><trkpt lat="43.2357986532699" lon="11.54219667581634"><ele>179.0</ele><time>2026-04-11T03:05:06Z</time></trkpt><trkpt lat="43.23579570395291" lon="11.542326870601466"><ele>179.0</ele><time>2026-04-11T03:05:08Z</time></trkpt><trkpt lat="43.23577122944755" lon="11.54246219711764"><ele>179.0</ele><time>2026-04-11T03:05:10Z</time></trkpt><trkpt lat="43.2357828377708" lon="11.542547241654288"><ele>179.0</ele><time>2026-04-11T03:05:11Z</time></trkpt><trkpt lat="43.23576186400118" lon="11.542694103457011"><ele>179.0</ele><time>2026-04-11T03:05:13Z</time></trkpt><trkpt lat="43.235756156664536" lon="11.542835373104799"><ele>179.0</ele><time>2026-04-11T03:05:15Z</time></trkpt><trkpt lat="43.23575059848578" lon="11.542972950388917"><ele>178.79999999999998</ele><time>2026-04-11T03:05:17Z</time></trkpt><trkpt lat="43.235755209628195" lon="11.543124104864953"><ele>178.6</ele><time>2026-04-11T03:05:19Z</time></trkpt><trkpt lat="43.23573843106984" lon="11.543274121534143"><ele>178.4</ele><time>2026-04-11T03:05:21Z</time></trkpt><trkpt lat="43.23573317283948" lon="11.543404274925061"><ele>178.2</ele><time>2026-04-11T03:05:23Z</time></trkpt><trkpt lat="43.23572760698935" lon="11.543542042324747"><ele>178.0</ele><time>2026-04-11T03:05:25Z</time></trkpt><trkpt lat="43.23572237578198" lon="11.543679323097546"><ele>177.8</ele><time>2026-04-11T03:05:27Z</time></trkpt><trkpt lat="43.23571736434141" lon="11.543814544087258"><ele>177.60000000000002</ele><time>2026-04-11T03:05:29Z</time></trkpt><trkpt lat="43.2357118009245" lon="11.54396465871692"><ele>177.39999999999998</ele><time>2026-04-11T03:05:31Z</time></trkpt><trkpt lat="43.235721736342164" lon="11.544109300228323"><ele>177.2</ele><time>2026-04-11T03:05:33Z</time></trkpt><trkpt lat="43.23571296197734" lon="11.544258839660765"><ele>177.0</ele><time>2026-04-11T03:05:35Z</time></trkpt><trkpt lat="43.23570598195083" lon="11.54441133412142"><ele>176.8</ele><time>2026-04-11T03:05:37Z</time></trkpt><trkpt lat="43.23570253992799" lon="11.544556402214624"><ele>176.6</ele><time>2026-04-11T03:05:39Z</time></trkpt><trkpt lat="43.23570033675047" lon="11.544701726920357"><ele>176.4</ele><time>2026-04-11T03:05:41Z</time></trkpt><trkpt lat="43.235701214327904" lon="11.544849573488825"><ele>176.20000000000002</ele><time>2026-04-11T03:05:43Z</time></trkpt><trkpt lat="43.23572203603566" lon="11.545003453283618"><ele>176.0</ele><time>2026-04-11T03:05:45Z</time></trkpt><trkpt lat="43.23574142518893" lon="11.545148692972534"><ele>176.0</ele><time>2026-04-11T03:05:47Z</time></trkpt><trkpt lat="43.235773001074634" lon="11.545283858160364"><ele>176.0</ele><time>2026-04-11T03:05:49Z</time></trkpt><trkpt lat="43.23581005624052" lon="11.545406460323413"><ele>176.0</ele><time>2026-04-11T03:05:51Z</time></trkpt><trkpt lat="43.235845402679836" lon="11.54551973839172"><ele>176.0</ele><time>2026-04-11T03:05:53Z</time></trkpt><trkpt lat="43.23588125780789" lon="11.545631835029173"><ele>176.0</ele><time>2026-04-11T03:05:55Z</time></trkpt><trkpt lat="43.235911933798775" lon="11.545758513973093"><ele>176.0</ele><time>2026-04-11T03:05:57Z</time></trkpt><trkpt lat="43.23596939723988" lon="11.545874659384355"><ele>176.0</ele><time>2026-04-11T03:05:59Z</time></trkpt><trkpt lat="43.23600853840596" lon="11.546015955373283"><ele>176.0</ele><time>2026-04-11T03:06:01Z</time></trkpt><trkpt lat="43.236061129124295" lon="11.546137951998992"><ele>176.0</ele><time>2026-04-11T03:06:03Z</time></trkpt><trkpt lat="43.23613537972659" lon="11.546250335613173"><ele>176.0</ele><time>2026-04-11T03:06:05Z</time></trkpt><trkpt lat="43.23618902744526" lon="11.546371761663835"><ele>176.4</ele><time>2026-04-11T03:06:07Z</time></trkpt><trkpt lat="43.23625601312946" lon="11.546480435205138"><ele>176.8</ele><time>2026-04-11T03:06:09Z</time></trkpt><trkpt lat="43.23632131376112" lon="11.546579579840138"><ele>177.20000000000002</ele><time>2026-04-11T03:06:11Z</time></trkpt><trkpt lat="43.23638880364771" lon="11.546681440561647"><ele>177.60000000000002</ele><time>2026-04-11T03:06:13Z</time></trkpt><trkpt lat="43.23646016379618" lon="11.546788735188597"><ele>178.0</ele><time>2026-04-11T03:06:15Z</time></trkpt><trkpt lat="43.23653903672471" lon="11.546881947721085"><ele>178.0</ele><time>2026-04-11T03:06:17Z</time></trkpt><trkpt lat="43.236607921793585" lon="11.546976249630456"><ele>178.0</ele><time>2026-04-11T03:06:19Z</time></trkpt><trkpt lat="43.23667932948987" lon="11.547078302430757"><ele>178.0</ele><time>2026-04-11T03:06:21Z</time></trkpt><trkpt lat="43.236752556392524" lon="11.547176675619703"><ele>178.0</ele><time>2026-04-11T03:06:23Z</time></trkpt><trkpt lat="43.23683114762675" lon="11.547275970227068"><ele>178.0</ele><time>2026-04-11T03:06:25Z</time></trkpt><trkpt lat="43.236911705801994" lon="11.547362001603638"><ele>177.33333333333334</ele><time>2026-04-11T03:06:27Z</time></trkpt><trkpt lat="43.236980818289766" lon="11.547469715791511"><ele>176.66666666666669</ele><time>2026-04-11T03:06:29Z</time></trkpt><trkpt lat="43.23703005969363" lon="11.547525815310609"><ele>176.0</ele><time>2026-04-11T03:06:31Z</time></trkpt><trkpt lat="43.2370846357929" lon="11.547587992544566"><ele>175.33333333333334</ele><time>2026-04-11T03:06:33Z</time></trkpt><trkpt lat="43.23715458983058" lon="11.54763890041059"><ele>174.66666666666666</ele><time>2026-04-11T03:06:34Z</time></trkpt><trkpt lat="43.237240112669625" lon="11.547741469573461"><ele>174.0</ele><time>2026-04-11T03:06:36Z</time></trkpt><trkpt lat="43.23732555829474" lon="11.547840351063273"><ele>174.39999999999998</ele><time>2026-04-11T03:06:38Z</time></trkpt><trkpt lat="43.2374116522278" lon="11.5479316992338"><ele>174.8</ele><time>2026-04-11T03:06:40Z</time></trkpt><trkpt lat="43.23749657805766" lon="11.548028297925915"><ele>175.2</ele><time>2026-04-11T03:06:42Z</time></trkpt><trkpt lat="43.237576767367635" lon="11.548125794174416"><ele>175.60000000000002</ele><time>2026-04-11T03:06:44Z</time></trkpt><trkpt lat="43.23766230702677" lon="11.5482175279967"><ele>176.0</ele><time>2026-04-11T03:06:46Z</time></trkpt><trkpt lat="43.237747250744185" lon="11.548308785626116"><ele>176.0</ele><time>2026-04-11T03:06:48Z</time></trkpt><trkpt lat="43.23782963847426" lon="11.548398866309745"><ele>176.0</ele><time>2026-04-11T03:06:50Z</time></trkpt><trkpt lat="43.237910974709465" lon="11.548485103420244"><ele>176.0</ele><time>2026-04-11T03:06:52Z</time></trkpt><trkpt lat="43.237991724459455" lon="11.548560384383919"><ele>176.0</ele><time>2026-04-11T03:06:54Z</time></trkpt><trkpt lat="43.23807812615692" lon="11.548646480593607"><ele>176.0</ele><time>2026-04-11T03:06:56Z</time></trkpt><trkpt lat="43.23815327137846" lon="11.548738926837974"><ele>176.0</ele><time>2026-04-11T03:06:58Z</time></trkpt><trkpt lat="43.23823876838089" lon="11.548818277833616"><ele>176.0</ele><time>2026-04-11T03:07:00Z</time></trkpt><trkpt lat="43.23832086382241" lon="11.548891654622066"><ele>176.0</ele><time>2026-04-11T03:07:02Z</time></trkpt><trkpt lat="43.2384029575141" lon="11.548961214143272"><ele>176.0</ele><time>2026-04-11T03:07:04Z</time></trkpt><trkpt lat="43.23849171402749" lon="11.549032258091986"><ele>176.0</ele><time>2026-04-11T03:07:06Z</time></trkpt><trkpt lat="43.23858109487021" lon="11.549099653571616"><ele>176.0</ele><time>2026-04-11T03:07:08Z</time></trkpt><trkpt lat="43.23868402367323" lon="11.549151204299184"><ele>176.0</ele><time>2026-04-11T03:07:10Z</time></trkpt><trkpt lat="43.23876882372893" lon="11.549236704491372"><ele>176.0</ele><time>2026-04-11T03:07:12Z</time></trkpt><trkpt lat="43.23886225849573" lon="11.549306484081466"><ele>176.0</ele><time>2026-04-11T03:07:14Z</time></trkpt><trkpt lat="43.23895808507609" lon="11.549378153649489"><ele>176.0</ele><time>2026-04-11T03:07:16Z</time></trkpt><trkpt lat="43.23905408302207" lon="11.549451558486073"><ele>175.75</ele><time>2026-04-11T03:07:18Z</time></trkpt><trkpt lat="43.23916111128665" lon="11.549518797080774"><ele>175.5</ele><time>2026-04-11T03:07:20Z</time></trkpt><trkpt lat="43.23925201412731" lon="11.549633483467712"><ele>175.25</ele><time>2026-04-11T03:07:22Z</time></trkpt><trkpt lat="43.23935653120177" lon="11.549720312544386"><ele>175.0</ele><time>2026-04-11T03:07:24Z</time></trkpt><trkpt lat="43.23943557506284" lon="11.5498413192444"><ele>175.0</ele><time>2026-04-11T03:07:26Z</time></trkpt><trkpt lat="43.23949058851836" lon="11.549884272082988"><ele>175.0</ele><time>2026-04-11T03:07:27Z</time></trkpt><trkpt lat="43.23957803733063" lon="11.549997085351002"><ele>175.0</ele><time>2026-04-11T03:07:29Z</time></trkpt><trkpt lat="43.23966007908514" lon="11.550115714291024"><ele>175.0</ele><time>2026-04-11T03:07:31Z</time></trkpt><trkpt lat="43.239750464861636" lon="11.550232858385717"><ele>175.0</ele><time>2026-04-11T03:07:33Z</time></trkpt><trkpt lat="43.23983692478219" lon="11.550353499853184"><ele>174.6</ele><time>2026-04-11T03:07:35Z</time></trkpt><trkpt lat="43.239924322884995" lon="11.550471146530878"><ele>174.2</ele><time>2026-04-11T03:07:37Z</time></trkpt><trkpt lat="43.24000849405547" lon="11.55059310977364"><ele>173.8</ele><time>2026-04-11T03:07:39Z</time></trkpt><trkpt lat="43.24009362728026" lon="11.55071477647972"><ele>173.4</ele><time>2026-04-11T03:07:41Z</time></trkpt><trkpt lat="43.24013934102401" lon="11.550775933598862"><ele>173.0</ele><time>2026-04-11T03:07:42Z</time></trkpt><trkpt lat="43.240183599956325" lon="11.550837608030932"><ele>173.0</ele><time>2026-04-11T03:07:43Z</time></trkpt><trkpt lat="43.240229055518135" lon="11.550900867767746"><ele>173.0</ele><time>2026-04-11T03:07:44Z</time></trkpt><trkpt lat="43.24027503696127" lon="11.550964351447512"><ele>173.0</ele><time>2026-04-11T03:07:45Z</time></trkpt><trkpt lat="43.240321769586956" lon="11.551027818553067"><ele>173.0</ele><time>2026-04-11T03:07:46Z</time></trkpt><trkpt lat="43.240369693006606" lon="11.55109356136401"><ele>173.0</ele><time>2026-04-11T03:07:47Z</time></trkpt><trkpt lat="43.24041809634046" lon="11.551158882797326"><ele>173.0</ele><time>2026-04-11T03:07:48Z</time></trkpt><trkpt lat="43.24046574304003" lon="11.551226802556583"><ele>173.0</ele><time>2026-04-11T03:07:49Z</time></trkpt><trkpt lat="43.24051109571026" lon="11.551292642764164"><ele>172.66666666666666</ele><time>2026-04-11T03:07:50Z</time></trkpt><trkpt lat="43.24055980356718" lon="11.551361816961945"><ele>172.33333333333331</ele><time>2026-04-11T03:07:51Z</time></trkpt><trkpt lat="43.24060909689441" lon="11.551429100869779"><ele>172.0</ele><time>2026-04-11T03:07:52Z</time></trkpt><trkpt lat="43.240660256227635" lon="11.551492339835729"><ele>171.66666666666666</ele><time>2026-04-11T03:07:53Z</time></trkpt><trkpt lat="43.240706050627686" lon="11.551559371361861"><ele>171.33333333333334</ele><time>2026-04-11T03:07:54Z</time></trkpt><trkpt lat="43.24074971692903" lon="11.551625476655934"><ele>171.0</ele><time>2026-04-11T03:07:55Z</time></trkpt><trkpt lat="43.24082305424455" lon="11.55175776324418"><ele>171.14285714285714</ele><time>2026-04-11T03:07:57Z</time></trkpt><trkpt lat="43.240837188734645" lon="11.551846513231181"><ele>171.28571428571428</ele><time>2026-04-11T03:07:58Z</time></trkpt><trkpt lat="43.240828066260995" lon="11.551935879392285"><ele>171.42857142857144</ele><time>2026-04-11T03:07:59Z</time></trkpt><trkpt lat="43.24080368903401" lon="11.552020139055214"><ele>171.57142857142856</ele><time>2026-04-11T03:08:00Z</time></trkpt><trkpt lat="43.24076668585146" lon="11.552090183024747"><ele>171.71428571428572</ele><time>2026-04-11T03:08:01Z</time></trkpt><trkpt lat="43.240728060783844" lon="11.552161896024007"><ele>171.85714285714286</ele><time>2026-04-11T03:08:02Z</time></trkpt><trkpt lat="43.24066467442882" lon="11.552305108690748"><ele>172.0</ele><time>2026-04-11T03:08:04Z</time></trkpt><trkpt lat="43.240606549064424" lon="11.552442432986112"><ele>172.0</ele><time>2026-04-11T03:08:06Z</time></trkpt><trkpt lat="43.24054700296128" lon="11.55257454630331"><ele>172.0</ele><time>2026-04-11T03:08:08Z</time></trkpt><trkpt lat="43.24048937821062" lon="11.552703383888177"><ele>172.0</ele><time>2026-04-11T03:08:10Z</time></trkpt><trkpt lat="43.24042854663957" lon="11.552828028678865"><ele>172.0</ele><time>2026-04-11T03:08:12Z</time></trkpt><trkpt lat="43.240369108516575" lon="11.552930411969045"><ele>172.0</ele><time>2026-04-11T03:08:14Z</time></trkpt><trkpt lat="43.240323470780964" lon="11.552993969578983"><ele>172.14285714285717</ele><time>2026-04-11T03:08:16Z</time></trkpt><trkpt lat="43.24036316643323" lon="11.553072361003988"><ele>172.28571428571428</ele><time>2026-04-11T03:08:17Z</time></trkpt><trkpt lat="43.24042595420697" lon="11.553127845062972"><ele>172.42857142857144</ele><time>2026-04-11T03:08:19Z</time></trkpt><trkpt lat="43.240489460911014" lon="11.55316259265886"><ele>172.57142857142858</ele><time>2026-04-11T03:08:21Z</time></trkpt><trkpt lat="43.240553487114134" lon="11.553204038227708"><ele>172.71428571428572</ele><time>2026-04-11T03:08:23Z</time></trkpt><trkpt lat="43.2406166710398" lon="11.553259633834939"><ele>172.85714285714286</ele><time>2026-04-11T03:08:25Z</time></trkpt><trkpt lat="43.24067614162381" lon="11.553330638918048"><ele>173.0</ele><time>2026-04-11T03:08:28Z</time></trkpt><trkpt lat="43.24080028778875" lon="11.553303330242052"><ele>173.28571428571428</ele><time>2026-04-11T03:09:02Z</time></trkpt><trkpt lat="43.24085162858056" lon="11.55337282142344"><ele>173.57142857142858</ele><time>2026-04-11T03:09:05Z</time></trkpt><trkpt lat="43.24091926549184" lon="11.553415266473115"><ele>173.85714285714286</ele><time>2026-04-11T03:09:08Z</time></trkpt><trkpt lat="43.240973013395134" lon="11.55346362379803"><ele>174.14285714285714</ele><time>2026-04-11T03:09:10Z</time></trkpt><trkpt lat="43.24101790102273" lon="11.553539344352112"><ele>174.42857142857144</ele><time>2026-04-11T03:09:14Z</time></trkpt><trkpt lat="43.24108231769116" lon="11.553565825134203"><ele>174.71428571428572</ele><time>2026-04-11T03:10:59Z</time></trkpt><trkpt lat="43.24116901956764" lon="11.55361387613629"><ele>175.0</ele><time>2026-04-11T03:11:02Z</time></trkpt><trkpt lat="43.24123616924611" lon="11.553661345549346"><ele>175.0</ele><time>2026-04-11T03:11:04Z</time></trkpt><trkpt lat="43.24132358707268" lon="11.553699208935173"><ele>175.0</ele><time>2026-04-11T03:11:06Z</time></trkpt><trkpt lat="43.24138834848226" lon="11.553730006917068"><ele>175.0</ele><time>2026-04-11T03:11:08Z</time></trkpt><trkpt lat="43.241461433168155" lon="11.553747043026975"><ele>175.0</ele><time>2026-04-11T03:11:10Z</time></trkpt><trkpt lat="43.241545339687406" lon="11.55375036239527"><ele>175.0</ele><time>2026-04-11T03:11:12Z</time></trkpt><trkpt lat="43.24166461103048" lon="11.553744257413463"><ele>175.0</ele><time>2026-04-11T03:11:15Z</time></trkpt><trkpt lat="43.241740278312335" lon="11.553740631510129"><ele>175.5</ele><time>2026-04-11T03:11:17Z</time></trkpt><trkpt lat="43.24180955328045" lon="11.553750093953768"><ele>176.0</ele><time>2026-04-11T03:11:19Z</time></trkpt><trkpt lat="43.24188568020891" lon="11.55377762070217"><ele>176.5</ele><time>2026-04-11T03:11:24Z</time></trkpt><trkpt lat="43.241959523658984" lon="11.553805225239067"><ele>177.0</ele><time>2026-04-11T03:11:28Z</time></trkpt><trkpt lat="43.242039799510295" lon="11.553845795245797"><ele>177.5</ele><time>2026-04-11T03:11:32Z</time></trkpt><trkpt lat="43.24211693693974" lon="11.553890206047779"><ele>178.0</ele><time>2026-04-11T03:11:36Z</time></trkpt><trkpt lat="43.24217430110073" lon="11.55392800435593"><ele>178.0</ele><time>2026-04-11T03:11:40Z</time></trkpt><trkpt lat="43.242234079450405" lon="11.55396698611784"><ele>178.0</ele><time>2026-04-11T03:11:43Z</time></trkpt><trkpt lat="43.242374965492836" lon="11.554079457494776"><ele>178.0</ele><time>2026-04-11T03:11:51Z</time></trkpt><trkpt lat="43.24244650084045" lon="11.554112749582004"><ele>178.0</ele><time>2026-04-11T03:11:54Z</time></trkpt><trkpt lat="43.24250668047611" lon="11.55417746067823"><ele>178.0</ele><time>2026-04-11T03:11:57Z</time></trkpt><trkpt lat="43.242567417969525" lon="11.554223765096593"><ele>180.66666666666669</ele><time>2026-04-11T03:12:00Z</time></trkpt><trkpt lat="43.242642830775246" lon="11.554278262456817"><ele>183.33333333333334</ele><time>2026-04-11T03:12:02Z</time></trkpt><trkpt lat="43.242719174280666" lon="11.554326002897062"><ele>186.0</ele><time>2026-04-11T03:12:05Z</time></trkpt><trkpt lat="43.242809711475886" lon="11.554373367242876"><ele>188.66666666666669</ele><time>2026-04-11T03:12:08Z</time></trkpt><trkpt lat="43.24287461175656" lon="11.554392745537385"><ele>191.33333333333334</ele><time>2026-04-11T03:12:10Z</time></trkpt><trkpt lat="43.24294009161907" lon="11.554415998690484"><ele>194.0</ele><time>2026-04-11T03:12:12Z</time></trkpt><trkpt lat="43.24301009415458" lon="11.554434012569615"><ele>194.0</ele><time>2026-04-11T03:12:14Z</time></trkpt><trkpt lat="43.24308549774686" lon="11.554442791955159"><ele>194.0</ele><time>2026-04-11T03:12:16Z</time></trkpt><trkpt lat="43.24316986467206" lon="11.554443903247595"><ele>194.0</ele><time>2026-04-11T03:12:18Z</time></trkpt><trkpt lat="43.243270896341144" lon="11.554433161282219"><ele>194.0</ele><time>2026-04-11T03:12:20Z</time></trkpt><trkpt lat="43.2433786997953" lon="11.554425262093343"><ele>194.0</ele><time>2026-04-11T03:12:22Z</time></trkpt><trkpt lat="43.243492615626934" lon="11.554412353094687"><ele>195.00000000000003</ele><time>2026-04-11T03:12:24Z</time></trkpt><trkpt lat="43.24361111842028" lon="11.55440593551844"><ele>196.0</ele><time>2026-04-11T03:12:26Z</time></trkpt><trkpt lat="43.24367484010183" lon="11.554407114649848"><ele>197.0</ele><time>2026-04-11T03:12:27Z</time></trkpt><trkpt lat="43.24374493766118" lon="11.55440451324953"><ele>198.0</ele><time>2026-04-11T03:12:28Z</time></trkpt><trkpt lat="43.2438185304824" lon="11.554393858985089"><ele>199.00000000000003</ele><time>2026-04-11T03:12:29Z</time></trkpt><trkpt lat="43.24388739400684" lon="11.554384661146017"><ele>200.0</ele><time>2026-04-11T03:12:30Z</time></trkpt><trkpt lat="43.24395609141503" lon="11.5543807491496"><ele>198.57142857142858</ele><time>2026-04-11T03:12:31Z</time></trkpt><trkpt lat="43.24402301315513" lon="11.554373629923413"><ele>197.14285714285714</ele><time>2026-04-11T03:12:32Z</time></trkpt><trkpt lat="43.24409136802905" lon="11.554365590194866"><ele>195.71428571428572</ele><time>2026-04-11T03:12:33Z</time></trkpt><trkpt lat="43.24416011123848" lon="11.554356281540153"><ele>194.28571428571428</ele><time>2026-04-11T03:12:34Z</time></trkpt><trkpt lat="43.244230852833205" lon="11.554348975768455"><ele>192.85714285714286</ele><time>2026-04-11T03:12:35Z</time></trkpt><trkpt lat="43.24429994537171" lon="11.55434096181813"><ele>191.42857142857144</ele><time>2026-04-11T03:12:36Z</time></trkpt><trkpt lat="43.24437111960721" lon="11.554332728305218"><ele>190.0</ele><time>2026-04-11T03:12:37Z</time></trkpt><trkpt lat="43.24444765634713" lon="11.554326235066835"><ele>190.0</ele><time>2026-04-11T03:12:38Z</time></trkpt><trkpt lat="43.24452640236204" lon="11.554315612334568"><ele>190.0</ele><time>2026-04-11T03:12:39Z</time></trkpt><trkpt lat="43.24460195639381" lon="11.55431468137529"><ele>190.0</ele><time>2026-04-11T03:12:40Z</time></trkpt><trkpt lat="43.24467492862845" lon="11.55430971752754"><ele>190.0</ele><time>2026-04-11T03:12:41Z</time></trkpt><trkpt lat="43.24474265557318" lon="11.554305846157343"><ele>190.0</ele><time>2026-04-11T03:12:42Z</time></trkpt><trkpt lat="43.24480896504587" lon="11.554301741078936"><ele>190.0</ele><time>2026-04-11T03:12:43Z</time></trkpt><trkpt lat="43.2448749429705" lon="11.55429646385823"><ele>190.0</ele><time>2026-04-11T03:12:44Z</time></trkpt><trkpt lat="43.24494307545024" lon="11.554288051058295"><ele>189.33333333333334</ele><time>2026-04-11T03:12:45Z</time></trkpt><trkpt lat="43.24501788268031" lon="11.554278197979743"><ele>188.66666666666669</ele><time>2026-04-11T03:12:46Z</time></trkpt><trkpt lat="43.24509481142135" lon="11.554265169129742"><ele>188.0</ele><time>2026-04-11T03:12:47Z</time></trkpt><trkpt lat="43.24517074896379" lon="11.55425404878342"><ele>187.33333333333334</ele><time>2026-04-11T03:12:48Z</time></trkpt><trkpt lat="43.24524897871746" lon="11.554239295380853"><ele>186.66666666666666</ele><time>2026-04-11T03:12:49Z</time></trkpt><trkpt lat="43.245328684564896" lon="11.554225169852662"><ele>186.0</ele><time>2026-04-11T03:12:50Z</time></trkpt><trkpt lat="43.245403342122046" lon="11.554214964691642"><ele>186.00000000000003</ele><time>2026-04-11T03:12:51Z</time></trkpt><trkpt lat="43.245471774844326" lon="11.554210313251911"><ele>186.0</ele><time>2026-04-11T03:12:52Z</time></trkpt><trkpt lat="43.2455489577943" lon="11.554200367743784"><ele>186.0</ele><time>2026-04-11T03:12:53Z</time></trkpt><trkpt lat="43.24562577963634" lon="11.554186672120563"><ele>186.0</ele><time>2026-04-11T03:12:54Z</time></trkpt><trkpt lat="43.24570182807236" lon="11.55421250274292"><ele>186.0</ele><time>2026-04-11T03:12:55Z</time></trkpt><trkpt lat="43.24577057865298" lon="11.554203093900673"><ele>186.00000000000003</ele><time>2026-04-11T03:12:56Z</time></trkpt><trkpt lat="43.24584092032275" lon="11.55419346732509"><ele>186.0</ele><time>2026-04-11T03:12:57Z</time></trkpt><trkpt lat="43.24591483015635" lon="11.554183352410083"><ele>184.5</ele><time>2026-04-11T03:12:58Z</time></trkpt><trkpt lat="43.2459853981716" lon="11.554173694839074"><ele>183.0</ele><time>2026-04-11T03:12:59Z</time></trkpt><trkpt lat="43.24605493725642" lon="11.55416498276216"><ele>181.5</ele><time>2026-04-11T03:13:00Z</time></trkpt><trkpt lat="43.24611916574159" lon="11.554157762425769"><ele>180.0</ele><time>2026-04-11T03:13:01Z</time></trkpt><trkpt lat="43.24624084631943" lon="11.554144083592671"><ele>178.5</ele><time>2026-04-11T03:13:03Z</time></trkpt><trkpt lat="43.246314249195756" lon="11.554137977492273"><ele>177.0</ele><time>2026-04-11T03:13:04Z</time></trkpt><trkpt lat="43.24638788563365" lon="11.554132613255614"><ele>177.0</ele><time>2026-04-11T03:13:05Z</time></trkpt><trkpt lat="43.246454750838936" lon="11.554129352628618"><ele>177.0</ele><time>2026-04-11T03:13:06Z</time></trkpt><trkpt lat="43.24652122936853" lon="11.554128176035523"><ele>177.0</ele><time>2026-04-11T03:13:07Z</time></trkpt><trkpt lat="43.246638934879655" lon="11.554153009944358"><ele>177.0</ele><time>2026-04-11T03:13:09Z</time></trkpt><trkpt lat="43.246751679716716" lon="11.554175901841472"><ele>177.0</ele><time>2026-04-11T03:13:11Z</time></trkpt><trkpt lat="43.24683410860537" lon="11.55424563352745"><ele>176.0</ele><time>2026-04-11T03:13:13Z</time></trkpt><trkpt lat="43.246926136775706" lon="11.55430251387731"><ele>175.0</ele><time>2026-04-11T03:13:15Z</time></trkpt><trkpt lat="43.24700815341484" lon="11.554357714912005"><ele>174.0</ele><time>2026-04-11T03:13:17Z</time></trkpt><trkpt lat="43.24707728619142" lon="11.554405880786307"><ele>173.0</ele><time>2026-04-11T03:13:19Z</time></trkpt><trkpt lat="43.24715069947687" lon="11.554458152495"><ele>172.0</ele><time>2026-04-11T03:13:22Z</time></trkpt><trkpt lat="43.24724770732419" lon="11.554477185007643"><ele>172.71428571428572</ele><time>2026-04-11T03:13:27Z</time></trkpt><trkpt lat="43.24731612322549" lon="11.554514238903034"><ele>173.42857142857144</ele><time>2026-04-11T03:13:30Z</time></trkpt><trkpt lat="43.2473740901881" lon="11.554559987070729"><ele>174.14285714285717</ele><time>2026-04-11T03:13:33Z</time></trkpt><trkpt lat="43.247443120018495" lon="11.554607617315284"><ele>174.85714285714286</ele><time>2026-04-11T03:13:36Z</time></trkpt><trkpt lat="43.2475066772972" lon="11.554651987537765"><ele>175.57142857142856</ele><time>2026-04-11T03:13:39Z</time></trkpt><trkpt lat="43.24757162132164" lon="11.554702444243643"><ele>176.2857142857143</ele><time>2026-04-11T03:13:42Z</time></trkpt><trkpt lat="43.24763226963978" lon="11.55474531401817"><ele>177.0</ele><time>2026-04-11T03:13:45Z</time></trkpt><trkpt lat="43.2476964999835" lon="11.554799503224261"><ele>177.33333333333334</ele><time>2026-04-11T03:13:48Z</time></trkpt><trkpt lat="43.24775587574562" lon="11.55485713273769"><ele>177.66666666666666</ele><time>2026-04-11T03:13:51Z</time></trkpt><trkpt lat="43.247811512648454" lon="11.554920086325291"><ele>178.0</ele><time>2026-04-11T03:13:54Z</time></trkpt><trkpt lat="43.247864526098596" lon="11.555004965378535"><ele>178.33333333333331</ele><time>2026-04-11T03:13:57Z</time></trkpt><trkpt lat="43.247914182455986" lon="11.555089571670349"><ele>178.66666666666666</ele><time>2026-04-11T03:14:00Z</time></trkpt><trkpt lat="43.24797236474233" lon="11.5551762719346"><ele>179.0</ele><time>2026-04-11T03:14:03Z</time></trkpt><trkpt lat="43.24803648684981" lon="11.555280358393038"><ele>179.0</ele><time>2026-04-11T03:14:07Z</time></trkpt><trkpt lat="43.24808951599883" lon="11.555357380187917"><ele>179.0</ele><time>2026-04-11T03:14:09Z</time></trkpt><trkpt lat="43.24816200189662" lon="11.55544338551396"><ele>179.0</ele><time>2026-04-11T03:14:12Z</time></trkpt><trkpt lat="43.248220811577646" lon="11.555498134909877"><ele>179.0</ele><time>2026-04-11T03:14:14Z</time></trkpt><trkpt lat="43.24828363911366" lon="11.555545549458982"><ele>179.0</ele><time>2026-04-11T03:14:17Z</time></trkpt><trkpt lat="43.248363357390865" lon="11.555605855405956"><ele>179.0</ele><time>2026-04-11T03:14:19Z</time></trkpt><trkpt lat="43.24844229872863" lon="11.555677511161077"><ele>180.6</ele><time>2026-04-11T03:14:21Z</time></trkpt><trkpt lat="43.24851969120415" lon="11.555730531753795"><ele>182.2</ele><time>2026-04-11T03:14:23Z</time></trkpt><trkpt lat="43.24860144821337" lon="11.555786134304752"><ele>183.79999999999998</ele><time>2026-04-11T03:14:25Z</time></trkpt><trkpt lat="43.248693365378834" lon="11.555865733741014"><ele>185.39999999999998</ele><time>2026-04-11T03:14:27Z</time></trkpt><trkpt lat="43.24879625701385" lon="11.555927758440687"><ele>187.0</ele><time>2026-04-11T03:14:29Z</time></trkpt><trkpt lat="43.24882131313676" lon="11.556081201873937"><ele>187.0</ele><time>2026-04-11T03:14:30Z</time></trkpt><trkpt lat="43.24893857504852" lon="11.556111488986383"><ele>187.0</ele><time>2026-04-11T03:14:32Z</time></trkpt><trkpt lat="43.24906268702757" lon="11.556102560975024"><ele>187.0</ele><time>2026-04-11T03:14:34Z</time></trkpt><trkpt lat="43.249154977100844" lon="11.556087868384445"><ele>187.0</ele><time>2026-04-11T03:14:36Z</time></trkpt><trkpt lat="43.2492396913997" lon="11.556072264686778"><ele>187.0</ele><time>2026-04-11T03:14:38Z</time></trkpt><trkpt lat="43.249324713141895" lon="11.556056981108688"><ele>188.8</ele><time>2026-04-11T03:14:40Z</time></trkpt><trkpt lat="43.24941258480675" lon="11.556041413218042"><ele>190.6</ele><time>2026-04-11T03:14:42Z</time></trkpt><trkpt lat="43.24950598626706" lon="11.556024865586757"><ele>192.4</ele><time>2026-04-11T03:14:44Z</time></trkpt><trkpt lat="43.249611599390654" lon="11.556006154502063"><ele>194.20000000000002</ele><time>2026-04-11T03:14:46Z</time></trkpt><trkpt lat="43.24971314865494" lon="11.555991907811723"><ele>196.0</ele><time>2026-04-11T03:14:48Z</time></trkpt><trkpt lat="43.24982261311898" lon="11.555984217466353"><ele>196.60000000000002</ele><time>2026-04-11T03:14:50Z</time></trkpt><trkpt lat="43.249943433650955" lon="11.555970151334405"><ele>197.2</ele><time>2026-04-11T03:14:52Z</time></trkpt><trkpt lat="43.25000914572427" lon="11.555953241613508"><ele>197.8</ele><time>2026-04-11T03:14:53Z</time></trkpt><trkpt lat="43.250093408907524" lon="11.555918405112813"><ele>198.39999999999998</ele><time>2026-04-11T03:14:55Z</time></trkpt><trkpt lat="43.25011697003482" lon="11.555764144918777"><ele>199.0</ele><time>2026-04-11T03:14:59Z</time></trkpt><trkpt lat="43.2501809198879" lon="11.55570710626632"><ele>198.99999999999997</ele><time>2026-04-11T03:15:02Z</time></trkpt><trkpt lat="43.25024920275004" lon="11.555641019933544"><ele>199.0</ele><time>2026-04-11T03:15:06Z</time></trkpt><trkpt lat="43.250308781188174" lon="11.555584696769378"><ele>199.0</ele><time>2026-04-11T03:15:11Z</time></trkpt><trkpt lat="43.250365992060594" lon="11.555531360172937"><ele>199.0</ele><time>2026-04-11T03:15:15Z</time></trkpt><trkpt lat="43.25043741690142" lon="11.555466586133461"><ele>198.99999999999997</ele><time>2026-04-11T03:15:21Z</time></trkpt><trkpt lat="43.25048746623933" lon="11.555393747396572"><ele>199.0</ele><time>2026-04-11T03:15:25Z</time></trkpt><trkpt lat="43.25054606470333" lon="11.555336113808158"><ele>201.66666666666666</ele><time>2026-04-11T03:15:29Z</time></trkpt><trkpt lat="43.250610639880875" lon="11.555271045956438"><ele>204.33333333333331</ele><time>2026-04-11T03:15:33Z</time></trkpt><trkpt lat="43.250664614106" lon="11.555202373050628"><ele>207.0</ele><time>2026-04-11T03:15:37Z</time></trkpt><trkpt lat="43.25072566355772" lon="11.55514033280556"><ele>209.66666666666669</ele><time>2026-04-11T03:15:41Z</time></trkpt><trkpt lat="43.250791705447895" lon="11.55507437310441"><ele>212.33333333333334</ele><time>2026-04-11T03:15:45Z</time></trkpt><trkpt lat="43.25085642852495" lon="11.555020191492284"><ele>215.0</ele><time>2026-04-11T03:15:49Z</time></trkpt><trkpt lat="43.25091696163519" lon="11.554967943459951"><ele>215.0</ele><time>2026-04-11T03:15:53Z</time></trkpt><trkpt lat="43.25097984004447" lon="11.554913338683017"><ele>215.0</ele><time>2026-04-11T03:15:57Z</time></trkpt><trkpt lat="43.2510540787774" lon="11.554872175597518"><ele>215.0</ele><time>2026-04-11T03:16:01Z</time></trkpt><trkpt lat="43.25112288568289" lon="11.554826869403351"><ele>215.0</ele><time>2026-04-11T03:16:05Z</time></trkpt><trkpt lat="43.25118559289855" lon="11.554808125520719"><ele>215.0</ele><time>2026-04-11T03:16:08Z</time></trkpt><trkpt lat="43.251250281904895" lon="11.554777932999471"><ele>215.0</ele><time>2026-04-11T03:16:12Z</time></trkpt><trkpt lat="43.251310291367034" lon="11.554750594957754"><ele>215.0</ele><time>2026-04-11T03:16:15Z</time></trkpt><trkpt lat="43.25140238089338" lon="11.554717649477233"><ele>214.7142857142857</ele><time>2026-04-11T03:16:19Z</time></trkpt><trkpt lat="43.251478971752405" lon="11.554697416658867"><ele>214.42857142857144</ele><time>2026-04-11T03:16:23Z</time></trkpt><trkpt lat="43.25155864394869" lon="11.55466791628733"><ele>214.14285714285714</ele><time>2026-04-11T03:16:27Z</time></trkpt><trkpt lat="43.25163683606925" lon="11.554647175942018"><ele>213.85714285714283</ele><time>2026-04-11T03:16:31Z</time></trkpt><trkpt lat="43.25170354843016" lon="11.554632639922392"><ele>213.57142857142856</ele><time>2026-04-11T03:16:34Z</time></trkpt><trkpt lat="43.2517737591936" lon="11.554616649981712"><ele>213.28571428571428</ele><time>2026-04-11T03:16:38Z</time></trkpt><trkpt lat="43.251837736332654" lon="11.554596763337349"><ele>213.0</ele><time>2026-04-11T03:16:41Z</time></trkpt><trkpt lat="43.2519139040031" lon="11.554577750217446"><ele>213.0</ele><time>2026-04-11T03:16:45Z</time></trkpt><trkpt lat="43.252006754836536" lon="11.554566593716638"><ele>213.0</ele><time>2026-04-11T03:16:48Z</time></trkpt><trkpt lat="43.252094378441676" lon="11.554565693054265"><ele>213.0</ele><time>2026-04-11T03:16:51Z</time></trkpt><trkpt lat="43.25218411250651" lon="11.554577229691715"><ele>213.0</ele><time>2026-04-11T03:16:54Z</time></trkpt><trkpt lat="43.25225334356027" lon="11.554588429137898"><ele>213.0</ele><time>2026-04-11T03:16:55Z</time></trkpt><trkpt lat="43.25233570812925" lon="11.55461765591689"><ele>213.0</ele><time>2026-04-11T03:16:57Z</time></trkpt><trkpt lat="43.25241659424726" lon="11.55464202086539"><ele>213.14285714285714</ele><time>2026-04-11T03:16:59Z</time></trkpt><trkpt lat="43.25248991670218" lon="11.554660638260211"><ele>213.28571428571428</ele><time>2026-04-11T03:17:01Z</time></trkpt><trkpt lat="43.25256357043443" lon="11.554659042023617"><ele>213.42857142857144</ele><time>2026-04-11T03:17:04Z</time></trkpt><trkpt lat="43.25263150923224" lon="11.554662028238235"><ele>213.57142857142856</ele><time>2026-04-11T03:17:07Z</time></trkpt><trkpt lat="43.25269946296369" lon="11.554661246472751"><ele>213.71428571428572</ele><time>2026-04-11T03:17:10Z</time></trkpt><trkpt lat="43.25276480082147" lon="11.554663959072613"><ele>213.85714285714286</ele><time>2026-04-11T03:17:13Z</time></trkpt><trkpt lat="43.2528304176203" lon="11.554659818808412"><ele>214.0</ele><time>2026-04-11T03:17:16Z</time></trkpt><trkpt lat="43.252894763151964" lon="11.554645223183256"><ele>213.99999999999997</ele><time>2026-04-11T03:17:19Z</time></trkpt><trkpt lat="43.25296660422013" lon="11.554636687941104"><ele>214.0</ele><time>2026-04-11T03:17:22Z</time></trkpt><trkpt lat="43.253034507594016" lon="11.554620280692665"><ele>214.0</ele><time>2026-04-11T03:17:25Z</time></trkpt><trkpt lat="43.253113062277" lon="11.554589644665127"><ele>214.0</ele><time>2026-04-11T03:17:29Z</time></trkpt><trkpt lat="43.253184187997135" lon="11.554562908868974"><ele>213.99999999999997</ele><time>2026-04-11T03:17:33Z</time></trkpt><trkpt lat="43.253252050296375" lon="11.554533929915284"><ele>214.0</ele><time>2026-04-11T03:17:37Z</time></trkpt><trkpt lat="43.25333053870038" lon="11.554491464940524"><ele>216.99999999999997</ele><time>2026-04-11T03:17:41Z</time></trkpt><trkpt lat="43.25340642182138" lon="11.55444777935089"><ele>220.0</ele><time>2026-04-11T03:17:45Z</time></trkpt><trkpt lat="43.25346969188392" lon="11.554399276876184"><ele>223.0</ele><time>2026-04-11T03:17:49Z</time></trkpt><trkpt lat="43.25354125625991" lon="11.554343054544331"><ele>226.0</ele><time>2026-04-11T03:17:53Z</time></trkpt><trkpt lat="43.253614896046805" lon="11.554293382412606"><ele>228.99999999999997</ele><time>2026-04-11T03:17:57Z</time></trkpt><trkpt lat="43.253692572123484" lon="11.554241116811177"><ele>232.0</ele><time>2026-04-11T03:18:01Z</time></trkpt><trkpt lat="43.25375058818251" lon="11.554188780394883"><ele>232.00000000000003</ele><time>2026-04-11T03:18:04Z</time></trkpt><trkpt lat="43.253809119258264" lon="11.55413902839755"><ele>232.0</ele><time>2026-04-11T03:18:06Z</time></trkpt><trkpt lat="43.25387311033303" lon="11.554077198788374"><ele>232.00000000000003</ele><time>2026-04-11T03:18:09Z</time></trkpt><trkpt lat="43.25392073063741" lon="11.553994936004672"><ele>232.00000000000003</ele><time>2026-04-11T03:18:12Z</time></trkpt><trkpt lat="43.25396514172043" lon="11.5539217481856"><ele>232.0</ele><time>2026-04-11T03:18:15Z</time></trkpt><trkpt lat="43.25399387665327" lon="11.553834743780977"><ele>232.00000000000003</ele><time>2026-04-11T03:18:19Z</time></trkpt><trkpt lat="43.25402366117516" lon="11.553746342014946"><ele>232.00000000000003</ele><time>2026-04-11T03:18:23Z</time></trkpt><trkpt lat="43.25403318794333" lon="11.553637917950432"><ele>234.16666666666666</ele><time>2026-04-11T03:18:27Z</time></trkpt><trkpt lat="43.254034805807784" lon="11.553550275473832"><ele>236.33333333333331</ele><time>2026-04-11T03:18:31Z</time></trkpt><trkpt lat="43.25404568364278" lon="11.553440639143867"><ele>238.5</ele><time>2026-04-11T03:18:35Z</time></trkpt><trkpt lat="43.25405476126922" lon="11.553333950903529"><ele>240.66666666666669</ele><time>2026-04-11T03:18:39Z</time></trkpt><trkpt lat="43.25408156523669" lon="11.553233813912868"><ele>242.83333333333334</ele><time>2026-04-11T03:18:43Z</time></trkpt><trkpt lat="43.25411651963504" lon="11.553137417449324"><ele>245.0</ele><time>2026-04-11T03:18:47Z</time></trkpt><trkpt lat="43.25416353211147" lon="11.55306024954826"><ele>245.0</ele><time>2026-04-11T03:18:51Z</time></trkpt><trkpt lat="43.25422307834425" lon="11.552992949970653"><ele>245.0</ele><time>2026-04-11T03:18:55Z</time></trkpt><trkpt lat="43.25428859888191" lon="11.552954360499541"><ele>245.0</ele><time>2026-04-11T03:18:59Z</time></trkpt><trkpt lat="43.254353825255095" lon="11.552937485007805"><ele>245.0</ele><time>2026-04-11T03:19:03Z</time></trkpt><trkpt lat="43.25442318826076" lon="11.552926663247662"><ele>245.0</ele><time>2026-04-11T03:19:07Z</time></trkpt><trkpt lat="43.25449864828253" lon="11.55292448768969"><ele>245.0</ele><time>2026-04-11T03:19:11Z</time></trkpt><trkpt lat="43.25457924612301" lon="11.552913487629837"><ele>245.0</ele><time>2026-04-11T03:19:15Z</time></trkpt><trkpt lat="43.2546474125307" lon="11.55291127005227"><ele>245.00000000000003</ele><time>2026-04-11T03:19:18Z</time></trkpt><trkpt lat="43.25471683512709" lon="11.552899511304334"><ele>245.0</ele><time>2026-04-11T03:19:21Z</time></trkpt><trkpt lat="43.254811317597536" lon="11.552899402328928"><ele>245.0</ele><time>2026-04-11T03:19:23Z</time></trkpt><trkpt lat="43.25489576714509" lon="11.552877710743234"><ele>245.0</ele><time>2026-04-11T03:19:27Z</time></trkpt><trkpt lat="43.254994060276836" lon="11.552875722406228"><ele>245.00000000000003</ele><time>2026-04-11T03:19:30Z</time></trkpt><trkpt lat="43.25509009917427" lon="11.55287340504508"><ele>245.0</ele><time>2026-04-11T03:19:33Z</time></trkpt><trkpt lat="43.255166603734835" lon="11.552877457879578"><ele>245.6</ele><time>2026-04-11T03:19:35Z</time></trkpt><trkpt lat="43.25524781893712" lon="11.552875662850521"><ele>246.2</ele><time>2026-04-11T03:19:37Z</time></trkpt><trkpt lat="43.255314536716924" lon="11.552869055944857"><ele>246.8</ele><time>2026-04-11T03:19:39Z</time></trkpt><trkpt lat="43.2554304257027" lon="11.55287433736836"><ele>247.4</ele><time>2026-04-11T03:19:41Z</time></trkpt><trkpt lat="43.2554987079477" lon="11.552882480565557"><ele>248.0</ele><time>2026-04-11T03:19:43Z</time></trkpt><trkpt lat="43.25566187537585" lon="11.552926031306058"><ele>248.8</ele><time>2026-04-11T03:19:45Z</time></trkpt><trkpt lat="43.25575323836997" lon="11.552972873778131"><ele>249.60000000000002</ele><time>2026-04-11T03:19:47Z</time></trkpt><trkpt lat="43.25584739830171" lon="11.553022273274932"><ele>250.39999999999998</ele><time>2026-04-11T03:19:49Z</time></trkpt><trkpt lat="43.25595042126048" lon="11.553090173359134"><ele>251.2</ele><time>2026-04-11T03:19:51Z</time></trkpt><trkpt lat="43.25604782449664" lon="11.553164142569708"><ele>252.0</ele><time>2026-04-11T03:19:53Z</time></trkpt><trkpt lat="43.25614677508832" lon="11.553229544061336"><ele>252.0</ele><time>2026-04-11T03:19:55Z</time></trkpt><trkpt lat="43.25625132721267" lon="11.553300954144223"><ele>252.0</ele><time>2026-04-11T03:19:57Z</time></trkpt><trkpt lat="43.25635625102591" lon="11.553372356809597"><ele>252.0</ele><time>2026-04-11T03:19:59Z</time></trkpt><trkpt lat="43.25646296931173" lon="11.553444354623911"><ele>252.0</ele><time>2026-04-11T03:20:01Z</time></trkpt><trkpt lat="43.25652015189884" lon="11.553485895774966"><ele>252.0</ele><time>2026-04-11T03:20:02Z</time></trkpt><trkpt lat="43.25659086656178" lon="11.553556928060184"><ele>251.8</ele><time>2026-04-11T03:20:04Z</time></trkpt><trkpt lat="43.256688096915525" lon="11.553609226365012"><ele>251.6</ele><time>2026-04-11T03:20:06Z</time></trkpt><trkpt lat="43.25675966957615" lon="11.55368278186375"><ele>251.40000000000003</ele><time>2026-04-11T03:20:08Z</time></trkpt><trkpt lat="43.25686204942624" lon="11.553718333809694"><ele>251.20000000000002</ele><time>2026-04-11T03:20:10Z</time></trkpt><trkpt lat="43.25696067473939" lon="11.55373437336565"><ele>251.0</ele><time>2026-04-11T03:20:12Z</time></trkpt><trkpt lat="43.25705282839414" lon="11.553731093439284"><ele>251.0</ele><time>2026-04-11T03:20:14Z</time></trkpt><trkpt lat="43.257136035514236" lon="11.553719292814556"><ele>251.00000000000003</ele><time>2026-04-11T03:20:16Z</time></trkpt><trkpt lat="43.25722752699526" lon="11.553696983100854"><ele>251.00000000000003</ele><time>2026-04-11T03:20:18Z</time></trkpt><trkpt lat="43.25730935784968" lon="11.553673176315378"><ele>251.0</ele><time>2026-04-11T03:20:20Z</time></trkpt><trkpt lat="43.25739617410842" lon="11.553646409762464"><ele>251.0</ele><time>2026-04-11T03:20:22Z</time></trkpt><trkpt lat="43.25749519185525" lon="11.553612399580814"><ele>251.20000000000002</ele><time>2026-04-11T03:20:24Z</time></trkpt><trkpt lat="43.25759321308074" lon="11.553570033577104"><ele>251.40000000000003</ele><time>2026-04-11T03:20:26Z</time></trkpt><trkpt lat="43.25769384189089" lon="11.553524473666082"><ele>251.6</ele><time>2026-04-11T03:20:28Z</time></trkpt><trkpt lat="43.25778788891592" lon="11.55347798021369"><ele>251.8</ele><time>2026-04-11T03:20:30Z</time></trkpt><trkpt lat="43.257905918458654" lon="11.553415707431382"><ele>252.0</ele><time>2026-04-11T03:20:33Z</time></trkpt><trkpt lat="43.258031030948416" lon="11.553354338234413"><ele>252.0</ele><time>2026-04-11T03:20:35Z</time></trkpt><trkpt lat="43.258138261070506" lon="11.553301819270878"><ele>252.0</ele><time>2026-04-11T03:20:37Z</time></trkpt><trkpt lat="43.25824548410252" lon="11.553279513476012"><ele>252.0</ele><time>2026-04-11T03:20:39Z</time></trkpt><trkpt lat="43.25830867354642" lon="11.553276345241317"><ele>252.0</ele><time>2026-04-11T03:20:40Z</time></trkpt><trkpt lat="43.258428233163855" lon="11.55324873287033"><ele>252.0</ele><time>2026-04-11T03:20:42Z</time></trkpt><trkpt lat="43.25849366279203" lon="11.553233621852991"><ele>252.0</ele><time>2026-04-11T03:20:43Z</time></trkpt><trkpt lat="43.25856241812624" lon="11.553217742759028"><ele>252.0</ele><time>2026-04-11T03:20:44Z</time></trkpt><trkpt lat="43.25862967242942" lon="11.553202210305788"><ele>252.0</ele><time>2026-04-11T03:20:45Z</time></trkpt><trkpt lat="43.258700958011545" lon="11.553180601247822"><ele>252.0</ele><time>2026-04-11T03:20:46Z</time></trkpt><trkpt lat="43.258771167176725" lon="11.553157151376034"><ele>252.0</ele><time>2026-04-11T03:20:47Z</time></trkpt><trkpt lat="43.25884635938721" lon="11.553127603876177"><ele>252.0</ele><time>2026-04-11T03:20:48Z</time></trkpt><trkpt lat="43.258918245717304" lon="11.553071658714604"><ele>252.0</ele><time>2026-04-11T03:20:49Z</time></trkpt><trkpt lat="43.25899073287204" lon="11.553022815043143"><ele>250.8</ele><time>2026-04-11T03:20:50Z</time></trkpt><trkpt lat="43.25906028515304" lon="11.552988644487217"><ele>249.6</ele><time>2026-04-11T03:20:51Z</time></trkpt><trkpt lat="43.25911223952251" lon="11.552937010473892"><ele>248.40000000000003</ele><time>2026-04-11T03:20:52Z</time></trkpt><trkpt lat="43.25917135158967" lon="11.552874636120912"><ele>247.20000000000002</ele><time>2026-04-11T03:20:53Z</time></trkpt><trkpt lat="43.25927161899581" lon="11.552762957607818"><ele>246.0</ele><time>2026-04-11T03:20:55Z</time></trkpt><trkpt lat="43.25935918302814" lon="11.5526502516374"><ele>246.0</ele><time>2026-04-11T03:20:57Z</time></trkpt><trkpt lat="43.25942859146106" lon="11.552530408600525"><ele>246.0</ele><time>2026-04-11T03:20:59Z</time></trkpt><trkpt lat="43.259477344807806" lon="11.552406161976878"><ele>246.0</ele><time>2026-04-11T03:21:01Z</time></trkpt><trkpt lat="43.25950150120539" lon="11.552305636641856"><ele>246.0</ele><time>2026-04-11T03:21:03Z</time></trkpt><trkpt lat="43.25952534656723" lon="11.552223165797773"><ele>246.0</ele><time>2026-04-11T03:21:05Z</time></trkpt><trkpt lat="43.25954380488559" lon="11.552133499006027"><ele>246.0</ele><time>2026-04-11T03:21:07Z</time></trkpt><trkpt lat="43.25956209526645" lon="11.552040118018926"><ele>246.0</ele><time>2026-04-11T03:21:09Z</time></trkpt><trkpt lat="43.259579173132416" lon="11.551947950228351"><ele>246.0</ele><time>2026-04-11T03:21:11Z</time></trkpt><trkpt lat="43.25960835578017" lon="11.551831292341996"><ele>246.0</ele><time>2026-04-11T03:21:15Z</time></trkpt><trkpt lat="43.25963926795768" lon="11.55170501454554"><ele>246.0</ele><time>2026-04-11T03:21:18Z</time></trkpt><trkpt lat="43.2596615545523" lon="11.551604520304165"><ele>246.0</ele><time>2026-04-11T03:21:21Z</time></trkpt><trkpt lat="43.25968179371509" lon="11.551485167935246"><ele>246.0</ele><time>2026-04-11T03:21:24Z</time></trkpt><trkpt lat="43.259739768722675" lon="11.551246275448475"><ele>246.4</ele><time>2026-04-11T03:21:26Z</time></trkpt><trkpt lat="43.25981342649642" lon="11.551129182026346"><ele>246.8</ele><time>2026-04-11T03:21:28Z</time></trkpt><trkpt lat="43.25985698001115" lon="11.550999906582762"><ele>247.20000000000002</ele><time>2026-04-11T03:21:30Z</time></trkpt><trkpt lat="43.25991054592382" lon="11.550899018519907"><ele>247.60000000000002</ele><time>2026-04-11T03:21:32Z</time></trkpt><trkpt lat="43.25996289973254" lon="11.550792883651319"><ele>248.0</ele><time>2026-04-11T03:21:34Z</time></trkpt><trkpt lat="43.26003302069428" lon="11.550681384101795"><ele>248.00000000000003</ele><time>2026-04-11T03:21:36Z</time></trkpt><trkpt lat="43.260106042401816" lon="11.550565786419261"><ele>248.0</ele><time>2026-04-11T03:21:38Z</time></trkpt><trkpt lat="43.26017674216647" lon="11.550440973055634"><ele>248.0</ele><time>2026-04-11T03:21:40Z</time></trkpt><trkpt lat="43.26022194064042" lon="11.550374834732525"><ele>248.0</ele><time>2026-04-11T03:21:41Z</time></trkpt><trkpt lat="43.26026636478879" lon="11.550308457510248"><ele>248.00000000000003</ele><time>2026-04-11T03:21:42Z</time></trkpt><trkpt lat="43.26030577019204" lon="11.550234900564611"><ele>248.0</ele><time>2026-04-11T03:21:43Z</time></trkpt><trkpt lat="43.26040296971427" lon="11.550143561828017"><ele>246.83333333333334</ele><time>2026-04-11T03:21:45Z</time></trkpt><trkpt lat="43.260500628899344" lon="11.55006729226322"><ele>245.66666666666669</ele><time>2026-04-11T03:21:47Z</time></trkpt><trkpt lat="43.260609152944504" lon="11.549995631665006"><ele>244.5</ele><time>2026-04-11T03:21:49Z</time></trkpt><trkpt lat="43.260675946893144" lon="11.549970076798727"><ele>243.33333333333331</ele><time>2026-04-11T03:21:50Z</time></trkpt><trkpt lat="43.26074534992798" lon="11.549950237842427"><ele>242.16666666666666</ele><time>2026-04-11T03:21:51Z</time></trkpt><trkpt lat="43.26081371293624" lon="11.549938836613867"><ele>241.0</ele><time>2026-04-11T03:21:52Z</time></trkpt><trkpt lat="43.26088191118953" lon="11.549932582409014"><ele>239.4</ele><time>2026-04-11T03:21:53Z</time></trkpt><trkpt lat="43.260994200620836" lon="11.549935441573783"><ele>237.8</ele><time>2026-04-11T03:21:55Z</time></trkpt><trkpt lat="43.26108350848921" lon="11.549951519453538"><ele>236.20000000000002</ele><time>2026-04-11T03:21:57Z</time></trkpt><trkpt lat="43.26115672260288" lon="11.549961645748139"><ele>234.60000000000002</ele><time>2026-04-11T03:21:59Z</time></trkpt><trkpt lat="43.26125639193639" lon="11.549971295652293"><ele>233.0</ele><time>2026-04-11T03:22:02Z</time></trkpt><trkpt lat="43.26133222146264" lon="11.549971424338324"><ele>233.0</ele><time>2026-04-11T03:22:04Z</time></trkpt><trkpt lat="43.26140257257983" lon="11.549970833856458"><ele>233.0</ele><time>2026-04-11T03:22:06Z</time></trkpt><trkpt lat="43.26149510108892" lon="11.549946353544657"><ele>233.0</ele><time>2026-04-11T03:22:09Z</time></trkpt><trkpt lat="43.26156345450208" lon="11.549927594904085"><ele>233.0</ele><time>2026-04-11T03:22:11Z</time></trkpt><trkpt lat="43.26162480818839" lon="11.549896655254798"><ele>233.0</ele><time>2026-04-11T03:22:13Z</time></trkpt><trkpt lat="43.26168788210876" lon="11.549868744693441"><ele>233.0</ele><time>2026-04-11T03:22:15Z</time></trkpt><trkpt lat="43.261756602853985" lon="11.54984110600811"><ele>233.0</ele><time>2026-04-11T03:22:17Z</time></trkpt><trkpt lat="43.261820935271736" lon="11.549807213515836"><ele>233.33333333333334</ele><time>2026-04-11T03:22:19Z</time></trkpt><trkpt lat="43.26189075567322" lon="11.549760998615032"><ele>233.66666666666669</ele><time>2026-04-11T03:22:21Z</time></trkpt><trkpt lat="43.261959219846005" lon="11.54970640433975"><ele>234.0</ele><time>2026-04-11T03:22:23Z</time></trkpt><trkpt lat="43.26202119108447" lon="11.54964790286684"><ele>234.33333333333331</ele><time>2026-04-11T03:22:25Z</time></trkpt><trkpt lat="43.2620840044161" lon="11.54958366508322"><ele>234.66666666666666</ele><time>2026-04-11T03:22:27Z</time></trkpt><trkpt lat="43.26214581738" lon="11.549518029518671"><ele>235.0</ele><time>2026-04-11T03:22:29Z</time></trkpt><trkpt lat="43.26220420575917" lon="11.54945177914109"><ele>235.33333333333331</ele><time>2026-04-11T03:22:31Z</time></trkpt><trkpt lat="43.26225931344264" lon="11.549391190316664"><ele>235.66666666666666</ele><time>2026-04-11T03:22:33Z</time></trkpt><trkpt lat="43.26231108492" lon="11.549323911640428"><ele>236.0</ele><time>2026-04-11T03:22:35Z</time></trkpt><trkpt lat="43.262363767058616" lon="11.549255683029553"><ele>236.33333333333331</ele><time>2026-04-11T03:22:37Z</time></trkpt><trkpt lat="43.2624288816851" lon="11.54916435092789"><ele>236.66666666666666</ele><time>2026-04-11T03:22:40Z</time></trkpt><trkpt lat="43.26248084654457" lon="11.54907191396392"><ele>237.0</ele><time>2026-04-11T03:22:43Z</time></trkpt><trkpt lat="43.262541819624516" lon="11.548983863300025"><ele>238.5</ele><time>2026-04-11T03:22:46Z</time></trkpt><trkpt lat="43.262586044371" lon="11.548886815615228"><ele>240.0</ele><time>2026-04-11T03:22:49Z</time></trkpt><trkpt lat="43.262632545667046" lon="11.5488041370053"><ele>241.5</ele><time>2026-04-11T03:22:52Z</time></trkpt><trkpt lat="43.26267544289101" lon="11.548718080712526"><ele>243.0</ele><time>2026-04-11T03:22:55Z</time></trkpt><trkpt lat="43.26271615363729" lon="11.548622556607205"><ele>244.5</ele><time>2026-04-11T03:22:59Z</time></trkpt><trkpt lat="43.26276247266237" lon="11.548531208841313"><ele>246.0</ele><time>2026-04-11T03:23:03Z</time></trkpt><trkpt lat="43.26281341502642" lon="11.548446025783736"><ele>247.33333333333334</ele><time>2026-04-11T03:23:07Z</time></trkpt><trkpt lat="43.26285728795178" lon="11.54836268950513"><ele>248.66666666666669</ele><time>2026-04-11T03:23:11Z</time></trkpt><trkpt lat="43.262911738931145" lon="11.548285598417424"><ele>250.0</ele><time>2026-04-11T03:23:16Z</time></trkpt><trkpt lat="43.26295816522478" lon="11.548205897088827"><ele>251.33333333333334</ele><time>2026-04-11T03:23:20Z</time></trkpt><trkpt lat="43.26299138241846" lon="11.54811722282306"><ele>252.66666666666669</ele><time>2026-04-11T03:23:24Z</time></trkpt><trkpt lat="43.26303290980923" lon="11.548023144427866"><ele>254.0</ele><time>2026-04-11T03:23:28Z</time></trkpt><trkpt lat="43.263074030859805" lon="11.547938176061747"><ele>254.00000000000003</ele><time>2026-04-11T03:23:32Z</time></trkpt><trkpt lat="43.26310420996328" lon="11.547846761654181"><ele>254.0</ele><time>2026-04-11T03:23:36Z</time></trkpt><trkpt lat="43.263135600892795" lon="11.547756672569658"><ele>254.0</ele><time>2026-04-11T03:23:40Z</time></trkpt><trkpt lat="43.263173556093015" lon="11.547657031771937"><ele>254.0</ele><time>2026-04-11T03:23:44Z</time></trkpt><trkpt lat="43.263222425767346" lon="11.547566210709578"><ele>254.00000000000003</ele><time>2026-04-11T03:23:48Z</time></trkpt><trkpt lat="43.263263230189054" lon="11.547480013948816"><ele>254.0</ele><time>2026-04-11T03:23:52Z</time></trkpt><trkpt lat="43.26331368071448" lon="11.547395409918938"><ele>255.66666666666669</ele><time>2026-04-11T03:23:56Z</time></trkpt><trkpt lat="43.26337181039719" lon="11.547316078578651"><ele>257.33333333333337</ele><time>2026-04-11T03:24:00Z</time></trkpt><trkpt lat="43.26343450936181" lon="11.547247827366636"><ele>259.0</ele><time>2026-04-11T03:24:04Z</time></trkpt><trkpt lat="43.26348576655482" lon="11.547196187788806"><ele>260.6666666666667</ele><time>2026-04-11T03:24:07Z</time></trkpt><trkpt lat="43.26354329237563" lon="11.54713442169411"><ele>262.3333333333333</ele><time>2026-04-11T03:24:10Z</time></trkpt><trkpt lat="43.263600639109015" lon="11.547069460516582"><ele>264.0</ele><time>2026-04-11T03:24:12Z</time></trkpt><trkpt lat="43.263685500918776" lon="11.5470042163665"><ele>264.0</ele><time>2026-04-11T03:24:14Z</time></trkpt><trkpt lat="43.26384412406761" lon="11.5468782554648"><ele>264.0</ele><time>2026-04-11T03:24:15Z</time></trkpt><trkpt lat="43.26394684368377" lon="11.54678891518506"><ele>264.0</ele><time>2026-04-11T03:24:17Z</time></trkpt><trkpt lat="43.26405292264173" lon="11.546688394067315"><ele>264.0</ele><time>2026-04-11T03:24:19Z</time></trkpt><trkpt lat="43.26410621121784" lon="11.546629971887892"><ele>264.0</ele><time>2026-04-11T03:24:20Z</time></trkpt><trkpt lat="43.26415438507321" lon="11.546557405013221"><ele>264.0</ele><time>2026-04-11T03:24:21Z</time></trkpt><trkpt lat="43.26424718305693" lon="11.546451041080743"><ele>264.0</ele><time>2026-04-11T03:24:23Z</time></trkpt><trkpt lat="43.264291760243275" lon="11.546389675267681"><ele>264.0</ele><time>2026-04-11T03:24:24Z</time></trkpt><trkpt lat="43.26437081392552" lon="11.546262014591653"><ele>264.0</ele><time>2026-04-11T03:24:26Z</time></trkpt><trkpt lat="43.26443505072442" lon="11.546116566565967"><ele>266.4</ele><time>2026-04-11T03:24:28Z</time></trkpt><trkpt lat="43.26448661207601" lon="11.545964518887928"><ele>268.79999999999995</ele><time>2026-04-11T03:24:30Z</time></trkpt><trkpt lat="43.26451945897093" lon="11.545812596963795"><ele>271.20000000000005</ele><time>2026-04-11T03:24:32Z</time></trkpt><trkpt lat="43.264538873871686" lon="11.545716278490119"><ele>273.6</ele><time>2026-04-11T03:24:34Z</time></trkpt><trkpt lat="43.26456705502557" lon="11.545564275379064"><ele>276.0</ele><time>2026-04-11T03:24:36Z</time></trkpt><trkpt lat="43.264594108994885" lon="11.545408541326733"><ele>276.2</ele><time>2026-04-11T03:24:38Z</time></trkpt><trkpt lat="43.2646189028644" lon="11.545258443781218"><ele>276.40000000000003</ele><time>2026-04-11T03:24:40Z</time></trkpt><trkpt lat="43.26464502701048" lon="11.54509941552968"><ele>276.6</ele><time>2026-04-11T03:24:42Z</time></trkpt><trkpt lat="43.2646661115223" lon="11.544955366111958"><ele>276.8</ele><time>2026-04-11T03:24:44Z</time></trkpt><trkpt lat="43.26468568748316" lon="11.544812707489612"><ele>277.0</ele><time>2026-04-11T03:24:46Z</time></trkpt><trkpt lat="43.26471540059999" lon="11.544684898730806"><ele>277.0</ele><time>2026-04-11T03:24:48Z</time></trkpt><trkpt lat="43.264756980535026" lon="11.54457912609865"><ele>277.0</ele><time>2026-04-11T03:24:51Z</time></trkpt><trkpt lat="43.26480179544763" lon="11.54448050700424"><ele>277.0</ele><time>2026-04-11T03:24:52Z</time></trkpt><trkpt lat="43.264859218316715" lon="11.544364359323138"><ele>277.0</ele><time>2026-04-11T03:24:54Z</time></trkpt><trkpt lat="43.26491372427555" lon="11.544247759242948"><ele>277.0</ele><time>2026-04-11T03:24:56Z</time></trkpt><trkpt lat="43.26497216757234" lon="11.54413436324022"><ele>273.0</ele><time>2026-04-11T03:24:58Z</time></trkpt><trkpt lat="43.265038217795095" lon="11.544015915552464"><ele>269.0</ele><time>2026-04-11T03:25:00Z</time></trkpt><trkpt lat="43.265096211283115" lon="11.543871534982788"><ele>265.0</ele><time>2026-04-11T03:25:02Z</time></trkpt><trkpt lat="43.26512582853454" lon="11.543790095967907"><ele>261.0</ele><time>2026-04-11T03:25:03Z</time></trkpt><trkpt lat="43.26515507824418" lon="11.543708385813789"><ele>257.0</ele><time>2026-04-11T03:25:04Z</time></trkpt><trkpt lat="43.26518012159766" lon="11.543629013987012"><ele>253.0</ele><time>2026-04-11T03:25:05Z</time></trkpt><trkpt lat="43.26520434329355" lon="11.543548082011537"><ele>251.71428571428575</ele><time>2026-04-11T03:25:06Z</time></trkpt><trkpt lat="43.26522681529504" lon="11.543463953206519"><ele>250.42857142857144</ele><time>2026-04-11T03:25:07Z</time></trkpt><trkpt lat="43.26524116559449" lon="11.543374387635058"><ele>249.14285714285714</ele><time>2026-04-11T03:25:08Z</time></trkpt><trkpt lat="43.26524891558755" lon="11.543281759888243"><ele>247.85714285714286</ele><time>2026-04-11T03:25:09Z</time></trkpt><trkpt lat="43.265233655642284" lon="11.543188153887167"><ele>246.57142857142856</ele><time>2026-04-11T03:25:10Z</time></trkpt><trkpt lat="43.265230619067815" lon="11.543100666436752"><ele>245.28571428571425</ele><time>2026-04-11T03:25:11Z</time></trkpt><trkpt lat="43.265221692021605" lon="11.543014382280752"><ele>243.99999999999997</ele><time>2026-04-11T03:25:12Z</time></trkpt><trkpt lat="43.26521705153058" lon="11.542852377966337"><ele>242.83333333333331</ele><time>2026-04-11T03:25:14Z</time></trkpt><trkpt lat="43.265212974465605" lon="11.542761676071615"><ele>241.66666666666666</ele><time>2026-04-11T03:25:15Z</time></trkpt><trkpt lat="43.26521088392608" lon="11.542672783514659"><ele>240.5</ele><time>2026-04-11T03:25:16Z</time></trkpt><trkpt lat="43.2652201120581" lon="11.542515040567732"><ele>239.33333333333331</ele><time>2026-04-11T03:25:18Z</time></trkpt><trkpt lat="43.26525033344293" lon="11.542389368592412"><ele>238.16666666666666</ele><time>2026-04-11T03:25:20Z</time></trkpt><trkpt lat="43.2652841066142" lon="11.542297101619722"><ele>237.0</ele><time>2026-04-11T03:25:22Z</time></trkpt><trkpt lat="43.265315935848136" lon="11.542210385860042"><ele>237.0</ele><time>2026-04-11T03:25:24Z</time></trkpt><trkpt lat="43.26534865672946" lon="11.542117579084747"><ele>237.0</ele><time>2026-04-11T03:25:26Z</time></trkpt><trkpt lat="43.26538265516406" lon="11.54200891354667"><ele>237.0</ele><time>2026-04-11T03:25:28Z</time></trkpt><trkpt lat="43.26539771392064" lon="11.54188358759761"><ele>237.0</ele><time>2026-04-11T03:25:30Z</time></trkpt><trkpt lat="43.265422525908534" lon="11.541763801335236"><ele>237.0</ele><time>2026-04-11T03:25:33Z</time></trkpt><trkpt lat="43.26544486526841" lon="11.541657845447963"><ele>237.0</ele><time>2026-04-11T03:25:35Z</time></trkpt><trkpt lat="43.265467086010425" lon="11.541551365042272"><ele>237.16666666666666</ele><time>2026-04-11T03:25:36Z</time></trkpt><trkpt lat="43.265517876409966" lon="11.541433367820158"><ele>237.33333333333331</ele><time>2026-04-11T03:25:38Z</time></trkpt><trkpt lat="43.265531298608025" lon="11.541317413092225"><ele>237.5</ele><time>2026-04-11T03:25:40Z</time></trkpt><trkpt lat="43.2655444227499" lon="11.541196232140257"><ele>237.66666666666666</ele><time>2026-04-11T03:25:42Z</time></trkpt><trkpt lat="43.265554193096136" lon="11.541081103464764"><ele>237.83333333333331</ele><time>2026-04-11T03:25:46Z</time></trkpt><trkpt lat="43.26556185413109" lon="11.540959780564698"><ele>238.0</ele><time>2026-04-11T03:25:48Z</time></trkpt><trkpt lat="43.265567982732094" lon="11.540864335387806"><ele>238.0</ele><time>2026-04-11T03:25:49Z</time></trkpt><trkpt lat="43.265580958646524" lon="11.54075377712754"><ele>238.0</ele><time>2026-04-11T03:25:51Z</time></trkpt><trkpt lat="43.26560093661331" lon="11.54062696717487"><ele>238.0</ele><time>2026-04-11T03:25:54Z</time></trkpt><trkpt lat="43.26566185027439" lon="11.540495285308797"><ele>238.0</ele><time>2026-04-11T03:25:55Z</time></trkpt><trkpt lat="43.26572770676302" lon="11.540392524055239"><ele>238.0</ele><time>2026-04-11T03:25:57Z</time></trkpt><trkpt lat="43.26580192846672" lon="11.540298521383123"><ele>239.8</ele><time>2026-04-11T03:25:59Z</time></trkpt><trkpt lat="43.26586663175642" lon="11.540183785062947"><ele>241.60000000000002</ele><time>2026-04-11T03:26:01Z</time></trkpt><trkpt lat="43.26594040609758" lon="11.540078732819225"><ele>243.39999999999998</ele><time>2026-04-11T03:26:03Z</time></trkpt><trkpt lat="43.26601695747021" lon="11.539962516345724"><ele>245.2</ele><time>2026-04-11T03:26:05Z</time></trkpt><trkpt lat="43.26609918041566" lon="11.53984993441608"><ele>247.0</ele><time>2026-04-11T03:26:07Z</time></trkpt><trkpt lat="43.26617306131368" lon="11.539738471131882"><ele>247.0</ele><time>2026-04-11T03:26:09Z</time></trkpt><trkpt lat="43.266233545809705" lon="11.539632901450368"><ele>247.0</ele><time>2026-04-11T03:26:11Z</time></trkpt><trkpt lat="43.26630208348471" lon="11.539547343903408"><ele>247.0</ele><time>2026-04-11T03:26:13Z</time></trkpt><trkpt lat="43.26636154779176" lon="11.539427561419272"><ele>247.0</ele><time>2026-04-11T03:26:15Z</time></trkpt><trkpt lat="43.26642733281501" lon="11.539301045659757"><ele>247.0</ele><time>2026-04-11T03:26:17Z</time></trkpt><trkpt lat="43.26649443567741" lon="11.539183953491529"><ele>245.49999999999997</ele><time>2026-04-11T03:26:19Z</time></trkpt><trkpt lat="43.2665569401645" lon="11.539112170407833"><ele>244.0</ele><time>2026-04-11T03:26:21Z</time></trkpt><trkpt lat="43.266614916035955" lon="11.53907042494374"><ele>242.5</ele><time>2026-04-11T03:26:23Z</time></trkpt><trkpt lat="43.266686703321234" lon="11.539030507727617"><ele>241.0</ele><time>2026-04-11T03:26:25Z</time></trkpt><trkpt lat="43.26678015432682" lon="11.538981858264469"><ele>239.49999999999997</ele><time>2026-04-11T03:26:27Z</time></trkpt><trkpt lat="43.266884264360755" lon="11.538925965412247"><ele>238.0</ele><time>2026-04-11T03:26:29Z</time></trkpt><trkpt lat="43.26698823681368" lon="11.538863176804357"><ele>238.0</ele><time>2026-04-11T03:26:31Z</time></trkpt><trkpt lat="43.26709856129144" lon="11.538795312292686"><ele>238.0</ele><time>2026-04-11T03:26:33Z</time></trkpt><trkpt lat="43.267203105603706" lon="11.538728665878715"><ele>238.0</ele><time>2026-04-11T03:26:35Z</time></trkpt><trkpt lat="43.26730451918547" lon="11.538662127698059"><ele>238.0</ele><time>2026-04-11T03:26:37Z</time></trkpt><trkpt lat="43.26740553792428" lon="11.538593870852633"><ele>237.0</ele><time>2026-04-11T03:26:39Z</time></trkpt><trkpt lat="43.26750914250017" lon="11.538522169858748"><ele>236.0</ele><time>2026-04-11T03:26:41Z</time></trkpt><trkpt lat="43.26759591495224" lon="11.538462117807704"><ele>235.0</ele><time>2026-04-11T03:26:43Z</time></trkpt><trkpt lat="43.267678849786336" lon="11.538404721654324"><ele>234.0</ele><time>2026-04-11T03:26:45Z</time></trkpt><trkpt lat="43.26776276181551" lon="11.538346649191183"><ele>233.0</ele><time>2026-04-11T03:26:47Z</time></trkpt><trkpt lat="43.2678518290957" lon="11.538283638278104"><ele>233.0</ele><time>2026-04-11T03:26:49Z</time></trkpt><trkpt lat="43.267941725590454" lon="11.538219523246608"><ele>233.0</ele><time>2026-04-11T03:26:51Z</time></trkpt><trkpt lat="43.268031870838904" lon="11.538154758227996"><ele>233.0</ele><time>2026-04-11T03:26:53Z</time></trkpt><trkpt lat="43.26813054854495" lon="11.538081934960372"><ele>233.0</ele><time>2026-04-11T03:26:55Z</time></trkpt><trkpt lat="43.26822861839364" lon="11.53800956027899"><ele>233.0</ele><time>2026-04-11T03:26:57Z</time></trkpt><trkpt lat="43.26832243470187" lon="11.537940324671963"><ele>229.8</ele><time>2026-04-11T03:26:59Z</time></trkpt><trkpt lat="43.268409617473" lon="11.537875984561493"><ele>226.60000000000002</ele><time>2026-04-11T03:27:01Z</time></trkpt><trkpt lat="43.26848990137353" lon="11.537792935819944"><ele>223.39999999999998</ele><time>2026-04-11T03:27:03Z</time></trkpt><trkpt lat="43.26859712652481" lon="11.537750656069232"><ele>220.2</ele><time>2026-04-11T03:27:05Z</time></trkpt><trkpt lat="43.26869771093339" lon="11.537694081349319"><ele>217.0</ele><time>2026-04-11T03:27:07Z</time></trkpt><trkpt lat="43.26881008854694" lon="11.5377009749628"><ele>217.0</ele><time>2026-04-11T03:27:09Z</time></trkpt><trkpt lat="43.268908028018856" lon="11.537726106020319"><ele>217.0</ele><time>2026-04-11T03:27:11Z</time></trkpt><trkpt lat="43.268995910547474" lon="11.537760429411641"><ele>217.0</ele><time>2026-04-11T03:27:13Z</time></trkpt><trkpt lat="43.26907547007414" lon="11.537793940580753"><ele>217.0</ele><time>2026-04-11T03:27:15Z</time></trkpt><trkpt lat="43.26916988340859" lon="11.53781482041452"><ele>217.0</ele><time>2026-04-11T03:27:17Z</time></trkpt><trkpt lat="43.26927493094618" lon="11.537823861883341"><ele>214.2</ele><time>2026-04-11T03:27:19Z</time></trkpt><trkpt lat="43.26938034419866" lon="11.537817070907044"><ele>211.39999999999998</ele><time>2026-04-11T03:27:21Z</time></trkpt><trkpt lat="43.26948424330166" lon="11.537785815485584"><ele>208.60000000000002</ele><time>2026-04-11T03:27:23Z</time></trkpt><trkpt lat="43.26958220963451" lon="11.537750968862586"><ele>205.8</ele><time>2026-04-11T03:27:25Z</time></trkpt><trkpt lat="43.26970551121546" lon="11.5377187069798"><ele>203.0</ele><time>2026-04-11T03:27:27Z</time></trkpt><trkpt lat="43.26976788251024" lon="11.537680055093368"><ele>200.4</ele><time>2026-04-11T03:27:28Z</time></trkpt><trkpt lat="43.26982096299926" lon="11.537623035704266"><ele>197.8</ele><time>2026-04-11T03:27:29Z</time></trkpt><trkpt lat="43.26994076645713" lon="11.537585960330214"><ele>195.2</ele><time>2026-04-11T03:27:31Z</time></trkpt><trkpt lat="43.27006121316014" lon="11.537569121570826"><ele>192.6</ele><time>2026-04-11T03:27:33Z</time></trkpt><trkpt lat="43.27017545743792" lon="11.537586427407229"><ele>190.0</ele><time>2026-04-11T03:27:35Z</time></trkpt><trkpt lat="43.27027717311923" lon="11.53764320879891"><ele>190.0</ele><time>2026-04-11T03:27:37Z</time></trkpt><trkpt lat="43.27033707743182" lon="11.537670201932643"><ele>190.0</ele><time>2026-04-11T03:27:38Z</time></trkpt><trkpt lat="43.270399190167204" lon="11.537692745008203"><ele>190.0</ele><time>2026-04-11T03:27:39Z</time></trkpt><trkpt lat="43.27051611865052" lon="11.537711689664054"><ele>190.0</ele><time>2026-04-11T03:27:41Z</time></trkpt><trkpt lat="43.27061275056333" lon="11.537732574646487"><ele>190.0</ele><time>2026-04-11T03:27:43Z</time></trkpt><trkpt lat="43.270702894395704" lon="11.53777000560396"><ele>190.0</ele><time>2026-04-11T03:27:45Z</time></trkpt><trkpt lat="43.27081880629992" lon="11.537840518547398"><ele>189.0</ele><time>2026-04-11T03:27:47Z</time></trkpt><trkpt lat="43.27088546149248" lon="11.53789023859976"><ele>188.0</ele><time>2026-04-11T03:27:48Z</time></trkpt><trkpt lat="43.27095633503804" lon="11.537948158427852"><ele>187.0</ele><time>2026-04-11T03:27:49Z</time></trkpt><trkpt lat="43.27101633050489" lon="11.538006578279354"><ele>186.0</ele><time>2026-04-11T03:27:50Z</time></trkpt><trkpt lat="43.27106742967469" lon="11.538076573883828"><ele>185.0</ele><time>2026-04-11T03:27:51Z</time></trkpt><trkpt lat="43.27111312565548" lon="11.538143460767163"><ele>184.0</ele><time>2026-04-11T03:27:52Z</time></trkpt><trkpt lat="43.27115779600772" lon="11.538213251056716"><ele>183.0</ele><time>2026-04-11T03:27:53Z</time></trkpt><trkpt lat="43.271227423229334" lon="11.538352423268504"><ele>183.0</ele><time>2026-04-11T03:27:55Z</time></trkpt><trkpt lat="43.271278544972546" lon="11.538464151786396"><ele>183.0</ele><time>2026-04-11T03:27:57Z</time></trkpt><trkpt lat="43.27131341831019" lon="11.538542959734288"><ele>183.0</ele><time>2026-04-11T03:27:59Z</time></trkpt><trkpt lat="43.27134823053018" lon="11.538623579842053"><ele>183.0</ele><time>2026-04-11T03:28:01Z</time></trkpt><trkpt lat="43.27138902452744" lon="11.53871825795071"><ele>183.0</ele><time>2026-04-11T03:28:04Z</time></trkpt><trkpt lat="43.27142625587432" lon="11.538806141475954"><ele>183.0</ele><time>2026-04-11T03:28:08Z</time></trkpt><trkpt lat="43.27149429281003" lon="11.538875660871817"><ele>183.66666666666666</ele><time>2026-04-11T03:28:11Z</time></trkpt><trkpt lat="43.27154302057127" lon="11.538979124470446"><ele>184.33333333333334</ele><time>2026-04-11T03:28:14Z</time></trkpt><trkpt lat="43.27159042224719" lon="11.539093349890852"><ele>185.0</ele><time>2026-04-11T03:28:17Z</time></trkpt><trkpt lat="43.27163642680502" lon="11.539201889175656"><ele>185.66666666666669</ele><time>2026-04-11T03:28:20Z</time></trkpt><trkpt lat="43.27168546673608" lon="11.539306030844637"><ele>186.33333333333334</ele><time>2026-04-11T03:28:23Z</time></trkpt><trkpt lat="43.27172453236759" lon="11.539398260851858"><ele>187.0</ele><time>2026-04-11T03:28:26Z</time></trkpt><trkpt lat="43.271765087740505" lon="11.539483343168397"><ele>187.33333333333334</ele><time>2026-04-11T03:28:29Z</time></trkpt><trkpt lat="43.271797226159485" lon="11.53956640019213"><ele>187.66666666666669</ele><time>2026-04-11T03:28:31Z</time></trkpt><trkpt lat="43.27184554196416" lon="11.53967172857812"><ele>188.0</ele><time>2026-04-11T03:28:34Z</time></trkpt><trkpt lat="43.27189081590196" lon="11.539782412609862"><ele>188.33333333333334</ele><time>2026-04-11T03:28:37Z</time></trkpt><trkpt lat="43.271931065688804" lon="11.53988249835308"><ele>188.66666666666666</ele><time>2026-04-11T03:28:40Z</time></trkpt><trkpt lat="43.271977144980276" lon="11.539991276518013"><ele>189.0</ele><time>2026-04-11T03:28:43Z</time></trkpt><trkpt lat="43.272007847119056" lon="11.540068203554126"><ele>189.0</ele><time>2026-04-11T03:28:45Z</time></trkpt><trkpt lat="43.27204043099642" lon="11.540142813603804"><ele>189.0</ele><time>2026-04-11T03:28:46Z</time></trkpt><trkpt lat="43.272071378545164" lon="11.540228145502052"><ele>189.0</ele><time>2026-04-11T03:28:48Z</time></trkpt><trkpt lat="43.272105271157" lon="11.540322927785942"><ele>189.0</ele><time>2026-04-11T03:28:50Z</time></trkpt><trkpt lat="43.27213845561673" lon="11.540403737943569"><ele>189.0</ele><time>2026-04-11T03:28:52Z</time></trkpt><trkpt lat="43.27216937479012" lon="11.540496298048081"><ele>189.0</ele><time>2026-04-11T03:28:54Z</time></trkpt><trkpt lat="43.27220344512822" lon="11.540575231991662"><ele>189.0</ele><time>2026-04-11T03:28:56Z</time></trkpt><trkpt lat="43.27223746091981" lon="11.540662071284004"><ele>189.33333333333334</ele><time>2026-04-11T03:28:58Z</time></trkpt><trkpt lat="43.27227072205029" lon="11.540750820244497"><ele>189.66666666666666</ele><time>2026-04-11T03:29:00Z</time></trkpt><trkpt lat="43.272304534281936" lon="11.540846822025964"><ele>190.0</ele><time>2026-04-11T03:29:03Z</time></trkpt><trkpt lat="43.27233928648101" lon="11.540950289641572"><ele>190.33333333333331</ele><time>2026-04-11T03:29:06Z</time></trkpt><trkpt lat="43.27237159580758" lon="11.541063848019359"><ele>190.66666666666666</ele><time>2026-04-11T03:29:09Z</time></trkpt><trkpt lat="43.27240048953574" lon="11.541167876051603"><ele>191.0</ele><time>2026-04-11T03:29:12Z</time></trkpt><trkpt lat="43.27242476112426" lon="11.541277359394298"><ele>192.71428571428572</ele><time>2026-04-11T03:29:15Z</time></trkpt><trkpt lat="43.27244112796541" lon="11.541377887403293"><ele>194.42857142857142</ele><time>2026-04-11T03:29:18Z</time></trkpt><trkpt lat="43.27245488090935" lon="11.541463768926572"><ele>196.14285714285714</ele><time>2026-04-11T03:29:21Z</time></trkpt><trkpt lat="43.272466617230904" lon="11.54155793330313"><ele>197.85714285714286</ele><time>2026-04-11T03:29:24Z</time></trkpt><trkpt lat="43.272477577802086" lon="11.54165330651313"><ele>199.57142857142856</ele><time>2026-04-11T03:29:27Z</time></trkpt><trkpt lat="43.27249111268593" lon="11.54174060176612"><ele>201.28571428571428</ele><time>2026-04-11T03:29:30Z</time></trkpt><trkpt lat="43.272507950301396" lon="11.541842375462277"><ele>203.0</ele><time>2026-04-11T03:29:34Z</time></trkpt><trkpt lat="43.27251635482175" lon="11.541945813009566"><ele>203.0</ele><time>2026-04-11T03:29:38Z</time></trkpt><trkpt lat="43.27252615247625" lon="11.542043168857601"><ele>203.0</ele><time>2026-04-11T03:29:42Z</time></trkpt><trkpt lat="43.27253835445311" lon="11.542141261621028"><ele>203.0</ele><time>2026-04-11T03:29:46Z</time></trkpt><trkpt lat="43.272544779028465" lon="11.5422343928549"><ele>203.0</ele><time>2026-04-11T03:29:50Z</time></trkpt><trkpt lat="43.27255994164532" lon="11.542324051252812"><ele>203.0</ele><time>2026-04-11T03:29:54Z</time></trkpt><trkpt lat="43.2725709176798" lon="11.542431390762404"><ele>203.0</ele><time>2026-04-11T03:29:58Z</time></trkpt><trkpt lat="43.272592897594876" lon="11.54253412439345"><ele>203.0</ele><time>2026-04-11T03:30:02Z</time></trkpt><trkpt lat="43.27260685165312" lon="11.5426299738817"><ele>204.14285714285714</ele><time>2026-04-11T03:30:06Z</time></trkpt><trkpt lat="43.272635585990656" lon="11.542715924771109"><ele>205.28571428571428</ele><time>2026-04-11T03:30:10Z</time></trkpt><trkpt lat="43.27266800488453" lon="11.542797884407397"><ele>206.42857142857144</ele><time>2026-04-11T03:30:14Z</time></trkpt><trkpt lat="43.272710047642256" lon="11.54287187767641"><ele>207.57142857142856</ele><time>2026-04-11T03:30:18Z</time></trkpt><trkpt lat="43.272763090295776" lon="11.542921658860179"><ele>208.71428571428572</ele><time>2026-04-11T03:30:22Z</time></trkpt><trkpt lat="43.272840311531155" lon="11.542935031287517"><ele>209.85714285714286</ele><time>2026-04-11T03:30:27Z</time></trkpt><trkpt lat="43.27291413263851" lon="11.54291120087821"><ele>211.0</ele><time>2026-04-11T03:30:32Z</time></trkpt><trkpt lat="43.2729907675929" lon="11.54288438490485"><ele>212.28571428571428</ele><time>2026-04-11T03:30:37Z</time></trkpt><trkpt lat="43.27306195349496" lon="11.542882790882826"><ele>213.57142857142858</ele><time>2026-04-11T03:30:41Z</time></trkpt><trkpt lat="43.27312617196622" lon="11.542899527568837"><ele>214.85714285714283</ele><time>2026-04-11T03:30:45Z</time></trkpt><trkpt lat="43.27318921851305" lon="11.542924873064303"><ele>216.14285714285714</ele><time>2026-04-11T03:30:49Z</time></trkpt><trkpt lat="43.27324989103262" lon="11.542958733188497"><ele>217.42857142857142</ele><time>2026-04-11T03:30:53Z</time></trkpt><trkpt lat="43.27331841150403" lon="11.543005123933119"><ele>218.7142857142857</ele><time>2026-04-11T03:30:58Z</time></trkpt><trkpt lat="43.27337943986824" lon="11.543070727076259"><ele>220.0</ele><time>2026-04-11T03:31:03Z</time></trkpt><trkpt lat="43.273434004151156" lon="11.543116785814068"><ele>221.7142857142857</ele><time>2026-04-11T03:31:07Z</time></trkpt><trkpt lat="43.27349277124921" lon="11.543185181809319"><ele>223.42857142857144</ele><time>2026-04-11T03:31:12Z</time></trkpt><trkpt lat="43.27354793972255" lon="11.543254495519909"><ele>225.14285714285717</ele><time>2026-04-11T03:31:17Z</time></trkpt><trkpt lat="43.2735978422188" lon="11.543330422578965"><ele>226.85714285714286</ele><time>2026-04-11T03:31:22Z</time></trkpt><trkpt lat="43.27362368126535" lon="11.543422744723056"><ele>228.57142857142858</ele><time>2026-04-11T03:31:26Z</time></trkpt><trkpt lat="43.273634587066866" lon="11.543531598814365"><ele>230.2857142857143</ele><time>2026-04-11T03:31:30Z</time></trkpt><trkpt lat="43.273626344095085" lon="11.543619499952689"><ele>232.00000000000003</ele><time>2026-04-11T03:31:33Z</time></trkpt><trkpt lat="43.273599556827655" lon="11.543728139796789"><ele>233.14285714285717</ele><time>2026-04-11T03:31:37Z</time></trkpt><trkpt lat="43.27356306088359" lon="11.54382160198571"><ele>234.28571428571428</ele><time>2026-04-11T03:31:41Z</time></trkpt><trkpt lat="43.27350910562823" lon="11.543901469168098"><ele>235.42857142857144</ele><time>2026-04-11T03:31:45Z</time></trkpt><trkpt lat="43.27346643607058" lon="11.543976575433096"><ele>236.57142857142858</ele><time>2026-04-11T03:31:49Z</time></trkpt><trkpt lat="43.27342232794883" lon="11.544056680295842"><ele>237.71428571428572</ele><time>2026-04-11T03:31:54Z</time></trkpt><trkpt lat="43.27337937263062" lon="11.544121774478432"><ele>238.85714285714286</ele><time>2026-04-11T03:31:59Z</time></trkpt><trkpt lat="43.27332537436442" lon="11.544194660275759"><ele>240.0</ele><time>2026-04-11T03:32:04Z</time></trkpt><trkpt lat="43.27328441856941" lon="11.54428628714981"><ele>240.0</ele><time>2026-04-11T03:32:08Z</time></trkpt><trkpt lat="43.27324554816784" lon="11.544378349096553"><ele>240.0</ele><time>2026-04-11T03:32:12Z</time></trkpt><trkpt lat="43.27321788427496" lon="11.544467658680743"><ele>240.0</ele><time>2026-04-11T03:32:16Z</time></trkpt><trkpt lat="43.27318972174092" lon="11.544573310083624"><ele>240.0</ele><time>2026-04-11T03:32:20Z</time></trkpt><trkpt lat="43.27319115089723" lon="11.544690463852975"><ele>240.0</ele><time>2026-04-11T03:32:24Z</time></trkpt><trkpt lat="43.27318716282978" lon="11.544813795838321"><ele>240.0</ele><time>2026-04-11T03:32:28Z</time></trkpt><trkpt lat="43.27318049983712" lon="11.544909892956191"><ele>240.83333333333334</ele><time>2026-04-11T03:32:31Z</time></trkpt><trkpt lat="43.27317585225465" lon="11.545009012598058"><ele>241.66666666666669</ele><time>2026-04-11T03:32:34Z</time></trkpt><trkpt lat="43.27317240191233" lon="11.545107259086485"><ele>242.5</ele><time>2026-04-11T03:32:37Z</time></trkpt><trkpt lat="43.273168913490466" lon="11.545221319598122"><ele>243.33333333333334</ele><time>2026-04-11T03:32:40Z</time></trkpt><trkpt lat="43.27316567605647" lon="11.545329379617092"><ele>244.16666666666669</ele><time>2026-04-11T03:32:43Z</time></trkpt><trkpt lat="43.27315588432245" lon="11.54543734841742"><ele>245.0</ele><time>2026-04-11T03:32:46Z</time></trkpt><trkpt lat="43.273158689802806" lon="11.545549517517053"><ele>246.16666666666669</ele><time>2026-04-11T03:32:49Z</time></trkpt><trkpt lat="43.27316574434579" lon="11.545658869208783"><ele>247.33333333333334</ele><time>2026-04-11T03:32:52Z</time></trkpt><trkpt lat="43.273176634099755" lon="11.545758181592618"><ele>248.5</ele><time>2026-04-11T03:32:55Z</time></trkpt><trkpt lat="43.27318995784793" lon="11.545867143042312"><ele>249.66666666666669</ele><time>2026-04-11T03:32:58Z</time></trkpt><trkpt lat="43.27321154689246" lon="11.545972948058592"><ele>250.83333333333334</ele><time>2026-04-11T03:33:00Z</time></trkpt><trkpt lat="43.273241610764266" lon="11.546083373336588"><ele>252.0</ele><time>2026-04-11T03:33:04Z</time></trkpt><trkpt lat="43.27326106230097" lon="11.546170019331333"><ele>253.5</ele><time>2026-04-11T03:33:07Z</time></trkpt><trkpt lat="43.273278089256124" lon="11.546271023237242"><ele>255.0</ele><time>2026-04-11T03:33:11Z</time></trkpt><trkpt lat="43.273313096718006" lon="11.546359599806065"><ele>256.5</ele><time>2026-04-11T03:33:15Z</time></trkpt><trkpt lat="43.27334609711626" lon="11.546460752041343"><ele>258.0</ele><time>2026-04-11T03:33:19Z</time></trkpt><trkpt lat="43.27339017687687" lon="11.546555162650174"><ele>259.5</ele><time>2026-04-11T03:33:23Z</time></trkpt><trkpt lat="43.2734253395384" lon="11.546649222731993"><ele>261.0</ele><time>2026-04-11T03:33:27Z</time></trkpt><trkpt lat="43.27346966604302" lon="11.546740537609116"><ele>261.0</ele><time>2026-04-11T03:33:31Z</time></trkpt><trkpt lat="43.273518376855925" lon="11.546820227890901"><ele>261.0</ele><time>2026-04-11T03:33:35Z</time></trkpt><trkpt lat="43.27355860231508" lon="11.546903702778007"><ele>261.0</ele><time>2026-04-11T03:33:39Z</time></trkpt><trkpt lat="43.273618224630184" lon="11.546960373201633"><ele>261.0</ele><time>2026-04-11T03:33:43Z</time></trkpt><trkpt lat="43.2736813228962" lon="11.546999121147902"><ele>261.0</ele><time>2026-04-11T03:33:47Z</time></trkpt><trkpt lat="43.27375570730173" lon="11.547028172541697"><ele>261.0</ele><time>2026-04-11T03:33:51Z</time></trkpt><trkpt lat="43.27382972009876" lon="11.547052403089285"><ele>261.0</ele><time>2026-04-11T03:33:56Z</time></trkpt><trkpt lat="43.273896237100445" lon="11.547067931719377"><ele>263.57142857142856</ele><time>2026-04-11T03:34:00Z</time></trkpt><trkpt lat="43.27397198599236" lon="11.547075347747747"><ele>266.1428571428571</ele><time>2026-04-11T03:34:05Z</time></trkpt><trkpt lat="43.27404328007744" lon="11.547075370977478"><ele>268.71428571428567</ele><time>2026-04-11T03:34:09Z</time></trkpt><trkpt lat="43.27411167714364" lon="11.547079859537403"><ele>271.2857142857143</ele><time>2026-04-11T03:34:13Z</time></trkpt><trkpt lat="43.27418819084371" lon="11.547076338149763"><ele>273.85714285714283</ele><time>2026-04-11T03:34:18Z</time></trkpt><trkpt lat="43.27425388755027" lon="11.547070236139444"><ele>276.4285714285714</ele><time>2026-04-11T03:34:22Z</time></trkpt><trkpt lat="43.274326666001116" lon="11.547057172816164"><ele>279.0</ele><time>2026-04-11T03:34:26Z</time></trkpt><trkpt lat="43.274404786737335" lon="11.547047096334877"><ele>278.99999999999994</ele><time>2026-04-11T03:34:30Z</time></trkpt><trkpt lat="43.2744779493482" lon="11.5470376792234"><ele>279.0</ele><time>2026-04-11T03:34:34Z</time></trkpt><trkpt lat="43.27455983474545" lon="11.547049211003381"><ele>279.0</ele><time>2026-04-11T03:34:38Z</time></trkpt><trkpt lat="43.27463007692695" lon="11.547088902760528"><ele>279.0</ele><time>2026-04-11T03:34:42Z</time></trkpt><trkpt lat="43.27468822341435" lon="11.547127345180101"><ele>279.0</ele><time>2026-04-11T03:34:46Z</time></trkpt><trkpt lat="43.27474685460847" lon="11.547160529666337"><ele>278.99999999999994</ele><time>2026-04-11T03:34:50Z</time></trkpt><trkpt lat="43.27480447604532" lon="11.547206936262373"><ele>279.0</ele><time>2026-04-11T03:34:54Z</time></trkpt><trkpt lat="43.27486064819278" lon="11.547252791064713"><ele>279.99999999999994</ele><time>2026-04-11T03:34:58Z</time></trkpt><trkpt lat="43.27491991863437" lon="11.547304735868687"><ele>281.0</ele><time>2026-04-11T03:35:02Z</time></trkpt><trkpt lat="43.27497358904406" lon="11.54735261640968"><ele>282.0</ele><time>2026-04-11T03:35:06Z</time></trkpt><trkpt lat="43.275032015199486" lon="11.547400018514903"><ele>283.0</ele><time>2026-04-11T03:35:10Z</time></trkpt><trkpt lat="43.275090589522065" lon="11.547447073695919"><ele>284.0</ele><time>2026-04-11T03:35:14Z</time></trkpt><trkpt lat="43.27514910849316" lon="11.547498952139138"><ele>284.99999999999994</ele><time>2026-04-11T03:35:18Z</time></trkpt><trkpt lat="43.275207929501164" lon="11.547543170895274"><ele>286.0</ele><time>2026-04-11T03:35:22Z</time></trkpt><trkpt lat="43.27527499050843" lon="11.547598550810694"><ele>285.99999999999994</ele><time>2026-04-11T03:35:26Z</time></trkpt><trkpt lat="43.27533357477371" lon="11.547652427010517"><ele>286.0</ele><time>2026-04-11T03:35:30Z</time></trkpt><trkpt lat="43.275387078038165" lon="11.547704748046954"><ele>286.0</ele><time>2026-04-11T03:35:34Z</time></trkpt><trkpt lat="43.27544880755826" lon="11.54774792214096"><ele>286.0</ele><time>2026-04-11T03:35:38Z</time></trkpt><trkpt lat="43.275501257320386" lon="11.54780531385573"><ele>286.0</ele><time>2026-04-11T03:35:42Z</time></trkpt><trkpt lat="43.275561195591365" lon="11.54784465276147"><ele>285.99999999999994</ele><time>2026-04-11T03:35:46Z</time></trkpt><trkpt lat="43.275621095493435" lon="11.5478911736213"><ele>286.0</ele><time>2026-04-11T03:35:50Z</time></trkpt><trkpt lat="43.27569029639777" lon="11.547931947359197"><ele>288.1428571428571</ele><time>2026-04-11T03:35:54Z</time></trkpt><trkpt lat="43.27576068676521" lon="11.547966421296202"><ele>290.2857142857143</ele><time>2026-04-11T03:35:58Z</time></trkpt><trkpt lat="43.27582601846276" lon="11.548003824154295"><ele>292.42857142857144</ele><time>2026-04-11T03:36:02Z</time></trkpt><trkpt lat="43.275886051014744" lon="11.548033904181235"><ele>294.57142857142856</ele><time>2026-04-11T03:36:05Z</time></trkpt><trkpt lat="43.27595423221764" lon="11.548063745470454"><ele>296.7142857142857</ele><time>2026-04-11T03:36:08Z</time></trkpt><trkpt lat="43.27602867881441" lon="11.548089305115932"><ele>298.85714285714283</ele><time>2026-04-11T03:36:12Z</time></trkpt><trkpt lat="43.2760975424485" lon="11.548113188319618"><ele>301.0</ele><time>2026-04-11T03:36:15Z</time></trkpt><trkpt lat="43.27617324102252" lon="11.548149691476938"><ele>301.0</ele><time>2026-04-11T03:36:17Z</time></trkpt><trkpt lat="43.27623667909111" lon="11.548158283368428"><ele>301.0</ele><time>2026-04-11T03:36:20Z</time></trkpt><trkpt lat="43.27631228428726" lon="11.548194137818216"><ele>301.0</ele><time>2026-04-11T03:36:23Z</time></trkpt><trkpt lat="43.276401802664864" lon="11.54822743917299"><ele>301.0</ele><time>2026-04-11T03:36:26Z</time></trkpt><trkpt lat="43.27646756361205" lon="11.548258817122559"><ele>301.0</ele><time>2026-04-11T03:36:28Z</time></trkpt><trkpt lat="43.27654455555101" lon="11.548296669525275"><ele>301.0</ele><time>2026-04-11T03:36:30Z</time></trkpt><trkpt lat="43.27662744054191" lon="11.548354344064498"><ele>301.40000000000003</ele><time>2026-04-11T03:36:32Z</time></trkpt><trkpt lat="43.27672060836166" lon="11.548411052367227"><ele>301.8</ele><time>2026-04-11T03:36:34Z</time></trkpt><trkpt lat="43.276810311607576" lon="11.548491852301677"><ele>302.20000000000005</ele><time>2026-04-11T03:36:36Z</time></trkpt><trkpt lat="43.27688143479175" lon="11.548593884448143"><ele>302.6</ele><time>2026-04-11T03:36:38Z</time></trkpt><trkpt lat="43.2769664982964" lon="11.548677566406328"><ele>303.0</ele><time>2026-04-11T03:36:40Z</time></trkpt><trkpt lat="43.27704994708147" lon="11.548759659880915"><ele>303.0</ele><time>2026-04-11T03:36:42Z</time></trkpt><trkpt lat="43.277149603640424" lon="11.548826202483236"><ele>303.0</ele><time>2026-04-11T03:36:44Z</time></trkpt><trkpt lat="43.27724963883649" lon="11.548920470251478"><ele>303.0</ele><time>2026-04-11T03:36:46Z</time></trkpt><trkpt lat="43.27734816350238" lon="11.548998702784964"><ele>303.0</ele><time>2026-04-11T03:36:48Z</time></trkpt><trkpt lat="43.27742960552936" lon="11.549069820886203"><ele>303.0</ele><time>2026-04-11T03:36:50Z</time></trkpt><trkpt lat="43.277503860057124" lon="11.549163643791097"><ele>299.5</ele><time>2026-04-11T03:36:52Z</time></trkpt><trkpt lat="43.27759551014645" lon="11.549245878634434"><ele>296.0</ele><time>2026-04-11T03:36:54Z</time></trkpt><trkpt lat="43.2777027667688" lon="11.549311952741899"><ele>292.5</ele><time>2026-04-11T03:36:56Z</time></trkpt><trkpt lat="43.27781081466028" lon="11.549387066509679"><ele>289.0</ele><time>2026-04-11T03:36:58Z</time></trkpt><trkpt lat="43.27794010715294" lon="11.549423725661718"><ele>289.0</ele><time>2026-04-11T03:37:00Z</time></trkpt><trkpt lat="43.27800928887017" lon="11.549429500507424"><ele>289.0</ele><time>2026-04-11T03:37:01Z</time></trkpt><trkpt lat="43.27812770175216" lon="11.549428613732411"><ele>289.0</ele><time>2026-04-11T03:37:03Z</time></trkpt><trkpt lat="43.278243031819784" lon="11.549446940567371"><ele>289.0</ele><time>2026-04-11T03:37:05Z</time></trkpt><trkpt lat="43.2783680502828" lon="11.549448433667568"><ele>289.0</ele><time>2026-04-11T03:37:07Z</time></trkpt><trkpt lat="43.27844062078505" lon="11.54944987340637"><ele>286.8571428571429</ele><time>2026-04-11T03:37:08Z</time></trkpt><trkpt lat="43.278515422521195" lon="11.549452011507693"><ele>284.7142857142857</ele><time>2026-04-11T03:37:09Z</time></trkpt><trkpt lat="43.27858542983592" lon="11.54945401257998"><ele>282.57142857142856</ele><time>2026-04-11T03:37:10Z</time></trkpt><trkpt lat="43.27865579730727" lon="11.549456575009147"><ele>280.42857142857144</ele><time>2026-04-11T03:37:11Z</time></trkpt><trkpt lat="43.278724215333675" lon="11.54946238662641"><ele>278.2857142857143</ele><time>2026-04-11T03:37:12Z</time></trkpt><trkpt lat="43.27879062804501" lon="11.549473092132672"><ele>276.14285714285717</ele><time>2026-04-11T03:37:13Z</time></trkpt><trkpt lat="43.278856380239304" lon="11.549489871217023"><ele>274.0</ele><time>2026-04-11T03:37:14Z</time></trkpt><trkpt lat="43.27894792235508" lon="11.549542126167053"><ele>273.59999999999997</ele><time>2026-04-11T03:37:16Z</time></trkpt><trkpt lat="43.27902965731107" lon="11.5495980894514"><ele>273.2</ele><time>2026-04-11T03:37:18Z</time></trkpt><trkpt lat="43.2791269990025" lon="11.549671988034397"><ele>272.79999999999995</ele><time>2026-04-11T03:37:20Z</time></trkpt><trkpt lat="43.27923609588389" lon="11.549750199194541"><ele>272.4</ele><time>2026-04-11T03:37:22Z</time></trkpt><trkpt lat="43.27929557572942" lon="11.549792698129938"><ele>272.0</ele><time>2026-04-11T03:37:23Z</time></trkpt><trkpt lat="43.27936678042777" lon="11.549840384471157"><ele>272.0</ele><time>2026-04-11T03:37:24Z</time></trkpt><trkpt lat="43.27944216224198" lon="11.549881582537628"><ele>272.0</ele><time>2026-04-11T03:37:25Z</time></trkpt><trkpt lat="43.27952019199876" lon="11.5499144347832"><ele>272.0</ele><time>2026-04-11T03:37:26Z</time></trkpt><trkpt lat="43.27959895809949" lon="11.54993650727237"><ele>272.0</ele><time>2026-04-11T03:37:27Z</time></trkpt><trkpt lat="43.27967671848355" lon="11.549949084503478"><ele>272.0</ele><time>2026-04-11T03:37:28Z</time></trkpt><trkpt lat="43.27974745168056" lon="11.54994949305288"><ele>272.0</ele><time>2026-04-11T03:37:29Z</time></trkpt><trkpt lat="43.27985651800669" lon="11.549943605294843"><ele>271.5</ele><time>2026-04-11T03:37:31Z</time></trkpt><trkpt lat="43.27997172432838" lon="11.54992436704208"><ele>271.0</ele><time>2026-04-11T03:37:33Z</time></trkpt><trkpt lat="43.28003611118274" lon="11.549903958703318"><ele>270.5</ele><time>2026-04-11T03:37:34Z</time></trkpt><trkpt lat="43.28010338854923" lon="11.54987405247248"><ele>270.0</ele><time>2026-04-11T03:37:35Z</time></trkpt><trkpt lat="43.28017507752827" lon="11.549839345352762"><ele>269.5</ele><time>2026-04-11T03:37:36Z</time></trkpt><trkpt lat="43.280246373197556" lon="11.549796916431957"><ele>269.0</ele><time>2026-04-11T03:37:37Z</time></trkpt><trkpt lat="43.280308483096434" lon="11.549759931002884"><ele>269.0</ele><time>2026-04-11T03:37:38Z</time></trkpt><trkpt lat="43.28036585804214" lon="11.549722422377615"><ele>269.0</ele><time>2026-04-11T03:37:39Z</time></trkpt><trkpt lat="43.28045792665993" lon="11.549657347299163"><ele>269.0</ele><time>2026-04-11T03:37:41Z</time></trkpt><trkpt lat="43.28051642262532" lon="11.549612854506083"><ele>269.0</ele><time>2026-04-11T03:37:43Z</time></trkpt><trkpt lat="43.28059181489209" lon="11.549553398036192"><ele>269.0</ele><time>2026-04-11T03:37:46Z</time></trkpt><trkpt lat="43.28065822975802" lon="11.54949118372904"><ele>269.0</ele><time>2026-04-11T03:37:49Z</time></trkpt><trkpt lat="43.280712543930406" lon="11.549413203006628"><ele>271.0</ele><time>2026-04-11T03:37:52Z</time></trkpt><trkpt lat="43.28075898288331" lon="11.549333267600879"><ele>273.0</ele><time>2026-04-11T03:37:55Z</time></trkpt><trkpt lat="43.2808070356512" lon="11.549252639604473"><ele>275.0</ele><time>2026-04-11T03:37:58Z</time></trkpt><trkpt lat="43.28085152187408" lon="11.549168539363938"><ele>277.0</ele><time>2026-04-11T03:38:02Z</time></trkpt><trkpt lat="43.28086754083731" lon="11.549084792289335"><ele>279.0</ele><time>2026-04-11T03:38:05Z</time></trkpt><trkpt lat="43.28092207065365" lon="11.5489991051412"><ele>281.0</ele><time>2026-04-11T03:38:09Z</time></trkpt><trkpt lat="43.28097826734727" lon="11.5489061153815"><ele>281.00000000000006</ele><time>2026-04-11T03:38:13Z</time></trkpt><trkpt lat="43.28103366681043" lon="11.548838215759178"><ele>281.0</ele><time>2026-04-11T03:38:17Z</time></trkpt><trkpt lat="43.28107767574654" lon="11.548769891058777"><ele>281.0</ele><time>2026-04-11T03:38:20Z</time></trkpt><trkpt lat="43.28113681189375" lon="11.548712675706447"><ele>281.0</ele><time>2026-04-11T03:38:24Z</time></trkpt><trkpt lat="43.28119492218753" lon="11.548643848216855"><ele>281.0</ele><time>2026-04-11T03:38:28Z</time></trkpt><trkpt lat="43.28126281902489" lon="11.548585363393919"><ele>281.00000000000006</ele><time>2026-04-11T03:38:32Z</time></trkpt><trkpt lat="43.281316916720606" lon="11.548527241253169"><ele>281.0</ele><time>2026-04-11T03:38:36Z</time></trkpt><trkpt lat="43.28137468681416" lon="11.548454842865423"><ele>283.8571428571429</ele><time>2026-04-11T03:38:40Z</time></trkpt><trkpt lat="43.28144150449264" lon="11.548395214909338"><ele>286.7142857142857</ele><time>2026-04-11T03:38:44Z</time></trkpt><trkpt lat="43.28149569142001" lon="11.548339677080993"><ele>289.57142857142856</ele><time>2026-04-11T03:38:47Z</time></trkpt><trkpt lat="43.28154914815063" lon="11.54828218879496"><ele>292.42857142857144</ele><time>2026-04-11T03:38:50Z</time></trkpt><trkpt lat="43.28160453941232" lon="11.548233677724483"><ele>295.2857142857143</ele><time>2026-04-11T03:38:53Z</time></trkpt><trkpt lat="43.281673560362336" lon="11.54817608175096"><ele>298.14285714285717</ele><time>2026-04-11T03:38:57Z</time></trkpt><trkpt lat="43.28174237403698" lon="11.548138612087534"><ele>301.0</ele><time>2026-04-11T03:39:01Z</time></trkpt><trkpt lat="43.281818097141624" lon="11.548110907252862"><ele>301.0</ele><time>2026-04-11T03:39:05Z</time></trkpt><trkpt lat="43.28189980654638" lon="11.548106698692774"><ele>301.0</ele><time>2026-04-11T03:39:09Z</time></trkpt><trkpt lat="43.28197301681709" lon="11.548125038955405"><ele>301.0</ele><time>2026-04-11T03:39:13Z</time></trkpt><trkpt lat="43.28204397811583" lon="11.548144349108048"><ele>301.0</ele><time>2026-04-11T03:39:17Z</time></trkpt><trkpt lat="43.28210939573962" lon="11.548164601419868"><ele>301.0</ele><time>2026-04-11T03:42:41Z</time></trkpt><trkpt lat="43.28217249711968" lon="11.54812727270496"><ele>301.0</ele><time>2026-04-11T03:42:43Z</time></trkpt><trkpt lat="43.28224612574221" lon="11.548118790587356"><ele>301.0</ele><time>2026-04-11T03:42:45Z</time></trkpt><trkpt lat="43.28232215628995" lon="11.548112742980404"><ele>302.40000000000003</ele><time>2026-04-11T03:42:47Z</time></trkpt><trkpt lat="43.28240481144941" lon="11.548146542236884"><ele>303.8</ele><time>2026-04-11T03:42:49Z</time></trkpt><trkpt lat="43.28248876045558" lon="11.548146530841274"><ele>305.20000000000005</ele><time>2026-04-11T03:42:51Z</time></trkpt><trkpt lat="43.282583559117555" lon="11.548164450475566"><ele>306.6</ele><time>2026-04-11T03:42:53Z</time></trkpt><trkpt lat="43.28268003172263" lon="11.548190123613416"><ele>308.0</ele><time>2026-04-11T03:42:55Z</time></trkpt><trkpt lat="43.2827825986835" lon="11.548223065941572"><ele>308.0</ele><time>2026-04-11T03:42:57Z</time></trkpt><trkpt lat="43.282882512679535" lon="11.548289077197412"><ele>308.0</ele><time>2026-04-11T03:42:59Z</time></trkpt><trkpt lat="43.28297393927098" lon="11.548348406272426"><ele>308.0</ele><time>2026-04-11T03:43:01Z</time></trkpt><trkpt lat="43.28306481253096" lon="11.548414384846957"><ele>308.0</ele><time>2026-04-11T03:43:03Z</time></trkpt><trkpt lat="43.28313977948593" lon="11.548485834805472"><ele>308.0</ele><time>2026-04-11T03:43:05Z</time></trkpt><trkpt lat="43.28321921908002" lon="11.548564907413777"><ele>309.6</ele><time>2026-04-11T03:43:07Z</time></trkpt><trkpt lat="43.28329883039192" lon="11.548627263858016"><ele>311.20000000000005</ele><time>2026-04-11T03:43:09Z</time></trkpt><trkpt lat="43.28337184159603" lon="11.548679168169075"><ele>312.8</ele><time>2026-04-11T03:43:11Z</time></trkpt><trkpt lat="43.28344611390979" lon="11.548732184870962"><ele>314.40000000000003</ele><time>2026-04-11T03:43:13Z</time></trkpt><trkpt lat="43.28355274990715" lon="11.548772999066308"><ele>316.0</ele><time>2026-04-11T03:43:15Z</time></trkpt><trkpt lat="43.28366654084057" lon="11.548808463634678"><ele>316.00000000000006</ele><time>2026-04-11T03:43:17Z</time></trkpt><trkpt lat="43.28373212840845" lon="11.548822778409937"><ele>316.0</ele><time>2026-04-11T03:43:18Z</time></trkpt><trkpt lat="43.283797582563146" lon="11.548836474110374"><ele>316.0</ele><time>2026-04-11T03:43:19Z</time></trkpt><trkpt lat="43.28386284717364" lon="11.548849291067114"><ele>316.0</ele><time>2026-04-11T03:43:20Z</time></trkpt><trkpt lat="43.283933845544276" lon="11.548854640413222"><ele>316.0</ele><time>2026-04-11T03:43:21Z</time></trkpt><trkpt lat="43.28400644587876" lon="11.548856356448399"><ele>316.00000000000006</ele><time>2026-04-11T03:43:22Z</time></trkpt><trkpt lat="43.28407215190357" lon="11.548850716715808"><ele>316.0</ele><time>2026-04-11T03:43:23Z</time></trkpt><trkpt lat="43.28413309827506" lon="11.54881807877735"><ele>312.8333333333333</ele><time>2026-04-11T03:43:24Z</time></trkpt><trkpt lat="43.28419747137807" lon="11.548783071840317"><ele>309.66666666666663</ele><time>2026-04-11T03:43:25Z</time></trkpt><trkpt lat="43.28426107824313" lon="11.548741128708443"><ele>306.5</ele><time>2026-04-11T03:43:26Z</time></trkpt><trkpt lat="43.284318618380084" lon="11.548674836249605"><ele>303.3333333333333</ele><time>2026-04-11T03:43:27Z</time></trkpt><trkpt lat="43.28436710810247" lon="11.5486029445388"><ele>300.1666666666667</ele><time>2026-04-11T03:43:28Z</time></trkpt><trkpt lat="43.28443421392249" lon="11.54846242422699"><ele>297.0</ele><time>2026-04-11T03:43:30Z</time></trkpt><trkpt lat="43.28448225499123" lon="11.54832429718628"><ele>296.6</ele><time>2026-04-11T03:43:32Z</time></trkpt><trkpt lat="43.28453399755874" lon="11.548196687365532"><ele>296.2</ele><time>2026-04-11T03:43:34Z</time></trkpt><trkpt lat="43.28456882088985" lon="11.548069126928885"><ele>295.8</ele><time>2026-04-11T03:43:36Z</time></trkpt><trkpt lat="43.28461203992676" lon="11.547955336564184"><ele>295.4</ele><time>2026-04-11T03:43:38Z</time></trkpt><trkpt lat="43.28464025350674" lon="11.547862449473712"><ele>295.0</ele><time>2026-04-11T03:43:40Z</time></trkpt><trkpt lat="43.28467837451181" lon="11.547750124050822"><ele>293.3333333333333</ele><time>2026-04-11T03:43:43Z</time></trkpt><trkpt lat="43.284708178135034" lon="11.5476321770774"><ele>291.66666666666663</ele><time>2026-04-11T03:43:46Z</time></trkpt><trkpt lat="43.28471980931617" lon="11.547527159111155"><ele>290.0</ele><time>2026-04-11T03:43:48Z</time></trkpt><trkpt lat="43.28473182270665" lon="11.547423156889481"><ele>288.3333333333333</ele><time>2026-04-11T03:43:50Z</time></trkpt><trkpt lat="43.28473400660986" lon="11.547332231910197"><ele>286.6666666666667</ele><time>2026-04-11T03:43:52Z</time></trkpt><trkpt lat="43.284753625350454" lon="11.547246273321132"><ele>285.0</ele><time>2026-04-11T03:43:54Z</time></trkpt><trkpt lat="43.28477041152603" lon="11.547146074934009"><ele>288.1428571428571</ele><time>2026-04-11T03:43:56Z</time></trkpt><trkpt lat="43.28476451793266" lon="11.547048398705874"><ele>291.2857142857143</ele><time>2026-04-11T03:43:58Z</time></trkpt><trkpt lat="43.284794060668844" lon="11.54696089030228"><ele>294.42857142857144</ele><time>2026-04-11T03:44:00Z</time></trkpt><trkpt lat="43.28483940138951" lon="11.546885547605147"><ele>297.57142857142856</ele><time>2026-04-11T03:44:02Z</time></trkpt><trkpt lat="43.284895059683464" lon="11.54678518388034"><ele>300.7142857142857</ele><time>2026-04-11T03:44:05Z</time></trkpt><trkpt lat="43.28494433133954" lon="11.546718810819229"><ele>303.85714285714283</ele><time>2026-04-11T03:44:08Z</time></trkpt><trkpt lat="43.28500199674854" lon="11.546664612483596"><ele>307.0</ele><time>2026-04-11T03:44:11Z</time></trkpt><trkpt lat="43.28506338871098" lon="11.546618469266097"><ele>307.6</ele><time>2026-04-11T03:44:14Z</time></trkpt><trkpt lat="43.2851227745257" lon="11.54657163603766"><ele>308.2</ele><time>2026-04-11T03:44:17Z</time></trkpt><trkpt lat="43.285250315724575" lon="11.546505024079316"><ele>308.8</ele><time>2026-04-11T03:44:23Z</time></trkpt><trkpt lat="43.285335810517104" lon="11.546460232834935"><ele>309.4</ele><time>2026-04-11T03:44:27Z</time></trkpt><trkpt lat="43.28541985443825" lon="11.546420229788936"><ele>310.0</ele><time>2026-04-11T03:44:31Z</time></trkpt><trkpt lat="43.28549902982974" lon="11.54637960494302"><ele>310.0</ele><time>2026-04-11T03:44:35Z</time></trkpt><trkpt lat="43.28555908225949" lon="11.546330997380048"><ele>310.0</ele><time>2026-04-11T03:44:38Z</time></trkpt><trkpt lat="43.28564316449687" lon="11.546270142766065"><ele>310.0</ele><time>2026-04-11T03:44:41Z</time></trkpt><trkpt lat="43.28571961148763" lon="11.546213784873984"><ele>310.0</ele><time>2026-04-11T03:44:43Z</time></trkpt><trkpt lat="43.28579528933713" lon="11.546155522138468"><ele>310.0</ele><time>2026-04-11T03:44:44Z</time></trkpt><trkpt lat="43.28587397866161" lon="11.54608719860028"><ele>310.0</ele><time>2026-04-11T03:44:46Z</time></trkpt><trkpt lat="43.28594539205996" lon="11.54602713319565"><ele>310.4</ele><time>2026-04-11T03:44:47Z</time></trkpt><trkpt lat="43.286063341168656" lon="11.54600076489613"><ele>310.8</ele><time>2026-04-11T03:44:49Z</time></trkpt><trkpt lat="43.286153840120726" lon="11.545936814603373"><ele>311.2</ele><time>2026-04-11T03:44:51Z</time></trkpt><trkpt lat="43.28623211916363" lon="11.545891542745796"><ele>311.6</ele><time>2026-04-11T03:44:53Z</time></trkpt><trkpt lat="43.2863745286136" lon="11.545869713035229"><ele>312.0</ele><time>2026-04-11T03:44:56Z</time></trkpt><trkpt lat="43.28646663529458" lon="11.545906108473723"><ele>312.0</ele><time>2026-04-11T03:44:58Z</time></trkpt><trkpt lat="43.286549079524754" lon="11.545975133104916"><ele>312.0</ele><time>2026-04-11T03:45:00Z</time></trkpt><trkpt lat="43.28662953284976" lon="11.546049127934719"><ele>312.0</ele><time>2026-04-11T03:45:02Z</time></trkpt><trkpt lat="43.286721717051954" lon="11.546118410505288"><ele>312.0</ele><time>2026-04-11T03:45:04Z</time></trkpt><trkpt lat="43.286833893854116" lon="11.546175833550285"><ele>312.0</ele><time>2026-04-11T03:45:06Z</time></trkpt><trkpt lat="43.28695166818161" lon="11.546159348081886"><ele>312.0</ele><time>2026-04-11T03:45:08Z</time></trkpt><trkpt lat="43.28706847879132" lon="11.546139614999403"><ele>312.0</ele><time>2026-04-11T03:45:10Z</time></trkpt><trkpt lat="43.28717121602235" lon="11.546069467304497"><ele>312.0</ele><time>2026-04-11T03:45:12Z</time></trkpt><trkpt lat="43.28724908536031" lon="11.545934598327905"><ele>312.0</ele><time>2026-04-11T03:45:14Z</time></trkpt><trkpt lat="43.28726324184527" lon="11.54583687414604"><ele>312.0</ele><time>2026-04-11T03:45:15Z</time></trkpt><trkpt lat="43.2872961748588" lon="11.545736694088466"><ele>310.1666666666667</ele><time>2026-04-11T03:45:16Z</time></trkpt><trkpt lat="43.287316426619526" lon="11.545634463210137"><ele>308.3333333333333</ele><time>2026-04-11T03:45:17Z</time></trkpt><trkpt lat="43.2873325956134" lon="11.545533203360737"><ele>306.5</ele><time>2026-04-11T03:45:18Z</time></trkpt><trkpt lat="43.28733587288761" lon="11.545426221813562"><ele>304.66666666666663</ele><time>2026-04-11T03:45:19Z</time></trkpt><trkpt lat="43.287345536856044" lon="11.545324382968282"><ele>302.8333333333333</ele><time>2026-04-11T03:45:20Z</time></trkpt><trkpt lat="43.28735456588393" lon="11.545217658192781"><ele>301.0</ele><time>2026-04-11T03:45:21Z</time></trkpt><trkpt lat="43.28735908903741" lon="11.545114199450502"><ele>301.0</ele><time>2026-04-11T03:45:22Z</time></trkpt><trkpt lat="43.28736619898421" lon="11.545016212329186"><ele>301.0</ele><time>2026-04-11T03:45:23Z</time></trkpt><trkpt lat="43.28738521688985" lon="11.544918173734073"><ele>301.0</ele><time>2026-04-11T03:45:24Z</time></trkpt><trkpt lat="43.28737505163731" lon="11.54482306170105"><ele>301.0</ele><time>2026-04-11T03:45:25Z</time></trkpt><trkpt lat="43.287390265535095" lon="11.544728299937342"><ele>301.0</ele><time>2026-04-11T03:45:26Z</time></trkpt><trkpt lat="43.28741145577773" lon="11.544631321598535"><ele>301.0</ele><time>2026-04-11T03:45:27Z</time></trkpt><trkpt lat="43.28742958036111" lon="11.544541548150358"><ele>301.0</ele><time>2026-04-11T03:45:28Z</time></trkpt><trkpt lat="43.28746489934412" lon="11.544457899379745"><ele>300.7142857142857</ele><time>2026-04-11T03:45:29Z</time></trkpt><trkpt lat="43.287487825833566" lon="11.54437560742811"><ele>300.42857142857144</ele><time>2026-04-11T03:45:30Z</time></trkpt><trkpt lat="43.28750151582862" lon="11.544277172119626"><ele>300.1428571428571</ele><time>2026-04-11T03:45:31Z</time></trkpt><trkpt lat="43.287535396461934" lon="11.544190961135412"><ele>299.8571428571429</ele><time>2026-04-11T03:45:32Z</time></trkpt><trkpt lat="43.287561099472015" lon="11.54410388224846"><ele>299.57142857142856</ele><time>2026-04-11T03:45:33Z</time></trkpt><trkpt lat="43.287597943809466" lon="11.5440143273604"><ele>299.2857142857143</ele><time>2026-04-11T03:45:34Z</time></trkpt><trkpt lat="43.2876204863089" lon="11.543915976049869"><ele>299.0</ele><time>2026-04-11T03:45:35Z</time></trkpt><trkpt lat="43.28762819134303" lon="11.543814875546484"><ele>298.1666666666667</ele><time>2026-04-11T03:45:36Z</time></trkpt><trkpt lat="43.287635866114805" lon="11.543707252737295"><ele>297.33333333333337</ele><time>2026-04-11T03:45:37Z</time></trkpt><trkpt lat="43.2876302811469" lon="11.54359687004011"><ele>296.5</ele><time>2026-04-11T03:45:38Z</time></trkpt><trkpt lat="43.287618106157296" lon="11.543486813631382"><ele>295.6666666666667</ele><time>2026-04-11T03:45:39Z</time></trkpt><trkpt lat="43.28761619261792" lon="11.543381019050166"><ele>294.8333333333333</ele><time>2026-04-11T03:45:40Z</time></trkpt><trkpt lat="43.287644003434636" lon="11.543273438829852"><ele>294.0</ele><time>2026-04-11T03:45:41Z</time></trkpt><trkpt lat="43.28766909925088" lon="11.543166633725054"><ele>294.0</ele><time>2026-04-11T03:45:42Z</time></trkpt><trkpt lat="43.287693548424414" lon="11.54306327704818"><ele>294.0</ele><time>2026-04-11T03:45:43Z</time></trkpt><trkpt lat="43.28770268040982" lon="11.542956844111396"><ele>294.0</ele><time>2026-04-11T03:45:44Z</time></trkpt><trkpt lat="43.28772820972348" lon="11.542859392098068"><ele>294.0</ele><time>2026-04-11T03:45:45Z</time></trkpt><trkpt lat="43.28775622902955" lon="11.54277462479047"><ele>294.0</ele><time>2026-04-11T03:45:46Z</time></trkpt><trkpt lat="43.28778148459172" lon="11.542690606633396"><ele>294.0</ele><time>2026-04-11T03:45:47Z</time></trkpt><trkpt lat="43.28784244515019" lon="11.54256588033727"><ele>295.2</ele><time>2026-04-11T03:45:49Z</time></trkpt><trkpt lat="43.28790276692989" lon="11.542467760066884"><ele>296.4</ele><time>2026-04-11T03:45:51Z</time></trkpt><trkpt lat="43.28796062266934" lon="11.542366494681174"><ele>297.6</ele><time>2026-04-11T03:45:53Z</time></trkpt><trkpt lat="43.28801499269077" lon="11.542270105864905"><ele>298.8</ele><time>2026-04-11T03:45:55Z</time></trkpt><trkpt lat="43.2880733665499" lon="11.542164593214329"><ele>300.0</ele><time>2026-04-11T03:45:57Z</time></trkpt><trkpt lat="43.28812765385221" lon="11.542057656281361"><ele>300.4</ele><time>2026-04-11T03:45:59Z</time></trkpt><trkpt lat="43.28816156680896" lon="11.541926460984877"><ele>300.8</ele><time>2026-04-11T03:46:01Z</time></trkpt><trkpt lat="43.2882181416882" lon="11.541817712115808"><ele>301.2</ele><time>2026-04-11T03:46:03Z</time></trkpt><trkpt lat="43.28827680776925" lon="11.541655161964577"><ele>301.6</ele><time>2026-04-11T03:46:06Z</time></trkpt><trkpt lat="43.28832147336334" lon="11.541550030589104"><ele>302.0</ele><time>2026-04-11T03:46:08Z</time></trkpt><trkpt lat="43.28838605284513" lon="11.541432916426414"><ele>302.0</ele><time>2026-04-11T03:46:11Z</time></trkpt><trkpt lat="43.288540698718215" lon="11.541315683801734"><ele>302.0</ele><time>2026-04-11T03:46:14Z</time></trkpt><trkpt lat="43.28862949318126" lon="11.541275485927864"><ele>302.0</ele><time>2026-04-11T03:46:16Z</time></trkpt><trkpt lat="43.28871688314079" lon="11.541240593342513"><ele>302.0</ele><time>2026-04-11T03:46:18Z</time></trkpt><trkpt lat="43.28880069297393" lon="11.541217978520963"><ele>302.0</ele><time>2026-04-11T03:46:20Z</time></trkpt><trkpt lat="43.28888229202506" lon="11.54119706544058"><ele>302.0</ele><time>2026-04-11T03:46:22Z</time></trkpt><trkpt lat="43.288969739153984" lon="11.541185764936996"><ele>302.0</ele><time>2026-04-11T03:46:24Z</time></trkpt><trkpt lat="43.28904113305931" lon="11.541160562855644"><ele>302.0</ele><time>2026-04-11T03:46:26Z</time></trkpt><trkpt lat="43.28911871201503" lon="11.541135301279581"><ele>302.0</ele><time>2026-04-11T03:46:28Z</time></trkpt><trkpt lat="43.28919696887532" lon="11.541116535248365"><ele>302.0</ele><time>2026-04-11T03:46:30Z</time></trkpt><trkpt lat="43.28927636151788" lon="11.541103703212222"><ele>302.0</ele><time>2026-04-11T03:46:32Z</time></trkpt><trkpt lat="43.28939567749548" lon="11.541105056940689"><ele>302.0</ele><time>2026-04-11T03:46:35Z</time></trkpt><trkpt lat="43.28946484605902" lon="11.541129556234512"><ele>302.0</ele><time>2026-04-11T03:46:39Z</time></trkpt><trkpt lat="43.28955450298509" lon="11.541158187700326"><ele>302.0</ele><time>2026-04-11T03:46:42Z</time></trkpt><trkpt lat="43.28964894209522" lon="11.541181242340015"><ele>302.0</ele><time>2026-04-11T03:46:45Z</time></trkpt><trkpt lat="43.28973996427939" lon="11.541176706497984"><ele>302.0</ele><time>2026-04-11T03:46:48Z</time></trkpt><trkpt lat="43.28982305518952" lon="11.541157585641592"><ele>302.0</ele><time>2026-04-11T03:46:50Z</time></trkpt><trkpt lat="43.28992640673804" lon="11.541149853058982"><ele>302.0</ele><time>2026-04-11T03:46:53Z</time></trkpt><trkpt lat="43.2900198804189" lon="11.541149218240443"><ele>302.0</ele><time>2026-04-11T03:46:56Z</time></trkpt><trkpt lat="43.290089305914556" lon="11.541159740535166"><ele>302.0</ele><time>2026-04-11T03:46:58Z</time></trkpt><trkpt lat="43.29033138520455" lon="11.541232303815473"><ele>302.0</ele><time>2026-04-11T03:46:59Z</time></trkpt><trkpt lat="43.29042156223667" lon="11.541248932138854"><ele>303.6</ele><time>2026-04-11T03:47:01Z</time></trkpt><trkpt lat="43.29051031328313" lon="11.541270021882367"><ele>305.2</ele><time>2026-04-11T03:47:03Z</time></trkpt><trkpt lat="43.29061206798155" lon="11.541323287586"><ele>306.8</ele><time>2026-04-11T03:47:05Z</time></trkpt><trkpt lat="43.29070823698307" lon="11.541372307626563"><ele>308.4</ele><time>2026-04-11T03:47:07Z</time></trkpt><trkpt lat="43.29081941261223" lon="11.541414553066279"><ele>310.0</ele><time>2026-04-11T03:47:09Z</time></trkpt><trkpt lat="43.290883448095435" lon="11.541414464998608"><ele>310.0</ele><time>2026-04-11T03:47:10Z</time></trkpt><trkpt lat="43.29095003801787" lon="11.54141687257133"><ele>310.0</ele><time>2026-04-11T03:47:11Z</time></trkpt><trkpt lat="43.291016495456624" lon="11.541399134095355"><ele>310.0</ele><time>2026-04-11T03:47:12Z</time></trkpt><trkpt lat="43.291119880339274" lon="11.541346543496237"><ele>310.0</ele><time>2026-04-11T03:47:14Z</time></trkpt><trkpt lat="43.29120058625452" lon="11.5412494293305"><ele>310.0</ele><time>2026-04-11T03:47:16Z</time></trkpt><trkpt lat="43.291244030579634" lon="11.541146386182392"><ele>310.0</ele><time>2026-04-11T03:47:18Z</time></trkpt><trkpt lat="43.29130595958475" lon="11.541047456938683"><ele>309.0</ele><time>2026-04-11T03:47:20Z</time></trkpt><trkpt lat="43.2913551783525" lon="11.540930291200176"><ele>308.0</ele><time>2026-04-11T03:47:22Z</time></trkpt><trkpt lat="43.29135793364971" lon="11.54081398798755"><ele>307.0</ele><time>2026-04-11T03:47:24Z</time></trkpt><trkpt lat="43.291352566248" lon="11.540698278439038"><ele>306.0</ele><time>2026-04-11T03:47:26Z</time></trkpt><trkpt lat="43.29133936665695" lon="11.540600065542847"><ele>305.0</ele><time>2026-04-11T03:47:28Z</time></trkpt><trkpt lat="43.29132164055441" lon="11.540502908170996"><ele>304.0</ele><time>2026-04-11T03:47:30Z</time></trkpt><trkpt lat="43.29132042902649" lon="11.540408204422699"><ele>303.66666666666663</ele><time>2026-04-11T03:47:32Z</time></trkpt><trkpt lat="43.29132111214599" lon="11.540317173050765"><ele>303.3333333333333</ele><time>2026-04-11T03:47:34Z</time></trkpt><trkpt lat="43.291320691311924" lon="11.54022663178954"><ele>303.0</ele><time>2026-04-11T03:47:36Z</time></trkpt><trkpt lat="43.291330988334906" lon="11.540121430707396"><ele>302.6666666666667</ele><time>2026-04-11T03:47:39Z</time></trkpt><trkpt lat="43.29135969425543" lon="11.540001260041352"><ele>302.33333333333337</ele><time>2026-04-11T03:47:42Z</time></trkpt><trkpt lat="43.291389484739604" lon="11.53989198406346"><ele>302.0</ele><time>2026-04-11T03:47:45Z</time></trkpt><trkpt lat="43.29144053532522" lon="11.539791972686036"><ele>302.7142857142857</ele><time>2026-04-11T03:47:48Z</time></trkpt><trkpt lat="43.29145986781298" lon="11.539704532678735"><ele>303.42857142857144</ele><time>2026-04-11T03:47:50Z</time></trkpt><trkpt lat="43.29149061889422" lon="11.539626092540237"><ele>304.1428571428571</ele><time>2026-04-11T03:47:52Z</time></trkpt><trkpt lat="43.291525415701805" lon="11.53954785773949"><ele>304.8571428571429</ele><time>2026-04-11T03:47:54Z</time></trkpt><trkpt lat="43.29156130836462" lon="11.539466006337902"><ele>305.57142857142856</ele><time>2026-04-11T03:47:56Z</time></trkpt><trkpt lat="43.29160025937191" lon="11.539394550218384"><ele>306.2857142857143</ele><time>2026-04-11T03:47:58Z</time></trkpt><trkpt lat="43.29162633105633" lon="11.53931099226727"><ele>307.0</ele><time>2026-04-11T03:48:00Z</time></trkpt><trkpt lat="43.29165953296862" lon="11.539230720446412"><ele>308.4285714285714</ele><time>2026-04-11T03:48:02Z</time></trkpt><trkpt lat="43.29170367722782" lon="11.539123771441238"><ele>309.85714285714283</ele><time>2026-04-11T03:48:05Z</time></trkpt><trkpt lat="43.291729795672936" lon="11.53904464475414"><ele>311.2857142857143</ele><time>2026-04-11T03:48:07Z</time></trkpt><trkpt lat="43.291770408402584" lon="11.538970063180468"><ele>312.71428571428567</ele><time>2026-04-11T03:48:09Z</time></trkpt><trkpt lat="43.29181633787466" lon="11.53890771329779"><ele>314.1428571428571</ele><time>2026-04-11T03:48:11Z</time></trkpt><trkpt lat="43.29187627356677" lon="11.538874995599928"><ele>315.57142857142856</ele><time>2026-04-11T03:48:13Z</time></trkpt><trkpt lat="43.29193647703698" lon="11.538844414752274"><ele>317.0</ele><time>2026-04-11T03:48:15Z</time></trkpt><trkpt lat="43.29202379832331" lon="11.538833346782317"><ele>317.0</ele><time>2026-04-11T03:48:18Z</time></trkpt><trkpt lat="43.29212931584369" lon="11.538838819955357"><ele>317.0</ele><time>2026-04-11T03:48:21Z</time></trkpt><trkpt lat="43.29219533813256" lon="11.538863537185144"><ele>317.0</ele><time>2026-04-11T03:48:23Z</time></trkpt><trkpt lat="43.29226623188868" lon="11.538895666426255"><ele>317.0</ele><time>2026-04-11T03:48:25Z</time></trkpt><trkpt lat="43.292346856397" lon="11.53890068717042"><ele>317.0</ele><time>2026-04-11T03:48:28Z</time></trkpt><trkpt lat="43.29241005863742" lon="11.53891712740439"><ele>317.0</ele><time>2026-04-11T03:48:30Z</time></trkpt><trkpt lat="43.29248281024804" lon="11.53890466502087"><ele>317.0</ele><time>2026-04-11T03:48:32Z</time></trkpt><trkpt lat="43.29255096983753" lon="11.538906124830989"><ele>317.0</ele><time>2026-04-11T03:48:34Z</time></trkpt><trkpt lat="43.29262276442031" lon="11.538893213254738"><ele>317.0</ele><time>2026-04-11T03:48:36Z</time></trkpt><trkpt lat="43.29269457502941" lon="11.538857381536642"><ele>317.0</ele><time>2026-04-11T03:48:38Z</time></trkpt><trkpt lat="43.292790900184265" lon="11.53877677103451"><ele>317.0</ele><time>2026-04-11T03:48:41Z</time></trkpt><trkpt lat="43.292871698303145" lon="11.538713125703776"><ele>317.0</ele><time>2026-04-11T03:48:43Z</time></trkpt><trkpt lat="43.2929402106817" lon="11.538642585532985"><ele>316.0</ele><time>2026-04-11T03:48:44Z</time></trkpt><trkpt lat="43.29305914693536" lon="11.538579213019544"><ele>315.0</ele><time>2026-04-11T03:48:46Z</time></trkpt><trkpt lat="43.29311579391858" lon="11.538528610163532"><ele>314.0</ele><time>2026-04-11T03:48:47Z</time></trkpt><trkpt lat="43.29317096657578" lon="11.538479559881898"><ele>313.0</ele><time>2026-04-11T03:48:48Z</time></trkpt><trkpt lat="43.293276570800636" lon="11.538387471310472"><ele>312.0</ele><time>2026-04-11T03:48:50Z</time></trkpt><trkpt lat="43.2933319233985" lon="11.538339739886244"><ele>312.0</ele><time>2026-04-11T03:48:51Z</time></trkpt><trkpt lat="43.29339020779194" lon="11.538289480349777"><ele>312.0</ele><time>2026-04-11T03:48:52Z</time></trkpt><trkpt lat="43.293455009248106" lon="11.538231869162658"><ele>312.0</ele><time>2026-04-11T03:48:53Z</time></trkpt><trkpt lat="43.29352272402794" lon="11.538170198060124"><ele>312.0</ele><time>2026-04-11T03:48:54Z</time></trkpt><trkpt lat="43.293592193437064" lon="11.53810678800447"><ele>312.0</ele><time>2026-04-11T03:48:55Z</time></trkpt><trkpt lat="43.2936611569481" lon="11.538043266801115"><ele>312.0</ele><time>2026-04-11T03:48:56Z</time></trkpt><trkpt lat="43.293731895493444" lon="11.537978110656965"><ele>312.0</ele><time>2026-04-11T03:48:57Z</time></trkpt><trkpt lat="43.29379867570622" lon="11.53791895511596"><ele>312.0</ele><time>2026-04-11T03:48:58Z</time></trkpt><trkpt lat="43.293863694954084" lon="11.537861889859597"><ele>312.0</ele><time>2026-04-11T03:48:59Z</time></trkpt><trkpt lat="43.29392401552865" lon="11.537805630741657"><ele>312.0</ele><time>2026-04-11T03:49:00Z</time></trkpt><trkpt lat="43.29397915899186" lon="11.537749885910724"><ele>312.0</ele><time>2026-04-11T03:49:01Z</time></trkpt><trkpt lat="43.29403141558926" lon="11.537693384524621"><ele>312.0</ele><time>2026-04-11T03:49:02Z</time></trkpt><trkpt lat="43.29407264461516" lon="11.537623288419887"><ele>312.0</ele><time>2026-04-11T03:49:03Z</time></trkpt><trkpt lat="43.294164553202" lon="11.537520386322885"><ele>312.1666666666667</ele><time>2026-04-11T03:49:05Z</time></trkpt><trkpt lat="43.29424227795522" lon="11.537426292801456"><ele>312.3333333333333</ele><time>2026-04-11T03:49:07Z</time></trkpt><trkpt lat="43.294306398566945" lon="11.537341345132866"><ele>312.5</ele><time>2026-04-11T03:49:09Z</time></trkpt><trkpt lat="43.29436401653139" lon="11.537274989632285"><ele>312.66666666666663</ele><time>2026-04-11T03:49:11Z</time></trkpt><trkpt lat="43.29441772323316" lon="11.537203081129013"><ele>312.8333333333333</ele><time>2026-04-11T03:49:13Z</time></trkpt><trkpt lat="43.294469463342956" lon="11.537145283397273"><ele>313.0</ele><time>2026-04-11T03:49:15Z</time></trkpt><trkpt lat="43.294518250997776" lon="11.537087396072703"><ele>312.0</ele><time>2026-04-11T03:49:17Z</time></trkpt><trkpt lat="43.294591653483565" lon="11.537027603001942"><ele>311.0</ele><time>2026-04-11T03:49:20Z</time></trkpt><trkpt lat="43.294672629993755" lon="11.536976947408444"><ele>310.0</ele><time>2026-04-11T03:49:23Z</time></trkpt><trkpt lat="43.29473018505421" lon="11.53693969146914"><ele>309.0</ele><time>2026-04-11T03:49:25Z</time></trkpt><trkpt lat="43.294808805885296" lon="11.536906555420185"><ele>308.0</ele><time>2026-04-11T03:49:27Z</time></trkpt><trkpt lat="43.29487974691699" lon="11.536857386269833"><ele>307.0</ele><time>2026-04-11T03:49:29Z</time></trkpt><trkpt lat="43.294978216298354" lon="11.536812090506546"><ele>307.0</ele><time>2026-04-11T03:49:31Z</time></trkpt><trkpt lat="43.29515297264032" lon="11.536807484842138"><ele>307.0</ele><time>2026-04-11T03:49:33Z</time></trkpt><trkpt lat="43.29526668931534" lon="11.536787034266908"><ele>307.0</ele><time>2026-04-11T03:49:35Z</time></trkpt><trkpt lat="43.295326213081516" lon="11.536754766178476"><ele>307.0</ele><time>2026-04-11T03:49:36Z</time></trkpt><trkpt lat="43.29539474524164" lon="11.536720706961802"><ele>307.0</ele><time>2026-04-11T03:49:37Z</time></trkpt><trkpt lat="43.2954489887448" lon="11.536662819465722"><ele>307.0</ele><time>2026-04-11T03:49:38Z</time></trkpt><trkpt lat="43.295529674119976" lon="11.536535147907266"><ele>307.0</ele><time>2026-04-11T03:49:40Z</time></trkpt><trkpt lat="43.295584176712616" lon="11.536433172278771"><ele>307.0</ele><time>2026-04-11T03:49:42Z</time></trkpt><trkpt lat="43.295618154864066" lon="11.53632494773554"><ele>307.0</ele><time>2026-04-11T03:49:44Z</time></trkpt><trkpt lat="43.29565027096471" lon="11.53621828974184"><ele>307.0</ele><time>2026-04-11T03:49:46Z</time></trkpt><trkpt lat="43.29568467522356" lon="11.536126488284237"><ele>309.66666666666663</ele><time>2026-04-11T03:49:48Z</time></trkpt><trkpt lat="43.29571349021083" lon="11.53601650899279"><ele>312.3333333333333</ele><time>2026-04-11T03:49:50Z</time></trkpt><trkpt lat="43.29573674139016" lon="11.535922435072786"><ele>315.0</ele><time>2026-04-11T03:49:52Z</time></trkpt><trkpt lat="43.295760435281544" lon="11.535825001549878"><ele>317.6666666666667</ele><time>2026-04-11T03:49:54Z</time></trkpt><trkpt lat="43.29578558197322" lon="11.535717034493933"><ele>320.33333333333337</ele><time>2026-04-11T03:49:57Z</time></trkpt><trkpt lat="43.295794895662446" lon="11.535619060100561"><ele>323.0</ele><time>2026-04-11T03:50:00Z</time></trkpt><trkpt lat="43.29579874957328" lon="11.535526655928091"><ele>323.0</ele><time>2026-04-11T03:50:03Z</time></trkpt><trkpt lat="43.29579988610203" lon="11.535422228741465"><ele>323.0</ele><time>2026-04-11T03:50:06Z</time></trkpt><trkpt lat="43.295806839639354" lon="11.5353197732929"><ele>323.0</ele><time>2026-04-11T03:50:09Z</time></trkpt><trkpt lat="43.29581526310383" lon="11.535192780466415"><ele>323.0</ele><time>2026-04-11T03:50:12Z</time></trkpt><trkpt lat="43.29582133820514" lon="11.535069019577168"><ele>323.0</ele><time>2026-04-11T03:50:15Z</time></trkpt><trkpt lat="43.29580594188315" lon="11.534966327445787"><ele>323.0</ele><time>2026-04-11T03:50:17Z</time></trkpt><trkpt lat="43.29577014099643" lon="11.534871493946591"><ele>323.6666666666667</ele><time>2026-04-11T03:50:20Z</time></trkpt><trkpt lat="43.295717938354514" lon="11.534791098985574"><ele>324.33333333333337</ele><time>2026-04-11T03:50:23Z</time></trkpt><trkpt lat="43.29566754828752" lon="11.534731377308717"><ele>325.0</ele><time>2026-04-11T03:50:26Z</time></trkpt><trkpt lat="43.295607889384485" lon="11.534669153258823"><ele>325.6666666666667</ele><time>2026-04-11T03:50:29Z</time></trkpt><trkpt lat="43.295543385506875" lon="11.534614624004274"><ele>326.3333333333333</ele><time>2026-04-11T03:50:32Z</time></trkpt><trkpt lat="43.295478410545364" lon="11.534559504729508"><ele>327.0</ele><time>2026-04-11T03:50:35Z</time></trkpt><trkpt lat="43.29541131190513" lon="11.534485530102726"><ele>327.6</ele><time>2026-04-11T03:50:38Z</time></trkpt><trkpt lat="43.29534245784783" lon="11.534410669656898"><ele>328.20000000000005</ele><time>2026-04-11T03:50:41Z</time></trkpt><trkpt lat="43.29529524568245" lon="11.534351524012983"><ele>328.8</ele><time>2026-04-11T03:50:43Z</time></trkpt><trkpt lat="43.29525247875691" lon="11.534271013304865"><ele>329.4</ele><time>2026-04-11T03:50:45Z</time></trkpt><trkpt lat="43.295191019372986" lon="11.534185650303693"><ele>330.0</ele><time>2026-04-11T03:50:48Z</time></trkpt><trkpt lat="43.29508139856924" lon="11.533960708303223"><ele>330.0</ele><time>2026-04-11T03:50:51Z</time></trkpt><trkpt lat="43.29502687674083" lon="11.533902024160657"><ele>330.0</ele><time>2026-04-11T03:50:53Z</time></trkpt><trkpt lat="43.29495599813182" lon="11.533854042336102"><ele>330.0</ele><time>2026-04-11T03:50:55Z</time></trkpt><trkpt lat="43.29486323808662" lon="11.533834315417566"><ele>330.0</ele><time>2026-04-11T03:50:57Z</time></trkpt><trkpt lat="43.294774202236596" lon="11.533776421780317"><ele>330.0</ele><time>2026-04-11T03:50:59Z</time></trkpt><trkpt lat="43.29468780598514" lon="11.53371471657314"><ele>330.0</ele><time>2026-04-11T03:51:01Z</time></trkpt><trkpt lat="43.2945930282542" lon="11.533642683330964"><ele>328.6</ele><time>2026-04-11T03:51:03Z</time></trkpt><trkpt lat="43.294528694970616" lon="11.533522300411008"><ele>327.2</ele><time>2026-04-11T03:51:05Z</time></trkpt><trkpt lat="43.29449530953303" lon="11.533386429128694"><ele>325.79999999999995</ele><time>2026-04-11T03:51:07Z</time></trkpt><trkpt lat="43.29448703529742" lon="11.53323344030278"><ele>324.4</ele><time>2026-04-11T03:51:09Z</time></trkpt><trkpt lat="43.29446621738182" lon="11.53306839841382"><ele>323.0</ele><time>2026-04-11T03:51:11Z</time></trkpt><trkpt lat="43.29445871938128" lon="11.532903919072861"><ele>323.5</ele><time>2026-04-11T03:51:13Z</time></trkpt><trkpt lat="43.29446986938348" lon="11.532742692112286"><ele>324.0</ele><time>2026-04-11T03:51:15Z</time></trkpt><trkpt lat="43.29448314770399" lon="11.532588868839834"><ele>324.5</ele><time>2026-04-11T03:51:17Z</time></trkpt><trkpt lat="43.29450869973559" lon="11.532431683491703"><ele>325.0</ele><time>2026-04-11T03:51:19Z</time></trkpt><trkpt lat="43.29455051937087" lon="11.532272494521914"><ele>325.0</ele><time>2026-04-11T03:51:21Z</time></trkpt><trkpt lat="43.29459416155747" lon="11.53213144293295"><ele>325.0</ele><time>2026-04-11T03:51:23Z</time></trkpt><trkpt lat="43.29463610936979" lon="11.531976807404165"><ele>325.0</ele><time>2026-04-11T03:51:25Z</time></trkpt><trkpt lat="43.29466158221847" lon="11.531896358917377"><ele>325.0</ele><time>2026-04-11T03:51:26Z</time></trkpt><trkpt lat="43.29469764993317" lon="11.531817886793899"><ele>325.0</ele><time>2026-04-11T03:51:27Z</time></trkpt><trkpt lat="43.294767957460245" lon="11.53168859188692"><ele>324.0</ele><time>2026-04-11T03:51:29Z</time></trkpt><trkpt lat="43.29480688519351" lon="11.531617652132294"><ele>323.0</ele><time>2026-04-11T03:51:30Z</time></trkpt><trkpt lat="43.29488368236457" lon="11.53147505596906"><ele>322.0</ele><time>2026-04-11T03:51:32Z</time></trkpt><trkpt lat="43.29495006682865" lon="11.531329981104339"><ele>321.0</ele><time>2026-04-11T03:51:34Z</time></trkpt><trkpt lat="43.295019351921454" lon="11.531203567371326"><ele>320.0</ele><time>2026-04-11T03:51:36Z</time></trkpt><trkpt lat="43.29509721544108" lon="11.531085839781797"><ele>320.0</ele><time>2026-04-11T03:51:38Z</time></trkpt><trkpt lat="43.29519239216719" lon="11.530975137883456"><ele>320.0</ele><time>2026-04-11T03:51:40Z</time></trkpt><trkpt lat="43.29524142735218" lon="11.530920154099624"><ele>320.0</ele><time>2026-04-11T03:51:41Z</time></trkpt><trkpt lat="43.29530626396261" lon="11.530867456167009"><ele>320.0</ele><time>2026-04-11T03:51:42Z</time></trkpt><trkpt lat="43.29536289901737" lon="11.530818936189426"><ele>320.0</ele><time>2026-04-11T03:51:43Z</time></trkpt><trkpt lat="43.29542083693614" lon="11.530778259235401"><ele>320.0</ele><time>2026-04-11T03:51:44Z</time></trkpt><trkpt lat="43.295482498694334" lon="11.530734184805612"><ele>320.0</ele><time>2026-04-11T03:51:45Z</time></trkpt><trkpt lat="43.29554817494479" lon="11.53069239596104"><ele>320.0</ele><time>2026-04-11T03:51:46Z</time></trkpt><trkpt lat="43.29561230849587" lon="11.530653952820709"><ele>320.0</ele><time>2026-04-11T03:51:47Z</time></trkpt><trkpt lat="43.295677315676734" lon="11.53061927459122"><ele>320.0</ele><time>2026-04-11T03:51:48Z</time></trkpt><trkpt lat="43.29573880881393" lon="11.530583271845867"><ele>320.0</ele><time>2026-04-11T03:51:49Z</time></trkpt><trkpt lat="43.29580158720624" lon="11.530555566830529"><ele>320.0</ele><time>2026-04-11T03:51:50Z</time></trkpt><trkpt lat="43.2959223549597" lon="11.530499110421069"><ele>318.2857142857143</ele><time>2026-04-11T03:51:52Z</time></trkpt><trkpt lat="43.29599140161644" lon="11.530471068407488"><ele>316.57142857142856</ele><time>2026-04-11T03:51:53Z</time></trkpt><trkpt lat="43.296062152709766" lon="11.530445674469176"><ele>314.8571428571429</ele><time>2026-04-11T03:51:54Z</time></trkpt><trkpt lat="43.29613452467082" lon="11.53041464473234"><ele>313.1428571428571</ele><time>2026-04-11T03:51:55Z</time></trkpt><trkpt lat="43.296207695657046" lon="11.530404930948318"><ele>311.42857142857144</ele><time>2026-04-11T03:51:56Z</time></trkpt><trkpt lat="43.29628024967418" lon="11.53037675613207"><ele>309.7142857142857</ele><time>2026-04-11T03:51:57Z</time></trkpt><trkpt lat="43.29635228167671" lon="11.530347910275822"><ele>308.0</ele><time>2026-04-11T03:51:58Z</time></trkpt><trkpt lat="43.29642208663101" lon="11.530315868728035"><ele>305.6</ele><time>2026-04-11T03:51:59Z</time></trkpt><trkpt lat="43.29648640508816" lon="11.530279291640813"><ele>303.20000000000005</ele><time>2026-04-11T03:52:00Z</time></trkpt><trkpt lat="43.29653942842487" lon="11.53022819572539"><ele>300.8</ele><time>2026-04-11T03:52:01Z</time></trkpt><trkpt lat="43.29663525357482" lon="11.530135023388183"><ele>298.40000000000003</ele><time>2026-04-11T03:52:03Z</time></trkpt><trkpt lat="43.29666239621882" lon="11.52998989891969"><ele>296.0</ele><time>2026-04-11T03:52:05Z</time></trkpt><trkpt lat="43.296604231223014" lon="11.529847736524694"><ele>296.0</ele><time>2026-04-11T03:52:07Z</time></trkpt><trkpt lat="43.29654910956287" lon="11.52979743261262"><ele>296.0</ele><time>2026-04-11T03:52:08Z</time></trkpt><trkpt lat="43.29648643927921" lon="11.529761750664026"><ele>296.0</ele><time>2026-04-11T03:52:09Z</time></trkpt><trkpt lat="43.29641855791131" lon="11.529732309034424"><ele>296.0</ele><time>2026-04-11T03:52:10Z</time></trkpt><trkpt lat="43.29635269761016" lon="11.529675815277589"><ele>296.0</ele><time>2026-04-11T03:52:11Z</time></trkpt><trkpt lat="43.29627747006771" lon="11.529640433123857"><ele>296.0</ele><time>2026-04-11T03:52:12Z</time></trkpt><trkpt lat="43.29620554301971" lon="11.529608588903448"><ele>296.0</ele><time>2026-04-11T03:52:13Z</time></trkpt><trkpt lat="43.296127607444056" lon="11.529591699089657"><ele>295.7142857142857</ele><time>2026-04-11T03:52:14Z</time></trkpt><trkpt lat="43.296052669308345" lon="11.52960840830231"><ele>295.42857142857144</ele><time>2026-04-11T03:52:15Z</time></trkpt><trkpt lat="43.29598205646497" lon="11.52959496318848"><ele>295.1428571428571</ele><time>2026-04-11T03:52:16Z</time></trkpt><trkpt lat="43.29591753590226" lon="11.529574397591158"><ele>294.8571428571429</ele><time>2026-04-11T03:52:17Z</time></trkpt><trkpt lat="43.29586665235435" lon="11.529509860443254"><ele>294.57142857142856</ele><time>2026-04-11T03:52:18Z</time></trkpt><trkpt lat="43.29581100724826" lon="11.529465969747042"><ele>294.2857142857143</ele><time>2026-04-11T03:52:19Z</time></trkpt><trkpt lat="43.295754104196455" lon="11.529420336687778"><ele>294.0</ele><time>2026-04-11T03:52:20Z</time></trkpt><trkpt lat="43.29569590247237" lon="11.52937581125872"><ele>294.0</ele><time>2026-04-11T03:52:21Z</time></trkpt><trkpt lat="43.29563896296586" lon="11.529334336884666"><ele>294.0</ele><time>2026-04-11T03:52:22Z</time></trkpt><trkpt lat="43.295522798842754" lon="11.529285164636423"><ele>294.0</ele><time>2026-04-11T03:52:24Z</time></trkpt><trkpt lat="43.29542807504264" lon="11.529249673996752"><ele>294.0</ele><time>2026-04-11T03:52:26Z</time></trkpt><trkpt lat="43.295353060976474" lon="11.529189903453846"><ele>294.0</ele><time>2026-04-11T03:52:28Z</time></trkpt><trkpt lat="43.295297665601716" lon="11.529095214279229"><ele>294.0</ele><time>2026-04-11T03:52:30Z</time></trkpt><trkpt lat="43.29533309173755" lon="11.528942123794966"><ele>294.0</ele><time>2026-04-11T03:52:32Z</time></trkpt><trkpt lat="43.295393962316815" lon="11.52891349984299"><ele>294.0</ele><time>2026-04-11T03:52:33Z</time></trkpt><trkpt lat="43.295491024114924" lon="11.528842553362939"><ele>294.0</ele><time>2026-04-11T03:52:35Z</time></trkpt><trkpt lat="43.295595504531164" lon="11.528767373557974"><ele>294.0</ele><time>2026-04-11T03:52:37Z</time></trkpt><trkpt lat="43.295692348190315" lon="11.528685155991512"><ele>293.6666666666667</ele><time>2026-04-11T03:52:39Z</time></trkpt><trkpt lat="43.295768835497874" lon="11.528572254504612"><ele>293.3333333333333</ele><time>2026-04-11T03:52:41Z</time></trkpt><trkpt lat="43.295849303535476" lon="11.528463382413001"><ele>293.0</ele><time>2026-04-11T03:52:43Z</time></trkpt><trkpt lat="43.29588271982573" lon="11.52838925370064"><ele>292.66666666666663</ele><time>2026-04-11T03:52:44Z</time></trkpt><trkpt lat="43.29591437233463" lon="11.528302103618747"><ele>292.3333333333333</ele><time>2026-04-11T03:52:45Z</time></trkpt><trkpt lat="43.29592845880925" lon="11.528199598274211"><ele>292.0</ele><time>2026-04-11T03:52:46Z</time></trkpt><trkpt lat="43.295935717817166" lon="11.528092578648499"><ele>292.0</ele><time>2026-04-11T03:52:47Z</time></trkpt><trkpt lat="43.29593785716069" lon="11.527985543546382"><ele>292.0</ele><time>2026-04-11T03:52:48Z</time></trkpt><trkpt lat="43.295946060072865" lon="11.527869707667076"><ele>292.0</ele><time>2026-04-11T03:52:49Z</time></trkpt><trkpt lat="43.295957104051226" lon="11.527765921932692"><ele>292.0</ele><time>2026-04-11T03:52:50Z</time></trkpt><trkpt lat="43.29597507791608" lon="11.527659411435051"><ele>292.0</ele><time>2026-04-11T03:52:51Z</time></trkpt><trkpt lat="43.29599041562553" lon="11.527556814457153"><ele>292.0</ele><time>2026-04-11T03:52:52Z</time></trkpt><trkpt lat="43.29600365352228" lon="11.527461079901535"><ele>292.0</ele><time>2026-04-11T03:52:53Z</time></trkpt><trkpt lat="43.29601434500954" lon="11.527358154479826"><ele>292.0</ele><time>2026-04-11T03:52:54Z</time></trkpt><trkpt lat="43.296032230012415" lon="11.527256142131462"><ele>292.0</ele><time>2026-04-11T03:52:55Z</time></trkpt><trkpt lat="43.29605811574284" lon="11.527151521710596"><ele>292.0</ele><time>2026-04-11T03:52:56Z</time></trkpt><trkpt lat="43.29610647599078" lon="11.527063326403148"><ele>292.0</ele><time>2026-04-11T03:52:57Z</time></trkpt><trkpt lat="43.29614819775856" lon="11.526975461090172"><ele>292.0</ele><time>2026-04-11T03:52:58Z</time></trkpt><trkpt lat="43.2961908140301" lon="11.52689199745754"><ele>291.57142857142856</ele><time>2026-04-11T03:52:59Z</time></trkpt><trkpt lat="43.2962268947096" lon="11.526803935979604"><ele>291.14285714285717</ele><time>2026-04-11T03:53:00Z</time></trkpt><trkpt lat="43.29627567981685" lon="11.526730454222156"><ele>290.7142857142857</ele><time>2026-04-11T03:53:01Z</time></trkpt><trkpt lat="43.29632253518904" lon="11.52665806923336"><ele>290.2857142857143</ele><time>2026-04-11T03:53:02Z</time></trkpt><trkpt lat="43.29636540527028" lon="11.526580831653238"><ele>289.85714285714283</ele><time>2026-04-11T03:53:03Z</time></trkpt><trkpt lat="43.29641006157573" lon="11.52651400912536"><ele>289.42857142857144</ele><time>2026-04-11T03:53:04Z</time></trkpt><trkpt lat="43.296451122171334" lon="11.526444835736477"><ele>289.0</ele><time>2026-04-11T03:53:05Z</time></trkpt><trkpt lat="43.2965325997349" lon="11.526326788461635"><ele>289.0</ele><time>2026-04-11T03:53:07Z</time></trkpt><trkpt lat="43.296620722054854" lon="11.526218515975318"><ele>289.0</ele><time>2026-04-11T03:53:09Z</time></trkpt><trkpt lat="43.29672091442225" lon="11.526133106843655"><ele>289.0</ele><time>2026-04-11T03:53:11Z</time></trkpt><trkpt lat="43.29678321623935" lon="11.526002859688713"><ele>289.0</ele><time>2026-04-11T03:53:13Z</time></trkpt><trkpt lat="43.29680164746711" lon="11.52584214957638"><ele>289.0</ele><time>2026-04-11T03:53:15Z</time></trkpt><trkpt lat="43.296779379835726" lon="11.525701640702213"><ele>289.0</ele><time>2026-04-11T03:53:17Z</time></trkpt><trkpt lat="43.29675750720307" lon="11.525570746013859"><ele>289.0</ele><time>2026-04-11T03:53:19Z</time></trkpt><trkpt lat="43.29675367609986" lon="11.525448011029361"><ele>289.0</ele><time>2026-04-11T03:53:21Z</time></trkpt><trkpt lat="43.296760287490414" lon="11.525318507491711"><ele>289.0</ele><time>2026-04-11T03:53:24Z</time></trkpt><trkpt lat="43.29680217658034" lon="11.5251078611125"><ele>289.59999999999997</ele><time>2026-04-11T03:53:26Z</time></trkpt><trkpt lat="43.296806908330005" lon="11.524987650372177"><ele>290.2</ele><time>2026-04-11T03:53:28Z</time></trkpt><trkpt lat="43.29676337323195" lon="11.524887625457826"><ele>290.79999999999995</ele><time>2026-04-11T03:53:30Z</time></trkpt><trkpt lat="43.296721683414724" lon="11.52478163221705"><ele>291.4</ele><time>2026-04-11T03:53:32Z</time></trkpt><trkpt lat="43.296677541949606" lon="11.524664577014772"><ele>292.0</ele><time>2026-04-11T03:53:34Z</time></trkpt><trkpt lat="43.29665086806037" lon="11.524540334235514"><ele>293.66666666666663</ele><time>2026-04-11T03:53:36Z</time></trkpt><trkpt lat="43.296622063123586" lon="11.524431601327377"><ele>295.3333333333333</ele><time>2026-04-11T03:53:38Z</time></trkpt><trkpt lat="43.29660412780972" lon="11.524317668138323"><ele>297.0</ele><time>2026-04-11T03:53:40Z</time></trkpt><trkpt lat="43.296592292205226" lon="11.524195344748367"><ele>298.6666666666667</ele><time>2026-04-11T03:53:42Z</time></trkpt><trkpt lat="43.2965774555055" lon="11.524075790629666"><ele>300.33333333333337</ele><time>2026-04-11T03:53:44Z</time></trkpt><trkpt lat="43.29653354192571" lon="11.523992410029482"><ele>302.0</ele><time>2026-04-11T03:53:46Z</time></trkpt><trkpt lat="43.296509503067284" lon="11.523869955177801"><ele>302.0</ele><time>2026-04-11T03:53:48Z</time></trkpt><trkpt lat="43.29649288004478" lon="11.523764000259408"><ele>302.0</ele><time>2026-04-11T03:53:50Z</time></trkpt><trkpt lat="43.29647646142843" lon="11.523649196826014"><ele>302.0</ele><time>2026-04-11T03:53:52Z</time></trkpt><trkpt lat="43.29646094888289" lon="11.523540402708846"><ele>302.0</ele><time>2026-04-11T03:53:54Z</time></trkpt><trkpt lat="43.29644763980206" lon="11.523430893754393"><ele>302.0</ele><time>2026-04-11T03:53:56Z</time></trkpt><trkpt lat="43.29643599815772" lon="11.523318366702334"><ele>302.0</ele><time>2026-04-11T03:53:58Z</time></trkpt><trkpt lat="43.29642916710809" lon="11.523198403895945"><ele>302.8</ele><time>2026-04-11T03:54:00Z</time></trkpt><trkpt lat="43.29642678984223" lon="11.523075829764615"><ele>303.6</ele><time>2026-04-11T03:54:02Z</time></trkpt><trkpt lat="43.29643182440595" lon="11.522942007335002"><ele>304.40000000000003</ele><time>2026-04-11T03:54:04Z</time></trkpt><trkpt lat="43.29642828927175" lon="11.522798802928667"><ele>305.2</ele><time>2026-04-11T03:54:06Z</time></trkpt><trkpt lat="43.29645136582633" lon="11.522661536591064"><ele>306.0</ele><time>2026-04-11T03:54:08Z</time></trkpt><trkpt lat="43.296492898611916" lon="11.522530889798658"><ele>306.0</ele><time>2026-04-11T03:54:10Z</time></trkpt><trkpt lat="43.29655205377675" lon="11.522406813150804"><ele>306.0</ele><time>2026-04-11T03:54:12Z</time></trkpt><trkpt lat="43.29663321272608" lon="11.522312996041032"><ele>306.0</ele><time>2026-04-11T03:54:14Z</time></trkpt><trkpt lat="43.29667517346736" lon="11.5221693078597"><ele>306.0</ele><time>2026-04-11T03:54:16Z</time></trkpt><trkpt lat="43.29670696623836" lon="11.52203186014711"><ele>306.0</ele><time>2026-04-11T03:54:18Z</time></trkpt><trkpt lat="43.29671710541132" lon="11.521890686076333"><ele>303.5</ele><time>2026-04-11T03:54:20Z</time></trkpt><trkpt lat="43.296741431355706" lon="11.521745805919513"><ele>301.0</ele><time>2026-04-11T03:54:22Z</time></trkpt><trkpt lat="43.29679995469624" lon="11.521617716523998"><ele>298.5</ele><time>2026-04-11T03:54:24Z</time></trkpt><trkpt lat="43.29689537918523" lon="11.521519065624618"><ele>296.0</ele><time>2026-04-11T03:54:26Z</time></trkpt><trkpt lat="43.29700339115944" lon="11.521458790114266"><ele>296.0</ele><time>2026-04-11T03:54:28Z</time></trkpt><trkpt lat="43.29710450853955" lon="11.52140579509839"><ele>296.0</ele><time>2026-04-11T03:54:30Z</time></trkpt><trkpt lat="43.29721114709311" lon="11.521383801854043"><ele>296.0</ele><time>2026-04-11T03:54:32Z</time></trkpt><trkpt lat="43.297317721643125" lon="11.521355046605281"><ele>296.0</ele><time>2026-04-11T03:54:34Z</time></trkpt><trkpt lat="43.297432435258926" lon="11.521337224129098"><ele>296.0</ele><time>2026-04-11T03:54:36Z</time></trkpt><trkpt lat="43.29753608990121" lon="11.521396290871303"><ele>298.0</ele><time>2026-04-11T03:54:38Z</time></trkpt><trkpt lat="43.29763199827696" lon="11.521460330834321"><ele>300.0</ele><time>2026-04-11T03:54:40Z</time></trkpt><trkpt lat="43.297721522541565" lon="11.521555426609023"><ele>302.0</ele><time>2026-04-11T03:54:42Z</time></trkpt><trkpt lat="43.29781378373328" lon="11.521653945051442"><ele>304.0</ele><time>2026-04-11T03:54:44Z</time></trkpt><trkpt lat="43.297903017795825" lon="11.521757972423451"><ele>304.0</ele><time>2026-04-11T03:54:46Z</time></trkpt><trkpt lat="43.29799344935148" lon="11.52186392800369"><ele>304.0</ele><time>2026-04-11T03:54:48Z</time></trkpt><trkpt lat="43.2980496836208" lon="11.521999233539095"><ele>304.0</ele><time>2026-04-11T03:54:50Z</time></trkpt><trkpt lat="43.29811283247" lon="11.522141622947318"><ele>304.0</ele><time>2026-04-11T03:54:52Z</time></trkpt><trkpt lat="43.29819076363791" lon="11.522273672747666"><ele>304.16666666666663</ele><time>2026-04-11T03:54:54Z</time></trkpt><trkpt lat="43.298246296754115" lon="11.522321564947864"><ele>304.3333333333333</ele><time>2026-04-11T03:54:55Z</time></trkpt><trkpt lat="43.29831500912276" lon="11.522343194565607"><ele>304.5</ele><time>2026-04-11T03:54:56Z</time></trkpt><trkpt lat="43.2983819834991" lon="11.522351769573108"><ele>304.6666666666667</ele><time>2026-04-11T03:54:57Z</time></trkpt><trkpt lat="43.298448930852196" lon="11.522304365735453"><ele>304.83333333333337</ele><time>2026-04-11T03:54:58Z</time></trkpt><trkpt lat="43.29850918260932" lon="11.522277691449785"><ele>305.0</ele><time>2026-04-11T03:54:59Z</time></trkpt><trkpt lat="43.29861976488194" lon="11.522256974930322"><ele>305.0</ele><time>2026-04-11T03:55:01Z</time></trkpt><trkpt lat="43.29872640945765" lon="11.522301774001415"><ele>305.0</ele><time>2026-04-11T03:55:03Z</time></trkpt><trkpt lat="43.29881483260284" lon="11.522388198804025"><ele>305.0</ele><time>2026-04-11T03:55:05Z</time></trkpt><trkpt lat="43.29890608753172" lon="11.522487424935797"><ele>305.0</ele><time>2026-04-11T03:55:07Z</time></trkpt><trkpt lat="43.29901228502438" lon="11.522537999383438"><ele>305.0</ele><time>2026-04-11T03:55:09Z</time></trkpt><trkpt lat="43.29911960705491" lon="11.52252715983743"><ele>303.6</ele><time>2026-04-11T03:55:11Z</time></trkpt><trkpt lat="43.29924033958414" lon="11.522510637773212"><ele>302.2</ele><time>2026-04-11T03:55:13Z</time></trkpt><trkpt lat="43.29935348279183" lon="11.52249005354817"><ele>300.8</ele><time>2026-04-11T03:55:15Z</time></trkpt><trkpt lat="43.29944990993455" lon="11.522456874561625"><ele>299.4</ele><time>2026-04-11T03:55:17Z</time></trkpt><trkpt lat="43.299544199645034" lon="11.522412146763946"><ele>298.0</ele><time>2026-04-11T03:55:19Z</time></trkpt><trkpt lat="43.29963775153702" lon="11.522343591812788"><ele>298.16666666666663</ele><time>2026-04-11T03:55:21Z</time></trkpt><trkpt lat="43.299757309979086" lon="11.522271818651413"><ele>298.3333333333333</ele><time>2026-04-11T03:55:23Z</time></trkpt><trkpt lat="43.299821838512294" lon="11.522253797991194"><ele>298.5</ele><time>2026-04-11T03:55:24Z</time></trkpt><trkpt lat="43.2999026571345" lon="11.522238733224437"><ele>298.6666666666667</ele><time>2026-04-11T03:55:25Z</time></trkpt><trkpt lat="43.29998347877531" lon="11.522238597513569"><ele>298.83333333333337</ele><time>2026-04-11T03:55:26Z</time></trkpt><trkpt lat="43.3000583403998" lon="11.522250856638685"><ele>299.0</ele><time>2026-04-11T03:55:27Z</time></trkpt><trkpt lat="43.300134643982034" lon="11.522265993324014"><ele>299.0</ele><time>2026-04-11T03:55:28Z</time></trkpt><trkpt lat="43.3002048615313" lon="11.522283644402785"><ele>299.0</ele><time>2026-04-11T03:55:29Z</time></trkpt><trkpt lat="43.30026753541891" lon="11.522301508971148"><ele>299.0</ele><time>2026-04-11T03:55:30Z</time></trkpt><trkpt lat="43.30035273984571" lon="11.522341568166498"><ele>299.0</ele><time>2026-04-11T03:55:32Z</time></trkpt><trkpt lat="43.30044101260928" lon="11.522386105404548"><ele>299.0</ele><time>2026-04-11T03:55:35Z</time></trkpt><trkpt lat="43.300511868922825" lon="11.522398358610943"><ele>299.0</ele><time>2026-04-11T03:55:37Z</time></trkpt><trkpt lat="43.30058119556046" lon="11.522433663301411"><ele>298.1666666666667</ele><time>2026-04-11T03:55:39Z</time></trkpt><trkpt lat="43.30065246718601" lon="11.522474586090459"><ele>297.33333333333337</ele><time>2026-04-11T03:55:41Z</time></trkpt><trkpt lat="43.300726794177315" lon="11.522493707306275"><ele>296.5</ele><time>2026-04-11T03:55:43Z</time></trkpt><trkpt lat="43.30080921029443" lon="11.52250928436227"><ele>295.6666666666667</ele><time>2026-04-11T03:55:46Z</time></trkpt><trkpt lat="43.300889513194136" lon="11.52252318428105"><ele>294.8333333333333</ele><time>2026-04-11T03:55:49Z</time></trkpt><trkpt lat="43.30097313292491" lon="11.522564587861444"><ele>294.0</ele><time>2026-04-11T03:55:52Z</time></trkpt><trkpt lat="43.301039436273896" lon="11.52258483684474"><ele>294.0</ele><time>2026-04-11T03:55:54Z</time></trkpt><trkpt lat="43.30110651553721" lon="11.522607939317417"><ele>294.0</ele><time>2026-04-11T03:55:56Z</time></trkpt><trkpt lat="43.30117190161953" lon="11.52263879505809"><ele>294.0</ele><time>2026-04-11T03:55:58Z</time></trkpt><trkpt lat="43.3012334799901" lon="11.522682966976552"><ele>294.0</ele><time>2026-04-11T03:56:00Z</time></trkpt><trkpt lat="43.30129838611162" lon="11.522723040133549"><ele>294.0</ele><time>2026-04-11T03:56:02Z</time></trkpt><trkpt lat="43.30136090091652" lon="11.522766261227959"><ele>294.0</ele><time>2026-04-11T03:56:04Z</time></trkpt><trkpt lat="43.301421811695825" lon="11.522799297778914"><ele>294.0</ele><time>2026-04-11T03:56:06Z</time></trkpt><trkpt lat="43.30148927356494" lon="11.522832464125141"><ele>293.3333333333333</ele><time>2026-04-11T03:56:08Z</time></trkpt><trkpt lat="43.301555746576575" lon="11.522832247704399"><ele>292.6666666666667</ele><time>2026-04-11T03:56:11Z</time></trkpt><trkpt lat="43.30164497539374" lon="11.522842480553928"><ele>292.0</ele><time>2026-04-11T03:56:14Z</time></trkpt><trkpt lat="43.30175805273729" lon="11.52286512858384"><ele>291.33333333333337</ele><time>2026-04-11T03:56:17Z</time></trkpt><trkpt lat="43.30184887759637" lon="11.522881099899578"><ele>290.6666666666667</ele><time>2026-04-11T03:56:19Z</time></trkpt><trkpt lat="43.30193234800257" lon="11.522881490347753"><ele>290.0</ele><time>2026-04-11T03:56:21Z</time></trkpt><trkpt lat="43.30203680420174" lon="11.522896326539584"><ele>290.0</ele><time>2026-04-11T03:56:24Z</time></trkpt><trkpt lat="43.30213765694109" lon="11.522862090416131"><ele>290.0</ele><time>2026-04-11T03:56:27Z</time></trkpt><trkpt lat="43.302236891429835" lon="11.522826598175874"><ele>290.0</ele><time>2026-04-11T03:56:29Z</time></trkpt><trkpt lat="43.30232591507881" lon="11.522802131308984"><ele>290.0</ele><time>2026-04-11T03:56:31Z</time></trkpt><trkpt lat="43.30242144189125" lon="11.522747978993195"><ele>290.0</ele><time>2026-04-11T03:56:33Z</time></trkpt><trkpt lat="43.302532871811316" lon="11.522733008625757"><ele>290.33333333333337</ele><time>2026-04-11T03:56:35Z</time></trkpt><trkpt lat="43.302595264925976" lon="11.522710522199915"><ele>290.6666666666667</ele><time>2026-04-11T03:56:36Z</time></trkpt><trkpt lat="43.30266412185544" lon="11.522744428921872"><ele>291.0</ele><time>2026-04-11T03:56:37Z</time></trkpt><trkpt lat="43.30278616411711" lon="11.522716321336521"><ele>291.3333333333333</ele><time>2026-04-11T03:56:39Z</time></trkpt><trkpt lat="43.30284888663901" lon="11.522689524830936"><ele>291.66666666666663</ele><time>2026-04-11T03:56:40Z</time></trkpt><trkpt lat="43.302961762602365" lon="11.522686877824189"><ele>292.0</ele><time>2026-04-11T03:56:42Z</time></trkpt><trkpt lat="43.30306893055914" lon="11.522690794461976"><ele>291.4</ele><time>2026-04-11T03:56:44Z</time></trkpt><trkpt lat="43.30318194741761" lon="11.522701751168512"><ele>290.79999999999995</ele><time>2026-04-11T03:56:46Z</time></trkpt><trkpt lat="43.303292950220325" lon="11.522729969060885"><ele>290.2</ele><time>2026-04-11T03:56:48Z</time></trkpt><trkpt lat="43.30338792968863" lon="11.52281335843972"><ele>289.59999999999997</ele><time>2026-04-11T03:56:50Z</time></trkpt><trkpt lat="43.30344497738102" lon="11.52293134549917"><ele>289.0</ele><time>2026-04-11T03:56:52Z</time></trkpt><trkpt lat="43.303506435566895" lon="11.523026964516202"><ele>292.8</ele><time>2026-04-11T03:56:54Z</time></trkpt><trkpt lat="43.30356401177131" lon="11.523124351907263"><ele>296.59999999999997</ele><time>2026-04-11T03:56:56Z</time></trkpt><trkpt lat="43.30363318826875" lon="11.523214508607792"><ele>300.4</ele><time>2026-04-11T03:56:58Z</time></trkpt><trkpt lat="43.30368229544434" lon="11.523333803019046"><ele>304.2</ele><time>2026-04-11T03:57:00Z</time></trkpt><trkpt lat="43.303737683975996" lon="11.523433771065738"><ele>308.0</ele><time>2026-04-11T03:57:02Z</time></trkpt><trkpt lat="43.30381740203824" lon="11.523537680567554"><ele>308.0</ele><time>2026-04-11T03:57:05Z</time></trkpt><trkpt lat="43.303870003704674" lon="11.523676480469744"><ele>308.0</ele><time>2026-04-11T03:57:07Z</time></trkpt><trkpt lat="43.30395214310244" lon="11.523778617627853"><ele>308.0</ele><time>2026-04-11T03:57:09Z</time></trkpt><trkpt lat="43.30406144216805" lon="11.523848182171795"><ele>308.0</ele><time>2026-04-11T03:57:11Z</time></trkpt><trkpt lat="43.3041865932338" lon="11.523875550923085"><ele>305.6666666666667</ele><time>2026-04-11T03:57:13Z</time></trkpt><trkpt lat="43.30425044899612" lon="11.52385947775561"><ele>303.33333333333337</ele><time>2026-04-11T03:57:14Z</time></trkpt><trkpt lat="43.30435195484664" lon="11.523802948390822"><ele>301.0</ele><time>2026-04-11T03:57:16Z</time></trkpt><trkpt lat="43.30441637903242" lon="11.523730053847254"><ele>298.6666666666667</ele><time>2026-04-11T03:57:18Z</time></trkpt><trkpt lat="43.3044647696425" lon="11.523665501117856"><ele>296.3333333333333</ele><time>2026-04-11T03:57:20Z</time></trkpt><trkpt lat="43.304524953105755" lon="11.52358422589394"><ele>294.0</ele><time>2026-04-11T03:57:23Z</time></trkpt><trkpt lat="43.30458156356033" lon="11.523496236324577"><ele>294.0</ele><time>2026-04-11T03:57:26Z</time></trkpt><trkpt lat="43.304630155999384" lon="11.523420021449613"><ele>294.0</ele><time>2026-04-11T03:57:29Z</time></trkpt><trkpt lat="43.30468725360692" lon="11.523339084933916"><ele>294.0</ele><time>2026-04-11T03:57:33Z</time></trkpt><trkpt lat="43.304745408121924" lon="11.523280809562612"><ele>294.0</ele><time>2026-04-11T03:57:37Z</time></trkpt><trkpt lat="43.30475816413523" lon="11.523191432788757"><ele>294.0</ele><time>2026-04-11T03:57:39Z</time></trkpt><trkpt lat="43.30481868542851" lon="11.523130763138116"><ele>294.0</ele><time>2026-04-11T03:57:42Z</time></trkpt><trkpt lat="43.304885406404146" lon="11.523098522461607"><ele>294.0</ele><time>2026-04-11T03:57:45Z</time></trkpt><trkpt lat="43.30494894230613" lon="11.523055865699188"><ele>295.14285714285717</ele><time>2026-04-11T03:57:48Z</time></trkpt><trkpt lat="43.305021372082926" lon="11.523014707601767"><ele>296.2857142857143</ele><time>2026-04-11T03:57:51Z</time></trkpt><trkpt lat="43.3050901441209" lon="11.522972758278774"><ele>297.42857142857144</ele><time>2026-04-11T03:57:54Z</time></trkpt><trkpt lat="43.30515720948766" lon="11.522928181017939"><ele>298.57142857142856</ele><time>2026-04-11T03:57:58Z</time></trkpt><trkpt lat="43.305219980753044" lon="11.522887918647042"><ele>299.7142857142857</ele><time>2026-04-11T03:58:01Z</time></trkpt><trkpt lat="43.305292946786" lon="11.522847905643504"><ele>300.8571428571429</ele><time>2026-04-11T03:58:05Z</time></trkpt><trkpt lat="43.30536206875502" lon="11.52281728902502"><ele>302.0</ele><time>2026-04-11T03:58:08Z</time></trkpt><trkpt lat="43.30542830125703" lon="11.52279393865522"><ele>302.0</ele><time>2026-04-11T03:58:11Z</time></trkpt><trkpt lat="43.30548889358189" lon="11.522758752087395"><ele>302.0</ele><time>2026-04-11T03:58:14Z</time></trkpt><trkpt lat="43.30557657493131" lon="11.522739807012567"><ele>302.0</ele><time>2026-04-11T03:58:18Z</time></trkpt><trkpt lat="43.30566033869647" lon="11.522756933453225"><ele>302.0</ele><time>2026-04-11T03:58:22Z</time></trkpt><trkpt lat="43.3057245806694" lon="11.52275584232873"><ele>302.0</ele><time>2026-04-11T03:58:26Z</time></trkpt><trkpt lat="43.30580053786974" lon="11.522782676176739"><ele>302.0</ele><time>2026-04-11T03:58:30Z</time></trkpt><trkpt lat="43.30587777859131" lon="11.522819562206019"><ele>304.0</ele><time>2026-04-11T03:58:34Z</time></trkpt><trkpt lat="43.30594202618701" lon="11.52284536510095"><ele>306.0</ele><time>2026-04-11T03:58:37Z</time></trkpt><trkpt lat="43.306023037106975" lon="11.52286902551742"><ele>308.0</ele><time>2026-04-11T03:58:41Z</time></trkpt><trkpt lat="43.30611644495532" lon="11.522887304948563"><ele>310.0</ele><time>2026-04-11T03:58:45Z</time></trkpt><trkpt lat="43.306185765717025" lon="11.522926982822332"><ele>312.0</ele><time>2026-04-11T03:58:48Z</time></trkpt><trkpt lat="43.3062552941276" lon="11.522920512801356"><ele>314.0</ele><time>2026-04-11T03:58:52Z</time></trkpt><trkpt lat="43.306329773931154" lon="11.522938476054836"><ele>314.6666666666667</ele><time>2026-04-11T03:58:56Z</time></trkpt><trkpt lat="43.30639529648234" lon="11.522929063640207"><ele>315.33333333333337</ele><time>2026-04-11T03:58:59Z</time></trkpt><trkpt lat="43.306471572141696" lon="11.522951723917519"><ele>316.0</ele><time>2026-04-11T03:59:03Z</time></trkpt><trkpt lat="43.306551123004695" lon="11.522932077573701"><ele>316.6666666666667</ele><time>2026-04-11T03:59:07Z</time></trkpt><trkpt lat="43.30662643975247" lon="11.522955937935476"><ele>317.3333333333333</ele><time>2026-04-11T03:59:11Z</time></trkpt><trkpt lat="43.30670787423189" lon="11.522967016387291"><ele>318.0</ele><time>2026-04-11T03:59:15Z</time></trkpt><trkpt lat="43.30677900998363" lon="11.52296914094353"><ele>319.1666666666667</ele><time>2026-04-11T03:59:19Z</time></trkpt><trkpt lat="43.306852529058766" lon="11.52298784325388"><ele>320.3333333333333</ele><time>2026-04-11T03:59:23Z</time></trkpt><trkpt lat="43.30693689336847" lon="11.52297974792981"><ele>321.5</ele><time>2026-04-11T03:59:28Z</time></trkpt><trkpt lat="43.30700953444765" lon="11.522999274734644"><ele>322.66666666666663</ele><time>2026-04-11T03:59:31Z</time></trkpt><trkpt lat="43.30708949219775" lon="11.523008750098727"><ele>323.8333333333333</ele><time>2026-04-11T03:59:35Z</time></trkpt><trkpt lat="43.307168439556044" lon="11.523010064421259"><ele>325.0</ele><time>2026-04-11T03:59:38Z</time></trkpt><trkpt lat="43.307249150561276" lon="11.523028662143371"><ele>325.1428571428571</ele><time>2026-04-11T03:59:41Z</time></trkpt><trkpt lat="43.30733434114481" lon="11.523067439982013"><ele>325.28571428571433</ele><time>2026-04-11T03:59:45Z</time></trkpt><trkpt lat="43.30739426543357" lon="11.523098562519227"><ele>325.42857142857144</ele><time>2026-04-11T03:59:47Z</time></trkpt><trkpt lat="43.30746700221791" lon="11.523151167395106"><ele>325.57142857142856</ele><time>2026-04-11T03:59:50Z</time></trkpt><trkpt lat="43.307509267763955" lon="11.52321732062545"><ele>325.71428571428567</ele><time>2026-04-11T03:59:52Z</time></trkpt><trkpt lat="43.30755317350278" lon="11.523284221524332"><ele>325.8571428571429</ele><time>2026-04-11T03:59:54Z</time></trkpt><trkpt lat="43.30761732584346" lon="11.523342609162231"><ele>326.0</ele><time>2026-04-11T03:59:57Z</time></trkpt><trkpt lat="43.30770065035587" lon="11.523402728472938"><ele>326.0</ele><time>2026-04-11T04:00:00Z</time></trkpt><trkpt lat="43.30776324089554" lon="11.523448905330733"><ele>326.0</ele><time>2026-04-11T04:00:02Z</time></trkpt><trkpt lat="43.30783328672683" lon="11.523512454553021"><ele>326.0</ele><time>2026-04-11T04:00:05Z</time></trkpt><trkpt lat="43.30789258668431" lon="11.523562793166748"><ele>326.0</ele><time>2026-04-11T04:00:07Z</time></trkpt><trkpt lat="43.3079763507692" lon="11.523604693859768"><ele>326.0</ele><time>2026-04-11T04:00:09Z</time></trkpt><trkpt lat="43.30804258918654" lon="11.523661817927309"><ele>326.0</ele><time>2026-04-11T04:00:11Z</time></trkpt><trkpt lat="43.30810258387309" lon="11.523707246516507"><ele>326.0</ele><time>2026-04-11T04:00:14Z</time></trkpt><trkpt lat="43.308174616409566" lon="11.5237596180674"><ele>326.0</ele><time>2026-04-11T04:00:17Z</time></trkpt><trkpt lat="43.30825553411416" lon="11.523804935696925"><ele>326.0</ele><time>2026-04-11T04:00:20Z</time></trkpt><trkpt lat="43.308336472364786" lon="11.523858240592658"><ele>326.0</ele><time>2026-04-11T04:00:22Z</time></trkpt><trkpt lat="43.30840942490854" lon="11.523984495574123"><ele>326.0</ele><time>2026-04-11T04:00:25Z</time></trkpt><trkpt lat="43.30845945921292" lon="11.52410349393881"><ele>326.0</ele><time>2026-04-11T04:00:28Z</time></trkpt><trkpt lat="43.30851879672062" lon="11.524222541415567"><ele>326.0</ele><time>2026-04-11T04:00:30Z</time></trkpt><trkpt lat="43.30859028425663" lon="11.524322378386548"><ele>326.0</ele><time>2026-04-11T04:00:32Z</time></trkpt><trkpt lat="43.30865648307352" lon="11.524407574155342"><ele>326.0</ele><time>2026-04-11T04:00:33Z</time></trkpt><trkpt lat="43.30872831501815" lon="11.524484400863274"><ele>326.0</ele><time>2026-04-11T04:00:35Z</time></trkpt><trkpt lat="43.30879179153046" lon="11.52455933642921"><ele>326.0</ele><time>2026-04-11T04:00:37Z</time></trkpt><trkpt lat="43.308896526482506" lon="11.524567411375152"><ele>326.0</ele><time>2026-04-11T04:01:44Z</time></trkpt><trkpt lat="43.30883496935197" lon="11.524587417548453"><ele>326.0</ele><time>2026-04-11T04:02:14Z</time></trkpt><trkpt lat="43.308801365493835" lon="11.524489179627611"><ele>326.0</ele><time>2026-04-11T04:05:27Z</time></trkpt><trkpt lat="43.30882007082765" lon="11.524401478471628"><ele>326.0</ele><time>2026-04-11T04:05:30Z</time></trkpt><trkpt lat="43.30884493963723" lon="11.524273032844711"><ele>326.0</ele><time>2026-04-11T04:05:33Z</time></trkpt><trkpt lat="43.30887098257998" lon="11.524158224793311"><ele>326.0</ele><time>2026-04-11T04:05:35Z</time></trkpt><trkpt lat="43.30889300432605" lon="11.524033575436926"><ele>326.0</ele><time>2026-04-11T04:05:37Z</time></trkpt><trkpt lat="43.3089027902447" lon="11.523898700087658"><ele>326.0</ele><time>2026-04-11T04:05:39Z</time></trkpt><trkpt lat="43.308910587948326" lon="11.523758088633894"><ele>326.0</ele><time>2026-04-11T04:05:41Z</time></trkpt><trkpt lat="43.308887460956555" lon="11.5236170918747"><ele>326.0</ele><time>2026-04-11T04:05:43Z</time></trkpt><trkpt lat="43.30886173564596" lon="11.523474058795518"><ele>326.1666666666667</ele><time>2026-04-11T04:05:45Z</time></trkpt><trkpt lat="43.30884783341923" lon="11.523317470263555"><ele>326.33333333333337</ele><time>2026-04-11T04:05:47Z</time></trkpt><trkpt lat="43.30891441717217" lon="11.523173005221604"><ele>326.5</ele><time>2026-04-11T04:05:49Z</time></trkpt><trkpt lat="43.30894707688436" lon="11.523084129484513"><ele>326.6666666666667</ele><time>2026-04-11T04:05:50Z</time></trkpt><trkpt lat="43.30900525715018" lon="11.523038718191456"><ele>326.8333333333333</ele><time>2026-04-11T04:05:51Z</time></trkpt><trkpt lat="43.3090590523989" lon="11.522975814555634"><ele>327.0</ele><time>2026-04-11T04:05:52Z</time></trkpt><trkpt lat="43.30911885348186" lon="11.52291559164709"><ele>324.1666666666667</ele><time>2026-04-11T04:05:53Z</time></trkpt><trkpt lat="43.30918787833214" lon="11.522850472166201"><ele>321.3333333333333</ele><time>2026-04-11T04:05:54Z</time></trkpt><trkpt lat="43.309261711976234" lon="11.522789425125177"><ele>318.5</ele><time>2026-04-11T04:05:55Z</time></trkpt><trkpt lat="43.30934081527433" lon="11.522735881602994"><ele>315.66666666666663</ele><time>2026-04-11T04:05:56Z</time></trkpt><trkpt lat="43.30942148588904" lon="11.522688277942823"><ele>312.8333333333333</ele><time>2026-04-11T04:05:57Z</time></trkpt><trkpt lat="43.30950152738628" lon="11.522636056129937"><ele>310.0</ele><time>2026-04-11T04:05:58Z</time></trkpt><trkpt lat="43.309575520447154" lon="11.52255799018452"><ele>310.0</ele><time>2026-04-11T04:05:59Z</time></trkpt><trkpt lat="43.30965117335496" lon="11.522496682894529"><ele>310.0</ele><time>2026-04-11T04:06:00Z</time></trkpt><trkpt lat="43.30971451670212" lon="11.522425212662492"><ele>310.0</ele><time>2026-04-11T04:06:01Z</time></trkpt><trkpt lat="43.30976810652884" lon="11.522351768692731"><ele>310.0</ele><time>2026-04-11T04:06:02Z</time></trkpt><trkpt lat="43.30981075930145" lon="11.522272081939985"><ele>310.0</ele><time>2026-04-11T04:06:03Z</time></trkpt><trkpt lat="43.309843448767474" lon="11.522184697513184"><ele>310.0</ele><time>2026-04-11T04:06:04Z</time></trkpt><trkpt lat="43.309869010312156" lon="11.522091341599923"><ele>309.2857142857143</ele><time>2026-04-11T04:06:05Z</time></trkpt><trkpt lat="43.30987959259304" lon="11.52199105655078"><ele>308.57142857142856</ele><time>2026-04-11T04:06:06Z</time></trkpt><trkpt lat="43.30988234317961" lon="11.521894607235941"><ele>307.8571428571429</ele><time>2026-04-11T04:06:07Z</time></trkpt><trkpt lat="43.30987301155982" lon="11.521796451046914"><ele>307.1428571428571</ele><time>2026-04-11T04:06:08Z</time></trkpt><trkpt lat="43.30986492165568" lon="11.521699013026529"><ele>306.4285714285714</ele><time>2026-04-11T04:06:09Z</time></trkpt><trkpt lat="43.30983648271873" lon="11.521596771125726"><ele>305.7142857142857</ele><time>2026-04-11T04:06:10Z</time></trkpt><trkpt lat="43.30980768683019" lon="11.521495304994826"><ele>305.0</ele><time>2026-04-11T04:06:11Z</time></trkpt><trkpt lat="43.30977054797196" lon="11.521391075261239"><ele>303.0</ele><time>2026-04-11T04:06:12Z</time></trkpt><trkpt lat="43.30974121259412" lon="11.521278527424533"><ele>301.0</ele><time>2026-04-11T04:06:13Z</time></trkpt><trkpt lat="43.309717070864814" lon="11.521159337845102"><ele>299.0</ele><time>2026-04-11T04:06:14Z</time></trkpt><trkpt lat="43.30970570022355" lon="11.521029382073245"><ele>297.0</ele><time>2026-04-11T04:06:15Z</time></trkpt><trkpt lat="43.30969575125628" lon="11.520899842967884"><ele>295.0</ele><time>2026-04-11T04:06:16Z</time></trkpt><trkpt lat="43.309690245780594" lon="11.52076244490631"><ele>295.2</ele><time>2026-04-11T04:06:17Z</time></trkpt><trkpt lat="43.30968489117865" lon="11.520629527883639"><ele>295.4</ele><time>2026-04-11T04:06:18Z</time></trkpt><trkpt lat="43.309680537402976" lon="11.520500957463122"><ele>295.6</ele><time>2026-04-11T04:06:19Z</time></trkpt><trkpt lat="43.309677941084814" lon="11.520368755663922"><ele>295.8</ele><time>2026-04-11T04:06:20Z</time></trkpt><trkpt lat="43.30966243857848" lon="11.520235336272881"><ele>296.0</ele><time>2026-04-11T04:06:21Z</time></trkpt><trkpt lat="43.30964900811432" lon="11.520111707860256"><ele>296.0</ele><time>2026-04-11T04:06:22Z</time></trkpt><trkpt lat="43.30964625286257" lon="11.519992463015727"><ele>296.0</ele><time>2026-04-11T04:06:23Z</time></trkpt><trkpt lat="43.30965581444991" lon="11.519862055964945"><ele>296.0</ele><time>2026-04-11T04:06:24Z</time></trkpt><trkpt lat="43.309677624814405" lon="11.519733355574866"><ele>296.0</ele><time>2026-04-11T04:06:25Z</time></trkpt><trkpt lat="43.30971435058922" lon="11.519621844139968"><ele>296.0</ele><time>2026-04-11T04:06:26Z</time></trkpt><trkpt lat="43.309745583861975" lon="11.519486734957644"><ele>296.0</ele><time>2026-04-11T04:06:27Z</time></trkpt><trkpt lat="43.309794734654965" lon="11.519370263200301"><ele>296.0</ele><time>2026-04-11T04:06:28Z</time></trkpt><trkpt lat="43.30983720375317" lon="11.519256549325885"><ele>296.0</ele><time>2026-04-11T04:06:29Z</time></trkpt><trkpt lat="43.30987788847403" lon="11.51913597228627"><ele>296.0</ele><time>2026-04-11T04:06:30Z</time></trkpt><trkpt lat="43.30991522083143" lon="11.51901951368189"><ele>296.0</ele><time>2026-04-11T04:06:31Z</time></trkpt><trkpt lat="43.309934601970355" lon="11.518899619055572"><ele>296.0</ele><time>2026-04-11T04:06:32Z</time></trkpt><trkpt lat="43.309950540074524" lon="11.518779111588124"><ele>296.0</ele><time>2026-04-11T04:06:33Z</time></trkpt><trkpt lat="43.30994414327402" lon="11.518661967897849"><ele>296.0</ele><time>2026-04-11T04:06:34Z</time></trkpt><trkpt lat="43.30993481999692" lon="11.518543336515888"><ele>296.0</ele><time>2026-04-11T04:06:35Z</time></trkpt><trkpt lat="43.30991012148632" lon="11.518430057149077"><ele>296.0</ele><time>2026-04-11T04:06:36Z</time></trkpt><trkpt lat="43.30988023955108" lon="11.518312232540257"><ele>296.0</ele><time>2026-04-11T04:06:37Z</time></trkpt><trkpt lat="43.309845349981394" lon="11.518198855301767"><ele>295.83333333333337</ele><time>2026-04-11T04:06:38Z</time></trkpt><trkpt lat="43.309810000832556" lon="11.518086763508736"><ele>295.6666666666667</ele><time>2026-04-11T04:06:39Z</time></trkpt><trkpt lat="43.309772694803925" lon="11.517973684691428"><ele>295.5</ele><time>2026-04-11T04:06:40Z</time></trkpt><trkpt lat="43.30973219055652" lon="11.517870522194588"><ele>295.3333333333333</ele><time>2026-04-11T04:06:41Z</time></trkpt><trkpt lat="43.30967863449479" lon="11.517776189212286"><ele>295.16666666666663</ele><time>2026-04-11T04:06:42Z</time></trkpt><trkpt lat="43.309616900874396" lon="11.517690078019248"><ele>295.0</ele><time>2026-04-11T04:06:43Z</time></trkpt><trkpt lat="43.30955109401026" lon="11.517611504966167"><ele>294.16666666666663</ele><time>2026-04-11T04:06:44Z</time></trkpt><trkpt lat="43.30948435246969" lon="11.517529810724337"><ele>293.3333333333333</ele><time>2026-04-11T04:06:45Z</time></trkpt><trkpt lat="43.30941437278318" lon="11.51745602500596"><ele>292.5</ele><time>2026-04-11T04:06:46Z</time></trkpt><trkpt lat="43.30934851139178" lon="11.51737364110328"><ele>291.6666666666667</ele><time>2026-04-11T04:06:47Z</time></trkpt><trkpt lat="43.30928430089954" lon="11.517288214121864"><ele>290.83333333333337</ele><time>2026-04-11T04:06:48Z</time></trkpt><trkpt lat="43.30923550709937" lon="11.517192379349275"><ele>290.0</ele><time>2026-04-11T04:06:49Z</time></trkpt><trkpt lat="43.309194905203654" lon="11.517094305189115"><ele>290.6666666666667</ele><time>2026-04-11T04:06:50Z</time></trkpt><trkpt lat="43.309170792724316" lon="11.516992853598301"><ele>291.33333333333337</ele><time>2026-04-11T04:06:51Z</time></trkpt><trkpt lat="43.309161338556315" lon="11.516891756031606"><ele>292.0</ele><time>2026-04-11T04:06:52Z</time></trkpt><trkpt lat="43.30916318021809" lon="11.516800192383544"><ele>292.6666666666667</ele><time>2026-04-11T04:06:53Z</time></trkpt><trkpt lat="43.309205399369354" lon="11.516636935941458"><ele>293.3333333333333</ele><time>2026-04-11T04:06:55Z</time></trkpt><trkpt lat="43.30926064852709" lon="11.516581384716376"><ele>294.0</ele><time>2026-04-11T04:06:56Z</time></trkpt><trkpt lat="43.30934014231432" lon="11.516450167652845"><ele>294.0</ele><time>2026-04-11T04:06:58Z</time></trkpt><trkpt lat="43.309430447972076" lon="11.516338100557439"><ele>294.0</ele><time>2026-04-11T04:07:00Z</time></trkpt><trkpt lat="43.30952855461766" lon="11.516242427532717"><ele>294.0</ele><time>2026-04-11T04:07:02Z</time></trkpt><trkpt lat="43.30962332416256" lon="11.51612291680704"><ele>294.0</ele><time>2026-04-11T04:07:04Z</time></trkpt><trkpt lat="43.30967303095397" lon="11.516059239820478"><ele>294.0</ele><time>2026-04-11T04:07:05Z</time></trkpt><trkpt lat="43.309724652932495" lon="11.515993109778073"><ele>293.1666666666667</ele><time>2026-04-11T04:07:06Z</time></trkpt><trkpt lat="43.30976718801895" lon="11.515911089950805"><ele>292.3333333333333</ele><time>2026-04-11T04:07:07Z</time></trkpt><trkpt lat="43.309826686317905" lon="11.515842191430842"><ele>291.5</ele><time>2026-04-11T04:07:08Z</time></trkpt><trkpt lat="43.309884292194994" lon="11.515768353738913"><ele>290.66666666666663</ele><time>2026-04-11T04:07:09Z</time></trkpt><trkpt lat="43.30994214835384" lon="11.515695722500965"><ele>289.8333333333333</ele><time>2026-04-11T04:07:10Z</time></trkpt><trkpt lat="43.310012005806385" lon="11.51564045235697"><ele>289.0</ele><time>2026-04-11T04:07:11Z</time></trkpt><trkpt lat="43.310078952969796" lon="11.515571669225588"><ele>289.0</ele><time>2026-04-11T04:07:12Z</time></trkpt><trkpt lat="43.310143973799924" lon="11.515490788426751"><ele>289.0</ele><time>2026-04-11T04:07:13Z</time></trkpt><trkpt lat="43.31022267217678" lon="11.515437414138793"><ele>289.0</ele><time>2026-04-11T04:07:14Z</time></trkpt><trkpt lat="43.31031265274069" lon="11.515409929424028"><ele>289.0</ele><time>2026-04-11T04:07:15Z</time></trkpt><trkpt lat="43.31040097389319" lon="11.515369439217377"><ele>289.0</ele><time>2026-04-11T04:07:16Z</time></trkpt><trkpt lat="43.310493372666606" lon="11.515332438564657"><ele>287.8</ele><time>2026-04-11T04:07:17Z</time></trkpt><trkpt lat="43.310584473078" lon="11.515281678777223"><ele>286.59999999999997</ele><time>2026-04-11T04:07:18Z</time></trkpt><trkpt lat="43.310681305582314" lon="11.515252213445414"><ele>285.4</ele><time>2026-04-11T04:07:19Z</time></trkpt><trkpt lat="43.310776992473734" lon="11.515224023038567"><ele>284.2</ele><time>2026-04-11T04:07:20Z</time></trkpt><trkpt lat="43.310872842074666" lon="11.51519611543743"><ele>283.0</ele><time>2026-04-11T04:07:21Z</time></trkpt><trkpt lat="43.31096012568765" lon="11.515197183838156"><ele>283.0</ele><time>2026-04-11T04:07:22Z</time></trkpt><trkpt lat="43.31104639651434" lon="11.515185949462376"><ele>283.0</ele><time>2026-04-11T04:07:23Z</time></trkpt><trkpt lat="43.311127579999244" lon="11.515155799388802"><ele>283.0</ele><time>2026-04-11T04:07:24Z</time></trkpt><trkpt lat="43.31120652688176" lon="11.515175173203021"><ele>283.0</ele><time>2026-04-11T04:07:25Z</time></trkpt><trkpt lat="43.31128286567823" lon="11.51517467450698"><ele>283.0</ele><time>2026-04-11T04:07:26Z</time></trkpt><trkpt lat="43.31135350338691" lon="11.515162966715918"><ele>283.0</ele><time>2026-04-11T04:07:27Z</time></trkpt><trkpt lat="43.31141861297629" lon="11.515164701693546"><ele>284.6</ele><time>2026-04-11T04:07:28Z</time></trkpt><trkpt lat="43.3115389537681" lon="11.515168158409251"><ele>286.20000000000005</ele><time>2026-04-11T04:07:30Z</time></trkpt><trkpt lat="43.311637896959915" lon="11.515167661874782"><ele>287.8</ele><time>2026-04-11T04:07:32Z</time></trkpt><trkpt lat="43.311733371366785" lon="11.515163658840722"><ele>289.40000000000003</ele><time>2026-04-11T04:07:34Z</time></trkpt><trkpt lat="43.31182730831141" lon="11.515167074597795"><ele>291.0</ele><time>2026-04-11T04:07:36Z</time></trkpt><trkpt lat="43.31191736887067" lon="11.5151304786815"><ele>291.0</ele><time>2026-04-11T04:07:38Z</time></trkpt><trkpt lat="43.31199983874094" lon="11.515067690411687"><ele>291.0</ele><time>2026-04-11T04:07:40Z</time></trkpt><trkpt lat="43.31207144586398" lon="11.514982902951372"><ele>291.0</ele><time>2026-04-11T04:07:42Z</time></trkpt><trkpt lat="43.31212215173494" lon="11.514881269606683"><ele>291.0</ele><time>2026-04-11T04:07:44Z</time></trkpt><trkpt lat="43.3121742639583" lon="11.51478538294472"><ele>291.0</ele><time>2026-04-11T04:07:46Z</time></trkpt><trkpt lat="43.312207090060745" lon="11.514703641651996"><ele>291.0</ele><time>2026-04-11T04:07:49Z</time></trkpt><trkpt lat="43.312239688864544" lon="11.514617620550695"><ele>292.0</ele><time>2026-04-11T04:07:52Z</time></trkpt><trkpt lat="43.31227557775827" lon="11.514541155886732"><ele>293.0</ele><time>2026-04-11T04:07:55Z</time></trkpt><trkpt lat="43.312316237934844" lon="11.51445620424285"><ele>294.0</ele><time>2026-04-11T04:07:58Z</time></trkpt><trkpt lat="43.31237008157465" lon="11.514365772833854"><ele>295.0</ele><time>2026-04-11T04:08:01Z</time></trkpt><trkpt lat="43.31242304499773" lon="11.514264176877392"><ele>296.0</ele><time>2026-04-11T04:08:04Z</time></trkpt><trkpt lat="43.312527513214725" lon="11.514152252059452"><ele>297.0</ele><time>2026-04-11T04:08:07Z</time></trkpt><trkpt lat="43.31258499360153" lon="11.51410068439298"><ele>297.0</ele><time>2026-04-11T04:08:11Z</time></trkpt><trkpt lat="43.31269066801649" lon="11.514029605663103"><ele>297.0</ele><time>2026-04-11T04:08:13Z</time></trkpt><trkpt lat="43.31279183383125" lon="11.513952230948437"><ele>297.0</ele><time>2026-04-11T04:08:15Z</time></trkpt><trkpt lat="43.31289189890258" lon="11.51389228025969"><ele>297.0</ele><time>2026-04-11T04:08:17Z</time></trkpt><trkpt lat="43.312976753149584" lon="11.513858468793257"><ele>297.0</ele><time>2026-04-11T04:08:19Z</time></trkpt><trkpt lat="43.31305383915463" lon="11.513853326968684"><ele>297.3333333333333</ele><time>2026-04-11T04:08:21Z</time></trkpt><trkpt lat="43.31312650165034" lon="11.513841102704742"><ele>297.6666666666667</ele><time>2026-04-11T04:08:23Z</time></trkpt><trkpt lat="43.313202586299056" lon="11.513836908953108"><ele>298.0</ele><time>2026-04-11T04:08:26Z</time></trkpt><trkpt lat="43.313296663390744" lon="11.513878244157931"><ele>298.33333333333337</ele><time>2026-04-11T04:08:30Z</time></trkpt><trkpt lat="43.31334851749316" lon="11.513945988780618"><ele>298.6666666666667</ele><time>2026-04-11T04:08:33Z</time></trkpt><trkpt lat="43.31341054647918" lon="11.513984247796964"><ele>299.0</ele><time>2026-04-11T04:08:36Z</time></trkpt><trkpt lat="43.31347908267958" lon="11.514009624977726"><ele>299.0</ele><time>2026-04-11T04:08:39Z</time></trkpt><trkpt lat="43.313544820720494" lon="11.514052922067078"><ele>299.0</ele><time>2026-04-11T04:08:42Z</time></trkpt><trkpt lat="43.31360944329905" lon="11.514095640978951"><ele>299.0</ele><time>2026-04-11T04:08:45Z</time></trkpt><trkpt lat="43.31367528891151" lon="11.514123064027851"><ele>299.0</ele><time>2026-04-11T04:08:48Z</time></trkpt><trkpt lat="43.31373928295721" lon="11.51417780294813"><ele>299.0</ele><time>2026-04-11T04:08:53Z</time></trkpt><trkpt lat="43.313811082676004" lon="11.514232348148832"><ele>299.0</ele><time>2026-04-11T04:08:56Z</time></trkpt><trkpt lat="43.31387333708373" lon="11.514301054884413"><ele>299.0</ele><time>2026-04-11T04:09:04Z</time></trkpt><trkpt lat="43.31394754040845" lon="11.51439487198288"><ele>299.0</ele><time>2026-04-11T04:09:07Z</time></trkpt><trkpt lat="43.31399517608575" lon="11.514478113049918"><ele>299.0</ele><time>2026-04-11T04:09:09Z</time></trkpt><trkpt lat="43.31405478003481" lon="11.51454926490478"><ele>299.0</ele><time>2026-04-11T04:09:11Z</time></trkpt><trkpt lat="43.31412931569178" lon="11.51461305917267"><ele>299.0</ele><time>2026-04-11T04:09:13Z</time></trkpt><trkpt lat="43.31423199817887" lon="11.514649621748866"><ele>299.0</ele><time>2026-04-11T04:09:15Z</time></trkpt><trkpt lat="43.31434883439641" lon="11.51463486958768"><ele>299.0</ele><time>2026-04-11T04:09:17Z</time></trkpt><trkpt lat="43.314461254795866" lon="11.514580736451851"><ele>299.0</ele><time>2026-04-11T04:09:19Z</time></trkpt><trkpt lat="43.31451377251374" lon="11.514521472060832"><ele>299.0</ele><time>2026-04-11T04:09:20Z</time></trkpt><trkpt lat="43.31455226384714" lon="11.514441244767715"><ele>299.0</ele><time>2026-04-11T04:09:21Z</time></trkpt><trkpt lat="43.31459584983186" lon="11.514372674223862"><ele>299.0</ele><time>2026-04-11T04:09:22Z</time></trkpt><trkpt lat="43.314637973593825" lon="11.51430018454809"><ele>299.1428571428571</ele><time>2026-04-11T04:09:23Z</time></trkpt><trkpt lat="43.314674071817315" lon="11.514221788022288"><ele>299.2857142857143</ele><time>2026-04-11T04:09:24Z</time></trkpt><trkpt lat="43.31470769880961" lon="11.514136261480957"><ele>299.42857142857144</ele><time>2026-04-11T04:09:25Z</time></trkpt><trkpt lat="43.31474626528611" lon="11.51405562386728"><ele>299.57142857142856</ele><time>2026-04-11T04:09:26Z</time></trkpt><trkpt lat="43.31479384254797" lon="11.51398214005319"><ele>299.7142857142857</ele><time>2026-04-11T04:09:27Z</time></trkpt><trkpt lat="43.31486054136141" lon="11.513922295851847"><ele>299.85714285714283</ele><time>2026-04-11T04:09:28Z</time></trkpt><trkpt lat="43.31494451977095" lon="11.513915506877652"><ele>300.0</ele><time>2026-04-11T04:09:29Z</time></trkpt><trkpt lat="43.31502556140986" lon="11.513896616092918"><ele>300.6666666666667</ele><time>2026-04-11T04:09:30Z</time></trkpt><trkpt lat="43.31511226345619" lon="11.513888807488762"><ele>301.3333333333333</ele><time>2026-04-11T04:09:31Z</time></trkpt><trkpt lat="43.315203804714876" lon="11.51386560381507"><ele>302.0</ele><time>2026-04-11T04:09:32Z</time></trkpt><trkpt lat="43.31529155178489" lon="11.513873013572567"><ele>302.66666666666663</ele><time>2026-04-11T04:09:33Z</time></trkpt><trkpt lat="43.315368368340984" lon="11.51387623622903"><ele>303.3333333333333</ele><time>2026-04-11T04:09:34Z</time></trkpt><trkpt lat="43.31543914730297" lon="11.513898984597503"><ele>304.0</ele><time>2026-04-11T04:09:35Z</time></trkpt><trkpt lat="43.3155011596733" lon="11.513949055288752"><ele>304.0</ele><time>2026-04-11T04:09:36Z</time></trkpt><trkpt lat="43.315544657122814" lon="11.514026665691427"><ele>304.0</ele><time>2026-04-11T04:09:37Z</time></trkpt><trkpt lat="43.31556684527095" lon="11.514120502196299"><ele>304.0</ele><time>2026-04-11T04:09:38Z</time></trkpt><trkpt lat="43.31555309444802" lon="11.51420618005289"><ele>304.0</ele><time>2026-04-11T04:09:39Z</time></trkpt><trkpt lat="43.315568422459876" lon="11.514364260102411"><ele>304.0</ele><time>2026-04-11T04:09:41Z</time></trkpt><trkpt lat="43.31560025782267" lon="11.514522464518263"><ele>304.0</ele><time>2026-04-11T04:09:43Z</time></trkpt><trkpt lat="43.31561853748762" lon="11.514683816694554"><ele>303.16666666666663</ele><time>2026-04-11T04:09:45Z</time></trkpt><trkpt lat="43.315664430170855" lon="11.514844318808006"><ele>302.3333333333333</ele><time>2026-04-11T04:09:47Z</time></trkpt><trkpt lat="43.3156836533329" lon="11.514930507708115"><ele>301.5</ele><time>2026-04-11T04:09:48Z</time></trkpt><trkpt lat="43.31572100928338" lon="11.515004903301419"><ele>300.6666666666667</ele><time>2026-04-11T04:09:49Z</time></trkpt><trkpt lat="43.31576157271829" lon="11.515072953830764"><ele>299.83333333333337</ele><time>2026-04-11T04:09:50Z</time></trkpt><trkpt lat="43.315855875273634" lon="11.515191352301438"><ele>299.0</ele><time>2026-04-11T04:09:52Z</time></trkpt><trkpt lat="43.31591371491247" lon="11.515238894653756"><ele>299.0</ele><time>2026-04-11T04:09:53Z</time></trkpt><trkpt lat="43.315972493129514" lon="11.515274968551273"><ele>299.0</ele><time>2026-04-11T04:09:54Z</time></trkpt><trkpt lat="43.316100827693575" lon="11.515306631067906"><ele>299.0</ele><time>2026-04-11T04:09:56Z</time></trkpt><trkpt lat="43.31616511690136" lon="11.515306635251639"><ele>299.0</ele><time>2026-04-11T04:09:57Z</time></trkpt><trkpt lat="43.31623034634162" lon="11.515293224231812"><ele>299.0</ele><time>2026-04-11T04:09:58Z</time></trkpt><trkpt lat="43.316352546466355" lon="11.515263385570398"><ele>299.0</ele><time>2026-04-11T04:10:00Z</time></trkpt><trkpt lat="43.31641436695959" lon="11.515243822931927"><ele>299.1428571428571</ele><time>2026-04-11T04:10:01Z</time></trkpt><trkpt lat="43.316476354172764" lon="11.515198786916182"><ele>299.2857142857143</ele><time>2026-04-11T04:10:02Z</time></trkpt><trkpt lat="43.31653758634638" lon="11.515174713737615"><ele>299.42857142857144</ele><time>2026-04-11T04:10:03Z</time></trkpt><trkpt lat="43.316601563796034" lon="11.515147314624613"><ele>299.57142857142856</ele><time>2026-04-11T04:10:04Z</time></trkpt><trkpt lat="43.31666745049469" lon="11.515117956129394"><ele>299.7142857142857</ele><time>2026-04-11T04:10:05Z</time></trkpt><trkpt lat="43.316736089774835" lon="11.515111459156435"><ele>299.85714285714283</ele><time>2026-04-11T04:10:06Z</time></trkpt><trkpt lat="43.316795520890814" lon="11.515062078210066"><ele>300.0</ele><time>2026-04-11T04:10:07Z</time></trkpt><trkpt lat="43.31686329644" lon="11.515034895158392"><ele>299.99999999999994</ele><time>2026-04-11T04:10:08Z</time></trkpt><trkpt lat="43.31693104293104" lon="11.515005399664668"><ele>300.0</ele><time>2026-04-11T04:10:09Z</time></trkpt><trkpt lat="43.31699532200055" lon="11.514974694642683"><ele>300.0</ele><time>2026-04-11T04:10:10Z</time></trkpt><trkpt lat="43.317056548567535" lon="11.514942998291282"><ele>300.0</ele><time>2026-04-11T04:10:11Z</time></trkpt><trkpt lat="43.31712323177631" lon="11.514917693455873"><ele>300.0</ele><time>2026-04-11T04:10:12Z</time></trkpt><trkpt lat="43.31718720055842" lon="11.514890604668045"><ele>299.99999999999994</ele><time>2026-04-11T04:10:13Z</time></trkpt><trkpt lat="43.31725121739662" lon="11.514861210105567"><ele>300.0</ele><time>2026-04-11T04:10:14Z</time></trkpt><trkpt lat="43.317314242891655" lon="11.514830583680443"><ele>300.1428571428571</ele><time>2026-04-11T04:10:15Z</time></trkpt><trkpt lat="43.31737695668358" lon="11.514796320379505"><ele>300.2857142857143</ele><time>2026-04-11T04:10:16Z</time></trkpt><trkpt lat="43.317435147951656" lon="11.51475010508915"><ele>300.42857142857144</ele><time>2026-04-11T04:10:17Z</time></trkpt><trkpt lat="43.317484484796296" lon="11.514683002559481"><ele>300.57142857142856</ele><time>2026-04-11T04:10:18Z</time></trkpt><trkpt lat="43.31752760304056" lon="11.514606188384068"><ele>300.7142857142857</ele><time>2026-04-11T04:10:19Z</time></trkpt><trkpt lat="43.317568858209924" lon="11.514523535706571"><ele>300.85714285714283</ele><time>2026-04-11T04:10:20Z</time></trkpt><trkpt lat="43.317603761861356" lon="11.514437294460366"><ele>301.0</ele><time>2026-04-11T04:10:21Z</time></trkpt><trkpt lat="43.31763139406306" lon="11.514345669126707"><ele>301.0</ele><time>2026-04-11T04:10:22Z</time></trkpt><trkpt lat="43.31765782459412" lon="11.514250429008678"><ele>301.0</ele><time>2026-04-11T04:10:23Z</time></trkpt><trkpt lat="43.317680663200655" lon="11.51415215461193"><ele>301.0</ele><time>2026-04-11T04:10:24Z</time></trkpt><trkpt lat="43.31770070291869" lon="11.514050146582093"><ele>301.0</ele><time>2026-04-11T04:10:25Z</time></trkpt><trkpt lat="43.317719569169775" lon="11.513948310250315"><ele>301.0</ele><time>2026-04-11T04:10:26Z</time></trkpt><trkpt lat="43.31774664787561" lon="11.51384967499495"><ele>301.0</ele><time>2026-04-11T04:10:27Z</time></trkpt><trkpt lat="43.31777276953514" lon="11.513747808895744"><ele>300.5</ele><time>2026-04-11T04:10:28Z</time></trkpt><trkpt lat="43.31781474140346" lon="11.513653782306159"><ele>300.0</ele><time>2026-04-11T04:10:29Z</time></trkpt><trkpt lat="43.317867750756214" lon="11.513568862798191"><ele>299.5</ele><time>2026-04-11T04:10:30Z</time></trkpt><trkpt lat="43.317937697168695" lon="11.513500739956216"><ele>299.0</ele><time>2026-04-11T04:10:31Z</time></trkpt><trkpt lat="43.318010019588066" lon="11.51344491763431"><ele>298.5</ele><time>2026-04-11T04:10:32Z</time></trkpt><trkpt lat="43.31809259449065" lon="11.513414624800308"><ele>298.0</ele><time>2026-04-11T04:10:33Z</time></trkpt><trkpt lat="43.31817651472472" lon="11.513389054641234"><ele>298.0</ele><time>2026-04-11T04:10:34Z</time></trkpt><trkpt lat="43.31826288098792" lon="11.513372946581343"><ele>298.0</ele><time>2026-04-11T04:10:35Z</time></trkpt><trkpt lat="43.31835014903285" lon="11.5133717659462"><ele>298.0</ele><time>2026-04-11T04:10:36Z</time></trkpt><trkpt lat="43.31843364092381" lon="11.513387722819637"><ele>298.0</ele><time>2026-04-11T04:10:37Z</time></trkpt><trkpt lat="43.31851315018567" lon="11.51341724022212"><ele>298.0</ele><time>2026-04-11T04:10:38Z</time></trkpt><trkpt lat="43.31857398395427" lon="11.513487903600092"><ele>298.0</ele><time>2026-04-11T04:10:39Z</time></trkpt><trkpt lat="43.318635653071354" lon="11.513548438329188"><ele>298.0</ele><time>2026-04-11T04:10:40Z</time></trkpt><trkpt lat="43.31869481374622" lon="11.51360800065984"><ele>298.0</ele><time>2026-04-11T04:10:41Z</time></trkpt><trkpt lat="43.3187120328293" lon="11.513716771786433"><ele>298.0</ele><time>2026-04-11T04:10:42Z</time></trkpt><trkpt lat="43.318740946137396" lon="11.513813500081516"><ele>298.0</ele><time>2026-04-11T04:10:43Z</time></trkpt><trkpt lat="43.3187407106828" lon="11.51391388544227"><ele>298.0</ele><time>2026-04-11T04:10:44Z</time></trkpt><trkpt lat="43.31876068859594" lon="11.514013673800733"><ele>298.0</ele><time>2026-04-11T04:10:45Z</time></trkpt><trkpt lat="43.318745648488736" lon="11.514121895868167"><ele>298.0</ele><time>2026-04-11T04:10:46Z</time></trkpt><trkpt lat="43.31871671125119" lon="11.514224892133196"><ele>298.0</ele><time>2026-04-11T04:10:47Z</time></trkpt><trkpt lat="43.318668984669785" lon="11.514323382950545"><ele>298.0</ele><time>2026-04-11T04:10:48Z</time></trkpt><trkpt lat="43.31861071643647" lon="11.514413592052492"><ele>298.0</ele><time>2026-04-11T04:10:49Z</time></trkpt><trkpt lat="43.31853999271284" lon="11.51449275159063"><ele>298.0</ele><time>2026-04-11T04:10:50Z</time></trkpt><trkpt lat="43.31847329200708" lon="11.514564865049788"><ele>298.0</ele><time>2026-04-11T04:10:51Z</time></trkpt><trkpt lat="43.31841176234215" lon="11.514629579702717"><ele>298.0</ele><time>2026-04-11T04:10:52Z</time></trkpt><trkpt lat="43.31835683884363" lon="11.514705172020532"><ele>298.0</ele><time>2026-04-11T04:10:53Z</time></trkpt><trkpt lat="43.31833043015777" lon="11.514793048464197"><ele>298.0</ele><time>2026-04-11T04:10:54Z</time></trkpt><trkpt lat="43.31834122778567" lon="11.514957516338034"><ele>298.0</ele><time>2026-04-11T04:10:56Z</time></trkpt><trkpt lat="43.31839073984275" lon="11.515023842427896"><ele>298.0</ele><time>2026-04-11T04:10:57Z</time></trkpt><trkpt lat="43.31845957535567" lon="11.515052951974184"><ele>298.0</ele><time>2026-04-11T04:10:58Z</time></trkpt><trkpt lat="43.31854298384216" lon="11.515012955249276"><ele>298.0</ele><time>2026-04-11T04:10:59Z</time></trkpt><trkpt lat="43.3186017343047" lon="11.514935896900889"><ele>298.0</ele><time>2026-04-11T04:11:00Z</time></trkpt><trkpt lat="43.31866647735712" lon="11.514728965437705"><ele>298.0</ele><time>2026-04-11T04:11:02Z</time></trkpt><trkpt lat="43.318713677568034" lon="11.514653584110954"><ele>298.0</ele><time>2026-04-11T04:11:03Z</time></trkpt><trkpt lat="43.3187658962041" lon="11.5145755908363"><ele>298.0</ele><time>2026-04-11T04:11:04Z</time></trkpt><trkpt lat="43.31881807484312" lon="11.514495845882799"><ele>298.2857142857143</ele><time>2026-04-11T04:11:05Z</time></trkpt><trkpt lat="43.31886608583906" lon="11.514420857038289"><ele>298.57142857142856</ele><time>2026-04-11T04:11:06Z</time></trkpt><trkpt lat="43.31891223485641" lon="11.514345984268829"><ele>298.85714285714283</ele><time>2026-04-11T04:11:07Z</time></trkpt><trkpt lat="43.318952175569706" lon="11.514266296889254"><ele>299.1428571428571</ele><time>2026-04-11T04:11:08Z</time></trkpt><trkpt lat="43.3189801159593" lon="11.514170836602402"><ele>299.42857142857144</ele><time>2026-04-11T04:11:09Z</time></trkpt><trkpt lat="43.31899389496991" lon="11.514069897935547"><ele>299.71428571428567</ele><time>2026-04-11T04:11:10Z</time></trkpt><trkpt lat="43.319001047513176" lon="11.513963265587611"><ele>300.0</ele><time>2026-04-11T04:11:11Z</time></trkpt><trkpt lat="43.31899426581176" lon="11.513856564926705"><ele>298.8333333333333</ele><time>2026-04-11T04:11:12Z</time></trkpt><trkpt lat="43.31898615784186" lon="11.513747748813588"><ele>297.6666666666667</ele><time>2026-04-11T04:11:13Z</time></trkpt><trkpt lat="43.31898244441113" lon="11.513636816425006"><ele>296.5</ele><time>2026-04-11T04:11:14Z</time></trkpt><trkpt lat="43.31898484751754" lon="11.513521959561974"><ele>295.33333333333337</ele><time>2026-04-11T04:11:15Z</time></trkpt><trkpt lat="43.31899455730349" lon="11.513399208310274"><ele>294.1666666666667</ele><time>2026-04-11T04:11:16Z</time></trkpt><trkpt lat="43.319016511630835" lon="11.513286892767097"><ele>293.0</ele><time>2026-04-11T04:11:17Z</time></trkpt><trkpt lat="43.319051730651786" lon="11.51318424072658"><ele>292.4</ele><time>2026-04-11T04:11:18Z</time></trkpt><trkpt lat="43.31909973083215" lon="11.51307726588868"><ele>291.8</ele><time>2026-04-11T04:11:19Z</time></trkpt><trkpt lat="43.319152139390546" lon="11.512968840549153"><ele>291.2</ele><time>2026-04-11T04:11:20Z</time></trkpt><trkpt lat="43.319198318825116" lon="11.512851738752579"><ele>290.6</ele><time>2026-04-11T04:11:21Z</time></trkpt><trkpt lat="43.31923641395035" lon="11.512728509717391"><ele>290.0</ele><time>2026-04-11T04:11:22Z</time></trkpt><trkpt lat="43.31924980122144" lon="11.512589283764571"><ele>287.75</ele><time>2026-04-11T04:11:23Z</time></trkpt><trkpt lat="43.31925139216466" lon="11.512440529746865"><ele>285.5</ele><time>2026-04-11T04:11:24Z</time></trkpt><trkpt lat="43.31925009905216" lon="11.512283020988406"><ele>283.25</ele><time>2026-04-11T04:11:25Z</time></trkpt><trkpt lat="43.31923961387435" lon="11.51212533044402"><ele>281.0</ele><time>2026-04-11T04:11:26Z</time></trkpt><trkpt lat="43.31923452834593" lon="11.51197026348553"><ele>279.40000000000003</ele><time>2026-04-11T04:11:27Z</time></trkpt><trkpt lat="43.3192128320491" lon="11.51181942255018"><ele>277.8</ele><time>2026-04-11T04:11:28Z</time></trkpt><trkpt lat="43.31919569644979" lon="11.511680444450473"><ele>276.20000000000005</ele><time>2026-04-11T04:11:29Z</time></trkpt><trkpt lat="43.31917428735179" lon="11.51155130898622"><ele>274.6</ele><time>2026-04-11T04:11:30Z</time></trkpt><trkpt lat="43.31914671524748" lon="11.51141293957836"><ele>273.0</ele><time>2026-04-11T04:11:31Z</time></trkpt><trkpt lat="43.31912281260598" lon="11.511264480605444"><ele>271.2</ele><time>2026-04-11T04:11:32Z</time></trkpt><trkpt lat="43.31911448108138" lon="11.511115470285617"><ele>269.4</ele><time>2026-04-11T04:11:33Z</time></trkpt><trkpt lat="43.31911796420661" lon="11.510971852351371"><ele>267.59999999999997</ele><time>2026-04-11T04:11:34Z</time></trkpt><trkpt lat="43.319133685534226" lon="11.510829915283956"><ele>265.8</ele><time>2026-04-11T04:11:35Z</time></trkpt><trkpt lat="43.31915859152363" lon="11.510691381961198"><ele>264.0</ele><time>2026-04-11T04:11:36Z</time></trkpt><trkpt lat="43.31920038537796" lon="11.510564609822307"><ele>264.0</ele><time>2026-04-11T04:11:37Z</time></trkpt><trkpt lat="43.31925639840002" lon="11.510441719203698"><ele>264.0</ele><time>2026-04-11T04:11:38Z</time></trkpt><trkpt lat="43.31932513049715" lon="11.510327628498407"><ele>264.0</ele><time>2026-04-11T04:11:39Z</time></trkpt><trkpt lat="43.31939597019454" lon="11.510221639302411"><ele>264.0</ele><time>2026-04-11T04:11:40Z</time></trkpt><trkpt lat="43.3194621012642" lon="11.510115333588328"><ele>264.0</ele><time>2026-04-11T04:11:41Z</time></trkpt><trkpt lat="43.319527433439674" lon="11.510001345589698"><ele>262.0</ele><time>2026-04-11T04:11:42Z</time></trkpt><trkpt lat="43.3195944048476" lon="11.509892062078595"><ele>260.0</ele><time>2026-04-11T04:11:43Z</time></trkpt><trkpt lat="43.319655155832955" lon="11.50977658700224"><ele>258.0</ele><time>2026-04-11T04:11:44Z</time></trkpt><trkpt lat="43.319716880472576" lon="11.509662063575421"><ele>256.0</ele><time>2026-04-11T04:11:45Z</time></trkpt><trkpt lat="43.31976584364191" lon="11.509532170999488"><ele>254.0</ele><time>2026-04-11T04:11:46Z</time></trkpt><trkpt lat="43.31980138700546" lon="11.509390555577465"><ele>252.6</ele><time>2026-04-11T04:11:47Z</time></trkpt><trkpt lat="43.31983149750669" lon="11.509241748530581"><ele>251.2</ele><time>2026-04-11T04:11:48Z</time></trkpt><trkpt lat="43.31985290366595" lon="11.509092643714625"><ele>249.79999999999998</ele><time>2026-04-11T04:11:49Z</time></trkpt><trkpt lat="43.31986930229729" lon="11.508939732734083"><ele>248.39999999999998</ele><time>2026-04-11T04:11:50Z</time></trkpt><trkpt lat="43.3198756363815" lon="11.508786302961934"><ele>247.0</ele><time>2026-04-11T04:11:51Z</time></trkpt><trkpt lat="43.31987649310431" lon="11.508626660881486"><ele>247.0</ele><time>2026-04-11T04:11:52Z</time></trkpt><trkpt lat="43.319867895334795" lon="11.508467693601263"><ele>247.0</ele><time>2026-04-11T04:11:53Z</time></trkpt><trkpt lat="43.31985315154595" lon="11.508309934349139"><ele>247.0</ele><time>2026-04-11T04:11:54Z</time></trkpt><trkpt lat="43.3198395062785" lon="11.508156569089406"><ele>247.0</ele><time>2026-04-11T04:11:55Z</time></trkpt><trkpt lat="43.31982393213287" lon="11.508001156540473"><ele>246.6</ele><time>2026-04-11T04:11:56Z</time></trkpt><trkpt lat="43.31980757714043" lon="11.50784878457948"><ele>246.2</ele><time>2026-04-11T04:11:57Z</time></trkpt><trkpt lat="43.31979234801433" lon="11.507702941252816"><ele>245.8</ele><time>2026-04-11T04:11:58Z</time></trkpt><trkpt lat="43.31977857630221" lon="11.507560623304418"><ele>245.4</ele><time>2026-04-11T04:11:59Z</time></trkpt><trkpt lat="43.31976715564965" lon="11.507416723626879"><ele>245.0</ele><time>2026-04-11T04:12:00Z</time></trkpt><trkpt lat="43.31975194540589" lon="11.507281170890533"><ele>245.0</ele><time>2026-04-11T04:12:01Z</time></trkpt><trkpt lat="43.31974005328299" lon="11.507149737462528"><ele>245.0</ele><time>2026-04-11T04:12:02Z</time></trkpt><trkpt lat="43.31972640986984" lon="11.507010014095853"><ele>245.0</ele><time>2026-04-11T04:12:03Z</time></trkpt><trkpt lat="43.31971769558527" lon="11.506875235170988"><ele>245.0</ele><time>2026-04-11T04:12:04Z</time></trkpt><trkpt lat="43.319702138779036" lon="11.50675046529207"><ele>245.0</ele><time>2026-04-11T04:12:05Z</time></trkpt><trkpt lat="43.31969355140259" lon="11.506630991433871"><ele>244.83333333333334</ele><time>2026-04-11T04:12:06Z</time></trkpt><trkpt lat="43.319686032643034" lon="11.506512478924364"><ele>244.66666666666669</ele><time>2026-04-11T04:12:07Z</time></trkpt><trkpt lat="43.31968743814092" lon="11.50640115497956"><ele>244.5</ele><time>2026-04-11T04:12:08Z</time></trkpt><trkpt lat="43.319703500204106" lon="11.506293637374824"><ele>244.33333333333331</ele><time>2026-04-11T04:12:09Z</time></trkpt><trkpt lat="43.319736539451284" lon="11.506199841918503"><ele>244.16666666666666</ele><time>2026-04-11T04:12:10Z</time></trkpt><trkpt lat="43.31978800377778" lon="11.506125024803"><ele>244.0</ele><time>2026-04-11T04:12:11Z</time></trkpt><trkpt lat="43.31984251805502" lon="11.506071342727068"><ele>244.0</ele><time>2026-04-11T04:12:12Z</time></trkpt><trkpt lat="43.31990568058069" lon="11.506060303959806"><ele>243.99999999999997</ele><time>2026-04-11T04:12:13Z</time></trkpt><trkpt lat="43.32000235642451" lon="11.506022574377026"><ele>243.99999999999997</ele><time>2026-04-11T04:12:15Z</time></trkpt><trkpt lat="43.32009521478178" lon="11.50598647306982"><ele>244.0</ele><time>2026-04-11T04:12:17Z</time></trkpt><trkpt lat="43.32018728391572" lon="11.505951217842197"><ele>244.0</ele><time>2026-04-11T04:12:19Z</time></trkpt><trkpt lat="43.32028077705105" lon="11.505916609094424"><ele>243.99999999999997</ele><time>2026-04-11T04:12:21Z</time></trkpt><trkpt lat="43.32035050266289" lon="11.505890394247848"><ele>244.0</ele><time>2026-04-11T04:12:23Z</time></trkpt><trkpt lat="43.320431434776665" lon="11.50585946832306"><ele>244.0</ele><time>2026-04-11T04:12:25Z</time></trkpt><trkpt lat="43.32052088701456" lon="11.505825286668536"><ele>244.0</ele><time>2026-04-11T04:12:27Z</time></trkpt><trkpt lat="43.32061722417335" lon="11.505788523893633"><ele>243.99999999999997</ele><time>2026-04-11T04:12:28Z</time></trkpt><trkpt lat="43.320694620976305" lon="11.505759316429634"><ele>244.0</ele><time>2026-04-11T04:12:29Z</time></trkpt><trkpt lat="43.32075734545799" lon="11.50573564583197"><ele>244.6</ele><time>2026-04-11T04:12:30Z</time></trkpt><trkpt lat="43.32088050508939" lon="11.505701716520978"><ele>245.2</ele><time>2026-04-11T04:12:32Z</time></trkpt><trkpt lat="43.32094135048414" lon="11.505653995248586"><ele>245.79999999999998</ele><time>2026-04-11T04:12:33Z</time></trkpt><trkpt lat="43.3210050800326" lon="11.505648739166674"><ele>246.39999999999998</ele><time>2026-04-11T04:12:34Z</time></trkpt><trkpt lat="43.321070223792894" lon="11.505655091356271"><ele>247.0</ele><time>2026-04-11T04:12:35Z</time></trkpt><trkpt lat="43.3211941931645" lon="11.505678186497615"><ele>246.99999999999997</ele><time>2026-04-11T04:12:37Z</time></trkpt><trkpt lat="43.3213027578246" lon="11.505732627158991"><ele>247.0</ele><time>2026-04-11T04:12:39Z</time></trkpt><trkpt lat="43.321384098188034" lon="11.505796785981708"><ele>247.0</ele><time>2026-04-11T04:12:41Z</time></trkpt><trkpt lat="43.32145235077309" lon="11.505859294466127"><ele>247.0</ele><time>2026-04-11T04:12:43Z</time></trkpt><trkpt lat="43.321512565007154" lon="11.50592036011742"><ele>246.99999999999997</ele><time>2026-04-11T04:12:45Z</time></trkpt><trkpt lat="43.3215640808932" lon="11.505980283701545"><ele>247.0</ele><time>2026-04-11T04:12:47Z</time></trkpt><trkpt lat="43.32161982492012" lon="11.506053443108694"><ele>248.33333333333331</ele><time>2026-04-11T04:12:50Z</time></trkpt><trkpt lat="43.321681738348616" lon="11.506138915945256"><ele>249.66666666666666</ele><time>2026-04-11T04:12:54Z</time></trkpt><trkpt lat="43.32172719141854" lon="11.506207886877473"><ele>251.0</ele><time>2026-04-11T04:12:57Z</time></trkpt><trkpt lat="43.32177553379116" lon="11.506287988428246"><ele>252.33333333333331</ele><time>2026-04-11T04:13:00Z</time></trkpt><trkpt lat="43.321829010855474" lon="11.50637939826492"><ele>253.66666666666666</ele><time>2026-04-11T04:13:03Z</time></trkpt><trkpt lat="43.32188314526338" lon="11.506461375586825"><ele>255.0</ele><time>2026-04-11T04:13:06Z</time></trkpt><trkpt lat="43.32194156239263" lon="11.50653586783691"><ele>255.0</ele><time>2026-04-11T04:13:09Z</time></trkpt><trkpt lat="43.32200473630434" lon="11.50660256090976"><ele>255.0</ele><time>2026-04-11T04:13:12Z</time></trkpt><trkpt lat="43.322061146523716" lon="11.506700718103152"><ele>255.0</ele><time>2026-04-11T04:13:15Z</time></trkpt><trkpt lat="43.322119379141284" lon="11.506766024663772"><ele>255.0</ele><time>2026-04-11T04:13:18Z</time></trkpt><trkpt lat="43.322175415134375" lon="11.506849212955332"><ele>255.0</ele><time>2026-04-11T04:13:21Z</time></trkpt><trkpt lat="43.32223570584045" lon="11.506932865028833"><ele>255.0</ele><time>2026-04-11T04:13:24Z</time></trkpt><trkpt lat="43.32230358650441" lon="11.50701813808267"><ele>257.3333333333333</ele><time>2026-04-11T04:13:27Z</time></trkpt><trkpt lat="43.32234654888478" lon="11.50708378374324"><ele>259.6666666666667</ele><time>2026-04-11T04:13:29Z</time></trkpt><trkpt lat="43.32241096810918" lon="11.507179643237206"><ele>262.0</ele><time>2026-04-11T04:13:32Z</time></trkpt><trkpt lat="43.322471851971855" lon="11.50726888652981"><ele>264.33333333333337</ele><time>2026-04-11T04:13:35Z</time></trkpt><trkpt lat="43.32253543705916" lon="11.507351172054868"><ele>266.6666666666667</ele><time>2026-04-11T04:13:38Z</time></trkpt><trkpt lat="43.32260102779712" lon="11.507433020193846"><ele>269.0</ele><time>2026-04-11T04:13:41Z</time></trkpt><trkpt lat="43.322681386446234" lon="11.50749510063014"><ele>269.0</ele><time>2026-04-11T04:13:44Z</time></trkpt><trkpt lat="43.32274855747754" lon="11.507551992854133"><ele>269.0</ele><time>2026-04-11T04:13:47Z</time></trkpt><trkpt lat="43.32282513942526" lon="11.507561003501376"><ele>269.0</ele><time>2026-04-11T04:13:50Z</time></trkpt><trkpt lat="43.32289517454661" lon="11.507583059268642"><ele>269.0</ele><time>2026-04-11T04:13:53Z</time></trkpt><trkpt lat="43.32297347557096" lon="11.50759765360986"><ele>269.0</ele><time>2026-04-11T04:13:57Z</time></trkpt><trkpt lat="43.32305223768508" lon="11.507604309412047"><ele>269.0</ele><time>2026-04-11T04:14:01Z</time></trkpt><trkpt lat="43.32313639390741" lon="11.507607027269797"><ele>269.8571428571429</ele><time>2026-04-11T04:14:05Z</time></trkpt><trkpt lat="43.323207658719376" lon="11.507613039707794"><ele>270.7142857142857</ele><time>2026-04-11T04:14:08Z</time></trkpt><trkpt lat="43.32327681788471" lon="11.507618998138897"><ele>271.57142857142856</ele><time>2026-04-11T04:14:11Z</time></trkpt><trkpt lat="43.323344417219886" lon="11.507617851996494"><ele>272.42857142857144</ele><time>2026-04-11T04:14:14Z</time></trkpt><trkpt lat="43.32341481392326" lon="11.507621795594302"><ele>273.2857142857143</ele><time>2026-04-11T04:14:17Z</time></trkpt><trkpt lat="43.32348254721561" lon="11.507631989468715"><ele>274.14285714285717</ele><time>2026-04-11T04:14:20Z</time></trkpt><trkpt lat="43.32355409658623" lon="11.507648938056743"><ele>275.0</ele><time>2026-04-11T04:14:23Z</time></trkpt><trkpt lat="43.323625595719534" lon="11.507673231848482"><ele>275.0</ele><time>2026-04-11T04:14:26Z</time></trkpt><trkpt lat="43.32369404770306" lon="11.507701316454538"><ele>275.0</ele><time>2026-04-11T04:14:29Z</time></trkpt><trkpt lat="43.323758531130935" lon="11.507734897330197"><ele>275.0</ele><time>2026-04-11T04:14:32Z</time></trkpt><trkpt lat="43.323822986041506" lon="11.507775161668663"><ele>275.0</ele><time>2026-04-11T04:14:35Z</time></trkpt><trkpt lat="43.32388128540383" lon="11.507842186059642"><ele>275.0</ele><time>2026-04-11T04:14:38Z</time></trkpt><trkpt lat="43.323934076637244" lon="11.507910537290734"><ele>275.0</ele><time>2026-04-11T04:14:41Z</time></trkpt><trkpt lat="43.32397514033792" lon="11.507986941552426"><ele>275.0</ele><time>2026-04-11T04:14:44Z</time></trkpt><trkpt lat="43.32401919553529" lon="11.508056115065479"><ele>276.5</ele><time>2026-04-11T04:14:47Z</time></trkpt><trkpt lat="43.32407273768247" lon="11.508147664355233"><ele>278.0</ele><time>2026-04-11T04:14:51Z</time></trkpt><trkpt lat="43.32410817225925" lon="11.50822582108208"><ele>279.5</ele><time>2026-04-11T04:14:54Z</time></trkpt><trkpt lat="43.32415218864633" lon="11.508300383666665"><ele>281.0</ele><time>2026-04-11T04:14:57Z</time></trkpt><trkpt lat="43.324190135997206" lon="11.508388324165496"><ele>282.5</ele><time>2026-04-11T04:15:00Z</time></trkpt><trkpt lat="43.32423210645419" lon="11.508475379273703"><ele>284.0</ele><time>2026-04-11T04:15:03Z</time></trkpt><trkpt lat="43.32425686119671" lon="11.508590383181046"><ele>284.0</ele><time>2026-04-11T04:15:06Z</time></trkpt><trkpt lat="43.324293388964065" lon="11.508682298629358"><ele>284.0</ele><time>2026-04-11T04:15:09Z</time></trkpt><trkpt lat="43.3243462162009" lon="11.508783606985999"><ele>284.0</ele><time>2026-04-11T04:15:12Z</time></trkpt><trkpt lat="43.32439078480743" lon="11.508896178012579"><ele>284.0</ele><time>2026-04-11T04:15:15Z</time></trkpt><trkpt lat="43.32444799392047" lon="11.508987178321526"><ele>284.0</ele><time>2026-04-11T04:15:18Z</time></trkpt><trkpt lat="43.32450551696255" lon="11.509057518369058"><ele>284.0</ele><time>2026-04-11T04:15:21Z</time></trkpt><trkpt lat="43.32456513152314" lon="11.50913138302615"><ele>284.83333333333337</ele><time>2026-04-11T04:15:24Z</time></trkpt><trkpt lat="43.32463173671676" lon="11.50920744090462"><ele>285.6666666666667</ele><time>2026-04-11T04:15:27Z</time></trkpt><trkpt lat="43.32470009344697" lon="11.509267338747797"><ele>286.5</ele><time>2026-04-11T04:15:30Z</time></trkpt><trkpt lat="43.3247714045972" lon="11.509314107948763"><ele>287.3333333333333</ele><time>2026-04-11T04:15:33Z</time></trkpt><trkpt lat="43.32484630889606" lon="11.509348314789953"><ele>288.16666666666663</ele><time>2026-04-11T04:15:36Z</time></trkpt><trkpt lat="43.32492379671095" lon="11.509362922708409"><ele>289.0</ele><time>2026-04-11T04:15:39Z</time></trkpt><trkpt lat="43.32499961451625" lon="11.509362195194386"><ele>289.0</ele><time>2026-04-11T04:15:42Z</time></trkpt><trkpt lat="43.32507773504675" lon="11.50936054655686"><ele>289.0</ele><time>2026-04-11T04:15:45Z</time></trkpt><trkpt lat="43.32514877447959" lon="11.50934713048816"><ele>289.0</ele><time>2026-04-11T04:15:48Z</time></trkpt><trkpt lat="43.3252210025489" lon="11.509336376363244"><ele>289.0</ele><time>2026-04-11T04:15:51Z</time></trkpt><trkpt lat="43.32530087781462" lon="11.50932036983683"><ele>289.0</ele><time>2026-04-11T04:15:54Z</time></trkpt><trkpt lat="43.32538458137532" lon="11.509302169006252"><ele>289.0</ele><time>2026-04-11T04:15:57Z</time></trkpt><trkpt lat="43.325474812284426" lon="11.509278304269408"><ele>289.0</ele><time>2026-04-11T04:16:00Z</time></trkpt><trkpt lat="43.325560426919075" lon="11.509244272388482"><ele>289.0</ele><time>2026-04-11T04:16:03Z</time></trkpt><trkpt lat="43.325619864368555" lon="11.50921330466764"><ele>289.0</ele><time>2026-04-11T04:16:05Z</time></trkpt><trkpt lat="43.325708898116524" lon="11.50918690477821"><ele>289.0</ele><time>2026-04-11T04:16:08Z</time></trkpt><trkpt lat="43.32579348723571" lon="11.509161295330157"><ele>289.0</ele><time>2026-04-11T04:16:11Z</time></trkpt><trkpt lat="43.32587197325339" lon="11.50911334973743"><ele>289.0</ele><time>2026-04-11T04:16:14Z</time></trkpt><trkpt lat="43.32594698270052" lon="11.509059868765023"><ele>289.2</ele><time>2026-04-11T04:16:17Z</time></trkpt><trkpt lat="43.326058066887036" lon="11.509010542593172"><ele>289.4</ele><time>2026-04-11T04:16:19Z</time></trkpt><trkpt lat="43.32615160087553" lon="11.508979602720819"><ele>289.6</ele><time>2026-04-11T04:16:21Z</time></trkpt><trkpt lat="43.32624310226188" lon="11.50895112736522"><ele>289.8</ele><time>2026-04-11T04:16:23Z</time></trkpt><trkpt lat="43.32633794918265" lon="11.508920646868322"><ele>290.0</ele><time>2026-04-11T04:16:25Z</time></trkpt><trkpt lat="43.32644139351039" lon="11.508872903693169"><ele>290.6</ele><time>2026-04-11T04:16:27Z</time></trkpt><trkpt lat="43.32653801246803" lon="11.508827053540147"><ele>291.2</ele><time>2026-04-11T04:16:29Z</time></trkpt><trkpt lat="43.326647738553575" lon="11.50879455680163"><ele>291.8</ele><time>2026-04-11T04:16:31Z</time></trkpt><trkpt lat="43.32673162373725" lon="11.508746304414574"><ele>292.4</ele><time>2026-04-11T04:16:33Z</time></trkpt><trkpt lat="43.32682362970467" lon="11.508705850399277"><ele>293.0</ele><time>2026-04-11T04:16:35Z</time></trkpt><trkpt lat="43.32689860376308" lon="11.508650186823223"><ele>293.33333333333337</ele><time>2026-04-11T04:16:37Z</time></trkpt><trkpt lat="43.32698279517015" lon="11.508582387139596"><ele>293.6666666666667</ele><time>2026-04-11T04:16:39Z</time></trkpt><trkpt lat="43.32706994963616" lon="11.508552990561958"><ele>294.0</ele><time>2026-04-11T04:16:41Z</time></trkpt><trkpt lat="43.32714674473558" lon="11.508509609717018"><ele>294.3333333333333</ele><time>2026-04-11T04:16:43Z</time></trkpt><trkpt lat="43.327215233892176" lon="11.50845859442031"><ele>294.66666666666663</ele><time>2026-04-11T04:16:45Z</time></trkpt><trkpt lat="43.327280445910105" lon="11.508411856062683"><ele>295.0</ele><time>2026-04-11T04:16:47Z</time></trkpt><trkpt lat="43.32734798240349" lon="11.508369908279807"><ele>295.5714285714286</ele><time>2026-04-11T04:16:49Z</time></trkpt><trkpt lat="43.32742424642716" lon="11.508335466204263"><ele>296.14285714285717</ele><time>2026-04-11T04:16:51Z</time></trkpt><trkpt lat="43.327482104947336" lon="11.508290776676372"><ele>296.7142857142857</ele><time>2026-04-11T04:16:53Z</time></trkpt><trkpt lat="43.327544815720444" lon="11.508237998773772"><ele>297.28571428571433</ele><time>2026-04-11T04:16:55Z</time></trkpt><trkpt lat="43.32762101237758" lon="11.508199546374414"><ele>297.8571428571429</ele><time>2026-04-11T04:16:58Z</time></trkpt><trkpt lat="43.32769267921082" lon="11.508158333047234"><ele>298.42857142857144</ele><time>2026-04-11T04:17:01Z</time></trkpt><trkpt lat="43.32775354883363" lon="11.508112989224305"><ele>299.0</ele><time>2026-04-11T04:17:03Z</time></trkpt><trkpt lat="43.32781393366968" lon="11.508074191523349"><ele>299.0</ele><time>2026-04-11T04:17:05Z</time></trkpt><trkpt lat="43.32787670793292" lon="11.508030951760325"><ele>299.0</ele><time>2026-04-11T04:17:07Z</time></trkpt><trkpt lat="43.32794914575323" lon="11.507987940788597"><ele>299.0</ele><time>2026-04-11T04:17:09Z</time></trkpt><trkpt lat="43.32801663777197" lon="11.507942620666414"><ele>299.0</ele><time>2026-04-11T04:17:11Z</time></trkpt><trkpt lat="43.32810062239167" lon="11.50787004896773"><ele>299.0</ele><time>2026-04-11T04:17:14Z</time></trkpt><trkpt lat="43.328160003948895" lon="11.507826574921992"><ele>299.0</ele><time>2026-04-11T04:17:16Z</time></trkpt><trkpt lat="43.32823169248552" lon="11.50777999033947"><ele>299.6666666666667</ele><time>2026-04-11T04:17:18Z</time></trkpt><trkpt lat="43.328303280143146" lon="11.507734228735337"><ele>300.33333333333337</ele><time>2026-04-11T04:17:20Z</time></trkpt><trkpt lat="43.32836945508355" lon="11.50771129024172"><ele>301.0</ele><time>2026-04-11T04:17:22Z</time></trkpt><trkpt lat="43.328440512481485" lon="11.507661607749023"><ele>301.6666666666667</ele><time>2026-04-11T04:17:24Z</time></trkpt><trkpt lat="43.32850740692169" lon="11.507626366715938"><ele>302.3333333333333</ele><time>2026-04-11T04:17:26Z</time></trkpt><trkpt lat="43.32857483234112" lon="11.50757942652315"><ele>303.0</ele><time>2026-04-11T04:17:28Z</time></trkpt><trkpt lat="43.32864807365267" lon="11.507529827787073"><ele>303.0</ele><time>2026-04-11T04:17:30Z</time></trkpt><trkpt lat="43.32871648739471" lon="11.507482577026723"><ele>303.0</ele><time>2026-04-11T04:17:32Z</time></trkpt><trkpt lat="43.328793201049805" lon="11.50743743174411"><ele>303.0</ele><time>2026-04-11T04:17:34Z</time></trkpt><trkpt lat="43.3288614964194" lon="11.507396337734566"><ele>303.0</ele><time>2026-04-11T04:17:36Z</time></trkpt><trkpt lat="43.328927525761124" lon="11.507351335526783"><ele>303.0</ele><time>2026-04-11T04:17:38Z</time></trkpt><trkpt lat="43.328992516451706" lon="11.507319069745696"><ele>303.0</ele><time>2026-04-11T04:17:40Z</time></trkpt><trkpt lat="43.32906559542156" lon="11.507280890230083"><ele>303.6666666666667</ele><time>2026-04-11T04:17:42Z</time></trkpt><trkpt lat="43.32913986397631" lon="11.507247800330466"><ele>304.3333333333333</ele><time>2026-04-11T04:17:44Z</time></trkpt><trkpt lat="43.3292099092501" lon="11.507219831988335"><ele>305.0</ele><time>2026-04-11T04:17:47Z</time></trkpt><trkpt lat="43.32928309516121" lon="11.507201738423348"><ele>305.66666666666663</ele><time>2026-04-11T04:17:50Z</time></trkpt><trkpt lat="43.329346712325005" lon="11.507170956551706"><ele>306.3333333333333</ele><time>2026-04-11T04:17:53Z</time></trkpt><trkpt lat="43.32942276536214" lon="11.507151326459763"><ele>307.0</ele><time>2026-04-11T04:17:56Z</time></trkpt><trkpt lat="43.329511872626725" lon="11.507146582153156"><ele>306.99999999999994</ele><time>2026-04-11T04:17:59Z</time></trkpt><trkpt lat="43.32957638178401" lon="11.507135449186647"><ele>307.0</ele><time>2026-04-11T04:18:01Z</time></trkpt><trkpt lat="43.32964170084193" lon="11.50713034979704"><ele>307.0</ele><time>2026-04-11T04:18:03Z</time></trkpt><trkpt lat="43.329723091580995" lon="11.507105103159619"><ele>307.0</ele><time>2026-04-11T04:18:06Z</time></trkpt><trkpt lat="43.32979085098518" lon="11.507081674784642"><ele>307.0</ele><time>2026-04-11T04:18:08Z</time></trkpt><trkpt lat="43.32985990696773" lon="11.50706207675529"><ele>306.99999999999994</ele><time>2026-04-11T04:18:10Z</time></trkpt><trkpt lat="43.32993560502373" lon="11.507055698606607"><ele>307.0</ele><time>2026-04-11T04:18:12Z</time></trkpt><trkpt lat="43.330020548509665" lon="11.507035686831706"><ele>307.0</ele><time>2026-04-11T04:18:14Z</time></trkpt><trkpt lat="43.330108372733086" lon="11.507017950527011"><ele>307.0</ele><time>2026-04-11T04:18:16Z</time></trkpt><trkpt lat="43.33025032120515" lon="11.507006090912519"><ele>307.0</ele><time>2026-04-11T04:18:19Z</time></trkpt><trkpt lat="43.33033342867729" lon="11.50699526946392"><ele>307.0</ele><time>2026-04-11T04:18:21Z</time></trkpt><trkpt lat="43.330433805759505" lon="11.506978073336677"><ele>307.0</ele><time>2026-04-11T04:18:23Z</time></trkpt><trkpt lat="43.330540205699606" lon="11.506958966231542"><ele>307.66666666666663</ele><time>2026-04-11T04:18:25Z</time></trkpt><trkpt lat="43.33062424584293" lon="11.506949080489665"><ele>308.3333333333333</ele><time>2026-04-11T04:18:27Z</time></trkpt><trkpt lat="43.33069339362964" lon="11.506933810467586"><ele>309.0</ele><time>2026-04-11T04:18:29Z</time></trkpt><trkpt lat="43.330766328048156" lon="11.506903333504498"><ele>309.6666666666667</ele><time>2026-04-11T04:18:31Z</time></trkpt><trkpt lat="43.33084177067334" lon="11.506898962653047"><ele>310.33333333333337</ele><time>2026-04-11T04:18:33Z</time></trkpt><trkpt lat="43.330945879287434" lon="11.50685857506051"><ele>311.0</ele><time>2026-04-11T04:18:35Z</time></trkpt><trkpt lat="43.33100774007395" lon="11.506833684604599"><ele>311.0</ele><time>2026-04-11T04:18:36Z</time></trkpt><trkpt lat="43.33110142166367" lon="11.506791781929204"><ele>311.0</ele><time>2026-04-11T04:18:39Z</time></trkpt><trkpt lat="43.331178823399114" lon="11.50676343212188"><ele>311.0</ele><time>2026-04-11T04:18:41Z</time></trkpt><trkpt lat="43.33127259117109" lon="11.50671276910072"><ele>311.0</ele><time>2026-04-11T04:18:43Z</time></trkpt><trkpt lat="43.331357756901696" lon="11.506666161938178"><ele>311.0</ele><time>2026-04-11T04:18:45Z</time></trkpt><trkpt lat="43.331418850274765" lon="11.506636050978672"><ele>311.0</ele><time>2026-04-11T04:18:46Z</time></trkpt><trkpt lat="43.33148340416231" lon="11.506609818532501"><ele>311.5</ele><time>2026-04-11T04:18:47Z</time></trkpt><trkpt lat="43.331552739863056" lon="11.506564523674763"><ele>312.0</ele><time>2026-04-11T04:18:48Z</time></trkpt><trkpt lat="43.33161075090426" lon="11.506519282914272"><ele>312.5</ele><time>2026-04-11T04:18:49Z</time></trkpt><trkpt lat="43.33167974487829" lon="11.50648372512639"><ele>313.0</ele><time>2026-04-11T04:18:50Z</time></trkpt><trkpt lat="43.33173922829228" lon="11.506451777098711"><ele>313.5</ele><time>2026-04-11T04:18:51Z</time></trkpt><trkpt lat="43.33185657910421" lon="11.50637143928395"><ele>314.0</ele><time>2026-04-11T04:18:53Z</time></trkpt><trkpt lat="43.33193905037919" lon="11.506319444757468"><ele>314.0</ele><time>2026-04-11T04:18:54Z</time></trkpt><trkpt lat="43.33200118373916" lon="11.50627131055579"><ele>314.0</ele><time>2026-04-11T04:18:55Z</time></trkpt><trkpt lat="43.33206713548566" lon="11.506234671167316"><ele>314.0</ele><time>2026-04-11T04:18:56Z</time></trkpt><trkpt lat="43.3321707763394" lon="11.506169811503957"><ele>314.0</ele><time>2026-04-11T04:18:58Z</time></trkpt><trkpt lat="43.33225842025076" lon="11.50610956402172"><ele>314.0</ele><time>2026-04-11T04:19:00Z</time></trkpt><trkpt lat="43.33233727912486" lon="11.50606239678536"><ele>314.0</ele><time>2026-04-11T04:19:02Z</time></trkpt><trkpt lat="43.332448973927534" lon="11.505995391498914"><ele>314.5</ele><time>2026-04-11T04:19:07Z</time></trkpt><trkpt lat="43.33256896366623" lon="11.50599174821485"><ele>315.0</ele><time>2026-04-11T04:19:09Z</time></trkpt><trkpt lat="43.33267598810539" lon="11.505940725998023"><ele>315.5</ele><time>2026-04-11T04:19:11Z</time></trkpt><trkpt lat="43.33278236547566" lon="11.505880734386693"><ele>316.0</ele><time>2026-04-11T04:19:13Z</time></trkpt><trkpt lat="43.33289234537547" lon="11.505849670894566"><ele>316.0</ele><time>2026-04-11T04:19:15Z</time></trkpt><trkpt lat="43.332998567143854" lon="11.505830539254776"><ele>316.0</ele><time>2026-04-11T04:19:17Z</time></trkpt><trkpt lat="43.33310595992423" lon="11.505808899842949"><ele>316.0</ele><time>2026-04-11T04:19:19Z</time></trkpt><trkpt lat="43.33320849574479" lon="11.505788130233348"><ele>316.0</ele><time>2026-04-11T04:19:21Z</time></trkpt><trkpt lat="43.3333081258007" lon="11.50576673094202"><ele>316.0</ele><time>2026-04-11T04:19:23Z</time></trkpt><trkpt lat="43.33341259390764" lon="11.505739970184594"><ele>316.0</ele><time>2026-04-11T04:19:25Z</time></trkpt><trkpt lat="43.33351280789193" lon="11.505717409019661"><ele>316.0</ele><time>2026-04-11T04:19:27Z</time></trkpt><trkpt lat="43.33361400549092" lon="11.505701051618287"><ele>316.0</ele><time>2026-04-11T04:19:29Z</time></trkpt><trkpt lat="43.33371805651461" lon="11.505669421961285"><ele>316.0</ele><time>2026-04-11T04:19:31Z</time></trkpt><trkpt lat="43.33382320654026" lon="11.505639031337175"><ele>316.0</ele><time>2026-04-11T04:19:33Z</time></trkpt><trkpt lat="43.33393343676937" lon="11.50561988783319"><ele>315.8</ele><time>2026-04-11T04:19:35Z</time></trkpt><trkpt lat="43.33402063514669" lon="11.505621330354534"><ele>315.6</ele><time>2026-04-11T04:19:37Z</time></trkpt><trkpt lat="43.33411300379623" lon="11.505591714541191"><ele>315.4</ele><time>2026-04-11T04:19:39Z</time></trkpt><trkpt lat="43.3342087077894" lon="11.5055674504647"><ele>315.2</ele><time>2026-04-11T04:19:41Z</time></trkpt><trkpt lat="43.3343107121884" lon="11.505559018901105"><ele>315.0</ele><time>2026-04-11T04:19:43Z</time></trkpt><trkpt lat="43.33440920226206" lon="11.50554221428871"><ele>315.0</ele><time>2026-04-11T04:19:45Z</time></trkpt><trkpt lat="43.334508357705694" lon="11.505518038906757"><ele>315.0</ele><time>2026-04-11T04:19:47Z</time></trkpt><trkpt lat="43.334604027866966" lon="11.505514256262952"><ele>315.0</ele><time>2026-04-11T04:19:49Z</time></trkpt><trkpt lat="43.33469546574262" lon="11.505493931992056"><ele>315.0</ele><time>2026-04-11T04:19:51Z</time></trkpt><trkpt lat="43.33478951364671" lon="11.50548437126032"><ele>315.0</ele><time>2026-04-11T04:19:53Z</time></trkpt><trkpt lat="43.334888533219655" lon="11.505452662590818"><ele>314.8</ele><time>2026-04-11T04:19:55Z</time></trkpt><trkpt lat="43.33498183555828" lon="11.505429518187837"><ele>314.6</ele><time>2026-04-11T04:19:57Z</time></trkpt><trkpt lat="43.33507225875474" lon="11.505413737656147"><ele>314.4</ele><time>2026-04-11T04:19:59Z</time></trkpt><trkpt lat="43.33517227816006" lon="11.505384793191745"><ele>314.2</ele><time>2026-04-11T04:20:01Z</time></trkpt><trkpt lat="43.33527475857137" lon="11.505364416034956"><ele>314.0</ele><time>2026-04-11T04:20:03Z</time></trkpt><trkpt lat="43.335377788589874" lon="11.505341271509712"><ele>314.8</ele><time>2026-04-11T04:20:05Z</time></trkpt><trkpt lat="43.33547904276582" lon="11.505320746168348"><ele>315.59999999999997</ele><time>2026-04-11T04:20:07Z</time></trkpt><trkpt lat="43.33558441731751" lon="11.505298155098345"><ele>316.4</ele><time>2026-04-11T04:20:09Z</time></trkpt><trkpt lat="43.33568719085619" lon="11.50527793502848"><ele>317.2</ele><time>2026-04-11T04:20:11Z</time></trkpt><trkpt lat="43.335787092411785" lon="11.505259461946464"><ele>318.0</ele><time>2026-04-11T04:20:13Z</time></trkpt><trkpt lat="43.33588707720468" lon="11.505238073565787"><ele>318.0</ele><time>2026-04-11T04:20:15Z</time></trkpt><trkpt lat="43.335982501585384" lon="11.505219419083613"><ele>318.0</ele><time>2026-04-11T04:20:17Z</time></trkpt><trkpt lat="43.336071718581586" lon="11.505201168885435"><ele>318.0</ele><time>2026-04-11T04:20:19Z</time></trkpt><trkpt lat="43.33615764191878" lon="11.505190685916245"><ele>318.0</ele><time>2026-04-11T04:20:21Z</time></trkpt><trkpt lat="43.336247472754955" lon="11.505170681010235"><ele>318.0</ele><time>2026-04-11T04:20:23Z</time></trkpt><trkpt lat="43.336329704951126" lon="11.505157241072427"><ele>318.0</ele><time>2026-04-11T04:20:25Z</time></trkpt><trkpt lat="43.33641708362776" lon="11.505134480629172"><ele>319.0</ele><time>2026-04-11T04:20:27Z</time></trkpt><trkpt lat="43.33649842496461" lon="11.505120920679165"><ele>320.0</ele><time>2026-04-11T04:20:29Z</time></trkpt><trkpt lat="43.33658973490541" lon="11.50510235441631"><ele>321.0</ele><time>2026-04-11T04:20:31Z</time></trkpt><trkpt lat="43.33668137878149" lon="11.505092110719332"><ele>322.0</ele><time>2026-04-11T04:20:33Z</time></trkpt><trkpt lat="43.33677208221428" lon="11.505083362419219"><ele>323.0</ele><time>2026-04-11T04:20:35Z</time></trkpt><trkpt lat="43.336859728623935" lon="11.505087131420899"><ele>324.0</ele><time>2026-04-11T04:20:37Z</time></trkpt><trkpt lat="43.3369490594997" lon="11.505089233226789"><ele>324.0</ele><time>2026-04-11T04:20:39Z</time></trkpt><trkpt lat="43.337014057041735" lon="11.505107880291076"><ele>324.0</ele><time>2026-04-11T04:20:42Z</time></trkpt><trkpt lat="43.337132973256125" lon="11.505142337158869"><ele>324.0</ele><time>2026-04-11T04:20:44Z</time></trkpt><trkpt lat="43.33722381423826" lon="11.505171458407952"><ele>324.0</ele><time>2026-04-11T04:20:46Z</time></trkpt><trkpt lat="43.337307563378495" lon="11.505205156170568"><ele>324.0</ele><time>2026-04-11T04:20:48Z</time></trkpt><trkpt lat="43.337393467248404" lon="11.505246852362342"><ele>324.2</ele><time>2026-04-11T04:20:50Z</time></trkpt><trkpt lat="43.33749906787419" lon="11.50530259319164"><ele>324.4</ele><time>2026-04-11T04:20:53Z</time></trkpt><trkpt lat="43.33757087070553" lon="11.50535372572849"><ele>324.6</ele><time>2026-04-11T04:20:56Z</time></trkpt><trkpt lat="43.33764458226107" lon="11.505402157548023"><ele>324.8</ele><time>2026-04-11T04:20:59Z</time></trkpt><trkpt lat="43.33772320260242" lon="11.505465258167435"><ele>325.0</ele><time>2026-04-11T04:21:02Z</time></trkpt><trkpt lat="43.337809215467175" lon="11.505522198956387"><ele>327.0</ele><time>2026-04-11T04:21:05Z</time></trkpt><trkpt lat="43.337902170735596" lon="11.505583482432757"><ele>329.0</ele><time>2026-04-11T04:21:08Z</time></trkpt><trkpt lat="43.33822831744168" lon="11.505774288501193"><ele>329.5</ele><time>2026-04-11T04:21:11Z</time></trkpt><trkpt lat="43.33830379155571" lon="11.50580744864006"><ele>330.0</ele><time>2026-04-11T04:21:13Z</time></trkpt><trkpt lat="43.33837348511676" lon="11.505841051354171"><ele>330.5</ele><time>2026-04-11T04:21:15Z</time></trkpt><trkpt lat="43.3384423589699" lon="11.505871038911607"><ele>331.0</ele><time>2026-04-11T04:21:17Z</time></trkpt><trkpt lat="43.33851602409184" lon="11.505886366472186"><ele>331.5</ele><time>2026-04-11T04:21:19Z</time></trkpt><trkpt lat="43.33859247408389" lon="11.505903139445163"><ele>332.0</ele><time>2026-04-11T04:21:21Z</time></trkpt><trkpt lat="43.33866637336894" lon="11.505915400097061"><ele>332.0</ele><time>2026-04-11T04:21:23Z</time></trkpt><trkpt lat="43.33874057144929" lon="11.505917877882712"><ele>332.0</ele><time>2026-04-11T04:21:25Z</time></trkpt><trkpt lat="43.33879612434978" lon="11.505858422048385"><ele>332.0</ele><time>2026-04-11T04:21:27Z</time></trkpt><trkpt lat="43.338868819493506" lon="11.50585375082262"><ele>332.0</ele><time>2026-04-11T04:21:30Z</time></trkpt><trkpt lat="43.33893942929151" lon="11.50584143533059"><ele>332.0</ele><time>2026-04-11T04:21:33Z</time></trkpt><trkpt lat="43.33902186558253" lon="11.505798733878976"><ele>332.0</ele><time>2026-04-11T04:21:37Z</time></trkpt><trkpt lat="43.33909958419904" lon="11.505767622716707"><ele>332.83333333333337</ele><time>2026-04-11T04:21:40Z</time></trkpt><trkpt lat="43.33916348516737" lon="11.50574769845272"><ele>333.6666666666667</ele><time>2026-04-11T04:21:42Z</time></trkpt><trkpt lat="43.33922401167607" lon="11.50572342686578"><ele>334.5</ele><time>2026-04-11T04:21:44Z</time></trkpt><trkpt lat="43.339317192588844" lon="11.505687334497145"><ele>335.3333333333333</ele><time>2026-04-11T04:21:47Z</time></trkpt><trkpt lat="43.33938286482675" lon="11.505651624948433"><ele>336.16666666666663</ele><time>2026-04-11T04:21:49Z</time></trkpt><trkpt lat="43.33945279353105" lon="11.50563338512493"><ele>337.0</ele><time>2026-04-11T04:21:51Z</time></trkpt><trkpt lat="43.3395419594941" lon="11.50562425001349"><ele>337.0</ele><time>2026-04-11T04:21:54Z</time></trkpt><trkpt lat="43.33963847575621" lon="11.505582408596888"><ele>337.0</ele><time>2026-04-11T04:21:56Z</time></trkpt><trkpt lat="43.33971608843945" lon="11.505566124262721"><ele>337.0</ele><time>2026-04-11T04:21:58Z</time></trkpt><trkpt lat="43.34010141705056" lon="11.505486922086346"><ele>336.8</ele><time>2026-04-11T04:21:59Z</time></trkpt><trkpt lat="43.34022325124323" lon="11.505466482645136"><ele>336.6</ele><time>2026-04-11T04:22:01Z</time></trkpt><trkpt lat="43.340279917289884" lon="11.505423347134318"><ele>336.40000000000003</ele><time>2026-04-11T04:22:02Z</time></trkpt><trkpt lat="43.340396920718995" lon="11.505388768214635"><ele>336.20000000000005</ele><time>2026-04-11T04:22:04Z</time></trkpt><trkpt lat="43.34049970866009" lon="11.505356008712956"><ele>336.0</ele><time>2026-04-11T04:22:06Z</time></trkpt><trkpt lat="43.34061043808612" lon="11.505347472135819"><ele>335.8</ele><time>2026-04-11T04:22:08Z</time></trkpt><trkpt lat="43.34071330602739" lon="11.505382966849504"><ele>335.6</ele><time>2026-04-11T04:22:10Z</time></trkpt><trkpt lat="43.34081186121361" lon="11.505422245426576"><ele>335.4</ele><time>2026-04-11T04:22:12Z</time></trkpt><trkpt lat="43.340870755562726" lon="11.50533740526306"><ele>335.2</ele><time>2026-04-11T04:22:13Z</time></trkpt><trkpt lat="43.34091593049042" lon="11.50526704039983"><ele>335.0</ele><time>2026-04-11T04:22:14Z</time></trkpt><trkpt lat="43.34101998196569" lon="11.505214836213225"><ele>335.0</ele><time>2026-04-11T04:22:16Z</time></trkpt><trkpt lat="43.34112414758252" lon="11.50514501063501"><ele>335.0</ele><time>2026-04-11T04:22:18Z</time></trkpt><trkpt lat="43.341215849887035" lon="11.505107440957447"><ele>335.0</ele><time>2026-04-11T04:22:20Z</time></trkpt><trkpt lat="43.34132062989377" lon="11.505073582441405"><ele>335.0</ele><time>2026-04-11T04:22:22Z</time></trkpt><trkpt lat="43.34138518503839" lon="11.50507772870467"><ele>335.0</ele><time>2026-04-11T04:22:23Z</time></trkpt><trkpt lat="43.34148282298836" lon="11.50505205524673"><ele>335.0</ele><time>2026-04-11T04:22:25Z</time></trkpt><trkpt lat="43.34157381819696" lon="11.505030681550926"><ele>335.0</ele><time>2026-04-11T04:22:27Z</time></trkpt><trkpt lat="43.34165584528855" lon="11.50497718325828"><ele>335.0</ele><time>2026-04-11T04:22:29Z</time></trkpt><trkpt lat="43.34175324731109" lon="11.504948279681253"><ele>335.0</ele><time>2026-04-11T04:22:31Z</time></trkpt><trkpt lat="43.34185048270501" lon="11.504930643948102"><ele>335.0</ele><time>2026-04-11T04:22:33Z</time></trkpt><trkpt lat="43.34194471256337" lon="11.504904496982947"><ele>335.0</ele><time>2026-04-11T04:22:35Z</time></trkpt><trkpt lat="43.342032403832945" lon="11.50487298457994"><ele>335.0</ele><time>2026-04-11T04:22:37Z</time></trkpt><trkpt lat="43.3421138025732" lon="11.50483276254314"><ele>335.0</ele><time>2026-04-11T04:22:39Z</time></trkpt><trkpt lat="43.34220318749205" lon="11.504792821473668"><ele>335.0</ele><time>2026-04-11T04:22:41Z</time></trkpt><trkpt lat="43.342305494955376" lon="11.504777459069345"><ele>335.0</ele><time>2026-04-11T04:22:43Z</time></trkpt><trkpt lat="43.342419621384195" lon="11.504870269013942"><ele>335.6</ele><time>2026-04-11T04:22:45Z</time></trkpt><trkpt lat="43.342520433153105" lon="11.50485263304189"><ele>336.2</ele><time>2026-04-11T04:22:47Z</time></trkpt><trkpt lat="43.34262687157687" lon="11.504832389978427"><ele>336.79999999999995</ele><time>2026-04-11T04:22:49Z</time></trkpt><trkpt lat="43.34270130577275" lon="11.504817684725836"><ele>337.4</ele><time>2026-04-11T04:22:52Z</time></trkpt><trkpt lat="43.3428541444857" lon="11.504789507542899"><ele>338.0</ele><time>2026-04-11T04:22:53Z</time></trkpt><trkpt lat="43.34296101163969" lon="11.50476981726912"><ele>338.0</ele><time>2026-04-11T04:22:55Z</time></trkpt><trkpt lat="43.343071081239216" lon="11.504749536943583"><ele>338.0</ele><time>2026-04-11T04:22:57Z</time></trkpt><trkpt lat="43.34318447283389" lon="11.504728588465861"><ele>338.0</ele><time>2026-04-11T04:22:59Z</time></trkpt><trkpt lat="43.343292791075164" lon="11.504708112781982"><ele>338.0</ele><time>2026-04-11T04:23:01Z</time></trkpt><trkpt lat="43.343400810679505" lon="11.504687693554041"><ele>338.0</ele><time>2026-04-11T04:23:03Z</time></trkpt><trkpt lat="43.343509728491505" lon="11.504667104533919"><ele>338.0</ele><time>2026-04-11T04:23:05Z</time></trkpt><trkpt lat="43.3436165540874" lon="11.504646911009637"><ele>338.0</ele><time>2026-04-11T04:23:07Z</time></trkpt><trkpt lat="43.34372488231434" lon="11.504626433370658"><ele>338.0</ele><time>2026-04-11T04:23:09Z</time></trkpt><trkpt lat="43.34383349367431" lon="11.504606075659991"><ele>338.0</ele><time>2026-04-11T04:23:11Z</time></trkpt><trkpt lat="43.34393725132598" lon="11.50458658798266"><ele>338.0</ele><time>2026-04-11T04:23:13Z</time></trkpt><trkpt lat="43.344025776525825" lon="11.504569961256074"><ele>337.5</ele><time>2026-04-11T04:23:15Z</time></trkpt><trkpt lat="43.34413582289985" lon="11.504549292435996"><ele>337.0</ele><time>2026-04-11T04:23:17Z</time></trkpt><trkpt lat="43.344247718869354" lon="11.504528639355604"><ele>336.5</ele><time>2026-04-11T04:23:19Z</time></trkpt><trkpt lat="43.344369470383306" lon="11.50450732699491"><ele>336.0</ele><time>2026-04-11T04:23:21Z</time></trkpt><trkpt lat="43.344482731145305" lon="11.504487500920533"><ele>336.0</ele><time>2026-04-11T04:23:23Z</time></trkpt><trkpt lat="43.34459228422562" lon="11.504476981390566"><ele>336.0</ele><time>2026-04-11T04:23:25Z</time></trkpt><trkpt lat="43.34469258786423" lon="11.504473050823494"><ele>336.0</ele><time>2026-04-11T04:23:27Z</time></trkpt><trkpt lat="43.34480984153158" lon="11.504302051769733"><ele>336.0</ele><time>2026-04-11T04:23:29Z</time></trkpt><trkpt lat="43.34484444413678" lon="11.504226779533617"><ele>336.0</ele><time>2026-04-11T04:23:30Z</time></trkpt><trkpt lat="43.34488029538061" lon="11.504148791292044"><ele>337.4</ele><time>2026-04-11T04:23:31Z</time></trkpt><trkpt lat="43.344943296147214" lon="11.50401174387564"><ele>338.8</ele><time>2026-04-11T04:23:33Z</time></trkpt><trkpt lat="43.345003671157784" lon="11.503863166459128"><ele>340.2</ele><time>2026-04-11T04:23:35Z</time></trkpt><trkpt lat="43.345013746932395" lon="11.503777620791274"><ele>341.59999999999997</ele><time>2026-04-11T04:23:36Z</time></trkpt><trkpt lat="43.34507272440455" lon="11.503647658498952"><ele>343.0</ele><time>2026-04-11T04:23:38Z</time></trkpt><trkpt lat="43.34509141183197" lon="11.503560605204056"><ele>343.0</ele><time>2026-04-11T04:23:39Z</time></trkpt><trkpt lat="43.344975299499175" lon="11.503408004344239"><ele>343.0</ele><time>2026-04-11T04:23:41Z</time></trkpt><trkpt lat="43.34491903637961" lon="11.50327164349539"><ele>343.0</ele><time>2026-04-11T04:23:43Z</time></trkpt><trkpt lat="43.34489325137337" lon="11.503132061566575"><ele>343.0</ele><time>2026-04-11T04:23:45Z</time></trkpt><trkpt lat="43.34489681720772" lon="11.502991816235651"><ele>343.16666666666663</ele><time>2026-04-11T04:23:47Z</time></trkpt><trkpt lat="43.344904634552144" lon="11.502853704477026"><ele>343.3333333333333</ele><time>2026-04-11T04:23:49Z</time></trkpt><trkpt lat="43.34492592345757" lon="11.502705400364189"><ele>343.5</ele><time>2026-04-11T04:23:51Z</time></trkpt><trkpt lat="43.34494924269318" lon="11.502622478360738"><ele>343.6666666666667</ele><time>2026-04-11T04:23:52Z</time></trkpt><trkpt lat="43.34498127627155" lon="11.502537251678966"><ele>343.83333333333337</ele><time>2026-04-11T04:23:53Z</time></trkpt><trkpt lat="43.34500561726837" lon="11.50245507001408"><ele>344.0</ele><time>2026-04-11T04:23:54Z</time></trkpt><trkpt lat="43.34503207058802" lon="11.502362152553083"><ele>344.0</ele><time>2026-04-11T04:23:55Z</time></trkpt><trkpt lat="43.34506852254054" lon="11.502267186277974"><ele>344.0</ele><time>2026-04-11T04:23:56Z</time></trkpt><trkpt lat="43.34509932477263" lon="11.502169848670976"><ele>344.0</ele><time>2026-04-11T04:23:57Z</time></trkpt><trkpt lat="43.34512929377896" lon="11.502062756165826"><ele>344.0</ele><time>2026-04-11T04:23:58Z</time></trkpt><trkpt lat="43.345166046194656" lon="11.501960048252082"><ele>344.0</ele><time>2026-04-11T04:23:59Z</time></trkpt><trkpt lat="43.34520160435652" lon="11.501856093088161"><ele>344.0</ele><time>2026-04-11T04:24:00Z</time></trkpt><trkpt lat="43.34521818991433" lon="11.501750388604208"><ele>342.6666666666667</ele><time>2026-04-11T04:24:01Z</time></trkpt><trkpt lat="43.34522343607232" lon="11.50163583023821"><ele>341.33333333333337</ele><time>2026-04-11T04:24:02Z</time></trkpt><trkpt lat="43.345217434104164" lon="11.501528440320104"><ele>340.0</ele><time>2026-04-11T04:24:03Z</time></trkpt><trkpt lat="43.34519467124778" lon="11.501424854315534"><ele>338.6666666666667</ele><time>2026-04-11T04:24:04Z</time></trkpt><trkpt lat="43.34516122419954" lon="11.501331775115663"><ele>337.3333333333333</ele><time>2026-04-11T04:24:05Z</time></trkpt><trkpt lat="43.34512580609281" lon="11.501244349502237"><ele>336.0</ele><time>2026-04-11T04:24:06Z</time></trkpt><trkpt lat="43.3450956752782" lon="11.501162668613505"><ele>335.8</ele><time>2026-04-11T04:24:07Z</time></trkpt><trkpt lat="43.34506179762937" lon="11.501085166240449"><ele>335.6</ele><time>2026-04-11T04:24:08Z</time></trkpt><trkpt lat="43.344993923490314" lon="11.500949683968635"><ele>335.4</ele><time>2026-04-11T04:24:10Z</time></trkpt><trkpt lat="43.344944139463486" lon="11.500830179379602"><ele>335.2</ele><time>2026-04-11T04:24:12Z</time></trkpt><trkpt lat="43.34495379801023" lon="11.500704743182414"><ele>335.0</ele><time>2026-04-11T04:24:14Z</time></trkpt><trkpt lat="43.345017727886905" lon="11.500598106726196"><ele>335.0</ele><time>2026-04-11T04:24:16Z</time></trkpt><trkpt lat="43.345044630553275" lon="11.500516301569245"><ele>335.0</ele><time>2026-04-11T04:24:18Z</time></trkpt><trkpt lat="43.34501957873191" lon="11.500410045754872"><ele>335.0</ele><time>2026-04-11T04:24:20Z</time></trkpt><trkpt lat="43.34496992511964" lon="11.500292611329067"><ele>335.0</ele><time>2026-04-11T04:24:22Z</time></trkpt><trkpt lat="43.34492088326065" lon="11.500156947342253"><ele>335.0</ele><time>2026-04-11T04:24:24Z</time></trkpt><trkpt lat="43.344867946320186" lon="11.500014318623997"><ele>335.0</ele><time>2026-04-11T04:24:26Z</time></trkpt><trkpt lat="43.34481668482624" lon="11.499853300695362"><ele>335.0</ele><time>2026-04-11T04:24:28Z</time></trkpt><trkpt lat="43.344778123664014" lon="11.499772539929552"><ele>335.0</ele><time>2026-04-11T04:24:29Z</time></trkpt><trkpt lat="43.34475493445043" lon="11.499682158444127"><ele>335.0</ele><time>2026-04-11T04:24:30Z</time></trkpt><trkpt lat="43.34472389868484" lon="11.49959995285978"><ele>335.0</ele><time>2026-04-11T04:24:31Z</time></trkpt><trkpt lat="43.344690237863844" lon="11.499512372980986"><ele>335.0</ele><time>2026-04-11T04:24:32Z</time></trkpt><trkpt lat="43.344656358877266" lon="11.49942654619066"><ele>335.1428571428571</ele><time>2026-04-11T04:24:33Z</time></trkpt><trkpt lat="43.34462282104489" lon="11.499341583731567"><ele>335.2857142857143</ele><time>2026-04-11T04:24:34Z</time></trkpt><trkpt lat="43.344588152320405" lon="11.499253756269743"><ele>335.42857142857144</ele><time>2026-04-11T04:24:35Z</time></trkpt><trkpt lat="43.34455437704688" lon="11.499165404507817"><ele>335.57142857142856</ele><time>2026-04-11T04:24:36Z</time></trkpt><trkpt lat="43.3445230751748" lon="11.499077511492084"><ele>335.7142857142857</ele><time>2026-04-11T04:24:37Z</time></trkpt><trkpt lat="43.344493559292644" lon="11.498987028667264"><ele>335.85714285714283</ele><time>2026-04-11T04:24:38Z</time></trkpt><trkpt lat="43.344465217863515" lon="11.498898293633047"><ele>336.0</ele><time>2026-04-11T04:24:39Z</time></trkpt><trkpt lat="43.34443655678896" lon="11.498808557068095"><ele>335.7142857142857</ele><time>2026-04-11T04:24:40Z</time></trkpt><trkpt lat="43.34441026661804" lon="11.498718201194537"><ele>335.42857142857144</ele><time>2026-04-11T04:24:41Z</time></trkpt><trkpt lat="43.34438057112925" lon="11.498624482240224"><ele>335.1428571428571</ele><time>2026-04-11T04:24:42Z</time></trkpt><trkpt lat="43.34433803528009" lon="11.498535342918656"><ele>334.8571428571429</ele><time>2026-04-11T04:24:43Z</time></trkpt><trkpt lat="43.34430549242045" lon="11.498437281289652"><ele>334.57142857142856</ele><time>2026-04-11T04:24:44Z</time></trkpt><trkpt lat="43.344272664939176" lon="11.498348340091093"><ele>334.2857142857143</ele><time>2026-04-11T04:24:45Z</time></trkpt><trkpt lat="43.344245306715194" lon="11.498255174954421"><ele>334.0</ele><time>2026-04-11T04:24:46Z</time></trkpt><trkpt lat="43.34421691693961" lon="11.4981617412611"><ele>334.0</ele><time>2026-04-11T04:24:47Z</time></trkpt><trkpt lat="43.34418572652122" lon="11.498070055158477"><ele>334.0</ele><time>2026-04-11T04:24:48Z</time></trkpt><trkpt lat="43.344150414736795" lon="11.497979751887103"><ele>334.0</ele><time>2026-04-11T04:24:49Z</time></trkpt><trkpt lat="43.3441161993117" lon="11.497890397568524"><ele>334.0</ele><time>2026-04-11T04:24:50Z</time></trkpt><trkpt lat="43.344083631305075" lon="11.497803419484296"><ele>334.0</ele><time>2026-04-11T04:24:51Z</time></trkpt><trkpt lat="43.34404964745198" lon="11.497721129413614"><ele>334.0</ele><time>2026-04-11T04:24:52Z</time></trkpt><trkpt lat="43.344028987599884" lon="11.497630501383822"><ele>334.0</ele><time>2026-04-11T04:24:53Z</time></trkpt><trkpt lat="43.343996463480984" lon="11.497548979437973"><ele>334.0</ele><time>2026-04-11T04:24:54Z</time></trkpt><trkpt lat="43.3439653401554" lon="11.49747096860305"><ele>334.0</ele><time>2026-04-11T04:24:55Z</time></trkpt><trkpt lat="43.34390561618896" lon="11.497321270059032"><ele>334.0</ele><time>2026-04-11T04:24:57Z</time></trkpt><trkpt lat="43.34383942328315" lon="11.497198532936842"><ele>334.0</ele><time>2026-04-11T04:24:59Z</time></trkpt><trkpt lat="43.34379591512533" lon="11.49708986241831"><ele>334.0</ele><time>2026-04-11T04:25:01Z</time></trkpt><trkpt lat="43.34376418482548" lon="11.49696676963974"><ele>334.0</ele><time>2026-04-11T04:25:03Z</time></trkpt><trkpt lat="43.34367125294379" lon="11.496905073228081"><ele>334.0</ele><time>2026-04-11T04:25:05Z</time></trkpt><trkpt lat="43.34359906053079" lon="11.496803229668751"><ele>334.0</ele><time>2026-04-11T04:25:07Z</time></trkpt><trkpt lat="43.343529488911365" lon="11.496704800212273"><ele>334.0</ele><time>2026-04-11T04:25:09Z</time></trkpt><trkpt lat="43.34348313922722" lon="11.496645713504433"><ele>334.0</ele><time>2026-04-11T04:25:10Z</time></trkpt><trkpt lat="43.34340298162439" lon="11.496543528362457"><ele>334.0</ele><time>2026-04-11T04:25:12Z</time></trkpt><trkpt lat="43.34332041249506" lon="11.496438747770632"><ele>334.0</ele><time>2026-04-11T04:25:14Z</time></trkpt><trkpt lat="43.34324924640972" lon="11.496351989615764"><ele>334.0</ele><time>2026-04-11T04:25:16Z</time></trkpt><trkpt lat="43.343165500158705" lon="11.496249895082897"><ele>334.0</ele><time>2026-04-11T04:25:18Z</time></trkpt><trkpt lat="43.34307967586256" lon="11.496145267138212"><ele>334.0</ele><time>2026-04-11T04:25:20Z</time></trkpt><trkpt lat="43.34299567350215" lon="11.496042786893687"><ele>333.4</ele><time>2026-04-11T04:25:22Z</time></trkpt><trkpt lat="43.342913676846365" lon="11.49594188758643"><ele>332.79999999999995</ele><time>2026-04-11T04:25:24Z</time></trkpt><trkpt lat="43.342819711099146" lon="11.495826259934761"><ele>332.20000000000005</ele><time>2026-04-11T04:25:26Z</time></trkpt><trkpt lat="43.34276626209051" lon="11.495760489334641"><ele>331.6</ele><time>2026-04-11T04:25:27Z</time></trkpt><trkpt lat="43.342713483592505" lon="11.49569554383521"><ele>331.0</ele><time>2026-04-11T04:25:28Z</time></trkpt><trkpt lat="43.34265693788773" lon="11.495625962682169"><ele>331.0</ele><time>2026-04-11T04:25:29Z</time></trkpt><trkpt lat="43.342600995805384" lon="11.495559687105562"><ele>331.0</ele><time>2026-04-11T04:25:30Z</time></trkpt><trkpt lat="43.34253943455153" lon="11.495487228371585"><ele>331.0</ele><time>2026-04-11T04:25:31Z</time></trkpt><trkpt lat="43.342474006948585" lon="11.49540953839622"><ele>331.0</ele><time>2026-04-11T04:25:32Z</time></trkpt><trkpt lat="43.34240805277119" lon="11.49533093308428"><ele>331.0</ele><time>2026-04-11T04:25:33Z</time></trkpt><trkpt lat="43.34232764797121" lon="11.495263595067863"><ele>331.0</ele><time>2026-04-11T04:25:34Z</time></trkpt><trkpt lat="43.34227039893356" lon="11.495167180320836"><ele>328.0</ele><time>2026-04-11T04:25:35Z</time></trkpt><trkpt lat="43.34218954451804" lon="11.495096284759914"><ele>325.0</ele><time>2026-04-11T04:25:36Z</time></trkpt><trkpt lat="43.34212331170687" lon="11.494993894553065"><ele>322.0</ele><time>2026-04-11T04:25:37Z</time></trkpt><trkpt lat="43.342038871886196" lon="11.494894559972247"><ele>319.0</ele><time>2026-04-11T04:25:38Z</time></trkpt><trkpt lat="43.34195779048608" lon="11.494799272488601"><ele>316.0</ele><time>2026-04-11T04:25:39Z</time></trkpt><trkpt lat="43.34187935596182" lon="11.494707095569892"><ele>316.0</ele><time>2026-04-11T04:25:40Z</time></trkpt><trkpt lat="43.341795315454384" lon="11.49460989013469"><ele>316.0</ele><time>2026-04-11T04:25:41Z</time></trkpt><trkpt lat="43.34171865991905" lon="11.494521498301179"><ele>316.0</ele><time>2026-04-11T04:25:42Z</time></trkpt><trkpt lat="43.341637184879474" lon="11.494438438068824"><ele>316.0</ele><time>2026-04-11T04:25:43Z</time></trkpt><trkpt lat="43.34156289398227" lon="11.49434053135248"><ele>316.0</ele><time>2026-04-11T04:25:44Z</time></trkpt><trkpt lat="43.34148680396145" lon="11.49424830774418"><ele>315.40000000000003</ele><time>2026-04-11T04:25:45Z</time></trkpt><trkpt lat="43.34140957652527" lon="11.494161378246197"><ele>314.8</ele><time>2026-04-11T04:25:46Z</time></trkpt><trkpt lat="43.34133201308293" lon="11.494074441316329"><ele>314.20000000000005</ele><time>2026-04-11T04:25:47Z</time></trkpt><trkpt lat="43.34125774750589" lon="11.493984643797544"><ele>313.6</ele><time>2026-04-11T04:25:48Z</time></trkpt><trkpt lat="43.34118219517597" lon="11.493893469715733"><ele>313.0</ele><time>2026-04-11T04:25:49Z</time></trkpt><trkpt lat="43.34110685008836" lon="11.493803089785619"><ele>312.4</ele><time>2026-04-11T04:25:50Z</time></trkpt><trkpt lat="43.34102987465196" lon="11.493714299179683"><ele>311.8</ele><time>2026-04-11T04:25:51Z</time></trkpt><trkpt lat="43.34095642779681" lon="11.493624270586189"><ele>311.2</ele><time>2026-04-11T04:25:52Z</time></trkpt><trkpt lat="43.34087967899268" lon="11.493533977269133"><ele>310.6</ele><time>2026-04-11T04:25:53Z</time></trkpt><trkpt lat="43.34080627638368" lon="11.493446250054463"><ele>310.0</ele><time>2026-04-11T04:25:54Z</time></trkpt><trkpt lat="43.34073298638664" lon="11.493360290963837"><ele>310.0</ele><time>2026-04-11T04:25:55Z</time></trkpt><trkpt lat="43.34066192088203" lon="11.493272463659505"><ele>310.0</ele><time>2026-04-11T04:25:56Z</time></trkpt><trkpt lat="43.340587680598944" lon="11.493191719708948"><ele>310.0</ele><time>2026-04-11T04:25:57Z</time></trkpt><trkpt lat="43.34051737497429" lon="11.493107801692682"><ele>310.0</ele><time>2026-04-11T04:25:58Z</time></trkpt><trkpt lat="43.3404442693691" lon="11.493019113622365"><ele>310.0</ele><time>2026-04-11T04:25:59Z</time></trkpt><trkpt lat="43.34037250374055" lon="11.492918479072388"><ele>310.2</ele><time>2026-04-11T04:26:00Z</time></trkpt><trkpt lat="43.34030234441558" lon="11.4928180581388"><ele>310.4</ele><time>2026-04-11T04:26:01Z</time></trkpt><trkpt lat="43.34022934477922" lon="11.492718090977817"><ele>310.6</ele><time>2026-04-11T04:26:02Z</time></trkpt><trkpt lat="43.34015633398877" lon="11.492622624740331"><ele>310.8</ele><time>2026-04-11T04:26:03Z</time></trkpt><trkpt lat="43.34008811610486" lon="11.49252726933615"><ele>311.0</ele><time>2026-04-11T04:26:04Z</time></trkpt><trkpt lat="43.34002768710198" lon="11.492426110443823"><ele>311.0</ele><time>2026-04-11T04:26:05Z</time></trkpt><trkpt lat="43.3399648149867" lon="11.492325539011633"><ele>311.0</ele><time>2026-04-11T04:26:06Z</time></trkpt><trkpt lat="43.339894853175416" lon="11.492227256150603"><ele>311.0</ele><time>2026-04-11T04:26:07Z</time></trkpt><trkpt lat="43.3398170575767" lon="11.492132062290747"><ele>311.0</ele><time>2026-04-11T04:26:08Z</time></trkpt><trkpt lat="43.33974858878305" lon="11.492030883926732"><ele>311.0</ele><time>2026-04-11T04:26:09Z</time></trkpt><trkpt lat="43.339673725755254" lon="11.491931828252792"><ele>310.2</ele><time>2026-04-11T04:26:10Z</time></trkpt><trkpt lat="43.339605353500055" lon="11.491827478296855"><ele>309.40000000000003</ele><time>2026-04-11T04:26:11Z</time></trkpt><trkpt lat="43.33953839417534" lon="11.491723125889726"><ele>308.6</ele><time>2026-04-11T04:26:12Z</time></trkpt><trkpt lat="43.339471542417535" lon="11.491615560623703"><ele>307.8</ele><time>2026-04-11T04:26:13Z</time></trkpt><trkpt lat="43.33940427942662" lon="11.491511252288568"><ele>307.0</ele><time>2026-04-11T04:26:14Z</time></trkpt><trkpt lat="43.33933789445062" lon="11.491408462261802"><ele>307.0</ele><time>2026-04-11T04:26:15Z</time></trkpt><trkpt lat="43.33926735793776" lon="11.491310082742464"><ele>307.0</ele><time>2026-04-11T04:26:16Z</time></trkpt><trkpt lat="43.339201684673625" lon="11.491208131272273"><ele>307.0</ele><time>2026-04-11T04:26:17Z</time></trkpt><trkpt lat="43.33913258461295" lon="11.491109588930007"><ele>307.0</ele><time>2026-04-11T04:26:18Z</time></trkpt><trkpt lat="43.33906054567821" lon="11.491018698849414"><ele>307.0</ele><time>2026-04-11T04:26:19Z</time></trkpt><trkpt lat="43.33898510193592" lon="11.490933232297449"><ele>306.8</ele><time>2026-04-11T04:26:20Z</time></trkpt><trkpt lat="43.33891292278821" lon="11.490840534660885"><ele>306.6</ele><time>2026-04-11T04:26:21Z</time></trkpt><trkpt lat="43.338832661655324" lon="11.490760247908282"><ele>306.40000000000003</ele><time>2026-04-11T04:26:22Z</time></trkpt><trkpt lat="43.338754367319765" lon="11.490678475388405"><ele>306.2</ele><time>2026-04-11T04:26:23Z</time></trkpt><trkpt lat="43.33867330147038" lon="11.49059860162447"><ele>306.0</ele><time>2026-04-11T04:26:24Z</time></trkpt><trkpt lat="43.33859243054895" lon="11.490521109563476"><ele>305.40000000000003</ele><time>2026-04-11T04:26:25Z</time></trkpt><trkpt lat="43.33851593708935" lon="11.490437620272285"><ele>304.8</ele><time>2026-04-11T04:26:26Z</time></trkpt><trkpt lat="43.33844562946794" lon="11.490355585620602"><ele>304.20000000000005</ele><time>2026-04-11T04:26:27Z</time></trkpt><trkpt lat="43.33836668347901" lon="11.490281625767901"><ele>303.6</ele><time>2026-04-11T04:26:28Z</time></trkpt><trkpt lat="43.33828752990273" lon="11.490204041067708"><ele>303.0</ele><time>2026-04-11T04:26:29Z</time></trkpt><trkpt lat="43.338207351722005" lon="11.490123622788847"><ele>303.0</ele><time>2026-04-11T04:26:30Z</time></trkpt><trkpt lat="43.33812491448139" lon="11.49003563542743"><ele>303.0</ele><time>2026-04-11T04:26:31Z</time></trkpt><trkpt lat="43.33804202485178" lon="11.489952349788073"><ele>303.0</ele><time>2026-04-11T04:26:32Z</time></trkpt><trkpt lat="43.33795743357353" lon="11.489866592848765"><ele>303.0</ele><time>2026-04-11T04:26:33Z</time></trkpt><trkpt lat="43.3378755172686" lon="11.48978244484418"><ele>303.0</ele><time>2026-04-11T04:26:34Z</time></trkpt><trkpt lat="43.33779362978436" lon="11.489695993962519"><ele>302.0</ele><time>2026-04-11T04:26:35Z</time></trkpt><trkpt lat="43.33771296494477" lon="11.48961213624392"><ele>301.0</ele><time>2026-04-11T04:26:36Z</time></trkpt><trkpt lat="43.33763252621848" lon="11.489529181268892"><ele>300.0</ele><time>2026-04-11T04:26:37Z</time></trkpt><trkpt lat="43.33755641113844" lon="11.489436806512371"><ele>299.0</ele><time>2026-04-11T04:26:38Z</time></trkpt><trkpt lat="43.33747853788416" lon="11.489357049657087"><ele>298.0</ele><time>2026-04-11T04:26:39Z</time></trkpt><trkpt lat="43.33740502603822" lon="11.48927461754671"><ele>297.8</ele><time>2026-04-11T04:26:40Z</time></trkpt><trkpt lat="43.33732936715482" lon="11.489197000218244"><ele>297.6</ele><time>2026-04-11T04:26:41Z</time></trkpt><trkpt lat="43.337250669194695" lon="11.489122542756009"><ele>297.4</ele><time>2026-04-11T04:26:42Z</time></trkpt><trkpt lat="43.33717010105617" lon="11.489046831287887"><ele>297.2</ele><time>2026-04-11T04:26:43Z</time></trkpt><trkpt lat="43.337087351847785" lon="11.488975033622548"><ele>297.0</ele><time>2026-04-11T04:26:44Z</time></trkpt><trkpt lat="43.33700381911839" lon="11.488914218691313"><ele>297.4</ele><time>2026-04-11T04:26:45Z</time></trkpt><trkpt lat="43.33691812411242" lon="11.488864449028284"><ele>297.79999999999995</ele><time>2026-04-11T04:26:46Z</time></trkpt><trkpt lat="43.33683098507064" lon="11.488820844881324"><ele>298.2</ele><time>2026-04-11T04:26:47Z</time></trkpt><trkpt lat="43.33674124819459" lon="11.48877549890388"><ele>298.59999999999997</ele><time>2026-04-11T04:26:48Z</time></trkpt><trkpt lat="43.336653530602" lon="11.488725910493"><ele>299.0</ele><time>2026-04-11T04:26:49Z</time></trkpt><trkpt lat="43.33657093118391" lon="11.488663316058092"><ele>299.0</ele><time>2026-04-11T04:26:50Z</time></trkpt><trkpt lat="43.336493760729276" lon="11.488587965345234"><ele>299.0</ele><time>2026-04-11T04:26:51Z</time></trkpt><trkpt lat="43.33642441450324" lon="11.488502856020698"><ele>299.0</ele><time>2026-04-11T04:26:52Z</time></trkpt><trkpt lat="43.33636417949886" lon="11.488408468244037"><ele>299.0</ele><time>2026-04-11T04:26:53Z</time></trkpt><trkpt lat="43.33630896924057" lon="11.488308456799365"><ele>299.0</ele><time>2026-04-11T04:26:54Z</time></trkpt><trkpt lat="43.33626393862826" lon="11.488190987740824"><ele>299.0</ele><time>2026-04-11T04:26:55Z</time></trkpt><trkpt lat="43.33620108504392" lon="11.488087036510237"><ele>299.0</ele><time>2026-04-11T04:26:56Z</time></trkpt><trkpt lat="43.33612731865781" lon="11.488008744736176"><ele>299.0</ele><time>2026-04-11T04:26:57Z</time></trkpt><trkpt lat="43.33605430583317" lon="11.487914209574361"><ele>299.0</ele><time>2026-04-11T04:26:58Z</time></trkpt><trkpt lat="43.33598567427408" lon="11.487818561698495"><ele>299.0</ele><time>2026-04-11T04:26:59Z</time></trkpt><trkpt lat="43.33591027974708" lon="11.487732123816341"><ele>297.4</ele><time>2026-04-11T04:27:00Z</time></trkpt><trkpt lat="43.33583724745552" lon="11.487648427879721"><ele>295.79999999999995</ele><time>2026-04-11T04:27:01Z</time></trkpt><trkpt lat="43.33576638187382" lon="11.487563332997572"><ele>294.20000000000005</ele><time>2026-04-11T04:27:02Z</time></trkpt><trkpt lat="43.33569263102058" lon="11.487470379645934"><ele>292.6</ele><time>2026-04-11T04:27:03Z</time></trkpt><trkpt lat="43.33562364714877" lon="11.487371910568829"><ele>291.0</ele><time>2026-04-11T04:27:04Z</time></trkpt><trkpt lat="43.33556205362686" lon="11.487263571551074"><ele>291.6</ele><time>2026-04-11T04:27:05Z</time></trkpt><trkpt lat="43.33550688983916" lon="11.487149228532694"><ele>292.20000000000005</ele><time>2026-04-11T04:27:06Z</time></trkpt><trkpt lat="43.33545302930073" lon="11.487031004151316"><ele>292.79999999999995</ele><time>2026-04-11T04:27:07Z</time></trkpt><trkpt lat="43.33541634542189" lon="11.48690491276615"><ele>293.4</ele><time>2026-04-11T04:27:08Z</time></trkpt><trkpt lat="43.33536512025905" lon="11.486782709493053"><ele>294.0</ele><time>2026-04-11T04:27:09Z</time></trkpt><trkpt lat="43.33531192738448" lon="11.486660018184082"><ele>294.0</ele><time>2026-04-11T04:27:10Z</time></trkpt><trkpt lat="43.33526068464509" lon="11.486537843047692"><ele>294.0</ele><time>2026-04-11T04:27:11Z</time></trkpt><trkpt lat="43.33520376500083" lon="11.486414280998135"><ele>294.0</ele><time>2026-04-11T04:27:12Z</time></trkpt><trkpt lat="43.33515414649484" lon="11.486285460065046"><ele>294.0</ele><time>2026-04-11T04:27:13Z</time></trkpt><trkpt lat="43.33510144133331" lon="11.486157721044526"><ele>294.0</ele><time>2026-04-11T04:27:14Z</time></trkpt><trkpt lat="43.33505652357348" lon="11.486021551412726"><ele>291.75</ele><time>2026-04-11T04:27:15Z</time></trkpt><trkpt lat="43.33501380776523" lon="11.485885196917309"><ele>289.5</ele><time>2026-04-11T04:27:16Z</time></trkpt><trkpt lat="43.33497954090231" lon="11.485736433445261"><ele>287.25</ele><time>2026-04-11T04:27:17Z</time></trkpt><trkpt lat="43.334947794632676" lon="11.485585654745492"><ele>285.0</ele><time>2026-04-11T04:27:18Z</time></trkpt><trkpt lat="43.33492215206759" lon="11.485430732833809"><ele>283.5</ele><time>2026-04-11T04:27:19Z</time></trkpt><trkpt lat="43.33490209057732" lon="11.485274640660792"><ele>282.0</ele><time>2026-04-11T04:27:20Z</time></trkpt><trkpt lat="43.334879622892586" lon="11.485115770303734"><ele>280.5</ele><time>2026-04-11T04:27:21Z</time></trkpt><trkpt lat="43.33485716291633" lon="11.484956668626806"><ele>279.0</ele><time>2026-04-11T04:27:22Z</time></trkpt><trkpt lat="43.334836986058185" lon="11.484797908398752"><ele>279.0</ele><time>2026-04-11T04:27:23Z</time></trkpt><trkpt lat="43.3348174465945" lon="11.484640092945622"><ele>279.0</ele><time>2026-04-11T04:27:24Z</time></trkpt><trkpt lat="43.334801684479615" lon="11.484482637597328"><ele>279.0</ele><time>2026-04-11T04:27:25Z</time></trkpt><trkpt lat="43.33478540296958" lon="11.484333341724378"><ele>279.0</ele><time>2026-04-11T04:27:26Z</time></trkpt><trkpt lat="43.334773135733926" lon="11.48418421214887"><ele>278.2</ele><time>2026-04-11T04:27:27Z</time></trkpt><trkpt lat="43.33476706416115" lon="11.484035954123959"><ele>277.4</ele><time>2026-04-11T04:27:28Z</time></trkpt><trkpt lat="43.33476700455061" lon="11.483905680971041"><ele>276.6</ele><time>2026-04-11T04:27:29Z</time></trkpt><trkpt lat="43.33476386151054" lon="11.483749558487505"><ele>275.8</ele><time>2026-04-11T04:27:30Z</time></trkpt><trkpt lat="43.33475178297082" lon="11.483590865615252"><ele>275.0</ele><time>2026-04-11T04:27:31Z</time></trkpt><trkpt lat="43.33474319090437" lon="11.483445319188288"><ele>276.2</ele><time>2026-04-11T04:27:32Z</time></trkpt><trkpt lat="43.33471681102569" lon="11.483300314580143"><ele>277.4</ele><time>2026-04-11T04:27:33Z</time></trkpt><trkpt lat="43.33470363899551" lon="11.483156659673314"><ele>278.6</ele><time>2026-04-11T04:27:34Z</time></trkpt><trkpt lat="43.33469007196785" lon="11.483016178248516"><ele>279.8</ele><time>2026-04-11T04:27:35Z</time></trkpt><trkpt lat="43.33467963871631" lon="11.482877461825426"><ele>281.0</ele><time>2026-04-11T04:27:36Z</time></trkpt><trkpt lat="43.33465921878477" lon="11.48274303667539"><ele>281.0</ele><time>2026-04-11T04:27:37Z</time></trkpt><trkpt lat="43.33463173637156" lon="11.4826092248766"><ele>281.0</ele><time>2026-04-11T04:27:38Z</time></trkpt><trkpt lat="43.33461606949294" lon="11.482472816136308"><ele>281.0</ele><time>2026-04-11T04:27:39Z</time></trkpt><trkpt lat="43.33459993743304" lon="11.482339795854719"><ele>281.0</ele><time>2026-04-11T04:27:40Z</time></trkpt><trkpt lat="43.33459615021929" lon="11.482196701241898"><ele>281.0</ele><time>2026-04-11T04:27:41Z</time></trkpt><trkpt lat="43.33461318171549" lon="11.482054648776526"><ele>279.6</ele><time>2026-04-11T04:27:42Z</time></trkpt><trkpt lat="43.33464678247299" lon="11.481930298148951"><ele>278.20000000000005</ele><time>2026-04-11T04:27:43Z</time></trkpt><trkpt lat="43.334692182405156" lon="11.481816128434067"><ele>276.79999999999995</ele><time>2026-04-11T04:27:44Z</time></trkpt><trkpt lat="43.334743126589935" lon="11.481715755777964"><ele>275.4</ele><time>2026-04-11T04:27:45Z</time></trkpt><trkpt lat="43.33479347963886" lon="11.481620086085234"><ele>274.0</ele><time>2026-04-11T04:27:46Z</time></trkpt><trkpt lat="43.33484730384989" lon="11.481532013776015"><ele>273.66666666666663</ele><time>2026-04-11T04:27:47Z</time></trkpt><trkpt lat="43.334898450518544" lon="11.481438314961416"><ele>273.3333333333333</ele><time>2026-04-11T04:27:48Z</time></trkpt><trkpt lat="43.33495118645099" lon="11.481349735161583"><ele>273.0</ele><time>2026-04-11T04:27:49Z</time></trkpt><trkpt lat="43.335001792945924" lon="11.481258261269614"><ele>272.6666666666667</ele><time>2026-04-11T04:27:50Z</time></trkpt><trkpt lat="43.335047246126976" lon="11.481176041145527"><ele>272.33333333333337</ele><time>2026-04-11T04:27:51Z</time></trkpt><trkpt lat="43.335103756804884" lon="11.481099786479067"><ele>272.0</ele><time>2026-04-11T04:27:52Z</time></trkpt><trkpt lat="43.33515583005691" lon="11.481017105112773"><ele>273.1666666666667</ele><time>2026-04-11T04:27:53Z</time></trkpt><trkpt lat="43.335205090713906" lon="11.480937353572044"><ele>274.33333333333337</ele><time>2026-04-11T04:27:54Z</time></trkpt><trkpt lat="43.33525311623113" lon="11.48085455442874"><ele>275.5</ele><time>2026-04-11T04:27:55Z</time></trkpt><trkpt lat="43.33530090819657" lon="11.480774246927698"><ele>276.6666666666667</ele><time>2026-04-11T04:27:56Z</time></trkpt><trkpt lat="43.335344307222186" lon="11.480683713514638"><ele>277.8333333333333</ele><time>2026-04-11T04:27:57Z</time></trkpt><trkpt lat="43.33540262095257" lon="11.480626482714689"><ele>279.0</ele><time>2026-04-11T04:27:58Z</time></trkpt><trkpt lat="43.3354512239234" lon="11.480555565827107"><ele>279.4</ele><time>2026-04-11T04:27:59Z</time></trkpt><trkpt lat="43.33544376015617" lon="11.480409176001332"><ele>279.79999999999995</ele><time>2026-04-11T04:28:00Z</time></trkpt><trkpt lat="43.33544943720063" lon="11.48030295191304"><ele>280.20000000000005</ele><time>2026-04-11T04:28:01Z</time></trkpt><trkpt lat="43.335455401823744" lon="11.480206164973884"><ele>280.6</ele><time>2026-04-11T04:28:02Z</time></trkpt><trkpt lat="43.33550006349937" lon="11.480054779303067"><ele>281.0</ele><time>2026-04-11T04:28:04Z</time></trkpt><trkpt lat="43.33554603846084" lon="11.479897350707857"><ele>280.83333333333337</ele><time>2026-04-11T04:28:06Z</time></trkpt><trkpt lat="43.335572832947115" lon="11.479815555833252"><ele>280.6666666666667</ele><time>2026-04-11T04:28:07Z</time></trkpt><trkpt lat="43.33560277776375" lon="11.479728513460824"><ele>280.5</ele><time>2026-04-11T04:28:08Z</time></trkpt><trkpt lat="43.335656544452" lon="11.479567536730492"><ele>280.3333333333333</ele><time>2026-04-11T04:28:10Z</time></trkpt><trkpt lat="43.33568502887843" lon="11.479481998423784"><ele>280.16666666666663</ele><time>2026-04-11T04:28:11Z</time></trkpt><trkpt lat="43.33571544103234" lon="11.479389847093488"><ele>280.0</ele><time>2026-04-11T04:28:12Z</time></trkpt><trkpt lat="43.33574600413783" lon="11.479294490167696"><ele>279.66666666666663</ele><time>2026-04-11T04:28:13Z</time></trkpt><trkpt lat="43.33577606519496" lon="11.479195004812622"><ele>279.3333333333333</ele><time>2026-04-11T04:28:14Z</time></trkpt><trkpt lat="43.33579079771825" lon="11.479095953952848"><ele>279.0</ele><time>2026-04-11T04:28:15Z</time></trkpt><trkpt lat="43.3358206421907" lon="11.47900309485523"><ele>278.6666666666667</ele><time>2026-04-11T04:28:16Z</time></trkpt><trkpt lat="43.335844239954234" lon="11.47890568011399"><ele>278.33333333333337</ele><time>2026-04-11T04:28:17Z</time></trkpt><trkpt lat="43.33588759965606" lon="11.478816126187098"><ele>278.0</ele><time>2026-04-11T04:28:18Z</time></trkpt><trkpt lat="43.335899986939175" lon="11.478716049762506"><ele>277.33333333333337</ele><time>2026-04-11T04:28:19Z</time></trkpt><trkpt lat="43.33594423776533" lon="11.47863099813383"><ele>276.6666666666667</ele><time>2026-04-11T04:28:20Z</time></trkpt><trkpt lat="43.33597561309426" lon="11.478532052868472"><ele>276.0</ele><time>2026-04-11T04:28:21Z</time></trkpt><trkpt lat="43.336004118710484" lon="11.478434347739931"><ele>275.3333333333333</ele><time>2026-04-11T04:28:22Z</time></trkpt><trkpt lat="43.33602815481883" lon="11.478335517847091"><ele>274.66666666666663</ele><time>2026-04-11T04:28:23Z</time></trkpt><trkpt lat="43.33603540743716" lon="11.478227529319922"><ele>274.0</ele><time>2026-04-11T04:28:24Z</time></trkpt><trkpt lat="43.336050751593405" lon="11.478119327346898"><ele>274.0</ele><time>2026-04-11T04:28:25Z</time></trkpt><trkpt lat="43.336049719122244" lon="11.478010954920522"><ele>274.0</ele><time>2026-04-11T04:28:26Z</time></trkpt><trkpt lat="43.33604911710656" lon="11.477897796471147"><ele>274.0</ele><time>2026-04-11T04:28:27Z</time></trkpt><trkpt lat="43.33602809532529" lon="11.477795620270054"><ele>274.0</ele><time>2026-04-11T04:28:28Z</time></trkpt><trkpt lat="43.33600599938898" lon="11.477697459473799"><ele>274.0</ele><time>2026-04-11T04:28:29Z</time></trkpt><trkpt lat="43.33598383203834" lon="11.47760313377586"><ele>274.0</ele><time>2026-04-11T04:28:30Z</time></trkpt><trkpt lat="43.33596085979224" lon="11.477511545477373"><ele>274.00000000000006</ele><time>2026-04-11T04:28:31Z</time></trkpt><trkpt lat="43.335933455105916" lon="11.47742361009856"><ele>274.0</ele><time>2026-04-11T04:28:32Z</time></trkpt><trkpt lat="43.335912836024534" lon="11.477340267411952"><ele>274.0</ele><time>2026-04-11T04:28:33Z</time></trkpt><trkpt lat="43.33588844593742" lon="11.477258922923488"><ele>274.0</ele><time>2026-04-11T04:28:34Z</time></trkpt><trkpt lat="43.33586299212807" lon="11.477178539342505"><ele>274.0</ele><time>2026-04-11T04:28:35Z</time></trkpt><trkpt lat="43.33583638704744" lon="11.477094721220272"><ele>274.00000000000006</ele><time>2026-04-11T04:28:36Z</time></trkpt><trkpt lat="43.335809713354756" lon="11.47701467715506"><ele>274.0</ele><time>2026-04-11T04:28:37Z</time></trkpt><trkpt lat="43.33578130902811" lon="11.476936620134042"><ele>273.66666666666663</ele><time>2026-04-11T04:28:38Z</time></trkpt><trkpt lat="43.33572986131783" lon="11.476792883164201"><ele>273.3333333333333</ele><time>2026-04-11T04:28:40Z</time></trkpt><trkpt lat="43.33568056795042" lon="11.476668581513922"><ele>273.0</ele><time>2026-04-11T04:28:42Z</time></trkpt><trkpt lat="43.33564145997654" lon="11.476564808669108"><ele>272.6666666666667</ele><time>2026-04-11T04:28:44Z</time></trkpt><trkpt lat="43.335613883149385" lon="11.476478143951306"><ele>272.33333333333337</ele><time>2026-04-11T04:28:46Z</time></trkpt><trkpt lat="43.335575311884604" lon="11.476394073915761"><ele>272.0</ele><time>2026-04-11T04:28:48Z</time></trkpt><trkpt lat="43.335527059745154" lon="11.476291562657378"><ele>272.5</ele><time>2026-04-11T04:28:50Z</time></trkpt><trkpt lat="43.33547567198929" lon="11.476164848936095"><ele>273.0</ele><time>2026-04-11T04:28:52Z</time></trkpt><trkpt lat="43.335409355827494" lon="11.476021488822004"><ele>273.5</ele><time>2026-04-11T04:28:54Z</time></trkpt><trkpt lat="43.33537494811184" lon="11.47594566740832"><ele>274.0</ele><time>2026-04-11T04:28:55Z</time></trkpt><trkpt lat="43.33534353409643" lon="11.47586843173292"><ele>274.5</ele><time>2026-04-11T04:28:56Z</time></trkpt><trkpt lat="43.33530870809184" lon="11.475793996270381"><ele>275.0</ele><time>2026-04-11T04:28:57Z</time></trkpt><trkpt lat="43.335291034343996" lon="11.475705297294411"><ele>275.0</ele><time>2026-04-11T04:28:58Z</time></trkpt><trkpt lat="43.33525868196791" lon="11.475622937708247"><ele>275.0</ele><time>2026-04-11T04:28:59Z</time></trkpt><trkpt lat="43.335226122737225" lon="11.47554007230532"><ele>275.0</ele><time>2026-04-11T04:29:00Z</time></trkpt><trkpt lat="43.335180051299396" lon="11.475466917818466"><ele>275.0</ele><time>2026-04-11T04:29:01Z</time></trkpt><trkpt lat="43.33515126937338" lon="11.475383638781903"><ele>275.0</ele><time>2026-04-11T04:29:02Z</time></trkpt><trkpt lat="43.33512294532066" lon="11.475298426584661"><ele>275.0</ele><time>2026-04-11T04:29:03Z</time></trkpt><trkpt lat="43.335093860301605" lon="11.47521485670327"><ele>275.0</ele><time>2026-04-11T04:29:04Z</time></trkpt><trkpt lat="43.33506956191293" lon="11.475128055153922"><ele>274.7142857142857</ele><time>2026-04-11T04:29:05Z</time></trkpt><trkpt lat="43.33504835209438" lon="11.47504232221497"><ele>274.42857142857144</ele><time>2026-04-11T04:29:06Z</time></trkpt><trkpt lat="43.33502608845004" lon="11.474951866597946"><ele>274.1428571428571</ele><time>2026-04-11T04:29:07Z</time></trkpt><trkpt lat="43.33500775198346" lon="11.474863475149057"><ele>273.8571428571429</ele><time>2026-04-11T04:29:08Z</time></trkpt><trkpt lat="43.33499220974348" lon="11.474769645373456"><ele>273.57142857142856</ele><time>2026-04-11T04:29:09Z</time></trkpt><trkpt lat="43.334981446578645" lon="11.474675660841449"><ele>273.2857142857143</ele><time>2026-04-11T04:29:10Z</time></trkpt><trkpt lat="43.3349706044938" lon="11.474586192551305"><ele>273.0</ele><time>2026-04-11T04:29:11Z</time></trkpt><trkpt lat="43.334961001403045" lon="11.474495781810978"><ele>272.85714285714283</ele><time>2026-04-11T04:29:12Z</time></trkpt><trkpt lat="43.33495326293471" lon="11.474405160334653"><ele>272.7142857142857</ele><time>2026-04-11T04:29:13Z</time></trkpt><trkpt lat="43.334946486631274" lon="11.474313715188922"><ele>272.57142857142856</ele><time>2026-04-11T04:29:14Z</time></trkpt><trkpt lat="43.334935332770335" lon="11.474224886477629"><ele>272.42857142857144</ele><time>2026-04-11T04:29:15Z</time></trkpt><trkpt lat="43.334929556287584" lon="11.474130982983516"><ele>272.2857142857143</ele><time>2026-04-11T04:29:16Z</time></trkpt><trkpt lat="43.33492440321577" lon="11.474033771306914"><ele>272.1428571428571</ele><time>2026-04-11T04:29:17Z</time></trkpt><trkpt lat="43.33491653056501" lon="11.473939144200287"><ele>272.0</ele><time>2026-04-11T04:29:18Z</time></trkpt><trkpt lat="43.33490532321863" lon="11.473843442280183"><ele>271.71428571428567</ele><time>2026-04-11T04:29:19Z</time></trkpt><trkpt lat="43.334895761294526" lon="11.473749159529952"><ele>271.42857142857144</ele><time>2026-04-11T04:29:20Z</time></trkpt><trkpt lat="43.33488790047816" lon="11.47365205707413"><ele>271.1428571428571</ele><time>2026-04-11T04:29:21Z</time></trkpt><trkpt lat="43.334879039835656" lon="11.473562890128871"><ele>270.85714285714283</ele><time>2026-04-11T04:29:22Z</time></trkpt><trkpt lat="43.33487538533903" lon="11.473467064141557"><ele>270.57142857142856</ele><time>2026-04-11T04:29:23Z</time></trkpt><trkpt lat="43.33486657248578" lon="11.473376932057999"><ele>270.2857142857143</ele><time>2026-04-11T04:29:24Z</time></trkpt><trkpt lat="43.334857610312284" lon="11.473285152438367"><ele>270.0</ele><time>2026-04-11T04:29:25Z</time></trkpt><trkpt lat="43.3348567843075" lon="11.473192983322342"><ele>270.0</ele><time>2026-04-11T04:29:26Z</time></trkpt><trkpt lat="43.33485834433643" lon="11.473099200139615"><ele>270.0</ele><time>2026-04-11T04:29:27Z</time></trkpt><trkpt lat="43.33486800282706" lon="11.472995215192674"><ele>270.0</ele><time>2026-04-11T04:29:28Z</time></trkpt><trkpt lat="43.33488025509126" lon="11.472892208279232"><ele>270.0</ele><time>2026-04-11T04:29:29Z</time></trkpt><trkpt lat="43.334905655005656" lon="11.47278508872274"><ele>270.0</ele><time>2026-04-11T04:29:30Z</time></trkpt><trkpt lat="43.334929743838835" lon="11.472683188984051"><ele>270.0</ele><time>2026-04-11T04:29:31Z</time></trkpt><trkpt lat="43.334949730805235" lon="11.472579894048922"><ele>270.2</ele><time>2026-04-11T04:29:32Z</time></trkpt><trkpt lat="43.33497332237647" lon="11.472476555073278"><ele>270.4</ele><time>2026-04-11T04:29:33Z</time></trkpt><trkpt lat="43.334999114922795" lon="11.472378289088335"><ele>270.6</ele><time>2026-04-11T04:29:34Z</time></trkpt><trkpt lat="43.335056888233126" lon="11.47220309931471"><ele>270.8</ele><time>2026-04-11T04:29:36Z</time></trkpt><trkpt lat="43.335089032637676" lon="11.4720869080621"><ele>271.0</ele><time>2026-04-11T04:29:37Z</time></trkpt><trkpt lat="43.335127616395546" lon="11.471977348450917"><ele>270.2</ele><time>2026-04-11T04:29:38Z</time></trkpt><trkpt lat="43.33516530495196" lon="11.471873157433995"><ele>269.40000000000003</ele><time>2026-04-11T04:29:39Z</time></trkpt><trkpt lat="43.33521670885354" lon="11.471786654898946"><ele>268.6</ele><time>2026-04-11T04:29:40Z</time></trkpt><trkpt lat="43.33525859045377" lon="11.4716855108637"><ele>267.8</ele><time>2026-04-11T04:29:41Z</time></trkpt><trkpt lat="43.33530624893708" lon="11.471573607838437"><ele>267.0</ele><time>2026-04-11T04:29:42Z</time></trkpt><trkpt lat="43.33535998566327" lon="11.471447964759294"><ele>267.0</ele><time>2026-04-11T04:29:43Z</time></trkpt><trkpt lat="43.335417453678886" lon="11.471322189716327"><ele>267.0</ele><time>2026-04-11T04:29:44Z</time></trkpt><trkpt lat="43.33548214620392" lon="11.471185857829987"><ele>267.0</ele><time>2026-04-11T04:29:45Z</time></trkpt><trkpt lat="43.33554406083725" lon="11.47105226643427"><ele>267.0</ele><time>2026-04-11T04:29:46Z</time></trkpt><trkpt lat="43.33560386002319" lon="11.470910668352271"><ele>266.0</ele><time>2026-04-11T04:29:47Z</time></trkpt><trkpt lat="43.33565754991249" lon="11.470769104421018"><ele>265.0</ele><time>2026-04-11T04:29:48Z</time></trkpt><trkpt lat="43.33569919000452" lon="11.47063157971767"><ele>264.0</ele><time>2026-04-11T04:29:49Z</time></trkpt><trkpt lat="43.33573691645236" lon="11.470494823878695"><ele>263.0</ele><time>2026-04-11T04:29:50Z</time></trkpt><trkpt lat="43.33577004151666" lon="11.470364918413726"><ele>262.0</ele><time>2026-04-11T04:29:51Z</time></trkpt><trkpt lat="43.33578122637626" lon="11.470230925350506"><ele>261.3333333333333</ele><time>2026-04-11T04:29:52Z</time></trkpt><trkpt lat="43.33577919491268" lon="11.470098348502097"><ele>260.66666666666663</ele><time>2026-04-11T04:29:53Z</time></trkpt><trkpt lat="43.335786209242784" lon="11.469975858399723"><ele>260.0</ele><time>2026-04-11T04:29:54Z</time></trkpt><trkpt lat="43.33577601183899" lon="11.469854039853967"><ele>259.3333333333333</ele><time>2026-04-11T04:29:55Z</time></trkpt><trkpt lat="43.33575721897418" lon="11.46974201778533"><ele>258.6666666666667</ele><time>2026-04-11T04:29:56Z</time></trkpt><trkpt lat="43.335732647086274" lon="11.469633247765035"><ele>258.0</ele><time>2026-04-11T04:29:57Z</time></trkpt><trkpt lat="43.3357052010874" lon="11.469526308070758"><ele>258.0</ele><time>2026-04-11T04:29:58Z</time></trkpt><trkpt lat="43.33566699103628" lon="11.469436487568048"><ele>258.0</ele><time>2026-04-11T04:29:59Z</time></trkpt><trkpt lat="43.33563817155015" lon="11.469333401314504"><ele>258.0</ele><time>2026-04-11T04:30:00Z</time></trkpt><trkpt lat="43.335603646255635" lon="11.469239420519582"><ele>258.0</ele><time>2026-04-11T04:30:01Z</time></trkpt><trkpt lat="43.3355651257945" lon="11.469153081465214"><ele>258.0</ele><time>2026-04-11T04:30:02Z</time></trkpt><trkpt lat="43.335523631701086" lon="11.469068328001297"><ele>258.0</ele><time>2026-04-11T04:30:03Z</time></trkpt><trkpt lat="43.33548276806425" lon="11.468980787266899"><ele>257.6666666666667</ele><time>2026-04-11T04:30:04Z</time></trkpt><trkpt lat="43.335436998987525" lon="11.468900583923423"><ele>257.3333333333333</ele><time>2026-04-11T04:30:05Z</time></trkpt><trkpt lat="43.335383187237426" lon="11.468825612679316"><ele>257.0</ele><time>2026-04-11T04:30:06Z</time></trkpt><trkpt lat="43.33531452022518" lon="11.468744130474775"><ele>256.66666666666663</ele><time>2026-04-11T04:30:07Z</time></trkpt><trkpt lat="43.33526477872328" lon="11.468641129488592"><ele>256.3333333333333</ele><time>2026-04-11T04:30:08Z</time></trkpt><trkpt lat="43.33520444400761" lon="11.468551886357787"><ele>256.0</ele><time>2026-04-11T04:30:09Z</time></trkpt><trkpt lat="43.335131092357045" lon="11.46847488446678"><ele>256.0</ele><time>2026-04-11T04:30:10Z</time></trkpt><trkpt lat="43.33507289113047" lon="11.468378007063803"><ele>256.0</ele><time>2026-04-11T04:30:11Z</time></trkpt><trkpt lat="43.33502947537683" lon="11.468263567922813"><ele>256.0</ele><time>2026-04-11T04:30:12Z</time></trkpt><trkpt lat="43.33496648863093" lon="11.468171538248589"><ele>256.0</ele><time>2026-04-11T04:30:13Z</time></trkpt><trkpt lat="43.33491611703748" lon="11.46805765187697"><ele>256.0</ele><time>2026-04-11T04:30:14Z</time></trkpt><trkpt lat="43.33487162008967" lon="11.467936383631946"><ele>256.2</ele><time>2026-04-11T04:30:15Z</time></trkpt><trkpt lat="43.33483574459226" lon="11.467813001936543"><ele>256.40000000000003</ele><time>2026-04-11T04:30:16Z</time></trkpt><trkpt lat="43.33482253789746" lon="11.4676807844714"><ele>256.6</ele><time>2026-04-11T04:30:17Z</time></trkpt><trkpt lat="43.33480499476669" lon="11.467548462608962"><ele>256.8</ele><time>2026-04-11T04:30:18Z</time></trkpt><trkpt lat="43.3347830729412" lon="11.4674362397133"><ele>257.0</ele><time>2026-04-11T04:30:19Z</time></trkpt><trkpt lat="43.33477422488341" lon="11.467333390758503"><ele>257.0</ele><time>2026-04-11T04:30:20Z</time></trkpt><trkpt lat="43.33476275698627" lon="11.467227767519079"><ele>257.0</ele><time>2026-04-11T04:30:21Z</time></trkpt><trkpt lat="43.334748271331804" lon="11.467113202178911"><ele>257.0</ele><time>2026-04-11T04:30:22Z</time></trkpt><trkpt lat="43.334734505611316" lon="11.466989566754938"><ele>257.0</ele><time>2026-04-11T04:30:23Z</time></trkpt><trkpt lat="43.334724242055415" lon="11.466859017766042"><ele>257.0</ele><time>2026-04-11T04:30:24Z</time></trkpt><trkpt lat="43.334716038180666" lon="11.46672048632759"><ele>255.39999999999998</ele><time>2026-04-11T04:30:25Z</time></trkpt><trkpt lat="43.3347117951628" lon="11.466581674925237"><ele>253.79999999999998</ele><time>2026-04-11T04:30:26Z</time></trkpt><trkpt lat="43.334726239876815" lon="11.466441173131804"><ele>252.2</ele><time>2026-04-11T04:30:27Z</time></trkpt><trkpt lat="43.33475473624148" lon="11.46631274559453"><ele>250.6</ele><time>2026-04-11T04:30:28Z</time></trkpt><trkpt lat="43.33478107337489" lon="11.466177721883556"><ele>249.0</ele><time>2026-04-11T04:30:29Z</time></trkpt><trkpt lat="43.33481387989169" lon="11.466048136680977"><ele>248.39999999999998</ele><time>2026-04-11T04:30:30Z</time></trkpt><trkpt lat="43.334836587974856" lon="11.465915609216664"><ele>247.79999999999998</ele><time>2026-04-11T04:30:31Z</time></trkpt><trkpt lat="43.334875186155415" lon="11.465792339151392"><ele>247.20000000000002</ele><time>2026-04-11T04:30:32Z</time></trkpt><trkpt lat="43.33491359568374" lon="11.465668309881348"><ele>246.60000000000002</ele><time>2026-04-11T04:30:33Z</time></trkpt><trkpt lat="43.33494759906387" lon="11.465546933092345"><ele>246.0</ele><time>2026-04-11T04:30:34Z</time></trkpt><trkpt lat="43.33498113431758" lon="11.465424550552312"><ele>245.8</ele><time>2026-04-11T04:30:35Z</time></trkpt><trkpt lat="43.33501619000377" lon="11.465300824939446"><ele>245.60000000000002</ele><time>2026-04-11T04:30:36Z</time></trkpt><trkpt lat="43.33504529291166" lon="11.465182569882286"><ele>245.4</ele><time>2026-04-11T04:30:37Z</time></trkpt><trkpt lat="43.33507486406081" lon="11.465062303959428"><ele>245.2</ele><time>2026-04-11T04:30:38Z</time></trkpt><trkpt lat="43.33510387288361" lon="11.464941251286222"><ele>245.0</ele><time>2026-04-11T04:30:39Z</time></trkpt><trkpt lat="43.3351345736513" lon="11.464820448157774"><ele>245.00000000000003</ele><time>2026-04-11T04:30:40Z</time></trkpt><trkpt lat="43.33516733461381" lon="11.464700494615915"><ele>245.0</ele><time>2026-04-11T04:30:41Z</time></trkpt><trkpt lat="43.335199072962084" lon="11.464583909147983"><ele>245.0</ele><time>2026-04-11T04:30:42Z</time></trkpt><trkpt lat="43.33523555534878" lon="11.464471411714683"><ele>245.0</ele><time>2026-04-11T04:30:43Z</time></trkpt><trkpt lat="43.33526462425572" lon="11.464363915417044"><ele>245.00000000000003</ele><time>2026-04-11T04:30:44Z</time></trkpt><trkpt lat="43.33529579434533" lon="11.464254798242797"><ele>245.0</ele><time>2026-04-11T04:30:45Z</time></trkpt><trkpt lat="43.335322253904344" lon="11.4641472818125"><ele>244.33333333333334</ele><time>2026-04-11T04:30:46Z</time></trkpt><trkpt lat="43.33535516901146" lon="11.464041485654386"><ele>243.66666666666669</ele><time>2026-04-11T04:30:47Z</time></trkpt><trkpt lat="43.3353901860813" lon="11.463936742265405"><ele>243.0</ele><time>2026-04-11T04:30:48Z</time></trkpt><trkpt lat="43.33542085369022" lon="11.46383358339092"><ele>242.33333333333331</ele><time>2026-04-11T04:30:49Z</time></trkpt><trkpt lat="43.335457229899454" lon="11.463734128022924"><ele>241.66666666666666</ele><time>2026-04-11T04:30:50Z</time></trkpt><trkpt lat="43.335493282687786" lon="11.463634202202195"><ele>241.0</ele><time>2026-04-11T04:30:51Z</time></trkpt><trkpt lat="43.33553262853118" lon="11.463538470588093"><ele>240.2857142857143</ele><time>2026-04-11T04:30:52Z</time></trkpt><trkpt lat="43.335574284180915" lon="11.46345259199459"><ele>239.5714285714286</ele><time>2026-04-11T04:30:53Z</time></trkpt><trkpt lat="43.33560576550429" lon="11.463368723077107"><ele>238.85714285714286</ele><time>2026-04-11T04:30:54Z</time></trkpt><trkpt lat="43.3356393181352" lon="11.46329289911461"><ele>238.14285714285717</ele><time>2026-04-11T04:30:55Z</time></trkpt><trkpt lat="43.33567175060713" lon="11.463210315632017"><ele>237.42857142857144</ele><time>2026-04-11T04:30:56Z</time></trkpt><trkpt lat="43.335702096763995" lon="11.46313212755341"><ele>236.71428571428572</ele><time>2026-04-11T04:30:57Z</time></trkpt><trkpt lat="43.33571973265583" lon="11.463047894068968"><ele>236.0</ele><time>2026-04-11T04:30:58Z</time></trkpt><trkpt lat="43.33576739767916" lon="11.462876118114314"><ele>237.83333333333334</ele><time>2026-04-11T04:31:00Z</time></trkpt><trkpt lat="43.335810863770256" lon="11.462795082355514"><ele>239.66666666666669</ele><time>2026-04-11T04:31:01Z</time></trkpt><trkpt lat="43.33585005902448" lon="11.462687911820826"><ele>241.5</ele><time>2026-04-11T04:31:03Z</time></trkpt><trkpt lat="43.33588243255347" lon="11.462568431536853"><ele>243.33333333333331</ele><time>2026-04-11T04:31:05Z</time></trkpt><trkpt lat="43.33590850855932" lon="11.462464993732938"><ele>245.16666666666666</ele><time>2026-04-11T04:31:07Z</time></trkpt><trkpt lat="43.33592133783119" lon="11.462374899270966"><ele>247.0</ele><time>2026-04-11T04:31:09Z</time></trkpt><trkpt lat="43.3359361263276" lon="11.46225265350477"><ele>246.99999999999997</ele><time>2026-04-11T04:31:12Z</time></trkpt><trkpt lat="43.33594310323658" lon="11.462143512964044"><ele>247.0</ele><time>2026-04-11T04:31:14Z</time></trkpt><trkpt lat="43.33595534633907" lon="11.46197774931362"><ele>247.0</ele><time>2026-04-11T04:31:16Z</time></trkpt><trkpt lat="43.33596101905269" lon="11.461882786364262"><ele>247.0</ele><time>2026-04-11T04:31:17Z</time></trkpt><trkpt lat="43.33596436070979" lon="11.461776940306915"><ele>246.99999999999997</ele><time>2026-04-11T04:31:18Z</time></trkpt><trkpt lat="43.33596650744683" lon="11.461669323358846"><ele>247.0</ele><time>2026-04-11T04:31:19Z</time></trkpt><trkpt lat="43.33596754756776" lon="11.461556781697594"><ele>247.33333333333331</ele><time>2026-04-11T04:31:20Z</time></trkpt><trkpt lat="43.33597052671085" lon="11.46143665785471"><ele>247.66666666666666</ele><time>2026-04-11T04:31:21Z</time></trkpt><trkpt lat="43.33597525753915" lon="11.46131879575225"><ele>248.0</ele><time>2026-04-11T04:31:22Z</time></trkpt><trkpt lat="43.33597541144553" lon="11.461199382172182"><ele>248.33333333333331</ele><time>2026-04-11T04:31:23Z</time></trkpt><trkpt lat="43.33597856150483" lon="11.461081193721112"><ele>248.66666666666666</ele><time>2026-04-11T04:31:24Z</time></trkpt><trkpt lat="43.33598052838545" lon="11.460970897844279"><ele>249.0</ele><time>2026-04-11T04:31:25Z</time></trkpt><trkpt lat="43.335992163314636" lon="11.460861061291505"><ele>248.33333333333334</ele><time>2026-04-11T04:31:26Z</time></trkpt><trkpt lat="43.335996367165876" lon="11.460756572202358"><ele>247.66666666666669</ele><time>2026-04-11T04:31:27Z</time></trkpt><trkpt lat="43.33600620154507" lon="11.460648240773684"><ele>247.0</ele><time>2026-04-11T04:31:28Z</time></trkpt><trkpt lat="43.33601497492866" lon="11.460547383450482"><ele>246.33333333333334</ele><time>2026-04-11T04:31:29Z</time></trkpt><trkpt lat="43.336031037076715" lon="11.460443296584984"><ele>245.66666666666669</ele><time>2026-04-11T04:31:30Z</time></trkpt><trkpt lat="43.33604929349219" lon="11.46033408289834"><ele>245.0</ele><time>2026-04-11T04:31:31Z</time></trkpt><trkpt lat="43.336061492240056" lon="11.460219014009764"><ele>244.50000000000003</ele><time>2026-04-11T04:31:32Z</time></trkpt><trkpt lat="43.33607329418603" lon="11.460101218681968"><ele>244.0</ele><time>2026-04-11T04:31:33Z</time></trkpt><trkpt lat="43.336092739698124" lon="11.45998009186094"><ele>243.5</ele><time>2026-04-11T04:31:34Z</time></trkpt><trkpt lat="43.336105334741944" lon="11.459855281863852"><ele>243.0</ele><time>2026-04-11T04:31:35Z</time></trkpt><trkpt lat="43.33610649907913" lon="11.459731233064824"><ele>242.50000000000003</ele><time>2026-04-11T04:31:36Z</time></trkpt><trkpt lat="43.33610642221623" lon="11.45960853009277"><ele>242.0</ele><time>2026-04-11T04:31:37Z</time></trkpt><trkpt lat="43.33610333594748" lon="11.459485737395905"><ele>242.00000000000003</ele><time>2026-04-11T04:31:38Z</time></trkpt><trkpt lat="43.3360894144401" lon="11.45936728714886"><ele>242.0</ele><time>2026-04-11T04:31:39Z</time></trkpt><trkpt lat="43.33609646667728" lon="11.45923560848298"><ele>242.0</ele><time>2026-04-11T04:31:40Z</time></trkpt><trkpt lat="43.336063570457796" lon="11.459134648272618"><ele>242.0</ele><time>2026-04-11T04:31:41Z</time></trkpt><trkpt lat="43.33602461040184" lon="11.45903346727251"><ele>242.00000000000003</ele><time>2026-04-11T04:31:42Z</time></trkpt><trkpt lat="43.33600793925364" lon="11.458927515492572"><ele>242.0</ele><time>2026-04-11T04:31:43Z</time></trkpt><trkpt lat="43.33601059830769" lon="11.458812381015893"><ele>242.00000000000003</ele><time>2026-04-11T04:31:44Z</time></trkpt><trkpt lat="43.33604114834894" lon="11.458704953536452"><ele>242.0</ele><time>2026-04-11T04:31:45Z</time></trkpt><trkpt lat="43.336079376532155" lon="11.458603228686874"><ele>242.0</ele><time>2026-04-11T04:31:46Z</time></trkpt><trkpt lat="43.33610960157064" lon="11.458502221500986"><ele>242.0</ele><time>2026-04-11T04:31:47Z</time></trkpt><trkpt lat="43.336149819638706" lon="11.458414957701079"><ele>242.00000000000003</ele><time>2026-04-11T04:31:48Z</time></trkpt><trkpt lat="43.33618012551908" lon="11.458323895435235"><ele>242.0</ele><time>2026-04-11T04:31:49Z</time></trkpt><trkpt lat="43.33620030987883" lon="11.45823433334886"><ele>242.00000000000003</ele><time>2026-04-11T04:31:50Z</time></trkpt><trkpt lat="43.33621335107482" lon="11.458146300024247"><ele>242.0</ele><time>2026-04-11T04:31:51Z</time></trkpt><trkpt lat="43.33622442430166" lon="11.458055238958918"><ele>242.0</ele><time>2026-04-11T04:31:52Z</time></trkpt><trkpt lat="43.336262669759265" lon="11.457885338732153"><ele>242.0</ele><time>2026-04-11T04:31:54Z</time></trkpt><trkpt lat="43.33627911543237" lon="11.45779144041246"><ele>242.00000000000003</ele><time>2026-04-11T04:31:55Z</time></trkpt><trkpt lat="43.3362834710169" lon="11.457690195246592"><ele>242.0</ele><time>2026-04-11T04:31:56Z</time></trkpt><trkpt lat="43.33630525863161" lon="11.457595783958181"><ele>242.00000000000003</ele><time>2026-04-11T04:31:57Z</time></trkpt><trkpt lat="43.336327282059266" lon="11.457502601089633"><ele>242.0</ele><time>2026-04-11T04:31:58Z</time></trkpt><trkpt lat="43.33634949245351" lon="11.457406444917849"><ele>242.0</ele><time>2026-04-11T04:31:59Z</time></trkpt><trkpt lat="43.336365983526775" lon="11.457303981165145"><ele>242.0</ele><time>2026-04-11T04:32:00Z</time></trkpt><trkpt lat="43.33638174518094" lon="11.457197981532962"><ele>242.00000000000003</ele><time>2026-04-11T04:32:01Z</time></trkpt><trkpt lat="43.33640258397519" lon="11.457097093805375"><ele>242.0</ele><time>2026-04-11T04:32:02Z</time></trkpt><trkpt lat="43.33639706241712" lon="11.456982167994424"><ele>241.00000000000003</ele><time>2026-04-11T04:32:03Z</time></trkpt><trkpt lat="43.336382890725204" lon="11.456866657458036"><ele>240.0</ele><time>2026-04-11T04:32:04Z</time></trkpt><trkpt lat="43.3363700852108" lon="11.456753022888554"><ele>239.0</ele><time>2026-04-11T04:32:05Z</time></trkpt><trkpt lat="43.33635652495561" lon="11.456639518117035"><ele>238.0</ele><time>2026-04-11T04:32:06Z</time></trkpt><trkpt lat="43.33634769012968" lon="11.456528503152539"><ele>237.00000000000003</ele><time>2026-04-11T04:32:07Z</time></trkpt><trkpt lat="43.33633725274041" lon="11.456415809072054"><ele>236.0</ele><time>2026-04-11T04:32:08Z</time></trkpt><trkpt lat="43.33633951933451" lon="11.456303023891095"><ele>235.83333333333334</ele><time>2026-04-11T04:32:09Z</time></trkpt><trkpt lat="43.336349996565" lon="11.456191130501706"><ele>235.66666666666669</ele><time>2026-04-11T04:32:10Z</time></trkpt><trkpt lat="43.33637532350526" lon="11.456085510296472"><ele>235.5</ele><time>2026-04-11T04:32:11Z</time></trkpt><trkpt lat="43.336403572599146" lon="11.455980958215662"><ele>235.33333333333331</ele><time>2026-04-11T04:32:12Z</time></trkpt><trkpt lat="43.33643957574872" lon="11.455875999402998"><ele>235.16666666666666</ele><time>2026-04-11T04:32:13Z</time></trkpt><trkpt lat="43.33647609341667" lon="11.45576766852875"><ele>235.0</ele><time>2026-04-11T04:32:14Z</time></trkpt><trkpt lat="43.33651078812416" lon="11.455659500017648"><ele>234.66666666666666</ele><time>2026-04-11T04:32:15Z</time></trkpt><trkpt lat="43.3365465416426" lon="11.455550091489851"><ele>234.33333333333331</ele><time>2026-04-11T04:32:16Z</time></trkpt><trkpt lat="43.33658211146344" lon="11.455441288579335"><ele>234.0</ele><time>2026-04-11T04:32:17Z</time></trkpt><trkpt lat="43.3366095349338" lon="11.455337236317956"><ele>233.66666666666669</ele><time>2026-04-11T04:32:18Z</time></trkpt><trkpt lat="43.33664979526777" lon="11.455233731133887"><ele>233.33333333333334</ele><time>2026-04-11T04:32:19Z</time></trkpt><trkpt lat="43.33668410052765" lon="11.455131628734996"><ele>233.0</ele><time>2026-04-11T04:32:20Z</time></trkpt><trkpt lat="43.33672110959858" lon="11.455019650939823"><ele>232.66666666666669</ele><time>2026-04-11T04:32:21Z</time></trkpt><trkpt lat="43.33675730685808" lon="11.454907931281392"><ele>232.33333333333334</ele><time>2026-04-11T04:32:22Z</time></trkpt><trkpt lat="43.33678808383533" lon="11.454800775006134"><ele>232.0</ele><time>2026-04-11T04:32:23Z</time></trkpt><trkpt lat="43.33681748549514" lon="11.454701015379495"><ele>231.66666666666669</ele><time>2026-04-11T04:32:24Z</time></trkpt><trkpt lat="43.336834975292284" lon="11.45459626344946"><ele>231.33333333333334</ele><time>2026-04-11T04:32:25Z</time></trkpt><trkpt lat="43.336837577556004" lon="11.454492389292003"><ele>231.0</ele><time>2026-04-11T04:32:26Z</time></trkpt><trkpt lat="43.336837599777276" lon="11.45439025686483"><ele>231.0</ele><time>2026-04-11T04:32:27Z</time></trkpt><trkpt lat="43.33684348580394" lon="11.454291398187948"><ele>231.0</ele><time>2026-04-11T04:32:28Z</time></trkpt><trkpt lat="43.336849636165944" lon="11.454193684380476"><ele>231.0</ele><time>2026-04-11T04:32:29Z</time></trkpt><trkpt lat="43.336857096198536" lon="11.454095123588552"><ele>231.0</ele><time>2026-04-11T04:32:30Z</time></trkpt><trkpt lat="43.33687194641615" lon="11.453998652470911"><ele>231.0</ele><time>2026-04-11T04:32:31Z</time></trkpt><trkpt lat="43.33687769601427" lon="11.453898010766562"><ele>231.0</ele><time>2026-04-11T04:32:32Z</time></trkpt><trkpt lat="43.336882867622585" lon="11.453797509379955"><ele>231.0</ele><time>2026-04-11T04:32:33Z</time></trkpt><trkpt lat="43.33688970382602" lon="11.453696179822558"><ele>231.0</ele><time>2026-04-11T04:32:34Z</time></trkpt><trkpt lat="43.33688800177977" lon="11.453596029663164"><ele>231.0</ele><time>2026-04-11T04:32:35Z</time></trkpt><trkpt lat="43.33688133512436" lon="11.45349355332196"><ele>231.0</ele><time>2026-04-11T04:32:36Z</time></trkpt><trkpt lat="43.336853330786646" lon="11.45338867103176"><ele>231.0</ele><time>2026-04-11T04:32:37Z</time></trkpt><trkpt lat="43.33681957511835" lon="11.453284794163876"><ele>231.0</ele><time>2026-04-11T04:32:38Z</time></trkpt><trkpt lat="43.33678554118188" lon="11.453178325530066"><ele>231.0</ele><time>2026-04-11T04:32:39Z</time></trkpt><trkpt lat="43.33674713759148" lon="11.453069077684379"><ele>231.0</ele><time>2026-04-11T04:32:40Z</time></trkpt><trkpt lat="43.33670459801198" lon="11.452960618471051"><ele>231.0</ele><time>2026-04-11T04:32:41Z</time></trkpt><trkpt lat="43.33666784478305" lon="11.452848078554068"><ele>231.0</ele><time>2026-04-11T04:32:42Z</time></trkpt><trkpt lat="43.33662198537193" lon="11.452741049797877"><ele>231.0</ele><time>2026-04-11T04:32:43Z</time></trkpt><trkpt lat="43.33657540874757" lon="11.452637022884852"><ele>231.0</ele><time>2026-04-11T04:32:44Z</time></trkpt><trkpt lat="43.33653215702547" lon="11.45252967926071"><ele>231.0</ele><time>2026-04-11T04:32:45Z</time></trkpt><trkpt lat="43.336492924356044" lon="11.452419837963268"><ele>230.60000000000002</ele><time>2026-04-11T04:32:46Z</time></trkpt><trkpt lat="43.3364489727166" lon="11.452310094181618"><ele>230.20000000000002</ele><time>2026-04-11T04:32:47Z</time></trkpt><trkpt lat="43.336400406325076" lon="11.452198970334418"><ele>229.79999999999998</ele><time>2026-04-11T04:32:48Z</time></trkpt><trkpt lat="43.33635523906475" lon="11.452076974630579"><ele>229.39999999999998</ele><time>2026-04-11T04:32:49Z</time></trkpt><trkpt lat="43.336309003533046" lon="11.45195228605531"><ele>229.0</ele><time>2026-04-11T04:32:50Z</time></trkpt><trkpt lat="43.336261321517284" lon="11.451829251517578"><ele>227.39999999999998</ele><time>2026-04-11T04:32:51Z</time></trkpt><trkpt lat="43.33620955979576" lon="11.451704453942568"><ele>225.79999999999998</ele><time>2026-04-11T04:32:52Z</time></trkpt><trkpt lat="43.33615861476717" lon="11.451574835939056"><ele>224.20000000000002</ele><time>2026-04-11T04:32:53Z</time></trkpt><trkpt lat="43.33610008991107" lon="11.451459310834325"><ele>222.60000000000002</ele><time>2026-04-11T04:32:54Z</time></trkpt><trkpt lat="43.336030419845315" lon="11.45133808990014"><ele>221.0</ele><time>2026-04-11T04:32:55Z</time></trkpt><trkpt lat="43.33595433120214" lon="11.451234891326584"><ele>220.8</ele><time>2026-04-11T04:32:56Z</time></trkpt><trkpt lat="43.3358616030345" lon="11.451151003169413"><ele>220.60000000000002</ele><time>2026-04-11T04:32:57Z</time></trkpt><trkpt lat="43.33575569935875" lon="11.451084357440642"><ele>220.4</ele><time>2026-04-11T04:32:58Z</time></trkpt><trkpt lat="43.33565575872247" lon="11.451031028550245"><ele>220.2</ele><time>2026-04-11T04:32:59Z</time></trkpt><trkpt lat="43.33556413194766" lon="11.450975568307392"><ele>220.0</ele><time>2026-04-11T04:33:00Z</time></trkpt><trkpt lat="43.33549439245751" lon="11.45090707496811"><ele>218.66666666666666</ele><time>2026-04-11T04:33:01Z</time></trkpt><trkpt lat="43.3354503945757" lon="11.450831173599392"><ele>217.33333333333331</ele><time>2026-04-11T04:33:02Z</time></trkpt><trkpt lat="43.33542803913627" lon="11.450735230445721"><ele>216.0</ele><time>2026-04-11T04:33:03Z</time></trkpt><trkpt lat="43.335435138818276" lon="11.450628904959085"><ele>214.66666666666669</ele><time>2026-04-11T04:33:04Z</time></trkpt><trkpt lat="43.33547883485046" lon="11.450526020451681"><ele>213.33333333333334</ele><time>2026-04-11T04:33:05Z</time></trkpt><trkpt lat="43.335532284595075" lon="11.450433316158254"><ele>212.0</ele><time>2026-04-11T04:33:06Z</time></trkpt><trkpt lat="43.33559227393674" lon="11.450337327712589"><ele>212.0</ele><time>2026-04-11T04:33:07Z</time></trkpt><trkpt lat="43.33565840873305" lon="11.450240019832657"><ele>212.0</ele><time>2026-04-11T04:33:08Z</time></trkpt><trkpt lat="43.335727140242646" lon="11.45014418596772"><ele>212.0</ele><time>2026-04-11T04:33:09Z</time></trkpt><trkpt lat="43.33579383821124" lon="11.450048187374113"><ele>212.0</ele><time>2026-04-11T04:33:10Z</time></trkpt><trkpt lat="43.33587473027872" lon="11.449989040611461"><ele>212.0</ele><time>2026-04-11T04:33:11Z</time></trkpt><trkpt lat="43.33595380448563" lon="11.449933592875176"><ele>212.00000000000003</ele><time>2026-04-11T04:33:12Z</time></trkpt><trkpt lat="43.33603468324338" lon="11.44990885899926"><ele>212.0</ele><time>2026-04-11T04:33:13Z</time></trkpt><trkpt lat="43.33610889533205" lon="11.449928905323054"><ele>212.0</ele><time>2026-04-11T04:33:14Z</time></trkpt><trkpt lat="43.33618178444175" lon="11.449935012708885"><ele>212.0</ele><time>2026-04-11T04:33:15Z</time></trkpt><trkpt lat="43.336252291673844" lon="11.449918652250247"><ele>212.00000000000003</ele><time>2026-04-11T04:33:16Z</time></trkpt><trkpt lat="43.33632934979972" lon="11.449924326577412"><ele>212.0</ele><time>2026-04-11T04:33:17Z</time></trkpt><trkpt lat="43.33641024764368" lon="11.449847305955991"><ele>211.6</ele><time>2026-04-11T04:33:18Z</time></trkpt><trkpt lat="43.33643228681349" lon="11.449677849897766"><ele>211.2</ele><time>2026-04-11T04:33:19Z</time></trkpt><trkpt lat="43.33645477661468" lon="11.449552031038253"><ele>210.8</ele><time>2026-04-11T04:33:20Z</time></trkpt><trkpt lat="43.33646604456322" lon="11.44942991208517"><ele>210.4</ele><time>2026-04-11T04:33:21Z</time></trkpt><trkpt lat="43.33647034135338" lon="11.449323560356067"><ele>210.0</ele><time>2026-04-11T04:33:22Z</time></trkpt><trkpt lat="43.33650017057691" lon="11.449208813517226"><ele>210.0</ele><time>2026-04-11T04:33:23Z</time></trkpt><trkpt lat="43.33649461333623" lon="11.449089558025603"><ele>210.0</ele><time>2026-04-11T04:33:24Z</time></trkpt><trkpt lat="43.33651139707046" lon="11.4489746563313"><ele>210.0</ele><time>2026-04-11T04:33:25Z</time></trkpt><trkpt lat="43.33647425284157" lon="11.448851884724993"><ele>210.0</ele><time>2026-04-11T04:33:26Z</time></trkpt><trkpt lat="43.33644635822969" lon="11.448732309766429"><ele>210.0</ele><time>2026-04-11T04:33:27Z</time></trkpt><trkpt lat="43.336395671079984" lon="11.448626662557976"><ele>209.5</ele><time>2026-04-11T04:33:28Z</time></trkpt><trkpt lat="43.33633993316766" lon="11.448525826231498"><ele>209.0</ele><time>2026-04-11T04:33:29Z</time></trkpt><trkpt lat="43.33628980925369" lon="11.448424671367029"><ele>208.5</ele><time>2026-04-11T04:33:30Z</time></trkpt><trkpt lat="43.33624660354368" lon="11.448329287183515"><ele>208.0</ele><time>2026-04-11T04:33:31Z</time></trkpt><trkpt lat="43.33620293245305" lon="11.448243299024192"><ele>207.5</ele><time>2026-04-11T04:33:32Z</time></trkpt><trkpt lat="43.336161202148126" lon="11.448156848696328"><ele>207.0</ele><time>2026-04-11T04:33:33Z</time></trkpt><trkpt lat="43.336126356060724" lon="11.448061818843462"><ele>207.0</ele><time>2026-04-11T04:33:34Z</time></trkpt><trkpt lat="43.33612526948453" lon="11.447951925112463"><ele>207.0</ele><time>2026-04-11T04:33:35Z</time></trkpt><trkpt lat="43.33617673014846" lon="11.447846212940409"><ele>207.0</ele><time>2026-04-11T04:33:36Z</time></trkpt><trkpt lat="43.33621935850442" lon="11.447742802680063"><ele>207.0</ele><time>2026-04-11T04:33:37Z</time></trkpt><trkpt lat="43.33625971436216" lon="11.447635555062027"><ele>207.0</ele><time>2026-04-11T04:33:38Z</time></trkpt><trkpt lat="43.33630395558169" lon="11.447539770807523"><ele>207.0</ele><time>2026-04-11T04:33:39Z</time></trkpt><trkpt lat="43.33636476604376" lon="11.447456476984554"><ele>207.16666666666666</ele><time>2026-04-11T04:33:40Z</time></trkpt><trkpt lat="43.33639494857705" lon="11.447343075465001"><ele>207.33333333333331</ele><time>2026-04-11T04:33:41Z</time></trkpt><trkpt lat="43.336429414666355" lon="11.447241957410384"><ele>207.5</ele><time>2026-04-11T04:33:42Z</time></trkpt><trkpt lat="43.3364606594445" lon="11.447131852648473"><ele>207.66666666666666</ele><time>2026-04-11T04:33:43Z</time></trkpt><trkpt lat="43.33647550933753" lon="11.447025627805338"><ele>207.83333333333331</ele><time>2026-04-11T04:33:44Z</time></trkpt><trkpt lat="43.33648781871546" lon="11.446920762844863"><ele>208.0</ele><time>2026-04-11T04:33:45Z</time></trkpt><trkpt lat="43.33648309097511" lon="11.446817612237945"><ele>208.0</ele><time>2026-04-11T04:33:46Z</time></trkpt><trkpt lat="43.336475360810574" lon="11.446722060818804"><ele>208.0</ele><time>2026-04-11T04:33:47Z</time></trkpt><trkpt lat="43.3364581147304" lon="11.446634371854227"><ele>208.0</ele><time>2026-04-11T04:33:48Z</time></trkpt><trkpt lat="43.33641583855847" lon="11.446489491200584"><ele>208.0</ele><time>2026-04-11T04:33:50Z</time></trkpt><trkpt lat="43.33638153571299" lon="11.446348458640154"><ele>208.0</ele><time>2026-04-11T04:33:52Z</time></trkpt><trkpt lat="43.3363507484149" lon="11.446209308812536"><ele>209.2</ele><time>2026-04-11T04:33:54Z</time></trkpt><trkpt lat="43.336314070645614" lon="11.446068996148789"><ele>210.4</ele><time>2026-04-11T04:33:56Z</time></trkpt><trkpt lat="43.33628098008551" lon="11.445930486417712"><ele>211.59999999999997</ele><time>2026-04-11T04:33:58Z</time></trkpt><trkpt lat="43.336249735979635" lon="11.445827042034395"><ele>212.79999999999998</ele><time>2026-04-11T04:34:01Z</time></trkpt><trkpt lat="43.33623762534076" lon="11.445713965635846"><ele>214.0</ele><time>2026-04-11T04:34:04Z</time></trkpt><trkpt lat="43.336206288667626" lon="11.445613744172613"><ele>213.99999999999997</ele><time>2026-04-11T04:34:07Z</time></trkpt><trkpt lat="43.33614501882101" lon="11.445536920446932"><ele>214.0</ele><time>2026-04-11T04:34:10Z</time></trkpt><trkpt lat="43.3361089126382" lon="11.445432227229785"><ele>214.0</ele><time>2026-04-11T04:34:13Z</time></trkpt><trkpt lat="43.33607169975202" lon="11.445336755897305"><ele>214.0</ele><time>2026-04-11T04:34:16Z</time></trkpt><trkpt lat="43.33602888977701" lon="11.445230992383078"><ele>213.99999999999997</ele><time>2026-04-11T04:34:19Z</time></trkpt><trkpt lat="43.335980123296494" lon="11.445130042453473"><ele>214.0</ele><time>2026-04-11T04:34:22Z</time></trkpt><trkpt lat="43.3359253696788" lon="11.445050500926309"><ele>215.16666666666666</ele><time>2026-04-11T04:34:25Z</time></trkpt><trkpt lat="43.33586393866333" lon="11.44496506970792"><ele>216.33333333333331</ele><time>2026-04-11T04:34:28Z</time></trkpt><trkpt lat="43.335814818537564" lon="11.444894923744268"><ele>217.5</ele><time>2026-04-11T04:34:31Z</time></trkpt><trkpt lat="43.33577762633607" lon="11.44480186983825"><ele>218.66666666666669</ele><time>2026-04-11T04:34:34Z</time></trkpt><trkpt lat="43.335730429691765" lon="11.444743602690718"><ele>219.83333333333334</ele><time>2026-04-11T04:34:36Z</time></trkpt><trkpt lat="43.33569581512672" lon="11.444666452851363"><ele>221.0</ele><time>2026-04-11T04:34:38Z</time></trkpt><trkpt lat="43.33564750176323" lon="11.444559422326899"><ele>221.16666666666669</ele><time>2026-04-11T04:34:40Z</time></trkpt><trkpt lat="43.33560345301721" lon="11.444455383807117"><ele>221.33333333333334</ele><time>2026-04-11T04:34:42Z</time></trkpt><trkpt lat="43.33555481422963" lon="11.444366832240163"><ele>221.5</ele><time>2026-04-11T04:34:45Z</time></trkpt><trkpt lat="43.33552234641531" lon="11.444291464580914"><ele>221.66666666666669</ele><time>2026-04-11T04:34:47Z</time></trkpt><trkpt lat="43.33549004553785" lon="11.444198130506487"><ele>221.83333333333334</ele><time>2026-04-11T04:34:50Z</time></trkpt><trkpt lat="43.33543510637609" lon="11.444110381517415"><ele>222.0</ele><time>2026-04-11T04:34:53Z</time></trkpt><trkpt lat="43.33537400769141" lon="11.443998710392984"><ele>222.0</ele><time>2026-04-11T04:34:56Z</time></trkpt><trkpt lat="43.33532116479906" lon="11.44389015902051"><ele>222.0</ele><time>2026-04-11T04:34:59Z</time></trkpt><trkpt lat="43.33528399429944" lon="11.44381017734526"><ele>222.0</ele><time>2026-04-11T04:35:02Z</time></trkpt><trkpt lat="43.335246715089475" lon="11.443727267257652"><ele>222.0</ele><time>2026-04-11T04:35:05Z</time></trkpt><trkpt lat="43.33520895060722" lon="11.443628288129364"><ele>222.0</ele><time>2026-04-11T04:35:08Z</time></trkpt><trkpt lat="43.33518514939376" lon="11.443544639220695"><ele>222.0</ele><time>2026-04-11T04:35:10Z</time></trkpt><trkpt lat="43.33516554923862" lon="11.44344421727495"><ele>221.83333333333334</ele><time>2026-04-11T04:35:11Z</time></trkpt><trkpt lat="43.335155005008374" lon="11.443306701238907"><ele>221.66666666666669</ele><time>2026-04-11T04:35:13Z</time></trkpt><trkpt lat="43.33514001738046" lon="11.443146280525132"><ele>221.5</ele><time>2026-04-11T04:35:15Z</time></trkpt><trkpt lat="43.335145435388526" lon="11.443047742469414"><ele>221.33333333333334</ele><time>2026-04-11T04:35:16Z</time></trkpt><trkpt lat="43.33515493264146" lon="11.442949470662988"><ele>221.16666666666669</ele><time>2026-04-11T04:35:17Z</time></trkpt><trkpt lat="43.33517941325682" lon="11.442852538484077"><ele>221.0</ele><time>2026-04-11T04:35:18Z</time></trkpt><trkpt lat="43.335202764944725" lon="11.442740514817215"><ele>219.50000000000003</ele><time>2026-04-11T04:35:19Z</time></trkpt><trkpt lat="43.3352290065745" lon="11.442628691112924"><ele>218.0</ele><time>2026-04-11T04:35:20Z</time></trkpt><trkpt lat="43.335250120889484" lon="11.44251207398524"><ele>216.5</ele><time>2026-04-11T04:35:21Z</time></trkpt><trkpt lat="43.33527945275787" lon="11.442393298702436"><ele>215.0</ele><time>2026-04-11T04:35:22Z</time></trkpt><trkpt lat="43.33529952800075" lon="11.44227029171314"><ele>213.50000000000003</ele><time>2026-04-11T04:35:23Z</time></trkpt><trkpt lat="43.33531442458176" lon="11.442145671395624"><ele>212.0</ele><time>2026-04-11T04:35:24Z</time></trkpt><trkpt lat="43.33531877427562" lon="11.44202292750575"><ele>212.00000000000003</ele><time>2026-04-11T04:35:25Z</time></trkpt><trkpt lat="43.3353088234275" lon="11.441906099961612"><ele>212.0</ele><time>2026-04-11T04:35:26Z</time></trkpt><trkpt lat="43.33529782717474" lon="11.441789150507644"><ele>212.0</ele><time>2026-04-11T04:35:27Z</time></trkpt><trkpt lat="43.335257022099576" lon="11.441687936853226"><ele>212.0</ele><time>2026-04-11T04:35:28Z</time></trkpt><trkpt lat="43.335214000982795" lon="11.441601428497462"><ele>212.00000000000003</ele><time>2026-04-11T04:35:29Z</time></trkpt><trkpt lat="43.33519451998565" lon="11.441508896435854"><ele>212.0</ele><time>2026-04-11T04:35:30Z</time></trkpt><trkpt lat="43.33515497337024" lon="11.441427630315994"><ele>213.39999999999998</ele><time>2026-04-11T04:35:31Z</time></trkpt><trkpt lat="43.3351251171985" lon="11.441269601030449"><ele>214.79999999999998</ele><time>2026-04-11T04:35:33Z</time></trkpt><trkpt lat="43.335125749643694" lon="11.441125458509372"><ele>216.2</ele><time>2026-04-11T04:35:35Z</time></trkpt><trkpt lat="43.33513649468726" lon="11.441012914503451"><ele>217.6</ele><time>2026-04-11T04:35:37Z</time></trkpt><trkpt lat="43.33515320443024" lon="11.440913817382441"><ele>219.0</ele><time>2026-04-11T04:35:39Z</time></trkpt><trkpt lat="43.33513772034732" lon="11.440820147674719"><ele>219.0</ele><time>2026-04-11T04:35:41Z</time></trkpt><trkpt lat="43.33514841069094" lon="11.440726857523021"><ele>219.0</ele><time>2026-04-11T04:35:43Z</time></trkpt><trkpt lat="43.3351018124687" lon="11.440596908282734"><ele>219.0</ele><time>2026-04-11T04:35:46Z</time></trkpt><trkpt lat="43.33507438476916" lon="11.440507449793637"><ele>219.0</ele><time>2026-04-11T04:35:48Z</time></trkpt><trkpt lat="43.33506366450234" lon="11.440403223827145"><ele>219.0</ele><time>2026-04-11T04:35:50Z</time></trkpt><trkpt lat="43.33504221233762" lon="11.44031265136722"><ele>219.0</ele><time>2026-04-11T04:35:52Z</time></trkpt><trkpt lat="43.33500746118409" lon="11.440229165353774"><ele>219.71428571428572</ele><time>2026-04-11T04:35:55Z</time></trkpt><trkpt lat="43.33501423966459" lon="11.440136144242532"><ele>220.42857142857142</ele><time>2026-04-11T04:35:59Z</time></trkpt><trkpt lat="43.334965159391366" lon="11.440062402120766"><ele>221.14285714285714</ele><time>2026-04-11T04:36:07Z</time></trkpt><trkpt lat="43.33496766116352" lon="11.439974925157403"><ele>221.85714285714286</ele><time>2026-04-11T04:36:11Z</time></trkpt><trkpt lat="43.33494660535904" lon="11.439888793593962"><ele>222.57142857142856</ele><time>2026-04-11T04:36:15Z</time></trkpt><trkpt lat="43.33490473526572" lon="11.439812142547286"><ele>223.28571428571428</ele><time>2026-04-11T04:36:19Z</time></trkpt><trkpt lat="43.33486121661036" lon="11.439722871402667"><ele>224.0</ele><time>2026-04-11T04:36:24Z</time></trkpt><trkpt lat="43.334838131877994" lon="11.439627473741696"><ele>224.0</ele><time>2026-04-11T04:36:29Z</time></trkpt><trkpt lat="43.33478092738716" lon="11.439578009947217"><ele>224.0</ele><time>2026-04-11T04:36:32Z</time></trkpt><trkpt lat="43.33475503193551" lon="11.439473942577912"><ele>224.0</ele><time>2026-04-11T04:36:36Z</time></trkpt><trkpt lat="43.334708119028164" lon="11.43940465333539"><ele>224.0</ele><time>2026-04-11T04:36:40Z</time></trkpt><trkpt lat="43.33466551742687" lon="11.439310406075506"><ele>224.0</ele><time>2026-04-11T04:36:44Z</time></trkpt><trkpt lat="43.33461796572856" lon="11.439236065969954"><ele>224.0</ele><time>2026-04-11T04:36:47Z</time></trkpt><trkpt lat="43.33458140874788" lon="11.439158449720878"><ele>224.0</ele><time>2026-04-11T04:36:50Z</time></trkpt><trkpt lat="43.33453909386771" lon="11.43906814481594"><ele>225.33333333333334</ele><time>2026-04-11T04:36:54Z</time></trkpt><trkpt lat="43.33449552033387" lon="11.438987400582285"><ele>226.66666666666669</ele><time>2026-04-11T04:36:59Z</time></trkpt><trkpt lat="43.33443422176415" lon="11.438918698120647"><ele>228.0</ele><time>2026-04-11T04:37:04Z</time></trkpt><trkpt lat="43.33437860091054" lon="11.43885526007267"><ele>229.33333333333331</ele><time>2026-04-11T04:37:07Z</time></trkpt><trkpt lat="43.33429556947288" lon="11.43879224995196"><ele>230.66666666666666</ele><time>2026-04-11T04:37:11Z</time></trkpt><trkpt lat="43.33422189502035" lon="11.438739638219495"><ele>232.0</ele><time>2026-04-11T04:37:14Z</time></trkpt><trkpt lat="43.334138295590506" lon="11.438706384914537"><ele>231.99999999999997</ele><time>2026-04-11T04:37:17Z</time></trkpt><trkpt lat="43.33406094281289" lon="11.43865778836723"><ele>232.0</ele><time>2026-04-11T04:37:20Z</time></trkpt><trkpt lat="43.33399927702328" lon="11.438616155044075"><ele>232.0</ele><time>2026-04-11T04:37:22Z</time></trkpt><trkpt lat="43.33394529877865" lon="11.43855685272289"><ele>232.0</ele><time>2026-04-11T04:37:24Z</time></trkpt><trkpt lat="43.33389015556348" lon="11.43848958713756"><ele>231.99999999999997</ele><time>2026-04-11T04:37:27Z</time></trkpt><trkpt lat="43.33383087796234" lon="11.438398543251266"><ele>232.0</ele><time>2026-04-11T04:37:30Z</time></trkpt><trkpt lat="43.33377529524395" lon="11.438302896456376"><ele>232.66666666666666</ele><time>2026-04-11T04:37:33Z</time></trkpt><trkpt lat="43.33372888374128" lon="11.438200449991644"><ele>233.33333333333331</ele><time>2026-04-11T04:37:36Z</time></trkpt><trkpt lat="43.33370305536251" lon="11.438093306708447"><ele>234.0</ele><time>2026-04-11T04:37:39Z</time></trkpt><trkpt lat="43.33367948576784" lon="11.437979515371637"><ele>234.66666666666669</ele><time>2026-04-11T04:37:42Z</time></trkpt><trkpt lat="43.3336659826385" lon="11.43787455052536"><ele>235.33333333333334</ele><time>2026-04-11T04:37:45Z</time></trkpt><trkpt lat="43.3336593057491" lon="11.437764525896906"><ele>236.0</ele><time>2026-04-11T04:37:48Z</time></trkpt><trkpt lat="43.33365605868444" lon="11.43766125467653"><ele>236.66666666666669</ele><time>2026-04-11T04:37:51Z</time></trkpt><trkpt lat="43.33365986353356" lon="11.437556156791857"><ele>237.33333333333334</ele><time>2026-04-11T04:37:54Z</time></trkpt><trkpt lat="43.333653134344154" lon="11.43744955121818"><ele>238.0</ele><time>2026-04-11T04:37:57Z</time></trkpt><trkpt lat="43.33365654555249" lon="11.437343643372834"><ele>238.66666666666669</ele><time>2026-04-11T04:38:00Z</time></trkpt><trkpt lat="43.33364496195261" lon="11.437243148689737"><ele>239.33333333333334</ele><time>2026-04-11T04:38:03Z</time></trkpt><trkpt lat="43.33364975702861" lon="11.437134617526832"><ele>240.0</ele><time>2026-04-11T04:38:06Z</time></trkpt><trkpt lat="43.33363405874606" lon="11.437035815763535"><ele>240.5</ele><time>2026-04-11T04:38:09Z</time></trkpt><trkpt lat="43.33360959843523" lon="11.43691998125046"><ele>241.0</ele><time>2026-04-11T04:38:12Z</time></trkpt><trkpt lat="43.333588961424844" lon="11.436796900335048"><ele>241.5</ele><time>2026-04-11T04:38:15Z</time></trkpt><trkpt lat="43.33356927671926" lon="11.436710412027569"><ele>242.0</ele><time>2026-04-11T04:38:17Z</time></trkpt><trkpt lat="43.333545895423455" lon="11.436615288544038"><ele>242.5</ele><time>2026-04-11T04:38:19Z</time></trkpt><trkpt lat="43.333542307347756" lon="11.436523901093361"><ele>243.0</ele><time>2026-04-11T04:38:22Z</time></trkpt><trkpt lat="43.333547708760534" lon="11.436398670978686"><ele>242.8</ele><time>2026-04-11T04:38:23Z</time></trkpt><trkpt lat="43.33354265512786" lon="11.436260075379256"><ele>242.60000000000002</ele><time>2026-04-11T04:38:25Z</time></trkpt><trkpt lat="43.33352619735027" lon="11.436115208836325"><ele>242.39999999999998</ele><time>2026-04-11T04:38:27Z</time></trkpt><trkpt lat="43.33351668329132" lon="11.435974302134563"><ele>242.2</ele><time>2026-04-11T04:38:29Z</time></trkpt><trkpt lat="43.333514701440556" lon="11.435831039677117"><ele>242.0</ele><time>2026-04-11T04:38:31Z</time></trkpt><trkpt lat="43.33352506916756" lon="11.435695535635613"><ele>242.00000000000003</ele><time>2026-04-11T04:38:33Z</time></trkpt><trkpt lat="43.33354432137431" lon="11.435573208294366"><ele>242.0</ele><time>2026-04-11T04:38:35Z</time></trkpt><trkpt lat="43.333573068860254" lon="11.435460669066511"><ele>242.0</ele><time>2026-04-11T04:38:37Z</time></trkpt><trkpt lat="43.33359628597459" lon="11.435365861023392"><ele>242.0</ele><time>2026-04-11T04:38:39Z</time></trkpt><trkpt lat="43.333639942587624" lon="11.435262181192744"><ele>242.00000000000003</ele><time>2026-04-11T04:38:42Z</time></trkpt><trkpt lat="43.333681983695485" lon="11.435169264413249"><ele>242.0</ele><time>2026-04-11T04:38:44Z</time></trkpt><trkpt lat="43.333724856179586" lon="11.43505308066084"><ele>242.16666666666669</ele><time>2026-04-11T04:38:46Z</time></trkpt><trkpt lat="43.33375550559518" lon="11.434940501385524"><ele>242.33333333333334</ele><time>2026-04-11T04:38:48Z</time></trkpt><trkpt lat="43.33378223412446" lon="11.434831946231412"><ele>242.5</ele><time>2026-04-11T04:38:50Z</time></trkpt><trkpt lat="43.33380674324328" lon="11.43472553429302"><ele>242.66666666666669</ele><time>2026-04-11T04:38:52Z</time></trkpt><trkpt lat="43.3338315362759" lon="11.434617889520478"><ele>242.83333333333334</ele><time>2026-04-11T04:38:54Z</time></trkpt><trkpt lat="43.33385335771331" lon="11.434510537949489"><ele>243.0</ele><time>2026-04-11T04:38:56Z</time></trkpt><trkpt lat="43.33385590982337" lon="11.43439877471422"><ele>243.0</ele><time>2026-04-11T04:38:58Z</time></trkpt><trkpt lat="43.33387371538742" lon="11.434292797407215"><ele>243.0</ele><time>2026-04-11T04:39:00Z</time></trkpt><trkpt lat="43.33387361217679" lon="11.434188976580176"><ele>243.0</ele><time>2026-04-11T04:39:02Z</time></trkpt><trkpt lat="43.33385466346744" lon="11.434086422068876"><ele>243.0</ele><time>2026-04-11T04:39:04Z</time></trkpt><trkpt lat="43.33382743487873" lon="11.433999687665825"><ele>243.0</ele><time>2026-04-11T04:39:06Z</time></trkpt><trkpt lat="43.33379683285756" lon="11.433911735602967"><ele>243.0</ele><time>2026-04-11T04:39:08Z</time></trkpt><trkpt lat="43.33375593182168" lon="11.433827703105077"><ele>243.0</ele><time>2026-04-11T04:39:10Z</time></trkpt><trkpt lat="43.3337188933575" lon="11.43374893936815"><ele>244.0</ele><time>2026-04-11T04:39:12Z</time></trkpt><trkpt lat="43.33367751250981" lon="11.433674573773352"><ele>245.0</ele><time>2026-04-11T04:39:14Z</time></trkpt><trkpt lat="43.33364322865215" lon="11.433600305274997"><ele>246.0</ele><time>2026-04-11T04:39:16Z</time></trkpt><trkpt lat="43.3336049064146" lon="11.433530420822935"><ele>247.0</ele><time>2026-04-11T04:39:18Z</time></trkpt><trkpt lat="43.333569068039324" lon="11.433452905320824"><ele>248.0</ele><time>2026-04-11T04:39:20Z</time></trkpt><trkpt lat="43.33355345774077" lon="11.433365105619846"><ele>249.0</ele><time>2026-04-11T04:39:23Z</time></trkpt><trkpt lat="43.33358347218775" lon="11.433287346901613"><ele>250.0</ele><time>2026-04-11T04:39:25Z</time></trkpt><trkpt lat="43.333647548020274" lon="11.433242646602508"><ele>249.99999999999997</ele><time>2026-04-11T04:39:27Z</time></trkpt><trkpt lat="43.33373337960728" lon="11.433188028277236"><ele>250.0</ele><time>2026-04-11T04:39:29Z</time></trkpt><trkpt lat="43.33379700940128" lon="11.433140618109585"><ele>250.0</ele><time>2026-04-11T04:39:32Z</time></trkpt><trkpt lat="43.33386024178252" lon="11.433101709579294"><ele>250.0</ele><time>2026-04-11T04:39:34Z</time></trkpt><trkpt lat="43.33395495082538" lon="11.433043806893867"><ele>249.99999999999997</ele><time>2026-04-11T04:39:37Z</time></trkpt><trkpt lat="43.33403768841744" lon="11.43299524547693"><ele>250.0</ele><time>2026-04-11T04:39:40Z</time></trkpt><trkpt lat="43.33411544587979" lon="11.432947901581697"><ele>250.16666666666666</ele><time>2026-04-11T04:39:41Z</time></trkpt><trkpt lat="43.334180536321604" lon="11.432922839040224"><ele>250.33333333333331</ele><time>2026-04-11T04:39:43Z</time></trkpt><trkpt lat="43.334269452167824" lon="11.432868574208547"><ele>250.5</ele><time>2026-04-11T04:39:45Z</time></trkpt><trkpt lat="43.33435221685164" lon="11.432823522567658"><ele>250.66666666666669</ele><time>2026-04-11T04:39:47Z</time></trkpt><trkpt lat="43.334413836290544" lon="11.43278669452486"><ele>250.83333333333334</ele><time>2026-04-11T04:39:48Z</time></trkpt><trkpt lat="43.33449874307604" lon="11.43274824445904"><ele>251.0</ele><time>2026-04-11T04:39:50Z</time></trkpt><trkpt lat="43.3345858853942" lon="11.432706275040175"><ele>251.00000000000003</ele><time>2026-04-11T04:39:52Z</time></trkpt><trkpt lat="43.33466775672003" lon="11.432659183322794"><ele>251.0</ele><time>2026-04-11T04:39:54Z</time></trkpt><trkpt lat="43.33474995069308" lon="11.432616945235225"><ele>251.0</ele><time>2026-04-11T04:39:56Z</time></trkpt><trkpt lat="43.33482812363677" lon="11.432571239306004"><ele>251.0</ele><time>2026-04-11T04:39:58Z</time></trkpt><trkpt lat="43.33489740822296" lon="11.432522839432126"><ele>251.00000000000003</ele><time>2026-04-11T04:40:01Z</time></trkpt><trkpt lat="43.3349763287035" lon="11.432498025000218"><ele>251.0</ele><time>2026-04-11T04:40:03Z</time></trkpt><trkpt lat="43.33505083206822" lon="11.432445237945515"><ele>251.1428571428571</ele><time>2026-04-11T04:40:05Z</time></trkpt><trkpt lat="43.33512296127743" lon="11.432415732457436"><ele>251.28571428571428</ele><time>2026-04-11T04:40:07Z</time></trkpt><trkpt lat="43.33518777939116" lon="11.43236928955399"><ele>251.42857142857142</ele><time>2026-04-11T04:40:09Z</time></trkpt><trkpt lat="43.335259808707455" lon="11.432340724850413"><ele>251.57142857142856</ele><time>2026-04-11T04:40:11Z</time></trkpt><trkpt lat="43.33533189800619" lon="11.432302257020613"><ele>251.71428571428572</ele><time>2026-04-11T04:40:13Z</time></trkpt><trkpt lat="43.33540338699766" lon="11.432261615614138"><ele>251.85714285714286</ele><time>2026-04-11T04:40:15Z</time></trkpt><trkpt lat="43.335462233867425" lon="11.432219857424757"><ele>252.0</ele><time>2026-04-11T04:40:17Z</time></trkpt><trkpt lat="43.33552505478936" lon="11.43219360604246"><ele>252.39999999999998</ele><time>2026-04-11T04:40:19Z</time></trkpt><trkpt lat="43.33560939036716" lon="11.43214453086029"><ele>252.79999999999998</ele><time>2026-04-11T04:40:21Z</time></trkpt><trkpt lat="43.335691644336826" lon="11.43209549430541"><ele>253.2</ele><time>2026-04-11T04:40:23Z</time></trkpt><trkpt lat="43.33577031498043" lon="11.432056320665714"><ele>253.6</ele><time>2026-04-11T04:40:25Z</time></trkpt><trkpt lat="43.33583044676536" lon="11.432012353345685"><ele>254.0</ele><time>2026-04-11T04:40:27Z</time></trkpt><trkpt lat="43.33595995031103" lon="11.431931496789488"><ele>254.39999999999998</ele><time>2026-04-11T04:40:29Z</time></trkpt><trkpt lat="43.33607032167321" lon="11.431876113532033"><ele>254.79999999999998</ele><time>2026-04-11T04:40:31Z</time></trkpt><trkpt lat="43.33618480311307" lon="11.431803766900126"><ele>255.20000000000002</ele><time>2026-04-11T04:40:33Z</time></trkpt><trkpt lat="43.336245890415015" lon="11.431775502160326"><ele>255.60000000000002</ele><time>2026-04-11T04:40:34Z</time></trkpt><trkpt lat="43.33630463694894" lon="11.431742122746195"><ele>256.0</ele><time>2026-04-11T04:40:35Z</time></trkpt><trkpt lat="43.336430239188566" lon="11.431689383281755"><ele>255.42857142857142</ele><time>2026-04-11T04:40:37Z</time></trkpt><trkpt lat="43.336500537115704" lon="11.431651253891136"><ele>254.85714285714283</ele><time>2026-04-11T04:40:38Z</time></trkpt><trkpt lat="43.33655761561632" lon="11.431597858005373"><ele>254.28571428571428</ele><time>2026-04-11T04:40:39Z</time></trkpt><trkpt lat="43.33662702150151" lon="11.431561170348054"><ele>253.71428571428572</ele><time>2026-04-11T04:40:40Z</time></trkpt><trkpt lat="43.33670230519117" lon="11.431541815463197"><ele>253.14285714285714</ele><time>2026-04-11T04:40:41Z</time></trkpt><trkpt lat="43.33676972456147" lon="11.431488589953432"><ele>252.57142857142856</ele><time>2026-04-11T04:40:42Z</time></trkpt><trkpt lat="43.33684289145603" lon="11.431461676899744"><ele>252.0</ele><time>2026-04-11T04:40:43Z</time></trkpt><trkpt lat="43.33691845984359" lon="11.431429997323889"><ele>252.0</ele><time>2026-04-11T04:40:44Z</time></trkpt><trkpt lat="43.33699969810272" lon="11.431410606610081"><ele>252.0</ele><time>2026-04-11T04:40:45Z</time></trkpt><trkpt lat="43.3370705376192" lon="11.431399765266937"><ele>252.0</ele><time>2026-04-11T04:40:46Z</time></trkpt><trkpt lat="43.33714985926847" lon="11.431389302496456"><ele>252.0</ele><time>2026-04-11T04:40:47Z</time></trkpt><trkpt lat="43.33721765259608" lon="11.431395759643507"><ele>252.0</ele><time>2026-04-11T04:40:48Z</time></trkpt><trkpt lat="43.3372942340799" lon="11.431399537384893"><ele>252.0</ele><time>2026-04-11T04:40:49Z</time></trkpt><trkpt lat="43.337365823822914" lon="11.431404248215044"><ele>251.2</ele><time>2026-04-11T04:40:50Z</time></trkpt><trkpt lat="43.33743774274857" lon="11.431402555505679"><ele>250.39999999999998</ele><time>2026-04-11T04:40:51Z</time></trkpt><trkpt lat="43.337565160783356" lon="11.431408684347579"><ele>249.60000000000002</ele><time>2026-04-11T04:40:53Z</time></trkpt><trkpt lat="43.33768075216875" lon="11.431403754173488"><ele>248.8</ele><time>2026-04-11T04:40:55Z</time></trkpt><trkpt lat="43.33777656254111" lon="11.431402520633975"><ele>248.0</ele><time>2026-04-11T04:40:57Z</time></trkpt><trkpt lat="43.337888142576574" lon="11.431412721294905"><ele>248.0</ele><time>2026-04-11T04:40:59Z</time></trkpt><trkpt lat="43.338005452176404" lon="11.431422716271717"><ele>248.0</ele><time>2026-04-11T04:41:01Z</time></trkpt><trkpt lat="43.338120156526095" lon="11.43142480986219"><ele>248.0</ele><time>2026-04-11T04:41:03Z</time></trkpt><trkpt lat="43.33823220310821" lon="11.431443756638396"><ele>248.0</ele><time>2026-04-11T04:41:05Z</time></trkpt><trkpt lat="43.33833902556007" lon="11.431498400933627"><ele>248.4</ele><time>2026-04-11T04:41:07Z</time></trkpt><trkpt lat="43.338441613263" lon="11.431559801826634"><ele>248.8</ele><time>2026-04-11T04:41:09Z</time></trkpt><trkpt lat="43.338530912082724" lon="11.431633707875331"><ele>249.2</ele><time>2026-04-11T04:41:11Z</time></trkpt><trkpt lat="43.338611821285944" lon="11.431727365326378"><ele>249.6</ele><time>2026-04-11T04:41:13Z</time></trkpt><trkpt lat="43.338694163898055" lon="11.431813508116242"><ele>250.0</ele><time>2026-04-11T04:41:15Z</time></trkpt><trkpt lat="43.338770124979234" lon="11.431911850480136"><ele>250.0</ele><time>2026-04-11T04:41:17Z</time></trkpt><trkpt lat="43.33885116890681" lon="11.432004920676409"><ele>250.0</ele><time>2026-04-11T04:41:19Z</time></trkpt><trkpt lat="43.338933120366576" lon="11.43210307224631"><ele>250.0</ele><time>2026-04-11T04:41:21Z</time></trkpt><trkpt lat="43.33900867283072" lon="11.432193716068904"><ele>250.0</ele><time>2026-04-11T04:41:23Z</time></trkpt><trkpt lat="43.33908461564802" lon="11.432285038820293"><ele>250.0</ele><time>2026-04-11T04:41:25Z</time></trkpt><trkpt lat="43.339164604552174" lon="11.432379295052307"><ele>250.0</ele><time>2026-04-11T04:41:27Z</time></trkpt><trkpt lat="43.33924546997604" lon="11.432491232352543"><ele>250.0</ele><time>2026-04-11T04:41:29Z</time></trkpt><trkpt lat="43.33932508397373" lon="11.43261385454467"><ele>250.0</ele><time>2026-04-11T04:41:31Z</time></trkpt><trkpt lat="43.33940023174094" lon="11.432748867021377"><ele>250.0</ele><time>2026-04-11T04:41:33Z</time></trkpt><trkpt lat="43.33944035267261" lon="11.43282689298183"><ele>250.0</ele><time>2026-04-11T04:41:34Z</time></trkpt><trkpt lat="43.339479412723286" lon="11.432906009183903"><ele>249.85714285714283</ele><time>2026-04-11T04:41:35Z</time></trkpt><trkpt lat="43.33951919312475" lon="11.432985264815148"><ele>249.71428571428572</ele><time>2026-04-11T04:41:36Z</time></trkpt><trkpt lat="43.33955377141454" lon="11.433066927530662"><ele>249.57142857142856</ele><time>2026-04-11T04:41:37Z</time></trkpt><trkpt lat="43.33958952874261" lon="11.433149927532918"><ele>249.42857142857142</ele><time>2026-04-11T04:41:38Z</time></trkpt><trkpt lat="43.33962550160369" lon="11.433239766738314"><ele>249.28571428571428</ele><time>2026-04-11T04:41:39Z</time></trkpt><trkpt lat="43.339662123689294" lon="11.433325843360105"><ele>249.14285714285714</ele><time>2026-04-11T04:41:40Z</time></trkpt><trkpt lat="43.33969612708521" lon="11.433414328862508"><ele>249.0</ele><time>2026-04-11T04:41:41Z</time></trkpt><trkpt lat="43.3397321491601" lon="11.433504891107704"><ele>249.0</ele><time>2026-04-11T04:41:42Z</time></trkpt><trkpt lat="43.33977109936051" lon="11.43359509305178"><ele>249.0</ele><time>2026-04-11T04:41:43Z</time></trkpt><trkpt lat="43.339811805933415" lon="11.433686091291225"><ele>249.0</ele><time>2026-04-11T04:41:44Z</time></trkpt><trkpt lat="43.33985358236963" lon="11.433779111691788"><ele>249.0</ele><time>2026-04-11T04:41:45Z</time></trkpt><trkpt lat="43.339895026186134" lon="11.433868458490524"><ele>249.0</ele><time>2026-04-11T04:41:46Z</time></trkpt><trkpt lat="43.3399367437426" lon="11.43396545988719"><ele>249.0</ele><time>2026-04-11T04:41:47Z</time></trkpt><trkpt lat="43.33997733037422" lon="11.434055828879385"><ele>249.0</ele><time>2026-04-11T04:41:48Z</time></trkpt><trkpt lat="43.34002290110455" lon="11.434150411376665"><ele>249.0</ele><time>2026-04-11T04:41:49Z</time></trkpt><trkpt lat="43.34006386382458" lon="11.434238798248847"><ele>249.0</ele><time>2026-04-11T04:41:50Z</time></trkpt><trkpt lat="43.34010896337879" lon="11.43432889840474"><ele>249.0</ele><time>2026-04-11T04:41:51Z</time></trkpt><trkpt lat="43.340160574233586" lon="11.434406084502767"><ele>249.0</ele><time>2026-04-11T04:41:52Z</time></trkpt><trkpt lat="43.34022180043746" lon="11.434478082288383"><ele>249.0</ele><time>2026-04-11T04:41:53Z</time></trkpt><trkpt lat="43.340284434862035" lon="11.434545081291148"><ele>249.0</ele><time>2026-04-11T04:41:54Z</time></trkpt><trkpt lat="43.34035215954432" lon="11.43459675265826"><ele>249.0</ele><time>2026-04-11T04:41:55Z</time></trkpt><trkpt lat="43.34043171455822" lon="11.43463229042022"><ele>249.0</ele><time>2026-04-11T04:41:56Z</time></trkpt><trkpt lat="43.34050765295508" lon="11.434646293690388"><ele>249.0</ele><time>2026-04-11T04:41:57Z</time></trkpt><trkpt lat="43.340586323338606" lon="11.434653875358123"><ele>249.0</ele><time>2026-04-11T04:41:58Z</time></trkpt><trkpt lat="43.340670555032055" lon="11.434634490909383"><ele>249.0</ele><time>2026-04-11T04:41:59Z</time></trkpt><trkpt lat="43.34074502763878" lon="11.434622302725549"><ele>248.33333333333334</ele><time>2026-04-11T04:42:00Z</time></trkpt><trkpt lat="43.34082000885895" lon="11.434599120015188"><ele>247.66666666666669</ele><time>2026-04-11T04:42:01Z</time></trkpt><trkpt lat="43.34089685396879" lon="11.434576782522234"><ele>247.0</ele><time>2026-04-11T04:42:02Z</time></trkpt><trkpt lat="43.340968545574356" lon="11.43455123134004"><ele>246.33333333333334</ele><time>2026-04-11T04:42:03Z</time></trkpt><trkpt lat="43.341043459456316" lon="11.43452195498191"><ele>245.66666666666669</ele><time>2026-04-11T04:42:04Z</time></trkpt><trkpt lat="43.34111744060031" lon="11.434497783024499"><ele>245.0</ele><time>2026-04-11T04:42:05Z</time></trkpt><trkpt lat="43.34119028883214" lon="11.43447476483272"><ele>245.00000000000003</ele><time>2026-04-11T04:42:06Z</time></trkpt><trkpt lat="43.3412646484213" lon="11.434452761713533"><ele>245.0</ele><time>2026-04-11T04:42:07Z</time></trkpt><trkpt lat="43.3413400295384" lon="11.434426010403408"><ele>245.0</ele><time>2026-04-11T04:42:08Z</time></trkpt><trkpt lat="43.341414276949585" lon="11.43439687830614"><ele>245.0</ele><time>2026-04-11T04:42:09Z</time></trkpt><trkpt lat="43.34148661372431" lon="11.434367546826143"><ele>245.00000000000003</ele><time>2026-04-11T04:42:10Z</time></trkpt><trkpt lat="43.34156250193595" lon="11.434348476533366"><ele>245.0</ele><time>2026-04-11T04:42:11Z</time></trkpt><trkpt lat="43.34163470043022" lon="11.434323067375557"><ele>245.14285714285714</ele><time>2026-04-11T04:42:12Z</time></trkpt><trkpt lat="43.34171087913571" lon="11.434297978871031"><ele>245.28571428571428</ele><time>2026-04-11T04:42:13Z</time></trkpt><trkpt lat="43.34178193200041" lon="11.434272782806913"><ele>245.42857142857144</ele><time>2026-04-11T04:42:14Z</time></trkpt><trkpt lat="43.34185320528266" lon="11.434252329674816"><ele>245.57142857142858</ele><time>2026-04-11T04:42:15Z</time></trkpt><trkpt lat="43.34192836841626" lon="11.434228308708228"><ele>245.71428571428572</ele><time>2026-04-11T04:42:16Z</time></trkpt><trkpt lat="43.34199713954865" lon="11.434200689888687"><ele>245.8571428571429</ele><time>2026-04-11T04:42:17Z</time></trkpt><trkpt lat="43.34206684964353" lon="11.434174283686879"><ele>246.00000000000003</ele><time>2026-04-11T04:42:18Z</time></trkpt><trkpt lat="43.34213444635695" lon="11.434151311149494"><ele>246.00000000000003</ele><time>2026-04-11T04:42:19Z</time></trkpt><trkpt lat="43.34220173319091" lon="11.434126106740681"><ele>246.0</ele><time>2026-04-11T04:42:20Z</time></trkpt><trkpt lat="43.34227241138384" lon="11.434105908137793"><ele>246.00000000000003</ele><time>2026-04-11T04:42:21Z</time></trkpt><trkpt lat="43.34233857756756" lon="11.434081451318198"><ele>246.00000000000003</ele><time>2026-04-11T04:42:22Z</time></trkpt><trkpt lat="43.342407901458515" lon="11.434057520321632"><ele>246.0</ele><time>2026-04-11T04:42:23Z</time></trkpt><trkpt lat="43.34247459236662" lon="11.434038007794964"><ele>246.00000000000003</ele><time>2026-04-11T04:42:24Z</time></trkpt><trkpt lat="43.342539731610465" lon="11.43401515502601"><ele>246.00000000000003</ele><time>2026-04-11T04:42:25Z</time></trkpt><trkpt lat="43.34260359384986" lon="11.433995411486674"><ele>246.20000000000002</ele><time>2026-04-11T04:42:26Z</time></trkpt><trkpt lat="43.342720424514695" lon="11.433953347733725"><ele>246.40000000000003</ele><time>2026-04-11T04:42:28Z</time></trkpt><trkpt lat="43.34283027293592" lon="11.433921818001718"><ele>246.6</ele><time>2026-04-11T04:42:30Z</time></trkpt><trkpt lat="43.342932197894775" lon="11.433889438025844"><ele>246.8</ele><time>2026-04-11T04:42:32Z</time></trkpt><trkpt lat="43.343033760117855" lon="11.433873273476681"><ele>247.0</ele><time>2026-04-11T04:42:34Z</time></trkpt><trkpt lat="43.343128495800265" lon="11.433882291242293"><ele>247.83333333333331</ele><time>2026-04-11T04:42:36Z</time></trkpt><trkpt lat="43.34321981072402" lon="11.433906554406796"><ele>248.66666666666666</ele><time>2026-04-11T04:42:38Z</time></trkpt><trkpt lat="43.34329897167036" lon="11.433956139243916"><ele>249.5</ele><time>2026-04-11T04:42:40Z</time></trkpt><trkpt lat="43.34336675723063" lon="11.434026310236188"><ele>250.33333333333331</ele><time>2026-04-11T04:42:42Z</time></trkpt><trkpt lat="43.34341930006022" lon="11.434084651941646"><ele>251.16666666666666</ele><time>2026-04-11T04:42:44Z</time></trkpt><trkpt lat="43.34348165330211" lon="11.434170468424114"><ele>252.0</ele><time>2026-04-11T04:42:47Z</time></trkpt><trkpt lat="43.34355624668103" lon="11.434281839131316"><ele>252.0</ele><time>2026-04-11T04:42:51Z</time></trkpt><trkpt lat="43.34361577526891" lon="11.434374557468571"><ele>252.0</ele><time>2026-04-11T04:42:54Z</time></trkpt><trkpt lat="43.34367122601529" lon="11.434456428182594"><ele>252.0</ele><time>2026-04-11T04:42:58Z</time></trkpt><trkpt lat="43.34372446705049" lon="11.4345321600904"><ele>252.0</ele><time>2026-04-11T04:43:01Z</time></trkpt><trkpt lat="43.34377758925184" lon="11.434621947582722"><ele>252.0</ele><time>2026-04-11T04:43:04Z</time></trkpt><trkpt lat="43.343839682905895" lon="11.434713581243713"><ele>252.0</ele><time>2026-04-11T04:43:07Z</time></trkpt><trkpt lat="43.34387923269394" lon="11.43478277369618"><ele>253.0</ele><time>2026-04-11T04:43:09Z</time></trkpt><trkpt lat="43.34394671527748" lon="11.434870114442889"><ele>254.0</ele><time>2026-04-11T04:43:12Z</time></trkpt><trkpt lat="43.34401198100133" lon="11.434954676562787"><ele>255.0</ele><time>2026-04-11T04:43:15Z</time></trkpt><trkpt lat="43.344079843865465" lon="11.43503877742931"><ele>256.0</ele><time>2026-04-11T04:43:18Z</time></trkpt><trkpt lat="43.344126272732325" lon="11.43509794502225"><ele>257.0</ele><time>2026-04-11T04:43:20Z</time></trkpt><trkpt lat="43.34417587295733" lon="11.43516158516006"><ele>258.0</ele><time>2026-04-11T04:43:22Z</time></trkpt><trkpt lat="43.34422989328179" lon="11.43521650928462"><ele>257.99999999999994</ele><time>2026-04-11T04:43:24Z</time></trkpt><trkpt lat="43.344288912035225" lon="11.435279608874394"><ele>258.0</ele><time>2026-04-11T04:43:26Z</time></trkpt><trkpt lat="43.3443461540546" lon="11.435338799393337"><ele>258.0</ele><time>2026-04-11T04:43:28Z</time></trkpt><trkpt lat="43.34440360923835" lon="11.43539104973418"><ele>258.0</ele><time>2026-04-11T04:43:30Z</time></trkpt><trkpt lat="43.34446630152112" lon="11.43544653505182"><ele>258.0</ele><time>2026-04-11T04:43:32Z</time></trkpt><trkpt lat="43.3445273309113" lon="11.435499239503352"><ele>257.99999999999994</ele><time>2026-04-11T04:43:34Z</time></trkpt><trkpt lat="43.344595047031255" lon="11.435536355266589"><ele>258.0</ele><time>2026-04-11T04:43:36Z</time></trkpt><trkpt lat="43.344657514404766" lon="11.435558835013298"><ele>258.5</ele><time>2026-04-11T04:43:39Z</time></trkpt><trkpt lat="43.34476113255131" lon="11.435578238551749"><ele>259.0</ele><time>2026-04-11T04:43:42Z</time></trkpt><trkpt lat="43.34483912644245" lon="11.43558992636938"><ele>259.5</ele><time>2026-04-11T04:43:44Z</time></trkpt><trkpt lat="43.34491437919851" lon="11.43560425949261"><ele>260.0</ele><time>2026-04-11T04:43:46Z</time></trkpt><trkpt lat="43.34498688857026" lon="11.435602374477671"><ele>260.5</ele><time>2026-04-11T04:43:49Z</time></trkpt><trkpt lat="43.34505096158002" lon="11.435602746656283"><ele>261.0</ele><time>2026-04-11T04:43:51Z</time></trkpt><trkpt lat="43.34514199447806" lon="11.43562046930279"><ele>261.0</ele><time>2026-04-11T04:43:54Z</time></trkpt><trkpt lat="43.345233913801465" lon="11.435624897096016"><ele>261.0</ele><time>2026-04-11T04:43:57Z</time></trkpt><trkpt lat="43.34530491755608" lon="11.435621191125716"><ele>261.0</ele><time>2026-04-11T04:43:59Z</time></trkpt><trkpt lat="43.345371492090834" lon="11.435621811260514"><ele>261.0</ele><time>2026-04-11T04:44:01Z</time></trkpt><trkpt lat="43.34544441937525" lon="11.435630238633143"><ele>261.0</ele><time>2026-04-11T04:44:04Z</time></trkpt><trkpt lat="43.34552311883783" lon="11.435645053748427"><ele>261.0</ele><time>2026-04-11T04:44:06Z</time></trkpt><trkpt lat="43.34561757994428" lon="11.43569141545034"><ele>262.25</ele><time>2026-04-11T04:44:09Z</time></trkpt><trkpt lat="43.345678924630406" lon="11.435753339787496"><ele>263.5</ele><time>2026-04-11T04:44:11Z</time></trkpt><trkpt lat="43.34573674565581" lon="11.435819151326513"><ele>264.75</ele><time>2026-04-11T04:44:13Z</time></trkpt><trkpt lat="43.3460249724011" lon="11.435859773359404"><ele>266.0</ele><time>2026-04-11T04:44:14Z</time></trkpt><trkpt lat="43.34611719881578" lon="11.435923557925191"><ele>266.0</ele><time>2026-04-11T04:44:16Z</time></trkpt><trkpt lat="43.34620290275002" lon="11.436026443058232"><ele>266.0</ele><time>2026-04-11T04:44:18Z</time></trkpt><trkpt lat="43.34630581671078" lon="11.436092016933546"><ele>266.0</ele><time>2026-04-11T04:44:20Z</time></trkpt><trkpt lat="43.346393183855355" lon="11.43619071412192"><ele>266.0</ele><time>2026-04-11T04:44:22Z</time></trkpt><trkpt lat="43.34649384479239" lon="11.43628098875388"><ele>265.7142857142857</ele><time>2026-04-11T04:44:24Z</time></trkpt><trkpt lat="43.34654591723813" lon="11.436332165277804"><ele>265.42857142857144</ele><time>2026-04-11T04:44:25Z</time></trkpt><trkpt lat="43.34663548057856" lon="11.436439450279705"><ele>265.1428571428571</ele><time>2026-04-11T04:44:27Z</time></trkpt><trkpt lat="43.346681008291746" lon="11.436503556085128"><ele>264.8571428571429</ele><time>2026-04-11T04:44:28Z</time></trkpt><trkpt lat="43.3467246175914" lon="11.436568904694534"><ele>264.57142857142856</ele><time>2026-04-11T04:44:29Z</time></trkpt><trkpt lat="43.34676743906802" lon="11.436637399422603"><ele>264.2857142857143</ele><time>2026-04-11T04:44:30Z</time></trkpt><trkpt lat="43.34681145766579" lon="11.436714155918347"><ele>264.0</ele><time>2026-04-11T04:44:31Z</time></trkpt><trkpt lat="43.34685939994858" lon="11.43679767482115"><ele>264.0</ele><time>2026-04-11T04:44:32Z</time></trkpt><trkpt lat="43.34690495585205" lon="11.436877727524092"><ele>264.0</ele><time>2026-04-11T04:44:33Z</time></trkpt><trkpt lat="43.34696406190488" lon="11.436973283564672"><ele>264.0</ele><time>2026-04-11T04:44:34Z</time></trkpt><trkpt lat="43.34701175512618" lon="11.437055351467725"><ele>264.0</ele><time>2026-04-11T04:44:35Z</time></trkpt><trkpt lat="43.34705647338018" lon="11.437131516453595"><ele>264.0</ele><time>2026-04-11T04:44:36Z</time></trkpt><trkpt lat="43.3471013513828" lon="11.437213095883198"><ele>264.0</ele><time>2026-04-11T04:44:37Z</time></trkpt><trkpt lat="43.34715167755764" lon="11.43728539125337"><ele>263.59999999999997</ele><time>2026-04-11T04:44:38Z</time></trkpt><trkpt lat="43.347195492536365" lon="11.43736477130329"><ele>263.2</ele><time>2026-04-11T04:44:39Z</time></trkpt><trkpt lat="43.34723598803076" lon="11.437446253195823"><ele>262.79999999999995</ele><time>2026-04-11T04:44:40Z</time></trkpt><trkpt lat="43.34727584379307" lon="11.437519184622861"><ele>262.4</ele><time>2026-04-11T04:44:41Z</time></trkpt><trkpt lat="43.34734881915446" lon="11.437659940333482"><ele>262.0</ele><time>2026-04-11T04:44:43Z</time></trkpt><trkpt lat="43.34742797083222" lon="11.437789391366831"><ele>261.25</ele><time>2026-04-11T04:44:45Z</time></trkpt><trkpt lat="43.34750009831802" lon="11.437908925162452"><ele>260.5</ele><time>2026-04-11T04:44:47Z</time></trkpt><trkpt lat="43.34757475444264" lon="11.438028626451318"><ele>259.75</ele><time>2026-04-11T04:44:49Z</time></trkpt><trkpt lat="43.347656290265" lon="11.438141732898536"><ele>259.0</ele><time>2026-04-11T04:44:51Z</time></trkpt><trkpt lat="43.347725208455586" lon="11.438263078463228"><ele>259.0</ele><time>2026-04-11T04:44:53Z</time></trkpt><trkpt lat="43.347781869966994" lon="11.438301301700442"><ele>259.0</ele><time>2026-04-11T04:44:54Z</time></trkpt><trkpt lat="43.34783600526213" lon="11.438349518777812"><ele>259.0</ele><time>2026-04-11T04:44:55Z</time></trkpt><trkpt lat="43.34789326322897" lon="11.438387588483444"><ele>259.0</ele><time>2026-04-11T04:44:56Z</time></trkpt><trkpt lat="43.348018636880205" lon="11.43842814991658"><ele>259.0</ele><time>2026-04-11T04:44:58Z</time></trkpt><trkpt lat="43.34808559525533" lon="11.438446054690242"><ele>259.0</ele><time>2026-04-11T04:44:59Z</time></trkpt><trkpt lat="43.348155635997685" lon="11.438460655368795"><ele>258.42857142857144</ele><time>2026-04-11T04:45:00Z</time></trkpt><trkpt lat="43.348226439639454" lon="11.4384711961164"><ele>257.8571428571429</ele><time>2026-04-11T04:45:01Z</time></trkpt><trkpt lat="43.3482965213868" lon="11.438484006422398"><ele>257.2857142857143</ele><time>2026-04-11T04:45:02Z</time></trkpt><trkpt lat="43.34837074096091" lon="11.438500118581993"><ele>256.7142857142857</ele><time>2026-04-11T04:45:03Z</time></trkpt><trkpt lat="43.34844180986127" lon="11.438513989594425"><ele>256.14285714285717</ele><time>2026-04-11T04:45:04Z</time></trkpt><trkpt lat="43.34851453617695" lon="11.438531071896845"><ele>255.57142857142858</ele><time>2026-04-11T04:45:05Z</time></trkpt><trkpt lat="43.34858553838566" lon="11.43854545809717"><ele>255.0</ele><time>2026-04-11T04:45:06Z</time></trkpt><trkpt lat="43.34865858896557" lon="11.43856009899302"><ele>255.0</ele><time>2026-04-11T04:45:07Z</time></trkpt><trkpt lat="43.34873125396816" lon="11.438571409872226"><ele>255.0</ele><time>2026-04-11T04:45:08Z</time></trkpt><trkpt lat="43.34880290396893" lon="11.438577955921511"><ele>255.0</ele><time>2026-04-11T04:45:09Z</time></trkpt><trkpt lat="43.34886940608865" lon="11.438597491558157"><ele>255.0</ele><time>2026-04-11T04:45:10Z</time></trkpt><trkpt lat="43.34893557511912" lon="11.438611842307857"><ele>255.0</ele><time>2026-04-11T04:45:11Z</time></trkpt><trkpt lat="43.34900219586321" lon="11.438619840091569"><ele>255.0</ele><time>2026-04-11T04:45:12Z</time></trkpt><trkpt lat="43.34912677267374" lon="11.438641951404195"><ele>255.0</ele><time>2026-04-11T04:45:14Z</time></trkpt><trkpt lat="43.3492429213901" lon="11.438675331831698"><ele>255.0</ele><time>2026-04-11T04:45:16Z</time></trkpt><trkpt lat="43.34935473029905" lon="11.43873479729413"><ele>255.0</ele><time>2026-04-11T04:45:18Z</time></trkpt><trkpt lat="43.34945584710122" lon="11.4388315550535"><ele>255.0</ele><time>2026-04-11T04:45:20Z</time></trkpt><trkpt lat="43.3495045510559" lon="11.438892215630249"><ele>255.0</ele><time>2026-04-11T04:45:21Z</time></trkpt><trkpt lat="43.34954960290198" lon="11.438958567877537"><ele>254.42857142857144</ele><time>2026-04-11T04:45:22Z</time></trkpt><trkpt lat="43.34959010216491" lon="11.439031275656237"><ele>253.8571428571429</ele><time>2026-04-11T04:45:23Z</time></trkpt><trkpt lat="43.34962855293321" lon="11.43910570548162"><ele>253.28571428571428</ele><time>2026-04-11T04:45:24Z</time></trkpt><trkpt lat="43.34966641638605" lon="11.439180159448872"><ele>252.71428571428572</ele><time>2026-04-11T04:45:25Z</time></trkpt><trkpt lat="43.34970528064922" lon="11.439263869025476"><ele>252.14285714285714</ele><time>2026-04-11T04:45:26Z</time></trkpt><trkpt lat="43.349745561985465" lon="11.439342641777126"><ele>251.57142857142856</ele><time>2026-04-11T04:45:27Z</time></trkpt><trkpt lat="43.34978287812809" lon="11.43942638169431"><ele>250.99999999999997</ele><time>2026-04-11T04:45:28Z</time></trkpt><trkpt lat="43.349822047297096" lon="11.439509848029351"><ele>250.85714285714283</ele><time>2026-04-11T04:45:29Z</time></trkpt><trkpt lat="43.34986948596068" lon="11.439585568781606"><ele>250.71428571428572</ele><time>2026-04-11T04:45:30Z</time></trkpt><trkpt lat="43.34992123704869" lon="11.43966460016601"><ele>250.57142857142856</ele><time>2026-04-11T04:45:31Z</time></trkpt><trkpt lat="43.34997117903806" lon="11.439731903174806"><ele>250.42857142857142</ele><time>2026-04-11T04:45:32Z</time></trkpt><trkpt lat="43.35002644985492" lon="11.439788605891078"><ele>250.28571428571428</ele><time>2026-04-11T04:45:33Z</time></trkpt><trkpt lat="43.35008173678415" lon="11.439847611321607"><ele>250.14285714285714</ele><time>2026-04-11T04:45:34Z</time></trkpt><trkpt lat="43.35013750959423" lon="11.4399031878671"><ele>250.0</ele><time>2026-04-11T04:45:35Z</time></trkpt><trkpt lat="43.35019188789446" lon="11.439950974942274"><ele>249.71428571428572</ele><time>2026-04-11T04:45:36Z</time></trkpt><trkpt lat="43.350251629543486" lon="11.439999676908071"><ele>249.42857142857144</ele><time>2026-04-11T04:45:37Z</time></trkpt><trkpt lat="43.35031335557194" lon="11.440048295460812"><ele>249.14285714285717</ele><time>2026-04-11T04:45:38Z</time></trkpt><trkpt lat="43.35037908350766" lon="11.44008627485972"><ele>248.85714285714286</ele><time>2026-04-11T04:45:39Z</time></trkpt><trkpt lat="43.35044992196322" lon="11.440114457315753"><ele>248.5714285714286</ele><time>2026-04-11T04:45:40Z</time></trkpt><trkpt lat="43.35052303741115" lon="11.440134330231642"><ele>248.2857142857143</ele><time>2026-04-11T04:45:41Z</time></trkpt><trkpt lat="43.35060106919429" lon="11.440145668139156"><ele>248.0</ele><time>2026-04-11T04:45:42Z</time></trkpt><trkpt lat="43.350680372832265" lon="11.440144640740376"><ele>248.0</ele><time>2026-04-11T04:45:43Z</time></trkpt><trkpt lat="43.35075954091095" lon="11.440138503041048"><ele>248.00000000000003</ele><time>2026-04-11T04:45:44Z</time></trkpt><trkpt lat="43.35083820108812" lon="11.440135075247381"><ele>248.0</ele><time>2026-04-11T04:45:45Z</time></trkpt><trkpt lat="43.350911190273536" lon="11.440121563807594"><ele>248.0</ele><time>2026-04-11T04:45:46Z</time></trkpt><trkpt lat="43.350981445350065" lon="11.440101687078768"><ele>248.00000000000003</ele><time>2026-04-11T04:45:47Z</time></trkpt><trkpt lat="43.351050891768345" lon="11.440068171275119"><ele>248.0</ele><time>2026-04-11T04:45:48Z</time></trkpt><trkpt lat="43.351113926544706" lon="11.440030280087159"><ele>248.0</ele><time>2026-04-11T04:45:49Z</time></trkpt><trkpt lat="43.351175790251354" lon="11.439988934335167"><ele>248.00000000000003</ele><time>2026-04-11T04:45:50Z</time></trkpt><trkpt lat="43.351232848050564" lon="11.439944143925405"><ele>248.0</ele><time>2026-04-11T04:45:51Z</time></trkpt><trkpt lat="43.35128897455019" lon="11.439899261960313"><ele>248.0</ele><time>2026-04-11T04:45:52Z</time></trkpt><trkpt lat="43.35134484835787" lon="11.439858337339336"><ele>248.0</ele><time>2026-04-11T04:45:53Z</time></trkpt><trkpt lat="43.351401606704066" lon="11.439817051866504"><ele>248.00000000000003</ele><time>2026-04-11T04:45:54Z</time></trkpt><trkpt lat="43.35150563280082" lon="11.439729498309356"><ele>248.0</ele><time>2026-04-11T04:45:56Z</time></trkpt><trkpt lat="43.351600692694404" lon="11.439652039305901"><ele>248.60000000000002</ele><time>2026-04-11T04:45:58Z</time></trkpt><trkpt lat="43.35168670953782" lon="11.439580972495229"><ele>249.20000000000002</ele><time>2026-04-11T04:46:00Z</time></trkpt><trkpt lat="43.35177379573862" lon="11.439524045270375"><ele>249.8</ele><time>2026-04-11T04:46:02Z</time></trkpt><trkpt lat="43.35185634618311" lon="11.439473964190574"><ele>250.4</ele><time>2026-04-11T04:46:04Z</time></trkpt><trkpt lat="43.35194280769281" lon="11.439439239620045"><ele>251.0</ele><time>2026-04-11T04:46:06Z</time></trkpt><trkpt lat="43.35202704120616" lon="11.439412435396047"><ele>250.99999999999997</ele><time>2026-04-11T04:46:08Z</time></trkpt><trkpt lat="43.35210421199375" lon="11.439390185482832"><ele>251.0</ele><time>2026-04-11T04:46:10Z</time></trkpt><trkpt lat="43.35218210730981" lon="11.439373613527387"><ele>250.99999999999997</ele><time>2026-04-11T04:46:12Z</time></trkpt><trkpt lat="43.35225120923627" lon="11.43935304876999"><ele>250.99999999999997</ele><time>2026-04-11T04:46:14Z</time></trkpt><trkpt lat="43.352318383223775" lon="11.439319772060598"><ele>251.0</ele><time>2026-04-11T04:46:16Z</time></trkpt><trkpt lat="43.35237939828895" lon="11.439271636400179"><ele>250.99999999999997</ele><time>2026-04-11T04:46:18Z</time></trkpt><trkpt lat="43.3524356932155" lon="11.439205354359116"><ele>250.99999999999997</ele><time>2026-04-11T04:46:20Z</time></trkpt><trkpt lat="43.35248807220983" lon="11.439125095074248"><ele>251.99999999999997</ele><time>2026-04-11T04:46:22Z</time></trkpt><trkpt lat="43.35255333804284" lon="11.439036664011907"><ele>253.0</ele><time>2026-04-11T04:46:25Z</time></trkpt><trkpt lat="43.35260854234401" lon="11.438967948886638"><ele>253.99999999999997</ele><time>2026-04-11T04:46:27Z</time></trkpt><trkpt lat="43.35266162972268" lon="11.438902229067"><ele>254.99999999999997</ele><time>2026-04-11T04:46:29Z</time></trkpt><trkpt lat="43.35271553641373" lon="11.438843798053384"><ele>256.0</ele><time>2026-04-11T04:46:31Z</time></trkpt><trkpt lat="43.35277177213589" lon="11.438785459768486"><ele>256.99999999999994</ele><time>2026-04-11T04:46:33Z</time></trkpt><trkpt lat="43.3528290982089" lon="11.438729408711387"><ele>258.0</ele><time>2026-04-11T04:46:35Z</time></trkpt><trkpt lat="43.35288996084998" lon="11.438670414101948"><ele>257.99999999999994</ele><time>2026-04-11T04:46:37Z</time></trkpt><trkpt lat="43.35295639431082" lon="11.438616342072452"><ele>258.0</ele><time>2026-04-11T04:46:39Z</time></trkpt><trkpt lat="43.35302213902651" lon="11.43856082136963"><ele>258.0</ele><time>2026-04-11T04:46:41Z</time></trkpt><trkpt lat="43.353089851127514" lon="11.438518050848533"><ele>258.0</ele><time>2026-04-11T04:46:43Z</time></trkpt><trkpt lat="43.3531572769126" lon="11.438468454143855"><ele>258.0</ele><time>2026-04-11T04:46:45Z</time></trkpt><trkpt lat="43.3532233445185" lon="11.438434496209288"><ele>257.99999999999994</ele><time>2026-04-11T04:46:47Z</time></trkpt><trkpt lat="43.353293509867314" lon="11.438412755060776"><ele>258.0</ele><time>2026-04-11T04:46:49Z</time></trkpt><trkpt lat="43.35336301031114" lon="11.438378669674773"><ele>259.1666666666667</ele><time>2026-04-11T04:46:51Z</time></trkpt><trkpt lat="43.353433015792326" lon="11.438356107682823"><ele>260.3333333333333</ele><time>2026-04-11T04:46:53Z</time></trkpt><trkpt lat="43.35350693862172" lon="11.438331731142426"><ele>261.5</ele><time>2026-04-11T04:46:55Z</time></trkpt><trkpt lat="43.35357912156671" lon="11.438321591489965"><ele>262.66666666666663</ele><time>2026-04-11T04:46:57Z</time></trkpt><trkpt lat="43.353656140296465" lon="11.438299155878834"><ele>263.8333333333333</ele><time>2026-04-11T04:46:59Z</time></trkpt><trkpt lat="43.35373376146443" lon="11.438274630749985"><ele>265.0</ele><time>2026-04-11T04:47:01Z</time></trkpt><trkpt lat="43.353808613789674" lon="11.438249455636987"><ele>265.16666666666663</ele><time>2026-04-11T04:47:03Z</time></trkpt><trkpt lat="43.35388196318076" lon="11.438237743264557"><ele>265.3333333333333</ele><time>2026-04-11T04:47:05Z</time></trkpt><trkpt lat="43.35395474280441" lon="11.438215391385354"><ele>265.5</ele><time>2026-04-11T04:47:07Z</time></trkpt><trkpt lat="43.35403181683652" lon="11.438198994224571"><ele>265.6666666666667</ele><time>2026-04-11T04:47:09Z</time></trkpt><trkpt lat="43.35410625749349" lon="11.438192575832494"><ele>265.83333333333337</ele><time>2026-04-11T04:47:11Z</time></trkpt><trkpt lat="43.35418453905999" lon="11.438160777671389"><ele>266.0</ele><time>2026-04-11T04:47:13Z</time></trkpt><trkpt lat="43.35426545478848" lon="11.438154378701663"><ele>266.0</ele><time>2026-04-11T04:47:15Z</time></trkpt><trkpt lat="43.35434388147585" lon="11.438147462860309"><ele>266.0</ele><time>2026-04-11T04:47:17Z</time></trkpt><trkpt lat="43.35442901540948" lon="11.43815551318274"><ele>266.0</ele><time>2026-04-11T04:47:19Z</time></trkpt><trkpt lat="43.35451743286053" lon="11.438150690335275"><ele>266.0</ele><time>2026-04-11T04:47:21Z</time></trkpt><trkpt lat="43.35461539721188" lon="11.43815082780278"><ele>266.0</ele><time>2026-04-11T04:47:23Z</time></trkpt><trkpt lat="43.35470293239965" lon="11.438163200629251"><ele>266.0</ele><time>2026-04-11T04:47:25Z</time></trkpt><trkpt lat="43.35478936424801" lon="11.43817900811246"><ele>266.40000000000003</ele><time>2026-04-11T04:47:27Z</time></trkpt><trkpt lat="43.35491940638835" lon="11.43819890191671"><ele>266.8</ele><time>2026-04-11T04:47:29Z</time></trkpt><trkpt lat="43.35503223125915" lon="11.438212158698052"><ele>267.20000000000005</ele><time>2026-04-11T04:47:31Z</time></trkpt><trkpt lat="43.35514457131473" lon="11.438218750841013"><ele>267.6</ele><time>2026-04-11T04:47:33Z</time></trkpt><trkpt lat="43.355213597423756" lon="11.438228019720363"><ele>268.0</ele><time>2026-04-11T04:47:35Z</time></trkpt><trkpt lat="43.35531922498987" lon="11.438249392535273"><ele>267.3333333333333</ele><time>2026-04-11T04:47:37Z</time></trkpt><trkpt lat="43.35560634167511" lon="11.438320900979507"><ele>266.6666666666667</ele><time>2026-04-11T04:47:39Z</time></trkpt><trkpt lat="43.35567278040129" lon="11.43832059787286"><ele>266.0</ele><time>2026-04-11T04:47:40Z</time></trkpt><trkpt lat="43.355796236128114" lon="11.438344394033564"><ele>266.0</ele><time>2026-04-11T04:47:42Z</time></trkpt><trkpt lat="43.355860961261875" lon="11.438377922759631"><ele>266.0</ele><time>2026-04-11T04:47:43Z</time></trkpt><trkpt lat="43.35598731148024" lon="11.438407911013071"><ele>266.0</ele><time>2026-04-11T04:47:45Z</time></trkpt><trkpt lat="43.356050902883204" lon="11.438423356050706"><ele>266.0</ele><time>2026-04-11T04:47:46Z</time></trkpt><trkpt lat="43.3561143813297" lon="11.438438773648961"><ele>266.0</ele><time>2026-04-11T04:47:47Z</time></trkpt><trkpt lat="43.35618029073907" lon="11.438434185065363"><ele>266.0</ele><time>2026-04-11T04:47:48Z</time></trkpt><trkpt lat="43.35624311580584" lon="11.438466224581846"><ele>266.0</ele><time>2026-04-11T04:47:49Z</time></trkpt><trkpt lat="43.3563068914799" lon="11.43845720252706"><ele>266.0</ele><time>2026-04-11T04:47:50Z</time></trkpt><trkpt lat="43.35642916575959" lon="11.438507084308817"><ele>266.0</ele><time>2026-04-11T04:47:52Z</time></trkpt><trkpt lat="43.35649338473375" lon="11.438510279311766"><ele>266.0</ele><time>2026-04-11T04:47:53Z</time></trkpt><trkpt lat="43.35661058077237" lon="11.438548657265057"><ele>266.0</ele><time>2026-04-11T04:47:55Z</time></trkpt><trkpt lat="43.35672811466873" lon="11.438561011925174"><ele>265.8</ele><time>2026-04-11T04:47:57Z</time></trkpt><trkpt lat="43.356817190364964" lon="11.43859447133645"><ele>265.6</ele><time>2026-04-11T04:47:59Z</time></trkpt><trkpt lat="43.356927458136745" lon="11.438601296716028"><ele>265.4</ele><time>2026-04-11T04:48:01Z</time></trkpt><trkpt lat="43.35703054683922" lon="11.438619828857261"><ele>265.2</ele><time>2026-04-11T04:48:03Z</time></trkpt><trkpt lat="43.357122988692105" lon="11.438612246512216"><ele>265.0</ele><time>2026-04-11T04:48:05Z</time></trkpt><trkpt lat="43.35722672254718" lon="11.438595838315324"><ele>265.0</ele><time>2026-04-11T04:48:07Z</time></trkpt><trkpt lat="43.35732826963224" lon="11.438549208563579"><ele>265.0</ele><time>2026-04-11T04:48:09Z</time></trkpt><trkpt lat="43.35742782050641" lon="11.438538559406771"><ele>265.0</ele><time>2026-04-11T04:48:11Z</time></trkpt><trkpt lat="43.35753428724164" lon="11.438503295923711"><ele>265.0</ele><time>2026-04-11T04:48:13Z</time></trkpt><trkpt lat="43.35763590514732" lon="11.438449393318784"><ele>265.0</ele><time>2026-04-11T04:48:15Z</time></trkpt><trkpt lat="43.357732378674484" lon="11.438437684878169"><ele>265.0</ele><time>2026-04-11T04:48:17Z</time></trkpt><trkpt lat="43.35782107672921" lon="11.438408306662026"><ele>265.0</ele><time>2026-04-11T04:48:19Z</time></trkpt><trkpt lat="43.35797604300094" lon="11.438340334809611"><ele>265.0</ele><time>2026-04-11T04:48:22Z</time></trkpt><trkpt lat="43.35806105228554" lon="11.438321023439208"><ele>265.0</ele><time>2026-04-11T04:48:24Z</time></trkpt><trkpt lat="43.35814563826899" lon="11.438257955423532"><ele>265.0</ele><time>2026-04-11T04:48:26Z</time></trkpt><trkpt lat="43.35821588040231" lon="11.438176103384167"><ele>265.4</ele><time>2026-04-11T04:48:28Z</time></trkpt><trkpt lat="43.358284921764124" lon="11.438076084083349"><ele>265.8</ele><time>2026-04-11T04:48:30Z</time></trkpt><trkpt lat="43.35832436552345" lon="11.437964727598759"><ele>266.2</ele><time>2026-04-11T04:48:32Z</time></trkpt><trkpt lat="43.35837139199131" lon="11.437864131599284"><ele>266.6</ele><time>2026-04-11T04:48:34Z</time></trkpt><trkpt lat="43.35840462205051" lon="11.437754127769285"><ele>267.0</ele><time>2026-04-11T04:48:36Z</time></trkpt><trkpt lat="43.35843047687754" lon="11.437629962370858"><ele>267.4</ele><time>2026-04-11T04:48:38Z</time></trkpt><trkpt lat="43.35843448262087" lon="11.437496057448566"><ele>267.79999999999995</ele><time>2026-04-11T04:48:40Z</time></trkpt><trkpt lat="43.3584358486244" lon="11.437372861326363"><ele>268.2</ele><time>2026-04-11T04:48:42Z</time></trkpt><trkpt lat="43.35841751523262" lon="11.437180350916032"><ele>268.59999999999997</ele><time>2026-04-11T04:48:45Z</time></trkpt><trkpt lat="43.35840431404802" lon="11.437062053825718"><ele>269.0</ele><time>2026-04-11T04:48:47Z</time></trkpt><trkpt lat="43.358387168895035" lon="11.436928496397847"><ele>269.0</ele><time>2026-04-11T04:48:49Z</time></trkpt><trkpt lat="43.358384782698415" lon="11.436803023014182"><ele>269.0</ele><time>2026-04-11T04:48:51Z</time></trkpt><trkpt lat="43.358390848484696" lon="11.436656687499541"><ele>269.0</ele><time>2026-04-11T04:48:53Z</time></trkpt><trkpt lat="43.35840685746882" lon="11.43651817900777"><ele>269.0</ele><time>2026-04-11T04:48:55Z</time></trkpt><trkpt lat="43.35843471369016" lon="11.436386208310163"><ele>269.0</ele><time>2026-04-11T04:48:57Z</time></trkpt><trkpt lat="43.358448979145145" lon="11.436251874705368"><ele>269.0</ele><time>2026-04-11T04:48:59Z</time></trkpt><trkpt lat="43.35847290469396" lon="11.436132525732607"><ele>269.0</ele><time>2026-04-11T04:49:01Z</time></trkpt><trkpt lat="43.35849217618434" lon="11.435990998387979"><ele>269.0</ele><time>2026-04-11T04:49:03Z</time></trkpt><trkpt lat="43.35850697405512" lon="11.435871713805694"><ele>269.0</ele><time>2026-04-11T04:49:05Z</time></trkpt><trkpt lat="43.35853166561917" lon="11.43572912359148"><ele>269.0</ele><time>2026-04-11T04:49:07Z</time></trkpt><trkpt lat="43.358578010557025" lon="11.435598228061934"><ele>269.5</ele><time>2026-04-11T04:49:09Z</time></trkpt><trkpt lat="43.35862365288586" lon="11.435464725040283"><ele>270.0</ele><time>2026-04-11T04:49:11Z</time></trkpt><trkpt lat="43.3586628905118" lon="11.43533397326434"><ele>270.5</ele><time>2026-04-11T04:49:13Z</time></trkpt><trkpt lat="43.358716017521" lon="11.435189276100497"><ele>271.0</ele><time>2026-04-11T04:49:15Z</time></trkpt><trkpt lat="43.35877357686005" lon="11.435033245326816"><ele>271.0</ele><time>2026-04-11T04:49:17Z</time></trkpt><trkpt lat="43.35882799013731" lon="11.434887500819391"><ele>271.0</ele><time>2026-04-11T04:49:19Z</time></trkpt><trkpt lat="43.35888573133047" lon="11.434746477679163"><ele>271.0</ele><time>2026-04-11T04:49:21Z</time></trkpt><trkpt lat="43.358926760793594" lon="11.434593357783685"><ele>271.0</ele><time>2026-04-11T04:49:23Z</time></trkpt><trkpt lat="43.35895303086596" lon="11.434430835680145"><ele>269.85714285714283</ele><time>2026-04-11T04:49:25Z</time></trkpt><trkpt lat="43.358962786606575" lon="11.434344510496155"><ele>268.7142857142857</ele><time>2026-04-11T04:49:26Z</time></trkpt><trkpt lat="43.35897016957249" lon="11.434248181724083"><ele>267.57142857142856</ele><time>2026-04-11T04:49:27Z</time></trkpt><trkpt lat="43.35897477176576" lon="11.43414742392572"><ele>266.42857142857144</ele><time>2026-04-11T04:49:28Z</time></trkpt><trkpt lat="43.358973944072694" lon="11.434047583171521"><ele>265.2857142857143</ele><time>2026-04-11T04:49:29Z</time></trkpt><trkpt lat="43.35897583152026" lon="11.43394999513698"><ele>264.1428571428571</ele><time>2026-04-11T04:49:30Z</time></trkpt><trkpt lat="43.358968330291184" lon="11.433851849134578"><ele>263.0</ele><time>2026-04-11T04:49:31Z</time></trkpt><trkpt lat="43.35895857772259" lon="11.43375152159637"><ele>262.5</ele><time>2026-04-11T04:49:32Z</time></trkpt><trkpt lat="43.35894581866626" lon="11.43365010729237"><ele>262.0</ele><time>2026-04-11T04:49:33Z</time></trkpt><trkpt lat="43.35892531177019" lon="11.433551136853017"><ele>261.5</ele><time>2026-04-11T04:49:34Z</time></trkpt><trkpt lat="43.35890897946174" lon="11.433448676360042"><ele>261.0</ele><time>2026-04-11T04:49:35Z</time></trkpt><trkpt lat="43.35889651467753" lon="11.433346660020892"><ele>260.5</ele><time>2026-04-11T04:49:36Z</time></trkpt><trkpt lat="43.35888328553279" lon="11.433241280180455"><ele>260.0</ele><time>2026-04-11T04:49:37Z</time></trkpt><trkpt lat="43.35887089361725" lon="11.433136145329621"><ele>260.5</ele><time>2026-04-11T04:49:38Z</time></trkpt><trkpt lat="43.358861654902014" lon="11.433029788251089"><ele>261.0</ele><time>2026-04-11T04:49:39Z</time></trkpt><trkpt lat="43.35885835380797" lon="11.432924587108257"><ele>261.5</ele><time>2026-04-11T04:49:40Z</time></trkpt><trkpt lat="43.35885400667848" lon="11.432820209061648"><ele>262.0</ele><time>2026-04-11T04:49:41Z</time></trkpt><trkpt lat="43.358851603205316" lon="11.4327115416461"><ele>262.5</ele><time>2026-04-11T04:49:42Z</time></trkpt><trkpt lat="43.35884889055179" lon="11.432601614413882"><ele>263.0</ele><time>2026-04-11T04:49:43Z</time></trkpt><trkpt lat="43.358853264234554" lon="11.432493003518063"><ele>263.0</ele><time>2026-04-11T04:49:44Z</time></trkpt><trkpt lat="43.358858352233746" lon="11.432382228587924"><ele>263.0</ele><time>2026-04-11T04:49:45Z</time></trkpt><trkpt lat="43.35887330614973" lon="11.432274321289029"><ele>263.0</ele><time>2026-04-11T04:49:46Z</time></trkpt><trkpt lat="43.35889190183805" lon="11.432163472941154"><ele>263.0</ele><time>2026-04-11T04:49:47Z</time></trkpt><trkpt lat="43.35891585736961" lon="11.432060109188882"><ele>263.0</ele><time>2026-04-11T04:49:48Z</time></trkpt><trkpt lat="43.35893866189913" lon="11.431950989902724"><ele>263.0</ele><time>2026-04-11T04:49:49Z</time></trkpt><trkpt lat="43.35896218379479" lon="11.431841563396285"><ele>263.1666666666667</ele><time>2026-04-11T04:49:50Z</time></trkpt><trkpt lat="43.35898428219824" lon="11.43172507433948"><ele>263.33333333333337</ele><time>2026-04-11T04:49:51Z</time></trkpt><trkpt lat="43.359010772297474" lon="11.431607810241903"><ele>263.5</ele><time>2026-04-11T04:49:52Z</time></trkpt><trkpt lat="43.359043867176524" lon="11.431483482196974"><ele>263.6666666666667</ele><time>2026-04-11T04:49:53Z</time></trkpt><trkpt lat="43.359063164537865" lon="11.431365148282383"><ele>263.8333333333333</ele><time>2026-04-11T04:49:54Z</time></trkpt><trkpt lat="43.35908855653812" lon="11.431249923864575"><ele>264.0</ele><time>2026-04-11T04:49:55Z</time></trkpt><trkpt lat="43.359114562192424" lon="11.431133448985719"><ele>264.0</ele><time>2026-04-11T04:49:56Z</time></trkpt><trkpt lat="43.359139024768474" lon="11.43101773672715"><ele>264.0</ele><time>2026-04-11T04:49:57Z</time></trkpt><trkpt lat="43.359159118855246" lon="11.430902729802998"><ele>264.0</ele><time>2026-04-11T04:49:58Z</time></trkpt><trkpt lat="43.35917918154379" lon="11.4307882936989"><ele>264.0</ele><time>2026-04-11T04:49:59Z</time></trkpt><trkpt lat="43.35919448751586" lon="11.43067351747006"><ele>264.0</ele><time>2026-04-11T04:50:00Z</time></trkpt><trkpt lat="43.359214262285136" lon="11.430560687726022"><ele>264.0</ele><time>2026-04-11T04:50:01Z</time></trkpt><trkpt lat="43.359228413512014" lon="11.43044749042475"><ele>264.1666666666667</ele><time>2026-04-11T04:50:02Z</time></trkpt><trkpt lat="43.35923225998425" lon="11.430328963456326"><ele>264.3333333333333</ele><time>2026-04-11T04:50:03Z</time></trkpt><trkpt lat="43.35923370652223" lon="11.430207149770636"><ele>264.5</ele><time>2026-04-11T04:50:04Z</time></trkpt><trkpt lat="43.35922921701983" lon="11.430089467558686"><ele>264.66666666666663</ele><time>2026-04-11T04:50:05Z</time></trkpt><trkpt lat="43.359221835663185" lon="11.429970070423215"><ele>264.8333333333333</ele><time>2026-04-11T04:50:06Z</time></trkpt><trkpt lat="43.359217676574474" lon="11.429851315166793"><ele>265.0</ele><time>2026-04-11T04:50:07Z</time></trkpt><trkpt lat="43.359202466285616" lon="11.429734807458981"><ele>263.8</ele><time>2026-04-11T04:50:08Z</time></trkpt><trkpt lat="43.3591868951471" lon="11.429607860444618"><ele>262.6</ele><time>2026-04-11T04:50:09Z</time></trkpt><trkpt lat="43.35916420073321" lon="11.429486399956538"><ele>261.4</ele><time>2026-04-11T04:50:10Z</time></trkpt><trkpt lat="43.359134833804966" lon="11.429355844778659"><ele>260.2</ele><time>2026-04-11T04:50:11Z</time></trkpt><trkpt lat="43.35909672515308" lon="11.429229528409937"><ele>259.0</ele><time>2026-04-11T04:50:12Z</time></trkpt><trkpt lat="43.359055025981405" lon="11.429115998283544"><ele>259.0</ele><time>2026-04-11T04:50:13Z</time></trkpt><trkpt lat="43.35901708133249" lon="11.428998455397464"><ele>259.0</ele><time>2026-04-11T04:50:14Z</time></trkpt><trkpt lat="43.358972081721284" lon="11.42888295376053"><ele>259.0</ele><time>2026-04-11T04:50:15Z</time></trkpt><trkpt lat="43.3589202452013" lon="11.42877414544638"><ele>259.0</ele><time>2026-04-11T04:50:16Z</time></trkpt><trkpt lat="43.35886486450973" lon="11.428680923346839"><ele>259.0</ele><time>2026-04-11T04:50:17Z</time></trkpt><trkpt lat="43.35879737651981" lon="11.428597763495008"><ele>260.3333333333333</ele><time>2026-04-11T04:50:18Z</time></trkpt><trkpt lat="43.358730783640816" lon="11.428511369842623"><ele>261.66666666666663</ele><time>2026-04-11T04:50:19Z</time></trkpt><trkpt lat="43.358671235917214" lon="11.428428293940076"><ele>263.0</ele><time>2026-04-11T04:50:20Z</time></trkpt><trkpt lat="43.35860965403526" lon="11.428344492725593"><ele>264.3333333333333</ele><time>2026-04-11T04:50:21Z</time></trkpt><trkpt lat="43.35854929697389" lon="11.428265316706241"><ele>265.6666666666667</ele><time>2026-04-11T04:50:22Z</time></trkpt><trkpt lat="43.35848805018787" lon="11.428183346955558"><ele>267.0</ele><time>2026-04-11T04:50:23Z</time></trkpt><trkpt lat="43.358433962077505" lon="11.428104824892488"><ele>267.0</ele><time>2026-04-11T04:50:24Z</time></trkpt><trkpt lat="43.35838070666795" lon="11.42801854951257"><ele>267.0</ele><time>2026-04-11T04:50:25Z</time></trkpt><trkpt lat="43.358325192534096" lon="11.427923942515589"><ele>267.0</ele><time>2026-04-11T04:50:26Z</time></trkpt><trkpt lat="43.358270829112065" lon="11.42783189531222"><ele>267.0</ele><time>2026-04-11T04:50:27Z</time></trkpt><trkpt lat="43.35821960477117" lon="11.427738945929017"><ele>267.0</ele><time>2026-04-11T04:50:28Z</time></trkpt><trkpt lat="43.358173295511314" lon="11.427653976381604"><ele>267.0</ele><time>2026-04-11T04:50:29Z</time></trkpt><trkpt lat="43.3581224501273" lon="11.42756677111528"><ele>266.3333333333333</ele><time>2026-04-11T04:50:30Z</time></trkpt><trkpt lat="43.358072061965196" lon="11.427475754225995"><ele>265.6666666666667</ele><time>2026-04-11T04:50:31Z</time></trkpt><trkpt lat="43.35801914322223" lon="11.427394463049486"><ele>265.0</ele><time>2026-04-11T04:50:32Z</time></trkpt><trkpt lat="43.35795753347603" lon="11.427312466691324"><ele>264.33333333333337</ele><time>2026-04-11T04:50:33Z</time></trkpt><trkpt lat="43.35789308159219" lon="11.427242808334793"><ele>263.6666666666667</ele><time>2026-04-11T04:50:34Z</time></trkpt><trkpt lat="43.35782478504183" lon="11.427180894822635"><ele>263.0</ele><time>2026-04-11T04:50:35Z</time></trkpt><trkpt lat="43.35775513038773" lon="11.427129267659819"><ele>261.33333333333337</ele><time>2026-04-11T04:50:36Z</time></trkpt><trkpt lat="43.35767619399163" lon="11.427074975584963"><ele>259.6666666666667</ele><time>2026-04-11T04:50:37Z</time></trkpt><trkpt lat="43.35759914108897" lon="11.427030772034167"><ele>258.0</ele><time>2026-04-11T04:50:38Z</time></trkpt><trkpt lat="43.35752005630555" lon="11.42698756803068"><ele>256.3333333333333</ele><time>2026-04-11T04:50:39Z</time></trkpt><trkpt lat="43.35744427630024" lon="11.426937016291516"><ele>254.66666666666666</ele><time>2026-04-11T04:50:40Z</time></trkpt><trkpt lat="43.35735971346538" lon="11.426886025376001"><ele>253.0</ele><time>2026-04-11T04:50:41Z</time></trkpt><trkpt lat="43.35728045855045" lon="11.426835000714993"><ele>253.60000000000002</ele><time>2026-04-11T04:50:42Z</time></trkpt><trkpt lat="43.35719362438926" lon="11.426779680533906"><ele>254.20000000000002</ele><time>2026-04-11T04:50:43Z</time></trkpt><trkpt lat="43.35710450907774" lon="11.426723220693543"><ele>254.8</ele><time>2026-04-11T04:50:44Z</time></trkpt><trkpt lat="43.357025911182504" lon="11.426645993463154"><ele>255.4</ele><time>2026-04-11T04:50:45Z</time></trkpt><trkpt lat="43.356935020376845" lon="11.426584342200115"><ele>256.0</ele><time>2026-04-11T04:50:46Z</time></trkpt><trkpt lat="43.35684094568852" lon="11.426519648523698"><ele>256.0</ele><time>2026-04-11T04:50:47Z</time></trkpt><trkpt lat="43.35675133058987" lon="11.426453465946784"><ele>256.0</ele><time>2026-04-11T04:50:48Z</time></trkpt><trkpt lat="43.35665832422354" lon="11.426380664180378"><ele>256.0</ele><time>2026-04-11T04:50:49Z</time></trkpt><trkpt lat="43.3565711483928" lon="11.42629859408747"><ele>256.0</ele><time>2026-04-11T04:50:50Z</time></trkpt><trkpt lat="43.35648322932609" lon="11.426198237178259"><ele>256.0</ele><time>2026-04-11T04:50:51Z</time></trkpt><trkpt lat="43.35640186130351" lon="11.426090684904894"><ele>253.5</ele><time>2026-04-11T04:50:52Z</time></trkpt><trkpt lat="43.35631857427927" lon="11.425981098487286"><ele>251.0</ele><time>2026-04-11T04:50:53Z</time></trkpt><trkpt lat="43.35622068363208" lon="11.425883281994626"><ele>248.5</ele><time>2026-04-11T04:50:54Z</time></trkpt><trkpt lat="43.35614347673773" lon="11.425749409779543"><ele>246.0</ele><time>2026-04-11T04:50:55Z</time></trkpt><trkpt lat="43.356055602257236" lon="11.42563283597406"><ele>246.0</ele><time>2026-04-11T04:50:56Z</time></trkpt><trkpt lat="43.35595462369031" lon="11.425529902308407"><ele>246.0</ele><time>2026-04-11T04:50:57Z</time></trkpt><trkpt lat="43.35586902800442" lon="11.425410930783874"><ele>246.0</ele><time>2026-04-11T04:50:58Z</time></trkpt><trkpt lat="43.35577956326912" lon="11.425292377433632"><ele>246.0</ele><time>2026-04-11T04:50:59Z</time></trkpt><trkpt lat="43.355695977366274" lon="11.425167589641353"><ele>244.5</ele><time>2026-04-11T04:51:00Z</time></trkpt><trkpt lat="43.35560836880922" lon="11.425051300394097"><ele>243.0</ele><time>2026-04-11T04:51:01Z</time></trkpt><trkpt lat="43.35551849894325" lon="11.424932019859982"><ele>241.5</ele><time>2026-04-11T04:51:02Z</time></trkpt><trkpt lat="43.355431730608274" lon="11.424813746686919"><ele>240.0</ele><time>2026-04-11T04:51:03Z</time></trkpt><trkpt lat="43.35534368747432" lon="11.424698297652744"><ele>239.0</ele><time>2026-04-11T04:51:04Z</time></trkpt><trkpt lat="43.355257231867064" lon="11.424584684372372"><ele>238.0</ele><time>2026-04-11T04:51:05Z</time></trkpt><trkpt lat="43.35517362281423" lon="11.424480592183583"><ele>237.0</ele><time>2026-04-11T04:51:06Z</time></trkpt><trkpt lat="43.35509301011598" lon="11.424368012876707"><ele>236.0</ele><time>2026-04-11T04:51:07Z</time></trkpt><trkpt lat="43.35502256706683" lon="11.424251872882767"><ele>236.0</ele><time>2026-04-11T04:51:08Z</time></trkpt><trkpt lat="43.354963309644454" lon="11.424124627456925"><ele>236.0</ele><time>2026-04-11T04:51:09Z</time></trkpt><trkpt lat="43.354935472937086" lon="11.42397950198378"><ele>236.0</ele><time>2026-04-11T04:51:10Z</time></trkpt><trkpt lat="43.354962563104195" lon="11.423820365139564"><ele>236.0</ele><time>2026-04-11T04:51:11Z</time></trkpt><trkpt lat="43.354997004491274" lon="11.423667013421863"><ele>235.0</ele><time>2026-04-11T04:51:12Z</time></trkpt><trkpt lat="43.35503644587995" lon="11.42352018692792"><ele>234.0</ele><time>2026-04-11T04:51:13Z</time></trkpt><trkpt lat="43.355068170181205" lon="11.42337013728562"><ele>233.0</ele><time>2026-04-11T04:51:14Z</time></trkpt><trkpt lat="43.35511028935773" lon="11.423215515596914"><ele>232.0</ele><time>2026-04-11T04:51:15Z</time></trkpt><trkpt lat="43.35515370128292" lon="11.42306325256769"><ele>230.25</ele><time>2026-04-11T04:51:16Z</time></trkpt><trkpt lat="43.35519165573547" lon="11.422908593284808"><ele>228.5</ele><time>2026-04-11T04:51:17Z</time></trkpt><trkpt lat="43.35522891301123" lon="11.422749811905375"><ele>226.75</ele><time>2026-04-11T04:51:18Z</time></trkpt><trkpt lat="43.35525739119134" lon="11.4225880788155"><ele>225.0</ele><time>2026-04-11T04:51:19Z</time></trkpt><trkpt lat="43.355285273678305" lon="11.42242563760329"><ele>225.0</ele><time>2026-04-11T04:51:20Z</time></trkpt><trkpt lat="43.35530612166419" lon="11.422262353093586"><ele>225.0</ele><time>2026-04-11T04:51:21Z</time></trkpt><trkpt lat="43.355322202824745" lon="11.422097855662821"><ele>225.0</ele><time>2026-04-11T04:51:22Z</time></trkpt><trkpt lat="43.35533349214084" lon="11.421932241192888"><ele>225.0</ele><time>2026-04-11T04:51:23Z</time></trkpt><trkpt lat="43.35534424967569" lon="11.421768310055445"><ele>223.25</ele><time>2026-04-11T04:51:24Z</time></trkpt><trkpt lat="43.35535824667491" lon="11.421603756072706"><ele>221.5</ele><time>2026-04-11T04:51:25Z</time></trkpt><trkpt lat="43.3553757146065" lon="11.421444466035489"><ele>219.75</ele><time>2026-04-11T04:51:26Z</time></trkpt><trkpt lat="43.35540000901331" lon="11.421288065887854"><ele>218.0</ele><time>2026-04-11T04:51:27Z</time></trkpt><trkpt lat="43.35542314784234" lon="11.42113028897813"><ele>217.8</ele><time>2026-04-11T04:51:28Z</time></trkpt><trkpt lat="43.35544591502759" lon="11.420978730179595"><ele>217.60000000000002</ele><time>2026-04-11T04:51:29Z</time></trkpt><trkpt lat="43.355469251825326" lon="11.420826382166224"><ele>217.39999999999998</ele><time>2026-04-11T04:51:30Z</time></trkpt><trkpt lat="43.35549594820987" lon="11.420683740903428"><ele>217.2</ele><time>2026-04-11T04:51:31Z</time></trkpt><trkpt lat="43.3555223791687" lon="11.420539651259746"><ele>217.0</ele><time>2026-04-11T04:51:32Z</time></trkpt><trkpt lat="43.35555200828935" lon="11.420405502225229"><ele>217.0</ele><time>2026-04-11T04:51:33Z</time></trkpt><trkpt lat="43.355574699570546" lon="11.420269181571093"><ele>217.0</ele><time>2026-04-11T04:51:34Z</time></trkpt><trkpt lat="43.35560504428213" lon="11.42014238824133"><ele>217.0</ele><time>2026-04-11T04:51:35Z</time></trkpt><trkpt lat="43.35563176647083" lon="11.420009310617951"><ele>217.0</ele><time>2026-04-11T04:51:36Z</time></trkpt><trkpt lat="43.35566232069203" lon="11.419876317230026"><ele>217.0</ele><time>2026-04-11T04:51:37Z</time></trkpt><trkpt lat="43.355698004388906" lon="11.419745308839754"><ele>216.8</ele><time>2026-04-11T04:51:38Z</time></trkpt><trkpt lat="43.35573679816036" lon="11.419619083482873"><ele>216.6</ele><time>2026-04-11T04:51:39Z</time></trkpt><trkpt lat="43.3557857218071" lon="11.419500491061989"><ele>216.40000000000003</ele><time>2026-04-11T04:51:40Z</time></trkpt><trkpt lat="43.35583234907759" lon="11.419383083591253"><ele>216.20000000000002</ele><time>2026-04-11T04:51:41Z</time></trkpt><trkpt lat="43.3558797126355" lon="11.419270142148632"><ele>216.0</ele><time>2026-04-11T04:51:42Z</time></trkpt><trkpt lat="43.35592749080923" lon="11.419161705323509"><ele>216.0</ele><time>2026-04-11T04:51:43Z</time></trkpt><trkpt lat="43.3559764023762" lon="11.419057729972062"><ele>216.0</ele><time>2026-04-11T04:51:44Z</time></trkpt><trkpt lat="43.35602702097398" lon="11.418955897053701"><ele>216.0</ele><time>2026-04-11T04:51:45Z</time></trkpt><trkpt lat="43.356071485603145" lon="11.418857997785748"><ele>216.0</ele><time>2026-04-11T04:51:46Z</time></trkpt><trkpt lat="43.35611753482804" lon="11.418763292024705"><ele>216.0</ele><time>2026-04-11T04:51:47Z</time></trkpt><trkpt lat="43.356159068150035" lon="11.418670930272325"><ele>216.0</ele><time>2026-04-11T04:51:48Z</time></trkpt><trkpt lat="43.35620218598196" lon="11.418580873825233"><ele>216.14285714285714</ele><time>2026-04-11T04:51:49Z</time></trkpt><trkpt lat="43.35624396346607" lon="11.418492534002471"><ele>216.28571428571428</ele><time>2026-04-11T04:51:50Z</time></trkpt><trkpt lat="43.356282457288025" lon="11.418401746808465"><ele>216.42857142857144</ele><time>2026-04-11T04:51:51Z</time></trkpt><trkpt lat="43.3563167898837" lon="11.418314772084582"><ele>216.57142857142856</ele><time>2026-04-11T04:51:52Z</time></trkpt><trkpt lat="43.35635577231219" lon="11.418229693290423"><ele>216.71428571428572</ele><time>2026-04-11T04:51:53Z</time></trkpt><trkpt lat="43.35639512713462" lon="11.418149225318368"><ele>216.85714285714286</ele><time>2026-04-11T04:51:54Z</time></trkpt><trkpt lat="43.35643424511768" lon="11.418066409796555"><ele>217.0</ele><time>2026-04-11T04:51:55Z</time></trkpt><trkpt lat="43.356475344981895" lon="11.417989389688518"><ele>217.33333333333331</ele><time>2026-04-11T04:51:56Z</time></trkpt><trkpt lat="43.356510675229785" lon="11.417912990128483"><ele>217.66666666666666</ele><time>2026-04-11T04:51:57Z</time></trkpt><trkpt lat="43.35654731600395" lon="11.417835636351258"><ele>218.0</ele><time>2026-04-11T04:51:58Z</time></trkpt><trkpt lat="43.3565799028625" lon="11.417758503708024"><ele>218.33333333333331</ele><time>2026-04-11T04:51:59Z</time></trkpt><trkpt lat="43.35661695744743" lon="11.41768063625473"><ele>218.66666666666666</ele><time>2026-04-11T04:52:00Z</time></trkpt><trkpt lat="43.35665574916034" lon="11.41760667946799"><ele>219.0</ele><time>2026-04-11T04:52:01Z</time></trkpt><trkpt lat="43.35672174840512" lon="11.417468021513073"><ele>219.0</ele><time>2026-04-11T04:52:03Z</time></trkpt><trkpt lat="43.35677164908277" lon="11.417328700491845"><ele>218.99999999999997</ele><time>2026-04-11T04:52:05Z</time></trkpt><trkpt lat="43.356816868895685" lon="11.41720375006508"><ele>218.99999999999997</ele><time>2026-04-11T04:52:07Z</time></trkpt><trkpt lat="43.35683727673605" lon="11.417077355762114"><ele>219.0</ele><time>2026-04-11T04:52:09Z</time></trkpt><trkpt lat="43.356846699614266" lon="11.41696189609091"><ele>219.0</ele><time>2026-04-11T04:52:11Z</time></trkpt><trkpt lat="43.35686043283584" lon="11.416872058844044"><ele>219.0</ele><time>2026-04-11T04:52:13Z</time></trkpt><trkpt lat="43.35689176656622" lon="11.41677138997665"><ele>219.0</ele><time>2026-04-11T04:52:17Z</time></trkpt><trkpt lat="43.356871621535525" lon="11.416653731272632"><ele>219.0</ele><time>2026-04-11T04:52:20Z</time></trkpt><trkpt lat="43.35682273596912" lon="11.416566035747056"><ele>219.0</ele><time>2026-04-11T04:52:22Z</time></trkpt><trkpt lat="43.356765409262245" lon="11.416464302072548"><ele>219.0</ele><time>2026-04-11T04:52:24Z</time></trkpt><trkpt lat="43.35670418471463" lon="11.41635810570551"><ele>219.0</ele><time>2026-04-11T04:52:26Z</time></trkpt><trkpt lat="43.35664618681343" lon="11.416260109228636"><ele>219.39999999999998</ele><time>2026-04-11T04:52:28Z</time></trkpt><trkpt lat="43.35658804292721" lon="11.416158307158007"><ele>219.79999999999998</ele><time>2026-04-11T04:52:30Z</time></trkpt><trkpt lat="43.35652353569988" lon="11.416060270847783"><ele>220.20000000000002</ele><time>2026-04-11T04:52:32Z</time></trkpt><trkpt lat="43.3564556336027" lon="11.415958497424107"><ele>220.60000000000002</ele><time>2026-04-11T04:52:34Z</time></trkpt><trkpt lat="43.35639615037893" lon="11.415860660167418"><ele>221.0</ele><time>2026-04-11T04:52:36Z</time></trkpt><trkpt lat="43.356349208794086" lon="11.415745217599252"><ele>221.00000000000003</ele><time>2026-04-11T04:52:38Z</time></trkpt><trkpt lat="43.35635505213943" lon="11.415630582021292"><ele>221.0</ele><time>2026-04-11T04:52:41Z</time></trkpt><trkpt lat="43.3563813939961" lon="11.4155302992471"><ele>221.0</ele><time>2026-04-11T04:52:44Z</time></trkpt><trkpt lat="43.35639945736348" lon="11.415433590055498"><ele>221.0</ele><time>2026-04-11T04:52:47Z</time></trkpt><trkpt lat="43.35641527457764" lon="11.415334565759053"><ele>221.00000000000003</ele><time>2026-04-11T04:52:50Z</time></trkpt><trkpt lat="43.356429058820325" lon="11.415230771446243"><ele>221.0</ele><time>2026-04-11T04:52:53Z</time></trkpt><trkpt lat="43.3564366054852" lon="11.415119316078897"><ele>221.8571428571429</ele><time>2026-04-11T04:52:56Z</time></trkpt><trkpt lat="43.35645466023589" lon="11.415016715092555"><ele>222.71428571428572</ele><time>2026-04-11T04:52:59Z</time></trkpt><trkpt lat="43.356475876824874" lon="11.414920609396674"><ele>223.57142857142858</ele><time>2026-04-11T04:53:02Z</time></trkpt><trkpt lat="43.356486750798794" lon="11.414828516958824"><ele>224.42857142857144</ele><time>2026-04-11T04:53:05Z</time></trkpt><trkpt lat="43.35651465706283" lon="11.41474919404183"><ele>225.2857142857143</ele><time>2026-04-11T04:53:08Z</time></trkpt><trkpt lat="43.35655052195904" lon="11.414675759608453"><ele>226.14285714285717</ele><time>2026-04-11T04:53:12Z</time></trkpt><trkpt lat="43.35656438180815" lon="11.414575330079904"><ele>227.0</ele><time>2026-04-11T04:55:31Z</time></trkpt><trkpt lat="43.3565854136461" lon="11.414447838013245"><ele>227.66666666666669</ele><time>2026-04-11T04:55:34Z</time></trkpt><trkpt lat="43.35660611010162" lon="11.414363189102682"><ele>228.33333333333334</ele><time>2026-04-11T04:55:36Z</time></trkpt><trkpt lat="43.35661659485535" lon="11.414239677721408"><ele>229.0</ele><time>2026-04-11T04:55:39Z</time></trkpt><trkpt lat="43.356643060036774" lon="11.41412376295904"><ele>229.66666666666669</ele><time>2026-04-11T04:55:42Z</time></trkpt><trkpt lat="43.356665729212274" lon="11.414037762726542"><ele>230.33333333333334</ele><time>2026-04-11T04:55:44Z</time></trkpt><trkpt lat="43.35669498937482" lon="11.413950538610457"><ele>231.0</ele><time>2026-04-11T04:55:46Z</time></trkpt><trkpt lat="43.35672143524936" lon="11.41385146814491"><ele>231.42857142857144</ele><time>2026-04-11T04:55:48Z</time></trkpt><trkpt lat="43.35674466199781" lon="11.413758276007092"><ele>231.85714285714286</ele><time>2026-04-11T04:55:50Z</time></trkpt><trkpt lat="43.35676796591785" lon="11.413647518126945"><ele>232.28571428571428</ele><time>2026-04-11T04:55:54Z</time></trkpt><trkpt lat="43.35678140367543" lon="11.413540248864372"><ele>232.71428571428572</ele><time>2026-04-11T04:55:57Z</time></trkpt><trkpt lat="43.35681410990734" lon="11.413459350339258"><ele>233.14285714285717</ele><time>2026-04-11T04:55:59Z</time></trkpt><trkpt lat="43.35684431690179" lon="11.413373044051728"><ele>233.57142857142858</ele><time>2026-04-11T04:56:02Z</time></trkpt><trkpt lat="43.356881893317954" lon="11.413297848112153"><ele>234.0</ele><time>2026-04-11T04:56:04Z</time></trkpt><trkpt lat="43.356921541024526" lon="11.41319403230155"><ele>234.0</ele><time>2026-04-11T04:56:07Z</time></trkpt><trkpt lat="43.356959653763866" lon="11.413092212140024"><ele>234.0</ele><time>2026-04-11T04:56:10Z</time></trkpt><trkpt lat="43.35697992346391" lon="11.412994086643797"><ele>234.0</ele><time>2026-04-11T04:56:13Z</time></trkpt><trkpt lat="43.35701849257922" lon="11.41288750850703"><ele>234.0</ele><time>2026-04-11T04:56:16Z</time></trkpt><trkpt lat="43.35707085203232" lon="11.412777638244103"><ele>234.0</ele><time>2026-04-11T04:56:19Z</time></trkpt><trkpt lat="43.35712621710358" lon="11.412670757751277"><ele>234.0</ele><time>2026-04-11T04:56:22Z</time></trkpt><trkpt lat="43.357185522829035" lon="11.412604054225039"><ele>236.0</ele><time>2026-04-11T04:56:25Z</time></trkpt><trkpt lat="43.357243186056316" lon="11.412514520209708"><ele>238.0</ele><time>2026-04-11T04:56:28Z</time></trkpt><trkpt lat="43.35734855257574" lon="11.412440016491608"><ele>240.0</ele><time>2026-04-11T04:56:33Z</time></trkpt><trkpt lat="43.3574715700099" lon="11.412426889113489"><ele>242.0</ele><time>2026-04-11T04:56:37Z</time></trkpt><trkpt lat="43.357652263377695" lon="11.41243791870295"><ele>242.0</ele><time>2026-04-11T04:56:43Z</time></trkpt><trkpt lat="43.357726614009" lon="11.412448042014748"><ele>242.0</ele><time>2026-04-11T04:56:45Z</time></trkpt><trkpt lat="43.357816036404124" lon="11.41246315652851"><ele>242.0</ele><time>2026-04-11T04:56:48Z</time></trkpt><trkpt lat="43.35792401012377" lon="11.412465631420973"><ele>242.0</ele><time>2026-04-11T04:56:52Z</time></trkpt><trkpt lat="43.358110032683626" lon="11.412477776565245"><ele>243.0</ele><time>2026-04-11T04:56:58Z</time></trkpt><trkpt lat="43.35818855011399" lon="11.41246662694802"><ele>244.0</ele><time>2026-04-11T04:57:01Z</time></trkpt><trkpt lat="43.35828378031517" lon="11.412452144580223"><ele>245.0</ele><time>2026-04-11T04:57:04Z</time></trkpt><trkpt lat="43.35843206328266" lon="11.412448636488213"><ele>246.0</ele><time>2026-04-11T04:57:09Z</time></trkpt><trkpt lat="43.358509442328334" lon="11.412403022682438"><ele>247.0</ele><time>2026-04-11T04:57:12Z</time></trkpt><trkpt lat="43.35857007579116" lon="11.412343021537932"><ele>246.99999999999997</ele><time>2026-04-11T04:57:15Z</time></trkpt><trkpt lat="43.35862241720528" lon="11.412274363589654"><ele>247.0</ele><time>2026-04-11T04:57:17Z</time></trkpt><trkpt lat="43.358687043659415" lon="11.412208503814778"><ele>247.0</ele><time>2026-04-11T04:57:20Z</time></trkpt><trkpt lat="43.35872056020974" lon="11.412115558170003"><ele>247.0</ele><time>2026-04-11T04:57:23Z</time></trkpt><trkpt lat="43.35875344706798" lon="11.412011350992175"><ele>246.99999999999997</ele><time>2026-04-11T04:57:26Z</time></trkpt><trkpt lat="43.35877134181799" lon="11.411895525173327"><ele>247.0</ele><time>2026-04-11T04:57:29Z</time></trkpt><trkpt lat="43.35880743773361" lon="11.4117862684681"><ele>248.49999999999997</ele><time>2026-04-11T04:57:32Z</time></trkpt><trkpt lat="43.35882945304429" lon="11.411681395685422"><ele>250.0</ele><time>2026-04-11T04:57:35Z</time></trkpt><trkpt lat="43.35886662844571" lon="11.411579621977486"><ele>251.5</ele><time>2026-04-11T04:57:38Z</time></trkpt><trkpt lat="43.358905593545224" lon="11.411465636552323"><ele>253.0</ele><time>2026-04-11T04:57:40Z</time></trkpt><trkpt lat="43.35894739277887" lon="11.411384779786625"><ele>254.49999999999997</ele><time>2026-04-11T04:57:43Z</time></trkpt><trkpt lat="43.358945438678404" lon="11.411293234205164"><ele>256.0</ele><time>2026-04-11T04:57:45Z</time></trkpt><trkpt lat="43.3590066625984" lon="11.411198430264252"><ele>257.3333333333333</ele><time>2026-04-11T04:57:48Z</time></trkpt><trkpt lat="43.359060781970356" lon="11.41111562835069"><ele>258.66666666666663</ele><time>2026-04-11T04:57:50Z</time></trkpt><trkpt lat="43.35912165720234" lon="11.411060687122118"><ele>260.0</ele><time>2026-04-11T04:57:53Z</time></trkpt><trkpt lat="43.35920181307821" lon="11.4110639713428"><ele>261.3333333333333</ele><time>2026-04-11T04:57:56Z</time></trkpt><trkpt lat="43.35927509301015" lon="11.411099251066576"><ele>262.6666666666667</ele><time>2026-04-11T04:57:59Z</time></trkpt><trkpt lat="43.35935593206021" lon="11.411188076198172"><ele>264.0</ele><time>2026-04-11T04:58:02Z</time></trkpt><trkpt lat="43.359404939237834" lon="11.411246176212366"><ele>264.0</ele><time>2026-04-11T04:58:03Z</time></trkpt><trkpt lat="43.35946215788003" lon="11.411302920849097"><ele>264.0</ele><time>2026-04-11T04:58:05Z</time></trkpt><trkpt lat="43.359502960862166" lon="11.411382057144955"><ele>264.0</ele><time>2026-04-11T04:58:07Z</time></trkpt><trkpt lat="43.359538868803654" lon="11.411495465019694"><ele>264.0</ele><time>2026-04-11T04:58:10Z</time></trkpt><trkpt lat="43.35957061075248" lon="11.411604635871903"><ele>264.0</ele><time>2026-04-11T04:58:13Z</time></trkpt><trkpt lat="43.35960125586373" lon="11.411713016748497"><ele>264.0</ele><time>2026-04-11T04:58:16Z</time></trkpt><trkpt lat="43.35963045912962" lon="11.411815404535732"><ele>263.0</ele><time>2026-04-11T04:58:19Z</time></trkpt><trkpt lat="43.359664684844" lon="11.411890535439468"><ele>262.0</ele><time>2026-04-11T04:58:21Z</time></trkpt><trkpt lat="43.3597313216963" lon="11.41196720252117"><ele>261.0</ele><time>2026-04-11T04:58:24Z</time></trkpt><trkpt lat="43.359807771670965" lon="11.412015315155882"><ele>260.0</ele><time>2026-04-11T04:58:27Z</time></trkpt><trkpt lat="43.35989021366741" lon="11.41200486341937"><ele>259.0</ele><time>2026-04-11T04:58:30Z</time></trkpt><trkpt lat="43.35994361516565" lon="11.411940273276397"><ele>258.0</ele><time>2026-04-11T04:58:33Z</time></trkpt><trkpt lat="43.35996884809087" lon="11.4118558467195"><ele>260.0</ele><time>2026-04-11T04:58:36Z</time></trkpt><trkpt lat="43.359949841870176" lon="11.411759050208245"><ele>262.0</ele><time>2026-04-11T04:58:39Z</time></trkpt><trkpt lat="43.35992409733198" lon="11.411666633368482"><ele>264.0</ele><time>2026-04-11T04:58:42Z</time></trkpt><trkpt lat="43.359908351204" lon="11.411565534286229"><ele>266.0</ele><time>2026-04-11T04:58:45Z</time></trkpt><trkpt lat="43.35992030143045" lon="11.411463179990063"><ele>268.0</ele><time>2026-04-11T04:58:49Z</time></trkpt><trkpt lat="43.3599324628579" lon="11.411337638512476"><ele>270.0</ele><time>2026-04-11T04:58:52Z</time></trkpt><trkpt lat="43.3599605429147" lon="11.41125374161514"><ele>270.0</ele><time>2026-04-11T04:58:55Z</time></trkpt><trkpt lat="43.36000149129984" lon="11.411174156435736"><ele>270.0</ele><time>2026-04-11T04:58:57Z</time></trkpt><trkpt lat="43.36005779194592" lon="11.411109147707144"><ele>270.0</ele><time>2026-04-11T04:59:00Z</time></trkpt><trkpt lat="43.360137712723386" lon="11.41104624864224"><ele>270.0</ele><time>2026-04-11T04:59:03Z</time></trkpt><trkpt lat="43.36021275488993" lon="11.410995980059724"><ele>270.0</ele><time>2026-04-11T04:59:06Z</time></trkpt><trkpt lat="43.36027505035996" lon="11.410968152704585"><ele>270.0</ele><time>2026-04-11T04:59:08Z</time></trkpt><trkpt lat="43.360339339327986" lon="11.410938752053351"><ele>270.0</ele><time>2026-04-11T04:59:11Z</time></trkpt><trkpt lat="43.36041372269837" lon="11.410908504241092"><ele>270.0</ele><time>2026-04-11T04:59:14Z</time></trkpt><trkpt lat="43.36048070277573" lon="11.410873866444641"><ele>270.0</ele><time>2026-04-11T04:59:17Z</time></trkpt><trkpt lat="43.36054367188549" lon="11.410840144331889"><ele>270.0</ele><time>2026-04-11T04:59:20Z</time></trkpt><trkpt lat="43.36061910561521" lon="11.410781473823462"><ele>270.0</ele><time>2026-04-11T04:59:24Z</time></trkpt><trkpt lat="43.360674965400996" lon="11.410718621248623"><ele>270.0</ele><time>2026-04-11T04:59:27Z</time></trkpt><trkpt lat="43.36072618033325" lon="11.410641865460043"><ele>271.3333333333333</ele><time>2026-04-11T04:59:30Z</time></trkpt><trkpt lat="43.36078081841575" lon="11.410515005563509"><ele>272.6666666666667</ele><time>2026-04-11T04:59:33Z</time></trkpt><trkpt lat="43.3607980628039" lon="11.410421582991049"><ele>274.0</ele><time>2026-04-11T04:59:35Z</time></trkpt><trkpt lat="43.36080492983006" lon="11.410330670406763"><ele>275.33333333333337</ele><time>2026-04-11T04:59:37Z</time></trkpt><trkpt lat="43.360810233073735" lon="11.410241852233506"><ele>276.6666666666667</ele><time>2026-04-11T04:59:39Z</time></trkpt><trkpt lat="43.36081268053292" lon="11.410152843602777"><ele>278.0</ele><time>2026-04-11T04:59:41Z</time></trkpt><trkpt lat="43.36078739894343" lon="11.410034704983234"><ele>278.5</ele><time>2026-04-11T04:59:44Z</time></trkpt><trkpt lat="43.3607628918341" lon="11.409953209324478"><ele>279.0</ele><time>2026-04-11T04:59:46Z</time></trkpt><trkpt lat="43.360721864862796" lon="11.409841763445623"><ele>279.5</ele><time>2026-04-11T04:59:49Z</time></trkpt><trkpt lat="43.36069643947135" lon="11.409758113843473"><ele>280.0</ele><time>2026-04-11T04:59:51Z</time></trkpt><trkpt lat="43.360660946346165" lon="11.40963622302363"><ele>280.5</ele><time>2026-04-11T04:59:54Z</time></trkpt><trkpt lat="43.360617296862166" lon="11.409526543835936"><ele>281.0</ele><time>2026-04-11T04:59:57Z</time></trkpt><trkpt lat="43.36058494351602" lon="11.409448564911674"><ele>280.8571428571429</ele><time>2026-04-11T04:59:59Z</time></trkpt><trkpt lat="43.360553536096056" lon="11.409373483219271"><ele>280.7142857142857</ele><time>2026-04-11T05:00:01Z</time></trkpt><trkpt lat="43.36051732810582" lon="11.40929981353014"><ele>280.57142857142856</ele><time>2026-04-11T05:00:03Z</time></trkpt><trkpt lat="43.36047776914575" lon="11.409226092781447"><ele>280.42857142857144</ele><time>2026-04-11T05:00:05Z</time></trkpt><trkpt lat="43.36043913999191" lon="11.409149585838628"><ele>280.2857142857143</ele><time>2026-04-11T05:00:07Z</time></trkpt><trkpt lat="43.36039968330261" lon="11.409077348195499"><ele>280.14285714285717</ele><time>2026-04-11T05:00:09Z</time></trkpt><trkpt lat="43.36035541528026" lon="11.40900296245973"><ele>280.0</ele><time>2026-04-11T05:00:12Z</time></trkpt><trkpt lat="43.360312016530784" lon="11.40893875039336"><ele>280.0</ele><time>2026-04-11T05:00:15Z</time></trkpt><trkpt lat="43.360265364399034" lon="11.408879804536944"><ele>280.0</ele><time>2026-04-11T05:00:18Z</time></trkpt><trkpt lat="43.36021333885222" lon="11.408821077399878"><ele>280.0</ele><time>2026-04-11T05:00:21Z</time></trkpt><trkpt lat="43.36015108903058" lon="11.408757935125333"><ele>280.0</ele><time>2026-04-11T05:00:24Z</time></trkpt><trkpt lat="43.36008080539248" lon="11.40869536663258"><ele>280.0</ele><time>2026-04-11T05:00:27Z</time></trkpt><trkpt lat="43.36001661941197" lon="11.408631166408224"><ele>280.0</ele><time>2026-04-11T05:00:30Z</time></trkpt><trkpt lat="43.35995202718684" lon="11.408578491669427"><ele>280.0</ele><time>2026-04-11T05:00:33Z</time></trkpt><trkpt lat="43.3598823776951" lon="11.408516363856215"><ele>281.5</ele><time>2026-04-11T05:00:36Z</time></trkpt><trkpt lat="43.35981160942533" lon="11.408450399695315"><ele>283.0</ele><time>2026-04-11T05:00:39Z</time></trkpt><trkpt lat="43.3597434579149" lon="11.408393992526438"><ele>284.5</ele><time>2026-04-11T05:00:42Z</time></trkpt><trkpt lat="43.359667815595316" lon="11.408304531946447"><ele>286.0</ele><time>2026-04-11T05:00:45Z</time></trkpt><trkpt lat="43.35960093061698" lon="11.408213366683192"><ele>287.5</ele><time>2026-04-11T05:00:48Z</time></trkpt><trkpt lat="43.35954968874451" lon="11.408112030747686"><ele>289.0</ele><time>2026-04-11T05:00:51Z</time></trkpt><trkpt lat="43.35952680455152" lon="11.40800327165066"><ele>290.0</ele><time>2026-04-11T05:00:54Z</time></trkpt><trkpt lat="43.359517031826634" lon="11.407917303046087"><ele>291.0</ele><time>2026-04-11T05:00:56Z</time></trkpt><trkpt lat="43.35952126641963" lon="11.407812255880234"><ele>292.0</ele><time>2026-04-11T05:00:59Z</time></trkpt><trkpt lat="43.359553567329904" lon="11.407705815348997"><ele>293.0</ele><time>2026-04-11T05:01:01Z</time></trkpt><trkpt lat="43.359604793681996" lon="11.407597772332277"><ele>294.0</ele><time>2026-04-11T05:01:04Z</time></trkpt><trkpt lat="43.359664489337874" lon="11.407504216141913"><ele>295.0</ele><time>2026-04-11T05:01:07Z</time></trkpt><trkpt lat="43.359731542561626" lon="11.407445547515303"><ele>295.0</ele><time>2026-04-11T05:01:10Z</time></trkpt><trkpt lat="43.35981314380196" lon="11.407406011904124"><ele>295.0</ele><time>2026-04-11T05:01:13Z</time></trkpt><trkpt lat="43.359892717884236" lon="11.407419500854584"><ele>295.0</ele><time>2026-04-11T05:01:16Z</time></trkpt><trkpt lat="43.35997309461023" lon="11.407439933944508"><ele>295.0</ele><time>2026-04-11T05:01:19Z</time></trkpt><trkpt lat="43.36004346469007" lon="11.407458519936293"><ele>295.0</ele><time>2026-04-11T05:01:21Z</time></trkpt><trkpt lat="43.36012617539179" lon="11.407471024387261"><ele>295.0</ele><time>2026-04-11T05:01:24Z</time></trkpt><trkpt lat="43.36022069617833" lon="11.407485039494116"><ele>295.0</ele><time>2026-04-11T05:01:27Z</time></trkpt><trkpt lat="43.36028610393204" lon="11.407490107417166"><ele>295.0</ele><time>2026-04-11T05:01:29Z</time></trkpt><trkpt lat="43.36037167036625" lon="11.407502395758252"><ele>295.0</ele><time>2026-04-11T05:01:32Z</time></trkpt><trkpt lat="43.36045940743299" lon="11.4075140283157"><ele>295.0</ele><time>2026-04-11T05:01:35Z</time></trkpt><trkpt lat="43.36054226018999" lon="11.407525059268814"><ele>295.0</ele><time>2026-04-11T05:01:38Z</time></trkpt><trkpt lat="43.3606492646985" lon="11.407539317267393"><ele>295.0</ele><time>2026-04-11T05:01:40Z</time></trkpt><trkpt lat="43.36071975288793" lon="11.407543136058814"><ele>295.5</ele><time>2026-04-11T05:01:43Z</time></trkpt><trkpt lat="43.36080517405473" lon="11.407546083284917"><ele>296.0</ele><time>2026-04-11T05:01:46Z</time></trkpt><trkpt lat="43.36088712347672" lon="11.407536936087327"><ele>296.5</ele><time>2026-04-11T05:01:49Z</time></trkpt><trkpt lat="43.3609738836052" lon="11.407534421079683"><ele>297.0</ele><time>2026-04-11T05:01:52Z</time></trkpt><trkpt lat="43.3610612302669" lon="11.407532408835348"><ele>297.5</ele><time>2026-04-11T05:01:55Z</time></trkpt><trkpt lat="43.36114703920415" lon="11.407515373884998"><ele>298.0</ele><time>2026-04-11T05:01:58Z</time></trkpt><trkpt lat="43.3612342432644" lon="11.407500724851767"><ele>298.0</ele><time>2026-04-11T05:02:01Z</time></trkpt><trkpt lat="43.36131652098331" lon="11.407482246119162"><ele>298.0</ele><time>2026-04-11T05:02:04Z</time></trkpt><trkpt lat="43.36139379465857" lon="11.407461663810434"><ele>298.0</ele><time>2026-04-11T05:02:07Z</time></trkpt><trkpt lat="43.36148165901241" lon="11.407447288471166"><ele>298.0</ele><time>2026-04-11T05:02:10Z</time></trkpt><trkpt lat="43.3616058608792" lon="11.407420816147727"><ele>298.0</ele><time>2026-04-11T05:02:13Z</time></trkpt><trkpt lat="43.36167742569483" lon="11.40741258488231"><ele>298.0</ele><time>2026-04-11T05:02:15Z</time></trkpt><trkpt lat="43.361756811301916" lon="11.407389405738352"><ele>299.1428571428571</ele><time>2026-04-11T05:02:18Z</time></trkpt><trkpt lat="43.361834029814545" lon="11.40737148781334"><ele>300.2857142857143</ele><time>2026-04-11T05:02:21Z</time></trkpt><trkpt lat="43.36191090307227" lon="11.407347400819145"><ele>301.42857142857144</ele><time>2026-04-11T05:02:24Z</time></trkpt><trkpt lat="43.36198264725389" lon="11.407322798972794"><ele>302.57142857142856</ele><time>2026-04-11T05:02:27Z</time></trkpt><trkpt lat="43.362053296691705" lon="11.4073005605452"><ele>303.7142857142857</ele><time>2026-04-11T05:02:30Z</time></trkpt><trkpt lat="43.362119740421214" lon="11.407283073587674"><ele>304.85714285714283</ele><time>2026-04-11T05:02:33Z</time></trkpt><trkpt lat="43.362188959363394" lon="11.407259077953528"><ele>306.0</ele><time>2026-04-11T05:02:36Z</time></trkpt><trkpt lat="43.362258434979694" lon="11.407243919904992"><ele>306.7142857142857</ele><time>2026-04-11T05:02:39Z</time></trkpt><trkpt lat="43.362322231063814" lon="11.407222059045846"><ele>307.42857142857144</ele><time>2026-04-11T05:02:42Z</time></trkpt><trkpt lat="43.362391947827476" lon="11.407209772230683"><ele>308.1428571428571</ele><time>2026-04-11T05:02:45Z</time></trkpt><trkpt lat="43.36245449161645" lon="11.407171199279396"><ele>308.8571428571429</ele><time>2026-04-11T05:02:48Z</time></trkpt><trkpt lat="43.36252059021583" lon="11.407149351982302"><ele>309.5714285714286</ele><time>2026-04-11T05:02:51Z</time></trkpt><trkpt lat="43.36258338088285" lon="11.407130777926342"><ele>310.2857142857143</ele><time>2026-04-11T05:02:54Z</time></trkpt><trkpt lat="43.362646389064636" lon="11.407112925505393"><ele>311.0</ele><time>2026-04-11T05:02:57Z</time></trkpt><trkpt lat="43.36270976457079" lon="11.407079454911287"><ele>311.0</ele><time>2026-04-11T05:03:00Z</time></trkpt><trkpt lat="43.36277443027584" lon="11.407041983163971"><ele>311.0</ele><time>2026-04-11T05:03:03Z</time></trkpt><trkpt lat="43.362842112975414" lon="11.407008252019311"><ele>311.0</ele><time>2026-04-11T05:03:06Z</time></trkpt><trkpt lat="43.36290893647469" lon="11.406973963679986"><ele>311.0</ele><time>2026-04-11T05:03:09Z</time></trkpt><trkpt lat="43.362969154821776" lon="11.406931328325125"><ele>311.0</ele><time>2026-04-11T05:03:12Z</time></trkpt><trkpt lat="43.36302851771348" lon="11.406900278531696"><ele>311.0</ele><time>2026-04-11T05:03:15Z</time></trkpt><trkpt lat="43.36309248425947" lon="11.406867172925088"><ele>311.0</ele><time>2026-04-11T05:03:18Z</time></trkpt><trkpt lat="43.36316149610407" lon="11.40683669570598"><ele>312.1428571428571</ele><time>2026-04-11T05:03:21Z</time></trkpt><trkpt lat="43.36322794638494" lon="11.406793650858923"><ele>313.28571428571433</ele><time>2026-04-11T05:03:24Z</time></trkpt><trkpt lat="43.36329623725055" lon="11.406749619920133"><ele>314.42857142857144</ele><time>2026-04-11T05:03:27Z</time></trkpt><trkpt lat="43.363360610358136" lon="11.406704383534072"><ele>315.57142857142856</ele><time>2026-04-11T05:03:30Z</time></trkpt><trkpt lat="43.36342017126656" lon="11.406661501157709"><ele>316.71428571428567</ele><time>2026-04-11T05:03:33Z</time></trkpt><trkpt lat="43.36348395607031" lon="11.406621104399784"><ele>317.8571428571429</ele><time>2026-04-11T05:03:36Z</time></trkpt><trkpt lat="43.36355484252044" lon="11.406588494139045"><ele>319.0</ele><time>2026-04-11T05:03:39Z</time></trkpt><trkpt lat="43.36361582329628" lon="11.406547544125239"><ele>319.0</ele><time>2026-04-11T05:03:42Z</time></trkpt><trkpt lat="43.36369701788235" lon="11.406498113689231"><ele>319.0</ele><time>2026-04-11T05:03:45Z</time></trkpt><trkpt lat="43.36375494396427" lon="11.406457441565506"><ele>319.0</ele><time>2026-04-11T05:03:48Z</time></trkpt><trkpt lat="43.36381421666361" lon="11.406421707363721"><ele>319.0</ele><time>2026-04-11T05:03:51Z</time></trkpt><trkpt lat="43.363876127756484" lon="11.406378928669662"><ele>319.0</ele><time>2026-04-11T05:03:54Z</time></trkpt><trkpt lat="43.36393907627169" lon="11.406335108608426"><ele>319.0</ele><time>2026-04-11T05:03:57Z</time></trkpt><trkpt lat="43.364002239973914" lon="11.406293245220716"><ele>319.0</ele><time>2026-04-11T05:04:00Z</time></trkpt><trkpt lat="43.364065110764315" lon="11.406249033627308"><ele>320.42857142857144</ele><time>2026-04-11T05:04:03Z</time></trkpt><trkpt lat="43.36413009421365" lon="11.406200420756258"><ele>321.85714285714283</ele><time>2026-04-11T05:04:06Z</time></trkpt><trkpt lat="43.36420083846102" lon="11.40614463129777"><ele>323.2857142857143</ele><time>2026-04-11T05:04:09Z</time></trkpt><trkpt lat="43.3642607675915" lon="11.406105519588406"><ele>324.7142857142857</ele><time>2026-04-11T05:04:12Z</time></trkpt><trkpt lat="43.364326565617304" lon="11.40606542257683"><ele>326.1428571428571</ele><time>2026-04-11T05:04:15Z</time></trkpt><trkpt lat="43.36439653527035" lon="11.406031747735058"><ele>327.57142857142856</ele><time>2026-04-11T05:04:18Z</time></trkpt><trkpt lat="43.364463989011306" lon="11.406007289137817"><ele>329.0</ele><time>2026-04-11T05:04:21Z</time></trkpt><trkpt lat="43.3645347066467" lon="11.40600952485204"><ele>329.0</ele><time>2026-04-11T05:04:24Z</time></trkpt><trkpt lat="43.364608522391954" lon="11.406035489538766"><ele>329.0</ele><time>2026-04-11T05:04:27Z</time></trkpt><trkpt lat="43.36467125365373" lon="11.406091389982343"><ele>329.0</ele><time>2026-04-11T05:04:31Z</time></trkpt><trkpt lat="43.36471839403555" lon="11.406155809324321"><ele>329.0</ele><time>2026-04-11T05:04:34Z</time></trkpt><trkpt lat="43.36476661301947" lon="11.40621510151435"><ele>329.0</ele><time>2026-04-11T05:04:37Z</time></trkpt><trkpt lat="43.36482176538045" lon="11.4062759732213"><ele>329.0</ele><time>2026-04-11T05:04:40Z</time></trkpt><trkpt lat="43.3648774752365" lon="11.40632689761049"><ele>329.0</ele><time>2026-04-11T05:04:43Z</time></trkpt><trkpt lat="43.36493627222776" lon="11.406368503779062"><ele>330.42857142857144</ele><time>2026-04-11T05:04:46Z</time></trkpt><trkpt lat="43.36500251724738" lon="11.40639794901986"><ele>331.8571428571429</ele><time>2026-04-11T05:04:49Z</time></trkpt><trkpt lat="43.36507400514834" lon="11.406409954339683"><ele>333.2857142857143</ele><time>2026-04-11T05:04:52Z</time></trkpt><trkpt lat="43.36514563541652" lon="11.40640183676692"><ele>334.7142857142857</ele><time>2026-04-11T05:04:55Z</time></trkpt><trkpt lat="43.3652187238822" lon="11.406388430516929"><ele>336.14285714285717</ele><time>2026-04-11T05:04:58Z</time></trkpt><trkpt lat="43.36528706478795" lon="11.406363835795378"><ele>337.57142857142856</ele><time>2026-04-11T05:05:00Z</time></trkpt><trkpt lat="43.36536389274629" lon="11.406336518436738"><ele>339.0</ele><time>2026-04-11T05:05:03Z</time></trkpt><trkpt lat="43.36543672944993" lon="11.406316010689979"><ele>339.1428571428571</ele><time>2026-04-11T05:05:06Z</time></trkpt><trkpt lat="43.36551242050947" lon="11.406289290412191"><ele>339.28571428571433</ele><time>2026-04-11T05:05:09Z</time></trkpt><trkpt lat="43.36557578720433" lon="11.406269757420477"><ele>339.42857142857144</ele><time>2026-04-11T05:05:11Z</time></trkpt><trkpt lat="43.365648252359115" lon="11.40624635778163"><ele>339.57142857142856</ele><time>2026-04-11T05:05:14Z</time></trkpt><trkpt lat="43.36572440759331" lon="11.406214284538079"><ele>339.71428571428567</ele><time>2026-04-11T05:05:16Z</time></trkpt><trkpt lat="43.36578610253326" lon="11.40617193315893"><ele>339.8571428571429</ele><time>2026-04-11T05:05:18Z</time></trkpt><trkpt lat="43.36584893167562" lon="11.406110382913761"><ele>340.0</ele><time>2026-04-11T05:05:21Z</time></trkpt><trkpt lat="43.36590571999552" lon="11.406036987534037"><ele>340.5714285714286</ele><time>2026-04-11T05:05:24Z</time></trkpt><trkpt lat="43.36594994700843" lon="11.405942391935467"><ele>341.1428571428571</ele><time>2026-04-11T05:05:27Z</time></trkpt><trkpt lat="43.365988513456664" lon="11.405849189678952"><ele>341.7142857142857</ele><time>2026-04-11T05:05:29Z</time></trkpt><trkpt lat="43.366026038150814" lon="11.405770262633405"><ele>342.28571428571433</ele><time>2026-04-11T05:05:31Z</time></trkpt><trkpt lat="43.3660618916246" lon="11.40568843519114"><ele>342.8571428571429</ele><time>2026-04-11T05:05:33Z</time></trkpt><trkpt lat="43.36609812314254" lon="11.405612687087828"><ele>343.42857142857144</ele><time>2026-04-11T05:05:35Z</time></trkpt><trkpt lat="43.366135895088696" lon="11.405537787741697"><ele>344.0</ele><time>2026-04-11T05:05:37Z</time></trkpt><trkpt lat="43.366170761327474" lon="11.405459999420174"><ele>344.0</ele><time>2026-04-11T05:05:40Z</time></trkpt><trkpt lat="43.366220643977194" lon="11.405357177347828"><ele>344.0</ele><time>2026-04-11T05:05:43Z</time></trkpt><trkpt lat="43.36626088212134" lon="11.40524906486379"><ele>344.0</ele><time>2026-04-11T05:05:46Z</time></trkpt><trkpt lat="43.3663081758381" lon="11.405142839067713"><ele>344.0</ele><time>2026-04-11T05:05:49Z</time></trkpt><trkpt lat="43.36634637241171" lon="11.405039604369087"><ele>344.0</ele><time>2026-04-11T05:05:52Z</time></trkpt><trkpt lat="43.36639458550421" lon="11.404945022754577"><ele>344.0</ele><time>2026-04-11T05:05:55Z</time></trkpt><trkpt lat="43.366444097093655" lon="11.404842674567876"><ele>344.0</ele><time>2026-04-11T05:05:58Z</time></trkpt><trkpt lat="43.36649435630601" lon="11.404742790179164"><ele>344.0</ele><time>2026-04-11T05:06:01Z</time></trkpt><trkpt lat="43.366550556955815" lon="11.404655015711812"><ele>344.0</ele><time>2026-04-11T05:06:04Z</time></trkpt><trkpt lat="43.36662319724693" lon="11.404550678330391"><ele>344.0</ele><time>2026-04-11T05:06:07Z</time></trkpt><trkpt lat="43.366685790580355" lon="11.404499727702337"><ele>344.0</ele><time>2026-04-11T05:06:09Z</time></trkpt><trkpt lat="43.36676266563558" lon="11.404436910589313"><ele>344.0</ele><time>2026-04-11T05:06:12Z</time></trkpt><trkpt lat="43.36684631723753" lon="11.404383940322345"><ele>344.83333333333337</ele><time>2026-04-11T05:06:15Z</time></trkpt><trkpt lat="43.36692839823769" lon="11.404331912281952"><ele>345.6666666666667</ele><time>2026-04-11T05:06:18Z</time></trkpt><trkpt lat="43.367016674910325" lon="11.404295325581709"><ele>346.5</ele><time>2026-04-11T05:06:21Z</time></trkpt><trkpt lat="43.367111818169576" lon="11.404267167843733"><ele>347.3333333333333</ele><time>2026-04-11T05:06:25Z</time></trkpt><trkpt lat="43.36717431523061" lon="11.404251171301944"><ele>348.16666666666663</ele><time>2026-04-11T05:06:28Z</time></trkpt><trkpt lat="43.36723807604539" lon="11.404248711879031"><ele>349.0</ele><time>2026-04-11T05:06:30Z</time></trkpt><trkpt lat="43.36730980278847" lon="11.404267647733143"><ele>349.0</ele><time>2026-04-11T05:06:33Z</time></trkpt><trkpt lat="43.36739244435153" lon="11.404278667076094"><ele>349.0</ele><time>2026-04-11T05:06:36Z</time></trkpt><trkpt lat="43.36746902944378" lon="11.40429498219243"><ele>349.0</ele><time>2026-04-11T05:06:39Z</time></trkpt><trkpt lat="43.36754230473658" lon="11.40429889321493"><ele>349.0</ele><time>2026-04-11T05:06:41Z</time></trkpt><trkpt lat="43.36762066327974" lon="11.40430520768752"><ele>349.0</ele><time>2026-04-11T05:06:44Z</time></trkpt><trkpt lat="43.36769097350403" lon="11.404326225614065"><ele>349.0</ele><time>2026-04-11T05:06:46Z</time></trkpt><trkpt lat="43.36778307768449" lon="11.404343706673862"><ele>349.0</ele><time>2026-04-11T05:06:49Z</time></trkpt><trkpt lat="43.36786683681433" lon="11.404367773149838"><ele>349.0</ele><time>2026-04-11T05:06:52Z</time></trkpt><trkpt lat="43.367972153266415" lon="11.404368061106757"><ele>349.0</ele><time>2026-04-11T05:06:54Z</time></trkpt><trkpt lat="43.368049434873754" lon="11.404385479524649"><ele>349.0</ele><time>2026-04-11T05:06:56Z</time></trkpt><trkpt lat="43.36812556552138" lon="11.404397035382173"><ele>349.0</ele><time>2026-04-11T05:06:58Z</time></trkpt><trkpt lat="43.36821382519268" lon="11.40440297342756"><ele>349.0</ele><time>2026-04-11T05:07:00Z</time></trkpt><trkpt lat="43.368300466254325" lon="11.404428002884924"><ele>349.5</ele><time>2026-04-11T05:07:02Z</time></trkpt><trkpt lat="43.368382410986904" lon="11.404442349972921"><ele>350.0</ele><time>2026-04-11T05:07:04Z</time></trkpt><trkpt lat="43.368467888782455" lon="11.40446230139214"><ele>350.5</ele><time>2026-04-11T05:07:06Z</time></trkpt><trkpt lat="43.36854213302621" lon="11.404475081085995"><ele>351.0</ele><time>2026-04-11T05:07:08Z</time></trkpt><trkpt lat="43.368627867779374" lon="11.404488022917263"><ele>351.5</ele><time>2026-04-11T05:07:11Z</time></trkpt><trkpt lat="43.36871247065042" lon="11.40448536797435"><ele>352.0</ele><time>2026-04-11T05:07:14Z</time></trkpt><trkpt lat="43.36878560618653" lon="11.40449229024188"><ele>352.42857142857144</ele><time>2026-04-11T05:07:16Z</time></trkpt><trkpt lat="43.36885993121983" lon="11.40448140208455"><ele>352.85714285714283</ele><time>2026-04-11T05:07:18Z</time></trkpt><trkpt lat="43.368925280250636" lon="11.40448032571929"><ele>353.2857142857143</ele><time>2026-04-11T05:07:21Z</time></trkpt><trkpt lat="43.36899147086681" lon="11.40447925649237"><ele>353.7142857142857</ele><time>2026-04-11T05:07:23Z</time></trkpt><trkpt lat="43.36907090518811" lon="11.404471254689234"><ele>354.14285714285717</ele><time>2026-04-11T05:07:26Z</time></trkpt><trkpt lat="43.36915119887091" lon="11.40446287743543"><ele>354.57142857142856</ele><time>2026-04-11T05:07:28Z</time></trkpt><trkpt lat="43.36922962745261" lon="11.40446812335918"><ele>355.0</ele><time>2026-04-11T05:07:31Z</time></trkpt><trkpt lat="43.369300456086435" lon="11.40446537184262"><ele>355.0</ele><time>2026-04-11T05:07:32Z</time></trkpt><trkpt lat="43.36937646539543" lon="11.404460496894083"><ele>355.0</ele><time>2026-04-11T05:07:35Z</time></trkpt><trkpt lat="43.36946999703346" lon="11.404461097955943"><ele>355.0</ele><time>2026-04-11T05:07:38Z</time></trkpt><trkpt lat="43.36956213508983" lon="11.404462484591201"><ele>355.0</ele><time>2026-04-11T05:07:41Z</time></trkpt><trkpt lat="43.36965235384163" lon="11.404466765100297"><ele>355.0</ele><time>2026-04-11T05:07:44Z</time></trkpt><trkpt lat="43.36973157261392" lon="11.404466280199376"><ele>355.0</ele><time>2026-04-11T05:07:47Z</time></trkpt><trkpt lat="43.36981158865312" lon="11.404473432897435"><ele>356.0</ele><time>2026-04-11T05:07:50Z</time></trkpt><trkpt lat="43.36989574959572" lon="11.404483085273942"><ele>357.0</ele><time>2026-04-11T05:07:53Z</time></trkpt><trkpt lat="43.36997828181864" lon="11.40448915838562"><ele>358.0</ele><time>2026-04-11T05:07:56Z</time></trkpt><trkpt lat="43.37004904694002" lon="11.404489218445516"><ele>359.0</ele><time>2026-04-11T05:07:58Z</time></trkpt><trkpt lat="43.37013538494496" lon="11.404493156771908"><ele>360.0</ele><time>2026-04-11T05:08:01Z</time></trkpt><trkpt lat="43.37021327059308" lon="11.404487304630802"><ele>361.0</ele><time>2026-04-11T05:08:04Z</time></trkpt><trkpt lat="43.370289584044116" lon="11.404497981846555"><ele>361.0</ele><time>2026-04-11T05:08:06Z</time></trkpt><trkpt lat="43.37038323048012" lon="11.404486082996176"><ele>361.0</ele><time>2026-04-11T05:08:09Z</time></trkpt><trkpt lat="43.37047088067385" lon="11.404489715433682"><ele>361.0</ele><time>2026-04-11T05:08:12Z</time></trkpt><trkpt lat="43.370551882889586" lon="11.404468372725436"><ele>361.0</ele><time>2026-04-11T05:08:15Z</time></trkpt><trkpt lat="43.370630137719466" lon="11.404448851471802"><ele>361.0</ele><time>2026-04-11T05:08:18Z</time></trkpt><trkpt lat="43.37070057268458" lon="11.404422341218712"><ele>361.0</ele><time>2026-04-11T05:08:21Z</time></trkpt><trkpt lat="43.37076212798584" lon="11.40437929002749"><ele>361.7142857142857</ele><time>2026-04-11T05:08:24Z</time></trkpt><trkpt lat="43.370822751455144" lon="11.40433923485155"><ele>362.4285714285714</ele><time>2026-04-11T05:08:27Z</time></trkpt><trkpt lat="43.370875643142725" lon="11.404279098777819"><ele>363.1428571428571</ele><time>2026-04-11T05:08:30Z</time></trkpt><trkpt lat="43.37093799804935" lon="11.40421109947379"><ele>363.8571428571429</ele><time>2026-04-11T05:08:33Z</time></trkpt><trkpt lat="43.3709898268557" lon="11.404129025576994"><ele>364.57142857142856</ele><time>2026-04-11T05:08:37Z</time></trkpt><trkpt lat="43.371028963299366" lon="11.404051713106726"><ele>365.2857142857143</ele><time>2026-04-11T05:08:40Z</time></trkpt><trkpt lat="43.37107458090164" lon="11.403972396937572"><ele>366.0</ele><time>2026-04-11T05:08:43Z</time></trkpt><trkpt lat="43.37111923763465" lon="11.403885346957672"><ele>366.3333333333333</ele><time>2026-04-11T05:08:46Z</time></trkpt><trkpt lat="43.37116476416402" lon="11.40378171417605"><ele>366.6666666666667</ele><time>2026-04-11T05:08:49Z</time></trkpt><trkpt lat="43.371201445158334" lon="11.403693989049682"><ele>367.0</ele><time>2026-04-11T05:08:53Z</time></trkpt><trkpt lat="43.371231293553485" lon="11.40358334483357"><ele>367.33333333333337</ele><time>2026-04-11T05:08:57Z</time></trkpt><trkpt lat="43.37126222595684" lon="11.403506997081761"><ele>367.6666666666667</ele><time>2026-04-11T05:09:00Z</time></trkpt><trkpt lat="43.3713021654313" lon="11.403434844567292"><ele>368.0</ele><time>2026-04-11T05:09:03Z</time></trkpt><trkpt lat="43.37134949854306" lon="11.403336391052585"><ele>368.6666666666667</ele><time>2026-04-11T05:09:07Z</time></trkpt><trkpt lat="43.3713712877395" lon="11.403235498427463"><ele>369.33333333333337</ele><time>2026-04-11T05:09:11Z</time></trkpt><trkpt lat="43.371413725609116" lon="11.403126885786111"><ele>370.0</ele><time>2026-04-11T05:09:15Z</time></trkpt><trkpt lat="43.37144812751759" lon="11.403024204886053"><ele>370.6666666666667</ele><time>2026-04-11T05:09:18Z</time></trkpt><trkpt lat="43.37149651737851" lon="11.402943601213455"><ele>371.3333333333333</ele><time>2026-04-11T05:09:21Z</time></trkpt><trkpt lat="43.371517968137795" lon="11.402860574884842"><ele>372.0</ele><time>2026-04-11T05:09:23Z</time></trkpt><trkpt lat="43.37158358733236" lon="11.402770507433788"><ele>373.1666666666667</ele><time>2026-04-11T05:09:26Z</time></trkpt><trkpt lat="43.371599974934774" lon="11.40265086080057"><ele>374.3333333333333</ele><time>2026-04-11T05:09:29Z</time></trkpt><trkpt lat="43.37162098681975" lon="11.402560380406404"><ele>375.5</ele><time>2026-04-11T05:09:32Z</time></trkpt><trkpt lat="43.37165603659939" lon="11.402486527665197"><ele>376.66666666666663</ele><time>2026-04-11T05:09:34Z</time></trkpt><trkpt lat="43.371672964689026" lon="11.40238558483731"><ele>377.8333333333333</ele><time>2026-04-11T05:09:37Z</time></trkpt><trkpt lat="43.3716671947442" lon="11.402288600956703"><ele>379.0</ele><time>2026-04-11T05:09:40Z</time></trkpt><trkpt lat="43.371721494171766" lon="11.40219489111854"><ele>379.28571428571433</ele><time>2026-04-11T05:09:43Z</time></trkpt><trkpt lat="43.371756842961446" lon="11.40210211031366"><ele>379.57142857142856</ele><time>2026-04-11T05:09:46Z</time></trkpt><trkpt lat="43.37177143982221" lon="11.402015536325523"><ele>379.8571428571429</ele><time>2026-04-11T05:09:48Z</time></trkpt><trkpt lat="43.37179958199147" lon="11.401935207411139"><ele>380.14285714285717</ele><time>2026-04-11T05:09:50Z</time></trkpt><trkpt lat="43.37184837183672" lon="11.401849961633882"><ele>380.42857142857144</ele><time>2026-04-11T05:09:53Z</time></trkpt><trkpt lat="43.3718682235523" lon="11.401756535653137"><ele>380.7142857142857</ele><time>2026-04-11T05:09:56Z</time></trkpt><trkpt lat="43.37192360650782" lon="11.401692271998703"><ele>381.0</ele><time>2026-04-11T05:09:59Z</time></trkpt><trkpt lat="43.3719912485693" lon="11.401641297091027"><ele>381.0</ele><time>2026-04-11T05:10:03Z</time></trkpt><trkpt lat="43.37205815508872" lon="11.401561803405672"><ele>381.0</ele><time>2026-04-11T05:10:07Z</time></trkpt><trkpt lat="43.37209232250526" lon="11.401457499890848"><ele>381.0</ele><time>2026-04-11T05:10:10Z</time></trkpt><trkpt lat="43.37215120533654" lon="11.401365190806146"><ele>381.0</ele><time>2026-04-11T05:10:13Z</time></trkpt><trkpt lat="43.37221940301924" lon="11.401295697843363"><ele>381.0</ele><time>2026-04-11T05:10:15Z</time></trkpt><trkpt lat="43.372248049875765" lon="11.401191212759516"><ele>381.0</ele><time>2026-04-11T05:10:18Z</time></trkpt><trkpt lat="43.37229784672346" lon="11.401127974324512"><ele>382.0</ele><time>2026-04-11T05:10:20Z</time></trkpt><trkpt lat="43.37238169659922" lon="11.401041998727154"><ele>383.0</ele><time>2026-04-11T05:10:22Z</time></trkpt><trkpt lat="43.3724600068067" lon="11.400966949986064"><ele>384.0</ele><time>2026-04-11T05:10:24Z</time></trkpt><trkpt lat="43.37255979298343" lon="11.400870456246183"><ele>385.0</ele><time>2026-04-11T05:10:26Z</time></trkpt><trkpt lat="43.37264009255364" lon="11.40082204442844"><ele>386.0</ele><time>2026-04-11T05:10:28Z</time></trkpt><trkpt lat="43.37275651974085" lon="11.400703602218979"><ele>386.0</ele><time>2026-04-11T05:10:30Z</time></trkpt><trkpt lat="43.372851437767906" lon="11.40061533169486"><ele>386.0</ele><time>2026-04-11T05:10:32Z</time></trkpt><trkpt lat="43.37293220817442" lon="11.400535231034732"><ele>386.0</ele><time>2026-04-11T05:10:34Z</time></trkpt><trkpt lat="43.37301049069009" lon="11.40045690253757"><ele>386.0</ele><time>2026-04-11T05:10:36Z</time></trkpt><trkpt lat="43.37309151884838" lon="11.400398661244353"><ele>386.0</ele><time>2026-04-11T05:10:38Z</time></trkpt><trkpt lat="43.37317974947888" lon="11.400331547030756"><ele>385.4</ele><time>2026-04-11T05:10:40Z</time></trkpt><trkpt lat="43.373263859622725" lon="11.400254642298817"><ele>384.8</ele><time>2026-04-11T05:10:42Z</time></trkpt><trkpt lat="43.37335426098366" lon="11.400202890647298"><ele>384.2</ele><time>2026-04-11T05:10:44Z</time></trkpt><trkpt lat="43.3734433899029" lon="11.40015767320983"><ele>383.59999999999997</ele><time>2026-04-11T05:10:46Z</time></trkpt><trkpt lat="43.37353291591699" lon="11.400113442737036"><ele>383.0</ele><time>2026-04-11T05:10:48Z</time></trkpt><trkpt lat="43.37361742748057" lon="11.400077087108711"><ele>383.0</ele><time>2026-04-11T05:10:50Z</time></trkpt><trkpt lat="43.3737097637748" lon="11.4000291841137"><ele>383.0</ele><time>2026-04-11T05:10:52Z</time></trkpt><trkpt lat="43.37380016026252" lon="11.399996055393526"><ele>383.0</ele><time>2026-04-11T05:10:54Z</time></trkpt><trkpt lat="43.373881379966306" lon="11.39995275766661"><ele>383.0</ele><time>2026-04-11T05:10:56Z</time></trkpt><trkpt lat="43.37397259266698" lon="11.399899923609482"><ele>383.0</ele><time>2026-04-11T05:10:58Z</time></trkpt><trkpt lat="43.3740547496401" lon="11.399842793025664"><ele>383.0</ele><time>2026-04-11T05:11:00Z</time></trkpt><trkpt lat="43.37413124703533" lon="11.39978142869307"><ele>383.0</ele><time>2026-04-11T05:11:02Z</time></trkpt><trkpt lat="43.37420626690275" lon="11.39971581963753"><ele>383.0</ele><time>2026-04-11T05:11:04Z</time></trkpt><trkpt lat="43.37428612955516" lon="11.3996640927576"><ele>383.0</ele><time>2026-04-11T05:11:06Z</time></trkpt><trkpt lat="43.37435213916427" lon="11.399579917084257"><ele>383.0</ele><time>2026-04-11T05:11:09Z</time></trkpt><trkpt lat="43.37443341416311" lon="11.399535234685665"><ele>383.0</ele><time>2026-04-11T05:11:12Z</time></trkpt><trkpt lat="43.37446346081993" lon="11.399445526387852"><ele>382.79999999999995</ele><time>2026-04-11T05:11:14Z</time></trkpt><trkpt lat="43.374534663684635" lon="11.39939427694317"><ele>382.6</ele><time>2026-04-11T05:11:16Z</time></trkpt><trkpt lat="43.374600405801054" lon="11.399319145280899"><ele>382.4</ele><time>2026-04-11T05:11:18Z</time></trkpt><trkpt lat="43.37466598783136" lon="11.39924949389679"><ele>382.20000000000005</ele><time>2026-04-11T05:11:19Z</time></trkpt><trkpt lat="43.37477951822656" lon="11.39919926964038"><ele>382.0</ele><time>2026-04-11T05:11:21Z</time></trkpt><trkpt lat="43.37485136266268" lon="11.399118730806569"><ele>382.0</ele><time>2026-04-11T05:11:23Z</time></trkpt><trkpt lat="43.37492605713081" lon="11.399034996977521"><ele>382.0</ele><time>2026-04-11T05:11:25Z</time></trkpt><trkpt lat="43.37501131375362" lon="11.398939329378429"><ele>382.0</ele><time>2026-04-11T05:11:27Z</time></trkpt><trkpt lat="43.375088663355044" lon="11.398851802340927"><ele>382.0</ele><time>2026-04-11T05:11:29Z</time></trkpt><trkpt lat="43.375175374742255" lon="11.398757660992816"><ele>382.0</ele><time>2026-04-11T05:11:31Z</time></trkpt><trkpt lat="43.37526374533663" lon="11.398674442177626"><ele>382.16666666666663</ele><time>2026-04-11T05:11:33Z</time></trkpt><trkpt lat="43.37532561004132" lon="11.398603164182596"><ele>382.3333333333333</ele><time>2026-04-11T05:11:36Z</time></trkpt><trkpt lat="43.37540942866981" lon="11.398563133419604"><ele>382.5</ele><time>2026-04-11T05:11:38Z</time></trkpt><trkpt lat="43.375489778544825" lon="11.398534198163619"><ele>382.6666666666667</ele><time>2026-04-11T05:11:41Z</time></trkpt><trkpt lat="43.37557490710089" lon="11.398491587328575"><ele>382.83333333333337</ele><time>2026-04-11T05:11:44Z</time></trkpt><trkpt lat="43.37563194730046" lon="11.398449587612497"><ele>383.0</ele><time>2026-04-11T05:11:46Z</time></trkpt><trkpt lat="43.37569294995745" lon="11.398423158653252"><ele>383.0</ele><time>2026-04-11T05:11:48Z</time></trkpt><trkpt lat="43.376023650768765" lon="11.398299460591149"><ele>383.0</ele><time>2026-04-11T05:11:50Z</time></trkpt><trkpt lat="43.37610784124259" lon="11.398257256730904"><ele>383.0</ele><time>2026-04-11T05:11:52Z</time></trkpt><trkpt lat="43.37600831966272" lon="11.398297837946874"><ele>383.0</ele><time>2026-04-11T05:11:54Z</time></trkpt><trkpt lat="43.37613523552235" lon="11.398229129736636"><ele>383.0</ele><time>2026-04-11T05:11:57Z</time></trkpt><trkpt lat="43.37620220361391" lon="11.39820728813943"><ele>383.0</ele><time>2026-04-11T05:11:59Z</time></trkpt><trkpt lat="43.376297173747965" lon="11.398167473645765"><ele>383.0</ele><time>2026-04-11T05:12:01Z</time></trkpt><trkpt lat="43.37637053746434" lon="11.398142249920351"><ele>383.0</ele><time>2026-04-11T05:12:03Z</time></trkpt><trkpt lat="43.3764410487899" lon="11.398106480577955"><ele>382.6666666666667</ele><time>2026-04-11T05:12:05Z</time></trkpt><trkpt lat="43.3765253769647" lon="11.398040704722888"><ele>382.33333333333337</ele><time>2026-04-11T05:12:07Z</time></trkpt><trkpt lat="43.37660207938933" lon="11.397979942450965"><ele>382.0</ele><time>2026-04-11T05:12:09Z</time></trkpt><trkpt lat="43.37667699279273" lon="11.397917974873664"><ele>381.6666666666667</ele><time>2026-04-11T05:12:11Z</time></trkpt><trkpt lat="43.37673847023225" lon="11.397834865042194"><ele>381.3333333333333</ele><time>2026-04-11T05:12:13Z</time></trkpt><trkpt lat="43.37681636122455" lon="11.397780055184594"><ele>381.0</ele><time>2026-04-11T05:12:15Z</time></trkpt><trkpt lat="43.37688745344692" lon="11.39770852808074"><ele>381.8333333333333</ele><time>2026-04-11T05:12:17Z</time></trkpt><trkpt lat="43.37695147664803" lon="11.397626032907697"><ele>382.66666666666663</ele><time>2026-04-11T05:12:19Z</time></trkpt><trkpt lat="43.37702661930061" lon="11.397581824076944"><ele>383.5</ele><time>2026-04-11T05:12:21Z</time></trkpt><trkpt lat="43.37709728329604" lon="11.39752407365968"><ele>384.3333333333333</ele><time>2026-04-11T05:12:23Z</time></trkpt><trkpt lat="43.37716820240366" lon="11.39747144966141"><ele>385.16666666666663</ele><time>2026-04-11T05:12:25Z</time></trkpt><trkpt lat="43.37723318994919" lon="11.397406271367613"><ele>386.0</ele><time>2026-04-11T05:12:27Z</time></trkpt><trkpt lat="43.3772918935685" lon="11.397361746604291"><ele>385.99999999999994</ele><time>2026-04-11T05:12:29Z</time></trkpt><trkpt lat="43.37737279793358" lon="11.397310044378216"><ele>386.0</ele><time>2026-04-11T05:12:32Z</time></trkpt><trkpt lat="43.377456762916296" lon="11.397265816820214"><ele>386.0</ele><time>2026-04-11T05:12:35Z</time></trkpt><trkpt lat="43.377535667706645" lon="11.39724101298036"><ele>386.0</ele><time>2026-04-11T05:12:37Z</time></trkpt><trkpt lat="43.377623695660965" lon="11.397226829413714"><ele>385.99999999999994</ele><time>2026-04-11T05:12:40Z</time></trkpt><trkpt lat="43.37771593164226" lon="11.397225299778023"><ele>386.0</ele><time>2026-04-11T05:12:43Z</time></trkpt><trkpt lat="43.377810244288014" lon="11.397198497556593"><ele>386.00000000000006</ele><time>2026-04-11T05:12:46Z</time></trkpt><trkpt lat="43.37787481830775" lon="11.397180764791534"><ele>386.0</ele><time>2026-04-11T05:12:48Z</time></trkpt><trkpt lat="43.37793687224706" lon="11.397162414312703"><ele>386.0</ele><time>2026-04-11T05:12:50Z</time></trkpt><trkpt lat="43.37800299849035" lon="11.3971384180251"><ele>386.0</ele><time>2026-04-11T05:12:52Z</time></trkpt><trkpt lat="43.37806876802379" lon="11.397113128041994"><ele>386.0</ele><time>2026-04-11T05:12:54Z</time></trkpt><trkpt lat="43.378133449582826" lon="11.397084028681972"><ele>386.00000000000006</ele><time>2026-04-11T05:12:56Z</time></trkpt><trkpt lat="43.378197185921564" lon="11.397060164818958"><ele>386.0</ele><time>2026-04-11T05:12:58Z</time></trkpt><trkpt lat="43.37826522847904" lon="11.397038603044788"><ele>387.14285714285717</ele><time>2026-04-11T05:13:00Z</time></trkpt><trkpt lat="43.37832799370094" lon="11.397007457681717"><ele>388.2857142857143</ele><time>2026-04-11T05:13:02Z</time></trkpt><trkpt lat="43.378394188679586" lon="11.396992822263561"><ele>389.42857142857144</ele><time>2026-04-11T05:13:04Z</time></trkpt><trkpt lat="43.37848078333019" lon="11.396941570763495"><ele>390.57142857142856</ele><time>2026-04-11T05:13:07Z</time></trkpt><trkpt lat="43.37854143218584" lon="11.396917682027338"><ele>391.7142857142857</ele><time>2026-04-11T05:13:09Z</time></trkpt><trkpt lat="43.37863138779388" lon="11.396883528457359"><ele>392.8571428571429</ele><time>2026-04-11T05:13:12Z</time></trkpt><trkpt lat="43.37869352739655" lon="11.396858585766408"><ele>394.0</ele><time>2026-04-11T05:13:14Z</time></trkpt><trkpt lat="43.37877986670773" lon="11.39683126852039"><ele>395.2</ele><time>2026-04-11T05:13:17Z</time></trkpt><trkpt lat="43.37886268741295" lon="11.396801503829858"><ele>396.4</ele><time>2026-04-11T05:13:20Z</time></trkpt><trkpt lat="43.37895103684092" lon="11.39676782754101"><ele>397.6</ele><time>2026-04-11T05:13:23Z</time></trkpt><trkpt lat="43.37903470061865" lon="11.396739033551572"><ele>398.8</ele><time>2026-04-11T05:13:26Z</time></trkpt><trkpt lat="43.37914756163853" lon="11.396705852158362"><ele>400.0</ele><time>2026-04-11T05:13:30Z</time></trkpt><trkpt lat="43.37922440232305" lon="11.396683000106156"><ele>400.00000000000006</ele><time>2026-04-11T05:13:33Z</time></trkpt><trkpt lat="43.37930979978827" lon="11.39664951925142"><ele>400.0</ele><time>2026-04-11T05:13:36Z</time></trkpt><trkpt lat="43.379374666200995" lon="11.396637710071731"><ele>400.0</ele><time>2026-04-11T05:13:38Z</time></trkpt><trkpt lat="43.37945700043163" lon="11.396604189615585"><ele>400.0</ele><time>2026-04-11T05:13:40Z</time></trkpt><trkpt lat="43.379534363628586" lon="11.396574308455474"><ele>400.00000000000006</ele><time>2026-04-11T05:13:42Z</time></trkpt><trkpt lat="43.37962344835419" lon="11.396538762721658"><ele>400.0</ele><time>2026-04-11T05:13:45Z</time></trkpt><trkpt lat="43.379687515289966" lon="11.396519369422979"><ele>400.6666666666667</ele><time>2026-04-11T05:13:47Z</time></trkpt><trkpt lat="43.379752114417165" lon="11.396508155093787"><ele>401.33333333333337</ele><time>2026-04-11T05:13:49Z</time></trkpt><trkpt lat="43.379816584480245" lon="11.396485775634343"><ele>402.0</ele><time>2026-04-11T05:13:51Z</time></trkpt><trkpt lat="43.37991028495108" lon="11.396464597311066"><ele>402.66666666666663</ele><time>2026-04-11T05:13:54Z</time></trkpt><trkpt lat="43.37997294850145" lon="11.396453143052439"><ele>403.3333333333333</ele><time>2026-04-11T05:13:56Z</time></trkpt><trkpt lat="43.38006303401379" lon="11.396438439822031"><ele>404.0</ele><time>2026-04-11T05:13:59Z</time></trkpt><trkpt lat="43.38014881196613" lon="11.396427397689534"><ele>403.99999999999994</ele><time>2026-04-11T05:14:02Z</time></trkpt><trkpt lat="43.3802386075558" lon="11.396409392323555"><ele>404.0</ele><time>2026-04-11T05:14:05Z</time></trkpt><trkpt lat="43.380301443186525" lon="11.396401678803292"><ele>404.0</ele><time>2026-04-11T05:14:07Z</time></trkpt><trkpt lat="43.38039063283935" lon="11.396373344891478"><ele>404.0</ele><time>2026-04-11T05:14:10Z</time></trkpt><trkpt lat="43.380482421786596" lon="11.396350168890534"><ele>403.99999999999994</ele><time>2026-04-11T05:14:13Z</time></trkpt><trkpt lat="43.38057276240494" lon="11.39633897230986"><ele>404.0</ele><time>2026-04-11T05:14:16Z</time></trkpt><trkpt lat="43.38066058760601" lon="11.396323247077392"><ele>404.79999999999995</ele><time>2026-04-11T05:14:19Z</time></trkpt><trkpt lat="43.38075026975293" lon="11.396312423097966"><ele>405.59999999999997</ele><time>2026-04-11T05:14:22Z</time></trkpt><trkpt lat="43.38086874853008" lon="11.396305177823958"><ele>406.4</ele><time>2026-04-11T05:14:26Z</time></trkpt><trkpt lat="43.38094865108202" lon="11.39630075283063"><ele>407.2</ele><time>2026-04-11T05:14:29Z</time></trkpt><trkpt lat="43.38106163284266" lon="11.396292193765392"><ele>408.0</ele><time>2026-04-11T05:14:33Z</time></trkpt><trkpt lat="43.38114392220761" lon="11.396284019888226"><ele>408.0</ele><time>2026-04-11T05:14:36Z</time></trkpt><trkpt lat="43.381206896650404" lon="11.396269464003026"><ele>408.0</ele><time>2026-04-11T05:14:38Z</time></trkpt><trkpt lat="43.38130236452356" lon="11.396263951538609"><ele>408.0</ele><time>2026-04-11T05:14:41Z</time></trkpt><trkpt lat="43.38138877577659" lon="11.396254292877586"><ele>408.0</ele><time>2026-04-11T05:14:44Z</time></trkpt><trkpt lat="43.38147161318909" lon="11.396239280911697"><ele>408.0</ele><time>2026-04-11T05:14:46Z</time></trkpt><trkpt lat="43.38157224824581" lon="11.396218940942365"><ele>408.0</ele><time>2026-04-11T05:14:49Z</time></trkpt><trkpt lat="43.38167058687966" lon="11.396203317631686"><ele>408.4</ele><time>2026-04-11T05:14:52Z</time></trkpt><trkpt lat="43.381754537633945" lon="11.396194981827254"><ele>408.79999999999995</ele><time>2026-04-11T05:14:54Z</time></trkpt><trkpt lat="43.38183947787214" lon="11.396181270750013"><ele>409.2</ele><time>2026-04-11T05:14:57Z</time></trkpt><trkpt lat="43.38190973232616" lon="11.396171049155452"><ele>409.6</ele><time>2026-04-11T05:14:59Z</time></trkpt><trkpt lat="43.38204144825694" lon="11.396156664646456"><ele>410.0</ele><time>2026-04-11T05:15:03Z</time></trkpt><trkpt lat="43.382122989056946" lon="11.396122435766083"><ele>410.8</ele><time>2026-04-11T05:15:05Z</time></trkpt><trkpt lat="43.38222185282064" lon="11.396091977738173"><ele>411.6</ele><time>2026-04-11T05:15:07Z</time></trkpt><trkpt lat="43.38232644952711" lon="11.396074448559933"><ele>412.4</ele><time>2026-04-11T05:15:09Z</time></trkpt><trkpt lat="43.38239331606087" lon="11.396048216696334"><ele>413.2</ele><time>2026-04-11T05:15:11Z</time></trkpt><trkpt lat="43.38247543069163" lon="11.39603225284303"><ele>414.0</ele><time>2026-04-11T05:15:13Z</time></trkpt><trkpt lat="43.38258246585298" lon="11.39599342473651"><ele>414.0</ele><time>2026-04-11T05:15:15Z</time></trkpt><trkpt lat="43.38266387072502" lon="11.395967174624452"><ele>414.0</ele><time>2026-04-11T05:15:16Z</time></trkpt><trkpt lat="43.38277925523335" lon="11.395932199887838"><ele>414.0</ele><time>2026-04-11T05:15:18Z</time></trkpt><trkpt lat="43.382893656280565" lon="11.395896852891243"><ele>414.0</ele><time>2026-04-11T05:15:20Z</time></trkpt><trkpt lat="43.38299638564466" lon="11.395851803406433"><ele>414.0</ele><time>2026-04-11T05:15:23Z</time></trkpt><trkpt lat="43.38308414655774" lon="11.39581424686135"><ele>414.79999999999995</ele><time>2026-04-11T05:15:25Z</time></trkpt><trkpt lat="43.38318903123109" lon="11.395780206540037"><ele>415.59999999999997</ele><time>2026-04-11T05:15:27Z</time></trkpt><trkpt lat="43.383310088996474" lon="11.395736861075175"><ele>416.4</ele><time>2026-04-11T05:15:29Z</time></trkpt><trkpt lat="43.38339450641968" lon="11.395698930082618"><ele>417.2</ele><time>2026-04-11T05:15:31Z</time></trkpt><trkpt lat="43.38349276530794" lon="11.395667680133043"><ele>418.0</ele><time>2026-04-11T05:15:32Z</time></trkpt><trkpt lat="43.383573526314564" lon="11.395651617504052"><ele>418.0</ele><time>2026-04-11T05:15:34Z</time></trkpt><trkpt lat="43.38365830511488" lon="11.39561850549492"><ele>418.0</ele><time>2026-04-11T05:15:35Z</time></trkpt><trkpt lat="43.38375687904918" lon="11.395574845000121"><ele>418.0</ele><time>2026-04-11T05:15:37Z</time></trkpt><trkpt lat="43.38387625927943" lon="11.395591378124085"><ele>418.0</ele><time>2026-04-11T05:15:40Z</time></trkpt><trkpt lat="43.38406475617357" lon="11.395520258669771"><ele>417.59999999999997</ele><time>2026-04-11T05:15:43Z</time></trkpt><trkpt lat="43.38415605149934" lon="11.39548608767034"><ele>417.2</ele><time>2026-04-11T05:15:45Z</time></trkpt><trkpt lat="43.38424420000947" lon="11.395453092812193"><ele>416.8</ele><time>2026-04-11T05:15:47Z</time></trkpt><trkpt lat="43.38433195776332" lon="11.39541794416094"><ele>416.4</ele><time>2026-04-11T05:15:49Z</time></trkpt><trkpt lat="43.38441851173266" lon="11.395381567475889"><ele>416.0</ele><time>2026-04-11T05:15:51Z</time></trkpt><trkpt lat="43.38451010325392" lon="11.395334412107166"><ele>416.0</ele><time>2026-04-11T05:15:53Z</time></trkpt><trkpt lat="43.384593530000544" lon="11.395274834403306"><ele>416.0</ele><time>2026-04-11T05:15:55Z</time></trkpt><trkpt lat="43.3846599570662" lon="11.395182524731299"><ele>416.0</ele><time>2026-04-11T05:15:57Z</time></trkpt><trkpt lat="43.38472810741462" lon="11.395097878526643"><ele>416.0</ele><time>2026-04-11T05:15:59Z</time></trkpt><trkpt lat="43.38480028332725" lon="11.39503748814382"><ele>416.0</ele><time>2026-04-11T05:16:01Z</time></trkpt><trkpt lat="43.384836813444316" lon="11.394912408989462"><ele>417.4</ele><time>2026-04-11T05:16:05Z</time></trkpt><trkpt lat="43.38488622788528" lon="11.394829721070037"><ele>418.8</ele><time>2026-04-11T05:16:08Z</time></trkpt><trkpt lat="43.38494292464089" lon="11.394729816544073"><ele>420.2</ele><time>2026-04-11T05:16:10Z</time></trkpt><trkpt lat="43.38500987915067" lon="11.394635060929707"><ele>421.59999999999997</ele><time>2026-04-11T05:16:12Z</time></trkpt><trkpt lat="43.38507908924763" lon="11.394550979022906"><ele>423.0</ele><time>2026-04-11T05:16:14Z</time></trkpt><trkpt lat="43.38514302200377" lon="11.39443876334448"><ele>423.4</ele><time>2026-04-11T05:16:17Z</time></trkpt><trkpt lat="43.385189034501195" lon="11.394361794804368"><ele>423.79999999999995</ele><time>2026-04-11T05:16:19Z</time></trkpt><trkpt lat="43.38524297114557" lon="11.39428440371637"><ele>424.2</ele><time>2026-04-11T05:16:21Z</time></trkpt><trkpt lat="43.38531004001157" lon="11.394158890036614"><ele>424.6</ele><time>2026-04-11T05:16:23Z</time></trkpt><trkpt lat="43.38538933559251" lon="11.394051728414498"><ele>425.0</ele><time>2026-04-11T05:16:25Z</time></trkpt><trkpt lat="43.38546061871465" lon="11.393958739158068"><ele>424.99999999999994</ele><time>2026-04-11T05:16:27Z</time></trkpt><trkpt lat="43.385514510272664" lon="11.393890739011896"><ele>425.0</ele><time>2026-04-11T05:16:30Z</time></trkpt><trkpt lat="43.385591558847764" lon="11.393785065567625"><ele>425.0</ele><time>2026-04-11T05:16:33Z</time></trkpt><trkpt lat="43.38563353443621" lon="11.393719742591324"><ele>425.0</ele><time>2026-04-11T05:16:35Z</time></trkpt><trkpt lat="43.385680331733774" lon="11.393655316054238"><ele>424.99999999999994</ele><time>2026-04-11T05:16:37Z</time></trkpt><trkpt lat="43.38573128840629" lon="11.393585239938067"><ele>425.0</ele><time>2026-04-11T05:16:39Z</time></trkpt><trkpt lat="43.38576971246512" lon="11.393509193242691"><ele>425.42857142857144</ele><time>2026-04-11T05:16:41Z</time></trkpt><trkpt lat="43.385818978212" lon="11.3934494298459"><ele>425.85714285714283</ele><time>2026-04-11T05:16:43Z</time></trkpt><trkpt lat="43.38586115595374" lon="11.39337400071551"><ele>426.28571428571433</ele><time>2026-04-11T05:16:45Z</time></trkpt><trkpt lat="43.38590407557164" lon="11.393302803375489"><ele>426.7142857142857</ele><time>2026-04-11T05:16:47Z</time></trkpt><trkpt lat="43.385943606995575" lon="11.393232454803293"><ele>427.14285714285717</ele><time>2026-04-11T05:16:49Z</time></trkpt><trkpt lat="43.38600464280462" lon="11.393136199534547"><ele>427.5714285714286</ele><time>2026-04-11T05:16:52Z</time></trkpt><trkpt lat="43.38606723739911" lon="11.393047357406314"><ele>428.0</ele><time>2026-04-11T05:16:55Z</time></trkpt><trkpt lat="43.386130549656556" lon="11.392968004311209"><ele>427.99999999999994</ele><time>2026-04-11T05:16:58Z</time></trkpt><trkpt lat="43.38618188196687" lon="11.39291021871332"><ele>428.0</ele><time>2026-04-11T05:17:00Z</time></trkpt><trkpt lat="43.38625296702356" lon="11.392831049821407"><ele>428.0</ele><time>2026-04-11T05:17:03Z</time></trkpt><trkpt lat="43.38632688191758" lon="11.392753065086195"><ele>428.0</ele><time>2026-04-11T05:17:06Z</time></trkpt><trkpt lat="43.38640278377629" lon="11.392675386935617"><ele>427.99999999999994</ele><time>2026-04-11T05:17:09Z</time></trkpt><trkpt lat="43.386452569832116" lon="11.392616109417858"><ele>428.0</ele><time>2026-04-11T05:17:11Z</time></trkpt><trkpt lat="43.38650609736068" lon="11.392560550397588"><ele>428.28571428571433</ele><time>2026-04-11T05:17:13Z</time></trkpt><trkpt lat="43.386558672564334" lon="11.392498223022326"><ele>428.57142857142856</ele><time>2026-04-11T05:17:15Z</time></trkpt><trkpt lat="43.38660697622042" lon="11.392440596514467"><ele>428.8571428571429</ele><time>2026-04-11T05:17:17Z</time></trkpt><trkpt lat="43.386665615926425" lon="11.39237263911471"><ele>429.14285714285717</ele><time>2026-04-11T05:17:19Z</time></trkpt><trkpt lat="43.38671009421116" lon="11.392311006254776"><ele>429.42857142857144</ele><time>2026-04-11T05:17:21Z</time></trkpt><trkpt lat="43.38676639600288" lon="11.3922518236923"><ele>429.7142857142857</ele><time>2026-04-11T05:17:23Z</time></trkpt><trkpt lat="43.38681955046567" lon="11.392178236942826"><ele>430.0</ele><time>2026-04-11T05:17:25Z</time></trkpt><trkpt lat="43.38687342668293" lon="11.392118801469666"><ele>430.00000000000006</ele><time>2026-04-11T05:17:27Z</time></trkpt><trkpt lat="43.38694185321369" lon="11.392035146155386"><ele>430.0</ele><time>2026-04-11T05:17:30Z</time></trkpt><trkpt lat="43.38700750965192" lon="11.391945150397525"><ele>430.0</ele><time>2026-04-11T05:17:33Z</time></trkpt><trkpt lat="43.38706007128796" lon="11.3918780850768"><ele>430.0</ele><time>2026-04-11T05:17:35Z</time></trkpt><trkpt lat="43.38710000734251" lon="11.391805886937654"><ele>430.00000000000006</ele><time>2026-04-11T05:17:37Z</time></trkpt><trkpt lat="43.38714430717689" lon="11.391738936092697"><ele>430.0</ele><time>2026-04-11T05:17:39Z</time></trkpt><trkpt lat="43.387217915979484" lon="11.391627169078669"><ele>430.8</ele><time>2026-04-11T05:17:41Z</time></trkpt><trkpt lat="43.38728646878211" lon="11.39153013309516"><ele>431.6</ele><time>2026-04-11T05:17:43Z</time></trkpt><trkpt lat="43.387363322649335" lon="11.391426169221896"><ele>432.4</ele><time>2026-04-11T05:17:45Z</time></trkpt><trkpt lat="43.38743185894313" lon="11.391318665377687"><ele>433.2</ele><time>2026-04-11T05:17:47Z</time></trkpt><trkpt lat="43.38750795415453" lon="11.391218006855663"><ele>434.0</ele><time>2026-04-11T05:17:49Z</time></trkpt><trkpt lat="43.387573792545076" lon="11.39112680531237"><ele>434.3333333333333</ele><time>2026-04-11T05:17:51Z</time></trkpt><trkpt lat="43.38763391075977" lon="11.39104644108817"><ele>434.66666666666663</ele><time>2026-04-11T05:17:53Z</time></trkpt><trkpt lat="43.38767795940359" lon="11.390955302339371"><ele>435.0</ele><time>2026-04-11T05:17:55Z</time></trkpt><trkpt lat="43.38773272686909" lon="11.390872289635448"><ele>435.33333333333337</ele><time>2026-04-11T05:17:57Z</time></trkpt><trkpt lat="43.387793919103466" lon="11.390800723408876"><ele>435.6666666666667</ele><time>2026-04-11T05:17:59Z</time></trkpt><trkpt lat="43.38785378550626" lon="11.390715286181644"><ele>436.0</ele><time>2026-04-11T05:18:01Z</time></trkpt><trkpt lat="43.38790937838552" lon="11.390626370075038"><ele>436.0</ele><time>2026-04-11T05:18:03Z</time></trkpt><trkpt lat="43.38797813297279" lon="11.390524897380711"><ele>436.0</ele><time>2026-04-11T05:18:05Z</time></trkpt><trkpt lat="43.3880325125882" lon="11.390399662085326"><ele>436.0</ele><time>2026-04-11T05:18:07Z</time></trkpt><trkpt lat="43.388068141716026" lon="11.390247044771572"><ele>436.0</ele><time>2026-04-11T05:18:09Z</time></trkpt><trkpt lat="43.38808097487314" lon="11.390161726003845"><ele>436.0</ele><time>2026-04-11T05:18:10Z</time></trkpt><trkpt lat="43.388096084278914" lon="11.390072623260519"><ele>434.6666666666667</ele><time>2026-04-11T05:18:11Z</time></trkpt><trkpt lat="43.3881413169781" lon="11.389981242247108"><ele>433.33333333333337</ele><time>2026-04-11T05:18:12Z</time></trkpt><trkpt lat="43.388158791152335" lon="11.38988251446992"><ele>432.0</ele><time>2026-04-11T05:18:13Z</time></trkpt><trkpt lat="43.38818105431098" lon="11.389779988430382"><ele>430.66666666666663</ele><time>2026-04-11T05:18:14Z</time></trkpt><trkpt lat="43.38820844719985" lon="11.38967559903602"><ele>429.3333333333333</ele><time>2026-04-11T05:18:15Z</time></trkpt><trkpt lat="43.388241542543206" lon="11.38957631908507"><ele>428.0</ele><time>2026-04-11T05:18:16Z</time></trkpt><trkpt lat="43.38827942923505" lon="11.389472861034214"><ele>427.8333333333333</ele><time>2026-04-11T05:18:17Z</time></trkpt><trkpt lat="43.38831942395718" lon="11.38937514817656"><ele>427.66666666666663</ele><time>2026-04-11T05:18:18Z</time></trkpt><trkpt lat="43.38836267417499" lon="11.389271850925292"><ele>427.5</ele><time>2026-04-11T05:18:19Z</time></trkpt><trkpt lat="43.3884099451553" lon="11.38916186961396"><ele>427.33333333333337</ele><time>2026-04-11T05:18:20Z</time></trkpt><trkpt lat="43.388455313180856" lon="11.389059082671944"><ele>427.1666666666667</ele><time>2026-04-11T05:18:21Z</time></trkpt><trkpt lat="43.38850220375737" lon="11.388952866003612"><ele>427.0</ele><time>2026-04-11T05:18:22Z</time></trkpt><trkpt lat="43.38854876628704" lon="11.388847447928402"><ele>427.40000000000003</ele><time>2026-04-11T05:18:23Z</time></trkpt><trkpt lat="43.38859699801762" lon="11.388738250784437"><ele>427.80000000000007</ele><time>2026-04-11T05:18:24Z</time></trkpt><trkpt lat="43.38864540399378" lon="11.388629027059448"><ele>428.2</ele><time>2026-04-11T05:18:25Z</time></trkpt><trkpt lat="43.388696186311776" lon="11.388516578873343"><ele>428.6</ele><time>2026-04-11T05:18:26Z</time></trkpt><trkpt lat="43.388743918194805" lon="11.388410885283998"><ele>429.0</ele><time>2026-04-11T05:18:27Z</time></trkpt><trkpt lat="43.388791410162966" lon="11.388305722956737"><ele>429.0</ele><time>2026-04-11T05:18:28Z</time></trkpt><trkpt lat="43.388838215862805" lon="11.38820208023265"><ele>429.0</ele><time>2026-04-11T05:18:29Z</time></trkpt><trkpt lat="43.38888529381029" lon="11.388094985632591"><ele>429.0</ele><time>2026-04-11T05:18:30Z</time></trkpt><trkpt lat="43.38893058102458" lon="11.38798985146601"><ele>429.0</ele><time>2026-04-11T05:18:31Z</time></trkpt><trkpt lat="43.38897580433359" lon="11.38788287089137"><ele>429.0</ele><time>2026-04-11T05:18:32Z</time></trkpt><trkpt lat="43.38901931890317" lon="11.387775271768648"><ele>429.0</ele><time>2026-04-11T05:18:33Z</time></trkpt><trkpt lat="43.389043161380826" lon="11.387655032905235"><ele>428.3333333333333</ele><time>2026-04-11T05:18:34Z</time></trkpt><trkpt lat="43.3890824501617" lon="11.38755611228907"><ele>427.66666666666663</ele><time>2026-04-11T05:18:35Z</time></trkpt><trkpt lat="43.38912187295437" lon="11.387454350132385"><ele>427.0</ele><time>2026-04-11T05:18:36Z</time></trkpt><trkpt lat="43.38916554589715" lon="11.387369948338748"><ele>426.3333333333333</ele><time>2026-04-11T05:18:37Z</time></trkpt><trkpt lat="43.38921311765802" lon="11.387279757430642"><ele>425.66666666666663</ele><time>2026-04-11T05:18:38Z</time></trkpt><trkpt lat="43.389259621466515" lon="11.387193389902459"><ele>425.0</ele><time>2026-04-11T05:18:39Z</time></trkpt><trkpt lat="43.38930279241833" lon="11.387112762887275"><ele>425.0</ele><time>2026-04-11T05:18:40Z</time></trkpt><trkpt lat="43.38934578752531" lon="11.387032464290948"><ele>425.0</ele><time>2026-04-11T05:18:41Z</time></trkpt><trkpt lat="43.38937736957391" lon="11.386946758030609"><ele>425.0</ele><time>2026-04-11T05:18:42Z</time></trkpt><trkpt lat="43.38941446920548" lon="11.386867306988542"><ele>425.0</ele><time>2026-04-11T05:18:43Z</time></trkpt><trkpt lat="43.38946378587663" lon="11.386804411151415"><ele>425.0</ele><time>2026-04-11T05:18:44Z</time></trkpt><trkpt lat="43.38950312758813" lon="11.38672748616252"><ele>425.0</ele><time>2026-04-11T05:18:45Z</time></trkpt><trkpt lat="43.38954109880554" lon="11.386642443614827"><ele>425.0</ele><time>2026-04-11T05:18:46Z</time></trkpt><trkpt lat="43.38957749028019" lon="11.38656499508605"><ele>425.0</ele><time>2026-04-11T05:18:47Z</time></trkpt><trkpt lat="43.389611821729886" lon="11.386490776411554"><ele>425.0</ele><time>2026-04-11T05:18:48Z</time></trkpt><trkpt lat="43.3896460638717" lon="11.38641391635776"><ele>425.0</ele><time>2026-04-11T05:18:49Z</time></trkpt><trkpt lat="43.38970923376448" lon="11.386262816469685"><ele>425.0</ele><time>2026-04-11T05:18:51Z</time></trkpt><trkpt lat="43.38974439448109" lon="11.386109138200695"><ele>425.0</ele><time>2026-04-11T05:18:53Z</time></trkpt><trkpt lat="43.389789724555676" lon="11.385968643645178"><ele>424.49999999999994</ele><time>2026-04-11T05:18:55Z</time></trkpt><trkpt lat="43.38983428731889" lon="11.385821664328367"><ele>424.0</ele><time>2026-04-11T05:18:57Z</time></trkpt><trkpt lat="43.38988384005321" lon="11.38571475363726"><ele>423.5</ele><time>2026-04-11T05:18:59Z</time></trkpt><trkpt lat="43.38991882041594" lon="11.385633591773619"><ele>423.0</ele><time>2026-04-11T05:19:02Z</time></trkpt><trkpt lat="43.390001590752085" lon="11.385627977980299"><ele>422.49999999999994</ele><time>2026-04-11T05:20:52Z</time></trkpt><trkpt lat="43.39007645625837" lon="11.385586477649278"><ele>422.0</ele><time>2026-04-11T05:20:55Z</time></trkpt><trkpt lat="43.390133946859855" lon="11.385534901846905"><ele>422.20000000000005</ele><time>2026-04-11T05:20:57Z</time></trkpt><trkpt lat="43.3902129500772" lon="11.385483973268935"><ele>422.4</ele><time>2026-04-11T05:20:59Z</time></trkpt><trkpt lat="43.39030595387629" lon="11.385412267238516"><ele>422.6</ele><time>2026-04-11T05:21:01Z</time></trkpt><trkpt lat="43.390413642868914" lon="11.385370767252187"><ele>422.79999999999995</ele><time>2026-04-11T05:21:03Z</time></trkpt><trkpt lat="43.39051737473935" lon="11.385297208616933"><ele>423.0</ele><time>2026-04-11T05:21:05Z</time></trkpt><trkpt lat="43.390587212014985" lon="11.38524181001214"><ele>423.2</ele><time>2026-04-11T05:21:06Z</time></trkpt><trkpt lat="43.39068568628177" lon="11.385158754647957"><ele>423.4</ele><time>2026-04-11T05:21:08Z</time></trkpt><trkpt lat="43.39077972360062" lon="11.385053737246603"><ele>423.59999999999997</ele><time>2026-04-11T05:21:10Z</time></trkpt><trkpt lat="43.3908833900364" lon="11.384964389823585"><ele>423.79999999999995</ele><time>2026-04-11T05:21:12Z</time></trkpt><trkpt lat="43.39094930620346" lon="11.38492790395366"><ele>424.0</ele><time>2026-04-11T05:21:13Z</time></trkpt><trkpt lat="43.3910062978053" lon="11.38487621302826"><ele>424.0</ele><time>2026-04-11T05:21:14Z</time></trkpt><trkpt lat="43.39106362705931" lon="11.38482421584924"><ele>424.0</ele><time>2026-04-11T05:21:15Z</time></trkpt><trkpt lat="43.39112081512456" lon="11.38477234672203"><ele>424.0</ele><time>2026-04-11T05:21:16Z</time></trkpt><trkpt lat="43.391177560279566" lon="11.38472087928784"><ele>424.0</ele><time>2026-04-11T05:21:17Z</time></trkpt><trkpt lat="43.391227253472536" lon="11.3846503371261"><ele>424.0</ele><time>2026-04-11T05:21:18Z</time></trkpt><trkpt lat="43.391287947895144" lon="11.384606353738123"><ele>424.0</ele><time>2026-04-11T05:21:19Z</time></trkpt><trkpt lat="43.391343945399804" lon="11.384553268951004"><ele>424.0</ele><time>2026-04-11T05:21:20Z</time></trkpt><trkpt lat="43.391452614851325" lon="11.38446301693182"><ele>424.1666666666667</ele><time>2026-04-11T05:21:22Z</time></trkpt><trkpt lat="43.39151077021516" lon="11.384415950442362"><ele>424.33333333333337</ele><time>2026-04-11T05:21:23Z</time></trkpt><trkpt lat="43.39156781140862" lon="11.38437226013705"><ele>424.5</ele><time>2026-04-11T05:21:24Z</time></trkpt><trkpt lat="43.39163026312807" lon="11.384321794247924"><ele>424.66666666666663</ele><time>2026-04-11T05:21:25Z</time></trkpt><trkpt lat="43.39168231784844" lon="11.38427272931995"><ele>424.8333333333333</ele><time>2026-04-11T05:21:26Z</time></trkpt><trkpt lat="43.391736641359294" lon="11.384219416924335"><ele>425.0</ele><time>2026-04-11T05:21:27Z</time></trkpt><trkpt lat="43.39182482686433" lon="11.384091593459479"><ele>424.99999999999994</ele><time>2026-04-11T05:21:29Z</time></trkpt><trkpt lat="43.391899109448076" lon="11.383941658140396"><ele>425.0</ele><time>2026-04-11T05:21:31Z</time></trkpt><trkpt lat="43.39191965622227" lon="11.383855543588911"><ele>425.0</ele><time>2026-04-11T05:21:32Z</time></trkpt><trkpt lat="43.39193296076758" lon="11.38375752551958"><ele>425.0</ele><time>2026-04-11T05:21:33Z</time></trkpt><trkpt lat="43.39194972928761" lon="11.383667256921356"><ele>424.99999999999994</ele><time>2026-04-11T05:21:34Z</time></trkpt><trkpt lat="43.39196317222898" lon="11.383572828877774"><ele>425.0</ele><time>2026-04-11T05:21:35Z</time></trkpt><trkpt lat="43.39196942843221" lon="11.383468350170878"><ele>424.99999999999994</ele><time>2026-04-11T05:21:36Z</time></trkpt><trkpt lat="43.39197854264662" lon="11.383369187835918"><ele>425.0</ele><time>2026-04-11T05:21:37Z</time></trkpt><trkpt lat="43.39198732864638" lon="11.383261009778524"><ele>425.0</ele><time>2026-04-11T05:21:38Z</time></trkpt><trkpt lat="43.392002260998154" lon="11.383163995206887"><ele>425.0</ele><time>2026-04-11T05:21:39Z</time></trkpt><trkpt lat="43.392020609643346" lon="11.383066291631808"><ele>424.99999999999994</ele><time>2026-04-11T05:21:40Z</time></trkpt><trkpt lat="43.392048577504454" lon="11.382964055627781"><ele>425.0</ele><time>2026-04-11T05:21:41Z</time></trkpt><trkpt lat="43.39209387018375" lon="11.382867638775158"><ele>424.99999999999994</ele><time>2026-04-11T05:21:42Z</time></trkpt><trkpt lat="43.39213537795633" lon="11.382780226635925"><ele>425.0</ele><time>2026-04-11T05:21:43Z</time></trkpt><trkpt lat="43.39219382736567" lon="11.382702625720995"><ele>425.0</ele><time>2026-04-11T05:21:44Z</time></trkpt><trkpt lat="43.39225404076983" lon="11.382620959384582"><ele>425.0</ele><time>2026-04-11T05:21:45Z</time></trkpt><trkpt lat="43.392314263664026" lon="11.382555505651904"><ele>424.99999999999994</ele><time>2026-04-11T05:21:46Z</time></trkpt><trkpt lat="43.39237600486516" lon="11.382488751485242"><ele>425.0</ele><time>2026-04-11T05:21:47Z</time></trkpt><trkpt lat="43.39243902807366" lon="11.38243085331508"><ele>425.0</ele><time>2026-04-11T05:21:48Z</time></trkpt><trkpt lat="43.39250113328833" lon="11.382372936418253"><ele>425.0</ele><time>2026-04-11T05:21:49Z</time></trkpt><trkpt lat="43.392564743879376" lon="11.382321288390084"><ele>425.0</ele><time>2026-04-11T05:21:50Z</time></trkpt><trkpt lat="43.39262810186963" lon="11.382263764322575"><ele>425.0</ele><time>2026-04-11T05:21:51Z</time></trkpt><trkpt lat="43.39269226878057" lon="11.382211931973957"><ele>425.0</ele><time>2026-04-11T05:21:52Z</time></trkpt><trkpt lat="43.39275314488842" lon="11.38215868903198"><ele>425.0</ele><time>2026-04-11T05:21:53Z</time></trkpt><trkpt lat="43.392823266918754" lon="11.38211266950482"><ele>425.0</ele><time>2026-04-11T05:21:54Z</time></trkpt><trkpt lat="43.392894205854155" lon="11.382039504371447"><ele>425.16666666666663</ele><time>2026-04-11T05:21:55Z</time></trkpt><trkpt lat="43.39296348110751" lon="11.381982942553417"><ele>425.3333333333333</ele><time>2026-04-11T05:21:56Z</time></trkpt><trkpt lat="43.39302780685075" lon="11.381924005778219"><ele>425.5</ele><time>2026-04-11T05:21:57Z</time></trkpt><trkpt lat="43.39309574175982" lon="11.381866882198969"><ele>425.66666666666663</ele><time>2026-04-11T05:21:58Z</time></trkpt><trkpt lat="43.39316457153832" lon="11.381810866855464"><ele>425.8333333333333</ele><time>2026-04-11T05:21:59Z</time></trkpt><trkpt lat="43.393237927527544" lon="11.381753528965604"><ele>426.0</ele><time>2026-04-11T05:22:00Z</time></trkpt><trkpt lat="43.39330939806827" lon="11.381690646155478"><ele>425.3333333333333</ele><time>2026-04-11T05:22:01Z</time></trkpt><trkpt lat="43.39339367344151" lon="11.381624404674168"><ele>424.66666666666663</ele><time>2026-04-11T05:22:02Z</time></trkpt><trkpt lat="43.39346960521237" lon="11.381570396652283"><ele>424.0</ele><time>2026-04-11T05:22:03Z</time></trkpt><trkpt lat="43.39354525433455" lon="11.381513920995712"><ele>423.3333333333333</ele><time>2026-04-11T05:22:04Z</time></trkpt><trkpt lat="43.39361785648436" lon="11.38145288979561"><ele>422.66666666666663</ele><time>2026-04-11T05:22:05Z</time></trkpt><trkpt lat="43.39370522594153" lon="11.381412598362799"><ele>422.0</ele><time>2026-04-11T05:22:06Z</time></trkpt><trkpt lat="43.393781848782474" lon="11.381340851859981"><ele>420.6</ele><time>2026-04-11T05:22:07Z</time></trkpt><trkpt lat="43.39387472323465" lon="11.38129559540831"><ele>419.20000000000005</ele><time>2026-04-11T05:22:08Z</time></trkpt><trkpt lat="43.39396638450138" lon="11.381245809043353"><ele>417.8</ele><time>2026-04-11T05:22:09Z</time></trkpt><trkpt lat="43.39406047276903" lon="11.381225376887702"><ele>416.4</ele><time>2026-04-11T05:22:10Z</time></trkpt><trkpt lat="43.3941464651692" lon="11.381185022159865"><ele>415.0</ele><time>2026-04-11T05:22:11Z</time></trkpt><trkpt lat="43.39423366936899" lon="11.38113862735132"><ele>415.0</ele><time>2026-04-11T05:22:12Z</time></trkpt><trkpt lat="43.39432121267349" lon="11.381098945003274"><ele>415.0</ele><time>2026-04-11T05:22:13Z</time></trkpt><trkpt lat="43.39442037512212" lon="11.38106680198641"><ele>415.0</ele><time>2026-04-11T05:22:14Z</time></trkpt><trkpt lat="43.394517249991196" lon="11.38104628584464"><ele>415.0</ele><time>2026-04-11T05:22:15Z</time></trkpt><trkpt lat="43.394610970911316" lon="11.381024850219058"><ele>415.0</ele><time>2026-04-11T05:22:16Z</time></trkpt><trkpt lat="43.394701765140084" lon="11.381014969510396"><ele>415.1666666666667</ele><time>2026-04-11T05:22:17Z</time></trkpt><trkpt lat="43.39479338955286" lon="11.381002193777052"><ele>415.33333333333337</ele><time>2026-04-11T05:22:18Z</time></trkpt><trkpt lat="43.394883654269336" lon="11.380989672410808"><ele>415.5</ele><time>2026-04-11T05:22:19Z</time></trkpt><trkpt lat="43.394970126482455" lon="11.380982052566008"><ele>415.66666666666663</ele><time>2026-04-11T05:22:20Z</time></trkpt><trkpt lat="43.395057583224585" lon="11.380981567335846"><ele>415.8333333333333</ele><time>2026-04-11T05:22:21Z</time></trkpt><trkpt lat="43.395143536786115" lon="11.380975972155639"><ele>416.0</ele><time>2026-04-11T05:22:22Z</time></trkpt><trkpt lat="43.395227463399" lon="11.380969629178685"><ele>415.99999999999994</ele><time>2026-04-11T05:22:23Z</time></trkpt><trkpt lat="43.39531034678834" lon="11.380974266636201"><ele>416.0</ele><time>2026-04-11T05:22:24Z</time></trkpt><trkpt lat="43.395391489679895" lon="11.381010329772877"><ele>416.0</ele><time>2026-04-11T05:22:25Z</time></trkpt><trkpt lat="43.395483538210925" lon="11.381026974823243"><ele>416.0</ele><time>2026-04-11T05:22:26Z</time></trkpt><trkpt lat="43.39557269179977" lon="11.38104309633936"><ele>415.99999999999994</ele><time>2026-04-11T05:22:27Z</time></trkpt><trkpt lat="43.39566557943047" lon="11.381053656729128"><ele>416.0</ele><time>2026-04-11T05:22:28Z</time></trkpt><trkpt lat="43.39575785281223" lon="11.38106168979077"><ele>415.3333333333333</ele><time>2026-04-11T05:22:29Z</time></trkpt><trkpt lat="43.39584792984584" lon="11.381066591517452"><ele>414.66666666666663</ele><time>2026-04-11T05:22:30Z</time></trkpt><trkpt lat="43.39593933422629" lon="11.381067433051207"><ele>414.0</ele><time>2026-04-11T05:22:31Z</time></trkpt><trkpt lat="43.396028210380464" lon="11.381050839152302"><ele>413.33333333333337</ele><time>2026-04-11T05:22:32Z</time></trkpt><trkpt lat="43.396112295151255" lon="11.381016374863874"><ele>412.6666666666667</ele><time>2026-04-11T05:22:33Z</time></trkpt><trkpt lat="43.39619307108115" lon="11.380976514576574"><ele>412.0</ele><time>2026-04-11T05:22:34Z</time></trkpt><trkpt lat="43.396269386211976" lon="11.380914421016673"><ele>411.50000000000006</ele><time>2026-04-11T05:22:35Z</time></trkpt><trkpt lat="43.39633741145673" lon="11.380840006488334"><ele>411.0</ele><time>2026-04-11T05:22:36Z</time></trkpt><trkpt lat="43.39639971441223" lon="11.380764550857778"><ele>410.5</ele><time>2026-04-11T05:22:37Z</time></trkpt><trkpt lat="43.3964564248425" lon="11.380677812315218"><ele>410.0</ele><time>2026-04-11T05:22:38Z</time></trkpt><trkpt lat="43.39650709090452" lon="11.380583705265016"><ele>409.50000000000006</ele><time>2026-04-11T05:22:39Z</time></trkpt><trkpt lat="43.39655050355628" lon="11.380486040527526"><ele>409.0</ele><time>2026-04-11T05:22:40Z</time></trkpt><trkpt lat="43.39657020568116" lon="11.380374252108965"><ele>409.0</ele><time>2026-04-11T05:22:41Z</time></trkpt><trkpt lat="43.396597054696024" lon="11.380272745314008"><ele>409.0</ele><time>2026-04-11T05:22:42Z</time></trkpt><trkpt lat="43.39661965393779" lon="11.380167634929425"><ele>409.0</ele><time>2026-04-11T05:22:43Z</time></trkpt><trkpt lat="43.39663297078832" lon="11.380072886646326"><ele>409.0</ele><time>2026-04-11T05:22:44Z</time></trkpt><trkpt lat="43.39666457999201" lon="11.379986068870165"><ele>409.0</ele><time>2026-04-11T05:22:45Z</time></trkpt><trkpt lat="43.3966830985253" lon="11.379890830696604"><ele>409.0</ele><time>2026-04-11T05:22:46Z</time></trkpt><trkpt lat="43.39668491984182" lon="11.37979919370719"><ele>409.0</ele><time>2026-04-11T05:22:47Z</time></trkpt><trkpt lat="43.39670303441159" lon="11.37971194935812"><ele>410.0</ele><time>2026-04-11T05:22:48Z</time></trkpt><trkpt lat="43.3967216570569" lon="11.379627330078693"><ele>411.0</ele><time>2026-04-11T05:22:49Z</time></trkpt><trkpt lat="43.396755812267436" lon="11.37945972100292"><ele>412.0</ele><time>2026-04-11T05:22:51Z</time></trkpt><trkpt lat="43.39678376939662" lon="11.379298027358638"><ele>413.0</ele><time>2026-04-11T05:22:53Z</time></trkpt><trkpt lat="43.39681560516781" lon="11.379145670421554"><ele>414.0</ele><time>2026-04-11T05:22:55Z</time></trkpt><trkpt lat="43.396841536878675" lon="11.379008314033628"><ele>414.0</ele><time>2026-04-11T05:22:57Z</time></trkpt><trkpt lat="43.396881657677596" lon="11.378890388869012"><ele>414.0</ele><time>2026-04-11T05:22:59Z</time></trkpt><trkpt lat="43.39690014145365" lon="11.378762605947173"><ele>414.0</ele><time>2026-04-11T05:23:01Z</time></trkpt><trkpt lat="43.396946445065495" lon="11.378669955473395"><ele>414.0</ele><time>2026-04-11T05:23:03Z</time></trkpt><trkpt lat="43.39697694896147" lon="11.378560397971839"><ele>414.0</ele><time>2026-04-11T05:23:05Z</time></trkpt><trkpt lat="43.39703002544553" lon="11.378464184930234"><ele>414.0</ele><time>2026-04-11T05:23:07Z</time></trkpt><trkpt lat="43.39709160810439" lon="11.378380989786336"><ele>414.0</ele><time>2026-04-11T05:23:09Z</time></trkpt><trkpt lat="43.39713532651617" lon="11.378285592080458"><ele>414.0</ele><time>2026-04-11T05:23:11Z</time></trkpt><trkpt lat="43.39718904318466" lon="11.378190765055432"><ele>414.0</ele><time>2026-04-11T05:23:13Z</time></trkpt><trkpt lat="43.39723130579825" lon="11.378110675711726"><ele>414.0</ele><time>2026-04-11T05:23:16Z</time></trkpt><trkpt lat="43.397288646412214" lon="11.378032507704068"><ele>414.0</ele><time>2026-04-11T05:23:19Z</time></trkpt><trkpt lat="43.39733977186562" lon="11.377929013882918"><ele>414.0</ele><time>2026-04-11T05:23:22Z</time></trkpt><trkpt lat="43.397393358695126" lon="11.377827158515789"><ele>414.75</ele><time>2026-04-11T05:23:25Z</time></trkpt><trkpt lat="43.39746607775241" lon="11.377735756236936"><ele>415.5</ele><time>2026-04-11T05:23:28Z</time></trkpt><trkpt lat="43.397508667060045" lon="11.377671538640401"><ele>416.25</ele><time>2026-04-11T05:23:30Z</time></trkpt><trkpt lat="43.397553393983" lon="11.377606961554331"><ele>417.0</ele><time>2026-04-11T05:23:32Z</time></trkpt><trkpt lat="43.39781622521051" lon="11.377161185421075"><ele>417.0</ele><time>2026-04-11T05:23:35Z</time></trkpt><trkpt lat="43.397870082330016" lon="11.377068722375565"><ele>417.0</ele><time>2026-04-11T05:23:37Z</time></trkpt><trkpt lat="43.39792685407509" lon="11.376971596572403"><ele>417.0</ele><time>2026-04-11T05:23:39Z</time></trkpt><trkpt lat="43.397998643613406" lon="11.376881597878008"><ele>417.0</ele><time>2026-04-11T05:23:41Z</time></trkpt><trkpt lat="43.39807210213552" lon="11.376783735037764"><ele>417.0</ele><time>2026-04-11T05:23:43Z</time></trkpt><trkpt lat="43.398131797675866" lon="11.37670428986511"><ele>417.8</ele><time>2026-04-11T05:23:45Z</time></trkpt><trkpt lat="43.39819588618968" lon="11.376625605319717"><ele>418.6</ele><time>2026-04-11T05:23:47Z</time></trkpt><trkpt lat="43.39826821534394" lon="11.376558883390889"><ele>419.40000000000003</ele><time>2026-04-11T05:23:49Z</time></trkpt><trkpt lat="43.39835633340878" lon="11.37649809434176"><ele>420.20000000000005</ele><time>2026-04-11T05:23:53Z</time></trkpt><trkpt lat="43.39842897346239" lon="11.376383917060124"><ele>421.0</ele><time>2026-04-11T05:23:54Z</time></trkpt><trkpt lat="43.3984944396308" lon="11.376331940517577"><ele>421.33333333333337</ele><time>2026-04-11T05:23:56Z</time></trkpt><trkpt lat="43.398557988013515" lon="11.376311006332305"><ele>421.6666666666667</ele><time>2026-04-11T05:23:59Z</time></trkpt><trkpt lat="43.398624385731985" lon="11.376266708498298"><ele>422.0</ele><time>2026-04-11T05:24:02Z</time></trkpt><trkpt lat="43.398690314072674" lon="11.376205386646353"><ele>422.33333333333337</ele><time>2026-04-11T05:24:04Z</time></trkpt><trkpt lat="43.398773775765584" lon="11.376143916170284"><ele>422.6666666666667</ele><time>2026-04-11T05:24:07Z</time></trkpt><trkpt lat="43.39884742304705" lon="11.37611807651514"><ele>423.0</ele><time>2026-04-11T05:24:10Z</time></trkpt><trkpt lat="43.39893007660191" lon="11.376109117029229"><ele>423.8333333333333</ele><time>2026-04-11T05:24:13Z</time></trkpt><trkpt lat="43.398991948142694" lon="11.376089473649769"><ele>424.66666666666663</ele><time>2026-04-11T05:24:15Z</time></trkpt><trkpt lat="43.399074214784235" lon="11.376042392070667"><ele>425.5</ele><time>2026-04-11T05:24:18Z</time></trkpt><trkpt lat="43.39916366641848" lon="11.376006083127109"><ele>426.3333333333333</ele><time>2026-04-11T05:24:21Z</time></trkpt><trkpt lat="43.39925139881136" lon="11.375980460643747"><ele>427.16666666666663</ele><time>2026-04-11T05:24:24Z</time></trkpt><trkpt lat="43.3993206411688" lon="11.375903639386745"><ele>428.0</ele><time>2026-04-11T05:24:27Z</time></trkpt><trkpt lat="43.399386083043765" lon="11.375834058943068"><ele>427.99999999999994</ele><time>2026-04-11T05:24:30Z</time></trkpt><trkpt lat="43.3994516324617" lon="11.37577361270707"><ele>428.0</ele><time>2026-04-11T05:24:33Z</time></trkpt><trkpt lat="43.39950916092601" lon="11.375714072987975"><ele>428.0</ele><time>2026-04-11T05:24:35Z</time></trkpt><trkpt lat="43.3995677620024" lon="11.375638091107238"><ele>428.0</ele><time>2026-04-11T05:24:38Z</time></trkpt><trkpt lat="43.39962448955941" lon="11.37555528219364"><ele>427.99999999999994</ele><time>2026-04-11T05:24:41Z</time></trkpt><trkpt lat="43.399682324791144" lon="11.375469122518549"><ele>428.0</ele><time>2026-04-11T05:24:44Z</time></trkpt><trkpt lat="43.39973991204566" lon="11.375385746854995"><ele>429.14285714285717</ele><time>2026-04-11T05:24:47Z</time></trkpt><trkpt lat="43.39979493825571" lon="11.375317086714364"><ele>430.2857142857143</ele><time>2026-04-11T05:24:50Z</time></trkpt><trkpt lat="43.3998363177961" lon="11.375239865165037"><ele>431.42857142857144</ele><time>2026-04-11T05:24:53Z</time></trkpt><trkpt lat="43.39989540666364" lon="11.375156443576019"><ele>432.57142857142856</ele><time>2026-04-11T05:24:57Z</time></trkpt><trkpt lat="43.399941610407566" lon="11.375091290418267"><ele>433.7142857142857</ele><time>2026-04-11T05:25:00Z</time></trkpt><trkpt lat="43.3999874491172" lon="11.37501290447408"><ele>434.8571428571429</ele><time>2026-04-11T05:25:03Z</time></trkpt><trkpt lat="43.40002544816617" lon="11.37493089959364"><ele>436.0</ele><time>2026-04-11T05:25:06Z</time></trkpt><trkpt lat="43.400072622466354" lon="11.374868281192786"><ele>436.0</ele><time>2026-04-11T05:25:08Z</time></trkpt><trkpt lat="43.40011586345233" lon="11.37477662985122"><ele>436.0</ele><time>2026-04-11T05:25:11Z</time></trkpt><trkpt lat="43.40016289202733" lon="11.37470597419067"><ele>436.0</ele><time>2026-04-11T05:25:13Z</time></trkpt><trkpt lat="43.40022283356342" lon="11.374623554926982"><ele>436.0</ele><time>2026-04-11T05:25:16Z</time></trkpt><trkpt lat="43.40027594415926" lon="11.374537034757317"><ele>436.0</ele><time>2026-04-11T05:25:19Z</time></trkpt><trkpt lat="43.40032296891168" lon="11.374476964677143"><ele>436.0</ele><time>2026-04-11T05:25:21Z</time></trkpt><trkpt lat="43.40036583503227" lon="11.374405766210296"><ele>436.0</ele><time>2026-04-11T05:25:23Z</time></trkpt><trkpt lat="43.400404580132026" lon="11.374306877682526"><ele>436.0</ele><time>2026-04-11T05:25:26Z</time></trkpt><trkpt lat="43.40044847771723" lon="11.374214483977623"><ele>436.0</ele><time>2026-04-11T05:25:29Z</time></trkpt><trkpt lat="43.40047728229718" lon="11.374123972215358"><ele>436.0</ele><time>2026-04-11T05:25:32Z</time></trkpt><trkpt lat="43.40051009716402" lon="11.374034133952872"><ele>436.0</ele><time>2026-04-11T05:25:35Z</time></trkpt><trkpt lat="43.400527773841766" lon="11.373935307792799"><ele>436.0</ele><time>2026-04-11T05:25:38Z</time></trkpt><trkpt lat="43.400556462448264" lon="11.37384124432803"><ele>436.0</ele><time>2026-04-11T05:25:41Z</time></trkpt><trkpt lat="43.40056511504337" lon="11.373740455114493"><ele>436.0</ele><time>2026-04-11T05:25:44Z</time></trkpt><trkpt lat="43.40057857977173" lon="11.373611796173137"><ele>436.4</ele><time>2026-04-11T05:25:47Z</time></trkpt><trkpt lat="43.40062306634424" lon="11.373498817196076"><ele>436.8</ele><time>2026-04-11T05:25:49Z</time></trkpt><trkpt lat="43.40066921144048" lon="11.373406755746322"><ele>437.19999999999993</ele><time>2026-04-11T05:25:51Z</time></trkpt><trkpt lat="43.400732696197075" lon="11.373291518527946"><ele>437.59999999999997</ele><time>2026-04-11T05:25:53Z</time></trkpt><trkpt lat="43.400809355720035" lon="11.373176041206275"><ele>438.0</ele><time>2026-04-11T05:25:55Z</time></trkpt><trkpt lat="43.40085435273076" lon="11.373114814468535"><ele>438.0</ele><time>2026-04-11T05:25:56Z</time></trkpt><trkpt lat="43.40090139089222" lon="11.373056471879613"><ele>438.0</ele><time>2026-04-11T05:25:57Z</time></trkpt><trkpt lat="43.40099329598253" lon="11.372942531044474"><ele>438.0</ele><time>2026-04-11T05:25:59Z</time></trkpt><trkpt lat="43.40104405099502" lon="11.372883596284419"><ele>438.0</ele><time>2026-04-11T05:26:00Z</time></trkpt><trkpt lat="43.401101099934955" lon="11.372840277839831"><ele>438.0</ele><time>2026-04-11T05:26:01Z</time></trkpt><trkpt lat="43.401150245591715" lon="11.372774570201415"><ele>438.0</ele><time>2026-04-11T05:26:02Z</time></trkpt><trkpt lat="43.40119821447826" lon="11.372700529097779"><ele>437.6666666666667</ele><time>2026-04-11T05:26:03Z</time></trkpt><trkpt lat="43.40123765336632" lon="11.372615211069151"><ele>437.33333333333337</ele><time>2026-04-11T05:26:04Z</time></trkpt><trkpt lat="43.401281916449356" lon="11.372447107030935"><ele>437.0</ele><time>2026-04-11T05:26:06Z</time></trkpt><trkpt lat="43.401295323275946" lon="11.372353786441261"><ele>436.6666666666667</ele><time>2026-04-11T05:26:07Z</time></trkpt><trkpt lat="43.401304722564184" lon="11.372260464855604"><ele>436.33333333333337</ele><time>2026-04-11T05:26:08Z</time></trkpt><trkpt lat="43.40131135549468" lon="11.372170578906102"><ele>436.0</ele><time>2026-04-11T05:26:09Z</time></trkpt><trkpt lat="43.40131228451151" lon="11.37197275843784"><ele>435.6666666666667</ele><time>2026-04-11T05:26:11Z</time></trkpt><trkpt lat="43.40131014240335" lon="11.371868124588481"><ele>435.33333333333337</ele><time>2026-04-11T05:26:12Z</time></trkpt><trkpt lat="43.401307275934926" lon="11.371766058120421"><ele>435.0</ele><time>2026-04-11T05:26:13Z</time></trkpt><trkpt lat="43.40130060398985" lon="11.371659470507788"><ele>434.66666666666663</ele><time>2026-04-11T05:26:14Z</time></trkpt><trkpt lat="43.401293982438695" lon="11.37155368797408"><ele>434.3333333333333</ele><time>2026-04-11T05:26:15Z</time></trkpt><trkpt lat="43.40128763227582" lon="11.371445065695939"><ele>434.0</ele><time>2026-04-11T05:26:16Z</time></trkpt><trkpt lat="43.40128452059767" lon="11.371338071770404"><ele>433.3333333333333</ele><time>2026-04-11T05:26:17Z</time></trkpt><trkpt lat="43.401284616293474" lon="11.371244648609501"><ele>432.66666666666663</ele><time>2026-04-11T05:26:18Z</time></trkpt><trkpt lat="43.40128524848623" lon="11.371134394126663"><ele>432.0</ele><time>2026-04-11T05:26:19Z</time></trkpt><trkpt lat="43.40128881524669" lon="11.37103674678444"><ele>431.33333333333337</ele><time>2026-04-11T05:26:20Z</time></trkpt><trkpt lat="43.40129763287728" lon="11.370924268435553"><ele>430.6666666666667</ele><time>2026-04-11T05:26:21Z</time></trkpt><trkpt lat="43.40131335243887" lon="11.370822992113172"><ele>430.0</ele><time>2026-04-11T05:26:22Z</time></trkpt><trkpt lat="43.401319999810745" lon="11.370714654352216"><ele>429.85714285714283</ele><time>2026-04-11T05:26:23Z</time></trkpt><trkpt lat="43.401359757581204" lon="11.370623267316939"><ele>429.7142857142857</ele><time>2026-04-11T05:26:24Z</time></trkpt><trkpt lat="43.40138494899722" lon="11.37053620804242"><ele>429.57142857142856</ele><time>2026-04-11T05:26:25Z</time></trkpt><trkpt lat="43.401402181301926" lon="11.370432008631182"><ele>429.42857142857144</ele><time>2026-04-11T05:26:26Z</time></trkpt><trkpt lat="43.40143186029082" lon="11.37034653449186"><ele>429.28571428571433</ele><time>2026-04-11T05:26:27Z</time></trkpt><trkpt lat="43.401460563851494" lon="11.370267464457461"><ele>429.14285714285717</ele><time>2026-04-11T05:26:28Z</time></trkpt><trkpt lat="43.40148564885791" lon="11.37018409129265"><ele>429.0</ele><time>2026-04-11T05:26:29Z</time></trkpt><trkpt lat="43.40151565043099" lon="11.37010256745133"><ele>429.0</ele><time>2026-04-11T05:26:30Z</time></trkpt><trkpt lat="43.40156125028347" lon="11.369942645384308"><ele>429.0</ele><time>2026-04-11T05:26:32Z</time></trkpt><trkpt lat="43.40160161376222" lon="11.369786422688723"><ele>429.0</ele><time>2026-04-11T05:26:34Z</time></trkpt><trkpt lat="43.40163274462483" lon="11.369625162453449"><ele>429.0</ele><time>2026-04-11T05:26:36Z</time></trkpt><trkpt lat="43.4016574608348" lon="11.369471898082159"><ele>429.25</ele><time>2026-04-11T05:26:38Z</time></trkpt><trkpt lat="43.40168657231554" lon="11.369322145110536"><ele>429.5</ele><time>2026-04-11T05:26:40Z</time></trkpt><trkpt lat="43.40171594418908" lon="11.36916449983306"><ele>429.75</ele><time>2026-04-11T05:26:42Z</time></trkpt><trkpt lat="43.40172661052757" lon="11.369005000010143"><ele>430.0</ele><time>2026-04-11T05:26:44Z</time></trkpt><trkpt lat="43.40173455963271" lon="11.368839992769377"><ele>430.4</ele><time>2026-04-11T05:26:46Z</time></trkpt><trkpt lat="43.401722882822945" lon="11.36868661884192"><ele>430.8</ele><time>2026-04-11T05:26:48Z</time></trkpt><trkpt lat="43.40171065048804" lon="11.36854216390533"><ele>431.20000000000005</ele><time>2026-04-11T05:26:50Z</time></trkpt><trkpt lat="43.40169280610737" lon="11.368392948023427"><ele>431.6</ele><time>2026-04-11T05:26:52Z</time></trkpt><trkpt lat="43.40167604217269" lon="11.368249344501367"><ele>432.0</ele><time>2026-04-11T05:26:54Z</time></trkpt><trkpt lat="43.40166030236866" lon="11.368108693512031"><ele>432.3333333333333</ele><time>2026-04-11T05:26:56Z</time></trkpt><trkpt lat="43.40164054035393" lon="11.367949750491448"><ele>432.66666666666663</ele><time>2026-04-11T05:26:59Z</time></trkpt><trkpt lat="43.401647637334115" lon="11.367841909875633"><ele>433.0</ele><time>2026-04-11T05:27:01Z</time></trkpt><trkpt lat="43.401641287167" lon="11.367748024395885"><ele>433.3333333333333</ele><time>2026-04-11T05:27:02Z</time></trkpt><trkpt lat="43.40163353203282" lon="11.367614646053667"><ele>433.66666666666663</ele><time>2026-04-11T05:27:04Z</time></trkpt><trkpt lat="43.40162798125941" lon="11.367519179884214"><ele>434.0</ele><time>2026-04-11T05:27:06Z</time></trkpt><trkpt lat="43.40161883392282" lon="11.36739687011955"><ele>433.99999999999994</ele><time>2026-04-11T05:27:09Z</time></trkpt><trkpt lat="43.40159619661581" lon="11.367242679252112"><ele>434.0</ele><time>2026-04-11T05:27:10Z</time></trkpt><trkpt lat="43.4015812077673" lon="11.367131618193973"><ele>434.0</ele><time>2026-04-11T05:27:12Z</time></trkpt><trkpt lat="43.40155791588655" lon="11.367037863484141"><ele>434.0</ele><time>2026-04-11T05:27:14Z</time></trkpt><trkpt lat="43.40152843417822" lon="11.366959281162472"><ele>433.99999999999994</ele><time>2026-04-11T05:27:16Z</time></trkpt><trkpt lat="43.40150527953703" lon="11.366874536316956"><ele>434.0</ele><time>2026-04-11T05:27:18Z</time></trkpt><trkpt lat="43.40146986169682" lon="11.366793258965163"><ele>434.16666666666663</ele><time>2026-04-11T05:27:20Z</time></trkpt><trkpt lat="43.40143875419606" lon="11.366716302123924"><ele>434.3333333333333</ele><time>2026-04-11T05:27:22Z</time></trkpt><trkpt lat="43.40140309856255" lon="11.36664250997476"><ele>434.5</ele><time>2026-04-11T05:27:24Z</time></trkpt><trkpt lat="43.401367536702985" lon="11.366528112078434"><ele>434.66666666666663</ele><time>2026-04-11T05:27:27Z</time></trkpt><trkpt lat="43.40129247766811" lon="11.366440671656624"><ele>434.8333333333333</ele><time>2026-04-11T05:27:30Z</time></trkpt><trkpt lat="43.40127241623549" lon="11.366339346798059"><ele>435.0</ele><time>2026-04-11T05:27:34Z</time></trkpt><trkpt lat="43.4012518754139" lon="11.36623314334201"><ele>436.0</ele><time>2026-04-11T05:27:37Z</time></trkpt><trkpt lat="43.401237683772585" lon="11.36613084115018"><ele>437.0</ele><time>2026-04-11T05:27:40Z</time></trkpt><trkpt lat="43.40122037273822" lon="11.366028735176302"><ele>438.0</ele><time>2026-04-11T05:27:43Z</time></trkpt><trkpt lat="43.40120242276134" lon="11.365915827479814"><ele>439.0</ele><time>2026-04-11T05:27:46Z</time></trkpt><trkpt lat="43.40118739750231" lon="11.365802551618374"><ele>440.0</ele><time>2026-04-11T05:27:49Z</time></trkpt><trkpt lat="43.401165805922744" lon="11.36570833794569"><ele>441.0</ele><time>2026-04-11T05:27:52Z</time></trkpt><trkpt lat="43.401147737604624" lon="11.365592842902899"><ele>440.8333333333333</ele><time>2026-04-11T05:27:55Z</time></trkpt><trkpt lat="43.401131969668" lon="11.365484948254238"><ele>440.66666666666663</ele><time>2026-04-11T05:27:58Z</time></trkpt><trkpt lat="43.40110647161941" lon="11.365391112541882"><ele>440.5</ele><time>2026-04-11T05:28:01Z</time></trkpt><trkpt lat="43.40109388404541" lon="11.365289151645653"><ele>440.3333333333333</ele><time>2026-04-11T05:28:04Z</time></trkpt><trkpt lat="43.40107519897069" lon="11.36517358810663"><ele>440.16666666666663</ele><time>2026-04-11T05:28:07Z</time></trkpt><trkpt lat="43.40107855362379" lon="11.365016237521923"><ele>440.0</ele><time>2026-04-11T05:28:10Z</time></trkpt><trkpt lat="43.40104835341052" lon="11.364920273392205"><ele>439.99999999999994</ele><time>2026-04-11T05:28:12Z</time></trkpt><trkpt lat="43.40104280783821" lon="11.364814921000596"><ele>440.0</ele><time>2026-04-11T05:28:14Z</time></trkpt><trkpt lat="43.40101420322587" lon="11.364737190738358"><ele>440.0</ele><time>2026-04-11T05:28:16Z</time></trkpt><trkpt lat="43.400981406252924" lon="11.364636970212674"><ele>440.0</ele><time>2026-04-11T05:28:18Z</time></trkpt><trkpt lat="43.400948943303334" lon="11.364547263736172"><ele>440.0</ele><time>2026-04-11T05:28:20Z</time></trkpt><trkpt lat="43.40091674123094" lon="11.364463381545692"><ele>439.99999999999994</ele><time>2026-04-11T05:28:22Z</time></trkpt><trkpt lat="43.400878091363424" lon="11.36437367877861"><ele>440.0</ele><time>2026-04-11T05:28:24Z</time></trkpt><trkpt lat="43.40083533278031" lon="11.364264837054877"><ele>439.99999999999994</ele><time>2026-04-11T05:28:26Z</time></trkpt><trkpt lat="43.40080502251295" lon="11.364142896610797"><ele>440.0</ele><time>2026-04-11T05:28:28Z</time></trkpt><trkpt lat="43.40077899058263" lon="11.364024959123892"><ele>440.0</ele><time>2026-04-11T05:28:30Z</time></trkpt><trkpt lat="43.40077452828364" lon="11.363912007719602"><ele>440.0</ele><time>2026-04-11T05:28:32Z</time></trkpt><trkpt lat="43.40078837852815" lon="11.363826943895056"><ele>439.99999999999994</ele><time>2026-04-11T05:28:34Z</time></trkpt><trkpt lat="43.400809997485275" lon="11.363719434629788"><ele>440.0</ele><time>2026-04-11T05:28:36Z</time></trkpt><trkpt lat="43.400844674539215" lon="11.363606192854908"><ele>440.0</ele><time>2026-04-11T05:28:38Z</time></trkpt><trkpt lat="43.40090180158789" lon="11.363414836209211"><ele>440.0</ele><time>2026-04-11T05:28:39Z</time></trkpt><trkpt lat="43.40095152549096" lon="11.363325060883584"><ele>440.0</ele><time>2026-04-11T05:28:41Z</time></trkpt><trkpt lat="43.40102075508523" lon="11.363265466967462"><ele>440.0</ele><time>2026-04-11T05:28:43Z</time></trkpt><trkpt lat="43.401099405515886" lon="11.363222280681157"><ele>440.0</ele><time>2026-04-11T05:28:45Z</time></trkpt><trkpt lat="43.40117689058357" lon="11.363189584447516"><ele>439.99999999999994</ele><time>2026-04-11T05:28:47Z</time></trkpt><trkpt lat="43.401246323007825" lon="11.363142433383759"><ele>440.0</ele><time>2026-04-11T05:28:49Z</time></trkpt><trkpt lat="43.40131093270076" lon="11.36309738154075"><ele>440.0</ele><time>2026-04-11T05:28:51Z</time></trkpt><trkpt lat="43.40136714544349" lon="11.363036594302416"><ele>440.0</ele><time>2026-04-11T05:28:53Z</time></trkpt><trkpt lat="43.401401107511056" lon="11.362913405596037"><ele>439.99999999999994</ele><time>2026-04-11T05:28:55Z</time></trkpt><trkpt lat="43.40141736962604" lon="11.362787186406242"><ele>440.0</ele><time>2026-04-11T05:28:57Z</time></trkpt><trkpt lat="43.40142136317328" lon="11.362662686746683"><ele>440.66666666666663</ele><time>2026-04-11T05:28:59Z</time></trkpt><trkpt lat="43.401415071681704" lon="11.362541590061209"><ele>441.3333333333333</ele><time>2026-04-11T05:29:01Z</time></trkpt><trkpt lat="43.401398789385645" lon="11.362421704041902"><ele>442.0</ele><time>2026-04-11T05:29:03Z</time></trkpt><trkpt lat="43.40136743220715" lon="11.36232256883478"><ele>442.66666666666663</ele><time>2026-04-11T05:29:06Z</time></trkpt><trkpt lat="43.40133903523294" lon="11.362228095993002"><ele>443.3333333333333</ele><time>2026-04-11T05:29:09Z</time></trkpt><trkpt lat="43.40134939804519" lon="11.362124573159226"><ele>444.0</ele><time>2026-04-11T05:29:11Z</time></trkpt><trkpt lat="43.40138268656785" lon="11.361914311840662"><ele>444.0</ele><time>2026-04-11T05:29:12Z</time></trkpt><trkpt lat="43.40143204997756" lon="11.361828890335362"><ele>444.0</ele><time>2026-04-11T05:29:14Z</time></trkpt><trkpt lat="43.40150141218111" lon="11.361747682853215"><ele>444.0</ele><time>2026-04-11T05:29:16Z</time></trkpt><trkpt lat="43.40158975736195" lon="11.361676897691924"><ele>444.0</ele><time>2026-04-11T05:29:18Z</time></trkpt><trkpt lat="43.40166589568345" lon="11.361599404097667"><ele>444.0</ele><time>2026-04-11T05:29:20Z</time></trkpt><trkpt lat="43.40172950122424" lon="11.361529644758104"><ele>444.0</ele><time>2026-04-11T05:29:22Z</time></trkpt><trkpt lat="43.401792562480814" lon="11.361463096792919"><ele>444.0</ele><time>2026-04-11T05:29:24Z</time></trkpt><trkpt lat="43.401848540482035" lon="11.36137587503679"><ele>444.0</ele><time>2026-04-11T05:29:26Z</time></trkpt><trkpt lat="43.40191184872378" lon="11.361295349643"><ele>444.0</ele><time>2026-04-11T05:29:28Z</time></trkpt><trkpt lat="43.40197795089526" lon="11.36120502802138"><ele>444.0</ele><time>2026-04-11T05:29:30Z</time></trkpt><trkpt lat="43.4020263099754" lon="11.36113926633253"><ele>444.0</ele><time>2026-04-11T05:29:32Z</time></trkpt><trkpt lat="43.40209551600655" lon="11.361054213903556"><ele>444.0</ele><time>2026-04-11T05:29:34Z</time></trkpt><trkpt lat="43.402163120096866" lon="11.361005050916027"><ele>443.5</ele><time>2026-04-11T05:29:36Z</time></trkpt><trkpt lat="43.40223954354764" lon="11.3609467293598"><ele>443.0</ele><time>2026-04-11T05:29:38Z</time></trkpt><trkpt lat="43.402322472473315" lon="11.360905784390175"><ele>442.5</ele><time>2026-04-11T05:29:40Z</time></trkpt><trkpt lat="43.40241796633231" lon="11.360864302290588"><ele>442.0</ele><time>2026-04-11T05:29:42Z</time></trkpt><trkpt lat="43.4024939871796" lon="11.360868325775057"><ele>441.5</ele><time>2026-04-11T05:29:45Z</time></trkpt><trkpt lat="43.402553286620936" lon="11.360925786932503"><ele>441.0</ele><time>2026-04-11T05:29:48Z</time></trkpt><trkpt lat="43.40277871452845" lon="11.360923132688935"><ele>441.0</ele><time>2026-04-11T05:29:49Z</time></trkpt><trkpt lat="43.402874933357516" lon="11.360932441780019"><ele>441.0</ele><time>2026-04-11T05:29:51Z</time></trkpt><trkpt lat="43.402967367911444" lon="11.36093279650643"><ele>441.0</ele><time>2026-04-11T05:29:53Z</time></trkpt><trkpt lat="43.40305544489525" lon="11.360906399587769"><ele>441.0</ele><time>2026-04-11T05:29:55Z</time></trkpt><trkpt lat="43.40313916470134" lon="11.36088013211713"><ele>441.0</ele><time>2026-04-11T05:29:57Z</time></trkpt><trkpt lat="43.40321871634311" lon="11.360863898031488"><ele>441.0</ele><time>2026-04-11T05:29:59Z</time></trkpt><trkpt lat="43.403311194167266" lon="11.3608268445935"><ele>440.6</ele><time>2026-04-11T05:30:01Z</time></trkpt><trkpt lat="43.40339677977869" lon="11.360798216963152"><ele>440.20000000000005</ele><time>2026-04-11T05:30:03Z</time></trkpt><trkpt lat="43.403475026290685" lon="11.360731570512911"><ele>439.79999999999995</ele><time>2026-04-11T05:30:05Z</time></trkpt><trkpt lat="43.40352437579495" lon="11.360606625101603"><ele>439.4</ele><time>2026-04-11T05:30:07Z</time></trkpt><trkpt lat="43.40353336568427" lon="11.360475968654253"><ele>439.0</ele><time>2026-04-11T05:30:09Z</time></trkpt><trkpt lat="43.4035249540013" lon="11.36033542147417"><ele>439.00000000000006</ele><time>2026-04-11T05:30:11Z</time></trkpt><trkpt lat="43.40351566325507" lon="11.360234687128308"><ele>439.0</ele><time>2026-04-11T05:30:14Z</time></trkpt><trkpt lat="43.40351799081174" lon="11.360092785839685"><ele>439.0</ele><time>2026-04-11T05:30:15Z</time></trkpt><trkpt lat="43.403525649335535" lon="11.359969872585339"><ele>439.0</ele><time>2026-04-11T05:30:17Z</time></trkpt><trkpt lat="43.40353773360631" lon="11.35984708948495"><ele>439.00000000000006</ele><time>2026-04-11T05:30:19Z</time></trkpt><trkpt lat="43.40356998164627" lon="11.359733220554826"><ele>439.0</ele><time>2026-04-11T05:30:21Z</time></trkpt><trkpt lat="43.40358834283807" lon="11.359614279603166"><ele>440.2</ele><time>2026-04-11T05:30:23Z</time></trkpt><trkpt lat="43.40360184207774" lon="11.359491136276368"><ele>441.4</ele><time>2026-04-11T05:30:25Z</time></trkpt><trkpt lat="43.40359885713584" lon="11.359364040014368"><ele>442.6</ele><time>2026-04-11T05:30:27Z</time></trkpt><trkpt lat="43.40357594153976" lon="11.359240067323976"><ele>443.8</ele><time>2026-04-11T05:30:29Z</time></trkpt><trkpt lat="43.40351552025456" lon="11.359132850797087"><ele>445.0</ele><time>2026-04-11T05:30:31Z</time></trkpt><trkpt lat="43.40344859112366" lon="11.359060430753344"><ele>445.0</ele><time>2026-04-11T05:30:33Z</time></trkpt><trkpt lat="43.40335002213149" lon="11.359001532574721"><ele>445.0</ele><time>2026-04-11T05:30:35Z</time></trkpt><trkpt lat="43.403267556041186" lon="11.358961396387578"><ele>445.0</ele><time>2026-04-11T05:30:37Z</time></trkpt><trkpt lat="43.40318345896611" lon="11.35898171039589"><ele>445.0</ele><time>2026-04-11T05:30:39Z</time></trkpt><trkpt lat="43.40311207586873" lon="11.35894505840846"><ele>445.0</ele><time>2026-04-11T05:30:41Z</time></trkpt><trkpt lat="43.40302422479788" lon="11.358867368613073"><ele>444.4</ele><time>2026-04-11T05:30:43Z</time></trkpt><trkpt lat="43.40296320364889" lon="11.358756564169608"><ele>443.8</ele><time>2026-04-11T05:30:45Z</time></trkpt><trkpt lat="43.402914450082505" lon="11.358643398861968"><ele>443.20000000000005</ele><time>2026-04-11T05:30:47Z</time></trkpt><trkpt lat="43.402890823491056" lon="11.358530188084297"><ele>442.6</ele><time>2026-04-11T05:30:49Z</time></trkpt><trkpt lat="43.40287355608638" lon="11.35839602377542"><ele>442.0</ele><time>2026-04-11T05:30:51Z</time></trkpt><trkpt lat="43.40285546245374" lon="11.358291924053141"><ele>442.0</ele><time>2026-04-11T05:30:53Z</time></trkpt><trkpt lat="43.40283515894228" lon="11.358167770718264"><ele>442.00000000000006</ele><time>2026-04-11T05:30:55Z</time></trkpt><trkpt lat="43.40281932305576" lon="11.358047847493538"><ele>442.00000000000006</ele><time>2026-04-11T05:30:57Z</time></trkpt><trkpt lat="43.402790359900685" lon="11.357922216710895"><ele>442.0</ele><time>2026-04-11T05:30:59Z</time></trkpt><trkpt lat="43.40277222307638" lon="11.357809062761078"><ele>442.0</ele><time>2026-04-11T05:31:01Z</time></trkpt><trkpt lat="43.40275877975224" lon="11.357688027262347"><ele>442.1666666666667</ele><time>2026-04-11T05:31:03Z</time></trkpt><trkpt lat="43.402758930758374" lon="11.357565381202216"><ele>442.33333333333337</ele><time>2026-04-11T05:31:05Z</time></trkpt><trkpt lat="43.40278317817218" lon="11.357445562707431"><ele>442.5</ele><time>2026-04-11T05:31:07Z</time></trkpt><trkpt lat="43.40282853735703" lon="11.357331735040937"><ele>442.66666666666663</ele><time>2026-04-11T05:31:09Z</time></trkpt><trkpt lat="43.40288454434238" lon="11.357246249983097"><ele>442.8333333333333</ele><time>2026-04-11T05:31:11Z</time></trkpt><trkpt lat="43.40295547612407" lon="11.35718063786845"><ele>443.0</ele><time>2026-04-11T05:31:13Z</time></trkpt><trkpt lat="43.40303512965699" lon="11.357134825888929"><ele>443.66666666666663</ele><time>2026-04-11T05:31:15Z</time></trkpt><trkpt lat="43.40311829665327" lon="11.357114558430297"><ele>444.3333333333333</ele><time>2026-04-11T05:31:17Z</time></trkpt><trkpt lat="43.40321104617189" lon="11.357114136686402"><ele>445.0</ele><time>2026-04-11T05:31:20Z</time></trkpt><trkpt lat="43.403280214373346" lon="11.357090732729555"><ele>445.66666666666663</ele><time>2026-04-11T05:31:23Z</time></trkpt><trkpt lat="43.403379171783854" lon="11.357085363720861"><ele>446.3333333333333</ele><time>2026-04-11T05:31:27Z</time></trkpt><trkpt lat="43.403454837975005" lon="11.357055678368372"><ele>447.0</ele><time>2026-04-11T05:31:30Z</time></trkpt><trkpt lat="43.40352603456996" lon="11.357049074458198"><ele>447.0</ele><time>2026-04-11T05:31:32Z</time></trkpt><trkpt lat="43.403617057532685" lon="11.35698219317068"><ele>447.0</ele><time>2026-04-11T05:31:34Z</time></trkpt><trkpt lat="43.40368797250042" lon="11.356882643425239"><ele>447.0</ele><time>2026-04-11T05:31:36Z</time></trkpt><trkpt lat="43.40370434841103" lon="11.356769335182955"><ele>447.0</ele><time>2026-04-11T05:31:38Z</time></trkpt><trkpt lat="43.40369926917571" lon="11.356658687768409"><ele>447.0</ele><time>2026-04-11T05:31:40Z</time></trkpt><trkpt lat="43.4036690879065" lon="11.356562459257354"><ele>447.0</ele><time>2026-04-11T05:31:44Z</time></trkpt><trkpt lat="43.40362093321968" lon="11.356485604414848"><ele>447.0</ele><time>2026-04-11T05:31:47Z</time></trkpt><trkpt lat="43.40358289779941" lon="11.356372547721374"><ele>447.00000000000006</ele><time>2026-04-11T05:31:50Z</time></trkpt><trkpt lat="43.40358078540349" lon="11.356157542247693"><ele>447.00000000000006</ele><time>2026-04-11T05:31:51Z</time></trkpt><trkpt lat="43.4036051291473" lon="11.356045781024672"><ele>447.0</ele><time>2026-04-11T05:31:53Z</time></trkpt><trkpt lat="43.40366811220243" lon="11.35595496441519"><ele>447.0</ele><time>2026-04-11T05:31:55Z</time></trkpt><trkpt lat="43.40373067903604" lon="11.355865347428944"><ele>446.8333333333333</ele><time>2026-04-11T05:31:57Z</time></trkpt><trkpt lat="43.40380226427911" lon="11.355798049986122"><ele>446.66666666666663</ele><time>2026-04-11T05:31:59Z</time></trkpt><trkpt lat="43.40388003662289" lon="11.355736953322735"><ele>446.5</ele><time>2026-04-11T05:32:01Z</time></trkpt><trkpt lat="43.40394923394207" lon="11.355675405543222"><ele>446.3333333333333</ele><time>2026-04-11T05:32:03Z</time></trkpt><trkpt lat="43.404027089611624" lon="11.355621818156571"><ele>446.16666666666663</ele><time>2026-04-11T05:32:05Z</time></trkpt><trkpt lat="43.4041017293009" lon="11.35558271643276"><ele>446.0</ele><time>2026-04-11T05:32:08Z</time></trkpt><trkpt lat="43.404197507973805" lon="11.355561407902497"><ele>446.99999999999994</ele><time>2026-04-11T05:32:09Z</time></trkpt><trkpt lat="43.404283219805414" lon="11.355562414327814"><ele>448.0</ele><time>2026-04-11T05:32:11Z</time></trkpt><trkpt lat="43.404372197067865" lon="11.355587106949965"><ele>449.0</ele><time>2026-04-11T05:32:13Z</time></trkpt><trkpt lat="43.40445460930564" lon="11.355610319161922"><ele>450.0</ele><time>2026-04-11T05:32:15Z</time></trkpt><trkpt lat="43.404531873059554" lon="11.355631716341458"><ele>450.99999999999994</ele><time>2026-04-11T05:32:17Z</time></trkpt><trkpt lat="43.404617527419155" lon="11.355676451135347"><ele>452.0</ele><time>2026-04-11T05:32:19Z</time></trkpt><trkpt lat="43.404687457969445" lon="11.3557226721983"><ele>452.57142857142856</ele><time>2026-04-11T05:32:21Z</time></trkpt><trkpt lat="43.40475751293317" lon="11.355783936613589"><ele>453.1428571428571</ele><time>2026-04-11T05:32:23Z</time></trkpt><trkpt lat="43.40482176246843" lon="11.355846512392642"><ele>453.71428571428567</ele><time>2026-04-11T05:32:25Z</time></trkpt><trkpt lat="43.404888166896754" lon="11.355891138363278"><ele>454.2857142857143</ele><time>2026-04-11T05:32:27Z</time></trkpt><trkpt lat="43.40496063305878" lon="11.355913103763786"><ele>454.8571428571428</ele><time>2026-04-11T05:32:29Z</time></trkpt><trkpt lat="43.40499611085249" lon="11.355986859568283"><ele>455.4285714285714</ele><time>2026-04-11T05:32:33Z</time></trkpt><trkpt lat="43.4050661854044" lon="11.355963605830823"><ele>456.0</ele><time>2026-04-11T05:32:35Z</time></trkpt><trkpt lat="43.4051544540078" lon="11.355984050327953"><ele>456.0</ele><time>2026-04-11T05:32:37Z</time></trkpt><trkpt lat="43.40522076227507" lon="11.355933443092592"><ele>456.0</ele><time>2026-04-11T05:32:39Z</time></trkpt><trkpt lat="43.40527619779412" lon="11.355826562457006"><ele>456.0</ele><time>2026-04-11T05:32:41Z</time></trkpt><trkpt lat="43.40529161608803" lon="11.355739230741818"><ele>456.0</ele><time>2026-04-11T05:32:43Z</time></trkpt><trkpt lat="43.40534070923149" lon="11.355644643478696"><ele>456.0</ele><time>2026-04-11T05:32:45Z</time></trkpt><trkpt lat="43.40539770559501" lon="11.355535404473205"><ele>456.0</ele><time>2026-04-11T05:32:47Z</time></trkpt><trkpt lat="43.40546565246805" lon="11.355445868956341"><ele>455.4</ele><time>2026-04-11T05:32:49Z</time></trkpt><trkpt lat="43.40554746996555" lon="11.35538940968317"><ele>454.8</ele><time>2026-04-11T05:32:51Z</time></trkpt><trkpt lat="43.40567340500343" lon="11.355402730374086"><ele>454.19999999999993</ele><time>2026-04-11T05:32:53Z</time></trkpt><trkpt lat="43.40574803528133" lon="11.355422499653027"><ele>453.59999999999997</ele><time>2026-04-11T05:32:55Z</time></trkpt><trkpt lat="43.405820950154" lon="11.355459026356813"><ele>453.0</ele><time>2026-04-11T05:32:57Z</time></trkpt><trkpt lat="43.40589341169853" lon="11.355500684435452"><ele>454.6666666666667</ele><time>2026-04-11T05:32:59Z</time></trkpt><trkpt lat="43.40593075137039" lon="11.355575292157155"><ele>456.33333333333337</ele><time>2026-04-11T05:33:02Z</time></trkpt><trkpt lat="43.4059915251708" lon="11.355620626267463"><ele>458.0</ele><time>2026-04-11T05:33:03Z</time></trkpt><trkpt lat="43.40605933873288" lon="11.355678415383558"><ele>459.6666666666667</ele><time>2026-04-11T05:33:05Z</time></trkpt><trkpt lat="43.406127886967944" lon="11.355746371185026"><ele>461.33333333333337</ele><time>2026-04-11T05:33:07Z</time></trkpt><trkpt lat="43.40620477747399" lon="11.355804868809326"><ele>463.0</ele><time>2026-04-11T05:33:09Z</time></trkpt><trkpt lat="43.40631269691328" lon="11.355865685401618"><ele>463.59999999999997</ele><time>2026-04-11T05:33:13Z</time></trkpt><trkpt lat="43.406379842221305" lon="11.355908240459003"><ele>464.19999999999993</ele><time>2026-04-11T05:33:15Z</time></trkpt><trkpt lat="43.40647766952485" lon="11.355932328230567"><ele>464.8</ele><time>2026-04-11T05:33:17Z</time></trkpt><trkpt lat="43.40658308067257" lon="11.355922208035816"><ele>465.4</ele><time>2026-04-11T05:33:19Z</time></trkpt><trkpt lat="43.40662124599234" lon="11.355806193198587"><ele>466.0</ele><time>2026-04-11T05:33:21Z</time></trkpt><trkpt lat="43.40670425094158" lon="11.355761154231123"><ele>466.0</ele><time>2026-04-11T05:33:22Z</time></trkpt><trkpt lat="43.40667364337683" lon="11.355629249545295"><ele>466.0</ele><time>2026-04-11T05:33:26Z</time></trkpt><trkpt lat="43.40663790755951" lon="11.355498153962717"><ele>466.0</ele><time>2026-04-11T05:33:29Z</time></trkpt><trkpt lat="43.40661197995777" lon="11.355363072231162"><ele>466.0</ele><time>2026-04-11T05:33:32Z</time></trkpt><trkpt lat="43.40656307511759" lon="11.355069654912308"><ele>465.20000000000005</ele><time>2026-04-11T05:33:34Z</time></trkpt><trkpt lat="43.406565042139334" lon="11.35493550540925"><ele>464.40000000000003</ele><time>2026-04-11T05:33:36Z</time></trkpt><trkpt lat="43.406602760701496" lon="11.354814152451924"><ele>463.6</ele><time>2026-04-11T05:33:38Z</time></trkpt><trkpt lat="43.40666117464623" lon="11.35470744219092"><ele>462.8</ele><time>2026-04-11T05:33:40Z</time></trkpt><trkpt lat="43.406736288143456" lon="11.354629216981698"><ele>462.0</ele><time>2026-04-11T05:33:42Z</time></trkpt><trkpt lat="43.40681568251941" lon="11.354553504852749"><ele>462.6</ele><time>2026-04-11T05:33:44Z</time></trkpt><trkpt lat="43.40689963019879" lon="11.35447932009437"><ele>463.20000000000005</ele><time>2026-04-11T05:33:46Z</time></trkpt><trkpt lat="43.406979857648295" lon="11.35442461003664"><ele>463.8</ele><time>2026-04-11T05:33:48Z</time></trkpt><trkpt lat="43.40706967029945" lon="11.354372112297073"><ele>464.4</ele><time>2026-04-11T05:33:50Z</time></trkpt><trkpt lat="43.40715758299075" lon="11.35433994659703"><ele>465.0</ele><time>2026-04-11T05:33:52Z</time></trkpt><trkpt lat="43.407240767829386" lon="11.354307132704905"><ele>465.0</ele><time>2026-04-11T05:33:54Z</time></trkpt><trkpt lat="43.40733747374536" lon="11.354342460053834"><ele>465.0</ele><time>2026-04-11T05:33:56Z</time></trkpt><trkpt lat="43.40737848491709" lon="11.354408311211332"><ele>465.0</ele><time>2026-04-11T05:33:57Z</time></trkpt><trkpt lat="43.40746915365857" lon="11.354431934634169"><ele>465.0</ele><time>2026-04-11T05:33:59Z</time></trkpt><trkpt lat="43.40756379738349" lon="11.354387761999645"><ele>465.0</ele><time>2026-04-11T05:34:01Z</time></trkpt><trkpt lat="43.4075784451944" lon="11.354303032302406"><ele>465.0</ele><time>2026-04-11T05:34:03Z</time></trkpt><trkpt lat="43.40758038449968" lon="11.354185018550966"><ele>465.0</ele><time>2026-04-11T05:34:06Z</time></trkpt><trkpt lat="43.40771466608117" lon="11.35396032606064"><ele>465.0</ele><time>2026-04-11T05:34:08Z</time></trkpt><trkpt lat="43.40777224771956" lon="11.353862281071894"><ele>465.0</ele><time>2026-04-11T05:34:10Z</time></trkpt><trkpt lat="43.40785876435438" lon="11.353791623791473"><ele>465.0</ele><time>2026-04-11T05:34:12Z</time></trkpt><trkpt lat="43.407960089967716" lon="11.353763497589002"><ele>464.0</ele><time>2026-04-11T05:34:14Z</time></trkpt><trkpt lat="43.40805399317758" lon="11.353779611361439"><ele>463.0</ele><time>2026-04-11T05:34:16Z</time></trkpt><trkpt lat="43.40814793988585" lon="11.3538443642329"><ele>462.0</ele><time>2026-04-11T05:34:18Z</time></trkpt><trkpt lat="43.4082369377312" lon="11.353926964769105"><ele>461.0</ele><time>2026-04-11T05:34:20Z</time></trkpt><trkpt lat="43.40828801790913" lon="11.3540021797065"><ele>460.0</ele><time>2026-04-11T05:34:22Z</time></trkpt><trkpt lat="43.4083619367841" lon="11.354090684412498"><ele>462.4</ele><time>2026-04-11T05:34:24Z</time></trkpt><trkpt lat="43.40844813339054" lon="11.35415789390282"><ele>464.8</ele><time>2026-04-11T05:34:26Z</time></trkpt><trkpt lat="43.40853809318467" lon="11.35418790478474"><ele>467.20000000000005</ele><time>2026-04-11T05:34:28Z</time></trkpt><trkpt lat="43.408640343814305" lon="11.354142028542437"><ele>469.6</ele><time>2026-04-11T05:34:30Z</time></trkpt><trkpt lat="43.40870574502314" lon="11.354047936055261"><ele>472.0</ele><time>2026-04-11T05:34:32Z</time></trkpt><trkpt lat="43.40875863773362" lon="11.35391515752895"><ele>471.33333333333337</ele><time>2026-04-11T05:34:34Z</time></trkpt><trkpt lat="43.40877340255581" lon="11.35378606597094"><ele>470.6666666666667</ele><time>2026-04-11T05:34:36Z</time></trkpt><trkpt lat="43.40878016064696" lon="11.35366976711141"><ele>470.0</ele><time>2026-04-11T05:34:38Z</time></trkpt><trkpt lat="43.40879142684838" lon="11.353548702141783"><ele>469.33333333333337</ele><time>2026-04-11T05:34:40Z</time></trkpt><trkpt lat="43.4088137863521" lon="11.35344226178534"><ele>468.6666666666667</ele><time>2026-04-11T05:34:42Z</time></trkpt><trkpt lat="43.40883379907118" lon="11.353326127807211"><ele>468.0</ele><time>2026-04-11T05:34:44Z</time></trkpt><trkpt lat="43.40890717303045" lon="11.353252908209"><ele>468.0</ele><time>2026-04-11T05:34:46Z</time></trkpt><trkpt lat="43.408997821968065" lon="11.353206244863355"><ele>468.0</ele><time>2026-04-11T05:34:48Z</time></trkpt><trkpt lat="43.40909163754015" lon="11.353179166098998"><ele>468.0</ele><time>2026-04-11T05:34:50Z</time></trkpt><trkpt lat="43.40919073023759" lon="11.353168308133892"><ele>468.0</ele><time>2026-04-11T05:34:52Z</time></trkpt><trkpt lat="43.40935882910091" lon="11.353202079143221"><ele>468.0</ele><time>2026-04-11T05:34:55Z</time></trkpt><trkpt lat="43.4094455123897" lon="11.353232251364785"><ele>467.99999999999994</ele><time>2026-04-11T05:34:57Z</time></trkpt><trkpt lat="43.40953087146544" lon="11.353275639544535"><ele>467.99999999999994</ele><time>2026-04-11T05:34:59Z</time></trkpt><trkpt lat="43.409621522139076" lon="11.353305701155028"><ele>468.0</ele><time>2026-04-11T05:35:01Z</time></trkpt><trkpt lat="43.40971412453531" lon="11.353290397499816"><ele>468.0</ele><time>2026-04-11T05:35:03Z</time></trkpt><trkpt lat="43.40979171239721" lon="11.353208321263084"><ele>468.1666666666667</ele><time>2026-04-11T05:35:05Z</time></trkpt><trkpt lat="43.40983878329941" lon="11.353111592436644"><ele>468.33333333333337</ele><time>2026-04-11T05:35:08Z</time></trkpt><trkpt lat="43.40981706375484" lon="11.35299955215109"><ele>468.5</ele><time>2026-04-11T05:35:11Z</time></trkpt><trkpt lat="43.409828096461595" lon="11.352905233595633"><ele>468.6666666666667</ele><time>2026-04-11T05:35:13Z</time></trkpt><trkpt lat="43.40982277266444" lon="11.352812601571776"><ele>468.83333333333337</ele><time>2026-04-11T05:35:15Z</time></trkpt><trkpt lat="43.40988157208454" lon="11.35269486308287"><ele>469.0</ele><time>2026-04-11T05:35:18Z</time></trkpt><trkpt lat="43.409942693863144" lon="11.352611765254963"><ele>469.0</ele><time>2026-04-11T05:35:20Z</time></trkpt><trkpt lat="43.4099944995687" lon="11.352536493945353"><ele>469.0</ele><time>2026-04-11T05:35:22Z</time></trkpt><trkpt lat="43.4100581575988" lon="11.3524704349813"><ele>469.0</ele><time>2026-04-11T05:35:24Z</time></trkpt><trkpt lat="43.4101210630284" lon="11.352389627741141"><ele>469.0</ele><time>2026-04-11T05:35:27Z</time></trkpt><trkpt lat="43.41026133505327" lon="11.352341573503738"><ele>469.0</ele><time>2026-04-11T05:35:56Z</time></trkpt><trkpt lat="43.41032606996478" lon="11.352314599123035"><ele>469.00000000000006</ele><time>2026-04-11T05:36:21Z</time></trkpt><trkpt lat="43.41039568309141" lon="11.352285813622068"><ele>469.0</ele><time>2026-04-11T05:36:24Z</time></trkpt><trkpt lat="43.41046509277561" lon="11.352285045307443"><ele>469.0</ele><time>2026-04-11T05:36:26Z</time></trkpt><trkpt lat="43.41053150444615" lon="11.352286009740386"><ele>469.0</ele><time>2026-04-11T05:36:28Z</time></trkpt><trkpt lat="43.41061134837582" lon="11.352265793706911"><ele>469.00000000000006</ele><time>2026-04-11T05:36:30Z</time></trkpt><trkpt lat="43.41070831474986" lon="11.352240349203823"><ele>469.0</ele><time>2026-04-11T05:36:33Z</time></trkpt><trkpt lat="43.41078161601639" lon="11.352214801052856"><ele>469.33333333333337</ele><time>2026-04-11T05:36:35Z</time></trkpt><trkpt lat="43.410863838753244" lon="11.352195461163868"><ele>469.6666666666667</ele><time>2026-04-11T05:36:37Z</time></trkpt><trkpt lat="43.41093536408329" lon="11.352142261156377"><ele>470.0</ele><time>2026-04-11T05:36:39Z</time></trkpt><trkpt lat="43.41099189677594" lon="11.352092068303575"><ele>470.33333333333337</ele><time>2026-04-11T05:36:43Z</time></trkpt><trkpt lat="43.41111039946724" lon="11.352104774871952"><ele>470.6666666666667</ele><time>2026-04-11T05:36:45Z</time></trkpt><trkpt lat="43.41119548299594" lon="11.352088808651322"><ele>471.0</ele><time>2026-04-11T05:36:47Z</time></trkpt><trkpt lat="43.411258286990154" lon="11.352074687072472"><ele>470.20000000000005</ele><time>2026-04-11T05:36:48Z</time></trkpt><trkpt lat="43.41136332603977" lon="11.352054372560888"><ele>469.40000000000003</ele><time>2026-04-11T05:36:50Z</time></trkpt><trkpt lat="43.41146264765433" lon="11.352023986060118"><ele>468.6</ele><time>2026-04-11T05:36:52Z</time></trkpt><trkpt lat="43.411555934733336" lon="11.352016127317068"><ele>467.8</ele><time>2026-04-11T05:36:54Z</time></trkpt><trkpt lat="43.41163586022596" lon="11.351996411586915"><ele>467.0</ele><time>2026-04-11T05:36:56Z</time></trkpt><trkpt lat="43.41172224010672" lon="11.351963534001879"><ele>466.99999999999994</ele><time>2026-04-11T05:36:58Z</time></trkpt><trkpt lat="43.41181025896695" lon="11.351945049477658"><ele>467.0</ele><time>2026-04-11T05:37:00Z</time></trkpt><trkpt lat="43.411901797599874" lon="11.351927740696063"><ele>467.0</ele><time>2026-04-11T05:37:02Z</time></trkpt><trkpt lat="43.41198535142091" lon="11.35190029558612"><ele>467.0</ele><time>2026-04-11T05:37:05Z</time></trkpt><trkpt lat="43.41206034584179" lon="11.351873286753225"><ele>466.99999999999994</ele><time>2026-04-11T05:37:07Z</time></trkpt><trkpt lat="43.412146807985174" lon="11.351833656536053"><ele>467.0</ele><time>2026-04-11T05:37:10Z</time></trkpt><trkpt lat="43.41224122445604" lon="11.351843543324488"><ele>467.8333333333333</ele><time>2026-04-11T05:37:13Z</time></trkpt><trkpt lat="43.4122862888602" lon="11.351782136911927"><ele>468.66666666666663</ele><time>2026-04-11T05:37:15Z</time></trkpt><trkpt lat="43.41238485748368" lon="11.351781120417257"><ele>469.5</ele><time>2026-04-11T05:37:17Z</time></trkpt><trkpt lat="43.412459166911454" lon="11.351776930670422"><ele>470.33333333333337</ele><time>2026-04-11T05:37:19Z</time></trkpt><trkpt lat="43.41253508898331" lon="11.351766164329227"><ele>471.1666666666667</ele><time>2026-04-11T05:37:21Z</time></trkpt><trkpt lat="43.4126086539805" lon="11.351733370510598"><ele>472.0</ele><time>2026-04-11T05:37:25Z</time></trkpt><trkpt lat="43.412689970819265" lon="11.351667503969317"><ele>472.0</ele><time>2026-04-11T05:37:28Z</time></trkpt><trkpt lat="43.41275452982683" lon="11.351645197369717"><ele>472.0</ele><time>2026-04-11T05:37:31Z</time></trkpt><trkpt lat="43.412785348009024" lon="11.35156925398711"><ele>472.0</ele><time>2026-04-11T05:37:33Z</time></trkpt><trkpt lat="43.41283463899437" lon="11.35151180363757"><ele>472.0</ele><time>2026-04-11T05:37:35Z</time></trkpt><trkpt lat="43.412915700470094" lon="11.351445578394781"><ele>472.0</ele><time>2026-04-11T05:37:38Z</time></trkpt><trkpt lat="43.41295743777724" lon="11.351373238217937"><ele>472.0</ele><time>2026-04-11T05:37:40Z</time></trkpt><trkpt lat="43.413015268502924" lon="11.351338748368244"><ele>472.0</ele><time>2026-04-11T05:37:42Z</time></trkpt><trkpt lat="43.413081644420664" lon="11.35126030120556"><ele>473.33333333333337</ele><time>2026-04-11T05:37:45Z</time></trkpt><trkpt lat="43.413150039286194" lon="11.351182591043022"><ele>474.6666666666667</ele><time>2026-04-11T05:37:48Z</time></trkpt><trkpt lat="43.41318269554485" lon="11.351085191820815"><ele>476.0</ele><time>2026-04-11T05:37:51Z</time></trkpt><trkpt lat="43.41323988033181" lon="11.351033661143813"><ele>477.33333333333337</ele><time>2026-04-11T05:37:53Z</time></trkpt><trkpt lat="43.4132882013007" lon="11.350937799990728"><ele>478.6666666666667</ele><time>2026-04-11T05:37:56Z</time></trkpt><trkpt lat="43.41334743319285" lon="11.350865767413337"><ele>480.0</ele><time>2026-04-11T05:37:59Z</time></trkpt><trkpt lat="43.413429662499404" lon="11.350791703859567"><ele>480.0</ele><time>2026-04-11T05:38:02Z</time></trkpt><trkpt lat="43.41349439506107" lon="11.350763836412261"><ele>480.0</ele><time>2026-04-11T05:38:05Z</time></trkpt><trkpt lat="43.413570826513144" lon="11.35067986147014"><ele>480.0</ele><time>2026-04-11T05:38:08Z</time></trkpt><trkpt lat="43.4136249396891" lon="11.350617638611368"><ele>480.0</ele><time>2026-04-11T05:38:11Z</time></trkpt><trkpt lat="43.413690555215204" lon="11.350535564157722"><ele>480.0</ele><time>2026-04-11T05:38:14Z</time></trkpt><trkpt lat="43.41373912543702" lon="11.350434230148835"><ele>480.0</ele><time>2026-04-11T05:38:17Z</time></trkpt><trkpt lat="43.413807681278016" lon="11.350438774273577"><ele>482.3333333333333</ele><time>2026-04-11T05:38:20Z</time></trkpt><trkpt lat="43.41388566670766" lon="11.35043974665478"><ele>484.66666666666663</ele><time>2026-04-11T05:38:23Z</time></trkpt><trkpt lat="43.413984138290466" lon="11.350487580111476"><ele>487.0</ele><time>2026-04-11T05:38:25Z</time></trkpt><trkpt lat="43.41406214517769" lon="11.350492663594075"><ele>489.3333333333333</ele><time>2026-04-11T05:38:27Z</time></trkpt><trkpt lat="43.414140903164686" lon="11.350497957635923"><ele>491.66666666666663</ele><time>2026-04-11T05:38:29Z</time></trkpt><trkpt lat="43.414207889661014" lon="11.350460861160988"><ele>494.0</ele><time>2026-04-11T05:38:31Z</time></trkpt><trkpt lat="43.41427558518752" lon="11.350392871742283"><ele>493.99999999999994</ele><time>2026-04-11T05:38:33Z</time></trkpt><trkpt lat="43.41435959432266" lon="11.350339310802282"><ele>494.0</ele><time>2026-04-11T05:38:36Z</time></trkpt><trkpt lat="43.41440709753874" lon="11.350276247490944"><ele>494.0</ele><time>2026-04-11T05:38:38Z</time></trkpt><trkpt lat="43.41445164774542" lon="11.350178302029025"><ele>494.0</ele><time>2026-04-11T05:38:42Z</time></trkpt><trkpt lat="43.41449316957139" lon="11.350105726072172"><ele>493.99999999999994</ele><time>2026-04-11T05:38:45Z</time></trkpt><trkpt lat="43.41452310621364" lon="11.349999340074458"><ele>494.0</ele><time>2026-04-11T05:38:48Z</time></trkpt><trkpt lat="43.414533603794915" lon="11.349903660144827"><ele>493.99999999999994</ele><time>2026-04-11T05:38:50Z</time></trkpt><trkpt lat="43.414558072601736" lon="11.34981512763729"><ele>494.0</ele><time>2026-04-11T05:38:53Z</time></trkpt><trkpt lat="43.414534308122896" lon="11.349715032212073"><ele>494.0</ele><time>2026-04-11T05:38:55Z</time></trkpt><trkpt lat="43.414570662005595" lon="11.349595918154199"><ele>494.0</ele><time>2026-04-11T05:38:58Z</time></trkpt><trkpt lat="43.41457595418359" lon="11.349499636127357"><ele>493.99999999999994</ele><time>2026-04-11T05:38:59Z</time></trkpt><trkpt lat="43.41461076994597" lon="11.349415362098132"><ele>494.0</ele><time>2026-04-11T05:39:01Z</time></trkpt><trkpt lat="43.41466427406043" lon="11.349344353354777"><ele>493.49999999999994</ele><time>2026-04-11T05:39:03Z</time></trkpt><trkpt lat="43.414714899877524" lon="11.349255956647065"><ele>493.0</ele><time>2026-04-11T05:39:06Z</time></trkpt><trkpt lat="43.41476603545981" lon="11.349192665413044"><ele>492.5</ele><time>2026-04-11T05:39:08Z</time></trkpt><trkpt lat="43.41480552580565" lon="11.349088612655985"><ele>492.0</ele><time>2026-04-11T05:39:11Z</time></trkpt><trkpt lat="43.414859967817485" lon="11.349003260623872"><ele>491.49999999999994</ele><time>2026-04-11T05:39:14Z</time></trkpt><trkpt lat="43.414931904492285" lon="11.34894748665158"><ele>491.0</ele><time>2026-04-11T05:39:17Z</time></trkpt><trkpt lat="43.41501825052872" lon="11.348989135591653"><ele>490.99999999999994</ele><time>2026-04-11T05:39:19Z</time></trkpt><trkpt lat="43.41510576106838" lon="11.349000106643093"><ele>491.0</ele><time>2026-04-11T05:39:22Z</time></trkpt><trkpt lat="43.415181745744114" lon="11.348999725813195"><ele>491.0</ele><time>2026-04-11T05:39:26Z</time></trkpt><trkpt lat="43.415267581870445" lon="11.34897120550594"><ele>491.0</ele><time>2026-04-11T05:39:30Z</time></trkpt><trkpt lat="43.41533427543965" lon="11.3489409725532"><ele>490.99999999999994</ele><time>2026-04-11T05:39:33Z</time></trkpt><trkpt lat="43.415408620207586" lon="11.34892182291757"><ele>491.0</ele><time>2026-04-11T05:39:36Z</time></trkpt><trkpt lat="43.41549940096448" lon="11.348884243788644"><ele>490.8333333333333</ele><time>2026-04-11T05:39:39Z</time></trkpt><trkpt lat="43.41557669756252" lon="11.348879587216592"><ele>490.66666666666663</ele><time>2026-04-11T05:39:42Z</time></trkpt><trkpt lat="43.41564661772301" lon="11.348902999347422"><ele>490.5</ele><time>2026-04-11T05:39:45Z</time></trkpt><trkpt lat="43.415722031974795" lon="11.348917256260671"><ele>490.33333333333337</ele><time>2026-04-11T05:39:48Z</time></trkpt><trkpt lat="43.41579255825347" lon="11.348937107634683"><ele>490.1666666666667</ele><time>2026-04-11T05:39:52Z</time></trkpt><trkpt lat="43.4158588515941" lon="11.348901283269017"><ele>490.0</ele><time>2026-04-11T05:39:55Z</time></trkpt><trkpt lat="43.415921962467735" lon="11.34882517726296"><ele>492.1666666666667</ele><time>2026-04-11T05:39:57Z</time></trkpt><trkpt lat="43.41597832064981" lon="11.348736148767317"><ele>494.33333333333337</ele><time>2026-04-11T05:39:59Z</time></trkpt><trkpt lat="43.416041139107286" lon="11.348727333054534"><ele>496.5</ele><time>2026-04-11T05:40:01Z</time></trkpt><trkpt lat="43.41611064023285" lon="11.348739545937539"><ele>498.66666666666663</ele><time>2026-04-11T05:40:03Z</time></trkpt><trkpt lat="43.41617478846956" lon="11.348724537203315"><ele>500.8333333333333</ele><time>2026-04-11T05:40:05Z</time></trkpt><trkpt lat="43.416247683294166" lon="11.348741561525912"><ele>503.0</ele><time>2026-04-11T05:40:08Z</time></trkpt><trkpt lat="43.41633363902856" lon="11.348686121278153"><ele>503.3333333333333</ele><time>2026-04-11T05:40:11Z</time></trkpt><trkpt lat="43.41640475942716" lon="11.348658719871722"><ele>503.66666666666663</ele><time>2026-04-11T05:40:14Z</time></trkpt><trkpt lat="43.4164856112733" lon="11.34865535254708"><ele>504.0</ele><time>2026-04-11T05:40:17Z</time></trkpt><trkpt lat="43.41656035961279" lon="11.348645770031052"><ele>504.33333333333337</ele><time>2026-04-11T05:40:20Z</time></trkpt><trkpt lat="43.416637291238324" lon="11.348560959298052"><ele>504.6666666666667</ele><time>2026-04-11T05:40:24Z</time></trkpt><trkpt lat="43.41671317604337" lon="11.34849482710456"><ele>505.0</ele><time>2026-04-11T05:40:26Z</time></trkpt><trkpt lat="43.41678792934907" lon="11.348414037845766"><ele>505.00000000000006</ele><time>2026-04-11T05:40:28Z</time></trkpt><trkpt lat="43.41683535862734" lon="11.348329112172149"><ele>505.0</ele><time>2026-04-11T05:40:30Z</time></trkpt><trkpt lat="43.41686133158284" lon="11.348228366845177"><ele>505.0</ele><time>2026-04-11T05:40:32Z</time></trkpt><trkpt lat="43.4169057358047" lon="11.348131654785552"><ele>505.0</ele><time>2026-04-11T05:40:34Z</time></trkpt><trkpt lat="43.4169454974913" lon="11.34805299330569"><ele>505.00000000000006</ele><time>2026-04-11T05:40:36Z</time></trkpt><trkpt lat="43.41701896065342" lon="11.34793669181766"><ele>505.0</ele><time>2026-04-11T05:40:38Z</time></trkpt><trkpt lat="43.41701115706709" lon="11.34780901706953"><ele>506.00000000000006</ele><time>2026-04-11T05:40:40Z</time></trkpt><trkpt lat="43.41704485828434" lon="11.347695685199643"><ele>507.0</ele><time>2026-04-11T05:40:41Z</time></trkpt><trkpt lat="43.41708341919515" lon="11.347616907546191"><ele>508.0</ele><time>2026-04-11T05:40:42Z</time></trkpt><trkpt lat="43.41711803994619" lon="11.347539404737383"><ele>509.0</ele><time>2026-04-11T05:40:43Z</time></trkpt><trkpt lat="43.41716709496775" lon="11.347474455194973"><ele>510.00000000000006</ele><time>2026-04-11T05:40:44Z</time></trkpt><trkpt lat="43.41723839725079" lon="11.347348723345961"><ele>511.0</ele><time>2026-04-11T05:40:46Z</time></trkpt><trkpt lat="43.417309418121455" lon="11.347245233908119"><ele>511.0</ele><time>2026-04-11T05:40:48Z</time></trkpt><trkpt lat="43.417393606054354" lon="11.347139223668524"><ele>511.0</ele><time>2026-04-11T05:40:50Z</time></trkpt><trkpt lat="43.4174711572662" lon="11.347043704939876"><ele>511.0</ele><time>2026-04-11T05:40:52Z</time></trkpt><trkpt lat="43.41755281845255" lon="11.346951486514447"><ele>511.0</ele><time>2026-04-11T05:40:54Z</time></trkpt><trkpt lat="43.41763346067174" lon="11.346878644004406"><ele>511.0</ele><time>2026-04-11T05:40:56Z</time></trkpt><trkpt lat="43.41771200710488" lon="11.346809622333359"><ele>511.0</ele><time>2026-04-11T05:40:58Z</time></trkpt><trkpt lat="43.417806929071574" lon="11.346729032657223"><ele>511.0</ele><time>2026-04-11T05:41:00Z</time></trkpt><trkpt lat="43.41789308427115" lon="11.346668108240664"><ele>511.0</ele><time>2026-04-11T05:41:02Z</time></trkpt><trkpt lat="43.41798003961427" lon="11.346629246683626"><ele>511.0</ele><time>2026-04-11T05:41:04Z</time></trkpt><trkpt lat="43.41807934054345" lon="11.346574029235898"><ele>511.0</ele><time>2026-04-11T05:41:06Z</time></trkpt><trkpt lat="43.41816848436127" lon="11.346543098055317"><ele>508.6</ele><time>2026-04-11T05:41:08Z</time></trkpt><trkpt lat="43.418278431791045" lon="11.346498873522263"><ele>506.20000000000005</ele><time>2026-04-11T05:41:10Z</time></trkpt><trkpt lat="43.418344898523536" lon="11.346496582847644"><ele>503.79999999999995</ele><time>2026-04-11T05:41:11Z</time></trkpt><trkpt lat="43.41845088896723" lon="11.346470791729875"><ele>501.4</ele><time>2026-04-11T05:41:13Z</time></trkpt><trkpt lat="43.41851350023185" lon="11.346458433025916"><ele>499.0</ele><time>2026-04-11T05:41:14Z</time></trkpt><trkpt lat="43.4186267882643" lon="11.346404918794406"><ele>499.00000000000006</ele><time>2026-04-11T05:41:16Z</time></trkpt><trkpt lat="43.41872487102965" lon="11.346428583310443"><ele>499.0</ele><time>2026-04-11T05:41:18Z</time></trkpt><trkpt lat="43.41878631691669" lon="11.346450742810683"><ele>499.0</ele><time>2026-04-11T05:41:19Z</time></trkpt><trkpt lat="43.41884985401481" lon="11.346474053805261"><ele>499.0</ele><time>2026-04-11T05:41:20Z</time></trkpt><trkpt lat="43.418944118205346" lon="11.346541702166506"><ele>499.00000000000006</ele><time>2026-04-11T05:41:22Z</time></trkpt><trkpt lat="43.41899392339168" lon="11.346598925665514"><ele>499.0</ele><time>2026-04-11T05:41:23Z</time></trkpt><trkpt lat="43.41908175730595" lon="11.34667639895124"><ele>499.4</ele><time>2026-04-11T05:41:25Z</time></trkpt><trkpt lat="43.419185754770794" lon="11.346761205383366"><ele>499.79999999999995</ele><time>2026-04-11T05:41:27Z</time></trkpt><trkpt lat="43.41927402304989" lon="11.346841696592406"><ele>500.20000000000005</ele><time>2026-04-11T05:41:29Z</time></trkpt><trkpt lat="43.419354563610575" lon="11.346918053174317"><ele>500.6</ele><time>2026-04-11T05:41:31Z</time></trkpt><trkpt lat="43.41945799675642" lon="11.346976553915628"><ele>501.0</ele><time>2026-04-11T05:41:33Z</time></trkpt><trkpt lat="43.41957095237582" lon="11.346990851597845"><ele>502.20000000000005</ele><time>2026-04-11T05:41:35Z</time></trkpt><trkpt lat="43.41968128515779" lon="11.34700107875212"><ele>503.40000000000003</ele><time>2026-04-11T05:41:37Z</time></trkpt><trkpt lat="43.41978215257651" lon="11.346992969607445"><ele>504.6</ele><time>2026-04-11T05:41:39Z</time></trkpt><trkpt lat="43.41987931160032" lon="11.346982107952792"><ele>505.8</ele><time>2026-04-11T05:41:41Z</time></trkpt><trkpt lat="43.41997132467738" lon="11.34698801505777"><ele>507.0</ele><time>2026-04-11T05:41:43Z</time></trkpt><trkpt lat="43.420035250580675" lon="11.346998681337675"><ele>507.0</ele><time>2026-04-11T05:41:44Z</time></trkpt><trkpt lat="43.420134865515216" lon="11.347038931000446"><ele>507.0</ele><time>2026-04-11T05:41:46Z</time></trkpt><trkpt lat="43.420216642523194" lon="11.347088992303862"><ele>507.0</ele><time>2026-04-11T05:41:48Z</time></trkpt><trkpt lat="43.42028412222023" lon="11.347135437790307"><ele>507.0</ele><time>2026-04-11T05:41:50Z</time></trkpt><trkpt lat="43.42034087281953" lon="11.347174498612484"><ele>507.0</ele><time>2026-04-11T05:41:51Z</time></trkpt><trkpt lat="43.42042407631097" lon="11.347239831244185"><ele>507.0</ele><time>2026-04-11T05:41:53Z</time></trkpt><trkpt lat="43.4205245111316" lon="11.347231407149259"><ele>507.6</ele><time>2026-04-11T05:41:55Z</time></trkpt><trkpt lat="43.42062356313792" lon="11.347213811598078"><ele>508.20000000000005</ele><time>2026-04-11T05:41:57Z</time></trkpt><trkpt lat="43.420737972124115" lon="11.347209309177131"><ele>508.8</ele><time>2026-04-11T05:41:59Z</time></trkpt><trkpt lat="43.42084010426938" lon="11.347208832163293"><ele>509.4</ele><time>2026-04-11T05:42:01Z</time></trkpt><trkpt lat="43.42089161875325" lon="11.347286706636284"><ele>510.0</ele><time>2026-04-11T05:42:02Z</time></trkpt><trkpt lat="43.42099717034787" lon="11.347297619442113"><ele>508.2</ele><time>2026-04-11T05:42:04Z</time></trkpt><trkpt lat="43.42109789302708" lon="11.347320186047027"><ele>506.4</ele><time>2026-04-11T05:42:06Z</time></trkpt><trkpt lat="43.42118835298161" lon="11.347356246349332"><ele>504.6</ele><time>2026-04-11T05:42:08Z</time></trkpt><trkpt lat="43.42127044330078" lon="11.347422204647398"><ele>502.8</ele><time>2026-04-11T05:42:10Z</time></trkpt><trkpt lat="43.42133517379488" lon="11.347491671010118"><ele>501.0</ele><time>2026-04-11T05:42:12Z</time></trkpt><trkpt lat="43.42137355382357" lon="11.347597724490006"><ele>501.0</ele><time>2026-04-11T05:42:15Z</time></trkpt><trkpt lat="43.42137883186812" lon="11.347685174029007"><ele>501.0</ele><time>2026-04-11T05:42:18Z</time></trkpt><trkpt lat="43.42139051272948" lon="11.347774806909811"><ele>501.0</ele><time>2026-04-11T05:42:22Z</time></trkpt><trkpt lat="43.421497040923455" lon="11.347847628372758"><ele>501.0</ele><time>2026-04-11T05:42:36Z</time></trkpt><trkpt lat="43.42145979831558" lon="11.34776882505675"><ele>501.0</ele><time>2026-04-11T05:45:54Z</time></trkpt><trkpt lat="43.42139710396833" lon="11.347759064509837"><ele>501.0</ele><time>2026-04-11T05:46:03Z</time></trkpt><trkpt lat="43.42137554156588" lon="11.347884936787255"><ele>501.0</ele><time>2026-04-11T05:46:06Z</time></trkpt><trkpt lat="43.42138735637037" lon="11.34800468359257"><ele>501.0</ele><time>2026-04-11T05:46:08Z</time></trkpt><trkpt lat="43.421389205317936" lon="11.348148494037858"><ele>501.0</ele><time>2026-04-11T05:46:10Z</time></trkpt><trkpt lat="43.42137338610038" lon="11.348309906371155"><ele>501.0</ele><time>2026-04-11T05:46:12Z</time></trkpt><trkpt lat="43.421362741174356" lon="11.348398970648494"><ele>501.0</ele><time>2026-04-11T05:46:13Z</time></trkpt><trkpt lat="43.421341407811234" lon="11.348481503717341"><ele>501.0</ele><time>2026-04-11T05:46:14Z</time></trkpt><trkpt lat="43.42132179352337" lon="11.348650370461732"><ele>498.6</ele><time>2026-04-11T05:46:16Z</time></trkpt><trkpt lat="43.42129907812821" lon="11.348806156194089"><ele>496.20000000000005</ele><time>2026-04-11T05:46:18Z</time></trkpt><trkpt lat="43.42131030485333" lon="11.348981718046392"><ele>493.79999999999995</ele><time>2026-04-11T05:46:20Z</time></trkpt><trkpt lat="43.42131050122978" lon="11.349081036543257"><ele>491.4</ele><time>2026-04-11T05:46:21Z</time></trkpt><trkpt lat="43.421298507120824" lon="11.349185402527945"><ele>489.0</ele><time>2026-04-11T05:46:22Z</time></trkpt><trkpt lat="43.42130713671617" lon="11.349286248473666"><ele>490.79999999999995</ele><time>2026-04-11T05:46:23Z</time></trkpt><trkpt lat="43.42133378477141" lon="11.349367826301815"><ele>492.59999999999997</ele><time>2026-04-11T05:46:24Z</time></trkpt><trkpt lat="43.42137636014416" lon="11.34951828498573"><ele>494.4</ele><time>2026-04-11T05:46:26Z</time></trkpt><trkpt lat="43.42148815980899" lon="11.349593955361934"><ele>496.2</ele><time>2026-04-11T05:46:28Z</time></trkpt><trkpt lat="43.42156703127786" lon="11.349594824774753"><ele>498.0</ele><time>2026-04-11T05:46:29Z</time></trkpt><trkpt lat="43.421639033942654" lon="11.34957013304959"><ele>498.0</ele><time>2026-04-11T05:46:30Z</time></trkpt><trkpt lat="43.421720864061605" lon="11.349546504504847"><ele>498.0</ele><time>2026-04-11T05:46:31Z</time></trkpt><trkpt lat="43.42180184229504" lon="11.349527210728366"><ele>498.0</ele><time>2026-04-11T05:46:32Z</time></trkpt><trkpt lat="43.421887042547496" lon="11.349553291505101"><ele>498.0</ele><time>2026-04-11T05:46:33Z</time></trkpt><trkpt lat="43.421954589940654" lon="11.349595658161489"><ele>498.0</ele><time>2026-04-11T05:46:34Z</time></trkpt><trkpt lat="43.422025245017345" lon="11.349656612775783"><ele>498.0</ele><time>2026-04-11T05:46:35Z</time></trkpt><trkpt lat="43.42208526033446" lon="11.349722687670258"><ele>495.6666666666667</ele><time>2026-04-11T05:46:36Z</time></trkpt><trkpt lat="43.42213782135037" lon="11.349790959455051"><ele>493.33333333333337</ele><time>2026-04-11T05:46:37Z</time></trkpt><trkpt lat="43.42218964084034" lon="11.349855864469772"><ele>491.0</ele><time>2026-04-11T05:46:38Z</time></trkpt><trkpt lat="43.42228883871028" lon="11.349938342903629"><ele>488.6666666666667</ele><time>2026-04-11T05:46:40Z</time></trkpt><trkpt lat="43.422363290591214" lon="11.349974106290963"><ele>486.33333333333337</ele><time>2026-04-11T05:46:42Z</time></trkpt><trkpt lat="43.422422080329966" lon="11.350022385181369"><ele>484.0</ele><time>2026-04-11T05:46:43Z</time></trkpt><trkpt lat="43.42249734657668" lon="11.350069965583177"><ele>484.00000000000006</ele><time>2026-04-11T05:46:44Z</time></trkpt><trkpt lat="43.42256336533235" lon="11.350107231442985"><ele>484.0</ele><time>2026-04-11T05:46:45Z</time></trkpt><trkpt lat="43.42265253201109" lon="11.350163131597013"><ele>484.0</ele><time>2026-04-11T05:46:47Z</time></trkpt><trkpt lat="43.422711531157965" lon="11.350242540036687"><ele>484.0</ele><time>2026-04-11T05:46:49Z</time></trkpt><trkpt lat="43.4227596474103" lon="11.350334029577645"><ele>484.00000000000006</ele><time>2026-04-11T05:46:51Z</time></trkpt><trkpt lat="43.42279154680668" lon="11.350424399762923"><ele>484.0</ele><time>2026-04-11T05:46:53Z</time></trkpt><trkpt lat="43.42281847638329" lon="11.350534119069037"><ele>482.4</ele><time>2026-04-11T05:46:55Z</time></trkpt><trkpt lat="43.422886557254486" lon="11.350671685746434"><ele>480.79999999999995</ele><time>2026-04-11T05:46:58Z</time></trkpt><trkpt lat="43.422997984822494" lon="11.350690739853134"><ele>479.20000000000005</ele><time>2026-04-11T05:47:00Z</time></trkpt><trkpt lat="43.423072795302666" lon="11.350634131634829"><ele>477.6</ele><time>2026-04-11T05:47:02Z</time></trkpt><trkpt lat="43.42315200456665" lon="11.350518131384177"><ele>476.0</ele><time>2026-04-11T05:47:04Z</time></trkpt><trkpt lat="43.42319401039853" lon="11.350438484485036"><ele>476.0</ele><time>2026-04-11T05:47:05Z</time></trkpt><trkpt lat="43.42324813136015" lon="11.350381838500669"><ele>476.0</ele><time>2026-04-11T05:47:06Z</time></trkpt><trkpt lat="43.42331123011481" lon="11.350364197769036"><ele>476.0</ele><time>2026-04-11T05:47:07Z</time></trkpt><trkpt lat="43.42340577989969" lon="11.350316465917977"><ele>476.0</ele><time>2026-04-11T05:47:09Z</time></trkpt><trkpt lat="43.42351621462334" lon="11.350271895776062"><ele>476.0</ele><time>2026-04-11T05:47:11Z</time></trkpt><trkpt lat="43.42363029251749" lon="11.35022918776454"><ele>475.99999999999994</ele><time>2026-04-11T05:47:13Z</time></trkpt><trkpt lat="43.42371913839181" lon="11.350209130817657"><ele>476.0</ele><time>2026-04-11T05:47:15Z</time></trkpt><trkpt lat="43.423814556172914" lon="11.350212185446585"><ele>476.0</ele><time>2026-04-11T05:47:17Z</time></trkpt><trkpt lat="43.423884618336636" lon="11.35023637224237"><ele>476.0</ele><time>2026-04-11T05:47:19Z</time></trkpt><trkpt lat="43.423931207148165" lon="11.350294898038703"><ele>475.99999999999994</ele><time>2026-04-11T05:47:21Z</time></trkpt><trkpt lat="43.42397151730512" lon="11.350434468633443"><ele>476.0</ele><time>2026-04-11T05:47:23Z</time></trkpt><trkpt lat="43.42397566945452" lon="11.350529219060016"><ele>472.16666666666663</ele><time>2026-04-11T05:47:24Z</time></trkpt><trkpt lat="43.4239877757025" lon="11.35064113140316"><ele>468.3333333333333</ele><time>2026-04-11T05:47:25Z</time></trkpt><trkpt lat="43.423968464085384" lon="11.350748453898257"><ele>464.5</ele><time>2026-04-11T05:47:26Z</time></trkpt><trkpt lat="43.423964470952804" lon="11.350856564252656"><ele>460.66666666666663</ele><time>2026-04-11T05:47:27Z</time></trkpt><trkpt lat="43.423959511860296" lon="11.35096122861923"><ele>456.8333333333333</ele><time>2026-04-11T05:47:28Z</time></trkpt><trkpt lat="43.4239478218002" lon="11.35106516274647"><ele>453.0</ele><time>2026-04-11T05:47:29Z</time></trkpt><trkpt lat="43.42393310328526" lon="11.351175817483604"><ele>453.0</ele><time>2026-04-11T05:47:30Z</time></trkpt><trkpt lat="43.42391402436853" lon="11.35127893024596"><ele>453.0</ele><time>2026-04-11T05:47:31Z</time></trkpt><trkpt lat="43.42389105834033" lon="11.351382016825049"><ele>453.0</ele><time>2026-04-11T05:47:32Z</time></trkpt><trkpt lat="43.423863879045285" lon="11.351491520066007"><ele>453.0</ele><time>2026-04-11T05:47:33Z</time></trkpt><trkpt lat="43.42383341832613" lon="11.35159048790748"><ele>453.0</ele><time>2026-04-11T05:47:34Z</time></trkpt><trkpt lat="43.42379870520746" lon="11.351691141946233"><ele>453.0</ele><time>2026-04-11T05:47:35Z</time></trkpt><trkpt lat="43.423761027145126" lon="11.35178700724184"><ele>452.0</ele><time>2026-04-11T05:47:36Z</time></trkpt><trkpt lat="43.4237233634083" lon="11.351898034976333"><ele>450.99999999999994</ele><time>2026-04-11T05:47:37Z</time></trkpt><trkpt lat="43.4236976477359" lon="11.351989622900676"><ele>449.99999999999994</ele><time>2026-04-11T05:47:38Z</time></trkpt><trkpt lat="43.423691513245004" lon="11.352079047033936"><ele>449.0</ele><time>2026-04-11T05:47:39Z</time></trkpt><trkpt lat="43.423670404961285" lon="11.352241951491397"><ele>448.0</ele><time>2026-04-11T05:47:41Z</time></trkpt><trkpt lat="43.42365851440984" lon="11.352406828873244"><ele>447.2857142857143</ele><time>2026-04-11T05:47:43Z</time></trkpt><trkpt lat="43.423663528714954" lon="11.352494727790411"><ele>446.57142857142856</ele><time>2026-04-11T05:47:44Z</time></trkpt><trkpt lat="43.42367994501212" lon="11.352648978013779"><ele>445.8571428571429</ele><time>2026-04-11T05:47:46Z</time></trkpt><trkpt lat="43.42368973862973" lon="11.352737180918433"><ele>445.1428571428571</ele><time>2026-04-11T05:47:47Z</time></trkpt><trkpt lat="43.423700008691554" lon="11.352829674772323"><ele>444.42857142857144</ele><time>2026-04-11T05:47:48Z</time></trkpt><trkpt lat="43.42371065441276" lon="11.352925551810506"><ele>443.7142857142857</ele><time>2026-04-11T05:47:49Z</time></trkpt><trkpt lat="43.42372093794" lon="11.353012001446686"><ele>443.0</ele><time>2026-04-11T05:47:50Z</time></trkpt><trkpt lat="43.42374263651812" lon="11.353187386328846"><ele>444.0</ele><time>2026-04-11T05:47:52Z</time></trkpt><trkpt lat="43.423764312286536" lon="11.3533465819949"><ele>445.0</ele><time>2026-04-11T05:47:54Z</time></trkpt><trkpt lat="43.42378658410668" lon="11.353508599606668"><ele>446.0</ele><time>2026-04-11T05:47:56Z</time></trkpt><trkpt lat="43.42380472275995" lon="11.353657532710537"><ele>447.0</ele><time>2026-04-11T05:47:58Z</time></trkpt><trkpt lat="43.42381673220151" lon="11.35379848984752"><ele>445.0</ele><time>2026-04-11T05:48:00Z</time></trkpt><trkpt lat="43.42382632689276" lon="11.353913970504518"><ele>443.0</ele><time>2026-04-11T05:48:02Z</time></trkpt><trkpt lat="43.42384293611441" lon="11.354022496606655"><ele>441.0</ele><time>2026-04-11T05:48:04Z</time></trkpt><trkpt lat="43.42386290779799" lon="11.354134751945919"><ele>439.0</ele><time>2026-04-11T05:48:06Z</time></trkpt><trkpt lat="43.42388299432313" lon="11.354243624425036"><ele>437.0</ele><time>2026-04-11T05:48:08Z</time></trkpt><trkpt lat="43.423922436162734" lon="11.35433118753156"><ele>435.0</ele><time>2026-04-11T05:48:10Z</time></trkpt><trkpt lat="43.4239779357778" lon="11.354418118058028"><ele>435.0</ele><time>2026-04-11T05:48:12Z</time></trkpt><trkpt lat="43.42403368324631" lon="11.354498956922711"><ele>435.0</ele><time>2026-04-11T05:48:14Z</time></trkpt><trkpt lat="43.42409693449201" lon="11.354605928433717"><ele>435.0</ele><time>2026-04-11T05:48:16Z</time></trkpt><trkpt lat="43.42420046046544" lon="11.354717394431036"><ele>435.0</ele><time>2026-04-11T05:48:18Z</time></trkpt><trkpt lat="43.42424829979464" lon="11.354795721618771"><ele>435.0</ele><time>2026-04-11T05:48:19Z</time></trkpt><trkpt lat="43.424329775555194" lon="11.354816039686735"><ele>433.1666666666667</ele><time>2026-04-11T05:48:20Z</time></trkpt><trkpt lat="43.42444048907965" lon="11.354835024513974"><ele>431.33333333333337</ele><time>2026-04-11T05:48:21Z</time></trkpt><trkpt lat="43.42453606142362" lon="11.354844404827157"><ele>429.5</ele><time>2026-04-11T05:48:22Z</time></trkpt><trkpt lat="43.42461578024632" lon="11.35485188005373"><ele>427.6666666666667</ele><time>2026-04-11T05:48:23Z</time></trkpt><trkpt lat="43.424686801845255" lon="11.354858539744797"><ele>425.83333333333337</ele><time>2026-04-11T05:48:24Z</time></trkpt><trkpt lat="43.42475463215478" lon="11.35486490018795"><ele>424.0</ele><time>2026-04-11T05:48:25Z</time></trkpt><trkpt lat="43.42482441190002" lon="11.35486754385819"><ele>424.0</ele><time>2026-04-11T05:48:26Z</time></trkpt><trkpt lat="43.42493541210638" lon="11.354835596584405"><ele>424.0</ele><time>2026-04-11T05:48:28Z</time></trkpt><trkpt lat="43.42500865072096" lon="11.354745592202898"><ele>424.0</ele><time>2026-04-11T05:48:30Z</time></trkpt><trkpt lat="43.42502367009653" lon="11.354573202033436"><ele>424.0</ele><time>2026-04-11T05:48:32Z</time></trkpt><trkpt lat="43.42509096260462" lon="11.354459484657298"><ele>424.0</ele><time>2026-04-11T05:48:34Z</time></trkpt><trkpt lat="43.425218513232466" lon="11.354425644057162"><ele>424.1666666666667</ele><time>2026-04-11T05:48:36Z</time></trkpt><trkpt lat="43.425297584714045" lon="11.354431005425946"><ele>424.33333333333337</ele><time>2026-04-11T05:48:37Z</time></trkpt><trkpt lat="43.42538533578924" lon="11.35442296260517"><ele>424.5</ele><time>2026-04-11T05:48:38Z</time></trkpt><trkpt lat="43.4254528277966" lon="11.354414212356792"><ele>424.66666666666663</ele><time>2026-04-11T05:48:39Z</time></trkpt><trkpt lat="43.42552066293633" lon="11.354395893711583"><ele>424.8333333333333</ele><time>2026-04-11T05:48:40Z</time></trkpt><trkpt lat="43.42558487009656" lon="11.354342170812485"><ele>425.0</ele><time>2026-04-11T05:48:41Z</time></trkpt><trkpt lat="43.42564670955772" lon="11.354287398672383"><ele>421.4</ele><time>2026-04-11T05:48:42Z</time></trkpt><trkpt lat="43.42569283051018" lon="11.354202624887607"><ele>417.8</ele><time>2026-04-11T05:48:43Z</time></trkpt><trkpt lat="43.42574292994833" lon="11.354104819535232"><ele>414.20000000000005</ele><time>2026-04-11T05:48:44Z</time></trkpt><trkpt lat="43.42577196126883" lon="11.353972035912822"><ele>410.6</ele><time>2026-04-11T05:48:45Z</time></trkpt><trkpt lat="43.42577615118999" lon="11.353840864548395"><ele>407.0</ele><time>2026-04-11T05:48:46Z</time></trkpt><trkpt lat="43.4258079452101" lon="11.353711301826735"><ele>405.40000000000003</ele><time>2026-04-11T05:48:47Z</time></trkpt><trkpt lat="43.42579448303357" lon="11.353549895064525"><ele>403.8</ele><time>2026-04-11T05:48:48Z</time></trkpt><trkpt lat="43.425767233655904" lon="11.35341536699685"><ele>402.2</ele><time>2026-04-11T05:48:49Z</time></trkpt><trkpt lat="43.425765116674675" lon="11.353325991194872"><ele>400.6</ele><time>2026-04-11T05:48:50Z</time></trkpt><trkpt lat="43.42577155047031" lon="11.35317496658416"><ele>399.0</ele><time>2026-04-11T05:48:52Z</time></trkpt><trkpt lat="43.42577992596257" lon="11.353040545028707"><ele>399.3333333333333</ele><time>2026-04-11T05:48:54Z</time></trkpt><trkpt lat="43.42579229994669" lon="11.352904205348688"><ele>399.66666666666663</ele><time>2026-04-11T05:48:56Z</time></trkpt><trkpt lat="43.42579471688984" lon="11.352747836528243"><ele>400.0</ele><time>2026-04-11T05:48:58Z</time></trkpt><trkpt lat="43.425822093672686" lon="11.35266021372853"><ele>400.3333333333333</ele><time>2026-04-11T05:48:59Z</time></trkpt><trkpt lat="43.42583696696098" lon="11.352567909749009"><ele>400.66666666666663</ele><time>2026-04-11T05:49:00Z</time></trkpt><trkpt lat="43.42584397416564" lon="11.35246386193107"><ele>401.0</ele><time>2026-04-11T05:49:01Z</time></trkpt><trkpt lat="43.42587875010089" lon="11.35238247278848"><ele>401.0</ele><time>2026-04-11T05:49:02Z</time></trkpt><trkpt lat="43.425905739067424" lon="11.352293983778468"><ele>401.0</ele><time>2026-04-11T05:49:03Z</time></trkpt><trkpt lat="43.42593986567334" lon="11.352208839775754"><ele>401.0</ele><time>2026-04-11T05:49:04Z</time></trkpt><trkpt lat="43.425988571388196" lon="11.352134224224637"><ele>401.0</ele><time>2026-04-11T05:49:05Z</time></trkpt><trkpt lat="43.4260466155553" lon="11.352072336698145"><ele>401.0</ele><time>2026-04-11T05:49:06Z</time></trkpt><trkpt lat="43.42610843562772" lon="11.352017911936167"><ele>401.0</ele><time>2026-04-11T05:49:07Z</time></trkpt><trkpt lat="43.42616888905855" lon="11.351967872873573"><ele>401.0</ele><time>2026-04-11T05:49:08Z</time></trkpt><trkpt lat="43.426218312288924" lon="11.351902959425999"><ele>398.6</ele><time>2026-04-11T05:49:09Z</time></trkpt><trkpt lat="43.42632663737518" lon="11.351827555247587"><ele>396.20000000000005</ele><time>2026-04-11T05:49:11Z</time></trkpt><trkpt lat="43.42639448373224" lon="11.35173787598654"><ele>393.79999999999995</ele><time>2026-04-11T05:49:13Z</time></trkpt><trkpt lat="43.426473205049085" lon="11.351639716768826"><ele>391.4</ele><time>2026-04-11T05:49:15Z</time></trkpt><trkpt lat="43.42653201754599" lon="11.35159245502966"><ele>389.0</ele><time>2026-04-11T05:49:16Z</time></trkpt><trkpt lat="43.42659704101407" lon="11.35148507302076"><ele>389.8333333333333</ele><time>2026-04-11T05:49:18Z</time></trkpt><trkpt lat="43.42663591432317" lon="11.351372641718772"><ele>390.66666666666663</ele><time>2026-04-11T05:49:20Z</time></trkpt><trkpt lat="43.42665652391975" lon="11.35125708991992"><ele>391.5</ele><time>2026-04-11T05:49:22Z</time></trkpt><trkpt lat="43.426713996698155" lon="11.351161998909907"><ele>392.33333333333337</ele><time>2026-04-11T05:49:24Z</time></trkpt><trkpt lat="43.42675697264839" lon="11.351070020212104"><ele>393.1666666666667</ele><time>2026-04-11T05:49:26Z</time></trkpt><trkpt lat="43.4268012149952" lon="11.350945882371665"><ele>394.0</ele><time>2026-04-11T05:49:28Z</time></trkpt><trkpt lat="43.4268419767621" lon="11.3508280611397"><ele>394.00000000000006</ele><time>2026-04-11T05:49:30Z</time></trkpt><trkpt lat="43.42686651187622" lon="11.350724804198476"><ele>394.0</ele><time>2026-04-11T05:49:32Z</time></trkpt><trkpt lat="43.42691314273879" lon="11.35064181860561"><ele>394.0</ele><time>2026-04-11T05:49:34Z</time></trkpt><trkpt lat="43.42696910698114" lon="11.350550943839588"><ele>394.0</ele><time>2026-04-11T05:49:36Z</time></trkpt><trkpt lat="43.42703436586867" lon="11.350500926332856"><ele>394.00000000000006</ele><time>2026-04-11T05:49:38Z</time></trkpt><trkpt lat="43.427137084969054" lon="11.350440111354335"><ele>394.0</ele><time>2026-04-11T05:49:40Z</time></trkpt><trkpt lat="43.42720867895595" lon="11.350414774158791"><ele>390.79999999999995</ele><time>2026-04-11T05:49:41Z</time></trkpt><trkpt lat="43.42732844429577" lon="11.350396853383229"><ele>387.59999999999997</ele><time>2026-04-11T05:49:42Z</time></trkpt><trkpt lat="43.42741317077953" lon="11.350373057873323"><ele>384.4</ele><time>2026-04-11T05:49:43Z</time></trkpt><trkpt lat="43.427500178827906" lon="11.350337914247145"><ele>381.2</ele><time>2026-04-11T05:49:44Z</time></trkpt><trkpt lat="43.427594189616265" lon="11.350319998560316"><ele>378.0</ele><time>2026-04-11T05:49:45Z</time></trkpt><trkpt lat="43.42768954072553" lon="11.350279426630804"><ele>378.0</ele><time>2026-04-11T05:49:46Z</time></trkpt><trkpt lat="43.42777863010774" lon="11.350204509192157"><ele>378.0</ele><time>2026-04-11T05:49:47Z</time></trkpt><trkpt lat="43.42786012722283" lon="11.350146079056124"><ele>378.0</ele><time>2026-04-11T05:49:48Z</time></trkpt><trkpt lat="43.42793983773501" lon="11.350096395567949"><ele>378.0</ele><time>2026-04-11T05:49:49Z</time></trkpt><trkpt lat="43.42801594899744" lon="11.350044019578768"><ele>378.0</ele><time>2026-04-11T05:49:50Z</time></trkpt><trkpt lat="43.42809640146542" lon="11.35003623349402"><ele>378.0</ele><time>2026-04-11T05:49:51Z</time></trkpt><trkpt lat="43.428167371097466" lon="11.350020462776369"><ele>377.85714285714283</ele><time>2026-04-11T05:49:52Z</time></trkpt><trkpt lat="43.42823955665949" lon="11.350013613498296"><ele>377.7142857142857</ele><time>2026-04-11T05:49:53Z</time></trkpt><trkpt lat="43.42830345874257" lon="11.350016270208407"><ele>377.57142857142856</ele><time>2026-04-11T05:49:54Z</time></trkpt><trkpt lat="43.42839815230029" lon="11.350008245306945"><ele>377.42857142857144</ele><time>2026-04-11T05:49:56Z</time></trkpt><trkpt lat="43.42845661811755" lon="11.35005204306241"><ele>377.2857142857143</ele><time>2026-04-11T05:49:58Z</time></trkpt><trkpt lat="43.428535705925015" lon="11.350096579397162"><ele>377.1428571428571</ele><time>2026-04-11T05:50:01Z</time></trkpt><trkpt lat="43.42859045325328" lon="11.350139612918595"><ele>377.0</ele><time>2026-04-11T05:50:03Z</time></trkpt><trkpt lat="43.42867112571132" lon="11.350195209259466"><ele>377.0</ele><time>2026-04-11T05:50:05Z</time></trkpt><trkpt lat="43.428737461411636" lon="11.350248658240641"><ele>377.0</ele><time>2026-04-11T05:50:07Z</time></trkpt><trkpt lat="43.42880175944017" lon="11.35029997903194"><ele>377.0</ele><time>2026-04-11T05:50:09Z</time></trkpt><trkpt lat="43.42888986734864" lon="11.350323337720697"><ele>377.0</ele><time>2026-04-11T05:50:11Z</time></trkpt><trkpt lat="43.42895079322323" lon="11.350362758120971"><ele>377.0</ele><time>2026-04-11T05:50:13Z</time></trkpt><trkpt lat="43.429027724262156" lon="11.350415851167282"><ele>377.0</ele><time>2026-04-11T05:50:15Z</time></trkpt><trkpt lat="43.42909545895917" lon="11.350479470951553"><ele>377.0</ele><time>2026-04-11T05:50:17Z</time></trkpt><trkpt lat="43.429157617873884" lon="11.350511726809403"><ele>377.0</ele><time>2026-04-11T05:50:20Z</time></trkpt><trkpt lat="43.429221114632824" lon="11.350538782860577"><ele>377.0</ele><time>2026-04-11T05:50:21Z</time></trkpt><trkpt lat="43.42929364357072" lon="11.350597454416386"><ele>377.0</ele><time>2026-04-11T05:50:23Z</time></trkpt><trkpt lat="43.429364319007774" lon="11.35066026824234"><ele>377.0</ele><time>2026-04-11T05:50:25Z</time></trkpt><trkpt lat="43.429434499690316" lon="11.350720124109822"><ele>377.0</ele><time>2026-04-11T05:50:27Z</time></trkpt><trkpt lat="43.42950228853634" lon="11.35076831890461"><ele>377.33333333333337</ele><time>2026-04-11T05:50:29Z</time></trkpt><trkpt lat="43.42957886270926" lon="11.350823287423148"><ele>377.6666666666667</ele><time>2026-04-11T05:50:31Z</time></trkpt><trkpt lat="43.42965605665979" lon="11.350843678010351"><ele>378.0</ele><time>2026-04-11T05:50:33Z</time></trkpt><trkpt lat="43.429729797523194" lon="11.35085491718231"><ele>378.3333333333333</ele><time>2026-04-11T05:50:35Z</time></trkpt><trkpt lat="43.429818990391624" lon="11.350869672437943"><ele>378.66666666666663</ele><time>2026-04-11T05:50:38Z</time></trkpt><trkpt lat="43.42990505290988" lon="11.350842752324434"><ele>379.0</ele><time>2026-04-11T05:50:41Z</time></trkpt><trkpt lat="43.42999647850609" lon="11.350833339592274"><ele>379.0</ele><time>2026-04-11T05:50:44Z</time></trkpt><trkpt lat="43.4300739478552" lon="11.350824359508469"><ele>379.0</ele><time>2026-04-11T05:50:47Z</time></trkpt><trkpt lat="43.430164199527894" lon="11.350824290836094"><ele>379.0</ele><time>2026-04-11T05:50:50Z</time></trkpt><trkpt lat="43.430249661761216" lon="11.350802817798888"><ele>379.0</ele><time>2026-04-11T05:50:52Z</time></trkpt><trkpt lat="43.430333476903336" lon="11.350817880661094"><ele>379.0</ele><time>2026-04-11T05:50:54Z</time></trkpt><trkpt lat="43.43042051265348" lon="11.350816382296044"><ele>379.0</ele><time>2026-04-11T05:50:56Z</time></trkpt><trkpt lat="43.43064982575311" lon="11.350890613376283"><ele>379.5</ele><time>2026-04-11T05:50:59Z</time></trkpt><trkpt lat="43.43074407957427" lon="11.350902946889951"><ele>380.0</ele><time>2026-04-11T05:51:01Z</time></trkpt><trkpt lat="43.43083168391228" lon="11.350924828840313"><ele>380.5</ele><time>2026-04-11T05:51:03Z</time></trkpt><trkpt lat="43.430916350813476" lon="11.350905603643211"><ele>381.0</ele><time>2026-04-11T05:51:05Z</time></trkpt><trkpt lat="43.43098970845773" lon="11.350883297858445"><ele>381.5</ele><time>2026-04-11T05:51:07Z</time></trkpt><trkpt lat="43.431052527118126" lon="11.350841738764165"><ele>382.0</ele><time>2026-04-11T05:51:09Z</time></trkpt><trkpt lat="43.431125352128355" lon="11.35080625329465"><ele>382.0</ele><time>2026-04-11T05:51:11Z</time></trkpt><trkpt lat="43.43115102551125" lon="11.350717078049518"><ele>382.0</ele><time>2026-04-11T05:51:16Z</time></trkpt><trkpt lat="43.43121975670373" lon="11.350662969395271"><ele>382.0</ele><time>2026-04-11T05:51:19Z</time></trkpt><trkpt lat="43.43128172611848" lon="11.350632186100613"><ele>382.0</ele><time>2026-04-11T05:51:23Z</time></trkpt><trkpt lat="43.43136160862005" lon="11.350668065865383"><ele>382.0</ele><time>2026-04-11T05:51:27Z</time></trkpt><trkpt lat="43.43143668079667" lon="11.350706704273984"><ele>382.0</ele><time>2026-04-11T05:51:31Z</time></trkpt><trkpt lat="43.431504494029774" lon="11.350764112598092"><ele>384.3333333333333</ele><time>2026-04-11T05:51:35Z</time></trkpt><trkpt lat="43.431573763592226" lon="11.350823736400859"><ele>386.66666666666663</ele><time>2026-04-11T05:51:39Z</time></trkpt><trkpt lat="43.431630314452015" lon="11.35086684635881"><ele>389.0</ele><time>2026-04-11T05:51:42Z</time></trkpt><trkpt lat="43.43170257238958" lon="11.350902184162427"><ele>391.3333333333333</ele><time>2026-04-11T05:51:45Z</time></trkpt><trkpt lat="43.43174867952821" lon="11.35097540425878"><ele>393.6666666666667</ele><time>2026-04-11T05:51:48Z</time></trkpt><trkpt lat="43.431802489491126" lon="11.351098936619278"><ele>396.0</ele><time>2026-04-11T05:51:51Z</time></trkpt><trkpt lat="43.431863350486395" lon="11.35112269433288"><ele>396.0</ele><time>2026-04-11T05:51:53Z</time></trkpt><trkpt lat="43.43192627647053" lon="11.351151673913723"><ele>396.0</ele><time>2026-04-11T05:51:56Z</time></trkpt><trkpt lat="43.431959565155786" lon="11.351234868541104"><ele>396.0</ele><time>2026-04-11T05:51:58Z</time></trkpt><trkpt lat="43.432048843544116" lon="11.351246237128425"><ele>396.0</ele><time>2026-04-11T05:52:00Z</time></trkpt><trkpt lat="43.43215821828345" lon="11.351256460660002"><ele>396.0</ele><time>2026-04-11T05:52:02Z</time></trkpt><trkpt lat="43.43225494480442" lon="11.35127330371547"><ele>396.0</ele><time>2026-04-11T05:52:04Z</time></trkpt><trkpt lat="43.43240861383732" lon="11.351275788947872"><ele>396.1666666666667</ele><time>2026-04-11T05:52:06Z</time></trkpt><trkpt lat="43.432475757152226" lon="11.351263813803774"><ele>396.33333333333337</ele><time>2026-04-11T05:52:07Z</time></trkpt><trkpt lat="43.432545788473746" lon="11.351270623402609"><ele>396.5</ele><time>2026-04-11T05:52:08Z</time></trkpt><trkpt lat="43.43261850881828" lon="11.351278492077839"><ele>396.6666666666667</ele><time>2026-04-11T05:52:09Z</time></trkpt><trkpt lat="43.43274630932487" lon="11.351269524436983"><ele>396.83333333333337</ele><time>2026-04-11T05:52:11Z</time></trkpt><trkpt lat="43.4328064148161" lon="11.351239395248264"><ele>397.0</ele><time>2026-04-11T05:52:12Z</time></trkpt><trkpt lat="43.43290442236719" lon="11.351200068452693"><ele>394.33333333333337</ele><time>2026-04-11T05:52:14Z</time></trkpt><trkpt lat="43.433033726178486" lon="11.351113170782426"><ele>391.6666666666667</ele><time>2026-04-11T05:52:16Z</time></trkpt><trkpt lat="43.43310535630965" lon="11.35107058869208"><ele>389.0</ele><time>2026-04-11T05:52:17Z</time></trkpt><trkpt lat="43.433171152305455" lon="11.351009294954263"><ele>386.33333333333337</ele><time>2026-04-11T05:52:18Z</time></trkpt><trkpt lat="43.433229463793" lon="11.350963893445941"><ele>383.6666666666667</ele><time>2026-04-11T05:52:19Z</time></trkpt><trkpt lat="43.43329790949229" lon="11.35091101107653"><ele>381.0</ele><time>2026-04-11T05:52:20Z</time></trkpt><trkpt lat="43.43338331682552" lon="11.350852621087366"><ele>381.0</ele><time>2026-04-11T05:52:21Z</time></trkpt><trkpt lat="43.43344950749746" lon="11.350817276900312"><ele>381.0</ele><time>2026-04-11T05:52:22Z</time></trkpt><trkpt lat="43.4335074222048" lon="11.350751825945197"><ele>381.0</ele><time>2026-04-11T05:52:23Z</time></trkpt><trkpt lat="43.43357349522473" lon="11.350686441272368"><ele>381.0</ele><time>2026-04-11T05:52:24Z</time></trkpt><trkpt lat="43.433631728171406" lon="11.350643622885194"><ele>381.0</ele><time>2026-04-11T05:52:25Z</time></trkpt><trkpt lat="43.43368683967396" lon="11.3505868786462"><ele>381.0</ele><time>2026-04-11T05:52:26Z</time></trkpt><trkpt lat="43.43375057985742" lon="11.35048349369514"><ele>381.20000000000005</ele><time>2026-04-11T05:52:28Z</time></trkpt><trkpt lat="43.433843020020724" lon="11.350368116203834"><ele>381.40000000000003</ele><time>2026-04-11T05:52:30Z</time></trkpt><trkpt lat="43.433892732928726" lon="11.350302260475358"><ele>381.6</ele><time>2026-04-11T05:52:31Z</time></trkpt><trkpt lat="43.43399553909353" lon="11.350173925794703"><ele>381.8</ele><time>2026-04-11T05:52:33Z</time></trkpt><trkpt lat="43.434054363543694" lon="11.350091023002317"><ele>382.0</ele><time>2026-04-11T05:52:34Z</time></trkpt><trkpt lat="43.43414238312024" lon="11.35002485764839"><ele>382.0</ele><time>2026-04-11T05:52:35Z</time></trkpt><trkpt lat="43.434198161695605" lon="11.34992159758635"><ele>382.0</ele><time>2026-04-11T05:52:36Z</time></trkpt><trkpt lat="43.434241292078475" lon="11.349851468904902"><ele>382.0</ele><time>2026-04-11T05:52:37Z</time></trkpt><trkpt lat="43.43429254258756" lon="11.349780593850802"><ele>382.0</ele><time>2026-04-11T05:52:38Z</time></trkpt><trkpt lat="43.434348551806075" lon="11.349652496813645"><ele>382.0</ele><time>2026-04-11T05:52:40Z</time></trkpt><trkpt lat="43.43441130673207" lon="11.349518394733844"><ele>384.0</ele><time>2026-04-11T05:52:42Z</time></trkpt><trkpt lat="43.43445318854828" lon="11.349364620038289"><ele>386.0</ele><time>2026-04-11T05:52:44Z</time></trkpt><trkpt lat="43.43447247010795" lon="11.349236327754925"><ele>388.0</ele><time>2026-04-11T05:52:46Z</time></trkpt><trkpt lat="43.4345045100148" lon="11.349141424343719"><ele>390.0</ele><time>2026-04-11T05:52:47Z</time></trkpt><trkpt lat="43.43452994067041" lon="11.3490566521195"><ele>392.0</ele><time>2026-04-11T05:52:48Z</time></trkpt><trkpt lat="43.43455150091064" lon="11.34891271736608"><ele>393.0</ele><time>2026-04-11T05:52:50Z</time></trkpt><trkpt lat="43.434573354104785" lon="11.34882987399905"><ele>394.0</ele><time>2026-04-11T05:52:51Z</time></trkpt><trkpt lat="43.43460811455222" lon="11.348730698982104"><ele>395.0</ele><time>2026-04-11T05:52:53Z</time></trkpt><trkpt lat="43.434678158587346" lon="11.348664232080333"><ele>396.0</ele><time>2026-04-11T05:52:55Z</time></trkpt><trkpt lat="43.43482606619603" lon="11.348651825483705"><ele>397.0</ele><time>2026-04-11T05:52:57Z</time></trkpt><trkpt lat="43.43490053924497" lon="11.348667413489006"><ele>394.83333333333337</ele><time>2026-04-11T05:52:58Z</time></trkpt><trkpt lat="43.43496578100517" lon="11.348702391278417"><ele>392.6666666666667</ele><time>2026-04-11T05:52:59Z</time></trkpt><trkpt lat="43.43507194673409" lon="11.34872130092393"><ele>390.5</ele><time>2026-04-11T05:53:00Z</time></trkpt><trkpt lat="43.43514242863264" lon="11.348771112510567"><ele>388.33333333333337</ele><time>2026-04-11T05:53:02Z</time></trkpt><trkpt lat="43.43522025978431" lon="11.348805916055058"><ele>386.1666666666667</ele><time>2026-04-11T05:53:04Z</time></trkpt><trkpt lat="43.435298271122555" lon="11.348774003593219"><ele>384.0</ele><time>2026-04-11T05:53:06Z</time></trkpt><trkpt lat="43.435375114988844" lon="11.34877583522671"><ele>383.79999999999995</ele><time>2026-04-11T05:53:08Z</time></trkpt><trkpt lat="43.43547919524864" lon="11.34873278260465"><ele>383.59999999999997</ele><time>2026-04-11T05:53:10Z</time></trkpt><trkpt lat="43.43556433307764" lon="11.348686916865445"><ele>383.4</ele><time>2026-04-11T05:53:12Z</time></trkpt><trkpt lat="43.43566172717807" lon="11.348633960383125"><ele>383.2</ele><time>2026-04-11T05:53:14Z</time></trkpt><trkpt lat="43.43573149827584" lon="11.348654553654864"><ele>383.0</ele><time>2026-04-11T05:53:15Z</time></trkpt><trkpt lat="43.43585425538411" lon="11.348658828304556"><ele>383.0</ele><time>2026-04-11T05:53:17Z</time></trkpt><trkpt lat="43.435919881611994" lon="11.34868410767049"><ele>383.0</ele><time>2026-04-11T05:53:18Z</time></trkpt><trkpt lat="43.43601262387842" lon="11.348705082603814"><ele>383.0</ele><time>2026-04-11T05:53:20Z</time></trkpt><trkpt lat="43.43611290893956" lon="11.34878496676007"><ele>383.0</ele><time>2026-04-11T05:53:22Z</time></trkpt><trkpt lat="43.43621275403356" lon="11.348801709747358"><ele>383.0</ele><time>2026-04-11T05:53:24Z</time></trkpt><trkpt lat="43.436290501077664" lon="11.348878694097008"><ele>381.33333333333337</ele><time>2026-04-11T05:53:26Z</time></trkpt><trkpt lat="43.436324514232965" lon="11.348990370934"><ele>379.6666666666667</ele><time>2026-04-11T05:53:27Z</time></trkpt><trkpt lat="43.436419015923406" lon="11.349071585713908"><ele>378.0</ele><time>2026-04-11T05:53:29Z</time></trkpt><trkpt lat="43.436476984748154" lon="11.349124757424532"><ele>376.3333333333333</ele><time>2026-04-11T05:53:30Z</time></trkpt><trkpt lat="43.43654395092699" lon="11.349166634974008"><ele>374.66666666666663</ele><time>2026-04-11T05:53:31Z</time></trkpt><trkpt lat="43.43660023355306" lon="11.349235042247773"><ele>373.0</ele><time>2026-04-11T05:53:32Z</time></trkpt><trkpt lat="43.436696136315014" lon="11.349359902815953"><ele>373.0</ele><time>2026-04-11T05:53:34Z</time></trkpt><trkpt lat="43.43678466893525" lon="11.349407517203538"><ele>373.0</ele><time>2026-04-11T05:53:38Z</time></trkpt><trkpt lat="43.43692050581677" lon="11.349400977837213"><ele>373.0</ele><time>2026-04-11T05:53:40Z</time></trkpt><trkpt lat="43.43703328140207" lon="11.349341509174595"><ele>373.0</ele><time>2026-04-11T05:53:41Z</time></trkpt><trkpt lat="43.437120025644646" lon="11.349243350674985"><ele>372.5</ele><time>2026-04-11T05:53:42Z</time></trkpt><trkpt lat="43.437189212134044" lon="11.349104830870578"><ele>372.0</ele><time>2026-04-11T05:53:43Z</time></trkpt><trkpt lat="43.43722365895569" lon="11.34897284467454"><ele>371.5</ele><time>2026-04-11T05:53:44Z</time></trkpt><trkpt lat="43.43724566177989" lon="11.348862355668734"><ele>371.0</ele><time>2026-04-11T05:53:45Z</time></trkpt><trkpt lat="43.437291049991266" lon="11.348671058797507"><ele>372.0</ele><time>2026-04-11T05:53:47Z</time></trkpt><trkpt lat="43.43732392366108" lon="11.348588122834638"><ele>373.0</ele><time>2026-04-11T05:53:48Z</time></trkpt><trkpt lat="43.437354234480594" lon="11.348478969281135"><ele>374.0</ele><time>2026-04-11T05:53:49Z</time></trkpt><trkpt lat="43.43740381614758" lon="11.348404066075782"><ele>375.0</ele><time>2026-04-11T05:53:50Z</time></trkpt><trkpt lat="43.43746466329745" lon="11.348365561574276"><ele>376.0</ele><time>2026-04-11T05:53:51Z</time></trkpt><trkpt lat="43.43759931639083" lon="11.348356323960102"><ele>377.0</ele><time>2026-04-11T05:53:53Z</time></trkpt><trkpt lat="43.43772433535107" lon="11.34840486365469"><ele>377.0</ele><time>2026-04-11T05:53:55Z</time></trkpt><trkpt lat="43.437814560921055" lon="11.348492160559545"><ele>377.0</ele><time>2026-04-11T05:53:57Z</time></trkpt><trkpt lat="43.437884060661155" lon="11.348598875781043"><ele>377.0</ele><time>2026-04-11T05:53:59Z</time></trkpt><trkpt lat="43.43790885320916" lon="11.348689057735001"><ele>377.0</ele><time>2026-04-11T05:54:00Z</time></trkpt><trkpt lat="43.437932361446514" lon="11.348770698830263"><ele>377.0</ele><time>2026-04-11T05:54:01Z</time></trkpt><trkpt lat="43.437956889716915" lon="11.348929326363157"><ele>378.1666666666667</ele><time>2026-04-11T05:54:03Z</time></trkpt><trkpt lat="43.43797776740919" lon="11.349070806607749"><ele>379.33333333333337</ele><time>2026-04-11T05:54:05Z</time></trkpt><trkpt lat="43.43800801582285" lon="11.349188735730449"><ele>380.5</ele><time>2026-04-11T05:54:07Z</time></trkpt><trkpt lat="43.43801915384193" lon="11.34929794366494"><ele>381.6666666666667</ele><time>2026-04-11T05:54:09Z</time></trkpt><trkpt lat="43.43806720163045" lon="11.349392132866344"><ele>382.8333333333333</ele><time>2026-04-11T05:54:14Z</time></trkpt><trkpt lat="43.43813972828376" lon="11.349418532660842"><ele>384.0</ele><time>2026-04-11T05:54:16Z</time></trkpt><trkpt lat="43.438196348178955" lon="11.349478475557275"><ele>384.0</ele><time>2026-04-11T05:54:20Z</time></trkpt><trkpt lat="43.43823651482364" lon="11.349554484890106"><ele>384.0</ele><time>2026-04-11T05:54:23Z</time></trkpt><trkpt lat="43.43831552707706" lon="11.34957323574834"><ele>384.0</ele><time>2026-04-11T05:54:27Z</time></trkpt><trkpt lat="43.4383953062524" lon="11.349547887563759"><ele>384.0</ele><time>2026-04-11T05:54:29Z</time></trkpt><trkpt lat="43.43844325144856" lon="11.349625533138214"><ele>384.0</ele><time>2026-04-11T05:54:31Z</time></trkpt><trkpt lat="43.438532971183314" lon="11.349699619707769"><ele>384.0</ele><time>2026-04-11T05:54:33Z</time></trkpt><trkpt lat="43.438591475626595" lon="11.349771246904785"><ele>382.6</ele><time>2026-04-11T05:54:37Z</time></trkpt><trkpt lat="43.43865036796666" lon="11.349834334424282"><ele>381.2</ele><time>2026-04-11T05:54:40Z</time></trkpt><trkpt lat="43.43873488218708" lon="11.34993252554471"><ele>379.8</ele><time>2026-04-11T05:54:42Z</time></trkpt><trkpt lat="43.43877595324996" lon="11.350003434662186"><ele>378.40000000000003</ele><time>2026-04-11T05:54:43Z</time></trkpt><trkpt lat="43.43884012836417" lon="11.35004685445481"><ele>377.0</ele><time>2026-04-11T05:54:44Z</time></trkpt><trkpt lat="43.43898744332174" lon="11.350104714166587"><ele>377.0</ele><time>2026-04-11T05:54:46Z</time></trkpt><trkpt lat="43.439059813195605" lon="11.350153354232791"><ele>377.0</ele><time>2026-04-11T05:54:47Z</time></trkpt><trkpt lat="43.439163532121476" lon="11.350181637492488"><ele>377.0</ele><time>2026-04-11T05:54:48Z</time></trkpt><trkpt lat="43.43925877633508" lon="11.350206736182658"><ele>377.0</ele><time>2026-04-11T05:54:49Z</time></trkpt><trkpt lat="43.43935821396794" lon="11.350268232481428"><ele>377.0</ele><time>2026-04-11T05:54:50Z</time></trkpt><trkpt lat="43.43947183840287" lon="11.35031433865746"><ele>377.0</ele><time>2026-04-11T05:54:51Z</time></trkpt><trkpt lat="43.43956997758383" lon="11.350372557033843"><ele>377.0</ele><time>2026-04-11T05:54:52Z</time></trkpt><trkpt lat="43.4396714098034" lon="11.350445859196642"><ele>377.0</ele><time>2026-04-11T05:54:53Z</time></trkpt><trkpt lat="43.43979489088444" lon="11.350547421992301"><ele>377.0</ele><time>2026-04-11T05:54:54Z</time></trkpt><trkpt lat="43.43993205753337" lon="11.350657267153348"><ele>376.20000000000005</ele><time>2026-04-11T05:54:55Z</time></trkpt><trkpt lat="43.44006056416391" lon="11.350735831062977"><ele>375.4</ele><time>2026-04-11T05:54:56Z</time></trkpt><trkpt lat="43.440129587213285" lon="11.350830287056175"><ele>374.6</ele><time>2026-04-11T05:54:57Z</time></trkpt><trkpt lat="43.440192743982166" lon="11.350911071076313"><ele>373.79999999999995</ele><time>2026-04-11T05:54:58Z</time></trkpt><trkpt lat="43.44026337900632" lon="11.351020649491781"><ele>373.0</ele><time>2026-04-11T05:54:59Z</time></trkpt><trkpt lat="43.44034087937571" lon="11.351198421184607"><ele>373.0</ele><time>2026-04-11T05:55:00Z</time></trkpt><trkpt lat="43.44038016836993" lon="11.35131372657439"><ele>373.0</ele><time>2026-04-11T05:55:01Z</time></trkpt><trkpt lat="43.440421975575326" lon="11.351419664180805"><ele>373.0</ele><time>2026-04-11T05:55:02Z</time></trkpt><trkpt lat="43.44047909129235" lon="11.351546937268196"><ele>373.0</ele><time>2026-04-11T05:55:03Z</time></trkpt><trkpt lat="43.440527997162114" lon="11.351626590220853"><ele>373.0</ele><time>2026-04-11T05:55:04Z</time></trkpt><trkpt lat="43.440568459878406" lon="11.351725324890964"><ele>373.0</ele><time>2026-04-11T05:55:05Z</time></trkpt><trkpt lat="43.44054474737922" lon="11.351821268464368"><ele>373.0</ele><time>2026-04-11T05:55:06Z</time></trkpt><trkpt lat="43.44055439113554" lon="11.35193898707648"><ele>373.0</ele><time>2026-04-11T05:55:07Z</time></trkpt><trkpt lat="43.44057997850615" lon="11.352141159067955"><ele>373.0</ele><time>2026-04-11T05:55:08Z</time></trkpt><trkpt lat="43.440598697299905" lon="11.352267172311633"><ele>373.0</ele><time>2026-04-11T05:55:09Z</time></trkpt><trkpt lat="43.440617732271484" lon="11.352383086538717"><ele>373.0</ele><time>2026-04-11T05:55:10Z</time></trkpt><trkpt lat="43.44063789127333" lon="11.352493473075622"><ele>371.79999999999995</ele><time>2026-04-11T05:55:11Z</time></trkpt><trkpt lat="43.44065607850669" lon="11.352587645244164"><ele>370.6</ele><time>2026-04-11T05:55:12Z</time></trkpt><trkpt lat="43.440681751813756" lon="11.352762293226316"><ele>369.4</ele><time>2026-04-11T05:55:14Z</time></trkpt><trkpt lat="43.44069576613973" lon="11.352885321312197"><ele>368.20000000000005</ele><time>2026-04-11T05:55:15Z</time></trkpt><trkpt lat="43.440709066733774" lon="11.353010016195878"><ele>367.0</ele><time>2026-04-11T05:55:16Z</time></trkpt><trkpt lat="43.440720273650335" lon="11.353115082282484"><ele>366.1428571428571</ele><time>2026-04-11T05:55:17Z</time></trkpt><trkpt lat="43.44072983775456" lon="11.353204747128784"><ele>365.28571428571433</ele><time>2026-04-11T05:55:18Z</time></trkpt><trkpt lat="43.440753497285115" lon="11.353310581335666"><ele>364.42857142857144</ele><time>2026-04-11T05:55:19Z</time></trkpt><trkpt lat="43.44075531779681" lon="11.353411862815586"><ele>363.57142857142856</ele><time>2026-04-11T05:55:20Z</time></trkpt><trkpt lat="43.440768047583866" lon="11.353534162150384"><ele>362.71428571428567</ele><time>2026-04-11T05:55:21Z</time></trkpt><trkpt lat="43.44077401049595" lon="11.353626558737984"><ele>361.8571428571429</ele><time>2026-04-11T05:55:22Z</time></trkpt><trkpt lat="43.44079529731379" lon="11.353721579327125"><ele>361.0</ele><time>2026-04-11T05:55:23Z</time></trkpt><trkpt lat="43.44082416886981" lon="11.353888248982816"><ele>360.0</ele><time>2026-04-11T05:55:25Z</time></trkpt><trkpt lat="43.44082880611115" lon="11.353980494422466"><ele>359.0</ele><time>2026-04-11T05:55:26Z</time></trkpt><trkpt lat="43.440797331010316" lon="11.354138129688913"><ele>358.0</ele><time>2026-04-11T05:55:28Z</time></trkpt><trkpt lat="43.440844581736144" lon="11.354208595867073"><ele>357.0</ele><time>2026-04-11T05:55:29Z</time></trkpt><trkpt lat="43.44087781277976" lon="11.354286818766298"><ele>356.0</ele><time>2026-04-11T05:55:30Z</time></trkpt><trkpt lat="43.440884100748015" lon="11.354380537918017"><ele>355.0</ele><time>2026-04-11T05:55:31Z</time></trkpt><trkpt lat="43.440942801032094" lon="11.35451511182241"><ele>355.0</ele><time>2026-04-11T05:55:33Z</time></trkpt><trkpt lat="43.44095295925423" lon="11.35460101455515"><ele>355.0</ele><time>2026-04-11T05:55:34Z</time></trkpt><trkpt lat="43.44099079395883" lon="11.354787718863175"><ele>355.0</ele><time>2026-04-11T05:55:36Z</time></trkpt><trkpt lat="43.44100319371073" lon="11.354887996419764"><ele>355.0</ele><time>2026-04-11T05:55:37Z</time></trkpt><trkpt lat="43.441030627528434" lon="11.355049069112024"><ele>355.0</ele><time>2026-04-11T05:55:39Z</time></trkpt><trkpt lat="43.44104807165529" lon="11.355194037282018"><ele>354.66666666666663</ele><time>2026-04-11T05:55:41Z</time></trkpt><trkpt lat="43.44105563321997" lon="11.355315365280624"><ele>354.3333333333333</ele><time>2026-04-11T05:55:43Z</time></trkpt><trkpt lat="43.44105698258654" lon="11.355419304130244"><ele>354.0</ele><time>2026-04-11T05:55:47Z</time></trkpt><trkpt lat="43.44098762340796" lon="11.355536166053868"><ele>353.6666666666667</ele><time>2026-04-11T05:55:49Z</time></trkpt><trkpt lat="43.44099021308568" lon="11.3556325126178"><ele>353.33333333333337</ele><time>2026-04-11T05:55:51Z</time></trkpt><trkpt lat="43.441025402279855" lon="11.355712880558013"><ele>353.0</ele><time>2026-04-11T05:55:52Z</time></trkpt><trkpt lat="43.441064053861076" lon="11.355785704306586"><ele>352.79999999999995</ele><time>2026-04-11T05:55:54Z</time></trkpt><trkpt lat="43.44116641898817" lon="11.355853732887432"><ele>352.6</ele><time>2026-04-11T05:55:56Z</time></trkpt><trkpt lat="43.44127862368693" lon="11.355845940995458"><ele>352.4</ele><time>2026-04-11T05:55:59Z</time></trkpt><trkpt lat="43.44136883279743" lon="11.355774291715445"><ele>352.20000000000005</ele><time>2026-04-11T05:56:01Z</time></trkpt><trkpt lat="43.44141680871465" lon="11.355713410732493"><ele>352.0</ele><time>2026-04-11T05:56:03Z</time></trkpt><trkpt lat="43.4414493123362" lon="11.355618792999673"><ele>352.6</ele><time>2026-04-11T05:56:05Z</time></trkpt><trkpt lat="43.441483822690074" lon="11.355496036522593"><ele>353.20000000000005</ele><time>2026-04-11T05:56:07Z</time></trkpt><trkpt lat="43.441534386044374" lon="11.355373455804127"><ele>353.8</ele><time>2026-04-11T05:56:09Z</time></trkpt><trkpt lat="43.44160251044111" lon="11.355300871769646"><ele>354.4</ele><time>2026-04-11T05:56:11Z</time></trkpt><trkpt lat="43.4416703891093" lon="11.355261533315316"><ele>355.0</ele><time>2026-04-11T05:56:14Z</time></trkpt><trkpt lat="43.441780683942866" lon="11.355251492909247"><ele>355.0</ele><time>2026-04-11T05:56:17Z</time></trkpt><trkpt lat="43.44194401081627" lon="11.355246545174891"><ele>355.0</ele><time>2026-04-11T05:56:20Z</time></trkpt><trkpt lat="43.442012046465" lon="11.355275509774312"><ele>355.0</ele><time>2026-04-11T05:56:22Z</time></trkpt><trkpt lat="43.44212607224987" lon="11.355235526113155"><ele>355.0</ele><time>2026-04-11T05:56:24Z</time></trkpt><trkpt lat="43.4422261016824" lon="11.355180311854195"><ele>351.8333333333333</ele><time>2026-04-11T05:56:26Z</time></trkpt><trkpt lat="43.44234194692296" lon="11.35511963775825"><ele>348.66666666666663</ele><time>2026-04-11T05:56:28Z</time></trkpt><trkpt lat="43.44239928206715" lon="11.355055463179504"><ele>345.5</ele><time>2026-04-11T05:56:29Z</time></trkpt><trkpt lat="43.44246084839506" lon="11.355088819874647"><ele>342.3333333333333</ele><time>2026-04-11T05:56:30Z</time></trkpt><trkpt lat="43.442518042685236" lon="11.355041307874695"><ele>339.1666666666667</ele><time>2026-04-11T05:56:31Z</time></trkpt><trkpt lat="43.4425802578267" lon="11.354968232115597"><ele>336.0</ele><time>2026-04-11T05:56:32Z</time></trkpt><trkpt lat="43.442685634442995" lon="11.354875018703543"><ele>336.0</ele><time>2026-04-11T05:56:34Z</time></trkpt><trkpt lat="43.44278711383183" lon="11.354811677246769"><ele>336.0</ele><time>2026-04-11T05:56:36Z</time></trkpt><trkpt lat="43.442880016850005" lon="11.354753837299352"><ele>336.0</ele><time>2026-04-11T05:56:38Z</time></trkpt><trkpt lat="43.44300972742083" lon="11.354679413072358"><ele>336.0</ele><time>2026-04-11T05:56:40Z</time></trkpt><trkpt lat="43.44307062731626" lon="11.354644284072098"><ele>336.0</ele><time>2026-04-11T05:56:41Z</time></trkpt><trkpt lat="43.44320894553003" lon="11.35456350852442"><ele>335.6</ele><time>2026-04-11T05:56:43Z</time></trkpt><trkpt lat="43.44328317952743" lon="11.354520157048995"><ele>335.20000000000005</ele><time>2026-04-11T05:56:44Z</time></trkpt><trkpt lat="43.44338651170075" lon="11.354456695439628"><ele>334.79999999999995</ele><time>2026-04-11T05:56:45Z</time></trkpt><trkpt lat="43.44349821247495" lon="11.354381956733624"><ele>334.4</ele><time>2026-04-11T05:56:46Z</time></trkpt><trkpt lat="43.44359397322477" lon="11.354313558560483"><ele>334.0</ele><time>2026-04-11T05:56:47Z</time></trkpt><trkpt lat="43.44367480800664" lon="11.354253974265035"><ele>334.0</ele><time>2026-04-11T05:56:48Z</time></trkpt><trkpt lat="43.44375695520322" lon="11.354193422629725"><ele>334.0</ele><time>2026-04-11T05:56:49Z</time></trkpt><trkpt lat="43.44382608586683" lon="11.35414626761391"><ele>334.0</ele><time>2026-04-11T05:56:50Z</time></trkpt><trkpt lat="43.443906634254404" lon="11.354095881136113"><ele>334.0</ele><time>2026-04-11T05:56:51Z</time></trkpt><trkpt lat="43.44398231283889" lon="11.354042600657685"><ele>334.0</ele><time>2026-04-11T05:56:52Z</time></trkpt><trkpt lat="43.44404448109503" lon="11.354015851650017"><ele>334.0</ele><time>2026-04-11T05:56:53Z</time></trkpt><trkpt lat="43.44417146601072" lon="11.353952376420859"><ele>335.4</ele><time>2026-04-11T05:56:55Z</time></trkpt><trkpt lat="43.44423510989955" lon="11.353924629194793"><ele>336.79999999999995</ele><time>2026-04-11T05:56:56Z</time></trkpt><trkpt lat="43.444296663997406" lon="11.353899935752253"><ele>338.20000000000005</ele><time>2026-04-11T05:56:57Z</time></trkpt><trkpt lat="43.44436077532204" lon="11.353874785119856"><ele>339.6</ele><time>2026-04-11T05:56:58Z</time></trkpt><trkpt lat="43.444487758959994" lon="11.353826238069264"><ele>341.0</ele><time>2026-04-11T05:57:00Z</time></trkpt><trkpt lat="43.44460241202834" lon="11.353766962593985"><ele>338.83333333333337</ele><time>2026-04-11T05:57:02Z</time></trkpt><trkpt lat="43.44466909524003" lon="11.353769605625837"><ele>336.6666666666667</ele><time>2026-04-11T05:57:03Z</time></trkpt><trkpt lat="43.44475665924244" lon="11.353752117452556"><ele>334.5</ele><time>2026-04-11T05:57:05Z</time></trkpt><trkpt lat="43.444850701169976" lon="11.353743103376004"><ele>332.3333333333333</ele><time>2026-04-11T05:57:06Z</time></trkpt><trkpt lat="43.44490319451707" lon="11.353798075199789"><ele>330.16666666666663</ele><time>2026-04-11T05:57:07Z</time></trkpt><trkpt lat="43.44495882495444" lon="11.353942337560358"><ele>328.0</ele><time>2026-04-11T05:57:09Z</time></trkpt><trkpt lat="43.44491642422541" lon="11.354054268439187"><ele>328.0</ele><time>2026-04-11T05:57:10Z</time></trkpt><trkpt lat="43.44492441673" lon="11.354142881617829"><ele>328.0</ele><time>2026-04-11T05:57:11Z</time></trkpt><trkpt lat="43.444938594477186" lon="11.354294717682915"><ele>328.0</ele><time>2026-04-11T05:57:13Z</time></trkpt><trkpt lat="43.44497209706402" lon="11.354444195089838"><ele>328.0</ele><time>2026-04-11T05:57:15Z</time></trkpt><trkpt lat="43.4449987900627" lon="11.354523121977703"><ele>328.0</ele><time>2026-04-11T05:57:16Z</time></trkpt><trkpt lat="43.44505453880251" lon="11.354591168404363"><ele>328.0</ele><time>2026-04-11T05:57:17Z</time></trkpt><trkpt lat="43.44513816370804" lon="11.354744465937861"><ele>327.5</ele><time>2026-04-11T05:57:23Z</time></trkpt><trkpt lat="43.44523405108378" lon="11.35486382460513"><ele>327.0</ele><time>2026-04-11T05:57:24Z</time></trkpt><trkpt lat="43.44532635389705" lon="11.354956860408494"><ele>326.5</ele><time>2026-04-11T05:57:25Z</time></trkpt><trkpt lat="43.44542056925363" lon="11.355037960592083"><ele>326.0</ele><time>2026-04-11T05:57:26Z</time></trkpt><trkpt lat="43.44551970783185" lon="11.35510553533595"><ele>327.20000000000005</ele><time>2026-04-11T05:57:27Z</time></trkpt><trkpt lat="43.44560115667976" lon="11.35514562511024"><ele>328.40000000000003</ele><time>2026-04-11T05:57:28Z</time></trkpt><trkpt lat="43.44569247062758" lon="11.35517557991685"><ele>329.6</ele><time>2026-04-11T05:57:29Z</time></trkpt><trkpt lat="43.445782289611586" lon="11.355196691204783"><ele>330.8</ele><time>2026-04-11T05:57:30Z</time></trkpt><trkpt lat="43.445874895392336" lon="11.355207839324938"><ele>332.0</ele><time>2026-04-11T05:57:31Z</time></trkpt><trkpt lat="43.445974122846074" lon="11.355221203296441"><ele>332.0</ele><time>2026-04-11T05:57:33Z</time></trkpt><trkpt lat="43.44610124666673" lon="11.355235103869315"><ele>332.0</ele><time>2026-04-11T05:57:35Z</time></trkpt><trkpt lat="43.446170706712415" lon="11.355245382537358"><ele>332.0</ele><time>2026-04-11T05:57:36Z</time></trkpt><trkpt lat="43.44630962198621" lon="11.355242234423256"><ele>332.0</ele><time>2026-04-11T05:57:38Z</time></trkpt><trkpt lat="43.446431910165565" lon="11.355281619529668"><ele>333.0</ele><time>2026-04-11T05:57:40Z</time></trkpt><trkpt lat="43.446323173841705" lon="11.355269305256702"><ele>334.0</ele><time>2026-04-11T05:57:41Z</time></trkpt><trkpt lat="43.44638657038124" lon="11.355275267492605"><ele>335.0</ele><time>2026-04-11T05:57:44Z</time></trkpt><trkpt lat="43.4464810312048" lon="11.355270091008185"><ele>336.0</ele><time>2026-04-11T05:57:46Z</time></trkpt><trkpt lat="43.446611387354764" lon="11.355314670004512"><ele>337.0</ele><time>2026-04-11T05:57:48Z</time></trkpt><trkpt lat="43.446681358125616" lon="11.355327366636404"><ele>337.0</ele><time>2026-04-11T05:57:49Z</time></trkpt><trkpt lat="43.44683060124523" lon="11.355354204379953"><ele>337.0</ele><time>2026-04-11T05:57:51Z</time></trkpt><trkpt lat="43.44691663366641" lon="11.355369632778874"><ele>337.0</ele><time>2026-04-11T05:57:52Z</time></trkpt><trkpt lat="43.446981633712426" lon="11.355381289387605"><ele>337.0</ele><time>2026-04-11T05:57:53Z</time></trkpt><trkpt lat="43.44705272735515" lon="11.355394793933781"><ele>337.0</ele><time>2026-04-11T05:57:54Z</time></trkpt><trkpt lat="43.447127991384235" lon="11.355410830412822"><ele>335.8</ele><time>2026-04-11T05:57:55Z</time></trkpt><trkpt lat="43.44720569909234" lon="11.355427387591428"><ele>334.6</ele><time>2026-04-11T05:57:56Z</time></trkpt><trkpt lat="43.44730211895395" lon="11.355450751872057"><ele>333.40000000000003</ele><time>2026-04-11T05:57:57Z</time></trkpt><trkpt lat="43.447398748695385" lon="11.355474376669568"><ele>332.20000000000005</ele><time>2026-04-11T05:57:59Z</time></trkpt><trkpt lat="43.447497907440685" lon="11.355504035804383"><ele>331.0</ele><time>2026-04-11T05:58:01Z</time></trkpt><trkpt lat="43.4475919414668" lon="11.355543748630476"><ele>331.0</ele><time>2026-04-11T05:58:03Z</time></trkpt><trkpt lat="43.44772615289802" lon="11.355613551081305"><ele>331.0</ele><time>2026-04-11T05:58:05Z</time></trkpt><trkpt lat="43.44779710147864" lon="11.355653863424877"><ele>331.0</ele><time>2026-04-11T05:58:08Z</time></trkpt><trkpt lat="43.44788929069782" lon="11.355709287233179"><ele>331.0</ele><time>2026-04-11T05:58:11Z</time></trkpt><trkpt lat="43.447976191799185" lon="11.355761786577037"><ele>331.0</ele><time>2026-04-11T05:58:14Z</time></trkpt><trkpt lat="43.44805409752682" lon="11.355810296332267"><ele>331.8333333333333</ele><time>2026-04-11T05:58:18Z</time></trkpt><trkpt lat="43.448113546170696" lon="11.355848533112416"><ele>332.66666666666663</ele><time>2026-04-11T05:58:20Z</time></trkpt><trkpt lat="43.448213073031766" lon="11.355893052655754"><ele>333.5</ele><time>2026-04-11T05:58:23Z</time></trkpt><trkpt lat="43.44827237841836" lon="11.35593475882368"><ele>334.3333333333333</ele><time>2026-04-11T05:58:24Z</time></trkpt><trkpt lat="43.44833198997108" lon="11.355980295083155"><ele>335.1666666666667</ele><time>2026-04-11T05:58:25Z</time></trkpt><trkpt lat="43.44839054757689" lon="11.356043597220436"><ele>336.0</ele><time>2026-04-11T05:58:26Z</time></trkpt><trkpt lat="43.448451349043125" lon="11.356100007056583"><ele>336.0</ele><time>2026-04-11T05:58:27Z</time></trkpt><trkpt lat="43.44851614002186" lon="11.35614846284313"><ele>336.0</ele><time>2026-04-11T05:58:28Z</time></trkpt><trkpt lat="43.448607099951616" lon="11.356185244786017"><ele>336.0</ele><time>2026-04-11T05:58:29Z</time></trkpt><trkpt lat="43.44871748457106" lon="11.356274036714453"><ele>336.0</ele><time>2026-04-11T05:58:30Z</time></trkpt><trkpt lat="43.44881302292963" lon="11.356328866362533"><ele>336.0</ele><time>2026-04-11T05:58:31Z</time></trkpt><trkpt lat="43.44890568106639" lon="11.356372908428174"><ele>335.20000000000005</ele><time>2026-04-11T05:58:32Z</time></trkpt><trkpt lat="43.44899590754029" lon="11.356446758126362"><ele>334.40000000000003</ele><time>2026-04-11T05:58:33Z</time></trkpt><trkpt lat="43.44909228085805" lon="11.356478896711076"><ele>333.6</ele><time>2026-04-11T05:58:34Z</time></trkpt><trkpt lat="43.44920207714927" lon="11.356587227875655"><ele>332.8</ele><time>2026-04-11T05:58:35Z</time></trkpt><trkpt lat="43.44927307211133" lon="11.356641675582416"><ele>332.0</ele><time>2026-04-11T05:58:36Z</time></trkpt><trkpt lat="43.449334602488705" lon="11.35667336769604"><ele>332.0</ele><time>2026-04-11T05:58:37Z</time></trkpt><trkpt lat="43.44942167899759" lon="11.356704018756584"><ele>332.0</ele><time>2026-04-11T05:58:39Z</time></trkpt><trkpt lat="43.44948822378368" lon="11.35671789522247"><ele>332.0</ele><time>2026-04-11T05:58:44Z</time></trkpt><trkpt lat="43.44955724146577" lon="11.35672971705207"><ele>332.0</ele><time>2026-04-11T05:58:46Z</time></trkpt><trkpt lat="43.449631313396786" lon="11.356741572102921"><ele>332.0</ele><time>2026-04-11T05:58:48Z</time></trkpt><trkpt lat="43.44969491552725" lon="11.356751751480534"><ele>332.0</ele><time>2026-04-11T05:58:51Z</time></trkpt><trkpt lat="43.44978209177173" lon="11.356765703842019"><ele>333.6</ele><time>2026-04-11T05:58:54Z</time></trkpt><trkpt lat="43.44984800646115" lon="11.356775335152946"><ele>335.20000000000005</ele><time>2026-04-11T05:58:56Z</time></trkpt><trkpt lat="43.44997000392737" lon="11.356771598073202"><ele>336.8</ele><time>2026-04-11T05:59:00Z</time></trkpt><trkpt lat="43.44996990283093" lon="11.356609779010903"><ele>338.4</ele><time>2026-04-11T05:59:01Z</time></trkpt><trkpt lat="43.45003387962099" lon="11.35655866858701"><ele>340.0</ele><time>2026-04-11T05:59:04Z</time></trkpt><trkpt lat="43.45006288704284" lon="11.356424450212225"><ele>340.0</ele><time>2026-04-11T05:59:08Z</time></trkpt><trkpt lat="43.45016519497061" lon="11.356374979545565"><ele>340.0</ele><time>2026-04-11T05:59:11Z</time></trkpt><trkpt lat="43.450262835860165" lon="11.35631979846388"><ele>340.0</ele><time>2026-04-11T05:59:13Z</time></trkpt><trkpt lat="43.45034067311734" lon="11.356300003725991"><ele>340.0</ele><time>2026-04-11T05:59:14Z</time></trkpt><trkpt lat="43.45043277382279" lon="11.356294163868231"><ele>340.0</ele><time>2026-04-11T05:59:15Z</time></trkpt><trkpt lat="43.450523017468655" lon="11.35627410128015"><ele>341.16666666666663</ele><time>2026-04-11T05:59:17Z</time></trkpt><trkpt lat="43.45056470682467" lon="11.356196016449251"><ele>342.3333333333333</ele><time>2026-04-11T05:59:19Z</time></trkpt><trkpt lat="43.45063256649739" lon="11.356120172374734"><ele>343.5</ele><time>2026-04-11T05:59:23Z</time></trkpt><trkpt lat="43.45073628273018" lon="11.356050627744008"><ele>344.6666666666667</ele><time>2026-04-11T05:59:26Z</time></trkpt><trkpt lat="43.45078956953357" lon="11.35598904296124"><ele>345.83333333333337</ele><time>2026-04-11T05:59:29Z</time></trkpt><trkpt lat="43.45080572856996" lon="11.355846200734774"><ele>347.0</ele><time>2026-04-11T05:59:32Z</time></trkpt><trkpt lat="43.450919151637336" lon="11.35572149322889"><ele>347.0</ele><time>2026-04-11T05:59:34Z</time></trkpt><trkpt lat="43.45097442024134" lon="11.355666509747676"><ele>347.0</ele><time>2026-04-11T05:59:35Z</time></trkpt><trkpt lat="43.451030186622745" lon="11.35559263688344"><ele>347.0</ele><time>2026-04-11T05:59:36Z</time></trkpt><trkpt lat="43.45111159243575" lon="11.355520615222083"><ele>347.0</ele><time>2026-04-11T05:59:37Z</time></trkpt><trkpt lat="43.45118424911674" lon="11.355472354480673"><ele>347.0</ele><time>2026-04-11T05:59:38Z</time></trkpt><trkpt lat="43.45125335565307" lon="11.355426422774265"><ele>347.0</ele><time>2026-04-11T05:59:39Z</time></trkpt><trkpt lat="43.4513143938192" lon="11.355385252142597"><ele>347.40000000000003</ele><time>2026-04-11T05:59:40Z</time></trkpt><trkpt lat="43.451406687460334" lon="11.355336445889371"><ele>347.8</ele><time>2026-04-11T05:59:41Z</time></trkpt><trkpt lat="43.45150639439227" lon="11.355300726375596"><ele>348.2</ele><time>2026-04-11T05:59:42Z</time></trkpt><trkpt lat="43.451607061958505" lon="11.355261557412236"><ele>348.6</ele><time>2026-04-11T05:59:43Z</time></trkpt><trkpt lat="43.45171017808224" lon="11.355233557916742"><ele>349.0</ele><time>2026-04-11T05:59:45Z</time></trkpt><trkpt lat="43.45180118365007" lon="11.35521572940394"><ele>349.0</ele><time>2026-04-11T05:59:46Z</time></trkpt><trkpt lat="43.45187318294533" lon="11.355215605617728"><ele>349.0</ele><time>2026-04-11T05:59:48Z</time></trkpt><trkpt lat="43.451937593361706" lon="11.355190937831148"><ele>349.0</ele><time>2026-04-11T05:59:49Z</time></trkpt><trkpt lat="43.45202333797884" lon="11.355192031258301"><ele>349.0</ele><time>2026-04-11T05:59:50Z</time></trkpt><trkpt lat="43.45210955096714" lon="11.35518537096201"><ele>349.0</ele><time>2026-04-11T05:59:52Z</time></trkpt><trkpt lat="43.45221842113786" lon="11.355116892296651"><ele>349.0</ele><time>2026-04-11T05:59:54Z</time></trkpt><trkpt lat="43.45232755947498" lon="11.355061818483295"><ele>347.6</ele><time>2026-04-11T05:59:56Z</time></trkpt><trkpt lat="43.4523947457878" lon="11.355048757815494"><ele>346.2</ele><time>2026-04-11T05:59:57Z</time></trkpt><trkpt lat="43.45250486996951" lon="11.355010372862909"><ele>344.8</ele><time>2026-04-11T05:59:59Z</time></trkpt><trkpt lat="43.452592459208695" lon="11.3549694874021"><ele>343.40000000000003</ele><time>2026-04-11T06:00:01Z</time></trkpt><trkpt lat="43.45269238833663" lon="11.354893431216228"><ele>342.0</ele><time>2026-04-11T06:00:03Z</time></trkpt><trkpt lat="43.4527785464062" lon="11.354802940433958"><ele>342.0</ele><time>2026-04-11T06:00:05Z</time></trkpt><trkpt lat="43.452859950520775" lon="11.354753642415025"><ele>342.0</ele><time>2026-04-11T06:00:07Z</time></trkpt><trkpt lat="43.45293703532692" lon="11.354718518680542"><ele>342.0</ele><time>2026-04-11T06:00:09Z</time></trkpt><trkpt lat="43.4530054297497" lon="11.354676815931429"><ele>342.0</ele><time>2026-04-11T06:00:10Z</time></trkpt><trkpt lat="43.45306126794722" lon="11.354629780655383"><ele>342.0</ele><time>2026-04-11T06:00:11Z</time></trkpt><trkpt lat="43.45313159994416" lon="11.354616540464317"><ele>342.0</ele><time>2026-04-11T06:00:12Z</time></trkpt><trkpt lat="43.45319888229412" lon="11.354595870698345"><ele>342.40000000000003</ele><time>2026-04-11T06:00:13Z</time></trkpt><trkpt lat="43.453288034994884" lon="11.354562701202664"><ele>342.8</ele><time>2026-04-11T06:00:14Z</time></trkpt><trkpt lat="43.453390718470246" lon="11.354508918384738"><ele>343.2</ele><time>2026-04-11T06:00:16Z</time></trkpt><trkpt lat="43.45350205919958" lon="11.354447273720952"><ele>343.6</ele><time>2026-04-11T06:00:18Z</time></trkpt><trkpt lat="43.45360185072689" lon="11.35440641303576"><ele>344.0</ele><time>2026-04-11T06:00:20Z</time></trkpt><trkpt lat="43.45367264399025" lon="11.35433711285546"><ele>344.0</ele><time>2026-04-11T06:00:22Z</time></trkpt><trkpt lat="43.453736679456064" lon="11.354274173172893"><ele>344.0</ele><time>2026-04-11T06:00:23Z</time></trkpt><trkpt lat="43.45385683896408" lon="11.35423052267511"><ele>344.0</ele><time>2026-04-11T06:00:25Z</time></trkpt><trkpt lat="43.45387371800501" lon="11.354314669351197"><ele>344.0</ele><time>2026-04-11T06:00:29Z</time></trkpt><trkpt lat="43.45397190916798" lon="11.354300430448593"><ele>344.0</ele><time>2026-04-11T06:00:31Z</time></trkpt><trkpt lat="43.45404033838115" lon="11.354307538323848"><ele>344.0</ele><time>2026-04-11T06:00:32Z</time></trkpt><trkpt lat="43.454113613136585" lon="11.354311602193352"><ele>343.79999999999995</ele><time>2026-04-11T06:00:33Z</time></trkpt><trkpt lat="43.45425239069959" lon="11.354294966943923"><ele>343.59999999999997</ele><time>2026-04-11T06:00:35Z</time></trkpt><trkpt lat="43.45437150572985" lon="11.354247213897752"><ele>343.4</ele><time>2026-04-11T06:00:37Z</time></trkpt><trkpt lat="43.454478288089945" lon="11.354240818382053"><ele>343.2</ele><time>2026-04-11T06:00:39Z</time></trkpt><trkpt lat="43.454548900847804" lon="11.354194653319942"><ele>343.0</ele><time>2026-04-11T06:00:41Z</time></trkpt><trkpt lat="43.4546248928615" lon="11.354154857520195"><ele>343.0</ele><time>2026-04-11T06:00:44Z</time></trkpt><trkpt lat="43.45469811140942" lon="11.354080081397965"><ele>343.0</ele><time>2026-04-11T06:00:48Z</time></trkpt><trkpt lat="43.454812929084795" lon="11.354017870315976"><ele>343.0</ele><time>2026-04-11T06:00:53Z</time></trkpt><trkpt lat="43.45487754263595" lon="11.353986888051598"><ele>343.0</ele><time>2026-04-11T06:00:56Z</time></trkpt><trkpt lat="43.45494621788856" lon="11.353979925016613"><ele>343.0</ele><time>2026-04-11T06:01:01Z</time></trkpt><trkpt lat="43.45501795067983" lon="11.35394755406794"><ele>343.0</ele><time>2026-04-11T06:01:05Z</time></trkpt><trkpt lat="43.45507749976363" lon="11.353874805284505"><ele>343.0</ele><time>2026-04-11T06:01:09Z</time></trkpt><trkpt lat="43.45515075615957" lon="11.353872026638387"><ele>343.0</ele><time>2026-04-11T06:01:13Z</time></trkpt><trkpt lat="43.45522589557902" lon="11.35385506780094"><ele>343.0</ele><time>2026-04-11T06:01:17Z</time></trkpt><trkpt lat="43.4553149787559" lon="11.353856303750272"><ele>343.0</ele><time>2026-04-11T06:01:21Z</time></trkpt><trkpt lat="43.455378941762575" lon="11.353906470492985"><ele>343.0</ele><time>2026-04-11T06:01:24Z</time></trkpt><trkpt lat="43.455428563082215" lon="11.353845280256705"><ele>343.0</ele><time>2026-04-11T06:01:27Z</time></trkpt><trkpt lat="43.45551716658076" lon="11.353875216429591"><ele>343.4</ele><time>2026-04-11T06:01:29Z</time></trkpt><trkpt lat="43.45559006780101" lon="11.353894678029283"><ele>343.79999999999995</ele><time>2026-04-11T06:01:30Z</time></trkpt><trkpt lat="43.4556907518201" lon="11.353929906216822"><ele>344.2</ele><time>2026-04-11T06:01:31Z</time></trkpt><trkpt lat="43.45579120539404" lon="11.353976551659628"><ele>344.6</ele><time>2026-04-11T06:01:32Z</time></trkpt><trkpt lat="43.45587597509162" lon="11.354017707498986"><ele>345.0</ele><time>2026-04-11T06:01:33Z</time></trkpt><trkpt lat="43.45595870189911" lon="11.354033519614042"><ele>345.0</ele><time>2026-04-11T06:01:34Z</time></trkpt><trkpt lat="43.45604985640625" lon="11.35405741961724"><ele>345.0</ele><time>2026-04-11T06:01:35Z</time></trkpt><trkpt lat="43.4561312995873" lon="11.354075782229902"><ele>345.0</ele><time>2026-04-11T06:01:36Z</time></trkpt><trkpt lat="43.456201621217225" lon="11.354066353052184"><ele>345.0</ele><time>2026-04-11T06:01:37Z</time></trkpt><trkpt lat="43.456327105479076" lon="11.354084304820717"><ele>345.0</ele><time>2026-04-11T06:01:39Z</time></trkpt><trkpt lat="43.4564013300941" lon="11.354087918897012"><ele>345.0</ele><time>2026-04-11T06:01:40Z</time></trkpt><trkpt lat="43.456505148543265" lon="11.354138042458214"><ele>345.1666666666667</ele><time>2026-04-11T06:01:42Z</time></trkpt><trkpt lat="43.45659505023762" lon="11.354147918419297"><ele>345.3333333333333</ele><time>2026-04-11T06:01:43Z</time></trkpt><trkpt lat="43.456666704258566" lon="11.354139812671557"><ele>345.5</ele><time>2026-04-11T06:01:44Z</time></trkpt><trkpt lat="43.45674193134655" lon="11.354165538928758"><ele>345.66666666666663</ele><time>2026-04-11T06:01:46Z</time></trkpt><trkpt lat="43.4568071962012" lon="11.3541908484274"><ele>345.8333333333333</ele><time>2026-04-11T06:01:47Z</time></trkpt><trkpt lat="43.456902261772406" lon="11.354233229454785"><ele>346.0</ele><time>2026-04-11T06:01:49Z</time></trkpt><trkpt lat="43.45698210427228" lon="11.354279721508872"><ele>346.0</ele><time>2026-04-11T06:01:51Z</time></trkpt><trkpt lat="43.457050181868276" lon="11.354316069947801"><ele>346.0</ele><time>2026-04-11T06:01:53Z</time></trkpt><trkpt lat="43.4571239568375" lon="11.354351116870388"><ele>346.0</ele><time>2026-04-11T06:01:55Z</time></trkpt><trkpt lat="43.457207788427134" lon="11.35438601685955"><ele>346.0</ele><time>2026-04-11T06:01:57Z</time></trkpt><trkpt lat="43.45727310840101" lon="11.35443029612175"><ele>346.0</ele><time>2026-04-11T06:01:58Z</time></trkpt><trkpt lat="43.45733910135383" lon="11.354475236162234"><ele>346.0</ele><time>2026-04-11T06:01:59Z</time></trkpt><trkpt lat="43.45747233358377" lon="11.35448775070797"><ele>346.3333333333333</ele><time>2026-04-11T06:02:01Z</time></trkpt><trkpt lat="43.457577962239014" lon="11.35450532244206"><ele>346.66666666666663</ele><time>2026-04-11T06:02:03Z</time></trkpt><trkpt lat="43.45765251101733" lon="11.35456788261416"><ele>347.0</ele><time>2026-04-11T06:02:04Z</time></trkpt><trkpt lat="43.45771493984903" lon="11.354616756032438"><ele>347.3333333333333</ele><time>2026-04-11T06:02:05Z</time></trkpt><trkpt lat="43.45778360863823" lon="11.354645448515075"><ele>347.6666666666667</ele><time>2026-04-11T06:02:07Z</time></trkpt><trkpt lat="43.457821627670654" lon="11.354716696043528"><ele>348.0</ele><time>2026-04-11T06:02:08Z</time></trkpt><trkpt lat="43.457917489804856" lon="11.354658479908329"><ele>348.3333333333333</ele><time>2026-04-11T06:02:11Z</time></trkpt><trkpt lat="43.45796240469087" lon="11.354719892561189"><ele>348.6666666666667</ele><time>2026-04-11T06:02:12Z</time></trkpt><trkpt lat="43.45799260872633" lon="11.354640575544954"><ele>349.0</ele><time>2026-04-11T06:02:16Z</time></trkpt><trkpt lat="43.45806649880344" lon="11.354679956811808"><ele>349.33333333333337</ele><time>2026-04-11T06:02:19Z</time></trkpt><trkpt lat="43.45813943732122" lon="11.3547620850764"><ele>349.6666666666667</ele><time>2026-04-11T06:02:23Z</time></trkpt><trkpt lat="43.458248894138855" lon="11.354835665323181"><ele>350.0</ele><time>2026-04-11T06:02:27Z</time></trkpt><trkpt lat="43.45832450323044" lon="11.354896788323066"><ele>350.0</ele><time>2026-04-11T06:02:28Z</time></trkpt><trkpt lat="43.458374112491704" lon="11.354973612124521"><ele>350.0</ele><time>2026-04-11T06:02:29Z</time></trkpt><trkpt lat="43.45842991545928" lon="11.355038559231138"><ele>350.0</ele><time>2026-04-11T06:02:30Z</time></trkpt><trkpt lat="43.458497317056434" lon="11.355058277643975"><ele>350.0</ele><time>2026-04-11T06:02:31Z</time></trkpt><trkpt lat="43.45860569972061" lon="11.355151835736853"><ele>350.0</ele><time>2026-04-11T06:02:33Z</time></trkpt><trkpt lat="43.45869317934882" lon="11.355211531564219"><ele>350.0</ele><time>2026-04-11T06:02:35Z</time></trkpt><trkpt lat="43.45880375889394" lon="11.355301184283585"><ele>351.0</ele><time>2026-04-11T06:02:37Z</time></trkpt><trkpt lat="43.458868840343065" lon="11.355353987279212"><ele>352.0</ele><time>2026-04-11T06:02:39Z</time></trkpt><trkpt lat="43.4589544112518" lon="11.355396357443912"><ele>353.0</ele><time>2026-04-11T06:02:41Z</time></trkpt><trkpt lat="43.4590551698356" lon="11.355435010435695"><ele>354.0</ele><time>2026-04-11T06:02:43Z</time></trkpt><trkpt lat="43.459126452696005" lon="11.355413897951498"><ele>355.0</ele><time>2026-04-11T06:02:44Z</time></trkpt><trkpt lat="43.45921481743516" lon="11.355479276293707"><ele>356.0</ele><time>2026-04-11T06:02:46Z</time></trkpt><trkpt lat="43.4592882264136" lon="11.355470361311964"><ele>356.0</ele><time>2026-04-11T06:02:50Z</time></trkpt><trkpt lat="43.45936229661659" lon="11.35545273996117"><ele>356.0</ele><time>2026-04-11T06:02:53Z</time></trkpt><trkpt lat="43.459432598090395" lon="11.355487089091502"><ele>356.0</ele><time>2026-04-11T06:02:56Z</time></trkpt><trkpt lat="43.45951900195815" lon="11.35553560933195"><ele>356.0</ele><time>2026-04-11T06:02:59Z</time></trkpt><trkpt lat="43.45960257381405" lon="11.355530836926677"><ele>356.0</ele><time>2026-04-11T06:03:02Z</time></trkpt><trkpt lat="43.45967387549307" lon="11.355507134617882"><ele>356.0</ele><time>2026-04-11T06:03:05Z</time></trkpt><trkpt lat="43.45975326547693" lon="11.35550654177259"><ele>357.83333333333337</ele><time>2026-04-11T06:03:08Z</time></trkpt><trkpt lat="43.45982423023739" lon="11.35546727679678"><ele>359.6666666666667</ele><time>2026-04-11T06:03:10Z</time></trkpt><trkpt lat="43.459924244273886" lon="11.355473565932925"><ele>361.5</ele><time>2026-04-11T06:03:12Z</time></trkpt><trkpt lat="43.45999937606058" lon="11.355421764474421"><ele>363.3333333333333</ele><time>2026-04-11T06:03:14Z</time></trkpt><trkpt lat="43.46005886706507" lon="11.355362464833448"><ele>365.16666666666663</ele><time>2026-04-11T06:03:16Z</time></trkpt><trkpt lat="43.46014378421866" lon="11.355352694725811"><ele>367.0</ele><time>2026-04-11T06:03:19Z</time></trkpt><trkpt lat="43.46020718520231" lon="11.355425380722036"><ele>367.0</ele><time>2026-04-11T06:03:20Z</time></trkpt><trkpt lat="43.460263795373706" lon="11.355464344070487"><ele>367.0</ele><time>2026-04-11T06:03:23Z</time></trkpt><trkpt lat="43.46034607806497" lon="11.355475300701947"><ele>367.0</ele><time>2026-04-11T06:03:26Z</time></trkpt><trkpt lat="43.460451120297954" lon="11.355460337626296"><ele>367.0</ele><time>2026-04-11T06:03:29Z</time></trkpt><trkpt lat="43.4605598902819" lon="11.355463101419556"><ele>367.0</ele><time>2026-04-11T06:03:31Z</time></trkpt><trkpt lat="43.46067083455271" lon="11.355508726053602"><ele>368.0</ele><time>2026-04-11T06:03:33Z</time></trkpt><trkpt lat="43.46078344118675" lon="11.355496873871594"><ele>369.0</ele><time>2026-04-11T06:03:39Z</time></trkpt><trkpt lat="43.460864752724525" lon="11.355484565625012"><ele>370.0</ele><time>2026-04-11T06:03:42Z</time></trkpt><trkpt lat="43.46093992900438" lon="11.355505662215469"><ele>371.0</ele><time>2026-04-11T06:03:45Z</time></trkpt><trkpt lat="43.46100258711647" lon="11.355545388038408"><ele>372.0</ele><time>2026-04-11T06:03:47Z</time></trkpt><trkpt lat="43.4610832277627" lon="11.355502381361344"><ele>373.0</ele><time>2026-04-11T06:03:50Z</time></trkpt><trkpt lat="43.461191792045256" lon="11.355530287516064"><ele>373.0</ele><time>2026-04-11T06:03:53Z</time></trkpt><trkpt lat="43.461270934081554" lon="11.355477185734605"><ele>373.0</ele><time>2026-04-11T06:03:58Z</time></trkpt><trkpt lat="43.46133022473764" lon="11.35555040302319"><ele>373.0</ele><time>2026-04-11T06:04:01Z</time></trkpt><trkpt lat="43.46142332564159" lon="11.35559336434801"><ele>373.0</ele><time>2026-04-11T06:04:04Z</time></trkpt><trkpt lat="43.46152379923741" lon="11.355637987014616"><ele>373.0</ele><time>2026-04-11T06:04:06Z</time></trkpt><trkpt lat="43.46158645388565" lon="11.355674267529217"><ele>373.0</ele><time>2026-04-11T06:04:07Z</time></trkpt><trkpt lat="43.46167489018808" lon="11.355780317542862"><ele>368.75</ele><time>2026-04-11T06:04:08Z</time></trkpt><trkpt lat="43.46178306539585" lon="11.355914746032834"><ele>364.5</ele><time>2026-04-11T06:04:09Z</time></trkpt><trkpt lat="43.46188834315443" lon="11.3560038451452"><ele>360.25</ele><time>2026-04-11T06:04:10Z</time></trkpt><trkpt lat="43.46198417899234" lon="11.356113999765792"><ele>356.0</ele><time>2026-04-11T06:04:11Z</time></trkpt><trkpt lat="43.46207227864503" lon="11.35617195278756"><ele>355.8</ele><time>2026-04-11T06:04:12Z</time></trkpt><trkpt lat="43.462144938486965" lon="11.356216334208229"><ele>355.6</ele><time>2026-04-11T06:04:13Z</time></trkpt><trkpt lat="43.46223593447209" lon="11.356271292419464"><ele>355.4</ele><time>2026-04-11T06:04:14Z</time></trkpt><trkpt lat="43.462297639357814" lon="11.356315746140549"><ele>355.2</ele><time>2026-04-11T06:04:15Z</time></trkpt><trkpt lat="43.46244653292283" lon="11.356321934579846"><ele>355.0</ele><time>2026-04-11T06:04:17Z</time></trkpt><trkpt lat="43.46248995532194" lon="11.35638708104813"><ele>355.0</ele><time>2026-04-11T06:04:18Z</time></trkpt><trkpt lat="43.46255550715063" lon="11.356376394036937"><ele>355.0</ele><time>2026-04-11T06:04:19Z</time></trkpt><trkpt lat="43.46265850855789" lon="11.35645674537647"><ele>355.0</ele><time>2026-04-11T06:04:21Z</time></trkpt><trkpt lat="43.462742796166886" lon="11.356539102498834"><ele>355.0</ele><time>2026-04-11T06:04:23Z</time></trkpt><trkpt lat="43.462834932868695" lon="11.356652608246886"><ele>355.0</ele><time>2026-04-11T06:04:25Z</time></trkpt><trkpt lat="43.46290893279289" lon="11.356730812720093"><ele>357.6</ele><time>2026-04-11T06:04:27Z</time></trkpt><trkpt lat="43.462997369096755" lon="11.356803774635518"><ele>360.2</ele><time>2026-04-11T06:04:29Z</time></trkpt><trkpt lat="43.46307172338813" lon="11.356876700648893"><ele>362.79999999999995</ele><time>2026-04-11T06:04:31Z</time></trkpt><trkpt lat="43.46317719431114" lon="11.356911890107565"><ele>365.4</ele><time>2026-04-11T06:04:33Z</time></trkpt><trkpt lat="43.46328911461258" lon="11.356971732998927"><ele>368.0</ele><time>2026-04-11T06:04:41Z</time></trkpt><trkpt lat="43.463358094185594" lon="11.35698571793683"><ele>368.0</ele><time>2026-04-11T06:04:43Z</time></trkpt><trkpt lat="43.463423386924134" lon="11.356972186183024"><ele>368.0</ele><time>2026-04-11T06:04:46Z</time></trkpt><trkpt lat="43.463502258847285" lon="11.356945313477235"><ele>368.0</ele><time>2026-04-11T06:04:48Z</time></trkpt><trkpt lat="43.463575303786726" lon="11.356973440539571"><ele>368.0</ele><time>2026-04-11T06:04:51Z</time></trkpt><trkpt lat="43.46364246852019" lon="11.357021743291488"><ele>368.0</ele><time>2026-04-11T06:04:54Z</time></trkpt><trkpt lat="43.46370451279852" lon="11.357052597441891"><ele>368.0</ele><time>2026-04-11T06:04:56Z</time></trkpt><trkpt lat="43.46377449649024" lon="11.357033141335867"><ele>368.0</ele><time>2026-04-11T06:05:00Z</time></trkpt><trkpt lat="43.46385649286267" lon="11.357034318116023"><ele>367.0</ele><time>2026-04-11T06:05:03Z</time></trkpt><trkpt lat="43.46396989965634" lon="11.357110846859522"><ele>366.0</ele><time>2026-04-11T06:05:05Z</time></trkpt><trkpt lat="43.46409623142679" lon="11.357170166683016"><ele>365.0</ele><time>2026-04-11T06:05:07Z</time></trkpt><trkpt lat="43.46415049804722" lon="11.357245338796675"><ele>364.0</ele><time>2026-04-11T06:05:08Z</time></trkpt><trkpt lat="43.46426847469617" lon="11.35734733033068"><ele>364.0</ele><time>2026-04-11T06:05:10Z</time></trkpt><trkpt lat="43.46420195473974" lon="11.357340241244792"><ele>364.0</ele><time>2026-04-11T06:05:12Z</time></trkpt><trkpt lat="43.464289864488634" lon="11.357395558424379"><ele>364.0</ele><time>2026-04-11T06:05:15Z</time></trkpt><trkpt lat="43.46432256835819" lon="11.357556061565177"><ele>364.0</ele><time>2026-04-11T06:05:17Z</time></trkpt><trkpt lat="43.46448976935491" lon="11.3576650222056"><ele>364.0</ele><time>2026-04-11T06:05:20Z</time></trkpt><trkpt lat="43.464576762438526" lon="11.357675046853222"><ele>364.0</ele><time>2026-04-11T06:05:21Z</time></trkpt><trkpt lat="43.46462257049979" lon="11.357801661077946"><ele>364.0</ele><time>2026-04-11T06:05:22Z</time></trkpt><trkpt lat="43.46465910240874" lon="11.357924618583706"><ele>364.0</ele><time>2026-04-11T06:05:23Z</time></trkpt><trkpt lat="43.46470522768582" lon="11.358111108773292"><ele>364.0</ele><time>2026-04-11T06:05:25Z</time></trkpt><trkpt lat="43.464751180801414" lon="11.358195830854099"><ele>364.16666666666663</ele><time>2026-04-11T06:05:26Z</time></trkpt><trkpt lat="43.46477254357882" lon="11.358296472492377"><ele>364.3333333333333</ele><time>2026-04-11T06:05:27Z</time></trkpt><trkpt lat="43.464803461733" lon="11.358395194276797"><ele>364.5</ele><time>2026-04-11T06:05:28Z</time></trkpt><trkpt lat="43.46481922776713" lon="11.35848638130286"><ele>364.6666666666667</ele><time>2026-04-11T06:05:29Z</time></trkpt><trkpt lat="43.46485409089598" lon="11.358596663385004"><ele>364.83333333333337</ele><time>2026-04-11T06:05:30Z</time></trkpt><trkpt lat="43.46489342386383" lon="11.35873101789555"><ele>365.0</ele><time>2026-04-11T06:05:31Z</time></trkpt><trkpt lat="43.464935333191384" lon="11.358884875551603"><ele>365.0</ele><time>2026-04-11T06:05:33Z</time></trkpt><trkpt lat="43.46494041618242" lon="11.358997929727437"><ele>365.0</ele><time>2026-04-11T06:05:34Z</time></trkpt><trkpt lat="43.464937520804845" lon="11.359112689302178"><ele>365.0</ele><time>2026-04-11T06:05:36Z</time></trkpt><trkpt lat="43.46497735834016" lon="11.359220473284514"><ele>365.0</ele><time>2026-04-11T06:05:38Z</time></trkpt><trkpt lat="43.46496363512379" lon="11.359321316589059"><ele>365.0</ele><time>2026-04-11T06:05:41Z</time></trkpt><trkpt lat="43.46498883576954" lon="11.359439481961074"><ele>365.0</ele><time>2026-04-11T06:05:44Z</time></trkpt><trkpt lat="43.46503327016896" lon="11.359529210074873"><ele>365.0</ele><time>2026-04-11T06:05:45Z</time></trkpt><trkpt lat="43.46510046535546" lon="11.359596258057243"><ele>365.0</ele><time>2026-04-11T06:05:46Z</time></trkpt><trkpt lat="43.46516709428793" lon="11.359676708232609"><ele>365.0</ele><time>2026-04-11T06:05:47Z</time></trkpt><trkpt lat="43.46518552415527" lon="11.359774292852768"><ele>365.0</ele><time>2026-04-11T06:05:48Z</time></trkpt><trkpt lat="43.46525426971131" lon="11.359886823412495"><ele>365.0</ele><time>2026-04-11T06:05:50Z</time></trkpt><trkpt lat="43.4653216063801" lon="11.36000757764125"><ele>364.6</ele><time>2026-04-11T06:05:52Z</time></trkpt><trkpt lat="43.46541109657065" lon="11.360100466501672"><ele>364.2</ele><time>2026-04-11T06:05:54Z</time></trkpt><trkpt lat="43.46544754580869" lon="11.360202367434932"><ele>363.79999999999995</ele><time>2026-04-11T06:05:55Z</time></trkpt><trkpt lat="43.465528450015704" lon="11.360336240156036"><ele>363.4</ele><time>2026-04-11T06:05:57Z</time></trkpt><trkpt lat="43.46557951491452" lon="11.360445077596456"><ele>363.0</ele><time>2026-04-11T06:06:01Z</time></trkpt><trkpt lat="43.465599136841305" lon="11.360579362101252"><ele>364.1666666666667</ele><time>2026-04-11T06:06:04Z</time></trkpt><trkpt lat="43.46565889901124" lon="11.360656916525054"><ele>365.3333333333333</ele><time>2026-04-11T06:06:07Z</time></trkpt><trkpt lat="43.46572977573592" lon="11.360702390948314"><ele>366.5</ele><time>2026-04-11T06:06:10Z</time></trkpt><trkpt lat="43.46580347323089" lon="11.360716592919823"><ele>367.66666666666663</ele><time>2026-04-11T06:06:12Z</time></trkpt><trkpt lat="43.46587024926585" lon="11.360833360975036"><ele>368.8333333333333</ele><time>2026-04-11T06:06:15Z</time></trkpt><trkpt lat="43.46589218278897" lon="11.360937230136727"><ele>370.0</ele><time>2026-04-11T06:06:16Z</time></trkpt><trkpt lat="43.465974945506844" lon="11.360986891341158"><ele>370.0</ele><time>2026-04-11T06:06:18Z</time></trkpt><trkpt lat="43.46603421640199" lon="11.361039441313187"><ele>370.0</ele><time>2026-04-11T06:06:20Z</time></trkpt><trkpt lat="43.466084710237396" lon="11.361153707598053"><ele>370.0</ele><time>2026-04-11T06:06:22Z</time></trkpt><trkpt lat="43.46615356441913" lon="11.36117028663154"><ele>370.0</ele><time>2026-04-11T06:06:24Z</time></trkpt><trkpt lat="43.46617766728055" lon="11.361261113547718"><ele>370.0</ele><time>2026-04-11T06:06:26Z</time></trkpt><trkpt lat="43.466161465105216" lon="11.36141869342684"><ele>370.0</ele><time>2026-04-11T06:06:28Z</time></trkpt><trkpt lat="43.46622452753943" lon="11.361519483990248"><ele>369.4</ele><time>2026-04-11T06:06:31Z</time></trkpt><trkpt lat="43.46623465700408" lon="11.361622979225526"><ele>368.8</ele><time>2026-04-11T06:06:33Z</time></trkpt><trkpt lat="43.466285391161385" lon="11.36176037902921"><ele>368.20000000000005</ele><time>2026-04-11T06:06:35Z</time></trkpt><trkpt lat="43.46630704789092" lon="11.361911733654278"><ele>367.6</ele><time>2026-04-11T06:06:37Z</time></trkpt><trkpt lat="43.46638313720004" lon="11.362028152251874"><ele>367.0</ele><time>2026-04-11T06:06:39Z</time></trkpt><trkpt lat="43.46644256831312" lon="11.362081980850615"><ele>367.3333333333333</ele><time>2026-04-11T06:06:40Z</time></trkpt><trkpt lat="43.46647762495819" lon="11.362196412046849"><ele>367.66666666666663</ele><time>2026-04-11T06:06:42Z</time></trkpt><trkpt lat="43.466520099299764" lon="11.362270367021566"><ele>368.0</ele><time>2026-04-11T06:06:43Z</time></trkpt><trkpt lat="43.46656788856191" lon="11.362396525257113"><ele>368.3333333333333</ele><time>2026-04-11T06:06:45Z</time></trkpt><trkpt lat="43.46663558282488" lon="11.362483415049718"><ele>368.6666666666667</ele><time>2026-04-11T06:06:47Z</time></trkpt><trkpt lat="43.46667204263329" lon="11.362567437385248"><ele>369.0</ele><time>2026-04-11T06:06:48Z</time></trkpt><trkpt lat="43.46672772736901" lon="11.362709332234981"><ele>369.0</ele><time>2026-04-11T06:06:50Z</time></trkpt><trkpt lat="43.46678332661288" lon="11.362782040570774"><ele>369.0</ele><time>2026-04-11T06:06:51Z</time></trkpt><trkpt lat="43.46675604951373" lon="11.362883399043751"><ele>369.0</ele><time>2026-04-11T06:06:54Z</time></trkpt><trkpt lat="43.46676589734081" lon="11.362996067763968"><ele>369.0</ele><time>2026-04-11T06:06:56Z</time></trkpt><trkpt lat="43.46678098232541" lon="11.36320083813352"><ele>369.0</ele><time>2026-04-11T06:06:58Z</time></trkpt><trkpt lat="43.46676161263207" lon="11.363319277857613"><ele>369.0</ele><time>2026-04-11T06:06:59Z</time></trkpt><trkpt lat="43.46674754700804" lon="11.363421402296318"><ele>369.0</ele><time>2026-04-11T06:07:00Z</time></trkpt><trkpt lat="43.46674543957524" lon="11.36357544639908"><ele>369.0</ele><time>2026-04-11T06:07:02Z</time></trkpt><trkpt lat="43.46672015172664" lon="11.363726643816209"><ele>369.0</ele><time>2026-04-11T06:07:04Z</time></trkpt><trkpt lat="43.46668993801569" lon="11.363864962725224"><ele>369.0</ele><time>2026-04-11T06:07:06Z</time></trkpt><trkpt lat="43.46667553428851" lon="11.364024619175616"><ele>369.0</ele><time>2026-04-11T06:07:08Z</time></trkpt><trkpt lat="43.466677559555" lon="11.364113890694442"><ele>369.0</ele><time>2026-04-11T06:07:10Z</time></trkpt><trkpt lat="43.46666066497164" lon="11.36424716416901"><ele>369.0</ele><time>2026-04-11T06:07:13Z</time></trkpt><trkpt lat="43.46665566954573" lon="11.364340619059558"><ele>369.0</ele><time>2026-04-11T06:07:15Z</time></trkpt><trkpt lat="43.4666182518788" lon="11.364464810349586"><ele>369.0</ele><time>2026-04-11T06:07:18Z</time></trkpt><trkpt lat="43.46660884024053" lon="11.364577241442994"><ele>369.0</ele><time>2026-04-11T06:07:20Z</time></trkpt><trkpt lat="43.46659291718024" lon="11.364667010271694"><ele>369.1666666666667</ele><time>2026-04-11T06:07:22Z</time></trkpt><trkpt lat="43.46655535886238" lon="11.364824590460833"><ele>369.3333333333333</ele><time>2026-04-11T06:07:25Z</time></trkpt><trkpt lat="43.466551452379804" lon="11.364944931832945"><ele>369.5</ele><time>2026-04-11T06:07:28Z</time></trkpt><trkpt lat="43.46651995419649" lon="11.365049269466788"><ele>369.66666666666663</ele><time>2026-04-11T06:07:30Z</time></trkpt><trkpt lat="43.466539463546255" lon="11.36513877158431"><ele>369.8333333333333</ele><time>2026-04-11T06:07:32Z</time></trkpt><trkpt lat="43.46654940591722" lon="11.36523679373042"><ele>370.0</ele><time>2026-04-11T06:07:34Z</time></trkpt><trkpt lat="43.4665321131599" lon="11.365335498604745"><ele>370.0</ele><time>2026-04-11T06:07:36Z</time></trkpt><trkpt lat="43.466553544168676" lon="11.36543375955657"><ele>370.0</ele><time>2026-04-11T06:07:38Z</time></trkpt><trkpt lat="43.46650520702192" lon="11.36549578536017"><ele>370.0</ele><time>2026-04-11T06:07:39Z</time></trkpt><trkpt lat="43.466542836697286" lon="11.36560340735395"><ele>370.0</ele><time>2026-04-11T06:07:41Z</time></trkpt><trkpt lat="43.46652965912369" lon="11.36571188091507"><ele>370.0</ele><time>2026-04-11T06:07:44Z</time></trkpt><trkpt lat="43.46649752321111" lon="11.365790931558838"><ele>370.0</ele><time>2026-04-11T06:07:45Z</time></trkpt><trkpt lat="43.466481774747606" lon="11.365899378117676"><ele>369.8333333333333</ele><time>2026-04-11T06:07:47Z</time></trkpt><trkpt lat="43.466454296878126" lon="11.366027868777392"><ele>369.66666666666663</ele><time>2026-04-11T06:07:49Z</time></trkpt><trkpt lat="43.46639987079538" lon="11.366120445025"><ele>369.5</ele><time>2026-04-11T06:07:51Z</time></trkpt><trkpt lat="43.46634631529472" lon="11.366214189392341"><ele>369.3333333333333</ele><time>2026-04-11T06:07:53Z</time></trkpt><trkpt lat="43.46633334148999" lon="11.366311446733086"><ele>369.1666666666667</ele><time>2026-04-11T06:07:55Z</time></trkpt><trkpt lat="43.466276190729275" lon="11.366405310182436"><ele>369.0</ele><time>2026-04-11T06:07:57Z</time></trkpt><trkpt lat="43.46626801301781" lon="11.36652035627392"><ele>369.0</ele><time>2026-04-11T06:07:59Z</time></trkpt><trkpt lat="43.46622068876023" lon="11.366622121948932"><ele>369.0</ele><time>2026-04-11T06:08:01Z</time></trkpt><trkpt lat="43.466216545796314" lon="11.36673038906796"><ele>369.0</ele><time>2026-04-11T06:08:03Z</time></trkpt><trkpt lat="43.46617785651228" lon="11.36683700967268"><ele>369.0</ele><time>2026-04-11T06:08:05Z</time></trkpt><trkpt lat="43.46612891777378" lon="11.36694709278594"><ele>369.0</ele><time>2026-04-11T06:08:07Z</time></trkpt><trkpt lat="43.466124152821806" lon="11.36705090784209"><ele>369.0</ele><time>2026-04-11T06:08:09Z</time></trkpt><trkpt lat="43.4661119610268" lon="11.367183583917434"><ele>369.3333333333333</ele><time>2026-04-11T06:08:11Z</time></trkpt><trkpt lat="43.46613531039498" lon="11.367268612684846"><ele>369.6666666666667</ele><time>2026-04-11T06:08:13Z</time></trkpt><trkpt lat="43.46609608078766" lon="11.367388337890915"><ele>370.0</ele><time>2026-04-11T06:08:15Z</time></trkpt><trkpt lat="43.46608882473545" lon="11.367491324628968"><ele>370.33333333333337</ele><time>2026-04-11T06:08:17Z</time></trkpt><trkpt lat="43.466118488250906" lon="11.367625814341936"><ele>370.6666666666667</ele><time>2026-04-11T06:08:19Z</time></trkpt><trkpt lat="43.466066831734686" lon="11.367740808127984"><ele>371.0</ele><time>2026-04-11T06:08:21Z</time></trkpt><trkpt lat="43.46602595013102" lon="11.36783951562415"><ele>371.0</ele><time>2026-04-11T06:08:22Z</time></trkpt><trkpt lat="43.46602837507561" lon="11.367948481726266"><ele>371.0</ele><time>2026-04-11T06:08:23Z</time></trkpt><trkpt lat="43.46602347591423" lon="11.368050408104484"><ele>371.0</ele><time>2026-04-11T06:08:24Z</time></trkpt><trkpt lat="43.46598377840793" lon="11.3681895360913"><ele>371.0</ele><time>2026-04-11T06:08:26Z</time></trkpt><trkpt lat="43.46596866873681" lon="11.368307915356565"><ele>371.0</ele><time>2026-04-11T06:08:27Z</time></trkpt><trkpt lat="43.46592664670879" lon="11.368430249619916"><ele>371.0</ele><time>2026-04-11T06:08:28Z</time></trkpt><trkpt lat="43.46589756415545" lon="11.368543507829305"><ele>371.5</ele><time>2026-04-11T06:08:29Z</time></trkpt><trkpt lat="43.465858442273266" lon="11.368646473215353"><ele>372.0</ele><time>2026-04-11T06:08:32Z</time></trkpt><trkpt lat="43.46584879588819" lon="11.36874603749937"><ele>372.5</ele><time>2026-04-11T06:08:34Z</time></trkpt><trkpt lat="43.46585503881262" lon="11.36888109627328"><ele>373.0</ele><time>2026-04-11T06:08:36Z</time></trkpt><trkpt lat="43.46587063820711" lon="11.369000988334017"><ele>373.5</ele><time>2026-04-11T06:08:38Z</time></trkpt><trkpt lat="43.465900250222134" lon="11.36907879522112"><ele>374.0</ele><time>2026-04-11T06:08:41Z</time></trkpt><trkpt lat="43.46591267507994" lon="11.369168584872737"><ele>374.0</ele><time>2026-04-11T06:08:43Z</time></trkpt><trkpt lat="43.46595032324059" lon="11.369252357807799"><ele>374.0</ele><time>2026-04-11T06:08:45Z</time></trkpt><trkpt lat="43.46597719243095" lon="11.369366854692739"><ele>374.0</ele><time>2026-04-11T06:08:47Z</time></trkpt><trkpt lat="43.46601899135918" lon="11.369440809645928"><ele>374.0</ele><time>2026-04-11T06:08:49Z</time></trkpt><trkpt lat="43.46605850842968" lon="11.369526982658522"><ele>374.0</ele><time>2026-04-11T06:08:51Z</time></trkpt><trkpt lat="43.466082546182534" lon="11.369616622248435"><ele>374.0</ele><time>2026-04-11T06:08:53Z</time></trkpt><trkpt lat="43.466123230127714" lon="11.369736341585797"><ele>374.33333333333337</ele><time>2026-04-11T06:08:56Z</time></trkpt><trkpt lat="43.466132053163584" lon="11.369841596846825"><ele>374.6666666666667</ele><time>2026-04-11T06:08:59Z</time></trkpt><trkpt lat="43.46615845314779" lon="11.369961628572606"><ele>375.0</ele><time>2026-04-11T06:09:02Z</time></trkpt><trkpt lat="43.46620697553142" lon="11.370017720327565"><ele>375.3333333333333</ele><time>2026-04-11T06:09:03Z</time></trkpt><trkpt lat="43.466274134705195" lon="11.369998753749417"><ele>375.66666666666663</ele><time>2026-04-11T06:09:04Z</time></trkpt><trkpt lat="43.466316295461006" lon="11.37011581972682"><ele>376.0</ele><time>2026-04-11T06:09:06Z</time></trkpt><trkpt lat="43.466341638438365" lon="11.37025494694261"><ele>376.6</ele><time>2026-04-11T06:09:07Z</time></trkpt><trkpt lat="43.466436946208056" lon="11.370401616408595"><ele>377.20000000000005</ele><time>2026-04-11T06:09:09Z</time></trkpt><trkpt lat="43.46649554898904" lon="11.37046130968358"><ele>377.79999999999995</ele><time>2026-04-11T06:09:10Z</time></trkpt><trkpt lat="43.46653611504833" lon="11.370565044059152"><ele>378.4</ele><time>2026-04-11T06:09:11Z</time></trkpt><trkpt lat="43.46659209665096" lon="11.370669904449967"><ele>379.0</ele><time>2026-04-11T06:09:12Z</time></trkpt><trkpt lat="43.466641001441346" lon="11.370800207329545"><ele>379.0</ele><time>2026-04-11T06:09:13Z</time></trkpt><trkpt lat="43.466724279415835" lon="11.37090961520471"><ele>379.0</ele><time>2026-04-11T06:09:15Z</time></trkpt><trkpt lat="43.466805083288456" lon="11.370877693370982"><ele>379.0</ele><time>2026-04-11T06:09:18Z</time></trkpt><trkpt lat="43.46690750562661" lon="11.370914191426323"><ele>379.0</ele><time>2026-04-11T06:09:21Z</time></trkpt><trkpt lat="43.466976121409395" lon="11.371008353562157"><ele>379.0</ele><time>2026-04-11T06:09:24Z</time></trkpt><trkpt lat="43.46703456624992" lon="11.371089199746983"><ele>379.0</ele><time>2026-04-11T06:09:26Z</time></trkpt><trkpt lat="43.467094396710976" lon="11.37114297327464"><ele>379.0</ele><time>2026-04-11T06:09:28Z</time></trkpt><trkpt lat="43.467171677228386" lon="11.371198896813677"><ele>379.0</ele><time>2026-04-11T06:09:30Z</time></trkpt><trkpt lat="43.46720894357584" lon="11.37127385541076"><ele>379.0</ele><time>2026-04-11T06:09:31Z</time></trkpt><trkpt lat="43.46726641537791" lon="11.371368737451373"><ele>379.0</ele><time>2026-04-11T06:09:33Z</time></trkpt><trkpt lat="43.46731849483607" lon="11.371512178530086"><ele>379.0</ele><time>2026-04-11T06:09:35Z</time></trkpt><trkpt lat="43.46735471107628" lon="11.371584556704688"><ele>379.2</ele><time>2026-04-11T06:09:36Z</time></trkpt><trkpt lat="43.467390256286876" lon="11.37174959238364"><ele>379.4</ele><time>2026-04-11T06:09:38Z</time></trkpt><trkpt lat="43.46744292894578" lon="11.371896033981882"><ele>379.6</ele><time>2026-04-11T06:09:40Z</time></trkpt><trkpt lat="43.467505900075594" lon="11.371981413419546"><ele>379.8</ele><time>2026-04-11T06:09:42Z</time></trkpt><trkpt lat="43.4675333680202" lon="11.372088569859786"><ele>380.0</ele><time>2026-04-11T06:09:44Z</time></trkpt><trkpt lat="43.467580163354356" lon="11.372205699394186"><ele>379.2</ele><time>2026-04-11T06:09:46Z</time></trkpt><trkpt lat="43.46761622982875" lon="11.372300374066043"><ele>378.4</ele><time>2026-04-11T06:09:48Z</time></trkpt><trkpt lat="43.46765582838116" lon="11.372433559412194"><ele>377.6</ele><time>2026-04-11T06:09:50Z</time></trkpt><trkpt lat="43.46765381466371" lon="11.372536649202457"><ele>376.8</ele><time>2026-04-11T06:09:52Z</time></trkpt><trkpt lat="43.467676762804466" lon="11.372698782177016"><ele>376.0</ele><time>2026-04-11T06:09:54Z</time></trkpt><trkpt lat="43.467714053558886" lon="11.372803203688111"><ele>376.0</ele><time>2026-04-11T06:09:55Z</time></trkpt><trkpt lat="43.46774510758461" lon="11.372929249874165"><ele>376.0</ele><time>2026-04-11T06:09:57Z</time></trkpt><trkpt lat="43.46778544347684" lon="11.373032844951098"><ele>376.0</ele><time>2026-04-11T06:09:59Z</time></trkpt><trkpt lat="43.467860460488446" lon="11.373114695739059"><ele>376.0</ele><time>2026-04-11T06:10:01Z</time></trkpt><trkpt lat="43.46789259314695" lon="11.373193511417746"><ele>376.0</ele><time>2026-04-11T06:10:03Z</time></trkpt><trkpt lat="43.46799228034916" lon="11.37323901779757"><ele>376.0</ele><time>2026-04-11T06:10:05Z</time></trkpt><trkpt lat="43.46807068749139" lon="11.373265440711261"><ele>377.16666666666663</ele><time>2026-04-11T06:10:07Z</time></trkpt><trkpt lat="43.46813779369559" lon="11.373321521175686"><ele>378.3333333333333</ele><time>2026-04-11T06:10:09Z</time></trkpt><trkpt lat="43.468198495775695" lon="11.373351318670979"><ele>379.5</ele><time>2026-04-11T06:10:11Z</time></trkpt><trkpt lat="43.4682771695116" lon="11.373400222305385"><ele>380.6666666666667</ele><time>2026-04-11T06:10:13Z</time></trkpt><trkpt lat="43.46835793504032" lon="11.373451997185125"><ele>381.83333333333337</ele><time>2026-04-11T06:10:16Z</time></trkpt><trkpt lat="43.468420602896146" lon="11.37347929568603"><ele>383.0</ele><time>2026-04-11T06:10:18Z</time></trkpt><trkpt lat="43.468489233957364" lon="11.373496843200963"><ele>383.0</ele><time>2026-04-11T06:10:20Z</time></trkpt><trkpt lat="43.468545773540015" lon="11.373569946864329"><ele>383.0</ele><time>2026-04-11T06:10:22Z</time></trkpt><trkpt lat="43.46859664384466" lon="11.373630066523017"><ele>383.0</ele><time>2026-04-11T06:10:24Z</time></trkpt><trkpt lat="43.46862163038604" lon="11.37371019522516"><ele>383.0</ele><time>2026-04-11T06:10:25Z</time></trkpt><trkpt lat="43.468661476328805" lon="11.373782066519775"><ele>383.0</ele><time>2026-04-11T06:10:26Z</time></trkpt><trkpt lat="43.46870559201272" lon="11.37386487257606"><ele>383.0</ele><time>2026-04-11T06:10:28Z</time></trkpt><trkpt lat="43.46877143529927" lon="11.373876260006176"><ele>383.0</ele><time>2026-04-11T06:10:32Z</time></trkpt><trkpt lat="43.4688559794634" lon="11.37386029150651"><ele>383.33333333333337</ele><time>2026-04-11T06:10:34Z</time></trkpt><trkpt lat="43.46890221122184" lon="11.3739781640146"><ele>383.6666666666667</ele><time>2026-04-11T06:10:36Z</time></trkpt><trkpt lat="43.46897515041174" lon="11.374018516747144"><ele>384.0</ele><time>2026-04-11T06:10:40Z</time></trkpt><trkpt lat="43.469043706789826" lon="11.374083869360085"><ele>384.33333333333337</ele><time>2026-04-11T06:10:42Z</time></trkpt><trkpt lat="43.46915732544989" lon="11.374123359144994"><ele>384.6666666666667</ele><time>2026-04-11T06:10:44Z</time></trkpt><trkpt lat="43.46922664390298" lon="11.374150935665986"><ele>385.0</ele><time>2026-04-11T06:10:46Z</time></trkpt><trkpt lat="43.4693240375858" lon="11.374182571674673"><ele>385.00000000000006</ele><time>2026-04-11T06:10:48Z</time></trkpt><trkpt lat="43.4694022805772" lon="11.374211505276289"><ele>385.0</ele><time>2026-04-11T06:10:51Z</time></trkpt><trkpt lat="43.469473117785704" lon="11.374251122328861"><ele>385.0</ele><time>2026-04-11T06:10:54Z</time></trkpt><trkpt lat="43.469523581690176" lon="11.374308136135282"><ele>385.0</ele><time>2026-04-11T06:10:58Z</time></trkpt><trkpt lat="43.46956203115472" lon="11.374221865629272"><ele>385.00000000000006</ele><time>2026-04-11T06:11:09Z</time></trkpt><trkpt lat="43.46965990747985" lon="11.374079736981923"><ele>385.0</ele><time>2026-04-11T06:11:26Z</time></trkpt><trkpt lat="43.46961537999863" lon="11.374278194879244"><ele>386.1666666666667</ele><time>2026-04-11T06:11:58Z</time></trkpt><trkpt lat="43.46967952503186" lon="11.374223051367926"><ele>387.33333333333337</ele><time>2026-04-11T06:12:12Z</time></trkpt><trkpt lat="43.469758679122904" lon="11.37427782722335"><ele>388.5</ele><time>2026-04-11T06:12:15Z</time></trkpt><trkpt lat="43.46984624057742" lon="11.374202678622838"><ele>389.66666666666663</ele><time>2026-04-11T06:12:18Z</time></trkpt><trkpt lat="43.46991663108825" lon="11.374188662150143"><ele>390.8333333333333</ele><time>2026-04-11T06:12:21Z</time></trkpt><trkpt lat="43.4699830703408" lon="11.374162571036141"><ele>392.0</ele><time>2026-04-11T06:12:25Z</time></trkpt><trkpt lat="43.470071949955646" lon="11.374178384892904"><ele>392.0</ele><time>2026-04-11T06:12:27Z</time></trkpt><trkpt lat="43.47014079421401" lon="11.374244897129369"><ele>392.0</ele><time>2026-04-11T06:12:30Z</time></trkpt><trkpt lat="43.47021958934069" lon="11.374219348049703"><ele>392.0</ele><time>2026-04-11T06:12:35Z</time></trkpt><trkpt lat="43.470289495244266" lon="11.37422512051415"><ele>392.0</ele><time>2026-04-11T06:12:38Z</time></trkpt><trkpt lat="43.47035602441037" lon="11.374218977351754"><ele>392.0</ele><time>2026-04-11T06:12:40Z</time></trkpt><trkpt lat="43.47041905630146" lon="11.374220845861286"><ele>392.0</ele><time>2026-04-11T06:12:42Z</time></trkpt><trkpt lat="43.47048556191317" lon="11.374219262354975"><ele>392.0</ele><time>2026-04-11T06:12:45Z</time></trkpt><trkpt lat="43.470549593028075" lon="11.374229652473483"><ele>392.49999999999994</ele><time>2026-04-11T06:12:47Z</time></trkpt><trkpt lat="43.47061556489596" lon="11.374246028355675"><ele>393.0</ele><time>2026-04-11T06:12:49Z</time></trkpt><trkpt lat="43.4706948895297" lon="11.374275372234194"><ele>393.5</ele><time>2026-04-11T06:12:51Z</time></trkpt><trkpt lat="43.470809036675064" lon="11.374264374816129"><ele>394.0</ele><time>2026-04-11T06:12:56Z</time></trkpt><trkpt lat="43.470873664910826" lon="11.374267257686046"><ele>394.49999999999994</ele><time>2026-04-11T06:13:00Z</time></trkpt><trkpt lat="43.47094023894982" lon="11.374223971353683"><ele>395.0</ele><time>2026-04-11T06:13:03Z</time></trkpt><trkpt lat="43.47101251618564" lon="11.374183354741993"><ele>394.99999999999994</ele><time>2026-04-11T06:13:06Z</time></trkpt><trkpt lat="43.47109543229937" lon="11.374193422274354"><ele>395.0</ele><time>2026-04-11T06:13:09Z</time></trkpt><trkpt lat="43.47115867551174" lon="11.374169966003622"><ele>395.0</ele><time>2026-04-11T06:13:12Z</time></trkpt><trkpt lat="43.4712232021613" lon="11.374171571304174"><ele>395.0</ele><time>2026-04-11T06:13:15Z</time></trkpt><trkpt lat="43.471295825265535" lon="11.374135156813908"><ele>394.99999999999994</ele><time>2026-04-11T06:13:18Z</time></trkpt><trkpt lat="43.47136885740077" lon="11.374132023780593"><ele>395.0</ele><time>2026-04-11T06:13:21Z</time></trkpt><trkpt lat="43.47145533660027" lon="11.37411225147197"><ele>395.2857142857143</ele><time>2026-04-11T06:13:24Z</time></trkpt><trkpt lat="43.47152174991116" lon="11.374081473257512"><ele>395.5714285714286</ele><time>2026-04-11T06:13:27Z</time></trkpt><trkpt lat="43.47159545486863" lon="11.374046253077607"><ele>395.8571428571429</ele><time>2026-04-11T06:13:30Z</time></trkpt><trkpt lat="43.4716587022872" lon="11.374051321332407"><ele>396.1428571428571</ele><time>2026-04-11T06:13:33Z</time></trkpt><trkpt lat="43.47171511989901" lon="11.373987768406145"><ele>396.42857142857144</ele><time>2026-04-11T06:13:36Z</time></trkpt><trkpt lat="43.471799523402375" lon="11.373976240863186"><ele>396.7142857142857</ele><time>2026-04-11T06:13:39Z</time></trkpt><trkpt lat="43.47186855311025" lon="11.373972111731966"><ele>397.0</ele><time>2026-04-11T06:13:42Z</time></trkpt><trkpt lat="43.471933146450425" lon="11.373936523281984"><ele>397.00000000000006</ele><time>2026-04-11T06:13:45Z</time></trkpt><trkpt lat="43.47200042052905" lon="11.37393706550685"><ele>397.0</ele><time>2026-04-11T06:13:48Z</time></trkpt><trkpt lat="43.47208291565195" lon="11.373915552039875"><ele>397.0</ele><time>2026-04-11T06:13:51Z</time></trkpt><trkpt lat="43.47215209541567" lon="11.37391619143461"><ele>397.0</ele><time>2026-04-11T06:13:54Z</time></trkpt><trkpt lat="43.47221825457203" lon="11.373879920470333"><ele>397.00000000000006</ele><time>2026-04-11T06:13:56Z</time></trkpt><trkpt lat="43.472295974445736" lon="11.37385559416485"><ele>397.0</ele><time>2026-04-11T06:13:59Z</time></trkpt><trkpt lat="43.47238104644929" lon="11.37385996579381"><ele>398.00000000000006</ele><time>2026-04-11T06:14:02Z</time></trkpt><trkpt lat="43.4724511256255" lon="11.373853467468106"><ele>399.0</ele><time>2026-04-11T06:14:06Z</time></trkpt><trkpt lat="43.472526391254576" lon="11.373866165612036"><ele>400.0</ele><time>2026-04-11T06:14:10Z</time></trkpt><trkpt lat="43.472584016486145" lon="11.373919087576677"><ele>401.0</ele><time>2026-04-11T06:14:13Z</time></trkpt><trkpt lat="43.472671178118134" lon="11.373897000259914"><ele>402.00000000000006</ele><time>2026-04-11T06:14:16Z</time></trkpt><trkpt lat="43.472719379370055" lon="11.373989719496935"><ele>403.0</ele><time>2026-04-11T06:14:20Z</time></trkpt><trkpt lat="43.47279433428891" lon="11.374040555815892"><ele>403.00000000000006</ele><time>2026-04-11T06:14:24Z</time></trkpt><trkpt lat="43.47289025253592" lon="11.374044232852635"><ele>403.0</ele><time>2026-04-11T06:14:27Z</time></trkpt><trkpt lat="43.472972988022384" lon="11.374090261074427"><ele>403.0</ele><time>2026-04-11T06:14:31Z</time></trkpt><trkpt lat="43.47301979347453" lon="11.374199700632719"><ele>403.0</ele><time>2026-04-11T06:14:34Z</time></trkpt><trkpt lat="43.47308496229496" lon="11.374185785280085"><ele>403.00000000000006</ele><time>2026-04-11T06:14:36Z</time></trkpt><trkpt lat="43.47316104803485" lon="11.374203675219967"><ele>403.0</ele><time>2026-04-11T06:14:39Z</time></trkpt><trkpt lat="43.47322461344944" lon="11.374218327010626"><ele>404.83333333333337</ele><time>2026-04-11T06:14:42Z</time></trkpt><trkpt lat="43.473299443197675" lon="11.374220942190732"><ele>406.6666666666667</ele><time>2026-04-11T06:14:45Z</time></trkpt><trkpt lat="43.47338292839935" lon="11.374245815255591"><ele>408.5</ele><time>2026-04-11T06:14:49Z</time></trkpt><trkpt lat="43.47345854955961" lon="11.374252694526099"><ele>410.33333333333337</ele><time>2026-04-11T06:14:52Z</time></trkpt><trkpt lat="43.47353585883975" lon="11.374225264527615"><ele>412.1666666666667</ele><time>2026-04-11T06:14:56Z</time></trkpt><trkpt lat="43.47360125527818" lon="11.374218326075082"><ele>414.0</ele><time>2026-04-11T06:14:59Z</time></trkpt><trkpt lat="43.47366030778602" lon="11.374165054371778"><ele>414.0</ele><time>2026-04-11T06:15:01Z</time></trkpt><trkpt lat="43.47373634773131" lon="11.374097420441522"><ele>414.0</ele><time>2026-04-11T06:15:05Z</time></trkpt><trkpt lat="43.473770294640225" lon="11.374020386305444"><ele>414.0</ele><time>2026-04-11T06:15:08Z</time></trkpt><trkpt lat="43.47382841147433" lon="11.373963658666906"><ele>414.0</ele><time>2026-04-11T06:15:11Z</time></trkpt><trkpt lat="43.47388091777723" lon="11.373872625917269"><ele>414.0</ele><time>2026-04-11T06:15:14Z</time></trkpt><trkpt lat="43.473907333032834" lon="11.373774502169681"><ele>414.0</ele><time>2026-04-11T06:15:18Z</time></trkpt><trkpt lat="43.47397560314867" lon="11.373709023849742"><ele>416.5</ele><time>2026-04-11T06:15:21Z</time></trkpt><trkpt lat="43.474083046837684" lon="11.373708576580354"><ele>419.0</ele><time>2026-04-11T06:15:24Z</time></trkpt><trkpt lat="43.474163535368206" lon="11.373637212438686"><ele>421.5</ele><time>2026-04-11T06:15:27Z</time></trkpt><trkpt lat="43.47423760558516" lon="11.373621526591466"><ele>424.0</ele><time>2026-04-11T06:15:29Z</time></trkpt><trkpt lat="43.47430672956518" lon="11.373609584654027"><ele>426.5</ele><time>2026-04-11T06:15:32Z</time></trkpt><trkpt lat="43.47438639283282" lon="11.373634380751275"><ele>429.0</ele><time>2026-04-11T06:15:34Z</time></trkpt><trkpt lat="43.47445464001191" lon="11.373621176851817"><ele>429.0</ele><time>2026-04-11T06:15:37Z</time></trkpt><trkpt lat="43.47455925542165" lon="11.373673276027747"><ele>429.0</ele><time>2026-04-11T06:15:41Z</time></trkpt><trkpt lat="43.47465296990473" lon="11.373723765777955"><ele>429.0</ele><time>2026-04-11T06:15:47Z</time></trkpt><trkpt lat="43.47470809025776" lon="11.373784196217255"><ele>429.0</ele><time>2026-04-11T06:15:50Z</time></trkpt><trkpt lat="43.47478537261717" lon="11.373811633334158"><ele>429.0</ele><time>2026-04-11T06:15:53Z</time></trkpt><trkpt lat="43.47487520230573" lon="11.373786784183087"><ele>429.8333333333333</ele><time>2026-04-11T06:15:56Z</time></trkpt><trkpt lat="43.47494505921008" lon="11.373847250444845"><ele>430.66666666666663</ele><time>2026-04-11T06:15:58Z</time></trkpt><trkpt lat="43.47501532150259" lon="11.373852327588507"><ele>431.5</ele><time>2026-04-11T06:16:01Z</time></trkpt><trkpt lat="43.47509203147076" lon="11.373845488388184"><ele>432.3333333333333</ele><time>2026-04-11T06:16:06Z</time></trkpt><trkpt lat="43.475169225652174" lon="11.373828964809709"><ele>433.16666666666663</ele><time>2026-04-11T06:16:10Z</time></trkpt><trkpt lat="43.47524516335597" lon="11.373797290914734"><ele>434.0</ele><time>2026-04-11T06:16:13Z</time></trkpt><trkpt lat="43.47531315656927" lon="11.373803970946629"><ele>433.99999999999994</ele><time>2026-04-11T06:16:15Z</time></trkpt><trkpt lat="43.475379176746074" lon="11.373806752265494"><ele>434.0</ele><time>2026-04-11T06:16:17Z</time></trkpt><trkpt lat="43.475440115596214" lon="11.37384505797142"><ele>434.0</ele><time>2026-04-11T06:16:19Z</time></trkpt><trkpt lat="43.475517334677086" lon="11.373833739191232"><ele>434.0</ele><time>2026-04-11T06:16:22Z</time></trkpt><trkpt lat="43.47558886793145" lon="11.373763261386504"><ele>433.99999999999994</ele><time>2026-04-11T06:16:25Z</time></trkpt><trkpt lat="43.475697040993104" lon="11.373791284734073"><ele>434.0</ele><time>2026-04-11T06:16:29Z</time></trkpt><trkpt lat="43.47579360029631" lon="11.373741156603877"><ele>435.2</ele><time>2026-04-11T06:16:33Z</time></trkpt><trkpt lat="43.47588179260502" lon="11.373696812806392"><ele>436.4</ele><time>2026-04-11T06:16:37Z</time></trkpt><trkpt lat="43.475974550180325" lon="11.373713162040461"><ele>437.6</ele><time>2026-04-11T06:16:41Z</time></trkpt><trkpt lat="43.47605791335439" lon="11.373739027531155"><ele>438.8</ele><time>2026-04-11T06:16:44Z</time></trkpt><trkpt lat="43.47614585354908" lon="11.37374487009615"><ele>440.0</ele><time>2026-04-11T06:16:47Z</time></trkpt><trkpt lat="43.47623984725566" lon="11.373717033738453"><ele>439.1428571428571</ele><time>2026-04-11T06:16:50Z</time></trkpt><trkpt lat="43.476304195387236" lon="11.373664366841439"><ele>438.2857142857143</ele><time>2026-04-11T06:16:52Z</time></trkpt><trkpt lat="43.476371080019334" lon="11.373599495691538"><ele>437.42857142857144</ele><time>2026-04-11T06:16:56Z</time></trkpt><trkpt lat="43.476430509975565" lon="11.37356421726373"><ele>436.57142857142856</ele><time>2026-04-11T06:17:01Z</time></trkpt><trkpt lat="43.47646761262637" lon="11.373479546741429"><ele>435.7142857142857</ele><time>2026-04-11T06:17:04Z</time></trkpt><trkpt lat="43.4765024193364" lon="11.373361310646338"><ele>434.85714285714283</ele><time>2026-04-11T06:17:08Z</time></trkpt><trkpt lat="43.47651041724646" lon="11.373274655504545"><ele>434.0</ele><time>2026-04-11T06:17:12Z</time></trkpt><trkpt lat="43.47653400587145" lon="11.373187646627256"><ele>433.99999999999994</ele><time>2026-04-11T06:17:16Z</time></trkpt><trkpt lat="43.476538344850084" lon="11.373085012219905"><ele>434.0</ele><time>2026-04-11T06:17:20Z</time></trkpt><trkpt lat="43.47657513157985" lon="11.372986350113454"><ele>434.0</ele><time>2026-04-11T06:17:22Z</time></trkpt><trkpt lat="43.47658448604966" lon="11.372864488790988"><ele>434.0</ele><time>2026-04-11T06:17:25Z</time></trkpt><trkpt lat="43.4766018715391" lon="11.37276237398345"><ele>433.99999999999994</ele><time>2026-04-11T06:17:28Z</time></trkpt><trkpt lat="43.476604820209545" lon="11.372660296044415"><ele>434.0</ele><time>2026-04-11T06:17:32Z</time></trkpt><trkpt lat="43.476630740526254" lon="11.372562829626292"><ele>435.7142857142857</ele><time>2026-04-11T06:17:35Z</time></trkpt><trkpt lat="43.47662732845669" lon="11.372467180057276"><ele>437.42857142857144</ele><time>2026-04-11T06:17:38Z</time></trkpt><trkpt lat="43.476643718404674" lon="11.372380677254919"><ele>439.1428571428571</ele><time>2026-04-11T06:17:40Z</time></trkpt><trkpt lat="43.476655016265816" lon="11.372291377132726"><ele>440.8571428571429</ele><time>2026-04-11T06:17:43Z</time></trkpt><trkpt lat="43.47668770100883" lon="11.372171610969936"><ele>442.57142857142856</ele><time>2026-04-11T06:17:47Z</time></trkpt><trkpt lat="43.4767020623363" lon="11.372067627694772"><ele>444.2857142857143</ele><time>2026-04-11T06:17:51Z</time></trkpt><trkpt lat="43.47675632699925" lon="11.371994452105117"><ele>446.0</ele><time>2026-04-11T06:17:55Z</time></trkpt><trkpt lat="43.47679983360655" lon="11.371930016757807"><ele>447.49999999999994</ele><time>2026-04-11T06:17:58Z</time></trkpt><trkpt lat="43.476862357419776" lon="11.371880254591806"><ele>449.0</ele><time>2026-04-11T06:18:01Z</time></trkpt><trkpt lat="43.476928980479656" lon="11.371863065420436"><ele>450.5</ele><time>2026-04-11T06:18:04Z</time></trkpt><trkpt lat="43.477006361832046" lon="11.371857642186841"><ele>452.0</ele><time>2026-04-11T06:18:08Z</time></trkpt><trkpt lat="43.477078965411025" lon="11.371879226868897"><ele>453.49999999999994</ele><time>2026-04-11T06:18:10Z</time></trkpt><trkpt lat="43.477184061345895" lon="11.371840435235264"><ele>455.0</ele><time>2026-04-11T06:18:14Z</time></trkpt><trkpt lat="43.477265914290925" lon="11.371856885130773"><ele>455.2857142857143</ele><time>2026-04-11T06:18:17Z</time></trkpt><trkpt lat="43.477332386375885" lon="11.371884226310135"><ele>455.57142857142856</ele><time>2026-04-11T06:18:20Z</time></trkpt><trkpt lat="43.477409335590345" lon="11.371878134863119"><ele>455.8571428571429</ele><time>2026-04-11T06:18:23Z</time></trkpt><trkpt lat="43.477450294575924" lon="11.371944996051074"><ele>456.14285714285717</ele><time>2026-04-11T06:18:25Z</time></trkpt><trkpt lat="43.47752310140997" lon="11.371955103414793"><ele>456.42857142857144</ele><time>2026-04-11T06:18:28Z</time></trkpt><trkpt lat="43.47758532142069" lon="11.371972908050761"><ele>456.7142857142858</ele><time>2026-04-11T06:18:31Z</time></trkpt><trkpt lat="43.4776524816074" lon="11.371944943319363"><ele>457.00000000000006</ele><time>2026-04-11T06:18:35Z</time></trkpt><trkpt lat="43.47772724516577" lon="11.371933459389718"><ele>457.00000000000006</ele><time>2026-04-11T06:18:38Z</time></trkpt><trkpt lat="43.47778850197538" lon="11.371903517772392"><ele>457.0</ele><time>2026-04-11T06:18:42Z</time></trkpt><trkpt lat="43.47786027631235" lon="11.371885162786429"><ele>457.0</ele><time>2026-04-11T06:18:45Z</time></trkpt><trkpt lat="43.47792655168473" lon="11.371847302010094"><ele>457.0</ele><time>2026-04-11T06:18:49Z</time></trkpt><trkpt lat="43.47800645116889" lon="11.371802715404948"><ele>457.00000000000006</ele><time>2026-04-11T06:18:53Z</time></trkpt><trkpt lat="43.478062310312055" lon="11.371734033663172"><ele>457.0</ele><time>2026-04-11T06:18:57Z</time></trkpt><trkpt lat="43.478119145167625" lon="11.371648067740127"><ele>456.50000000000006</ele><time>2026-04-11T06:19:02Z</time></trkpt><trkpt lat="43.47816533824318" lon="11.371546994168177"><ele>456.0</ele><time>2026-04-11T06:19:06Z</time></trkpt><trkpt lat="43.47817083159553" lon="11.371441598898883"><ele>455.5</ele><time>2026-04-11T06:19:11Z</time></trkpt><trkpt lat="43.47814246661777" lon="11.371337910720976"><ele>455.0</ele><time>2026-04-11T06:19:15Z</time></trkpt><trkpt lat="43.47816725144709" lon="11.371255453524292"><ele>454.50000000000006</ele><time>2026-04-11T06:19:19Z</time></trkpt><trkpt lat="43.47823131617843" lon="11.371140438349956"><ele>454.0</ele><time>2026-04-11T06:19:30Z</time></trkpt><trkpt lat="43.478181114868995" lon="11.371085071281726"><ele>455.50000000000006</ele><time>2026-04-11T06:20:27Z</time></trkpt><trkpt lat="43.4781447046171" lon="11.370988422309424"><ele>457.0</ele><time>2026-04-11T06:20:31Z</time></trkpt><trkpt lat="43.47813388132538" lon="11.370889891247757"><ele>458.5</ele><time>2026-04-11T06:20:34Z</time></trkpt><trkpt lat="43.478106569806144" lon="11.370770260281478"><ele>460.0</ele><time>2026-04-11T06:20:37Z</time></trkpt><trkpt lat="43.47806335199854" lon="11.370686489018828"><ele>461.50000000000006</ele><time>2026-04-11T06:20:41Z</time></trkpt><trkpt lat="43.47805881694214" lon="11.37057932184169"><ele>463.0</ele><time>2026-04-11T06:20:46Z</time></trkpt><trkpt lat="43.47798882251828" lon="11.370551166609049"><ele>464.33333333333337</ele><time>2026-04-11T06:20:49Z</time></trkpt><trkpt lat="43.477946465724045" lon="11.370476129683947"><ele>465.6666666666667</ele><time>2026-04-11T06:20:53Z</time></trkpt><trkpt lat="43.47793318104869" lon="11.370367486296091"><ele>467.0</ele><time>2026-04-11T06:20:57Z</time></trkpt><trkpt lat="43.477925809473675" lon="11.370256979132673"><ele>468.33333333333337</ele><time>2026-04-11T06:21:00Z</time></trkpt><trkpt lat="43.4779112470508" lon="11.370100036476193"><ele>469.6666666666667</ele><time>2026-04-11T06:21:05Z</time></trkpt><trkpt lat="43.477923523372034" lon="11.369996826040358"><ele>471.0</ele><time>2026-04-11T06:21:07Z</time></trkpt><trkpt lat="43.47799652014511" lon="11.369927679409248"><ele>471.0</ele><time>2026-04-11T06:21:10Z</time></trkpt><trkpt lat="43.47805913197331" lon="11.369867076597624"><ele>471.0</ele><time>2026-04-11T06:21:12Z</time></trkpt><trkpt lat="43.47814995862393" lon="11.369824971517396"><ele>471.0</ele><time>2026-04-11T06:21:15Z</time></trkpt><trkpt lat="43.4782133170521" lon="11.369787349377553"><ele>471.0</ele><time>2026-04-11T06:21:18Z</time></trkpt><trkpt lat="43.47833932721706" lon="11.36980487287879"><ele>471.0</ele><time>2026-04-11T06:21:21Z</time></trkpt><trkpt lat="43.478430594347444" lon="11.369797770004231"><ele>471.00000000000006</ele><time>2026-04-11T06:21:26Z</time></trkpt><trkpt lat="43.47849512842162" lon="11.369789660962786"><ele>471.0</ele><time>2026-04-11T06:21:29Z</time></trkpt><trkpt lat="43.47855521798551" lon="11.369756113848753"><ele>471.00000000000006</ele><time>2026-04-11T06:21:32Z</time></trkpt><trkpt lat="43.478615122101914" lon="11.369712867216203"><ele>471.00000000000006</ele><time>2026-04-11T06:21:35Z</time></trkpt><trkpt lat="43.47868688996248" lon="11.369666331090455"><ele>471.0</ele><time>2026-04-11T06:21:39Z</time></trkpt><trkpt lat="43.478756642935465" lon="11.369604645640866"><ele>471.00000000000006</ele><time>2026-04-11T06:21:42Z</time></trkpt><trkpt lat="43.4788232815336" lon="11.369527180481402"><ele>471.00000000000006</ele><time>2026-04-11T06:21:45Z</time></trkpt><trkpt lat="43.47886121926409" lon="11.369440367550519"><ele>472.4285714285715</ele><time>2026-04-11T06:21:48Z</time></trkpt><trkpt lat="43.47891159874895" lon="11.36938388520615"><ele>473.8571428571429</ele><time>2026-04-11T06:21:51Z</time></trkpt><trkpt lat="43.47896202490397" lon="11.369327240472343"><ele>475.2857142857143</ele><time>2026-04-11T06:21:54Z</time></trkpt><trkpt lat="43.479011837588644" lon="11.369247500267637"><ele>476.7142857142857</ele><time>2026-04-11T06:21:57Z</time></trkpt><trkpt lat="43.47908110844163" lon="11.369190315891776"><ele>478.1428571428571</ele><time>2026-04-11T06:22:00Z</time></trkpt><trkpt lat="43.4791258347897" lon="11.369118724791782"><ele>479.5714285714285</ele><time>2026-04-11T06:22:03Z</time></trkpt><trkpt lat="43.47916934136457" lon="11.369055522642098"><ele>480.99999999999994</ele><time>2026-04-11T06:22:06Z</time></trkpt><trkpt lat="43.47919580266776" lon="11.368976052072316"><ele>481.00000000000006</ele><time>2026-04-11T06:22:10Z</time></trkpt><trkpt lat="43.47925038795917" lon="11.36891113489131"><ele>481.0</ele><time>2026-04-11T06:22:13Z</time></trkpt><trkpt lat="43.479307352534526" lon="11.368825416592173"><ele>481.0</ele><time>2026-04-11T06:22:17Z</time></trkpt><trkpt lat="43.47935695078701" lon="11.368745048086959"><ele>481.0</ele><time>2026-04-11T06:22:21Z</time></trkpt><trkpt lat="43.47941488906166" lon="11.368672015277397"><ele>481.00000000000006</ele><time>2026-04-11T06:22:25Z</time></trkpt><trkpt lat="43.479490299627884" lon="11.368595806690768"><ele>481.0</ele><time>2026-04-11T06:22:28Z</time></trkpt><trkpt lat="43.47953186785128" lon="11.368526248684224"><ele>481.1428571428571</ele><time>2026-04-11T06:22:31Z</time></trkpt><trkpt lat="43.47957818044423" lon="11.368443406683767"><ele>481.2857142857143</ele><time>2026-04-11T06:22:34Z</time></trkpt><trkpt lat="43.47964629395044" lon="11.36838565265051"><ele>481.42857142857144</ele><time>2026-04-11T06:22:37Z</time></trkpt><trkpt lat="43.47970057461224" lon="11.368337703269935"><ele>481.57142857142856</ele><time>2026-04-11T06:22:40Z</time></trkpt><trkpt lat="43.47975310252819" lon="11.368275699785052"><ele>481.7142857142858</ele><time>2026-04-11T06:22:43Z</time></trkpt><trkpt lat="43.4798263031648" lon="11.368217763887776"><ele>481.8571428571429</ele><time>2026-04-11T06:22:46Z</time></trkpt><trkpt lat="43.47984077711351" lon="11.368128870344808"><ele>482.0</ele><time>2026-04-11T06:22:48Z</time></trkpt><trkpt lat="43.479893631816786" lon="11.368021439394465"><ele>484.3333333333333</ele><time>2026-04-11T06:22:51Z</time></trkpt><trkpt lat="43.47992398536406" lon="11.367934927124674"><ele>486.66666666666663</ele><time>2026-04-11T06:22:55Z</time></trkpt><trkpt lat="43.48000238839669" lon="11.367868262824015"><ele>489.0</ele><time>2026-04-11T06:22:58Z</time></trkpt><trkpt lat="43.4800337287085" lon="11.367785866607973"><ele>491.33333333333337</ele><time>2026-04-11T06:23:01Z</time></trkpt><trkpt lat="43.48011103794085" lon="11.367742374590819"><ele>493.6666666666667</ele><time>2026-04-11T06:23:04Z</time></trkpt><trkpt lat="43.480183171908664" lon="11.367714093089779"><ele>496.0</ele><time>2026-04-11T06:23:07Z</time></trkpt><trkpt lat="43.48024635460431" lon="11.367746292221575"><ele>496.0</ele><time>2026-04-11T06:23:09Z</time></trkpt><trkpt lat="43.480365881518836" lon="11.367743744756979"><ele>496.0</ele><time>2026-04-11T06:23:13Z</time></trkpt><trkpt lat="43.48044951805353" lon="11.367748831999416"><ele>496.0</ele><time>2026-04-11T06:23:15Z</time></trkpt><trkpt lat="43.480552552513714" lon="11.367750723375375"><ele>496.0</ele><time>2026-04-11T06:23:17Z</time></trkpt><trkpt lat="43.480611888369" lon="11.367718879521497"><ele>496.0</ele><time>2026-04-11T06:23:19Z</time></trkpt><trkpt lat="43.48069864756916" lon="11.367638909631625"><ele>495.14285714285717</ele><time>2026-04-11T06:23:22Z</time></trkpt><trkpt lat="43.48074762773188" lon="11.367582376129215"><ele>494.28571428571433</ele><time>2026-04-11T06:23:25Z</time></trkpt><trkpt lat="43.48080108066489" lon="11.367509173865907"><ele>493.42857142857144</ele><time>2026-04-11T06:23:28Z</time></trkpt><trkpt lat="43.480847978729955" lon="11.367425707997466"><ele>492.57142857142856</ele><time>2026-04-11T06:23:31Z</time></trkpt><trkpt lat="43.48089458640797" lon="11.367356718280337"><ele>491.7142857142857</ele><time>2026-04-11T06:23:34Z</time></trkpt><trkpt lat="43.480970003322234" lon="11.367299078855147"><ele>490.8571428571429</ele><time>2026-04-11T06:23:37Z</time></trkpt><trkpt lat="43.48102721115318" lon="11.367229223155503"><ele>490.0</ele><time>2026-04-11T06:23:40Z</time></trkpt><trkpt lat="43.481079650590246" lon="11.367170245811788"><ele>491.00000000000006</ele><time>2026-04-11T06:23:43Z</time></trkpt><trkpt lat="43.48113658529785" lon="11.367121428565323"><ele>492.0</ele><time>2026-04-11T06:23:45Z</time></trkpt><trkpt lat="43.48120120679519" lon="11.367094071904383"><ele>493.0</ele><time>2026-04-11T06:23:47Z</time></trkpt><trkpt lat="43.481272629678486" lon="11.367055168933007"><ele>494.0</ele><time>2026-04-11T06:23:49Z</time></trkpt><trkpt lat="43.48135178978172" lon="11.36705450692539"><ele>495.00000000000006</ele><time>2026-04-11T06:23:51Z</time></trkpt><trkpt lat="43.48143976995189" lon="11.367079082988862"><ele>496.0</ele><time>2026-04-11T06:23:53Z</time></trkpt><trkpt lat="43.48153020989936" lon="11.367085741752724"><ele>496.00000000000006</ele><time>2026-04-11T06:23:55Z</time></trkpt><trkpt lat="43.48159534169452" lon="11.367062380611296"><ele>496.0</ele><time>2026-04-11T06:23:57Z</time></trkpt><trkpt lat="43.48167097666523" lon="11.366984619507736"><ele>496.0</ele><time>2026-04-11T06:24:00Z</time></trkpt><trkpt lat="43.48172633666838" lon="11.366938087930402"><ele>496.0</ele><time>2026-04-11T06:24:03Z</time></trkpt><trkpt lat="43.481777457365055" lon="11.366861297331024"><ele>496.00000000000006</ele><time>2026-04-11T06:24:06Z</time></trkpt><trkpt lat="43.48184081607593" lon="11.366790018985045"><ele>496.0</ele><time>2026-04-11T06:24:09Z</time></trkpt><trkpt lat="43.481892842997944" lon="11.366727799366116"><ele>496.00000000000006</ele><time>2026-04-11T06:24:12Z</time></trkpt><trkpt lat="43.481934086640265" lon="11.366661738394045"><ele>496.0</ele><time>2026-04-11T06:24:14Z</time></trkpt><trkpt lat="43.48198370854139" lon="11.366591730481966"><ele>496.0</ele><time>2026-04-11T06:24:17Z</time></trkpt><trkpt lat="43.48206333992826" lon="11.366547131129714"><ele>496.0</ele><time>2026-04-11T06:24:20Z</time></trkpt><trkpt lat="43.4821402507817" lon="11.366476232568106"><ele>496.00000000000006</ele><time>2026-04-11T06:24:22Z</time></trkpt><trkpt lat="43.48223897844692" lon="11.366438032003094"><ele>496.0</ele><time>2026-04-11T06:24:24Z</time></trkpt><trkpt lat="43.48231468884685" lon="11.366452440874726"><ele>495.20000000000005</ele><time>2026-04-11T06:24:25Z</time></trkpt><trkpt lat="43.48241473794006" lon="11.366457317688592"><ele>494.40000000000003</ele><time>2026-04-11T06:24:27Z</time></trkpt><trkpt lat="43.482516336881716" lon="11.36644157719627"><ele>493.6</ele><time>2026-04-11T06:24:29Z</time></trkpt><trkpt lat="43.482618105523194" lon="11.366412630373569"><ele>492.8</ele><time>2026-04-11T06:24:31Z</time></trkpt><trkpt lat="43.48272051085705" lon="11.366439145739214"><ele>492.0</ele><time>2026-04-11T06:24:33Z</time></trkpt><trkpt lat="43.482816712145336" lon="11.36645777413149"><ele>492.0</ele><time>2026-04-11T06:24:35Z</time></trkpt><trkpt lat="43.48289770314835" lon="11.366486143149563"><ele>492.0</ele><time>2026-04-11T06:24:37Z</time></trkpt><trkpt lat="43.482962192082056" lon="11.366457546858276"><ele>492.0</ele><time>2026-04-11T06:24:39Z</time></trkpt><trkpt lat="43.48302501114969" lon="11.366507163318158"><ele>492.0</ele><time>2026-04-11T06:24:41Z</time></trkpt><trkpt lat="43.483107625976075" lon="11.366490559071236"><ele>492.0</ele><time>2026-04-11T06:24:44Z</time></trkpt><trkpt lat="43.48317462916906" lon="11.366437180005065"><ele>492.0</ele><time>2026-04-11T06:24:46Z</time></trkpt><trkpt lat="43.48323775448474" lon="11.366410197687749"><ele>494.5</ele><time>2026-04-11T06:24:48Z</time></trkpt><trkpt lat="43.483300341904034" lon="11.366306438579437"><ele>497.0</ele><time>2026-04-11T06:24:53Z</time></trkpt><trkpt lat="43.483326864533325" lon="11.366226821104728"><ele>499.5</ele><time>2026-04-11T06:24:56Z</time></trkpt><trkpt lat="43.48337272197961" lon="11.366151792982727"><ele>502.0</ele><time>2026-04-11T06:24:59Z</time></trkpt><trkpt lat="43.48341921604741" lon="11.366093107360848"><ele>504.5</ele><time>2026-04-11T06:25:02Z</time></trkpt><trkpt lat="43.48347978803822" lon="11.366032183410367"><ele>507.0</ele><time>2026-04-11T06:25:05Z</time></trkpt><trkpt lat="43.48351640472386" lon="11.365929338437173"><ele>507.0</ele><time>2026-04-11T06:25:08Z</time></trkpt><trkpt lat="43.48359849487256" lon="11.365836181470687"><ele>507.0</ele><time>2026-04-11T06:25:12Z</time></trkpt><trkpt lat="43.48365697688787" lon="11.365749158260904"><ele>507.0</ele><time>2026-04-11T06:25:16Z</time></trkpt><trkpt lat="43.48372227107509" lon="11.365676195772942"><ele>507.0</ele><time>2026-04-11T06:25:19Z</time></trkpt><trkpt lat="43.48379386711993" lon="11.365654433054724"><ele>507.0</ele><time>2026-04-11T06:25:20Z</time></trkpt><trkpt lat="43.48387297879314" lon="11.365631497488774"><ele>507.0</ele><time>2026-04-11T06:25:22Z</time></trkpt><trkpt lat="43.48393723606501" lon="11.365637674809566"><ele>505.8</ele><time>2026-04-11T06:25:25Z</time></trkpt><trkpt lat="43.48401322083947" lon="11.365650044817432"><ele>504.6</ele><time>2026-04-11T06:25:27Z</time></trkpt><trkpt lat="43.48409953375589" lon="11.365685491887927"><ele>503.40000000000003</ele><time>2026-04-11T06:25:31Z</time></trkpt><trkpt lat="43.48415493729981" lon="11.365805466996985"><ele>502.20000000000005</ele><time>2026-04-11T06:25:33Z</time></trkpt><trkpt lat="43.48419173616271" lon="11.365903550361239"><ele>501.0</ele><time>2026-04-11T06:25:34Z</time></trkpt><trkpt lat="43.48424635764879" lon="11.366078424578554"><ele>501.0</ele><time>2026-04-11T06:25:36Z</time></trkpt><trkpt lat="43.48427600114377" lon="11.366228543275774"><ele>501.0</ele><time>2026-04-11T06:25:38Z</time></trkpt><trkpt lat="43.48430334561013" lon="11.366326910671281"><ele>501.0</ele><time>2026-04-11T06:25:39Z</time></trkpt><trkpt lat="43.48427058160397" lon="11.366501752074337"><ele>501.0</ele><time>2026-04-11T06:25:41Z</time></trkpt><trkpt lat="43.48429060134655" lon="11.366600709954088"><ele>501.0</ele><time>2026-04-11T06:25:42Z</time></trkpt><trkpt lat="43.48428192412172" lon="11.366736233034512"><ele>500.0</ele><time>2026-04-11T06:25:44Z</time></trkpt><trkpt lat="43.48430056539846" lon="11.366826599316537"><ele>499.0</ele><time>2026-04-11T06:25:45Z</time></trkpt><trkpt lat="43.48432775244353" lon="11.366926959986792"><ele>498.0</ele><time>2026-04-11T06:25:46Z</time></trkpt><trkpt lat="43.48434593877236" lon="11.367014965282978"><ele>497.0</ele><time>2026-04-11T06:25:47Z</time></trkpt><trkpt lat="43.48439973505054" lon="11.36713235235455"><ele>496.0</ele><time>2026-04-11T06:25:49Z</time></trkpt><trkpt lat="43.48444549202049" lon="11.367287860109455"><ele>495.0</ele><time>2026-04-11T06:25:51Z</time></trkpt><trkpt lat="43.48448338159418" lon="11.367424247367252"><ele>494.8</ele><time>2026-04-11T06:25:53Z</time></trkpt><trkpt lat="43.48450496002032" lon="11.367580221343546"><ele>494.6</ele><time>2026-04-11T06:25:55Z</time></trkpt><trkpt lat="43.48454675415988" lon="11.367693894730882"><ele>494.4</ele><time>2026-04-11T06:25:57Z</time></trkpt><trkpt lat="43.484565957488925" lon="11.367805220902184"><ele>494.2</ele><time>2026-04-11T06:25:59Z</time></trkpt><trkpt lat="43.484583530357426" lon="11.367934815354966"><ele>494.0</ele><time>2026-04-11T06:26:01Z</time></trkpt><trkpt lat="43.484613745018514" lon="11.36805385771176"><ele>495.3333333333333</ele><time>2026-04-11T06:26:03Z</time></trkpt><trkpt lat="43.48463337574875" lon="11.36814933225636"><ele>496.66666666666663</ele><time>2026-04-11T06:26:05Z</time></trkpt><trkpt lat="43.48468124679207" lon="11.368265693876948"><ele>498.0</ele><time>2026-04-11T06:26:07Z</time></trkpt><trkpt lat="43.4846929174362" lon="11.36836643663122"><ele>499.33333333333337</ele><time>2026-04-11T06:26:09Z</time></trkpt><trkpt lat="43.48469551408433" lon="11.36847369730378"><ele>500.6666666666667</ele><time>2026-04-11T06:26:11Z</time></trkpt><trkpt lat="43.48472156895353" lon="11.368603580081983"><ele>502.0</ele><time>2026-04-11T06:26:14Z</time></trkpt><trkpt lat="43.484723078931644" lon="11.368746627327084"><ele>502.83333333333337</ele><time>2026-04-11T06:26:17Z</time></trkpt><trkpt lat="43.484740643038826" lon="11.36886340049096"><ele>503.6666666666667</ele><time>2026-04-11T06:26:21Z</time></trkpt><trkpt lat="43.48475895666399" lon="11.368953724762738"><ele>504.5</ele><time>2026-04-11T06:26:24Z</time></trkpt><trkpt lat="43.484793431531564" lon="11.369055008231637"><ele>505.33333333333337</ele><time>2026-04-11T06:26:27Z</time></trkpt><trkpt lat="43.48483126309046" lon="11.36912923762221"><ele>506.1666666666667</ele><time>2026-04-11T06:26:29Z</time></trkpt><trkpt lat="43.484884608119515" lon="11.369215520579255"><ele>507.0</ele><time>2026-04-11T06:26:32Z</time></trkpt><trkpt lat="43.48495872527106" lon="11.369273489892286"><ele>507.0</ele><time>2026-04-11T06:26:35Z</time></trkpt><trkpt lat="43.48501435256894" lon="11.369329357809828"><ele>507.0</ele><time>2026-04-11T06:26:38Z</time></trkpt><trkpt lat="43.485025390442864" lon="11.36942972137827"><ele>507.0</ele><time>2026-04-11T06:26:41Z</time></trkpt><trkpt lat="43.485097049555606" lon="11.369466313305379"><ele>507.0</ele><time>2026-04-11T06:26:44Z</time></trkpt><trkpt lat="43.4851741022904" lon="11.369476184561293"><ele>507.0</ele><time>2026-04-11T06:26:47Z</time></trkpt><trkpt lat="43.48527957386894" lon="11.369553080347098"><ele>507.0</ele><time>2026-04-11T06:26:51Z</time></trkpt><trkpt lat="43.485364362945006" lon="11.369566341338736"><ele>507.0</ele><time>2026-04-11T06:26:54Z</time></trkpt><trkpt lat="43.485416634377316" lon="11.369622557524822"><ele>507.0</ele><time>2026-04-11T06:26:56Z</time></trkpt><trkpt lat="43.48546925791349" lon="11.369677044787494"><ele>507.0</ele><time>2026-04-11T06:26:58Z</time></trkpt><trkpt lat="43.4855567521806" lon="11.369733899415902"><ele>507.0</ele><time>2026-04-11T06:27:01Z</time></trkpt><trkpt lat="43.48560422557011" lon="11.369808012656787"><ele>507.0</ele><time>2026-04-11T06:27:03Z</time></trkpt><trkpt lat="43.48563233921568" lon="11.3698885685343"><ele>507.0</ele><time>2026-04-11T06:27:05Z</time></trkpt><trkpt lat="43.4856649532924" lon="11.370026357723503"><ele>508.0</ele><time>2026-04-11T06:27:08Z</time></trkpt><trkpt lat="43.48570280735156" lon="11.37011428786383"><ele>509.00000000000006</ele><time>2026-04-11T06:27:10Z</time></trkpt><trkpt lat="43.48574144792736" lon="11.370213505715476"><ele>510.00000000000006</ele><time>2026-04-11T06:27:13Z</time></trkpt><trkpt lat="43.48579364232898" lon="11.370323918880137"><ele>511.0</ele><time>2026-04-11T06:27:15Z</time></trkpt><trkpt lat="43.48586517034768" lon="11.37044771438064"><ele>512.0</ele><time>2026-04-11T06:27:17Z</time></trkpt><trkpt lat="43.48594031800589" lon="11.370531244635313"><ele>513.1666666666666</ele><time>2026-04-11T06:27:19Z</time></trkpt><trkpt lat="43.4859969730892" lon="11.370623411941363"><ele>514.3333333333333</ele><time>2026-04-11T06:27:22Z</time></trkpt><trkpt lat="43.486046688644315" lon="11.370725313108139"><ele>515.5</ele><time>2026-04-11T06:27:25Z</time></trkpt><trkpt lat="43.48607743284197" lon="11.370822646691984"><ele>516.6666666666666</ele><time>2026-04-11T06:27:28Z</time></trkpt><trkpt lat="43.486116368963216" lon="11.370905950318733"><ele>517.8333333333334</ele><time>2026-04-11T06:27:31Z</time></trkpt><trkpt lat="43.48613463585557" lon="11.371004420155257"><ele>519.0</ele><time>2026-04-11T06:27:34Z</time></trkpt><trkpt lat="43.48616245162167" lon="11.371091294046538"><ele>519.0</ele><time>2026-04-11T06:27:37Z</time></trkpt><trkpt lat="43.48618007717038" lon="11.37118642051035"><ele>519.0</ele><time>2026-04-11T06:27:40Z</time></trkpt><trkpt lat="43.48619102158429" lon="11.371279205188731"><ele>519.0</ele><time>2026-04-11T06:27:43Z</time></trkpt><trkpt lat="43.486199840937886" lon="11.371397909803076"><ele>519.0</ele><time>2026-04-11T06:27:47Z</time></trkpt><trkpt lat="43.486212431775904" lon="11.371497893100521"><ele>519.0</ele><time>2026-04-11T06:27:50Z</time></trkpt><trkpt lat="43.48621891525074" lon="11.371591486853418"><ele>519.0</ele><time>2026-04-11T06:27:53Z</time></trkpt><trkpt lat="43.48621306261047" lon="11.371698887313036"><ele>519.0</ele><time>2026-04-11T06:27:56Z</time></trkpt><trkpt lat="43.48623439277645" lon="11.371811512724092"><ele>518.3333333333334</ele><time>2026-04-11T06:27:59Z</time></trkpt><trkpt lat="43.486263195646885" lon="11.371893400234324"><ele>517.6666666666666</ele><time>2026-04-11T06:28:01Z</time></trkpt><trkpt lat="43.48628326055168" lon="11.37200401779598"><ele>517.0</ele><time>2026-04-11T06:28:04Z</time></trkpt><trkpt lat="43.48630525781365" lon="11.372117654453021"><ele>516.3333333333333</ele><time>2026-04-11T06:28:07Z</time></trkpt><trkpt lat="43.48633138043177" lon="11.372223763407607"><ele>515.6666666666666</ele><time>2026-04-11T06:28:10Z</time></trkpt><trkpt lat="43.48636127609174" lon="11.372311431089319"><ele>515.0</ele><time>2026-04-11T06:28:13Z</time></trkpt><trkpt lat="43.48638390318673" lon="11.372410246889059"><ele>515.0</ele><time>2026-04-11T06:28:16Z</time></trkpt><trkpt lat="43.48638162380786" lon="11.372515888909037"><ele>515.0</ele><time>2026-04-11T06:28:19Z</time></trkpt><trkpt lat="43.48639635280125" lon="11.372637218376612"><ele>515.0</ele><time>2026-04-11T06:28:22Z</time></trkpt><trkpt lat="43.48636271189416" lon="11.372727025718515"><ele>515.0</ele><time>2026-04-11T06:28:24Z</time></trkpt><trkpt lat="43.48636433134806" lon="11.372833171589402"><ele>515.0</ele><time>2026-04-11T06:28:27Z</time></trkpt><trkpt lat="43.48635390181552" lon="11.372919946210624"><ele>515.0</ele><time>2026-04-11T06:28:30Z</time></trkpt><trkpt lat="43.48640443954622" lon="11.373019173980595"><ele>517.1428571428571</ele><time>2026-04-11T06:28:33Z</time></trkpt><trkpt lat="43.48638858039287" lon="11.373110053094525"><ele>519.2857142857142</ele><time>2026-04-11T06:28:36Z</time></trkpt><trkpt lat="43.48639595106302" lon="11.373223539298824"><ele>521.4285714285713</ele><time>2026-04-11T06:28:40Z</time></trkpt><trkpt lat="43.4863777862384" lon="11.3733318489594"><ele>523.5714285714286</ele><time>2026-04-11T06:28:43Z</time></trkpt><trkpt lat="43.48638187572733" lon="11.373421035688457"><ele>525.7142857142857</ele><time>2026-04-11T06:28:46Z</time></trkpt><trkpt lat="43.48635936906271" lon="11.373529797519714"><ele>527.8571428571428</ele><time>2026-04-11T06:28:50Z</time></trkpt><trkpt lat="43.48633957206013" lon="11.373620597772803"><ele>530.0</ele><time>2026-04-11T06:28:52Z</time></trkpt><trkpt lat="43.486300737006275" lon="11.37373956171268"><ele>528.5</ele><time>2026-04-11T06:28:55Z</time></trkpt><trkpt lat="43.48624773563984" lon="11.37385411413144"><ele>527.0</ele><time>2026-04-11T06:28:57Z</time></trkpt><trkpt lat="43.48621777370043" lon="11.373941860687703"><ele>525.5</ele><time>2026-04-11T06:28:59Z</time></trkpt><trkpt lat="43.48619938500253" lon="11.374057483855612"><ele>524.0</ele><time>2026-04-11T06:29:01Z</time></trkpt><trkpt lat="43.48625140855398" lon="11.37411614228956"><ele>522.5</ele><time>2026-04-11T06:29:03Z</time></trkpt><trkpt lat="43.48621432183571" lon="11.374200301051655"><ele>521.0</ele><time>2026-04-11T06:29:06Z</time></trkpt><trkpt lat="43.48620017619831" lon="11.37434528938065"><ele>521.0</ele><time>2026-04-11T06:29:08Z</time></trkpt><trkpt lat="43.4861805457623" lon="11.374485300321032"><ele>521.0</ele><time>2026-04-11T06:29:10Z</time></trkpt><trkpt lat="43.48619830067885" lon="11.374599706582538"><ele>521.0</ele><time>2026-04-11T06:29:12Z</time></trkpt><trkpt lat="43.48623622226967" lon="11.374676785041668"><ele>521.0</ele><time>2026-04-11T06:29:13Z</time></trkpt><trkpt lat="43.486264667406346" lon="11.374785359282827"><ele>521.0</ele><time>2026-04-11T06:29:15Z</time></trkpt><trkpt lat="43.48634139411921" lon="11.374912376293965"><ele>523.2</ele><time>2026-04-11T06:29:17Z</time></trkpt><trkpt lat="43.48644494498313" lon="11.374980082471206"><ele>525.4000000000001</ele><time>2026-04-11T06:29:18Z</time></trkpt><trkpt lat="43.48643698130271" lon="11.375095532329784"><ele>527.6</ele><time>2026-04-11T06:29:19Z</time></trkpt><trkpt lat="43.48650274340253" lon="11.375203833477794"><ele>529.8000000000001</ele><time>2026-04-11T06:29:21Z</time></trkpt><trkpt lat="43.486557113865715" lon="11.375260549336362"><ele>532.0</ele><time>2026-04-11T06:29:22Z</time></trkpt><trkpt lat="43.48661214021434" lon="11.37538399500576"><ele>532.0</ele><time>2026-04-11T06:29:24Z</time></trkpt><trkpt lat="43.48665630821503" lon="11.375456936288261"><ele>532.0</ele><time>2026-04-11T06:29:25Z</time></trkpt><trkpt lat="43.48670682730208" lon="11.375540681391549"><ele>532.0</ele><time>2026-04-11T06:29:28Z</time></trkpt><trkpt lat="43.48667302551495" lon="11.375466452491446"><ele>532.0</ele><time>2026-04-11T06:29:35Z</time></trkpt><trkpt lat="43.48662123705031" lon="11.375398976243357"><ele>532.0</ele><time>2026-04-11T06:29:39Z</time></trkpt><trkpt lat="43.48660111105345" lon="11.375270692533999"><ele>532.0</ele><time>2026-04-11T06:29:57Z</time></trkpt><trkpt lat="43.4865831252733" lon="11.375388792387348"><ele>532.0</ele><time>2026-04-11T06:30:36Z</time></trkpt><trkpt lat="43.4866968713912" lon="11.375473522864981"><ele>532.0</ele><time>2026-04-11T06:30:43Z</time></trkpt><trkpt lat="43.48677565673049" lon="11.375536868611569"><ele>532.0</ele><time>2026-04-11T06:30:45Z</time></trkpt><trkpt lat="43.48682657994796" lon="11.375594303393916"><ele>532.0</ele><time>2026-04-11T06:30:47Z</time></trkpt><trkpt lat="43.48688503876505" lon="11.375675572485415"><ele>532.0</ele><time>2026-04-11T06:30:49Z</time></trkpt><trkpt lat="43.48695199257119" lon="11.37568871743312"><ele>532.0</ele><time>2026-04-11T06:30:50Z</time></trkpt><trkpt lat="43.48700192884172" lon="11.375770509895641"><ele>530.0</ele><time>2026-04-11T06:30:51Z</time></trkpt><trkpt lat="43.48700994794929" lon="11.375930223736821"><ele>528.0</ele><time>2026-04-11T06:30:53Z</time></trkpt><trkpt lat="43.48700271914023" lon="11.376031851044281"><ele>526.0</ele><time>2026-04-11T06:30:54Z</time></trkpt><trkpt lat="43.48701355976263" lon="11.37613206866512"><ele>524.0</ele><time>2026-04-11T06:30:55Z</time></trkpt><trkpt lat="43.4868956036437" lon="11.3762803567162"><ele>522.0</ele><time>2026-04-11T06:30:57Z</time></trkpt><trkpt lat="43.48688857726286" lon="11.37638449608408"><ele>520.6</ele><time>2026-04-11T06:30:58Z</time></trkpt><trkpt lat="43.48688122797623" lon="11.376485512721938"><ele>519.2</ele><time>2026-04-11T06:30:59Z</time></trkpt><trkpt lat="43.486869625139356" lon="11.376645417978452"><ele>517.8</ele><time>2026-04-11T06:31:01Z</time></trkpt><trkpt lat="43.486869542304355" lon="11.376826400471677"><ele>516.4</ele><time>2026-04-11T06:31:03Z</time></trkpt><trkpt lat="43.48684856280318" lon="11.376940146366264"><ele>515.0</ele><time>2026-04-11T06:31:04Z</time></trkpt><trkpt lat="43.48685163539693" lon="11.377036518718928"><ele>515.0</ele><time>2026-04-11T06:31:05Z</time></trkpt><trkpt lat="43.486846449137204" lon="11.377135948940879"><ele>515.0</ele><time>2026-04-11T06:31:06Z</time></trkpt><trkpt lat="43.48683272135961" lon="11.377253534832473"><ele>515.0</ele><time>2026-04-11T06:31:07Z</time></trkpt><trkpt lat="43.486782290883056" lon="11.377355635570275"><ele>515.0</ele><time>2026-04-11T06:31:08Z</time></trkpt><trkpt lat="43.48676933537408" lon="11.377456867610164"><ele>515.0</ele><time>2026-04-11T06:31:09Z</time></trkpt><trkpt lat="43.48677992919981" lon="11.377659719538322"><ele>515.0</ele><time>2026-04-11T06:31:11Z</time></trkpt><trkpt lat="43.48678759269872" lon="11.377753819145648"><ele>515.0</ele><time>2026-04-11T06:31:12Z</time></trkpt><trkpt lat="43.4867796531189" lon="11.377861447749565"><ele>515.0</ele><time>2026-04-11T06:31:13Z</time></trkpt><trkpt lat="43.48682572817173" lon="11.378024627607694"><ele>515.0</ele><time>2026-04-11T06:31:14Z</time></trkpt><trkpt lat="43.48686750704369" lon="11.378167460333692"><ele>515.0</ele><time>2026-04-11T06:31:15Z</time></trkpt><trkpt lat="43.486889480206" lon="11.378302182148401"><ele>514.0</ele><time>2026-04-11T06:31:16Z</time></trkpt><trkpt lat="43.48689967048348" lon="11.378429191003917"><ele>513.0</ele><time>2026-04-11T06:31:17Z</time></trkpt><trkpt lat="43.48691507145799" lon="11.378538249203768"><ele>512.0</ele><time>2026-04-11T06:31:18Z</time></trkpt><trkpt lat="43.48702436580296" lon="11.378642108002987"><ele>511.0</ele><time>2026-04-11T06:31:19Z</time></trkpt><trkpt lat="43.48706111853996" lon="11.378731980334841"><ele>510.0</ele><time>2026-04-11T06:31:20Z</time></trkpt><trkpt lat="43.48713037878159" lon="11.378869466214615"><ele>509.2</ele><time>2026-04-11T06:31:21Z</time></trkpt><trkpt lat="43.48717910275394" lon="11.379011483287444"><ele>508.4</ele><time>2026-04-11T06:31:22Z</time></trkpt><trkpt lat="43.487235929200914" lon="11.379135398533222"><ele>507.6</ele><time>2026-04-11T06:31:23Z</time></trkpt><trkpt lat="43.487286716439" lon="11.379229364296274"><ele>506.8</ele><time>2026-04-11T06:31:24Z</time></trkpt><trkpt lat="43.48733470510212" lon="11.379337598254052"><ele>506.0</ele><time>2026-04-11T06:31:25Z</time></trkpt><trkpt lat="43.48741636606288" lon="11.379417379772502"><ele>506.0</ele><time>2026-04-11T06:31:26Z</time></trkpt><trkpt lat="43.487474776298754" lon="11.379533938545201"><ele>506.0</ele><time>2026-04-11T06:31:27Z</time></trkpt><trkpt lat="43.48753634865693" lon="11.37961303902895"><ele>506.0</ele><time>2026-04-11T06:31:28Z</time></trkpt><trkpt lat="43.48762216531525" lon="11.379668379599867"><ele>506.0</ele><time>2026-04-11T06:31:29Z</time></trkpt><trkpt lat="43.487683900015185" lon="11.379735361665652"><ele>506.0</ele><time>2026-04-11T06:31:30Z</time></trkpt><trkpt lat="43.48774954957819" lon="11.37982396740567"><ele>505.25</ele><time>2026-04-11T06:31:31Z</time></trkpt><trkpt lat="43.48780981618404" lon="11.379943729453915"><ele>504.5</ele><time>2026-04-11T06:31:32Z</time></trkpt><trkpt lat="43.48785536395412" lon="11.380169576837602"><ele>503.75</ele><time>2026-04-11T06:31:34Z</time></trkpt><trkpt lat="43.487859961244304" lon="11.38032789860169"><ele>503.0</ele><time>2026-04-11T06:31:35Z</time></trkpt><trkpt lat="43.48787423822253" lon="11.380476938026776"><ele>502.5</ele><time>2026-04-11T06:31:36Z</time></trkpt><trkpt lat="43.48789801132623" lon="11.380627168609557"><ele>502.0</ele><time>2026-04-11T06:31:37Z</time></trkpt><trkpt lat="43.4879251478118" lon="11.380790683366648"><ele>501.5</ele><time>2026-04-11T06:31:38Z</time></trkpt><trkpt lat="43.48794171121989" lon="11.38094776709926"><ele>501.0</ele><time>2026-04-11T06:31:39Z</time></trkpt><trkpt lat="43.487982779114745" lon="11.381123043164413"><ele>498.0</ele><time>2026-04-11T06:31:40Z</time></trkpt><trkpt lat="43.48802745198194" lon="11.381273248967751"><ele>495.0</ele><time>2026-04-11T06:31:41Z</time></trkpt><trkpt lat="43.4880723003975" lon="11.381402222584322"><ele>492.0</ele><time>2026-04-11T06:31:42Z</time></trkpt><trkpt lat="43.48811537691646" lon="11.381521534714869"><ele>489.0</ele><time>2026-04-11T06:31:43Z</time></trkpt><trkpt lat="43.48814906117816" lon="11.38168495369377"><ele>486.0</ele><time>2026-04-11T06:31:44Z</time></trkpt><trkpt lat="43.488181326036035" lon="11.38183558394577"><ele>486.0</ele><time>2026-04-11T06:31:45Z</time></trkpt><trkpt lat="43.48824812192023" lon="11.38194611430978"><ele>486.0</ele><time>2026-04-11T06:31:46Z</time></trkpt><trkpt lat="43.488330740077274" lon="11.382054220940104"><ele>486.0</ele><time>2026-04-11T06:31:47Z</time></trkpt><trkpt lat="43.488401844206116" lon="11.38216768145527"><ele>486.0</ele><time>2026-04-11T06:31:48Z</time></trkpt><trkpt lat="43.48846166892719" lon="11.38231593454077"><ele>484.5</ele><time>2026-04-11T06:31:49Z</time></trkpt><trkpt lat="43.48854159286439" lon="11.382444143639464"><ele>483.0</ele><time>2026-04-11T06:31:50Z</time></trkpt><trkpt lat="43.488625373285856" lon="11.382552811377918"><ele>481.5</ele><time>2026-04-11T06:31:51Z</time></trkpt><trkpt lat="43.48872642394797" lon="11.382652262991137"><ele>480.0</ele><time>2026-04-11T06:31:52Z</time></trkpt><trkpt lat="43.488807973844224" lon="11.382757789760383"><ele>479.5</ele><time>2026-04-11T06:31:53Z</time></trkpt><trkpt lat="43.488905467652444" lon="11.38285461033253"><ele>479.0</ele><time>2026-04-11T06:31:54Z</time></trkpt><trkpt lat="43.48901601766236" lon="11.382909965396715"><ele>478.5</ele><time>2026-04-11T06:31:55Z</time></trkpt><trkpt lat="43.4891213558054" lon="11.383003746772646"><ele>478.0</ele><time>2026-04-11T06:31:56Z</time></trkpt><trkpt lat="43.48921454823429" lon="11.383101535233001"><ele>476.4</ele><time>2026-04-11T06:31:57Z</time></trkpt><trkpt lat="43.489312086218625" lon="11.383199478541366"><ele>474.79999999999995</ele><time>2026-04-11T06:31:58Z</time></trkpt><trkpt lat="43.48938984921892" lon="11.383287716445386"><ele>473.2</ele><time>2026-04-11T06:31:59Z</time></trkpt><trkpt lat="43.48947373973617" lon="11.383379002506164"><ele>471.6</ele><time>2026-04-11T06:32:00Z</time></trkpt><trkpt lat="43.48955863611668" lon="11.383452487742375"><ele>470.0</ele><time>2026-04-11T06:32:01Z</time></trkpt><trkpt lat="43.489639867348146" lon="11.383587974798257"><ele>468.6</ele><time>2026-04-11T06:32:02Z</time></trkpt><trkpt lat="43.489720443019" lon="11.383679300052846"><ele>467.2</ele><time>2026-04-11T06:32:03Z</time></trkpt><trkpt lat="43.48978927521547" lon="11.383759555684717"><ele>465.79999999999995</ele><time>2026-04-11T06:32:04Z</time></trkpt><trkpt lat="43.489897539627854" lon="11.383896710718957"><ele>464.4</ele><time>2026-04-11T06:32:06Z</time></trkpt><trkpt lat="43.48995165922547" lon="11.3840076580775"><ele>463.0</ele><time>2026-04-11T06:32:07Z</time></trkpt><trkpt lat="43.489983387781145" lon="11.384100694170769"><ele>463.00000000000006</ele><time>2026-04-11T06:32:08Z</time></trkpt><trkpt lat="43.490009686851714" lon="11.384208997051962"><ele>463.0</ele><time>2026-04-11T06:32:09Z</time></trkpt><trkpt lat="43.490033518695405" lon="11.3843312714929"><ele>463.0</ele><time>2026-04-11T06:32:10Z</time></trkpt><trkpt lat="43.4900479677773" lon="11.384436687490803"><ele>463.0</ele><time>2026-04-11T06:32:11Z</time></trkpt><trkpt lat="43.490060281956765" lon="11.384555808670003"><ele>463.00000000000006</ele><time>2026-04-11T06:32:12Z</time></trkpt><trkpt lat="43.49008085703156" lon="11.384679745733465"><ele>463.0</ele><time>2026-04-11T06:32:13Z</time></trkpt><trkpt lat="43.490097262915434" lon="11.384796755089251"><ele>462.1666666666667</ele><time>2026-04-11T06:32:14Z</time></trkpt><trkpt lat="43.4901513543955" lon="11.384884593157185"><ele>461.33333333333337</ele><time>2026-04-11T06:32:15Z</time></trkpt><trkpt lat="43.49020323433291" lon="11.384967803989666"><ele>460.5</ele><time>2026-04-11T06:32:16Z</time></trkpt><trkpt lat="43.490257422730735" lon="11.385055739384944"><ele>459.66666666666663</ele><time>2026-04-11T06:32:17Z</time></trkpt><trkpt lat="43.49027912253836" lon="11.385148120764528"><ele>458.8333333333333</ele><time>2026-04-11T06:32:18Z</time></trkpt><trkpt lat="43.49029342195153" lon="11.385244897409892"><ele>458.0</ele><time>2026-04-11T06:32:19Z</time></trkpt><trkpt lat="43.49030416091304" lon="11.38534642298291"><ele>457.99999999999994</ele><time>2026-04-11T06:32:20Z</time></trkpt><trkpt lat="43.49030876190059" lon="11.385449688171496"><ele>458.0</ele><time>2026-04-11T06:32:21Z</time></trkpt><trkpt lat="43.49031194123848" lon="11.385556277562701"><ele>458.0</ele><time>2026-04-11T06:32:22Z</time></trkpt><trkpt lat="43.4903168729459" lon="11.385663007978671"><ele>458.0</ele><time>2026-04-11T06:32:23Z</time></trkpt><trkpt lat="43.49031540895618" lon="11.385773731496968"><ele>457.99999999999994</ele><time>2026-04-11T06:32:24Z</time></trkpt><trkpt lat="43.49028902490465" lon="11.385864257443295"><ele>458.0</ele><time>2026-04-11T06:32:25Z</time></trkpt><trkpt lat="43.49027395498407" lon="11.385958191840825"><ele>458.2</ele><time>2026-04-11T06:32:26Z</time></trkpt><trkpt lat="43.49020468360752" lon="11.386102073806414"><ele>458.4</ele><time>2026-04-11T06:32:28Z</time></trkpt><trkpt lat="43.49015949784694" lon="11.386167864995253"><ele>458.59999999999997</ele><time>2026-04-11T06:32:29Z</time></trkpt><trkpt lat="43.490068238590496" lon="11.386249064862259"><ele>458.79999999999995</ele><time>2026-04-11T06:32:31Z</time></trkpt><trkpt lat="43.48997677182429" lon="11.386305426761435"><ele>459.0</ele><time>2026-04-11T06:32:33Z</time></trkpt><trkpt lat="43.4899165102107" lon="11.386339879210194"><ele>459.0</ele><time>2026-04-11T06:32:34Z</time></trkpt><trkpt lat="43.48984462097947" lon="11.386281176705166"><ele>459.0</ele><time>2026-04-11T06:32:36Z</time></trkpt><trkpt lat="43.489831487305814" lon="11.386427949267096"><ele>459.0</ele><time>2026-04-11T06:32:39Z</time></trkpt><trkpt lat="43.48980219355515" lon="11.386513674034425"><ele>459.0</ele><time>2026-04-11T06:32:40Z</time></trkpt><trkpt lat="43.489604137914355" lon="11.386639131051691"><ele>456.79999999999995</ele><time>2026-04-11T06:32:43Z</time></trkpt><trkpt lat="43.48957435040968" lon="11.38677288841806"><ele>454.59999999999997</ele><time>2026-04-11T06:32:45Z</time></trkpt><trkpt lat="43.48956532166758" lon="11.386915575628445"><ele>452.4</ele><time>2026-04-11T06:32:47Z</time></trkpt><trkpt lat="43.48953944447557" lon="11.38705179843381"><ele>450.2</ele><time>2026-04-11T06:32:49Z</time></trkpt><trkpt lat="43.48951849383745" lon="11.387222052477146"><ele>448.0</ele><time>2026-04-11T06:32:51Z</time></trkpt><trkpt lat="43.48950304934696" lon="11.387381763411515"><ele>448.0</ele><time>2026-04-11T06:32:53Z</time></trkpt><trkpt lat="43.48949460069868" lon="11.387547210431583"><ele>447.99999999999994</ele><time>2026-04-11T06:32:55Z</time></trkpt><trkpt lat="43.489489531619036" lon="11.387633782038877"><ele>447.99999999999994</ele><time>2026-04-11T06:32:56Z</time></trkpt><trkpt lat="43.48947394632151" lon="11.38780989213827"><ele>448.0</ele><time>2026-04-11T06:32:58Z</time></trkpt><trkpt lat="43.48945468282574" lon="11.387983651520488"><ele>448.0</ele><time>2026-04-11T06:33:00Z</time></trkpt><trkpt lat="43.489434485975835" lon="11.388155233192737"><ele>448.50000000000006</ele><time>2026-04-11T06:33:02Z</time></trkpt><trkpt lat="43.48942647258042" lon="11.388245518234674"><ele>449.0</ele><time>2026-04-11T06:33:03Z</time></trkpt><trkpt lat="43.48942283700267" lon="11.388335246098626"><ele>449.5</ele><time>2026-04-11T06:33:04Z</time></trkpt><trkpt lat="43.48941006374505" lon="11.388420607964648"><ele>450.0</ele><time>2026-04-11T06:33:05Z</time></trkpt><trkpt lat="43.48937392168489" lon="11.388594771755272"><ele>450.50000000000006</ele><time>2026-04-11T06:33:07Z</time></trkpt><trkpt lat="43.48933736486907" lon="11.388682218920307"><ele>451.0</ele><time>2026-04-11T06:33:08Z</time></trkpt><trkpt lat="43.489315520335346" lon="11.38885242467221"><ele>451.8</ele><time>2026-04-11T06:33:10Z</time></trkpt><trkpt lat="43.489288312498026" lon="11.388952737330136"><ele>452.6</ele><time>2026-04-11T06:33:11Z</time></trkpt><trkpt lat="43.48925153332188" lon="11.38903538689929"><ele>453.4</ele><time>2026-04-11T06:33:12Z</time></trkpt><trkpt lat="43.489221232454796" lon="11.389115086065596"><ele>454.2</ele><time>2026-04-11T06:33:13Z</time></trkpt><trkpt lat="43.48918587039528" lon="11.389251485355945"><ele>455.0</ele><time>2026-04-11T06:33:15Z</time></trkpt><trkpt lat="43.48923958467707" lon="11.389437822757392"><ele>455.0</ele><time>2026-04-11T06:33:17Z</time></trkpt><trkpt lat="43.489269556117556" lon="11.389536092784258"><ele>455.0</ele><time>2026-04-11T06:33:18Z</time></trkpt><trkpt lat="43.4893111698043" lon="11.389673292299813"><ele>455.0</ele><time>2026-04-11T06:33:20Z</time></trkpt><trkpt lat="43.489373423897575" lon="11.389834138566062"><ele>455.0</ele><time>2026-04-11T06:33:22Z</time></trkpt><trkpt lat="43.48940988196321" lon="11.389970057719117"><ele>455.0</ele><time>2026-04-11T06:33:24Z</time></trkpt><trkpt lat="43.48948356876168" lon="11.390052758596045"><ele>454.66666666666663</ele><time>2026-04-11T06:33:25Z</time></trkpt><trkpt lat="43.489495327272714" lon="11.390150130444361"><ele>454.3333333333333</ele><time>2026-04-11T06:33:26Z</time></trkpt><trkpt lat="43.48955437763113" lon="11.390283114934654"><ele>454.0</ele><time>2026-04-11T06:33:28Z</time></trkpt><trkpt lat="43.489583311530154" lon="11.390368447773968"><ele>453.66666666666663</ele><time>2026-04-11T06:33:29Z</time></trkpt><trkpt lat="43.489649796095314" lon="11.390505091779183"><ele>453.3333333333333</ele><time>2026-04-11T06:33:31Z</time></trkpt><trkpt lat="43.4897022559416" lon="11.390577511276545"><ele>453.0</ele><time>2026-04-11T06:33:32Z</time></trkpt><trkpt lat="43.48976672057254" lon="11.39071702261579"><ele>454.0</ele><time>2026-04-11T06:33:34Z</time></trkpt><trkpt lat="43.48980752660108" lon="11.39078386956418"><ele>455.0</ele><time>2026-04-11T06:33:35Z</time></trkpt><trkpt lat="43.48986359624333" lon="11.390848481576594"><ele>456.0</ele><time>2026-04-11T06:33:36Z</time></trkpt><trkpt lat="43.489907487055696" lon="11.39092512453571"><ele>457.0</ele><time>2026-04-11T06:33:37Z</time></trkpt><trkpt lat="43.48998713924009" lon="11.39102446911955"><ele>458.0</ele><time>2026-04-11T06:33:39Z</time></trkpt><trkpt lat="43.490042500649565" lon="11.39109500620893"><ele>459.0</ele><time>2026-04-11T06:33:40Z</time></trkpt><trkpt lat="43.490091590466896" lon="11.39115136808314"><ele>459.0</ele><time>2026-04-11T06:33:41Z</time></trkpt><trkpt lat="43.49011737817811" lon="11.391235434273083"><ele>459.0</ele><time>2026-04-11T06:33:42Z</time></trkpt><trkpt lat="43.49019998189084" lon="11.391407727479134"><ele>459.0</ele><time>2026-04-11T06:33:44Z</time></trkpt><trkpt lat="43.490205337317576" lon="11.39151488959973"><ele>459.0</ele><time>2026-04-11T06:33:45Z</time></trkpt><trkpt lat="43.49021304611078" lon="11.391615328930245"><ele>459.0</ele><time>2026-04-11T06:33:46Z</time></trkpt><trkpt lat="43.49022785474165" lon="11.391713098699682"><ele>459.0</ele><time>2026-04-11T06:33:47Z</time></trkpt><trkpt lat="43.49017112595886" lon="11.391890340905562"><ele>458.6</ele><time>2026-04-11T06:33:49Z</time></trkpt><trkpt lat="43.490167673935304" lon="11.391994913426045"><ele>458.2</ele><time>2026-04-11T06:33:50Z</time></trkpt><trkpt lat="43.49016801824223" lon="11.392174559220086"><ele>457.80000000000007</ele><time>2026-04-11T06:33:52Z</time></trkpt><trkpt lat="43.49018839034258" lon="11.392300558613853"><ele>457.40000000000003</ele><time>2026-04-11T06:33:54Z</time></trkpt><trkpt lat="43.490188336902214" lon="11.392410089024557"><ele>457.0</ele><time>2026-04-11T06:33:56Z</time></trkpt><trkpt lat="43.49021604028464" lon="11.392525970884437"><ele>457.0</ele><time>2026-04-11T06:33:58Z</time></trkpt><trkpt lat="43.49025332195459" lon="11.392686114392848"><ele>457.00000000000006</ele><time>2026-04-11T06:34:00Z</time></trkpt><trkpt lat="43.49028394850171" lon="11.39276933416488"><ele>457.00000000000006</ele><time>2026-04-11T06:34:02Z</time></trkpt><trkpt lat="43.49030469538246" lon="11.392878596913175"><ele>457.0</ele><time>2026-04-11T06:34:04Z</time></trkpt><trkpt lat="43.4904041591096" lon="11.392855022289538"><ele>457.0</ele><time>2026-04-11T06:34:07Z</time></trkpt><trkpt lat="43.49033751566402" lon="11.392984904015307"><ele>457.6</ele><time>2026-04-11T06:34:09Z</time></trkpt><trkpt lat="43.49043256402712" lon="11.393009154869066"><ele>458.20000000000005</ele><time>2026-04-11T06:34:10Z</time></trkpt><trkpt lat="43.490448114571606" lon="11.39309604087996"><ele>458.8</ele><time>2026-04-11T06:34:13Z</time></trkpt><trkpt lat="43.490408394665415" lon="11.393240625396158"><ele>459.4</ele><time>2026-04-11T06:34:15Z</time></trkpt><trkpt lat="43.49040582775649" lon="11.393354562704982"><ele>460.0</ele><time>2026-04-11T06:34:18Z</time></trkpt><trkpt lat="43.49036324358439" lon="11.393478383249827"><ele>460.00000000000006</ele><time>2026-04-11T06:34:20Z</time></trkpt><trkpt lat="43.490332839479024" lon="11.393617343286923"><ele>460.0</ele><time>2026-04-11T06:34:22Z</time></trkpt><trkpt lat="43.490289345747115" lon="11.393734566696391"><ele>460.0</ele><time>2026-04-11T06:34:24Z</time></trkpt><trkpt lat="43.490283596157006" lon="11.39383528336317"><ele>460.0</ele><time>2026-04-11T06:34:26Z</time></trkpt><trkpt lat="43.49026825473945" lon="11.393939989217039"><ele>460.00000000000006</ele><time>2026-04-11T06:34:28Z</time></trkpt><trkpt lat="43.490232300775034" lon="11.394014603571087"><ele>460.0</ele><time>2026-04-11T06:34:30Z</time></trkpt><trkpt lat="43.490159264124834" lon="11.394106761909468"><ele>460.6666666666667</ele><time>2026-04-11T06:34:32Z</time></trkpt><trkpt lat="43.49013861439286" lon="11.39422588128367"><ele>461.33333333333337</ele><time>2026-04-11T06:34:35Z</time></trkpt><trkpt lat="43.49013362388468" lon="11.394312772024637"><ele>462.0</ele><time>2026-04-11T06:34:37Z</time></trkpt><trkpt lat="43.49013644723066" lon="11.394413510262924"><ele>462.66666666666663</ele><time>2026-04-11T06:34:40Z</time></trkpt><trkpt lat="43.490147700380646" lon="11.39452898742131"><ele>463.3333333333333</ele><time>2026-04-11T06:34:43Z</time></trkpt><trkpt lat="43.49013453927231" lon="11.394651848685434"><ele>464.0</ele><time>2026-04-11T06:34:46Z</time></trkpt><trkpt lat="43.49014475160418" lon="11.394758683557345"><ele>464.7142857142858</ele><time>2026-04-11T06:34:49Z</time></trkpt><trkpt lat="43.4901654605859" lon="11.394860943804678"><ele>465.42857142857144</ele><time>2026-04-11T06:34:52Z</time></trkpt><trkpt lat="43.49011905362975" lon="11.394931287937592"><ele>466.14285714285717</ele><time>2026-04-11T06:34:54Z</time></trkpt><trkpt lat="43.49011785925891" lon="11.395032025664268"><ele>466.8571428571429</ele><time>2026-04-11T06:34:56Z</time></trkpt><trkpt lat="43.49014226808395" lon="11.395114480797096"><ele>467.57142857142856</ele><time>2026-04-11T06:34:58Z</time></trkpt><trkpt lat="43.49012915278214" lon="11.395219912260032"><ele>468.2857142857143</ele><time>2026-04-11T06:35:00Z</time></trkpt><trkpt lat="43.49012241535276" lon="11.39532605635464"><ele>469.0</ele><time>2026-04-11T06:35:02Z</time></trkpt><trkpt lat="43.490100671469605" lon="11.395414068636372"><ele>469.6666666666667</ele><time>2026-04-11T06:35:04Z</time></trkpt><trkpt lat="43.49011475534845" lon="11.395534765424571"><ele>470.33333333333337</ele><time>2026-04-11T06:35:07Z</time></trkpt><trkpt lat="43.49010820572358" lon="11.39565257259403"><ele>471.0</ele><time>2026-04-11T06:35:11Z</time></trkpt><trkpt lat="43.490082459409344" lon="11.395778392183344"><ele>471.66666666666663</ele><time>2026-04-11T06:35:15Z</time></trkpt><trkpt lat="43.4900910607117" lon="11.395881367445774"><ele>472.3333333333333</ele><time>2026-04-11T06:35:18Z</time></trkpt><trkpt lat="43.490069023666194" lon="11.396004370019492"><ele>473.0</ele><time>2026-04-11T06:35:21Z</time></trkpt><trkpt lat="43.49011638458356" lon="11.396082125628494"><ele>472.99999999999994</ele><time>2026-04-11T06:35:23Z</time></trkpt><trkpt lat="43.49006965378812" lon="11.396188996658871"><ele>473.0</ele><time>2026-04-11T06:35:26Z</time></trkpt><trkpt lat="43.490031623854534" lon="11.396291894190515"><ele>473.0</ele><time>2026-04-11T06:35:29Z</time></trkpt><trkpt lat="43.48996318895235" lon="11.396353274032187"><ele>473.0</ele><time>2026-04-11T06:35:31Z</time></trkpt><trkpt lat="43.489906680664376" lon="11.39642213986866"><ele>472.99999999999994</ele><time>2026-04-11T06:35:33Z</time></trkpt><trkpt lat="43.48986250569522" lon="11.396493330422093"><ele>473.0</ele><time>2026-04-11T06:35:35Z</time></trkpt><trkpt lat="43.489805256712" lon="11.396582265045396"><ele>472.99999999999994</ele><time>2026-04-11T06:35:38Z</time></trkpt><trkpt lat="43.48977688603624" lon="11.39670571272952"><ele>473.0</ele><time>2026-04-11T06:35:41Z</time></trkpt><trkpt lat="43.48973672550085" lon="11.396799189537337"><ele>473.0</ele><time>2026-04-11T06:35:44Z</time></trkpt><trkpt lat="43.48968623882879" lon="11.396896559355733"><ele>473.0</ele><time>2026-04-11T06:35:47Z</time></trkpt><trkpt lat="43.48966871009495" lon="11.396983109474094"><ele>472.99999999999994</ele><time>2026-04-11T06:35:50Z</time></trkpt><trkpt lat="43.48962162317374" lon="11.397065396898048"><ele>473.0</ele><time>2026-04-11T06:35:53Z</time></trkpt><trkpt lat="43.48955687082438" lon="11.397152946336751"><ele>475.42857142857144</ele><time>2026-04-11T06:35:56Z</time></trkpt><trkpt lat="43.48950367990232" lon="11.39723866475549"><ele>477.85714285714283</ele><time>2026-04-11T06:35:59Z</time></trkpt><trkpt lat="43.48947459078345" lon="11.397327695425208"><ele>480.2857142857143</ele><time>2026-04-11T06:36:02Z</time></trkpt><trkpt lat="43.48947350826307" lon="11.397441378426814"><ele>482.7142857142857</ele><time>2026-04-11T06:36:05Z</time></trkpt><trkpt lat="43.48941680842526" lon="11.397490284601874"><ele>485.1428571428571</ele><time>2026-04-11T06:36:07Z</time></trkpt><trkpt lat="43.48938108690703" lon="11.397583219982009"><ele>487.57142857142856</ele><time>2026-04-11T06:36:10Z</time></trkpt><trkpt lat="43.48935396452334" lon="11.397666464733843"><ele>490.0</ele><time>2026-04-11T06:36:13Z</time></trkpt><trkpt lat="43.48930715767646" lon="11.397725265655241"><ele>490.0</ele><time>2026-04-11T06:36:15Z</time></trkpt><trkpt lat="43.48927852951071" lon="11.397823591975799"><ele>490.0</ele><time>2026-04-11T06:36:18Z</time></trkpt><trkpt lat="43.48923861169438" lon="11.397894635077224"><ele>490.0</ele><time>2026-04-11T06:36:20Z</time></trkpt><trkpt lat="43.489191119623655" lon="11.397987149979617"><ele>490.0</ele><time>2026-04-11T06:36:23Z</time></trkpt><trkpt lat="43.489159213616816" lon="11.398090052981583"><ele>490.0</ele><time>2026-04-11T06:36:26Z</time></trkpt><trkpt lat="43.48912908853078" lon="11.398179955886718"><ele>490.0</ele><time>2026-04-11T06:36:29Z</time></trkpt><trkpt lat="43.48909560904501" lon="11.398257568153584"><ele>490.0</ele><time>2026-04-11T06:36:32Z</time></trkpt><trkpt lat="43.489049681603234" lon="11.398356786936834"><ele>489.00000000000006</ele><time>2026-04-11T06:36:35Z</time></trkpt><trkpt lat="43.48899628275756" lon="11.398430845067278"><ele>488.0</ele><time>2026-04-11T06:36:37Z</time></trkpt><trkpt lat="43.48898045799483" lon="11.398544519883515"><ele>487.0</ele><time>2026-04-11T06:36:40Z</time></trkpt><trkpt lat="43.48890267976974" lon="11.398615551320942"><ele>486.0</ele><time>2026-04-11T06:36:43Z</time></trkpt><trkpt lat="43.48882103423026" lon="11.398679510631611"><ele>485.00000000000006</ele><time>2026-04-11T06:36:46Z</time></trkpt><trkpt lat="43.48875981511147" lon="11.398761660271406"><ele>484.0</ele><time>2026-04-11T06:36:49Z</time></trkpt><trkpt lat="43.488710843989054" lon="11.398849696472439"><ele>486.6666666666667</ele><time>2026-04-11T06:36:52Z</time></trkpt><trkpt lat="43.48868371561693" lon="11.398943298940138"><ele>489.33333333333337</ele><time>2026-04-11T06:36:55Z</time></trkpt><trkpt lat="43.488644344614244" lon="11.39903175925368"><ele>492.0</ele><time>2026-04-11T06:36:58Z</time></trkpt><trkpt lat="43.48862947902178" lon="11.39912881694875"><ele>494.66666666666663</ele><time>2026-04-11T06:37:01Z</time></trkpt><trkpt lat="43.48857309549841" lon="11.399217822221154"><ele>497.3333333333333</ele><time>2026-04-11T06:37:04Z</time></trkpt><trkpt lat="43.48856686070127" lon="11.399339068049743"><ele>500.0</ele><time>2026-04-11T06:37:07Z</time></trkpt><trkpt lat="43.488523342607714" lon="11.399412364084057"><ele>499.99999999999994</ele><time>2026-04-11T06:37:09Z</time></trkpt><trkpt lat="43.48843918687102" lon="11.39946199079836"><ele>500.0</ele><time>2026-04-11T06:37:12Z</time></trkpt><trkpt lat="43.48838229578394" lon="11.39955330128929"><ele>500.0</ele><time>2026-04-11T06:37:15Z</time></trkpt><trkpt lat="43.48831187106547" lon="11.399568152539683"><ele>500.0</ele><time>2026-04-11T06:37:17Z</time></trkpt><trkpt lat="43.48825121013607" lon="11.39960992663728"><ele>499.99999999999994</ele><time>2026-04-11T06:37:20Z</time></trkpt><trkpt lat="43.48818587102566" lon="11.399633863742384"><ele>500.0</ele><time>2026-04-11T06:37:24Z</time></trkpt><trkpt lat="43.48814426059571" lon="11.399704155104008"><ele>500.16666666666663</ele><time>2026-04-11T06:37:27Z</time></trkpt><trkpt lat="43.4880604896639" lon="11.399698771676883"><ele>500.3333333333333</ele><time>2026-04-11T06:37:31Z</time></trkpt><trkpt lat="43.487992212638325" lon="11.399716728175557"><ele>500.5</ele><time>2026-04-11T06:37:34Z</time></trkpt><trkpt lat="43.487924163877246" lon="11.399693754461014"><ele>500.66666666666663</ele><time>2026-04-11T06:37:36Z</time></trkpt><trkpt lat="43.48788052663448" lon="11.39977615697356"><ele>500.8333333333333</ele><time>2026-04-11T06:37:39Z</time></trkpt><trkpt lat="43.48779820801118" lon="11.399776849305027"><ele>501.0</ele><time>2026-04-11T06:37:42Z</time></trkpt><trkpt lat="43.487745173772076" lon="11.399864259073253"><ele>501.0</ele><time>2026-04-11T06:37:46Z</time></trkpt><trkpt lat="43.48767853876638" lon="11.399868402773835"><ele>501.0</ele><time>2026-04-11T06:37:48Z</time></trkpt><trkpt lat="43.487638582945856" lon="11.399943098375005"><ele>501.0</ele><time>2026-04-11T06:37:50Z</time></trkpt><trkpt lat="43.487654725277" lon="11.40005326364388"><ele>501.0</ele><time>2026-04-11T06:37:53Z</time></trkpt><trkpt lat="43.48759936314392" lon="11.400124086252049"><ele>501.0</ele><time>2026-04-11T06:37:56Z</time></trkpt><trkpt lat="43.487584903221396" lon="11.400237715365645"><ele>501.0</ele><time>2026-04-11T06:38:00Z</time></trkpt><trkpt lat="43.48757307232706" lon="11.400334754172652"><ele>501.0</ele><time>2026-04-11T06:38:03Z</time></trkpt><trkpt lat="43.48757899603396" lon="11.40044582871706"><ele>501.6666666666667</ele><time>2026-04-11T06:38:06Z</time></trkpt><trkpt lat="43.48760146209303" lon="11.400541486016243"><ele>502.33333333333337</ele><time>2026-04-11T06:38:09Z</time></trkpt><trkpt lat="43.48761785685711" lon="11.400651157700967"><ele>503.0</ele><time>2026-04-11T06:38:12Z</time></trkpt><trkpt lat="43.4875678598624" lon="11.400768462951403"><ele>503.6666666666667</ele><time>2026-04-11T06:38:16Z</time></trkpt><trkpt lat="43.48751458823562" lon="11.400862673098498"><ele>504.33333333333337</ele><time>2026-04-11T06:38:19Z</time></trkpt><trkpt lat="43.48753023904052" lon="11.400981754770612"><ele>505.0</ele><time>2026-04-11T06:38:22Z</time></trkpt><trkpt lat="43.48747059109517" lon="11.401049981655374"><ele>505.00000000000006</ele><time>2026-04-11T06:38:25Z</time></trkpt><trkpt lat="43.48752880322947" lon="11.40113346055542"><ele>505.0</ele><time>2026-04-11T06:38:28Z</time></trkpt><trkpt lat="43.48757108330722" lon="11.401200413635667"><ele>505.0</ele><time>2026-04-11T06:38:33Z</time></trkpt><trkpt lat="43.48764781259569" lon="11.401165269101872"><ele>505.0</ele><time>2026-04-11T06:38:37Z</time></trkpt><trkpt lat="43.48770669788135" lon="11.401107232977244"><ele>505.00000000000006</ele><time>2026-04-11T06:38:41Z</time></trkpt><trkpt lat="43.48773490020197" lon="11.401007390083256"><ele>505.0</ele><time>2026-04-11T06:38:44Z</time></trkpt><trkpt lat="43.48777469100025" lon="11.40092588933406"><ele>505.00000000000006</ele><time>2026-04-11T06:38:47Z</time></trkpt><trkpt lat="43.4878052089659" lon="11.40084701190119"><ele>505.0</ele><time>2026-04-11T06:38:50Z</time></trkpt><trkpt lat="43.48788754092079" lon="11.400809743821029"><ele>505.0</ele><time>2026-04-11T06:38:53Z</time></trkpt><trkpt lat="43.4879967030545" lon="11.400854374993326"><ele>505.0</ele><time>2026-04-11T06:38:55Z</time></trkpt><trkpt lat="43.48807283395141" lon="11.400882416672582"><ele>505.00000000000006</ele><time>2026-04-11T06:38:57Z</time></trkpt><trkpt lat="43.488158857809765" lon="11.400882779012619"><ele>505.0</ele><time>2026-04-11T06:39:00Z</time></trkpt><trkpt lat="43.48823486660444" lon="11.400909175714554"><ele>506.33333333333337</ele><time>2026-04-11T06:39:03Z</time></trkpt><trkpt lat="43.48830933967397" lon="11.400920945923556"><ele>507.6666666666667</ele><time>2026-04-11T06:39:06Z</time></trkpt><trkpt lat="43.488388131746056" lon="11.400951768756306"><ele>509.0</ele><time>2026-04-11T06:39:10Z</time></trkpt><trkpt lat="43.48845635106635" lon="11.400967619529444"><ele>510.33333333333337</ele><time>2026-04-11T06:39:13Z</time></trkpt><trkpt lat="43.48853043523086" lon="11.401027027120653"><ele>511.6666666666667</ele><time>2026-04-11T06:39:17Z</time></trkpt><trkpt lat="43.48860252330073" lon="11.401053382357984"><ele>513.0</ele><time>2026-04-11T06:39:20Z</time></trkpt><trkpt lat="43.48866436411681" lon="11.40109651989613"><ele>513.0</ele><time>2026-04-11T06:39:23Z</time></trkpt><trkpt lat="43.488721947175016" lon="11.401163865594075"><ele>513.0</ele><time>2026-04-11T06:39:26Z</time></trkpt><trkpt lat="43.48878946792653" lon="11.401237316081774"><ele>513.0</ele><time>2026-04-11T06:39:30Z</time></trkpt><trkpt lat="43.48882953749916" lon="11.401337826937473"><ele>513.0</ele><time>2026-04-11T06:39:33Z</time></trkpt><trkpt lat="43.48884698503882" lon="11.401429960189201"><ele>513.0</ele><time>2026-04-11T06:39:36Z</time></trkpt><trkpt lat="43.48882709298798" lon="11.401532574058676"><ele>513.0</ele><time>2026-04-11T06:39:38Z</time></trkpt><trkpt lat="43.4888176120379" lon="11.401625183103347"><ele>513.0000000000001</ele><time>2026-04-11T06:39:41Z</time></trkpt><trkpt lat="43.48881190664896" lon="11.401730862710183"><ele>513.0</ele><time>2026-04-11T06:39:44Z</time></trkpt><trkpt lat="43.48880730658718" lon="11.401830303192703"><ele>513.0</ele><time>2026-04-11T06:39:47Z</time></trkpt><trkpt lat="43.48881541297136" lon="11.401919153151503"><ele>513.0</ele><time>2026-04-11T06:39:50Z</time></trkpt><trkpt lat="43.48879084946303" lon="11.402007403317509"><ele>513.0</ele><time>2026-04-11T06:39:53Z</time></trkpt><trkpt lat="43.48876927593376" lon="11.402106348497535"><ele>513.0000000000001</ele><time>2026-04-11T06:39:56Z</time></trkpt><trkpt lat="43.4887732984072" lon="11.402194373278483"><ele>513.0</ele><time>2026-04-11T06:39:59Z</time></trkpt><trkpt lat="43.488773030784586" lon="11.402296575914265"><ele>513.0000000000001</ele><time>2026-04-11T06:40:03Z</time></trkpt><trkpt lat="43.48876603344215" lon="11.402389481138043"><ele>513.0</ele><time>2026-04-11T06:40:06Z</time></trkpt><trkpt lat="43.48877332268521" lon="11.402486339226162"><ele>513.0</ele><time>2026-04-11T06:40:09Z</time></trkpt><trkpt lat="43.488799132849145" lon="11.402574200592777"><ele>513.0</ele><time>2026-04-11T06:40:12Z</time></trkpt><trkpt lat="43.48878332563943" lon="11.402658937867495"><ele>513.0</ele><time>2026-04-11T06:40:15Z</time></trkpt><trkpt lat="43.488737102271664" lon="11.402740344528462"><ele>513.0000000000001</ele><time>2026-04-11T06:40:17Z</time></trkpt><trkpt lat="43.48871020780825" lon="11.402824753788211"><ele>513.0</ele><time>2026-04-11T06:40:19Z</time></trkpt><trkpt lat="43.4887394457549" lon="11.40291035555442"><ele>513.3333333333334</ele><time>2026-04-11T06:40:21Z</time></trkpt><trkpt lat="43.48872929010692" lon="11.403027033253405"><ele>513.6666666666666</ele><time>2026-04-11T06:40:24Z</time></trkpt><trkpt lat="43.48874317261442" lon="11.40312902112077"><ele>514.0</ele><time>2026-04-11T06:40:29Z</time></trkpt><trkpt lat="43.48876548518899" lon="11.403241230730442"><ele>514.3333333333333</ele><time>2026-04-11T06:40:32Z</time></trkpt><trkpt lat="43.488755139349905" lon="11.403354812702945"><ele>514.6666666666666</ele><time>2026-04-11T06:40:36Z</time></trkpt><trkpt lat="43.488717213166666" lon="11.40343265523873"><ele>515.0</ele><time>2026-04-11T06:40:39Z</time></trkpt><trkpt lat="43.488736239917436" lon="11.40352742970649"><ele>518.2857142857143</ele><time>2026-04-11T06:41:05Z</time></trkpt><trkpt lat="43.488756328919244" lon="11.403613412296856"><ele>521.5714285714286</ele><time>2026-04-11T06:41:16Z</time></trkpt><trkpt lat="43.48873848742096" lon="11.403716012590719"><ele>524.8571428571429</ele><time>2026-04-11T06:41:19Z</time></trkpt><trkpt lat="43.4887084888747" lon="11.403811588889644"><ele>528.1428571428571</ele><time>2026-04-11T06:41:22Z</time></trkpt><trkpt lat="43.488700944585844" lon="11.403901037703628"><ele>531.4285714285714</ele><time>2026-04-11T06:41:24Z</time></trkpt><trkpt lat="43.4886903520441" lon="11.403990170403427"><ele>534.7142857142858</ele><time>2026-04-11T06:41:26Z</time></trkpt><trkpt lat="43.48869527401886" lon="11.404099296597392"><ele>538.0</ele><time>2026-04-11T06:41:28Z</time></trkpt><trkpt lat="43.48869300798745" lon="11.404201460922865"><ele>538.2857142857143</ele><time>2026-04-11T06:41:30Z</time></trkpt><trkpt lat="43.488688565146525" lon="11.404300632205084"><ele>538.5714285714287</ele><time>2026-04-11T06:41:32Z</time></trkpt><trkpt lat="43.488688095031506" lon="11.404409318140731"><ele>538.8571428571429</ele><time>2026-04-11T06:41:34Z</time></trkpt><trkpt lat="43.488698114538735" lon="11.404508310487367"><ele>539.1428571428571</ele><time>2026-04-11T06:41:36Z</time></trkpt><trkpt lat="43.488720307609455" lon="11.404590873879686"><ele>539.4285714285713</ele><time>2026-04-11T06:41:38Z</time></trkpt><trkpt lat="43.488764380349004" lon="11.404701363916427"><ele>539.7142857142857</ele><time>2026-04-11T06:41:42Z</time></trkpt><trkpt lat="43.4888007753617" lon="11.404781467948654"><ele>540.0</ele><time>2026-04-11T06:41:45Z</time></trkpt><trkpt lat="43.48884008392216" lon="11.404876137373098"><ele>539.1428571428571</ele><time>2026-04-11T06:41:48Z</time></trkpt><trkpt lat="43.4888714250714" lon="11.404954883943258"><ele>538.2857142857142</ele><time>2026-04-11T06:41:50Z</time></trkpt><trkpt lat="43.488897763387776" lon="11.405044531943354"><ele>537.4285714285714</ele><time>2026-04-11T06:41:52Z</time></trkpt><trkpt lat="43.48892494524287" lon="11.405155142492745"><ele>536.5714285714286</ele><time>2026-04-11T06:41:55Z</time></trkpt><trkpt lat="43.488939503145396" lon="11.405249537176417"><ele>535.7142857142858</ele><time>2026-04-11T06:41:57Z</time></trkpt><trkpt lat="43.48895119058967" lon="11.405338578166297"><ele>534.8571428571429</ele><time>2026-04-11T06:41:59Z</time></trkpt><trkpt lat="43.488973359644625" lon="11.405419802226072"><ele>534.0</ele><time>2026-04-11T06:42:01Z</time></trkpt><trkpt lat="43.488983243260044" lon="11.405513988704262"><ele>534.0</ele><time>2026-04-11T06:42:03Z</time></trkpt><trkpt lat="43.488988817915" lon="11.40560656139304"><ele>534.0</ele><time>2026-04-11T06:42:05Z</time></trkpt><trkpt lat="43.48899860933031" lon="11.405703424111897"><ele>534.0</ele><time>2026-04-11T06:42:07Z</time></trkpt><trkpt lat="43.489022214310516" lon="11.405818865604036"><ele>534.0</ele><time>2026-04-11T06:42:10Z</time></trkpt><trkpt lat="43.48905976198883" lon="11.405979907950485"><ele>534.0</ele><time>2026-04-11T06:42:13Z</time></trkpt><trkpt lat="43.489085286930774" lon="11.406076309262662"><ele>534.0</ele><time>2026-04-11T06:42:14Z</time></trkpt><trkpt lat="43.489133396473356" lon="11.40619839367251"><ele>534.0</ele><time>2026-04-11T06:42:16Z</time></trkpt><trkpt lat="43.489164980052614" lon="11.406305855818806"><ele>534.0</ele><time>2026-04-11T06:42:18Z</time></trkpt><trkpt lat="43.48921514949885" lon="11.406416518929536"><ele>534.0</ele><time>2026-04-11T06:42:20Z</time></trkpt><trkpt lat="43.489281003237245" lon="11.406523289586323"><ele>534.0</ele><time>2026-04-11T06:42:22Z</time></trkpt><trkpt lat="43.48934204726482" lon="11.406627229651606"><ele>534.0</ele><time>2026-04-11T06:42:24Z</time></trkpt><trkpt lat="43.48940237132146" lon="11.406720107756541"><ele>534.0</ele><time>2026-04-11T06:42:27Z</time></trkpt><trkpt lat="43.489464976445916" lon="11.406795420184016"><ele>534.0</ele><time>2026-04-11T06:42:29Z</time></trkpt><trkpt lat="43.48952704508995" lon="11.406887589446038"><ele>534.0</ele><time>2026-04-11T06:42:31Z</time></trkpt><trkpt lat="43.48957839132788" lon="11.406971453865815"><ele>534.0</ele><time>2026-04-11T06:42:33Z</time></trkpt><trkpt lat="43.48962379421502" lon="11.407038652617533"><ele>534.0</ele><time>2026-04-11T06:42:35Z</time></trkpt><trkpt lat="43.48968107264125" lon="11.40710529929205"><ele>534.0</ele><time>2026-04-11T06:42:37Z</time></trkpt><trkpt lat="43.4897261202862" lon="11.407180332377623"><ele>535.0</ele><time>2026-04-11T06:42:39Z</time></trkpt><trkpt lat="43.489785889654016" lon="11.407272442988917"><ele>536.0</ele><time>2026-04-11T06:42:42Z</time></trkpt><trkpt lat="43.48983522608476" lon="11.407379338683674"><ele>537.0</ele><time>2026-04-11T06:42:45Z</time></trkpt><trkpt lat="43.489870981819784" lon="11.407486102903796"><ele>538.0</ele><time>2026-04-11T06:42:48Z</time></trkpt><trkpt lat="43.489893346816" lon="11.407582937153688"><ele>539.0</ele><time>2026-04-11T06:42:50Z</time></trkpt><trkpt lat="43.489903645327125" lon="11.407678016179561"><ele>540.0</ele><time>2026-04-11T06:42:52Z</time></trkpt><trkpt lat="43.489914093707256" lon="11.40777114320185"><ele>540.0</ele><time>2026-04-11T06:42:54Z</time></trkpt><trkpt lat="43.48992349906291" lon="11.407871228797504"><ele>540.0</ele><time>2026-04-11T06:42:56Z</time></trkpt><trkpt lat="43.48993349227006" lon="11.407969153486647"><ele>540.0</ele><time>2026-04-11T06:42:58Z</time></trkpt><trkpt lat="43.48994809841993" lon="11.408061393285907"><ele>540.0</ele><time>2026-04-11T06:43:00Z</time></trkpt><trkpt lat="43.48996845369636" lon="11.408147388427949"><ele>540.0</ele><time>2026-04-11T06:43:03Z</time></trkpt><trkpt lat="43.4899892751307" lon="11.408250124199668"><ele>540.0</ele><time>2026-04-11T06:43:06Z</time></trkpt><trkpt lat="43.490003301536326" lon="11.408362607564975"><ele>540.0</ele><time>2026-04-11T06:43:09Z</time></trkpt><trkpt lat="43.49000972814863" lon="11.408489578971844"><ele>540.3333333333334</ele><time>2026-04-11T06:43:12Z</time></trkpt><trkpt lat="43.490011431150464" lon="11.408604704699504"><ele>540.6666666666666</ele><time>2026-04-11T06:43:15Z</time></trkpt><trkpt lat="43.490016851823" lon="11.408724800287763"><ele>541.0</ele><time>2026-04-11T06:43:18Z</time></trkpt><trkpt lat="43.49002055142556" lon="11.4088438727001"><ele>541.3333333333333</ele><time>2026-04-11T06:43:21Z</time></trkpt><trkpt lat="43.49002703222844" lon="11.408971159938973"><ele>541.6666666666666</ele><time>2026-04-11T06:43:24Z</time></trkpt><trkpt lat="43.49001874169559" lon="11.409059560824973"><ele>542.0</ele><time>2026-04-11T06:43:26Z</time></trkpt><trkpt lat="43.49001823312332" lon="11.409156327075364"><ele>542.6666666666666</ele><time>2026-04-11T06:43:28Z</time></trkpt><trkpt lat="43.49001744238919" lon="11.409260006391113"><ele>543.3333333333333</ele><time>2026-04-11T06:43:30Z</time></trkpt><trkpt lat="43.49001572153438" lon="11.40935401888319"><ele>544.0</ele><time>2026-04-11T06:43:32Z</time></trkpt><trkpt lat="43.490008331908754" lon="11.409479151709112"><ele>544.6666666666666</ele><time>2026-04-11T06:43:35Z</time></trkpt><trkpt lat="43.489978261398626" lon="11.409631671666958"><ele>545.3333333333334</ele><time>2026-04-11T06:43:37Z</time></trkpt><trkpt lat="43.4899499094605" lon="11.409757734566059"><ele>546.0</ele><time>2026-04-11T06:43:39Z</time></trkpt><trkpt lat="43.48991936993298" lon="11.40986249403244"><ele>546.3333333333334</ele><time>2026-04-11T06:43:41Z</time></trkpt><trkpt lat="43.48989294923918" lon="11.409978928709226"><ele>546.6666666666666</ele><time>2026-04-11T06:43:44Z</time></trkpt><trkpt lat="43.4898644303918" lon="11.410101024762662"><ele>547.0</ele><time>2026-04-11T06:43:47Z</time></trkpt><trkpt lat="43.489837173339346" lon="11.410208193657377"><ele>547.3333333333333</ele><time>2026-04-11T06:43:50Z</time></trkpt><trkpt lat="43.48982179307199" lon="11.410312852758214"><ele>547.6666666666666</ele><time>2026-04-11T06:43:53Z</time></trkpt><trkpt lat="43.489797804187205" lon="11.410412495028035"><ele>548.0</ele><time>2026-04-11T06:43:56Z</time></trkpt><trkpt lat="43.489748033063734" lon="11.410504174120812"><ele>548.1666666666666</ele><time>2026-04-11T06:43:59Z</time></trkpt><trkpt lat="43.489719962111835" lon="11.410606069714072"><ele>548.3333333333333</ele><time>2026-04-11T06:44:02Z</time></trkpt><trkpt lat="43.48967141592931" lon="11.4106904130191"><ele>548.5</ele><time>2026-04-11T06:44:05Z</time></trkpt><trkpt lat="43.48961641357802" lon="11.410787967421928"><ele>548.6666666666666</ele><time>2026-04-11T06:44:08Z</time></trkpt><trkpt lat="43.489572439989566" lon="11.410869041276758"><ele>548.8333333333334</ele><time>2026-04-11T06:44:10Z</time></trkpt><trkpt lat="43.48954169801502" lon="11.410944966822823"><ele>549.0</ele><time>2026-04-11T06:44:12Z</time></trkpt><trkpt lat="43.48951227184738" lon="11.411043226440396"><ele>549.0</ele><time>2026-04-11T06:44:15Z</time></trkpt><trkpt lat="43.48950396599059" lon="11.41113494490295"><ele>549.0</ele><time>2026-04-11T06:44:18Z</time></trkpt><trkpt lat="43.48948653916856" lon="11.411218894290384"><ele>549.0</ele><time>2026-04-11T06:44:21Z</time></trkpt><trkpt lat="43.48949342756393" lon="11.411311021595099"><ele>549.0</ele><time>2026-04-11T06:44:26Z</time></trkpt><trkpt lat="43.48948924540475" lon="11.411437182911893"><ele>549.0</ele><time>2026-04-11T06:44:29Z</time></trkpt><trkpt lat="43.48950758319689" lon="11.41152971870992"><ele>549.0</ele><time>2026-04-11T06:44:32Z</time></trkpt><trkpt lat="43.48953644488299" lon="11.411623248754818"><ele>549.0</ele><time>2026-04-11T06:44:36Z</time></trkpt><trkpt lat="43.48956697368064" lon="11.411723994820626"><ele>550.5</ele><time>2026-04-11T06:44:41Z</time></trkpt><trkpt lat="43.48961546757993" lon="11.411800333056659"><ele>552.0</ele><time>2026-04-11T06:44:43Z</time></trkpt><trkpt lat="43.48967598646492" lon="11.41189611742972"><ele>553.5</ele><time>2026-04-11T06:44:48Z</time></trkpt><trkpt lat="43.489733053985994" lon="11.411945050458936"><ele>555.0</ele><time>2026-04-11T06:44:49Z</time></trkpt><trkpt lat="43.48978992683776" lon="11.412039048803354"><ele>556.5</ele><time>2026-04-11T06:44:51Z</time></trkpt><trkpt lat="43.48984813287099" lon="11.412136288112105"><ele>558.0</ele><time>2026-04-11T06:44:53Z</time></trkpt><trkpt lat="43.489918226039705" lon="11.41221804488687"><ele>558.0</ele><time>2026-04-11T06:44:55Z</time></trkpt><trkpt lat="43.489984587731094" lon="11.412290898707043"><ele>558.0</ele><time>2026-04-11T06:44:57Z</time></trkpt><trkpt lat="43.49006301989395" lon="11.412392088653991"><ele>558.0</ele><time>2026-04-11T06:44:59Z</time></trkpt><trkpt lat="43.49015919105322" lon="11.412473455313423"><ele>558.0</ele><time>2026-04-11T06:45:01Z</time></trkpt><trkpt lat="43.490219352298176" lon="11.412554473574447"><ele>558.0</ele><time>2026-04-11T06:45:03Z</time></trkpt><trkpt lat="43.49030717819793" lon="11.412665605403765"><ele>558.0</ele><time>2026-04-11T06:45:05Z</time></trkpt><trkpt lat="43.49037056590518" lon="11.41278921375572"><ele>558.0</ele><time>2026-04-11T06:45:06Z</time></trkpt><trkpt lat="43.49042102143623" lon="11.412981106858382"><ele>558.0</ele><time>2026-04-11T06:45:08Z</time></trkpt><trkpt lat="43.49050186680893" lon="11.413121809891102"><ele>558.0</ele><time>2026-04-11T06:45:10Z</time></trkpt><trkpt lat="43.49054557561259" lon="11.413228906456505"><ele>557.1666666666666</ele><time>2026-04-11T06:45:11Z</time></trkpt><trkpt lat="43.490576345850435" lon="11.413351666135659"><ele>556.3333333333334</ele><time>2026-04-11T06:45:12Z</time></trkpt><trkpt lat="43.49058637484587" lon="11.413452812495102"><ele>555.5</ele><time>2026-04-11T06:45:13Z</time></trkpt><trkpt lat="43.49058720605743" lon="11.413573641188275"><ele>554.6666666666667</ele><time>2026-04-11T06:45:14Z</time></trkpt><trkpt lat="43.490587184912094" lon="11.413676384387026"><ele>553.8333333333334</ele><time>2026-04-11T06:45:15Z</time></trkpt><trkpt lat="43.49055822019937" lon="11.413771101020572"><ele>553.0</ele><time>2026-04-11T06:45:16Z</time></trkpt><trkpt lat="43.49052240805553" lon="11.413899917152206"><ele>553.0</ele><time>2026-04-11T06:45:18Z</time></trkpt><trkpt lat="43.490500881787305" lon="11.414033402049583"><ele>553.0</ele><time>2026-04-11T06:45:20Z</time></trkpt><trkpt lat="43.490469273805445" lon="11.414161792508315"><ele>553.0</ele><time>2026-04-11T06:45:22Z</time></trkpt><trkpt lat="43.49045027007845" lon="11.414278842483172"><ele>553.0</ele><time>2026-04-11T06:45:24Z</time></trkpt><trkpt lat="43.490444282438055" lon="11.41439580666839"><ele>553.0</ele><time>2026-04-11T06:45:26Z</time></trkpt><trkpt lat="43.4904380212549" lon="11.414496196132141"><ele>553.0</ele><time>2026-04-11T06:45:28Z</time></trkpt><trkpt lat="43.49042843714019" lon="11.414607432840658"><ele>553.1428571428571</ele><time>2026-04-11T06:45:30Z</time></trkpt><trkpt lat="43.49041985532861" lon="11.414718886210377"><ele>553.2857142857142</ele><time>2026-04-11T06:45:32Z</time></trkpt><trkpt lat="43.49040397814635" lon="11.414804093523697"><ele>553.4285714285714</ele><time>2026-04-11T06:45:35Z</time></trkpt><trkpt lat="43.490404204743854" lon="11.414907814590077"><ele>553.5714285714286</ele><time>2026-04-11T06:45:38Z</time></trkpt><trkpt lat="43.490375105400176" lon="11.415024434286586"><ele>553.7142857142857</ele><time>2026-04-11T06:45:40Z</time></trkpt><trkpt lat="43.4903686095004" lon="11.415115216568145"><ele>553.8571428571429</ele><time>2026-04-11T06:45:43Z</time></trkpt><trkpt lat="43.49038762919774" lon="11.41520676816229"><ele>554.0</ele><time>2026-04-11T06:45:44Z</time></trkpt><trkpt lat="43.490373771473955" lon="11.415346654278254"><ele>554.0</ele><time>2026-04-11T06:45:47Z</time></trkpt><trkpt lat="43.49037077708605" lon="11.415442791966555"><ele>554.0</ele><time>2026-04-11T06:45:49Z</time></trkpt><trkpt lat="43.49033395622687" lon="11.415541434493367"><ele>554.0</ele><time>2026-04-11T06:45:51Z</time></trkpt><trkpt lat="43.490316897392674" lon="11.415651414090947"><ele>554.0</ele><time>2026-04-11T06:45:52Z</time></trkpt><trkpt lat="43.49031580488771" lon="11.415747955802287"><ele>554.0</ele><time>2026-04-11T06:45:54Z</time></trkpt><trkpt lat="43.49028647320804" lon="11.415849747644787"><ele>554.0</ele><time>2026-04-11T06:45:57Z</time></trkpt><trkpt lat="43.49027386403981" lon="11.415936674271292"><ele>554.0</ele><time>2026-04-11T06:45:58Z</time></trkpt><trkpt lat="43.49024146208746" lon="11.416057055809206"><ele>554.3333333333333</ele><time>2026-04-11T06:46:02Z</time></trkpt><trkpt lat="43.490210298251576" lon="11.416154533672522"><ele>554.6666666666666</ele><time>2026-04-11T06:46:04Z</time></trkpt><trkpt lat="43.49018477039404" lon="11.41625584512992"><ele>555.0</ele><time>2026-04-11T06:46:06Z</time></trkpt><trkpt lat="43.49016132516282" lon="11.416380663018602"><ele>555.3333333333334</ele><time>2026-04-11T06:46:08Z</time></trkpt><trkpt lat="43.49013902525475" lon="11.416483505737125"><ele>555.6666666666667</ele><time>2026-04-11T06:46:10Z</time></trkpt><trkpt lat="43.49013984853985" lon="11.416629801445003"><ele>556.0</ele><time>2026-04-11T06:46:12Z</time></trkpt><trkpt lat="43.49012242680743" lon="11.416767403304208"><ele>557.0</ele><time>2026-04-11T06:46:14Z</time></trkpt><trkpt lat="43.49013346813507" lon="11.416871872868043"><ele>558.0</ele><time>2026-04-11T06:46:16Z</time></trkpt><trkpt lat="43.49014187653835" lon="11.416963070108078"><ele>559.0</ele><time>2026-04-11T06:46:18Z</time></trkpt><trkpt lat="43.49015480147414" lon="11.41708745329405"><ele>560.0</ele><time>2026-04-11T06:46:21Z</time></trkpt><trkpt lat="43.49015571322558" lon="11.417188319910919"><ele>561.0</ele><time>2026-04-11T06:46:23Z</time></trkpt><trkpt lat="43.49019336434408" lon="11.417294125533886"><ele>562.0</ele><time>2026-04-11T06:46:26Z</time></trkpt><trkpt lat="43.49022514829808" lon="11.417369767027767"><ele>561.5</ele><time>2026-04-11T06:46:28Z</time></trkpt><trkpt lat="43.49028327001334" lon="11.417458176267447"><ele>561.0</ele><time>2026-04-11T06:46:31Z</time></trkpt><trkpt lat="43.49033302577699" lon="11.417523423946202"><ele>560.5</ele><time>2026-04-11T06:46:33Z</time></trkpt><trkpt lat="43.4903898717994" lon="11.417640293649976"><ele>560.0</ele><time>2026-04-11T06:46:35Z</time></trkpt><trkpt lat="43.49043316873661" lon="11.417750056224234"><ele>559.5</ele><time>2026-04-11T06:46:37Z</time></trkpt><trkpt lat="43.49047794168082" lon="11.417829073089074"><ele>559.0</ele><time>2026-04-11T06:46:39Z</time></trkpt><trkpt lat="43.490545178795976" lon="11.417873092558889"><ele>559.0</ele><time>2026-04-11T06:46:41Z</time></trkpt><trkpt lat="43.4906145264412" lon="11.417928518487438"><ele>559.0</ele><time>2026-04-11T06:46:43Z</time></trkpt><trkpt lat="43.490693693900475" lon="11.417972019982015"><ele>559.0</ele><time>2026-04-11T06:46:45Z</time></trkpt><trkpt lat="43.49077155797835" lon="11.418056226029996"><ele>559.0</ele><time>2026-04-11T06:46:47Z</time></trkpt><trkpt lat="43.49082909587858" lon="11.418122756497587"><ele>559.0</ele><time>2026-04-11T06:46:49Z</time></trkpt><trkpt lat="43.49087878951957" lon="11.418211653397664"><ele>559.0</ele><time>2026-04-11T06:46:51Z</time></trkpt><trkpt lat="43.490898075382304" lon="11.418325268600494"><ele>559.8</ele><time>2026-04-11T06:46:53Z</time></trkpt><trkpt lat="43.490931375458196" lon="11.418429279830436"><ele>560.5999999999999</ele><time>2026-04-11T06:46:55Z</time></trkpt><trkpt lat="43.49094332301907" lon="11.41855221688504"><ele>561.4</ele><time>2026-04-11T06:46:57Z</time></trkpt><trkpt lat="43.490948161929275" lon="11.418686601132613"><ele>562.1999999999999</ele><time>2026-04-11T06:46:59Z</time></trkpt><trkpt lat="43.49098208868618" lon="11.418812746021043"><ele>563.0</ele><time>2026-04-11T06:47:01Z</time></trkpt><trkpt lat="43.49096447583326" lon="11.418973043089517"><ele>563.0</ele><time>2026-04-11T06:47:03Z</time></trkpt><trkpt lat="43.49098578334186" lon="11.419105147164007"><ele>563.0</ele><time>2026-04-11T06:47:05Z</time></trkpt><trkpt lat="43.49101102601924" lon="11.419261057742158"><ele>563.0</ele><time>2026-04-11T06:47:07Z</time></trkpt><trkpt lat="43.4910535857646" lon="11.419430122658559"><ele>563.0</ele><time>2026-04-11T06:47:09Z</time></trkpt><trkpt lat="43.491063187465365" lon="11.419517232970701"><ele>563.0</ele><time>2026-04-11T06:47:10Z</time></trkpt><trkpt lat="43.491091565686894" lon="11.41960588526524"><ele>562.0</ele><time>2026-04-11T06:47:11Z</time></trkpt><trkpt lat="43.49112216693491" lon="11.419695645621276"><ele>561.0</ele><time>2026-04-11T06:47:12Z</time></trkpt><trkpt lat="43.49114715086854" lon="11.419808403012041"><ele>560.0</ele><time>2026-04-11T06:47:13Z</time></trkpt><trkpt lat="43.491137929717354" lon="11.419930499068908"><ele>559.0</ele><time>2026-04-11T06:47:14Z</time></trkpt><trkpt lat="43.49115142048336" lon="11.420038388992792"><ele>558.0</ele><time>2026-04-11T06:47:15Z</time></trkpt><trkpt lat="43.4911744247344" lon="11.420162984482149"><ele>557.0</ele><time>2026-04-11T06:47:16Z</time></trkpt><trkpt lat="43.491188091510146" lon="11.420269222751191"><ele>557.0</ele><time>2026-04-11T06:47:17Z</time></trkpt><trkpt lat="43.49120312408186" lon="11.42036303183698"><ele>557.0</ele><time>2026-04-11T06:47:18Z</time></trkpt><trkpt lat="43.49123570148315" lon="11.420440799082908"><ele>557.0</ele><time>2026-04-11T06:47:19Z</time></trkpt><trkpt lat="43.491256074206724" lon="11.420546237772573"><ele>557.0</ele><time>2026-04-11T06:47:20Z</time></trkpt><trkpt lat="43.491274126123216" lon="11.420726177885124"><ele>557.0</ele><time>2026-04-11T06:47:22Z</time></trkpt><trkpt lat="43.49130411647568" lon="11.420826063238284"><ele>557.0</ele><time>2026-04-11T06:47:24Z</time></trkpt><trkpt lat="43.49131177391714" lon="11.42096860675383"><ele>557.5</ele><time>2026-04-11T06:47:26Z</time></trkpt><trkpt lat="43.491295850599336" lon="11.421062881721848"><ele>558.0</ele><time>2026-04-11T06:47:28Z</time></trkpt><trkpt lat="43.49125330403585" lon="11.421130148011597"><ele>558.5</ele><time>2026-04-11T06:47:30Z</time></trkpt><trkpt lat="43.491151668834995" lon="11.421182127421442"><ele>559.0</ele><time>2026-04-11T06:47:34Z</time></trkpt><trkpt lat="43.49105056856564" lon="11.421219870310322"><ele>559.5</ele><time>2026-04-11T06:47:37Z</time></trkpt><trkpt lat="43.49097754085071" lon="11.42123956518267"><ele>560.0</ele><time>2026-04-11T06:47:39Z</time></trkpt><trkpt lat="43.490883249883" lon="11.421274182380749"><ele>560.0</ele><time>2026-04-11T06:47:41Z</time></trkpt><trkpt lat="43.490818206046534" lon="11.421300807196845"><ele>560.0</ele><time>2026-04-11T06:47:43Z</time></trkpt><trkpt lat="43.490728678348475" lon="11.421327552567675"><ele>560.0</ele><time>2026-04-11T06:47:45Z</time></trkpt><trkpt lat="43.490630212968334" lon="11.42135365788059"><ele>560.0</ele><time>2026-04-11T06:47:47Z</time></trkpt><trkpt lat="43.49053976927529" lon="11.42136684846922"><ele>560.0</ele><time>2026-04-11T06:47:49Z</time></trkpt><trkpt lat="43.49044259365474" lon="11.421406304661588"><ele>561.6</ele><time>2026-04-11T06:47:51Z</time></trkpt><trkpt lat="43.490354128787175" lon="11.421421863484367"><ele>563.2</ele><time>2026-04-11T06:47:53Z</time></trkpt><trkpt lat="43.49026143510216" lon="11.42145329669761"><ele>564.8</ele><time>2026-04-11T06:47:55Z</time></trkpt><trkpt lat="43.49019797369157" lon="11.421447097110761"><ele>566.4</ele><time>2026-04-11T06:47:56Z</time></trkpt><trkpt lat="43.4900979221818" lon="11.42147269141318"><ele>568.0</ele><time>2026-04-11T06:47:58Z</time></trkpt><trkpt lat="43.489995749822164" lon="11.421542533739988"><ele>568.0</ele><time>2026-04-11T06:48:00Z</time></trkpt><trkpt lat="43.48992952344411" lon="11.42154126720869"><ele>568.0</ele><time>2026-04-11T06:48:01Z</time></trkpt><trkpt lat="43.48986620217756" lon="11.421561666711508"><ele>568.0</ele><time>2026-04-11T06:48:02Z</time></trkpt><trkpt lat="43.48974203199439" lon="11.421608528447138"><ele>568.0</ele><time>2026-04-11T06:48:04Z</time></trkpt><trkpt lat="43.489668286480864" lon="11.421638925283974"><ele>568.0</ele><time>2026-04-11T06:48:05Z</time></trkpt><trkpt lat="43.489545114200794" lon="11.421725390138779"><ele>564.8</ele><time>2026-04-11T06:48:06Z</time></trkpt><trkpt lat="43.48944208550005" lon="11.42178910407029"><ele>561.5999999999999</ele><time>2026-04-11T06:48:07Z</time></trkpt><trkpt lat="43.48931900357757" lon="11.421843902041221"><ele>558.4000000000001</ele><time>2026-04-11T06:48:08Z</time></trkpt><trkpt lat="43.48924978062965" lon="11.421879873635966"><ele>555.2</ele><time>2026-04-11T06:48:09Z</time></trkpt><trkpt lat="43.48917040098013" lon="11.421886708214847"><ele>552.0</ele><time>2026-04-11T06:48:10Z</time></trkpt><trkpt lat="43.489091583995204" lon="11.421882643128123"><ele>552.0</ele><time>2026-04-11T06:48:11Z</time></trkpt><trkpt lat="43.48897194265093" lon="11.421885696865735"><ele>552.0</ele><time>2026-04-11T06:48:13Z</time></trkpt><trkpt lat="43.48888382813161" lon="11.421912012728017"><ele>552.0</ele><time>2026-04-11T06:48:15Z</time></trkpt><trkpt lat="43.4887731488435" lon="11.421917269215857"><ele>552.0</ele><time>2026-04-11T06:48:17Z</time></trkpt><trkpt lat="43.48866557970073" lon="11.421959184292662"><ele>552.0</ele><time>2026-04-11T06:48:19Z</time></trkpt><trkpt lat="43.4886036097057" lon="11.422005268324972"><ele>553.0</ele><time>2026-04-11T06:48:20Z</time></trkpt><trkpt lat="43.4885486119124" lon="11.42204905130817"><ele>554.0</ele><time>2026-04-11T06:48:21Z</time></trkpt><trkpt lat="43.488487870695096" lon="11.422075025528603"><ele>555.0</ele><time>2026-04-11T06:48:22Z</time></trkpt><trkpt lat="43.48840246387519" lon="11.422159399517877"><ele>556.0</ele><time>2026-04-11T06:48:24Z</time></trkpt><trkpt lat="43.488349047090004" lon="11.422259039612767"><ele>557.0</ele><time>2026-04-11T06:48:26Z</time></trkpt><trkpt lat="43.48830643471203" lon="11.422404765125826"><ele>558.0</ele><time>2026-04-11T06:48:28Z</time></trkpt><trkpt lat="43.48828269640436" lon="11.422574353499485"><ele>558.0</ele><time>2026-04-11T06:48:30Z</time></trkpt><trkpt lat="43.48824310927718" lon="11.422699317667613"><ele>558.0</ele><time>2026-04-11T06:48:32Z</time></trkpt><trkpt lat="43.48819077858468" lon="11.422781495055354"><ele>558.0</ele><time>2026-04-11T06:48:34Z</time></trkpt><trkpt lat="43.4881316557372" lon="11.422812525595413"><ele>558.0</ele><time>2026-04-11T06:48:36Z</time></trkpt><trkpt lat="43.48802499529054" lon="11.42273255707352"><ele>558.0</ele><time>2026-04-11T06:48:39Z</time></trkpt><trkpt lat="43.48793599462274" lon="11.422658100349112"><ele>557.3333333333334</ele><time>2026-04-11T06:48:41Z</time></trkpt><trkpt lat="43.48785091556392" lon="11.42258031282069"><ele>556.6666666666666</ele><time>2026-04-11T06:48:43Z</time></trkpt><trkpt lat="43.4877482545496" lon="11.422507545541709"><ele>556.0</ele><time>2026-04-11T06:48:45Z</time></trkpt><trkpt lat="43.48768461577813" lon="11.422421602287576"><ele>555.3333333333333</ele><time>2026-04-11T06:48:47Z</time></trkpt><trkpt lat="43.48762242529105" lon="11.422361839188037"><ele>554.6666666666666</ele><time>2026-04-11T06:48:48Z</time></trkpt><trkpt lat="43.48756851706669" lon="11.422311194482955"><ele>554.0</ele><time>2026-04-11T06:48:49Z</time></trkpt><trkpt lat="43.487513827774535" lon="11.422260016909178"><ele>554.0</ele><time>2026-04-11T06:48:50Z</time></trkpt><trkpt lat="43.4874364673824" lon="11.422187624022717"><ele>554.0</ele><time>2026-04-11T06:48:51Z</time></trkpt><trkpt lat="43.48736054006809" lon="11.422114602828213"><ele>554.0</ele><time>2026-04-11T06:48:52Z</time></trkpt><trkpt lat="43.487287107943985" lon="11.422038883092691"><ele>554.0</ele><time>2026-04-11T06:48:53Z</time></trkpt><trkpt lat="43.48722303248124" lon="11.42196144063401"><ele>554.0</ele><time>2026-04-11T06:48:54Z</time></trkpt><trkpt lat="43.48716986696101" lon="11.421883587872927"><ele>554.0</ele><time>2026-04-11T06:48:55Z</time></trkpt><trkpt lat="43.48709523655243" lon="11.421845377185043"><ele>552.1666666666666</ele><time>2026-04-11T06:48:56Z</time></trkpt><trkpt lat="43.487062739175144" lon="11.421752905956714"><ele>550.3333333333333</ele><time>2026-04-11T06:48:57Z</time></trkpt><trkpt lat="43.48701518862089" lon="11.421653109648169"><ele>548.5</ele><time>2026-04-11T06:48:58Z</time></trkpt><trkpt lat="43.486976230793275" lon="11.421572309936249"><ele>546.6666666666666</ele><time>2026-04-11T06:48:59Z</time></trkpt><trkpt lat="43.48694414315076" lon="11.421465648417936"><ele>544.8333333333334</ele><time>2026-04-11T06:49:00Z</time></trkpt><trkpt lat="43.486896188823124" lon="11.42137510475423"><ele>543.0</ele><time>2026-04-11T06:49:01Z</time></trkpt><trkpt lat="43.48685067798796" lon="11.42128848058797"><ele>542.8333333333334</ele><time>2026-04-11T06:49:02Z</time></trkpt><trkpt lat="43.48680673976323" lon="11.42120484970956"><ele>542.6666666666666</ele><time>2026-04-11T06:49:03Z</time></trkpt><trkpt lat="43.48674731377625" lon="11.421118823636144"><ele>542.5</ele><time>2026-04-11T06:49:04Z</time></trkpt><trkpt lat="43.48669956068449" lon="11.421025988152362"><ele>542.3333333333333</ele><time>2026-04-11T06:49:05Z</time></trkpt><trkpt lat="43.48664838789963" lon="11.4209454358491"><ele>542.1666666666666</ele><time>2026-04-11T06:49:06Z</time></trkpt><trkpt lat="43.48659973080717" lon="11.42086583984698"><ele>542.0</ele><time>2026-04-11T06:49:07Z</time></trkpt><trkpt lat="43.48655383916936" lon="11.420779322929667"><ele>542.0</ele><time>2026-04-11T06:49:08Z</time></trkpt><trkpt lat="43.486503558201754" lon="11.42069241332586"><ele>542.0</ele><time>2026-04-11T06:49:09Z</time></trkpt><trkpt lat="43.486452637707835" lon="11.420619200033391"><ele>542.0</ele><time>2026-04-11T06:49:10Z</time></trkpt><trkpt lat="43.48639306111979" lon="11.42054340584285"><ele>542.0</ele><time>2026-04-11T06:49:11Z</time></trkpt><trkpt lat="43.48632518783783" lon="11.420487415225887"><ele>542.0</ele><time>2026-04-11T06:49:12Z</time></trkpt><trkpt lat="43.48626180788999" lon="11.420429267676774"><ele>542.0</ele><time>2026-04-11T06:49:13Z</time></trkpt><trkpt lat="43.48619914225339" lon="11.42037869401916"><ele>542.8333333333333</ele><time>2026-04-11T06:49:14Z</time></trkpt><trkpt lat="43.486140694572406" lon="11.420332364817424"><ele>543.6666666666666</ele><time>2026-04-11T06:49:15Z</time></trkpt><trkpt lat="43.48608358687604" lon="11.420287029676421"><ele>544.5</ele><time>2026-04-11T06:49:16Z</time></trkpt><trkpt lat="43.486017556307154" lon="11.420263135593109"><ele>545.3333333333334</ele><time>2026-04-11T06:49:17Z</time></trkpt><trkpt lat="43.48591097577681" lon="11.42020257550216"><ele>546.1666666666667</ele><time>2026-04-11T06:49:19Z</time></trkpt><trkpt lat="43.48581800559646" lon="11.420135322934541"><ele>547.0</ele><time>2026-04-11T06:49:21Z</time></trkpt><trkpt lat="43.4857235890433" lon="11.420067669472454"><ele>547.0</ele><time>2026-04-11T06:49:23Z</time></trkpt><trkpt lat="43.485631808283735" lon="11.420031869052973"><ele>547.0</ele><time>2026-04-11T06:49:25Z</time></trkpt><trkpt lat="43.485535889356655" lon="11.41998803208635"><ele>547.0</ele><time>2026-04-11T06:49:27Z</time></trkpt><trkpt lat="43.48545345895036" lon="11.419919636213237"><ele>547.0</ele><time>2026-04-11T06:49:29Z</time></trkpt><trkpt lat="43.48535453163079" lon="11.419901201293131"><ele>547.0</ele><time>2026-04-11T06:49:31Z</time></trkpt><trkpt lat="43.48526901991809" lon="11.419849048014731"><ele>546.8000000000001</ele><time>2026-04-11T06:49:33Z</time></trkpt><trkpt lat="43.485170713537876" lon="11.419810429375007"><ele>546.6</ele><time>2026-04-11T06:49:35Z</time></trkpt><trkpt lat="43.485093500420376" lon="11.419764781444622"><ele>546.4000000000001</ele><time>2026-04-11T06:49:37Z</time></trkpt><trkpt lat="43.48501788707314" lon="11.419708312057322"><ele>546.2</ele><time>2026-04-11T06:49:39Z</time></trkpt><trkpt lat="43.48492945459002" lon="11.419670234319085"><ele>546.0</ele><time>2026-04-11T06:49:41Z</time></trkpt><trkpt lat="43.48485014627261" lon="11.419615391276269"><ele>546.0</ele><time>2026-04-11T06:49:43Z</time></trkpt><trkpt lat="43.4847721794365" lon="11.419626441816341"><ele>546.0</ele><time>2026-04-11T06:49:47Z</time></trkpt><trkpt lat="43.48467627584275" lon="11.419575616927178"><ele>546.0</ele><time>2026-04-11T06:49:49Z</time></trkpt><trkpt lat="43.484583559454556" lon="11.41952470438292"><ele>546.0</ele><time>2026-04-11T06:49:51Z</time></trkpt><trkpt lat="43.48449308726304" lon="11.419502165359555"><ele>546.0</ele><time>2026-04-11T06:49:53Z</time></trkpt><trkpt lat="43.484396042370214" lon="11.419505081145251"><ele>546.3333333333334</ele><time>2026-04-11T06:49:57Z</time></trkpt><trkpt lat="43.4843502692957" lon="11.419567917905818"><ele>546.6666666666666</ele><time>2026-04-11T06:50:00Z</time></trkpt><trkpt lat="43.48427411199758" lon="11.419667613787011"><ele>547.0</ele><time>2026-04-11T06:50:04Z</time></trkpt><trkpt lat="43.48420447118466" lon="11.419718623623174"><ele>547.3333333333333</ele><time>2026-04-11T06:50:05Z</time></trkpt><trkpt lat="43.484118626301196" lon="11.41976355836482"><ele>547.6666666666666</ele><time>2026-04-11T06:50:06Z</time></trkpt><trkpt lat="43.484031472783535" lon="11.419789752256062"><ele>548.0</ele><time>2026-04-11T06:50:07Z</time></trkpt><trkpt lat="43.48386326063268" lon="11.419611469419879"><ele>547.4</ele><time>2026-04-11T06:50:08Z</time></trkpt><trkpt lat="43.48377666084414" lon="11.41966918033634"><ele>546.8</ele><time>2026-04-11T06:50:09Z</time></trkpt><trkpt lat="43.483695529342064" lon="11.419721299966273"><ele>546.2</ele><time>2026-04-11T06:50:10Z</time></trkpt><trkpt lat="43.48357119761521" lon="11.419812256658503"><ele>545.6</ele><time>2026-04-11T06:50:11Z</time></trkpt><trkpt lat="43.483496771652256" lon="11.419860581195993"><ele>545.0</ele><time>2026-04-11T06:50:12Z</time></trkpt><trkpt lat="43.483424812104246" lon="11.41991449865551"><ele>545.0</ele><time>2026-04-11T06:50:13Z</time></trkpt><trkpt lat="43.48334812251534" lon="11.419962256137438"><ele>545.0</ele><time>2026-04-11T06:50:14Z</time></trkpt><trkpt lat="43.48327154636313" lon="11.419994344443095"><ele>545.0</ele><time>2026-04-11T06:50:15Z</time></trkpt><trkpt lat="43.48320372175964" lon="11.420038456883567"><ele>545.0</ele><time>2026-04-11T06:50:16Z</time></trkpt><trkpt lat="43.48313652533986" lon="11.420082160688422"><ele>545.0</ele><time>2026-04-11T06:50:17Z</time></trkpt><trkpt lat="43.4830652426668" lon="11.420128522330241"><ele>545.0</ele><time>2026-04-11T06:50:18Z</time></trkpt><trkpt lat="43.482992792316864" lon="11.420177737035266"><ele>543.5</ele><time>2026-04-11T06:50:19Z</time></trkpt><trkpt lat="43.48292940068017" lon="11.420236459135802"><ele>542.0</ele><time>2026-04-11T06:50:20Z</time></trkpt><trkpt lat="43.48286481066841" lon="11.420289041902468"><ele>540.5</ele><time>2026-04-11T06:50:21Z</time></trkpt><trkpt lat="43.48278719464972" lon="11.420310923720404"><ele>539.0</ele><time>2026-04-11T06:50:22Z</time></trkpt><trkpt lat="43.4827197581685" lon="11.420355087111822"><ele>537.5</ele><time>2026-04-11T06:50:23Z</time></trkpt><trkpt lat="43.48265449180126" lon="11.42040815686417"><ele>536.0</ele><time>2026-04-11T06:50:24Z</time></trkpt><trkpt lat="43.48257795906302" lon="11.420450014452252"><ele>537.3333333333333</ele><time>2026-04-11T06:50:25Z</time></trkpt><trkpt lat="43.48251798221894" lon="11.42050046253896"><ele>538.6666666666666</ele><time>2026-04-11T06:50:26Z</time></trkpt><trkpt lat="43.48245588603822" lon="11.42055120431585"><ele>540.0</ele><time>2026-04-11T06:50:27Z</time></trkpt><trkpt lat="43.48239583867797" lon="11.420606542984803"><ele>541.3333333333334</ele><time>2026-04-11T06:50:28Z</time></trkpt><trkpt lat="43.48232791610518" lon="11.420653424227462"><ele>542.6666666666667</ele><time>2026-04-11T06:50:29Z</time></trkpt><trkpt lat="43.48225875331334" lon="11.420701421600521"><ele>544.0</ele><time>2026-04-11T06:50:30Z</time></trkpt><trkpt lat="43.482180594271234" lon="11.42074769329395"><ele>544.0</ele><time>2026-04-11T06:50:31Z</time></trkpt><trkpt lat="43.48211219031579" lon="11.420789830867866"><ele>544.0</ele><time>2026-04-11T06:50:32Z</time></trkpt><trkpt lat="43.48204324054468" lon="11.4208508751219"><ele>544.0</ele><time>2026-04-11T06:50:33Z</time></trkpt><trkpt lat="43.48197774850962" lon="11.420907990931301"><ele>544.0</ele><time>2026-04-11T06:50:34Z</time></trkpt><trkpt lat="43.48191062483851" lon="11.42094256058377"><ele>544.0</ele><time>2026-04-11T06:50:35Z</time></trkpt><trkpt lat="43.48184149936068" lon="11.421009607205123"><ele>544.0</ele><time>2026-04-11T06:50:36Z</time></trkpt><trkpt lat="43.481779107692375" lon="11.42104496537944"><ele>542.8333333333334</ele><time>2026-04-11T06:50:37Z</time></trkpt><trkpt lat="43.481712823081224" lon="11.421097623223181"><ele>541.6666666666667</ele><time>2026-04-11T06:50:38Z</time></trkpt><trkpt lat="43.48164982950178" lon="11.421172003082013"><ele>540.5</ele><time>2026-04-11T06:50:39Z</time></trkpt><trkpt lat="43.48155753807504" lon="11.421215996321404"><ele>539.3333333333334</ele><time>2026-04-11T06:50:40Z</time></trkpt><trkpt lat="43.48149167961212" lon="11.421281384575675"><ele>538.1666666666666</ele><time>2026-04-11T06:50:41Z</time></trkpt><trkpt lat="43.48142316125829" lon="11.421349923354477"><ele>537.0</ele><time>2026-04-11T06:50:42Z</time></trkpt><trkpt lat="43.481358269294184" lon="11.421406359439008"><ele>537.1428571428571</ele><time>2026-04-11T06:50:43Z</time></trkpt><trkpt lat="43.481284509502444" lon="11.421443141291396"><ele>537.2857142857142</ele><time>2026-04-11T06:50:44Z</time></trkpt><trkpt lat="43.481223707400446" lon="11.421493543299226"><ele>537.4285714285714</ele><time>2026-04-11T06:50:45Z</time></trkpt><trkpt lat="43.48116209819197" lon="11.421544614369328"><ele>537.5714285714286</ele><time>2026-04-11T06:50:46Z</time></trkpt><trkpt lat="43.4810996382385" lon="11.421596390717713"><ele>537.7142857142858</ele><time>2026-04-11T06:50:47Z</time></trkpt><trkpt lat="43.48104022694769" lon="11.421646005905252"><ele>537.8571428571429</ele><time>2026-04-11T06:50:48Z</time></trkpt><trkpt lat="43.48098870258364" lon="11.421715573643821"><ele>538.0</ele><time>2026-04-11T06:50:49Z</time></trkpt><trkpt lat="43.480923357290365" lon="11.421743284820957"><ele>538.0</ele><time>2026-04-11T06:50:50Z</time></trkpt><trkpt lat="43.48086243195239" lon="11.421793232044553"><ele>538.0</ele><time>2026-04-11T06:50:51Z</time></trkpt><trkpt lat="43.48080336115081" lon="11.421841658878675"><ele>538.0</ele><time>2026-04-11T06:50:52Z</time></trkpt><trkpt lat="43.480739610183385" lon="11.42189246507588"><ele>538.0</ele><time>2026-04-11T06:50:53Z</time></trkpt><trkpt lat="43.480687470335795" lon="11.421958509660369"><ele>538.0</ele><time>2026-04-11T06:50:54Z</time></trkpt><trkpt lat="43.480621253276816" lon="11.421982685987748"><ele>538.0</ele><time>2026-04-11T06:50:55Z</time></trkpt><trkpt lat="43.48054506343681" lon="11.42205612992906"><ele>538.0</ele><time>2026-04-11T06:50:56Z</time></trkpt><trkpt lat="43.48041781528777" lon="11.422133878179121"><ele>537.0</ele><time>2026-04-11T06:50:58Z</time></trkpt><trkpt lat="43.48036056361435" lon="11.422179742784373"><ele>536.0</ele><time>2026-04-11T06:50:59Z</time></trkpt><trkpt lat="43.48027492963055" lon="11.42227909157054"><ele>535.0</ele><time>2026-04-11T06:51:00Z</time></trkpt><trkpt lat="43.48019208615484" lon="11.422345551552862"><ele>534.0</ele><time>2026-04-11T06:51:01Z</time></trkpt><trkpt lat="43.48013123777233" lon="11.422385922177424"><ele>533.0</ele><time>2026-04-11T06:51:02Z</time></trkpt><trkpt lat="43.48000673796712" lon="11.422515384786509"><ele>533.0</ele><time>2026-04-11T06:51:04Z</time></trkpt><trkpt lat="43.47994798314229" lon="11.422581075338359"><ele>533.0</ele><time>2026-04-11T06:51:05Z</time></trkpt><trkpt lat="43.47988420963992" lon="11.422657138501194"><ele>533.0</ele><time>2026-04-11T06:51:06Z</time></trkpt><trkpt lat="43.47982810065988" lon="11.422748712649367"><ele>533.0</ele><time>2026-04-11T06:51:07Z</time></trkpt><trkpt lat="43.47976711695819" lon="11.422820356746593"><ele>533.0</ele><time>2026-04-11T06:51:08Z</time></trkpt><trkpt lat="43.479672652362474" lon="11.422878693096365"><ele>533.0</ele><time>2026-04-11T06:51:09Z</time></trkpt><trkpt lat="43.47961984271838" lon="11.422965925032882"><ele>533.1999999999999</ele><time>2026-04-11T06:51:10Z</time></trkpt><trkpt lat="43.479558124475645" lon="11.423029911896712"><ele>533.4</ele><time>2026-04-11T06:51:11Z</time></trkpt><trkpt lat="43.47949700746811" lon="11.423088145044"><ele>533.5999999999999</ele><time>2026-04-11T06:51:12Z</time></trkpt><trkpt lat="43.479421231025505" lon="11.423265174926541"><ele>533.8</ele><time>2026-04-11T06:51:14Z</time></trkpt><trkpt lat="43.47935265936172" lon="11.423423446712537"><ele>534.0</ele><time>2026-04-11T06:51:16Z</time></trkpt><trkpt lat="43.47932443730516" lon="11.423505667527294"><ele>534.0</ele><time>2026-04-11T06:51:17Z</time></trkpt><trkpt lat="43.47925246265826" lon="11.423611526407095"><ele>534.0</ele><time>2026-04-11T06:51:19Z</time></trkpt><trkpt lat="43.47919526701727" lon="11.423708206144251"><ele>534.0</ele><time>2026-04-11T06:51:21Z</time></trkpt><trkpt lat="43.479158368944184" lon="11.42378037472995"><ele>534.0</ele><time>2026-04-11T06:51:22Z</time></trkpt><trkpt lat="43.47910778582105" lon="11.42387346428619"><ele>534.0</ele><time>2026-04-11T06:51:24Z</time></trkpt><trkpt lat="43.479042385259234" lon="11.42396368975505"><ele>534.0</ele><time>2026-04-11T06:51:26Z</time></trkpt><trkpt lat="43.47897380202008" lon="11.424029441370532"><ele>532.8</ele><time>2026-04-11T06:51:28Z</time></trkpt><trkpt lat="43.478882303313085" lon="11.424131543267915"><ele>531.5999999999999</ele><time>2026-04-11T06:51:30Z</time></trkpt><trkpt lat="43.47881667934396" lon="11.424190659586166"><ele>530.4</ele><time>2026-04-11T06:51:31Z</time></trkpt><trkpt lat="43.478760135491505" lon="11.42424796891122"><ele>529.1999999999999</ele><time>2026-04-11T06:51:32Z</time></trkpt><trkpt lat="43.47866137493787" lon="11.424330071326759"><ele>528.0</ele><time>2026-04-11T06:51:34Z</time></trkpt><trkpt lat="43.478547962898716" lon="11.424397982332879"><ele>527.0</ele><time>2026-04-11T06:51:36Z</time></trkpt><trkpt lat="43.478486626996066" lon="11.424434408954863"><ele>526.0</ele><time>2026-04-11T06:51:37Z</time></trkpt><trkpt lat="43.47842853381426" lon="11.424482513730558"><ele>525.0</ele><time>2026-04-11T06:51:38Z</time></trkpt><trkpt lat="43.47832181742395" lon="11.424546924941433"><ele>524.0</ele><time>2026-04-11T06:51:40Z</time></trkpt><trkpt lat="43.478252418852136" lon="11.424585682488955"><ele>523.0</ele><time>2026-04-11T06:51:41Z</time></trkpt><trkpt lat="43.478181342257834" lon="11.424644802141675"><ele>522.0</ele><time>2026-04-11T06:51:43Z</time></trkpt><trkpt lat="43.47809872529538" lon="11.424698704256327"><ele>522.0</ele><time>2026-04-11T06:51:45Z</time></trkpt><trkpt lat="43.47802980908903" lon="11.424722721032827"><ele>522.0</ele><time>2026-04-11T06:51:47Z</time></trkpt><trkpt lat="43.477953885977705" lon="11.42473876246993"><ele>522.0</ele><time>2026-04-11T06:51:49Z</time></trkpt><trkpt lat="43.47794427817797" lon="11.424568953093909"><ele>522.0</ele><time>2026-04-11T06:51:50Z</time></trkpt><trkpt lat="43.477849380905376" lon="11.424420379984614"><ele>522.0</ele><time>2026-04-11T06:51:52Z</time></trkpt><trkpt lat="43.47780324887765" lon="11.424346491928954"><ele>519.2</ele><time>2026-04-11T06:51:53Z</time></trkpt><trkpt lat="43.47776107063158" lon="11.424278936378393"><ele>516.4000000000001</ele><time>2026-04-11T06:51:54Z</time></trkpt><trkpt lat="43.47768478697047" lon="11.424156755413396"><ele>513.5999999999999</ele><time>2026-04-11T06:51:56Z</time></trkpt><trkpt lat="43.47761313913015" lon="11.424041999523999"><ele>510.79999999999995</ele><time>2026-04-11T06:51:58Z</time></trkpt><trkpt lat="43.47756654233907" lon="11.42396736703331"><ele>508.0</ele><time>2026-04-11T06:51:59Z</time></trkpt><trkpt lat="43.47750356069144" lon="11.423876985360206"><ele>508.00000000000006</ele><time>2026-04-11T06:52:00Z</time></trkpt><trkpt lat="43.477457320982545" lon="11.423813497204414"><ele>508.0</ele><time>2026-04-11T06:52:01Z</time></trkpt><trkpt lat="43.47741234962217" lon="11.423751710829812"><ele>508.0</ele><time>2026-04-11T06:52:02Z</time></trkpt><trkpt lat="43.47735764962087" lon="11.423676558282088"><ele>508.0</ele><time>2026-04-11T06:52:03Z</time></trkpt><trkpt lat="43.47729629956657" lon="11.423592269150213"><ele>508.00000000000006</ele><time>2026-04-11T06:52:04Z</time></trkpt><trkpt lat="43.47723488094482" lon="11.423507885907485"><ele>508.0</ele><time>2026-04-11T06:52:05Z</time></trkpt><trkpt lat="43.477178801173416" lon="11.423429648184818"><ele>508.0</ele><time>2026-04-11T06:52:06Z</time></trkpt><trkpt lat="43.47710987529567" lon="11.423333314985607"><ele>507.99999999999994</ele><time>2026-04-11T06:52:07Z</time></trkpt><trkpt lat="43.47703976474198" lon="11.423268345134355"><ele>507.99999999999994</ele><time>2026-04-11T06:52:08Z</time></trkpt><trkpt lat="43.47698699869717" lon="11.423194840309177"><ele>508.0</ele><time>2026-04-11T06:52:09Z</time></trkpt><trkpt lat="43.47693095523696" lon="11.423091309604104"><ele>508.0</ele><time>2026-04-11T06:52:11Z</time></trkpt><trkpt lat="43.47685223377964" lon="11.42299378556586"><ele>507.2</ele><time>2026-04-11T06:52:13Z</time></trkpt><trkpt lat="43.47679007458103" lon="11.422930477303154"><ele>506.4</ele><time>2026-04-11T06:52:15Z</time></trkpt><trkpt lat="43.47670133222941" lon="11.422861049765718"><ele>505.59999999999997</ele><time>2026-04-11T06:52:17Z</time></trkpt><trkpt lat="43.47664029259151" lon="11.422821025935418"><ele>504.79999999999995</ele><time>2026-04-11T06:52:18Z</time></trkpt><trkpt lat="43.4765336646566" lon="11.422763947963066"><ele>504.0</ele><time>2026-04-11T06:52:20Z</time></trkpt><trkpt lat="43.47641258834804" lon="11.422691978098985"><ele>504.0</ele><time>2026-04-11T06:52:22Z</time></trkpt><trkpt lat="43.47634233913452" lon="11.422640374780674"><ele>504.0</ele><time>2026-04-11T06:52:23Z</time></trkpt><trkpt lat="43.47627615102009" lon="11.422600964403298"><ele>504.0</ele><time>2026-04-11T06:52:24Z</time></trkpt><trkpt lat="43.47621407720589" lon="11.422564003831916"><ele>504.0</ele><time>2026-04-11T06:52:25Z</time></trkpt><trkpt lat="43.47615227745405" lon="11.422527206356591"><ele>504.0</ele><time>2026-04-11T06:52:26Z</time></trkpt><trkpt lat="43.47608498701156" lon="11.422487139608414"><ele>504.0</ele><time>2026-04-11T06:52:27Z</time></trkpt><trkpt lat="43.4759633449037" lon="11.422416034873113"><ele>504.3333333333333</ele><time>2026-04-11T06:52:29Z</time></trkpt><trkpt lat="43.47587731576252" lon="11.422376619270489"><ele>504.66666666666663</ele><time>2026-04-11T06:52:31Z</time></trkpt><trkpt lat="43.47581065617407" lon="11.422371448885302"><ele>505.0</ele><time>2026-04-11T06:52:32Z</time></trkpt><trkpt lat="43.47575428104844" lon="11.42233129951149"><ele>505.3333333333333</ele><time>2026-04-11T06:52:33Z</time></trkpt><trkpt lat="43.475634578764996" lon="11.422310825055519"><ele>505.66666666666663</ele><time>2026-04-11T06:52:35Z</time></trkpt><trkpt lat="43.475555763224556" lon="11.422319455173685"><ele>506.0</ele><time>2026-04-11T06:52:37Z</time></trkpt><trkpt lat="43.47546278437213" lon="11.422374131111628"><ele>507.8333333333333</ele><time>2026-04-11T06:52:39Z</time></trkpt><trkpt lat="43.4753942394269" lon="11.422431146741115"><ele>509.66666666666663</ele><time>2026-04-11T06:52:41Z</time></trkpt><trkpt lat="43.47532721551408" lon="11.422437367489216"><ele>511.5</ele><time>2026-04-11T06:52:44Z</time></trkpt><trkpt lat="43.47527970262049" lon="11.422506582781152"><ele>513.3333333333334</ele><time>2026-04-11T06:52:47Z</time></trkpt><trkpt lat="43.475205551199934" lon="11.422554640639865"><ele>515.1666666666667</ele><time>2026-04-11T06:52:50Z</time></trkpt><trkpt lat="43.47511972463168" lon="11.422577527777237"><ele>517.0</ele><time>2026-04-11T06:52:54Z</time></trkpt><trkpt lat="43.4750598715088" lon="11.422622941358584"><ele>517.0</ele><time>2026-04-11T06:52:57Z</time></trkpt><trkpt lat="43.4749960048446" lon="11.422655632180135"><ele>517.0</ele><time>2026-04-11T06:53:00Z</time></trkpt><trkpt lat="43.474933019826416" lon="11.422647215570667"><ele>517.0</ele><time>2026-04-11T06:53:03Z</time></trkpt><trkpt lat="43.47484902963545" lon="11.422621332655114"><ele>517.0</ele><time>2026-04-11T06:53:08Z</time></trkpt><trkpt lat="43.474752291370706" lon="11.422607502108589"><ele>517.0</ele><time>2026-04-11T06:53:13Z</time></trkpt><trkpt lat="43.474680763463624" lon="11.422589473268445"><ele>517.0</ele><time>2026-04-11T06:53:17Z</time></trkpt><trkpt lat="43.47461535447292" lon="11.422591984839599"><ele>517.5</ele><time>2026-04-11T06:53:19Z</time></trkpt><trkpt lat="43.47451994247266" lon="11.422567124373106"><ele>518.0</ele><time>2026-04-11T06:53:22Z</time></trkpt><trkpt lat="43.474430455051866" lon="11.422555261492384"><ele>518.5</ele><time>2026-04-11T06:53:24Z</time></trkpt><trkpt lat="43.474359293448096" lon="11.422539092866675"><ele>519.0</ele><time>2026-04-11T06:53:28Z</time></trkpt><trkpt lat="43.4742795688842" lon="11.4225153128624"><ele>519.5</ele><time>2026-04-11T06:53:31Z</time></trkpt><trkpt lat="43.47421366142439" lon="11.422512787825989"><ele>520.0</ele><time>2026-04-11T06:53:32Z</time></trkpt><trkpt lat="43.47410251612526" lon="11.422492195972588"><ele>520.0</ele><time>2026-04-11T06:53:34Z</time></trkpt><trkpt lat="43.47402589650854" lon="11.422455970800174"><ele>520.0</ele><time>2026-04-11T06:53:35Z</time></trkpt><trkpt lat="43.473892093626425" lon="11.422385530794523"><ele>520.0</ele><time>2026-04-11T06:53:37Z</time></trkpt><trkpt lat="43.47376757736777" lon="11.422368257023797"><ele>520.0</ele><time>2026-04-11T06:53:39Z</time></trkpt><trkpt lat="43.47370605025127" lon="11.42233325148744"><ele>520.0</ele><time>2026-04-11T06:53:40Z</time></trkpt><trkpt lat="43.473605919046776" lon="11.422305233198713"><ele>519.6666666666667</ele><time>2026-04-11T06:53:42Z</time></trkpt><trkpt lat="43.47347196253406" lon="11.422246610070601"><ele>519.3333333333334</ele><time>2026-04-11T06:53:44Z</time></trkpt><trkpt lat="43.473404865371656" lon="11.422224637697203"><ele>519.0</ele><time>2026-04-11T06:53:45Z</time></trkpt><trkpt lat="43.47333652969721" lon="11.422198017570024"><ele>518.6666666666666</ele><time>2026-04-11T06:53:46Z</time></trkpt><trkpt lat="43.47326368969499" lon="11.422164865153682"><ele>518.3333333333333</ele><time>2026-04-11T06:53:47Z</time></trkpt><trkpt lat="43.47319504096441" lon="11.422118752432398"><ele>518.0</ele><time>2026-04-11T06:53:48Z</time></trkpt><trkpt lat="43.47311142253301" lon="11.422064868824155"><ele>517.8571428571429</ele><time>2026-04-11T06:53:49Z</time></trkpt><trkpt lat="43.47306951893005" lon="11.421998822430131"><ele>517.7142857142858</ele><time>2026-04-11T06:53:50Z</time></trkpt><trkpt lat="43.47299947740167" lon="11.421948844436129"><ele>517.5714285714286</ele><time>2026-04-11T06:53:51Z</time></trkpt><trkpt lat="43.47292930104207" lon="11.421879650778312"><ele>517.4285714285714</ele><time>2026-04-11T06:53:52Z</time></trkpt><trkpt lat="43.472889992108584" lon="11.421808250309063"><ele>517.2857142857143</ele><time>2026-04-11T06:53:53Z</time></trkpt><trkpt lat="43.472834298638396" lon="11.421732213400244"><ele>517.1428571428571</ele><time>2026-04-11T06:53:54Z</time></trkpt><trkpt lat="43.47278022817209" lon="11.421657559200467"><ele>517.0</ele><time>2026-04-11T06:53:55Z</time></trkpt><trkpt lat="43.472691086469816" lon="11.421577983611225"><ele>517.0</ele><time>2026-04-11T06:53:57Z</time></trkpt><trkpt lat="43.472623171855126" lon="11.421518282292807"><ele>517.0</ele><time>2026-04-11T06:53:59Z</time></trkpt><trkpt lat="43.4725565051818" lon="11.421524307314199"><ele>517.0</ele><time>2026-04-11T06:54:01Z</time></trkpt><trkpt lat="43.472497687582326" lon="11.42146998004214"><ele>517.0</ele><time>2026-04-11T06:54:03Z</time></trkpt><trkpt lat="43.472446307270616" lon="11.421381631662943"><ele>517.0</ele><time>2026-04-11T06:54:06Z</time></trkpt><trkpt lat="43.47238631387049" lon="11.421338184512695"><ele>517.0</ele><time>2026-04-11T06:54:08Z</time></trkpt><trkpt lat="43.47228466889685" lon="11.421310066346006"><ele>517.1666666666667</ele><time>2026-04-11T06:54:13Z</time></trkpt><trkpt lat="43.47220601458482" lon="11.421278193039305"><ele>517.3333333333334</ele><time>2026-04-11T06:54:16Z</time></trkpt><trkpt lat="43.47213080037604" lon="11.421280495781279"><ele>517.5</ele><time>2026-04-11T06:54:17Z</time></trkpt><trkpt lat="43.472037948624035" lon="11.421237872434986"><ele>517.6666666666666</ele><time>2026-04-11T06:54:19Z</time></trkpt><trkpt lat="43.47196179863432" lon="11.421209095184077"><ele>517.8333333333333</ele><time>2026-04-11T06:54:21Z</time></trkpt><trkpt lat="43.471900923148404" lon="11.421142995254876"><ele>518.0</ele><time>2026-04-11T06:54:23Z</time></trkpt><trkpt lat="43.47183956286032" lon="11.421065656110605"><ele>518.5714285714286</ele><time>2026-04-11T06:54:25Z</time></trkpt><trkpt lat="43.471764260751264" lon="11.421006454775988"><ele>519.1428571428571</ele><time>2026-04-11T06:54:27Z</time></trkpt><trkpt lat="43.47169889826703" lon="11.420952665461266"><ele>519.7142857142858</ele><time>2026-04-11T06:54:29Z</time></trkpt><trkpt lat="43.47165242366802" lon="11.420891262526357"><ele>520.2857142857142</ele><time>2026-04-11T06:54:33Z</time></trkpt><trkpt lat="43.47160561523722" lon="11.42082821461711"><ele>520.8571428571429</ele><time>2026-04-11T06:54:36Z</time></trkpt><trkpt lat="43.47156545517375" lon="11.4207385155356"><ele>521.4285714285714</ele><time>2026-04-11T06:54:39Z</time></trkpt><trkpt lat="43.47151468660039" lon="11.420664323586404"><ele>522.0</ele><time>2026-04-11T06:54:41Z</time></trkpt><trkpt lat="43.471458710470884" lon="11.420576303053375"><ele>521.2</ele><time>2026-04-11T06:54:44Z</time></trkpt><trkpt lat="43.47139178025289" lon="11.420476818982337"><ele>520.4000000000001</ele><time>2026-04-11T06:54:46Z</time></trkpt><trkpt lat="43.47134296578145" lon="11.42031061661616"><ele>519.5999999999999</ele><time>2026-04-11T06:54:48Z</time></trkpt><trkpt lat="43.471259716290284" lon="11.420195370300068"><ele>518.8</ele><time>2026-04-11T06:54:50Z</time></trkpt><trkpt lat="43.47122981262025" lon="11.420116377654198"><ele>518.0</ele><time>2026-04-11T06:54:51Z</time></trkpt><trkpt lat="43.471198171802605" lon="11.420038553196642"><ele>517.2857142857143</ele><time>2026-04-11T06:54:52Z</time></trkpt><trkpt lat="43.47117095920229" lon="11.419955618601469"><ele>516.5714285714286</ele><time>2026-04-11T06:54:53Z</time></trkpt><trkpt lat="43.471129469361266" lon="11.419872870870593"><ele>515.8571428571429</ele><time>2026-04-11T06:54:54Z</time></trkpt><trkpt lat="43.471077074776304" lon="11.419812620884418"><ele>515.1428571428571</ele><time>2026-04-11T06:54:55Z</time></trkpt><trkpt lat="43.47103429476955" lon="11.41973677492935"><ele>514.4285714285714</ele><time>2026-04-11T06:54:56Z</time></trkpt><trkpt lat="43.47098164956424" lon="11.419659858924476"><ele>513.7142857142858</ele><time>2026-04-11T06:54:57Z</time></trkpt><trkpt lat="43.47093309739409" lon="11.419554686776372"><ele>513.0</ele><time>2026-04-11T06:54:58Z</time></trkpt><trkpt lat="43.47087120648285" lon="11.419481033857826"><ele>511.8333333333333</ele><time>2026-04-11T06:54:59Z</time></trkpt><trkpt lat="43.470822409331596" lon="11.419403538575734"><ele>510.66666666666663</ele><time>2026-04-11T06:55:00Z</time></trkpt><trkpt lat="43.47075538265159" lon="11.419326019416248"><ele>509.5</ele><time>2026-04-11T06:55:01Z</time></trkpt><trkpt lat="43.470700282453336" lon="11.419229927733133"><ele>508.3333333333333</ele><time>2026-04-11T06:55:02Z</time></trkpt><trkpt lat="43.47064839716308" lon="11.4191369271469"><ele>507.16666666666663</ele><time>2026-04-11T06:55:03Z</time></trkpt><trkpt lat="43.4705913866247" lon="11.419016068073375"><ele>506.0</ele><time>2026-04-11T06:55:04Z</time></trkpt><trkpt lat="43.47055424045788" lon="11.418930730496667"><ele>506.0</ele><time>2026-04-11T06:55:05Z</time></trkpt><trkpt lat="43.470507594135796" lon="11.418840013111794"><ele>506.0</ele><time>2026-04-11T06:55:06Z</time></trkpt><trkpt lat="43.47046511142422" lon="11.418747469518628"><ele>506.0</ele><time>2026-04-11T06:55:07Z</time></trkpt><trkpt lat="43.470416729204665" lon="11.418673127040988"><ele>506.0</ele><time>2026-04-11T06:55:08Z</time></trkpt><trkpt lat="43.470336240434875" lon="11.418561733540528"><ele>506.0</ele><time>2026-04-11T06:55:10Z</time></trkpt><trkpt lat="43.47025954165691" lon="11.418461430681202"><ele>505.5</ele><time>2026-04-11T06:55:12Z</time></trkpt><trkpt lat="43.470129019017484" lon="11.418452337616346"><ele>505.0</ele><time>2026-04-11T06:55:14Z</time></trkpt><trkpt lat="43.470054216756736" lon="11.418521585064989"><ele>504.5</ele><time>2026-04-11T06:55:15Z</time></trkpt><trkpt lat="43.47000808638925" lon="11.418732825227446"><ele>504.0</ele><time>2026-04-11T06:55:16Z</time></trkpt><trkpt lat="43.469972277170356" lon="11.418824490528301"><ele>504.0</ele><time>2026-04-11T06:55:17Z</time></trkpt><trkpt lat="43.4699199251877" lon="11.418948149491802"><ele>504.0</ele><time>2026-04-11T06:55:19Z</time></trkpt><trkpt lat="43.46987961166935" lon="11.419030743482018"><ele>504.0</ele><time>2026-04-11T06:55:20Z</time></trkpt><trkpt lat="43.46978202224569" lon="11.419159393270045"><ele>504.0</ele><time>2026-04-11T06:55:22Z</time></trkpt><trkpt lat="43.46972416161672" lon="11.419300802777306"><ele>504.0</ele><time>2026-04-11T06:55:24Z</time></trkpt><trkpt lat="43.46965761971413" lon="11.419437100783755"><ele>504.0</ele><time>2026-04-11T06:55:26Z</time></trkpt><trkpt lat="43.46966659988161" lon="11.41959596101609"><ele>504.0</ele><time>2026-04-11T06:55:28Z</time></trkpt><trkpt lat="43.469734099505686" lon="11.419782618445023"><ele>504.0</ele><time>2026-04-11T06:55:30Z</time></trkpt><trkpt lat="43.46976905413924" lon="11.419884936560464"><ele>504.0</ele><time>2026-04-11T06:55:31Z</time></trkpt><trkpt lat="43.46980739192764" lon="11.41997321409713"><ele>504.0</ele><time>2026-04-11T06:55:32Z</time></trkpt><trkpt lat="43.46984160237532" lon="11.420069621171153"><ele>503.4</ele><time>2026-04-11T06:55:33Z</time></trkpt><trkpt lat="43.46989916046363" lon="11.420149299036508"><ele>502.79999999999995</ele><time>2026-04-11T06:55:34Z</time></trkpt><trkpt lat="43.469954542531724" lon="11.420227284957955"><ele>502.20000000000005</ele><time>2026-04-11T06:55:35Z</time></trkpt><trkpt lat="43.470017198744145" lon="11.420329531141386"><ele>501.6</ele><time>2026-04-11T06:55:36Z</time></trkpt><trkpt lat="43.47007668196445" lon="11.420448770956266"><ele>501.0</ele><time>2026-04-11T06:55:37Z</time></trkpt><trkpt lat="43.47012862021884" lon="11.420561397078544"><ele>498.8</ele><time>2026-04-11T06:55:38Z</time></trkpt><trkpt lat="43.470185236642614" lon="11.420654012525812"><ele>496.6</ele><time>2026-04-11T06:55:39Z</time></trkpt><trkpt lat="43.47023023981446" lon="11.420782567090464"><ele>494.4</ele><time>2026-04-11T06:55:40Z</time></trkpt><trkpt lat="43.4702840506133" lon="11.420897078824526"><ele>492.2</ele><time>2026-04-11T06:55:41Z</time></trkpt><trkpt lat="43.47033602195713" lon="11.421018288289796"><ele>490.0</ele><time>2026-04-11T06:55:42Z</time></trkpt><trkpt lat="43.47035692473565" lon="11.42114287903643"><ele>490.00000000000006</ele><time>2026-04-11T06:55:43Z</time></trkpt><trkpt lat="43.47037215488783" lon="11.421269900930419"><ele>490.0</ele><time>2026-04-11T06:55:44Z</time></trkpt><trkpt lat="43.47035974992073" lon="11.421381713068083"><ele>490.0</ele><time>2026-04-11T06:55:45Z</time></trkpt><trkpt lat="43.47028822162257" lon="11.421438739598411"><ele>490.0</ele><time>2026-04-11T06:55:46Z</time></trkpt><trkpt lat="43.47020771394961" lon="11.421471694366279"><ele>490.00000000000006</ele><time>2026-04-11T06:55:47Z</time></trkpt><trkpt lat="43.4701287385873" lon="11.421552139534832"><ele>490.0</ele><time>2026-04-11T06:55:48Z</time></trkpt><trkpt lat="43.47003478698316" lon="11.421626550114773"><ele>490.50000000000006</ele><time>2026-04-11T06:55:49Z</time></trkpt><trkpt lat="43.46996218581276" lon="11.421677960710284"><ele>491.0</ele><time>2026-04-11T06:55:50Z</time></trkpt><trkpt lat="43.469888911059435" lon="11.421725154051902"><ele>491.5</ele><time>2026-04-11T06:55:51Z</time></trkpt><trkpt lat="43.46980019257787" lon="11.421782428577545"><ele>492.0</ele><time>2026-04-11T06:55:52Z</time></trkpt><trkpt lat="43.46972428927112" lon="11.421831947439305"><ele>492.50000000000006</ele><time>2026-04-11T06:55:53Z</time></trkpt><trkpt lat="43.46963910434148" lon="11.421891296107772"><ele>493.0</ele><time>2026-04-11T06:55:54Z</time></trkpt><trkpt lat="43.46957573517638" lon="11.421937365065407"><ele>492.50000000000006</ele><time>2026-04-11T06:55:55Z</time></trkpt><trkpt lat="43.469508872505706" lon="11.421985973773172"><ele>492.0</ele><time>2026-04-11T06:55:56Z</time></trkpt><trkpt lat="43.46944781967989" lon="11.422030877926405"><ele>491.5</ele><time>2026-04-11T06:55:57Z</time></trkpt><trkpt lat="43.46938374903876" lon="11.42207838252578"><ele>491.0</ele><time>2026-04-11T06:55:58Z</time></trkpt><trkpt lat="43.46930856755949" lon="11.422150593128846"><ele>490.50000000000006</ele><time>2026-04-11T06:55:59Z</time></trkpt><trkpt lat="43.4692281237838" lon="11.422193769387263"><ele>490.0</ele><time>2026-04-11T06:56:00Z</time></trkpt><trkpt lat="43.469156221065134" lon="11.422245244649668"><ele>490.0</ele><time>2026-04-11T06:56:01Z</time></trkpt><trkpt lat="43.46907805141528" lon="11.42230016381244"><ele>490.0</ele><time>2026-04-11T06:56:02Z</time></trkpt><trkpt lat="43.46900537544248" lon="11.42235122298783"><ele>490.0</ele><time>2026-04-11T06:56:03Z</time></trkpt><trkpt lat="43.4689133551937" lon="11.42241587280851"><ele>490.0</ele><time>2026-04-11T06:56:04Z</time></trkpt><trkpt lat="43.46882761438732" lon="11.422476897467376"><ele>490.0</ele><time>2026-04-11T06:56:05Z</time></trkpt><trkpt lat="43.46875366040811" lon="11.4225557337788"><ele>487.2</ele><time>2026-04-11T06:56:06Z</time></trkpt><trkpt lat="43.46867101322167" lon="11.42261193089967"><ele>484.4</ele><time>2026-04-11T06:56:07Z</time></trkpt><trkpt lat="43.46858552958316" lon="11.422657970903215"><ele>481.6</ele><time>2026-04-11T06:56:08Z</time></trkpt><trkpt lat="43.468487386940396" lon="11.422731844933237"><ele>478.8</ele><time>2026-04-11T06:56:09Z</time></trkpt><trkpt lat="43.46841639118207" lon="11.422784711389989"><ele>476.0</ele><time>2026-04-11T06:56:10Z</time></trkpt><trkpt lat="43.46831166374158" lon="11.422862696129457"><ele>476.0</ele><time>2026-04-11T06:56:11Z</time></trkpt><trkpt lat="43.468230287893256" lon="11.422921717622534"><ele>476.0</ele><time>2026-04-11T06:56:12Z</time></trkpt><trkpt lat="43.468150388006244" lon="11.422975814346465"><ele>476.0</ele><time>2026-04-11T06:56:13Z</time></trkpt><trkpt lat="43.46806264228372" lon="11.423030756767448"><ele>476.0</ele><time>2026-04-11T06:56:14Z</time></trkpt><trkpt lat="43.46796681531983" lon="11.423045823541996"><ele>476.0</ele><time>2026-04-11T06:56:15Z</time></trkpt><trkpt lat="43.46789119665265" lon="11.423052871122259"><ele>476.49999999999994</ele><time>2026-04-11T06:56:16Z</time></trkpt><trkpt lat="43.46779989207593" lon="11.423070659535739"><ele>477.0</ele><time>2026-04-11T06:56:17Z</time></trkpt><trkpt lat="43.467732652873686" lon="11.42309658572516"><ele>477.5</ele><time>2026-04-11T06:56:18Z</time></trkpt><trkpt lat="43.46766931081588" lon="11.423135826608448"><ele>478.0</ele><time>2026-04-11T06:56:19Z</time></trkpt><trkpt lat="43.46760330273292" lon="11.423242484765929"><ele>478.49999999999994</ele><time>2026-04-11T06:56:20Z</time></trkpt><trkpt lat="43.46758111857118" lon="11.423366780848085"><ele>479.0</ele><time>2026-04-11T06:56:21Z</time></trkpt><trkpt lat="43.46761787173759" lon="11.423482937620655"><ele>479.0</ele><time>2026-04-11T06:56:22Z</time></trkpt><trkpt lat="43.46765911001295" lon="11.423553788347004"><ele>479.0</ele><time>2026-04-11T06:56:23Z</time></trkpt><trkpt lat="43.4678256402389" lon="11.423707351946446"><ele>479.0</ele><time>2026-04-11T06:56:25Z</time></trkpt><trkpt lat="43.46792493415157" lon="11.423784308124981"><ele>479.0</ele><time>2026-04-11T06:56:26Z</time></trkpt><trkpt lat="43.46803102793141" lon="11.423862320033814"><ele>477.0</ele><time>2026-04-11T06:56:27Z</time></trkpt><trkpt lat="43.468133582364736" lon="11.423934899436716"><ele>475.0</ele><time>2026-04-11T06:56:28Z</time></trkpt><trkpt lat="43.468206392755256" lon="11.42399278927798"><ele>473.0</ele><time>2026-04-11T06:56:29Z</time></trkpt><trkpt lat="43.468278090995575" lon="11.424065981032548"><ele>471.0</ele><time>2026-04-11T06:56:30Z</time></trkpt><trkpt lat="43.46834345649353" lon="11.424136994147661"><ele>469.0</ele><time>2026-04-11T06:56:31Z</time></trkpt><trkpt lat="43.46842654765931" lon="11.424216827481102"><ele>469.0</ele><time>2026-04-11T06:56:32Z</time></trkpt><trkpt lat="43.46848547012817" lon="11.424265177008134"><ele>469.0</ele><time>2026-04-11T06:56:33Z</time></trkpt><trkpt lat="43.46859058964313" lon="11.424317362534952"><ele>469.0</ele><time>2026-04-11T06:56:34Z</time></trkpt><trkpt lat="43.46870192526408" lon="11.424331591098495"><ele>469.0</ele><time>2026-04-11T06:56:35Z</time></trkpt><trkpt lat="43.468811003269806" lon="11.424350537180352"><ele>469.0</ele><time>2026-04-11T06:56:36Z</time></trkpt><trkpt lat="43.46893352696992" lon="11.424362476173748"><ele>468.6</ele><time>2026-04-11T06:56:37Z</time></trkpt><trkpt lat="43.46904232305246" lon="11.424383424582764"><ele>468.2</ele><time>2026-04-11T06:56:38Z</time></trkpt><trkpt lat="43.46914716906889" lon="11.424400693609602"><ele>467.80000000000007</ele><time>2026-04-11T06:56:39Z</time></trkpt><trkpt lat="43.469247602492935" lon="11.424421921430765"><ele>467.40000000000003</ele><time>2026-04-11T06:56:40Z</time></trkpt><trkpt lat="43.469345590900595" lon="11.42445174440517"><ele>467.0</ele><time>2026-04-11T06:56:41Z</time></trkpt><trkpt lat="43.46944295254743" lon="11.424485337553726"><ele>466.99999999999994</ele><time>2026-04-11T06:56:42Z</time></trkpt><trkpt lat="43.46953697685942" lon="11.424522134109317"><ele>467.0</ele><time>2026-04-11T06:56:43Z</time></trkpt><trkpt lat="43.46962561124224" lon="11.424566728108069"><ele>467.0</ele><time>2026-04-11T06:56:44Z</time></trkpt><trkpt lat="43.46970936001386" lon="11.424606103871506"><ele>467.0</ele><time>2026-04-11T06:56:45Z</time></trkpt><trkpt lat="43.46975755628198" lon="11.42468992866707"><ele>466.99999999999994</ele><time>2026-04-11T06:56:46Z</time></trkpt><trkpt lat="43.469816970032134" lon="11.424768976832231"><ele>467.0</ele><time>2026-04-11T06:56:47Z</time></trkpt><trkpt lat="43.46984076515811" lon="11.424894813795856"><ele>465.6</ele><time>2026-04-11T06:56:48Z</time></trkpt><trkpt lat="43.469828285017186" lon="11.425011302772175"><ele>464.20000000000005</ele><time>2026-04-11T06:56:49Z</time></trkpt><trkpt lat="43.46984827177702" lon="11.425162274940936"><ele>462.8</ele><time>2026-04-11T06:56:50Z</time></trkpt><trkpt lat="43.46985728094569" lon="11.42530730081042"><ele>461.4</ele><time>2026-04-11T06:56:51Z</time></trkpt><trkpt lat="43.46988210531586" lon="11.425467827417016"><ele>460.0</ele><time>2026-04-11T06:56:52Z</time></trkpt><trkpt lat="43.46990328763475" lon="11.42560555177574"><ele>457.6</ele><time>2026-04-11T06:56:53Z</time></trkpt><trkpt lat="43.46989067785314" lon="11.425719736004229"><ele>455.2</ele><time>2026-04-11T06:56:54Z</time></trkpt><trkpt lat="43.469901359762744" lon="11.42583854152202"><ele>452.79999999999995</ele><time>2026-04-11T06:56:55Z</time></trkpt><trkpt lat="43.46990378858791" lon="11.425975770301312"><ele>450.4</ele><time>2026-04-11T06:56:56Z</time></trkpt><trkpt lat="43.46990396599206" lon="11.426128721690075"><ele>448.0</ele><time>2026-04-11T06:56:57Z</time></trkpt><trkpt lat="43.46990964334104" lon="11.426301382361418"><ele>446.4</ele><time>2026-04-11T06:56:58Z</time></trkpt><trkpt lat="43.46989609832139" lon="11.426437892094427"><ele>444.79999999999995</ele><time>2026-04-11T06:56:59Z</time></trkpt><trkpt lat="43.46987981856957" lon="11.426579827225238"><ele>443.2</ele><time>2026-04-11T06:57:00Z</time></trkpt><trkpt lat="43.469870438188586" lon="11.426719873720428"><ele>441.6</ele><time>2026-04-11T06:57:01Z</time></trkpt><trkpt lat="43.46985764527926" lon="11.426860992115579"><ele>440.0</ele><time>2026-04-11T06:57:02Z</time></trkpt><trkpt lat="43.46981615408878" lon="11.427000691391855"><ele>440.0</ele><time>2026-04-11T06:57:03Z</time></trkpt><trkpt lat="43.469782658238024" lon="11.427127188573891"><ele>440.0</ele><time>2026-04-11T06:57:04Z</time></trkpt><trkpt lat="43.46974527964058" lon="11.42723579064161"><ele>440.0</ele><time>2026-04-11T06:57:05Z</time></trkpt><trkpt lat="43.46969632396738" lon="11.427355263778518"><ele>440.0</ele><time>2026-04-11T06:57:06Z</time></trkpt><trkpt lat="43.469632968267184" lon="11.427512974525504"><ele>440.0</ele><time>2026-04-11T06:57:07Z</time></trkpt><trkpt lat="43.469539514594004" lon="11.42766316996627"><ele>435.5</ele><time>2026-04-11T06:57:08Z</time></trkpt><trkpt lat="43.4694677679685" lon="11.427766578418554"><ele>431.0</ele><time>2026-04-11T06:57:09Z</time></trkpt><trkpt lat="43.469397362183734" lon="11.427877772080592"><ele>426.5</ele><time>2026-04-11T06:57:10Z</time></trkpt><trkpt lat="43.46930442670509" lon="11.428022533390152"><ele>422.0</ele><time>2026-04-11T06:57:11Z</time></trkpt><trkpt lat="43.46920638454911" lon="11.428169433997835"><ele>421.75</ele><time>2026-04-11T06:57:12Z</time></trkpt><trkpt lat="43.469105303722145" lon="11.428320115347647"><ele>421.5</ele><time>2026-04-11T06:57:13Z</time></trkpt><trkpt lat="43.4690250763153" lon="11.4284576819219"><ele>421.25</ele><time>2026-04-11T06:57:14Z</time></trkpt><trkpt lat="43.468940457067696" lon="11.428598464013357"><ele>421.0</ele><time>2026-04-11T06:57:15Z</time></trkpt><trkpt lat="43.46884939090153" lon="11.428727131428563"><ele>419.0</ele><time>2026-04-11T06:57:16Z</time></trkpt><trkpt lat="43.468796559638726" lon="11.428864688730316"><ele>417.0</ele><time>2026-04-11T06:57:17Z</time></trkpt><trkpt lat="43.46872301126637" lon="11.428995000270286"><ele>415.0</ele><time>2026-04-11T06:57:18Z</time></trkpt><trkpt lat="43.468613487833146" lon="11.429121435831687"><ele>413.0</ele><time>2026-04-11T06:57:19Z</time></trkpt><trkpt lat="43.46854329799567" lon="11.42925663256754"><ele>412.0</ele><time>2026-04-11T06:57:20Z</time></trkpt><trkpt lat="43.4684673314443" lon="11.429372719380428"><ele>411.0</ele><time>2026-04-11T06:57:21Z</time></trkpt><trkpt lat="43.46839379920468" lon="11.429477017394932"><ele>410.0</ele><time>2026-04-11T06:57:22Z</time></trkpt><trkpt lat="43.46830310985944" lon="11.429554010695478"><ele>409.0</ele><time>2026-04-11T06:57:23Z</time></trkpt><trkpt lat="43.46820900165194" lon="11.42962233335682"><ele>408.0</ele><time>2026-04-11T06:57:24Z</time></trkpt><trkpt lat="43.468128712994" lon="11.429682435772952"><ele>407.0</ele><time>2026-04-11T06:57:25Z</time></trkpt><trkpt lat="43.468038963304494" lon="11.429740653250233"><ele>406.0</ele><time>2026-04-11T06:57:26Z</time></trkpt><trkpt lat="43.46794199461441" lon="11.429800281668994"><ele>405.0</ele><time>2026-04-11T06:57:27Z</time></trkpt><trkpt lat="43.4678690883251" lon="11.429848540637426"><ele>404.0</ele><time>2026-04-11T06:57:28Z</time></trkpt><trkpt lat="43.46780480872055" lon="11.429896789636956"><ele>403.0</ele><time>2026-04-11T06:57:29Z</time></trkpt><trkpt lat="43.46772754468074" lon="11.429968947018663"><ele>402.0</ele><time>2026-04-11T06:57:30Z</time></trkpt><trkpt lat="43.467639199673535" lon="11.43002994643907"><ele>401.0</ele><time>2026-04-11T06:57:31Z</time></trkpt><trkpt lat="43.467552513542465" lon="11.430101227662167"><ele>400.0</ele><time>2026-04-11T06:57:32Z</time></trkpt><trkpt lat="43.46745866847152" lon="11.430176314837784"><ele>399.0</ele><time>2026-04-11T06:57:33Z</time></trkpt><trkpt lat="43.467354698041824" lon="11.430236121243354"><ele>398.0</ele><time>2026-04-11T06:57:34Z</time></trkpt><trkpt lat="43.46728577407264" lon="11.430290818468862"><ele>397.99999999999994</ele><time>2026-04-11T06:57:35Z</time></trkpt><trkpt lat="43.46721904518416" lon="11.430333516190538"><ele>398.0</ele><time>2026-04-11T06:57:36Z</time></trkpt><trkpt lat="43.46715784319803" lon="11.430377111847841"><ele>398.0</ele><time>2026-04-11T06:57:37Z</time></trkpt><trkpt lat="43.46708467776902" lon="11.430427769849429"><ele>398.0</ele><time>2026-04-11T06:57:38Z</time></trkpt><trkpt lat="43.46700365421452" lon="11.43047926468225"><ele>397.99999999999994</ele><time>2026-04-11T06:57:39Z</time></trkpt><trkpt lat="43.466931048346034" lon="11.430525409729977"><ele>398.0</ele><time>2026-04-11T06:57:40Z</time></trkpt><trkpt lat="43.466853473973885" lon="11.43057607012755"><ele>396.0</ele><time>2026-04-11T06:57:41Z</time></trkpt><trkpt lat="43.466772712279855" lon="11.430652834794458"><ele>394.0</ele><time>2026-04-11T06:57:42Z</time></trkpt><trkpt lat="43.46666692094226" lon="11.43071223496242"><ele>392.0</ele><time>2026-04-11T06:57:44Z</time></trkpt><trkpt lat="43.466573765964164" lon="11.430780685603969"><ele>390.0</ele><time>2026-04-11T06:57:46Z</time></trkpt><trkpt lat="43.46655060955811" lon="11.430914711766645"><ele>388.0</ele><time>2026-04-11T06:57:48Z</time></trkpt><trkpt lat="43.46657413706915" lon="11.431016138423697"><ele>388.0</ele><time>2026-04-11T06:57:50Z</time></trkpt><trkpt lat="43.46666840539812" lon="11.431081153712555"><ele>388.0</ele><time>2026-04-11T06:57:51Z</time></trkpt><trkpt lat="43.46673719039291" lon="11.431124121973605"><ele>388.0</ele><time>2026-04-11T06:57:52Z</time></trkpt><trkpt lat="43.46687764553971" lon="11.43124748543897"><ele>388.0</ele><time>2026-04-11T06:57:53Z</time></trkpt><trkpt lat="43.46697645528897" lon="11.431296387375385"><ele>385.59999999999997</ele><time>2026-04-11T06:57:54Z</time></trkpt><trkpt lat="43.46707332054078" lon="11.431345283013155"><ele>383.2</ele><time>2026-04-11T06:57:55Z</time></trkpt><trkpt lat="43.46715694768728" lon="11.43137027731773"><ele>380.8</ele><time>2026-04-11T06:57:56Z</time></trkpt><trkpt lat="43.467238161009256" lon="11.43140018148169"><ele>378.4</ele><time>2026-04-11T06:57:57Z</time></trkpt><trkpt lat="43.46732284891286" lon="11.431444878476245"><ele>376.0</ele><time>2026-04-11T06:57:58Z</time></trkpt><trkpt lat="43.4674192871785" lon="11.431497427814922"><ele>376.0</ele><time>2026-04-11T06:57:59Z</time></trkpt><trkpt lat="43.467498029912484" lon="11.431550387733806"><ele>376.0</ele><time>2026-04-11T06:58:00Z</time></trkpt><trkpt lat="43.46759536516454" lon="11.431619789830496"><ele>376.0</ele><time>2026-04-11T06:58:01Z</time></trkpt><trkpt lat="43.467673783036986" lon="11.431685559880304"><ele>376.0</ele><time>2026-04-11T06:58:02Z</time></trkpt><trkpt lat="43.46776413958972" lon="11.431771882516342"><ele>376.0</ele><time>2026-04-11T06:58:03Z</time></trkpt><trkpt lat="43.467840379813936" lon="11.431853526326359"><ele>376.0</ele><time>2026-04-11T06:58:04Z</time></trkpt><trkpt lat="43.467893269647604" lon="11.431913028322194"><ele>376.0</ele><time>2026-04-11T06:58:05Z</time></trkpt><trkpt lat="43.467976361829834" lon="11.432007755169762"><ele>376.0</ele><time>2026-04-11T06:58:06Z</time></trkpt><trkpt lat="43.468069327501595" lon="11.432118999847539"><ele>376.0</ele><time>2026-04-11T06:58:07Z</time></trkpt><trkpt lat="43.4681364309383" lon="11.432202349780134"><ele>376.0</ele><time>2026-04-11T06:58:08Z</time></trkpt><trkpt lat="43.468202591772304" lon="11.432287087633906"><ele>373.6</ele><time>2026-04-11T06:58:09Z</time></trkpt><trkpt lat="43.468286024510455" lon="11.432391527384983"><ele>371.20000000000005</ele><time>2026-04-11T06:58:11Z</time></trkpt><trkpt lat="43.46835055903728" lon="11.43246991669934"><ele>368.79999999999995</ele><time>2026-04-11T06:58:12Z</time></trkpt><trkpt lat="43.46843392596832" lon="11.432573183826507"><ele>366.4</ele><time>2026-04-11T06:58:14Z</time></trkpt><trkpt lat="43.46842952746556" lon="11.43267298010208"><ele>364.0</ele><time>2026-04-11T06:58:15Z</time></trkpt><trkpt lat="43.46846195469437" lon="11.432812368356286"><ele>364.0</ele><time>2026-04-11T06:58:16Z</time></trkpt><trkpt lat="43.468485820839746" lon="11.432897414682872"><ele>364.0</ele><time>2026-04-11T06:58:17Z</time></trkpt><trkpt lat="43.46850790804838" lon="11.432994735685899"><ele>364.0</ele><time>2026-04-11T06:58:18Z</time></trkpt><trkpt lat="43.46853987920794" lon="11.433109264962656"><ele>364.0</ele><time>2026-04-11T06:58:20Z</time></trkpt><trkpt lat="43.46855023320814" lon="11.43321277331833"><ele>364.0</ele><time>2026-04-11T06:58:22Z</time></trkpt><trkpt lat="43.468389017943274" lon="11.433274236835254"><ele>363.0</ele><time>2026-04-11T06:58:24Z</time></trkpt><trkpt lat="43.468324822360785" lon="11.433312620950003"><ele>362.0</ele><time>2026-04-11T06:58:25Z</time></trkpt><trkpt lat="43.46826125702793" lon="11.433351574035902"><ele>361.0</ele><time>2026-04-11T06:58:26Z</time></trkpt><trkpt lat="43.468139039909325" lon="11.433444910434142"><ele>360.0</ele><time>2026-04-11T06:58:28Z</time></trkpt><trkpt lat="43.46807695729978" lon="11.433518628766851"><ele>359.0</ele><time>2026-04-11T06:58:29Z</time></trkpt><trkpt lat="43.46801989011261" lon="11.433556795110958"><ele>358.0</ele><time>2026-04-11T06:58:30Z</time></trkpt><trkpt lat="43.46797255893323" lon="11.43363054962576"><ele>357.5714285714286</ele><time>2026-04-11T06:58:31Z</time></trkpt><trkpt lat="43.46790339322963" lon="11.43368506768359"><ele>357.14285714285717</ele><time>2026-04-11T06:58:32Z</time></trkpt><trkpt lat="43.467847429466225" lon="11.43373860638586"><ele>356.7142857142857</ele><time>2026-04-11T06:58:33Z</time></trkpt><trkpt lat="43.467789138844736" lon="11.433800210731478"><ele>356.28571428571433</ele><time>2026-04-11T06:58:34Z</time></trkpt><trkpt lat="43.46773509825683" lon="11.433857323320918"><ele>355.8571428571429</ele><time>2026-04-11T06:58:35Z</time></trkpt><trkpt lat="43.46767811998857" lon="11.43392365675933"><ele>355.42857142857144</ele><time>2026-04-11T06:58:36Z</time></trkpt><trkpt lat="43.46760587774781" lon="11.433980114066129"><ele>355.0</ele><time>2026-04-11T06:58:37Z</time></trkpt><trkpt lat="43.467507533072265" lon="11.4340620220608"><ele>354.8</ele><time>2026-04-11T06:58:39Z</time></trkpt><trkpt lat="43.467440889328984" lon="11.434128859787876"><ele>354.6</ele><time>2026-04-11T06:58:41Z</time></trkpt><trkpt lat="43.46738312067574" lon="11.434175251082545"><ele>354.4</ele><time>2026-04-11T06:58:45Z</time></trkpt><trkpt lat="43.46750840859659" lon="11.434328422194701"><ele>354.2</ele><time>2026-04-11T06:58:52Z</time></trkpt><trkpt lat="43.46746465550558" lon="11.43441836023227"><ele>354.0</ele><time>2026-04-11T06:59:02Z</time></trkpt><trkpt lat="43.46741102538816" lon="11.434477817426687"><ele>354.0</ele><time>2026-04-11T06:59:04Z</time></trkpt><trkpt lat="43.46733594720417" lon="11.43453681849726"><ele>354.0</ele><time>2026-04-11T06:59:06Z</time></trkpt><trkpt lat="43.46724546763679" lon="11.434573858198396"><ele>354.0</ele><time>2026-04-11T06:59:08Z</time></trkpt><trkpt lat="43.46716317531163" lon="11.434598172321254"><ele>354.0</ele><time>2026-04-11T06:59:10Z</time></trkpt><trkpt lat="43.46721701652348" lon="11.434505282742219"><ele>354.0</ele><time>2026-04-11T07:01:48Z</time></trkpt><trkpt lat="43.46728073522363" lon="11.434446067515573"><ele>354.0</ele><time>2026-04-11T07:01:51Z</time></trkpt><trkpt lat="43.46732890012295" lon="11.434375812517805"><ele>354.0</ele><time>2026-04-11T07:01:54Z</time></trkpt><trkpt lat="43.46738578545271" lon="11.434332883596278"><ele>354.0</ele><time>2026-04-11T07:01:58Z</time></trkpt><trkpt lat="43.4674478594363" lon="11.43431457270316"><ele>354.0</ele><time>2026-04-11T07:02:06Z</time></trkpt><trkpt lat="43.46748098060055" lon="11.43423606487968"><ele>354.0</ele><time>2026-04-11T07:02:13Z</time></trkpt><trkpt lat="43.467493521126464" lon="11.43433076788791"><ele>354.0</ele><time>2026-04-11T07:03:08Z</time></trkpt><trkpt lat="43.46746174372761" lon="11.43441799451874"><ele>354.0</ele><time>2026-04-11T07:03:20Z</time></trkpt><trkpt lat="43.46740381441641" lon="11.43446514884857"><ele>354.0</ele><time>2026-04-11T07:03:27Z</time></trkpt><trkpt lat="43.46735952311808" lon="11.434538623810674"><ele>354.0</ele><time>2026-04-11T07:03:34Z</time></trkpt><trkpt lat="43.467298947616435" lon="11.434574914274465"><ele>354.0</ele><time>2026-04-11T07:03:41Z</time></trkpt><trkpt lat="43.46723072208241" lon="11.434569198367107"><ele>354.0</ele><time>2026-04-11T07:03:46Z</time></trkpt><trkpt lat="43.467167525072966" lon="11.434580120447478"><ele>354.0</ele><time>2026-04-11T07:03:53Z</time></trkpt><trkpt lat="43.46722879227807" lon="11.434558968520127"><ele>354.0</ele><time>2026-04-11T07:04:13Z</time></trkpt><trkpt lat="43.46730275998665" lon="11.434538425946089"><ele>354.0</ele><time>2026-04-11T07:04:19Z</time></trkpt><trkpt lat="43.46736532360857" lon="11.434521375640145"><ele>354.0</ele><time>2026-04-11T07:04:25Z</time></trkpt><trkpt lat="43.46743321340292" lon="11.434502144490523"><ele>354.0</ele><time>2026-04-11T07:04:29Z</time></trkpt><trkpt lat="43.46749543848218" lon="11.434471787861645"><ele>354.0</ele><time>2026-04-11T07:04:33Z</time></trkpt><trkpt lat="43.467388545481825" lon="11.434472276229942"><ele>354.0</ele><time>2026-04-11T07:04:41Z</time></trkpt><trkpt lat="43.467445612960894" lon="11.434070803897864"><ele>354.0</ele><time>2026-04-11T07:04:55Z</time></trkpt><trkpt lat="43.46740797050109" lon="11.434158169779094"><ele>354.0</ele><time>2026-04-11T07:04:59Z</time></trkpt><trkpt lat="43.467390281713506" lon="11.434243304659665"><ele>354.0</ele><time>2026-04-11T07:05:05Z</time></trkpt><trkpt lat="43.467436031047214" lon="11.434310128913971"><ele>354.0</ele><time>2026-04-11T07:05:16Z</time></trkpt><trkpt lat="43.46737365583964" lon="11.434554089975425"><ele>354.0</ele><time>2026-04-11T07:05:19Z</time></trkpt><trkpt lat="43.46726439061475" lon="11.434616303612941"><ele>354.0</ele><time>2026-04-11T07:05:21Z</time></trkpt><trkpt lat="43.467163695577554" lon="11.434696263638175"><ele>354.0</ele><time>2026-04-11T07:05:23Z</time></trkpt><trkpt lat="43.46700778505943" lon="11.434775858477186"><ele>354.0</ele><time>2026-04-11T07:05:25Z</time></trkpt><trkpt lat="43.467159429766774" lon="11.434592466493289"><ele>354.0</ele><time>2026-04-11T07:06:07.236Z</time></trkpt><trkpt lat="43.46722498216039" lon="11.434506697482508"><ele>354.0</ele><time>2026-04-11T07:06:19.531Z</time></trkpt><trkpt lat="43.4671508132632" lon="11.434587488418954"><ele>354.0</ele><time>2026-04-11T07:11:16Z</time></trkpt><trkpt lat="43.46716738565697" lon="11.434711820546278"><ele>354.0</ele><time>2026-04-11T07:11:33Z</time></trkpt><trkpt lat="43.4672332067541" lon="11.434665455030801"><ele>354.0</ele><time>2026-04-11T07:12:26Z</time></trkpt><trkpt lat="43.46727893429775" lon="11.4346002579691"><ele>354.0</ele><time>2026-04-11T07:12:33Z</time></trkpt><trkpt lat="43.467223356613786" lon="11.434445101765663"><ele>354.0</ele><time>2026-04-11T07:12:56.443Z</time></trkpt><trkpt lat="43.46718901856262" lon="11.434755607662888"><ele>354.0</ele><time>2026-04-11T07:22:37Z</time></trkpt><trkpt lat="43.46714096499465" lon="11.434691625884543"><ele>354.0</ele><time>2026-04-11T07:22:43Z</time></trkpt><trkpt lat="43.467144416648686" lon="11.434592852009299"><ele>354.0</ele><time>2026-04-11T07:22:48Z</time></trkpt><trkpt lat="43.46706127848544" lon="11.434617308958984"><ele>354.0</ele><time>2026-04-11T07:23:46Z</time></trkpt><trkpt lat="43.46711274368097" lon="11.434537977122691"><ele>354.0</ele><time>2026-04-11T07:24:05Z</time></trkpt><trkpt lat="43.467193317825206" lon="11.43450712152024"><ele>354.0</ele><time>2026-04-11T07:24:08Z</time></trkpt><trkpt lat="43.46728756463226" lon="11.434478261658924"><ele>354.0</ele><time>2026-04-11T07:24:10Z</time></trkpt><trkpt lat="43.467350901461984" lon="11.434421386598533"><ele>354.0</ele><time>2026-04-11T07:24:12Z</time></trkpt><trkpt lat="43.467415595203065" lon="11.434395371448675"><ele>354.0</ele><time>2026-04-11T07:24:15Z</time></trkpt><trkpt lat="43.46744573445342" lon="11.434316265276166"><ele>354.0</ele><time>2026-04-11T07:24:17Z</time></trkpt><trkpt lat="43.467499419679854" lon="11.43426784412254"><ele>354.0</ele><time>2026-04-11T07:24:20Z</time></trkpt><trkpt lat="43.46750093505488" lon="11.434170328886484"><ele>354.0</ele><time>2026-04-11T07:24:25Z</time></trkpt><trkpt lat="43.46746849310808" lon="11.434086652739866"><ele>354.0</ele><time>2026-04-11T07:24:29Z</time></trkpt><trkpt lat="43.46739112184" lon="11.434128491230995"><ele>354.0</ele><time>2026-04-11T07:24:31Z</time></trkpt><trkpt lat="43.46729624054788" lon="11.434175122865744"><ele>354.0</ele><time>2026-04-11T07:24:33Z</time></trkpt><trkpt lat="43.46720287734393" lon="11.434198970006337"><ele>354.0</ele><time>2026-04-11T07:24:35Z</time></trkpt><trkpt lat="43.46711112440532" lon="11.434242722056077"><ele>354.0</ele><time>2026-04-11T07:24:37Z</time></trkpt><trkpt lat="43.46700936943593" lon="11.43427916818294"><ele>354.0</ele><time>2026-04-11T07:24:39Z</time></trkpt><trkpt lat="43.466900382944615" lon="11.43432966850526"><ele>354.0</ele><time>2026-04-11T07:24:41Z</time></trkpt><trkpt lat="43.46679183089785" lon="11.434348764359726"><ele>354.0</ele><time>2026-04-11T07:24:43Z</time></trkpt><trkpt lat="43.46666979560709" lon="11.434336904519874"><ele>353.5</ele><time>2026-04-11T07:24:45Z</time></trkpt><trkpt lat="43.46660593268133" lon="11.434335205697854"><ele>353.0</ele><time>2026-04-11T07:24:46Z</time></trkpt><trkpt lat="43.46648279545542" lon="11.434327605864777"><ele>352.5</ele><time>2026-04-11T07:24:48Z</time></trkpt><trkpt lat="43.466361228027374" lon="11.434337990030487"><ele>352.0</ele><time>2026-04-11T07:24:50Z</time></trkpt><trkpt lat="43.46629563767387" lon="11.43433142016031"><ele>351.5</ele><time>2026-04-11T07:24:51Z</time></trkpt><trkpt lat="43.466227126414296" lon="11.434309543838749"><ele>351.0</ele><time>2026-04-11T07:24:52Z</time></trkpt><trkpt lat="43.46616610324037" lon="11.434271021901843"><ele>350.5</ele><time>2026-04-11T07:24:53Z</time></trkpt><trkpt lat="43.46610347693494" lon="11.434254959009966"><ele>350.0</ele><time>2026-04-11T07:24:54Z</time></trkpt><trkpt lat="43.46598440649536" lon="11.434207627169355"><ele>349.5</ele><time>2026-04-11T07:24:56Z</time></trkpt><trkpt lat="43.46591322764865" lon="11.43419347783597"><ele>349.0</ele><time>2026-04-11T07:24:57Z</time></trkpt><trkpt lat="43.465843689560224" lon="11.434169603567321"><ele>348.5</ele><time>2026-04-11T07:24:58Z</time></trkpt><trkpt lat="43.46577711057606" lon="11.43415140151821"><ele>348.0</ele><time>2026-04-11T07:24:59Z</time></trkpt><trkpt lat="43.46571486600887" lon="11.434134304851073"><ele>348.0</ele><time>2026-04-11T07:25:00Z</time></trkpt><trkpt lat="43.46564831504822" lon="11.434104286524414"><ele>348.0</ele><time>2026-04-11T07:25:01Z</time></trkpt><trkpt lat="43.465590323433226" lon="11.434058382884007"><ele>348.0</ele><time>2026-04-11T07:25:02Z</time></trkpt><trkpt lat="43.4655382176944" lon="11.434006165447927"><ele>348.0</ele><time>2026-04-11T07:25:03Z</time></trkpt><trkpt lat="43.46548481920633" lon="11.433948789834949"><ele>348.0</ele><time>2026-04-11T07:25:04Z</time></trkpt><trkpt lat="43.465435649883176" lon="11.433880214209298"><ele>348.0</ele><time>2026-04-11T07:25:05Z</time></trkpt><trkpt lat="43.465388285014605" lon="11.433813533108005"><ele>348.0</ele><time>2026-04-11T07:25:06Z</time></trkpt><trkpt lat="43.46534313208483" lon="11.433744975137612"><ele>348.0</ele><time>2026-04-11T07:25:07Z</time></trkpt><trkpt lat="43.465298532715444" lon="11.43366992879691"><ele>348.0</ele><time>2026-04-11T07:25:08Z</time></trkpt><trkpt lat="43.46525658821956" lon="11.433603938040958"><ele>348.0</ele><time>2026-04-11T07:25:09Z</time></trkpt><trkpt lat="43.46520858600422" lon="11.433532135253426"><ele>348.0</ele><time>2026-04-11T07:25:10Z</time></trkpt><trkpt lat="43.46516424855231" lon="11.433451609423457"><ele>348.0</ele><time>2026-04-11T07:25:11Z</time></trkpt><trkpt lat="43.465114515759716" lon="11.43338452515173"><ele>348.0</ele><time>2026-04-11T07:25:12Z</time></trkpt><trkpt lat="43.465064734094064" lon="11.433318301242032"><ele>348.0</ele><time>2026-04-11T07:25:13Z</time></trkpt><trkpt lat="43.46500938444591" lon="11.433255417406405"><ele>348.0</ele><time>2026-04-11T07:25:14Z</time></trkpt><trkpt lat="43.464947571040355" lon="11.433205946396303"><ele>348.0</ele><time>2026-04-11T07:25:15Z</time></trkpt><trkpt lat="43.4648846455168" lon="11.433158610138495"><ele>348.0</ele><time>2026-04-11T07:25:16Z</time></trkpt><trkpt lat="43.464824369170465" lon="11.433115023160193"><ele>348.0</ele><time>2026-04-11T07:25:17Z</time></trkpt><trkpt lat="43.464758635772675" lon="11.433068951363632"><ele>348.0</ele><time>2026-04-11T07:25:18Z</time></trkpt><trkpt lat="43.46470103353365" lon="11.433016203161642"><ele>348.0</ele><time>2026-04-11T07:25:19Z</time></trkpt><trkpt lat="43.464645661706854" lon="11.432970161589397"><ele>348.0</ele><time>2026-04-11T07:25:20Z</time></trkpt><trkpt lat="43.4645910929561" lon="11.43291440354564"><ele>348.1428571428571</ele><time>2026-04-11T07:25:21Z</time></trkpt><trkpt lat="43.4645287594791" lon="11.43286425364774"><ele>348.2857142857143</ele><time>2026-04-11T07:25:22Z</time></trkpt><trkpt lat="43.46446208799275" lon="11.43282472402161"><ele>348.42857142857144</ele><time>2026-04-11T07:25:23Z</time></trkpt><trkpt lat="43.464408807499986" lon="11.432743694084158"><ele>348.57142857142856</ele><time>2026-04-11T07:25:24Z</time></trkpt><trkpt lat="43.464355799496" lon="11.43267682773429"><ele>348.7142857142857</ele><time>2026-04-11T07:25:25Z</time></trkpt><trkpt lat="43.46430049244903" lon="11.432606124945423"><ele>348.85714285714283</ele><time>2026-04-11T07:25:26Z</time></trkpt><trkpt lat="43.464255085217935" lon="11.432526519229675"><ele>349.0</ele><time>2026-04-11T07:25:27Z</time></trkpt><trkpt lat="43.46421436633874" lon="11.43244174914696"><ele>349.0</ele><time>2026-04-11T07:25:28Z</time></trkpt><trkpt lat="43.46417201503646" lon="11.432352161088534"><ele>349.0</ele><time>2026-04-11T07:25:29Z</time></trkpt><trkpt lat="43.4641303679956" lon="11.432255971162249"><ele>349.0</ele><time>2026-04-11T07:25:30Z</time></trkpt><trkpt lat="43.464088623394424" lon="11.432154426423958"><ele>349.0</ele><time>2026-04-11T07:25:31Z</time></trkpt><trkpt lat="43.46404866511551" lon="11.432057099555225"><ele>349.0</ele><time>2026-04-11T07:25:32Z</time></trkpt><trkpt lat="43.46401472007343" lon="11.43195385218178"><ele>349.0</ele><time>2026-04-11T07:25:33Z</time></trkpt><trkpt lat="43.46397694818488" lon="11.431856123497225"><ele>348.66666666666663</ele><time>2026-04-11T07:25:34Z</time></trkpt><trkpt lat="43.463940027484725" lon="11.431753303855272"><ele>348.3333333333333</ele><time>2026-04-11T07:25:35Z</time></trkpt><trkpt lat="43.46390270556406" lon="11.431654328931403"><ele>348.0</ele><time>2026-04-11T07:25:36Z</time></trkpt><trkpt lat="43.46386612034787" lon="11.431551283146593"><ele>347.6666666666667</ele><time>2026-04-11T07:25:37Z</time></trkpt><trkpt lat="43.46382709408358" lon="11.431456065253997"><ele>347.33333333333337</ele><time>2026-04-11T07:25:38Z</time></trkpt><trkpt lat="43.463783400807586" lon="11.431359407760194"><ele>347.0</ele><time>2026-04-11T07:25:39Z</time></trkpt><trkpt lat="43.463743337304784" lon="11.431261220387333"><ele>347.0</ele><time>2026-04-11T07:25:40Z</time></trkpt><trkpt lat="43.46370807724329" lon="11.431161845531692"><ele>347.0</ele><time>2026-04-11T07:25:41Z</time></trkpt><trkpt lat="43.46366814612041" lon="11.431065308483838"><ele>347.0</ele><time>2026-04-11T07:25:42Z</time></trkpt><trkpt lat="43.4636242974843" lon="11.430979801573281"><ele>347.0</ele><time>2026-04-11T07:25:43Z</time></trkpt><trkpt lat="43.46357569329827" lon="11.43089458085532"><ele>347.0</ele><time>2026-04-11T07:25:44Z</time></trkpt><trkpt lat="43.46353026732167" lon="11.430804337024409"><ele>347.0</ele><time>2026-04-11T07:25:45Z</time></trkpt><trkpt lat="43.463477236460704" lon="11.430717022859993"><ele>347.0</ele><time>2026-04-11T07:25:46Z</time></trkpt><trkpt lat="43.463423892334156" lon="11.430634310886196"><ele>347.0</ele><time>2026-04-11T07:25:47Z</time></trkpt><trkpt lat="43.463361671659314" lon="11.43056643864391"><ele>347.0</ele><time>2026-04-11T07:25:48Z</time></trkpt><trkpt lat="43.46331287632776" lon="11.430484081747014"><ele>347.0</ele><time>2026-04-11T07:25:49Z</time></trkpt><trkpt lat="43.46325366495238" lon="11.430405450728268"><ele>347.0</ele><time>2026-04-11T07:25:50Z</time></trkpt><trkpt lat="43.46320597325199" lon="11.43031851294548"><ele>347.0</ele><time>2026-04-11T07:25:51Z</time></trkpt><trkpt lat="43.46315488689928" lon="11.430235689338991"><ele>346.83333333333337</ele><time>2026-04-11T07:25:52Z</time></trkpt><trkpt lat="43.46310519422064" lon="11.430148616990866"><ele>346.6666666666667</ele><time>2026-04-11T07:25:53Z</time></trkpt><trkpt lat="43.463060110715716" lon="11.430053908241444"><ele>346.5</ele><time>2026-04-11T07:25:54Z</time></trkpt><trkpt lat="43.46301478803195" lon="11.429961224608423"><ele>346.3333333333333</ele><time>2026-04-11T07:25:55Z</time></trkpt><trkpt lat="43.46296464982132" lon="11.42987192735125"><ele>346.16666666666663</ele><time>2026-04-11T07:25:56Z</time></trkpt><trkpt lat="43.462904567627696" lon="11.429793293691699"><ele>346.0</ele><time>2026-04-11T07:25:57Z</time></trkpt><trkpt lat="43.462845343944146" lon="11.429719482678106"><ele>346.0</ele><time>2026-04-11T07:25:58Z</time></trkpt><trkpt lat="43.46278835140866" lon="11.429632206878054"><ele>346.0</ele><time>2026-04-11T07:25:59Z</time></trkpt><trkpt lat="43.46272960860062" lon="11.429551698009757"><ele>346.0</ele><time>2026-04-11T07:26:00Z</time></trkpt><trkpt lat="43.46266510415324" lon="11.429479009240113"><ele>346.0</ele><time>2026-04-11T07:26:01Z</time></trkpt><trkpt lat="43.46260750521296" lon="11.429401269909201"><ele>346.0</ele><time>2026-04-11T07:26:02Z</time></trkpt><trkpt lat="43.462543603021885" lon="11.429321221166697"><ele>346.0</ele><time>2026-04-11T07:26:03Z</time></trkpt><trkpt lat="43.46247617155501" lon="11.429241748136441"><ele>346.0</ele><time>2026-04-11T07:26:04Z</time></trkpt><trkpt lat="43.462415695539136" lon="11.429156677068047"><ele>346.0</ele><time>2026-04-11T07:26:05Z</time></trkpt><trkpt lat="43.46235457212133" lon="11.429075887468532"><ele>346.0</ele><time>2026-04-11T07:26:06Z</time></trkpt><trkpt lat="43.46229038542969" lon="11.42899394371121"><ele>346.0</ele><time>2026-04-11T07:26:07Z</time></trkpt><trkpt lat="43.4622258452394" lon="11.428918775445446"><ele>346.0</ele><time>2026-04-11T07:26:08Z</time></trkpt><trkpt lat="43.46216080366933" lon="11.428834797580265"><ele>346.0</ele><time>2026-04-11T07:26:09Z</time></trkpt><trkpt lat="43.46209148409024" lon="11.428765650096418"><ele>345.3333333333333</ele><time>2026-04-11T07:26:10Z</time></trkpt><trkpt lat="43.46202647270619" lon="11.428684833292602"><ele>344.66666666666663</ele><time>2026-04-11T07:26:11Z</time></trkpt><trkpt lat="43.46196091316892" lon="11.428603499523245"><ele>344.0</ele><time>2026-04-11T07:26:12Z</time></trkpt><trkpt lat="43.46189456816407" lon="11.428528923985413"><ele>343.3333333333333</ele><time>2026-04-11T07:26:13Z</time></trkpt><trkpt lat="43.461828792002684" lon="11.428449880938002"><ele>342.6666666666667</ele><time>2026-04-11T07:26:14Z</time></trkpt><trkpt lat="43.46176293686188" lon="11.428376667745532"><ele>342.0</ele><time>2026-04-11T07:26:15Z</time></trkpt><trkpt lat="43.46169397846692" lon="11.428304906439601"><ele>342.0</ele><time>2026-04-11T07:26:16Z</time></trkpt><trkpt lat="43.461624768676465" lon="11.428240201979838"><ele>342.0</ele><time>2026-04-11T07:26:17Z</time></trkpt><trkpt lat="43.46155731099269" lon="11.428174245480273"><ele>342.0</ele><time>2026-04-11T07:26:18Z</time></trkpt><trkpt lat="43.461496167552774" lon="11.428103278203764"><ele>342.0</ele><time>2026-04-11T07:26:19Z</time></trkpt><trkpt lat="43.46144298782478" lon="11.428032012023813"><ele>342.0</ele><time>2026-04-11T07:26:20Z</time></trkpt><trkpt lat="43.461386209380095" lon="11.427967136532235"><ele>342.0</ele><time>2026-04-11T07:26:21Z</time></trkpt><trkpt lat="43.46132850604241" lon="11.42789477804243"><ele>341.6666666666667</ele><time>2026-04-11T07:26:22Z</time></trkpt><trkpt lat="43.46126684879825" lon="11.42782734624981"><ele>341.3333333333333</ele><time>2026-04-11T07:26:23Z</time></trkpt><trkpt lat="43.461206732549144" lon="11.427764727066045"><ele>341.0</ele><time>2026-04-11T07:26:24Z</time></trkpt><trkpt lat="43.46114804894485" lon="11.427700445752611"><ele>340.66666666666663</ele><time>2026-04-11T07:26:25Z</time></trkpt><trkpt lat="43.46108794268808" lon="11.427637024548654"><ele>340.3333333333333</ele><time>2026-04-11T07:26:26Z</time></trkpt><trkpt lat="43.46102831037758" lon="11.427573177343989"><ele>340.0</ele><time>2026-04-11T07:26:27Z</time></trkpt><trkpt lat="43.460965294409974" lon="11.427513254026588"><ele>340.0</ele><time>2026-04-11T07:26:28Z</time></trkpt><trkpt lat="43.460896939865464" lon="11.427442988145842"><ele>340.0</ele><time>2026-04-11T07:26:29Z</time></trkpt><trkpt lat="43.46083595287021" lon="11.42738580030201"><ele>340.0</ele><time>2026-04-11T07:26:30Z</time></trkpt><trkpt lat="43.46077243806603" lon="11.427316133037174"><ele>340.0</ele><time>2026-04-11T07:26:31Z</time></trkpt><trkpt lat="43.46070611936933" lon="11.427259946256717"><ele>340.0</ele><time>2026-04-11T07:26:32Z</time></trkpt><trkpt lat="43.46064557591452" lon="11.427203420215571"><ele>340.0</ele><time>2026-04-11T07:26:33Z</time></trkpt><trkpt lat="43.46057391584524" lon="11.427155633137309"><ele>340.5</ele><time>2026-04-11T07:26:34Z</time></trkpt><trkpt lat="43.46050653486962" lon="11.427119420872204"><ele>341.0</ele><time>2026-04-11T07:26:35Z</time></trkpt><trkpt lat="43.46043311871221" lon="11.427075776286237"><ele>341.5</ele><time>2026-04-11T07:26:36Z</time></trkpt><trkpt lat="43.460360479956044" lon="11.42703447382683"><ele>342.0</ele><time>2026-04-11T07:26:37Z</time></trkpt><trkpt lat="43.460283338324096" lon="11.427006454318102"><ele>342.5</ele><time>2026-04-11T07:26:38Z</time></trkpt><trkpt lat="43.46020904528408" lon="11.426983328464802"><ele>343.0</ele><time>2026-04-11T07:26:39Z</time></trkpt><trkpt lat="43.46013188507413" lon="11.426945137652197"><ele>343.0</ele><time>2026-04-11T07:26:40Z</time></trkpt><trkpt lat="43.460055009033944" lon="11.426909560004784"><ele>343.0</ele><time>2026-04-11T07:26:41Z</time></trkpt><trkpt lat="43.45997957485685" lon="11.426876655550517"><ele>343.0</ele><time>2026-04-11T07:26:42Z</time></trkpt><trkpt lat="43.45990567694696" lon="11.42684519510706"><ele>343.0</ele><time>2026-04-11T07:26:43Z</time></trkpt><trkpt lat="43.45983245666674" lon="11.426805654898141"><ele>343.0</ele><time>2026-04-11T07:26:44Z</time></trkpt><trkpt lat="43.45975239447115" lon="11.426774309600967"><ele>343.0</ele><time>2026-04-11T07:26:45Z</time></trkpt><trkpt lat="43.4596695691515" lon="11.426739031772387"><ele>342.3333333333333</ele><time>2026-04-11T07:26:46Z</time></trkpt><trkpt lat="43.459592158499554" lon="11.426707098106128"><ele>341.66666666666663</ele><time>2026-04-11T07:26:47Z</time></trkpt><trkpt lat="43.45951657779421" lon="11.426673717802709"><ele>341.0</ele><time>2026-04-11T07:26:48Z</time></trkpt><trkpt lat="43.45944639117719" lon="11.426634431036673"><ele>340.3333333333333</ele><time>2026-04-11T07:26:49Z</time></trkpt><trkpt lat="43.45936975854935" lon="11.426602327880795"><ele>339.6666666666667</ele><time>2026-04-11T07:26:50Z</time></trkpt><trkpt lat="43.45929020002822" lon="11.426569216172567"><ele>339.0</ele><time>2026-04-11T07:26:51Z</time></trkpt><trkpt lat="43.45920945106045" lon="11.426536647402916"><ele>339.0</ele><time>2026-04-11T07:26:52Z</time></trkpt><trkpt lat="43.45913790302537" lon="11.42650735677906"><ele>339.0</ele><time>2026-04-11T07:26:53Z</time></trkpt><trkpt lat="43.459062084868904" lon="11.426473965853829"><ele>339.0</ele><time>2026-04-11T07:26:54Z</time></trkpt><trkpt lat="43.45897720101085" lon="11.42644027997958"><ele>339.0</ele><time>2026-04-11T07:26:55Z</time></trkpt><trkpt lat="43.458893359028465" lon="11.4264079960181"><ele>339.0</ele><time>2026-04-11T07:26:56Z</time></trkpt><trkpt lat="43.45881885757838" lon="11.426367656449607"><ele>339.0</ele><time>2026-04-11T07:26:57Z</time></trkpt><trkpt lat="43.45873306271829" lon="11.426332743627306"><ele>338.5</ele><time>2026-04-11T07:26:58Z</time></trkpt><trkpt lat="43.45864949654777" lon="11.426301577126681"><ele>338.0</ele><time>2026-04-11T07:26:59Z</time></trkpt><trkpt lat="43.4585692984803" lon="11.426266144988395"><ele>337.5</ele><time>2026-04-11T07:27:00Z</time></trkpt><trkpt lat="43.45848554885207" lon="11.426230333264195"><ele>337.0</ele><time>2026-04-11T07:27:01Z</time></trkpt><trkpt lat="43.45840493764482" lon="11.42619701778363"><ele>336.5</ele><time>2026-04-11T07:27:02Z</time></trkpt><trkpt lat="43.4583318124835" lon="11.426165345931443"><ele>336.0</ele><time>2026-04-11T07:27:03Z</time></trkpt><trkpt lat="43.45825176918134" lon="11.42613125839947"><ele>336.0</ele><time>2026-04-11T07:27:04Z</time></trkpt><trkpt lat="43.45817762800949" lon="11.426090509000458"><ele>336.0</ele><time>2026-04-11T07:27:05Z</time></trkpt><trkpt lat="43.45809492607331" lon="11.426060165607732"><ele>336.0</ele><time>2026-04-11T07:27:06Z</time></trkpt><trkpt lat="43.458013467273666" lon="11.426022186201394"><ele>336.0</ele><time>2026-04-11T07:27:07Z</time></trkpt><trkpt lat="43.457938348046845" lon="11.425971064864273"><ele>336.0</ele><time>2026-04-11T07:27:08Z</time></trkpt><trkpt lat="43.45785488049721" lon="11.425933601332975"><ele>336.0</ele><time>2026-04-11T07:27:09Z</time></trkpt><trkpt lat="43.457773109112914" lon="11.425897009603109"><ele>336.0</ele><time>2026-04-11T07:27:10Z</time></trkpt><trkpt lat="43.4576952841798" lon="11.425862148109415"><ele>336.0</ele><time>2026-04-11T07:27:11Z</time></trkpt><trkpt lat="43.45761687718358" lon="11.42582702584284"><ele>336.0</ele><time>2026-04-11T07:27:12Z</time></trkpt><trkpt lat="43.457535177696855" lon="11.425790428726332"><ele>336.0</ele><time>2026-04-11T07:27:13Z</time></trkpt><trkpt lat="43.45745870158061" lon="11.425756288674933"><ele>336.0</ele><time>2026-04-11T07:27:14Z</time></trkpt><trkpt lat="43.45738474374643" lon="11.42572435120633"><ele>336.0</ele><time>2026-04-11T07:27:15Z</time></trkpt><trkpt lat="43.45730515936333" lon="11.425690239873193"><ele>336.0</ele><time>2026-04-11T07:27:16Z</time></trkpt><trkpt lat="43.45722580455662" lon="11.425657703885888"><ele>336.0</ele><time>2026-04-11T07:27:17Z</time></trkpt><trkpt lat="43.4571513511859" lon="11.42562717762891"><ele>336.0</ele><time>2026-04-11T07:27:18Z</time></trkpt><trkpt lat="43.45707397996804" lon="11.425599902758034"><ele>336.0</ele><time>2026-04-11T07:27:19Z</time></trkpt><trkpt lat="43.45700341647824" lon="11.425578471748922"><ele>336.0</ele><time>2026-04-11T07:27:20Z</time></trkpt><trkpt lat="43.45692537566947" lon="11.425557435278918"><ele>336.0</ele><time>2026-04-11T07:27:21Z</time></trkpt><trkpt lat="43.45684817576614" lon="11.425539263395965"><ele>337.0</ele><time>2026-04-11T07:27:22Z</time></trkpt><trkpt lat="43.45677114580831" lon="11.425521813161016"><ele>338.0</ele><time>2026-04-11T07:27:23Z</time></trkpt><trkpt lat="43.45669620078816" lon="11.425506497009385"><ele>339.0</ele><time>2026-04-11T07:27:24Z</time></trkpt><trkpt lat="43.45661675713713" lon="11.425495955183814"><ele>340.0</ele><time>2026-04-11T07:27:25Z</time></trkpt><trkpt lat="43.45654171693737" lon="11.425492550685975"><ele>341.0</ele><time>2026-04-11T07:27:26Z</time></trkpt><trkpt lat="43.45647000854226" lon="11.425510895590989"><ele>342.0</ele><time>2026-04-11T07:27:27Z</time></trkpt><trkpt lat="43.45639837184245" lon="11.425486355194453"><ele>341.99999999999994</ele><time>2026-04-11T07:27:28Z</time></trkpt><trkpt lat="43.45632221912839" lon="11.425500490304131"><ele>342.0</ele><time>2026-04-11T07:27:29Z</time></trkpt><trkpt lat="43.45625531679198" lon="11.425454461487726"><ele>342.0</ele><time>2026-04-11T07:27:30Z</time></trkpt><trkpt lat="43.45618824695039" lon="11.425431659214032"><ele>342.0</ele><time>2026-04-11T07:27:31Z</time></trkpt><trkpt lat="43.45612449428861" lon="11.42537827986492"><ele>342.0</ele><time>2026-04-11T07:27:32Z</time></trkpt><trkpt lat="43.45606494127558" lon="11.42532494208832"><ele>341.99999999999994</ele><time>2026-04-11T07:27:33Z</time></trkpt><trkpt lat="43.45600392338336" lon="11.425265701271233"><ele>342.0</ele><time>2026-04-11T07:27:34Z</time></trkpt><trkpt lat="43.45594607071269" lon="11.425203355812675"><ele>341.1666666666667</ele><time>2026-04-11T07:27:35Z</time></trkpt><trkpt lat="43.45588863080809" lon="11.425133792409204"><ele>340.3333333333333</ele><time>2026-04-11T07:27:36Z</time></trkpt><trkpt lat="43.455828713667906" lon="11.425071613026496"><ele>339.5</ele><time>2026-04-11T07:27:37Z</time></trkpt><trkpt lat="43.4557654652697" lon="11.42500423629806"><ele>338.66666666666663</ele><time>2026-04-11T07:27:38Z</time></trkpt><trkpt lat="43.455700722270706" lon="11.424938550540263"><ele>337.8333333333333</ele><time>2026-04-11T07:27:39Z</time></trkpt><trkpt lat="43.45563427360549" lon="11.424867095251464"><ele>337.0</ele><time>2026-04-11T07:27:40Z</time></trkpt><trkpt lat="43.45556521225077" lon="11.424792525486161"><ele>337.0</ele><time>2026-04-11T07:27:41Z</time></trkpt><trkpt lat="43.45548590520756" lon="11.424724608483526"><ele>337.0</ele><time>2026-04-11T07:27:42Z</time></trkpt><trkpt lat="43.455412482844935" lon="11.424655062479637"><ele>337.0</ele><time>2026-04-11T07:27:43Z</time></trkpt><trkpt lat="43.45534596668096" lon="11.424581820174495"><ele>337.0</ele><time>2026-04-11T07:27:44Z</time></trkpt><trkpt lat="43.45527816706429" lon="11.424512163291466"><ele>337.0</ele><time>2026-04-11T07:27:45Z</time></trkpt><trkpt lat="43.45521663176171" lon="11.424430239416271"><ele>337.0</ele><time>2026-04-11T07:27:46Z</time></trkpt><trkpt lat="43.45514478275661" lon="11.424367473888253"><ele>336.3333333333333</ele><time>2026-04-11T07:27:47Z</time></trkpt><trkpt lat="43.45508144503796" lon="11.424294678685085"><ele>335.66666666666663</ele><time>2026-04-11T07:27:48Z</time></trkpt><trkpt lat="43.45501470660049" lon="11.42421719890062"><ele>335.0</ele><time>2026-04-11T07:27:49Z</time></trkpt><trkpt lat="43.454953978674936" lon="11.424138082141305"><ele>334.3333333333333</ele><time>2026-04-11T07:27:50Z</time></trkpt><trkpt lat="43.45488714297361" lon="11.42406931411695"><ele>333.6666666666667</ele><time>2026-04-11T07:27:51Z</time></trkpt><trkpt lat="43.454820383347" lon="11.4240048881169"><ele>333.0</ele><time>2026-04-11T07:27:52Z</time></trkpt><trkpt lat="43.45475128186567" lon="11.423939995784533"><ele>333.0</ele><time>2026-04-11T07:27:53Z</time></trkpt><trkpt lat="43.45469169474188" lon="11.423868271954124"><ele>333.0</ele><time>2026-04-11T07:27:54Z</time></trkpt><trkpt lat="43.45462708466087" lon="11.423807031907286"><ele>333.0</ele><time>2026-04-11T07:27:55Z</time></trkpt><trkpt lat="43.4545626277919" lon="11.42374986828486"><ele>333.0</ele><time>2026-04-11T07:27:56Z</time></trkpt><trkpt lat="43.4545056570804" lon="11.423691340197337"><ele>333.0</ele><time>2026-04-11T07:27:57Z</time></trkpt><trkpt lat="43.454452755571985" lon="11.42363276772251"><ele>333.0</ele><time>2026-04-11T07:27:58Z</time></trkpt><trkpt lat="43.45439327542132" lon="11.423569142188462"><ele>333.0</ele><time>2026-04-11T07:27:59Z</time></trkpt><trkpt lat="43.454332085359376" lon="11.423484225730334"><ele>332.6666666666667</ele><time>2026-04-11T07:28:00Z</time></trkpt><trkpt lat="43.45427041477748" lon="11.423404564747162"><ele>332.3333333333333</ele><time>2026-04-11T07:28:01Z</time></trkpt><trkpt lat="43.4542044866362" lon="11.423327895324642"><ele>332.0</ele><time>2026-04-11T07:28:02Z</time></trkpt><trkpt lat="43.454152852251404" lon="11.423227597744328"><ele>331.66666666666663</ele><time>2026-04-11T07:28:03Z</time></trkpt><trkpt lat="43.45409952774877" lon="11.423132965949609"><ele>331.3333333333333</ele><time>2026-04-11T07:28:04Z</time></trkpt><trkpt lat="43.454038073077676" lon="11.42304596025799"><ele>331.0</ele><time>2026-04-11T07:28:05Z</time></trkpt><trkpt lat="43.45397861654297" lon="11.422956363914945"><ele>331.66666666666663</ele><time>2026-04-11T07:28:06Z</time></trkpt><trkpt lat="43.453911265876165" lon="11.422880243098602"><ele>332.3333333333333</ele><time>2026-04-11T07:28:07Z</time></trkpt><trkpt lat="43.45386274230064" lon="11.422773322957525"><ele>333.0</ele><time>2026-04-11T07:28:08Z</time></trkpt><trkpt lat="43.4538035531189" lon="11.422681071240145"><ele>333.6666666666667</ele><time>2026-04-11T07:28:09Z</time></trkpt><trkpt lat="43.45374619423777" lon="11.422591672198946"><ele>334.33333333333337</ele><time>2026-04-11T07:28:10Z</time></trkpt><trkpt lat="43.453692201679374" lon="11.422507519836259"><ele>335.0</ele><time>2026-04-11T07:28:11Z</time></trkpt><trkpt lat="43.45362652013091" lon="11.422433201364637"><ele>334.5</ele><time>2026-04-11T07:28:12Z</time></trkpt><trkpt lat="43.45357931170506" lon="11.422331632618569"><ele>334.0</ele><time>2026-04-11T07:28:13Z</time></trkpt><trkpt lat="43.453524292626064" lon="11.422245991748326"><ele>333.5</ele><time>2026-04-11T07:28:14Z</time></trkpt><trkpt lat="43.453470885579875" lon="11.422162860125018"><ele>333.0</ele><time>2026-04-11T07:28:15Z</time></trkpt><trkpt lat="43.453409505798845" lon="11.42209580890423"><ele>332.5</ele><time>2026-04-11T07:28:16Z</time></trkpt><trkpt lat="43.45335530762164" lon="11.422016883623392"><ele>332.0</ele><time>2026-04-11T07:28:17Z</time></trkpt><trkpt lat="43.45330816384898" lon="11.421929251904587"><ele>332.0</ele><time>2026-04-11T07:28:18Z</time></trkpt><trkpt lat="43.453266877584205" lon="11.421849423297452"><ele>332.0</ele><time>2026-04-11T07:28:19Z</time></trkpt><trkpt lat="43.45322411594987" lon="11.421768364786992"><ele>332.0</ele><time>2026-04-11T07:28:20Z</time></trkpt><trkpt lat="43.45317309543696" lon="11.42169674813344"><ele>332.0</ele><time>2026-04-11T07:28:21Z</time></trkpt><trkpt lat="43.453126695654845" lon="11.42161666652878"><ele>332.0</ele><time>2026-04-11T07:28:22Z</time></trkpt><trkpt lat="43.4530742525038" lon="11.421551839330837"><ele>332.0</ele><time>2026-04-11T07:28:23Z</time></trkpt><trkpt lat="43.45302061859584" lon="11.421497118158221"><ele>332.0</ele><time>2026-04-11T07:28:24Z</time></trkpt><trkpt lat="43.45296259761747" lon="11.42144964807088"><ele>332.6</ele><time>2026-04-11T07:28:25Z</time></trkpt><trkpt lat="43.452904965190584" lon="11.421408054773515"><ele>333.20000000000005</ele><time>2026-04-11T07:28:26Z</time></trkpt><trkpt lat="43.452793232689494" lon="11.421333491949552"><ele>333.8</ele><time>2026-04-11T07:28:28Z</time></trkpt><trkpt lat="43.4527315475518" lon="11.421288448481867"><ele>334.4</ele><time>2026-04-11T07:28:29Z</time></trkpt><trkpt lat="43.452624931955725" lon="11.421187359270093"><ele>335.0</ele><time>2026-04-11T07:28:31Z</time></trkpt><trkpt lat="43.45257092779829" lon="11.421128908486043"><ele>335.0</ele><time>2026-04-11T07:28:32Z</time></trkpt><trkpt lat="43.45247764864847" lon="11.421054071074078"><ele>335.0</ele><time>2026-04-11T07:28:34Z</time></trkpt><trkpt lat="43.452428857814226" lon="11.420976615402067"><ele>335.0</ele><time>2026-04-11T07:28:35Z</time></trkpt><trkpt lat="43.452384020411166" lon="11.420911778807843"><ele>335.0</ele><time>2026-04-11T07:28:36Z</time></trkpt><trkpt lat="43.45229672452718" lon="11.42079118353237"><ele>335.0</ele><time>2026-04-11T07:28:38Z</time></trkpt><trkpt lat="43.45221818533345" lon="11.42068078899801"><ele>335.0</ele><time>2026-04-11T07:28:40Z</time></trkpt><trkpt lat="43.45215151686359" lon="11.420560962944032"><ele>335.0</ele><time>2026-04-11T07:28:42Z</time></trkpt><trkpt lat="43.45208015186382" lon="11.420467154099626"><ele>335.0</ele><time>2026-04-11T07:28:44Z</time></trkpt><trkpt lat="43.45200942725015" lon="11.42034526019272"><ele>335.0</ele><time>2026-04-11T07:28:46Z</time></trkpt><trkpt lat="43.45195537013474" lon="11.420241520408297"><ele>335.0</ele><time>2026-04-11T07:28:51Z</time></trkpt><trkpt lat="43.45191363538659" lon="11.420136706542651"><ele>334.33333333333337</ele><time>2026-04-11T07:28:54Z</time></trkpt><trkpt lat="43.451853845715746" lon="11.42004867278515"><ele>333.6666666666667</ele><time>2026-04-11T07:28:56Z</time></trkpt><trkpt lat="43.45179029711865" lon="11.419980178288673"><ele>333.0</ele><time>2026-04-11T07:28:59Z</time></trkpt><trkpt lat="43.45175915080146" lon="11.419884905552607"><ele>332.3333333333333</ele><time>2026-04-11T07:29:01Z</time></trkpt><trkpt lat="43.45170280769794" lon="11.41983617083145"><ele>331.66666666666663</ele><time>2026-04-11T07:29:02Z</time></trkpt><trkpt lat="43.45163592755317" lon="11.419761626799966"><ele>331.0</ele><time>2026-04-11T07:29:05Z</time></trkpt><trkpt lat="43.451585983186725" lon="11.419698742245659"><ele>331.5</ele><time>2026-04-11T07:29:07Z</time></trkpt><trkpt lat="43.45153259122043" lon="11.419617182313946"><ele>332.0</ele><time>2026-04-11T07:29:09Z</time></trkpt><trkpt lat="43.45146296939289" lon="11.419553997003224"><ele>332.5</ele><time>2026-04-11T07:29:10Z</time></trkpt><trkpt lat="43.451400349654854" lon="11.419493085497658"><ele>333.0</ele><time>2026-04-11T07:29:11Z</time></trkpt><trkpt lat="43.45133377846982" lon="11.41940918480048"><ele>333.5</ele><time>2026-04-11T07:29:12Z</time></trkpt><trkpt lat="43.45124750471895" lon="11.419331761649184"><ele>334.0</ele><time>2026-04-11T07:29:13Z</time></trkpt><trkpt lat="43.45112552347988" lon="11.419224997701303"><ele>332.0</ele><time>2026-04-11T07:29:14Z</time></trkpt><trkpt lat="43.45098945850402" lon="11.419148811594244"><ele>330.0</ele><time>2026-04-11T07:29:15Z</time></trkpt><trkpt lat="43.45087253354394" lon="11.419102599214186"><ele>328.0</ele><time>2026-04-11T07:29:16Z</time></trkpt><trkpt lat="43.45075661537765" lon="11.419063943281948"><ele>326.0</ele><time>2026-04-11T07:29:17Z</time></trkpt><trkpt lat="43.45063816053063" lon="11.419029809534488"><ele>326.0</ele><time>2026-04-11T07:29:18Z</time></trkpt><trkpt lat="43.45052622409308" lon="11.41899806421555"><ele>326.0</ele><time>2026-04-11T07:29:19Z</time></trkpt><trkpt lat="43.45043329945831" lon="11.418971709465964"><ele>326.0</ele><time>2026-04-11T07:29:20Z</time></trkpt><trkpt lat="43.45031965295421" lon="11.418958389683251"><ele>326.0</ele><time>2026-04-11T07:29:21Z</time></trkpt><trkpt lat="43.45020940926099" lon="11.418951729416559"><ele>326.0</ele><time>2026-04-11T07:29:22Z</time></trkpt><trkpt lat="43.45009770477158" lon="11.41895531211945"><ele>325.6</ele><time>2026-04-11T07:29:23Z</time></trkpt><trkpt lat="43.45000466864022" lon="11.418914367305195"><ele>325.20000000000005</ele><time>2026-04-11T07:29:24Z</time></trkpt><trkpt lat="43.449920668091224" lon="11.41887183040779"><ele>324.79999999999995</ele><time>2026-04-11T07:29:25Z</time></trkpt><trkpt lat="43.449831275362826" lon="11.418828744985136"><ele>324.4</ele><time>2026-04-11T07:29:26Z</time></trkpt><trkpt lat="43.44974746408258" lon="11.41879136096385"><ele>324.0</ele><time>2026-04-11T07:29:27Z</time></trkpt><trkpt lat="43.449672633752265" lon="11.418747999822616"><ele>325.1666666666667</ele><time>2026-04-11T07:29:28Z</time></trkpt><trkpt lat="43.44958165584885" lon="11.418697019214477"><ele>326.3333333333333</ele><time>2026-04-11T07:29:29Z</time></trkpt><trkpt lat="43.44949629886171" lon="11.418661222321948"><ele>327.5</ele><time>2026-04-11T07:29:30Z</time></trkpt><trkpt lat="43.44942224692679" lon="11.418626641954994"><ele>328.66666666666663</ele><time>2026-04-11T07:29:31Z</time></trkpt><trkpt lat="43.44934562352647" lon="11.418616518278318"><ele>329.8333333333333</ele><time>2026-04-11T07:29:32Z</time></trkpt><trkpt lat="43.44927559265621" lon="11.418595876006076"><ele>331.0</ele><time>2026-04-11T07:29:33Z</time></trkpt><trkpt lat="43.449206400428764" lon="11.418584948829784"><ele>331.0</ele><time>2026-04-11T07:29:34Z</time></trkpt><trkpt lat="43.44913441243182" lon="11.418574764286177"><ele>331.0</ele><time>2026-04-11T07:29:35Z</time></trkpt><trkpt lat="43.4490560307861" lon="11.418558140882055"><ele>331.0</ele><time>2026-04-11T07:29:36Z</time></trkpt><trkpt lat="43.44898276303449" lon="11.4185613359425"><ele>331.0</ele><time>2026-04-11T07:29:37Z</time></trkpt><trkpt lat="43.44891811145035" lon="11.41855145156765"><ele>331.0</ele><time>2026-04-11T07:29:38Z</time></trkpt><trkpt lat="43.44885412161431" lon="11.41854988337677"><ele>331.0</ele><time>2026-04-11T07:29:39Z</time></trkpt><trkpt lat="43.44872517807696" lon="11.418536313816938"><ele>331.0</ele><time>2026-04-11T07:29:41Z</time></trkpt><trkpt lat="43.44861474033501" lon="11.418494309155655"><ele>331.0</ele><time>2026-04-11T07:29:43Z</time></trkpt><trkpt lat="43.44848327954706" lon="11.41848526303556"><ele>331.0</ele><time>2026-04-11T07:29:45Z</time></trkpt><trkpt lat="43.44837893392774" lon="11.41843752092579"><ele>331.0</ele><time>2026-04-11T07:29:47Z</time></trkpt><trkpt lat="43.44831176909845" lon="11.418403967085288"><ele>331.0</ele><time>2026-04-11T07:29:48Z</time></trkpt><trkpt lat="43.44821858715968" lon="11.418327173875019"><ele>331.0</ele><time>2026-04-11T07:29:50Z</time></trkpt><trkpt lat="43.448179399768655" lon="11.41823498757235"><ele>331.0</ele><time>2026-04-11T07:29:54Z</time></trkpt><trkpt lat="43.448100929223706" lon="11.418179975576239"><ele>331.0</ele><time>2026-04-11T07:29:56Z</time></trkpt><trkpt lat="43.44804814256469" lon="11.418101606114611"><ele>331.0</ele><time>2026-04-11T07:29:59Z</time></trkpt><trkpt lat="43.44797313523586" lon="11.418038879200283"><ele>331.0</ele><time>2026-04-11T07:30:02Z</time></trkpt><trkpt lat="43.44789054376022" lon="11.417997970199169"><ele>331.0</ele><time>2026-04-11T07:30:05Z</time></trkpt><trkpt lat="43.44782458661665" lon="11.417943151238525"><ele>332.16666666666663</ele><time>2026-04-11T07:30:07Z</time></trkpt><trkpt lat="43.44775749767002" lon="11.417909870537093"><ele>333.3333333333333</ele><time>2026-04-11T07:30:09Z</time></trkpt><trkpt lat="43.44769277544268" lon="11.417875545973947"><ele>334.5</ele><time>2026-04-11T07:30:11Z</time></trkpt><trkpt lat="43.44759780190291" lon="11.41782852661299"><ele>335.6666666666667</ele><time>2026-04-11T07:30:15Z</time></trkpt><trkpt lat="43.44753109961308" lon="11.417798381170623"><ele>336.83333333333337</ele><time>2026-04-11T07:30:17Z</time></trkpt><trkpt lat="43.44747195144887" lon="11.417759557990045"><ele>338.0</ele><time>2026-04-11T07:30:19Z</time></trkpt><trkpt lat="43.4473939619504" lon="11.41773734052239"><ele>338.0</ele><time>2026-04-11T07:30:21Z</time></trkpt><trkpt lat="43.44732681109311" lon="11.417701553713867"><ele>338.0</ele><time>2026-04-11T07:30:24Z</time></trkpt><trkpt lat="43.447231305187714" lon="11.417653512973507"><ele>338.0</ele><time>2026-04-11T07:30:27Z</time></trkpt><trkpt lat="43.44716849483876" lon="11.417645058052704"><ele>338.0</ele><time>2026-04-11T07:30:29Z</time></trkpt><trkpt lat="43.44709542886757" lon="11.417645249538953"><ele>338.0</ele><time>2026-04-11T07:30:31Z</time></trkpt><trkpt lat="43.44700340172299" lon="11.417589500303443"><ele>338.0</ele><time>2026-04-11T07:30:34Z</time></trkpt><trkpt lat="43.446915768798384" lon="11.417575834413977"><ele>338.33333333333337</ele><time>2026-04-11T07:30:37Z</time></trkpt><trkpt lat="43.44685046880779" lon="11.417568878197704"><ele>338.6666666666667</ele><time>2026-04-11T07:30:39Z</time></trkpt><trkpt lat="43.4467860172273" lon="11.417587511603024"><ele>339.0</ele><time>2026-04-11T07:30:41Z</time></trkpt><trkpt lat="43.44672505967242" lon="11.417635990029162"><ele>339.3333333333333</ele><time>2026-04-11T07:30:43Z</time></trkpt><trkpt lat="43.44664701482473" lon="11.417709635784332"><ele>339.66666666666663</ele><time>2026-04-11T07:30:45Z</time></trkpt><trkpt lat="43.44656698571747" lon="11.41778599899162"><ele>340.0</ele><time>2026-04-11T07:30:47Z</time></trkpt><trkpt lat="43.44648155809818" lon="11.417863265771869"><ele>340.0</ele><time>2026-04-11T07:30:49Z</time></trkpt><trkpt lat="43.44639085969555" lon="11.417951073550316"><ele>340.0</ele><time>2026-04-11T07:30:51Z</time></trkpt><trkpt lat="43.446321476300874" lon="11.418039388588431"><ele>340.0</ele><time>2026-04-11T07:30:53Z</time></trkpt><trkpt lat="43.446254341356386" lon="11.41815216330037"><ele>340.0</ele><time>2026-04-11T07:30:55Z</time></trkpt><trkpt lat="43.446184016127376" lon="11.418280064690578"><ele>340.0</ele><time>2026-04-11T07:30:57Z</time></trkpt><trkpt lat="43.44613722615044" lon="11.41834486172283"><ele>340.4</ele><time>2026-04-11T07:30:58Z</time></trkpt><trkpt lat="43.446074657207895" lon="11.418480478334807"><ele>340.8</ele><time>2026-04-11T07:31:00Z</time></trkpt><trkpt lat="43.446009876545524" lon="11.418613032764872"><ele>341.20000000000005</ele><time>2026-04-11T07:31:02Z</time></trkpt><trkpt lat="43.44596608819025" lon="11.418709107706674"><ele>341.6</ele><time>2026-04-11T07:31:03Z</time></trkpt><trkpt lat="43.445933372933204" lon="11.418804048290225"><ele>342.0</ele><time>2026-04-11T07:31:04Z</time></trkpt><trkpt lat="43.44589481286175" lon="11.418912050373294"><ele>340.85714285714283</ele><time>2026-04-11T07:31:05Z</time></trkpt><trkpt lat="43.44587369790085" lon="11.418997470077189"><ele>339.7142857142857</ele><time>2026-04-11T07:31:06Z</time></trkpt><trkpt lat="43.44585433629234" lon="11.419095412691428"><ele>338.57142857142856</ele><time>2026-04-11T07:31:07Z</time></trkpt><trkpt lat="43.44583573707587" lon="11.419191868332042"><ele>337.42857142857144</ele><time>2026-04-11T07:31:08Z</time></trkpt><trkpt lat="43.44580339092859" lon="11.419282422878902"><ele>336.2857142857143</ele><time>2026-04-11T07:31:09Z</time></trkpt><trkpt lat="43.44578848526885" lon="11.419372097126423"><ele>335.1428571428571</ele><time>2026-04-11T07:31:10Z</time></trkpt><trkpt lat="43.44576565776855" lon="11.419466251074997"><ele>334.0</ele><time>2026-04-11T07:31:11Z</time></trkpt><trkpt lat="43.44572286477898" lon="11.419553519995414"><ele>334.0</ele><time>2026-04-11T07:31:12Z</time></trkpt><trkpt lat="43.445673448750824" lon="11.419619519512445"><ele>334.0</ele><time>2026-04-11T07:31:13Z</time></trkpt><trkpt lat="43.44560836913612" lon="11.419678167553844"><ele>334.0</ele><time>2026-04-11T07:31:14Z</time></trkpt><trkpt lat="43.44554374802061" lon="11.419714446801974"><ele>334.0</ele><time>2026-04-11T07:31:15Z</time></trkpt><trkpt lat="43.44546552970002" lon="11.41974780568456"><ele>334.0</ele><time>2026-04-11T07:31:16Z</time></trkpt><trkpt lat="43.44539282430422" lon="11.419777728186174"><ele>334.0</ele><time>2026-04-11T07:31:17Z</time></trkpt><trkpt lat="43.44531235340586" lon="11.419793432130042"><ele>334.8333333333333</ele><time>2026-04-11T07:31:18Z</time></trkpt><trkpt lat="43.445242003534155" lon="11.419837113542975"><ele>335.66666666666663</ele><time>2026-04-11T07:31:19Z</time></trkpt><trkpt lat="43.44517922649078" lon="11.419875625992729"><ele>336.5</ele><time>2026-04-11T07:31:20Z</time></trkpt><trkpt lat="43.44512239725887" lon="11.419919196195991"><ele>337.3333333333333</ele><time>2026-04-11T07:31:21Z</time></trkpt><trkpt lat="43.445060797257334" lon="11.419952719485147"><ele>338.1666666666667</ele><time>2026-04-11T07:31:22Z</time></trkpt><trkpt lat="43.44494344633561" lon="11.42003787776852"><ele>339.0</ele><time>2026-04-11T07:31:24Z</time></trkpt><trkpt lat="43.44483301030691" lon="11.420102948726552"><ele>339.0</ele><time>2026-04-11T07:31:26Z</time></trkpt><trkpt lat="43.44472352873904" lon="11.42017247458632"><ele>339.0</ele><time>2026-04-11T07:31:28Z</time></trkpt><trkpt lat="43.444606898184304" lon="11.420255425291236"><ele>339.0</ele><time>2026-04-11T07:31:30Z</time></trkpt><trkpt lat="43.44455512066491" lon="11.420315536265372"><ele>339.0</ele><time>2026-04-11T07:31:31Z</time></trkpt><trkpt lat="43.44450431411635" lon="11.420389085667491"><ele>339.0</ele><time>2026-04-11T07:31:32Z</time></trkpt><trkpt lat="43.444460512625476" lon="11.420458293496852"><ele>338.6666666666667</ele><time>2026-04-11T07:31:33Z</time></trkpt><trkpt lat="43.44441584851653" lon="11.42052828795502"><ele>338.3333333333333</ele><time>2026-04-11T07:31:34Z</time></trkpt><trkpt lat="43.444369505040015" lon="11.420598902217261"><ele>338.0</ele><time>2026-04-11T07:31:35Z</time></trkpt><trkpt lat="43.44432421337817" lon="11.420667913747184"><ele>337.66666666666663</ele><time>2026-04-11T07:31:36Z</time></trkpt><trkpt lat="43.44427856462518" lon="11.420731879156945"><ele>337.3333333333333</ele><time>2026-04-11T07:31:37Z</time></trkpt><trkpt lat="43.44422946065685" lon="11.420792663995643"><ele>337.0</ele><time>2026-04-11T07:31:38Z</time></trkpt><trkpt lat="43.44412255549567" lon="11.420899800042385"><ele>337.0</ele><time>2026-04-11T07:31:40Z</time></trkpt><trkpt lat="43.44406327218593" lon="11.420973175286896"><ele>337.0</ele><time>2026-04-11T07:31:41Z</time></trkpt><trkpt lat="43.443985853707424" lon="11.421011753672579"><ele>337.0</ele><time>2026-04-11T07:31:42Z</time></trkpt><trkpt lat="43.443914382134395" lon="11.421049435717551"><ele>337.0</ele><time>2026-04-11T07:31:43Z</time></trkpt><trkpt lat="43.4438506777668" lon="11.421094933707819"><ele>337.0</ele><time>2026-04-11T07:31:44Z</time></trkpt><trkpt lat="43.44372386885572" lon="11.42113569301717"><ele>337.0</ele><time>2026-04-11T07:31:46Z</time></trkpt><trkpt lat="43.44364489700042" lon="11.421179471688076"><ele>338.5</ele><time>2026-04-11T07:31:47Z</time></trkpt><trkpt lat="43.44357678397663" lon="11.421244651221846"><ele>340.0</ele><time>2026-04-11T07:31:48Z</time></trkpt><trkpt lat="43.44352349445927" lon="11.421300559451963"><ele>341.5</ele><time>2026-04-11T07:31:49Z</time></trkpt><trkpt lat="43.44345610278062" lon="11.421343549201755"><ele>343.0</ele><time>2026-04-11T07:31:50Z</time></trkpt><trkpt lat="43.44334555823692" lon="11.421438032961289"><ele>344.5</ele><time>2026-04-11T07:31:52Z</time></trkpt><trkpt lat="43.44326536801922" lon="11.421465791258735"><ele>346.0</ele><time>2026-04-11T07:31:53Z</time></trkpt><trkpt lat="43.4432034735437" lon="11.421494962706086"><ele>343.4285714285714</ele><time>2026-04-11T07:31:54Z</time></trkpt><trkpt lat="43.44313636746848" lon="11.421517688832049"><ele>340.8571428571429</ele><time>2026-04-11T07:31:55Z</time></trkpt><trkpt lat="43.44306917492205" lon="11.421540866049991"><ele>338.2857142857143</ele><time>2026-04-11T07:31:56Z</time></trkpt><trkpt lat="43.44299606982384" lon="11.421550646421371"><ele>335.71428571428567</ele><time>2026-04-11T07:31:57Z</time></trkpt><trkpt lat="43.44292826230082" lon="11.421546046477614"><ele>333.1428571428571</ele><time>2026-04-11T07:31:58Z</time></trkpt><trkpt lat="43.44285254300735" lon="11.42153830242883"><ele>330.57142857142856</ele><time>2026-04-11T07:31:59Z</time></trkpt><trkpt lat="43.44278203053176" lon="11.421541828187909"><ele>328.0</ele><time>2026-04-11T07:32:00Z</time></trkpt><trkpt lat="43.44270532892886" lon="11.421552329852265"><ele>328.0</ele><time>2026-04-11T07:32:01Z</time></trkpt><trkpt lat="43.44262680503467" lon="11.421549979179156"><ele>328.0</ele><time>2026-04-11T07:32:02Z</time></trkpt><trkpt lat="43.44255273517351" lon="11.421546707336546"><ele>328.0</ele><time>2026-04-11T07:32:03Z</time></trkpt><trkpt lat="43.442477059115205" lon="11.421539281105238"><ele>328.0</ele><time>2026-04-11T07:32:04Z</time></trkpt><trkpt lat="43.44240290117548" lon="11.42153275088972"><ele>328.0</ele><time>2026-04-11T07:32:05Z</time></trkpt><trkpt lat="43.44233042350762" lon="11.421523090115793"><ele>328.0</ele><time>2026-04-11T07:32:06Z</time></trkpt><trkpt lat="43.44224966762724" lon="11.42151273140342"><ele>327.16666666666663</ele><time>2026-04-11T07:32:07Z</time></trkpt><trkpt lat="43.44210606873448" lon="11.421491930653469"><ele>326.3333333333333</ele><time>2026-04-11T07:32:09Z</time></trkpt><trkpt lat="43.442019915246654" lon="11.421480973970352"><ele>325.5</ele><time>2026-04-11T07:32:10Z</time></trkpt><trkpt lat="43.441949769098464" lon="11.421475838591894"><ele>324.6666666666667</ele><time>2026-04-11T07:32:11Z</time></trkpt><trkpt lat="43.44187932043466" lon="11.421452811496046"><ele>323.83333333333337</ele><time>2026-04-11T07:32:12Z</time></trkpt><trkpt lat="43.44181647391521" lon="11.421436915410741"><ele>323.0</ele><time>2026-04-11T07:32:13Z</time></trkpt><trkpt lat="43.44173622650661" lon="11.42142643236049"><ele>323.0</ele><time>2026-04-11T07:32:14Z</time></trkpt><trkpt lat="43.441664678558695" lon="11.421419855463272"><ele>323.0</ele><time>2026-04-11T07:32:15Z</time></trkpt><trkpt lat="43.44158703958405" lon="11.421406936880437"><ele>323.0</ele><time>2026-04-11T07:32:16Z</time></trkpt><trkpt lat="43.44150737106054" lon="11.421395205560238"><ele>323.0</ele><time>2026-04-11T07:32:17Z</time></trkpt><trkpt lat="43.44143747568069" lon="11.421382149941262"><ele>323.0</ele><time>2026-04-11T07:32:18Z</time></trkpt><trkpt lat="43.44136166281436" lon="11.421375784565836"><ele>323.0</ele><time>2026-04-11T07:32:19Z</time></trkpt><trkpt lat="43.441284258233495" lon="11.421358889777846"><ele>322.28571428571433</ele><time>2026-04-11T07:32:20Z</time></trkpt><trkpt lat="43.441205711514314" lon="11.421343495654659"><ele>321.57142857142856</ele><time>2026-04-11T07:32:21Z</time></trkpt><trkpt lat="43.44114689487619" lon="11.421303669024873"><ele>320.8571428571429</ele><time>2026-04-11T07:32:22Z</time></trkpt><trkpt lat="43.441077649946145" lon="11.421265122926439"><ele>320.14285714285717</ele><time>2026-04-11T07:32:23Z</time></trkpt><trkpt lat="43.44101377979591" lon="11.421219923840566"><ele>319.42857142857144</ele><time>2026-04-11T07:32:24Z</time></trkpt><trkpt lat="43.44094592059392" lon="11.421170798256"><ele>318.7142857142857</ele><time>2026-04-11T07:32:25Z</time></trkpt><trkpt lat="43.4408758179297" lon="11.421123353072637"><ele>318.0</ele><time>2026-04-11T07:32:26Z</time></trkpt><trkpt lat="43.440795467611636" lon="11.421063830722394"><ele>317.85714285714283</ele><time>2026-04-11T07:32:27Z</time></trkpt><trkpt lat="43.44073828426997" lon="11.421019143170312"><ele>317.7142857142857</ele><time>2026-04-11T07:32:28Z</time></trkpt><trkpt lat="43.4406748213942" lon="11.420967001512802"><ele>317.57142857142856</ele><time>2026-04-11T07:32:29Z</time></trkpt><trkpt lat="43.440603841060025" lon="11.420914837583464"><ele>317.42857142857144</ele><time>2026-04-11T07:32:30Z</time></trkpt><trkpt lat="43.44054838582873" lon="11.420865857117468"><ele>317.2857142857143</ele><time>2026-04-11T07:32:31Z</time></trkpt><trkpt lat="43.44048891530392" lon="11.420815143632916"><ele>317.14285714285717</ele><time>2026-04-11T07:32:32Z</time></trkpt><trkpt lat="43.44042880252437" lon="11.420762994193911"><ele>317.0</ele><time>2026-04-11T07:32:33Z</time></trkpt><trkpt lat="43.440373258788526" lon="11.420705804403424"><ele>317.0</ele><time>2026-04-11T07:32:34Z</time></trkpt><trkpt lat="43.44030989974125" lon="11.4206523773514"><ele>317.0</ele><time>2026-04-11T07:32:35Z</time></trkpt><trkpt lat="43.44025756940741" lon="11.42059592215148"><ele>317.0</ele><time>2026-04-11T07:32:36Z</time></trkpt><trkpt lat="43.44019740703887" lon="11.420546746720605"><ele>317.0</ele><time>2026-04-11T07:32:37Z</time></trkpt><trkpt lat="43.44014378389643" lon="11.42049958512027"><ele>317.0</ele><time>2026-04-11T07:32:38Z</time></trkpt><trkpt lat="43.44008260731804" lon="11.420445683465184"><ele>317.0</ele><time>2026-04-11T07:32:39Z</time></trkpt><trkpt lat="43.43996487125329" lon="11.420354879807544"><ele>317.14285714285717</ele><time>2026-04-11T07:32:41Z</time></trkpt><trkpt lat="43.43990384669004" lon="11.420287446023774"><ele>317.2857142857143</ele><time>2026-04-11T07:32:42Z</time></trkpt><trkpt lat="43.43985025054817" lon="11.420223426231232"><ele>317.42857142857144</ele><time>2026-04-11T07:32:43Z</time></trkpt><trkpt lat="43.43978668498455" lon="11.42017812384503"><ele>317.57142857142856</ele><time>2026-04-11T07:32:44Z</time></trkpt><trkpt lat="43.439729736762246" lon="11.420120654576413"><ele>317.7142857142857</ele><time>2026-04-11T07:32:45Z</time></trkpt><trkpt lat="43.439667406122304" lon="11.420091743012447"><ele>317.85714285714283</ele><time>2026-04-11T07:32:46Z</time></trkpt><trkpt lat="43.43961151562811" lon="11.420045258207631"><ele>318.0</ele><time>2026-04-11T07:32:47Z</time></trkpt><trkpt lat="43.43954993017997" lon="11.419995175536936"><ele>318.0</ele><time>2026-04-11T07:32:48Z</time></trkpt><trkpt lat="43.43948299082778" lon="11.419945476915025"><ele>318.0</ele><time>2026-04-11T07:32:49Z</time></trkpt><trkpt lat="43.439417751890296" lon="11.419903863629797"><ele>318.0</ele><time>2026-04-11T07:32:50Z</time></trkpt><trkpt lat="43.439354084846336" lon="11.419863436044288"><ele>318.0</ele><time>2026-04-11T07:32:51Z</time></trkpt><trkpt lat="43.43928908648113" lon="11.419818289770653"><ele>318.0</ele><time>2026-04-11T07:32:52Z</time></trkpt><trkpt lat="43.43922411307567" lon="11.419757720895252"><ele>318.0</ele><time>2026-04-11T07:32:53Z</time></trkpt><trkpt lat="43.439151954197506" lon="11.419728192326689"><ele>318.0</ele><time>2026-04-11T07:32:54Z</time></trkpt><trkpt lat="43.439074267349476" lon="11.419691139529503"><ele>318.0</ele><time>2026-04-11T07:32:55Z</time></trkpt><trkpt lat="43.43899652017955" lon="11.419670604224507"><ele>318.0</ele><time>2026-04-11T07:32:56Z</time></trkpt><trkpt lat="43.43891603235052" lon="11.419634573722627"><ele>318.0</ele><time>2026-04-11T07:32:57Z</time></trkpt><trkpt lat="43.43883616198287" lon="11.41961792918203"><ele>318.0</ele><time>2026-04-11T07:32:58Z</time></trkpt><trkpt lat="43.43874486519519" lon="11.419605186813738"><ele>318.0</ele><time>2026-04-11T07:32:59Z</time></trkpt><trkpt lat="43.43865865928286" lon="11.419602228919404"><ele>318.0</ele><time>2026-04-11T07:33:00Z</time></trkpt><trkpt lat="43.43857790868335" lon="11.419615318472776"><ele>319.6666666666667</ele><time>2026-04-11T07:33:01Z</time></trkpt><trkpt lat="43.43849583393262" lon="11.419612671848382"><ele>321.3333333333333</ele><time>2026-04-11T07:33:02Z</time></trkpt><trkpt lat="43.43840926604859" lon="11.419603107271023"><ele>323.0</ele><time>2026-04-11T07:33:03Z</time></trkpt><trkpt lat="43.438330613659346" lon="11.419598663354027"><ele>324.66666666666663</ele><time>2026-04-11T07:33:04Z</time></trkpt><trkpt lat="43.438253492815946" lon="11.419589465560334"><ele>326.3333333333333</ele><time>2026-04-11T07:33:05Z</time></trkpt><trkpt lat="43.438177068952136" lon="11.419577329553631"><ele>328.0</ele><time>2026-04-11T07:33:06Z</time></trkpt><trkpt lat="43.43809794637586" lon="11.419567956520192"><ele>328.0</ele><time>2026-04-11T07:33:07Z</time></trkpt><trkpt lat="43.43802226552994" lon="11.419556984919167"><ele>328.0</ele><time>2026-04-11T07:33:08Z</time></trkpt><trkpt lat="43.43795058853507" lon="11.41954027327036"><ele>328.0</ele><time>2026-04-11T07:33:09Z</time></trkpt><trkpt lat="43.43788059215085" lon="11.419505485271419"><ele>328.0</ele><time>2026-04-11T07:33:10Z</time></trkpt><trkpt lat="43.437791732919" lon="11.419490582794044"><ele>328.0</ele><time>2026-04-11T07:33:11Z</time></trkpt><trkpt lat="43.43770583292832" lon="11.419474357283153"><ele>328.0</ele><time>2026-04-11T07:33:12Z</time></trkpt><trkpt lat="43.43762604092147" lon="11.419448953463043"><ele>327.16666666666663</ele><time>2026-04-11T07:33:13Z</time></trkpt><trkpt lat="43.43754850038679" lon="11.419441737719566"><ele>326.3333333333333</ele><time>2026-04-11T07:33:14Z</time></trkpt><trkpt lat="43.43746518605866" lon="11.419430290340914"><ele>325.5</ele><time>2026-04-11T07:33:15Z</time></trkpt><trkpt lat="43.437381599020895" lon="11.419408929420868"><ele>324.6666666666667</ele><time>2026-04-11T07:33:16Z</time></trkpt><trkpt lat="43.43730319060297" lon="11.41940841159653"><ele>323.83333333333337</ele><time>2026-04-11T07:33:17Z</time></trkpt><trkpt lat="43.43721743244632" lon="11.419383492855085"><ele>323.0</ele><time>2026-04-11T07:33:18Z</time></trkpt><trkpt lat="43.43713477277695" lon="11.419358355042807"><ele>322.5</ele><time>2026-04-11T07:33:19Z</time></trkpt><trkpt lat="43.437048025684895" lon="11.419352662135118"><ele>322.0</ele><time>2026-04-11T07:33:20Z</time></trkpt><trkpt lat="43.43695644407877" lon="11.419329899598457"><ele>321.5</ele><time>2026-04-11T07:33:21Z</time></trkpt><trkpt lat="43.4368653123973" lon="11.419323556491442"><ele>321.0</ele><time>2026-04-11T07:33:22Z</time></trkpt><trkpt lat="43.43678629035969" lon="11.419309427342508"><ele>320.5</ele><time>2026-04-11T07:33:23Z</time></trkpt><trkpt lat="43.43669769087097" lon="11.419297607494524"><ele>320.0</ele><time>2026-04-11T07:33:24Z</time></trkpt><trkpt lat="43.436606363549316" lon="11.41928380962276"><ele>320.0</ele><time>2026-04-11T07:33:25Z</time></trkpt><trkpt lat="43.436527373735366" lon="11.419259937511178"><ele>320.0</ele><time>2026-04-11T07:33:26Z</time></trkpt><trkpt lat="43.43643652627946" lon="11.419247649230186"><ele>320.0</ele><time>2026-04-11T07:33:27Z</time></trkpt><trkpt lat="43.436354754083105" lon="11.41922017397949"><ele>320.0</ele><time>2026-04-11T07:33:28Z</time></trkpt><trkpt lat="43.43626964542226" lon="11.419206635860398"><ele>320.0</ele><time>2026-04-11T07:33:29Z</time></trkpt><trkpt lat="43.43618749008267" lon="11.419209986001901"><ele>320.0</ele><time>2026-04-11T07:33:30Z</time></trkpt><trkpt lat="43.43610013514824" lon="11.419195808729036"><ele>319.33333333333337</ele><time>2026-04-11T07:33:31Z</time></trkpt><trkpt lat="43.43601340131636" lon="11.419178235397588"><ele>318.6666666666667</ele><time>2026-04-11T07:33:32Z</time></trkpt><trkpt lat="43.43593224855939" lon="11.419158043597843"><ele>318.0</ele><time>2026-04-11T07:33:33Z</time></trkpt><trkpt lat="43.435849919341955" lon="11.419142132862568"><ele>317.3333333333333</ele><time>2026-04-11T07:33:34Z</time></trkpt><trkpt lat="43.435776544560824" lon="11.419136929334522"><ele>316.66666666666663</ele><time>2026-04-11T07:33:35Z</time></trkpt><trkpt lat="43.43569540596643" lon="11.41912960498816"><ele>316.0</ele><time>2026-04-11T07:33:36Z</time></trkpt><trkpt lat="43.43561554416388" lon="11.419107115690686"><ele>316.0</ele><time>2026-04-11T07:33:37Z</time></trkpt><trkpt lat="43.43553229638111" lon="11.41909489490906"><ele>316.0</ele><time>2026-04-11T07:33:38Z</time></trkpt><trkpt lat="43.435446494885255" lon="11.419085396219138"><ele>316.0</ele><time>2026-04-11T07:33:39Z</time></trkpt><trkpt lat="43.43536588912988" lon="11.419078456323563"><ele>316.0</ele><time>2026-04-11T07:33:40Z</time></trkpt><trkpt lat="43.43527608462826" lon="11.419099042847439"><ele>316.0</ele><time>2026-04-11T07:33:41Z</time></trkpt><trkpt lat="43.43520878312532" lon="11.419121493618908"><ele>316.0</ele><time>2026-04-11T07:33:42Z</time></trkpt><trkpt lat="43.43513983132543" lon="11.419173048684996"><ele>316.5</ele><time>2026-04-11T07:33:43Z</time></trkpt><trkpt lat="43.435050423585" lon="11.419215015246442"><ele>317.0</ele><time>2026-04-11T07:33:44Z</time></trkpt><trkpt lat="43.43497309024467" lon="11.419276568228202"><ele>317.5</ele><time>2026-04-11T07:33:45Z</time></trkpt><trkpt lat="43.43489933865067" lon="11.41933683666094"><ele>318.0</ele><time>2026-04-11T07:33:46Z</time></trkpt><trkpt lat="43.43483152254918" lon="11.41941627417685"><ele>318.5</ele><time>2026-04-11T07:33:47Z</time></trkpt><trkpt lat="43.434756924901016" lon="11.41947494077591"><ele>319.0</ele><time>2026-04-11T07:33:48Z</time></trkpt><trkpt lat="43.43469197432966" lon="11.419540830474032"><ele>318.5</ele><time>2026-04-11T07:33:49Z</time></trkpt><trkpt lat="43.43462147294101" lon="11.419612865308846"><ele>318.0</ele><time>2026-04-11T07:33:50Z</time></trkpt><trkpt lat="43.43454389541785" lon="11.419691793235767"><ele>317.5</ele><time>2026-04-11T07:33:51Z</time></trkpt><trkpt lat="43.43447975412991" lon="11.41976205773814"><ele>317.0</ele><time>2026-04-11T07:33:52Z</time></trkpt><trkpt lat="43.43441614616112" lon="11.419823832509696"><ele>316.5</ele><time>2026-04-11T07:33:53Z</time></trkpt><trkpt lat="43.43434387408792" lon="11.419905359034825"><ele>316.0</ele><time>2026-04-11T07:33:54Z</time></trkpt><trkpt lat="43.434268575579146" lon="11.41997290714555"><ele>316.0</ele><time>2026-04-11T07:33:55Z</time></trkpt><trkpt lat="43.4341927404162" lon="11.420047575836815"><ele>316.0</ele><time>2026-04-11T07:33:56Z</time></trkpt><trkpt lat="43.43413328345402" lon="11.420122277244086"><ele>316.0</ele><time>2026-04-11T07:33:57Z</time></trkpt><trkpt lat="43.43407729131859" lon="11.420180095655091"><ele>316.0</ele><time>2026-04-11T07:33:58Z</time></trkpt><trkpt lat="43.43401179755482" lon="11.420260634965278"><ele>316.0</ele><time>2026-04-11T07:33:59Z</time></trkpt><trkpt lat="43.433947208406046" lon="11.420340120241173"><ele>316.0</ele><time>2026-04-11T07:34:00Z</time></trkpt><trkpt lat="43.43388076996756" lon="11.420433530224328"><ele>313.8333333333333</ele><time>2026-04-11T07:34:01Z</time></trkpt><trkpt lat="43.4337945837367" lon="11.420508645920455"><ele>311.66666666666663</ele><time>2026-04-11T07:34:02Z</time></trkpt><trkpt lat="43.43373683303397" lon="11.420584325708555"><ele>309.5</ele><time>2026-04-11T07:34:03Z</time></trkpt><trkpt lat="43.43367340240057" lon="11.42066049977982"><ele>307.3333333333333</ele><time>2026-04-11T07:34:04Z</time></trkpt><trkpt lat="43.43361879335468" lon="11.420747944232716"><ele>305.1666666666667</ele><time>2026-04-11T07:34:05Z</time></trkpt><trkpt lat="43.4335472396947" lon="11.420829887155259"><ele>303.0</ele><time>2026-04-11T07:34:06Z</time></trkpt><trkpt lat="43.43347323101615" lon="11.420874878921207"><ele>303.0</ele><time>2026-04-11T07:34:07Z</time></trkpt><trkpt lat="43.43337519908389" lon="11.42086617670871"><ele>303.0</ele><time>2026-04-11T07:34:08Z</time></trkpt><trkpt lat="43.43329074660132" lon="11.420824701845765"><ele>303.0</ele><time>2026-04-11T07:34:09Z</time></trkpt><trkpt lat="43.433217108567575" lon="11.420743174421299"><ele>303.0</ele><time>2026-04-11T07:34:10Z</time></trkpt><trkpt lat="43.43315553607448" lon="11.420656020602088"><ele>303.0</ele><time>2026-04-11T07:34:11Z</time></trkpt><trkpt lat="43.4331036556231" lon="11.420556810983891"><ele>302.6666666666667</ele><time>2026-04-11T07:34:12Z</time></trkpt><trkpt lat="43.43307094702416" lon="11.420448143377394"><ele>302.3333333333333</ele><time>2026-04-11T07:34:13Z</time></trkpt><trkpt lat="43.433042734837386" lon="11.420341045744001"><ele>302.0</ele><time>2026-04-11T07:34:14Z</time></trkpt><trkpt lat="43.43300279408077" lon="11.4202375210172"><ele>301.66666666666663</ele><time>2026-04-11T07:34:15Z</time></trkpt><trkpt lat="43.432958730429334" lon="11.420141547325073"><ele>301.3333333333333</ele><time>2026-04-11T07:34:16Z</time></trkpt><trkpt lat="43.43291801839839" lon="11.42005034681474"><ele>301.0</ele><time>2026-04-11T07:34:17Z</time></trkpt><trkpt lat="43.43288218601987" lon="11.419951089435513"><ele>301.0</ele><time>2026-04-11T07:34:18Z</time></trkpt><trkpt lat="43.43285106870487" lon="11.41985429336106"><ele>301.0</ele><time>2026-04-11T07:34:19Z</time></trkpt><trkpt lat="43.43281558135228" lon="11.419764996668539"><ele>301.0</ele><time>2026-04-11T07:34:20Z</time></trkpt><trkpt lat="43.43277368907456" lon="11.419671317016853"><ele>301.0</ele><time>2026-04-11T07:34:21Z</time></trkpt><trkpt lat="43.43273280795706" lon="11.419587267010515"><ele>301.0</ele><time>2026-04-11T07:34:22Z</time></trkpt><trkpt lat="43.43268675086964" lon="11.419502822253433"><ele>301.0</ele><time>2026-04-11T07:34:23Z</time></trkpt><trkpt lat="43.43263583774513" lon="11.419423653685936"><ele>301.5</ele><time>2026-04-11T07:34:24Z</time></trkpt><trkpt lat="43.432574428511295" lon="11.41935200549594"><ele>302.0</ele><time>2026-04-11T07:34:25Z</time></trkpt><trkpt lat="43.432523391213905" lon="11.419272475283416"><ele>302.5</ele><time>2026-04-11T07:34:26Z</time></trkpt><trkpt lat="43.43247406216461" lon="11.419194018567222"><ele>303.0</ele><time>2026-04-11T07:34:27Z</time></trkpt><trkpt lat="43.43242024316719" lon="11.41912435052036"><ele>303.5</ele><time>2026-04-11T07:34:28Z</time></trkpt><trkpt lat="43.43236202643817" lon="11.419046082750326"><ele>304.0</ele><time>2026-04-11T07:34:29Z</time></trkpt><trkpt lat="43.432309679376225" lon="11.418968298137862"><ele>304.0</ele><time>2026-04-11T07:34:30Z</time></trkpt><trkpt lat="43.432253288819254" lon="11.418885477565329"><ele>304.0</ele><time>2026-04-11T07:34:31Z</time></trkpt><trkpt lat="43.43219556005022" lon="11.418814414016758"><ele>304.0</ele><time>2026-04-11T07:34:32Z</time></trkpt><trkpt lat="43.432143369347095" lon="11.418738826587576"><ele>304.0</ele><time>2026-04-11T07:34:33Z</time></trkpt><trkpt lat="43.43208922426845" lon="11.41867600205862"><ele>304.0</ele><time>2026-04-11T07:34:34Z</time></trkpt><trkpt lat="43.43202900886806" lon="11.41860494117581"><ele>304.0</ele><time>2026-04-11T07:34:35Z</time></trkpt><trkpt lat="43.43197807279564" lon="11.418532274182862"><ele>303.16666666666663</ele><time>2026-04-11T07:34:36Z</time></trkpt><trkpt lat="43.43192981973692" lon="11.418453584604492"><ele>302.3333333333333</ele><time>2026-04-11T07:34:37Z</time></trkpt><trkpt lat="43.431881005172265" lon="11.41837607617308"><ele>301.5</ele><time>2026-04-11T07:34:38Z</time></trkpt><trkpt lat="43.4318232872748" lon="11.418290387135201"><ele>300.6666666666667</ele><time>2026-04-11T07:34:39Z</time></trkpt><trkpt lat="43.431778792016665" lon="11.418222151078563"><ele>299.83333333333337</ele><time>2026-04-11T07:34:40Z</time></trkpt><trkpt lat="43.43172223474065" lon="11.418151833233596"><ele>299.0</ele><time>2026-04-11T07:34:41Z</time></trkpt><trkpt lat="43.43167488812318" lon="11.418075448925986"><ele>299.0</ele><time>2026-04-11T07:34:42Z</time></trkpt><trkpt lat="43.43163375442135" lon="11.41800286165335"><ele>299.0</ele><time>2026-04-11T07:34:43Z</time></trkpt><trkpt lat="43.43158059422975" lon="11.417934156048906"><ele>299.0</ele><time>2026-04-11T07:34:44Z</time></trkpt><trkpt lat="43.431534198314615" lon="11.417859650489175"><ele>299.0</ele><time>2026-04-11T07:34:45Z</time></trkpt><trkpt lat="43.4314869539441" lon="11.417796113694578"><ele>299.0</ele><time>2026-04-11T07:34:46Z</time></trkpt><trkpt lat="43.43144058402908" lon="11.417721455118583"><ele>299.0</ele><time>2026-04-11T07:34:47Z</time></trkpt><trkpt lat="43.43135971833128" lon="11.417598228723033"><ele>299.5</ele><time>2026-04-11T07:34:49Z</time></trkpt><trkpt lat="43.43128362694131" lon="11.417483974060843"><ele>300.0</ele><time>2026-04-11T07:34:51Z</time></trkpt><trkpt lat="43.43110070807535" lon="11.417644663845412"><ele>300.5</ele><time>2026-04-11T07:34:53Z</time></trkpt><trkpt lat="43.43104151084569" lon="11.417693472401835"><ele>301.0</ele><time>2026-04-11T07:34:54Z</time></trkpt><trkpt lat="43.43094283349812" lon="11.417770279255569"><ele>301.0</ele><time>2026-04-11T07:34:56Z</time></trkpt><trkpt lat="43.43087257244491" lon="11.417837027046335"><ele>301.0</ele><time>2026-04-11T07:34:57Z</time></trkpt><trkpt lat="43.430752838044995" lon="11.417910398973609"><ele>301.0</ele><time>2026-04-11T07:34:59Z</time></trkpt><trkpt lat="43.4306984169399" lon="11.417968571265773"><ele>301.0</ele><time>2026-04-11T07:35:00Z</time></trkpt><trkpt lat="43.43057988373926" lon="11.4180466397468"><ele>301.0</ele><time>2026-04-11T07:35:02Z</time></trkpt><trkpt lat="43.43051934615647" lon="11.418081235236693"><ele>301.16666666666663</ele><time>2026-04-11T07:35:03Z</time></trkpt><trkpt lat="43.43045976365119" lon="11.418120626746626"><ele>301.3333333333333</ele><time>2026-04-11T07:35:04Z</time></trkpt><trkpt lat="43.43035931405994" lon="11.418207741373594"><ele>301.5</ele><time>2026-04-11T07:35:06Z</time></trkpt><trkpt lat="43.4303032722961" lon="11.41825604288867"><ele>301.6666666666667</ele><time>2026-04-11T07:35:07Z</time></trkpt><trkpt lat="43.43024286892076" lon="11.418298769653452"><ele>301.83333333333337</ele><time>2026-04-11T07:35:08Z</time></trkpt><trkpt lat="43.43018470682425" lon="11.418341516881714"><ele>302.0</ele><time>2026-04-11T07:35:09Z</time></trkpt><trkpt lat="43.430075740622414" lon="11.41842087845859"><ele>302.0</ele><time>2026-04-11T07:35:11Z</time></trkpt><trkpt lat="43.43001858199114" lon="11.418465152328974"><ele>302.0</ele><time>2026-04-11T07:35:12Z</time></trkpt><trkpt lat="43.429956957621165" lon="11.418507893958871"><ele>302.0</ele><time>2026-04-11T07:35:13Z</time></trkpt><trkpt lat="43.429841755626924" lon="11.41859689572266"><ele>302.0</ele><time>2026-04-11T07:35:15Z</time></trkpt><trkpt lat="43.42972854365124" lon="11.418692100390562"><ele>302.0</ele><time>2026-04-11T07:35:17Z</time></trkpt><trkpt lat="43.42965869568576" lon="11.418731905617928"><ele>302.4</ele><time>2026-04-11T07:35:18Z</time></trkpt><trkpt lat="43.42960131586298" lon="11.418773013622651"><ele>302.79999999999995</ele><time>2026-04-11T07:35:19Z</time></trkpt><trkpt lat="43.42949698649019" lon="11.418846792192696"><ele>303.2</ele><time>2026-04-11T07:35:21Z</time></trkpt><trkpt lat="43.429441406731" lon="11.418889530604867"><ele>303.59999999999997</ele><time>2026-04-11T07:35:22Z</time></trkpt><trkpt lat="43.4293521429223" lon="11.418957670417317"><ele>304.0</ele><time>2026-04-11T07:35:24Z</time></trkpt><trkpt lat="43.42924729188821" lon="11.419000752297828"><ele>305.0</ele><time>2026-04-11T07:35:26Z</time></trkpt><trkpt lat="43.42917819478728" lon="11.419027527895445"><ele>306.0</ele><time>2026-04-11T07:35:31Z</time></trkpt><trkpt lat="43.42909237244144" lon="11.419064352591478"><ele>307.0</ele><time>2026-04-11T07:35:34Z</time></trkpt><trkpt lat="43.42903336631126" lon="11.419099832189756"><ele>308.0</ele><time>2026-04-11T07:35:37Z</time></trkpt><trkpt lat="43.428973233582816" lon="11.419137799193463"><ele>309.0</ele><time>2026-04-11T07:35:39Z</time></trkpt><trkpt lat="43.428881329572654" lon="11.419188016003769"><ele>310.0</ele><time>2026-04-11T07:35:42Z</time></trkpt><trkpt lat="43.428821802766976" lon="11.419245797438764"><ele>310.16666666666663</ele><time>2026-04-11T07:35:44Z</time></trkpt><trkpt lat="43.42876628826499" lon="11.419307353633076"><ele>310.3333333333333</ele><time>2026-04-11T07:35:47Z</time></trkpt><trkpt lat="43.4287230286264" lon="11.41937860830778"><ele>310.5</ele><time>2026-04-11T07:35:48Z</time></trkpt><trkpt lat="43.42864112413733" lon="11.41943423774743"><ele>310.6666666666667</ele><time>2026-04-11T07:35:50Z</time></trkpt><trkpt lat="43.42857571421042" lon="11.419502746791196"><ele>310.83333333333337</ele><time>2026-04-11T07:35:52Z</time></trkpt><trkpt lat="43.42852262074801" lon="11.419573757677558"><ele>311.0</ele><time>2026-04-11T07:35:55Z</time></trkpt><trkpt lat="43.428473965068974" lon="11.419631819610307"><ele>313.0</ele><time>2026-04-11T07:35:57Z</time></trkpt><trkpt lat="43.428371987816604" lon="11.419718129572885"><ele>315.0</ele><time>2026-04-11T07:36:00Z</time></trkpt><trkpt lat="43.428284889034856" lon="11.419798024312488"><ele>317.0</ele><time>2026-04-11T07:36:02Z</time></trkpt><trkpt lat="43.428231665016234" lon="11.419873421784231"><ele>319.0</ele><time>2026-04-11T07:36:05Z</time></trkpt><trkpt lat="43.42816018284611" lon="11.41991436951222"><ele>321.0</ele><time>2026-04-11T07:36:06Z</time></trkpt><trkpt lat="43.42811076626115" lon="11.419987979675005"><ele>321.0</ele><time>2026-04-11T07:36:08Z</time></trkpt><trkpt lat="43.42809091273157" lon="11.420111234634936"><ele>321.0</ele><time>2026-04-11T07:36:11Z</time></trkpt><trkpt lat="43.42807986593045" lon="11.420210003588156"><ele>321.0</ele><time>2026-04-11T07:36:13Z</time></trkpt><trkpt lat="43.42806614401051" lon="11.42029925663322"><ele>321.0</ele><time>2026-04-11T07:36:15Z</time></trkpt><trkpt lat="43.42803213204963" lon="11.420383138850184"><ele>321.0</ele><time>2026-04-11T07:36:17Z</time></trkpt><trkpt lat="43.42798683625009" lon="11.420469994287918"><ele>321.0</ele><time>2026-04-11T07:36:20Z</time></trkpt><trkpt lat="43.42797223574945" lon="11.42056690106666"><ele>319.3333333333333</ele><time>2026-04-11T07:36:22Z</time></trkpt><trkpt lat="43.42794446365814" lon="11.420671599340562"><ele>317.6666666666667</ele><time>2026-04-11T07:36:24Z</time></trkpt><trkpt lat="43.42792416848585" lon="11.420777485857613"><ele>316.0</ele><time>2026-04-11T07:36:26Z</time></trkpt><trkpt lat="43.42791435793194" lon="11.420878397355715"><ele>314.33333333333337</ele><time>2026-04-11T07:36:28Z</time></trkpt><trkpt lat="43.42788009147348" lon="11.420982793803208"><ele>312.6666666666667</ele><time>2026-04-11T07:36:31Z</time></trkpt><trkpt lat="43.42788243104069" lon="11.421090541844032"><ele>311.0</ele><time>2026-04-11T07:36:33Z</time></trkpt><trkpt lat="43.42785095838927" lon="11.421202641811435"><ele>310.83333333333337</ele><time>2026-04-11T07:36:35Z</time></trkpt><trkpt lat="43.42783737738482" lon="11.421317019476968"><ele>310.6666666666667</ele><time>2026-04-11T07:36:38Z</time></trkpt><trkpt lat="43.427826240905304" lon="11.421409801549641"><ele>310.5</ele><time>2026-04-11T07:36:40Z</time></trkpt><trkpt lat="43.42779068966409" lon="11.421517674791167"><ele>310.3333333333333</ele><time>2026-04-11T07:36:43Z</time></trkpt><trkpt lat="43.427781572775274" lon="11.421610149991219"><ele>310.16666666666663</ele><time>2026-04-11T07:36:45Z</time></trkpt><trkpt lat="43.42780552900585" lon="11.421716914504414"><ele>310.0</ele><time>2026-04-11T07:36:47Z</time></trkpt><trkpt lat="43.42778372224305" lon="11.421851912280584"><ele>310.0</ele><time>2026-04-11T07:36:49Z</time></trkpt><trkpt lat="43.42772952422064" lon="11.422000598910614"><ele>310.0</ele><time>2026-04-11T07:36:51Z</time></trkpt><trkpt lat="43.427681182203465" lon="11.4220583123071"><ele>310.0</ele><time>2026-04-11T07:36:53Z</time></trkpt><trkpt lat="43.42763138492934" lon="11.422170599865437"><ele>310.0</ele><time>2026-04-11T07:36:56Z</time></trkpt><trkpt lat="43.42758623778287" lon="11.422250413855277"><ele>310.0</ele><time>2026-04-11T07:36:58Z</time></trkpt><trkpt lat="43.42752655916675" lon="11.422340497497766"><ele>310.0</ele><time>2026-04-11T07:37:01Z</time></trkpt><trkpt lat="43.42747677822609" lon="11.422403098861944"><ele>310.8</ele><time>2026-04-11T07:37:03Z</time></trkpt><trkpt lat="43.427404278008424" lon="11.422455885236218"><ele>311.6</ele><time>2026-04-11T07:37:05Z</time></trkpt><trkpt lat="43.42732325476421" lon="11.422533021201867"><ele>312.4</ele><time>2026-04-11T07:37:08Z</time></trkpt><trkpt lat="43.42722782867908" lon="11.422592440375334"><ele>313.2</ele><time>2026-04-11T07:37:11Z</time></trkpt><trkpt lat="43.42714451931274" lon="11.422633732316742"><ele>314.0</ele><time>2026-04-11T07:37:14Z</time></trkpt><trkpt lat="43.4270697559594" lon="11.422672829005416"><ele>314.0</ele><time>2026-04-11T07:37:16Z</time></trkpt><trkpt lat="43.426999068866955" lon="11.422738009737468"><ele>314.0</ele><time>2026-04-11T07:37:18Z</time></trkpt><trkpt lat="43.426929432478566" lon="11.42279472271354"><ele>314.0</ele><time>2026-04-11T07:37:20Z</time></trkpt><trkpt lat="43.426841961063786" lon="11.422852090081925"><ele>314.0</ele><time>2026-04-11T07:37:22Z</time></trkpt><trkpt lat="43.42676011343193" lon="11.422899186325164"><ele>314.0</ele><time>2026-04-11T07:37:24Z</time></trkpt><trkpt lat="43.42669358927355" lon="11.4229818246025"><ele>314.0</ele><time>2026-04-11T07:37:26Z</time></trkpt><trkpt lat="43.42662740540464" lon="11.423047082307907"><ele>316.33333333333337</ele><time>2026-04-11T07:37:28Z</time></trkpt><trkpt lat="43.42655710915358" lon="11.423110224681404"><ele>318.6666666666667</ele><time>2026-04-11T07:37:30Z</time></trkpt><trkpt lat="43.426502453791684" lon="11.423232049231363"><ele>321.0</ele><time>2026-04-11T07:37:33Z</time></trkpt><trkpt lat="43.42648429750677" lon="11.423319468380422"><ele>323.3333333333333</ele><time>2026-04-11T07:37:35Z</time></trkpt><trkpt lat="43.42646625377846" lon="11.423425413626735"><ele>325.66666666666663</ele><time>2026-04-11T07:37:37Z</time></trkpt><trkpt lat="43.42644775599009" lon="11.423511927021043"><ele>328.0</ele><time>2026-04-11T07:37:39Z</time></trkpt><trkpt lat="43.42644389683966" lon="11.423616508382077"><ele>328.0</ele><time>2026-04-11T07:37:41Z</time></trkpt><trkpt lat="43.426412972231475" lon="11.423720737446015"><ele>328.0</ele><time>2026-04-11T07:37:43Z</time></trkpt><trkpt lat="43.426389396704856" lon="11.423803253208757"><ele>328.0</ele><time>2026-04-11T07:37:45Z</time></trkpt><trkpt lat="43.426394652161946" lon="11.423901498757795"><ele>328.0</ele><time>2026-04-11T07:37:47Z</time></trkpt><trkpt lat="43.426422783609084" lon="11.424022494106836"><ele>328.0</ele><time>2026-04-11T07:37:49Z</time></trkpt><trkpt lat="43.42643664433079" lon="11.424131376186244"><ele>328.0</ele><time>2026-04-11T07:37:51Z</time></trkpt><trkpt lat="43.42642997677986" lon="11.424244028735105"><ele>328.16666666666663</ele><time>2026-04-11T07:37:54Z</time></trkpt><trkpt lat="43.42644697932249" lon="11.424388819021637"><ele>328.3333333333333</ele><time>2026-04-11T07:37:57Z</time></trkpt><trkpt lat="43.42647573873882" lon="11.424474080361431"><ele>328.5</ele><time>2026-04-11T07:38:00Z</time></trkpt><trkpt lat="43.42647097199356" lon="11.424567843649156"><ele>328.6666666666667</ele><time>2026-04-11T07:38:02Z</time></trkpt><trkpt lat="43.426478457497325" lon="11.424671788991747"><ele>328.83333333333337</ele><time>2026-04-11T07:38:04Z</time></trkpt><trkpt lat="43.42650370369363" lon="11.42479231941417"><ele>329.0</ele><time>2026-04-11T07:38:07Z</time></trkpt><trkpt lat="43.42650039634504" lon="11.424902200304107"><ele>329.0</ele><time>2026-04-11T07:38:10Z</time></trkpt><trkpt lat="43.426512397777735" lon="11.424988943270717"><ele>329.0</ele><time>2026-04-11T07:38:12Z</time></trkpt><trkpt lat="43.42650353887924" lon="11.425096026883379"><ele>329.0</ele><time>2026-04-11T07:38:15Z</time></trkpt><trkpt lat="43.42651385519751" lon="11.425210572146373"><ele>329.0</ele><time>2026-04-11T07:38:18Z</time></trkpt><trkpt lat="43.42654781114263" lon="11.425296822833419"><ele>329.0</ele><time>2026-04-11T07:38:20Z</time></trkpt><trkpt lat="43.426539891253896" lon="11.42542894061897"><ele>329.0</ele><time>2026-04-11T07:38:23Z</time></trkpt><trkpt lat="43.42655664184138" lon="11.425512705801992"><ele>329.1666666666667</ele><time>2026-04-11T07:38:25Z</time></trkpt><trkpt lat="43.42655110919584" lon="11.425614180267093"><ele>329.33333333333337</ele><time>2026-04-11T07:38:28Z</time></trkpt><trkpt lat="43.42654397229728" lon="11.42572456944424"><ele>329.5</ele><time>2026-04-11T07:38:30Z</time></trkpt><trkpt lat="43.426555889744776" lon="11.425814336152305"><ele>329.6666666666667</ele><time>2026-04-11T07:38:33Z</time></trkpt><trkpt lat="43.426504840299216" lon="11.425882590646287"><ele>329.8333333333333</ele><time>2026-04-11T07:38:35Z</time></trkpt><trkpt lat="43.42644257112934" lon="11.425963166563646"><ele>330.0</ele><time>2026-04-11T07:38:37Z</time></trkpt><trkpt lat="43.42637266302564" lon="11.426049982122374"><ele>330.1666666666667</ele><time>2026-04-11T07:38:39Z</time></trkpt><trkpt lat="43.426310077623036" lon="11.426101298144886"><ele>330.3333333333333</ele><time>2026-04-11T07:38:40Z</time></trkpt><trkpt lat="43.42625650915222" lon="11.42621418517329"><ele>330.5</ele><time>2026-04-11T07:38:42Z</time></trkpt><trkpt lat="43.42620078826691" lon="11.426269862028237"><ele>330.66666666666663</ele><time>2026-04-11T07:38:44Z</time></trkpt><trkpt lat="43.42616270234773" lon="11.426403825712052"><ele>330.8333333333333</ele><time>2026-04-11T07:38:47Z</time></trkpt><trkpt lat="43.426130728405845" lon="11.42648605851803"><ele>331.0</ele><time>2026-04-11T07:38:50Z</time></trkpt><trkpt lat="43.42611587740248" lon="11.426615642841808"><ele>331.0</ele><time>2026-04-11T07:38:52Z</time></trkpt><trkpt lat="43.42609342292347" lon="11.426743368974716"><ele>331.0</ele><time>2026-04-11T07:38:54Z</time></trkpt><trkpt lat="43.426073984184576" lon="11.426845089130742"><ele>331.0</ele><time>2026-04-11T07:38:56Z</time></trkpt><trkpt lat="43.4260542828997" lon="11.426998164356814"><ele>331.0</ele><time>2026-04-11T07:38:58Z</time></trkpt><trkpt lat="43.42603597995629" lon="11.42715503354463"><ele>331.0</ele><time>2026-04-11T07:39:00Z</time></trkpt><trkpt lat="43.42600635192423" lon="11.427260192790794"><ele>331.20000000000005</ele><time>2026-04-11T07:39:01Z</time></trkpt><trkpt lat="43.42599590716894" lon="11.427346977318711"><ele>331.40000000000003</ele><time>2026-04-11T07:39:02Z</time></trkpt><trkpt lat="43.42598303570081" lon="11.42749639695446"><ele>331.6</ele><time>2026-04-11T07:39:04Z</time></trkpt><trkpt lat="43.42597420398632" lon="11.427658998407892"><ele>331.8</ele><time>2026-04-11T07:39:06Z</time></trkpt><trkpt lat="43.425953780932204" lon="11.427766306498867"><ele>332.0</ele><time>2026-04-11T07:39:08Z</time></trkpt><trkpt lat="43.4259002168248" lon="11.429160304116177"><ele>332.0</ele><time>2026-04-11T07:39:09Z</time></trkpt><trkpt lat="43.42588927129587" lon="11.429250092446296"><ele>332.0</ele><time>2026-04-11T07:39:11Z</time></trkpt><trkpt lat="43.425870568950614" lon="11.42934518567978"><ele>332.0</ele><time>2026-04-11T07:39:14Z</time></trkpt><trkpt lat="43.42589859090536" lon="11.42943652361712"><ele>332.0</ele><time>2026-04-11T07:39:16Z</time></trkpt><trkpt lat="43.42591411023877" lon="11.429535157747189"><ele>332.0</ele><time>2026-04-11T07:39:17Z</time></trkpt><trkpt lat="43.42586277153198" lon="11.429640695760737"><ele>332.0</ele><time>2026-04-11T07:39:20Z</time></trkpt><trkpt lat="43.42587015607911" lon="11.42974959347544"><ele>332.0</ele><time>2026-04-11T07:39:22Z</time></trkpt><trkpt lat="43.425868765258976" lon="11.429889141517307"><ele>332.0</ele><time>2026-04-11T07:39:25Z</time></trkpt><trkpt lat="43.42585138542832" lon="11.429975874314891"><ele>332.0</ele><time>2026-04-11T07:39:27Z</time></trkpt><trkpt lat="43.425869396372946" lon="11.43006256443745"><ele>332.0</ele><time>2026-04-11T07:39:29Z</time></trkpt><trkpt lat="43.425872907592066" lon="11.43018528524459"><ele>332.0</ele><time>2026-04-11T07:39:31Z</time></trkpt><trkpt lat="43.42586079077402" lon="11.430284346936931"><ele>332.0</ele><time>2026-04-11T07:39:33Z</time></trkpt><trkpt lat="43.425826120581" lon="11.4303963683278"><ele>332.33333333333337</ele><time>2026-04-11T07:39:35Z</time></trkpt><trkpt lat="43.4258096711033" lon="11.430510790767412"><ele>332.6666666666667</ele><time>2026-04-11T07:39:37Z</time></trkpt><trkpt lat="43.42579387609067" lon="11.43064769708704"><ele>333.0</ele><time>2026-04-11T07:39:40Z</time></trkpt><trkpt lat="43.425762463613296" lon="11.430753488250513"><ele>333.3333333333333</ele><time>2026-04-11T07:39:43Z</time></trkpt><trkpt lat="43.42575140850333" lon="11.43086392308439"><ele>333.66666666666663</ele><time>2026-04-11T07:39:45Z</time></trkpt><trkpt lat="43.42572448191242" lon="11.43095959569756"><ele>334.0</ele><time>2026-04-11T07:39:47Z</time></trkpt><trkpt lat="43.42569056665506" lon="11.431078278512308"><ele>334.0</ele><time>2026-04-11T07:39:50Z</time></trkpt><trkpt lat="43.42564990086082" lon="11.431180887614758"><ele>334.0</ele><time>2026-04-11T07:39:53Z</time></trkpt><trkpt lat="43.42562948909469" lon="11.431278208289163"><ele>334.0</ele><time>2026-04-11T07:39:55Z</time></trkpt><trkpt lat="43.425644526840806" lon="11.431372424207378"><ele>334.0</ele><time>2026-04-11T07:39:57Z</time></trkpt><trkpt lat="43.42560369849437" lon="11.431462879132848"><ele>334.0</ele><time>2026-04-11T07:39:59Z</time></trkpt><trkpt lat="43.42547741035284" lon="11.43149367247294"><ele>334.0</ele><time>2026-04-11T07:40:01Z</time></trkpt><trkpt lat="43.425416876480185" lon="11.43154269043421"><ele>335.5</ele><time>2026-04-11T07:40:02Z</time></trkpt><trkpt lat="43.425363664596674" lon="11.431599651681447"><ele>337.0</ele><time>2026-04-11T07:40:03Z</time></trkpt><trkpt lat="43.4253088117711" lon="11.43165119173622"><ele>338.5</ele><time>2026-04-11T07:40:04Z</time></trkpt><trkpt lat="43.425252527320154" lon="11.431817827751965"><ele>340.0</ele><time>2026-04-11T07:40:06Z</time></trkpt><trkpt lat="43.42524279049761" lon="11.431917950430604"><ele>341.5</ele><time>2026-04-11T07:40:09Z</time></trkpt><trkpt lat="43.42521301355128" lon="11.432019366445596"><ele>343.0</ele><time>2026-04-11T07:40:11Z</time></trkpt><trkpt lat="43.42518400209091" lon="11.432121777305667"><ele>342.4</ele><time>2026-04-11T07:40:13Z</time></trkpt><trkpt lat="43.42517145683902" lon="11.432239853488369"><ele>341.79999999999995</ele><time>2026-04-11T07:40:16Z</time></trkpt><trkpt lat="43.425135753686114" lon="11.432387067410025"><ele>341.2</ele><time>2026-04-11T07:40:18Z</time></trkpt><trkpt lat="43.42508884244798" lon="11.432505409166366"><ele>340.6</ele><time>2026-04-11T07:40:20Z</time></trkpt><trkpt lat="43.42505124166059" lon="11.432586931526775"><ele>340.0</ele><time>2026-04-11T07:40:21Z</time></trkpt><trkpt lat="43.42499821503673" lon="11.432718435825992"><ele>340.0</ele><time>2026-04-11T07:40:23Z</time></trkpt><trkpt lat="43.424968151119025" lon="11.432802160452322"><ele>340.0</ele><time>2026-04-11T07:40:24Z</time></trkpt><trkpt lat="43.424905738049645" lon="11.432928903442722"><ele>340.0</ele><time>2026-04-11T07:40:26Z</time></trkpt><trkpt lat="43.42487637016948" lon="11.43300575937589"><ele>340.0</ele><time>2026-04-11T07:40:27Z</time></trkpt><trkpt lat="43.424839021466276" lon="11.433098312309959"><ele>340.0</ele><time>2026-04-11T07:40:28Z</time></trkpt><trkpt lat="43.424793068017316" lon="11.433167524693975"><ele>340.0</ele><time>2026-04-11T07:40:29Z</time></trkpt><trkpt lat="43.42474768514485" lon="11.43324621737353"><ele>339.25</ele><time>2026-04-11T07:40:30Z</time></trkpt><trkpt lat="43.42467178636033" lon="11.433394542516163"><ele>338.5</ele><time>2026-04-11T07:40:32Z</time></trkpt><trkpt lat="43.42462832806316" lon="11.433536440144401"><ele>337.75</ele><time>2026-04-11T07:40:34Z</time></trkpt><trkpt lat="43.42459504733806" lon="11.433690252732067"><ele>337.0</ele><time>2026-04-11T07:40:36Z</time></trkpt><trkpt lat="43.42454645115873" lon="11.433859218105138"><ele>339.00000000000006</ele><time>2026-04-11T07:40:38Z</time></trkpt><trkpt lat="43.424507532514035" lon="11.433949008531108"><ele>341.0</ele><time>2026-04-11T07:40:40Z</time></trkpt><trkpt lat="43.42447621809049" lon="11.434041791210639"><ele>343.0</ele><time>2026-04-11T07:40:42Z</time></trkpt><trkpt lat="43.424447117110155" lon="11.43414931317784"><ele>345.0</ele><time>2026-04-11T07:40:44Z</time></trkpt><trkpt lat="43.424425973843086" lon="11.434239208131924"><ele>347.0</ele><time>2026-04-11T07:40:46Z</time></trkpt><trkpt lat="43.42441541584895" lon="11.434338091846634"><ele>349.00000000000006</ele><time>2026-04-11T07:40:48Z</time></trkpt><trkpt lat="43.42441332597628" lon="11.434425546716241"><ele>351.0</ele><time>2026-04-11T07:40:50Z</time></trkpt><trkpt lat="43.42442350176846" lon="11.434528305626754"><ele>350.6666666666667</ele><time>2026-04-11T07:40:52Z</time></trkpt><trkpt lat="43.424437208284026" lon="11.4346522040905"><ele>350.3333333333333</ele><time>2026-04-11T07:40:54Z</time></trkpt><trkpt lat="43.424463580028956" lon="11.434732258003267"><ele>350.0</ele><time>2026-04-11T07:40:56Z</time></trkpt><trkpt lat="43.42450745663076" lon="11.434800661439663"><ele>349.66666666666663</ele><time>2026-04-11T07:40:58Z</time></trkpt><trkpt lat="43.424579426242566" lon="11.434911504466903"><ele>349.3333333333333</ele><time>2026-04-11T07:41:00Z</time></trkpt><trkpt lat="43.42466763088008" lon="11.434973021878273"><ele>349.0</ele><time>2026-04-11T07:41:02Z</time></trkpt><trkpt lat="43.424747490157806" lon="11.435063726163218"><ele>348.0</ele><time>2026-04-11T07:41:04Z</time></trkpt><trkpt lat="43.42484004923297" lon="11.435114380362426"><ele>347.0</ele><time>2026-04-11T07:41:06Z</time></trkpt><trkpt lat="43.42492609804669" lon="11.435161312080886"><ele>346.0</ele><time>2026-04-11T07:41:08Z</time></trkpt><trkpt lat="43.42499851575091" lon="11.435215880467311"><ele>345.0</ele><time>2026-04-11T07:41:10Z</time></trkpt><trkpt lat="43.42506628269952" lon="11.435261722809585"><ele>344.0</ele><time>2026-04-11T07:41:12Z</time></trkpt><trkpt lat="43.42513767716151" lon="11.435305412492662"><ele>343.0</ele><time>2026-04-11T07:41:14Z</time></trkpt><trkpt lat="43.425208478727264" lon="11.435386506928127"><ele>343.0</ele><time>2026-04-11T07:41:16Z</time></trkpt><trkpt lat="43.425274777330074" lon="11.435453195420768"><ele>343.0</ele><time>2026-04-11T07:41:18Z</time></trkpt><trkpt lat="43.425318713465074" lon="11.435519849987925"><ele>343.0</ele><time>2026-04-11T07:41:20Z</time></trkpt><trkpt lat="43.42536082419776" lon="11.435610884191671"><ele>343.0</ele><time>2026-04-11T07:41:22Z</time></trkpt><trkpt lat="43.425380032506155" lon="11.435731340060034"><ele>343.0</ele><time>2026-04-11T07:41:24Z</time></trkpt><trkpt lat="43.42537476661594" lon="11.435841682049695"><ele>343.0</ele><time>2026-04-11T07:41:26Z</time></trkpt><trkpt lat="43.42532756736018" lon="11.435935963449827"><ele>344.5</ele><time>2026-04-11T07:41:28Z</time></trkpt><trkpt lat="43.42526613094011" lon="11.436009241589497"><ele>346.0</ele><time>2026-04-11T07:41:30Z</time></trkpt><trkpt lat="43.425186234852816" lon="11.436108058716098"><ele>347.5</ele><time>2026-04-11T07:41:33Z</time></trkpt><trkpt lat="43.4251497699801" lon="11.436182648788462"><ele>349.0</ele><time>2026-04-11T07:41:36Z</time></trkpt><trkpt lat="43.42512553337897" lon="11.436299262244663"><ele>350.5</ele><time>2026-04-11T07:41:39Z</time></trkpt><trkpt lat="43.42509191862998" lon="11.436406483858825"><ele>352.0</ele><time>2026-04-11T07:41:42Z</time></trkpt><trkpt lat="43.42506456346335" lon="11.43652936835604"><ele>352.42857142857144</ele><time>2026-04-11T07:41:45Z</time></trkpt><trkpt lat="43.425057292440904" lon="11.436620383950599"><ele>352.85714285714283</ele><time>2026-04-11T07:41:47Z</time></trkpt><trkpt lat="43.42504101342944" lon="11.436704988764243"><ele>353.2857142857143</ele><time>2026-04-11T07:41:49Z</time></trkpt><trkpt lat="43.425043744815945" lon="11.436798275132606"><ele>353.7142857142857</ele><time>2026-04-11T07:41:51Z</time></trkpt><trkpt lat="43.42502787833253" lon="11.436885837768274"><ele>354.14285714285717</ele><time>2026-04-11T07:41:53Z</time></trkpt><trkpt lat="43.42501486843764" lon="11.436975225041401"><ele>354.57142857142856</ele><time>2026-04-11T07:41:55Z</time></trkpt><trkpt lat="43.42502222283868" lon="11.437067493444152"><ele>355.0</ele><time>2026-04-11T07:41:57Z</time></trkpt><trkpt lat="43.42500609226808" lon="11.437160707976894"><ele>355.0</ele><time>2026-04-11T07:41:59Z</time></trkpt><trkpt lat="43.424999194017644" lon="11.437250370583472"><ele>355.0</ele><time>2026-04-11T07:42:01Z</time></trkpt><trkpt lat="43.425003752911074" lon="11.437342618767063"><ele>355.0</ele><time>2026-04-11T07:42:03Z</time></trkpt><trkpt lat="43.4250217485574" lon="11.43743435350906"><ele>355.0</ele><time>2026-04-11T07:42:05Z</time></trkpt><trkpt lat="43.42501643215701" lon="11.437567220739057"><ele>355.0</ele><time>2026-04-11T07:42:08Z</time></trkpt><trkpt lat="43.42502057869289" lon="11.437692339584583"><ele>355.0</ele><time>2026-04-11T07:42:11Z</time></trkpt><trkpt lat="43.42502720392491" lon="11.437781452232763"><ele>355.0</ele><time>2026-04-11T07:42:13Z</time></trkpt><trkpt lat="43.425040277640974" lon="11.437867969622243"><ele>355.0</ele><time>2026-04-11T07:42:15Z</time></trkpt><trkpt lat="43.4250509430138" lon="11.437994611794087"><ele>355.0</ele><time>2026-04-11T07:42:18Z</time></trkpt><trkpt lat="43.42505772602838" lon="11.438084434973877"><ele>355.0</ele><time>2026-04-11T07:42:20Z</time></trkpt><trkpt lat="43.424915521266534" lon="11.438063265961123"><ele>355.0</ele><time>2026-04-11T07:42:22Z</time></trkpt><trkpt lat="43.42490883305485" lon="11.43816994530256"><ele>355.0</ele><time>2026-04-11T07:42:24Z</time></trkpt><trkpt lat="43.424916423424584" lon="11.438298866632527"><ele>357.0</ele><time>2026-04-11T07:42:27Z</time></trkpt><trkpt lat="43.42491457639731" lon="11.438411630777894"><ele>359.0</ele><time>2026-04-11T07:42:30Z</time></trkpt><trkpt lat="43.42490449223696" lon="11.438514048472783"><ele>361.0</ele><time>2026-04-11T07:42:33Z</time></trkpt><trkpt lat="43.42523203137269" lon="11.43894756244821"><ele>360.0</ele><time>2026-04-11T07:42:34Z</time></trkpt><trkpt lat="43.42525377790453" lon="11.43907522335699"><ele>359.0</ele><time>2026-04-11T07:42:37Z</time></trkpt><trkpt lat="43.42529393790241" lon="11.439148647965707"><ele>358.0</ele><time>2026-04-11T07:42:39Z</time></trkpt><trkpt lat="43.425356489915025" lon="11.439232219945428"><ele>357.0</ele><time>2026-04-11T07:42:41Z</time></trkpt><trkpt lat="43.425439726900045" lon="11.439295137178542"><ele>356.0</ele><time>2026-04-11T07:42:43Z</time></trkpt><trkpt lat="43.42551297370023" lon="11.439324755584142"><ele>355.0</ele><time>2026-04-11T07:42:45Z</time></trkpt><trkpt lat="43.42558628760969" lon="11.439340459476192"><ele>355.0</ele><time>2026-04-11T07:42:47Z</time></trkpt><trkpt lat="43.42578291125406" lon="11.439279853090111"><ele>355.0</ele><time>2026-04-11T07:42:53Z</time></trkpt><trkpt lat="43.42586648288018" lon="11.439298776000498"><ele>355.0</ele><time>2026-04-11T07:42:56Z</time></trkpt><trkpt lat="43.425929560213106" lon="11.43937688389119"><ele>355.0</ele><time>2026-04-11T07:42:59Z</time></trkpt><trkpt lat="43.425950505083115" lon="11.439501046160947"><ele>355.0</ele><time>2026-04-11T07:43:02Z</time></trkpt><trkpt lat="43.42594816383008" lon="11.439604775506037"><ele>355.0</ele><time>2026-04-11T07:43:05Z</time></trkpt><trkpt lat="43.425962676340454" lon="11.439710885062008"><ele>355.0</ele><time>2026-04-11T07:43:07Z</time></trkpt><trkpt lat="43.42597218899243" lon="11.439803957173378"><ele>355.0</ele><time>2026-04-11T07:43:08Z</time></trkpt><trkpt lat="43.42602506290883" lon="11.439905906881368"><ele>355.0</ele><time>2026-04-11T07:43:10Z</time></trkpt><trkpt lat="43.42604691187197" lon="11.440001022500761"><ele>355.0</ele><time>2026-04-11T07:43:12Z</time></trkpt><trkpt lat="43.426064021641544" lon="11.440094463886073"><ele>355.85714285714283</ele><time>2026-04-11T07:43:14Z</time></trkpt><trkpt lat="43.42608097729777" lon="11.44019155987967"><ele>356.7142857142857</ele><time>2026-04-11T07:43:15Z</time></trkpt><trkpt lat="43.426095766713516" lon="11.440317932626069"><ele>357.57142857142856</ele><time>2026-04-11T07:43:17Z</time></trkpt><trkpt lat="43.42612389318102" lon="11.440425107266687"><ele>358.42857142857144</ele><time>2026-04-11T07:43:19Z</time></trkpt><trkpt lat="43.42611955682089" lon="11.440513830940148"><ele>359.2857142857143</ele><time>2026-04-11T07:43:22Z</time></trkpt><trkpt lat="43.42612749781291" lon="11.440602703708915"><ele>360.14285714285717</ele><time>2026-04-11T07:43:24Z</time></trkpt><trkpt lat="43.42615611539886" lon="11.440685361524151"><ele>361.0</ele><time>2026-04-11T07:43:26Z</time></trkpt><trkpt lat="43.42614881124471" lon="11.440790231321609"><ele>362.0</ele><time>2026-04-11T07:43:29Z</time></trkpt><trkpt lat="43.42613862935077" lon="11.440918171220623"><ele>363.0</ele><time>2026-04-11T07:43:32Z</time></trkpt><trkpt lat="43.42611522429179" lon="11.441015768886706"><ele>364.0</ele><time>2026-04-11T07:43:34Z</time></trkpt><trkpt lat="43.426069643753806" lon="11.441412098952622"><ele>364.0</ele><time>2026-04-11T07:43:37Z</time></trkpt><trkpt lat="43.42596763658819" lon="11.441487732400976"><ele>364.0</ele><time>2026-04-11T07:43:39Z</time></trkpt><trkpt lat="43.42587355142438" lon="11.441550761114009"><ele>364.0</ele><time>2026-04-11T07:43:41Z</time></trkpt><trkpt lat="43.42573804205796" lon="11.441615476357416"><ele>364.0</ele><time>2026-04-11T07:43:43Z</time></trkpt><trkpt lat="43.425627155491426" lon="11.44168468210802"><ele>364.0</ele><time>2026-04-11T07:43:45Z</time></trkpt><trkpt lat="43.42551562922936" lon="11.441745776800952"><ele>364.0</ele><time>2026-04-11T07:43:47Z</time></trkpt><trkpt lat="43.42540523444832" lon="11.441812351186094"><ele>364.0</ele><time>2026-04-11T07:43:49Z</time></trkpt><trkpt lat="43.42530109930128" lon="11.441881567631029"><ele>364.0</ele><time>2026-04-11T07:43:51Z</time></trkpt><trkpt lat="43.42520792551247" lon="11.441981775384065"><ele>365.0</ele><time>2026-04-11T07:43:53Z</time></trkpt><trkpt lat="43.42512968831592" lon="11.442092299444171"><ele>366.0</ele><time>2026-04-11T07:43:55Z</time></trkpt><trkpt lat="43.425066897658034" lon="11.442203302025511"><ele>367.0</ele><time>2026-04-11T07:43:57Z</time></trkpt><trkpt lat="43.42503508347165" lon="11.442350207999294"><ele>368.0</ele><time>2026-04-11T07:43:59Z</time></trkpt><trkpt lat="43.42498594116696" lon="11.442471447813302"><ele>369.0</ele><time>2026-04-11T07:44:01Z</time></trkpt><trkpt lat="43.42494655241892" lon="11.442600989536647"><ele>369.0</ele><time>2026-04-11T07:44:03Z</time></trkpt><trkpt lat="43.42491552469527" lon="11.442731920015085"><ele>369.0</ele><time>2026-04-11T07:44:05Z</time></trkpt><trkpt lat="43.42488377823239" lon="11.442861384658668"><ele>369.0</ele><time>2026-04-11T07:44:07Z</time></trkpt><trkpt lat="43.42486570539124" lon="11.442989491664683"><ele>369.0</ele><time>2026-04-11T07:44:09Z</time></trkpt><trkpt lat="43.42484580055315" lon="11.443118658684707"><ele>369.0</ele><time>2026-04-11T07:44:11Z</time></trkpt><trkpt lat="43.4248390243691" lon="11.443213354775642"><ele>368.79999999999995</ele><time>2026-04-11T07:44:14Z</time></trkpt><trkpt lat="43.424809623085594" lon="11.443290023204096"><ele>368.59999999999997</ele><time>2026-04-11T07:44:16Z</time></trkpt><trkpt lat="43.42482371985584" lon="11.443541176202586"><ele>368.4</ele><time>2026-04-11T07:44:17Z</time></trkpt><trkpt lat="43.42481194107309" lon="11.443661737374985"><ele>368.2</ele><time>2026-04-11T07:44:19Z</time></trkpt><trkpt lat="43.42478547313539" lon="11.44378362479119"><ele>368.0</ele><time>2026-04-11T07:44:21Z</time></trkpt><trkpt lat="43.42474362262594" lon="11.443898027067132"><ele>367.6666666666667</ele><time>2026-04-11T07:44:23Z</time></trkpt><trkpt lat="43.424694914324746" lon="11.443982269769146"><ele>367.33333333333337</ele><time>2026-04-11T07:44:25Z</time></trkpt><trkpt lat="43.42463999675391" lon="11.44406191536145"><ele>367.0</ele><time>2026-04-11T07:44:27Z</time></trkpt><trkpt lat="43.42457811472896" lon="11.44413815675269"><ele>366.6666666666667</ele><time>2026-04-11T07:44:29Z</time></trkpt><trkpt lat="43.42453076115544" lon="11.444195337357149"><ele>366.3333333333333</ele><time>2026-04-11T07:44:31Z</time></trkpt><trkpt lat="43.42447469684048" lon="11.444270249699091"><ele>366.0</ele><time>2026-04-11T07:44:33Z</time></trkpt><trkpt lat="43.42444777925801" lon="11.444361564059315"><ele>368.3333333333333</ele><time>2026-04-11T07:44:35Z</time></trkpt><trkpt lat="43.42440026515299" lon="11.44441851322564"><ele>370.6666666666667</ele><time>2026-04-11T07:44:37Z</time></trkpt><trkpt lat="43.42437310109932" lon="11.44450342737664"><ele>373.0</ele><time>2026-04-11T07:44:40Z</time></trkpt><trkpt lat="43.42433500419722" lon="11.444635389229777"><ele>375.33333333333337</ele><time>2026-04-11T07:44:42Z</time></trkpt><trkpt lat="43.42428994048701" lon="11.444739729778707"><ele>377.6666666666667</ele><time>2026-04-11T07:44:46Z</time></trkpt><trkpt lat="43.424211375920166" lon="11.444799459966243"><ele>380.0</ele><time>2026-04-11T07:44:48Z</time></trkpt><trkpt lat="43.42417149438584" lon="11.44489132091844"><ele>380.0</ele><time>2026-04-11T07:44:51Z</time></trkpt><trkpt lat="43.424125125790624" lon="11.444998123813283"><ele>380.0</ele><time>2026-04-11T07:44:54Z</time></trkpt><trkpt lat="43.42407675927741" lon="11.445111987880008"><ele>380.0</ele><time>2026-04-11T07:44:57Z</time></trkpt><trkpt lat="43.42402965792865" lon="11.445224089996545"><ele>380.0</ele><time>2026-04-11T07:45:00Z</time></trkpt><trkpt lat="43.42398470550307" lon="11.445332164465126"><ele>380.0</ele><time>2026-04-11T07:45:03Z</time></trkpt><trkpt lat="43.42395039239927" lon="11.445415069710297"><ele>380.0</ele><time>2026-04-11T07:45:05Z</time></trkpt><trkpt lat="43.4239073802839" lon="11.445527838910097"><ele>380.0</ele><time>2026-04-11T07:45:08Z</time></trkpt><trkpt lat="43.42387223909547" lon="11.445637049518437"><ele>380.0</ele><time>2026-04-11T07:45:11Z</time></trkpt><trkpt lat="43.423901775574585" lon="11.44575120638226"><ele>380.0</ele><time>2026-04-11T07:45:13Z</time></trkpt><trkpt lat="43.423903176244984" lon="11.445888814669523"><ele>380.0</ele><time>2026-04-11T07:45:16Z</time></trkpt><trkpt lat="43.42395809357826" lon="11.446011153809684"><ele>380.0</ele><time>2026-04-11T07:45:19Z</time></trkpt><trkpt lat="43.42400659986919" lon="11.446068459249986"><ele>380.0</ele><time>2026-04-11T07:45:21Z</time></trkpt><trkpt lat="43.42407653673275" lon="11.446088736793023"><ele>380.0</ele><time>2026-04-11T07:45:24Z</time></trkpt><trkpt lat="43.424161580869495" lon="11.446131889050722"><ele>380.0</ele><time>2026-04-11T07:45:27Z</time></trkpt><trkpt lat="43.42422957041865" lon="11.446160318941198"><ele>380.0</ele><time>2026-04-11T07:45:29Z</time></trkpt><trkpt lat="43.424292450113306" lon="11.446194305949627"><ele>380.0</ele><time>2026-04-11T07:45:31Z</time></trkpt><trkpt lat="43.424357184893275" lon="11.446250549936929"><ele>380.0</ele><time>2026-04-11T07:45:33Z</time></trkpt><trkpt lat="43.4243933480904" lon="11.446351347705171"><ele>380.0</ele><time>2026-04-11T07:45:36Z</time></trkpt><trkpt lat="43.42443732227593" lon="11.446417441844309"><ele>381.6666666666667</ele><time>2026-04-11T07:45:38Z</time></trkpt><trkpt lat="43.42447102098076" lon="11.446493225756852"><ele>383.33333333333337</ele><time>2026-04-11T07:45:40Z</time></trkpt><trkpt lat="43.42447092050873" lon="11.446591212922247"><ele>385.0</ele><time>2026-04-11T07:45:42Z</time></trkpt><trkpt lat="43.42448878025102" lon="11.446716629843312"><ele>386.6666666666667</ele><time>2026-04-11T07:45:45Z</time></trkpt><trkpt lat="43.42447119519083" lon="11.446823325794664"><ele>388.3333333333333</ele><time>2026-04-11T07:45:48Z</time></trkpt><trkpt lat="43.42447761133502" lon="11.446940996615316"><ele>390.0</ele><time>2026-04-11T07:45:51Z</time></trkpt><trkpt lat="43.424472036915354" lon="11.447043519009375"><ele>390.6666666666667</ele><time>2026-04-11T07:45:54Z</time></trkpt><trkpt lat="43.42444177811029" lon="11.447161085083813"><ele>391.33333333333337</ele><time>2026-04-11T07:45:57Z</time></trkpt><trkpt lat="43.42441573662447" lon="11.447279356913558"><ele>392.0</ele><time>2026-04-11T07:46:00Z</time></trkpt><trkpt lat="43.42437010921212" lon="11.447383355598328"><ele>392.6666666666667</ele><time>2026-04-11T07:46:03Z</time></trkpt><trkpt lat="43.424322067486656" lon="11.44747197814245"><ele>393.33333333333337</ele><time>2026-04-11T07:46:06Z</time></trkpt><trkpt lat="43.42424956919363" lon="11.447563249677703"><ele>394.0</ele><time>2026-04-11T07:46:10Z</time></trkpt><trkpt lat="43.42419855636948" lon="11.447627378559593"><ele>394.00000000000006</ele><time>2026-04-11T07:46:13Z</time></trkpt><trkpt lat="43.424147823029195" lon="11.447688262352717"><ele>394.0</ele><time>2026-04-11T07:46:15Z</time></trkpt><trkpt lat="43.42408645590593" lon="11.447773375809204"><ele>394.0</ele><time>2026-04-11T07:46:18Z</time></trkpt><trkpt lat="43.42402710608073" lon="11.447862481458435"><ele>394.0</ele><time>2026-04-11T07:46:21Z</time></trkpt><trkpt lat="43.423983955666834" lon="11.44794417338446"><ele>394.00000000000006</ele><time>2026-04-11T07:46:23Z</time></trkpt><trkpt lat="43.42395207612448" lon="11.4480709349696"><ele>394.0</ele><time>2026-04-11T07:46:26Z</time></trkpt><trkpt lat="43.423940350121946" lon="11.448185172160882"><ele>393.6666666666667</ele><time>2026-04-11T07:46:29Z</time></trkpt><trkpt lat="43.4239333348671" lon="11.448279141581692"><ele>393.33333333333337</ele><time>2026-04-11T07:46:31Z</time></trkpt><trkpt lat="43.423936874629554" lon="11.448396025797914"><ele>393.0</ele><time>2026-04-11T07:46:34Z</time></trkpt><trkpt lat="43.42392870750378" lon="11.448487469866398"><ele>392.66666666666663</ele><time>2026-04-11T07:46:37Z</time></trkpt><trkpt lat="43.423940371458336" lon="11.448599591512313"><ele>392.3333333333333</ele><time>2026-04-11T07:46:40Z</time></trkpt><trkpt lat="43.423968074327036" lon="11.448734204811267"><ele>392.0</ele><time>2026-04-11T07:46:42Z</time></trkpt><trkpt lat="43.42398068476028" lon="11.44885560642173"><ele>391.99999999999994</ele><time>2026-04-11T07:46:45Z</time></trkpt><trkpt lat="43.423968829130395" lon="11.448968722342512"><ele>392.0</ele><time>2026-04-11T07:46:47Z</time></trkpt><trkpt lat="43.423963083895806" lon="11.449089422130509"><ele>392.0</ele><time>2026-04-11T07:46:49Z</time></trkpt><trkpt lat="43.42395737480329" lon="11.449216869284887"><ele>392.0</ele><time>2026-04-11T07:46:51Z</time></trkpt><trkpt lat="43.42394838444833" lon="11.449332606994622"><ele>391.99999999999994</ele><time>2026-04-11T07:46:53Z</time></trkpt><trkpt lat="43.42391426986615" lon="11.449407353928217"><ele>392.0</ele><time>2026-04-11T07:46:54Z</time></trkpt><trkpt lat="43.42385992372637" lon="11.449462213677895"><ele>391.99999999999994</ele><time>2026-04-11T07:46:55Z</time></trkpt><trkpt lat="43.42387650330492" lon="11.44957562227706"><ele>392.0</ele><time>2026-04-11T07:46:57Z</time></trkpt><trkpt lat="43.42385074729208" lon="11.449695507002755"><ele>392.0</ele><time>2026-04-11T07:46:59Z</time></trkpt><trkpt lat="43.423797410647744" lon="11.449800966352166"><ele>392.0</ele><time>2026-04-11T07:47:01Z</time></trkpt><trkpt lat="43.42374318778018" lon="11.44989062017033"><ele>391.99999999999994</ele><time>2026-04-11T07:47:03Z</time></trkpt><trkpt lat="43.42369526145142" lon="11.449971362643337"><ele>392.0</ele><time>2026-04-11T07:47:05Z</time></trkpt><trkpt lat="43.42365486992677" lon="11.450041891843405"><ele>392.8333333333333</ele><time>2026-04-11T07:47:07Z</time></trkpt><trkpt lat="43.423593525676424" lon="11.450139543511572"><ele>393.66666666666663</ele><time>2026-04-11T07:47:09Z</time></trkpt><trkpt lat="43.42354792428905" lon="11.450236121843988"><ele>394.5</ele><time>2026-04-11T07:47:11Z</time></trkpt><trkpt lat="43.42349589384265" lon="11.450325288481473"><ele>395.33333333333337</ele><time>2026-04-11T07:47:13Z</time></trkpt><trkpt lat="43.42345131085227" lon="11.450414648000622"><ele>396.1666666666667</ele><time>2026-04-11T07:47:15Z</time></trkpt><trkpt lat="43.423389269521884" lon="11.450506215837112"><ele>397.0</ele><time>2026-04-11T07:47:17Z</time></trkpt><trkpt lat="43.423331675892655" lon="11.450593196470706"><ele>397.00000000000006</ele><time>2026-04-11T07:47:19Z</time></trkpt><trkpt lat="43.423263351019635" lon="11.450669741551485"><ele>397.0</ele><time>2026-04-11T07:47:21Z</time></trkpt><trkpt lat="43.423308854614966" lon="11.450826258365245"><ele>397.0</ele><time>2026-04-11T07:47:55Z</time></trkpt><trkpt lat="43.42324689454815" lon="11.450844761398756"><ele>397.0</ele><time>2026-04-11T07:47:58Z</time></trkpt><trkpt lat="43.423187925479176" lon="11.450886059467464"><ele>397.00000000000006</ele><time>2026-04-11T07:48:00Z</time></trkpt><trkpt lat="43.4231075097439" lon="11.450931412636583"><ele>397.0</ele><time>2026-04-11T07:48:02Z</time></trkpt><trkpt lat="43.423034143733226" lon="11.450983515020532"><ele>401.6</ele><time>2026-04-11T07:48:04Z</time></trkpt><trkpt lat="43.42294700024825" lon="11.451056360230973"><ele>406.20000000000005</ele><time>2026-04-11T07:48:06Z</time></trkpt><trkpt lat="43.42286068203098" lon="11.45108902131735"><ele>410.8</ele><time>2026-04-11T07:48:08Z</time></trkpt><trkpt lat="43.42278469361037" lon="11.451139970483108"><ele>415.4</ele><time>2026-04-11T07:48:10Z</time></trkpt><trkpt lat="43.422704717915316" lon="11.451179036122989"><ele>420.0</ele><time>2026-04-11T07:48:12Z</time></trkpt><trkpt lat="43.42262453659807" lon="11.451241544320638"><ele>420.0</ele><time>2026-04-11T07:48:14Z</time></trkpt><trkpt lat="43.42254405132977" lon="11.45128647435895"><ele>420.0</ele><time>2026-04-11T07:48:16Z</time></trkpt><trkpt lat="43.42246522085336" lon="11.451302512473363"><ele>420.0</ele><time>2026-04-11T07:48:18Z</time></trkpt><trkpt lat="43.42237547847926" lon="11.451323986822391"><ele>420.0</ele><time>2026-04-11T07:48:20Z</time></trkpt><trkpt lat="43.4222917898084" lon="11.451336086185018"><ele>420.0</ele><time>2026-04-11T07:48:22Z</time></trkpt><trkpt lat="43.422227959375256" lon="11.451330246390905"><ele>420.0</ele><time>2026-04-11T07:48:24Z</time></trkpt><trkpt lat="43.422153874703746" lon="11.451347200842427"><ele>421.3333333333333</ele><time>2026-04-11T07:48:26Z</time></trkpt><trkpt lat="43.42208866877461" lon="11.45133025590189"><ele>422.66666666666663</ele><time>2026-04-11T07:48:28Z</time></trkpt><trkpt lat="43.422018715059714" lon="11.451342565641584"><ele>424.0</ele><time>2026-04-11T07:48:30Z</time></trkpt><trkpt lat="43.421934427081005" lon="11.45138815334497"><ele>425.3333333333333</ele><time>2026-04-11T07:48:32Z</time></trkpt><trkpt lat="43.42187670235093" lon="11.451450856664575"><ele>426.66666666666663</ele><time>2026-04-11T07:48:34Z</time></trkpt><trkpt lat="43.4218352775351" lon="11.451562017825593"><ele>428.0</ele><time>2026-04-11T07:48:36Z</time></trkpt><trkpt lat="43.421835577019195" lon="11.451708202749145"><ele>427.99999999999994</ele><time>2026-04-11T07:48:40Z</time></trkpt><trkpt lat="43.421847196998264" lon="11.451816390536527"><ele>428.0</ele><time>2026-04-11T07:48:44Z</time></trkpt><trkpt lat="43.4218316750436" lon="11.451957233403558"><ele>428.0</ele><time>2026-04-11T07:48:47Z</time></trkpt><trkpt lat="43.42181114112204" lon="11.452075631798104"><ele>428.0</ele><time>2026-04-11T07:48:49Z</time></trkpt><trkpt lat="43.421792625785805" lon="11.452160104727334"><ele>427.99999999999994</ele><time>2026-04-11T07:48:51Z</time></trkpt><trkpt lat="43.42175769526928" lon="11.452262725906479"><ele>428.0</ele><time>2026-04-11T07:48:53Z</time></trkpt><trkpt lat="43.42173232893642" lon="11.452359876236756"><ele>426.49999999999994</ele><time>2026-04-11T07:48:55Z</time></trkpt><trkpt lat="43.42169395324808" lon="11.45246176599907"><ele>425.0</ele><time>2026-04-11T07:48:57Z</time></trkpt><trkpt lat="43.42166360384387" lon="11.452566107972881"><ele>423.5</ele><time>2026-04-11T07:48:59Z</time></trkpt><trkpt lat="43.42165036986495" lon="11.45266052840433"><ele>422.0</ele><time>2026-04-11T07:49:01Z</time></trkpt><trkpt lat="43.42163450096097" lon="11.452749350553376"><ele>420.49999999999994</ele><time>2026-04-11T07:49:03Z</time></trkpt><trkpt lat="43.42163395216717" lon="11.452839406301342"><ele>419.0</ele><time>2026-04-11T07:49:05Z</time></trkpt><trkpt lat="43.42166010360828" lon="11.452968473684388"><ele>418.3333333333333</ele><time>2026-04-11T07:49:07Z</time></trkpt><trkpt lat="43.421707817886755" lon="11.453061255989649"><ele>417.66666666666663</ele><time>2026-04-11T07:49:09Z</time></trkpt><trkpt lat="43.42174783258842" lon="11.453147067150452"><ele>417.0</ele><time>2026-04-11T07:49:11Z</time></trkpt><trkpt lat="43.42177229799777" lon="11.45327913398196"><ele>416.33333333333337</ele><time>2026-04-11T07:49:16Z</time></trkpt><trkpt lat="43.42176605393223" lon="11.453385900878251"><ele>415.6666666666667</ele><time>2026-04-11T07:49:19Z</time></trkpt><trkpt lat="43.42174731729431" lon="11.453486533753098"><ele>415.0</ele><time>2026-04-11T07:49:22Z</time></trkpt><trkpt lat="43.4217374777009" lon="11.453574157602878"><ele>415.00000000000006</ele><time>2026-04-11T07:49:24Z</time></trkpt><trkpt lat="43.421726247003264" lon="11.453659475666448"><ele>415.0</ele><time>2026-04-11T07:49:26Z</time></trkpt><trkpt lat="43.42171868337922" lon="11.453764518633358"><ele>415.0</ele><time>2026-04-11T07:49:29Z</time></trkpt><trkpt lat="43.42165937036837" lon="11.4538589727074"><ele>415.0</ele><time>2026-04-11T07:49:32Z</time></trkpt><trkpt lat="43.42162212424622" lon="11.453974756323127"><ele>415.00000000000006</ele><time>2026-04-11T07:49:35Z</time></trkpt><trkpt lat="43.42155333877087" lon="11.454062999935399"><ele>415.0</ele><time>2026-04-11T07:49:38Z</time></trkpt><trkpt lat="43.42153773932517" lon="11.454150673353706"><ele>414.6666666666667</ele><time>2026-04-11T07:49:41Z</time></trkpt><trkpt lat="43.421473616784574" lon="11.454230190829804"><ele>414.33333333333337</ele><time>2026-04-11T07:49:45Z</time></trkpt><trkpt lat="43.42139109019549" lon="11.454290231963258"><ele>414.0</ele><time>2026-04-11T07:49:48Z</time></trkpt><trkpt lat="43.421364845630485" lon="11.454400708365931"><ele>413.66666666666663</ele><time>2026-04-11T07:49:51Z</time></trkpt><trkpt lat="43.42127906903112" lon="11.454445935018894"><ele>413.3333333333333</ele><time>2026-04-11T07:49:53Z</time></trkpt><trkpt lat="43.4212269016689" lon="11.454503270234733"><ele>413.0</ele><time>2026-04-11T07:49:55Z</time></trkpt><trkpt lat="43.42117225076062" lon="11.454554914530062"><ele>414.49999999999994</ele><time>2026-04-11T07:49:57Z</time></trkpt><trkpt lat="43.42110672762372" lon="11.45465272960498"><ele>416.0</ele><time>2026-04-11T07:49:59Z</time></trkpt><trkpt lat="43.42105955827527" lon="11.454738805056012"><ele>417.5</ele><time>2026-04-11T07:50:01Z</time></trkpt><trkpt lat="43.42102946402121" lon="11.454830689305345"><ele>419.0</ele><time>2026-04-11T07:50:03Z</time></trkpt><trkpt lat="43.42097769356533" lon="11.454910325245507"><ele>420.49999999999994</ele><time>2026-04-11T07:50:05Z</time></trkpt><trkpt lat="43.4209355907326" lon="11.454978870623215"><ele>422.0</ele><time>2026-04-11T07:50:07Z</time></trkpt><trkpt lat="43.420904952562836" lon="11.455067286409111"><ele>421.99999999999994</ele><time>2026-04-11T07:50:09Z</time></trkpt><trkpt lat="43.42084741550172" lon="11.455137264002907"><ele>422.0</ele><time>2026-04-11T07:50:11Z</time></trkpt><trkpt lat="43.420783558608264" lon="11.45523124958088"><ele>422.0</ele><time>2026-04-11T07:50:14Z</time></trkpt><trkpt lat="43.42072638964653" lon="11.45531337013907"><ele>422.0</ele><time>2026-04-11T07:50:17Z</time></trkpt><trkpt lat="43.42066165292046" lon="11.455377168071754"><ele>421.99999999999994</ele><time>2026-04-11T07:50:20Z</time></trkpt><trkpt lat="43.42060965220989" lon="11.455467890846387"><ele>422.0</ele><time>2026-04-11T07:50:23Z</time></trkpt><trkpt lat="43.42057169740792" lon="11.455541664121064"><ele>422.99999999999994</ele><time>2026-04-11T07:50:27Z</time></trkpt><trkpt lat="43.42050840519842" lon="11.455626499571492"><ele>424.0</ele><time>2026-04-11T07:50:31Z</time></trkpt><trkpt lat="43.4204503452522" lon="11.45568976336654"><ele>425.0</ele><time>2026-04-11T07:50:33Z</time></trkpt><trkpt lat="43.42040492542369" lon="11.455772365767128"><ele>426.0</ele><time>2026-04-11T07:50:36Z</time></trkpt><trkpt lat="43.420341649357766" lon="11.45588644890321"><ele>426.99999999999994</ele><time>2026-04-11T07:50:39Z</time></trkpt><trkpt lat="43.42027907296926" lon="11.455915310422041"><ele>428.0</ele><time>2026-04-11T07:50:41Z</time></trkpt><trkpt lat="43.420233465916915" lon="11.456037309505339"><ele>427.99999999999994</ele><time>2026-04-11T07:50:45Z</time></trkpt><trkpt lat="43.42018363020971" lon="11.456134013931322"><ele>428.0</ele><time>2026-04-11T07:50:49Z</time></trkpt><trkpt lat="43.42010726111475" lon="11.45619018367715"><ele>428.0</ele><time>2026-04-11T07:50:51Z</time></trkpt><trkpt lat="43.420059757406136" lon="11.456252918651842"><ele>428.0</ele><time>2026-04-11T07:50:53Z</time></trkpt><trkpt lat="43.420017002747876" lon="11.45635107298507"><ele>427.99999999999994</ele><time>2026-04-11T07:50:56Z</time></trkpt><trkpt lat="43.41994144963385" lon="11.45638198269003"><ele>428.0</ele><time>2026-04-11T07:50:58Z</time></trkpt><trkpt lat="43.419895417064986" lon="11.456444702904223"><ele>427.28571428571433</ele><time>2026-04-11T07:51:00Z</time></trkpt><trkpt lat="43.41984446330472" lon="11.456505742780054"><ele>426.57142857142856</ele><time>2026-04-11T07:51:02Z</time></trkpt><trkpt lat="43.41978975563372" lon="11.456571329051732"><ele>425.8571428571429</ele><time>2026-04-11T07:51:04Z</time></trkpt><trkpt lat="43.41973225559421" lon="11.456639154755418"><ele>425.14285714285717</ele><time>2026-04-11T07:51:06Z</time></trkpt><trkpt lat="43.419672947137016" lon="11.45671383505413"><ele>424.42857142857144</ele><time>2026-04-11T07:51:08Z</time></trkpt><trkpt lat="43.41961078212077" lon="11.456757337604767"><ele>423.7142857142857</ele><time>2026-04-11T07:51:10Z</time></trkpt><trkpt lat="43.41954222044493" lon="11.456796835567047"><ele>423.0</ele><time>2026-04-11T07:51:12Z</time></trkpt><trkpt lat="43.419470000207475" lon="11.456823987590917"><ele>425.0</ele><time>2026-04-11T07:51:14Z</time></trkpt><trkpt lat="43.41937134543387" lon="11.456835368955579"><ele>427.0</ele><time>2026-04-11T07:51:18Z</time></trkpt><trkpt lat="43.419300563309804" lon="11.456909950397126"><ele>428.99999999999994</ele><time>2026-04-11T07:51:22Z</time></trkpt><trkpt lat="43.419248638363804" lon="11.456998917515092"><ele>431.0</ele><time>2026-04-11T07:51:25Z</time></trkpt><trkpt lat="43.419211806984606" lon="11.457091621463551"><ele>433.0</ele><time>2026-04-11T07:51:28Z</time></trkpt><trkpt lat="43.419194521606535" lon="11.457235802559595"><ele>433.00000000000006</ele><time>2026-04-11T07:51:31Z</time></trkpt><trkpt lat="43.419187900062695" lon="11.457350865473353"><ele>433.0</ele><time>2026-04-11T07:51:35Z</time></trkpt><trkpt lat="43.419137793926744" lon="11.45743126570744"><ele>433.0</ele><time>2026-04-11T07:51:37Z</time></trkpt><trkpt lat="43.419052956555376" lon="11.457508799190794"><ele>433.0</ele><time>2026-04-11T07:51:40Z</time></trkpt><trkpt lat="43.41900558986932" lon="11.457573467374875"><ele>433.00000000000006</ele><time>2026-04-11T07:51:42Z</time></trkpt><trkpt lat="43.41893018714748" lon="11.45760178241597"><ele>433.0</ele><time>2026-04-11T07:51:45Z</time></trkpt><trkpt lat="43.41887447250556" lon="11.457663829807078"><ele>433.0</ele><time>2026-04-11T07:51:47Z</time></trkpt><trkpt lat="43.41876323513652" lon="11.457761808936551"><ele>432.99999999999994</ele><time>2026-04-11T07:51:49Z</time></trkpt><trkpt lat="43.41866971884718" lon="11.457829502811096"><ele>432.99999999999994</ele><time>2026-04-11T07:51:51Z</time></trkpt><trkpt lat="43.41862997572528" lon="11.45791362256101"><ele>433.0</ele><time>2026-04-11T07:51:53Z</time></trkpt><trkpt lat="43.41853721410498" lon="11.458008770041255"><ele>433.0</ele><time>2026-04-11T07:51:55Z</time></trkpt><trkpt lat="43.41846059780157" lon="11.45809728785695"><ele>433.00000000000006</ele><time>2026-04-11T07:51:57Z</time></trkpt><trkpt lat="43.41844146651787" lon="11.458180269008421"><ele>433.0</ele><time>2026-04-11T07:52:00Z</time></trkpt><trkpt lat="43.418382165285394" lon="11.458256306700964"><ele>433.0</ele><time>2026-04-11T07:52:03Z</time></trkpt><trkpt lat="43.418312781312096" lon="11.458307308618899"><ele>433.0</ele><time>2026-04-11T07:52:06Z</time></trkpt><trkpt lat="43.418228606507725" lon="11.458308347178894"><ele>433.00000000000006</ele><time>2026-04-11T07:52:08Z</time></trkpt><trkpt lat="43.41815373217944" lon="11.45828891665424"><ele>433.0</ele><time>2026-04-11T07:52:10Z</time></trkpt><trkpt lat="43.41806070806138" lon="11.458234725417316"><ele>434.5</ele><time>2026-04-11T07:52:12Z</time></trkpt><trkpt lat="43.41795198855399" lon="11.458190788041057"><ele>436.0</ele><time>2026-04-11T07:52:14Z</time></trkpt><trkpt lat="43.41785651720398" lon="11.458223027920008"><ele>437.5</ele><time>2026-04-11T07:52:16Z</time></trkpt><trkpt lat="43.41773670902245" lon="11.458209173204134"><ele>439.0</ele><time>2026-04-11T07:52:18Z</time></trkpt><trkpt lat="43.417621403617495" lon="11.458174474519467"><ele>439.00000000000006</ele><time>2026-04-11T07:52:20Z</time></trkpt><trkpt lat="43.417555132880494" lon="11.458159092931853"><ele>439.0</ele><time>2026-04-11T07:52:21Z</time></trkpt><trkpt lat="43.41745374163278" lon="11.458100986805743"><ele>439.0</ele><time>2026-04-11T07:52:23Z</time></trkpt><trkpt lat="43.41738121146061" lon="11.45805392048968"><ele>439.0</ele><time>2026-04-11T07:52:25Z</time></trkpt><trkpt lat="43.417283124413316" lon="11.458025470653624"><ele>439.00000000000006</ele><time>2026-04-11T07:52:27Z</time></trkpt><trkpt lat="43.41721463007613" lon="11.45801162587014"><ele>439.0</ele><time>2026-04-11T07:52:29.001Z</time></trkpt><trkpt lat="43.41708060999819" lon="11.457996217949697"><ele>439.33333333333337</ele><time>2026-04-11T07:52:32Z</time></trkpt><trkpt lat="43.41700613577893" lon="11.457990236649097"><ele>439.6666666666667</ele><time>2026-04-11T07:52:34Z</time></trkpt><trkpt lat="43.41692570693283" lon="11.457984194971168"><ele>440.0</ele><time>2026-04-11T07:52:36Z</time></trkpt><trkpt lat="43.416848976775825" lon="11.457983348561697"><ele>440.33333333333337</ele><time>2026-04-11T07:52:38Z</time></trkpt><trkpt lat="43.41677076711395" lon="11.45797615186927"><ele>440.6666666666667</ele><time>2026-04-11T07:52:40Z</time></trkpt><trkpt lat="43.416697224198565" lon="11.45797531262637"><ele>441.0</ele><time>2026-04-11T07:52:42Z</time></trkpt><trkpt lat="43.416619137888915" lon="11.457975206647248"><ele>441.0</ele><time>2026-04-11T07:52:44Z</time></trkpt><trkpt lat="43.416541884983914" lon="11.457976175448872"><ele>441.0</ele><time>2026-04-11T07:52:46Z</time></trkpt><trkpt lat="43.41647647559457" lon="11.457999342185433"><ele>441.0</ele><time>2026-04-11T07:52:48Z</time></trkpt><trkpt lat="43.416377282868396" lon="11.458067376093403"><ele>441.0</ele><time>2026-04-11T07:52:52Z</time></trkpt><trkpt lat="43.416300852028314" lon="11.458132061253043"><ele>441.0</ele><time>2026-04-11T07:52:54Z</time></trkpt><trkpt lat="43.41623860666404" lon="11.458201700044922"><ele>441.0</ele><time>2026-04-11T07:52:56Z</time></trkpt><trkpt lat="43.41618605664744" lon="11.458287829123917"><ele>441.8333333333333</ele><time>2026-04-11T07:53:00Z</time></trkpt><trkpt lat="43.416123508707635" lon="11.458380407506503"><ele>442.66666666666663</ele><time>2026-04-11T07:53:03Z</time></trkpt><trkpt lat="43.416092572564324" lon="11.458480333253098"><ele>443.5</ele><time>2026-04-11T07:53:06Z</time></trkpt><trkpt lat="43.41608052869947" lon="11.4585870957129"><ele>444.3333333333333</ele><time>2026-04-11T07:53:09Z</time></trkpt><trkpt lat="43.41606133142181" lon="11.458693971873096"><ele>445.16666666666663</ele><time>2026-04-11T07:53:12Z</time></trkpt><trkpt lat="43.416023654172704" lon="11.458785952623165"><ele>446.0</ele><time>2026-04-11T07:53:15Z</time></trkpt><trkpt lat="43.41598420557029" lon="11.458901416037955"><ele>446.57142857142856</ele><time>2026-04-11T07:53:18Z</time></trkpt><trkpt lat="43.41597099947612" lon="11.459005331330884"><ele>447.1428571428571</ele><time>2026-04-11T07:53:22Z</time></trkpt><trkpt lat="43.41593977891959" lon="11.45908888004632"><ele>447.7142857142858</ele><time>2026-04-11T07:53:25Z</time></trkpt><trkpt lat="43.41593853856489" lon="11.459181035200375"><ele>448.28571428571433</ele><time>2026-04-11T07:53:28Z</time></trkpt><trkpt lat="43.41591461604828" lon="11.459264064622435"><ele>448.8571428571429</ele><time>2026-04-11T07:53:31Z</time></trkpt><trkpt lat="43.415902359017984" lon="11.459354192796136"><ele>449.4285714285715</ele><time>2026-04-11T07:53:34Z</time></trkpt><trkpt lat="43.41589501377951" lon="11.459449244289909"><ele>450.00000000000006</ele><time>2026-04-11T07:53:38Z</time></trkpt><trkpt lat="43.41587924458238" lon="11.459540899455755"><ele>451.1666666666667</ele><time>2026-04-11T07:53:40Z</time></trkpt><trkpt lat="43.41591288129182" lon="11.459665043481916"><ele>452.33333333333337</ele><time>2026-04-11T07:53:43Z</time></trkpt><trkpt lat="43.41592332019539" lon="11.459792221942607"><ele>453.5</ele><time>2026-04-11T07:53:45Z</time></trkpt><trkpt lat="43.41591544227646" lon="11.45988145003567"><ele>454.6666666666667</ele><time>2026-04-11T07:53:47Z</time></trkpt><trkpt lat="43.41589658182321" lon="11.459994552548395"><ele>455.83333333333337</ele><time>2026-04-11T07:53:50Z</time></trkpt><trkpt lat="43.415915343252856" lon="11.4601168271608"><ele>457.0</ele><time>2026-04-11T07:53:53Z</time></trkpt><trkpt lat="43.41592259691245" lon="11.460218755994225"><ele>457.00000000000006</ele><time>2026-04-11T07:53:56Z</time></trkpt><trkpt lat="43.41591027570081" lon="11.460326249753818"><ele>457.0</ele><time>2026-04-11T07:53:59Z</time></trkpt><trkpt lat="43.41591851617015" lon="11.460436956075444"><ele>457.00000000000006</ele><time>2026-04-11T07:54:02Z</time></trkpt><trkpt lat="43.415928177474555" lon="11.460525898171948"><ele>457.00000000000006</ele><time>2026-04-11T07:54:05Z</time></trkpt><trkpt lat="43.415940272012946" lon="11.460616213016438"><ele>457.0</ele><time>2026-04-11T07:54:07Z</time></trkpt><trkpt lat="43.41596189980227" lon="11.460703696530135"><ele>457.00000000000006</ele><time>2026-04-11T07:54:10Z</time></trkpt><trkpt lat="43.41601304488723" lon="11.460787064588631"><ele>457.00000000000006</ele><time>2026-04-11T07:54:13Z</time></trkpt><trkpt lat="43.4160635974123" lon="11.460877487585487"><ele>459.00000000000006</ele><time>2026-04-11T07:54:16Z</time></trkpt><trkpt lat="43.41612148690157" lon="11.460942375598957"><ele>461.0</ele><time>2026-04-11T07:54:19Z</time></trkpt><trkpt lat="43.41617277586967" lon="11.461021069436795"><ele>463.00000000000006</ele><time>2026-04-11T07:54:22Z</time></trkpt><trkpt lat="43.41621641119791" lon="11.461097215474878"><ele>465.00000000000006</ele><time>2026-04-11T07:54:25Z</time></trkpt><trkpt lat="43.41623290331295" lon="11.46120120017383"><ele>467.0</ele><time>2026-04-11T07:54:29Z</time></trkpt><trkpt lat="43.41620371071313" lon="11.461285217563042"><ele>469.00000000000006</ele><time>2026-04-11T07:54:33Z</time></trkpt><trkpt lat="43.41613706534918" lon="11.461343696291454"><ele>471.00000000000006</ele><time>2026-04-11T07:54:36Z</time></trkpt><trkpt lat="43.41607778718598" lon="11.461379434533242"><ele>471.00000000000006</ele><time>2026-04-11T07:54:39Z</time></trkpt><trkpt lat="43.41601337642997" lon="11.461415485260199"><ele>471.0</ele><time>2026-04-11T07:54:42Z</time></trkpt><trkpt lat="43.415946293476075" lon="11.461425615164945"><ele>471.00000000000006</ele><time>2026-04-11T07:54:47Z</time></trkpt><trkpt lat="43.41588197992207" lon="11.46139851685181"><ele>471.00000000000006</ele><time>2026-04-11T07:54:51Z</time></trkpt><trkpt lat="43.41582845465344" lon="11.461298827958977"><ele>471.0</ele><time>2026-04-11T07:54:55Z</time></trkpt><trkpt lat="43.41579313345351" lon="11.461216625154849"><ele>471.00000000000006</ele><time>2026-04-11T07:54:59Z</time></trkpt><trkpt lat="43.415745109809194" lon="11.461145686211614"><ele>471.00000000000006</ele><time>2026-04-11T07:55:03Z</time></trkpt><trkpt lat="43.41570061810163" lon="11.461079756218556"><ele>471.0</ele><time>2026-04-11T07:55:06Z</time></trkpt><trkpt lat="43.415655951394264" lon="11.460998012248808"><ele>471.0</ele><time>2026-04-11T07:55:09Z</time></trkpt><trkpt lat="43.415602893975844" lon="11.460907641575677"><ele>471.0</ele><time>2026-04-11T07:55:13Z</time></trkpt><trkpt lat="43.41552400580312" lon="11.46083197493137"><ele>471.0</ele><time>2026-04-11T07:55:17Z</time></trkpt><trkpt lat="43.415467812918024" lon="11.460763799834499"><ele>471.0</ele><time>2026-04-11T07:55:21Z</time></trkpt><trkpt lat="43.41539062098369" lon="11.460726222746434"><ele>471.0</ele><time>2026-04-11T07:55:23Z</time></trkpt><trkpt lat="43.41532708182983" lon="11.460707400467946"><ele>472.5</ele><time>2026-04-11T07:55:26Z</time></trkpt><trkpt lat="43.4153359685831" lon="11.46080283294485"><ele>474.0</ele><time>2026-04-11T07:55:31Z</time></trkpt><trkpt lat="43.41539141659918" lon="11.4608553357214"><ele>475.5</ele><time>2026-04-11T07:55:34Z</time></trkpt><trkpt lat="43.41544656589659" lon="11.46094781984679"><ele>477.0</ele><time>2026-04-11T07:55:39Z</time></trkpt><trkpt lat="43.4154704058655" lon="11.46107099938956"><ele>478.5</ele><time>2026-04-11T07:55:44Z</time></trkpt><trkpt lat="43.41544342610938" lon="11.46118393776401"><ele>480.0</ele><time>2026-04-11T07:55:48Z</time></trkpt><trkpt lat="43.41540740163765" lon="11.461275360863239"><ele>481.42857142857144</ele><time>2026-04-11T07:55:51Z</time></trkpt><trkpt lat="43.4153888256205" lon="11.461370115399987"><ele>482.85714285714283</ele><time>2026-04-11T07:55:54Z</time></trkpt><trkpt lat="43.41538734509437" lon="11.461471537481792"><ele>484.2857142857143</ele><time>2026-04-11T07:55:57Z</time></trkpt><trkpt lat="43.41536563516942" lon="11.46156142569877"><ele>485.7142857142857</ele><time>2026-04-11T07:56:00Z</time></trkpt><trkpt lat="43.41535876053204" lon="11.461649591519135"><ele>487.1428571428571</ele><time>2026-04-11T07:56:03Z</time></trkpt><trkpt lat="43.41534561860931" lon="11.461735773630553"><ele>488.57142857142856</ele><time>2026-04-11T07:56:06Z</time></trkpt><trkpt lat="43.41528147320896" lon="11.461785335486745"><ele>490.0</ele><time>2026-04-11T07:56:09Z</time></trkpt><trkpt lat="43.41522457324256" lon="11.461715472386263"><ele>490.00000000000006</ele><time>2026-04-11T07:56:12Z</time></trkpt><trkpt lat="43.41524757652299" lon="11.461618245390987"><ele>490.0</ele><time>2026-04-11T07:56:14Z</time></trkpt><trkpt lat="43.41523257066275" lon="11.46152700628346"><ele>490.0</ele><time>2026-04-11T07:56:17Z</time></trkpt><trkpt lat="43.415200787977895" lon="11.461442064806379"><ele>490.0</ele><time>2026-04-11T07:56:21Z</time></trkpt><trkpt lat="43.41513585117213" lon="11.461394133661742"><ele>490.00000000000006</ele><time>2026-04-11T07:56:25Z</time></trkpt><trkpt lat="43.41505124158396" lon="11.461436543005389"><ele>490.0</ele><time>2026-04-11T07:56:30Z</time></trkpt><trkpt lat="43.41500845403259" lon="11.461552177244775"><ele>490.0</ele><time>2026-04-11T07:56:35Z</time></trkpt><trkpt lat="43.41500339701849" lon="11.461662682246656"><ele>490.0</ele><time>2026-04-11T07:56:39Z</time></trkpt><trkpt lat="43.414972334580376" lon="11.461758247844815"><ele>490.0</ele><time>2026-04-11T07:56:43Z</time></trkpt><trkpt lat="43.41496060424837" lon="11.46187104017959"><ele>490.0</ele><time>2026-04-11T07:56:48Z</time></trkpt><trkpt lat="43.414927892769235" lon="11.46194736308398"><ele>490.0</ele><time>2026-04-11T07:56:52Z</time></trkpt><trkpt lat="43.414887975422204" lon="11.462021154557606"><ele>490.0</ele><time>2026-04-11T07:56:55Z</time></trkpt><trkpt lat="43.41485015742323" lon="11.462110013736504"><ele>490.0</ele><time>2026-04-11T07:56:58Z</time></trkpt><trkpt lat="43.4148321292066" lon="11.462199942118279"><ele>491.33333333333337</ele><time>2026-04-11T07:57:03Z</time></trkpt><trkpt lat="43.414797159385614" lon="11.462298582547737"><ele>492.6666666666667</ele><time>2026-04-11T07:57:06Z</time></trkpt><trkpt lat="43.414777077285436" lon="11.46238998458008"><ele>494.0</ele><time>2026-04-11T07:57:09Z</time></trkpt><trkpt lat="43.414754973680296" lon="11.462486123369592"><ele>495.33333333333337</ele><time>2026-04-11T07:57:13Z</time></trkpt><trkpt lat="43.41471692048879" lon="11.46258783318289"><ele>496.6666666666667</ele><time>2026-04-11T07:57:17Z</time></trkpt><trkpt lat="43.414710635712154" lon="11.462699508781593"><ele>498.0</ele><time>2026-04-11T07:57:20Z</time></trkpt><trkpt lat="43.41466089024308" lon="11.462797072362626"><ele>498.0</ele><time>2026-04-11T07:57:24Z</time></trkpt><trkpt lat="43.41466857910439" lon="11.46289179903613"><ele>498.0</ele><time>2026-04-11T07:57:27Z</time></trkpt><trkpt lat="43.414630648981195" lon="11.462978581753028"><ele>498.0</ele><time>2026-04-11T07:57:31Z</time></trkpt><trkpt lat="43.41461037786358" lon="11.463094433600167"><ele>498.0</ele><time>2026-04-11T07:57:35Z</time></trkpt><trkpt lat="43.41463544549721" lon="11.463224517951229"><ele>498.0</ele><time>2026-04-11T07:57:39Z</time></trkpt><trkpt lat="43.41461017476864" lon="11.463330636636208"><ele>498.0</ele><time>2026-04-11T07:57:43Z</time></trkpt><trkpt lat="43.41465380529651" lon="11.463410947016635"><ele>501.71428571428567</ele><time>2026-04-11T07:57:45Z</time></trkpt><trkpt lat="43.41465390221132" lon="11.463512553254906"><ele>505.4285714285714</ele><time>2026-04-11T07:57:48Z</time></trkpt><trkpt lat="43.41460623718292" lon="11.463600150114875"><ele>509.1428571428571</ele><time>2026-04-11T07:57:51Z</time></trkpt><trkpt lat="43.41459242176377" lon="11.463709638359905"><ele>512.8571428571429</ele><time>2026-04-11T07:57:55Z</time></trkpt><trkpt lat="43.414548983291155" lon="11.463777350390444"><ele>516.5714285714287</ele><time>2026-04-11T07:57:58Z</time></trkpt><trkpt lat="43.414554018331394" lon="11.463882853812185"><ele>520.2857142857143</ele><time>2026-04-11T07:58:02Z</time></trkpt><trkpt lat="43.414539548768786" lon="11.463976284450979"><ele>524.0</ele><time>2026-04-11T07:58:05Z</time></trkpt><trkpt lat="43.41448737880036" lon="11.46402549805589"><ele>524.0</ele><time>2026-04-11T07:58:08Z</time></trkpt><trkpt lat="43.414419871861284" lon="11.464096473887285"><ele>524.0</ele><time>2026-04-11T07:58:11Z</time></trkpt><trkpt lat="43.414335333580524" lon="11.46414811603655"><ele>524.0</ele><time>2026-04-11T07:58:15Z</time></trkpt><trkpt lat="43.41428587749901" lon="11.464242882150977"><ele>524.0</ele><time>2026-04-11T07:58:18Z</time></trkpt><trkpt lat="43.414225253700806" lon="11.464293813351711"><ele>524.0</ele><time>2026-04-11T07:58:21Z</time></trkpt><trkpt lat="43.4141680498011" lon="11.464374813264032"><ele>524.0</ele><time>2026-04-11T07:58:25Z</time></trkpt><trkpt lat="43.414105601102726" lon="11.464394689903383"><ele>524.0</ele><time>2026-04-11T07:58:27Z</time></trkpt><trkpt lat="43.41402634187089" lon="11.464443142110834"><ele>524.0</ele><time>2026-04-11T07:58:32Z</time></trkpt><trkpt lat="43.41397241008129" lon="11.464491554145274"><ele>524.0</ele><time>2026-04-11T07:58:35Z</time></trkpt><trkpt lat="43.41390906633641" lon="11.464516305424723"><ele>524.0</ele><time>2026-04-11T07:58:39Z</time></trkpt><trkpt lat="43.41383626992665" lon="11.464534464367556"><ele>524.0</ele><time>2026-04-11T07:58:43Z</time></trkpt><trkpt lat="43.41376099889372" lon="11.4645745010314"><ele>524.0</ele><time>2026-04-11T07:58:46Z</time></trkpt><trkpt lat="43.413681083737586" lon="11.464577566063127"><ele>522.8333333333333</ele><time>2026-04-11T07:58:49Z</time></trkpt><trkpt lat="43.41361760568375" lon="11.464639264242814"><ele>521.6666666666666</ele><time>2026-04-11T07:58:52Z</time></trkpt><trkpt lat="43.4135477901" lon="11.464619275494137"><ele>520.5</ele><time>2026-04-11T07:58:56Z</time></trkpt><trkpt lat="43.413471977791104" lon="11.464595051195264"><ele>519.3333333333334</ele><time>2026-04-11T07:59:00Z</time></trkpt><trkpt lat="43.41339623000348" lon="11.464557278453212"><ele>518.1666666666667</ele><time>2026-04-11T07:59:04Z</time></trkpt><trkpt lat="43.41333068841227" lon="11.46456227825362"><ele>517.0</ele><time>2026-04-11T07:59:07Z</time></trkpt><trkpt lat="43.41325672026019" lon="11.464494004708202"><ele>516.5714285714286</ele><time>2026-04-11T07:59:11Z</time></trkpt><trkpt lat="43.413202999441545" lon="11.464448155644178"><ele>516.1428571428572</ele><time>2026-04-11T07:59:14Z</time></trkpt><trkpt lat="43.41313385212725" lon="11.464447945012765"><ele>515.7142857142858</ele><time>2026-04-11T07:59:17Z</time></trkpt><trkpt lat="43.41306305969403" lon="11.464401855576307"><ele>515.2857142857143</ele><time>2026-04-11T07:59:21Z</time></trkpt><trkpt lat="43.41299056533262" lon="11.464424967153317"><ele>514.8571428571429</ele><time>2026-04-11T07:59:24Z</time></trkpt><trkpt lat="43.412922812865084" lon="11.464417166527973"><ele>514.4285714285714</ele><time>2026-04-11T07:59:26Z</time></trkpt><trkpt lat="43.41285360224247" lon="11.464391033280235"><ele>514.0</ele><time>2026-04-11T07:59:27Z</time></trkpt><trkpt lat="43.41278275947856" lon="11.464328411401079"><ele>514.0</ele><time>2026-04-11T07:59:29Z</time></trkpt><trkpt lat="43.41271628664326" lon="11.464335542378695"><ele>514.0</ele><time>2026-04-11T07:59:33Z</time></trkpt><trkpt lat="43.41266494880331" lon="11.464387192349108"><ele>514.0</ele><time>2026-04-11T08:02:38Z</time></trkpt><trkpt lat="43.41258991624549" lon="11.464376391724558"><ele>514.0</ele><time>2026-04-11T08:02:42Z</time></trkpt><trkpt lat="43.412527581635764" lon="11.464351288719627"><ele>514.0</ele><time>2026-04-11T08:02:44Z</time></trkpt><trkpt lat="43.41244636798516" lon="11.464370005314363"><ele>514.0</ele><time>2026-04-11T08:02:47Z</time></trkpt><trkpt lat="43.41235618951524" lon="11.464409409324466"><ele>514.0</ele><time>2026-04-11T08:02:50Z</time></trkpt><trkpt lat="43.41227368533506" lon="11.464501237540645"><ele>514.0</ele><time>2026-04-11T08:02:52Z</time></trkpt><trkpt lat="43.412184932328714" lon="11.464531073612623"><ele>514.0</ele><time>2026-04-11T08:02:54Z</time></trkpt><trkpt lat="43.41209853371007" lon="11.464603741200202"><ele>514.0</ele><time>2026-04-11T08:02:56Z</time></trkpt><trkpt lat="43.41199932452032" lon="11.464665084605999"><ele>514.0</ele><time>2026-04-11T08:02:58Z</time></trkpt><trkpt lat="43.411889228776175" lon="11.464715400907368"><ele>514.0</ele><time>2026-04-11T08:03:00Z</time></trkpt><trkpt lat="43.41178815422495" lon="11.464774899856332"><ele>511.79999999999995</ele><time>2026-04-11T08:03:02Z</time></trkpt><trkpt lat="43.411692271011376" lon="11.464817959624026"><ele>509.59999999999997</ele><time>2026-04-11T08:03:04Z</time></trkpt><trkpt lat="43.41158572565222" lon="11.464786243032632"><ele>507.4</ele><time>2026-04-11T08:03:06Z</time></trkpt><trkpt lat="43.41146378759314" lon="11.464719283780136"><ele>505.2</ele><time>2026-04-11T08:03:08Z</time></trkpt><trkpt lat="43.411382788402506" lon="11.464686093934388"><ele>503.0</ele><time>2026-04-11T08:03:09Z</time></trkpt><trkpt lat="43.41127736860827" lon="11.464603048243742"><ele>501.49999999999994</ele><time>2026-04-11T08:03:11Z</time></trkpt><trkpt lat="43.41120211801679" lon="11.46456955850192"><ele>500.0</ele><time>2026-04-11T08:03:12Z</time></trkpt><trkpt lat="43.41109810390234" lon="11.464445629581487"><ele>498.5</ele><time>2026-04-11T08:03:14Z</time></trkpt><trkpt lat="43.41103295579312" lon="11.464414171825362"><ele>497.0</ele><time>2026-04-11T08:03:15Z</time></trkpt><trkpt lat="43.410972664587405" lon="11.464381337344605"><ele>495.49999999999994</ele><time>2026-04-11T08:03:16Z</time></trkpt><trkpt lat="43.41089418517566" lon="11.46440688226831"><ele>494.0</ele><time>2026-04-11T08:03:17Z</time></trkpt><trkpt lat="43.41081906891546" lon="11.464417702321777"><ele>493.99999999999994</ele><time>2026-04-11T08:03:18Z</time></trkpt><trkpt lat="43.41075599832797" lon="11.464434360202159"><ele>494.0</ele><time>2026-04-11T08:03:19Z</time></trkpt><trkpt lat="43.410692662613755" lon="11.464455695978922"><ele>494.0</ele><time>2026-04-11T08:03:20Z</time></trkpt><trkpt lat="43.41056198435289" lon="11.464466877166135"><ele>494.0</ele><time>2026-04-11T08:03:22Z</time></trkpt><trkpt lat="43.41049208594608" lon="11.46446430648671"><ele>493.99999999999994</ele><time>2026-04-11T08:03:23Z</time></trkpt><trkpt lat="43.4104242285691" lon="11.464462427237617"><ele>494.0</ele><time>2026-04-11T08:03:24Z</time></trkpt><trkpt lat="43.410352888586665" lon="11.46445568299205"><ele>493.66666666666663</ele><time>2026-04-11T08:03:25Z</time></trkpt><trkpt lat="43.41028412615576" lon="11.464467721674387"><ele>493.3333333333333</ele><time>2026-04-11T08:03:26Z</time></trkpt><trkpt lat="43.410212179778235" lon="11.464477187946539"><ele>493.0</ele><time>2026-04-11T08:03:27Z</time></trkpt><trkpt lat="43.410134724653446" lon="11.464456934923232"><ele>492.66666666666663</ele><time>2026-04-11T08:03:28Z</time></trkpt><trkpt lat="43.41006575524162" lon="11.46445843134474"><ele>492.3333333333333</ele><time>2026-04-11T08:03:29Z</time></trkpt><trkpt lat="43.40998992711905" lon="11.464460076577094"><ele>492.0</ele><time>2026-04-11T08:03:30Z</time></trkpt><trkpt lat="43.40990330002726" lon="11.464481130185378"><ele>492.0</ele><time>2026-04-11T08:03:31Z</time></trkpt><trkpt lat="43.40982559514486" lon="11.464477252009656"><ele>492.0</ele><time>2026-04-11T08:03:32Z</time></trkpt><trkpt lat="43.40975201853334" lon="11.464467633426453"><ele>492.0</ele><time>2026-04-11T08:03:33Z</time></trkpt><trkpt lat="43.40967899805426" lon="11.464471245364248"><ele>492.0</ele><time>2026-04-11T08:03:34Z</time></trkpt><trkpt lat="43.409606204479076" lon="11.464484945236327"><ele>492.0</ele><time>2026-04-11T08:03:35Z</time></trkpt><trkpt lat="43.40952642768304" lon="11.464501649772254"><ele>492.0</ele><time>2026-04-11T08:03:36Z</time></trkpt><trkpt lat="43.40944978546868" lon="11.464498088799418"><ele>492.1428571428572</ele><time>2026-04-11T08:03:37Z</time></trkpt><trkpt lat="43.409382824680776" lon="11.46450932155538"><ele>492.28571428571433</ele><time>2026-04-11T08:03:38Z</time></trkpt><trkpt lat="43.40931542137233" lon="11.464506199156792"><ele>492.42857142857144</ele><time>2026-04-11T08:03:39Z</time></trkpt><trkpt lat="43.40924541807675" lon="11.464503438858422"><ele>492.5714285714286</ele><time>2026-04-11T08:03:40Z</time></trkpt><trkpt lat="43.40917688946514" lon="11.464515242736814"><ele>492.7142857142858</ele><time>2026-04-11T08:03:41Z</time></trkpt><trkpt lat="43.40911258262763" lon="11.464510803968105"><ele>492.85714285714283</ele><time>2026-04-11T08:03:42Z</time></trkpt><trkpt lat="43.40904823641959" lon="11.464519428023504"><ele>493.0</ele><time>2026-04-11T08:03:43Z</time></trkpt><trkpt lat="43.40898127712513" lon="11.464532254168935"><ele>493.0</ele><time>2026-04-11T08:03:44Z</time></trkpt><trkpt lat="43.40891035398441" lon="11.464537084459637"><ele>493.0</ele><time>2026-04-11T08:03:45Z</time></trkpt><trkpt lat="43.40878862403496" lon="11.464548430979272"><ele>493.0</ele><time>2026-04-11T08:03:47Z</time></trkpt><trkpt lat="43.408664007290895" lon="11.464538075513572"><ele>493.0</ele><time>2026-04-11T08:03:49Z</time></trkpt><trkpt lat="43.40853126675068" lon="11.464519811040997"><ele>492.2</ele><time>2026-04-11T08:03:51Z</time></trkpt><trkpt lat="43.408404358946555" lon="11.464508112285447"><ele>491.4</ele><time>2026-04-11T08:03:53Z</time></trkpt><trkpt lat="43.40833165027067" lon="11.464501958865199"><ele>490.59999999999997</ele><time>2026-04-11T08:03:54Z</time></trkpt><trkpt lat="43.40825338791364" lon="11.464498520152056"><ele>489.79999999999995</ele><time>2026-04-11T08:03:55Z</time></trkpt><trkpt lat="43.40816830900571" lon="11.464510907312286"><ele>489.0</ele><time>2026-04-11T08:03:56Z</time></trkpt><trkpt lat="43.408076049576984" lon="11.464513191220776"><ele>487.0</ele><time>2026-04-11T08:03:57Z</time></trkpt><trkpt lat="43.407981124431565" lon="11.464513669843111"><ele>485.0</ele><time>2026-04-11T08:03:58Z</time></trkpt><trkpt lat="43.40788338840263" lon="11.46452225567979"><ele>483.0</ele><time>2026-04-11T08:03:59Z</time></trkpt><trkpt lat="43.40778221282615" lon="11.46453312475123"><ele>481.0</ele><time>2026-04-11T08:04:00Z</time></trkpt><trkpt lat="43.40768544650576" lon="11.46454151363097"><ele>479.0</ele><time>2026-04-11T08:04:01Z</time></trkpt><trkpt lat="43.40759528521617" lon="11.464560672385275"><ele>478.99999999999994</ele><time>2026-04-11T08:04:02Z</time></trkpt><trkpt lat="43.40750797589841" lon="11.464571672019611"><ele>479.0</ele><time>2026-04-11T08:04:03Z</time></trkpt><trkpt lat="43.40742876086409" lon="11.46458443016293"><ele>479.0</ele><time>2026-04-11T08:04:04Z</time></trkpt><trkpt lat="43.40734477956169" lon="11.46459612047894"><ele>479.0</ele><time>2026-04-11T08:04:05Z</time></trkpt><trkpt lat="43.40727047844337" lon="11.464615650811927"><ele>478.99999999999994</ele><time>2026-04-11T08:04:06Z</time></trkpt><trkpt lat="43.40720074825855" lon="11.464628535771746"><ele>479.0</ele><time>2026-04-11T08:04:07Z</time></trkpt><trkpt lat="43.40713044978825" lon="11.464628682351364"><ele>478.85714285714283</ele><time>2026-04-11T08:04:08Z</time></trkpt><trkpt lat="43.407060535340385" lon="11.464644442379864"><ele>478.7142857142858</ele><time>2026-04-11T08:04:09Z</time></trkpt><trkpt lat="43.40698755009761" lon="11.464647462212158"><ele>478.5714285714286</ele><time>2026-04-11T08:04:10Z</time></trkpt><trkpt lat="43.40691474620381" lon="11.464635231310497"><ele>478.42857142857144</ele><time>2026-04-11T08:04:11Z</time></trkpt><trkpt lat="43.406843653088366" lon="11.464611586394952"><ele>478.28571428571433</ele><time>2026-04-11T08:04:12Z</time></trkpt><trkpt lat="43.40677571459524" lon="11.46457659909106"><ele>478.1428571428572</ele><time>2026-04-11T08:04:13Z</time></trkpt><trkpt lat="43.40670954526638" lon="11.46453992691282"><ele>478.00000000000006</ele><time>2026-04-11T08:04:14Z</time></trkpt><trkpt lat="43.40664522605135" lon="11.464535166459545"><ele>477.0</ele><time>2026-04-11T08:04:15Z</time></trkpt><trkpt lat="43.406526720396606" lon="11.464495450394807"><ele>476.0</ele><time>2026-04-11T08:04:17Z</time></trkpt><trkpt lat="43.40641601803121" lon="11.464453970157205"><ele>475.0</ele><time>2026-04-11T08:04:19Z</time></trkpt><trkpt lat="43.40630185133147" lon="11.464430936092583"><ele>474.0</ele><time>2026-04-11T08:04:21Z</time></trkpt><trkpt lat="43.40619224397668" lon="11.464373386865425"><ele>473.0</ele><time>2026-04-11T08:04:23Z</time></trkpt><trkpt lat="43.406129832476786" lon="11.4643460262398"><ele>472.0</ele><time>2026-04-11T08:04:24Z</time></trkpt><trkpt lat="43.4060135455146" lon="11.464299287543557"><ele>471.0</ele><time>2026-04-11T08:04:26Z</time></trkpt><trkpt lat="43.405953238920716" lon="11.46425918300904"><ele>470.0</ele><time>2026-04-11T08:04:27Z</time></trkpt><trkpt lat="43.405893551642414" lon="11.464218880344779"><ele>469.0</ele><time>2026-04-11T08:04:28Z</time></trkpt><trkpt lat="43.40579485476347" lon="11.464135757195315"><ele>468.0</ele><time>2026-04-11T08:04:30Z</time></trkpt><trkpt lat="43.40573763616675" lon="11.464087680160072"><ele>468.0</ele><time>2026-04-11T08:04:31Z</time></trkpt><trkpt lat="43.405686285719476" lon="11.46403608392183"><ele>468.0</ele><time>2026-04-11T08:04:32Z</time></trkpt><trkpt lat="43.405632264833336" lon="11.463985865569837"><ele>468.0</ele><time>2026-04-11T08:04:33Z</time></trkpt><trkpt lat="43.40553324473216" lon="11.463893562752775"><ele>468.0</ele><time>2026-04-11T08:04:35Z</time></trkpt><trkpt lat="43.40544091758323" lon="11.463794397368263"><ele>468.0</ele><time>2026-04-11T08:04:37Z</time></trkpt><trkpt lat="43.405376274337506" lon="11.463724546483835"><ele>468.0</ele><time>2026-04-11T08:04:38Z</time></trkpt><trkpt lat="43.40531657282809" lon="11.463647906422429"><ele>465.0</ele><time>2026-04-11T08:04:39Z</time></trkpt><trkpt lat="43.405251838972745" lon="11.463573209777673"><ele>461.99999999999994</ele><time>2026-04-11T08:04:40Z</time></trkpt><trkpt lat="43.4051874153953" lon="11.463484836656205"><ele>458.99999999999994</ele><time>2026-04-11T08:04:41Z</time></trkpt><trkpt lat="43.405121923207204" lon="11.463395439656747"><ele>456.0</ele><time>2026-04-11T08:04:42Z</time></trkpt><trkpt lat="43.40505673815666" lon="11.4632977122165"><ele>453.0</ele><time>2026-04-11T08:04:43Z</time></trkpt><trkpt lat="43.40498452855065" lon="11.463202583627758"><ele>453.0</ele><time>2026-04-11T08:04:44Z</time></trkpt><trkpt lat="43.40491958391654" lon="11.463108899495312"><ele>453.0</ele><time>2026-04-11T08:04:45Z</time></trkpt><trkpt lat="43.40486608498987" lon="11.463006885966127"><ele>453.0</ele><time>2026-04-11T08:04:46Z</time></trkpt><trkpt lat="43.404817849363056" lon="11.462907516878829"><ele>453.0</ele><time>2026-04-11T08:04:47Z</time></trkpt><trkpt lat="43.40477718658024" lon="11.462804077299312"><ele>453.0</ele><time>2026-04-11T08:04:48Z</time></trkpt><trkpt lat="43.404738452607404" lon="11.462710042807272"><ele>453.0</ele><time>2026-04-11T08:04:49Z</time></trkpt><trkpt lat="43.404715448005796" lon="11.462605537769008"><ele>453.5</ele><time>2026-04-11T08:04:50Z</time></trkpt><trkpt lat="43.404702301115044" lon="11.462510485296669"><ele>454.0</ele><time>2026-04-11T08:04:51Z</time></trkpt><trkpt lat="43.404694244740845" lon="11.462416249177245"><ele>454.5</ele><time>2026-04-11T08:04:52Z</time></trkpt><trkpt lat="43.4046891485427" lon="11.46232525429802"><ele>455.0</ele><time>2026-04-11T08:04:53Z</time></trkpt><trkpt lat="43.404672711280426" lon="11.462235369733488"><ele>455.5</ele><time>2026-04-11T08:04:54Z</time></trkpt><trkpt lat="43.404651674206804" lon="11.462075217232728"><ele>456.0</ele><time>2026-04-11T08:04:56Z</time></trkpt><trkpt lat="43.40462008621711" lon="11.461909555618236"><ele>456.0</ele><time>2026-04-11T08:04:58Z</time></trkpt><trkpt lat="43.40458609581999" lon="11.461754305527558"><ele>456.0</ele><time>2026-04-11T08:05:00Z</time></trkpt><trkpt lat="43.4045511764622" lon="11.46159584981513"><ele>456.0</ele><time>2026-04-11T08:05:02Z</time></trkpt><trkpt lat="43.40449545210543" lon="11.46145710754502"><ele>456.0</ele><time>2026-04-11T08:05:04Z</time></trkpt><trkpt lat="43.404455752067065" lon="11.46138582910901"><ele>456.0</ele><time>2026-04-11T08:05:05Z</time></trkpt><trkpt lat="43.40438856277443" lon="11.46124094299542"><ele>456.4</ele><time>2026-04-11T08:05:07Z</time></trkpt><trkpt lat="43.40434915829802" lon="11.46116888634555"><ele>456.8</ele><time>2026-04-11T08:05:08Z</time></trkpt><trkpt lat="43.40428540464568" lon="11.46102441264429"><ele>457.19999999999993</ele><time>2026-04-11T08:05:10Z</time></trkpt><trkpt lat="43.404254406722295" lon="11.460945947386723"><ele>457.59999999999997</ele><time>2026-04-11T08:05:11Z</time></trkpt><trkpt lat="43.40418397109268" lon="11.460794642610855"><ele>458.0</ele><time>2026-04-11T08:05:13Z</time></trkpt><trkpt lat="43.40415059955349" lon="11.460713559576881"><ele>458.0</ele><time>2026-04-11T08:05:14Z</time></trkpt><trkpt lat="43.404118574560776" lon="11.460629677844652"><ele>457.99999999999994</ele><time>2026-04-11T08:05:15Z</time></trkpt><trkpt lat="43.4040855729916" lon="11.460458775273512"><ele>457.99999999999994</ele><time>2026-04-11T08:05:17Z</time></trkpt><trkpt lat="43.40408816194581" lon="11.460367818335115"><ele>458.0</ele><time>2026-04-11T08:05:18Z</time></trkpt><trkpt lat="43.40409376281874" lon="11.460280177027169"><ele>458.0</ele><time>2026-04-11T08:05:19Z</time></trkpt><trkpt lat="43.404122869042055" lon="11.460114919185381"><ele>457.5</ele><time>2026-04-11T08:05:21Z</time></trkpt><trkpt lat="43.40414314749019" lon="11.45994855390988"><ele>457.0</ele><time>2026-04-11T08:05:23Z</time></trkpt><trkpt lat="43.40416278409196" lon="11.45978941402924"><ele>456.5</ele><time>2026-04-11T08:05:25Z</time></trkpt><trkpt lat="43.40419092502015" lon="11.45964290027121"><ele>456.0</ele><time>2026-04-11T08:05:27Z</time></trkpt><trkpt lat="43.40424364246898" lon="11.459504209933744"><ele>455.8</ele><time>2026-04-11T08:05:29Z</time></trkpt><trkpt lat="43.40429987212162" lon="11.459375956349037"><ele>455.6</ele><time>2026-04-11T08:05:31Z</time></trkpt><trkpt lat="43.40436865061643" lon="11.459267716472805"><ele>455.4</ele><time>2026-04-11T08:05:33Z</time></trkpt><trkpt lat="43.404414484948255" lon="11.459207478917962"><ele>455.2</ele><time>2026-04-11T08:05:34Z</time></trkpt><trkpt lat="43.40449390915412" lon="11.459093315012678"><ele>455.0</ele><time>2026-04-11T08:05:36Z</time></trkpt><trkpt lat="43.4045626123976" lon="11.458978624233188"><ele>455.0</ele><time>2026-04-11T08:05:38Z</time></trkpt><trkpt lat="43.404639221287745" lon="11.45887077039155"><ele>455.0</ele><time>2026-04-11T08:05:40Z</time></trkpt><trkpt lat="43.40470553741317" lon="11.458770708136054"><ele>455.0</ele><time>2026-04-11T08:05:42Z</time></trkpt><trkpt lat="43.404779547725326" lon="11.458666948710096"><ele>455.0</ele><time>2026-04-11T08:05:44Z</time></trkpt><trkpt lat="43.4048166732853" lon="11.458520590192597"><ele>455.0</ele><time>2026-04-11T08:05:46Z</time></trkpt><trkpt lat="43.40484725502558" lon="11.458362595150927"><ele>454.2</ele><time>2026-04-11T08:05:48Z</time></trkpt><trkpt lat="43.404881094122906" lon="11.458229380747289"><ele>453.4</ele><time>2026-04-11T08:05:50Z</time></trkpt><trkpt lat="43.4049332284301" lon="11.458118730246463"><ele>452.6</ele><time>2026-04-11T08:05:52Z</time></trkpt><trkpt lat="43.405018235277865" lon="11.4580351788708"><ele>451.8</ele><time>2026-04-11T08:05:54Z</time></trkpt><trkpt lat="43.405059285698876" lon="11.457914833177728"><ele>451.0</ele><time>2026-04-11T08:05:56Z</time></trkpt><trkpt lat="43.405056801151204" lon="11.457750465438009"><ele>449.85714285714283</ele><time>2026-04-11T08:05:58Z</time></trkpt><trkpt lat="43.40504941072728" lon="11.45764702542264"><ele>448.7142857142857</ele><time>2026-04-11T08:05:59Z</time></trkpt><trkpt lat="43.40504197105334" lon="11.457554305367484"><ele>447.57142857142856</ele><time>2026-04-11T08:06:00Z</time></trkpt><trkpt lat="43.405030645241844" lon="11.457458806262427"><ele>446.42857142857144</ele><time>2026-04-11T08:06:01Z</time></trkpt><trkpt lat="43.40502263140574" lon="11.457366016601341"><ele>445.28571428571433</ele><time>2026-04-11T08:06:02Z</time></trkpt><trkpt lat="43.405011792069246" lon="11.457275738336875"><ele>444.14285714285717</ele><time>2026-04-11T08:06:03Z</time></trkpt><trkpt lat="43.405003591288164" lon="11.457183839795261"><ele>443.0</ele><time>2026-04-11T08:06:04Z</time></trkpt><trkpt lat="43.404974169115754" lon="11.457016165547099"><ele>441.8333333333333</ele><time>2026-04-11T08:06:06Z</time></trkpt><trkpt lat="43.40495129081945" lon="11.456933220099016"><ele>440.66666666666663</ele><time>2026-04-11T08:06:07Z</time></trkpt><trkpt lat="43.404921135715924" lon="11.456844653714063"><ele>439.5</ele><time>2026-04-11T08:06:08Z</time></trkpt><trkpt lat="43.40489065432641" lon="11.456757563293477"><ele>438.33333333333337</ele><time>2026-04-11T08:06:09Z</time></trkpt><trkpt lat="43.40486199675064" lon="11.456669648612129"><ele>437.1666666666667</ele><time>2026-04-11T08:06:10Z</time></trkpt><trkpt lat="43.40481189483596" lon="11.456528005251558"><ele>436.0</ele><time>2026-04-11T08:06:12Z</time></trkpt><trkpt lat="43.404828934264295" lon="11.456426749167457"><ele>436.00000000000006</ele><time>2026-04-11T08:06:14Z</time></trkpt><trkpt lat="43.4049235632064" lon="11.45633628992808"><ele>436.0</ele><time>2026-04-11T08:06:16Z</time></trkpt><trkpt lat="43.40499042802549" lon="11.45636345706691"><ele>436.0</ele><time>2026-04-11T08:06:17Z</time></trkpt><trkpt lat="43.40505819767895" lon="11.456371462473845"><ele>436.0</ele><time>2026-04-11T08:06:18Z</time></trkpt><trkpt lat="43.405132816626754" lon="11.456379856091889"><ele>436.00000000000006</ele><time>2026-04-11T08:06:19Z</time></trkpt><trkpt lat="43.40520471969208" lon="11.456389662570349"><ele>436.0</ele><time>2026-04-11T08:06:20Z</time></trkpt><trkpt lat="43.4052775481855" lon="11.456399595259514"><ele>436.00000000000006</ele><time>2026-04-11T08:06:21Z</time></trkpt><trkpt lat="43.40534784357972" lon="11.456408726903827"><ele>436.0</ele><time>2026-04-11T08:06:22Z</time></trkpt><trkpt lat="43.40541073931161" lon="11.45639196280041"><ele>436.0</ele><time>2026-04-11T08:06:23Z</time></trkpt><trkpt lat="43.40553213137295" lon="11.456419836446"><ele>436.0</ele><time>2026-04-11T08:06:25Z</time></trkpt><trkpt lat="43.4055962563589" lon="11.456411502269988"><ele>436.00000000000006</ele><time>2026-04-11T08:06:26Z</time></trkpt><trkpt lat="43.405652366035234" lon="11.456355745072768"><ele>436.0</ele><time>2026-04-11T08:06:27Z</time></trkpt><trkpt lat="43.40570862111309" lon="11.456314600552401"><ele>434.33333333333337</ele><time>2026-04-11T08:06:28Z</time></trkpt><trkpt lat="43.4057663530821" lon="11.456261055113085"><ele>432.6666666666667</ele><time>2026-04-11T08:06:29Z</time></trkpt><trkpt lat="43.4058309052506" lon="11.456212733526762"><ele>431.0</ele><time>2026-04-11T08:06:30Z</time></trkpt><trkpt lat="43.40587251071892" lon="11.456125432227408"><ele>429.33333333333337</ele><time>2026-04-11T08:06:31Z</time></trkpt><trkpt lat="43.40592387700047" lon="11.456043730753283"><ele>427.6666666666667</ele><time>2026-04-11T08:06:32Z</time></trkpt><trkpt lat="43.40596887969262" lon="11.455951046244733"><ele>426.0</ele><time>2026-04-11T08:06:33Z</time></trkpt><trkpt lat="43.40600075641438" lon="11.455843845941647"><ele>426.0</ele><time>2026-04-11T08:06:34Z</time></trkpt><trkpt lat="43.40602812391612" lon="11.455729740202834"><ele>426.0</ele><time>2026-04-11T08:06:35Z</time></trkpt><trkpt lat="43.40604743181749" lon="11.455613321932388"><ele>426.0</ele><time>2026-04-11T08:06:36Z</time></trkpt><trkpt lat="43.40606041925842" lon="11.455497178951802"><ele>426.0</ele><time>2026-04-11T08:06:37Z</time></trkpt><trkpt lat="43.40608737629597" lon="11.45538832123918"><ele>426.0</ele><time>2026-04-11T08:06:38Z</time></trkpt><trkpt lat="43.406105400903186" lon="11.455284612176193"><ele>426.0</ele><time>2026-04-11T08:06:39Z</time></trkpt><trkpt lat="43.40612527258103" lon="11.455186063956592"><ele>425.4285714285714</ele><time>2026-04-11T08:06:40Z</time></trkpt><trkpt lat="43.406146974748374" lon="11.45508114829026"><ele>424.85714285714283</ele><time>2026-04-11T08:06:41Z</time></trkpt><trkpt lat="43.40616769498318" lon="11.45498393468114"><ele>424.2857142857143</ele><time>2026-04-11T08:06:42Z</time></trkpt><trkpt lat="43.406190150099484" lon="11.454889428508116"><ele>423.71428571428567</ele><time>2026-04-11T08:06:43Z</time></trkpt><trkpt lat="43.406215640243026" lon="11.454799062387853"><ele>423.14285714285717</ele><time>2026-04-11T08:06:44Z</time></trkpt><trkpt lat="43.406250232793305" lon="11.454716080403173"><ele>422.57142857142856</ele><time>2026-04-11T08:06:45Z</time></trkpt><trkpt lat="43.406297374665165" lon="11.454635045622556"><ele>422.0</ele><time>2026-04-11T08:06:46Z</time></trkpt><trkpt lat="43.40635341934769" lon="11.45455565582393"><ele>420.3333333333333</ele><time>2026-04-11T08:06:47Z</time></trkpt><trkpt lat="43.40640478625237" lon="11.454470945519681"><ele>418.66666666666663</ele><time>2026-04-11T08:06:48Z</time></trkpt><trkpt lat="43.406451858851156" lon="11.454373463800623"><ele>417.0</ele><time>2026-04-11T08:06:49Z</time></trkpt><trkpt lat="43.40648726933364" lon="11.454265838427737"><ele>415.33333333333337</ele><time>2026-04-11T08:06:50Z</time></trkpt><trkpt lat="43.40652048494642" lon="11.454151533510842"><ele>413.6666666666667</ele><time>2026-04-11T08:06:51Z</time></trkpt><trkpt lat="43.4065430676802" lon="11.454035248121864"><ele>412.0</ele><time>2026-04-11T08:06:52Z</time></trkpt><trkpt lat="43.40655971993991" lon="11.45391664903983"><ele>412.00000000000006</ele><time>2026-04-11T08:06:53Z</time></trkpt><trkpt lat="43.4065697527923" lon="11.453801201419083"><ele>412.0</ele><time>2026-04-11T08:06:54Z</time></trkpt><trkpt lat="43.40656650794561" lon="11.453694311521456"><ele>412.0</ele><time>2026-04-11T08:06:55Z</time></trkpt><trkpt lat="43.40654620123521" lon="11.453595735773185"><ele>412.0</ele><time>2026-04-11T08:06:56Z</time></trkpt><trkpt lat="43.40651678977642" lon="11.45350430815493"><ele>412.00000000000006</ele><time>2026-04-11T08:06:57Z</time></trkpt><trkpt lat="43.40649000441957" lon="11.453413231921854"><ele>412.0</ele><time>2026-04-11T08:06:58Z</time></trkpt><trkpt lat="43.406470239944284" lon="11.453312486613086"><ele>412.00000000000006</ele><time>2026-04-11T08:06:59Z</time></trkpt><trkpt lat="43.40645951697307" lon="11.453210691561344"><ele>412.0</ele><time>2026-04-11T08:07:00Z</time></trkpt><trkpt lat="43.4064543750937" lon="11.453106182615235"><ele>412.0</ele><time>2026-04-11T08:07:01Z</time></trkpt><trkpt lat="43.40646027505127" lon="11.453000009138455"><ele>412.0</ele><time>2026-04-11T08:07:02Z</time></trkpt><trkpt lat="43.40647777825418" lon="11.452892683453442"><ele>412.00000000000006</ele><time>2026-04-11T08:07:03Z</time></trkpt><trkpt lat="43.406503100163455" lon="11.452785712838146"><ele>412.0</ele><time>2026-04-11T08:07:04Z</time></trkpt><trkpt lat="43.40651985477926" lon="11.452678048257429"><ele>411.50000000000006</ele><time>2026-04-11T08:07:05Z</time></trkpt><trkpt lat="43.406530002974186" lon="11.452561435173926"><ele>411.0</ele><time>2026-04-11T08:07:06Z</time></trkpt><trkpt lat="43.40653433264267" lon="11.452444018501264"><ele>410.5</ele><time>2026-04-11T08:07:07Z</time></trkpt><trkpt lat="43.40653748444048" lon="11.452329106522207"><ele>410.0</ele><time>2026-04-11T08:07:08Z</time></trkpt><trkpt lat="43.40653378128759" lon="11.452204030223726"><ele>409.50000000000006</ele><time>2026-04-11T08:07:09Z</time></trkpt><trkpt lat="43.406529319319546" lon="11.452079965923483"><ele>409.0</ele><time>2026-04-11T08:07:10Z</time></trkpt><trkpt lat="43.40651339045209" lon="11.451961614590742"><ele>409.33333333333337</ele><time>2026-04-11T08:07:11Z</time></trkpt><trkpt lat="43.4064805931794" lon="11.45184796363547"><ele>409.6666666666667</ele><time>2026-04-11T08:07:12Z</time></trkpt><trkpt lat="43.406437584467035" lon="11.451749585123748"><ele>410.0</ele><time>2026-04-11T08:07:13Z</time></trkpt><trkpt lat="43.406393624926714" lon="11.45166131123918"><ele>410.33333333333337</ele><time>2026-04-11T08:07:14Z</time></trkpt><trkpt lat="43.40634763621937" lon="11.451574392346036"><ele>410.6666666666667</ele><time>2026-04-11T08:07:15Z</time></trkpt><trkpt lat="43.40630529945392" lon="11.451484186976968"><ele>411.0</ele><time>2026-04-11T08:07:16Z</time></trkpt><trkpt lat="43.4062590325137" lon="11.451395005489282"><ele>411.0</ele><time>2026-04-11T08:07:17Z</time></trkpt><trkpt lat="43.406208152034004" lon="11.451309597912333"><ele>411.0</ele><time>2026-04-11T08:07:18Z</time></trkpt><trkpt lat="43.40615857740324" lon="11.451222401996013"><ele>411.0</ele><time>2026-04-11T08:07:19Z</time></trkpt><trkpt lat="43.406110339075376" lon="11.451133121538934"><ele>411.0</ele><time>2026-04-11T08:07:20Z</time></trkpt><trkpt lat="43.40606115963364" lon="11.451049320006693"><ele>411.0</ele><time>2026-04-11T08:07:21Z</time></trkpt><trkpt lat="43.40601966696801" lon="11.45095304604685"><ele>411.0</ele><time>2026-04-11T08:07:22Z</time></trkpt><trkpt lat="43.40598536766888" lon="11.450857995883688"><ele>411.0</ele><time>2026-04-11T08:07:23Z</time></trkpt><trkpt lat="43.40595588006623" lon="11.450759540667287"><ele>411.0</ele><time>2026-04-11T08:07:24Z</time></trkpt><trkpt lat="43.40593152473336" lon="11.450664939027442"><ele>411.0</ele><time>2026-04-11T08:07:25Z</time></trkpt><trkpt lat="43.40591606311904" lon="11.4505623193314"><ele>411.0</ele><time>2026-04-11T08:07:26Z</time></trkpt><trkpt lat="43.40589578200295" lon="11.450461467869673"><ele>411.0</ele><time>2026-04-11T08:07:27Z</time></trkpt><trkpt lat="43.40586425234234" lon="11.45036578967263"><ele>411.0</ele><time>2026-04-11T08:07:28Z</time></trkpt><trkpt lat="43.40583409935777" lon="11.450273481987242"><ele>410.5</ele><time>2026-04-11T08:07:29Z</time></trkpt><trkpt lat="43.40579591771454" lon="11.450181582904731"><ele>410.0</ele><time>2026-04-11T08:07:30Z</time></trkpt><trkpt lat="43.405760235764824" lon="11.450083399816053"><ele>409.5</ele><time>2026-04-11T08:07:31Z</time></trkpt><trkpt lat="43.40572120636809" lon="11.44998529966052"><ele>409.0</ele><time>2026-04-11T08:07:32Z</time></trkpt><trkpt lat="43.40567807537313" lon="11.449892961205968"><ele>408.5</ele><time>2026-04-11T08:07:33Z</time></trkpt><trkpt lat="43.405632634628674" lon="11.449805151665506"><ele>408.0</ele><time>2026-04-11T08:07:34Z</time></trkpt><trkpt lat="43.405584509653195" lon="11.449722941664133"><ele>408.0</ele><time>2026-04-11T08:07:35Z</time></trkpt><trkpt lat="43.405536279862226" lon="11.449634144079525"><ele>408.0</ele><time>2026-04-11T08:07:36Z</time></trkpt><trkpt lat="43.405486371162254" lon="11.449538869081815"><ele>408.0</ele><time>2026-04-11T08:07:37Z</time></trkpt><trkpt lat="43.40543238290049" lon="11.449453110103413"><ele>408.0</ele><time>2026-04-11T08:07:38Z</time></trkpt><trkpt lat="43.405380989810155" lon="11.449373473994243"><ele>408.0</ele><time>2026-04-11T08:07:39Z</time></trkpt><trkpt lat="43.4053285838794" lon="11.44929702320373"><ele>408.0</ele><time>2026-04-11T08:07:40Z</time></trkpt><trkpt lat="43.405276633953264" lon="11.449216407041536"><ele>406.59999999999997</ele><time>2026-04-11T08:07:41Z</time></trkpt><trkpt lat="43.405229982398566" lon="11.449136302291823"><ele>405.2</ele><time>2026-04-11T08:07:42Z</time></trkpt><trkpt lat="43.40518457752686" lon="11.449067480228697"><ele>403.8</ele><time>2026-04-11T08:07:43Z</time></trkpt><trkpt lat="43.405113831383964" lon="11.448945592542369"><ele>402.4</ele><time>2026-04-11T08:07:45Z</time></trkpt><trkpt lat="43.405103171067076" lon="11.448855725621232"><ele>401.0</ele><time>2026-04-11T08:07:46Z</time></trkpt><trkpt lat="43.40505635547277" lon="11.448689542730275"><ele>400.66666666666663</ele><time>2026-04-11T08:07:48Z</time></trkpt><trkpt lat="43.40494892575489" lon="11.448638773137935"><ele>400.3333333333333</ele><time>2026-04-11T08:07:49Z</time></trkpt><trkpt lat="43.40489590445675" lon="11.448564218000561"><ele>400.0</ele><time>2026-04-11T08:07:50Z</time></trkpt><trkpt lat="43.40483716723038" lon="11.44850032577155"><ele>399.66666666666663</ele><time>2026-04-11T08:07:51Z</time></trkpt><trkpt lat="43.404771386596245" lon="11.448444162028599"><ele>399.3333333333333</ele><time>2026-04-11T08:07:52Z</time></trkpt><trkpt lat="43.40470099378959" lon="11.448392372707723"><ele>399.0</ele><time>2026-04-11T08:07:53Z</time></trkpt><trkpt lat="43.404632428754" lon="11.448344845411789"><ele>398.8333333333333</ele><time>2026-04-11T08:07:54Z</time></trkpt><trkpt lat="43.40456340004302" lon="11.448292401238369"><ele>398.66666666666663</ele><time>2026-04-11T08:07:55Z</time></trkpt><trkpt lat="43.40448964966374" lon="11.448234431362309"><ele>398.5</ele><time>2026-04-11T08:07:56Z</time></trkpt><trkpt lat="43.404419669488014" lon="11.448182001687822"><ele>398.3333333333333</ele><time>2026-04-11T08:07:57Z</time></trkpt><trkpt lat="43.40434618300579" lon="11.448130583268956"><ele>398.16666666666663</ele><time>2026-04-11T08:07:58Z</time></trkpt><trkpt lat="43.4042753940493" lon="11.448077565888571"><ele>398.0</ele><time>2026-04-11T08:07:59Z</time></trkpt><trkpt lat="43.40420278575473" lon="11.44802221690944"><ele>397.99999999999994</ele><time>2026-04-11T08:08:00Z</time></trkpt><trkpt lat="43.40413123098818" lon="11.447970181029154"><ele>398.0</ele><time>2026-04-11T08:08:01Z</time></trkpt><trkpt lat="43.404058286625045" lon="11.447917725023089"><ele>398.0</ele><time>2026-04-11T08:08:02Z</time></trkpt><trkpt lat="43.40398501039352" lon="11.447877958226933"><ele>398.0</ele><time>2026-04-11T08:08:03Z</time></trkpt><trkpt lat="43.403908730088695" lon="11.447834540920923"><ele>397.99999999999994</ele><time>2026-04-11T08:08:04Z</time></trkpt><trkpt lat="43.40383167205614" lon="11.447800564201032"><ele>398.0</ele><time>2026-04-11T08:08:05Z</time></trkpt><trkpt lat="43.40375331463409" lon="11.447764659347591"><ele>398.16666666666663</ele><time>2026-04-11T08:08:06Z</time></trkpt><trkpt lat="43.40367301979549" lon="11.447739393722243"><ele>398.3333333333333</ele><time>2026-04-11T08:08:07Z</time></trkpt><trkpt lat="43.40359363884056" lon="11.44770608582983"><ele>398.5</ele><time>2026-04-11T08:08:08Z</time></trkpt><trkpt lat="43.40351629195148" lon="11.447679794014238"><ele>398.66666666666663</ele><time>2026-04-11T08:08:09Z</time></trkpt><trkpt lat="43.40343811868293" lon="11.447641908780573"><ele>398.8333333333333</ele><time>2026-04-11T08:08:10Z</time></trkpt><trkpt lat="43.40335680925925" lon="11.447601033997355"><ele>399.0</ele><time>2026-04-11T08:08:11Z</time></trkpt><trkpt lat="43.403275572290134" lon="11.447556141598344"><ele>399.0</ele><time>2026-04-11T08:08:12Z</time></trkpt><trkpt lat="43.4031983066415" lon="11.447514713688157"><ele>399.0</ele><time>2026-04-11T08:08:13Z</time></trkpt><trkpt lat="43.403122980704524" lon="11.447470766512772"><ele>399.0</ele><time>2026-04-11T08:08:14Z</time></trkpt><trkpt lat="43.40304365876823" lon="11.44742850767883"><ele>399.0</ele><time>2026-04-11T08:08:15Z</time></trkpt><trkpt lat="43.4029691547442" lon="11.447374786702612"><ele>399.0</ele><time>2026-04-11T08:08:16Z</time></trkpt><trkpt lat="43.40289219486084" lon="11.447327965759806"><ele>399.0</ele><time>2026-04-11T08:08:17Z</time></trkpt><trkpt lat="43.40281551896358" lon="11.44728944650532"><ele>399.0</ele><time>2026-04-11T08:08:18Z</time></trkpt><trkpt lat="43.402741286017495" lon="11.447246784307344"><ele>399.0</ele><time>2026-04-11T08:08:19Z</time></trkpt><trkpt lat="43.402665675442165" lon="11.447202638931266"><ele>399.0</ele><time>2026-04-11T08:08:20Z</time></trkpt><trkpt lat="43.402591112651926" lon="11.447154744615707"><ele>399.0</ele><time>2026-04-11T08:08:21Z</time></trkpt><trkpt lat="43.402510844334735" lon="11.447106466099445"><ele>399.0</ele><time>2026-04-11T08:08:22Z</time></trkpt><trkpt lat="43.40243273915697" lon="11.447066069367725"><ele>399.0</ele><time>2026-04-11T08:08:23Z</time></trkpt><trkpt lat="43.402351480346965" lon="11.447017845252835"><ele>399.0</ele><time>2026-04-11T08:08:24Z</time></trkpt><trkpt lat="43.40227103359036" lon="11.446963393510552"><ele>399.0</ele><time>2026-04-11T08:08:25Z</time></trkpt><trkpt lat="43.40219853171417" lon="11.446914635854185"><ele>399.0</ele><time>2026-04-11T08:08:26Z</time></trkpt><trkpt lat="43.40212691275186" lon="11.446856335952711"><ele>399.0</ele><time>2026-04-11T08:08:27Z</time></trkpt><trkpt lat="43.40205279927055" lon="11.44679585958935"><ele>399.0</ele><time>2026-04-11T08:08:28Z</time></trkpt><trkpt lat="43.40197696054343" lon="11.44673731396265"><ele>399.0</ele><time>2026-04-11T08:08:29Z</time></trkpt><trkpt lat="43.401901682049" lon="11.446667343281094"><ele>397.2</ele><time>2026-04-11T08:08:30Z</time></trkpt><trkpt lat="43.401831975623026" lon="11.446594925127085"><ele>395.4</ele><time>2026-04-11T08:08:31Z</time></trkpt><trkpt lat="43.40176400450052" lon="11.44651059671696"><ele>393.6</ele><time>2026-04-11T08:08:32Z</time></trkpt><trkpt lat="43.401694159745134" lon="11.446421415194777"><ele>391.8</ele><time>2026-04-11T08:08:33Z</time></trkpt><trkpt lat="43.40162369763534" lon="11.446328585988832"><ele>390.0</ele><time>2026-04-11T08:08:34Z</time></trkpt><trkpt lat="43.401549350850225" lon="11.44624390196347"><ele>390.0</ele><time>2026-04-11T08:08:35Z</time></trkpt><trkpt lat="43.40147494991629" lon="11.446151694474045"><ele>390.0</ele><time>2026-04-11T08:08:36Z</time></trkpt><trkpt lat="43.40140128334941" lon="11.446059046652284"><ele>390.0</ele><time>2026-04-11T08:08:37Z</time></trkpt><trkpt lat="43.40133157567644" lon="11.445958538776573"><ele>390.0</ele><time>2026-04-11T08:08:38Z</time></trkpt><trkpt lat="43.401266182671755" lon="11.44584829740327"><ele>390.0</ele><time>2026-04-11T08:08:39Z</time></trkpt><trkpt lat="43.40120311097071" lon="11.445737599724067"><ele>388.6</ele><time>2026-04-11T08:08:40Z</time></trkpt><trkpt lat="43.40114057219148" lon="11.44563037551058"><ele>387.2</ele><time>2026-04-11T08:08:41Z</time></trkpt><trkpt lat="43.40107896369299" lon="11.445524049583543"><ele>385.79999999999995</ele><time>2026-04-11T08:08:42Z</time></trkpt><trkpt lat="43.401020755664774" lon="11.445413559450033"><ele>384.4</ele><time>2026-04-11T08:08:43Z</time></trkpt><trkpt lat="43.40095824420799" lon="11.44530703711674"><ele>383.0</ele><time>2026-04-11T08:08:44Z</time></trkpt><trkpt lat="43.40088815627482" lon="11.445208151522388"><ele>382.79999999999995</ele><time>2026-04-11T08:08:45Z</time></trkpt><trkpt lat="43.40081081361163" lon="11.445111398458467"><ele>382.6</ele><time>2026-04-11T08:08:46Z</time></trkpt><trkpt lat="43.40073264098139" lon="11.445018581679987"><ele>382.4</ele><time>2026-04-11T08:08:47Z</time></trkpt><trkpt lat="43.40065274277947" lon="11.444922564898263"><ele>382.20000000000005</ele><time>2026-04-11T08:08:48Z</time></trkpt><trkpt lat="43.40057794359627" lon="11.444823075374"><ele>382.0</ele><time>2026-04-11T08:08:49Z</time></trkpt><trkpt lat="43.40050164945208" lon="11.444715738945096"><ele>381.0</ele><time>2026-04-11T08:08:50Z</time></trkpt><trkpt lat="43.4004211641486" lon="11.444616301023302"><ele>380.0</ele><time>2026-04-11T08:08:51Z</time></trkpt><trkpt lat="43.400341258732674" lon="11.444509346113197"><ele>379.0</ele><time>2026-04-11T08:08:52Z</time></trkpt><trkpt lat="43.40026303993615" lon="11.444402323232813"><ele>378.0</ele><time>2026-04-11T08:08:53Z</time></trkpt><trkpt lat="43.40018301765743" lon="11.444297448945662"><ele>377.0</ele><time>2026-04-11T08:08:54Z</time></trkpt><trkpt lat="43.40010316804095" lon="11.444192844319899"><ele>377.0</ele><time>2026-04-11T08:08:55Z</time></trkpt><trkpt lat="43.40002864818294" lon="11.444090917845376"><ele>377.0</ele><time>2026-04-11T08:08:56Z</time></trkpt><trkpt lat="43.39995149859055" lon="11.443998778116594"><ele>377.0</ele><time>2026-04-11T08:08:57Z</time></trkpt><trkpt lat="43.399877408804954" lon="11.443905491216052"><ele>377.0</ele><time>2026-04-11T08:08:58Z</time></trkpt><trkpt lat="43.39980187590119" lon="11.443814412428088"><ele>377.0</ele><time>2026-04-11T08:08:59Z</time></trkpt><trkpt lat="43.399726874762884" lon="11.443733505668618"><ele>376.83333333333337</ele><time>2026-04-11T08:09:00Z</time></trkpt><trkpt lat="43.39964108917306" lon="11.443677692549176"><ele>376.6666666666667</ele><time>2026-04-11T08:09:01Z</time></trkpt><trkpt lat="43.39955334982163" lon="11.44364312079056"><ele>376.5</ele><time>2026-04-11T08:09:02Z</time></trkpt><trkpt lat="43.39947359742312" lon="11.44361461733604"><ele>376.3333333333333</ele><time>2026-04-11T08:09:03Z</time></trkpt><trkpt lat="43.399398155924004" lon="11.443575313117147"><ele>376.16666666666663</ele><time>2026-04-11T08:09:04Z</time></trkpt><trkpt lat="43.39932375351286" lon="11.443540992649574"><ele>376.0</ele><time>2026-04-11T08:09:05Z</time></trkpt><trkpt lat="43.39925264212705" lon="11.443508412279279"><ele>376.0</ele><time>2026-04-11T08:09:06Z</time></trkpt><trkpt lat="43.39918224636147" lon="11.443476920116314"><ele>376.0</ele><time>2026-04-11T08:09:07Z</time></trkpt><trkpt lat="43.39910856345118" lon="11.443460669277888"><ele>376.0</ele><time>2026-04-11T08:09:08Z</time></trkpt><trkpt lat="43.39904030786147" lon="11.443449051535985"><ele>376.0</ele><time>2026-04-11T08:09:09Z</time></trkpt><trkpt lat="43.39897088715729" lon="11.443439123832865"><ele>376.0</ele><time>2026-04-11T08:09:10Z</time></trkpt><trkpt lat="43.398900261996474" lon="11.443435958190543"><ele>376.0</ele><time>2026-04-11T08:09:11Z</time></trkpt><trkpt lat="43.398827970993715" lon="11.443449221219703"><ele>376.0</ele><time>2026-04-11T08:09:12Z</time></trkpt><trkpt lat="43.398763320989" lon="11.4434719797642"><ele>376.0</ele><time>2026-04-11T08:09:13Z</time></trkpt><trkpt lat="43.39869260312835" lon="11.443481728491632"><ele>376.0</ele><time>2026-04-11T08:09:14Z</time></trkpt><trkpt lat="43.39862188959671" lon="11.443491586995549"><ele>376.0</ele><time>2026-04-11T08:09:15Z</time></trkpt><trkpt lat="43.39854540341664" lon="11.443506899226891"><ele>376.0</ele><time>2026-04-11T08:09:16Z</time></trkpt><trkpt lat="43.39846977587444" lon="11.443522684300559"><ele>376.0</ele><time>2026-04-11T08:09:17Z</time></trkpt><trkpt lat="43.39839243266626" lon="11.44353463123086"><ele>376.0</ele><time>2026-04-11T08:09:18Z</time></trkpt><trkpt lat="43.39831730250428" lon="11.443550944079115"><ele>376.0</ele><time>2026-04-11T08:09:19Z</time></trkpt><trkpt lat="43.39824171071627" lon="11.443566779466675"><ele>376.0</ele><time>2026-04-11T08:09:20Z</time></trkpt><trkpt lat="43.39816666106853" lon="11.443582027976918"><ele>376.0</ele><time>2026-04-11T08:09:21Z</time></trkpt><trkpt lat="43.39809304072401" lon="11.443599056425558"><ele>376.0</ele><time>2026-04-11T08:09:22Z</time></trkpt><trkpt lat="43.39801793111309" lon="11.443611780690775"><ele>376.0</ele><time>2026-04-11T08:09:23Z</time></trkpt><trkpt lat="43.39794084478713" lon="11.443625286137522"><ele>376.0</ele><time>2026-04-11T08:09:24Z</time></trkpt><trkpt lat="43.39786206556039" lon="11.443632261593807"><ele>375.5</ele><time>2026-04-11T08:09:25Z</time></trkpt><trkpt lat="43.39778567998518" lon="11.443610662667208"><ele>375.0</ele><time>2026-04-11T08:09:26Z</time></trkpt><trkpt lat="43.39771263553996" lon="11.443561944082912"><ele>374.5</ele><time>2026-04-11T08:09:27Z</time></trkpt><trkpt lat="43.39763676993055" lon="11.443522495463704"><ele>374.0</ele><time>2026-04-11T08:09:28Z</time></trkpt><trkpt lat="43.39755783369548" lon="11.443489594922728"><ele>373.5</ele><time>2026-04-11T08:09:29Z</time></trkpt><trkpt lat="43.397479931996294" lon="11.443467013409109"><ele>373.0</ele><time>2026-04-11T08:09:30Z</time></trkpt><trkpt lat="43.39740334536176" lon="11.443444111478822"><ele>373.0</ele><time>2026-04-11T08:09:31Z</time></trkpt><trkpt lat="43.39732237209227" lon="11.443408522435224"><ele>373.0</ele><time>2026-04-11T08:09:32Z</time></trkpt><trkpt lat="43.39723904409241" lon="11.443380547005356"><ele>373.0</ele><time>2026-04-11T08:09:33Z</time></trkpt><trkpt lat="43.39715392650325" lon="11.443346452390633"><ele>373.0</ele><time>2026-04-11T08:09:34Z</time></trkpt><trkpt lat="43.397061084198114" lon="11.44331549428674"><ele>373.0</ele><time>2026-04-11T08:09:35Z</time></trkpt><trkpt lat="43.39696775632183" lon="11.443278914602704"><ele>372.59999999999997</ele><time>2026-04-11T08:09:36Z</time></trkpt><trkpt lat="43.39687392311202" lon="11.443238158264165"><ele>372.2</ele><time>2026-04-11T08:09:37Z</time></trkpt><trkpt lat="43.3967789067917" lon="11.443205235101686"><ele>371.8</ele><time>2026-04-11T08:09:38Z</time></trkpt><trkpt lat="43.39668738214055" lon="11.443171286425741"><ele>371.4</ele><time>2026-04-11T08:09:39Z</time></trkpt><trkpt lat="43.396594763492686" lon="11.443127817876714"><ele>371.0</ele><time>2026-04-11T08:09:40Z</time></trkpt><trkpt lat="43.396503421096284" lon="11.443090313164394"><ele>371.0</ele><time>2026-04-11T08:09:41Z</time></trkpt><trkpt lat="43.39641708653994" lon="11.443057701306508"><ele>371.0</ele><time>2026-04-11T08:09:42Z</time></trkpt><trkpt lat="43.39632743768441" lon="11.443022212618045"><ele>371.0</ele><time>2026-04-11T08:09:43Z</time></trkpt><trkpt lat="43.396239436162425" lon="11.442988712811673"><ele>371.0</ele><time>2026-04-11T08:09:44Z</time></trkpt><trkpt lat="43.396150384582704" lon="11.442952064518177"><ele>371.0</ele><time>2026-04-11T08:09:45Z</time></trkpt><trkpt lat="43.39606176383429" lon="11.442919665807468"><ele>370.20000000000005</ele><time>2026-04-11T08:09:46Z</time></trkpt><trkpt lat="43.39597071043273" lon="11.442883039258195"><ele>369.40000000000003</ele><time>2026-04-11T08:09:47Z</time></trkpt><trkpt lat="43.39588116492119" lon="11.442846485808703"><ele>368.6</ele><time>2026-04-11T08:09:48Z</time></trkpt><trkpt lat="43.39578833705284" lon="11.442809704558774"><ele>367.8</ele><time>2026-04-11T08:09:49Z</time></trkpt><trkpt lat="43.395697030077386" lon="11.442775040005149"><ele>367.0</ele><time>2026-04-11T08:09:50Z</time></trkpt><trkpt lat="43.395605825835716" lon="11.442737246065638"><ele>367.0</ele><time>2026-04-11T08:09:51Z</time></trkpt><trkpt lat="43.395515150522186" lon="11.44270733264488"><ele>367.0</ele><time>2026-04-11T08:09:52Z</time></trkpt><trkpt lat="43.395421969528584" lon="11.44267649919469"><ele>367.0</ele><time>2026-04-11T08:09:53Z</time></trkpt><trkpt lat="43.395329082760384" lon="11.442659463503775"><ele>367.0</ele><time>2026-04-11T08:09:54Z</time></trkpt><trkpt lat="43.395242820402196" lon="11.442649800143142"><ele>367.0</ele><time>2026-04-11T08:09:55Z</time></trkpt><trkpt lat="43.395157084638534" lon="11.44264636291217"><ele>367.16666666666663</ele><time>2026-04-11T08:09:56Z</time></trkpt><trkpt lat="43.39507340109462" lon="11.442645331615575"><ele>367.3333333333333</ele><time>2026-04-11T08:09:57Z</time></trkpt><trkpt lat="43.39499042619856" lon="11.44265609993496"><ele>367.5</ele><time>2026-04-11T08:09:58Z</time></trkpt><trkpt lat="43.394911072671356" lon="11.442661621516752"><ele>367.6666666666667</ele><time>2026-04-11T08:09:59Z</time></trkpt><trkpt lat="43.394840180169076" lon="11.442673400436815"><ele>367.83333333333337</ele><time>2026-04-11T08:10:00Z</time></trkpt><trkpt lat="43.394776625502864" lon="11.442683130924676"><ele>368.0</ele><time>2026-04-11T08:10:01Z</time></trkpt><trkpt lat="43.394709008378946" lon="11.44268742418155"><ele>368.0</ele><time>2026-04-11T08:10:02Z</time></trkpt><trkpt lat="43.39458668373886" lon="11.44268666220365"><ele>368.0</ele><time>2026-04-11T08:10:04Z</time></trkpt><trkpt lat="43.394477856574795" lon="11.442664843004106"><ele>368.0</ele><time>2026-04-11T08:10:06Z</time></trkpt><trkpt lat="43.394374098952305" lon="11.442656590055137"><ele>368.0</ele><time>2026-04-11T08:10:08Z</time></trkpt><trkpt lat="43.39426449981218" lon="11.44265111784862"><ele>368.0</ele><time>2026-04-11T08:10:10Z</time></trkpt><trkpt lat="43.39414014427782" lon="11.442637646409137"><ele>368.0</ele><time>2026-04-11T08:10:12Z</time></trkpt><trkpt lat="43.39407595314999" lon="11.442623749507112"><ele>368.0</ele><time>2026-04-11T08:10:13Z</time></trkpt><trkpt lat="43.394008343269554" lon="11.442615758058102"><ele>368.0</ele><time>2026-04-11T08:10:14Z</time></trkpt><trkpt lat="43.39393559115077" lon="11.442607095706643"><ele>368.0</ele><time>2026-04-11T08:10:15Z</time></trkpt><trkpt lat="43.39386448237703" lon="11.442601071923042"><ele>368.0</ele><time>2026-04-11T08:10:16Z</time></trkpt><trkpt lat="43.3937951998297" lon="11.442586942627363"><ele>368.0</ele><time>2026-04-11T08:10:17Z</time></trkpt><trkpt lat="43.39372735891144" lon="11.442579216580807"><ele>368.0</ele><time>2026-04-11T08:10:18Z</time></trkpt><trkpt lat="43.39365765947115" lon="11.44256490005451"><ele>368.0</ele><time>2026-04-11T08:10:19Z</time></trkpt><trkpt lat="43.393584877162226" lon="11.442540733241493"><ele>368.0</ele><time>2026-04-11T08:10:20Z</time></trkpt><trkpt lat="43.3935151847162" lon="11.442516741251666"><ele>368.0</ele><time>2026-04-11T08:10:21Z</time></trkpt><trkpt lat="43.39345147925876" lon="11.442486633767228"><ele>368.0</ele><time>2026-04-11T08:10:22Z</time></trkpt><trkpt lat="43.39338930738626" lon="11.44245472907035"><ele>368.0</ele><time>2026-04-11T08:10:23Z</time></trkpt><trkpt lat="43.39332837995659" lon="11.442420236892293"><ele>368.0</ele><time>2026-04-11T08:10:24Z</time></trkpt><trkpt lat="43.39326530657252" lon="11.442386962848154"><ele>368.0</ele><time>2026-04-11T08:10:25Z</time></trkpt><trkpt lat="43.39320022646414" lon="11.442354331841457"><ele>368.0</ele><time>2026-04-11T08:10:26Z</time></trkpt><trkpt lat="43.39313297466813" lon="11.442327811705676"><ele>368.0</ele><time>2026-04-11T08:10:27Z</time></trkpt><trkpt lat="43.393064049321055" lon="11.442315055716069"><ele>368.0</ele><time>2026-04-11T08:10:28Z</time></trkpt><trkpt lat="43.39299756437292" lon="11.442299023647047"><ele>368.0</ele><time>2026-04-11T08:10:29Z</time></trkpt><trkpt lat="43.392929202125" lon="11.442294377615411"><ele>368.0</ele><time>2026-04-11T08:10:30Z</time></trkpt><trkpt lat="43.39280559405437" lon="11.442296897446969"><ele>368.0</ele><time>2026-04-11T08:10:32Z</time></trkpt><trkpt lat="43.392684980459784" lon="11.442312848585233"><ele>368.25</ele><time>2026-04-11T08:10:34Z</time></trkpt><trkpt lat="43.39256639482465" lon="11.442336558039582"><ele>368.5</ele><time>2026-04-11T08:10:36Z</time></trkpt><trkpt lat="43.39245150893343" lon="11.442381477148587"><ele>368.75</ele><time>2026-04-11T08:10:38Z</time></trkpt><trkpt lat="43.392336126514586" lon="11.442436730627394"><ele>369.0</ele><time>2026-04-11T08:10:40Z</time></trkpt><trkpt lat="43.392220844275954" lon="11.442505596153106"><ele>368.4</ele><time>2026-04-11T08:10:42Z</time></trkpt><trkpt lat="43.39210046653702" lon="11.442566621216109"><ele>367.79999999999995</ele><time>2026-04-11T08:10:44Z</time></trkpt><trkpt lat="43.392043181579815" lon="11.44260716753386"><ele>367.20000000000005</ele><time>2026-04-11T08:10:45Z</time></trkpt><trkpt lat="43.39193383842767" lon="11.442696787757672"><ele>366.6</ele><time>2026-04-11T08:10:47Z</time></trkpt><trkpt lat="43.391875643786896" lon="11.442738856015142"><ele>366.0</ele><time>2026-04-11T08:10:48Z</time></trkpt><trkpt lat="43.391760527568294" lon="11.442788509960655"><ele>366.0</ele><time>2026-04-11T08:10:50Z</time></trkpt><trkpt lat="43.39169816775604" lon="11.442807452927916"><ele>366.0</ele><time>2026-04-11T08:10:51Z</time></trkpt><trkpt lat="43.39158020714515" lon="11.442830151750519"><ele>366.0</ele><time>2026-04-11T08:10:53Z</time></trkpt><trkpt lat="43.391466977278625" lon="11.44283227865009"><ele>366.0</ele><time>2026-04-11T08:10:55Z</time></trkpt><trkpt lat="43.39136493108907" lon="11.442838462870256"><ele>366.0</ele><time>2026-04-11T08:10:57Z</time></trkpt><trkpt lat="43.39125875746599" lon="11.442824694562978"><ele>366.4</ele><time>2026-04-11T08:10:59Z</time></trkpt><trkpt lat="43.39118362586198" lon="11.442866076001353"><ele>366.8</ele><time>2026-04-11T08:11:03Z</time></trkpt><trkpt lat="43.39108986463025" lon="11.442857020544514"><ele>367.2</ele><time>2026-04-11T08:11:06Z</time></trkpt><trkpt lat="43.391004906481456" lon="11.442873696146963"><ele>367.59999999999997</ele><time>2026-04-11T08:11:09Z</time></trkpt><trkpt lat="43.39092929339714" lon="11.44289050749506"><ele>368.0</ele><time>2026-04-11T08:11:11Z</time></trkpt><trkpt lat="43.39079205861519" lon="11.442927778129695"><ele>368.0</ele><time>2026-04-11T08:11:13Z</time></trkpt><trkpt lat="43.39069588775298" lon="11.442919764005241"><ele>368.0</ele><time>2026-04-11T08:11:14Z</time></trkpt><trkpt lat="43.390618480876974" lon="11.442917355336348"><ele>368.0</ele><time>2026-04-11T08:11:15Z</time></trkpt><trkpt lat="43.39054306274851" lon="11.442911313896756"><ele>368.0</ele><time>2026-04-11T08:11:16Z</time></trkpt><trkpt lat="43.39046869548911" lon="11.442899683263501"><ele>368.0</ele><time>2026-04-11T08:11:17Z</time></trkpt><trkpt lat="43.3903869086481" lon="11.4428901906202"><ele>368.0</ele><time>2026-04-11T08:11:18Z</time></trkpt><trkpt lat="43.39030922990738" lon="11.442871561188092"><ele>367.4</ele><time>2026-04-11T08:11:19Z</time></trkpt><trkpt lat="43.39023759366863" lon="11.442883104316925"><ele>366.79999999999995</ele><time>2026-04-11T08:11:20Z</time></trkpt><trkpt lat="43.390156573500505" lon="11.4428709026893"><ele>366.2</ele><time>2026-04-11T08:11:21Z</time></trkpt><trkpt lat="43.390009864687954" lon="11.442887100961139"><ele>365.6</ele><time>2026-04-11T08:11:22Z</time></trkpt><trkpt lat="43.389894301476126" lon="11.44280195992921"><ele>365.0</ele><time>2026-04-11T08:11:23Z</time></trkpt><trkpt lat="43.389800727765284" lon="11.442663424868382"><ele>365.0</ele><time>2026-04-11T08:11:24Z</time></trkpt><trkpt lat="43.38975245877731" lon="11.442557962358157"><ele>365.0</ele><time>2026-04-11T08:11:25Z</time></trkpt><trkpt lat="43.38971016193377" lon="11.442456047452113"><ele>365.0</ele><time>2026-04-11T08:11:26Z</time></trkpt><trkpt lat="43.389670509391266" lon="11.442362430396972"><ele>365.0</ele><time>2026-04-11T08:11:27Z</time></trkpt><trkpt lat="43.38962797665341" lon="11.442271676807474"><ele>365.0</ele><time>2026-04-11T08:11:28Z</time></trkpt><trkpt lat="43.38958497160063" lon="11.442191643403362"><ele>365.0</ele><time>2026-04-11T08:11:29Z</time></trkpt><trkpt lat="43.389532387582555" lon="11.442104204410924"><ele>363.4</ele><time>2026-04-11T08:11:30Z</time></trkpt><trkpt lat="43.38947417691242" lon="11.442008802229227"><ele>361.8</ele><time>2026-04-11T08:11:31Z</time></trkpt><trkpt lat="43.38941898849652" lon="11.441918353437572"><ele>360.20000000000005</ele><time>2026-04-11T08:11:32Z</time></trkpt><trkpt lat="43.38936292570333" lon="11.441826473040193"><ele>358.6</ele><time>2026-04-11T08:11:33Z</time></trkpt><trkpt lat="43.389298754931374" lon="11.441721303326181"><ele>357.0</ele><time>2026-04-11T08:11:34Z</time></trkpt><trkpt lat="43.389237436012294" lon="11.441620807464922"><ele>357.0</ele><time>2026-04-11T08:11:35Z</time></trkpt><trkpt lat="43.38917979646729" lon="11.441530979599477"><ele>357.0</ele><time>2026-04-11T08:11:36Z</time></trkpt><trkpt lat="43.38911914019984" lon="11.44144268152631"><ele>357.0</ele><time>2026-04-11T08:11:37Z</time></trkpt><trkpt lat="43.38905596142354" lon="11.441351124966003"><ele>357.0</ele><time>2026-04-11T08:11:38Z</time></trkpt><trkpt lat="43.38898870250436" lon="11.441254388419903"><ele>357.0</ele><time>2026-04-11T08:11:39Z</time></trkpt><trkpt lat="43.38892413984321" lon="11.441161530618457"><ele>356.40000000000003</ele><time>2026-04-11T08:11:40Z</time></trkpt><trkpt lat="43.38885587106152" lon="11.4410649130643"><ele>355.8</ele><time>2026-04-11T08:11:41Z</time></trkpt><trkpt lat="43.38878624685354" lon="11.440974113361007"><ele>355.2</ele><time>2026-04-11T08:11:42Z</time></trkpt><trkpt lat="43.388707523129845" lon="11.440877213067722"><ele>354.6</ele><time>2026-04-11T08:11:43Z</time></trkpt><trkpt lat="43.38862797082482" lon="11.440785012071293"><ele>354.0</ele><time>2026-04-11T08:11:44Z</time></trkpt><trkpt lat="43.38854464741881" lon="11.44069296679465"><ele>354.0</ele><time>2026-04-11T08:11:45Z</time></trkpt><trkpt lat="43.38847394720037" lon="11.440589890835621"><ele>354.0</ele><time>2026-04-11T08:11:46Z</time></trkpt><trkpt lat="43.38839687096405" lon="11.440497279359942"><ele>354.0</ele><time>2026-04-11T08:11:47Z</time></trkpt><trkpt lat="43.38831624853998" lon="11.440410025410719"><ele>354.0</ele><time>2026-04-11T08:11:48Z</time></trkpt><trkpt lat="43.38824425368997" lon="11.440289619322602"><ele>354.0</ele><time>2026-04-11T08:11:49Z</time></trkpt><trkpt lat="43.3881659026868" lon="11.440181660717485"><ele>352.0</ele><time>2026-04-11T08:11:50Z</time></trkpt><trkpt lat="43.388087890273745" lon="11.440074117941592"><ele>350.0</ele><time>2026-04-11T08:11:51Z</time></trkpt><trkpt lat="43.38801274565453" lon="11.439962357919537"><ele>348.0</ele><time>2026-04-11T08:11:52Z</time></trkpt><trkpt lat="43.38794042451929" lon="11.43983727352011"><ele>346.0</ele><time>2026-04-11T08:11:53Z</time></trkpt><trkpt lat="43.387872952422995" lon="11.439704402435087"><ele>345.0</ele><time>2026-04-11T08:11:54Z</time></trkpt><trkpt lat="43.38780246106529" lon="11.439571731526199"><ele>344.0</ele><time>2026-04-11T08:11:55Z</time></trkpt><trkpt lat="43.38772803530666" lon="11.439439222986625"><ele>343.0</ele><time>2026-04-11T08:11:56Z</time></trkpt><trkpt lat="43.3876516264758" lon="11.439306743925421"><ele>342.0</ele><time>2026-04-11T08:11:57Z</time></trkpt><trkpt lat="43.38757073835266" lon="11.43917740669186"><ele>342.0</ele><time>2026-04-11T08:11:58Z</time></trkpt><trkpt lat="43.38748796645638" lon="11.43905608034817"><ele>342.0</ele><time>2026-04-11T08:11:59Z</time></trkpt><trkpt lat="43.387408668789234" lon="11.43893804882885"><ele>342.0</ele><time>2026-04-11T08:12:00Z</time></trkpt><trkpt lat="43.38733882097182" lon="11.43881647073917"><ele>342.0</ele><time>2026-04-11T08:12:01Z</time></trkpt><trkpt lat="43.387269787669986" lon="11.438700719197877"><ele>342.20000000000005</ele><time>2026-04-11T08:12:02Z</time></trkpt><trkpt lat="43.3872093078084" lon="11.438580460158697"><ele>342.4</ele><time>2026-04-11T08:12:03Z</time></trkpt><trkpt lat="43.38715637314713" lon="11.438459630603681"><ele>342.6</ele><time>2026-04-11T08:12:04Z</time></trkpt><trkpt lat="43.387115905917625" lon="11.438332560214215"><ele>342.79999999999995</ele><time>2026-04-11T08:12:05Z</time></trkpt><trkpt lat="43.38708405372392" lon="11.438205606477931"><ele>343.0</ele><time>2026-04-11T08:12:06Z</time></trkpt><trkpt lat="43.387052380035314" lon="11.438080483470761"><ele>343.2</ele><time>2026-04-11T08:12:07Z</time></trkpt><trkpt lat="43.38702166412997" lon="11.437956182202747"><ele>343.4</ele><time>2026-04-11T08:12:08Z</time></trkpt><trkpt lat="43.38699271135722" lon="11.437836149320221"><ele>343.59999999999997</ele><time>2026-04-11T08:12:09Z</time></trkpt><trkpt lat="43.38696253428036" lon="11.437719913721816"><ele>343.79999999999995</ele><time>2026-04-11T08:12:10Z</time></trkpt><trkpt lat="43.386930345622595" lon="11.437606111913789"><ele>344.0</ele><time>2026-04-11T08:12:11Z</time></trkpt><trkpt lat="43.38689901636579" lon="11.437498100826645"><ele>344.0</ele><time>2026-04-11T08:12:12Z</time></trkpt><trkpt lat="43.386867508452305" lon="11.437393058985277"><ele>344.0</ele><time>2026-04-11T08:12:13Z</time></trkpt><trkpt lat="43.38683545552761" lon="11.437286471951131"><ele>344.0</ele><time>2026-04-11T08:12:14Z</time></trkpt><trkpt lat="43.3868060564357" lon="11.437184241240281"><ele>344.0</ele><time>2026-04-11T08:12:15Z</time></trkpt><trkpt lat="43.386766044459975" lon="11.43708780049053"><ele>344.0</ele><time>2026-04-11T08:12:16Z</time></trkpt><trkpt lat="43.386717921566415" lon="11.43699703749702"><ele>344.0</ele><time>2026-04-11T08:12:17Z</time></trkpt><trkpt lat="43.386664665114516" lon="11.436913455468881"><ele>343.1666666666667</ele><time>2026-04-11T08:12:18Z</time></trkpt><trkpt lat="43.386600009384516" lon="11.436844271394321"><ele>342.33333333333337</ele><time>2026-04-11T08:12:19Z</time></trkpt><trkpt lat="43.38653649220534" lon="11.436777679714389"><ele>341.5</ele><time>2026-04-11T08:12:20Z</time></trkpt><trkpt lat="43.38647354687051" lon="11.43671068466892"><ele>340.6666666666667</ele><time>2026-04-11T08:12:21Z</time></trkpt><trkpt lat="43.38641458789006" lon="11.436644852433705"><ele>339.8333333333333</ele><time>2026-04-11T08:12:22Z</time></trkpt><trkpt lat="43.38635353319325" lon="11.43657215054428"><ele>339.0</ele><time>2026-04-11T08:12:23Z</time></trkpt><trkpt lat="43.38628965413357" lon="11.436499904725213"><ele>339.0</ele><time>2026-04-11T08:12:24Z</time></trkpt><trkpt lat="43.38622470267854" lon="11.436426470613936"><ele>339.0</ele><time>2026-04-11T08:12:25Z</time></trkpt><trkpt lat="43.38615893299242" lon="11.436353645785863"><ele>339.0</ele><time>2026-04-11T08:12:26Z</time></trkpt><trkpt lat="43.38609582082896" lon="11.43627747411804"><ele>339.0</ele><time>2026-04-11T08:12:27Z</time></trkpt><trkpt lat="43.38603284607158" lon="11.436201763927333"><ele>339.0</ele><time>2026-04-11T08:12:28Z</time></trkpt><trkpt lat="43.385977488703006" lon="11.436125180616328"><ele>339.0</ele><time>2026-04-11T08:12:29Z</time></trkpt><trkpt lat="43.38592670914047" lon="11.436047668091579"><ele>338.5</ele><time>2026-04-11T08:12:30Z</time></trkpt><trkpt lat="43.38587407000337" lon="11.435966731878128"><ele>338.0</ele><time>2026-04-11T08:12:31Z</time></trkpt><trkpt lat="43.38580738987523" lon="11.435897000792139"><ele>337.5</ele><time>2026-04-11T08:12:32Z</time></trkpt><trkpt lat="43.38573952133046" lon="11.435843933052695"><ele>337.0</ele><time>2026-04-11T08:12:33Z</time></trkpt><trkpt lat="43.385664789633566" lon="11.43579434175999"><ele>336.5</ele><time>2026-04-11T08:12:34Z</time></trkpt><trkpt lat="43.385593748340426" lon="11.435740061118732"><ele>336.0</ele><time>2026-04-11T08:12:35Z</time></trkpt><trkpt lat="43.385518182489406" lon="11.435681497280298"><ele>335.0</ele><time>2026-04-11T08:12:36Z</time></trkpt><trkpt lat="43.38543801382926" lon="11.435614442255904"><ele>334.0</ele><time>2026-04-11T08:12:37Z</time></trkpt><trkpt lat="43.38535277242963" lon="11.43555026081083"><ele>333.0</ele><time>2026-04-11T08:12:38Z</time></trkpt><trkpt lat="43.385264058457096" lon="11.435481421985804"><ele>332.0</ele><time>2026-04-11T08:12:39Z</time></trkpt><trkpt lat="43.385176757182315" lon="11.43540904536353"><ele>331.0</ele><time>2026-04-11T08:12:40Z</time></trkpt><trkpt lat="43.38508511294028" lon="11.435341952223997"><ele>330.6</ele><time>2026-04-11T08:12:41Z</time></trkpt><trkpt lat="43.384999435140436" lon="11.435257153633213"><ele>330.20000000000005</ele><time>2026-04-11T08:12:42Z</time></trkpt><trkpt lat="43.3848991153195" lon="11.43522135298149"><ele>329.79999999999995</ele><time>2026-04-11T08:12:43Z</time></trkpt><trkpt lat="43.384800344605615" lon="11.435178472354279"><ele>329.4</ele><time>2026-04-11T08:12:44Z</time></trkpt><trkpt lat="43.38470012326508" lon="11.435150328022214"><ele>329.0</ele><time>2026-04-11T08:12:45Z</time></trkpt><trkpt lat="43.38459760553243" lon="11.435132318557377"><ele>328.2</ele><time>2026-04-11T08:12:46Z</time></trkpt><trkpt lat="43.38449673616387" lon="11.435113217192537"><ele>327.4</ele><time>2026-04-11T08:12:47Z</time></trkpt><trkpt lat="43.38439660248301" lon="11.435088711654243"><ele>326.6</ele><time>2026-04-11T08:12:48Z</time></trkpt><trkpt lat="43.38429515745838" lon="11.435073861161161"><ele>325.8</ele><time>2026-04-11T08:12:49Z</time></trkpt><trkpt lat="43.384195292823385" lon="11.435048847882758"><ele>325.0</ele><time>2026-04-11T08:12:50Z</time></trkpt><trkpt lat="43.384094327868816" lon="11.435017109514845"><ele>325.0</ele><time>2026-04-11T08:12:51Z</time></trkpt><trkpt lat="43.383989765455574" lon="11.434989202595208"><ele>325.0</ele><time>2026-04-11T08:12:52Z</time></trkpt><trkpt lat="43.38388357419553" lon="11.434959105000969"><ele>325.0</ele><time>2026-04-11T08:12:53Z</time></trkpt><trkpt lat="43.383776653906665" lon="11.434933455569752"><ele>325.0</ele><time>2026-04-11T08:12:54Z</time></trkpt><trkpt lat="43.3836732859466" lon="11.434893572539126"><ele>325.0</ele><time>2026-04-11T08:12:55Z</time></trkpt><trkpt lat="43.38357450087996" lon="11.434851797792687"><ele>324.8</ele><time>2026-04-11T08:12:56Z</time></trkpt><trkpt lat="43.383480278711424" lon="11.434806774609921"><ele>324.6</ele><time>2026-04-11T08:12:57Z</time></trkpt><trkpt lat="43.38339918683649" lon="11.434727255888038"><ele>324.4</ele><time>2026-04-11T08:12:58Z</time></trkpt><trkpt lat="43.383314430295016" lon="11.434663098990073"><ele>324.2</ele><time>2026-04-11T08:12:59Z</time></trkpt><trkpt lat="43.38322922032142" lon="11.43460747505735"><ele>324.0</ele><time>2026-04-11T08:13:00Z</time></trkpt><trkpt lat="43.38315653589289" lon="11.434539721948045"><ele>324.5</ele><time>2026-04-11T08:13:01Z</time></trkpt><trkpt lat="43.38308878508821" lon="11.434471168120444"><ele>325.0</ele><time>2026-04-11T08:13:02Z</time></trkpt><trkpt lat="43.38302420113189" lon="11.434399772756388"><ele>325.5</ele><time>2026-04-11T08:13:03Z</time></trkpt><trkpt lat="43.382960763095774" lon="11.434331631474276"><ele>326.0</ele><time>2026-04-11T08:13:04Z</time></trkpt><trkpt lat="43.38289965808364" lon="11.434274746268535"><ele>326.5</ele><time>2026-04-11T08:13:05Z</time></trkpt><trkpt lat="43.382835487528624" lon="11.43422067227895"><ele>327.0</ele><time>2026-04-11T08:13:06Z</time></trkpt><trkpt lat="43.38277067131564" lon="11.434187513822984"><ele>327.0</ele><time>2026-04-11T08:13:07Z</time></trkpt><trkpt lat="43.382707492275244" lon="11.434156179766264"><ele>327.0</ele><time>2026-04-11T08:13:08Z</time></trkpt><trkpt lat="43.382645225666636" lon="11.434129388479287"><ele>327.0</ele><time>2026-04-11T08:13:09Z</time></trkpt><trkpt lat="43.382539725712675" lon="11.434087728600332"><ele>327.0</ele><time>2026-04-11T08:13:11Z</time></trkpt><trkpt lat="43.38244086505926" lon="11.434058443691729"><ele>327.0</ele><time>2026-04-11T08:13:13Z</time></trkpt><trkpt lat="43.382352369976836" lon="11.434036852197043"><ele>327.0</ele><time>2026-04-11T08:13:15Z</time></trkpt><trkpt lat="43.38225272488746" lon="11.434012875401107"><ele>326.6666666666667</ele><time>2026-04-11T08:13:17Z</time></trkpt><trkpt lat="43.382164777982716" lon="11.434002922726084"><ele>326.3333333333333</ele><time>2026-04-11T08:13:20Z</time></trkpt><trkpt lat="43.38209995696464" lon="11.433981280202064"><ele>326.0</ele><time>2026-04-11T08:13:23Z</time></trkpt><trkpt lat="43.3820082916011" lon="11.433991505816216"><ele>325.66666666666663</ele><time>2026-04-11T08:13:24Z</time></trkpt><trkpt lat="43.381944058282684" lon="11.433993904994768"><ele>325.3333333333333</ele><time>2026-04-11T08:13:26Z</time></trkpt><trkpt lat="43.38184939300513" lon="11.433954235811116"><ele>325.0</ele><time>2026-04-11T08:13:28Z</time></trkpt><trkpt lat="43.38174196393225" lon="11.433869308110786"><ele>323.3333333333333</ele><time>2026-04-11T08:13:30Z</time></trkpt><trkpt lat="43.38143176544708" lon="11.433747896260103"><ele>321.6666666666667</ele><time>2026-04-11T08:13:31Z</time></trkpt><trkpt lat="43.381351858201036" lon="11.433699568397945"><ele>320.0</ele><time>2026-04-11T08:13:32Z</time></trkpt><trkpt lat="43.38126207355758" lon="11.433656557223951"><ele>319.4</ele><time>2026-04-11T08:13:33Z</time></trkpt><trkpt lat="43.381189406431616" lon="11.43358272427487"><ele>318.8</ele><time>2026-04-11T08:13:34Z</time></trkpt><trkpt lat="43.38109936946363" lon="11.433533701516511"><ele>318.2</ele><time>2026-04-11T08:13:35Z</time></trkpt><trkpt lat="43.38101351109351" lon="11.433458483045943"><ele>317.6</ele><time>2026-04-11T08:13:36Z</time></trkpt><trkpt lat="43.38094222179575" lon="11.433374341323882"><ele>317.0</ele><time>2026-04-11T08:13:37Z</time></trkpt><trkpt lat="43.38086604530803" lon="11.43328473248282"><ele>317.0</ele><time>2026-04-11T08:13:38Z</time></trkpt><trkpt lat="43.38080919698917" lon="11.433174373332033"><ele>317.0</ele><time>2026-04-11T08:13:39Z</time></trkpt><trkpt lat="43.380752057249296" lon="11.433062340198976"><ele>317.0</ele><time>2026-04-11T08:13:40Z</time></trkpt><trkpt lat="43.38069515824045" lon="11.432948153395603"><ele>317.0</ele><time>2026-04-11T08:13:41Z</time></trkpt><trkpt lat="43.38063800350133" lon="11.432842339909072"><ele>317.0</ele><time>2026-04-11T08:13:42Z</time></trkpt><trkpt lat="43.38057241267341" lon="11.43274677082712"><ele>317.6666666666667</ele><time>2026-04-11T08:13:43Z</time></trkpt><trkpt lat="43.38048226622298" lon="11.432728980738997"><ele>318.33333333333337</ele><time>2026-04-11T08:13:44Z</time></trkpt><trkpt lat="43.38041589484394" lon="11.432681361540725"><ele>319.0</ele><time>2026-04-11T08:13:45Z</time></trkpt><trkpt lat="43.38033414678533" lon="11.432670948536476"><ele>319.6666666666667</ele><time>2026-04-11T08:13:46Z</time></trkpt><trkpt lat="43.38025814394703" lon="11.432647804158636"><ele>320.3333333333333</ele><time>2026-04-11T08:13:47Z</time></trkpt><trkpt lat="43.380180606635044" lon="11.43263500764724"><ele>321.0</ele><time>2026-04-11T08:13:48Z</time></trkpt><trkpt lat="43.38011224380257" lon="11.432621470429124"><ele>321.0</ele><time>2026-04-11T08:13:49Z</time></trkpt><trkpt lat="43.380043920815005" lon="11.432609635908454"><ele>321.0</ele><time>2026-04-11T08:13:50Z</time></trkpt><trkpt lat="43.3799686092142" lon="11.432601010534006"><ele>321.0</ele><time>2026-04-11T08:13:51Z</time></trkpt><trkpt lat="43.37990152752238" lon="11.432597639486106"><ele>321.0</ele><time>2026-04-11T08:13:52Z</time></trkpt><trkpt lat="43.37983100595102" lon="11.43258459386142"><ele>321.0</ele><time>2026-04-11T08:13:53Z</time></trkpt><trkpt lat="43.37976485254553" lon="11.43256560190254"><ele>321.0</ele><time>2026-04-11T08:13:54Z</time></trkpt><trkpt lat="43.379647155189595" lon="11.432544077943584"><ele>320.40000000000003</ele><time>2026-04-11T08:13:56Z</time></trkpt><trkpt lat="43.379536852429354" lon="11.432485976834814"><ele>319.8</ele><time>2026-04-11T08:13:58Z</time></trkpt><trkpt lat="43.37942084023344" lon="11.432435166299026"><ele>319.20000000000005</ele><time>2026-04-11T08:14:00Z</time></trkpt><trkpt lat="43.3793613737905" lon="11.432404471870317"><ele>318.6</ele><time>2026-04-11T08:14:01Z</time></trkpt><trkpt lat="43.37924471537711" lon="11.432359581896527"><ele>318.0</ele><time>2026-04-11T08:14:03Z</time></trkpt><trkpt lat="43.3791850545497" lon="11.432324096601516"><ele>318.0</ele><time>2026-04-11T08:14:04Z</time></trkpt><trkpt lat="43.37907925239359" lon="11.432271448825668"><ele>318.0</ele><time>2026-04-11T08:14:06Z</time></trkpt><trkpt lat="43.379014939257864" lon="11.432235899883395"><ele>318.0</ele><time>2026-04-11T08:14:07Z</time></trkpt><trkpt lat="43.37889626074428" lon="11.432188241724633"><ele>318.0</ele><time>2026-04-11T08:14:09Z</time></trkpt><trkpt lat="43.37883753609041" lon="11.432152207622597"><ele>318.0</ele><time>2026-04-11T08:14:10Z</time></trkpt><trkpt lat="43.37877827220326" lon="11.432121043337538"><ele>318.0</ele><time>2026-04-11T08:14:11Z</time></trkpt><trkpt lat="43.37871607026876" lon="11.432090719799836"><ele>317.85714285714283</ele><time>2026-04-11T08:14:12Z</time></trkpt><trkpt lat="43.378655329580845" lon="11.432057051225794"><ele>317.7142857142857</ele><time>2026-04-11T08:14:13Z</time></trkpt><trkpt lat="43.378594504954485" lon="11.432031234012767"><ele>317.57142857142856</ele><time>2026-04-11T08:14:14Z</time></trkpt><trkpt lat="43.3785328347533" lon="11.432006500889631"><ele>317.42857142857144</ele><time>2026-04-11T08:14:15Z</time></trkpt><trkpt lat="43.37847266887359" lon="11.431979874309246"><ele>317.2857142857143</ele><time>2026-04-11T08:14:16Z</time></trkpt><trkpt lat="43.37841282373639" lon="11.431944208912283"><ele>317.14285714285717</ele><time>2026-04-11T08:14:17Z</time></trkpt><trkpt lat="43.37835310138139" lon="11.431908000717417"><ele>317.0</ele><time>2026-04-11T08:14:18Z</time></trkpt><trkpt lat="43.378288945330716" lon="11.43187895860241"><ele>317.0</ele><time>2026-04-11T08:14:19Z</time></trkpt><trkpt lat="43.378225545457035" lon="11.431849913354782"><ele>317.0</ele><time>2026-04-11T08:14:20Z</time></trkpt><trkpt lat="43.378158849187066" lon="11.431819402242876"><ele>317.0</ele><time>2026-04-11T08:14:21Z</time></trkpt><trkpt lat="43.37809028267616" lon="11.431783583514386"><ele>317.0</ele><time>2026-04-11T08:14:22Z</time></trkpt><trkpt lat="43.37802226371888" lon="11.431746863155105"><ele>317.0</ele><time>2026-04-11T08:14:23Z</time></trkpt><trkpt lat="43.37795659492506" lon="11.431712318083607"><ele>317.0</ele><time>2026-04-11T08:14:24Z</time></trkpt><trkpt lat="43.37788994743453" lon="11.431677192291016"><ele>317.0</ele><time>2026-04-11T08:14:25Z</time></trkpt><trkpt lat="43.37782250123964" lon="11.43163588682513"><ele>317.2857142857143</ele><time>2026-04-11T08:14:26Z</time></trkpt><trkpt lat="43.37776174700203" lon="11.431596656828031"><ele>317.57142857142856</ele><time>2026-04-11T08:14:27Z</time></trkpt><trkpt lat="43.37769602867646" lon="11.431564615080935"><ele>317.8571428571429</ele><time>2026-04-11T08:14:28Z</time></trkpt><trkpt lat="43.377631566957106" lon="11.431537012587063"><ele>318.1428571428571</ele><time>2026-04-11T08:14:29Z</time></trkpt><trkpt lat="43.37756654100459" lon="11.431507503737391"><ele>318.4285714285714</ele><time>2026-04-11T08:14:30Z</time></trkpt><trkpt lat="43.37750127141936" lon="11.431476435301688"><ele>318.7142857142857</ele><time>2026-04-11T08:14:31Z</time></trkpt><trkpt lat="43.377434157858296" lon="11.431447227178593"><ele>319.0</ele><time>2026-04-11T08:14:32Z</time></trkpt><trkpt lat="43.37736574153278" lon="11.431423255672415"><ele>319.0</ele><time>2026-04-11T08:14:33Z</time></trkpt><trkpt lat="43.377296263279824" lon="11.431402264315047"><ele>319.0</ele><time>2026-04-11T08:14:34Z</time></trkpt><trkpt lat="43.37722195402266" lon="11.431379682399758"><ele>319.0</ele><time>2026-04-11T08:14:35Z</time></trkpt><trkpt lat="43.37714940187149" lon="11.431371250116955"><ele>319.0</ele><time>2026-04-11T08:14:36Z</time></trkpt><trkpt lat="43.377077454992246" lon="11.431358077735071"><ele>319.0</ele><time>2026-04-11T08:14:37Z</time></trkpt><trkpt lat="43.377002681465" lon="11.431344296382324"><ele>319.0</ele><time>2026-04-11T08:14:38Z</time></trkpt><trkpt lat="43.37692727278959" lon="11.431333413974361"><ele>319.0</ele><time>2026-04-11T08:14:39Z</time></trkpt><trkpt lat="43.376855472109455" lon="11.431327662804275"><ele>318.5</ele><time>2026-04-11T08:14:40Z</time></trkpt><trkpt lat="43.37678269265184" lon="11.431321547993521"><ele>318.0</ele><time>2026-04-11T08:14:41Z</time></trkpt><trkpt lat="43.376699600005914" lon="11.431306352261947"><ele>317.5</ele><time>2026-04-11T08:14:42Z</time></trkpt><trkpt lat="43.37662021599145" lon="11.431298010132018"><ele>317.0</ele><time>2026-04-11T08:14:43Z</time></trkpt><trkpt lat="43.37654184853322" lon="11.43128961787116"><ele>316.5</ele><time>2026-04-11T08:14:44Z</time></trkpt><trkpt lat="43.37647875440461" lon="11.43128079711744"><ele>316.0</ele><time>2026-04-11T08:14:45Z</time></trkpt><trkpt lat="43.37640213634885" lon="11.431279029129426"><ele>315.5</ele><time>2026-04-11T08:14:46Z</time></trkpt><trkpt lat="43.37632043850037" lon="11.43126759039297"><ele>315.0</ele><time>2026-04-11T08:14:47Z</time></trkpt><trkpt lat="43.37623697028886" lon="11.431256407498964"><ele>314.5</ele><time>2026-04-11T08:14:48Z</time></trkpt><trkpt lat="43.37615076603804" lon="11.431242738519675"><ele>314.0</ele><time>2026-04-11T08:14:49Z</time></trkpt><trkpt lat="43.376065780740994" lon="11.431204675810475"><ele>313.5</ele><time>2026-04-11T08:14:50Z</time></trkpt><trkpt lat="43.375967497383805" lon="11.431206261232802"><ele>313.0</ele><time>2026-04-11T08:14:51Z</time></trkpt><trkpt lat="43.375874733085865" lon="11.43116073617028"><ele>313.0</ele><time>2026-04-11T08:14:52Z</time></trkpt><trkpt lat="43.37576836428988" lon="11.43113861925325"><ele>313.0</ele><time>2026-04-11T08:14:53Z</time></trkpt><trkpt lat="43.37566887484322" lon="11.431064137475513"><ele>313.0</ele><time>2026-04-11T08:14:54Z</time></trkpt><trkpt lat="43.37557016673867" lon="11.430994417212702"><ele>313.0</ele><time>2026-04-11T08:14:55Z</time></trkpt><trkpt lat="43.375470547391345" lon="11.430920026360717"><ele>313.0</ele><time>2026-04-11T08:14:56Z</time></trkpt><trkpt lat="43.375370494512055" lon="11.430849659173603"><ele>311.2</ele><time>2026-04-11T08:14:57Z</time></trkpt><trkpt lat="43.37527249023409" lon="11.43077414388559"><ele>309.4</ele><time>2026-04-11T08:14:58Z</time></trkpt><trkpt lat="43.37518014543027" lon="11.430701657293413"><ele>307.59999999999997</ele><time>2026-04-11T08:14:59Z</time></trkpt><trkpt lat="43.37508697308054" lon="11.430634909892397"><ele>305.8</ele><time>2026-04-11T08:15:00Z</time></trkpt><trkpt lat="43.37499550932786" lon="11.430570565096943"><ele>304.0</ele><time>2026-04-11T08:15:01Z</time></trkpt><trkpt lat="43.374904943752284" lon="11.430525470641001"><ele>304.0</ele><time>2026-04-11T08:15:02Z</time></trkpt><trkpt lat="43.374815794422965" lon="11.43048987432051"><ele>304.0</ele><time>2026-04-11T08:15:03Z</time></trkpt><trkpt lat="43.37472732136581" lon="11.430446957474519"><ele>304.0</ele><time>2026-04-11T08:15:04Z</time></trkpt><trkpt lat="43.37463467067656" lon="11.43041008551328"><ele>304.0</ele><time>2026-04-11T08:15:05Z</time></trkpt><trkpt lat="43.37454616083427" lon="11.43038473808269"><ele>304.0</ele><time>2026-04-11T08:15:06Z</time></trkpt><trkpt lat="43.37445330401962" lon="11.430360938258168"><ele>304.2</ele><time>2026-04-11T08:15:07Z</time></trkpt><trkpt lat="43.37436466219148" lon="11.430332793736886"><ele>304.4</ele><time>2026-04-11T08:15:08Z</time></trkpt><trkpt lat="43.374271698384824" lon="11.430301861250639"><ele>304.6</ele><time>2026-04-11T08:15:09Z</time></trkpt><trkpt lat="43.374181004802935" lon="11.43027626907705"><ele>304.8</ele><time>2026-04-11T08:15:10Z</time></trkpt><trkpt lat="43.374090403058254" lon="11.430242421170771"><ele>305.0</ele><time>2026-04-11T08:15:11Z</time></trkpt><trkpt lat="43.37399465040369" lon="11.430209770422534"><ele>305.0</ele><time>2026-04-11T08:15:12Z</time></trkpt><trkpt lat="43.37389909245747" lon="11.43017806428109"><ele>305.0</ele><time>2026-04-11T08:15:13Z</time></trkpt><trkpt lat="43.37380234055755" lon="11.430150310038668"><ele>305.0</ele><time>2026-04-11T08:15:14Z</time></trkpt><trkpt lat="43.373706090964426" lon="11.430108743194879"><ele>305.0</ele><time>2026-04-11T08:15:15Z</time></trkpt><trkpt lat="43.37361341166039" lon="11.430063771201425"><ele>305.0</ele><time>2026-04-11T08:15:16Z</time></trkpt><trkpt lat="43.37351783224873" lon="11.43001593964256"><ele>304.8</ele><time>2026-04-11T08:15:17Z</time></trkpt><trkpt lat="43.37342242535071" lon="11.429954613885497"><ele>304.6</ele><time>2026-04-11T08:15:18Z</time></trkpt><trkpt lat="43.373323623231734" lon="11.429899394600838"><ele>304.4</ele><time>2026-04-11T08:15:19Z</time></trkpt><trkpt lat="43.37322192431212" lon="11.42985276486002"><ele>304.2</ele><time>2026-04-11T08:15:20Z</time></trkpt><trkpt lat="43.37312367749093" lon="11.429792335874152"><ele>304.0</ele><time>2026-04-11T08:15:21Z</time></trkpt><trkpt lat="43.37302961363376" lon="11.429732626866564"><ele>302.59999999999997</ele><time>2026-04-11T08:15:22Z</time></trkpt><trkpt lat="43.37293734906168" lon="11.429671764254675"><ele>301.2</ele><time>2026-04-11T08:15:23Z</time></trkpt><trkpt lat="43.372844501227036" lon="11.429617966516355"><ele>299.79999999999995</ele><time>2026-04-11T08:15:24Z</time></trkpt><trkpt lat="43.37275217266274" lon="11.42957107198105"><ele>298.4</ele><time>2026-04-11T08:15:25Z</time></trkpt><trkpt lat="43.37266352233747" lon="11.429517736622287"><ele>297.0</ele><time>2026-04-11T08:15:26Z</time></trkpt><trkpt lat="43.372572497842725" lon="11.429468159166722"><ele>297.0</ele><time>2026-04-11T08:15:27Z</time></trkpt><trkpt lat="43.372481848255795" lon="11.429416214345517"><ele>297.0</ele><time>2026-04-11T08:15:28Z</time></trkpt><trkpt lat="43.37239324009001" lon="11.429363517087522"><ele>297.0</ele><time>2026-04-11T08:15:29Z</time></trkpt><trkpt lat="43.37230389173018" lon="11.4293115257862"><ele>297.0</ele><time>2026-04-11T08:15:30Z</time></trkpt><trkpt lat="43.37221464649609" lon="11.429258249764269"><ele>297.0</ele><time>2026-04-11T08:15:31Z</time></trkpt><trkpt lat="43.37212386921044" lon="11.429208226588154"><ele>296.2</ele><time>2026-04-11T08:15:32Z</time></trkpt><trkpt lat="43.37203167034056" lon="11.429157561697826"><ele>295.4</ele><time>2026-04-11T08:15:33Z</time></trkpt><trkpt lat="43.37194257366458" lon="11.429102773042414"><ele>294.6</ele><time>2026-04-11T08:15:34Z</time></trkpt><trkpt lat="43.37185413678377" lon="11.429049290194511"><ele>293.8</ele><time>2026-04-11T08:15:35Z</time></trkpt><trkpt lat="43.37176280853747" lon="11.428999388024796"><ele>293.0</ele><time>2026-04-11T08:15:36Z</time></trkpt><trkpt lat="43.37167251009312" lon="11.428940086006287"><ele>293.0</ele><time>2026-04-11T08:15:37Z</time></trkpt><trkpt lat="43.37158101290344" lon="11.428888104236263"><ele>293.0</ele><time>2026-04-11T08:15:38Z</time></trkpt><trkpt lat="43.37148990640768" lon="11.428842098988017"><ele>293.0</ele><time>2026-04-11T08:15:39Z</time></trkpt><trkpt lat="43.371396640634394" lon="11.428810974613915"><ele>293.0</ele><time>2026-04-11T08:15:40Z</time></trkpt><trkpt lat="43.37130834046609" lon="11.428781308541543"><ele>293.0</ele><time>2026-04-11T08:15:41Z</time></trkpt><trkpt lat="43.371219481181456" lon="11.428753320988143"><ele>293.1666666666667</ele><time>2026-04-11T08:15:42Z</time></trkpt><trkpt lat="43.371135106477496" lon="11.428720864336787"><ele>293.33333333333337</ele><time>2026-04-11T08:15:43Z</time></trkpt><trkpt lat="43.37104958262753" lon="11.428701881250031"><ele>293.5</ele><time>2026-04-11T08:15:44Z</time></trkpt><trkpt lat="43.37096354913622" lon="11.428683827660238"><ele>293.6666666666667</ele><time>2026-04-11T08:15:45Z</time></trkpt><trkpt lat="43.37087524198361" lon="11.428666488355251"><ele>293.8333333333333</ele><time>2026-04-11T08:15:46Z</time></trkpt><trkpt lat="43.37078959291133" lon="11.428657049792792"><ele>294.0</ele><time>2026-04-11T08:15:47Z</time></trkpt><trkpt lat="43.37069974023239" lon="11.428633687340787"><ele>294.0</ele><time>2026-04-11T08:15:48Z</time></trkpt><trkpt lat="43.37060913530429" lon="11.428620074453061"><ele>294.0</ele><time>2026-04-11T08:15:49Z</time></trkpt><trkpt lat="43.3705188004803" lon="11.428606784253006"><ele>294.0</ele><time>2026-04-11T08:15:50Z</time></trkpt><trkpt lat="43.370426411078306" lon="11.428595635962129"><ele>294.0</ele><time>2026-04-11T08:15:51Z</time></trkpt><trkpt lat="43.37033127015427" lon="11.428587556511623"><ele>294.0</ele><time>2026-04-11T08:15:52Z</time></trkpt><trkpt lat="43.37023720169227" lon="11.428563939317435"><ele>292.59999999999997</ele><time>2026-04-11T08:15:53Z</time></trkpt><trkpt lat="43.37014270531071" lon="11.428552590487628"><ele>291.2</ele><time>2026-04-11T08:15:54Z</time></trkpt><trkpt lat="43.3700473380553" lon="11.4285461952728"><ele>289.79999999999995</ele><time>2026-04-11T08:15:55Z</time></trkpt><trkpt lat="43.36995016233658" lon="11.42853264519624"><ele>288.4</ele><time>2026-04-11T08:15:56Z</time></trkpt><trkpt lat="43.369848809536954" lon="11.428520891147441"><ele>287.0</ele><time>2026-04-11T08:15:57Z</time></trkpt><trkpt lat="43.36974797431133" lon="11.428507698783571"><ele>286.0</ele><time>2026-04-11T08:15:58Z</time></trkpt><trkpt lat="43.3696453631816" lon="11.428498675302047"><ele>285.0</ele><time>2026-04-11T08:15:59Z</time></trkpt><trkpt lat="43.36954243964716" lon="11.428484050580602"><ele>284.0</ele><time>2026-04-11T08:16:00Z</time></trkpt><trkpt lat="43.369440818084406" lon="11.428477113536369"><ele>283.0</ele><time>2026-04-11T08:16:01Z</time></trkpt><trkpt lat="43.36933708653674" lon="11.428471132173406"><ele>282.0</ele><time>2026-04-11T08:16:02Z</time></trkpt><trkpt lat="43.369238494662184" lon="11.42846753496279"><ele>282.0</ele><time>2026-04-11T08:16:03Z</time></trkpt><trkpt lat="43.369138773609144" lon="11.428462287351724"><ele>282.0</ele><time>2026-04-11T08:16:04Z</time></trkpt><trkpt lat="43.369040784096555" lon="11.428460851146857"><ele>282.0</ele><time>2026-04-11T08:16:05Z</time></trkpt><trkpt lat="43.368943526368504" lon="11.42845889271216"><ele>282.0</ele><time>2026-04-11T08:16:06Z</time></trkpt><trkpt lat="43.36885145129154" lon="11.4284474538493"><ele>282.0</ele><time>2026-04-11T08:16:07Z</time></trkpt><trkpt lat="43.36876078205454" lon="11.428419897623003"><ele>282.4</ele><time>2026-04-11T08:16:08Z</time></trkpt><trkpt lat="43.36867154512874" lon="11.428388013926451"><ele>282.79999999999995</ele><time>2026-04-11T08:16:09Z</time></trkpt><trkpt lat="43.368592433193164" lon="11.42833928529095"><ele>283.2</ele><time>2026-04-11T08:16:10Z</time></trkpt><trkpt lat="43.36851069554236" lon="11.428274262774936"><ele>283.59999999999997</ele><time>2026-04-11T08:16:11Z</time></trkpt><trkpt lat="43.36842902135274" lon="11.428212995078747"><ele>284.0</ele><time>2026-04-11T08:16:12Z</time></trkpt><trkpt lat="43.36835570710669" lon="11.428141062636373"><ele>284.0</ele><time>2026-04-11T08:16:13Z</time></trkpt><trkpt lat="43.368283084169974" lon="11.428060292952651"><ele>284.0</ele><time>2026-04-11T08:16:14Z</time></trkpt><trkpt lat="43.368221033906266" lon="11.427970770224048"><ele>284.0</ele><time>2026-04-11T08:16:15Z</time></trkpt><trkpt lat="43.36816241635472" lon="11.427868508966961"><ele>284.0</ele><time>2026-04-11T08:16:16Z</time></trkpt><trkpt lat="43.36811679724232" lon="11.427757092611024"><ele>284.0</ele><time>2026-04-11T08:16:17Z</time></trkpt><trkpt lat="43.368081159317626" lon="11.427639534316834"><ele>284.0</ele><time>2026-04-11T08:16:18Z</time></trkpt><trkpt lat="43.3680477224032" lon="11.427524356718223"><ele>284.0</ele><time>2026-04-11T08:16:19Z</time></trkpt><trkpt lat="43.36801498031634" lon="11.427407183075138"><ele>284.0</ele><time>2026-04-11T08:16:20Z</time></trkpt><trkpt lat="43.367983658606995" lon="11.427290061544571"><ele>284.0</ele><time>2026-04-11T08:16:21Z</time></trkpt><trkpt lat="43.36795072589731" lon="11.427179143242155"><ele>284.0</ele><time>2026-04-11T08:16:22Z</time></trkpt><trkpt lat="43.36791414114114" lon="11.427071849866929"><ele>284.0</ele><time>2026-04-11T08:16:23Z</time></trkpt><trkpt lat="43.367872474198045" lon="11.42697907420424"><ele>284.0</ele><time>2026-04-11T08:16:24Z</time></trkpt><trkpt lat="43.36782516050644" lon="11.426897512111626"><ele>284.0</ele><time>2026-04-11T08:16:25Z</time></trkpt><trkpt lat="43.367775195998014" lon="11.426833505295816"><ele>284.0</ele><time>2026-04-11T08:16:26Z</time></trkpt><trkpt lat="43.36771536923344" lon="11.426783834403704"><ele>284.0</ele><time>2026-04-11T08:16:27Z</time></trkpt><trkpt lat="43.367651826613226" lon="11.426755477622333"><ele>284.0</ele><time>2026-04-11T08:16:28Z</time></trkpt><trkpt lat="43.367589786613784" lon="11.426728086638573"><ele>284.0</ele><time>2026-04-11T08:16:29Z</time></trkpt><trkpt lat="43.367476450945695" lon="11.426676032702977"><ele>284.0</ele><time>2026-04-11T08:16:31Z</time></trkpt><trkpt lat="43.36741546174198" lon="11.426653749067954"><ele>284.0</ele><time>2026-04-11T08:16:32Z</time></trkpt><trkpt lat="43.36729411486133" lon="11.426607370351991"><ele>284.0</ele><time>2026-04-11T08:16:34Z</time></trkpt><trkpt lat="43.3671772719688" lon="11.426559505125557"><ele>284.0</ele><time>2026-04-11T08:16:36Z</time></trkpt><trkpt lat="43.367072147214316" lon="11.426502304033763"><ele>284.0</ele><time>2026-04-11T08:16:38Z</time></trkpt><trkpt lat="43.36696759485737" lon="11.426464105556752"><ele>284.5</ele><time>2026-04-11T08:16:40Z</time></trkpt><trkpt lat="43.36686845556719" lon="11.426416955172401"><ele>285.0</ele><time>2026-04-11T08:16:42Z</time></trkpt><trkpt lat="43.36677460990147" lon="11.426374397058584"><ele>285.5</ele><time>2026-04-11T08:16:44Z</time></trkpt><trkpt lat="43.366699581612096" lon="11.426370576941544"><ele>286.0</ele><time>2026-04-11T08:16:47Z</time></trkpt><trkpt lat="43.36662391732255" lon="11.426345437660252"><ele>286.5</ele><time>2026-04-11T08:16:49Z</time></trkpt><trkpt lat="43.36655594402195" lon="11.426328800422692"><ele>287.0</ele><time>2026-04-11T08:16:52Z</time></trkpt><trkpt lat="43.366281612042094" lon="11.42634501388039"><ele>287.0</ele><time>2026-04-11T08:16:53Z</time></trkpt><trkpt lat="43.36615891390203" lon="11.4263628603669"><ele>287.0</ele><time>2026-04-11T08:16:55Z</time></trkpt><trkpt lat="43.36609342640323" lon="11.42638230323103"><ele>287.0</ele><time>2026-04-11T08:16:56Z</time></trkpt><trkpt lat="43.36602918184464" lon="11.426377537454188"><ele>287.0</ele><time>2026-04-11T08:16:57Z</time></trkpt><trkpt lat="43.36590781812319" lon="11.42634806224765"><ele>287.0</ele><time>2026-04-11T08:16:59Z</time></trkpt><trkpt lat="43.365847087000226" lon="11.426296393447844"><ele>287.0</ele><time>2026-04-11T08:17:00Z</time></trkpt><trkpt lat="43.36578855848084" lon="11.426232044376242"><ele>287.42857142857144</ele><time>2026-04-11T08:17:01Z</time></trkpt><trkpt lat="43.365734907554135" lon="11.426161159062621"><ele>287.8571428571429</ele><time>2026-04-11T08:17:02Z</time></trkpt><trkpt lat="43.36567474136271" lon="11.426098461811005"><ele>288.2857142857143</ele><time>2026-04-11T08:17:03Z</time></trkpt><trkpt lat="43.365640386368945" lon="11.42602262008722"><ele>288.7142857142857</ele><time>2026-04-11T08:17:04Z</time></trkpt><trkpt lat="43.36559481736774" lon="11.42593307049336"><ele>289.14285714285717</ele><time>2026-04-11T08:17:05Z</time></trkpt><trkpt lat="43.36555040753626" lon="11.425859579326593"><ele>289.57142857142856</ele><time>2026-04-11T08:17:06Z</time></trkpt><trkpt lat="43.3654999697792" lon="11.425781847133294"><ele>290.0</ele><time>2026-04-11T08:17:07Z</time></trkpt><trkpt lat="43.365458186907034" lon="11.425711740287747"><ele>288.6666666666667</ele><time>2026-04-11T08:17:08Z</time></trkpt><trkpt lat="43.365407057565236" lon="11.4256293545382"><ele>287.33333333333337</ele><time>2026-04-11T08:17:09Z</time></trkpt><trkpt lat="43.36535268132546" lon="11.425550876906067"><ele>286.0</ele><time>2026-04-11T08:17:10Z</time></trkpt><trkpt lat="43.365297727664476" lon="11.425459515903437"><ele>284.6666666666667</ele><time>2026-04-11T08:17:11Z</time></trkpt><trkpt lat="43.36524762256386" lon="11.42537598938617"><ele>283.3333333333333</ele><time>2026-04-11T08:17:12Z</time></trkpt><trkpt lat="43.36519530608905" lon="11.425287881785778"><ele>282.0</ele><time>2026-04-11T08:17:13Z</time></trkpt><trkpt lat="43.36513836070676" lon="11.425206232029677"><ele>281.8</ele><time>2026-04-11T08:17:14Z</time></trkpt><trkpt lat="43.36510143105314" lon="11.425100993429902"><ele>281.6</ele><time>2026-04-11T08:17:15Z</time></trkpt><trkpt lat="43.365041672489454" lon="11.425009256547375"><ele>281.40000000000003</ele><time>2026-04-11T08:17:16Z</time></trkpt><trkpt lat="43.36497338999677" lon="11.424925337048887"><ele>281.2</ele><time>2026-04-11T08:17:17Z</time></trkpt><trkpt lat="43.3649112058134" lon="11.424832787613653"><ele>281.0</ele><time>2026-04-11T08:17:18Z</time></trkpt><trkpt lat="43.364853627706715" lon="11.424731214151494"><ele>280.6</ele><time>2026-04-11T08:17:19Z</time></trkpt><trkpt lat="43.36480216589274" lon="11.424630771146012"><ele>280.20000000000005</ele><time>2026-04-11T08:17:20Z</time></trkpt><trkpt lat="43.36475228772477" lon="11.424527320791048"><ele>279.79999999999995</ele><time>2026-04-11T08:17:21Z</time></trkpt><trkpt lat="43.364711137702386" lon="11.42441886986682"><ele>279.4</ele><time>2026-04-11T08:17:22Z</time></trkpt><trkpt lat="43.36467668499412" lon="11.424303246139791"><ele>279.0</ele><time>2026-04-11T08:17:23Z</time></trkpt><trkpt lat="43.364639127542496" lon="11.42417663452799"><ele>278.8</ele><time>2026-04-11T08:17:24Z</time></trkpt><trkpt lat="43.364602087998634" lon="11.424045401707648"><ele>278.59999999999997</ele><time>2026-04-11T08:17:25Z</time></trkpt><trkpt lat="43.364577915237916" lon="11.42390366628842"><ele>278.4</ele><time>2026-04-11T08:17:26Z</time></trkpt><trkpt lat="43.364555070084336" lon="11.42375173550501"><ele>278.2</ele><time>2026-04-11T08:17:27Z</time></trkpt><trkpt lat="43.364539763436134" lon="11.423600101342025"><ele>278.0</ele><time>2026-04-11T08:17:28Z</time></trkpt><trkpt lat="43.364531944304204" lon="11.423439076004701"><ele>276.25</ele><time>2026-04-11T08:17:29Z</time></trkpt><trkpt lat="43.36452559071745" lon="11.423274869766786"><ele>274.5</ele><time>2026-04-11T08:17:30Z</time></trkpt><trkpt lat="43.36452194647372" lon="11.423105519609683"><ele>272.75</ele><time>2026-04-11T08:17:31Z</time></trkpt><trkpt lat="43.364518243170025" lon="11.422939675384448"><ele>271.0</ele><time>2026-04-11T08:17:32Z</time></trkpt><trkpt lat="43.36450557546541" lon="11.422769901158393"><ele>269.25</ele><time>2026-04-11T08:17:33Z</time></trkpt><trkpt lat="43.36450338917161" lon="11.42259579360649"><ele>267.5</ele><time>2026-04-11T08:17:34Z</time></trkpt><trkpt lat="43.36449577286778" lon="11.422418251652442"><ele>265.75</ele><time>2026-04-11T08:17:35Z</time></trkpt><trkpt lat="43.36448592223598" lon="11.422241545516352"><ele>264.0</ele><time>2026-04-11T08:17:36Z</time></trkpt><trkpt lat="43.364469027719146" lon="11.422065598457214"><ele>262.25</ele><time>2026-04-11T08:17:37Z</time></trkpt><trkpt lat="43.36445842694903" lon="11.421883328122105"><ele>260.5</ele><time>2026-04-11T08:17:38Z</time></trkpt><trkpt lat="43.36445839463319" lon="11.421712258155035"><ele>258.75</ele><time>2026-04-11T08:17:39Z</time></trkpt><trkpt lat="43.364445420032155" lon="11.421545292808345"><ele>257.0</ele><time>2026-04-11T08:17:40Z</time></trkpt><trkpt lat="43.364426516139204" lon="11.421377629197426"><ele>256.75</ele><time>2026-04-11T08:17:41Z</time></trkpt><trkpt lat="43.3643961847937" lon="11.421230191673521"><ele>256.5</ele><time>2026-04-11T08:17:42Z</time></trkpt><trkpt lat="43.364348271752526" lon="11.421077037021126"><ele>256.25</ele><time>2026-04-11T08:17:43Z</time></trkpt><trkpt lat="43.364293192213054" lon="11.42092882530359"><ele>256.0</ele><time>2026-04-11T08:17:44Z</time></trkpt><trkpt lat="43.36423924928586" lon="11.420789107796608"><ele>256.0</ele><time>2026-04-11T08:17:45Z</time></trkpt><trkpt lat="43.364196114062445" lon="11.420646694268545"><ele>256.0</ele><time>2026-04-11T08:17:46Z</time></trkpt><trkpt lat="43.36415824911797" lon="11.420507481176134"><ele>256.0</ele><time>2026-04-11T08:17:47Z</time></trkpt><trkpt lat="43.36412910409955" lon="11.420368030173988"><ele>256.0</ele><time>2026-04-11T08:17:48Z</time></trkpt><trkpt lat="43.36410983540019" lon="11.42022575858005"><ele>256.0</ele><time>2026-04-11T08:17:49Z</time></trkpt><trkpt lat="43.364096163129254" lon="11.420076870705715"><ele>255.60000000000002</ele><time>2026-04-11T08:17:50Z</time></trkpt><trkpt lat="43.364081184979746" lon="11.41993268042078"><ele>255.20000000000002</ele><time>2026-04-11T08:17:51Z</time></trkpt><trkpt lat="43.36406553268994" lon="11.419799876000367"><ele>254.79999999999998</ele><time>2026-04-11T08:17:52Z</time></trkpt><trkpt lat="43.364053677181516" lon="11.419663857650052"><ele>254.39999999999998</ele><time>2026-04-11T08:17:53Z</time></trkpt><trkpt lat="43.3640420705187" lon="11.419531118860498"><ele>254.0</ele><time>2026-04-11T08:17:54Z</time></trkpt><trkpt lat="43.36403038210499" lon="11.419396428344614"><ele>253.2</ele><time>2026-04-11T08:17:55Z</time></trkpt><trkpt lat="43.364020999401696" lon="11.419257482342939"><ele>252.39999999999998</ele><time>2026-04-11T08:17:56Z</time></trkpt><trkpt lat="43.3640162406489" lon="11.4191202594798"><ele>251.6</ele><time>2026-04-11T08:17:57Z</time></trkpt><trkpt lat="43.364020200653165" lon="11.418985554871433"><ele>250.8</ele><time>2026-04-11T08:17:58Z</time></trkpt><trkpt lat="43.3640228063692" lon="11.418864758277278"><ele>250.0</ele><time>2026-04-11T08:17:59Z</time></trkpt><trkpt lat="43.36401808477915" lon="11.418767838544879"><ele>248.8</ele><time>2026-04-11T08:18:00Z</time></trkpt><trkpt lat="43.36406063243851" lon="11.418618998355864"><ele>247.6</ele><time>2026-04-11T08:18:02Z</time></trkpt><trkpt lat="43.36405410556259" lon="11.41852528164496"><ele>246.39999999999998</ele><time>2026-04-11T08:18:05Z</time></trkpt><trkpt lat="43.364043643496565" lon="11.41841981897346"><ele>245.2</ele><time>2026-04-11T08:18:09Z</time></trkpt><trkpt lat="43.36391981097997" lon="11.418429961801046"><ele>244.0</ele><time>2026-04-11T08:18:10Z</time></trkpt><trkpt lat="43.36381816898707" lon="11.41843295903504"><ele>243.33333333333331</ele><time>2026-04-11T08:18:12Z</time></trkpt><trkpt lat="43.36369567493107" lon="11.41843124772893"><ele>242.66666666666666</ele><time>2026-04-11T08:18:14Z</time></trkpt><trkpt lat="43.363632473632244" lon="11.418435821417814"><ele>242.0</ele><time>2026-04-11T08:18:15Z</time></trkpt><trkpt lat="43.363566999809365" lon="11.418437980111486"><ele>241.33333333333331</ele><time>2026-04-11T08:18:16Z</time></trkpt><trkpt lat="43.36349897407796" lon="11.418436364365142"><ele>240.66666666666666</ele><time>2026-04-11T08:18:17Z</time></trkpt><trkpt lat="43.363432022331004" lon="11.418439637104473"><ele>240.0</ele><time>2026-04-11T08:18:18Z</time></trkpt><trkpt lat="43.36336140515294" lon="11.418440816797192"><ele>240.0</ele><time>2026-04-11T08:18:19Z</time></trkpt><trkpt lat="43.36328594850144" lon="11.418437482262478"><ele>240.0</ele><time>2026-04-11T08:18:20Z</time></trkpt><trkpt lat="43.36321266923534" lon="11.41843028280253"><ele>240.0</ele><time>2026-04-11T08:18:21Z</time></trkpt><trkpt lat="43.36313238475563" lon="11.41842525720991"><ele>240.0</ele><time>2026-04-11T08:18:22Z</time></trkpt><trkpt lat="43.363050215953784" lon="11.418414646413689"><ele>240.0</ele><time>2026-04-11T08:18:23Z</time></trkpt><trkpt lat="43.3629693204956" lon="11.418399464916254"><ele>240.0</ele><time>2026-04-11T08:18:24Z</time></trkpt><trkpt lat="43.36288727655932" lon="11.418373591332475"><ele>239.5</ele><time>2026-04-11T08:18:25Z</time></trkpt><trkpt lat="43.3628081384705" lon="11.418351805419698"><ele>239.0</ele><time>2026-04-11T08:18:26Z</time></trkpt><trkpt lat="43.362731409557014" lon="11.418322080674502"><ele>238.5</ele><time>2026-04-11T08:18:27Z</time></trkpt><trkpt lat="43.36264791691733" lon="11.418292246709555"><ele>238.0</ele><time>2026-04-11T08:18:28Z</time></trkpt><trkpt lat="43.36256502214291" lon="11.418259421273298"><ele>237.5</ele><time>2026-04-11T08:18:29Z</time></trkpt><trkpt lat="43.362480933314835" lon="11.418231970892576"><ele>237.0</ele><time>2026-04-11T08:18:30Z</time></trkpt><trkpt lat="43.36239830225712" lon="11.418211800185224"><ele>237.0</ele><time>2026-04-11T08:18:31Z</time></trkpt><trkpt lat="43.36230898097097" lon="11.418206235567746"><ele>237.0</ele><time>2026-04-11T08:18:32Z</time></trkpt><trkpt lat="43.36221871414041" lon="11.418233510310198"><ele>237.0</ele><time>2026-04-11T08:18:33Z</time></trkpt><trkpt lat="43.36213482515878" lon="11.41829530100196"><ele>237.0</ele><time>2026-04-11T08:18:34Z</time></trkpt><trkpt lat="43.36206116251376" lon="11.418372211213361"><ele>237.0</ele><time>2026-04-11T08:18:35Z</time></trkpt><trkpt lat="43.36198924755422" lon="11.418462513614722"><ele>237.2</ele><time>2026-04-11T08:18:36Z</time></trkpt><trkpt lat="43.36193590602603" lon="11.41856203811783"><ele>237.39999999999998</ele><time>2026-04-11T08:18:37Z</time></trkpt><trkpt lat="43.361877118041136" lon="11.418664357814528"><ele>237.60000000000002</ele><time>2026-04-11T08:18:38Z</time></trkpt><trkpt lat="43.36181576997142" lon="11.418768270233326"><ele>237.8</ele><time>2026-04-11T08:18:39Z</time></trkpt><trkpt lat="43.36175170751971" lon="11.418876344641637"><ele>238.0</ele><time>2026-04-11T08:18:40Z</time></trkpt><trkpt lat="43.36168842428798" lon="11.418984969413916"><ele>238.0</ele><time>2026-04-11T08:18:41Z</time></trkpt><trkpt lat="43.36160557780047" lon="11.419079155589625"><ele>238.0</ele><time>2026-04-11T08:18:42Z</time></trkpt><trkpt lat="43.36150556929955" lon="11.4191434984754"><ele>238.0</ele><time>2026-04-11T08:18:43Z</time></trkpt><trkpt lat="43.36140476671868" lon="11.41918674580522"><ele>238.0</ele><time>2026-04-11T08:18:44Z</time></trkpt><trkpt lat="43.36130309098952" lon="11.419203859798346"><ele>238.0</ele><time>2026-04-11T08:18:45Z</time></trkpt><trkpt lat="43.36120564455583" lon="11.419228023873435"><ele>236.8</ele><time>2026-04-11T08:18:46Z</time></trkpt><trkpt lat="43.36110193579043" lon="11.419258702999091"><ele>235.60000000000002</ele><time>2026-04-11T08:18:47Z</time></trkpt><trkpt lat="43.36100191508492" lon="11.419291749823962"><ele>234.39999999999998</ele><time>2026-04-11T08:18:48Z</time></trkpt><trkpt lat="43.3609013466266" lon="11.41932397128183"><ele>233.2</ele><time>2026-04-11T08:18:49Z</time></trkpt><trkpt lat="43.360805686485584" lon="11.419363604795752"><ele>232.0</ele><time>2026-04-11T08:18:50Z</time></trkpt><trkpt lat="43.360702523241976" lon="11.419400742004807"><ele>232.0</ele><time>2026-04-11T08:18:51Z</time></trkpt><trkpt lat="43.36060843374347" lon="11.419433547500237"><ele>232.0</ele><time>2026-04-11T08:18:52Z</time></trkpt><trkpt lat="43.360510325712575" lon="11.419467937628161"><ele>232.0</ele><time>2026-04-11T08:18:53Z</time></trkpt><trkpt lat="43.360408625786945" lon="11.41950603526543"><ele>232.0</ele><time>2026-04-11T08:18:54Z</time></trkpt><trkpt lat="43.36031073692537" lon="11.419534849187576"><ele>232.0</ele><time>2026-04-11T08:18:55Z</time></trkpt><trkpt lat="43.36020999117979" lon="11.419567573108083"><ele>232.0</ele><time>2026-04-11T08:18:56Z</time></trkpt><trkpt lat="43.360111265988856" lon="11.419604453846844"><ele>232.0</ele><time>2026-04-11T08:18:57Z</time></trkpt><trkpt lat="43.360012786559366" lon="11.419635876906968"><ele>232.0</ele><time>2026-04-11T08:18:58Z</time></trkpt><trkpt lat="43.359915041275045" lon="11.419674543245337"><ele>232.0</ele><time>2026-04-11T08:18:59Z</time></trkpt><trkpt lat="43.35981968848492" lon="11.419709419134835"><ele>232.0</ele><time>2026-04-11T08:19:00Z</time></trkpt><trkpt lat="43.35972563075108" lon="11.419750070082967"><ele>231.2</ele><time>2026-04-11T08:19:01Z</time></trkpt><trkpt lat="43.35963036956934" lon="11.4197917298779"><ele>230.39999999999998</ele><time>2026-04-11T08:19:02Z</time></trkpt><trkpt lat="43.35953441016563" lon="11.419828250301235"><ele>229.60000000000002</ele><time>2026-04-11T08:19:03Z</time></trkpt><trkpt lat="43.35943686634573" lon="11.419868763389074"><ele>228.8</ele><time>2026-04-11T08:19:04Z</time></trkpt><trkpt lat="43.35934036607301" lon="11.419901823219027"><ele>228.0</ele><time>2026-04-11T08:19:05Z</time></trkpt><trkpt lat="43.359241051380536" lon="11.419928516136215"><ele>228.0</ele><time>2026-04-11T08:19:06Z</time></trkpt><trkpt lat="43.35913891988119" lon="11.419931529445774"><ele>228.0</ele><time>2026-04-11T08:19:07Z</time></trkpt><trkpt lat="43.35904309382267" lon="11.419904130794267"><ele>228.0</ele><time>2026-04-11T08:19:08Z</time></trkpt><trkpt lat="43.35896314193543" lon="11.419834820995511"><ele>228.0</ele><time>2026-04-11T08:19:09Z</time></trkpt><trkpt lat="43.35888890341873" lon="11.419735293219619"><ele>228.0</ele><time>2026-04-11T08:19:10Z</time></trkpt><trkpt lat="43.35882564114991" lon="11.419631256084513"><ele>226.8</ele><time>2026-04-11T08:19:11Z</time></trkpt><trkpt lat="43.35876794893502" lon="11.41951438451047"><ele>225.60000000000002</ele><time>2026-04-11T08:19:12Z</time></trkpt><trkpt lat="43.35870423374294" lon="11.419407216094362"><ele>224.39999999999998</ele><time>2026-04-11T08:19:13Z</time></trkpt><trkpt lat="43.35863654861957" lon="11.419306667042655"><ele>223.2</ele><time>2026-04-11T08:19:14Z</time></trkpt><trkpt lat="43.3585688847573" lon="11.41920561260369"><ele>222.0</ele><time>2026-04-11T08:19:15Z</time></trkpt><trkpt lat="43.35850469684608" lon="11.419106183612687"><ele>222.0</ele><time>2026-04-11T08:19:16Z</time></trkpt><trkpt lat="43.3584394192208" lon="11.419001012889757"><ele>222.0</ele><time>2026-04-11T08:19:17Z</time></trkpt><trkpt lat="43.35837266556079" lon="11.41889488389399"><ele>222.0</ele><time>2026-04-11T08:19:18Z</time></trkpt><trkpt lat="43.358307417700296" lon="11.41879445450982"><ele>222.0</ele><time>2026-04-11T08:19:19Z</time></trkpt><trkpt lat="43.3582446795556" lon="11.418698409323554"><ele>222.0</ele><time>2026-04-11T08:19:20Z</time></trkpt><trkpt lat="43.358183826120154" lon="11.418594883774427"><ele>221.8</ele><time>2026-04-11T08:19:21Z</time></trkpt><trkpt lat="43.358116627762286" lon="11.418493808118093"><ele>221.6</ele><time>2026-04-11T08:19:22Z</time></trkpt><trkpt lat="43.35805165977391" lon="11.41839903327118"><ele>221.40000000000003</ele><time>2026-04-11T08:19:23Z</time></trkpt><trkpt lat="43.357981800382646" lon="11.418309638141823"><ele>221.20000000000002</ele><time>2026-04-11T08:19:24Z</time></trkpt><trkpt lat="43.35791516078945" lon="11.418214376952987"><ele>221.0</ele><time>2026-04-11T08:19:25Z</time></trkpt><trkpt lat="43.35784939509193" lon="11.41811713315633"><ele>220.8</ele><time>2026-04-11T08:19:26Z</time></trkpt><trkpt lat="43.35778573757937" lon="11.41801791299573"><ele>220.60000000000002</ele><time>2026-04-11T08:19:27Z</time></trkpt><trkpt lat="43.35772399188769" lon="11.417917612347175"><ele>220.4</ele><time>2026-04-11T08:19:28Z</time></trkpt><trkpt lat="43.35766371387671" lon="11.417822579752555"><ele>220.2</ele><time>2026-04-11T08:19:29Z</time></trkpt><trkpt lat="43.35760256336698" lon="11.417725712972704"><ele>220.0</ele><time>2026-04-11T08:19:30Z</time></trkpt><trkpt lat="43.357541798449354" lon="11.417632815852167"><ele>219.99999999999997</ele><time>2026-04-11T08:19:31Z</time></trkpt><trkpt lat="43.35748011182382" lon="11.41753975535215"><ele>220.0</ele><time>2026-04-11T08:19:32Z</time></trkpt><trkpt lat="43.3574245754013" lon="11.417441350684534"><ele>220.0</ele><time>2026-04-11T08:19:33Z</time></trkpt><trkpt lat="43.35736452606254" lon="11.417355773149877"><ele>220.0</ele><time>2026-04-11T08:19:34Z</time></trkpt><trkpt lat="43.35730719855105" lon="11.417271238963016"><ele>219.99999999999997</ele><time>2026-04-11T08:19:35Z</time></trkpt><trkpt lat="43.357249378312154" lon="11.417185738100647"><ele>220.0</ele><time>2026-04-11T08:19:36Z</time></trkpt><trkpt lat="43.35719639363389" lon="11.417108144279823"><ele>219.85714285714283</ele><time>2026-04-11T08:19:37Z</time></trkpt><trkpt lat="43.35714781262867" lon="11.417026610281267"><ele>219.71428571428572</ele><time>2026-04-11T08:19:38Z</time></trkpt><trkpt lat="43.357102494001055" lon="11.416955922432248"><ele>219.57142857142856</ele><time>2026-04-11T08:19:39Z</time></trkpt><trkpt lat="43.357050761221565" lon="11.41688178406312"><ele>219.42857142857142</ele><time>2026-04-11T08:19:40Z</time></trkpt><trkpt lat="43.35699774651235" lon="11.416814236358762"><ele>219.28571428571428</ele><time>2026-04-11T08:19:41Z</time></trkpt><trkpt lat="43.35695032667583" lon="11.416736482764762"><ele>219.14285714285714</ele><time>2026-04-11T08:19:42Z</time></trkpt><trkpt lat="43.35690227616299" lon="11.416660703746931"><ele>219.0</ele><time>2026-04-11T08:19:43Z</time></trkpt><trkpt lat="43.35685834427756" lon="11.416575529051082"><ele>219.0</ele><time>2026-04-11T08:19:44Z</time></trkpt><trkpt lat="43.35681382152962" lon="11.416492997453549"><ele>219.0</ele><time>2026-04-11T08:19:45Z</time></trkpt><trkpt lat="43.3567635893066" lon="11.416416197007413"><ele>219.0</ele><time>2026-04-11T08:19:46Z</time></trkpt><trkpt lat="43.356717871294606" lon="11.416338268970874"><ele>219.0</ele><time>2026-04-11T08:19:47Z</time></trkpt><trkpt lat="43.35667390268997" lon="11.416256007200227"><ele>219.0</ele><time>2026-04-11T08:19:48Z</time></trkpt><trkpt lat="43.356627426731485" lon="11.41618234081611"><ele>219.0</ele><time>2026-04-11T08:19:49Z</time></trkpt><trkpt lat="43.35658235349804" lon="11.416104711618031"><ele>219.0</ele><time>2026-04-11T08:19:50Z</time></trkpt><trkpt lat="43.35653553768304" lon="11.4160281194698"><ele>219.2857142857143</ele><time>2026-04-11T08:19:51Z</time></trkpt><trkpt lat="43.35649066463801" lon="11.415958157221443"><ele>219.57142857142856</ele><time>2026-04-11T08:19:52Z</time></trkpt><trkpt lat="43.35643958804286" lon="11.41588913170503"><ele>219.85714285714286</ele><time>2026-04-11T08:19:53Z</time></trkpt><trkpt lat="43.3563893507939" lon="11.41582386519793"><ele>220.14285714285717</ele><time>2026-04-11T08:19:54Z</time></trkpt><trkpt lat="43.356322259632556" lon="11.415780056933352"><ele>220.42857142857144</ele><time>2026-04-11T08:19:55Z</time></trkpt><trkpt lat="43.356250374892106" lon="11.415765614254342"><ele>220.71428571428572</ele><time>2026-04-11T08:19:56Z</time></trkpt><trkpt lat="43.35618087823826" lon="11.41577113112215"><ele>221.0</ele><time>2026-04-11T08:19:57Z</time></trkpt><trkpt lat="43.356117745048266" lon="11.415799763438441"><ele>221.14285714285717</ele><time>2026-04-11T08:19:58Z</time></trkpt><trkpt lat="43.35605056135481" lon="11.415836794348692"><ele>221.28571428571428</ele><time>2026-04-11T08:19:59Z</time></trkpt><trkpt lat="43.355985523517816" lon="11.415873735654158"><ele>221.42857142857144</ele><time>2026-04-11T08:20:00Z</time></trkpt><trkpt lat="43.355923675528096" lon="11.415909708302243"><ele>221.57142857142858</ele><time>2026-04-11T08:20:01Z</time></trkpt><trkpt lat="43.35586304546597" lon="11.415957985097808"><ele>221.71428571428572</ele><time>2026-04-11T08:20:02Z</time></trkpt><trkpt lat="43.35580079729398" lon="11.416002960627534"><ele>221.85714285714286</ele><time>2026-04-11T08:20:03Z</time></trkpt><trkpt lat="43.35574062801751" lon="11.416043051606978"><ele>222.0</ele><time>2026-04-11T08:20:04Z</time></trkpt><trkpt lat="43.355682740766646" lon="11.416085977405467"><ele>222.0</ele><time>2026-04-11T08:20:05Z</time></trkpt><trkpt lat="43.35562700796434" lon="11.416130632338117"><ele>222.0</ele><time>2026-04-11T08:20:06Z</time></trkpt><trkpt lat="43.355562898036" lon="11.416166267680762"><ele>222.0</ele><time>2026-04-11T08:20:07Z</time></trkpt><trkpt lat="43.35550155778558" lon="11.416199383644663"><ele>222.0</ele><time>2026-04-11T08:20:08Z</time></trkpt><trkpt lat="43.35543781018636" lon="11.416226842228271"><ele>222.0</ele><time>2026-04-11T08:20:09Z</time></trkpt><trkpt lat="43.35536810274983" lon="11.416234145026198"><ele>222.0</ele><time>2026-04-11T08:20:10Z</time></trkpt><trkpt lat="43.35529866253223" lon="11.416233583322827"><ele>222.0</ele><time>2026-04-11T08:20:11Z</time></trkpt><trkpt lat="43.35522736173012" lon="11.416220998897735"><ele>222.71428571428572</ele><time>2026-04-11T08:20:12Z</time></trkpt><trkpt lat="43.35515714040905" lon="11.416206699196241"><ele>223.42857142857144</ele><time>2026-04-11T08:20:13Z</time></trkpt><trkpt lat="43.35508576386475" lon="11.416197987887982"><ele>224.14285714285717</ele><time>2026-04-11T08:20:14Z</time></trkpt><trkpt lat="43.35501535730024" lon="11.416186266192405"><ele>224.85714285714286</ele><time>2026-04-11T08:20:15Z</time></trkpt><trkpt lat="43.3549418257748" lon="11.416178783630727"><ele>225.5714285714286</ele><time>2026-04-11T08:20:16Z</time></trkpt><trkpt lat="43.35486982162408" lon="11.416164898103927"><ele>226.2857142857143</ele><time>2026-04-11T08:20:17Z</time></trkpt><trkpt lat="43.354793277280024" lon="11.41615929516268"><ele>227.0</ele><time>2026-04-11T08:20:18Z</time></trkpt><trkpt lat="43.354718936533196" lon="11.416156913365782"><ele>226.66666666666669</ele><time>2026-04-11T08:20:19Z</time></trkpt><trkpt lat="43.354642965657554" lon="11.416148683321747"><ele>226.33333333333334</ele><time>2026-04-11T08:20:20Z</time></trkpt><trkpt lat="43.354561809675616" lon="11.416139925522035"><ele>226.0</ele><time>2026-04-11T08:20:21Z</time></trkpt><trkpt lat="43.35448568688434" lon="11.416132375177096"><ele>225.66666666666669</ele><time>2026-04-11T08:20:22Z</time></trkpt><trkpt lat="43.35441128526545" lon="11.416125749343616"><ele>225.33333333333334</ele><time>2026-04-11T08:20:23Z</time></trkpt><trkpt lat="43.35434001202559" lon="11.41612666232894"><ele>225.0</ele><time>2026-04-11T08:20:24Z</time></trkpt><trkpt lat="43.3542689804752" lon="11.41611047998203"><ele>225.00000000000003</ele><time>2026-04-11T08:20:25Z</time></trkpt><trkpt lat="43.35419682311465" lon="11.416100608585586"><ele>225.0</ele><time>2026-04-11T08:20:26Z</time></trkpt><trkpt lat="43.35413196003273" lon="11.41609654345344"><ele>225.00000000000003</ele><time>2026-04-11T08:20:27Z</time></trkpt><trkpt lat="43.35406325904982" lon="11.416094174784595"><ele>225.00000000000003</ele><time>2026-04-11T08:20:28Z</time></trkpt><trkpt lat="43.35399523366998" lon="11.41608138100229"><ele>225.0</ele><time>2026-04-11T08:20:29Z</time></trkpt><trkpt lat="43.353926821992104" lon="11.416062459396585"><ele>225.00000000000003</ele><time>2026-04-11T08:20:30Z</time></trkpt><trkpt lat="43.35386118716503" lon="11.416051451747013"><ele>225.00000000000003</ele><time>2026-04-11T08:20:31Z</time></trkpt><trkpt lat="43.353785467717486" lon="11.416036509152997"><ele>224.71428571428575</ele><time>2026-04-11T08:20:32Z</time></trkpt><trkpt lat="43.35371638687239" lon="11.416024864661573"><ele>224.42857142857144</ele><time>2026-04-11T08:20:33Z</time></trkpt><trkpt lat="43.35364757156305" lon="11.41601570067196"><ele>224.14285714285717</ele><time>2026-04-11T08:20:34Z</time></trkpt><trkpt lat="43.35357690539805" lon="11.416001030263086"><ele>223.8571428571429</ele><time>2026-04-11T08:20:35Z</time></trkpt><trkpt lat="43.3535038089334" lon="11.415977837200522"><ele>223.57142857142856</ele><time>2026-04-11T08:20:36Z</time></trkpt><trkpt lat="43.353434452277824" lon="11.415955431642447"><ele>223.28571428571428</ele><time>2026-04-11T08:20:37Z</time></trkpt><trkpt lat="43.353361795922396" lon="11.415930967807903"><ele>223.0</ele><time>2026-04-11T08:20:38Z</time></trkpt><trkpt lat="43.35328620147956" lon="11.415911621692226"><ele>222.99999999999997</ele><time>2026-04-11T08:20:39Z</time></trkpt><trkpt lat="43.35320961903402" lon="11.415888577857064"><ele>223.0</ele><time>2026-04-11T08:20:40Z</time></trkpt><trkpt lat="43.353138813344565" lon="11.41586769884953"><ele>223.0</ele><time>2026-04-11T08:20:41Z</time></trkpt><trkpt lat="43.35306386771093" lon="11.415844602750603"><ele>223.0</ele><time>2026-04-11T08:20:42Z</time></trkpt><trkpt lat="43.35298612633663" lon="11.41582030538838"><ele>222.99999999999997</ele><time>2026-04-11T08:20:43Z</time></trkpt><trkpt lat="43.352908152568666" lon="11.41580088096499"><ele>223.0</ele><time>2026-04-11T08:20:44Z</time></trkpt><trkpt lat="43.35283372056384" lon="11.415778556643357"><ele>222.99999999999997</ele><time>2026-04-11T08:20:45Z</time></trkpt><trkpt lat="43.352759073357596" lon="11.415754596657923"><ele>223.0</ele><time>2026-04-11T08:20:46Z</time></trkpt><trkpt lat="43.35268434392799" lon="11.415733145341026"><ele>223.0</ele><time>2026-04-11T08:20:47Z</time></trkpt><trkpt lat="43.35261410295422" lon="11.415708902775156"><ele>223.0</ele><time>2026-04-11T08:20:48Z</time></trkpt><trkpt lat="43.352539954700006" lon="11.415691260488897"><ele>222.99999999999997</ele><time>2026-04-11T08:20:49Z</time></trkpt><trkpt lat="43.35246371159513" lon="11.415674736826817"><ele>223.0</ele><time>2026-04-11T08:20:50Z</time></trkpt><trkpt lat="43.35239198361378" lon="11.415655873260945"><ele>223.0</ele><time>2026-04-11T08:20:51Z</time></trkpt><trkpt lat="43.3523203588419" lon="11.415637829759461"><ele>223.0</ele><time>2026-04-11T08:20:52Z</time></trkpt><trkpt lat="43.35224631965868" lon="11.415624347443597"><ele>223.0</ele><time>2026-04-11T08:20:53Z</time></trkpt><trkpt lat="43.3521662742869" lon="11.415606537396862"><ele>223.0</ele><time>2026-04-11T08:20:54Z</time></trkpt><trkpt lat="43.352096622238065" lon="11.415587647279272"><ele>223.0</ele><time>2026-04-11T08:20:55Z</time></trkpt><trkpt lat="43.35202834252835" lon="11.41556511757583"><ele>223.0</ele><time>2026-04-11T08:20:56Z</time></trkpt><trkpt lat="43.35195590755516" lon="11.415543921702499"><ele>223.0</ele><time>2026-04-11T08:20:57Z</time></trkpt><trkpt lat="43.351883005259964" lon="11.415518863658564"><ele>222.66666666666666</ele><time>2026-04-11T08:20:58Z</time></trkpt><trkpt lat="43.35180922558936" lon="11.415497118270958"><ele>222.33333333333331</ele><time>2026-04-11T08:20:59Z</time></trkpt><trkpt lat="43.351732523769435" lon="11.415471792551617"><ele>222.0</ele><time>2026-04-11T08:21:00Z</time></trkpt><trkpt lat="43.3516551521392" lon="11.415445148303188"><ele>221.66666666666669</ele><time>2026-04-11T08:21:01Z</time></trkpt><trkpt lat="43.35157986204788" lon="11.415425576195922"><ele>221.33333333333334</ele><time>2026-04-11T08:21:02Z</time></trkpt><trkpt lat="43.35149926933746" lon="11.415396944661197"><ele>221.0</ele><time>2026-04-11T08:21:03Z</time></trkpt><trkpt lat="43.35141905335364" lon="11.41537365804993"><ele>220.83333333333334</ele><time>2026-04-11T08:21:04Z</time></trkpt><trkpt lat="43.35134144996035" lon="11.415355594145932"><ele>220.66666666666669</ele><time>2026-04-11T08:21:05Z</time></trkpt><trkpt lat="43.35126657639261" lon="11.415328554965226"><ele>220.5</ele><time>2026-04-11T08:21:06Z</time></trkpt><trkpt lat="43.35119299663873" lon="11.415297887728343"><ele>220.33333333333331</ele><time>2026-04-11T08:21:07Z</time></trkpt><trkpt lat="43.351121573739256" lon="11.41527714555767"><ele>220.16666666666666</ele><time>2026-04-11T08:21:08Z</time></trkpt><trkpt lat="43.35104462311" lon="11.415256401826591"><ele>220.0</ele><time>2026-04-11T08:21:09Z</time></trkpt><trkpt lat="43.3509668185779" lon="11.41523734475898"><ele>219.99999999999997</ele><time>2026-04-11T08:21:10Z</time></trkpt><trkpt lat="43.3509015375493" lon="11.415211264255188"><ele>220.0</ele><time>2026-04-11T08:21:11Z</time></trkpt><trkpt lat="43.35082826968038" lon="11.415191074757018"><ele>220.0</ele><time>2026-04-11T08:21:12Z</time></trkpt><trkpt lat="43.35075930702988" lon="11.415172911187794"><ele>220.0</ele><time>2026-04-11T08:21:13Z</time></trkpt><trkpt lat="43.350691582858765" lon="11.415154513754368"><ele>219.99999999999997</ele><time>2026-04-11T08:21:14Z</time></trkpt><trkpt lat="43.35062916665866" lon="11.415135352415602"><ele>220.0</ele><time>2026-04-11T08:21:15Z</time></trkpt><trkpt lat="43.35050479775435" lon="11.415099320146481"><ele>221.2</ele><time>2026-04-11T08:21:17Z</time></trkpt><trkpt lat="43.35038449328816" lon="11.4150707552867"><ele>222.4</ele><time>2026-04-11T08:21:19Z</time></trkpt><trkpt lat="43.35027441316255" lon="11.415030013509313"><ele>223.60000000000002</ele><time>2026-04-11T08:21:21Z</time></trkpt><trkpt lat="43.35017895523763" lon="11.414966871238821"><ele>224.8</ele><time>2026-04-11T08:21:23Z</time></trkpt><trkpt lat="43.35008629052637" lon="11.414896257017523"><ele>226.0</ele><time>2026-04-11T08:21:25Z</time></trkpt><trkpt lat="43.35000882763044" lon="11.414798044476827"><ele>225.99999999999997</ele><time>2026-04-11T08:21:27Z</time></trkpt><trkpt lat="43.34994204628252" lon="11.414693835781732"><ele>226.0</ele><time>2026-04-11T08:21:29Z</time></trkpt><trkpt lat="43.34991033402482" lon="11.41461715279507"><ele>226.0</ele><time>2026-04-11T08:21:33Z</time></trkpt><trkpt lat="43.34986268064001" lon="11.414519757233695"><ele>226.0</ele><time>2026-04-11T08:21:35Z</time></trkpt><trkpt lat="43.34981409899266" lon="11.414410641453447"><ele>225.99999999999997</ele><time>2026-04-11T08:21:38Z</time></trkpt><trkpt lat="43.349762183415834" lon="11.414305875785272"><ele>226.0</ele><time>2026-04-11T08:21:41Z</time></trkpt><trkpt lat="43.34971711469613" lon="11.414217874088122"><ele>226.14285714285717</ele><time>2026-04-11T08:21:43Z</time></trkpt><trkpt lat="43.3496883948445" lon="11.414136739737023"><ele>226.28571428571428</ele><time>2026-04-11T08:21:45Z</time></trkpt><trkpt lat="43.34966471677466" lon="11.414047938665725"><ele>226.42857142857144</ele><time>2026-04-11T08:21:47Z</time></trkpt><trkpt lat="43.349625189825886" lon="11.413964703494782"><ele>226.57142857142858</ele><time>2026-04-11T08:21:49Z</time></trkpt><trkpt lat="43.34959967311699" lon="11.413880376548533"><ele>226.71428571428572</ele><time>2026-04-11T08:21:51Z</time></trkpt><trkpt lat="43.34956615335484" lon="11.413805322201277"><ele>226.85714285714286</ele><time>2026-04-11T08:21:53Z</time></trkpt><trkpt lat="43.34953379094698" lon="11.413721745656563"><ele>227.0</ele><time>2026-04-11T08:21:55Z</time></trkpt><trkpt lat="43.349494786356544" lon="11.413632171641726"><ele>227.00000000000003</ele><time>2026-04-11T08:21:57Z</time></trkpt><trkpt lat="43.34947622615411" lon="11.413545266410583"><ele>227.0</ele><time>2026-04-11T08:21:59Z</time></trkpt><trkpt lat="43.34944354625775" lon="11.41347066888422"><ele>227.0</ele><time>2026-04-11T08:22:01Z</time></trkpt><trkpt lat="43.3493908891469" lon="11.4133744224416"><ele>227.0</ele><time>2026-04-11T08:22:04Z</time></trkpt><trkpt lat="43.34937432327132" lon="11.413253554140107"><ele>227.00000000000003</ele><time>2026-04-11T08:22:07Z</time></trkpt><trkpt lat="43.34931015530761" lon="11.413198017838834"><ele>227.0</ele><time>2026-04-11T08:22:09Z</time></trkpt><trkpt lat="43.349260870099705" lon="11.413093293059127"><ele>227.00000000000003</ele><time>2026-04-11T08:22:12Z</time></trkpt><trkpt lat="43.34920606930483" lon="11.41299853190454"><ele>227.0</ele><time>2026-04-11T08:22:15Z</time></trkpt><trkpt lat="43.349184723993964" lon="11.41291143521855"><ele>227.0</ele><time>2026-04-11T08:22:17Z</time></trkpt><trkpt lat="43.34914170052942" lon="11.412805338775962"><ele>227.0</ele><time>2026-04-11T08:22:20Z</time></trkpt><trkpt lat="43.349110362534994" lon="11.41268607834059"><ele>227.00000000000003</ele><time>2026-04-11T08:22:23Z</time></trkpt><trkpt lat="43.34908042693483" lon="11.412566902862741"><ele>227.0</ele><time>2026-04-11T08:22:25Z</time></trkpt><trkpt lat="43.34905116138488" lon="11.412482602094506"><ele>226.83333333333334</ele><time>2026-04-11T08:22:26Z</time></trkpt><trkpt lat="43.34900734000048" lon="11.412325580074178"><ele>226.66666666666669</ele><time>2026-04-11T08:22:28Z</time></trkpt><trkpt lat="43.348997624386755" lon="11.412231066174922"><ele>226.5</ele><time>2026-04-11T08:22:29Z</time></trkpt><trkpt lat="43.34896731579905" lon="11.412116725641587"><ele>226.33333333333331</ele><time>2026-04-11T08:22:32Z</time></trkpt><trkpt lat="43.34896006601337" lon="11.41201394974657"><ele>226.16666666666666</ele><time>2026-04-11T08:22:34Z</time></trkpt><trkpt lat="43.34895233575273" lon="11.411907573090664"><ele>226.0</ele><time>2026-04-11T08:22:36Z</time></trkpt><trkpt lat="43.348931374359836" lon="11.411814360717848"><ele>225.99999999999997</ele><time>2026-04-11T08:22:38Z</time></trkpt><trkpt lat="43.34891327761769" lon="11.41172229103733"><ele>226.0</ele><time>2026-04-11T08:22:40Z</time></trkpt><trkpt lat="43.348882090265604" lon="11.411641141239015"><ele>226.0</ele><time>2026-04-11T08:22:42Z</time></trkpt><trkpt lat="43.34885187016282" lon="11.41150529448861"><ele>226.0</ele><time>2026-04-11T08:22:45Z</time></trkpt><trkpt lat="43.34883927561563" lon="11.411399526108248"><ele>225.99999999999997</ele><time>2026-04-11T08:22:47Z</time></trkpt><trkpt lat="43.34881150355572" lon="11.411310374975315"><ele>226.0</ele><time>2026-04-11T08:22:49Z</time></trkpt><trkpt lat="43.3487833111726" lon="11.411200693171217"><ele>227.71428571428572</ele><time>2026-04-11T08:22:51Z</time></trkpt><trkpt lat="43.34875434799563" lon="11.411089894848326"><ele>229.42857142857142</ele><time>2026-04-11T08:22:53Z</time></trkpt><trkpt lat="43.34873522081995" lon="11.410990197536515"><ele>231.14285714285714</ele><time>2026-04-11T08:22:55Z</time></trkpt><trkpt lat="43.34871256825588" lon="11.410893230967018"><ele>232.85714285714286</ele><time>2026-04-11T08:22:57Z</time></trkpt><trkpt lat="43.34874416707813" lon="11.410983176207601"><ele>234.57142857142856</ele><time>2026-04-11T08:22:58Z</time></trkpt><trkpt lat="43.34872244932867" lon="11.410899536771433"><ele>236.28571428571428</ele><time>2026-04-11T08:23:00Z</time></trkpt><trkpt lat="43.348688545282926" lon="11.410823028386062"><ele>238.0</ele><time>2026-04-11T08:23:02Z</time></trkpt><trkpt lat="43.348650633785326" lon="11.410697616945832"><ele>238.0</ele><time>2026-04-11T08:23:05Z</time></trkpt><trkpt lat="43.34862498460374" lon="11.410610068931774"><ele>238.0</ele><time>2026-04-11T08:23:07Z</time></trkpt><trkpt lat="43.34860072556536" lon="11.410517023880315"><ele>238.0</ele><time>2026-04-11T08:23:09Z</time></trkpt><trkpt lat="43.348570733277406" lon="11.410421851656004"><ele>238.0</ele><time>2026-04-11T08:23:11Z</time></trkpt><trkpt lat="43.34854673846063" lon="11.410327660966594"><ele>238.0</ele><time>2026-04-11T08:23:13Z</time></trkpt><trkpt lat="43.348523309615985" lon="11.410247261259837"><ele>238.0</ele><time>2026-04-11T08:23:15Z</time></trkpt><trkpt lat="43.34850778068687" lon="11.410160629329742"><ele>238.0</ele><time>2026-04-11T08:23:17Z</time></trkpt><trkpt lat="43.34848499930017" lon="11.410062611214899"><ele>238.33333333333331</ele><time>2026-04-11T08:23:19Z</time></trkpt><trkpt lat="43.348460480335014" lon="11.409954089689542"><ele>238.66666666666666</ele><time>2026-04-11T08:23:21Z</time></trkpt><trkpt lat="43.34842045510884" lon="11.409835082233457"><ele>239.0</ele><time>2026-04-11T08:23:24Z</time></trkpt><trkpt lat="43.348397220871526" lon="11.409726274825545"><ele>239.33333333333331</ele><time>2026-04-11T08:23:26Z</time></trkpt><trkpt lat="43.34837169723773" lon="11.409596771573803"><ele>239.66666666666666</ele><time>2026-04-11T08:23:29Z</time></trkpt><trkpt lat="43.34835611902812" lon="11.409494007040257"><ele>240.0</ele><time>2026-04-11T08:23:31Z</time></trkpt><trkpt lat="43.34834242884261" lon="11.409407553951114"><ele>240.0</ele><time>2026-04-11T08:23:33Z</time></trkpt><trkpt lat="43.348323646990906" lon="11.4092681848122"><ele>240.0</ele><time>2026-04-11T08:23:36Z</time></trkpt><trkpt lat="43.34829866539346" lon="11.409145323268353"><ele>240.0</ele><time>2026-04-11T08:23:39Z</time></trkpt><trkpt lat="43.34828520145519" lon="11.409059531072021"><ele>240.0</ele><time>2026-04-11T08:23:41Z</time></trkpt><trkpt lat="43.348252775249065" lon="11.408940192859472"><ele>240.0</ele><time>2026-04-11T08:23:44Z</time></trkpt><trkpt lat="43.34824244840555" lon="11.408834956846016"><ele>240.0</ele><time>2026-04-11T08:23:47Z</time></trkpt><trkpt lat="43.348222845352474" lon="11.408746606859495"><ele>240.6</ele><time>2026-04-11T08:23:49Z</time></trkpt><trkpt lat="43.34821710310326" lon="11.408649860002894"><ele>241.2</ele><time>2026-04-11T08:23:52Z</time></trkpt><trkpt lat="43.34819262436629" lon="11.408563674667134"><ele>241.8</ele><time>2026-04-11T08:23:54Z</time></trkpt><trkpt lat="43.34817246500062" lon="11.408411544327244"><ele>242.4</ele><time>2026-04-11T08:23:56Z</time></trkpt><trkpt lat="43.34813285643278" lon="11.408264062402335"><ele>243.0</ele><time>2026-04-11T08:23:58Z</time></trkpt><trkpt lat="43.348112675343806" lon="11.408133264802794"><ele>243.0</ele><time>2026-04-11T08:24:00Z</time></trkpt><trkpt lat="43.348090277290865" lon="11.408009468705247"><ele>243.0</ele><time>2026-04-11T08:24:02Z</time></trkpt><trkpt lat="43.34808248235809" lon="11.40790810781007"><ele>243.0</ele><time>2026-04-11T08:24:05Z</time></trkpt><trkpt lat="43.348065788049176" lon="11.407816464690184"><ele>243.0</ele><time>2026-04-11T08:24:07Z</time></trkpt><trkpt lat="43.34806518806523" lon="11.407709009571594"><ele>243.0</ele><time>2026-04-11T08:24:10Z</time></trkpt><trkpt lat="43.34806990926449" lon="11.40759556135735"><ele>243.0</ele><time>2026-04-11T08:24:13Z</time></trkpt><trkpt lat="43.34806690744954" lon="11.407492431793479"><ele>243.5</ele><time>2026-04-11T08:24:16Z</time></trkpt><trkpt lat="43.34806264122515" lon="11.407384611361467"><ele>244.0</ele><time>2026-04-11T08:24:19Z</time></trkpt><trkpt lat="43.34806691485485" lon="11.407278580880417"><ele>244.5</ele><time>2026-04-11T08:24:22Z</time></trkpt><trkpt lat="43.34806967757304" lon="11.40717568659135"><ele>245.0</ele><time>2026-04-11T08:24:25Z</time></trkpt><trkpt lat="43.34808078935922" lon="11.40705825078825"><ele>245.5</ele><time>2026-04-11T08:24:28Z</time></trkpt><trkpt lat="43.34809137027862" lon="11.406938507942996"><ele>246.0</ele><time>2026-04-11T08:24:30Z</time></trkpt><trkpt lat="43.34808593284255" lon="11.4068487448299"><ele>246.5</ele><time>2026-04-11T08:24:33Z</time></trkpt><trkpt lat="43.34810175619985" lon="11.406747146084395"><ele>247.0</ele><time>2026-04-11T08:24:36Z</time></trkpt><trkpt lat="43.34811921649112" lon="11.406646087592877"><ele>247.5</ele><time>2026-04-11T08:24:39Z</time></trkpt><trkpt lat="43.3481424481876" lon="11.406542477377238"><ele>248.0</ele><time>2026-04-11T08:24:42Z</time></trkpt><trkpt lat="43.3481555185762" lon="11.406446168311078"><ele>248.5</ele><time>2026-04-11T08:24:45Z</time></trkpt><trkpt lat="43.348179776985816" lon="11.406348013648431"><ele>249.0</ele><time>2026-04-11T08:24:48Z</time></trkpt><trkpt lat="43.34820128461181" lon="11.406244734763064"><ele>250.16666666666666</ele><time>2026-04-11T08:24:51Z</time></trkpt><trkpt lat="43.34822618146694" lon="11.406150542469177"><ele>251.33333333333331</ele><time>2026-04-11T08:24:54Z</time></trkpt><trkpt lat="43.34826301346662" lon="11.40606140604496"><ele>252.5</ele><time>2026-04-11T08:24:57Z</time></trkpt><trkpt lat="43.348274884326855" lon="11.405949572958018"><ele>253.66666666666666</ele><time>2026-04-11T08:25:00Z</time></trkpt><trkpt lat="43.34829345330835" lon="11.405848201008709"><ele>254.83333333333331</ele><time>2026-04-11T08:25:03Z</time></trkpt><trkpt lat="43.34831777189234" lon="11.405738266642647"><ele>256.0</ele><time>2026-04-11T08:25:06Z</time></trkpt><trkpt lat="43.34834410795328" lon="11.405634879639292"><ele>255.99999999999997</ele><time>2026-04-11T08:25:09Z</time></trkpt><trkpt lat="43.34836807844488" lon="11.405523796729439"><ele>256.0</ele><time>2026-04-11T08:25:12Z</time></trkpt><trkpt lat="43.34838783095081" lon="11.405414365570799"><ele>256.0</ele><time>2026-04-11T08:25:15Z</time></trkpt><trkpt lat="43.348406342082725" lon="11.405304672852777"><ele>256.0</ele><time>2026-04-11T08:25:18Z</time></trkpt><trkpt lat="43.34842019849594" lon="11.405215631798415"><ele>255.99999999999997</ele><time>2026-04-11T08:25:21Z</time></trkpt><trkpt lat="43.348434124044296" lon="11.40511740970538"><ele>256.0</ele><time>2026-04-11T08:25:24Z</time></trkpt><trkpt lat="43.34846611795442" lon="11.40501740794861"><ele>257.8333333333333</ele><time>2026-04-11T08:25:27Z</time></trkpt><trkpt lat="43.34849664117937" lon="11.404907139988238"><ele>259.66666666666663</ele><time>2026-04-11T08:25:30Z</time></trkpt><trkpt lat="43.348515836867136" lon="11.404798157964"><ele>261.5</ele><time>2026-04-11T08:25:33Z</time></trkpt><trkpt lat="43.34854002802591" lon="11.404696076381272"><ele>263.3333333333333</ele><time>2026-04-11T08:25:36Z</time></trkpt><trkpt lat="43.34857217306081" lon="11.404593011073544"><ele>265.1666666666667</ele><time>2026-04-11T08:25:39Z</time></trkpt><trkpt lat="43.3486176288749" lon="11.404489585233359"><ele>267.0</ele><time>2026-04-11T08:25:42Z</time></trkpt><trkpt lat="43.34866214918186" lon="11.404400807186557"><ele>267.3333333333333</ele><time>2026-04-11T08:25:45Z</time></trkpt><trkpt lat="43.348709289528614" lon="11.404322243031247"><ele>267.6666666666667</ele><time>2026-04-11T08:25:48Z</time></trkpt><trkpt lat="43.34876168872226" lon="11.404235311324994"><ele>268.0</ele><time>2026-04-11T08:25:51Z</time></trkpt><trkpt lat="43.34881270479799" lon="11.404119016786888"><ele>268.33333333333337</ele><time>2026-04-11T08:26:08Z</time></trkpt><trkpt lat="43.348849246215245" lon="11.404025032621322"><ele>268.6666666666667</ele><time>2026-04-11T08:26:16Z</time></trkpt><trkpt lat="43.34881619858178" lon="11.40393059480626"><ele>269.0</ele><time>2026-04-11T08:26:32Z</time></trkpt><trkpt lat="43.34887383568247" lon="11.403893588289678"><ele>269.5</ele><time>2026-04-11T08:26:38Z</time></trkpt><trkpt lat="43.348919554383926" lon="11.403807258522725"><ele>270.0</ele><time>2026-04-11T08:26:41Z</time></trkpt><trkpt lat="43.348975887878375" lon="11.40371712212194"><ele>270.5</ele><time>2026-04-11T08:26:44Z</time></trkpt><trkpt lat="43.34901965107369" lon="11.403650543848691"><ele>271.0</ele><time>2026-04-11T08:26:46Z</time></trkpt><trkpt lat="43.349061635894074" lon="11.403533025339089"><ele>271.5</ele><time>2026-04-11T08:26:49Z</time></trkpt><trkpt lat="43.34909494295317" lon="11.403455925760317"><ele>272.0</ele><time>2026-04-11T08:26:51Z</time></trkpt><trkpt lat="43.349104880224665" lon="11.403368629782268"><ele>272.0</ele><time>2026-04-11T08:26:54Z</time></trkpt><trkpt lat="43.34911377473516" lon="11.403276094436624"><ele>272.0</ele><time>2026-04-11T08:26:57Z</time></trkpt><trkpt lat="43.34912005455677" lon="11.403179667751727"><ele>272.0</ele><time>2026-04-11T08:27:00Z</time></trkpt><trkpt lat="43.34913415738474" lon="11.403078978955014"><ele>272.0</ele><time>2026-04-11T08:27:03Z</time></trkpt><trkpt lat="43.34912015733591" lon="11.402972493277282"><ele>272.0</ele><time>2026-04-11T08:27:06Z</time></trkpt><trkpt lat="43.3491499295667" lon="11.402868338635349"><ele>272.0</ele><time>2026-04-11T08:27:09Z</time></trkpt><trkpt lat="43.34914566209266" lon="11.40276247966315"><ele>272.99999999999994</ele><time>2026-04-11T08:27:12Z</time></trkpt><trkpt lat="43.34915062454182" lon="11.40265078143981"><ele>274.0</ele><time>2026-04-11T08:27:15Z</time></trkpt><trkpt lat="43.3491711997086" lon="11.402567280146858"><ele>275.0</ele><time>2026-04-11T08:27:17Z</time></trkpt><trkpt lat="43.34917638297493" lon="11.40248063670038"><ele>276.0</ele><time>2026-04-11T08:27:19Z</time></trkpt><trkpt lat="43.34919653707879" lon="11.402386647881032"><ele>277.0</ele><time>2026-04-11T08:27:21Z</time></trkpt><trkpt lat="43.34922172457208" lon="11.402264662386097"><ele>277.99999999999994</ele><time>2026-04-11T08:27:24Z</time></trkpt><trkpt lat="43.34923684641401" lon="11.402173187599296"><ele>279.0</ele><time>2026-04-11T08:27:26Z</time></trkpt><trkpt lat="43.349281516753976" lon="11.40206651605556"><ele>279.4285714285714</ele><time>2026-04-11T08:27:29Z</time></trkpt><trkpt lat="43.34932005531198" lon="11.401996037301844"><ele>279.85714285714283</ele><time>2026-04-11T08:27:31Z</time></trkpt><trkpt lat="43.3493744229893" lon="11.401906312848762"><ele>280.2857142857143</ele><time>2026-04-11T08:27:34Z</time></trkpt><trkpt lat="43.34944175420445" lon="11.401832615479504"><ele>280.71428571428567</ele><time>2026-04-11T08:27:37Z</time></trkpt><trkpt lat="43.3495030938204" lon="11.40178524674952"><ele>281.1428571428571</ele><time>2026-04-11T08:27:40Z</time></trkpt><trkpt lat="43.34956923908759" lon="11.401742609759026"><ele>281.57142857142856</ele><time>2026-04-11T08:27:43Z</time></trkpt><trkpt lat="43.349628100999915" lon="11.401710220372948"><ele>282.0</ele><time>2026-04-11T08:27:45Z</time></trkpt><trkpt lat="43.349712263004456" lon="11.40168089873375"><ele>282.0</ele><time>2026-04-11T08:27:48Z</time></trkpt><trkpt lat="43.349795831061236" lon="11.401655639442781"><ele>282.0</ele><time>2026-04-11T08:27:51Z</time></trkpt><trkpt lat="43.34988462223212" lon="11.401642545206805"><ele>282.0</ele><time>2026-04-11T08:27:54Z</time></trkpt><trkpt lat="43.349943104680484" lon="11.401604733977251"><ele>282.0</ele><time>2026-04-11T08:27:56Z</time></trkpt><trkpt lat="43.35001254858964" lon="11.401552296679247"><ele>282.0</ele><time>2026-04-11T08:27:59Z</time></trkpt><trkpt lat="43.35003910498323" lon="11.401448732074037"><ele>282.0</ele><time>2026-04-11T08:28:02Z</time></trkpt><trkpt lat="43.35005718131822" lon="11.401353112435118"><ele>283.42857142857144</ele><time>2026-04-11T08:28:05Z</time></trkpt><trkpt lat="43.3500851582243" lon="11.401271907596499"><ele>284.85714285714283</ele><time>2026-04-11T08:28:07Z</time></trkpt><trkpt lat="43.350073987310324" lon="11.40117217363502"><ele>286.2857142857143</ele><time>2026-04-11T08:28:10Z</time></trkpt><trkpt lat="43.35005360734989" lon="11.40106521620889"><ele>287.7142857142857</ele><time>2026-04-11T08:28:14Z</time></trkpt><trkpt lat="43.3500097115432" lon="11.400979861489791"><ele>289.14285714285717</ele><time>2026-04-11T08:28:17Z</time></trkpt><trkpt lat="43.349967919812066" lon="11.400907293159689"><ele>290.57142857142856</ele><time>2026-04-11T08:28:20Z</time></trkpt><trkpt lat="43.34990893837952" lon="11.400834822183304"><ele>292.0</ele><time>2026-04-11T08:28:23Z</time></trkpt><trkpt lat="43.34984046996406" lon="11.400762500014318"><ele>292.0</ele><time>2026-04-11T08:28:26Z</time></trkpt><trkpt lat="43.34976459824469" lon="11.400736612563513"><ele>292.0</ele><time>2026-04-11T08:28:29Z</time></trkpt><trkpt lat="43.34969444146277" lon="11.400693082067665"><ele>292.0</ele><time>2026-04-11T08:28:32Z</time></trkpt><trkpt lat="43.34961948072027" lon="11.400694368122092"><ele>292.0</ele><time>2026-04-11T08:28:35Z</time></trkpt><trkpt lat="43.34954348648379" lon="11.400708488867863"><ele>292.0</ele><time>2026-04-11T08:28:38Z</time></trkpt><trkpt lat="43.349480915649096" lon="11.400725940751233"><ele>292.0</ele><time>2026-04-11T08:28:40Z</time></trkpt><trkpt lat="43.34939340997426" lon="11.400754140453705"><ele>292.3333333333333</ele><time>2026-04-11T08:28:43Z</time></trkpt><trkpt lat="43.34933055979835" lon="11.40077264940327"><ele>292.66666666666663</ele><time>2026-04-11T08:28:45Z</time></trkpt><trkpt lat="43.34925010474478" lon="11.400814227484501"><ele>293.0</ele><time>2026-04-11T08:28:48Z</time></trkpt><trkpt lat="43.349165598977066" lon="11.400851699592284"><ele>293.3333333333333</ele><time>2026-04-11T08:28:51Z</time></trkpt><trkpt lat="43.34908180791859" lon="11.400889002729832"><ele>293.6666666666667</ele><time>2026-04-11T08:28:54Z</time></trkpt><trkpt lat="43.349013858612125" lon="11.400936574199843"><ele>294.0</ele><time>2026-04-11T08:28:57Z</time></trkpt><trkpt lat="43.34893727883482" lon="11.400926581869305"><ele>295.0</ele><time>2026-04-11T08:29:00Z</time></trkpt><trkpt lat="43.34885352464193" lon="11.400934491693537"><ele>296.0</ele><time>2026-04-11T08:29:03Z</time></trkpt><trkpt lat="43.34876857014467" lon="11.400910485251291"><ele>297.0</ele><time>2026-04-11T08:29:06Z</time></trkpt><trkpt lat="43.34868571556729" lon="11.400860208397678"><ele>298.0</ele><time>2026-04-11T08:29:09Z</time></trkpt><trkpt lat="43.348626707436736" lon="11.40081966866491"><ele>299.0</ele><time>2026-04-11T08:29:11Z</time></trkpt><trkpt lat="43.34856728387798" lon="11.400783765803931"><ele>300.0</ele><time>2026-04-11T08:29:13Z</time></trkpt><trkpt lat="43.34848646381639" lon="11.40071926290877"><ele>300.0</ele><time>2026-04-11T08:29:16Z</time></trkpt><trkpt lat="43.34840940992755" lon="11.40066108447132"><ele>300.0</ele><time>2026-04-11T08:29:19Z</time></trkpt><trkpt lat="43.348354025475516" lon="11.400612071335793"><ele>300.0</ele><time>2026-04-11T08:29:21Z</time></trkpt><trkpt lat="43.348296094765246" lon="11.400570593840795"><ele>300.0</ele><time>2026-04-11T08:29:23Z</time></trkpt><trkpt lat="43.34821754880065" lon="11.40052183785969"><ele>300.0</ele><time>2026-04-11T08:29:26Z</time></trkpt><trkpt lat="43.3481430419972" lon="11.400470997254741"><ele>300.0</ele><time>2026-04-11T08:29:29Z</time></trkpt><trkpt lat="43.348065189414825" lon="11.40040725526667"><ele>301.1666666666667</ele><time>2026-04-11T08:29:32Z</time></trkpt><trkpt lat="43.347991846882415" lon="11.400342893885187"><ele>302.3333333333333</ele><time>2026-04-11T08:29:35Z</time></trkpt><trkpt lat="43.347923424365945" lon="11.400292227064837"><ele>303.5</ele><time>2026-04-11T08:29:38Z</time></trkpt><trkpt lat="43.34784523280432" lon="11.400238761966692"><ele>304.66666666666663</ele><time>2026-04-11T08:29:41Z</time></trkpt><trkpt lat="43.34776669933676" lon="11.400186812784"><ele>305.8333333333333</ele><time>2026-04-11T08:29:44Z</time></trkpt><trkpt lat="43.347706405004956" lon="11.400133993406135"><ele>307.0</ele><time>2026-04-11T08:29:47Z</time></trkpt><trkpt lat="43.3476595345226" lon="11.40004602293671"><ele>306.99999999999994</ele><time>2026-04-11T08:29:50Z</time></trkpt><trkpt lat="43.347611851965375" lon="11.399952147987214"><ele>307.0</ele><time>2026-04-11T08:29:53Z</time></trkpt><trkpt lat="43.34760333828348" lon="11.39984560126702"><ele>307.0</ele><time>2026-04-11T08:29:56Z</time></trkpt><trkpt lat="43.34761552767879" lon="11.399749393103805"><ele>307.0</ele><time>2026-04-11T08:29:59Z</time></trkpt><trkpt lat="43.34763056158365" lon="11.399664178792433"><ele>307.0</ele><time>2026-04-11T08:30:02Z</time></trkpt><trkpt lat="43.347665924707165" lon="11.399576406356596"><ele>306.99999999999994</ele><time>2026-04-11T08:30:06Z</time></trkpt><trkpt lat="43.34770238623875" lon="11.399488149843505"><ele>307.0</ele><time>2026-04-11T08:30:09Z</time></trkpt><trkpt lat="43.34776136870648" lon="11.399408028620252"><ele>307.16666666666663</ele><time>2026-04-11T08:30:12Z</time></trkpt><trkpt lat="43.34781679333213" lon="11.399317475366294"><ele>307.3333333333333</ele><time>2026-04-11T08:30:15Z</time></trkpt><trkpt lat="43.347875906028776" lon="11.39926187005785"><ele>307.5</ele><time>2026-04-11T08:30:18Z</time></trkpt><trkpt lat="43.34793807919793" lon="11.39921264062142"><ele>307.6666666666667</ele><time>2026-04-11T08:30:21Z</time></trkpt><trkpt lat="43.34801377224383" lon="11.399174851123105"><ele>307.83333333333337</ele><time>2026-04-11T08:30:24Z</time></trkpt><trkpt lat="43.3480910920043" lon="11.399104994747267"><ele>308.0</ele><time>2026-04-11T08:30:27Z</time></trkpt><trkpt lat="43.34816519820321" lon="11.399047682824067"><ele>308.33333333333337</ele><time>2026-04-11T08:30:30Z</time></trkpt><trkpt lat="43.34822904573681" lon="11.399009336411337"><ele>308.6666666666667</ele><time>2026-04-11T08:30:33Z</time></trkpt><trkpt lat="43.34827353631597" lon="11.398938494404362"><ele>309.0</ele><time>2026-04-11T08:30:36Z</time></trkpt><trkpt lat="43.34826821333027" lon="11.39881999465359"><ele>309.3333333333333</ele><time>2026-04-11T08:30:40Z</time></trkpt><trkpt lat="43.34823012268608" lon="11.398707869277281"><ele>309.66666666666663</ele><time>2026-04-11T08:30:43Z</time></trkpt><trkpt lat="43.34819616517669" lon="11.398614145426016"><ele>310.0</ele><time>2026-04-11T08:30:45Z</time></trkpt><trkpt lat="43.34813783865724" lon="11.398526630856487"><ele>309.0</ele><time>2026-04-11T08:30:47Z</time></trkpt><trkpt lat="43.348054049661236" lon="11.398497112922433"><ele>308.0</ele><time>2026-04-11T08:30:49Z</time></trkpt><trkpt lat="43.34795403996418" lon="11.39853423900289"><ele>307.0</ele><time>2026-04-11T08:30:51Z</time></trkpt><trkpt lat="43.3478567602828" lon="11.398584797037744"><ele>306.0</ele><time>2026-04-11T08:30:53Z</time></trkpt><trkpt lat="43.34774962899262" lon="11.398587840372963"><ele>305.0</ele><time>2026-04-11T08:30:55Z</time></trkpt><trkpt lat="43.34761388259431" lon="11.398638020631866"><ele>303.8</ele><time>2026-04-11T08:30:57Z</time></trkpt><trkpt lat="43.34754831685066" lon="11.39866669029637"><ele>302.6</ele><time>2026-04-11T08:30:58Z</time></trkpt><trkpt lat="43.34743241738416" lon="11.398681058236727"><ele>301.4</ele><time>2026-04-11T08:31:00Z</time></trkpt><trkpt lat="43.34732166422294" lon="11.398703340968197"><ele>300.2</ele><time>2026-04-11T08:31:02Z</time></trkpt><trkpt lat="43.34721732322928" lon="11.398724108398024"><ele>299.0</ele><time>2026-04-11T08:31:04Z</time></trkpt><trkpt lat="43.34709936631958" lon="11.398726762894965"><ele>299.59999999999997</ele><time>2026-04-11T08:31:06Z</time></trkpt><trkpt lat="43.346993012291335" lon="11.398773414758827"><ele>300.2</ele><time>2026-04-11T08:31:08Z</time></trkpt><trkpt lat="43.34688990830384" lon="11.39882798607351"><ele>300.79999999999995</ele><time>2026-04-11T08:31:10Z</time></trkpt><trkpt lat="43.34680346983383" lon="11.39890706177646"><ele>301.4</ele><time>2026-04-11T08:31:12Z</time></trkpt><trkpt lat="43.34673016062482" lon="11.398992052311895"><ele>302.0</ele><time>2026-04-11T08:31:14Z</time></trkpt><trkpt lat="43.34665170041585" lon="11.399072672376649"><ele>302.0</ele><time>2026-04-11T08:31:16Z</time></trkpt><trkpt lat="43.34657239354625" lon="11.399192970407192"><ele>302.0</ele><time>2026-04-11T08:31:18Z</time></trkpt><trkpt lat="43.34649638270495" lon="11.399312894750501"><ele>302.0</ele><time>2026-04-11T08:31:20Z</time></trkpt><trkpt lat="43.346454338608126" lon="11.399379997396167"><ele>302.0</ele><time>2026-04-11T08:31:21Z</time></trkpt><trkpt lat="43.34640828525052" lon="11.399453498474408"><ele>302.0</ele><time>2026-04-11T08:31:22Z</time></trkpt><trkpt lat="43.34636337748384" lon="11.399525171123937"><ele>302.0</ele><time>2026-04-11T08:31:23Z</time></trkpt><trkpt lat="43.3463192570064" lon="11.399595141765689"><ele>301.4</ele><time>2026-04-11T08:31:24Z</time></trkpt><trkpt lat="43.34627499598147" lon="11.399665148852938"><ele>300.79999999999995</ele><time>2026-04-11T08:31:25Z</time></trkpt><trkpt lat="43.346230797340034" lon="11.399735057101966"><ele>300.2</ele><time>2026-04-11T08:31:26Z</time></trkpt><trkpt lat="43.346149708696025" lon="11.399861295181058"><ele>299.59999999999997</ele><time>2026-04-11T08:31:28Z</time></trkpt><trkpt lat="43.34607603506503" lon="11.399975510375665"><ele>299.0</ele><time>2026-04-11T08:31:30Z</time></trkpt><trkpt lat="43.34601862983275" lon="11.400096734367914"><ele>299.0</ele><time>2026-04-11T08:31:32Z</time></trkpt><trkpt lat="43.345953476995405" lon="11.40016550858984"><ele>299.0</ele><time>2026-04-11T08:31:34Z</time></trkpt><trkpt lat="43.34589650145815" lon="11.400253836074105"><ele>299.0</ele><time>2026-04-11T08:31:36Z</time></trkpt><trkpt lat="43.3458396609899" lon="11.400341954344698"><ele>299.0</ele><time>2026-04-11T08:31:38Z</time></trkpt><trkpt lat="43.3457738627139" lon="11.400442574264078"><ele>299.0</ele><time>2026-04-11T08:31:40Z</time></trkpt><trkpt lat="43.34569528516656" lon="11.400561229668158"><ele>299.0</ele><time>2026-04-11T08:31:43Z</time></trkpt><trkpt lat="43.34565076023515" lon="11.400657064620148"><ele>299.0</ele><time>2026-04-11T08:31:45Z</time></trkpt><trkpt lat="43.345585069805026" lon="11.400729345113701"><ele>299.0</ele><time>2026-04-11T08:31:47Z</time></trkpt><trkpt lat="43.345516566043436" lon="11.400854602606575"><ele>299.0</ele><time>2026-04-11T08:31:49Z</time></trkpt><trkpt lat="43.345444905180116" lon="11.400957501199553"><ele>299.0</ele><time>2026-04-11T08:31:51Z</time></trkpt><trkpt lat="43.345338225944346" lon="11.4010456593984"><ele>299.0</ele><time>2026-04-11T08:31:53Z</time></trkpt><trkpt lat="43.34528634168008" lon="11.401096037349667"><ele>299.0</ele><time>2026-04-11T08:31:54Z</time></trkpt><trkpt lat="43.34516282273133" lon="11.401164585309946"><ele>299.0</ele><time>2026-04-11T08:31:56Z</time></trkpt><trkpt lat="43.34509207194313" lon="11.401181508138388"><ele>299.0</ele><time>2026-04-11T08:31:57Z</time></trkpt><trkpt lat="43.34503480624473" lon="11.401219405333935"><ele>299.0</ele><time>2026-04-11T08:31:58Z</time></trkpt><trkpt lat="43.3449564221098" lon="11.401242297308702"><ele>299.0</ele><time>2026-04-11T08:31:59Z</time></trkpt><trkpt lat="43.34489364572894" lon="11.401275750039073"><ele>299.0</ele><time>2026-04-11T08:32:00Z</time></trkpt><trkpt lat="43.34480709278458" lon="11.401302237160353"><ele>299.0</ele><time>2026-04-11T08:32:01Z</time></trkpt><trkpt lat="43.34473078632542" lon="11.401317755492903"><ele>299.0</ele><time>2026-04-11T08:32:02Z</time></trkpt><trkpt lat="43.34466205407959" lon="11.401308452084468"><ele>299.0</ele><time>2026-04-11T08:32:03Z</time></trkpt><trkpt lat="43.34458297352512" lon="11.401309022571086"><ele>299.0</ele><time>2026-04-11T08:32:04Z</time></trkpt><trkpt lat="43.34449826385866" lon="11.40130744956137"><ele>299.0</ele><time>2026-04-11T08:32:05Z</time></trkpt><trkpt lat="43.34441526122618" lon="11.40131110822282"><ele>298.6666666666667</ele><time>2026-04-11T08:32:06Z</time></trkpt><trkpt lat="43.344345109691616" lon="11.40132067488012"><ele>298.33333333333337</ele><time>2026-04-11T08:32:07Z</time></trkpt><trkpt lat="43.344267657830684" lon="11.401350702439592"><ele>298.0</ele><time>2026-04-11T08:32:08Z</time></trkpt><trkpt lat="43.34419026519273" lon="11.401347696713556"><ele>297.6666666666667</ele><time>2026-04-11T08:32:09Z</time></trkpt><trkpt lat="43.344068661411576" lon="11.401391749194651"><ele>297.3333333333333</ele><time>2026-04-11T08:32:11Z</time></trkpt><trkpt lat="43.34400487974752" lon="11.40140609188967"><ele>297.0</ele><time>2026-04-11T08:32:12Z</time></trkpt><trkpt lat="43.343890878451546" lon="11.401445957923508"><ele>296.0</ele><time>2026-04-11T08:32:14Z</time></trkpt><trkpt lat="43.34382430758618" lon="11.401484723373844"><ele>295.0</ele><time>2026-04-11T08:32:15Z</time></trkpt><trkpt lat="43.34369579560416" lon="11.401561320845877"><ele>294.0</ele><time>2026-04-11T08:32:17Z</time></trkpt><trkpt lat="43.343613039900966" lon="11.401609216713519"><ele>293.0</ele><time>2026-04-11T08:32:18Z</time></trkpt><trkpt lat="43.343491070617816" lon="11.4017059188861"><ele>292.0</ele><time>2026-04-11T08:32:20Z</time></trkpt><trkpt lat="43.34341421794173" lon="11.401747060731811"><ele>292.0</ele><time>2026-04-11T08:32:21Z</time></trkpt><trkpt lat="43.34335857837347" lon="11.401794076065782"><ele>292.0</ele><time>2026-04-11T08:32:22Z</time></trkpt><trkpt lat="43.34330583238419" lon="11.401854223423827"><ele>292.0</ele><time>2026-04-11T08:32:23Z</time></trkpt><trkpt lat="43.34326065822531" lon="11.401931941541493"><ele>292.0</ele><time>2026-04-11T08:32:24Z</time></trkpt><trkpt lat="43.343214134997574" lon="11.402010342910826"><ele>292.0</ele><time>2026-04-11T08:32:25Z</time></trkpt><trkpt lat="43.34317360740615" lon="11.402089626992817"><ele>292.0</ele><time>2026-04-11T08:32:26Z</time></trkpt><trkpt lat="43.34313954011338" lon="11.40218160065938"><ele>292.0</ele><time>2026-04-11T08:32:27Z</time></trkpt><trkpt lat="43.34311206082851" lon="11.402262096284783"><ele>291.4</ele><time>2026-04-11T08:32:28Z</time></trkpt><trkpt lat="43.34309015666837" lon="11.40235067233892"><ele>290.79999999999995</ele><time>2026-04-11T08:32:29Z</time></trkpt><trkpt lat="43.343076656419086" lon="11.402517872821063"><ele>290.2</ele><time>2026-04-11T08:32:31Z</time></trkpt><trkpt lat="43.3430705809519" lon="11.402688921690267"><ele>289.59999999999997</ele><time>2026-04-11T08:32:33Z</time></trkpt><trkpt lat="43.34306525277061" lon="11.402791579195286"><ele>289.0</ele><time>2026-04-11T08:32:34Z</time></trkpt><trkpt lat="43.34303861975606" lon="11.402887657403923"><ele>289.0</ele><time>2026-04-11T08:32:35Z</time></trkpt><trkpt lat="43.34301758617187" lon="11.4029878557191"><ele>289.0</ele><time>2026-04-11T08:32:36Z</time></trkpt><trkpt lat="43.3430021042746" lon="11.403097952480916"><ele>289.0</ele><time>2026-04-11T08:32:37Z</time></trkpt><trkpt lat="43.34295329279037" lon="11.403176979978808"><ele>289.0</ele><time>2026-04-11T08:32:38Z</time></trkpt><trkpt lat="43.34288603633255" lon="11.403245291112514"><ele>289.0</ele><time>2026-04-11T08:32:39Z</time></trkpt><trkpt lat="43.34281340698529" lon="11.403280879041445"><ele>289.0</ele><time>2026-04-11T08:32:40Z</time></trkpt><trkpt lat="43.34273479890588" lon="11.40330027690779"><ele>289.0</ele><time>2026-04-11T08:32:41Z</time></trkpt><trkpt lat="43.34265187668531" lon="11.403298863018092"><ele>289.0</ele><time>2026-04-11T08:32:42Z</time></trkpt><trkpt lat="43.34257806337228" lon="11.403299454475546"><ele>289.0</ele><time>2026-04-11T08:32:43Z</time></trkpt><trkpt lat="43.34249499580249" lon="11.403325891714985"><ele>289.0</ele><time>2026-04-11T08:32:44Z</time></trkpt><trkpt lat="43.3424104518995" lon="11.403371132310314"><ele>289.0</ele><time>2026-04-11T08:32:45Z</time></trkpt><trkpt lat="43.34233777922875" lon="11.403433218368315"><ele>289.0</ele><time>2026-04-11T08:32:46Z</time></trkpt><trkpt lat="43.34224929250435" lon="11.403518343572863"><ele>288.0</ele><time>2026-04-11T08:32:47Z</time></trkpt><trkpt lat="43.34216814464017" lon="11.403579633886281"><ele>287.0</ele><time>2026-04-11T08:32:48Z</time></trkpt><trkpt lat="43.34207810449842" lon="11.40368696240324"><ele>286.0</ele><time>2026-04-11T08:32:49Z</time></trkpt><trkpt lat="43.34199227137073" lon="11.403789828424546"><ele>285.0</ele><time>2026-04-11T08:32:50Z</time></trkpt><trkpt lat="43.341920959422374" lon="11.403875296777711"><ele>284.0</ele><time>2026-04-11T08:32:51Z</time></trkpt><trkpt lat="43.3418538296539" lon="11.403970021622024"><ele>284.0</ele><time>2026-04-11T08:32:52Z</time></trkpt><trkpt lat="43.34177605181423" lon="11.404046832649009"><ele>284.0</ele><time>2026-04-11T08:32:53Z</time></trkpt><trkpt lat="43.34171057837229" lon="11.40411544512399"><ele>284.0</ele><time>2026-04-11T08:32:54Z</time></trkpt><trkpt lat="43.341642784890546" lon="11.404197276638266"><ele>284.0</ele><time>2026-04-11T08:32:55Z</time></trkpt><trkpt lat="43.3415683151219" lon="11.404270689809183"><ele>284.0</ele><time>2026-04-11T08:32:56Z</time></trkpt><trkpt lat="43.34151529076528" lon="11.404344201685774"><ele>284.0</ele><time>2026-04-11T08:32:57Z</time></trkpt><trkpt lat="43.34145815814887" lon="11.404415934675956"><ele>284.0</ele><time>2026-04-11T08:32:58Z</time></trkpt><trkpt lat="43.34140318162" lon="11.40448756531687"><ele>284.0</ele><time>2026-04-11T08:32:59Z</time></trkpt><trkpt lat="43.34134741580933" lon="11.404555688259137"><ele>284.0</ele><time>2026-04-11T08:33:00Z</time></trkpt><trkpt lat="43.341304579759544" lon="11.40463328611096"><ele>284.0</ele><time>2026-04-11T08:33:01Z</time></trkpt><trkpt lat="43.34126102227348" lon="11.404707653017107"><ele>284.0</ele><time>2026-04-11T08:33:02Z</time></trkpt><trkpt lat="43.34122111781657" lon="11.404779577841072"><ele>284.0</ele><time>2026-04-11T08:33:03Z</time></trkpt><trkpt lat="43.34118191470979" lon="11.404848627126471"><ele>284.0</ele><time>2026-04-11T08:33:04Z</time></trkpt><trkpt lat="43.34113308941122" lon="11.404914816344265"><ele>285.2</ele><time>2026-04-11T08:33:05Z</time></trkpt><trkpt lat="43.34109331652255" lon="11.40498251967249"><ele>286.4</ele><time>2026-04-11T08:33:06Z</time></trkpt><trkpt lat="43.34101527199818" lon="11.405111049814789"><ele>287.6</ele><time>2026-04-11T08:33:08Z</time></trkpt><trkpt lat="43.34093017207541" lon="11.405217102788793"><ele>288.8</ele><time>2026-04-11T08:33:10Z</time></trkpt><trkpt lat="43.34082191594578" lon="11.405297978152278"><ele>290.0</ele><time>2026-04-11T08:33:12Z</time></trkpt><trkpt lat="43.340720523361604" lon="11.40536468447651"><ele>290.0</ele><time>2026-04-11T08:33:14Z</time></trkpt><trkpt lat="43.34062985244515" lon="11.405432105455013"><ele>290.0</ele><time>2026-04-11T08:33:16Z</time></trkpt><trkpt lat="43.34051734249799" lon="11.405496241261174"><ele>290.0</ele><time>2026-04-11T08:33:18Z</time></trkpt><trkpt lat="43.340409090614216" lon="11.405565613091667"><ele>290.0</ele><time>2026-04-11T08:33:20Z</time></trkpt><trkpt lat="43.34030087493078" lon="11.405629777238259"><ele>290.0</ele><time>2026-04-11T08:33:22Z</time></trkpt><trkpt lat="43.34019975074332" lon="11.405686145842552"><ele>290.0</ele><time>2026-04-11T08:33:24Z</time></trkpt><trkpt lat="43.34010776714115" lon="11.405746765593312"><ele>290.0</ele><time>2026-04-11T08:33:26Z</time></trkpt><trkpt lat="43.340010360281205" lon="11.405810316237783"><ele>290.0</ele><time>2026-04-11T08:33:28Z</time></trkpt><trkpt lat="43.33996329737765" lon="11.405872495692812"><ele>290.0</ele><time>2026-04-11T08:33:32Z</time></trkpt><trkpt lat="43.33990287202699" lon="11.405936068871322"><ele>290.0</ele><time>2026-04-11T08:33:35Z</time></trkpt><trkpt lat="43.33985208890323" lon="11.405987345351038"><ele>290.0</ele><time>2026-04-11T08:33:38Z</time></trkpt><trkpt lat="43.33977413866502" lon="11.406067442437333"><ele>290.0</ele><time>2026-04-11T08:33:41Z</time></trkpt><trkpt lat="43.33971632908454" lon="11.406142343890357"><ele>290.0</ele><time>2026-04-11T08:33:43Z</time></trkpt><trkpt lat="43.339641433525294" lon="11.406268083873867"><ele>290.0</ele><time>2026-04-11T08:33:46Z</time></trkpt><trkpt lat="43.3395738806343" lon="11.406342253812847"><ele>290.0</ele><time>2026-04-11T08:33:48Z</time></trkpt><trkpt lat="43.33955522424361" lon="11.40644395835246"><ele>289.5</ele><time>2026-04-11T08:33:50Z</time></trkpt><trkpt lat="43.33952222429881" lon="11.40654261217114"><ele>289.0</ele><time>2026-04-11T08:33:52Z</time></trkpt><trkpt lat="43.3394682913397" lon="11.406631282249927"><ele>288.5</ele><time>2026-04-11T08:33:54Z</time></trkpt><trkpt lat="43.3394045207426" lon="11.406715979085265"><ele>288.0</ele><time>2026-04-11T08:33:56Z</time></trkpt><trkpt lat="43.339344223795834" lon="11.406825539147748"><ele>287.5</ele><time>2026-04-11T08:33:59Z</time></trkpt><trkpt lat="43.33928382972822" lon="11.406906128830885"><ele>287.0</ele><time>2026-04-11T08:34:01Z</time></trkpt><trkpt lat="43.33922393523976" lon="11.406953077711472"><ele>287.0</ele><time>2026-04-11T08:34:03Z</time></trkpt><trkpt lat="43.33916813402491" lon="11.407005460350716"><ele>287.0</ele><time>2026-04-11T08:34:05Z</time></trkpt><trkpt lat="43.33911579850805" lon="11.407057605368797"><ele>287.0</ele><time>2026-04-11T08:34:07Z</time></trkpt><trkpt lat="43.33902376573875" lon="11.407139775559395"><ele>287.0</ele><time>2026-04-11T08:34:10Z</time></trkpt><trkpt lat="43.33895291012617" lon="11.407189506764452"><ele>287.0</ele><time>2026-04-11T08:34:13Z</time></trkpt><trkpt lat="43.33888401002899" lon="11.407229437089192"><ele>287.0</ele><time>2026-04-11T08:34:15Z</time></trkpt><trkpt lat="43.33879661184403" lon="11.407247276831887"><ele>287.33333333333337</ele><time>2026-04-11T08:34:17Z</time></trkpt><trkpt lat="43.33871167002446" lon="11.407222483083977"><ele>287.6666666666667</ele><time>2026-04-11T08:34:19Z</time></trkpt><trkpt lat="43.338631022096514" lon="11.40720876991853"><ele>288.0</ele><time>2026-04-11T08:34:21Z</time></trkpt><trkpt lat="43.3385618955415" lon="11.407155216485462"><ele>288.3333333333333</ele><time>2026-04-11T08:34:23Z</time></trkpt><trkpt lat="43.33847653657227" lon="11.407139353641375"><ele>288.66666666666663</ele><time>2026-04-11T08:34:25Z</time></trkpt><trkpt lat="43.338385755091956" lon="11.407116072330167"><ele>289.0</ele><time>2026-04-11T08:34:27Z</time></trkpt><trkpt lat="43.338308414859476" lon="11.407114441170025"><ele>289.16666666666663</ele><time>2026-04-11T08:34:29Z</time></trkpt><trkpt lat="43.33823592077897" lon="11.407130856751623"><ele>289.3333333333333</ele><time>2026-04-11T08:34:31Z</time></trkpt><trkpt lat="43.33815981517666" lon="11.407108262519166"><ele>289.5</ele><time>2026-04-11T08:34:33Z</time></trkpt><trkpt lat="43.33809565902324" lon="11.407106912446363"><ele>289.6666666666667</ele><time>2026-04-11T08:34:35Z</time></trkpt><trkpt lat="43.33802515012628" lon="11.407099401215554"><ele>289.83333333333337</ele><time>2026-04-11T08:34:37Z</time></trkpt><trkpt lat="43.337910392682495" lon="11.407094483453516"><ele>290.0</ele><time>2026-04-11T08:34:40Z</time></trkpt><trkpt lat="43.33779331588954" lon="11.407052174688646"><ele>290.0</ele><time>2026-04-11T08:34:44Z</time></trkpt><trkpt lat="43.3377190623359" lon="11.407024834981552"><ele>290.0</ele><time>2026-04-11T08:34:45Z</time></trkpt><trkpt lat="43.33764462920068" lon="11.407000267127364"><ele>290.0</ele><time>2026-04-11T08:34:46Z</time></trkpt><trkpt lat="43.33758623434878" lon="11.406967459339185"><ele>290.0</ele><time>2026-04-11T08:34:47Z</time></trkpt><trkpt lat="43.3374972228356" lon="11.406930095463236"><ele>290.0</ele><time>2026-04-11T08:34:48Z</time></trkpt><trkpt lat="43.337411036913515" lon="11.406911682008538"><ele>290.0</ele><time>2026-04-11T08:34:49Z</time></trkpt><trkpt lat="43.33731332585961" lon="11.40686399619387"><ele>290.0</ele><time>2026-04-11T08:34:50Z</time></trkpt><trkpt lat="43.337223312841274" lon="11.406822570092668"><ele>290.0</ele><time>2026-04-11T08:34:51Z</time></trkpt><trkpt lat="43.337117502135655" lon="11.40680017510407"><ele>290.0</ele><time>2026-04-11T08:34:52Z</time></trkpt><trkpt lat="43.337020208304146" lon="11.406796845765314"><ele>290.0</ele><time>2026-04-11T08:34:53Z</time></trkpt><trkpt lat="43.336891727476626" lon="11.406799636970781"><ele>290.0</ele><time>2026-04-11T08:34:54Z</time></trkpt><trkpt lat="43.33677653584962" lon="11.406794261530706"><ele>290.4</ele><time>2026-04-11T08:34:55Z</time></trkpt><trkpt lat="43.33666046846003" lon="11.406795922157167"><ele>290.8</ele><time>2026-04-11T08:34:56Z</time></trkpt><trkpt lat="43.33654286006596" lon="11.406818811625774"><ele>291.2</ele><time>2026-04-11T08:34:57Z</time></trkpt><trkpt lat="43.33643479408134" lon="11.406829121551063"><ele>291.6</ele><time>2026-04-11T08:34:58Z</time></trkpt><trkpt lat="43.33635829925513" lon="11.406845801304833"><ele>292.0</ele><time>2026-04-11T08:34:59Z</time></trkpt><trkpt lat="43.336283901025155" lon="11.406870815685242"><ele>293.4</ele><time>2026-04-11T08:35:00Z</time></trkpt><trkpt lat="43.33618223752401" lon="11.406903308768705"><ele>294.79999999999995</ele><time>2026-04-11T08:35:01Z</time></trkpt><trkpt lat="43.33604346623122" lon="11.406971541843832"><ele>296.2</ele><time>2026-04-11T08:35:03Z</time></trkpt><trkpt lat="43.33594851958633" lon="11.407008147840077"><ele>297.59999999999997</ele><time>2026-04-11T08:35:04Z</time></trkpt><trkpt lat="43.335879992691765" lon="11.407045437339507"><ele>299.0</ele><time>2026-04-11T08:35:05Z</time></trkpt><trkpt lat="43.335774414641776" lon="11.407147108004455"><ele>298.59999999999997</ele><time>2026-04-11T08:35:07Z</time></trkpt><trkpt lat="43.335716288998846" lon="11.40719879809253"><ele>298.2</ele><time>2026-04-11T08:35:08Z</time></trkpt><trkpt lat="43.335651989810415" lon="11.407227934343076"><ele>297.79999999999995</ele><time>2026-04-11T08:35:09Z</time></trkpt><trkpt lat="43.335552054067705" lon="11.407280062246498"><ele>297.4</ele><time>2026-04-11T08:35:11Z</time></trkpt><trkpt lat="43.335452711762514" lon="11.407327234046335"><ele>297.0</ele><time>2026-04-11T08:35:13Z</time></trkpt><trkpt lat="43.33535385431788" lon="11.40737538934281"><ele>297.0</ele><time>2026-04-11T08:35:15Z</time></trkpt><trkpt lat="43.33529045586681" lon="11.407350758994852"><ele>297.0</ele><time>2026-04-11T08:35:17Z</time></trkpt><trkpt lat="43.335205068771614" lon="11.407374324464792"><ele>297.0</ele><time>2026-04-11T08:35:19Z</time></trkpt><trkpt lat="43.33510859219142" lon="11.40739782271997"><ele>297.0</ele><time>2026-04-11T08:35:21Z</time></trkpt><trkpt lat="43.33501183184567" lon="11.40744316183328"><ele>297.0</ele><time>2026-04-11T08:35:26Z</time></trkpt><trkpt lat="43.33493129127659" lon="11.407491989602304"><ele>297.0</ele><time>2026-04-11T08:35:28Z</time></trkpt><trkpt lat="43.33482802717295" lon="11.40750083360733"><ele>295.6</ele><time>2026-04-11T08:35:30Z</time></trkpt><trkpt lat="43.33466627698299" lon="11.407481050485378"><ele>294.2</ele><time>2026-04-11T08:35:32Z</time></trkpt><trkpt lat="43.33458197124322" lon="11.407458683155935"><ele>292.8</ele><time>2026-04-11T08:35:33Z</time></trkpt><trkpt lat="43.334516882265234" lon="11.407444750188825"><ele>291.4</ele><time>2026-04-11T08:35:34Z</time></trkpt><trkpt lat="43.33445333211866" lon="11.407421280301278"><ele>290.0</ele><time>2026-04-11T08:35:35Z</time></trkpt><trkpt lat="43.334399825621794" lon="11.407334499336645"><ele>290.0</ele><time>2026-04-11T08:35:36Z</time></trkpt><trkpt lat="43.33436494081953" lon="11.407255993528373"><ele>290.0</ele><time>2026-04-11T08:35:37Z</time></trkpt><trkpt lat="43.33433872437978" lon="11.407151406170772"><ele>290.0</ele><time>2026-04-11T08:35:38Z</time></trkpt><trkpt lat="43.33432029592156" lon="11.407043372699594"><ele>290.0</ele><time>2026-04-11T08:35:39Z</time></trkpt><trkpt lat="43.3343013580145" lon="11.406937479978902"><ele>290.0</ele><time>2026-04-11T08:35:40Z</time></trkpt><trkpt lat="43.33428001520905" lon="11.406840253684557"><ele>290.0</ele><time>2026-04-11T08:35:41Z</time></trkpt><trkpt lat="43.33425432372663" lon="11.40675037536994"><ele>289.83333333333337</ele><time>2026-04-11T08:35:42Z</time></trkpt><trkpt lat="43.334238982080855" lon="11.406647819007032"><ele>289.6666666666667</ele><time>2026-04-11T08:35:43Z</time></trkpt><trkpt lat="43.33421889353315" lon="11.406540764525753"><ele>289.5</ele><time>2026-04-11T08:35:44Z</time></trkpt><trkpt lat="43.334201343206686" lon="11.406438814680692"><ele>289.3333333333333</ele><time>2026-04-11T08:35:45Z</time></trkpt><trkpt lat="43.334188179464505" lon="11.406340033545753"><ele>289.16666666666663</ele><time>2026-04-11T08:35:46Z</time></trkpt><trkpt lat="43.33417041176603" lon="11.40623989843214"><ele>289.0</ele><time>2026-04-11T08:35:47Z</time></trkpt><trkpt lat="43.33415988694795" lon="11.406140414661538"><ele>288.57142857142856</ele><time>2026-04-11T08:35:48Z</time></trkpt><trkpt lat="43.33414087836144" lon="11.406051392497204"><ele>288.1428571428571</ele><time>2026-04-11T08:35:49Z</time></trkpt><trkpt lat="43.334127344474055" lon="11.405961903066393"><ele>287.71428571428567</ele><time>2026-04-11T08:35:50Z</time></trkpt><trkpt lat="43.334111408606965" lon="11.405869451701427"><ele>287.2857142857143</ele><time>2026-04-11T08:35:51Z</time></trkpt><trkpt lat="43.334113548230526" lon="11.405771789119791"><ele>286.85714285714283</ele><time>2026-04-11T08:35:52Z</time></trkpt><trkpt lat="43.33411575860312" lon="11.405672589711656"><ele>286.4285714285714</ele><time>2026-04-11T08:35:53Z</time></trkpt><trkpt lat="43.33412843319575" lon="11.405568048574438"><ele>286.0</ele><time>2026-04-11T08:35:54Z</time></trkpt><trkpt lat="43.33413845817739" lon="11.405460805483433"><ele>285.3333333333333</ele><time>2026-04-11T08:35:55Z</time></trkpt><trkpt lat="43.334139332520664" lon="11.405355813781796"><ele>284.66666666666663</ele><time>2026-04-11T08:35:56Z</time></trkpt><trkpt lat="43.334144434579486" lon="11.40523845309858"><ele>284.0</ele><time>2026-04-11T08:35:57Z</time></trkpt><trkpt lat="43.334149622154236" lon="11.40512702424567"><ele>283.3333333333333</ele><time>2026-04-11T08:35:58Z</time></trkpt><trkpt lat="43.33416040239595" lon="11.405011772085041"><ele>282.6666666666667</ele><time>2026-04-11T08:35:59Z</time></trkpt><trkpt lat="43.33416597046572" lon="11.404902591041184"><ele>282.0</ele><time>2026-04-11T08:36:00Z</time></trkpt><trkpt lat="43.3341802140358" lon="11.404783706892003"><ele>282.0</ele><time>2026-04-11T08:36:01Z</time></trkpt><trkpt lat="43.334195745046316" lon="11.404664289901053"><ele>282.0</ele><time>2026-04-11T08:36:02Z</time></trkpt><trkpt lat="43.33419946396749" lon="11.404551528871867"><ele>282.0</ele><time>2026-04-11T08:36:03Z</time></trkpt><trkpt lat="43.334207833516494" lon="11.404438673413685"><ele>282.0</ele><time>2026-04-11T08:36:04Z</time></trkpt><trkpt lat="43.33421753619247" lon="11.404336431540637"><ele>282.0</ele><time>2026-04-11T08:36:05Z</time></trkpt><trkpt lat="43.3342177708653" lon="11.404236935015886"><ele>282.0</ele><time>2026-04-11T08:36:06Z</time></trkpt><trkpt lat="43.33419876898288" lon="11.404075497395281"><ele>282.0</ele><time>2026-04-11T08:36:08Z</time></trkpt><trkpt lat="43.33410121777523" lon="11.403996452674294"><ele>282.0</ele><time>2026-04-11T08:36:10Z</time></trkpt><trkpt lat="43.33400616424216" lon="11.404014981362502"><ele>282.0</ele><time>2026-04-11T08:36:12Z</time></trkpt><trkpt lat="43.333916375371324" lon="11.404081100404808"><ele>282.0</ele><time>2026-04-11T08:36:14Z</time></trkpt><trkpt lat="43.33381021220671" lon="11.404156136930876"><ele>282.0</ele><time>2026-04-11T08:36:16Z</time></trkpt><trkpt lat="43.333743707172275" lon="11.404185287133377"><ele>281.6666666666667</ele><time>2026-04-11T08:36:17Z</time></trkpt><trkpt lat="43.333674550912974" lon="11.404208901603779"><ele>281.3333333333333</ele><time>2026-04-11T08:36:18Z</time></trkpt><trkpt lat="43.33361451504428" lon="11.404240452192525"><ele>281.0</ele><time>2026-04-11T08:36:19Z</time></trkpt><trkpt lat="43.33349191638111" lon="11.404313038431258"><ele>280.66666666666663</ele><time>2026-04-11T08:36:21Z</time></trkpt><trkpt lat="43.333419781973724" lon="11.404342074041471"><ele>280.3333333333333</ele><time>2026-04-11T08:36:22Z</time></trkpt><trkpt lat="43.33334190669528" lon="11.404373082890599"><ele>280.0</ele><time>2026-04-11T08:36:23Z</time></trkpt><trkpt lat="43.33326614777425" lon="11.404418818594985"><ele>280.0</ele><time>2026-04-11T08:36:24Z</time></trkpt><trkpt lat="43.33319324562306" lon="11.404453168054363"><ele>280.0</ele><time>2026-04-11T08:36:25Z</time></trkpt><trkpt lat="43.33311169930605" lon="11.404493292911658"><ele>280.0</ele><time>2026-04-11T08:36:26Z</time></trkpt><trkpt lat="43.33303367112228" lon="11.40453503128767"><ele>280.0</ele><time>2026-04-11T08:36:27Z</time></trkpt><trkpt lat="43.332953752946956" lon="11.4045777207016"><ele>280.0</ele><time>2026-04-11T08:36:28Z</time></trkpt><trkpt lat="43.33287972389474" lon="11.404618580183016"><ele>280.0</ele><time>2026-04-11T08:36:29Z</time></trkpt><trkpt lat="43.33280408277185" lon="11.40466130438578"><ele>279.4</ele><time>2026-04-11T08:36:30Z</time></trkpt><trkpt lat="43.332721310453636" lon="11.404711005099578"><ele>278.8</ele><time>2026-04-11T08:36:31Z</time></trkpt><trkpt lat="43.33263800465479" lon="11.404756824530624"><ele>278.2</ele><time>2026-04-11T08:36:32Z</time></trkpt><trkpt lat="43.33255018428591" lon="11.404800746984717"><ele>277.6</ele><time>2026-04-11T08:36:33Z</time></trkpt><trkpt lat="43.33246573466309" lon="11.404845520739523"><ele>277.0</ele><time>2026-04-11T08:36:34Z</time></trkpt><trkpt lat="43.332385059422684" lon="11.404889118278712"><ele>277.0</ele><time>2026-04-11T08:36:35Z</time></trkpt><trkpt lat="43.33229321021467" lon="11.404947048652616"><ele>277.0</ele><time>2026-04-11T08:36:36Z</time></trkpt><trkpt lat="43.33220072872994" lon="11.405004102710341"><ele>277.0</ele><time>2026-04-11T08:36:37Z</time></trkpt><trkpt lat="43.332122292071396" lon="11.405048730318075"><ele>277.0</ele><time>2026-04-11T08:36:38Z</time></trkpt><trkpt lat="43.332037546159164" lon="11.405089693612886"><ele>277.0</ele><time>2026-04-11T08:36:39Z</time></trkpt><trkpt lat="43.33195895574958" lon="11.405123388182014"><ele>277.2</ele><time>2026-04-11T08:36:40Z</time></trkpt><trkpt lat="43.331872861449234" lon="11.405175036986707"><ele>277.4</ele><time>2026-04-11T08:36:41Z</time></trkpt><trkpt lat="43.33178725768284" lon="11.40520604986955"><ele>277.6</ele><time>2026-04-11T08:36:42Z</time></trkpt><trkpt lat="43.3316831838995" lon="11.405227551327174"><ele>277.8</ele><time>2026-04-11T08:36:43Z</time></trkpt><trkpt lat="43.33159391143244" lon="11.40525292240471"><ele>278.0</ele><time>2026-04-11T08:36:44Z</time></trkpt><trkpt lat="43.331511175288455" lon="11.405269807767878"><ele>278.0</ele><time>2026-04-11T08:36:45Z</time></trkpt><trkpt lat="43.331423805704695" lon="11.405285123163306"><ele>278.0</ele><time>2026-04-11T08:36:46Z</time></trkpt><trkpt lat="43.33134286157217" lon="11.405296732067724"><ele>278.0</ele><time>2026-04-11T08:36:47Z</time></trkpt><trkpt lat="43.331261170312445" lon="11.405335630640055"><ele>278.0</ele><time>2026-04-11T08:36:48Z</time></trkpt><trkpt lat="43.33117482220683" lon="11.405350842272238"><ele>278.0</ele><time>2026-04-11T08:36:49Z</time></trkpt><trkpt lat="43.33108107665664" lon="11.4053684999519"><ele>278.0</ele><time>2026-04-11T08:36:50Z</time></trkpt><trkpt lat="43.33094560240331" lon="11.405411871519911"><ele>276.8</ele><time>2026-04-11T08:36:52Z</time></trkpt><trkpt lat="43.3308547310893" lon="11.405448711578936"><ele>275.6</ele><time>2026-04-11T08:36:53Z</time></trkpt><trkpt lat="43.33076670143564" lon="11.405461868801588"><ele>274.4</ele><time>2026-04-11T08:36:54Z</time></trkpt><trkpt lat="43.330687340260496" lon="11.405479510906334"><ele>273.2</ele><time>2026-04-11T08:36:55Z</time></trkpt><trkpt lat="43.33057666578741" lon="11.40553130686992"><ele>272.0</ele><time>2026-04-11T08:36:57Z</time></trkpt><trkpt lat="43.33050108301231" lon="11.405568747864269"><ele>270.4</ele><time>2026-04-11T08:36:58Z</time></trkpt><trkpt lat="43.33043104502182" lon="11.405581128956822"><ele>268.79999999999995</ele><time>2026-04-11T08:36:59Z</time></trkpt><trkpt lat="43.330308623650616" lon="11.405639243204503"><ele>267.2</ele><time>2026-04-11T08:37:01Z</time></trkpt><trkpt lat="43.330221309286905" lon="11.405677848537545"><ele>265.59999999999997</ele><time>2026-04-11T08:37:02Z</time></trkpt><trkpt lat="43.33012395436535" lon="11.405738540043005"><ele>264.0</ele><time>2026-04-11T08:37:03Z</time></trkpt><trkpt lat="43.330039306629814" lon="11.405785646435504"><ele>264.0</ele><time>2026-04-11T08:37:04Z</time></trkpt><trkpt lat="43.329962117872604" lon="11.405852084842854"><ele>264.0</ele><time>2026-04-11T08:37:05Z</time></trkpt><trkpt lat="43.32986869564626" lon="11.405903586789737"><ele>264.0</ele><time>2026-04-11T08:37:06Z</time></trkpt><trkpt lat="43.32978846323941" lon="11.405965129761903"><ele>264.0</ele><time>2026-04-11T08:37:07Z</time></trkpt><trkpt lat="43.32970403725321" lon="11.406031245056997"><ele>264.0</ele><time>2026-04-11T08:37:08Z</time></trkpt><trkpt lat="43.32960689997993" lon="11.406099744184969"><ele>263.0</ele><time>2026-04-11T08:37:09Z</time></trkpt><trkpt lat="43.329527792042704" lon="11.40617872615933"><ele>262.0</ele><time>2026-04-11T08:37:10Z</time></trkpt><trkpt lat="43.329446024279" lon="11.406257649842583"><ele>261.0</ele><time>2026-04-11T08:37:11Z</time></trkpt><trkpt lat="43.32936242405402" lon="11.406338572792249"><ele>260.0</ele><time>2026-04-11T08:37:12Z</time></trkpt><trkpt lat="43.32928886997162" lon="11.406424729068137"><ele>259.0</ele><time>2026-04-11T08:37:13Z</time></trkpt><trkpt lat="43.3292123245512" lon="11.406513341451086"><ele>258.8</ele><time>2026-04-11T08:37:14Z</time></trkpt><trkpt lat="43.3291391432343" lon="11.40660431942247"><ele>258.59999999999997</ele><time>2026-04-11T08:37:15Z</time></trkpt><trkpt lat="43.32906305851956" lon="11.406684160806126"><ele>258.4</ele><time>2026-04-11T08:37:16Z</time></trkpt><trkpt lat="43.328990585720355" lon="11.406777905072115"><ele>258.2</ele><time>2026-04-11T08:37:17Z</time></trkpt><trkpt lat="43.328912290510914" lon="11.406866216827488"><ele>258.0</ele><time>2026-04-11T08:37:18Z</time></trkpt><trkpt lat="43.328831265117806" lon="11.406958899897264"><ele>257.8</ele><time>2026-04-11T08:37:19Z</time></trkpt><trkpt lat="43.32875959105295" lon="11.407046548203404"><ele>257.6</ele><time>2026-04-11T08:37:20Z</time></trkpt><trkpt lat="43.32868035670128" lon="11.407130542684866"><ele>257.4</ele><time>2026-04-11T08:37:21Z</time></trkpt><trkpt lat="43.32861207575151" lon="11.40721661882317"><ele>257.2</ele><time>2026-04-11T08:37:22Z</time></trkpt><trkpt lat="43.32855567482306" lon="11.407303304247304"><ele>257.0</ele><time>2026-04-11T08:37:23Z</time></trkpt><trkpt lat="43.32847270085262" lon="11.407391043114469"><ele>256.2</ele><time>2026-04-11T08:37:24Z</time></trkpt><trkpt lat="43.3283858559191" lon="11.407473149571807"><ele>255.39999999999998</ele><time>2026-04-11T08:37:25Z</time></trkpt><trkpt lat="43.32831271558938" lon="11.407548809551484"><ele>254.60000000000002</ele><time>2026-04-11T08:37:26Z</time></trkpt><trkpt lat="43.32823822919238" lon="11.407644003663824"><ele>253.8</ele><time>2026-04-11T08:37:27Z</time></trkpt><trkpt lat="43.32817321655334" lon="11.407722650917124"><ele>253.0</ele><time>2026-04-11T08:37:28Z</time></trkpt><trkpt lat="43.32811802027402" lon="11.407809697207114"><ele>252.99999999999997</ele><time>2026-04-11T08:37:29Z</time></trkpt><trkpt lat="43.32804902050772" lon="11.407889638389985"><ele>253.0</ele><time>2026-04-11T08:37:30Z</time></trkpt><trkpt lat="43.327981095528045" lon="11.40797147081653"><ele>253.0</ele><time>2026-04-11T08:37:31Z</time></trkpt><trkpt lat="43.32792412064476" lon="11.40804061836441"><ele>253.0</ele><time>2026-04-11T08:37:32Z</time></trkpt><trkpt lat="43.3278543041634" lon="11.408116934908591"><ele>252.99999999999997</ele><time>2026-04-11T08:37:33Z</time></trkpt><trkpt lat="43.32779469651933" lon="11.408185311878865"><ele>253.0</ele><time>2026-04-11T08:37:34Z</time></trkpt><trkpt lat="43.32773775967208" lon="11.408256721083374"><ele>253.00000000000003</ele><time>2026-04-11T08:37:35Z</time></trkpt><trkpt lat="43.32768301680212" lon="11.408325978007909"><ele>253.0</ele><time>2026-04-11T08:37:36Z</time></trkpt><trkpt lat="43.32763024160391" lon="11.408393841178501"><ele>253.00000000000003</ele><time>2026-04-11T08:37:37Z</time></trkpt><trkpt lat="43.3275770193391" lon="11.408457902786887"><ele>253.00000000000003</ele><time>2026-04-11T08:37:38Z</time></trkpt><trkpt lat="43.3275205643189" lon="11.408516012401511"><ele>253.0</ele><time>2026-04-11T08:37:39Z</time></trkpt><trkpt lat="43.32746101475989" lon="11.408587548974754"><ele>253.00000000000003</ele><time>2026-04-11T08:37:40Z</time></trkpt><trkpt lat="43.32740358911577" lon="11.408655212597896"><ele>253.00000000000003</ele><time>2026-04-11T08:37:41Z</time></trkpt><trkpt lat="43.327348719608686" lon="11.408731288293087"><ele>252.99999999999997</ele><time>2026-04-11T08:37:42Z</time></trkpt><trkpt lat="43.32729099435957" lon="11.408799108817567"><ele>253.0</ele><time>2026-04-11T08:37:43Z</time></trkpt><trkpt lat="43.32722009792141" lon="11.40887865844603"><ele>253.0</ele><time>2026-04-11T08:37:44Z</time></trkpt><trkpt lat="43.3271536652794" lon="11.408942047482045"><ele>253.0</ele><time>2026-04-11T08:37:45Z</time></trkpt><trkpt lat="43.32709832038433" lon="11.409016964662287"><ele>252.99999999999997</ele><time>2026-04-11T08:37:46Z</time></trkpt><trkpt lat="43.327036104923366" lon="11.409089164969373"><ele>253.0</ele><time>2026-04-11T08:37:47Z</time></trkpt><trkpt lat="43.32697729558382" lon="11.409162048327111"><ele>252.00000000000003</ele><time>2026-04-11T08:37:48Z</time></trkpt><trkpt lat="43.3269206427673" lon="11.409230391722511"><ele>251.0</ele><time>2026-04-11T08:37:49Z</time></trkpt><trkpt lat="43.32688792467252" lon="11.409305372996894"><ele>250.00000000000003</ele><time>2026-04-11T08:37:50Z</time></trkpt><trkpt lat="43.32684710814241" lon="11.40938219722413"><ele>249.00000000000003</ele><time>2026-04-11T08:37:51Z</time></trkpt><trkpt lat="43.32679418970559" lon="11.409463393099575"><ele>248.0</ele><time>2026-04-11T08:37:52Z</time></trkpt><trkpt lat="43.32674202969148" lon="11.409531963816915"><ele>247.00000000000003</ele><time>2026-04-11T08:37:53Z</time></trkpt><trkpt lat="43.3266803603925" lon="11.409613213206976"><ele>246.00000000000003</ele><time>2026-04-11T08:37:54Z</time></trkpt><trkpt lat="43.32661789134469" lon="11.409684489707661"><ele>245.5714285714286</ele><time>2026-04-11T08:37:55Z</time></trkpt><trkpt lat="43.326556979345355" lon="11.409738883751531"><ele>245.14285714285717</ele><time>2026-04-11T08:37:56Z</time></trkpt><trkpt lat="43.32649178856463" lon="11.409799988529143"><ele>244.71428571428572</ele><time>2026-04-11T08:37:57Z</time></trkpt><trkpt lat="43.32643602873226" lon="11.409855115021022"><ele>244.2857142857143</ele><time>2026-04-11T08:37:58Z</time></trkpt><trkpt lat="43.32638395613104" lon="11.409922662644362"><ele>243.8571428571429</ele><time>2026-04-11T08:37:59Z</time></trkpt><trkpt lat="43.32633704884914" lon="11.410007255992431"><ele>243.42857142857142</ele><time>2026-04-11T08:38:00Z</time></trkpt><trkpt lat="43.32629494603836" lon="11.410081622416564"><ele>243.0</ele><time>2026-04-11T08:38:01Z</time></trkpt><trkpt lat="43.32624953887568" lon="11.410142394718305"><ele>243.0</ele><time>2026-04-11T08:38:02Z</time></trkpt><trkpt lat="43.32615972839299" lon="11.410222802690901"><ele>243.0</ele><time>2026-04-11T08:38:04Z</time></trkpt><trkpt lat="43.3260998118433" lon="11.410291983106967"><ele>243.0</ele><time>2026-04-11T08:38:06Z</time></trkpt><trkpt lat="43.325983452611545" lon="11.410287214457256"><ele>243.0</ele><time>2026-04-11T08:38:08Z</time></trkpt><trkpt lat="43.32593947318679" lon="11.410200810337352"><ele>243.0</ele><time>2026-04-11T08:38:09Z</time></trkpt><trkpt lat="43.32589504849124" lon="11.410099977493536"><ele>243.0</ele><time>2026-04-11T08:38:10Z</time></trkpt><trkpt lat="43.32584709711665" lon="11.409998872637017"><ele>243.0</ele><time>2026-04-11T08:38:11Z</time></trkpt><trkpt lat="43.32581505198301" lon="11.409878792341056"><ele>243.0</ele><time>2026-04-11T08:38:12Z</time></trkpt><trkpt lat="43.32580496907842" lon="11.40973552398245"><ele>243.0</ele><time>2026-04-11T08:38:13Z</time></trkpt><trkpt lat="43.32580646179044" lon="11.409584244140332"><ele>243.0</ele><time>2026-04-11T08:38:14Z</time></trkpt><trkpt lat="43.325818403079445" lon="11.40942025410763"><ele>241.0</ele><time>2026-04-11T08:38:15Z</time></trkpt><trkpt lat="43.32582893605878" lon="11.409244416461915"><ele>239.0</ele><time>2026-04-11T08:38:16Z</time></trkpt><trkpt lat="43.32582860719727" lon="11.409070603808175"><ele>237.0</ele><time>2026-04-11T08:38:17Z</time></trkpt><trkpt lat="43.32581884319419" lon="11.408879081535309"><ele>235.0</ele><time>2026-04-11T08:38:18Z</time></trkpt><trkpt lat="43.32579625061306" lon="11.408680602731204"><ele>233.66666666666666</ele><time>2026-04-11T08:38:19Z</time></trkpt><trkpt lat="43.325771084391796" lon="11.408476267620642"><ele>232.33333333333331</ele><time>2026-04-11T08:38:20Z</time></trkpt><trkpt lat="43.325746313338186" lon="11.408268269673222"><ele>231.0</ele><time>2026-04-11T08:38:21Z</time></trkpt><trkpt lat="43.32572224964731" lon="11.408060789785692"><ele>229.66666666666669</ele><time>2026-04-11T08:38:22Z</time></trkpt><trkpt lat="43.32570046840504" lon="11.407839475024334"><ele>228.33333333333334</ele><time>2026-04-11T08:38:23Z</time></trkpt><trkpt lat="43.32568282285286" lon="11.407634755174524"><ele>227.0</ele><time>2026-04-11T08:38:24Z</time></trkpt><trkpt lat="43.32565994311748" lon="11.407431968734224"><ele>227.0</ele><time>2026-04-11T08:38:25Z</time></trkpt><trkpt lat="43.32563686833501" lon="11.407229437030768"><ele>227.0</ele><time>2026-04-11T08:38:26Z</time></trkpt><trkpt lat="43.32561922632761" lon="11.407037657855925"><ele>227.0</ele><time>2026-04-11T08:38:27Z</time></trkpt><trkpt lat="43.325594425554584" lon="11.406851895024948"><ele>227.0</ele><time>2026-04-11T08:38:28Z</time></trkpt><trkpt lat="43.32554940619139" lon="11.406675213930829"><ele>226.0</ele><time>2026-04-11T08:38:29Z</time></trkpt><trkpt lat="43.32548600023693" lon="11.406505056830781"><ele>225.0</ele><time>2026-04-11T08:38:30Z</time></trkpt><trkpt lat="43.32540946394936" lon="11.406354987107965"><ele>224.0</ele><time>2026-04-11T08:38:31Z</time></trkpt><trkpt lat="43.32533438191594" lon="11.40620495434316"><ele>223.0</ele><time>2026-04-11T08:38:32Z</time></trkpt><trkpt lat="43.32525898200255" lon="11.406041255960613"><ele>221.5</ele><time>2026-04-11T08:38:33Z</time></trkpt><trkpt lat="43.32519455307987" lon="11.405876419337986"><ele>220.0</ele><time>2026-04-11T08:38:34Z</time></trkpt><trkpt lat="43.325141323062475" lon="11.405719262833184"><ele>218.5</ele><time>2026-04-11T08:38:35Z</time></trkpt><trkpt lat="43.32509356864826" lon="11.40556078297931"><ele>217.0</ele><time>2026-04-11T08:38:36Z</time></trkpt><trkpt lat="43.3250594325813" lon="11.405397734707204"><ele>216.5</ele><time>2026-04-11T08:38:37Z</time></trkpt><trkpt lat="43.32502518609405" lon="11.405242056656164"><ele>216.0</ele><time>2026-04-11T08:38:38Z</time></trkpt><trkpt lat="43.32498685652113" lon="11.405084806390743"><ele>215.5</ele><time>2026-04-11T08:38:39Z</time></trkpt><trkpt lat="43.32497565093176" lon="11.40491577200344"><ele>215.0</ele><time>2026-04-11T08:38:40Z</time></trkpt><trkpt lat="43.324970396670956" lon="11.404752431931625"><ele>214.8</ele><time>2026-04-11T08:38:41Z</time></trkpt><trkpt lat="43.32497278626878" lon="11.404581243685621"><ele>214.6</ele><time>2026-04-11T08:38:42Z</time></trkpt><trkpt lat="43.32496584807191" lon="11.40442983781463"><ele>214.39999999999998</ele><time>2026-04-11T08:38:43Z</time></trkpt><trkpt lat="43.3249591534516" lon="11.404295046550377"><ele>214.2</ele><time>2026-04-11T08:38:44Z</time></trkpt><trkpt lat="43.32496331551096" lon="11.404153392593473"><ele>214.0</ele><time>2026-04-11T08:38:45Z</time></trkpt><trkpt lat="43.32495704240859" lon="11.404025362836538"><ele>213.99999999999997</ele><time>2026-04-11T08:38:46Z</time></trkpt><trkpt lat="43.324964161799635" lon="11.403897772867866"><ele>214.0</ele><time>2026-04-11T08:38:47Z</time></trkpt><trkpt lat="43.32496727034295" lon="11.40378177064189"><ele>214.0</ele><time>2026-04-11T08:38:48Z</time></trkpt><trkpt lat="43.32496655713459" lon="11.403669714879609"><ele>214.0</ele><time>2026-04-11T08:38:49Z</time></trkpt><trkpt lat="43.32498265450046" lon="11.403540244908593"><ele>213.99999999999997</ele><time>2026-04-11T08:38:50Z</time></trkpt><trkpt lat="43.32498840408033" lon="11.403410742694138"><ele>214.0</ele><time>2026-04-11T08:38:51Z</time></trkpt><trkpt lat="43.32499910516126" lon="11.40327777560704"><ele>213.66666666666666</ele><time>2026-04-11T08:38:52Z</time></trkpt><trkpt lat="43.325011620217936" lon="11.403161656572532"><ele>213.33333333333331</ele><time>2026-04-11T08:38:53Z</time></trkpt><trkpt lat="43.32501924425687" lon="11.403054062831217"><ele>213.0</ele><time>2026-04-11T08:38:54Z</time></trkpt><trkpt lat="43.32502102920819" lon="11.402960706969118"><ele>212.66666666666669</ele><time>2026-04-11T08:38:55Z</time></trkpt><trkpt lat="43.32503177869743" lon="11.402861981110878"><ele>212.33333333333334</ele><time>2026-04-11T08:38:56Z</time></trkpt><trkpt lat="43.32504404160211" lon="11.40277001882832"><ele>212.0</ele><time>2026-04-11T08:38:57Z</time></trkpt><trkpt lat="43.32505908534762" lon="11.40261782189347"><ele>212.57142857142858</ele><time>2026-04-11T08:38:59Z</time></trkpt><trkpt lat="43.32506984484502" lon="11.402514045811596"><ele>213.14285714285714</ele><time>2026-04-11T08:39:02Z</time></trkpt><trkpt lat="43.325080679816665" lon="11.40242540098528"><ele>213.71428571428572</ele><time>2026-04-11T08:39:05Z</time></trkpt><trkpt lat="43.32508621906386" lon="11.40233791047631"><ele>214.28571428571428</ele><time>2026-04-11T08:39:08Z</time></trkpt><trkpt lat="43.325078898781584" lon="11.402227405239051"><ele>214.85714285714283</ele><time>2026-04-11T08:39:11Z</time></trkpt><trkpt lat="43.325112916751415" lon="11.40211474087219"><ele>215.42857142857142</ele><time>2026-04-11T08:39:15Z</time></trkpt><trkpt lat="43.32512942691349" lon="11.40202676521661"><ele>216.0</ele><time>2026-04-11T08:39:18Z</time></trkpt><trkpt lat="43.325126575188875" lon="11.401925221212291"><ele>217.66666666666666</ele><time>2026-04-11T08:39:22Z</time></trkpt><trkpt lat="43.32509328947796" lon="11.401721978998632"><ele>219.33333333333331</ele><time>2026-04-11T08:39:33Z</time></trkpt><trkpt lat="43.325098555727116" lon="11.401630367298614"><ele>221.0</ele><time>2026-04-11T08:39:37Z</time></trkpt><trkpt lat="43.32508825324004" lon="11.401535041323067"><ele>222.66666666666666</ele><time>2026-04-11T08:39:41Z</time></trkpt><trkpt lat="43.32509332882919" lon="11.401433384103337"><ele>224.33333333333331</ele><time>2026-04-11T08:39:45Z</time></trkpt><trkpt lat="43.3251006008262" lon="11.401334415248177"><ele>226.0</ele><time>2026-04-11T08:39:49Z</time></trkpt><trkpt lat="43.325104389026315" lon="11.401245013425262"><ele>226.71428571428572</ele><time>2026-04-11T08:39:53Z</time></trkpt><trkpt lat="43.325112805071" lon="11.401144483276564"><ele>227.42857142857142</ele><time>2026-04-11T08:39:58Z</time></trkpt><trkpt lat="43.32511461934229" lon="11.401036368829141"><ele>228.14285714285714</ele><time>2026-04-11T08:40:03Z</time></trkpt><trkpt lat="43.32511877097618" lon="11.400936155255998"><ele>228.85714285714286</ele><time>2026-04-11T08:40:08Z</time></trkpt><trkpt lat="43.32509940503256" lon="11.400852345761114"><ele>229.57142857142856</ele><time>2026-04-11T08:40:12Z</time></trkpt><trkpt lat="43.325121508647435" lon="11.400745955876676"><ele>230.28571428571428</ele><time>2026-04-11T08:40:17Z</time></trkpt><trkpt lat="43.32511184820715" lon="11.400646584488568"><ele>231.0</ele><time>2026-04-11T08:40:24Z</time></trkpt><trkpt lat="43.32511248648195" lon="11.400555561235207"><ele>231.71428571428572</ele><time>2026-04-11T08:40:28Z</time></trkpt><trkpt lat="43.32510648072654" lon="11.400467620723738"><ele>232.42857142857144</ele><time>2026-04-11T08:40:32Z</time></trkpt><trkpt lat="43.32512406362413" lon="11.400381959259567"><ele>233.14285714285714</ele><time>2026-04-11T08:40:36Z</time></trkpt><trkpt lat="43.325134268091354" lon="11.400293404451666"><ele>233.85714285714286</ele><time>2026-04-11T08:40:40Z</time></trkpt><trkpt lat="43.325161272620825" lon="11.400203804745992"><ele>234.57142857142858</ele><time>2026-04-11T08:40:45Z</time></trkpt><trkpt lat="43.32517060048253" lon="11.400107711893357"><ele>235.28571428571428</ele><time>2026-04-11T08:40:50Z</time></trkpt><trkpt lat="43.32518525670613" lon="11.400011464477588"><ele>236.0</ele><time>2026-04-11T08:40:54Z</time></trkpt><trkpt lat="43.325161056550435" lon="11.399928586330255"><ele>236.0</ele><time>2026-04-11T08:40:57Z</time></trkpt><trkpt lat="43.325169065478136" lon="11.399840273647625"><ele>236.0</ele><time>2026-04-11T08:41:01Z</time></trkpt><trkpt lat="43.325158559332095" lon="11.39974327057081"><ele>236.0</ele><time>2026-04-11T08:41:06Z</time></trkpt><trkpt lat="43.32514904689778" lon="11.399641899275046"><ele>236.0</ele><time>2026-04-11T08:41:10Z</time></trkpt><trkpt lat="43.3251439198636" lon="11.399546758432933"><ele>236.0</ele><time>2026-04-11T08:41:14Z</time></trkpt><trkpt lat="43.325119804481254" lon="11.399443244344052"><ele>236.0</ele><time>2026-04-11T08:41:19Z</time></trkpt><trkpt lat="43.325124001944594" lon="11.399349239278594"><ele>236.0</ele><time>2026-04-11T08:41:23Z</time></trkpt><trkpt lat="43.3251194643924" lon="11.399252392185959"><ele>236.83333333333334</ele><time>2026-04-11T08:41:26Z</time></trkpt><trkpt lat="43.32510999393075" lon="11.399146485448307"><ele>237.66666666666669</ele><time>2026-04-11T08:41:29Z</time></trkpt><trkpt lat="43.325092273900424" lon="11.399042219471932"><ele>238.5</ele><time>2026-04-11T08:41:32Z</time></trkpt><trkpt lat="43.325086175893645" lon="11.398936080403626"><ele>239.33333333333331</ele><time>2026-04-11T08:41:35Z</time></trkpt><trkpt lat="43.325086672526666" lon="11.39882537683823"><ele>240.16666666666666</ele><time>2026-04-11T08:41:38Z</time></trkpt><trkpt lat="43.32508100983135" lon="11.398705598912164"><ele>241.0</ele><time>2026-04-11T08:41:41Z</time></trkpt><trkpt lat="43.3250723817476" lon="11.398585897832229"><ele>241.85714285714286</ele><time>2026-04-11T08:41:45Z</time></trkpt><trkpt lat="43.32507405833177" lon="11.39849874698038"><ele>242.71428571428572</ele><time>2026-04-11T08:41:48Z</time></trkpt><trkpt lat="43.32507993835141" lon="11.398404236114084"><ele>243.57142857142858</ele><time>2026-04-11T08:41:51Z</time></trkpt><trkpt lat="43.32506097933147" lon="11.398289841871593"><ele>244.42857142857144</ele><time>2026-04-11T08:41:55Z</time></trkpt><trkpt lat="43.325066439528406" lon="11.398195915939743"><ele>245.28571428571428</ele><time>2026-04-11T08:42:03Z</time></trkpt><trkpt lat="43.32511680681808" lon="11.398140692454552"><ele>246.14285714285717</ele><time>2026-04-11T08:42:26Z</time></trkpt><trkpt lat="43.3251080989738" lon="11.398042830250658"><ele>247.0</ele><time>2026-04-11T08:42:28Z</time></trkpt><trkpt lat="43.3251113347409" lon="11.397955705700879"><ele>247.39999999999998</ele><time>2026-04-11T08:42:30Z</time></trkpt><trkpt lat="43.325123533099536" lon="11.397816647628535"><ele>247.79999999999998</ele><time>2026-04-11T08:42:33Z</time></trkpt><trkpt lat="43.32513721013049" lon="11.397722396924287"><ele>248.2</ele><time>2026-04-11T08:42:35Z</time></trkpt><trkpt lat="43.32517418637965" lon="11.397578484379828"><ele>248.6</ele><time>2026-04-11T08:42:38Z</time></trkpt><trkpt lat="43.325215071385905" lon="11.397476896323207"><ele>249.0</ele><time>2026-04-11T08:42:40Z</time></trkpt><trkpt lat="43.325236035771326" lon="11.39734769176975"><ele>249.0</ele><time>2026-04-11T08:42:44Z</time></trkpt><trkpt lat="43.325267500432524" lon="11.397240857242425"><ele>248.99999999999997</ele><time>2026-04-11T08:42:47Z</time></trkpt><trkpt lat="43.32530245662636" lon="11.397126727226691"><ele>248.99999999999997</ele><time>2026-04-11T08:42:50Z</time></trkpt><trkpt lat="43.325328628735576" lon="11.397017464072714"><ele>249.0</ele><time>2026-04-11T08:42:53Z</time></trkpt><trkpt lat="43.32536087576061" lon="11.39689680682812"><ele>249.0</ele><time>2026-04-11T08:42:56Z</time></trkpt><trkpt lat="43.325426340744784" lon="11.396667708221724"><ele>249.33333333333331</ele><time>2026-04-11T08:43:00Z</time></trkpt><trkpt lat="43.32546195696269" lon="11.396541657335492"><ele>249.66666666666666</ele><time>2026-04-11T08:43:02Z</time></trkpt><trkpt lat="43.325490588413565" lon="11.396458511305406"><ele>250.0</ele><time>2026-04-11T08:43:03Z</time></trkpt><trkpt lat="43.325674200975755" lon="11.395886293165905"><ele>250.0</ele><time>2026-04-11T08:43:06Z</time></trkpt><trkpt lat="43.32568485322917" lon="11.395722894613913"><ele>250.0</ele><time>2026-04-11T08:43:08Z</time></trkpt><trkpt lat="43.32568873187259" lon="11.395561660468017"><ele>250.0</ele><time>2026-04-11T08:43:10Z</time></trkpt><trkpt lat="43.32569502555611" lon="11.395401202501692"><ele>250.0</ele><time>2026-04-11T08:43:12Z</time></trkpt><trkpt lat="43.32569803578494" lon="11.395251702572658"><ele>250.4</ele><time>2026-04-11T08:43:14Z</time></trkpt><trkpt lat="43.32570625005006" lon="11.395091524406004"><ele>250.8</ele><time>2026-04-11T08:43:16Z</time></trkpt><trkpt lat="43.32570532117919" lon="11.39496198637452"><ele>251.2</ele><time>2026-04-11T08:43:18Z</time></trkpt><trkpt lat="43.32571130374662" lon="11.394831924829912"><ele>251.6</ele><time>2026-04-11T08:43:20Z</time></trkpt><trkpt lat="43.325705949750414" lon="11.394693267726911"><ele>252.0</ele><time>2026-04-11T08:43:22Z</time></trkpt><trkpt lat="43.32568952696425" lon="11.394531083437238"><ele>252.6</ele><time>2026-04-11T08:43:24Z</time></trkpt><trkpt lat="43.325649248650464" lon="11.394382143895216"><ele>253.2</ele><time>2026-04-11T08:43:26Z</time></trkpt><trkpt lat="43.32560728064351" lon="11.394229706512068"><ele>253.8</ele><time>2026-04-11T08:43:28Z</time></trkpt><trkpt lat="43.325583113054975" lon="11.394147081733724"><ele>254.4</ele><time>2026-04-11T08:43:29Z</time></trkpt><trkpt lat="43.325542305069064" lon="11.393996075039453"><ele>255.0</ele><time>2026-04-11T08:43:31Z</time></trkpt><trkpt lat="43.32551851262652" lon="11.393907420128235"><ele>255.83333333333334</ele><time>2026-04-11T08:43:32Z</time></trkpt><trkpt lat="43.32546036999439" lon="11.39374820959848"><ele>256.6666666666667</ele><time>2026-04-11T08:43:34Z</time></trkpt><trkpt lat="43.32543930199009" lon="11.393664355677295"><ele>257.5</ele><time>2026-04-11T08:43:35Z</time></trkpt><trkpt lat="43.32541506458043" lon="11.393581701283097"><ele>258.33333333333337</ele><time>2026-04-11T08:43:36Z</time></trkpt><trkpt lat="43.32539355917312" lon="11.393496230143958"><ele>259.1666666666667</ele><time>2026-04-11T08:43:37Z</time></trkpt><trkpt lat="43.32537202952089" lon="11.393413036149125"><ele>260.0</ele><time>2026-04-11T08:43:38Z</time></trkpt><trkpt lat="43.32534212767375" lon="11.393328652743541"><ele>260.0</ele><time>2026-04-11T08:43:39Z</time></trkpt><trkpt lat="43.32530155153408" lon="11.393182357530083"><ele>260.0</ele><time>2026-04-11T08:43:41Z</time></trkpt><trkpt lat="43.325253234172884" lon="11.393048370955961"><ele>260.0</ele><time>2026-04-11T08:43:43Z</time></trkpt><trkpt lat="43.32521920435944" lon="11.392921241437946"><ele>260.0</ele><time>2026-04-11T08:43:45Z</time></trkpt><trkpt lat="43.325178179079096" lon="11.392813920648246"><ele>260.0</ele><time>2026-04-11T08:43:47Z</time></trkpt><trkpt lat="43.325147516770144" lon="11.392728703901744"><ele>260.6666666666667</ele><time>2026-04-11T08:43:50Z</time></trkpt><trkpt lat="43.32511372966135" lon="11.3926231316845"><ele>261.33333333333337</ele><time>2026-04-11T08:43:52Z</time></trkpt><trkpt lat="43.32504595949618" lon="11.392539365844264"><ele>262.0</ele><time>2026-04-11T08:43:55Z</time></trkpt><trkpt lat="43.32497085370724" lon="11.392496941845941"><ele>262.6666666666667</ele><time>2026-04-11T08:43:58Z</time></trkpt><trkpt lat="43.32488661530462" lon="11.392510557099344"><ele>263.3333333333333</ele><time>2026-04-11T08:44:02Z</time></trkpt><trkpt lat="43.32481971078201" lon="11.392522463302665"><ele>264.0</ele><time>2026-04-11T08:44:05Z</time></trkpt><trkpt lat="43.32475332443124" lon="11.392543222923624"><ele>264.1666666666667</ele><time>2026-04-11T08:44:08Z</time></trkpt><trkpt lat="43.324678119097356" lon="11.392538505177741"><ele>264.3333333333333</ele><time>2026-04-11T08:44:12Z</time></trkpt><trkpt lat="43.32460181526122" lon="11.392535041384557"><ele>264.5</ele><time>2026-04-11T08:44:15Z</time></trkpt><trkpt lat="43.32451213600429" lon="11.392519097264291"><ele>264.66666666666663</ele><time>2026-04-11T08:44:18Z</time></trkpt><trkpt lat="43.32444237823611" lon="11.392501140922226"><ele>264.8333333333333</ele><time>2026-04-11T08:44:20Z</time></trkpt><trkpt lat="43.32436912339403" lon="11.392478049936392"><ele>265.0</ele><time>2026-04-11T08:44:23Z</time></trkpt><trkpt lat="43.324261176047514" lon="11.392445099788247"><ele>265.0</ele><time>2026-04-11T08:44:25Z</time></trkpt><trkpt lat="43.32415429533172" lon="11.39239480938843"><ele>265.0</ele><time>2026-04-11T08:44:27Z</time></trkpt><trkpt lat="43.324038489721985" lon="11.392371067020095"><ele>265.0</ele><time>2026-04-11T08:44:29Z</time></trkpt><trkpt lat="43.323917859556204" lon="11.39234650368409"><ele>265.0</ele><time>2026-04-11T08:44:31Z</time></trkpt><trkpt lat="43.32385354196156" lon="11.392327308962637"><ele>265.0</ele><time>2026-04-11T08:44:32Z</time></trkpt><trkpt lat="43.32379311291166" lon="11.392302405970645"><ele>264.8333333333333</ele><time>2026-04-11T08:44:33Z</time></trkpt><trkpt lat="43.323731032436804" lon="11.392282839903972"><ele>264.66666666666663</ele><time>2026-04-11T08:44:34Z</time></trkpt><trkpt lat="43.32360738588119" lon="11.392248120766125"><ele>264.5</ele><time>2026-04-11T08:44:36Z</time></trkpt><trkpt lat="43.32354300078734" lon="11.39223455679985"><ele>264.3333333333333</ele><time>2026-04-11T08:44:37Z</time></trkpt><trkpt lat="43.32347424919082" lon="11.392227594272622"><ele>264.1666666666667</ele><time>2026-04-11T08:44:38Z</time></trkpt><trkpt lat="43.32340395573561" lon="11.39220995947351"><ele>264.0</ele><time>2026-04-11T08:44:39Z</time></trkpt><trkpt lat="43.32327756595282" lon="11.39218050219481"><ele>264.0</ele><time>2026-04-11T08:44:41Z</time></trkpt><trkpt lat="43.32321140243674" lon="11.39217374349238"><ele>264.0</ele><time>2026-04-11T08:44:42Z</time></trkpt><trkpt lat="43.32314771569567" lon="11.392156351088262"><ele>264.0</ele><time>2026-04-11T08:44:43Z</time></trkpt><trkpt lat="43.32307876365901" lon="11.392134400106702"><ele>264.0</ele><time>2026-04-11T08:44:44Z</time></trkpt><trkpt lat="43.32300918938217" lon="11.392123427678488"><ele>264.0</ele><time>2026-04-11T08:44:45Z</time></trkpt><trkpt lat="43.322939695542445" lon="11.392099127162021"><ele>264.0</ele><time>2026-04-11T08:44:46Z</time></trkpt><trkpt lat="43.32287636531788" lon="11.392077392119038"><ele>264.0</ele><time>2026-04-11T08:44:47Z</time></trkpt><trkpt lat="43.32281123237252" lon="11.392061157416867"><ele>262.8333333333333</ele><time>2026-04-11T08:44:48Z</time></trkpt><trkpt lat="43.3227425550975" lon="11.3920396036004"><ele>261.6666666666667</ele><time>2026-04-11T08:44:49Z</time></trkpt><trkpt lat="43.32266983343352" lon="11.392024524207256"><ele>260.5</ele><time>2026-04-11T08:44:50Z</time></trkpt><trkpt lat="43.322592091880715" lon="11.392000561362543"><ele>259.33333333333337</ele><time>2026-04-11T08:44:51Z</time></trkpt><trkpt lat="43.32251690577761" lon="11.391976376360045"><ele>258.1666666666667</ele><time>2026-04-11T08:44:52Z</time></trkpt><trkpt lat="43.32242944821521" lon="11.391956509580716"><ele>257.0</ele><time>2026-04-11T08:44:53Z</time></trkpt><trkpt lat="43.32234536646911" lon="11.391921022470083"><ele>257.0</ele><time>2026-04-11T08:44:54Z</time></trkpt><trkpt lat="43.32225666239164" lon="11.391894076578373"><ele>257.0</ele><time>2026-04-11T08:44:55Z</time></trkpt><trkpt lat="43.32216539079875" lon="11.391868778635498"><ele>257.0</ele><time>2026-04-11T08:44:56Z</time></trkpt><trkpt lat="43.322070388937505" lon="11.391844923583118"><ele>257.0</ele><time>2026-04-11T08:44:57Z</time></trkpt><trkpt lat="43.32197529808849" lon="11.391815658036538"><ele>257.0</ele><time>2026-04-11T08:44:58Z</time></trkpt><trkpt lat="43.3218793673953" lon="11.3917836225663"><ele>256.2</ele><time>2026-04-11T08:44:59Z</time></trkpt><trkpt lat="43.32178182865257" lon="11.391753932858645"><ele>255.39999999999998</ele><time>2026-04-11T08:45:00Z</time></trkpt><trkpt lat="43.321683258351044" lon="11.391719137143458"><ele>254.60000000000002</ele><time>2026-04-11T08:45:01Z</time></trkpt><trkpt lat="43.321586801050394" lon="11.391680691991908"><ele>253.8</ele><time>2026-04-11T08:45:02Z</time></trkpt><trkpt lat="43.32149288961157" lon="11.391634353311957"><ele>253.0</ele><time>2026-04-11T08:45:03Z</time></trkpt><trkpt lat="43.32140545717253" lon="11.391582576773377"><ele>252.2</ele><time>2026-04-11T08:45:04Z</time></trkpt><trkpt lat="43.32131860221365" lon="11.391514336032975"><ele>251.4</ele><time>2026-04-11T08:45:05Z</time></trkpt><trkpt lat="43.32123510147194" lon="11.391447479947871"><ele>250.59999999999997</ele><time>2026-04-11T08:45:06Z</time></trkpt><trkpt lat="43.321156950756546" lon="11.391388462032086"><ele>249.79999999999998</ele><time>2026-04-11T08:45:07Z</time></trkpt><trkpt lat="43.32107448285686" lon="11.391332458614562"><ele>249.0</ele><time>2026-04-11T08:45:08Z</time></trkpt><trkpt lat="43.32099522197309" lon="11.391280984417316"><ele>249.0</ele><time>2026-04-11T08:45:09Z</time></trkpt><trkpt lat="43.32091111893795" lon="11.391231656702592"><ele>249.0</ele><time>2026-04-11T08:45:10Z</time></trkpt><trkpt lat="43.32083071658231" lon="11.391174672585441"><ele>249.0</ele><time>2026-04-11T08:45:11Z</time></trkpt><trkpt lat="43.32075175581553" lon="11.39112155811038"><ele>249.0</ele><time>2026-04-11T08:45:12Z</time></trkpt><trkpt lat="43.32067240106086" lon="11.39107228654522"><ele>249.0</ele><time>2026-04-11T08:45:13Z</time></trkpt><trkpt lat="43.32060112789891" lon="11.391025584773804"><ele>249.0</ele><time>2026-04-11T08:45:14Z</time></trkpt><trkpt lat="43.32052668196461" lon="11.390982751723259"><ele>249.0</ele><time>2026-04-11T08:45:15Z</time></trkpt><trkpt lat="43.320451368664344" lon="11.390951401906127"><ele>248.99999999999997</ele><time>2026-04-11T08:45:16Z</time></trkpt><trkpt lat="43.32037739445752" lon="11.390931546676619"><ele>249.0</ele><time>2026-04-11T08:45:17Z</time></trkpt><trkpt lat="43.320306084513305" lon="11.390916825196657"><ele>249.0</ele><time>2026-04-11T08:45:18Z</time></trkpt><trkpt lat="43.320239662420335" lon="11.390893431886932"><ele>248.99999999999997</ele><time>2026-04-11T08:45:19Z</time></trkpt><trkpt lat="43.320176072234204" lon="11.390857231076174"><ele>249.0</ele><time>2026-04-11T08:45:20Z</time></trkpt><trkpt lat="43.32012586846205" lon="11.390787876355077"><ele>249.0</ele><time>2026-04-11T08:45:21Z</time></trkpt><trkpt lat="43.32009348966725" lon="11.390685442982072"><ele>249.0</ele><time>2026-04-11T08:45:22Z</time></trkpt><trkpt lat="43.32008284718693" lon="11.390567951385782"><ele>249.0</ele><time>2026-04-11T08:45:23Z</time></trkpt><trkpt lat="43.32007624318428" lon="11.390454090733584"><ele>249.0</ele><time>2026-04-11T08:45:24Z</time></trkpt><trkpt lat="43.32006186672954" lon="11.390339154054754"><ele>249.0</ele><time>2026-04-11T08:45:25Z</time></trkpt><trkpt lat="43.320043349205406" lon="11.390222935150025"><ele>249.0</ele><time>2026-04-11T08:45:26Z</time></trkpt><trkpt lat="43.32002242964568" lon="11.390106556748458"><ele>249.0</ele><time>2026-04-11T08:45:27Z</time></trkpt><trkpt lat="43.319996841014415" lon="11.389991449383917"><ele>248.6</ele><time>2026-04-11T08:45:28Z</time></trkpt><trkpt lat="43.31997035789867" lon="11.389871298518214"><ele>248.2</ele><time>2026-04-11T08:45:29Z</time></trkpt><trkpt lat="43.319945531146026" lon="11.389749269640655"><ele>247.79999999999998</ele><time>2026-04-11T08:45:30Z</time></trkpt><trkpt lat="43.31991564508287" lon="11.38962702001674"><ele>247.39999999999998</ele><time>2026-04-11T08:45:31Z</time></trkpt><trkpt lat="43.3198786380537" lon="11.389507167955747"><ele>247.0</ele><time>2026-04-11T08:45:32Z</time></trkpt><trkpt lat="43.31983592527041" lon="11.389385757856553"><ele>246.2</ele><time>2026-04-11T08:45:33Z</time></trkpt><trkpt lat="43.31980070119259" lon="11.38925672615838"><ele>245.39999999999998</ele><time>2026-04-11T08:45:34Z</time></trkpt><trkpt lat="43.31976541695728" lon="11.389121796026805"><ele>244.60000000000002</ele><time>2026-04-11T08:45:35Z</time></trkpt><trkpt lat="43.31973368787028" lon="11.388980465839849"><ele>243.8</ele><time>2026-04-11T08:45:36Z</time></trkpt><trkpt lat="43.319699363185585" lon="11.388837334988258"><ele>243.0</ele><time>2026-04-11T08:45:37Z</time></trkpt><trkpt lat="43.319667976693765" lon="11.388686925620735"><ele>239.5</ele><time>2026-04-11T08:45:38Z</time></trkpt><trkpt lat="43.31963568450047" lon="11.388535810510811"><ele>236.0</ele><time>2026-04-11T08:45:39Z</time></trkpt><trkpt lat="43.31961231386581" lon="11.388385063533736"><ele>232.5</ele><time>2026-04-11T08:45:40Z</time></trkpt><trkpt lat="43.3195791353528" lon="11.388230523317384"><ele>229.0</ele><time>2026-04-11T08:45:41Z</time></trkpt><trkpt lat="43.31954865122794" lon="11.388074454485384"><ele>229.0</ele><time>2026-04-11T08:45:42Z</time></trkpt><trkpt lat="43.319516437070355" lon="11.387924767284563"><ele>228.99999999999997</ele><time>2026-04-11T08:45:43Z</time></trkpt><trkpt lat="43.31949571245415" lon="11.387778902122966"><ele>228.99999999999997</ele><time>2026-04-11T08:45:44Z</time></trkpt><trkpt lat="43.31946636313912" lon="11.387640900206213"><ele>229.0</ele><time>2026-04-11T08:45:45Z</time></trkpt><trkpt lat="43.31940968353635" lon="11.387525186053562"><ele>229.0</ele><time>2026-04-11T08:45:46Z</time></trkpt><trkpt lat="43.31932219222976" lon="11.387436246931129"><ele>229.0</ele><time>2026-04-11T08:45:47Z</time></trkpt><trkpt lat="43.31922769201428" lon="11.387379258920157"><ele>228.99999999999997</ele><time>2026-04-11T08:45:48Z</time></trkpt><trkpt lat="43.319139273249476" lon="11.387330629607971"><ele>228.99999999999997</ele><time>2026-04-11T08:45:49Z</time></trkpt><trkpt lat="43.31907564712491" lon="11.387252467960312"><ele>229.0</ele><time>2026-04-11T08:45:50Z</time></trkpt><trkpt lat="43.31903720090929" lon="11.38714207060641"><ele>229.0</ele><time>2026-04-11T08:45:51Z</time></trkpt><trkpt lat="43.31903311574134" lon="11.387016372691845"><ele>228.6</ele><time>2026-04-11T08:45:52Z</time></trkpt><trkpt lat="43.31905807989834" lon="11.386892408980268"><ele>228.2</ele><time>2026-04-11T08:45:53Z</time></trkpt><trkpt lat="43.31909490729505" lon="11.38677616432542"><ele>227.79999999999998</ele><time>2026-04-11T08:45:54Z</time></trkpt><trkpt lat="43.31913620997657" lon="11.38665987721614"><ele>227.39999999999998</ele><time>2026-04-11T08:45:55Z</time></trkpt><trkpt lat="43.31919633612722" lon="11.386562952372634"><ele>227.0</ele><time>2026-04-11T08:45:56Z</time></trkpt><trkpt lat="43.31927322628203" lon="11.386481910306136"><ele>227.0</ele><time>2026-04-11T08:45:57Z</time></trkpt><trkpt lat="43.319358790114265" lon="11.386417757834586"><ele>227.0</ele><time>2026-04-11T08:45:58Z</time></trkpt><trkpt lat="43.31944617828528" lon="11.386357611537159"><ele>227.0</ele><time>2026-04-11T08:45:59Z</time></trkpt><trkpt lat="43.319537714726565" lon="11.386305341385732"><ele>227.0</ele><time>2026-04-11T08:46:00Z</time></trkpt><trkpt lat="43.31963444555893" lon="11.38624914190813"><ele>227.0</ele><time>2026-04-11T08:46:01Z</time></trkpt><trkpt lat="43.319726090549416" lon="11.386197452724856"><ele>226.16666666666669</ele><time>2026-04-11T08:46:02Z</time></trkpt><trkpt lat="43.31981313020229" lon="11.386144236180721"><ele>225.33333333333334</ele><time>2026-04-11T08:46:03Z</time></trkpt><trkpt lat="43.3198921317187" lon="11.386099589573226"><ele>224.5</ele><time>2026-04-11T08:46:04Z</time></trkpt><trkpt lat="43.31996243540612" lon="11.386043874984978"><ele>223.66666666666669</ele><time>2026-04-11T08:46:05Z</time></trkpt><trkpt lat="43.320026483714926" lon="11.38596058060531"><ele>222.83333333333334</ele><time>2026-04-11T08:46:06Z</time></trkpt><trkpt lat="43.32007854325919" lon="11.385859604240064"><ele>222.0</ele><time>2026-04-11T08:46:07Z</time></trkpt><trkpt lat="43.32011085237933" lon="11.385748120416"><ele>222.0</ele><time>2026-04-11T08:46:08Z</time></trkpt><trkpt lat="43.320123325206275" lon="11.385618001380779"><ele>222.0</ele><time>2026-04-11T08:46:09Z</time></trkpt><trkpt lat="43.32011981089329" lon="11.385482949632783"><ele>222.0</ele><time>2026-04-11T08:46:10Z</time></trkpt><trkpt lat="43.320111452510574" lon="11.38534798554543"><ele>222.0</ele><time>2026-04-11T08:46:11Z</time></trkpt><trkpt lat="43.320113169867845" lon="11.385225565689868"><ele>222.0</ele><time>2026-04-11T08:46:12Z</time></trkpt><trkpt lat="43.320127603033306" lon="11.385098695491521"><ele>221.0</ele><time>2026-04-11T08:46:13Z</time></trkpt><trkpt lat="43.320164831250246" lon="11.384975359897542"><ele>220.0</ele><time>2026-04-11T08:46:14Z</time></trkpt><trkpt lat="43.32022314792336" lon="11.384859741206128"><ele>219.0</ele><time>2026-04-11T08:46:15Z</time></trkpt><trkpt lat="43.32027987487378" lon="11.384746448655397"><ele>218.0</ele><time>2026-04-11T08:46:16Z</time></trkpt><trkpt lat="43.32035257462404" lon="11.384636758667037"><ele>217.0</ele><time>2026-04-11T08:46:17Z</time></trkpt><trkpt lat="43.3204375861399" lon="11.384531778891445"><ele>216.2</ele><time>2026-04-11T08:46:18Z</time></trkpt><trkpt lat="43.320524663393776" lon="11.384431497415171"><ele>215.39999999999998</ele><time>2026-04-11T08:46:19Z</time></trkpt><trkpt lat="43.320611904935646" lon="11.384335549186735"><ele>214.60000000000002</ele><time>2026-04-11T08:46:20Z</time></trkpt><trkpt lat="43.320690276563404" lon="11.384239327447705"><ele>213.8</ele><time>2026-04-11T08:46:21Z</time></trkpt><trkpt lat="43.32074717521384" lon="11.384132359989403"><ele>213.0</ele><time>2026-04-11T08:46:22Z</time></trkpt><trkpt lat="43.320773637572" lon="11.384023673716195"><ele>212.4</ele><time>2026-04-11T08:46:23Z</time></trkpt><trkpt lat="43.32078435350851" lon="11.383896104309695"><ele>211.8</ele><time>2026-04-11T08:46:24Z</time></trkpt><trkpt lat="43.320764800711515" lon="11.38376322189685"><ele>211.2</ele><time>2026-04-11T08:46:25Z</time></trkpt><trkpt lat="43.320726713041125" lon="11.383633542078009"><ele>210.6</ele><time>2026-04-11T08:46:26Z</time></trkpt><trkpt lat="43.32068914381804" lon="11.383499832022"><ele>210.0</ele><time>2026-04-11T08:46:27Z</time></trkpt><trkpt lat="43.32065654020774" lon="11.383361294083919"><ele>208.4</ele><time>2026-04-11T08:46:28Z</time></trkpt><trkpt lat="43.32063261892285" lon="11.383213370059828"><ele>206.8</ele><time>2026-04-11T08:46:29Z</time></trkpt><trkpt lat="43.32061654936179" lon="11.383061995878757"><ele>205.2</ele><time>2026-04-11T08:46:30Z</time></trkpt><trkpt lat="43.32060257953133" lon="11.382907917723182"><ele>203.6</ele><time>2026-04-11T08:46:31Z</time></trkpt><trkpt lat="43.32058770307778" lon="11.382755345549036"><ele>202.0</ele><time>2026-04-11T08:46:32Z</time></trkpt><trkpt lat="43.32056901182113" lon="11.382597695259587"><ele>201.25</ele><time>2026-04-11T08:46:33Z</time></trkpt><trkpt lat="43.3205436974351" lon="11.382445234534238"><ele>200.5</ele><time>2026-04-11T08:46:34Z</time></trkpt><trkpt lat="43.320520340238666" lon="11.38229269786732"><ele>199.75</ele><time>2026-04-11T08:46:35Z</time></trkpt><trkpt lat="43.320497247245555" lon="11.38214053050515"><ele>199.0</ele><time>2026-04-11T08:46:36Z</time></trkpt><trkpt lat="43.320474628949995" lon="11.38199029178445"><ele>198.79999999999998</ele><time>2026-04-11T08:46:37Z</time></trkpt><trkpt lat="43.32045116903241" lon="11.381841864406814"><ele>198.6</ele><time>2026-04-11T08:46:38Z</time></trkpt><trkpt lat="43.32042555157258" lon="11.381694471874118"><ele>198.4</ele><time>2026-04-11T08:46:39Z</time></trkpt><trkpt lat="43.32040005397803" lon="11.381550254427511"><ele>198.2</ele><time>2026-04-11T08:46:40Z</time></trkpt><trkpt lat="43.32037637971414" lon="11.381406848322667"><ele>198.0</ele><time>2026-04-11T08:46:41Z</time></trkpt><trkpt lat="43.32035234795369" lon="11.381266408760279"><ele>197.8</ele><time>2026-04-11T08:46:42Z</time></trkpt><trkpt lat="43.32032945236875" lon="11.381131121435278"><ele>197.60000000000002</ele><time>2026-04-11T08:46:43Z</time></trkpt><trkpt lat="43.32031372995909" lon="11.380993256533515"><ele>197.39999999999998</ele><time>2026-04-11T08:46:44Z</time></trkpt><trkpt lat="43.32031196250767" lon="11.380857484734701"><ele>197.2</ele><time>2026-04-11T08:46:45Z</time></trkpt><trkpt lat="43.32032364780412" lon="11.380722640025962"><ele>197.0</ele><time>2026-04-11T08:46:46Z</time></trkpt><trkpt lat="43.32034615920176" lon="11.38059148425146"><ele>197.00000000000003</ele><time>2026-04-11T08:46:47Z</time></trkpt><trkpt lat="43.32036726379769" lon="11.38046806254959"><ele>197.0</ele><time>2026-04-11T08:46:48Z</time></trkpt><trkpt lat="43.32038473591598" lon="11.380344611506885"><ele>197.0</ele><time>2026-04-11T08:46:49Z</time></trkpt><trkpt lat="43.320395943236235" lon="11.380222121187794"><ele>197.0</ele><time>2026-04-11T08:46:50Z</time></trkpt><trkpt lat="43.320409991570905" lon="11.380106771988796"><ele>197.00000000000003</ele><time>2026-04-11T08:46:51Z</time></trkpt><trkpt lat="43.320430107169415" lon="11.37999835062457"><ele>197.0</ele><time>2026-04-11T08:46:52Z</time></trkpt><trkpt lat="43.320446526880794" lon="11.379895570521926"><ele>197.00000000000003</ele><time>2026-04-11T08:46:53Z</time></trkpt><trkpt lat="43.32045509886072" lon="11.379788828560567"><ele>197.0</ele><time>2026-04-11T08:46:54Z</time></trkpt><trkpt lat="43.320468241977956" lon="11.37968247405995"><ele>197.0</ele><time>2026-04-11T08:46:55Z</time></trkpt><trkpt lat="43.320481652769516" lon="11.37957191312584"><ele>197.0</ele><time>2026-04-11T08:46:56Z</time></trkpt><trkpt lat="43.32049826782167" lon="11.379462590889805"><ele>197.00000000000003</ele><time>2026-04-11T08:46:57Z</time></trkpt><trkpt lat="43.32051441118184" lon="11.379356587873081"><ele>197.0</ele><time>2026-04-11T08:46:58Z</time></trkpt><trkpt lat="43.32053209757418" lon="11.379246412775712"><ele>197.33333333333334</ele><time>2026-04-11T08:46:59Z</time></trkpt><trkpt lat="43.320543476059065" lon="11.379141197918047"><ele>197.66666666666669</ele><time>2026-04-11T08:47:00Z</time></trkpt><trkpt lat="43.320557646333306" lon="11.379029547448841"><ele>198.0</ele><time>2026-04-11T08:47:01Z</time></trkpt><trkpt lat="43.32056694554992" lon="11.37891492926654"><ele>198.33333333333331</ele><time>2026-04-11T08:47:02Z</time></trkpt><trkpt lat="43.320583096307395" lon="11.37880955116913"><ele>198.66666666666666</ele><time>2026-04-11T08:47:03Z</time></trkpt><trkpt lat="43.3205947605725" lon="11.378697493255359"><ele>199.0</ele><time>2026-04-11T08:47:04Z</time></trkpt><trkpt lat="43.320600808449036" lon="11.378582192295468"><ele>200.16666666666666</ele><time>2026-04-11T08:47:05Z</time></trkpt><trkpt lat="43.32060188986862" lon="11.37846360271152"><ele>201.33333333333331</ele><time>2026-04-11T08:47:06Z</time></trkpt><trkpt lat="43.320600101044704" lon="11.378342810322897"><ele>202.5</ele><time>2026-04-11T08:47:07Z</time></trkpt><trkpt lat="43.32059013314275" lon="11.378231978534975"><ele>203.66666666666669</ele><time>2026-04-11T08:47:08Z</time></trkpt><trkpt lat="43.32057962321117" lon="11.378118278931964"><ele>204.83333333333334</ele><time>2026-04-11T08:47:09Z</time></trkpt><trkpt lat="43.320567434462276" lon="11.378008514601627"><ele>206.0</ele><time>2026-04-11T08:47:10Z</time></trkpt><trkpt lat="43.32055523163241" lon="11.377900619475364"><ele>207.33333333333334</ele><time>2026-04-11T08:47:11Z</time></trkpt><trkpt lat="43.32054078899838" lon="11.3777956541926"><ele>208.66666666666669</ele><time>2026-04-11T08:47:12Z</time></trkpt><trkpt lat="43.320524297193266" lon="11.377692307301965"><ele>210.0</ele><time>2026-04-11T08:47:13Z</time></trkpt><trkpt lat="43.32050496333472" lon="11.377586796324682"><ele>211.33333333333331</ele><time>2026-04-11T08:47:14Z</time></trkpt><trkpt lat="43.320490154761096" lon="11.377486000707227"><ele>212.66666666666666</ele><time>2026-04-11T08:47:15Z</time></trkpt><trkpt lat="43.32047687273659" lon="11.37738429620579"><ele>214.0</ele><time>2026-04-11T08:47:16Z</time></trkpt><trkpt lat="43.320466104977335" lon="11.37728300604995"><ele>214.00000000000003</ele><time>2026-04-11T08:47:17Z</time></trkpt><trkpt lat="43.32045156323939" lon="11.377187063726092"><ele>214.0</ele><time>2026-04-11T08:47:18Z</time></trkpt><trkpt lat="43.320442120671125" lon="11.37709302674304"><ele>214.0</ele><time>2026-04-11T08:47:19Z</time></trkpt><trkpt lat="43.320433839868514" lon="11.376987399230954"><ele>214.0</ele><time>2026-04-11T08:47:20Z</time></trkpt><trkpt lat="43.320429387501875" lon="11.37688863343209"><ele>214.0</ele><time>2026-04-11T08:47:21Z</time></trkpt><trkpt lat="43.32042994383414" lon="11.376786685848767"><ele>214.00000000000003</ele><time>2026-04-11T08:47:22Z</time></trkpt><trkpt lat="43.320433617854334" lon="11.376684711931151"><ele>214.0</ele><time>2026-04-11T08:47:23Z</time></trkpt><trkpt lat="43.3204357992056" lon="11.376582003159008"><ele>215.16666666666666</ele><time>2026-04-11T08:47:24Z</time></trkpt><trkpt lat="43.32044179253197" lon="11.376486171571127"><ele>216.33333333333331</ele><time>2026-04-11T08:47:25Z</time></trkpt><trkpt lat="43.320448519141614" lon="11.376392289628788"><ele>217.5</ele><time>2026-04-11T08:47:26Z</time></trkpt><trkpt lat="43.3204574970894" lon="11.376300811911255"><ele>218.66666666666669</ele><time>2026-04-11T08:47:27Z</time></trkpt><trkpt lat="43.32047075179354" lon="11.376146508344673"><ele>219.83333333333334</ele><time>2026-04-11T08:47:29Z</time></trkpt><trkpt lat="43.32048227142632" lon="11.376008800976784"><ele>221.0</ele><time>2026-04-11T08:47:31Z</time></trkpt><trkpt lat="43.320481427907595" lon="11.375902945722887"><ele>221.00000000000003</ele><time>2026-04-11T08:47:33Z</time></trkpt><trkpt lat="43.3204722613405" lon="11.375778382089875"><ele>221.0</ele><time>2026-04-11T08:47:36Z</time></trkpt><trkpt lat="43.320448719573655" lon="11.375697068837574"><ele>221.0</ele><time>2026-04-11T08:47:40Z</time></trkpt><trkpt lat="43.32043961892548" lon="11.375600473179764"><ele>221.0</ele><time>2026-04-11T08:47:44Z</time></trkpt><trkpt lat="43.320423353090845" lon="11.37550064960678"><ele>221.0</ele><time>2026-04-11T08:47:48Z</time></trkpt><trkpt lat="43.32037508068705" lon="11.375432336211222"><ele>221.00000000000003</ele><time>2026-04-11T08:47:51Z</time></trkpt><trkpt lat="43.32033869649715" lon="11.375357696339611"><ele>221.0</ele><time>2026-04-11T08:47:54Z</time></trkpt><trkpt lat="43.32028446193044" lon="11.375275646534918"><ele>221.00000000000003</ele><time>2026-04-11T08:47:58Z</time></trkpt><trkpt lat="43.3202411855993" lon="11.375192085537213"><ele>221.0</ele><time>2026-04-11T08:48:01Z</time></trkpt><trkpt lat="43.32021175047272" lon="11.375107394599823"><ele>221.0</ele><time>2026-04-11T08:48:05Z</time></trkpt><trkpt lat="43.32020792190188" lon="11.375014366660691"><ele>221.0</ele><time>2026-04-11T08:48:08Z</time></trkpt><trkpt lat="43.32022083512802" lon="11.374921766190708"><ele>221.0</ele><time>2026-04-11T08:48:11Z</time></trkpt><trkpt lat="43.32023123724625" lon="11.374817838895053"><ele>221.00000000000003</ele><time>2026-04-11T08:48:15Z</time></trkpt><trkpt lat="43.320245806685655" lon="11.374729176390531"><ele>221.0</ele><time>2026-04-11T08:48:18Z</time></trkpt><trkpt lat="43.320264041502675" lon="11.374622926206293"><ele>221.00000000000003</ele><time>2026-04-11T08:48:22Z</time></trkpt><trkpt lat="43.32030020870767" lon="11.374519506517979"><ele>221.0</ele><time>2026-04-11T08:48:26Z</time></trkpt><trkpt lat="43.32031143785303" lon="11.374431349421316"><ele>221.0</ele><time>2026-04-11T08:48:29Z</time></trkpt><trkpt lat="43.32033734119129" lon="11.374321742377349"><ele>221.0</ele><time>2026-04-11T08:48:33Z</time></trkpt><trkpt lat="43.32036996575631" lon="11.374219538794181"><ele>221.00000000000003</ele><time>2026-04-11T08:48:37Z</time></trkpt><trkpt lat="43.32039058758843" lon="11.374114659411527"><ele>221.0</ele><time>2026-04-11T08:48:41Z</time></trkpt><trkpt lat="43.32042584168978" lon="11.37400882236642"><ele>221.00000000000003</ele><time>2026-04-11T08:48:45Z</time></trkpt><trkpt lat="43.32045757895583" lon="11.37392648408799"><ele>221.0</ele><time>2026-04-11T08:48:48Z</time></trkpt><trkpt lat="43.32048552701335" lon="11.373837625406447"><ele>221.0</ele><time>2026-04-11T08:48:51Z</time></trkpt><trkpt lat="43.32052014030526" lon="11.373757299219937"><ele>221.0</ele><time>2026-04-11T08:48:54Z</time></trkpt><trkpt lat="43.32054901681368" lon="11.373675421495"><ele>221.0</ele><time>2026-04-11T08:48:57Z</time></trkpt><trkpt lat="43.320585492029615" lon="11.373597562427943"><ele>221.00000000000003</ele><time>2026-04-11T08:49:00Z</time></trkpt><trkpt lat="43.32061835136367" lon="11.373492543654555"><ele>221.0</ele><time>2026-04-11T08:49:04Z</time></trkpt><trkpt lat="43.320649169741955" lon="11.373403961870098"><ele>222.33333333333334</ele><time>2026-04-11T08:49:07Z</time></trkpt><trkpt lat="43.320694059603596" lon="11.373338600245882"><ele>223.66666666666669</ele><time>2026-04-11T08:49:10Z</time></trkpt><trkpt lat="43.32073635762625" lon="11.373243001187529"><ele>225.0</ele><time>2026-04-11T08:49:14Z</time></trkpt><trkpt lat="43.32077757744736" lon="11.373174970013464"><ele>226.33333333333331</ele><time>2026-04-11T08:49:17Z</time></trkpt><trkpt lat="43.32081675880815" lon="11.37307016684583"><ele>227.66666666666666</ele><time>2026-04-11T08:49:21Z</time></trkpt><trkpt lat="43.32086233072015" lon="11.372982642635353"><ele>229.0</ele><time>2026-04-11T08:49:25Z</time></trkpt><trkpt lat="43.320905738117546" lon="11.372874699084324"><ele>230.28571428571428</ele><time>2026-04-11T08:49:29Z</time></trkpt><trkpt lat="43.32093558868457" lon="11.372795447803952"><ele>231.57142857142858</ele><time>2026-04-11T08:49:32Z</time></trkpt><trkpt lat="43.32096332918643" lon="11.372713676007109"><ele>232.85714285714286</ele><time>2026-04-11T08:49:35Z</time></trkpt><trkpt lat="43.320974947731145" lon="11.372622636878209"><ele>234.14285714285714</ele><time>2026-04-11T08:49:38Z</time></trkpt><trkpt lat="43.32100143300518" lon="11.372501691835668"><ele>235.42857142857144</ele><time>2026-04-11T08:49:42Z</time></trkpt><trkpt lat="43.32101660200335" lon="11.372414470206023"><ele>236.71428571428572</ele><time>2026-04-11T08:49:45Z</time></trkpt><trkpt lat="43.32103398940487" lon="11.372313371702916"><ele>238.0</ele><time>2026-04-11T08:49:49Z</time></trkpt><trkpt lat="43.321042427135254" lon="11.372213511477593"><ele>239.49999999999997</ele><time>2026-04-11T08:49:53Z</time></trkpt><trkpt lat="43.321079015665056" lon="11.372107750355394"><ele>241.0</ele><time>2026-04-11T08:49:57Z</time></trkpt><trkpt lat="43.32109540641615" lon="11.372018828373193"><ele>242.5</ele><time>2026-04-11T08:50:01Z</time></trkpt><trkpt lat="43.321112676248916" lon="11.371933720957614"><ele>244.0</ele><time>2026-04-11T08:50:04Z</time></trkpt><trkpt lat="43.3211203564282" lon="11.371834576190743"><ele>245.49999999999997</ele><time>2026-04-11T08:50:08Z</time></trkpt><trkpt lat="43.321141833032016" lon="11.37172395972332"><ele>247.0</ele><time>2026-04-11T08:50:12Z</time></trkpt><trkpt lat="43.321164929147265" lon="11.371605722191743"><ele>247.0</ele><time>2026-04-11T08:50:16Z</time></trkpt><trkpt lat="43.321170146501856" lon="11.371504330265024"><ele>247.0</ele><time>2026-04-11T08:50:19Z</time></trkpt><trkpt lat="43.3211748067021" lon="11.371418009467238"><ele>247.0</ele><time>2026-04-11T08:50:22Z</time></trkpt><trkpt lat="43.32118331884338" lon="11.371328651971652"><ele>247.0</ele><time>2026-04-11T08:50:25Z</time></trkpt><trkpt lat="43.321207211493494" lon="11.371216103643002"><ele>247.0</ele><time>2026-04-11T08:50:29Z</time></trkpt><trkpt lat="43.32122083015223" lon="11.37112986876314"><ele>247.0</ele><time>2026-04-11T08:50:32Z</time></trkpt><trkpt lat="43.32123265262956" lon="11.371037980783226"><ele>247.0</ele><time>2026-04-11T08:50:35Z</time></trkpt><trkpt lat="43.32126058691329" lon="11.370928239695944"><ele>247.71428571428572</ele><time>2026-04-11T08:50:39Z</time></trkpt><trkpt lat="43.32128468374513" lon="11.370840929231965"><ele>248.42857142857142</ele><time>2026-04-11T08:50:42Z</time></trkpt><trkpt lat="43.32131050216159" lon="11.370750935879292"><ele>249.14285714285714</ele><time>2026-04-11T08:50:45Z</time></trkpt><trkpt lat="43.3213457037706" lon="11.370670835654074"><ele>249.85714285714286</ele><time>2026-04-11T08:50:48Z</time></trkpt><trkpt lat="43.3213847319735" lon="11.37059663649681"><ele>250.57142857142856</ele><time>2026-04-11T08:50:51Z</time></trkpt><trkpt lat="43.321412671486236" lon="11.370509226043113"><ele>251.28571428571428</ele><time>2026-04-11T08:50:54Z</time></trkpt><trkpt lat="43.32145302802976" lon="11.370427418892104"><ele>252.0</ele><time>2026-04-11T08:50:57Z</time></trkpt><trkpt lat="43.321493644067424" lon="11.370345751095783"><ele>252.0</ele><time>2026-04-11T08:51:00Z</time></trkpt><trkpt lat="43.32152806326004" lon="11.370260740293062"><ele>252.0</ele><time>2026-04-11T08:51:03Z</time></trkpt><trkpt lat="43.321571565995654" lon="11.37018421027258"><ele>252.0</ele><time>2026-04-11T08:51:06Z</time></trkpt><trkpt lat="43.32160760777182" lon="11.370109144789403"><ele>252.0</ele><time>2026-04-11T08:51:09Z</time></trkpt><trkpt lat="43.32164387471382" lon="11.370021128637779"><ele>252.0</ele><time>2026-04-11T08:51:13Z</time></trkpt><trkpt lat="43.32167982668135" lon="11.369949539699572"><ele>252.0</ele><time>2026-04-11T08:51:16Z</time></trkpt><trkpt lat="43.32173763166399" lon="11.369879506569069"><ele>252.0</ele><time>2026-04-11T08:51:19Z</time></trkpt><trkpt lat="43.32176684451215" lon="11.369800160766433"><ele>252.0</ele><time>2026-04-11T08:51:22Z</time></trkpt><trkpt lat="43.32180139655329" lon="11.369726308046252"><ele>252.0</ele><time>2026-04-11T08:51:25Z</time></trkpt><trkpt lat="43.321843361824804" lon="11.36963298349732"><ele>252.0</ele><time>2026-04-11T08:51:29Z</time></trkpt><trkpt lat="43.32188009884958" lon="11.369559247735266"><ele>252.0</ele><time>2026-04-11T08:51:32Z</time></trkpt><trkpt lat="43.32191343317351" lon="11.369485345347352"><ele>252.0</ele><time>2026-04-11T08:51:35Z</time></trkpt><trkpt lat="43.321956265710746" lon="11.369388166567965"><ele>252.0</ele><time>2026-04-11T08:51:39Z</time></trkpt><trkpt lat="43.32197768160439" lon="11.369282485411002"><ele>252.0</ele><time>2026-04-11T08:51:43Z</time></trkpt><trkpt lat="43.3219514086196" lon="11.369192685464597"><ele>253.28571428571428</ele><time>2026-04-11T08:51:47Z</time></trkpt><trkpt lat="43.32188361175121" lon="11.369179291069122"><ele>254.57142857142856</ele><time>2026-04-11T08:51:51Z</time></trkpt><trkpt lat="43.32182681678154" lon="11.369223750746304"><ele>255.85714285714286</ele><time>2026-04-11T08:51:55Z</time></trkpt><trkpt lat="43.32177069991275" lon="11.369274224299293"><ele>257.1428571428571</ele><time>2026-04-11T08:51:59Z</time></trkpt><trkpt lat="43.32171073486639" lon="11.369326934210067"><ele>258.42857142857144</ele><time>2026-04-11T08:52:03Z</time></trkpt><trkpt lat="43.321647878137426" lon="11.369370892126778"><ele>259.7142857142857</ele><time>2026-04-11T08:52:07Z</time></trkpt><trkpt lat="43.32156959315859" lon="11.369393633429585"><ele>261.0</ele><time>2026-04-11T08:52:11Z</time></trkpt><trkpt lat="43.32150730607273" lon="11.36937958714721"><ele>261.0</ele><time>2026-04-11T08:52:14Z</time></trkpt><trkpt lat="43.32144789035814" lon="11.369349408463956"><ele>261.0</ele><time>2026-04-11T08:52:17Z</time></trkpt><trkpt lat="43.32139213815727" lon="11.369301829997712"><ele>261.0</ele><time>2026-04-11T08:52:20Z</time></trkpt><trkpt lat="43.32133083361024" lon="11.369265379580499"><ele>261.0</ele><time>2026-04-11T08:52:24Z</time></trkpt><trkpt lat="43.32128182901706" lon="11.369199814265274"><ele>261.0</ele><time>2026-04-11T08:52:27Z</time></trkpt><trkpt lat="43.321215914185906" lon="11.369142328482528"><ele>261.0</ele><time>2026-04-11T08:52:30Z</time></trkpt><trkpt lat="43.32115478669348" lon="11.36907546779262"><ele>261.0</ele><time>2026-04-11T08:52:33Z</time></trkpt><trkpt lat="43.32109362247676" lon="11.369018056852461"><ele>261.2857142857143</ele><time>2026-04-11T08:52:36Z</time></trkpt><trkpt lat="43.32103669239894" lon="11.368960423041134"><ele>261.57142857142856</ele><time>2026-04-11T08:52:39Z</time></trkpt><trkpt lat="43.32097954278025" lon="11.368888110546001"><ele>261.85714285714283</ele><time>2026-04-11T08:52:43Z</time></trkpt><trkpt lat="43.320965262368425" lon="11.36878549554046"><ele>262.1428571428571</ele><time>2026-04-11T08:52:47Z</time></trkpt><trkpt lat="43.32098482161303" lon="11.368702229498686"><ele>262.4285714285714</ele><time>2026-04-11T08:52:50Z</time></trkpt><trkpt lat="43.3209889616219" lon="11.368594368945878"><ele>262.7142857142857</ele><time>2026-04-11T08:52:54Z</time></trkpt><trkpt lat="43.32100936871815" lon="11.368486426662335"><ele>263.0</ele><time>2026-04-11T08:52:58Z</time></trkpt><trkpt lat="43.321020535623575" lon="11.368400876986168"><ele>263.0</ele><time>2026-04-11T08:53:01Z</time></trkpt><trkpt lat="43.32103638040563" lon="11.368314381108986"><ele>263.0</ele><time>2026-04-11T08:53:04Z</time></trkpt><trkpt lat="43.32103867851365" lon="11.368222652156216"><ele>263.0</ele><time>2026-04-11T08:53:07Z</time></trkpt><trkpt lat="43.3210463752752" lon="11.368120549292673"><ele>263.0</ele><time>2026-04-11T08:53:10Z</time></trkpt><trkpt lat="43.32104886430788" lon="11.368019184658507"><ele>263.0</ele><time>2026-04-11T08:53:13Z</time></trkpt><trkpt lat="43.32104518771041" lon="11.367912387893107"><ele>263.0</ele><time>2026-04-11T08:53:16Z</time></trkpt><trkpt lat="43.32105952703987" lon="11.367797656502129"><ele>263.0</ele><time>2026-04-11T08:53:19Z</time></trkpt><trkpt lat="43.321068930737944" lon="11.367683208630924"><ele>263.6666666666667</ele><time>2026-04-11T08:53:22Z</time></trkpt><trkpt lat="43.3210777733966" lon="11.367561830731571"><ele>264.33333333333337</ele><time>2026-04-11T08:53:25Z</time></trkpt><trkpt lat="43.32108329035978" lon="11.367443169465703"><ele>265.0</ele><time>2026-04-11T08:53:28Z</time></trkpt><trkpt lat="43.3210841307232" lon="11.36732243662944"><ele>265.6666666666667</ele><time>2026-04-11T08:53:31Z</time></trkpt><trkpt lat="43.32109277834335" lon="11.367205887710702"><ele>266.3333333333333</ele><time>2026-04-11T08:53:34Z</time></trkpt><trkpt lat="43.32109684177477" lon="11.36708644115034"><ele>267.0</ele><time>2026-04-11T08:53:37Z</time></trkpt><trkpt lat="43.321070738626915" lon="11.366976385861589"><ele>267.6666666666667</ele><time>2026-04-11T08:53:40Z</time></trkpt><trkpt lat="43.32106534145434" lon="11.366860500365325"><ele>268.3333333333333</ele><time>2026-04-11T08:53:43Z</time></trkpt><trkpt lat="43.32107454063583" lon="11.366741457243629"><ele>269.0</ele><time>2026-04-11T08:53:46Z</time></trkpt><trkpt lat="43.32107015858034" lon="11.366621732777627"><ele>269.66666666666663</ele><time>2026-04-11T08:53:49Z</time></trkpt><trkpt lat="43.321047575825695" lon="11.366498072141923"><ele>270.3333333333333</ele><time>2026-04-11T08:53:52Z</time></trkpt><trkpt lat="43.321041676126605" lon="11.366409744801537"><ele>271.0</ele><time>2026-04-11T08:53:54Z</time></trkpt><trkpt lat="43.321041263180796" lon="11.366319957164423"><ele>271.0</ele><time>2026-04-11T08:53:56Z</time></trkpt><trkpt lat="43.32101454528622" lon="11.36622465619356"><ele>271.0</ele><time>2026-04-11T08:53:58Z</time></trkpt><trkpt lat="43.32105974641013" lon="11.366307205759684"><ele>271.0</ele><time>2026-04-11T08:53:59Z</time></trkpt><trkpt lat="43.32094491777307" lon="11.365734314649536"><ele>271.0</ele><time>2026-04-11T08:54:02Z</time></trkpt><trkpt lat="43.3208954317243" lon="11.365598337384277"><ele>271.0</ele><time>2026-04-11T08:54:04Z</time></trkpt><trkpt lat="43.320857794415424" lon="11.365442046402528"><ele>271.0</ele><time>2026-04-11T08:54:06Z</time></trkpt><trkpt lat="43.32080785545639" lon="11.365299077050565"><ele>271.0</ele><time>2026-04-11T08:54:08Z</time></trkpt><trkpt lat="43.32075511227392" lon="11.365164957922973"><ele>271.2</ele><time>2026-04-11T08:54:10Z</time></trkpt><trkpt lat="43.32070374407141" lon="11.365030634312422"><ele>271.40000000000003</ele><time>2026-04-11T08:54:12Z</time></trkpt><trkpt lat="43.32064454047863" lon="11.364904030717565"><ele>271.6</ele><time>2026-04-11T08:54:14Z</time></trkpt><trkpt lat="43.32058961731302" lon="11.364787249969003"><ele>271.8</ele><time>2026-04-11T08:54:16Z</time></trkpt><trkpt lat="43.32054572044982" lon="11.364682636244424"><ele>272.0</ele><time>2026-04-11T08:54:18Z</time></trkpt><trkpt lat="43.32049532907628" lon="11.36459223225551"><ele>272.2857142857143</ele><time>2026-04-11T08:54:20Z</time></trkpt><trkpt lat="43.32044493602026" lon="11.364529396031719"><ele>272.57142857142856</ele><time>2026-04-11T08:54:22Z</time></trkpt><trkpt lat="43.32040672716258" lon="11.364459283277291"><ele>272.8571428571429</ele><time>2026-04-11T08:54:24Z</time></trkpt><trkpt lat="43.32037144144086" lon="11.36437780984231"><ele>273.1428571428571</ele><time>2026-04-11T08:54:26Z</time></trkpt><trkpt lat="43.320320441448004" lon="11.364309416844998"><ele>273.42857142857144</ele><time>2026-04-11T08:54:28Z</time></trkpt><trkpt lat="43.32026956596785" lon="11.364239005356197"><ele>273.7142857142857</ele><time>2026-04-11T08:54:30Z</time></trkpt><trkpt lat="43.320217858239346" lon="11.364156687424913"><ele>274.0</ele><time>2026-04-11T08:54:32Z</time></trkpt><trkpt lat="43.320179433369525" lon="11.364081716325892"><ele>274.0</ele><time>2026-04-11T08:55:01Z</time></trkpt><trkpt lat="43.32011955642957" lon="11.36400320374646"><ele>274.0</ele><time>2026-04-11T08:55:03Z</time></trkpt><trkpt lat="43.320056681033996" lon="11.363902424579575"><ele>274.0</ele><time>2026-04-11T08:55:05Z</time></trkpt><trkpt lat="43.3199845487818" lon="11.363789019194993"><ele>274.0</ele><time>2026-04-11T08:55:07Z</time></trkpt><trkpt lat="43.31993943504914" lon="11.363722969335376"><ele>274.0</ele><time>2026-04-11T08:55:08Z</time></trkpt><trkpt lat="43.319852733176006" lon="11.363594502216277"><ele>274.42857142857144</ele><time>2026-04-11T08:55:10Z</time></trkpt><trkpt lat="43.319805707487234" lon="11.363528334428114"><ele>274.8571428571429</ele><time>2026-04-11T08:55:11Z</time></trkpt><trkpt lat="43.31975579569094" lon="11.363462971008289"><ele>275.2857142857143</ele><time>2026-04-11T08:55:12Z</time></trkpt><trkpt lat="43.31970692787516" lon="11.363398866342798"><ele>275.7142857142857</ele><time>2026-04-11T08:55:13Z</time></trkpt><trkpt lat="43.31965858332204" lon="11.363334067761274"><ele>276.1428571428571</ele><time>2026-04-11T08:55:14Z</time></trkpt><trkpt lat="43.31960863072224" lon="11.363272829352583"><ele>276.57142857142856</ele><time>2026-04-11T08:55:15Z</time></trkpt><trkpt lat="43.31956479851604" lon="11.363208489072278"><ele>277.0</ele><time>2026-04-11T08:55:16Z</time></trkpt><trkpt lat="43.319527619792154" lon="11.36313534415507"><ele>277.0</ele><time>2026-04-11T08:55:17Z</time></trkpt><trkpt lat="43.31948993818989" lon="11.363054793113276"><ele>277.0</ele><time>2026-04-11T08:55:18Z</time></trkpt><trkpt lat="43.31945309594747" lon="11.362970528052557"><ele>277.0</ele><time>2026-04-11T08:55:19Z</time></trkpt><trkpt lat="43.3194213020678" lon="11.362878261394814"><ele>277.0</ele><time>2026-04-11T08:55:20Z</time></trkpt><trkpt lat="43.31940149923127" lon="11.362772180484455"><ele>277.0</ele><time>2026-04-11T08:55:21Z</time></trkpt><trkpt lat="43.31938086266493" lon="11.362665224967614"><ele>277.0</ele><time>2026-04-11T08:55:22Z</time></trkpt><trkpt lat="43.319342030887974" lon="11.362572329721681"><ele>275.8333333333333</ele><time>2026-04-11T08:55:23Z</time></trkpt><trkpt lat="43.31928600642938" lon="11.362484465179348"><ele>274.66666666666663</ele><time>2026-04-11T08:55:24Z</time></trkpt><trkpt lat="43.31922821708461" lon="11.362400950589485"><ele>273.5</ele><time>2026-04-11T08:55:25Z</time></trkpt><trkpt lat="43.319168600122865" lon="11.362318432921814"><ele>272.3333333333333</ele><time>2026-04-11T08:55:26Z</time></trkpt><trkpt lat="43.31910406405961" lon="11.362236020892901"><ele>271.1666666666667</ele><time>2026-04-11T08:55:27Z</time></trkpt><trkpt lat="43.31904798067145" lon="11.362141736852038"><ele>270.0</ele><time>2026-04-11T08:55:28Z</time></trkpt><trkpt lat="43.318984294672795" lon="11.362043624980164"><ele>269.2</ele><time>2026-04-11T08:55:29Z</time></trkpt><trkpt lat="43.31892097864219" lon="11.361945437733857"><ele>268.4</ele><time>2026-04-11T08:55:30Z</time></trkpt><trkpt lat="43.318864926830905" lon="11.361860858066377"><ele>267.6</ele><time>2026-04-11T08:55:31Z</time></trkpt><trkpt lat="43.31881295367432" lon="11.361766487070033"><ele>266.8</ele><time>2026-04-11T08:55:32Z</time></trkpt><trkpt lat="43.31876299143387" lon="11.361662558096894"><ele>266.0</ele><time>2026-04-11T08:55:33Z</time></trkpt><trkpt lat="43.3187098448132" lon="11.361551773302962"><ele>266.0</ele><time>2026-04-11T08:55:34Z</time></trkpt><trkpt lat="43.31865717267248" lon="11.361434889260822"><ele>266.0</ele><time>2026-04-11T08:55:35Z</time></trkpt><trkpt lat="43.31861048150247" lon="11.361306069638546"><ele>266.0</ele><time>2026-04-11T08:55:36Z</time></trkpt><trkpt lat="43.31857081281317" lon="11.361167316344378"><ele>266.0</ele><time>2026-04-11T08:55:37Z</time></trkpt><trkpt lat="43.31853640627318" lon="11.361027741193247"><ele>266.0</ele><time>2026-04-11T08:55:38Z</time></trkpt><trkpt lat="43.31848948018032" lon="11.360887156170199"><ele>264.40000000000003</ele><time>2026-04-11T08:55:39Z</time></trkpt><trkpt lat="43.31843251958013" lon="11.360765153885357"><ele>262.8</ele><time>2026-04-11T08:55:40Z</time></trkpt><trkpt lat="43.318368302032" lon="11.360654719559633"><ele>261.20000000000005</ele><time>2026-04-11T08:55:41Z</time></trkpt><trkpt lat="43.318310874536444" lon="11.360532011406576"><ele>259.6</ele><time>2026-04-11T08:55:42Z</time></trkpt><trkpt lat="43.31826626754746" lon="11.360398684026856"><ele>258.0</ele><time>2026-04-11T08:55:43Z</time></trkpt><trkpt lat="43.31821394725664" lon="11.360267695791855"><ele>256.6</ele><time>2026-04-11T08:55:44Z</time></trkpt><trkpt lat="43.31815648369162" lon="11.360154681297216"><ele>255.20000000000002</ele><time>2026-04-11T08:55:45Z</time></trkpt><trkpt lat="43.31809260247991" lon="11.360042990968209"><ele>253.8</ele><time>2026-04-11T08:55:46Z</time></trkpt><trkpt lat="43.31802109795701" lon="11.359935790125318"><ele>252.4</ele><time>2026-04-11T08:55:47Z</time></trkpt><trkpt lat="43.31795225389406" lon="11.359824751228826"><ele>251.0</ele><time>2026-04-11T08:55:48Z</time></trkpt><trkpt lat="43.31789842167464" lon="11.35970504105958"><ele>249.0</ele><time>2026-04-11T08:55:49Z</time></trkpt><trkpt lat="43.317853684668954" lon="11.359582357705376"><ele>247.00000000000003</ele><time>2026-04-11T08:55:50Z</time></trkpt><trkpt lat="43.31781363200866" lon="11.359453367586838"><ele>245.00000000000003</ele><time>2026-04-11T08:55:51Z</time></trkpt><trkpt lat="43.3177808934099" lon="11.359318615908967"><ele>243.0</ele><time>2026-04-11T08:55:52Z</time></trkpt><trkpt lat="43.317760289958656" lon="11.359181147780564"><ele>241.0</ele><time>2026-04-11T08:55:53Z</time></trkpt><trkpt lat="43.31773643794061" lon="11.359041953343267"><ele>241.0</ele><time>2026-04-11T08:55:54Z</time></trkpt><trkpt lat="43.317712535403246" lon="11.358910166920545"><ele>241.00000000000003</ele><time>2026-04-11T08:55:55Z</time></trkpt><trkpt lat="43.31768373970081" lon="11.358772534429349"><ele>241.00000000000003</ele><time>2026-04-11T08:55:56Z</time></trkpt><trkpt lat="43.31763730517775" lon="11.358636798929458"><ele>241.0</ele><time>2026-04-11T08:55:57Z</time></trkpt><trkpt lat="43.31756169352757" lon="11.358522134468405"><ele>241.0</ele><time>2026-04-11T08:55:58Z</time></trkpt><trkpt lat="43.31746791572924" lon="11.35842478735477"><ele>240.0</ele><time>2026-04-11T08:55:59Z</time></trkpt><trkpt lat="43.31736522000711" lon="11.35833908687774"><ele>239.0</ele><time>2026-04-11T08:56:00Z</time></trkpt><trkpt lat="43.31724882834037" lon="11.3582927740712"><ele>238.0</ele><time>2026-04-11T08:56:01Z</time></trkpt><trkpt lat="43.31712601299603" lon="11.358285897363478"><ele>237.0</ele><time>2026-04-11T08:56:02Z</time></trkpt><trkpt lat="43.31700535435919" lon="11.358287902858983"><ele>236.0</ele><time>2026-04-11T08:56:03Z</time></trkpt><trkpt lat="43.316890262609945" lon="11.358282240594708"><ele>235.0</ele><time>2026-04-11T08:56:04Z</time></trkpt><trkpt lat="43.31678760005869" lon="11.358257779031701"><ele>234.0</ele><time>2026-04-11T08:56:05Z</time></trkpt><trkpt lat="43.31669309292447" lon="11.358203232859632"><ele>233.0</ele><time>2026-04-11T08:56:06Z</time></trkpt><trkpt lat="43.31660612708864" lon="11.3581067998733"><ele>232.0</ele><time>2026-04-11T08:56:07Z</time></trkpt><trkpt lat="43.3165297381939" lon="11.357980057862475"><ele>232.0</ele><time>2026-04-11T08:56:08Z</time></trkpt><trkpt lat="43.316460210959185" lon="11.3578434597821"><ele>232.0</ele><time>2026-04-11T08:56:09Z</time></trkpt><trkpt lat="43.3163856563846" lon="11.357710023575429"><ele>232.0</ele><time>2026-04-11T08:56:10Z</time></trkpt><trkpt lat="43.316304308865284" lon="11.357581903536968"><ele>232.0</ele><time>2026-04-11T08:56:11Z</time></trkpt><trkpt lat="43.31622164513413" lon="11.357453207236816"><ele>230.75</ele><time>2026-04-11T08:56:12Z</time></trkpt><trkpt lat="43.31614369856108" lon="11.357319474317737"><ele>229.5</ele><time>2026-04-11T08:56:13Z</time></trkpt><trkpt lat="43.31608759308571" lon="11.357174508862341"><ele>228.25</ele><time>2026-04-11T08:56:14Z</time></trkpt><trkpt lat="43.31605982587394" lon="11.357010498370128"><ele>227.0</ele><time>2026-04-11T08:56:15Z</time></trkpt><trkpt lat="43.31605318592143" lon="11.35686199776363"><ele>226.8</ele><time>2026-04-11T08:56:16Z</time></trkpt><trkpt lat="43.316048626027936" lon="11.356717182849804"><ele>226.6</ele><time>2026-04-11T08:56:17Z</time></trkpt><trkpt lat="43.31604708470371" lon="11.356581279622457"><ele>226.40000000000003</ele><time>2026-04-11T08:56:18Z</time></trkpt><trkpt lat="43.31603782744866" lon="11.356458868390714"><ele>226.20000000000002</ele><time>2026-04-11T08:56:19Z</time></trkpt><trkpt lat="43.31603127965774" lon="11.356343820043667"><ele>226.0</ele><time>2026-04-11T08:56:20Z</time></trkpt><trkpt lat="43.31602899051676" lon="11.356242910751263"><ele>225.8</ele><time>2026-04-11T08:56:21Z</time></trkpt><trkpt lat="43.31606013285541" lon="11.35609011813384"><ele>225.60000000000002</ele><time>2026-04-11T08:56:23Z</time></trkpt><trkpt lat="43.316102235534075" lon="11.35602316866706"><ele>225.4</ele><time>2026-04-11T08:56:24Z</time></trkpt><trkpt lat="43.31617660249449" lon="11.355897818935809"><ele>225.2</ele><time>2026-04-11T08:56:26Z</time></trkpt><trkpt lat="43.31623596647825" lon="11.355786710071863"><ele>225.0</ele><time>2026-04-11T08:56:28Z</time></trkpt><trkpt lat="43.316289332169596" lon="11.355674807872552"><ele>225.0</ele><time>2026-04-11T08:56:30Z</time></trkpt><trkpt lat="43.31634361558331" lon="11.355575604953067"><ele>225.0</ele><time>2026-04-11T08:56:32Z</time></trkpt><trkpt lat="43.316389822050326" lon="11.355457286335309"><ele>225.0</ele><time>2026-04-11T08:56:34Z</time></trkpt><trkpt lat="43.31637832525989" lon="11.35532622818989"><ele>225.0</ele><time>2026-04-11T08:56:36Z</time></trkpt><trkpt lat="43.31629088993126" lon="11.355219518668742"><ele>225.0</ele><time>2026-04-11T08:56:38Z</time></trkpt><trkpt lat="43.31618998456498" lon="11.355170146282964"><ele>225.4</ele><time>2026-04-11T08:56:40Z</time></trkpt><trkpt lat="43.316082110483194" lon="11.355152469147718"><ele>225.8</ele><time>2026-04-11T08:56:42Z</time></trkpt><trkpt lat="43.316003916205595" lon="11.355071267731777"><ele>226.2</ele><time>2026-04-11T08:56:44Z</time></trkpt><trkpt lat="43.31597077602966" lon="11.354948851030285"><ele>226.6</ele><time>2026-04-11T08:56:46Z</time></trkpt><trkpt lat="43.31594496120072" lon="11.354833810759919"><ele>227.0</ele><time>2026-04-11T08:56:48Z</time></trkpt><trkpt lat="43.31591286398412" lon="11.354713769360178"><ele>227.57142857142858</ele><time>2026-04-11T08:56:51Z</time></trkpt><trkpt lat="43.31588401293763" lon="11.354632295906901"><ele>228.14285714285717</ele><time>2026-04-11T08:56:53Z</time></trkpt><trkpt lat="43.31584944779395" lon="11.354520924983008"><ele>228.71428571428572</ele><time>2026-04-11T08:56:56Z</time></trkpt><trkpt lat="43.315823612662655" lon="11.354417306104677"><ele>229.28571428571428</ele><time>2026-04-11T08:56:59Z</time></trkpt><trkpt lat="43.31579877257027" lon="11.354316866786872"><ele>229.85714285714286</ele><time>2026-04-11T08:57:02Z</time></trkpt><trkpt lat="43.31577884310176" lon="11.354233303181724"><ele>230.42857142857144</ele><time>2026-04-11T08:57:04Z</time></trkpt><trkpt lat="43.31575577102005" lon="11.354147940944205"><ele>231.0</ele><time>2026-04-11T08:57:06Z</time></trkpt><trkpt lat="43.315732206702364" lon="11.354066854349805"><ele>231.0</ele><time>2026-04-11T08:57:08Z</time></trkpt><trkpt lat="43.31569839128127" lon="11.353945087701636"><ele>231.0</ele><time>2026-04-11T08:57:11Z</time></trkpt><trkpt lat="43.31566706360934" lon="11.3538339488555"><ele>231.0</ele><time>2026-04-11T08:57:14Z</time></trkpt><trkpt lat="43.315633255001835" lon="11.353718505408297"><ele>231.0</ele><time>2026-04-11T08:57:17Z</time></trkpt><trkpt lat="43.31560029686475" lon="11.353609525668922"><ele>231.0</ele><time>2026-04-11T08:57:20Z</time></trkpt><trkpt lat="43.31557203933274" lon="11.353493986497122"><ele>231.0</ele><time>2026-04-11T08:57:23Z</time></trkpt><trkpt lat="43.31555415221986" lon="11.353409849018844"><ele>231.5</ele><time>2026-04-11T08:57:25Z</time></trkpt><trkpt lat="43.315537826175245" lon="11.35332582098837"><ele>232.0</ele><time>2026-04-11T08:57:27Z</time></trkpt><trkpt lat="43.31551775361779" lon="11.353240791734494"><ele>232.5</ele><time>2026-04-11T08:57:29Z</time></trkpt><trkpt lat="43.31547882135454" lon="11.353129178768048"><ele>233.0</ele><time>2026-04-11T08:57:32Z</time></trkpt><trkpt lat="43.315452051288865" lon="11.353013658048752"><ele>233.5</ele><time>2026-04-11T08:57:35Z</time></trkpt><trkpt lat="43.315422875833754" lon="11.352906488486092"><ele>234.0</ele><time>2026-04-11T08:57:38Z</time></trkpt><trkpt lat="43.31539266166051" lon="11.35279545202868"><ele>234.5</ele><time>2026-04-11T08:57:41Z</time></trkpt><trkpt lat="43.315371781770075" lon="11.352684598703744"><ele>235.0</ele><time>2026-04-11T08:57:44Z</time></trkpt><trkpt lat="43.315347212916734" lon="11.352575481015355"><ele>235.5</ele><time>2026-04-11T08:57:47Z</time></trkpt><trkpt lat="43.315317376606046" lon="11.352469031322478"><ele>236.0</ele><time>2026-04-11T08:57:50Z</time></trkpt><trkpt lat="43.31528980466846" lon="11.352367012365956"><ele>236.5</ele><time>2026-04-11T08:57:53Z</time></trkpt><trkpt lat="43.31525756413602" lon="11.352264236643304"><ele>237.0</ele><time>2026-04-11T08:57:56Z</time></trkpt><trkpt lat="43.31522972422282" lon="11.352159549628205"><ele>238.16666666666666</ele><time>2026-04-11T08:57:59Z</time></trkpt><trkpt lat="43.31519503047601" lon="11.35206557618052"><ele>239.33333333333331</ele><time>2026-04-11T08:58:02Z</time></trkpt><trkpt lat="43.31515965879556" lon="11.351969052591206"><ele>240.5</ele><time>2026-04-11T08:58:05Z</time></trkpt><trkpt lat="43.31512526933179" lon="11.351875794288274"><ele>241.66666666666666</ele><time>2026-04-11T08:58:08Z</time></trkpt><trkpt lat="43.31509056227077" lon="11.351786254867228"><ele>242.83333333333331</ele><time>2026-04-11T08:58:11Z</time></trkpt><trkpt lat="43.31504339926868" lon="11.351696849698596"><ele>244.0</ele><time>2026-04-11T08:58:14Z</time></trkpt><trkpt lat="43.31500345917022" lon="11.35160945563813"><ele>243.99999999999997</ele><time>2026-04-11T08:58:17Z</time></trkpt><trkpt lat="43.314960218307625" lon="11.351530097997239"><ele>244.0</ele><time>2026-04-11T08:58:20Z</time></trkpt><trkpt lat="43.3149289410217" lon="11.351435124222522"><ele>244.0</ele><time>2026-04-11T08:58:23Z</time></trkpt><trkpt lat="43.31488938478958" lon="11.351347009343707"><ele>244.0</ele><time>2026-04-11T08:58:26Z</time></trkpt><trkpt lat="43.31484222294944" lon="11.351274577183943"><ele>243.99999999999997</ele><time>2026-04-11T08:58:29Z</time></trkpt><trkpt lat="43.314797698622264" lon="11.351183519281657"><ele>244.0</ele><time>2026-04-11T08:58:32Z</time></trkpt><trkpt lat="43.31476166641914" lon="11.351079504421017"><ele>243.83333333333331</ele><time>2026-04-11T08:58:35Z</time></trkpt><trkpt lat="43.314723130763504" lon="11.350990928086055"><ele>243.66666666666666</ele><time>2026-04-11T08:58:38Z</time></trkpt><trkpt lat="43.31467895414588" lon="11.350896553236218"><ele>243.5</ele><time>2026-04-11T08:58:41Z</time></trkpt><trkpt lat="43.31462876980719" lon="11.350799743270777"><ele>243.33333333333331</ele><time>2026-04-11T08:58:44Z</time></trkpt><trkpt lat="43.3145757080515" lon="11.350703044324522"><ele>243.16666666666666</ele><time>2026-04-11T08:58:47Z</time></trkpt><trkpt lat="43.314535191162676" lon="11.350597876948768"><ele>243.0</ele><time>2026-04-11T08:58:50Z</time></trkpt><trkpt lat="43.3145039439981" lon="11.35047686744183"><ele>243.42857142857142</ele><time>2026-04-11T08:58:53Z</time></trkpt><trkpt lat="43.31448562124624" lon="11.350385711074543"><ele>243.8571428571429</ele><time>2026-04-11T08:58:56Z</time></trkpt><trkpt lat="43.31447427087946" lon="11.350294323251548"><ele>244.2857142857143</ele><time>2026-04-11T08:58:59Z</time></trkpt><trkpt lat="43.31447267124329" lon="11.350193194044456"><ele>244.71428571428572</ele><time>2026-04-11T08:59:03Z</time></trkpt><trkpt lat="43.31452800865338" lon="11.350116818771752"><ele>245.14285714285717</ele><time>2026-04-11T08:59:05Z</time></trkpt><trkpt lat="43.31458521018877" lon="11.35004370779621"><ele>245.5714285714286</ele><time>2026-04-11T08:59:08Z</time></trkpt><trkpt lat="43.31464621848362" lon="11.350005463275242"><ele>246.00000000000003</ele><time>2026-04-11T08:59:13Z</time></trkpt><trkpt lat="43.31471037121575" lon="11.349927972621446"><ele>248.5</ele><time>2026-04-11T08:59:16Z</time></trkpt><trkpt lat="43.314770479135035" lon="11.349891225710195"><ele>251.0</ele><time>2026-04-11T08:59:19Z</time></trkpt><trkpt lat="43.31484890108124" lon="11.349877731860087"><ele>253.5</ele><time>2026-04-11T08:59:23Z</time></trkpt><trkpt lat="43.31491487637426" lon="11.349833110264573"><ele>256.0</ele><time>2026-04-11T08:59:26Z</time></trkpt><trkpt lat="43.31497433906765" lon="11.349737510169936"><ele>258.5</ele><time>2026-04-11T08:59:30Z</time></trkpt><trkpt lat="43.31501601908409" lon="11.349646021186436"><ele>261.0</ele><time>2026-04-11T08:59:34Z</time></trkpt><trkpt lat="43.31506153197069" lon="11.349577471068448"><ele>261.42857142857144</ele><time>2026-04-11T08:59:37Z</time></trkpt><trkpt lat="43.31507007008272" lon="11.349474161682988"><ele>261.85714285714283</ele><time>2026-04-11T08:59:40Z</time></trkpt><trkpt lat="43.315067584961945" lon="11.349373691378009"><ele>262.2857142857143</ele><time>2026-04-11T08:59:44Z</time></trkpt><trkpt lat="43.31503956465673" lon="11.349285618223655"><ele>262.7142857142857</ele><time>2026-04-11T08:59:47Z</time></trkpt><trkpt lat="43.31501677526349" lon="11.34920446901369"><ele>263.14285714285717</ele><time>2026-04-11T08:59:50Z</time></trkpt><trkpt lat="43.31497191889706" lon="11.349116572881828"><ele>263.57142857142856</ele><time>2026-04-11T08:59:53Z</time></trkpt><trkpt lat="43.31490589351866" lon="11.349064587605941"><ele>264.0</ele><time>2026-04-11T08:59:56Z</time></trkpt><trkpt lat="43.314845019480096" lon="11.348996580982986"><ele>264.0</ele><time>2026-04-11T08:59:59Z</time></trkpt><trkpt lat="43.31480031170316" lon="11.348910418426424"><ele>264.0</ele><time>2026-04-11T09:00:02Z</time></trkpt><trkpt lat="43.31476294192873" lon="11.34882456488109"><ele>264.0</ele><time>2026-04-11T09:00:05Z</time></trkpt><trkpt lat="43.31470054493424" lon="11.348767642894261"><ele>264.0</ele><time>2026-04-11T09:00:08Z</time></trkpt><trkpt lat="43.314658175070555" lon="11.348689263939336"><ele>264.0</ele><time>2026-04-11T09:00:11Z</time></trkpt><trkpt lat="43.31464996663195" lon="11.348570968380322"><ele>264.0</ele><time>2026-04-11T09:00:14Z</time></trkpt><trkpt lat="43.314656726599715" lon="11.348475302342864"><ele>265.1666666666667</ele><time>2026-04-11T09:00:17Z</time></trkpt><trkpt lat="43.31467881629089" lon="11.348373456073285"><ele>266.3333333333333</ele><time>2026-04-11T09:00:20Z</time></trkpt><trkpt lat="43.3146878926406" lon="11.348285243082042"><ele>267.5</ele><time>2026-04-11T09:00:23Z</time></trkpt><trkpt lat="43.31468611536585" lon="11.348163053107488"><ele>268.66666666666663</ele><time>2026-04-11T09:00:26Z</time></trkpt><trkpt lat="43.31472835175755" lon="11.34806743039863"><ele>269.8333333333333</ele><time>2026-04-11T09:00:29Z</time></trkpt><trkpt lat="43.31477896092445" lon="11.347979334080797"><ele>271.0</ele><time>2026-04-11T09:00:32Z</time></trkpt><trkpt lat="43.314790884732844" lon="11.34784862154384"><ele>271.0</ele><time>2026-04-11T09:00:35Z</time></trkpt><trkpt lat="43.31483618166221" lon="11.34775991425763"><ele>271.0</ele><time>2026-04-11T09:00:38Z</time></trkpt><trkpt lat="43.3148809961471" lon="11.34764638228179"><ele>271.0</ele><time>2026-04-11T09:00:41Z</time></trkpt><trkpt lat="43.31486608434294" lon="11.347536546716487"><ele>271.0</ele><time>2026-04-11T09:00:43Z</time></trkpt><trkpt lat="43.31486208425074" lon="11.347446557017955"><ele>271.0</ele><time>2026-04-11T09:00:45Z</time></trkpt><trkpt lat="43.314894482598206" lon="11.347353488954099"><ele>271.0</ele><time>2026-04-11T09:00:48Z</time></trkpt><trkpt lat="43.314921644808074" lon="11.347243439637536"><ele>270.5</ele><time>2026-04-11T09:00:51Z</time></trkpt><trkpt lat="43.314937558332254" lon="11.347142661489835"><ele>270.0</ele><time>2026-04-11T09:00:54Z</time></trkpt><trkpt lat="43.315026973044375" lon="11.347069290818432"><ele>269.5</ele><time>2026-04-11T09:00:57Z</time></trkpt><trkpt lat="43.315062638905594" lon="11.34696747679601"><ele>269.0</ele><time>2026-04-11T09:01:00Z</time></trkpt><trkpt lat="43.315086108868904" lon="11.346885684256163"><ele>268.5</ele><time>2026-04-11T09:01:02Z</time></trkpt><trkpt lat="43.31513606922945" lon="11.346815419703969"><ele>268.0</ele><time>2026-04-11T09:01:04Z</time></trkpt><trkpt lat="43.315283045742575" lon="11.346801517683762"><ele>268.0</ele><time>2026-04-11T09:01:07Z</time></trkpt><trkpt lat="43.315342747948186" lon="11.346753424140907"><ele>268.0</ele><time>2026-04-11T09:01:09Z</time></trkpt><trkpt lat="43.315385060650776" lon="11.346667307168186"><ele>268.0</ele><time>2026-04-11T09:01:12Z</time></trkpt><trkpt lat="43.315448372805854" lon="11.346618081776532"><ele>268.0</ele><time>2026-04-11T09:01:14Z</time></trkpt><trkpt lat="43.315499744116686" lon="11.346558015746568"><ele>268.0</ele><time>2026-04-11T09:01:17Z</time></trkpt><trkpt lat="43.31547574449214" lon="11.346457925192373"><ele>268.0</ele><time>2026-04-11T09:01:19Z</time></trkpt><trkpt lat="43.31543806573553" lon="11.346351021780645"><ele>268.0</ele><time>2026-04-11T09:01:20Z</time></trkpt><trkpt lat="43.31551028427288" lon="11.346294756038661"><ele>266.3333333333333</ele><time>2026-04-11T09:01:23Z</time></trkpt><trkpt lat="43.315561328832445" lon="11.346204503735827"><ele>264.66666666666663</ele><time>2026-04-11T09:01:26Z</time></trkpt><trkpt lat="43.3156152807269" lon="11.346120303022348"><ele>263.0</ele><time>2026-04-11T09:01:29Z</time></trkpt><trkpt lat="43.31567294975463" lon="11.346049306515397"><ele>261.3333333333333</ele><time>2026-04-11T09:01:31Z</time></trkpt><trkpt lat="43.31572006080961" lon="11.345980675989162"><ele>259.6666666666667</ele><time>2026-04-11T09:01:33Z</time></trkpt><trkpt lat="43.31578765124423" lon="11.345920579744623"><ele>258.0</ele><time>2026-04-11T09:01:35Z</time></trkpt><trkpt lat="43.315827332927924" lon="11.345851991801915"><ele>260.5</ele><time>2026-04-11T09:01:37Z</time></trkpt><trkpt lat="43.31589310964531" lon="11.345794596527634"><ele>263.0</ele><time>2026-04-11T09:01:39Z</time></trkpt><trkpt lat="43.31592253127518" lon="11.345706056919845"><ele>265.5</ele><time>2026-04-11T09:01:42Z</time></trkpt><trkpt lat="43.31598236851167" lon="11.34566486592147"><ele>268.0</ele><time>2026-04-11T09:01:44Z</time></trkpt><trkpt lat="43.31602972958745" lon="11.345576463759995"><ele>270.5</ele><time>2026-04-11T09:01:47Z</time></trkpt><trkpt lat="43.316098268691334" lon="11.345498803544087"><ele>273.0</ele><time>2026-04-11T09:01:50Z</time></trkpt><trkpt lat="43.31612330287791" lon="11.345404655566668"><ele>273.0</ele><time>2026-04-11T09:01:53Z</time></trkpt><trkpt lat="43.31617875379066" lon="11.3453171417408"><ele>273.0</ele><time>2026-04-11T09:01:56Z</time></trkpt><trkpt lat="43.3162419779176" lon="11.345284660622411"><ele>273.0</ele><time>2026-04-11T09:01:59Z</time></trkpt><trkpt lat="43.31631080392807" lon="11.34520452382668"><ele>273.0</ele><time>2026-04-11T09:02:02Z</time></trkpt><trkpt lat="43.316332511478834" lon="11.345110062899252"><ele>273.0</ele><time>2026-04-11T09:02:04Z</time></trkpt><trkpt lat="43.31637654134142" lon="11.345031894597781"><ele>273.0</ele><time>2026-04-11T09:02:06Z</time></trkpt><trkpt lat="43.31642589668178" lon="11.344960561801775"><ele>274.8333333333333</ele><time>2026-04-11T09:02:08Z</time></trkpt><trkpt lat="43.316458717805745" lon="11.344858462535381"><ele>276.6666666666667</ele><time>2026-04-11T09:02:12Z</time></trkpt><trkpt lat="43.31652988903376" lon="11.344791598782207"><ele>278.5</ele><time>2026-04-11T09:02:15Z</time></trkpt><trkpt lat="43.31655899871726" lon="11.344705739557748"><ele>280.33333333333337</ele><time>2026-04-11T09:02:18Z</time></trkpt><trkpt lat="43.31659798939344" lon="11.344636525052172"><ele>282.1666666666667</ele><time>2026-04-11T09:02:21Z</time></trkpt><trkpt lat="43.31665877865711" lon="11.344554539860125"><ele>284.0</ele><time>2026-04-11T09:02:25Z</time></trkpt><trkpt lat="43.3167250678973" lon="11.344463086740875"><ele>284.0</ele><time>2026-04-11T09:02:28Z</time></trkpt><trkpt lat="43.31678815822477" lon="11.34440025008359"><ele>284.0</ele><time>2026-04-11T09:02:31Z</time></trkpt><trkpt lat="43.3168294382537" lon="11.344318477447436"><ele>284.0</ele><time>2026-04-11T09:02:34Z</time></trkpt><trkpt lat="43.31687293756293" lon="11.344245090813981"><ele>284.0</ele><time>2026-04-11T09:04:58Z</time></trkpt><trkpt lat="43.316808892759084" lon="11.344165455586815"><ele>284.0</ele><time>2026-04-11T09:05:01Z</time></trkpt><trkpt lat="43.31675592725101" lon="11.344098407392726"><ele>284.0</ele><time>2026-04-11T09:05:03Z</time></trkpt><trkpt lat="43.31668173144308" lon="11.34405210865694"><ele>284.0</ele><time>2026-04-11T09:05:05Z</time></trkpt><trkpt lat="43.31663236266212" lon="11.343993298701697"><ele>284.0</ele><time>2026-04-11T09:05:06Z</time></trkpt><trkpt lat="43.31661131262844" lon="11.343835774265763"><ele>284.0</ele><time>2026-04-11T09:05:08Z</time></trkpt><trkpt lat="43.316637549542605" lon="11.343746168475775"><ele>284.0</ele><time>2026-04-11T09:05:09Z</time></trkpt><trkpt lat="43.31667894728538" lon="11.34367395885868"><ele>284.0</ele><time>2026-04-11T09:05:10Z</time></trkpt><trkpt lat="43.31672927178545" lon="11.343607163046027"><ele>284.0</ele><time>2026-04-11T09:05:11Z</time></trkpt><trkpt lat="43.316771802093456" lon="11.343524907366321"><ele>283.6666666666667</ele><time>2026-04-11T09:05:12Z</time></trkpt><trkpt lat="43.31679380015675" lon="11.343441022924587"><ele>283.33333333333337</ele><time>2026-04-11T09:05:13Z</time></trkpt><trkpt lat="43.316807206832245" lon="11.343344720261765"><ele>283.0</ele><time>2026-04-11T09:05:14Z</time></trkpt><trkpt lat="43.316824165945576" lon="11.343239620524317"><ele>282.6666666666667</ele><time>2026-04-11T09:05:15Z</time></trkpt><trkpt lat="43.316838949676175" lon="11.343120972454285"><ele>282.3333333333333</ele><time>2026-04-11T09:05:16Z</time></trkpt><trkpt lat="43.31684891925504" lon="11.343014587152151"><ele>282.0</ele><time>2026-04-11T09:05:17Z</time></trkpt><trkpt lat="43.31686838922884" lon="11.342897785764656"><ele>281.3333333333333</ele><time>2026-04-11T09:05:18Z</time></trkpt><trkpt lat="43.316881743692534" lon="11.342780461428873"><ele>280.6666666666667</ele><time>2026-04-11T09:05:19Z</time></trkpt><trkpt lat="43.316886246097916" lon="11.342669005083076"><ele>280.0</ele><time>2026-04-11T09:05:20Z</time></trkpt><trkpt lat="43.316890950301804" lon="11.342560867855276"><ele>279.33333333333337</ele><time>2026-04-11T09:05:21Z</time></trkpt><trkpt lat="43.31687533786661" lon="11.342454783629986"><ele>278.6666666666667</ele><time>2026-04-11T09:05:22Z</time></trkpt><trkpt lat="43.3168456410631" lon="11.342367100539752"><ele>278.0</ele><time>2026-04-11T09:05:23Z</time></trkpt><trkpt lat="43.316766085763184" lon="11.34230849987141"><ele>278.0</ele><time>2026-04-11T09:05:24Z</time></trkpt><trkpt lat="43.316683779389614" lon="11.342280118468148"><ele>278.0</ele><time>2026-04-11T09:05:25Z</time></trkpt><trkpt lat="43.316602760338576" lon="11.342267715409617"><ele>278.0</ele><time>2026-04-11T09:05:26Z</time></trkpt><trkpt lat="43.316527095837166" lon="11.342251137706917"><ele>278.0</ele><time>2026-04-11T09:05:27Z</time></trkpt><trkpt lat="43.31645004122299" lon="11.342222608149001"><ele>278.0</ele><time>2026-04-11T09:05:28Z</time></trkpt><trkpt lat="43.31637538260509" lon="11.342194919448307"><ele>278.0</ele><time>2026-04-11T09:05:29Z</time></trkpt><trkpt lat="43.31629578455855" lon="11.342171729620958"><ele>278.5</ele><time>2026-04-11T09:05:30Z</time></trkpt><trkpt lat="43.31621921952431" lon="11.342147413108588"><ele>279.0</ele><time>2026-04-11T09:05:31Z</time></trkpt><trkpt lat="43.31614629065891" lon="11.342125308213276"><ele>279.5</ele><time>2026-04-11T09:05:32Z</time></trkpt><trkpt lat="43.31606880419107" lon="11.342102074054573"><ele>280.0</ele><time>2026-04-11T09:05:33Z</time></trkpt><trkpt lat="43.315990694839975" lon="11.342078498174736"><ele>280.5</ele><time>2026-04-11T09:05:34Z</time></trkpt><trkpt lat="43.31591587010865" lon="11.342058525401104"><ele>281.0</ele><time>2026-04-11T09:05:35Z</time></trkpt><trkpt lat="43.315844574107665" lon="11.342039811680737"><ele>281.00000000000006</ele><time>2026-04-11T09:05:36Z</time></trkpt><trkpt lat="43.31577037127104" lon="11.342030591176522"><ele>281.0</ele><time>2026-04-11T09:05:37Z</time></trkpt><trkpt lat="43.315695899180355" lon="11.342041293203353"><ele>281.0</ele><time>2026-04-11T09:05:38Z</time></trkpt><trkpt lat="43.315627998504056" lon="11.342069609144756"><ele>281.0</ele><time>2026-04-11T09:05:39Z</time></trkpt><trkpt lat="43.31556321555641" lon="11.342108551520113"><ele>281.0</ele><time>2026-04-11T09:05:40Z</time></trkpt><trkpt lat="43.31550093034032" lon="11.34216911683395"><ele>281.00000000000006</ele><time>2026-04-11T09:05:41Z</time></trkpt><trkpt lat="43.315435406753586" lon="11.34222778466096"><ele>281.0</ele><time>2026-04-11T09:05:42Z</time></trkpt><trkpt lat="43.31537057637289" lon="11.342286681638699"><ele>280.7142857142857</ele><time>2026-04-11T09:05:43Z</time></trkpt><trkpt lat="43.31530843237168" lon="11.342329934315424"><ele>280.42857142857144</ele><time>2026-04-11T09:05:44Z</time></trkpt><trkpt lat="43.31524926817132" lon="11.34236598179758"><ele>280.1428571428571</ele><time>2026-04-11T09:05:45Z</time></trkpt><trkpt lat="43.31518471016775" lon="11.34241720622604"><ele>279.8571428571429</ele><time>2026-04-11T09:05:46Z</time></trkpt><trkpt lat="43.31512407083237" lon="11.342469639328034"><ele>279.57142857142856</ele><time>2026-04-11T09:05:47Z</time></trkpt><trkpt lat="43.31505287762752" lon="11.342518921766214"><ele>279.2857142857143</ele><time>2026-04-11T09:05:48Z</time></trkpt><trkpt lat="43.31498621422794" lon="11.342569326751786"><ele>279.0</ele><time>2026-04-11T09:05:49Z</time></trkpt><trkpt lat="43.31492667430289" lon="11.342615955649839"><ele>279.0</ele><time>2026-04-11T09:05:50Z</time></trkpt><trkpt lat="43.314862125844456" lon="11.342663708362815"><ele>279.0</ele><time>2026-04-11T09:05:51Z</time></trkpt><trkpt lat="43.31479789022704" lon="11.342720101943314"><ele>279.0</ele><time>2026-04-11T09:05:52Z</time></trkpt><trkpt lat="43.31473395755511" lon="11.342766850364322"><ele>279.0</ele><time>2026-04-11T09:05:53Z</time></trkpt><trkpt lat="43.314659972267094" lon="11.34280682708163"><ele>279.0</ele><time>2026-04-11T09:05:54Z</time></trkpt><trkpt lat="43.31458121405632" lon="11.34280973039549"><ele>279.0</ele><time>2026-04-11T09:05:55Z</time></trkpt><trkpt lat="43.31450375100384" lon="11.342775455345638"><ele>278.3333333333333</ele><time>2026-04-11T09:05:56Z</time></trkpt><trkpt lat="43.314441430404464" lon="11.3427122655867"><ele>277.6666666666667</ele><time>2026-04-11T09:05:57Z</time></trkpt><trkpt lat="43.3143958959139" lon="11.342630170081911"><ele>277.0</ele><time>2026-04-11T09:05:58Z</time></trkpt><trkpt lat="43.31437959317305" lon="11.342525554745697"><ele>276.33333333333337</ele><time>2026-04-11T09:05:59Z</time></trkpt><trkpt lat="43.314362618333995" lon="11.342422281099703"><ele>275.6666666666667</ele><time>2026-04-11T09:06:00Z</time></trkpt><trkpt lat="43.314342236275564" lon="11.342329342684963"><ele>275.0</ele><time>2026-04-11T09:06:01Z</time></trkpt><trkpt lat="43.31432049641751" lon="11.342235072133194"><ele>275.8571428571429</ele><time>2026-04-11T09:06:02Z</time></trkpt><trkpt lat="43.314295423993705" lon="11.34214477006199"><ele>276.7142857142857</ele><time>2026-04-11T09:06:03Z</time></trkpt><trkpt lat="43.31427377970703" lon="11.342052665667147"><ele>277.57142857142856</ele><time>2026-04-11T09:06:04Z</time></trkpt><trkpt lat="43.31423906861232" lon="11.341971646245662"><ele>278.42857142857144</ele><time>2026-04-11T09:06:05Z</time></trkpt><trkpt lat="43.314200606123876" lon="11.341889989473538"><ele>279.2857142857143</ele><time>2026-04-11T09:06:06Z</time></trkpt><trkpt lat="43.314146102159924" lon="11.341829273015382"><ele>280.14285714285717</ele><time>2026-04-11T09:06:07Z</time></trkpt><trkpt lat="43.314079122252984" lon="11.341784774043713"><ele>281.0</ele><time>2026-04-11T09:06:08Z</time></trkpt><trkpt lat="43.31401034666445" lon="11.341760091408783"><ele>281.00000000000006</ele><time>2026-04-11T09:06:09Z</time></trkpt><trkpt lat="43.313948196387166" lon="11.341727440910962"><ele>281.0</ele><time>2026-04-11T09:06:10Z</time></trkpt><trkpt lat="43.31387758148355" lon="11.34169282346154"><ele>281.0</ele><time>2026-04-11T09:06:11Z</time></trkpt><trkpt lat="43.31380761773045" lon="11.341667225008655"><ele>281.0</ele><time>2026-04-11T09:06:12Z</time></trkpt><trkpt lat="43.313733114051345" lon="11.341648926282076"><ele>281.0</ele><time>2026-04-11T09:06:13Z</time></trkpt><trkpt lat="43.31365816766372" lon="11.3416262479001"><ele>281.00000000000006</ele><time>2026-04-11T09:06:14Z</time></trkpt><trkpt lat="43.313587894878765" lon="11.341599879303796"><ele>281.0</ele><time>2026-04-11T09:06:15Z</time></trkpt><trkpt lat="43.313514712790386" lon="11.34157515782403"><ele>280.42857142857144</ele><time>2026-04-11T09:06:16Z</time></trkpt><trkpt lat="43.31344902680677" lon="11.341547346347976"><ele>279.8571428571429</ele><time>2026-04-11T09:06:17Z</time></trkpt><trkpt lat="43.3133787693461" lon="11.341524597444215"><ele>279.2857142857143</ele><time>2026-04-11T09:06:18Z</time></trkpt><trkpt lat="43.31330872946106" lon="11.341490263596613"><ele>278.7142857142857</ele><time>2026-04-11T09:06:19Z</time></trkpt><trkpt lat="43.31323872606183" lon="11.341466481610947"><ele>278.1428571428571</ele><time>2026-04-11T09:06:20Z</time></trkpt><trkpt lat="43.3131662858356" lon="11.341441237879401"><ele>277.57142857142856</ele><time>2026-04-11T09:06:21Z</time></trkpt><trkpt lat="43.31309593063861" lon="11.341415488375205"><ele>277.0</ele><time>2026-04-11T09:06:22Z</time></trkpt><trkpt lat="43.313023170936596" lon="11.341391981769661"><ele>278.0</ele><time>2026-04-11T09:06:23Z</time></trkpt><trkpt lat="43.31295734689808" lon="11.341372428336937"><ele>279.0</ele><time>2026-04-11T09:06:24Z</time></trkpt><trkpt lat="43.31288704137077" lon="11.341344631192365"><ele>280.0</ele><time>2026-04-11T09:06:25Z</time></trkpt><trkpt lat="43.31282540293278" lon="11.341306288380846"><ele>281.0</ele><time>2026-04-11T09:06:26Z</time></trkpt><trkpt lat="43.3127535053198" lon="11.34130005375441"><ele>282.0</ele><time>2026-04-11T09:06:27Z</time></trkpt><trkpt lat="43.31268722879932" lon="11.34128242689815"><ele>283.0</ele><time>2026-04-11T09:06:28Z</time></trkpt><trkpt lat="43.31263122798119" lon="11.341235464548575"><ele>284.0</ele><time>2026-04-11T09:06:29Z</time></trkpt><trkpt lat="43.312579701163806" lon="11.341185496312873"><ele>284.0</ele><time>2026-04-11T09:06:30Z</time></trkpt><trkpt lat="43.312539821171555" lon="11.341116004305183"><ele>284.0</ele><time>2026-04-11T09:06:31Z</time></trkpt><trkpt lat="43.31254404191378" lon="11.341010074012667"><ele>284.0</ele><time>2026-04-11T09:06:32Z</time></trkpt><trkpt lat="43.312522628757485" lon="11.340860093024125"><ele>284.0</ele><time>2026-04-11T09:06:34Z</time></trkpt><trkpt lat="43.31248279842686" lon="11.340751490446037"><ele>284.0</ele><time>2026-04-11T09:06:36Z</time></trkpt><trkpt lat="43.31243146972937" lon="11.340660254687918"><ele>284.0</ele><time>2026-04-11T09:06:38Z</time></trkpt><trkpt lat="43.31237655922085" lon="11.340585009334585"><ele>284.5</ele><time>2026-04-11T09:06:40Z</time></trkpt><trkpt lat="43.3122968976955" lon="11.340534719136416"><ele>285.0</ele><time>2026-04-11T09:06:43Z</time></trkpt><trkpt lat="43.31220778183181" lon="11.340483836075084"><ele>285.5</ele><time>2026-04-11T09:06:46Z</time></trkpt><trkpt lat="43.31215077765383" lon="11.340423610401613"><ele>286.0</ele><time>2026-04-11T09:06:48Z</time></trkpt><trkpt lat="43.31208212216175" lon="11.340353033328212"><ele>286.5</ele><time>2026-04-11T09:06:50Z</time></trkpt><trkpt lat="43.312014052519984" lon="11.340321927016292"><ele>287.0</ele><time>2026-04-11T09:06:52Z</time></trkpt><trkpt lat="43.31196384071949" lon="11.340265722871875"><ele>287.0</ele><time>2026-04-11T09:06:54Z</time></trkpt><trkpt lat="43.31192159179581" lon="11.340197430458385"><ele>287.0</ele><time>2026-04-11T09:06:56Z</time></trkpt><trkpt lat="43.3118655011074" lon="11.34010971935803"><ele>287.0</ele><time>2026-04-11T09:06:59Z</time></trkpt><trkpt lat="43.31183499687918" lon="11.340033190185967"><ele>287.0</ele><time>2026-04-11T09:07:01Z</time></trkpt><trkpt lat="43.31180828296891" lon="11.339914762384446"><ele>287.0</ele><time>2026-04-11T09:07:04Z</time></trkpt><trkpt lat="43.311763744470824" lon="11.33982149896385"><ele>287.0</ele><time>2026-04-11T09:07:06Z</time></trkpt><trkpt lat="43.311750623373925" lon="11.339709772894702"><ele>288.2</ele><time>2026-04-11T09:07:09Z</time></trkpt><trkpt lat="43.31174161550816" lon="11.339609858776345"><ele>289.4</ele><time>2026-04-11T09:07:12Z</time></trkpt><trkpt lat="43.31174226204366" lon="11.339494668467616"><ele>290.6</ele><time>2026-04-11T09:07:15Z</time></trkpt><trkpt lat="43.3117562668733" lon="11.339393270154327"><ele>291.8</ele><time>2026-04-11T09:07:20Z</time></trkpt><trkpt lat="43.31156656073465" lon="11.339331415260114"><ele>293.0</ele><time>2026-04-11T09:07:27Z</time></trkpt><trkpt lat="43.3114793377448" lon="11.33932672746105"><ele>291.8</ele><time>2026-04-11T09:07:29Z</time></trkpt><trkpt lat="43.311371367119044" lon="11.339329449611924"><ele>290.6</ele><time>2026-04-11T09:07:31Z</time></trkpt><trkpt lat="43.311263755408234" lon="11.339332799664348"><ele>289.4</ele><time>2026-04-11T09:07:33Z</time></trkpt><trkpt lat="43.311154563163804" lon="11.339315750611226"><ele>288.2</ele><time>2026-04-11T09:07:35Z</time></trkpt><trkpt lat="43.31103517278992" lon="11.339316137885751"><ele>287.0</ele><time>2026-04-11T09:07:37Z</time></trkpt><trkpt lat="43.3109695866252" lon="11.339318397886704"><ele>287.0</ele><time>2026-04-11T09:07:38Z</time></trkpt><trkpt lat="43.31090318796248" lon="11.339315463040162"><ele>287.0</ele><time>2026-04-11T09:07:39Z</time></trkpt><trkpt lat="43.310829828971976" lon="11.339312563209228"><ele>287.0</ele><time>2026-04-11T09:07:40Z</time></trkpt><trkpt lat="43.31076484081828" lon="11.339308255764168"><ele>287.0</ele><time>2026-04-11T09:07:41Z</time></trkpt><trkpt lat="43.3106945501962" lon="11.339299283544019"><ele>287.0</ele><time>2026-04-11T09:07:42Z</time></trkpt><trkpt lat="43.310621380784646" lon="11.339285707203237"><ele>287.0</ele><time>2026-04-11T09:07:43Z</time></trkpt><trkpt lat="43.31055268538223" lon="11.339276097484074"><ele>287.0</ele><time>2026-04-11T09:07:44Z</time></trkpt><trkpt lat="43.31047999699641" lon="11.339259584729277"><ele>286.57142857142856</ele><time>2026-04-11T09:07:45Z</time></trkpt><trkpt lat="43.310406720183266" lon="11.339245950489921"><ele>286.1428571428571</ele><time>2026-04-11T09:07:46Z</time></trkpt><trkpt lat="43.31032992946292" lon="11.339223539450444"><ele>285.7142857142857</ele><time>2026-04-11T09:07:47Z</time></trkpt><trkpt lat="43.31025665445823" lon="11.3392046561775"><ele>285.2857142857143</ele><time>2026-04-11T09:07:48Z</time></trkpt><trkpt lat="43.310181296397005" lon="11.33918668831345"><ele>284.85714285714283</ele><time>2026-04-11T09:07:49Z</time></trkpt><trkpt lat="43.310109125045955" lon="11.339171202628057"><ele>284.42857142857144</ele><time>2026-04-11T09:07:50Z</time></trkpt><trkpt lat="43.31003789849943" lon="11.339154188532202"><ele>284.0</ele><time>2026-04-11T09:07:51Z</time></trkpt><trkpt lat="43.30995995485797" lon="11.339134728981369"><ele>284.0</ele><time>2026-04-11T09:07:52Z</time></trkpt><trkpt lat="43.30988963092521" lon="11.339126686501823"><ele>284.0</ele><time>2026-04-11T09:07:53Z</time></trkpt><trkpt lat="43.30982447294629" lon="11.339122200126097"><ele>284.0</ele><time>2026-04-11T09:07:54Z</time></trkpt><trkpt lat="43.3097535263148" lon="11.339133627175121"><ele>284.0</ele><time>2026-04-11T09:07:55Z</time></trkpt><trkpt lat="43.309681160204704" lon="11.339119667095115"><ele>284.0</ele><time>2026-04-11T09:07:56Z</time></trkpt><trkpt lat="43.309606999566924" lon="11.339113204761187"><ele>284.0</ele><time>2026-04-11T09:07:57Z</time></trkpt><trkpt lat="43.309535526268085" lon="11.33910920561259"><ele>284.0</ele><time>2026-04-11T09:07:58Z</time></trkpt><trkpt lat="43.30947626941686" lon="11.339062035666782"><ele>283.25</ele><time>2026-04-11T09:07:59Z</time></trkpt><trkpt lat="43.30935417151594" lon="11.33904509727901"><ele>282.5</ele><time>2026-04-11T09:08:01Z</time></trkpt><trkpt lat="43.30923304554285" lon="11.339037724544166"><ele>281.75</ele><time>2026-04-11T09:08:03Z</time></trkpt><trkpt lat="43.30910199957621" lon="11.33902957461513"><ele>281.0</ele><time>2026-04-11T09:08:05Z</time></trkpt><trkpt lat="43.309010609952985" lon="11.339027455043913"><ele>281.0</ele><time>2026-04-11T09:08:06Z</time></trkpt><trkpt lat="43.30894411177433" lon="11.339030383644435"><ele>281.0</ele><time>2026-04-11T09:08:07Z</time></trkpt><trkpt lat="43.30888138349175" lon="11.339019346665786"><ele>281.0</ele><time>2026-04-11T09:08:08Z</time></trkpt><trkpt lat="43.30880366749877" lon="11.338993596774621"><ele>281.0</ele><time>2026-04-11T09:08:09Z</time></trkpt><trkpt lat="43.30873105481181" lon="11.338981099769487"><ele>281.0</ele><time>2026-04-11T09:08:10Z</time></trkpt><trkpt lat="43.30859494903382" lon="11.33893547367504"><ele>281.0</ele><time>2026-04-11T09:08:12Z</time></trkpt><trkpt lat="43.30848782607268" lon="11.338899856656884"><ele>281.2</ele><time>2026-04-11T09:08:14Z</time></trkpt><trkpt lat="43.30836949120349" lon="11.338881084951806"><ele>281.40000000000003</ele><time>2026-04-11T09:08:16Z</time></trkpt><trkpt lat="43.30829515932622" lon="11.338894327974426"><ele>281.6</ele><time>2026-04-11T09:08:17Z</time></trkpt><trkpt lat="43.30817533764097" lon="11.338880186459777"><ele>281.8</ele><time>2026-04-11T09:08:19Z</time></trkpt><trkpt lat="43.308104595064606" lon="11.33889890447763"><ele>282.0</ele><time>2026-04-11T09:08:20Z</time></trkpt><trkpt lat="43.30804175026754" lon="11.338912966720988"><ele>282.0</ele><time>2026-04-11T09:08:21Z</time></trkpt><trkpt lat="43.307953499392816" lon="11.338953721377727"><ele>282.0</ele><time>2026-04-11T09:08:22Z</time></trkpt><trkpt lat="43.30784007282047" lon="11.338954780614124"><ele>282.0</ele><time>2026-04-11T09:08:24Z</time></trkpt><trkpt lat="43.30772883778961" lon="11.338953402731219"><ele>282.0</ele><time>2026-04-11T09:08:26Z</time></trkpt><trkpt lat="43.30759331397847" lon="11.339007273123634"><ele>282.0</ele><time>2026-04-11T09:08:28Z</time></trkpt><trkpt lat="43.307526506749845" lon="11.339020754789573"><ele>282.0</ele><time>2026-04-11T09:08:29Z</time></trkpt><trkpt lat="43.30746370359305" lon="11.339039909893673"><ele>282.0</ele><time>2026-04-11T09:08:30Z</time></trkpt><trkpt lat="43.30734304774694" lon="11.339061531413206"><ele>282.0</ele><time>2026-04-11T09:08:32Z</time></trkpt><trkpt lat="43.307230562966815" lon="11.339108195001332"><ele>282.0</ele><time>2026-04-11T09:08:34Z</time></trkpt><trkpt lat="43.30716647076387" lon="11.339134280803941"><ele>282.0</ele><time>2026-04-11T09:08:35Z</time></trkpt><trkpt lat="43.30709711159917" lon="11.33914950643778"><ele>281.8333333333333</ele><time>2026-04-11T09:08:36Z</time></trkpt><trkpt lat="43.307026933462865" lon="11.339174718399272"><ele>281.6666666666667</ele><time>2026-04-11T09:08:37Z</time></trkpt><trkpt lat="43.30695929163968" lon="11.339198885391696"><ele>281.5</ele><time>2026-04-11T09:08:38Z</time></trkpt><trkpt lat="43.3068955310096" lon="11.339197153560738"><ele>281.33333333333337</ele><time>2026-04-11T09:08:39Z</time></trkpt><trkpt lat="43.30678629029669" lon="11.339155846307055"><ele>281.1666666666667</ele><time>2026-04-11T09:08:41Z</time></trkpt><trkpt lat="43.306714160202375" lon="11.339155834750537"><ele>281.0</ele><time>2026-04-11T09:08:42Z</time></trkpt><trkpt lat="43.306645740190525" lon="11.339129769770606"><ele>281.0</ele><time>2026-04-11T09:08:43Z</time></trkpt><trkpt lat="43.306539528758435" lon="11.339086786252452"><ele>281.0</ele><time>2026-04-11T09:08:45Z</time></trkpt><trkpt lat="43.30647247366451" lon="11.339062650569845"><ele>281.0</ele><time>2026-04-11T09:08:46Z</time></trkpt><trkpt lat="43.306411244886284" lon="11.339033858324681"><ele>281.0</ele><time>2026-04-11T09:08:47Z</time></trkpt><trkpt lat="43.306286264647014" lon="11.338965703587736"><ele>281.0</ele><time>2026-04-11T09:08:49Z</time></trkpt><trkpt lat="43.306182743814446" lon="11.338894649329632"><ele>280.83333333333337</ele><time>2026-04-11T09:08:51Z</time></trkpt><trkpt lat="43.306134874262106" lon="11.338820385146837"><ele>280.6666666666667</ele><time>2026-04-11T09:08:52Z</time></trkpt><trkpt lat="43.30604916180089" lon="11.338722294904239"><ele>280.5</ele><time>2026-04-11T09:08:54Z</time></trkpt><trkpt lat="43.30600893730123" lon="11.338655281639847"><ele>280.3333333333333</ele><time>2026-04-11T09:08:55Z</time></trkpt><trkpt lat="43.30592911918036" lon="11.338540243657254"><ele>280.16666666666663</ele><time>2026-04-11T09:08:57Z</time></trkpt><trkpt lat="43.30588071107204" lon="11.338481736834414"><ele>280.0</ele><time>2026-04-11T09:08:58Z</time></trkpt><trkpt lat="43.305833278437696" lon="11.33841940911719"><ele>280.0</ele><time>2026-04-11T09:08:59Z</time></trkpt><trkpt lat="43.30578422427996" lon="11.338355715264317"><ele>280.0</ele><time>2026-04-11T09:09:00Z</time></trkpt><trkpt lat="43.30573432375921" lon="11.338296133636783"><ele>280.0</ele><time>2026-04-11T09:09:01Z</time></trkpt><trkpt lat="43.30567970041904" lon="11.338234943394518"><ele>280.0</ele><time>2026-04-11T09:09:02Z</time></trkpt><trkpt lat="43.305622849709536" lon="11.338176576087156"><ele>280.0</ele><time>2026-04-11T09:09:03Z</time></trkpt><trkpt lat="43.30558735456405" lon="11.338103786856713"><ele>280.0</ele><time>2026-04-11T09:09:04Z</time></trkpt><trkpt lat="43.305537123437105" lon="11.338039883239341"><ele>280.0</ele><time>2026-04-11T09:09:05Z</time></trkpt><trkpt lat="43.30548705051933" lon="11.337970844381449"><ele>279.85714285714283</ele><time>2026-04-11T09:09:06Z</time></trkpt><trkpt lat="43.30543759674074" lon="11.33791575754487"><ele>279.7142857142857</ele><time>2026-04-11T09:09:07Z</time></trkpt><trkpt lat="43.305373494189" lon="11.337852923865906"><ele>279.57142857142856</ele><time>2026-04-11T09:09:08Z</time></trkpt><trkpt lat="43.305327963510734" lon="11.337785930861758"><ele>279.42857142857144</ele><time>2026-04-11T09:09:09Z</time></trkpt><trkpt lat="43.30527421938558" lon="11.33771849826005"><ele>279.2857142857143</ele><time>2026-04-11T09:09:10Z</time></trkpt><trkpt lat="43.30522617279111" lon="11.337643634825927"><ele>279.1428571428571</ele><time>2026-04-11T09:09:11Z</time></trkpt><trkpt lat="43.305170632260655" lon="11.337593652057908"><ele>279.0</ele><time>2026-04-11T09:09:12Z</time></trkpt><trkpt lat="43.30510840060858" lon="11.337539278128709"><ele>279.0</ele><time>2026-04-11T09:09:13Z</time></trkpt><trkpt lat="43.305042239622196" lon="11.337483424129578"><ele>279.0</ele><time>2026-04-11T09:09:14Z</time></trkpt><trkpt lat="43.30496620021386" lon="11.337445192859812"><ele>279.0</ele><time>2026-04-11T09:09:15Z</time></trkpt><trkpt lat="43.30489370630173" lon="11.337411211519958"><ele>279.0</ele><time>2026-04-11T09:09:16Z</time></trkpt><trkpt lat="43.304805535877136" lon="11.337360397507599"><ele>279.0</ele><time>2026-04-11T09:09:17Z</time></trkpt><trkpt lat="43.30472255655656" lon="11.337303405703693"><ele>279.0</ele><time>2026-04-11T09:09:18Z</time></trkpt><trkpt lat="43.304646720903115" lon="11.337235234953916"><ele>277.6666666666667</ele><time>2026-04-11T09:09:19Z</time></trkpt><trkpt lat="43.30456689747836" lon="11.337190814153677"><ele>276.3333333333333</ele><time>2026-04-11T09:09:20Z</time></trkpt><trkpt lat="43.304485535386426" lon="11.33713220414315"><ele>275.0</ele><time>2026-04-11T09:09:21Z</time></trkpt><trkpt lat="43.30441508252449" lon="11.337073092064543"><ele>273.66666666666663</ele><time>2026-04-11T09:09:22Z</time></trkpt><trkpt lat="43.304344285586296" lon="11.337026021066334"><ele>272.3333333333333</ele><time>2026-04-11T09:09:23Z</time></trkpt><trkpt lat="43.30426900383415" lon="11.336991376318831"><ele>271.0</ele><time>2026-04-11T09:09:24Z</time></trkpt><trkpt lat="43.30420015434468" lon="11.336986489233436"><ele>271.0</ele><time>2026-04-11T09:09:25Z</time></trkpt><trkpt lat="43.304097245966915" lon="11.336993243911714"><ele>271.0</ele><time>2026-04-11T09:09:26Z</time></trkpt><trkpt lat="43.30400299099443" lon="11.337017557832233"><ele>271.0</ele><time>2026-04-11T09:09:27Z</time></trkpt><trkpt lat="43.303921177889066" lon="11.33702804581136"><ele>271.0</ele><time>2026-04-11T09:09:28Z</time></trkpt><trkpt lat="43.30383595865124" lon="11.337050810246053"><ele>271.0</ele><time>2026-04-11T09:09:29Z</time></trkpt><trkpt lat="43.30375125417718" lon="11.33709263407393"><ele>270.8</ele><time>2026-04-11T09:09:30Z</time></trkpt><trkpt lat="43.30366199879375" lon="11.33712479123698"><ele>270.6</ele><time>2026-04-11T09:09:31Z</time></trkpt><trkpt lat="43.303558787411994" lon="11.33715539230985"><ele>270.4</ele><time>2026-04-11T09:09:32Z</time></trkpt><trkpt lat="43.30347242160985" lon="11.337198944635695"><ele>270.2</ele><time>2026-04-11T09:09:33Z</time></trkpt><trkpt lat="43.303388323527344" lon="11.337245003614887"><ele>270.0</ele><time>2026-04-11T09:09:34Z</time></trkpt><trkpt lat="43.30330480595161" lon="11.33728044746208"><ele>270.0</ele><time>2026-04-11T09:09:35Z</time></trkpt><trkpt lat="43.30322721077438" lon="11.337316633992117"><ele>270.0</ele><time>2026-04-11T09:09:36Z</time></trkpt><trkpt lat="43.30314890353449" lon="11.337360847447645"><ele>270.0</ele><time>2026-04-11T09:09:37Z</time></trkpt><trkpt lat="43.3030678016868" lon="11.337403523076025"><ele>270.0</ele><time>2026-04-11T09:09:38Z</time></trkpt><trkpt lat="43.30299152465084" lon="11.33744092572176"><ele>270.0</ele><time>2026-04-11T09:09:39Z</time></trkpt><trkpt lat="43.3029132426956" lon="11.337477610506193"><ele>270.0</ele><time>2026-04-11T09:09:40Z</time></trkpt><trkpt lat="43.302819252039356" lon="11.337537509097604"><ele>269.6</ele><time>2026-04-11T09:09:41Z</time></trkpt><trkpt lat="43.30274267386889" lon="11.337597236344749"><ele>269.2</ele><time>2026-04-11T09:09:42Z</time></trkpt><trkpt lat="43.30266544890263" lon="11.337665652056538"><ele>268.8</ele><time>2026-04-11T09:09:43Z</time></trkpt><trkpt lat="43.30258226093352" lon="11.337730129820129"><ele>268.4</ele><time>2026-04-11T09:09:44Z</time></trkpt><trkpt lat="43.30249116266636" lon="11.33779318133132"><ele>268.0</ele><time>2026-04-11T09:09:45Z</time></trkpt><trkpt lat="43.30240894973038" lon="11.337847958499298"><ele>268.0</ele><time>2026-04-11T09:09:46Z</time></trkpt><trkpt lat="43.302309261078264" lon="11.337892615015388"><ele>268.0</ele><time>2026-04-11T09:09:47Z</time></trkpt><trkpt lat="43.30220922684271" lon="11.337899006494297"><ele>268.0</ele><time>2026-04-11T09:09:48Z</time></trkpt><trkpt lat="43.302101672481264" lon="11.33792475069503"><ele>268.0</ele><time>2026-04-11T09:09:49Z</time></trkpt><trkpt lat="43.30199087281561" lon="11.337958074871938"><ele>268.0</ele><time>2026-04-11T09:09:50Z</time></trkpt><trkpt lat="43.30188680108617" lon="11.338002228107543"><ele>265.6</ele><time>2026-04-11T09:09:51Z</time></trkpt><trkpt lat="43.30177750158044" lon="11.33800508955671"><ele>263.20000000000005</ele><time>2026-04-11T09:09:52Z</time></trkpt><trkpt lat="43.301669102355646" lon="11.338003467458492"><ele>260.8</ele><time>2026-04-11T09:09:53Z</time></trkpt><trkpt lat="43.30156128674656" lon="11.337996932299056"><ele>258.40000000000003</ele><time>2026-04-11T09:09:54Z</time></trkpt><trkpt lat="43.301458598466695" lon="11.337977727388838"><ele>256.0</ele><time>2026-04-11T09:09:55Z</time></trkpt><trkpt lat="43.30135761167745" lon="11.337938677227116"><ele>255.4</ele><time>2026-04-11T09:09:56Z</time></trkpt><trkpt lat="43.30125683919012" lon="11.337886901001974"><ele>254.8</ele><time>2026-04-11T09:09:57Z</time></trkpt><trkpt lat="43.301154067847186" lon="11.33783131827047"><ele>254.20000000000002</ele><time>2026-04-11T09:09:58Z</time></trkpt><trkpt lat="43.301076953292615" lon="11.337759299530276"><ele>253.60000000000002</ele><time>2026-04-11T09:09:59Z</time></trkpt><trkpt lat="43.300984894764866" lon="11.337686489811233"><ele>253.0</ele><time>2026-04-11T09:10:00Z</time></trkpt><trkpt lat="43.30090535534254" lon="11.337609891635545"><ele>253.0</ele><time>2026-04-11T09:10:01Z</time></trkpt><trkpt lat="43.30082835465802" lon="11.337528018508017"><ele>253.0</ele><time>2026-04-11T09:10:02Z</time></trkpt><trkpt lat="43.30073887676012" lon="11.33747562904129"><ele>253.0</ele><time>2026-04-11T09:10:03Z</time></trkpt><trkpt lat="43.300655138523844" lon="11.337410063499549"><ele>253.0</ele><time>2026-04-11T09:10:04Z</time></trkpt><trkpt lat="43.300560577920834" lon="11.337335033834105"><ele>253.0</ele><time>2026-04-11T09:10:05Z</time></trkpt><trkpt lat="43.300497350376354" lon="11.337294656883527"><ele>253.16666666666666</ele><time>2026-04-11T09:10:06Z</time></trkpt><trkpt lat="43.30042059277995" lon="11.337269829505983"><ele>253.33333333333331</ele><time>2026-04-11T09:10:07Z</time></trkpt><trkpt lat="43.30033598058172" lon="11.3372450584851"><ele>253.5</ele><time>2026-04-11T09:10:08Z</time></trkpt><trkpt lat="43.300252533902665" lon="11.337229840230155"><ele>253.66666666666669</ele><time>2026-04-11T09:10:09Z</time></trkpt><trkpt lat="43.30017150035797" lon="11.337221859586371"><ele>253.83333333333334</ele><time>2026-04-11T09:10:10Z</time></trkpt><trkpt lat="43.30008375824739" lon="11.33721098260755"><ele>254.0</ele><time>2026-04-11T09:10:11Z</time></trkpt><trkpt lat="43.30000446648628" lon="11.337199244580416"><ele>253.00000000000003</ele><time>2026-04-11T09:10:12Z</time></trkpt><trkpt lat="43.299925610496764" lon="11.33717774570026"><ele>252.0</ele><time>2026-04-11T09:10:13Z</time></trkpt><trkpt lat="43.299841651176074" lon="11.337143166820553"><ele>251.0</ele><time>2026-04-11T09:10:14Z</time></trkpt><trkpt lat="43.299761312334304" lon="11.33713453733693"><ele>250.0</ele><time>2026-04-11T09:10:15Z</time></trkpt><trkpt lat="43.29967615000349" lon="11.337121045045048"><ele>249.00000000000003</ele><time>2026-04-11T09:10:16Z</time></trkpt><trkpt lat="43.29958828048964" lon="11.337107718641846"><ele>248.0</ele><time>2026-04-11T09:10:17Z</time></trkpt><trkpt lat="43.29950774849184" lon="11.337085299281588"><ele>247.33333333333334</ele><time>2026-04-11T09:10:18Z</time></trkpt><trkpt lat="43.29942096861835" lon="11.337071266843397"><ele>246.66666666666669</ele><time>2026-04-11T09:10:19Z</time></trkpt><trkpt lat="43.2993086395608" lon="11.337134683555389"><ele>246.0</ele><time>2026-04-11T09:10:21Z</time></trkpt><trkpt lat="43.299238959813444" lon="11.33714726756408"><ele>245.33333333333331</ele><time>2026-04-11T09:10:22Z</time></trkpt><trkpt lat="43.29917071625223" lon="11.337162053072179"><ele>244.66666666666666</ele><time>2026-04-11T09:10:23Z</time></trkpt><trkpt lat="43.299103009569414" lon="11.337187661185357"><ele>244.0</ele><time>2026-04-11T09:10:24Z</time></trkpt><trkpt lat="43.2990303997705" lon="11.337207316689247"><ele>243.99999999999997</ele><time>2026-04-11T09:10:25Z</time></trkpt><trkpt lat="43.29895388578549" lon="11.33722516599574"><ele>244.0</ele><time>2026-04-11T09:10:26Z</time></trkpt><trkpt lat="43.2988817989567" lon="11.33725981347711"><ele>244.0</ele><time>2026-04-11T09:10:27Z</time></trkpt><trkpt lat="43.298811435737626" lon="11.337300200443897"><ele>244.0</ele><time>2026-04-11T09:10:28Z</time></trkpt><trkpt lat="43.298733883389204" lon="11.33735573890558"><ele>243.99999999999997</ele><time>2026-04-11T09:10:29Z</time></trkpt><trkpt lat="43.29865696631074" lon="11.337403590409707"><ele>244.0</ele><time>2026-04-11T09:10:30Z</time></trkpt><trkpt lat="43.29859161801182" lon="11.337451748159086"><ele>243.99999999999997</ele><time>2026-04-11T09:10:31Z</time></trkpt><trkpt lat="43.2985262057853" lon="11.337511703031973"><ele>244.0</ele><time>2026-04-11T09:10:32Z</time></trkpt><trkpt lat="43.29844999156435" lon="11.337570915688026"><ele>244.0</ele><time>2026-04-11T09:10:33Z</time></trkpt><trkpt lat="43.298372085743914" lon="11.337613644715185"><ele>244.0</ele><time>2026-04-11T09:10:34Z</time></trkpt><trkpt lat="43.298298539417125" lon="11.337685160429285"><ele>243.99999999999997</ele><time>2026-04-11T09:10:35Z</time></trkpt><trkpt lat="43.29822911016069" lon="11.337772776900183"><ele>244.0</ele><time>2026-04-11T09:10:36Z</time></trkpt><trkpt lat="43.29816044883532" lon="11.337862300208252"><ele>244.0</ele><time>2026-04-11T09:10:37Z</time></trkpt><trkpt lat="43.29809714001273" lon="11.337966491660548"><ele>243.99999999999997</ele><time>2026-04-11T09:10:38Z</time></trkpt><trkpt lat="43.29801859264233" lon="11.338051921907283"><ele>243.99999999999997</ele><time>2026-04-11T09:10:39Z</time></trkpt><trkpt lat="43.29794354993081" lon="11.338159469942376"><ele>244.0</ele><time>2026-04-11T09:10:40Z</time></trkpt><trkpt lat="43.297876425005484" lon="11.338255670535986"><ele>244.0</ele><time>2026-04-11T09:10:41Z</time></trkpt><trkpt lat="43.29781370115913" lon="11.338356364284365"><ele>243.39999999999998</ele><time>2026-04-11T09:10:42Z</time></trkpt><trkpt lat="43.29773342098316" lon="11.338443380475283"><ele>242.79999999999998</ele><time>2026-04-11T09:10:43Z</time></trkpt><trkpt lat="43.29765796665771" lon="11.338532156404767"><ele>242.20000000000002</ele><time>2026-04-11T09:10:44Z</time></trkpt><trkpt lat="43.2975897305666" lon="11.338627087068218"><ele>241.60000000000002</ele><time>2026-04-11T09:10:45Z</time></trkpt><trkpt lat="43.29752380623712" lon="11.338728997043875"><ele>241.0</ele><time>2026-04-11T09:10:46Z</time></trkpt><trkpt lat="43.297455106853484" lon="11.338818268907966"><ele>240.8</ele><time>2026-04-11T09:10:47Z</time></trkpt><trkpt lat="43.29738827173295" lon="11.338909617204049"><ele>240.60000000000002</ele><time>2026-04-11T09:10:48Z</time></trkpt><trkpt lat="43.29732549746916" lon="11.338996153646962"><ele>240.4</ele><time>2026-04-11T09:10:49Z</time></trkpt><trkpt lat="43.297258230820795" lon="11.339086175438581"><ele>240.2</ele><time>2026-04-11T09:10:50Z</time></trkpt><trkpt lat="43.29719156491147" lon="11.339181585625475"><ele>240.0</ele><time>2026-04-11T09:10:51Z</time></trkpt><trkpt lat="43.297124113253304" lon="11.3392662266727"><ele>240.0</ele><time>2026-04-11T09:10:52Z</time></trkpt><trkpt lat="43.297059551955776" lon="11.339357376123129"><ele>240.0</ele><time>2026-04-11T09:10:53Z</time></trkpt><trkpt lat="43.29699396536513" lon="11.339445111935982"><ele>240.0</ele><time>2026-04-11T09:10:54Z</time></trkpt><trkpt lat="43.2969392938308" lon="11.339530509617694"><ele>240.0</ele><time>2026-04-11T09:10:55Z</time></trkpt><trkpt lat="43.296881470002525" lon="11.339618276888167"><ele>240.0</ele><time>2026-04-11T09:10:56Z</time></trkpt><trkpt lat="43.2968212229385" lon="11.339708835157817"><ele>240.0</ele><time>2026-04-11T09:10:57Z</time></trkpt><trkpt lat="43.29675708405457" lon="11.33978695075868"><ele>240.33333333333334</ele><time>2026-04-11T09:10:58Z</time></trkpt><trkpt lat="43.29670686245607" lon="11.33986224674132"><ele>240.66666666666669</ele><time>2026-04-11T09:10:59Z</time></trkpt><trkpt lat="43.29665791519425" lon="11.339947592015221"><ele>241.0</ele><time>2026-04-11T09:11:00Z</time></trkpt><trkpt lat="43.296607932067445" lon="11.340030458184984"><ele>241.33333333333334</ele><time>2026-04-11T09:11:01Z</time></trkpt><trkpt lat="43.29656056471719" lon="11.340121651637343"><ele>241.66666666666669</ele><time>2026-04-11T09:11:02Z</time></trkpt><trkpt lat="43.296517575031565" lon="11.340206441523042"><ele>242.0</ele><time>2026-04-11T09:11:03Z</time></trkpt><trkpt lat="43.296462006911234" lon="11.340279322726296"><ele>242.00000000000003</ele><time>2026-04-11T09:11:04Z</time></trkpt><trkpt lat="43.29642588545218" lon="11.340352509114227"><ele>242.0</ele><time>2026-04-11T09:11:05Z</time></trkpt><trkpt lat="43.29638766310342" lon="11.340435778467242"><ele>242.0</ele><time>2026-04-11T09:11:06Z</time></trkpt><trkpt lat="43.29635367603849" lon="11.340512856305404"><ele>242.0</ele><time>2026-04-11T09:11:07Z</time></trkpt><trkpt lat="43.296318165850664" lon="11.340593388658005"><ele>242.00000000000003</ele><time>2026-04-11T09:11:08Z</time></trkpt><trkpt lat="43.29629273736289" lon="11.340683011755148"><ele>242.0</ele><time>2026-04-11T09:11:09Z</time></trkpt><trkpt lat="43.29623196162198" lon="11.340815627372201"><ele>242.6</ele><time>2026-04-11T09:11:11Z</time></trkpt><trkpt lat="43.29617914824816" lon="11.34095099591045"><ele>243.2</ele><time>2026-04-11T09:11:13Z</time></trkpt><trkpt lat="43.29612899050073" lon="11.34107860086723"><ele>243.8</ele><time>2026-04-11T09:11:15Z</time></trkpt><trkpt lat="43.29608993484629" lon="11.34119390218068"><ele>244.4</ele><time>2026-04-11T09:11:17Z</time></trkpt><trkpt lat="43.29602723376021" lon="11.341284969537508"><ele>245.0</ele><time>2026-04-11T09:11:19Z</time></trkpt><trkpt lat="43.29598380561378" lon="11.341389069565855"><ele>245.0</ele><time>2026-04-11T09:11:22Z</time></trkpt><trkpt lat="43.29593209807163" lon="11.341489620663992"><ele>245.0</ele><time>2026-04-11T09:11:25Z</time></trkpt><trkpt lat="43.295888801039624" lon="11.341593521697979"><ele>245.0</ele><time>2026-04-11T09:11:27Z</time></trkpt><trkpt lat="43.295847468648915" lon="11.341704292095091"><ele>245.0</ele><time>2026-04-11T09:11:29Z</time></trkpt><trkpt lat="43.29579522249387" lon="11.34182437073025"><ele>245.0</ele><time>2026-04-11T09:11:31Z</time></trkpt><trkpt lat="43.29573343053635" lon="11.341945295691579"><ele>245.00000000000003</ele><time>2026-04-11T09:11:33Z</time></trkpt><trkpt lat="43.29565522555857" lon="11.342056439179126"><ele>245.0</ele><time>2026-04-11T09:11:35Z</time></trkpt><trkpt lat="43.295555789837714" lon="11.34216101045036"><ele>245.0</ele><time>2026-04-11T09:11:37Z</time></trkpt><trkpt lat="43.29550321977094" lon="11.342217489027028"><ele>245.0</ele><time>2026-04-11T09:11:38Z</time></trkpt><trkpt lat="43.295452372882075" lon="11.342273166756131"><ele>245.00000000000003</ele><time>2026-04-11T09:11:39Z</time></trkpt><trkpt lat="43.29538951922805" lon="11.342318014648587"><ele>245.0</ele><time>2026-04-11T09:11:40Z</time></trkpt><trkpt lat="43.295333673999295" lon="11.34236518997349"><ele>245.0</ele><time>2026-04-11T09:11:41Z</time></trkpt><trkpt lat="43.295272159253116" lon="11.342412336516423"><ele>245.0</ele><time>2026-04-11T09:11:42Z</time></trkpt><trkpt lat="43.29514400769685" lon="11.342513882321864"><ele>245.0</ele><time>2026-04-11T09:11:44Z</time></trkpt><trkpt lat="43.29506938983484" lon="11.342573454115648"><ele>245.0</ele><time>2026-04-11T09:11:45Z</time></trkpt><trkpt lat="43.29499847107795" lon="11.34262858775942"><ele>245.0</ele><time>2026-04-11T09:11:46Z</time></trkpt><trkpt lat="43.29492785735805" lon="11.342667422363832"><ele>245.0</ele><time>2026-04-11T09:11:47Z</time></trkpt><trkpt lat="43.29485773156687" lon="11.342699766441575"><ele>245.0</ele><time>2026-04-11T09:11:48Z</time></trkpt><trkpt lat="43.29479105148951" lon="11.34273248851653"><ele>245.0</ele><time>2026-04-11T09:11:49Z</time></trkpt><trkpt lat="43.29472708040681" lon="11.342764163223146"><ele>245.0</ele><time>2026-04-11T09:11:50Z</time></trkpt><trkpt lat="43.294664020258054" lon="11.34279616376421"><ele>245.0</ele><time>2026-04-11T09:11:51Z</time></trkpt><trkpt lat="43.294593039631685" lon="11.34283043835581"><ele>245.0</ele><time>2026-04-11T09:11:52Z</time></trkpt><trkpt lat="43.294525719741735" lon="11.342867975256727"><ele>245.0</ele><time>2026-04-11T09:11:53Z</time></trkpt><trkpt lat="43.294449891272976" lon="11.342909744974408"><ele>244.85714285714286</ele><time>2026-04-11T09:11:54Z</time></trkpt><trkpt lat="43.29438501851285" lon="11.34294230434903"><ele>244.71428571428572</ele><time>2026-04-11T09:11:55Z</time></trkpt><trkpt lat="43.294314877463634" lon="11.342973901283228"><ele>244.57142857142856</ele><time>2026-04-11T09:11:56Z</time></trkpt><trkpt lat="43.29424235020247" lon="11.343000606042711"><ele>244.42857142857142</ele><time>2026-04-11T09:11:57Z</time></trkpt><trkpt lat="43.29416631243868" lon="11.343036108423812"><ele>244.28571428571428</ele><time>2026-04-11T09:11:58Z</time></trkpt><trkpt lat="43.294096443739804" lon="11.343057152417513"><ele>244.1428571428571</ele><time>2026-04-11T09:11:59Z</time></trkpt><trkpt lat="43.29403051761479" lon="11.343077726531666"><ele>243.99999999999997</ele><time>2026-04-11T09:12:00Z</time></trkpt><trkpt lat="43.29395837417739" lon="11.343090547062227"><ele>243.85714285714283</ele><time>2026-04-11T09:12:01Z</time></trkpt><trkpt lat="43.29388050853908" lon="11.343111076365686"><ele>243.71428571428572</ele><time>2026-04-11T09:12:02Z</time></trkpt><trkpt lat="43.293805309134314" lon="11.343131386557701"><ele>243.57142857142856</ele><time>2026-04-11T09:12:03Z</time></trkpt><trkpt lat="43.29373518986643" lon="11.343151495964676"><ele>243.42857142857142</ele><time>2026-04-11T09:12:04Z</time></trkpt><trkpt lat="43.293663845434565" lon="11.343173542986053"><ele>243.28571428571428</ele><time>2026-04-11T09:12:05Z</time></trkpt><trkpt lat="43.293590684081174" lon="11.343190074295343"><ele>243.14285714285714</ele><time>2026-04-11T09:12:06Z</time></trkpt><trkpt lat="43.29352092243905" lon="11.343213236143981"><ele>243.0</ele><time>2026-04-11T09:12:07Z</time></trkpt><trkpt lat="43.29344958472311" lon="11.343233982701173"><ele>243.0</ele><time>2026-04-11T09:12:08Z</time></trkpt><trkpt lat="43.29337378942183" lon="11.343256661343617"><ele>243.0</ele><time>2026-04-11T09:12:09Z</time></trkpt><trkpt lat="43.29330281094826" lon="11.343281050276287"><ele>243.0</ele><time>2026-04-11T09:12:10Z</time></trkpt><trkpt lat="43.29323491641427" lon="11.343300845929624"><ele>243.0</ele><time>2026-04-11T09:12:11Z</time></trkpt><trkpt lat="43.29316580370574" lon="11.34330767605597"><ele>243.0</ele><time>2026-04-11T09:12:12Z</time></trkpt><trkpt lat="43.293093531677776" lon="11.343325186460735"><ele>243.0</ele><time>2026-04-11T09:12:13Z</time></trkpt><trkpt lat="43.29303254080346" lon="11.343349488382106"><ele>243.0</ele><time>2026-04-11T09:12:14Z</time></trkpt><trkpt lat="43.29290875651426" lon="11.343391743220938"><ele>243.57142857142856</ele><time>2026-04-11T09:12:16Z</time></trkpt><trkpt lat="43.29284284964548" lon="11.343419759067693"><ele>244.14285714285717</ele><time>2026-04-11T09:12:17Z</time></trkpt><trkpt lat="43.29277961854593" lon="11.343447539530855"><ele>244.71428571428572</ele><time>2026-04-11T09:12:18Z</time></trkpt><trkpt lat="43.29271824894172" lon="11.343468937968305"><ele>245.28571428571428</ele><time>2026-04-11T09:12:19Z</time></trkpt><trkpt lat="43.29265562631529" lon="11.343490334502507"><ele>245.85714285714283</ele><time>2026-04-11T09:12:20Z</time></trkpt><trkpt lat="43.29259131710304" lon="11.343514448162148"><ele>246.42857142857144</ele><time>2026-04-11T09:12:21Z</time></trkpt><trkpt lat="43.2924828446638" lon="11.343570532154773"><ele>247.0</ele><time>2026-04-11T09:12:23Z</time></trkpt><trkpt lat="43.29237274439664" lon="11.343616270221547"><ele>247.0</ele><time>2026-04-11T09:12:25Z</time></trkpt><trkpt lat="43.2922737335676" lon="11.343663763171675"><ele>247.0</ele><time>2026-04-11T09:12:27Z</time></trkpt><trkpt lat="43.29216650058338" lon="11.343696979785953"><ele>247.0</ele><time>2026-04-11T09:12:29Z</time></trkpt><trkpt lat="43.29206131827417" lon="11.343737140774238"><ele>247.0</ele><time>2026-04-11T09:12:31Z</time></trkpt><trkpt lat="43.29195717558805" lon="11.343783085722473"><ele>247.0</ele><time>2026-04-11T09:12:33Z</time></trkpt><trkpt lat="43.291840092745325" lon="11.343795059064838"><ele>246.66666666666666</ele><time>2026-04-11T09:12:35Z</time></trkpt><trkpt lat="43.291721864815514" lon="11.343810216981113"><ele>246.33333333333331</ele><time>2026-04-11T09:12:37Z</time></trkpt><trkpt lat="43.29165428604102" lon="11.343822927142153"><ele>246.0</ele><time>2026-04-11T09:12:38Z</time></trkpt><trkpt lat="43.29158222843907" lon="11.34383647967535"><ele>245.66666666666669</ele><time>2026-04-11T09:12:39Z</time></trkpt><trkpt lat="43.29151545490885" lon="11.343849038473715"><ele>245.33333333333334</ele><time>2026-04-11T09:12:40Z</time></trkpt><trkpt lat="43.2914416717077" lon="11.343873373873103"><ele>245.0</ele><time>2026-04-11T09:12:41Z</time></trkpt><trkpt lat="43.29136536368048" lon="11.34387968235685"><ele>244.85714285714286</ele><time>2026-04-11T09:12:42Z</time></trkpt><trkpt lat="43.291288878325666" lon="11.343891830567783"><ele>244.71428571428572</ele><time>2026-04-11T09:12:43Z</time></trkpt><trkpt lat="43.29121442669288" lon="11.34390535039757"><ele>244.57142857142856</ele><time>2026-04-11T09:12:44Z</time></trkpt><trkpt lat="43.29113828690575" lon="11.343908322494697"><ele>244.42857142857142</ele><time>2026-04-11T09:12:45Z</time></trkpt><trkpt lat="43.29106751850589" lon="11.34391273988254"><ele>244.28571428571428</ele><time>2026-04-11T09:12:46Z</time></trkpt><trkpt lat="43.29099740330282" lon="11.343909183855294"><ele>244.1428571428571</ele><time>2026-04-11T09:12:47Z</time></trkpt><trkpt lat="43.2909214408328" lon="11.34390786955616"><ele>243.99999999999997</ele><time>2026-04-11T09:12:48Z</time></trkpt><trkpt lat="43.29085730790185" lon="11.34390754253404"><ele>243.99999999999997</ele><time>2026-04-11T09:12:49Z</time></trkpt><trkpt lat="43.29077743734362" lon="11.343926422468629"><ele>244.0</ele><time>2026-04-11T09:12:50Z</time></trkpt><trkpt lat="43.290711865229405" lon="11.34391336276265"><ele>244.0</ele><time>2026-04-11T09:12:51Z</time></trkpt><trkpt lat="43.290570509762894" lon="11.343901860221239"><ele>244.0</ele><time>2026-04-11T09:12:53Z</time></trkpt><trkpt lat="43.29049499128089" lon="11.343891827465926"><ele>243.99999999999997</ele><time>2026-04-11T09:12:54Z</time></trkpt><trkpt lat="43.290422080756024" lon="11.343881437367154"><ele>244.0</ele><time>2026-04-11T09:12:55Z</time></trkpt><trkpt lat="43.290351924313114" lon="11.343866749904475"><ele>244.6</ele><time>2026-04-11T09:12:56Z</time></trkpt><trkpt lat="43.29022452539099" lon="11.343844464222158"><ele>245.2</ele><time>2026-04-11T09:12:58Z</time></trkpt><trkpt lat="43.29015407890081" lon="11.343817741551412"><ele>245.79999999999998</ele><time>2026-04-11T09:12:59Z</time></trkpt><trkpt lat="43.29002010389646" lon="11.343786411806377"><ele>246.39999999999998</ele><time>2026-04-11T09:13:01Z</time></trkpt><trkpt lat="43.289953719948905" lon="11.343765311838428"><ele>247.0</ele><time>2026-04-11T09:13:02Z</time></trkpt><trkpt lat="43.28989040702919" lon="11.343745428224318"><ele>247.0</ele><time>2026-04-11T09:13:03Z</time></trkpt><trkpt lat="43.2898266973501" lon="11.343725565440725"><ele>247.0</ele><time>2026-04-11T09:13:04Z</time></trkpt><trkpt lat="43.289707398182884" lon="11.34368902625302"><ele>247.0</ele><time>2026-04-11T09:13:06Z</time></trkpt><trkpt lat="43.289603622462046" lon="11.343687701931982"><ele>247.0</ele><time>2026-04-11T09:13:08Z</time></trkpt><trkpt lat="43.28953607471199" lon="11.343685262996358"><ele>247.0</ele><time>2026-04-11T09:13:09Z</time></trkpt><trkpt lat="43.28942753875281" lon="11.343708390843917"><ele>247.2</ele><time>2026-04-11T09:13:11Z</time></trkpt><trkpt lat="43.289321612505496" lon="11.343745424445345"><ele>247.39999999999998</ele><time>2026-04-11T09:13:13Z</time></trkpt><trkpt lat="43.28925374198384" lon="11.343748465437704"><ele>247.60000000000002</ele><time>2026-04-11T09:13:14Z</time></trkpt><trkpt lat="43.28915373772473" lon="11.343762008789716"><ele>247.8</ele><time>2026-04-11T09:13:16Z</time></trkpt><trkpt lat="43.289041804624574" lon="11.343771077840536"><ele>248.0</ele><time>2026-04-11T09:13:18Z</time></trkpt><trkpt lat="43.288932368347126" lon="11.343797048776771"><ele>248.0</ele><time>2026-04-11T09:13:20Z</time></trkpt><trkpt lat="43.288835271273996" lon="11.34381731382721"><ele>248.0</ele><time>2026-04-11T09:13:22Z</time></trkpt><trkpt lat="43.2887232673795" lon="11.343842713808318"><ele>248.0</ele><time>2026-04-11T09:13:24Z</time></trkpt><trkpt lat="43.288659004309785" lon="11.343865133829455"><ele>248.0</ele><time>2026-04-11T09:13:25Z</time></trkpt><trkpt lat="43.288533044962776" lon="11.3438960189688"><ele>248.0</ele><time>2026-04-11T09:13:27Z</time></trkpt><trkpt lat="43.28847176508012" lon="11.343916268514949"><ele>248.00000000000003</ele><time>2026-04-11T09:13:28Z</time></trkpt><trkpt lat="43.28840408913225" lon="11.343932778934485"><ele>248.0</ele><time>2026-04-11T09:13:29Z</time></trkpt><trkpt lat="43.28833705047785" lon="11.343948843221673"><ele>248.0</ele><time>2026-04-11T09:13:30Z</time></trkpt><trkpt lat="43.28826782711116" lon="11.343969565030326"><ele>248.0</ele><time>2026-04-11T09:13:31Z</time></trkpt><trkpt lat="43.2881944955053" lon="11.344000097896187"><ele>248.00000000000003</ele><time>2026-04-11T09:13:32Z</time></trkpt><trkpt lat="43.2880738628588" lon="11.344054428907311"><ele>248.0</ele><time>2026-04-11T09:13:34Z</time></trkpt><trkpt lat="43.28800415129687" lon="11.344090159309237"><ele>248.0</ele><time>2026-04-11T09:13:35Z</time></trkpt><trkpt lat="43.28793664375985" lon="11.344121372694836"><ele>248.00000000000003</ele><time>2026-04-11T09:13:36Z</time></trkpt><trkpt lat="43.287866999909255" lon="11.344163912055558"><ele>248.0</ele><time>2026-04-11T09:13:37Z</time></trkpt><trkpt lat="43.287797114726736" lon="11.344208424160644"><ele>248.0</ele><time>2026-04-11T09:13:38Z</time></trkpt><trkpt lat="43.28774002049497" lon="11.344261623173082"><ele>248.00000000000003</ele><time>2026-04-11T09:13:39Z</time></trkpt><trkpt lat="43.28768100282787" lon="11.344316586191585"><ele>248.0</ele><time>2026-04-11T09:13:40Z</time></trkpt><trkpt lat="43.28762116385002" lon="11.344386018985572"><ele>248.0</ele><time>2026-04-11T09:13:41Z</time></trkpt><trkpt lat="43.28756329432593" lon="11.344459151526523"><ele>248.00000000000003</ele><time>2026-04-11T09:13:42Z</time></trkpt><trkpt lat="43.2875065783725" lon="11.344531554592079"><ele>248.0</ele><time>2026-04-11T09:13:43Z</time></trkpt><trkpt lat="43.28745090075474" lon="11.344601055640734"><ele>248.0</ele><time>2026-04-11T09:13:44Z</time></trkpt><trkpt lat="43.28739475864857" lon="11.344677455884876"><ele>248.0</ele><time>2026-04-11T09:13:45Z</time></trkpt><trkpt lat="43.28734234338484" lon="11.344746195682845"><ele>248.00000000000003</ele><time>2026-04-11T09:13:46Z</time></trkpt><trkpt lat="43.28728696614967" lon="11.34482488313655"><ele>248.0</ele><time>2026-04-11T09:13:47Z</time></trkpt><trkpt lat="43.28723828483781" lon="11.3449026530291"><ele>247.33333333333334</ele><time>2026-04-11T09:13:48Z</time></trkpt><trkpt lat="43.287187050131955" lon="11.344988756556454"><ele>246.66666666666669</ele><time>2026-04-11T09:13:49Z</time></trkpt><trkpt lat="43.28713725878128" lon="11.34507795258793"><ele>246.0</ele><time>2026-04-11T09:13:50Z</time></trkpt><trkpt lat="43.28708804359574" lon="11.345162126558575"><ele>245.33333333333331</ele><time>2026-04-11T09:13:51Z</time></trkpt><trkpt lat="43.2870441290684" lon="11.34524666697427"><ele>244.66666666666666</ele><time>2026-04-11T09:13:52Z</time></trkpt><trkpt lat="43.28699791662829" lon="11.345337454546167"><ele>244.0</ele><time>2026-04-11T09:13:53Z</time></trkpt><trkpt lat="43.28695652669001" lon="11.345426585856266"><ele>243.99999999999997</ele><time>2026-04-11T09:13:54Z</time></trkpt><trkpt lat="43.286915038588525" lon="11.345518325877455"><ele>244.0</ele><time>2026-04-11T09:13:55Z</time></trkpt><trkpt lat="43.28687790372211" lon="11.345613730432982"><ele>244.0</ele><time>2026-04-11T09:13:56Z</time></trkpt><trkpt lat="43.286843255152014" lon="11.34570890087518"><ele>244.0</ele><time>2026-04-11T09:13:57Z</time></trkpt><trkpt lat="43.28681048314011" lon="11.345806721561098"><ele>243.99999999999997</ele><time>2026-04-11T09:13:58Z</time></trkpt><trkpt lat="43.286783665943815" lon="11.345899523152264"><ele>244.0</ele><time>2026-04-11T09:13:59Z</time></trkpt><trkpt lat="43.286762277099555" lon="11.346006143170479"><ele>244.16666666666666</ele><time>2026-04-11T09:14:00Z</time></trkpt><trkpt lat="43.28674092595881" lon="11.346110389994102"><ele>244.33333333333331</ele><time>2026-04-11T09:14:01Z</time></trkpt><trkpt lat="43.28672433780024" lon="11.346214697738297"><ele>244.5</ele><time>2026-04-11T09:14:02Z</time></trkpt><trkpt lat="43.28670836685314" lon="11.34632176503728"><ele>244.66666666666669</ele><time>2026-04-11T09:14:03Z</time></trkpt><trkpt lat="43.286697356335985" lon="11.346430567560592"><ele>244.83333333333334</ele><time>2026-04-11T09:14:04Z</time></trkpt><trkpt lat="43.28668869248641" lon="11.346546213906107"><ele>245.0</ele><time>2026-04-11T09:14:05Z</time></trkpt><trkpt lat="43.28668562186671" lon="11.34666324740025"><ele>244.33333333333334</ele><time>2026-04-11T09:14:06Z</time></trkpt><trkpt lat="43.28668421413908" lon="11.34677884895207"><ele>243.66666666666669</ele><time>2026-04-11T09:14:07Z</time></trkpt><trkpt lat="43.28668022898117" lon="11.346894282367968"><ele>243.0</ele><time>2026-04-11T09:14:08Z</time></trkpt><trkpt lat="43.28667303537578" lon="11.34701655366181"><ele>242.33333333333331</ele><time>2026-04-11T09:14:09Z</time></trkpt><trkpt lat="43.28666156177929" lon="11.347131910569379"><ele>241.66666666666666</ele><time>2026-04-11T09:14:10Z</time></trkpt><trkpt lat="43.286643266240134" lon="11.347250603179308"><ele>241.0</ele><time>2026-04-11T09:14:11Z</time></trkpt><trkpt lat="43.286627820519094" lon="11.347369509536957"><ele>241.0</ele><time>2026-04-11T09:14:12Z</time></trkpt><trkpt lat="43.28660136075872" lon="11.347493126736127"><ele>241.00000000000003</ele><time>2026-04-11T09:14:13Z</time></trkpt><trkpt lat="43.286571136754176" lon="11.347613497324941"><ele>241.00000000000003</ele><time>2026-04-11T09:14:14Z</time></trkpt><trkpt lat="43.28653870052044" lon="11.347739373534411"><ele>241.0</ele><time>2026-04-11T09:14:15Z</time></trkpt><trkpt lat="43.28650644230304" lon="11.347864517531455"><ele>241.0</ele><time>2026-04-11T09:14:16Z</time></trkpt><trkpt lat="43.28646376366655" lon="11.347986146876845"><ele>241.20000000000002</ele><time>2026-04-11T09:14:17Z</time></trkpt><trkpt lat="43.286430365953485" lon="11.348118909583718"><ele>241.40000000000003</ele><time>2026-04-11T09:14:18Z</time></trkpt><trkpt lat="43.28639043185573" lon="11.34823504504613"><ele>241.6</ele><time>2026-04-11T09:14:19Z</time></trkpt><trkpt lat="43.28634376674053" lon="11.348362361269494"><ele>241.8</ele><time>2026-04-11T09:14:20Z</time></trkpt><trkpt lat="43.28629507331034" lon="11.348481359749373"><ele>242.0</ele><time>2026-04-11T09:14:21Z</time></trkpt><trkpt lat="43.2862437383436" lon="11.348601027882324"><ele>240.39999999999998</ele><time>2026-04-11T09:14:22Z</time></trkpt><trkpt lat="43.286193293492836" lon="11.34872345443545"><ele>238.79999999999998</ele><time>2026-04-11T09:14:23Z</time></trkpt><trkpt lat="43.28615467152991" lon="11.34884788537122"><ele>237.2</ele><time>2026-04-11T09:14:24Z</time></trkpt><trkpt lat="43.28610014128855" lon="11.348961999570724"><ele>235.6</ele><time>2026-04-11T09:14:25Z</time></trkpt><trkpt lat="43.28605032067763" lon="11.34907156960332"><ele>234.0</ele><time>2026-04-11T09:14:26Z</time></trkpt><trkpt lat="43.28600947205063" lon="11.349182161203201"><ele>234.0</ele><time>2026-04-11T09:14:27Z</time></trkpt><trkpt lat="43.285965325333976" lon="11.349291041950352"><ele>234.0</ele><time>2026-04-11T09:14:28Z</time></trkpt><trkpt lat="43.285927481071326" lon="11.349385989168193"><ele>234.0</ele><time>2026-04-11T09:14:29Z</time></trkpt><trkpt lat="43.28588283444759" lon="11.349498895842924"><ele>234.0</ele><time>2026-04-11T09:14:30Z</time></trkpt><trkpt lat="43.28584089291112" lon="11.349598833038945"><ele>234.0</ele><time>2026-04-11T09:14:31Z</time></trkpt><trkpt lat="43.285798139875595" lon="11.349701504612227"><ele>234.0</ele><time>2026-04-11T09:14:32Z</time></trkpt><trkpt lat="43.28576146271299" lon="11.349802709606537"><ele>234.16666666666666</ele><time>2026-04-11T09:14:33Z</time></trkpt><trkpt lat="43.28572843516821" lon="11.349897052952661"><ele>234.33333333333331</ele><time>2026-04-11T09:14:34Z</time></trkpt><trkpt lat="43.285688703588484" lon="11.349986391057804"><ele>234.5</ele><time>2026-04-11T09:14:35Z</time></trkpt><trkpt lat="43.28565724326086" lon="11.350084695169473"><ele>234.66666666666666</ele><time>2026-04-11T09:14:36Z</time></trkpt><trkpt lat="43.28562690676356" lon="11.350175542169874"><ele>234.83333333333331</ele><time>2026-04-11T09:14:37Z</time></trkpt><trkpt lat="43.28559346464102" lon="11.350274402708353"><ele>235.0</ele><time>2026-04-11T09:14:38Z</time></trkpt><trkpt lat="43.28556848102071" lon="11.350369989911979"><ele>235.42857142857142</ele><time>2026-04-11T09:14:39Z</time></trkpt><trkpt lat="43.28553665752825" lon="11.350463649894872"><ele>235.85714285714283</ele><time>2026-04-11T09:14:40Z</time></trkpt><trkpt lat="43.28550836501824" lon="11.350549283455354"><ele>236.28571428571428</ele><time>2026-04-11T09:14:41Z</time></trkpt><trkpt lat="43.285475773182384" lon="11.350642276405377"><ele>236.71428571428572</ele><time>2026-04-11T09:14:42Z</time></trkpt><trkpt lat="43.28544792685034" lon="11.350732644482724"><ele>237.14285714285714</ele><time>2026-04-11T09:14:43Z</time></trkpt><trkpt lat="43.28542298657392" lon="11.3508251977986"><ele>237.57142857142856</ele><time>2026-04-11T09:14:44Z</time></trkpt><trkpt lat="43.28539436980375" lon="11.350918132051673"><ele>238.0</ele><time>2026-04-11T09:14:45Z</time></trkpt><trkpt lat="43.285364123503804" lon="11.351010475385491"><ele>238.0</ele><time>2026-04-11T09:14:46Z</time></trkpt><trkpt lat="43.28533507584013" lon="11.351098455814872"><ele>238.0</ele><time>2026-04-11T09:14:47Z</time></trkpt><trkpt lat="43.285307052863594" lon="11.35118571771798"><ele>238.0</ele><time>2026-04-11T09:14:48Z</time></trkpt><trkpt lat="43.285276257831384" lon="11.351268711126082"><ele>238.0</ele><time>2026-04-11T09:14:49Z</time></trkpt><trkpt lat="43.285247704735234" lon="11.35135706720876"><ele>238.0</ele><time>2026-04-11T09:14:50Z</time></trkpt><trkpt lat="43.28522085487065" lon="11.351444694702044"><ele>238.0</ele><time>2026-04-11T09:14:51Z</time></trkpt><trkpt lat="43.28519042084617" lon="11.351540688141085"><ele>238.0</ele><time>2026-04-11T09:14:52Z</time></trkpt><trkpt lat="43.28516419340858" lon="11.351636015066601"><ele>238.0</ele><time>2026-04-11T09:14:53Z</time></trkpt><trkpt lat="43.28513838634915" lon="11.351720574746595"><ele>238.0</ele><time>2026-04-11T09:14:54Z</time></trkpt><trkpt lat="43.28511144267737" lon="11.351811079791835"><ele>238.0</ele><time>2026-04-11T09:14:55Z</time></trkpt><trkpt lat="43.28508566433957" lon="11.351903284205422"><ele>238.0</ele><time>2026-04-11T09:14:56Z</time></trkpt><trkpt lat="43.28505959384181" lon="11.351989676441807"><ele>238.0</ele><time>2026-04-11T09:14:57Z</time></trkpt><trkpt lat="43.2850292389276" lon="11.352076647669241"><ele>238.0</ele><time>2026-04-11T09:14:58Z</time></trkpt><trkpt lat="43.28500670548613" lon="11.352158914612392"><ele>238.0</ele><time>2026-04-11T09:14:59Z</time></trkpt><trkpt lat="43.28497838739492" lon="11.35223956515943"><ele>238.0</ele><time>2026-04-11T09:15:00Z</time></trkpt><trkpt lat="43.284918940779356" lon="11.352390646272797"><ele>238.0</ele><time>2026-04-11T09:15:02Z</time></trkpt><trkpt lat="43.28486459232092" lon="11.352530629139904"><ele>238.0</ele><time>2026-04-11T09:15:04Z</time></trkpt><trkpt lat="43.28481097943687" lon="11.352659433942847"><ele>238.0</ele><time>2026-04-11T09:15:06Z</time></trkpt><trkpt lat="43.28474226529641" lon="11.352779472620103"><ele>237.60000000000002</ele><time>2026-04-11T09:15:08Z</time></trkpt><trkpt lat="43.28466949052023" lon="11.352902436267518"><ele>237.20000000000002</ele><time>2026-04-11T09:15:10Z</time></trkpt><trkpt lat="43.28458667855367" lon="11.353020438767293"><ele>236.8</ele><time>2026-04-11T09:15:12Z</time></trkpt><trkpt lat="43.28454033715517" lon="11.353083315877576"><ele>236.4</ele><time>2026-04-11T09:15:13Z</time></trkpt><trkpt lat="43.28444440310469" lon="11.353207637639093"><ele>236.0</ele><time>2026-04-11T09:15:15Z</time></trkpt><trkpt lat="43.28437732266678" lon="11.353252854314093"><ele>236.0</ele><time>2026-04-11T09:15:16Z</time></trkpt><trkpt lat="43.28431504376257" lon="11.353309270521239"><ele>236.0</ele><time>2026-04-11T09:15:17Z</time></trkpt><trkpt lat="43.28426070685273" lon="11.35335720877717"><ele>236.0</ele><time>2026-04-11T09:15:18Z</time></trkpt><trkpt lat="43.28419680622524" lon="11.353404812191448"><ele>236.0</ele><time>2026-04-11T09:15:19Z</time></trkpt><trkpt lat="43.284131433890984" lon="11.353449001641295"><ele>236.0</ele><time>2026-04-11T09:15:20Z</time></trkpt><trkpt lat="43.284063999996114" lon="11.353485956134753"><ele>236.0</ele><time>2026-04-11T09:15:21Z</time></trkpt><trkpt lat="43.283996376172944" lon="11.35351785234023"><ele>236.0</ele><time>2026-04-11T09:15:22Z</time></trkpt><trkpt lat="43.283926027337486" lon="11.353554548350141"><ele>236.28571428571428</ele><time>2026-04-11T09:15:23Z</time></trkpt><trkpt lat="43.28386267455485" lon="11.353573434790412"><ele>236.57142857142858</ele><time>2026-04-11T09:15:24Z</time></trkpt><trkpt lat="43.28379855681917" lon="11.35360117306361"><ele>236.85714285714286</ele><time>2026-04-11T09:15:25Z</time></trkpt><trkpt lat="43.28372960249867" lon="11.353617782171211"><ele>237.14285714285714</ele><time>2026-04-11T09:15:26Z</time></trkpt><trkpt lat="43.28366549924148" lon="11.353633394042465"><ele>237.42857142857144</ele><time>2026-04-11T09:15:27Z</time></trkpt><trkpt lat="43.283597310924605" lon="11.35365142460395"><ele>237.71428571428572</ele><time>2026-04-11T09:15:28Z</time></trkpt><trkpt lat="43.28353083219673" lon="11.353655717927799"><ele>238.0</ele><time>2026-04-11T09:15:29Z</time></trkpt><trkpt lat="43.283458143800736" lon="11.35366184633608"><ele>238.0</ele><time>2026-04-11T09:15:30Z</time></trkpt><trkpt lat="43.283386217961315" lon="11.353665162782413"><ele>238.0</ele><time>2026-04-11T09:15:31Z</time></trkpt><trkpt lat="43.2833169021745" lon="11.353660220057392"><ele>238.0</ele><time>2026-04-11T09:15:32Z</time></trkpt><trkpt lat="43.28324600794036" lon="11.353651806601828"><ele>238.0</ele><time>2026-04-11T09:15:33Z</time></trkpt><trkpt lat="43.2831755152111" lon="11.353641189960973"><ele>238.0</ele><time>2026-04-11T09:15:34Z</time></trkpt><trkpt lat="43.283107363448025" lon="11.353627625616074"><ele>238.0</ele><time>2026-04-11T09:15:35Z</time></trkpt><trkpt lat="43.28303832651153" lon="11.353613769404056"><ele>238.0</ele><time>2026-04-11T09:15:36Z</time></trkpt><trkpt lat="43.28296611797896" lon="11.353605803188998"><ele>238.0</ele><time>2026-04-11T09:15:37Z</time></trkpt><trkpt lat="43.28283906838172" lon="11.353577190143556"><ele>238.0</ele><time>2026-04-11T09:15:39Z</time></trkpt><trkpt lat="43.28276791572289" lon="11.353559420484084"><ele>238.0</ele><time>2026-04-11T09:15:40Z</time></trkpt><trkpt lat="43.28269224078748" lon="11.353534674035311"><ele>238.0</ele><time>2026-04-11T09:15:41Z</time></trkpt><trkpt lat="43.28261681965269" lon="11.353522494218979"><ele>238.0</ele><time>2026-04-11T09:15:42Z</time></trkpt><trkpt lat="43.282493557802354" lon="11.353493561514185"><ele>238.0</ele><time>2026-04-11T09:15:44Z</time></trkpt><trkpt lat="43.28241696249628" lon="11.35347754292618"><ele>238.0</ele><time>2026-04-11T09:15:45Z</time></trkpt><trkpt lat="43.28234480389902" lon="11.353459962627362"><ele>238.0</ele><time>2026-04-11T09:15:46Z</time></trkpt><trkpt lat="43.28227923203481" lon="11.353441336623437"><ele>238.0</ele><time>2026-04-11T09:15:47Z</time></trkpt><trkpt lat="43.28221536210646" lon="11.353426374455132"><ele>238.0</ele><time>2026-04-11T09:15:48Z</time></trkpt><trkpt lat="43.282144949845915" lon="11.353413935915745"><ele>238.0</ele><time>2026-04-11T09:15:49Z</time></trkpt><trkpt lat="43.28207608680863" lon="11.353400898021746"><ele>238.0</ele><time>2026-04-11T09:15:50Z</time></trkpt><trkpt lat="43.281952600864166" lon="11.353379205524691"><ele>238.0</ele><time>2026-04-11T09:15:52Z</time></trkpt><trkpt lat="43.28188115189233" lon="11.353368675983875"><ele>238.0</ele><time>2026-04-11T09:15:53Z</time></trkpt><trkpt lat="43.28181207858311" lon="11.353345627113898"><ele>238.0</ele><time>2026-04-11T09:15:54Z</time></trkpt><trkpt lat="43.281747155163124" lon="11.353329453530435"><ele>238.0</ele><time>2026-04-11T09:15:55Z</time></trkpt><trkpt lat="43.28167970532471" lon="11.353314243029926"><ele>238.0</ele><time>2026-04-11T09:15:56Z</time></trkpt><trkpt lat="43.28161410078798" lon="11.353300288639717"><ele>238.0</ele><time>2026-04-11T09:15:57Z</time></trkpt><trkpt lat="43.28154157487032" lon="11.35328694492522"><ele>238.0</ele><time>2026-04-11T09:15:58Z</time></trkpt><trkpt lat="43.281473018965926" lon="11.353261631101223"><ele>238.0</ele><time>2026-04-11T09:15:59Z</time></trkpt><trkpt lat="43.2813989492794" lon="11.353245373898456"><ele>238.0</ele><time>2026-04-11T09:16:00Z</time></trkpt><trkpt lat="43.28133336278881" lon="11.35322998880231"><ele>238.0</ele><time>2026-04-11T09:16:01Z</time></trkpt><trkpt lat="43.28126432356129" lon="11.35320331201545"><ele>238.0</ele><time>2026-04-11T09:16:02Z</time></trkpt><trkpt lat="43.28119443527997" lon="11.353180932035674"><ele>238.0</ele><time>2026-04-11T09:16:03Z</time></trkpt><trkpt lat="43.28111945961425" lon="11.353160012880481"><ele>238.0</ele><time>2026-04-11T09:16:04Z</time></trkpt><trkpt lat="43.28104879211282" lon="11.35313823379277"><ele>238.0</ele><time>2026-04-11T09:16:05Z</time></trkpt><trkpt lat="43.28097742858241" lon="11.35311359698924"><ele>237.99999999999997</ele><time>2026-04-11T09:16:06Z</time></trkpt><trkpt lat="43.28089888812274" lon="11.353089841199056"><ele>238.0</ele><time>2026-04-11T09:16:07Z</time></trkpt><trkpt lat="43.280810421876886" lon="11.353061244614246"><ele>238.0</ele><time>2026-04-11T09:16:08Z</time></trkpt><trkpt lat="43.280732403033454" lon="11.353030430620473"><ele>238.0</ele><time>2026-04-11T09:16:09Z</time></trkpt><trkpt lat="43.2806524596193" lon="11.352997708674767"><ele>237.99999999999997</ele><time>2026-04-11T09:16:10Z</time></trkpt><trkpt lat="43.28057838039717" lon="11.352970741975126"><ele>238.0</ele><time>2026-04-11T09:16:11Z</time></trkpt><trkpt lat="43.28049662213632" lon="11.352941429427412"><ele>236.66666666666666</ele><time>2026-04-11T09:16:12Z</time></trkpt><trkpt lat="43.28041624273252" lon="11.352914785493272"><ele>235.33333333333331</ele><time>2026-04-11T09:16:13Z</time></trkpt><trkpt lat="43.28033593598765" lon="11.352885157951198"><ele>234.0</ele><time>2026-04-11T09:16:14Z</time></trkpt><trkpt lat="43.28024956077236" lon="11.352853968764197"><ele>232.66666666666669</ele><time>2026-04-11T09:16:15Z</time></trkpt><trkpt lat="43.280160197294244" lon="11.352827557800575"><ele>231.33333333333334</ele><time>2026-04-11T09:16:16Z</time></trkpt><trkpt lat="43.28007201846659" lon="11.352801846077842"><ele>230.0</ele><time>2026-04-11T09:16:17Z</time></trkpt><trkpt lat="43.27998551923197" lon="11.352775817061152"><ele>230.00000000000003</ele><time>2026-04-11T09:16:18Z</time></trkpt><trkpt lat="43.27989478330158" lon="11.352751240863151"><ele>230.0</ele><time>2026-04-11T09:16:19Z</time></trkpt><trkpt lat="43.279812432822176" lon="11.352728277066365"><ele>230.0</ele><time>2026-04-11T09:16:20Z</time></trkpt><trkpt lat="43.279720783702544" lon="11.352709267372948"><ele>230.0</ele><time>2026-04-11T09:16:21Z</time></trkpt><trkpt lat="43.279635609876706" lon="11.352689440139185"><ele>230.00000000000003</ele><time>2026-04-11T09:16:22Z</time></trkpt><trkpt lat="43.27955065812276" lon="11.352669839675885"><ele>230.0</ele><time>2026-04-11T09:16:23Z</time></trkpt><trkpt lat="43.27946611675316" lon="11.35264841254312"><ele>229.50000000000003</ele><time>2026-04-11T09:16:24Z</time></trkpt><trkpt lat="43.27938964329835" lon="11.352632203966927"><ele>229.0</ele><time>2026-04-11T09:16:25Z</time></trkpt><trkpt lat="43.27930476342456" lon="11.352621726969629"><ele>228.5</ele><time>2026-04-11T09:16:26Z</time></trkpt><trkpt lat="43.2792221116656" lon="11.352605608357523"><ele>228.0</ele><time>2026-04-11T09:16:27Z</time></trkpt><trkpt lat="43.27914097347218" lon="11.3525990720621"><ele>227.50000000000003</ele><time>2026-04-11T09:16:28Z</time></trkpt><trkpt lat="43.27906723956235" lon="11.352596169558048"><ele>227.0</ele><time>2026-04-11T09:16:29Z</time></trkpt><trkpt lat="43.27899868808551" lon="11.352598376466931"><ele>227.0</ele><time>2026-04-11T09:16:30Z</time></trkpt><trkpt lat="43.27892908190575" lon="11.352599151020502"><ele>227.00000000000003</ele><time>2026-04-11T09:16:31Z</time></trkpt><trkpt lat="43.27885614487246" lon="11.35262348858845"><ele>227.0</ele><time>2026-04-11T09:16:32Z</time></trkpt><trkpt lat="43.27878328714944" lon="11.352631924165536"><ele>227.0</ele><time>2026-04-11T09:16:33Z</time></trkpt><trkpt lat="43.278707386259896" lon="11.352654721098588"><ele>227.00000000000003</ele><time>2026-04-11T09:16:34Z</time></trkpt><trkpt lat="43.27863544832448" lon="11.35268720125691"><ele>227.0</ele><time>2026-04-11T09:16:35Z</time></trkpt><trkpt lat="43.2785626537927" lon="11.352726164608788"><ele>227.0</ele><time>2026-04-11T09:16:36Z</time></trkpt><trkpt lat="43.27848429082305" lon="11.352777314810806"><ele>227.00000000000003</ele><time>2026-04-11T09:16:37Z</time></trkpt><trkpt lat="43.27841251257743" lon="11.352821733411728"><ele>227.0</ele><time>2026-04-11T09:16:38Z</time></trkpt><trkpt lat="43.278340142358374" lon="11.352860605790037"><ele>227.0</ele><time>2026-04-11T09:16:39Z</time></trkpt><trkpt lat="43.27826902956822" lon="11.352905379448517"><ele>227.0</ele><time>2026-04-11T09:16:40Z</time></trkpt><trkpt lat="43.27819765909156" lon="11.3529547521011"><ele>227.00000000000003</ele><time>2026-04-11T09:16:41Z</time></trkpt><trkpt lat="43.27812442872277" lon="11.353000759717219"><ele>227.0</ele><time>2026-04-11T09:16:42Z</time></trkpt><trkpt lat="43.27804966159447" lon="11.35304715753501"><ele>227.66666666666669</ele><time>2026-04-11T09:16:43Z</time></trkpt><trkpt lat="43.27797321650539" lon="11.353093166428152"><ele>228.33333333333334</ele><time>2026-04-11T09:16:44Z</time></trkpt><trkpt lat="43.27789772814075" lon="11.353144569126469"><ele>229.0</ele><time>2026-04-11T09:16:45Z</time></trkpt><trkpt lat="43.27782070177492" lon="11.353191861491455"><ele>229.66666666666669</ele><time>2026-04-11T09:16:46Z</time></trkpt><trkpt lat="43.27774408823691" lon="11.353239222894763"><ele>230.33333333333334</ele><time>2026-04-11T09:16:47Z</time></trkpt><trkpt lat="43.27766706321015" lon="11.353290925126466"><ele>231.0</ele><time>2026-04-11T09:16:48Z</time></trkpt><trkpt lat="43.27758991373982" lon="11.353339032126813"><ele>231.0</ele><time>2026-04-11T09:16:49Z</time></trkpt><trkpt lat="43.27751650297023" lon="11.353379746082574"><ele>231.0</ele><time>2026-04-11T09:16:50Z</time></trkpt><trkpt lat="43.277446992985176" lon="11.353419072265243"><ele>231.0</ele><time>2026-04-11T09:16:51Z</time></trkpt><trkpt lat="43.27737098171519" lon="11.353462724069473"><ele>231.0</ele><time>2026-04-11T09:16:52Z</time></trkpt><trkpt lat="43.27729569936838" lon="11.3535030141526"><ele>231.0</ele><time>2026-04-11T09:16:53Z</time></trkpt><trkpt lat="43.27721696492547" lon="11.353540169274382"><ele>231.0</ele><time>2026-04-11T09:16:54Z</time></trkpt><trkpt lat="43.277136929509815" lon="11.353575988382424"><ele>231.16666666666666</ele><time>2026-04-11T09:16:55Z</time></trkpt><trkpt lat="43.27705542450479" lon="11.353606287427011"><ele>231.33333333333331</ele><time>2026-04-11T09:16:56Z</time></trkpt><trkpt lat="43.27697178267822" lon="11.353628805789283"><ele>231.5</ele><time>2026-04-11T09:16:57Z</time></trkpt><trkpt lat="43.27689001286991" lon="11.353648906461743"><ele>231.66666666666666</ele><time>2026-04-11T09:16:58Z</time></trkpt><trkpt lat="43.276805113800535" lon="11.353668820265927"><ele>231.83333333333331</ele><time>2026-04-11T09:16:59Z</time></trkpt><trkpt lat="43.276720004794754" lon="11.353687584196033"><ele>232.0</ele><time>2026-04-11T09:17:00Z</time></trkpt><trkpt lat="43.27663758332526" lon="11.353705597958568"><ele>232.0</ele><time>2026-04-11T09:17:01Z</time></trkpt><trkpt lat="43.276546369803114" lon="11.353725202629393"><ele>232.0</ele><time>2026-04-11T09:17:02Z</time></trkpt><trkpt lat="43.27645575567669" lon="11.353740212850704"><ele>232.0</ele><time>2026-04-11T09:17:03Z</time></trkpt><trkpt lat="43.276368021485695" lon="11.353755622738918"><ele>232.0</ele><time>2026-04-11T09:17:04Z</time></trkpt><trkpt lat="43.27627577944108" lon="11.353776549030123"><ele>232.0</ele><time>2026-04-11T09:17:05Z</time></trkpt><trkpt lat="43.27618296443911" lon="11.353798196100193"><ele>231.0</ele><time>2026-04-11T09:17:06Z</time></trkpt><trkpt lat="43.27609017512488" lon="11.353817232614482"><ele>230.0</ele><time>2026-04-11T09:17:07Z</time></trkpt><trkpt lat="43.27599778884043" lon="11.353835445405561"><ele>229.0</ele><time>2026-04-11T09:17:08Z</time></trkpt><trkpt lat="43.27590443691103" lon="11.353854292639953"><ele>228.0</ele><time>2026-04-11T09:17:09Z</time></trkpt><trkpt lat="43.27580953527546" lon="11.353870575717378"><ele>227.0</ele><time>2026-04-11T09:17:10Z</time></trkpt><trkpt lat="43.27571593101095" lon="11.353888945461303"><ele>226.2</ele><time>2026-04-11T09:17:11Z</time></trkpt><trkpt lat="43.27562574610879" lon="11.353914463559342"><ele>225.39999999999998</ele><time>2026-04-11T09:17:12Z</time></trkpt><trkpt lat="43.27553201793228" lon="11.353931936494966"><ele>224.60000000000002</ele><time>2026-04-11T09:17:13Z</time></trkpt><trkpt lat="43.275439116047" lon="11.353950389395852"><ele>223.8</ele><time>2026-04-11T09:17:14Z</time></trkpt><trkpt lat="43.275345276449315" lon="11.353964917161196"><ele>223.0</ele><time>2026-04-11T09:17:15Z</time></trkpt><trkpt lat="43.27525944353035" lon="11.353982312646636"><ele>222.8</ele><time>2026-04-11T09:17:16Z</time></trkpt><trkpt lat="43.27516780296172" lon="11.354002928625215"><ele>222.60000000000002</ele><time>2026-04-11T09:17:17Z</time></trkpt><trkpt lat="43.27507547860171" lon="11.354022327311478"><ele>222.39999999999998</ele><time>2026-04-11T09:17:18Z</time></trkpt><trkpt lat="43.27498500889469" lon="11.354040864820645"><ele>222.2</ele><time>2026-04-11T09:17:19Z</time></trkpt><trkpt lat="43.27489745134453" lon="11.354063908752435"><ele>222.0</ele><time>2026-04-11T09:17:20Z</time></trkpt><trkpt lat="43.274809012584996" lon="11.35409823707266"><ele>222.5</ele><time>2026-04-11T09:17:21Z</time></trkpt><trkpt lat="43.27472410243533" lon="11.354135795054553"><ele>223.0</ele><time>2026-04-11T09:17:22Z</time></trkpt><trkpt lat="43.27464485842524" lon="11.35418389555348"><ele>223.5</ele><time>2026-04-11T09:17:23Z</time></trkpt><trkpt lat="43.2745709944623" lon="11.35424492906734"><ele>224.0</ele><time>2026-04-11T09:17:24Z</time></trkpt><trkpt lat="43.274500100682516" lon="11.354310406336175"><ele>224.5</ele><time>2026-04-11T09:17:25Z</time></trkpt><trkpt lat="43.27443551046258" lon="11.354375236200182"><ele>225.0</ele><time>2026-04-11T09:17:26Z</time></trkpt><trkpt lat="43.274378813030516" lon="11.354452392281983"><ele>225.00000000000003</ele><time>2026-04-11T09:17:27Z</time></trkpt><trkpt lat="43.274322766171" lon="11.35452631234882"><ele>225.0</ele><time>2026-04-11T09:17:28Z</time></trkpt><trkpt lat="43.27427616037052" lon="11.354609050370623"><ele>225.00000000000003</ele><time>2026-04-11T09:17:29Z</time></trkpt><trkpt lat="43.2742286922244" lon="11.354684280530822"><ele>225.00000000000003</ele><time>2026-04-11T09:17:30Z</time></trkpt><trkpt lat="43.27418240700514" lon="11.354755332925333"><ele>225.0</ele><time>2026-04-11T09:17:31Z</time></trkpt><trkpt lat="43.27413683198403" lon="11.354823509426838"><ele>225.00000000000003</ele><time>2026-04-11T09:17:32Z</time></trkpt><trkpt lat="43.27408439828724" lon="11.354891226555742"><ele>225.00000000000003</ele><time>2026-04-11T09:17:33Z</time></trkpt><trkpt lat="43.27403122197687" lon="11.354956359670663"><ele>224.5714285714286</ele><time>2026-04-11T09:17:34Z</time></trkpt><trkpt lat="43.273978073254455" lon="11.35503275436912"><ele>224.14285714285717</ele><time>2026-04-11T09:17:35Z</time></trkpt><trkpt lat="43.27392380100798" lon="11.355098731404999"><ele>223.71428571428572</ele><time>2026-04-11T09:17:36Z</time></trkpt><trkpt lat="43.27386700483577" lon="11.355158998622004"><ele>223.2857142857143</ele><time>2026-04-11T09:17:37Z</time></trkpt><trkpt lat="43.2738113505735" lon="11.355221174119979"><ele>222.8571428571429</ele><time>2026-04-11T09:17:38Z</time></trkpt><trkpt lat="43.27375972464727" lon="11.35528257640315"><ele>222.42857142857142</ele><time>2026-04-11T09:17:39Z</time></trkpt><trkpt lat="43.27370570058889" lon="11.355339512478078"><ele>222.0</ele><time>2026-04-11T09:17:40Z</time></trkpt><trkpt lat="43.273602818965536" lon="11.3554453233151"><ele>222.16666666666666</ele><time>2026-04-11T09:17:42Z</time></trkpt><trkpt lat="43.27354820371413" lon="11.355510236054778"><ele>222.33333333333331</ele><time>2026-04-11T09:17:43Z</time></trkpt><trkpt lat="43.273446914067016" lon="11.355622805938024"><ele>222.5</ele><time>2026-04-11T09:17:45Z</time></trkpt><trkpt lat="43.273394712473305" lon="11.35568339313947"><ele>222.66666666666666</ele><time>2026-04-11T09:17:46Z</time></trkpt><trkpt lat="43.27334299269511" lon="11.35574529081628"><ele>222.83333333333331</ele><time>2026-04-11T09:17:47Z</time></trkpt><trkpt lat="43.27329081982615" lon="11.355807321558961"><ele>223.0</ele><time>2026-04-11T09:17:48Z</time></trkpt><trkpt lat="43.27323917913136" lon="11.355864630545176"><ele>222.99999999999997</ele><time>2026-04-11T09:17:49Z</time></trkpt><trkpt lat="43.27318986121805" lon="11.355922651363436"><ele>223.0</ele><time>2026-04-11T09:17:50Z</time></trkpt><trkpt lat="43.273139943725006" lon="11.355978350414007"><ele>223.0</ele><time>2026-04-11T09:17:51Z</time></trkpt><trkpt lat="43.273091983228596" lon="11.356042802562962"><ele>223.0</ele><time>2026-04-11T09:17:52Z</time></trkpt><trkpt lat="43.2730433226414" lon="11.356100240556604"><ele>222.99999999999997</ele><time>2026-04-11T09:17:53Z</time></trkpt><trkpt lat="43.272942193442915" lon="11.356202507620326"><ele>223.0</ele><time>2026-04-11T09:17:55Z</time></trkpt><trkpt lat="43.27285136717786" lon="11.356313305450314"><ele>223.8</ele><time>2026-04-11T09:17:57Z</time></trkpt><trkpt lat="43.27280100874959" lon="11.35637103074264"><ele>224.60000000000002</ele><time>2026-04-11T09:17:58Z</time></trkpt><trkpt lat="43.2727068821657" lon="11.356476485941004"><ele>225.39999999999998</ele><time>2026-04-11T09:18:00Z</time></trkpt><trkpt lat="43.27261482068381" lon="11.356573935959657"><ele>226.2</ele><time>2026-04-11T09:18:02Z</time></trkpt><trkpt lat="43.272517586790904" lon="11.356683534356199"><ele>227.0</ele><time>2026-04-11T09:18:04Z</time></trkpt><trkpt lat="43.272466851433734" lon="11.356742603233354"><ele>227.0</ele><time>2026-04-11T09:18:05Z</time></trkpt><trkpt lat="43.27241539299394" lon="11.35679803024865"><ele>227.0</ele><time>2026-04-11T09:18:06Z</time></trkpt><trkpt lat="43.2723186024435" lon="11.356911198592533"><ele>227.0</ele><time>2026-04-11T09:18:08Z</time></trkpt><trkpt lat="43.2722343499559" lon="11.357013261259938"><ele>227.0</ele><time>2026-04-11T09:18:10Z</time></trkpt><trkpt lat="43.27214376936529" lon="11.357113364295195"><ele>227.0</ele><time>2026-04-11T09:18:12Z</time></trkpt><trkpt lat="43.272048450743256" lon="11.357218168186584"><ele>226.2</ele><time>2026-04-11T09:18:14Z</time></trkpt><trkpt lat="43.27199716335828" lon="11.357285231416123"><ele>225.39999999999998</ele><time>2026-04-11T09:18:15Z</time></trkpt><trkpt lat="43.2719135530826" lon="11.357374611431577"><ele>224.60000000000002</ele><time>2026-04-11T09:18:17Z</time></trkpt><trkpt lat="43.271808563932524" lon="11.357403249158653"><ele>223.8</ele><time>2026-04-11T09:18:19Z</time></trkpt><trkpt lat="43.27169875329735" lon="11.357301595370757"><ele>223.0</ele><time>2026-04-11T09:18:21Z</time></trkpt><trkpt lat="43.271652505041395" lon="11.357239944868486"><ele>222.99999999999997</ele><time>2026-04-11T09:18:22Z</time></trkpt><trkpt lat="43.27160113192261" lon="11.357186040968104"><ele>223.0</ele><time>2026-04-11T09:18:23Z</time></trkpt><trkpt lat="43.271530981050496" lon="11.357124434482136"><ele>223.0</ele><time>2026-04-11T09:18:24Z</time></trkpt><trkpt lat="43.271471575858094" lon="11.3570609218576"><ele>223.0</ele><time>2026-04-11T09:18:25Z</time></trkpt><trkpt lat="43.27140547710459" lon="11.356978877193919"><ele>222.99999999999997</ele><time>2026-04-11T09:18:26Z</time></trkpt><trkpt lat="43.27134132841491" lon="11.356903182715813"><ele>223.0</ele><time>2026-04-11T09:18:27Z</time></trkpt><trkpt lat="43.27126798741087" lon="11.356826581725135"><ele>222.83333333333331</ele><time>2026-04-11T09:18:28Z</time></trkpt><trkpt lat="43.27120050083141" lon="11.356750497357487"><ele>222.66666666666666</ele><time>2026-04-11T09:18:29Z</time></trkpt><trkpt lat="43.27113567648348" lon="11.356681689631865"><ele>222.5</ele><time>2026-04-11T09:18:30Z</time></trkpt><trkpt lat="43.27107549527838" lon="11.356627911814018"><ele>222.33333333333331</ele><time>2026-04-11T09:18:31Z</time></trkpt><trkpt lat="43.271008179168675" lon="11.356561153518319"><ele>222.16666666666666</ele><time>2026-04-11T09:18:32Z</time></trkpt><trkpt lat="43.27093887716253" lon="11.356490875484976"><ele>222.0</ele><time>2026-04-11T09:18:33Z</time></trkpt><trkpt lat="43.27088383761916" lon="11.356418717967715"><ele>220.33333333333334</ele><time>2026-04-11T09:18:34Z</time></trkpt><trkpt lat="43.27081615024946" lon="11.356347233696866"><ele>218.66666666666669</ele><time>2026-04-11T09:18:35Z</time></trkpt><trkpt lat="43.27074856857849" lon="11.356277955586961"><ele>217.0</ele><time>2026-04-11T09:18:36Z</time></trkpt><trkpt lat="43.27067989226692" lon="11.356208727774204"><ele>215.33333333333334</ele><time>2026-04-11T09:18:37Z</time></trkpt><trkpt lat="43.270611763192385" lon="11.356134419875259"><ele>213.66666666666669</ele><time>2026-04-11T09:18:38Z</time></trkpt><trkpt lat="43.270549729843275" lon="11.356066699185986"><ele>212.0</ele><time>2026-04-11T09:18:39Z</time></trkpt><trkpt lat="43.270478501738594" lon="11.355996946805876"><ele>211.66666666666669</ele><time>2026-04-11T09:18:40Z</time></trkpt><trkpt lat="43.270399845883446" lon="11.355938427985398"><ele>211.33333333333334</ele><time>2026-04-11T09:18:41Z</time></trkpt><trkpt lat="43.270321909373536" lon="11.355900067883223"><ele>211.0</ele><time>2026-04-11T09:18:42Z</time></trkpt><trkpt lat="43.27024943407942" lon="11.355897505080089"><ele>210.66666666666669</ele><time>2026-04-11T09:18:43Z</time></trkpt><trkpt lat="43.27016820818002" lon="11.355891348961892"><ele>210.33333333333334</ele><time>2026-04-11T09:18:44Z</time></trkpt><trkpt lat="43.270081483504114" lon="11.35588900378108"><ele>210.0</ele><time>2026-04-11T09:18:45Z</time></trkpt><trkpt lat="43.27000009859505" lon="11.355906906233347"><ele>210.0</ele><time>2026-04-11T09:18:46Z</time></trkpt><trkpt lat="43.269915134622174" lon="11.355920231819058"><ele>210.0</ele><time>2026-04-11T09:18:47Z</time></trkpt><trkpt lat="43.26983174985927" lon="11.355936837259824"><ele>210.0</ele><time>2026-04-11T09:18:48Z</time></trkpt><trkpt lat="43.2697513950407" lon="11.35593765079523"><ele>210.0</ele><time>2026-04-11T09:18:49Z</time></trkpt><trkpt lat="43.26967108225404" lon="11.355969756248715"><ele>210.0</ele><time>2026-04-11T09:18:50Z</time></trkpt><trkpt lat="43.269587012734725" lon="11.356019921123465"><ele>210.0</ele><time>2026-04-11T09:18:51Z</time></trkpt><trkpt lat="43.269506034430506" lon="11.356081560713099"><ele>208.4</ele><time>2026-04-11T09:18:52Z</time></trkpt><trkpt lat="43.269424407796464" lon="11.356155547057664"><ele>206.8</ele><time>2026-04-11T09:18:53Z</time></trkpt><trkpt lat="43.269344726666354" lon="11.356236677364729"><ele>205.2</ele><time>2026-04-11T09:18:54Z</time></trkpt><trkpt lat="43.26928208943107" lon="11.356327892409778"><ele>203.6</ele><time>2026-04-11T09:18:55Z</time></trkpt><trkpt lat="43.26921478528011" lon="11.356424971662008"><ele>202.0</ele><time>2026-04-11T09:18:56Z</time></trkpt><trkpt lat="43.26915370036278" lon="11.35652805413979"><ele>202.0</ele><time>2026-04-11T09:18:57Z</time></trkpt><trkpt lat="43.26910127531478" lon="11.356640129891375"><ele>202.0</ele><time>2026-04-11T09:18:58Z</time></trkpt><trkpt lat="43.269047902574364" lon="11.356765105267186"><ele>202.0</ele><time>2026-04-11T09:18:59Z</time></trkpt><trkpt lat="43.269002274353625" lon="11.35689181224981"><ele>202.0</ele><time>2026-04-11T09:19:00Z</time></trkpt><trkpt lat="43.26896387656767" lon="11.357030613421545"><ele>202.0</ele><time>2026-04-11T09:19:01Z</time></trkpt><trkpt lat="43.268943839489175" lon="11.357172835236353"><ele>199.39999999999998</ele><time>2026-04-11T09:19:02Z</time></trkpt><trkpt lat="43.2689325133116" lon="11.357325058827596"><ele>196.79999999999998</ele><time>2026-04-11T09:19:03Z</time></trkpt><trkpt lat="43.26893403831641" lon="11.357469258495094"><ele>194.2</ele><time>2026-04-11T09:19:04Z</time></trkpt><trkpt lat="43.26891825006846" lon="11.3576159181558"><ele>191.6</ele><time>2026-04-11T09:19:05Z</time></trkpt><trkpt lat="43.26891897143596" lon="11.357757065738078"><ele>189.0</ele><time>2026-04-11T09:19:06Z</time></trkpt><trkpt lat="43.26892032283417" lon="11.35788880085817"><ele>189.0</ele><time>2026-04-11T09:19:07Z</time></trkpt><trkpt lat="43.2689206134324" lon="11.358020341440891"><ele>189.0</ele><time>2026-04-11T09:19:08Z</time></trkpt><trkpt lat="43.26891801103561" lon="11.358153596122131"><ele>189.0</ele><time>2026-04-11T09:19:09Z</time></trkpt><trkpt lat="43.268899554916416" lon="11.35829197701703"><ele>189.0</ele><time>2026-04-11T09:19:10Z</time></trkpt><trkpt lat="43.268884586253904" lon="11.3584250728181"><ele>189.0</ele><time>2026-04-11T09:19:11Z</time></trkpt><trkpt lat="43.26885953121113" lon="11.35855604068462"><ele>189.0</ele><time>2026-04-11T09:19:12Z</time></trkpt><trkpt lat="43.26882637121437" lon="11.35867975055352"><ele>189.0</ele><time>2026-04-11T09:19:13Z</time></trkpt><trkpt lat="43.26877848085553" lon="11.358797824652171"><ele>189.0</ele><time>2026-04-11T09:19:14Z</time></trkpt><trkpt lat="43.26871815842761" lon="11.358909762198232"><ele>189.0</ele><time>2026-04-11T09:19:15Z</time></trkpt><trkpt lat="43.26864600462357" lon="11.35902171104052"><ele>189.0</ele><time>2026-04-11T09:19:16Z</time></trkpt><trkpt lat="43.26856149959991" lon="11.359117182050301"><ele>189.25</ele><time>2026-04-11T09:19:17Z</time></trkpt><trkpt lat="43.268465364049796" lon="11.359212070020005"><ele>189.5</ele><time>2026-04-11T09:19:18Z</time></trkpt><trkpt lat="43.26835304552314" lon="11.359283240517975"><ele>189.75</ele><time>2026-04-11T09:19:19Z</time></trkpt><trkpt lat="43.26824609247255" lon="11.359333195453951"><ele>190.0</ele><time>2026-04-11T09:19:20Z</time></trkpt><trkpt lat="43.26813564630814" lon="11.359393132097281"><ele>189.2</ele><time>2026-04-11T09:19:21Z</time></trkpt><trkpt lat="43.26801354829337" lon="11.359413729046743"><ele>188.4</ele><time>2026-04-11T09:19:22Z</time></trkpt><trkpt lat="43.26790410110634" lon="11.359380879538351"><ele>187.60000000000002</ele><time>2026-04-11T09:19:23Z</time></trkpt><trkpt lat="43.267804705553765" lon="11.35937452532129"><ele>186.8</ele><time>2026-04-11T09:19:24Z</time></trkpt><trkpt lat="43.267713110527325" lon="11.359330194311964"><ele>186.0</ele><time>2026-04-11T09:19:25Z</time></trkpt><trkpt lat="43.267622606707775" lon="11.359294350077123"><ele>186.00000000000003</ele><time>2026-04-11T09:19:26Z</time></trkpt><trkpt lat="43.26754017040317" lon="11.359262046237083"><ele>186.0</ele><time>2026-04-11T09:19:27Z</time></trkpt><trkpt lat="43.26747332226204" lon="11.359233260150878"><ele>186.0</ele><time>2026-04-11T09:19:28Z</time></trkpt><trkpt lat="43.26740094182494" lon="11.359215179726306"><ele>186.0</ele><time>2026-04-11T09:19:29Z</time></trkpt><trkpt lat="43.26733304580157" lon="11.35920094831232"><ele>186.0</ele><time>2026-04-11T09:19:30Z</time></trkpt><trkpt lat="43.26726471326144" lon="11.359156480786737"><ele>186.00000000000003</ele><time>2026-04-11T09:19:31Z</time></trkpt><trkpt lat="43.26719942778909" lon="11.359121288613512"><ele>186.0</ele><time>2026-04-11T09:19:32Z</time></trkpt><trkpt lat="43.2671294554245" lon="11.35909076327029"><ele>185.83333333333334</ele><time>2026-04-11T09:19:33Z</time></trkpt><trkpt lat="43.26704930852121" lon="11.359057457620958"><ele>185.66666666666666</ele><time>2026-04-11T09:19:34Z</time></trkpt><trkpt lat="43.266973860645365" lon="11.359025357964848"><ele>185.5</ele><time>2026-04-11T09:19:35Z</time></trkpt><trkpt lat="43.2669006909742" lon="11.358996656793135"><ele>185.33333333333331</ele><time>2026-04-11T09:19:36Z</time></trkpt><trkpt lat="43.266819692946704" lon="11.358964916642014"><ele>185.16666666666666</ele><time>2026-04-11T09:19:37Z</time></trkpt><trkpt lat="43.266739095402244" lon="11.358931428453324"><ele>185.0</ele><time>2026-04-11T09:19:38Z</time></trkpt><trkpt lat="43.26666507363396" lon="11.358895966080041"><ele>184.99999999999997</ele><time>2026-04-11T09:19:39Z</time></trkpt><trkpt lat="43.26659248273141" lon="11.35886130088068"><ele>185.0</ele><time>2026-04-11T09:19:40Z</time></trkpt><trkpt lat="43.26652556272978" lon="11.358829173128012"><ele>185.0</ele><time>2026-04-11T09:19:41Z</time></trkpt><trkpt lat="43.26645532648439" lon="11.35879838048496"><ele>185.0</ele><time>2026-04-11T09:19:42Z</time></trkpt><trkpt lat="43.26638734628294" lon="11.3587764879482"><ele>185.0</ele><time>2026-04-11T09:19:43Z</time></trkpt><trkpt lat="43.26632386493003" lon="11.358755112368856"><ele>184.99999999999997</ele><time>2026-04-11T09:19:44Z</time></trkpt><trkpt lat="43.2662548430303" lon="11.358728164434988"><ele>185.0</ele><time>2026-04-11T09:19:45Z</time></trkpt><trkpt lat="43.26618184677592" lon="11.358697659545959"><ele>185.0</ele><time>2026-04-11T09:19:46Z</time></trkpt><trkpt lat="43.26610968863019" lon="11.358663500790636"><ele>185.0</ele><time>2026-04-11T09:19:47Z</time></trkpt><trkpt lat="43.26602640619401" lon="11.358626489551794"><ele>185.0</ele><time>2026-04-11T09:19:48Z</time></trkpt><trkpt lat="43.26595341665985" lon="11.358598926227401"><ele>185.0</ele><time>2026-04-11T09:19:49Z</time></trkpt><trkpt lat="43.2658899344686" lon="11.358570468090665"><ele>185.0</ele><time>2026-04-11T09:19:50Z</time></trkpt><trkpt lat="43.26580324534822" lon="11.358538829825392"><ele>185.0</ele><time>2026-04-11T09:19:51Z</time></trkpt><trkpt lat="43.265737280635285" lon="11.35850413813046"><ele>185.0</ele><time>2026-04-11T09:19:52Z</time></trkpt><trkpt lat="43.265669905491805" lon="11.358469594004282"><ele>185.0</ele><time>2026-04-11T09:19:53Z</time></trkpt><trkpt lat="43.26558743576404" lon="11.358432887966721"><ele>185.0</ele><time>2026-04-11T09:19:54Z</time></trkpt><trkpt lat="43.26550638531132" lon="11.358398704132355"><ele>185.0</ele><time>2026-04-11T09:19:55Z</time></trkpt><trkpt lat="43.26544277345654" lon="11.358367270023798"><ele>185.0</ele><time>2026-04-11T09:19:56Z</time></trkpt><trkpt lat="43.265373883778366" lon="11.358345131833554"><ele>185.0</ele><time>2026-04-11T09:19:57Z</time></trkpt><trkpt lat="43.26530913455225" lon="11.35831713623924"><ele>184.83333333333331</ele><time>2026-04-11T09:19:58Z</time></trkpt><trkpt lat="43.26524192302258" lon="11.358295480396754"><ele>184.66666666666666</ele><time>2026-04-11T09:19:59Z</time></trkpt><trkpt lat="43.2651607359653" lon="11.35825320482293"><ele>184.5</ele><time>2026-04-11T09:20:00Z</time></trkpt><trkpt lat="43.265088515029746" lon="11.358220676930246"><ele>184.33333333333334</ele><time>2026-04-11T09:20:01Z</time></trkpt><trkpt lat="43.26495829460054" lon="11.358200232018657"><ele>184.16666666666669</ele><time>2026-04-11T09:20:03Z</time></trkpt><trkpt lat="43.26487329566173" lon="11.358177971584178"><ele>184.0</ele><time>2026-04-11T09:20:04Z</time></trkpt><trkpt lat="43.2647507186734" lon="11.358208265764805"><ele>184.5</ele><time>2026-04-11T09:20:06Z</time></trkpt><trkpt lat="43.26467819970745" lon="11.358252284574133"><ele>185.0</ele><time>2026-04-11T09:20:07Z</time></trkpt><trkpt lat="43.264622011793215" lon="11.358303522905805"><ele>185.5</ele><time>2026-04-11T09:20:08Z</time></trkpt><trkpt lat="43.26457668139122" lon="11.358373897002274"><ele>186.0</ele><time>2026-04-11T09:20:09Z</time></trkpt><trkpt lat="43.264498707085714" lon="11.35851370013559"><ele>186.5</ele><time>2026-04-11T09:20:11Z</time></trkpt><trkpt lat="43.26445938619967" lon="11.358585643129747"><ele>187.0</ele><time>2026-04-11T09:20:12Z</time></trkpt><trkpt lat="43.264420006338966" lon="11.358657694246418"><ele>187.0</ele><time>2026-04-11T09:20:13Z</time></trkpt><trkpt lat="43.26438131042643" lon="11.358728493633746"><ele>187.0</ele><time>2026-04-11T09:20:14Z</time></trkpt><trkpt lat="43.26433789732875" lon="11.358807923870188"><ele>187.0</ele><time>2026-04-11T09:20:15Z</time></trkpt><trkpt lat="43.264298142629514" lon="11.358875184725795"><ele>187.0</ele><time>2026-04-11T09:20:16Z</time></trkpt><trkpt lat="43.26425289192378" lon="11.358949384625868"><ele>187.0</ele><time>2026-04-11T09:20:17Z</time></trkpt><trkpt lat="43.26420821290412" lon="11.359017735137853"><ele>187.0</ele><time>2026-04-11T09:20:18Z</time></trkpt><trkpt lat="43.264157144334" lon="11.359087092148599"><ele>187.0</ele><time>2026-04-11T09:20:19Z</time></trkpt><trkpt lat="43.264104433129766" lon="11.359144215685182"><ele>186.57142857142856</ele><time>2026-04-11T09:20:20Z</time></trkpt><trkpt lat="43.26404640131541" lon="11.359201563068384"><ele>186.14285714285717</ele><time>2026-04-11T09:20:21Z</time></trkpt><trkpt lat="43.26398695646599" lon="11.359255395819597"><ele>185.71428571428572</ele><time>2026-04-11T09:20:22Z</time></trkpt><trkpt lat="43.26392907970226" lon="11.359301417301394"><ele>185.28571428571428</ele><time>2026-04-11T09:20:23Z</time></trkpt><trkpt lat="43.263869080360024" lon="11.359343554273037"><ele>184.85714285714283</ele><time>2026-04-11T09:20:24Z</time></trkpt><trkpt lat="43.26380483479508" lon="11.35938866738486"><ele>184.42857142857144</ele><time>2026-04-11T09:20:25Z</time></trkpt><trkpt lat="43.263745482221026" lon="11.359430435383707"><ele>184.0</ele><time>2026-04-11T09:20:26Z</time></trkpt><trkpt lat="43.263681549087735" lon="11.359469638875176"><ele>183.83333333333334</ele><time>2026-04-11T09:20:27Z</time></trkpt><trkpt lat="43.26361673158559" lon="11.35951138579334"><ele>183.66666666666669</ele><time>2026-04-11T09:20:28Z</time></trkpt><trkpt lat="43.263548900745434" lon="11.359559483523341"><ele>183.5</ele><time>2026-04-11T09:20:29Z</time></trkpt><trkpt lat="43.26348372155405" lon="11.359614210682082"><ele>183.33333333333334</ele><time>2026-04-11T09:20:30Z</time></trkpt><trkpt lat="43.26341584546884" lon="11.359673923424548"><ele>183.16666666666666</ele><time>2026-04-11T09:20:31Z</time></trkpt><trkpt lat="43.26334997218165" lon="11.359735171857537"><ele>183.0</ele><time>2026-04-11T09:20:32Z</time></trkpt><trkpt lat="43.263285563306276" lon="11.35979733769268"><ele>182.83333333333334</ele><time>2026-04-11T09:20:33Z</time></trkpt><trkpt lat="43.26322379344778" lon="11.359859727914225"><ele>182.66666666666666</ele><time>2026-04-11T09:20:34Z</time></trkpt><trkpt lat="43.263165253004566" lon="11.359922305628341"><ele>182.5</ele><time>2026-04-11T09:20:35Z</time></trkpt><trkpt lat="43.26310469451401" lon="11.359989631518404"><ele>182.33333333333331</ele><time>2026-04-11T09:20:36Z</time></trkpt><trkpt lat="43.26303875171419" lon="11.360064440612533"><ele>182.16666666666666</ele><time>2026-04-11T09:20:37Z</time></trkpt><trkpt lat="43.26298599664633" lon="11.36012428874522"><ele>182.0</ele><time>2026-04-11T09:20:38Z</time></trkpt><trkpt lat="43.262935772496874" lon="11.360208143543487"><ele>182.14285714285714</ele><time>2026-04-11T09:20:39Z</time></trkpt><trkpt lat="43.26287996424808" lon="11.36026070781515"><ele>182.28571428571428</ele><time>2026-04-11T09:20:40Z</time></trkpt><trkpt lat="43.26282512734158" lon="11.360326148941024"><ele>182.42857142857144</ele><time>2026-04-11T09:20:41Z</time></trkpt><trkpt lat="43.262767391728985" lon="11.360383623582948"><ele>182.57142857142856</ele><time>2026-04-11T09:20:42Z</time></trkpt><trkpt lat="43.26271679597193" lon="11.360445511495374"><ele>182.71428571428572</ele><time>2026-04-11T09:20:43Z</time></trkpt><trkpt lat="43.26265881846276" lon="11.360498523817064"><ele>182.85714285714286</ele><time>2026-04-11T09:20:44Z</time></trkpt><trkpt lat="43.262599964641375" lon="11.360557367655302"><ele>183.0</ele><time>2026-04-11T09:20:45Z</time></trkpt><trkpt lat="43.26255813516817" lon="11.36062376952779"><ele>183.0</ele><time>2026-04-11T09:20:46Z</time></trkpt><trkpt lat="43.26250140276834" lon="11.360686593819105"><ele>183.0</ele><time>2026-04-11T09:20:47Z</time></trkpt><trkpt lat="43.26245428362438" lon="11.36075354110919"><ele>183.0</ele><time>2026-04-11T09:20:48Z</time></trkpt><trkpt lat="43.26240275027723" lon="11.36082112245805"><ele>183.0</ele><time>2026-04-11T09:20:49Z</time></trkpt><trkpt lat="43.262352221222244" lon="11.360886870025249"><ele>183.0</ele><time>2026-04-11T09:20:50Z</time></trkpt><trkpt lat="43.262307110587386" lon="11.360953200422667"><ele>183.0</ele><time>2026-04-11T09:20:51Z</time></trkpt><trkpt lat="43.26221246011543" lon="11.361059981685772"><ele>182.8</ele><time>2026-04-11T09:20:53Z</time></trkpt><trkpt lat="43.262164887376045" lon="11.361125790770977"><ele>182.60000000000002</ele><time>2026-04-11T09:20:54Z</time></trkpt><trkpt lat="43.262115841836945" lon="11.361186075006682"><ele>182.39999999999998</ele><time>2026-04-11T09:20:55Z</time></trkpt><trkpt lat="43.26201249325268" lon="11.361296053046129"><ele>182.2</ele><time>2026-04-11T09:20:57Z</time></trkpt><trkpt lat="43.261897627974115" lon="11.361397920343435"><ele>182.0</ele><time>2026-04-11T09:20:59Z</time></trkpt><trkpt lat="43.261839754193446" lon="11.361450374360684"><ele>182.0</ele><time>2026-04-11T09:21:00Z</time></trkpt><trkpt lat="43.26177898271651" lon="11.361503649764007"><ele>182.0</ele><time>2026-04-11T09:21:01Z</time></trkpt><trkpt lat="43.26172576564375" lon="11.361554162674866"><ele>182.0</ele><time>2026-04-11T09:21:02Z</time></trkpt><trkpt lat="43.261602484515564" lon="11.361621804464786"><ele>182.0</ele><time>2026-04-11T09:21:04Z</time></trkpt><trkpt lat="43.26153872062015" lon="11.361662574003933"><ele>182.0</ele><time>2026-04-11T09:21:05Z</time></trkpt><trkpt lat="43.261478373369414" lon="11.361715006092549"><ele>182.0</ele><time>2026-04-11T09:21:06Z</time></trkpt><trkpt lat="43.261353416532586" lon="11.361771703626648"><ele>182.0</ele><time>2026-04-11T09:21:08Z</time></trkpt><trkpt lat="43.26128557314903" lon="11.361813823388454"><ele>182.0</ele><time>2026-04-11T09:21:09Z</time></trkpt><trkpt lat="43.26122063593307" lon="11.361842963043559"><ele>182.0</ele><time>2026-04-11T09:21:10Z</time></trkpt><trkpt lat="43.26115317297028" lon="11.361868568763276"><ele>182.0</ele><time>2026-04-11T09:21:11Z</time></trkpt><trkpt lat="43.26108345015643" lon="11.361896116145402"><ele>182.0</ele><time>2026-04-11T09:21:12Z</time></trkpt><trkpt lat="43.261013534720306" lon="11.361909217998113"><ele>182.0</ele><time>2026-04-11T09:21:13Z</time></trkpt><trkpt lat="43.26094693166595" lon="11.361916065630547"><ele>182.0</ele><time>2026-04-11T09:21:14Z</time></trkpt><trkpt lat="43.2608785713937" lon="11.361933696258772"><ele>182.0</ele><time>2026-04-11T09:21:15Z</time></trkpt><trkpt lat="43.260804615209935" lon="11.361943814559655"><ele>182.0</ele><time>2026-04-11T09:21:16Z</time></trkpt><trkpt lat="43.26073439590982" lon="11.361950341449788"><ele>182.0</ele><time>2026-04-11T09:21:17Z</time></trkpt><trkpt lat="43.26066318166759" lon="11.361954339660107"><ele>182.0</ele><time>2026-04-11T09:21:18Z</time></trkpt><trkpt lat="43.260542390529636" lon="11.361935816214713"><ele>182.0</ele><time>2026-04-11T09:21:20Z</time></trkpt><trkpt lat="43.26042953253121" lon="11.361920828228355"><ele>182.5</ele><time>2026-04-11T09:21:22Z</time></trkpt><trkpt lat="43.26034061006309" lon="11.361893461656942"><ele>183.0</ele><time>2026-04-11T09:21:24Z</time></trkpt><trkpt lat="43.26026993455332" lon="11.361873362376665"><ele>183.5</ele><time>2026-04-11T09:21:26Z</time></trkpt><trkpt lat="43.26018815718403" lon="11.361847322733666"><ele>184.0</ele><time>2026-04-11T09:21:28Z</time></trkpt><trkpt lat="43.26011364734871" lon="11.36182756666312"><ele>184.5</ele><time>2026-04-11T09:21:30Z</time></trkpt><trkpt lat="43.260033570218006" lon="11.361802189203503"><ele>185.0</ele><time>2026-04-11T09:21:32Z</time></trkpt><trkpt lat="43.25995149561014" lon="11.361776185990964"><ele>185.0</ele><time>2026-04-11T09:21:34Z</time></trkpt><trkpt lat="43.25987426417735" lon="11.361752355052701"><ele>185.0</ele><time>2026-04-11T09:21:36Z</time></trkpt><trkpt lat="43.259805990414414" lon="11.361726686467511"><ele>185.0</ele><time>2026-04-11T09:21:38Z</time></trkpt><trkpt lat="43.2597275418539" lon="11.361698662310374"><ele>185.0</ele><time>2026-04-11T09:21:40Z</time></trkpt><trkpt lat="43.25964853318764" lon="11.361666550016041"><ele>185.0</ele><time>2026-04-11T09:21:42Z</time></trkpt><trkpt lat="43.25957957009473" lon="11.361637327120835"><ele>185.0</ele><time>2026-04-11T09:21:44Z</time></trkpt><trkpt lat="43.259504322990374" lon="11.361599571565101"><ele>184.99999999999997</ele><time>2026-04-11T09:21:46Z</time></trkpt><trkpt lat="43.25943198626569" lon="11.361565507857167"><ele>185.0</ele><time>2026-04-11T09:21:48Z</time></trkpt><trkpt lat="43.259367801908446" lon="11.361533473844387"><ele>185.0</ele><time>2026-04-11T09:21:50Z</time></trkpt><trkpt lat="43.25929784237245" lon="11.361498927884393"><ele>185.0</ele><time>2026-04-11T09:21:52Z</time></trkpt><trkpt lat="43.25922515961854" lon="11.361459622209882"><ele>185.0</ele><time>2026-04-11T09:21:54Z</time></trkpt><trkpt lat="43.259154721461236" lon="11.361424866340036"><ele>184.99999999999997</ele><time>2026-04-11T09:21:56Z</time></trkpt><trkpt lat="43.25908692542715" lon="11.36138662864629"><ele>185.0</ele><time>2026-04-11T09:21:58Z</time></trkpt><trkpt lat="43.259025372355154" lon="11.361348881110438"><ele>186.66666666666666</ele><time>2026-04-11T09:22:00Z</time></trkpt><trkpt lat="43.25894330302127" lon="11.361293794868788"><ele>188.33333333333331</ele><time>2026-04-11T09:22:03Z</time></trkpt><trkpt lat="43.25888039295561" lon="11.361254793425617"><ele>190.0</ele><time>2026-04-11T09:22:05Z</time></trkpt><trkpt lat="43.258824055915646" lon="11.361214368865896"><ele>191.66666666666666</ele><time>2026-04-11T09:22:07Z</time></trkpt><trkpt lat="43.25876292176256" lon="11.361167765060634"><ele>193.33333333333334</ele><time>2026-04-11T09:22:09Z</time></trkpt><trkpt lat="43.25867916372942" lon="11.36109985427166"><ele>195.0</ele><time>2026-04-11T09:22:12Z</time></trkpt><trkpt lat="43.25862428767737" lon="11.361040258620545"><ele>195.0</ele><time>2026-04-11T09:22:14Z</time></trkpt><trkpt lat="43.258569770027265" lon="11.360987253533043"><ele>195.0</ele><time>2026-04-11T09:22:16Z</time></trkpt><trkpt lat="43.258510805529426" lon="11.360942853363683"><ele>195.0</ele><time>2026-04-11T09:22:18Z</time></trkpt><trkpt lat="43.25844557422963" lon="11.360894573176578"><ele>195.0</ele><time>2026-04-11T09:22:20Z</time></trkpt><trkpt lat="43.25837590233026" lon="11.360813313572343"><ele>195.0</ele><time>2026-04-11T09:22:23Z</time></trkpt><trkpt lat="43.258296318991" lon="11.360740614582465"><ele>195.0</ele><time>2026-04-11T09:22:26Z</time></trkpt><trkpt lat="43.258231951288295" lon="11.3606856269098"><ele>195.0</ele><time>2026-04-11T09:22:28Z</time></trkpt><trkpt lat="43.25816057739714" lon="11.360602900124968"><ele>195.0</ele><time>2026-04-11T09:22:31Z</time></trkpt><trkpt lat="43.25811485391796" lon="11.360541485849689"><ele>195.0</ele><time>2026-04-11T09:22:33Z</time></trkpt><trkpt lat="43.258030598748036" lon="11.360474210630471"><ele>195.0</ele><time>2026-04-11T09:22:36Z</time></trkpt><trkpt lat="43.257975264934736" lon="11.360430733886322"><ele>195.0</ele><time>2026-04-11T09:22:38Z</time></trkpt><trkpt lat="43.25791510896203" lon="11.360398236198547"><ele>195.0</ele><time>2026-04-11T09:22:40Z</time></trkpt><trkpt lat="43.25785577749802" lon="11.360359125989175"><ele>195.0</ele><time>2026-04-11T09:22:42Z</time></trkpt><trkpt lat="43.257790172649464" lon="11.360325597566824"><ele>195.0</ele><time>2026-04-11T09:22:44Z</time></trkpt><trkpt lat="43.25773030579459" lon="11.360297018993817"><ele>195.0</ele><time>2026-04-11T09:22:46Z</time></trkpt><trkpt lat="43.257659946126296" lon="11.360273847730285"><ele>195.0</ele><time>2026-04-11T09:22:48Z</time></trkpt><trkpt lat="43.25759716959846" lon="11.360252505980494"><ele>195.0</ele><time>2026-04-11T09:22:50Z</time></trkpt><trkpt lat="43.25753513446647" lon="11.360224381766347"><ele>195.0</ele><time>2026-04-11T09:22:52Z</time></trkpt><trkpt lat="43.25747286991083" lon="11.360195545319867"><ele>195.0</ele><time>2026-04-11T09:22:54Z</time></trkpt><trkpt lat="43.257383008415786" lon="11.360165619943912"><ele>195.0</ele><time>2026-04-11T09:22:57Z</time></trkpt><trkpt lat="43.25731900482615" lon="11.360145194033818"><ele>195.66666666666666</ele><time>2026-04-11T09:22:59Z</time></trkpt><trkpt lat="43.25723443839988" lon="11.360121652552975"><ele>196.33333333333331</ele><time>2026-04-11T09:23:02Z</time></trkpt><trkpt lat="43.257170602888856" lon="11.36009557683158"><ele>197.0</ele><time>2026-04-11T09:23:04Z</time></trkpt><trkpt lat="43.257080369470906" lon="11.360094378457335"><ele>197.66666666666666</ele><time>2026-04-11T09:23:07Z</time></trkpt><trkpt lat="43.25699237961174" lon="11.360089061633971"><ele>198.33333333333331</ele><time>2026-04-11T09:23:10Z</time></trkpt><trkpt lat="43.25692969121854" lon="11.360073221282452"><ele>199.0</ele><time>2026-04-11T09:23:12Z</time></trkpt><trkpt lat="43.25683878212959" lon="11.360081765296004"><ele>198.99999999999997</ele><time>2026-04-11T09:23:15Z</time></trkpt><trkpt lat="43.256774291784275" lon="11.360071249082374"><ele>199.0</ele><time>2026-04-11T09:23:17Z</time></trkpt><trkpt lat="43.25670843602296" lon="11.360081978593247"><ele>199.0</ele><time>2026-04-11T09:23:19Z</time></trkpt><trkpt lat="43.256644375991044" lon="11.360096748082109"><ele>199.0</ele><time>2026-04-11T09:23:21Z</time></trkpt><trkpt lat="43.256582077630604" lon="11.360110839276915"><ele>199.0</ele><time>2026-04-11T09:23:23Z</time></trkpt><trkpt lat="43.25651673495229" lon="11.360121283059911"><ele>198.99999999999997</ele><time>2026-04-11T09:23:25Z</time></trkpt><trkpt lat="43.25645352735698" lon="11.360133676522713"><ele>199.0</ele><time>2026-04-11T09:23:27Z</time></trkpt><trkpt lat="43.25636265918842" lon="11.36014567529802"><ele>199.66666666666666</ele><time>2026-04-11T09:23:30Z</time></trkpt><trkpt lat="43.25629941658557" lon="11.360166254161337"><ele>200.33333333333331</ele><time>2026-04-11T09:23:32Z</time></trkpt><trkpt lat="43.25623378359019" lon="11.360173105166737"><ele>201.0</ele><time>2026-04-11T09:23:34Z</time></trkpt><trkpt lat="43.25615376074176" lon="11.360204923668338"><ele>201.66666666666669</ele><time>2026-04-11T09:23:37Z</time></trkpt><trkpt lat="43.25608019956203" lon="11.360234355007826"><ele>202.33333333333334</ele><time>2026-04-11T09:23:40Z</time></trkpt><trkpt lat="43.256024372482685" lon="11.360286822022557"><ele>203.0</ele><time>2026-04-11T09:23:42Z</time></trkpt><trkpt lat="43.25594149792718" lon="11.360347145060956"><ele>203.0</ele><time>2026-04-11T09:23:45Z</time></trkpt><trkpt lat="43.255853217741674" lon="11.360395369699729"><ele>203.0</ele><time>2026-04-11T09:23:48Z</time></trkpt><trkpt lat="43.25579640486148" lon="11.360449455265979"><ele>203.0</ele><time>2026-04-11T09:23:50Z</time></trkpt><trkpt lat="43.25574166977661" lon="11.360492864948707"><ele>203.0</ele><time>2026-04-11T09:23:52Z</time></trkpt><trkpt lat="43.255674303653024" lon="11.360516714281832"><ele>203.0</ele><time>2026-04-11T09:23:54Z</time></trkpt><trkpt lat="43.25561415822381" lon="11.360559002457325"><ele>203.0</ele><time>2026-04-11T09:23:56Z</time></trkpt><trkpt lat="43.25556195644473" lon="11.360620794570146"><ele>203.0</ele><time>2026-04-11T09:23:58Z</time></trkpt><trkpt lat="43.25549596953914" lon="11.360643089916323"><ele>204.57142857142858</ele><time>2026-04-11T09:24:00Z</time></trkpt><trkpt lat="43.255431866622814" lon="11.360693164201187"><ele>206.14285714285714</ele><time>2026-04-11T09:24:02Z</time></trkpt><trkpt lat="43.25538123025666" lon="11.360757834251569"><ele>207.71428571428572</ele><time>2026-04-11T09:24:04Z</time></trkpt><trkpt lat="43.25531147416546" lon="11.360789458849343"><ele>209.28571428571428</ele><time>2026-04-11T09:24:06Z</time></trkpt><trkpt lat="43.25524698814657" lon="11.360851317453408"><ele>210.85714285714286</ele><time>2026-04-11T09:24:08Z</time></trkpt><trkpt lat="43.255202604814556" lon="11.36092991003614"><ele>212.42857142857144</ele><time>2026-04-11T09:24:10Z</time></trkpt><trkpt lat="43.25514529858161" lon="11.360986796467692"><ele>214.0</ele><time>2026-04-11T09:24:12Z</time></trkpt><trkpt lat="43.25509928867763" lon="11.361058835146594"><ele>213.99999999999997</ele><time>2026-04-11T09:24:14Z</time></trkpt><trkpt lat="43.25504195773891" lon="11.361154190471515"><ele>214.0</ele><time>2026-04-11T09:24:17Z</time></trkpt><trkpt lat="43.25500543782614" lon="11.361258712829931"><ele>214.0</ele><time>2026-04-11T09:24:20Z</time></trkpt><trkpt lat="43.25494520511474" lon="11.361359342374401"><ele>214.0</ele><time>2026-04-11T09:24:23Z</time></trkpt><trkpt lat="43.254886944790044" lon="11.361453843776077"><ele>213.99999999999997</ele><time>2026-04-11T09:24:26Z</time></trkpt><trkpt lat="43.254848779142655" lon="11.36156406947141"><ele>214.0</ele><time>2026-04-11T09:24:29Z</time></trkpt><trkpt lat="43.25479435757881" lon="11.36163840708769"><ele>215.83333333333331</ele><time>2026-04-11T09:24:32Z</time></trkpt><trkpt lat="43.25474914755443" lon="11.361726804825697"><ele>217.66666666666666</ele><time>2026-04-11T09:24:35Z</time></trkpt><trkpt lat="43.25470054305397" lon="11.361819571187429"><ele>219.5</ele><time>2026-04-11T09:24:38Z</time></trkpt><trkpt lat="43.25465243802354" lon="11.361901964878776"><ele>221.33333333333331</ele><time>2026-04-11T09:24:41Z</time></trkpt><trkpt lat="43.254613453675105" lon="11.361984794146661"><ele>223.16666666666666</ele><time>2026-04-11T09:24:44Z</time></trkpt><trkpt lat="43.25455416702673" lon="11.362046685370313"><ele>225.0</ele><time>2026-04-11T09:24:47Z</time></trkpt><trkpt lat="43.254498785545444" lon="11.362100850792132"><ele>225.0</ele><time>2026-04-11T09:24:50Z</time></trkpt><trkpt lat="43.25442705071488" lon="11.36213588823055"><ele>225.0</ele><time>2026-04-11T09:24:53Z</time></trkpt><trkpt lat="43.25436194851834" lon="11.362181542623878"><ele>225.0</ele><time>2026-04-11T09:24:56Z</time></trkpt><trkpt lat="43.254303972114435" lon="11.362235772406901"><ele>225.0</ele><time>2026-04-11T09:25:00Z</time></trkpt><trkpt lat="43.25422602400391" lon="11.362279780295598"><ele>225.0</ele><time>2026-04-11T09:25:03Z</time></trkpt><trkpt lat="43.25414839977184" lon="11.362310490717752"><ele>225.0</ele><time>2026-04-11T09:25:06Z</time></trkpt><trkpt lat="43.25406825873557" lon="11.362345353112456"><ele>225.0</ele><time>2026-04-11T09:25:09Z</time></trkpt><trkpt lat="43.2539899325401" lon="11.362363782943309"><ele>225.0</ele><time>2026-04-11T09:25:12Z</time></trkpt><trkpt lat="43.25391071351801" lon="11.362374590411127"><ele>225.0</ele><time>2026-04-11T09:25:15Z</time></trkpt><trkpt lat="43.25383632825184" lon="11.362386259287515"><ele>225.0</ele><time>2026-04-11T09:25:18Z</time></trkpt><trkpt lat="43.25376640971371" lon="11.362395921370407"><ele>225.0</ele><time>2026-04-11T09:25:21Z</time></trkpt><trkpt lat="43.253689015267646" lon="11.362406451924969"><ele>225.0</ele><time>2026-04-11T09:25:24Z</time></trkpt><trkpt lat="43.25361707294287" lon="11.36241125031293"><ele>225.0</ele><time>2026-04-11T09:25:27Z</time></trkpt><trkpt lat="43.25353731385587" lon="11.362429633386398"><ele>225.0</ele><time>2026-04-11T09:25:30Z</time></trkpt><trkpt lat="43.25346256524505" lon="11.362455422546075"><ele>225.0</ele><time>2026-04-11T09:25:33Z</time></trkpt><trkpt lat="43.253385757369344" lon="11.362470223661976"><ele>225.0</ele><time>2026-04-11T09:25:36Z</time></trkpt><trkpt lat="43.25331030633636" lon="11.36249877906173"><ele>225.0</ele><time>2026-04-11T09:25:39Z</time></trkpt><trkpt lat="43.253229478582035" lon="11.362523709512686"><ele>225.0</ele><time>2026-04-11T09:25:42Z</time></trkpt><trkpt lat="43.253146862838896" lon="11.362550445419506"><ele>225.5</ele><time>2026-04-11T09:25:45Z</time></trkpt><trkpt lat="43.25307615887334" lon="11.36258414224572"><ele>226.0</ele><time>2026-04-11T09:25:48Z</time></trkpt><trkpt lat="43.25300489390085" lon="11.362628956531557"><ele>226.5</ele><time>2026-04-11T09:25:51Z</time></trkpt><trkpt lat="43.252935125841674" lon="11.362665851182799"><ele>227.0</ele><time>2026-04-11T09:25:54Z</time></trkpt><trkpt lat="43.252855901209294" lon="11.362697628732574"><ele>227.5</ele><time>2026-04-11T09:25:57Z</time></trkpt><trkpt lat="43.25278144149584" lon="11.36273917088795"><ele>228.0</ele><time>2026-04-11T09:26:00Z</time></trkpt><trkpt lat="43.252720930626396" lon="11.362800565499608"><ele>228.0</ele><time>2026-04-11T09:26:03Z</time></trkpt><trkpt lat="43.25265192497628" lon="11.362842877753051"><ele>228.0</ele><time>2026-04-11T09:26:06Z</time></trkpt><trkpt lat="43.25258733357527" lon="11.362877137013122"><ele>228.0</ele><time>2026-04-11T09:26:09Z</time></trkpt><trkpt lat="43.25252623206679" lon="11.362929359190918"><ele>228.0</ele><time>2026-04-11T09:26:12Z</time></trkpt><trkpt lat="43.25245185147389" lon="11.362965185952147"><ele>228.0</ele><time>2026-04-11T09:26:15Z</time></trkpt><trkpt lat="43.2523838805802" lon="11.36302793661047"><ele>228.0</ele><time>2026-04-11T09:26:18Z</time></trkpt><trkpt lat="43.25232114491065" lon="11.363090455473293"><ele>228.7142857142857</ele><time>2026-04-11T09:26:21Z</time></trkpt><trkpt lat="43.252259336147475" lon="11.363153260326364"><ele>229.4285714285714</ele><time>2026-04-11T09:26:24Z</time></trkpt><trkpt lat="43.25220591156352" lon="11.36321026254941"><ele>230.14285714285714</ele><time>2026-04-11T09:26:27Z</time></trkpt><trkpt lat="43.252151299168446" lon="11.363272095341284"><ele>230.85714285714283</ele><time>2026-04-11T09:26:31Z</time></trkpt><trkpt lat="43.25210009521537" lon="11.363331042343502"><ele>231.57142857142856</ele><time>2026-04-11T09:26:34Z</time></trkpt><trkpt lat="43.25204079837644" lon="11.363391675005795"><ele>232.28571428571428</ele><time>2026-04-11T09:26:37Z</time></trkpt><trkpt lat="43.25198609691425" lon="11.363437156060009"><ele>233.0</ele><time>2026-04-11T09:26:39Z</time></trkpt><trkpt lat="43.25192989444082" lon="11.363477217176769"><ele>233.00000000000003</ele><time>2026-04-11T09:26:41Z</time></trkpt><trkpt lat="43.251861687295715" lon="11.363519371795293"><ele>233.0</ele><time>2026-04-11T09:26:43Z</time></trkpt><trkpt lat="43.25179720896907" lon="11.363555259863977"><ele>233.0</ele><time>2026-04-11T09:26:45Z</time></trkpt><trkpt lat="43.25173222414437" lon="11.36357910450199"><ele>233.0</ele><time>2026-04-11T09:26:47Z</time></trkpt><trkpt lat="43.25164605752777" lon="11.363595187705473"><ele>233.00000000000003</ele><time>2026-04-11T09:26:50Z</time></trkpt><trkpt lat="43.25155919812145" lon="11.36359940760334"><ele>233.0</ele><time>2026-04-11T09:26:53Z</time></trkpt><trkpt lat="43.25148369802266" lon="11.363594899866925"><ele>231.66666666666669</ele><time>2026-04-11T09:26:55Z</time></trkpt><trkpt lat="43.25139309101877" lon="11.363603146820832"><ele>230.33333333333334</ele><time>2026-04-11T09:26:57Z</time></trkpt><trkpt lat="43.25128458414942" lon="11.363574728016614"><ele>229.0</ele><time>2026-04-11T09:26:59Z</time></trkpt><trkpt lat="43.2512241570728" lon="11.363535839058668"><ele>227.66666666666669</ele><time>2026-04-11T09:27:00Z</time></trkpt><trkpt lat="43.25116064336766" lon="11.363506431854798"><ele>226.33333333333334</ele><time>2026-04-11T09:27:01Z</time></trkpt><trkpt lat="43.25109164136714" lon="11.363473766717831"><ele>225.0</ele><time>2026-04-11T09:27:02Z</time></trkpt><trkpt lat="43.25102108747843" lon="11.36344157043773"><ele>225.0</ele><time>2026-04-11T09:27:03Z</time></trkpt><trkpt lat="43.25094862984089" lon="11.363406823687642"><ele>225.0</ele><time>2026-04-11T09:27:04Z</time></trkpt><trkpt lat="43.250872302378845" lon="11.363374586591036"><ele>225.0</ele><time>2026-04-11T09:27:05Z</time></trkpt><trkpt lat="43.250789912814696" lon="11.363341413804974"><ele>225.0</ele><time>2026-04-11T09:27:06Z</time></trkpt><trkpt lat="43.25070630460388" lon="11.363313264766713"><ele>225.0</ele><time>2026-04-11T09:27:07Z</time></trkpt><trkpt lat="43.250621225593804" lon="11.363287342488205"><ele>225.0</ele><time>2026-04-11T09:27:08Z</time></trkpt><trkpt lat="43.25053702156497" lon="11.36326518706858"><ele>224.66666666666666</ele><time>2026-04-11T09:27:09Z</time></trkpt><trkpt lat="43.250460918352765" lon="11.363243474499349"><ele>224.33333333333331</ele><time>2026-04-11T09:27:10Z</time></trkpt><trkpt lat="43.2503818870117" lon="11.363227723221335"><ele>224.0</ele><time>2026-04-11T09:27:11Z</time></trkpt><trkpt lat="43.25030648421797" lon="11.363206154104061"><ele>223.66666666666666</ele><time>2026-04-11T09:27:12Z</time></trkpt><trkpt lat="43.2502300887018" lon="11.363190515983606"><ele>223.33333333333331</ele><time>2026-04-11T09:27:13Z</time></trkpt><trkpt lat="43.250151388925225" lon="11.363175020224213"><ele>223.0</ele><time>2026-04-11T09:27:14Z</time></trkpt><trkpt lat="43.25007065731307" lon="11.363148697607965"><ele>222.99999999999997</ele><time>2026-04-11T09:27:15Z</time></trkpt><trkpt lat="43.249993643183" lon="11.36311954284729"><ele>223.0</ele><time>2026-04-11T09:27:16Z</time></trkpt><trkpt lat="43.249915629618584" lon="11.363090993871669"><ele>223.0</ele><time>2026-04-11T09:27:17Z</time></trkpt><trkpt lat="43.249835329609844" lon="11.363071356131803"><ele>223.0</ele><time>2026-04-11T09:27:18Z</time></trkpt><trkpt lat="43.24975935419905" lon="11.36305976975222"><ele>222.99999999999997</ele><time>2026-04-11T09:27:19Z</time></trkpt><trkpt lat="43.249684263960425" lon="11.363048381289277"><ele>223.0</ele><time>2026-04-11T09:27:20Z</time></trkpt><trkpt lat="43.24961709442979" lon="11.363037323961185"><ele>223.83333333333331</ele><time>2026-04-11T09:27:21Z</time></trkpt><trkpt lat="43.24954316027409" lon="11.3630457462502"><ele>224.66666666666666</ele><time>2026-04-11T09:27:22Z</time></trkpt><trkpt lat="43.24942538616985" lon="11.363073912754075"><ele>225.5</ele><time>2026-04-11T09:27:24Z</time></trkpt><trkpt lat="43.249361200169105" lon="11.363105236937598"><ele>226.33333333333331</ele><time>2026-04-11T09:27:25Z</time></trkpt><trkpt lat="43.24930201550905" lon="11.363141007454603"><ele>227.16666666666666</ele><time>2026-04-11T09:27:26Z</time></trkpt><trkpt lat="43.24919614193512" lon="11.36322051208776"><ele>228.0</ele><time>2026-04-11T09:27:28Z</time></trkpt><trkpt lat="43.24909579895577" lon="11.36329908121095"><ele>228.0</ele><time>2026-04-11T09:27:30Z</time></trkpt><trkpt lat="43.24901651934806" lon="11.363370028352916"><ele>228.0</ele><time>2026-04-11T09:27:32Z</time></trkpt><trkpt lat="43.24894389797633" lon="11.363466674161371"><ele>228.0</ele><time>2026-04-11T09:27:34Z</time></trkpt><trkpt lat="43.24885596451523" lon="11.363560889656194"><ele>228.0</ele><time>2026-04-11T09:27:36Z</time></trkpt><trkpt lat="43.24878301953739" lon="11.36366856417165"><ele>228.0</ele><time>2026-04-11T09:27:38Z</time></trkpt><trkpt lat="43.24874217748419" lon="11.363744835402208"><ele>227.8</ele><time>2026-04-11T09:27:39Z</time></trkpt><trkpt lat="43.248665433830126" lon="11.363874420493968"><ele>227.60000000000002</ele><time>2026-04-11T09:27:41Z</time></trkpt><trkpt lat="43.248625399487885" lon="11.363941123658913"><ele>227.39999999999998</ele><time>2026-04-11T09:27:42Z</time></trkpt><trkpt lat="43.24854559474493" lon="11.364051252260863"><ele>227.2</ele><time>2026-04-11T09:27:44Z</time></trkpt><trkpt lat="43.24847453253865" lon="11.364147226467681"><ele>227.0</ele><time>2026-04-11T09:27:46Z</time></trkpt><trkpt lat="43.24841113652559" lon="11.364246437021793"><ele>227.0</ele><time>2026-04-11T09:27:48Z</time></trkpt><trkpt lat="43.248345406464075" lon="11.36437347229144"><ele>227.0</ele><time>2026-04-11T09:27:50Z</time></trkpt><trkpt lat="43.24829322412034" lon="11.364491082832416"><ele>227.0</ele><time>2026-04-11T09:27:52Z</time></trkpt><trkpt lat="43.24826223212005" lon="11.364646717916502"><ele>227.0</ele><time>2026-04-11T09:27:54Z</time></trkpt><trkpt lat="43.24825433084118" lon="11.364806918747263"><ele>227.0</ele><time>2026-04-11T09:27:56Z</time></trkpt><trkpt lat="43.24826390964122" lon="11.364962013349015"><ele>226.66666666666669</ele><time>2026-04-11T09:27:58Z</time></trkpt><trkpt lat="43.24824226909319" lon="11.365112430222016"><ele>226.33333333333334</ele><time>2026-04-11T09:28:00Z</time></trkpt><trkpt lat="43.24824789836693" lon="11.365229495200472"><ele>226.0</ele><time>2026-04-11T09:28:02Z</time></trkpt><trkpt lat="43.248219760915035" lon="11.365320054043968"><ele>225.66666666666669</ele><time>2026-04-11T09:28:04Z</time></trkpt><trkpt lat="43.248193017085185" lon="11.36541801743441"><ele>225.33333333333334</ele><time>2026-04-11T09:28:06Z</time></trkpt><trkpt lat="43.24815254484321" lon="11.365518819400972"><ele>225.0</ele><time>2026-04-11T09:28:08Z</time></trkpt><trkpt lat="43.24808274919737" lon="11.365621833238027"><ele>224.6</ele><time>2026-04-11T09:28:10Z</time></trkpt><trkpt lat="43.24801398826038" lon="11.365720211277555"><ele>224.2</ele><time>2026-04-11T09:28:12Z</time></trkpt><trkpt lat="43.24793108093759" lon="11.36582137678202"><ele>223.8</ele><time>2026-04-11T09:28:14Z</time></trkpt><trkpt lat="43.24787760740455" lon="11.365880184299678"><ele>223.4</ele><time>2026-04-11T09:28:15Z</time></trkpt><trkpt lat="43.24777245963902" lon="11.365977610670914"><ele>223.0</ele><time>2026-04-11T09:28:17Z</time></trkpt><trkpt lat="43.24770619423886" lon="11.366015190377311"><ele>223.0</ele><time>2026-04-11T09:28:18Z</time></trkpt><trkpt lat="43.2476350277924" lon="11.366040586373442"><ele>223.0</ele><time>2026-04-11T09:28:19Z</time></trkpt><trkpt lat="43.247559427463635" lon="11.366049107198034"><ele>223.0</ele><time>2026-04-11T09:28:20Z</time></trkpt><trkpt lat="43.247482660953864" lon="11.366074673585198"><ele>223.0</ele><time>2026-04-11T09:28:21Z</time></trkpt><trkpt lat="43.24741490183307" lon="11.366065673208857"><ele>223.0</ele><time>2026-04-11T09:28:22Z</time></trkpt><trkpt lat="43.247348330978845" lon="11.366076317068703"><ele>223.0</ele><time>2026-04-11T09:28:23Z</time></trkpt><trkpt lat="43.24728149374405" lon="11.366088374006491"><ele>223.0</ele><time>2026-04-11T09:28:24Z</time></trkpt><trkpt lat="43.24721635994051" lon="11.366104838752667"><ele>222.60000000000002</ele><time>2026-04-11T09:28:25Z</time></trkpt><trkpt lat="43.24714700775095" lon="11.366126140779656"><ele>222.20000000000002</ele><time>2026-04-11T09:28:26Z</time></trkpt><trkpt lat="43.24702798613124" lon="11.366189083303743"><ele>221.8</ele><time>2026-04-11T09:28:28Z</time></trkpt><trkpt lat="43.24690954445362" lon="11.36622992346281"><ele>221.4</ele><time>2026-04-11T09:28:30Z</time></trkpt><trkpt lat="43.2467931675818" lon="11.366273562181288"><ele>221.0</ele><time>2026-04-11T09:28:32Z</time></trkpt><trkpt lat="43.246680273183195" lon="11.366300246998406"><ele>221.0</ele><time>2026-04-11T09:28:34Z</time></trkpt><trkpt lat="43.24657850568115" lon="11.36635942022369"><ele>221.00000000000003</ele><time>2026-04-11T09:28:36Z</time></trkpt><trkpt lat="43.246482638427246" lon="11.366410479290998"><ele>221.00000000000003</ele><time>2026-04-11T09:28:38Z</time></trkpt><trkpt lat="43.2463915053696" lon="11.36646546520479"><ele>221.0</ele><time>2026-04-11T09:28:40Z</time></trkpt><trkpt lat="43.24630761783617" lon="11.366525533976235"><ele>221.0</ele><time>2026-04-11T09:28:42Z</time></trkpt><trkpt lat="43.24622717261506" lon="11.36659292660963"><ele>221.60000000000002</ele><time>2026-04-11T09:28:44Z</time></trkpt><trkpt lat="43.24614270988976" lon="11.366668351542671"><ele>222.20000000000002</ele><time>2026-04-11T09:28:46Z</time></trkpt><trkpt lat="43.24606832547558" lon="11.366760793544374"><ele>222.79999999999998</ele><time>2026-04-11T09:28:48Z</time></trkpt><trkpt lat="43.24597144863746" lon="11.366855847387912"><ele>223.39999999999998</ele><time>2026-04-11T09:28:50Z</time></trkpt><trkpt lat="43.24591954512352" lon="11.366913522967069"><ele>224.0</ele><time>2026-04-11T09:28:51Z</time></trkpt><trkpt lat="43.24586628910038" lon="11.366972113735695"><ele>224.00000000000003</ele><time>2026-04-11T09:28:52Z</time></trkpt><trkpt lat="43.24580974858347" lon="11.367033598261154"><ele>224.0</ele><time>2026-04-11T09:28:53Z</time></trkpt><trkpt lat="43.245745557867146" lon="11.367089387536579"><ele>224.0</ele><time>2026-04-11T09:28:54Z</time></trkpt><trkpt lat="43.24567782326825" lon="11.367139368024084"><ele>224.0</ele><time>2026-04-11T09:28:55Z</time></trkpt><trkpt lat="43.24560709109266" lon="11.367198285001496"><ele>224.00000000000003</ele><time>2026-04-11T09:28:56Z</time></trkpt><trkpt lat="43.2455321552014" lon="11.367253809848613"><ele>224.0</ele><time>2026-04-11T09:28:57Z</time></trkpt><trkpt lat="43.24545399356749" lon="11.36731093645749"><ele>223.33333333333334</ele><time>2026-04-11T09:28:58Z</time></trkpt><trkpt lat="43.245370265673024" lon="11.36735016686739"><ele>222.66666666666669</ele><time>2026-04-11T09:28:59Z</time></trkpt><trkpt lat="43.24529015639238" lon="11.367395804275727"><ele>222.0</ele><time>2026-04-11T09:29:00Z</time></trkpt><trkpt lat="43.24520477218196" lon="11.367431306289943"><ele>221.33333333333331</ele><time>2026-04-11T09:29:01Z</time></trkpt><trkpt lat="43.24512587590288" lon="11.367465094752372"><ele>220.66666666666666</ele><time>2026-04-11T09:29:02Z</time></trkpt><trkpt lat="43.2450446526849" lon="11.36749229394654"><ele>220.0</ele><time>2026-04-11T09:29:03Z</time></trkpt><trkpt lat="43.24497000500734" lon="11.367512538535452"><ele>219.99999999999997</ele><time>2026-04-11T09:29:04Z</time></trkpt><trkpt lat="43.24489597094712" lon="11.367539123637075"><ele>220.0</ele><time>2026-04-11T09:29:05Z</time></trkpt><trkpt lat="43.24482587943463" lon="11.3675583327449"><ele>220.0</ele><time>2026-04-11T09:29:06Z</time></trkpt><trkpt lat="43.244758545851596" lon="11.367579686994938"><ele>220.0</ele><time>2026-04-11T09:29:07Z</time></trkpt><trkpt lat="43.24469030620635" lon="11.36760705201781"><ele>219.99999999999997</ele><time>2026-04-11T09:29:08Z</time></trkpt><trkpt lat="43.24462735288842" lon="11.367625258376563"><ele>220.0</ele><time>2026-04-11T09:29:09Z</time></trkpt><trkpt lat="43.24451658887644" lon="11.367659397604427"><ele>220.6</ele><time>2026-04-11T09:29:11Z</time></trkpt><trkpt lat="43.244413155821206" lon="11.3676717826668"><ele>221.2</ele><time>2026-04-11T09:29:13Z</time></trkpt><trkpt lat="43.24432357429525" lon="11.367714974045603"><ele>221.8</ele><time>2026-04-11T09:29:15Z</time></trkpt><trkpt lat="43.2442373048821" lon="11.367743088357559"><ele>222.4</ele><time>2026-04-11T09:29:17Z</time></trkpt><trkpt lat="43.244159737434536" lon="11.367773572060646"><ele>223.0</ele><time>2026-04-11T09:29:19Z</time></trkpt><trkpt lat="43.24407503756543" lon="11.367795583087295"><ele>223.0</ele><time>2026-04-11T09:29:21Z</time></trkpt><trkpt lat="43.243995944427176" lon="11.367819413336509"><ele>223.0</ele><time>2026-04-11T09:29:23Z</time></trkpt><trkpt lat="43.24391811159381" lon="11.36784529602233"><ele>223.0</ele><time>2026-04-11T09:29:25Z</time></trkpt><trkpt lat="43.24383860266729" lon="11.367872044369665"><ele>223.0</ele><time>2026-04-11T09:29:27Z</time></trkpt><trkpt lat="43.243764155622166" lon="11.367882351904385"><ele>223.0</ele><time>2026-04-11T09:29:29Z</time></trkpt><trkpt lat="43.243703828957855" lon="11.367911072376907"><ele>223.0</ele><time>2026-04-11T09:29:31Z</time></trkpt><trkpt lat="43.24364098481141" lon="11.3679360231066"><ele>223.0</ele><time>2026-04-11T09:29:33Z</time></trkpt><trkpt lat="43.24355544054722" lon="11.367949509070016"><ele>222.8</ele><time>2026-04-11T09:29:35Z</time></trkpt><trkpt lat="43.243461686398994" lon="11.367980445693433"><ele>222.60000000000002</ele><time>2026-04-11T09:29:37Z</time></trkpt><trkpt lat="43.24334602606531" lon="11.367996508807652"><ele>222.39999999999998</ele><time>2026-04-11T09:29:39Z</time></trkpt><trkpt lat="43.243220837752816" lon="11.36800349074222"><ele>222.2</ele><time>2026-04-11T09:29:41Z</time></trkpt><trkpt lat="43.2431562768576" lon="11.368019349653121"><ele>222.0</ele><time>2026-04-11T09:29:42Z</time></trkpt><trkpt lat="43.243090534867044" lon="11.368040673759007"><ele>222.0</ele><time>2026-04-11T09:29:43Z</time></trkpt><trkpt lat="43.2429701865348" lon="11.368111263857658"><ele>222.0</ele><time>2026-04-11T09:29:45Z</time></trkpt><trkpt lat="43.24290549444619" lon="11.368140529864618"><ele>222.0</ele><time>2026-04-11T09:29:46Z</time></trkpt><trkpt lat="43.24283359111226" lon="11.368152398707464"><ele>222.0</ele><time>2026-04-11T09:29:47Z</time></trkpt><trkpt lat="43.24276792463346" lon="11.368187041606665"><ele>222.0</ele><time>2026-04-11T09:29:48Z</time></trkpt><trkpt lat="43.24270235227425" lon="11.368233822609788"><ele>222.0</ele><time>2026-04-11T09:29:49Z</time></trkpt><trkpt lat="43.242645040188364" lon="11.368301689532107"><ele>222.0</ele><time>2026-04-11T09:29:50Z</time></trkpt><trkpt lat="43.242580513507846" lon="11.368358363067724"><ele>222.0</ele><time>2026-04-11T09:29:51Z</time></trkpt><trkpt lat="43.24252110867842" lon="11.368425857915769"><ele>222.0</ele><time>2026-04-11T09:29:52Z</time></trkpt><trkpt lat="43.24246156295612" lon="11.368500258281824"><ele>222.0</ele><time>2026-04-11T09:29:53Z</time></trkpt><trkpt lat="43.24239854516856" lon="11.368578274539622"><ele>222.0</ele><time>2026-04-11T09:29:54Z</time></trkpt><trkpt lat="43.242334958590355" lon="11.368658824716261"><ele>222.0</ele><time>2026-04-11T09:29:55Z</time></trkpt><trkpt lat="43.24227056446284" lon="11.368740373641785"><ele>222.16666666666666</ele><time>2026-04-11T09:29:56Z</time></trkpt><trkpt lat="43.242204626069075" lon="11.368823073917879"><ele>222.33333333333331</ele><time>2026-04-11T09:29:57Z</time></trkpt><trkpt lat="43.24214421299445" lon="11.368902549074361"><ele>222.5</ele><time>2026-04-11T09:29:58Z</time></trkpt><trkpt lat="43.24208429768959" lon="11.368990799946832"><ele>222.66666666666666</ele><time>2026-04-11T09:29:59Z</time></trkpt><trkpt lat="43.24202782581627" lon="11.369067321198251"><ele>222.83333333333331</ele><time>2026-04-11T09:30:00Z</time></trkpt><trkpt lat="43.241974593536106" lon="11.36913567154774"><ele>223.0</ele><time>2026-04-11T09:30:01Z</time></trkpt><trkpt lat="43.24191763277902" lon="11.369205467284097"><ele>222.57142857142856</ele><time>2026-04-11T09:30:02Z</time></trkpt><trkpt lat="43.241862553543776" lon="11.36927755896229"><ele>222.14285714285714</ele><time>2026-04-11T09:30:03Z</time></trkpt><trkpt lat="43.24181103196868" lon="11.369346488177095"><ele>221.71428571428572</ele><time>2026-04-11T09:30:04Z</time></trkpt><trkpt lat="43.241757230517265" lon="11.36941216906079"><ele>221.28571428571428</ele><time>2026-04-11T09:30:05Z</time></trkpt><trkpt lat="43.24170316731386" lon="11.369480755689294"><ele>220.85714285714286</ele><time>2026-04-11T09:30:06Z</time></trkpt><trkpt lat="43.24164770612515" lon="11.369553579078914"><ele>220.42857142857142</ele><time>2026-04-11T09:30:07Z</time></trkpt><trkpt lat="43.24159379698093" lon="11.369614628897876"><ele>220.0</ele><time>2026-04-11T09:30:08Z</time></trkpt><trkpt lat="43.24153529741891" lon="11.369673959145619"><ele>219.49999999999997</ele><time>2026-04-11T09:30:09Z</time></trkpt><trkpt lat="43.2414781091727" lon="11.369741876383902"><ele>219.0</ele><time>2026-04-11T09:30:10Z</time></trkpt><trkpt lat="43.24141748737325" lon="11.369815078993229"><ele>218.5</ele><time>2026-04-11T09:30:11Z</time></trkpt><trkpt lat="43.241355239393805" lon="11.369881682057953"><ele>218.0</ele><time>2026-04-11T09:30:12Z</time></trkpt><trkpt lat="43.241296709525244" lon="11.369940379989716"><ele>217.49999999999997</ele><time>2026-04-11T09:30:13Z</time></trkpt><trkpt lat="43.24123497662818" lon="11.370003011186974"><ele>217.0</ele><time>2026-04-11T09:30:14Z</time></trkpt><trkpt lat="43.24117514769181" lon="11.370062243149178"><ele>216.66666666666666</ele><time>2026-04-11T09:30:15Z</time></trkpt><trkpt lat="43.24111419344652" lon="11.370120514632394"><ele>216.33333333333331</ele><time>2026-04-11T09:30:16Z</time></trkpt><trkpt lat="43.241058787563816" lon="11.370171418468187"><ele>216.0</ele><time>2026-04-11T09:30:17Z</time></trkpt><trkpt lat="43.24099871264207" lon="11.370220053319931"><ele>215.66666666666669</ele><time>2026-04-11T09:30:18Z</time></trkpt><trkpt lat="43.24094261023109" lon="11.370269052310142"><ele>215.33333333333334</ele><time>2026-04-11T09:30:19Z</time></trkpt><trkpt lat="43.24083450731415" lon="11.370355040926373"><ele>215.0</ele><time>2026-04-11T09:30:21Z</time></trkpt><trkpt lat="43.24077840571465" lon="11.370409935945753"><ele>215.00000000000003</ele><time>2026-04-11T09:30:22Z</time></trkpt><trkpt lat="43.24071989524331" lon="11.370456328752221"><ele>215.0</ele><time>2026-04-11T09:30:23Z</time></trkpt><trkpt lat="43.24061763629151" lon="11.370563498770874"><ele>215.0</ele><time>2026-04-11T09:30:25Z</time></trkpt><trkpt lat="43.24056816160786" lon="11.370630357647315"><ele>215.0</ele><time>2026-04-11T09:30:26Z</time></trkpt><trkpt lat="43.240518368372165" lon="11.370693489459248"><ele>215.00000000000003</ele><time>2026-04-11T09:30:27Z</time></trkpt><trkpt lat="43.24046172503793" lon="11.370743805724812"><ele>215.0</ele><time>2026-04-11T09:30:28Z</time></trkpt><trkpt lat="43.2403778797808" lon="11.370713435525545"><ele>215.4</ele><time>2026-04-11T09:30:29Z</time></trkpt><trkpt lat="43.240371962015885" lon="11.370859920272094"><ele>215.8</ele><time>2026-04-11T09:30:30Z</time></trkpt><trkpt lat="43.24033380431157" lon="11.370929631529396"><ele>216.2</ele><time>2026-04-11T09:30:31Z</time></trkpt><trkpt lat="43.24025415023605" lon="11.371062874839605"><ele>216.6</ele><time>2026-04-11T09:30:33Z</time></trkpt><trkpt lat="43.24017578922406" lon="11.371186799204708"><ele>217.0</ele><time>2026-04-11T09:30:35Z</time></trkpt><trkpt lat="43.24013006428261" lon="11.3712847025816"><ele>216.57142857142858</ele><time>2026-04-11T09:30:36Z</time></trkpt><trkpt lat="43.24009130618737" lon="11.371363107340617"><ele>216.14285714285714</ele><time>2026-04-11T09:30:37Z</time></trkpt><trkpt lat="43.240052379671724" lon="11.371440762337414"><ele>215.71428571428572</ele><time>2026-04-11T09:30:38Z</time></trkpt><trkpt lat="43.24000863748916" lon="11.371519026953173"><ele>215.28571428571428</ele><time>2026-04-11T09:30:39Z</time></trkpt><trkpt lat="43.23996316708577" lon="11.371604603716808"><ele>214.85714285714286</ele><time>2026-04-11T09:30:40Z</time></trkpt><trkpt lat="43.23992043954491" lon="11.371691421171878"><ele>214.42857142857144</ele><time>2026-04-11T09:30:41Z</time></trkpt><trkpt lat="43.239883179704655" lon="11.371787905162838"><ele>214.0</ele><time>2026-04-11T09:30:42Z</time></trkpt><trkpt lat="43.23984281287599" lon="11.371880864892198"><ele>213.99999999999997</ele><time>2026-04-11T09:30:43Z</time></trkpt><trkpt lat="43.239803342277284" lon="11.371973440219183"><ele>214.0</ele><time>2026-04-11T09:30:44Z</time></trkpt><trkpt lat="43.23975723137041" lon="11.372062279552088"><ele>214.0</ele><time>2026-04-11T09:30:45Z</time></trkpt><trkpt lat="43.23971916700377" lon="11.372155621209906"><ele>214.0</ele><time>2026-04-11T09:30:46Z</time></trkpt><trkpt lat="43.23968150749241" lon="11.372251510006222"><ele>213.99999999999997</ele><time>2026-04-11T09:30:47Z</time></trkpt><trkpt lat="43.23963881032294" lon="11.372334645033877"><ele>214.0</ele><time>2026-04-11T09:30:48Z</time></trkpt><trkpt lat="43.23959678022501" lon="11.37241761017857"><ele>213.83333333333331</ele><time>2026-04-11T09:30:49Z</time></trkpt><trkpt lat="43.23955118813823" lon="11.372489851658644"><ele>213.66666666666666</ele><time>2026-04-11T09:30:50Z</time></trkpt><trkpt lat="43.239501495189465" lon="11.372557864981788"><ele>213.5</ele><time>2026-04-11T09:30:51Z</time></trkpt><trkpt lat="43.23943745303104" lon="11.372615950525143"><ele>213.33333333333331</ele><time>2026-04-11T09:30:52Z</time></trkpt><trkpt lat="43.23936664718961" lon="11.37265409826644"><ele>213.16666666666666</ele><time>2026-04-11T09:30:53Z</time></trkpt><trkpt lat="43.23929504785199" lon="11.372683946910206"><ele>213.0</ele><time>2026-04-11T09:30:54Z</time></trkpt><trkpt lat="43.239209196348824" lon="11.372677253403538"><ele>213.0</ele><time>2026-04-11T09:30:55Z</time></trkpt><trkpt lat="43.2391216881059" lon="11.372697666696439"><ele>213.0</ele><time>2026-04-11T09:30:56Z</time></trkpt><trkpt lat="43.23904218810586" lon="11.37268290748651"><ele>213.0</ele><time>2026-04-11T09:30:57Z</time></trkpt><trkpt lat="43.23896122948273" lon="11.372677911934375"><ele>213.0</ele><time>2026-04-11T09:30:58Z</time></trkpt><trkpt lat="43.23887711016584" lon="11.372681118961433"><ele>213.0</ele><time>2026-04-11T09:30:59Z</time></trkpt><trkpt lat="43.23879464954908" lon="11.372698638826646"><ele>213.0</ele><time>2026-04-11T09:31:00Z</time></trkpt><trkpt lat="43.238710758554596" lon="11.372726235749496"><ele>213.0</ele><time>2026-04-11T09:31:01Z</time></trkpt><trkpt lat="43.23862980039897" lon="11.372764496423308"><ele>213.0</ele><time>2026-04-11T09:31:02Z</time></trkpt><trkpt lat="43.23855053931844" lon="11.372809751285747"><ele>213.0</ele><time>2026-04-11T09:31:03Z</time></trkpt><trkpt lat="43.23847810819715" lon="11.37286246198581"><ele>213.0</ele><time>2026-04-11T09:31:04Z</time></trkpt><trkpt lat="43.23840774470117" lon="11.372918028121527"><ele>213.0</ele><time>2026-04-11T09:31:05Z</time></trkpt><trkpt lat="43.238339761179795" lon="11.372979711528169"><ele>213.0</ele><time>2026-04-11T09:31:06Z</time></trkpt><trkpt lat="43.238266044690334" lon="11.373036387485822"><ele>211.66666666666666</ele><time>2026-04-11T09:31:07Z</time></trkpt><trkpt lat="43.238223527076194" lon="11.37312550675166"><ele>210.33333333333331</ele><time>2026-04-11T09:31:08Z</time></trkpt><trkpt lat="43.238201460339575" lon="11.373227988520094"><ele>209.0</ele><time>2026-04-11T09:31:09Z</time></trkpt><trkpt lat="43.238195176255495" lon="11.373340295089568"><ele>207.66666666666666</ele><time>2026-04-11T09:31:10Z</time></trkpt><trkpt lat="43.23819944551628" lon="11.373448625375792"><ele>206.33333333333331</ele><time>2026-04-11T09:31:11Z</time></trkpt><trkpt lat="43.2382034040999" lon="11.373546717694635"><ele>205.0</ele><time>2026-04-11T09:31:12Z</time></trkpt><trkpt lat="43.23821175101568" lon="11.373641832999922"><ele>205.0</ele><time>2026-04-11T09:31:13Z</time></trkpt><trkpt lat="43.23821985786986" lon="11.373739216808612"><ele>205.0</ele><time>2026-04-11T09:31:14Z</time></trkpt><trkpt lat="43.23822778248734" lon="11.373834411566968"><ele>205.0</ele><time>2026-04-11T09:31:15Z</time></trkpt><trkpt lat="43.23824910668004" lon="11.373923594691531"><ele>205.0</ele><time>2026-04-11T09:31:16Z</time></trkpt><trkpt lat="43.23824720613684" lon="11.374021174921308"><ele>205.0</ele><time>2026-04-11T09:31:17Z</time></trkpt><trkpt lat="43.23825247178057" lon="11.37411665938603"><ele>205.0</ele><time>2026-04-11T09:31:18Z</time></trkpt><trkpt lat="43.23826512240637" lon="11.37420859040604"><ele>205.0</ele><time>2026-04-11T09:31:19Z</time></trkpt><trkpt lat="43.238270216403365" lon="11.374305566825244"><ele>204.85714285714286</ele><time>2026-04-11T09:31:20Z</time></trkpt><trkpt lat="43.23827574751531" lon="11.3744003816158"><ele>204.7142857142857</ele><time>2026-04-11T09:31:21Z</time></trkpt><trkpt lat="43.23828768025663" lon="11.374495951873238"><ele>204.57142857142856</ele><time>2026-04-11T09:31:22Z</time></trkpt><trkpt lat="43.23829385408564" lon="11.374596092806764"><ele>204.42857142857144</ele><time>2026-04-11T09:31:23Z</time></trkpt><trkpt lat="43.238278148490764" lon="11.374687786008531"><ele>204.28571428571428</ele><time>2026-04-11T09:31:24Z</time></trkpt><trkpt lat="43.23827124283326" lon="11.37481574896143"><ele>204.14285714285714</ele><time>2026-04-11T09:31:26Z</time></trkpt><trkpt lat="43.23825260129926" lon="11.374913432992543"><ele>204.0</ele><time>2026-04-11T09:32:02Z</time></trkpt><trkpt lat="43.238221774843694" lon="11.374998302278614"><ele>204.0</ele><time>2026-04-11T09:32:05Z</time></trkpt><trkpt lat="43.23817587027302" lon="11.375070237338385"><ele>204.0</ele><time>2026-04-11T09:32:07Z</time></trkpt><trkpt lat="43.2380914981903" lon="11.375159733625617"><ele>204.0</ele><time>2026-04-11T09:32:09Z</time></trkpt><trkpt lat="43.23803726932986" lon="11.375207156615355"><ele>204.0</ele><time>2026-04-11T09:32:10Z</time></trkpt><trkpt lat="43.23797611063918" lon="11.37526133429983"><ele>204.0</ele><time>2026-04-11T09:32:11Z</time></trkpt><trkpt lat="43.23792058475611" lon="11.375330643324396"><ele>204.0</ele><time>2026-04-11T09:32:12Z</time></trkpt><trkpt lat="43.23785282012691" lon="11.375383572979207"><ele>204.0</ele><time>2026-04-11T09:32:13Z</time></trkpt><trkpt lat="43.23778603232172" lon="11.375442196842357"><ele>204.0</ele><time>2026-04-11T09:32:14Z</time></trkpt><trkpt lat="43.237715672719304" lon="11.375506823649491"><ele>204.0</ele><time>2026-04-11T09:32:15Z</time></trkpt><trkpt lat="43.23764252512033" lon="11.375584448651885"><ele>204.0</ele><time>2026-04-11T09:32:16Z</time></trkpt><trkpt lat="43.237576568876264" lon="11.375662269580706"><ele>204.0</ele><time>2026-04-11T09:32:17Z</time></trkpt><trkpt lat="43.23750770084732" lon="11.375733480103232"><ele>204.0</ele><time>2026-04-11T09:32:18Z</time></trkpt><trkpt lat="43.237439694171165" lon="11.375808560235113"><ele>203.16666666666666</ele><time>2026-04-11T09:32:19Z</time></trkpt><trkpt lat="43.23737223672673" lon="11.375882657866715"><ele>202.33333333333331</ele><time>2026-04-11T09:32:20Z</time></trkpt><trkpt lat="43.23730320395017" lon="11.375961204967634"><ele>201.5</ele><time>2026-04-11T09:32:21Z</time></trkpt><trkpt lat="43.23723591098038" lon="11.376038631822844"><ele>200.66666666666666</ele><time>2026-04-11T09:32:22Z</time></trkpt><trkpt lat="43.23717014139635" lon="11.3761133729662"><ele>199.83333333333331</ele><time>2026-04-11T09:32:23Z</time></trkpt><trkpt lat="43.23709931916941" lon="11.376186191946202"><ele>199.0</ele><time>2026-04-11T09:32:24Z</time></trkpt><trkpt lat="43.237033397723735" lon="11.376253571389725"><ele>198.49999999999997</ele><time>2026-04-11T09:32:25Z</time></trkpt><trkpt lat="43.23695784514603" lon="11.376306816561476"><ele>198.0</ele><time>2026-04-11T09:32:26Z</time></trkpt><trkpt lat="43.23687087068038" lon="11.376345188624626"><ele>197.5</ele><time>2026-04-11T09:32:27Z</time></trkpt><trkpt lat="43.23678335210219" lon="11.376358976129517"><ele>197.0</ele><time>2026-04-11T09:32:28Z</time></trkpt><trkpt lat="43.23669700767803" lon="11.37635956518198"><ele>196.49999999999997</ele><time>2026-04-11T09:32:29Z</time></trkpt><trkpt lat="43.23661489267758" lon="11.376348051306202"><ele>196.0</ele><time>2026-04-11T09:32:30Z</time></trkpt><trkpt lat="43.23653559278837" lon="11.376314510579522"><ele>194.33333333333331</ele><time>2026-04-11T09:32:31Z</time></trkpt><trkpt lat="43.23645701626934" lon="11.37627735782871"><ele>192.66666666666666</ele><time>2026-04-11T09:32:32Z</time></trkpt><trkpt lat="43.236386774822904" lon="11.376215963661858"><ele>191.0</ele><time>2026-04-11T09:32:33Z</time></trkpt><trkpt lat="43.23632578252551" lon="11.376133911645718"><ele>189.33333333333331</ele><time>2026-04-11T09:32:34Z</time></trkpt><trkpt lat="43.23627535528263" lon="11.376041970362154"><ele>187.66666666666666</ele><time>2026-04-11T09:32:35Z</time></trkpt><trkpt lat="43.236236099494455" lon="11.375940410947734"><ele>186.0</ele><time>2026-04-11T09:32:36Z</time></trkpt><trkpt lat="43.236209733185426" lon="11.375825538065849"><ele>186.0</ele><time>2026-04-11T09:32:37Z</time></trkpt><trkpt lat="43.2361951785261" lon="11.375702277092618"><ele>186.0</ele><time>2026-04-11T09:32:38Z</time></trkpt><trkpt lat="43.2361873314715" lon="11.375570460092774"><ele>186.0</ele><time>2026-04-11T09:32:39Z</time></trkpt><trkpt lat="43.236189360621225" lon="11.375444554117273"><ele>186.0</ele><time>2026-04-11T09:32:40Z</time></trkpt><trkpt lat="43.23620398669963" lon="11.375322192912103"><ele>186.0</ele><time>2026-04-11T09:32:41Z</time></trkpt><trkpt lat="43.23625028556844" lon="11.37522573076921"><ele>185.33333333333334</ele><time>2026-04-11T09:32:42Z</time></trkpt><trkpt lat="43.2362925394366" lon="11.375121392532254"><ele>184.66666666666666</ele><time>2026-04-11T09:32:43Z</time></trkpt><trkpt lat="43.236324583558165" lon="11.375015700018517"><ele>184.0</ele><time>2026-04-11T09:32:44Z</time></trkpt><trkpt lat="43.236375731417255" lon="11.37492035902711"><ele>183.33333333333331</ele><time>2026-04-11T09:32:45Z</time></trkpt><trkpt lat="43.23642865803408" lon="11.374810953475745"><ele>182.66666666666666</ele><time>2026-04-11T09:32:46Z</time></trkpt><trkpt lat="43.23647028432388" lon="11.37469061116958"><ele>182.0</ele><time>2026-04-11T09:32:47Z</time></trkpt><trkpt lat="43.23649619266702" lon="11.374566362995798"><ele>183.8</ele><time>2026-04-11T09:32:48Z</time></trkpt><trkpt lat="43.236520389041054" lon="11.37443825873388"><ele>185.6</ele><time>2026-04-11T09:32:49Z</time></trkpt><trkpt lat="43.236558525167666" lon="11.374312063844407"><ele>187.4</ele><time>2026-04-11T09:32:50Z</time></trkpt><trkpt lat="43.23656228907782" lon="11.374183408170554"><ele>189.20000000000002</ele><time>2026-04-11T09:32:51Z</time></trkpt><trkpt lat="43.23657211261398" lon="11.374056753885863"><ele>191.0</ele><time>2026-04-11T09:32:52Z</time></trkpt><trkpt lat="43.236573083042984" lon="11.373938043106055"><ele>190.20000000000002</ele><time>2026-04-11T09:32:53Z</time></trkpt><trkpt lat="43.2365760059304" lon="11.373813934856477"><ele>189.4</ele><time>2026-04-11T09:32:54Z</time></trkpt><trkpt lat="43.236544625847536" lon="11.373693372801524"><ele>188.6</ele><time>2026-04-11T09:32:55Z</time></trkpt><trkpt lat="43.2364993990938" lon="11.373586063506842"><ele>187.8</ele><time>2026-04-11T09:32:56Z</time></trkpt><trkpt lat="43.23643291219871" lon="11.373494902809773"><ele>187.0</ele><time>2026-04-11T09:32:57Z</time></trkpt><trkpt lat="43.236356858615274" lon="11.373427970745931"><ele>186.0</ele><time>2026-04-11T09:32:58Z</time></trkpt><trkpt lat="43.236263926288345" lon="11.373408063441367"><ele>185.0</ele><time>2026-04-11T09:32:59Z</time></trkpt><trkpt lat="43.23617099049013" lon="11.373376547326632"><ele>184.0</ele><time>2026-04-11T09:33:00Z</time></trkpt><trkpt lat="43.236078386272055" lon="11.373375162308054"><ele>183.0</ele><time>2026-04-11T09:33:01Z</time></trkpt><trkpt lat="43.235984834619885" lon="11.37337981142104"><ele>182.0</ele><time>2026-04-11T09:33:02Z</time></trkpt><trkpt lat="43.23589030717702" lon="11.373390059837382"><ele>182.0</ele><time>2026-04-11T09:33:03Z</time></trkpt><trkpt lat="43.235793448724294" lon="11.373400861878233"><ele>182.0</ele><time>2026-04-11T09:33:04Z</time></trkpt><trkpt lat="43.23569667174643" lon="11.373412193768424"><ele>182.0</ele><time>2026-04-11T09:33:05Z</time></trkpt><trkpt lat="43.235601278135334" lon="11.373445324434543"><ele>182.0</ele><time>2026-04-11T09:33:06Z</time></trkpt><trkpt lat="43.23550056796745" lon="11.373453992470658"><ele>182.0</ele><time>2026-04-11T09:33:07Z</time></trkpt><trkpt lat="43.235402163824396" lon="11.373467409887832"><ele>181.0</ele><time>2026-04-11T09:33:08Z</time></trkpt><trkpt lat="43.23529900222888" lon="11.373472485119708"><ele>180.0</ele><time>2026-04-11T09:33:09Z</time></trkpt><trkpt lat="43.23519588159165" lon="11.37348316168683"><ele>179.0</ele><time>2026-04-11T09:33:10Z</time></trkpt><trkpt lat="43.23509224407883" lon="11.37349096148458"><ele>178.0</ele><time>2026-04-11T09:33:11Z</time></trkpt><trkpt lat="43.23499737634421" lon="11.373498842533865"><ele>177.0</ele><time>2026-04-11T09:33:12Z</time></trkpt><trkpt lat="43.23489535234389" lon="11.373507385996522"><ele>177.2</ele><time>2026-04-11T09:33:13Z</time></trkpt><trkpt lat="43.23479871973467" lon="11.373517565180979"><ele>177.39999999999998</ele><time>2026-04-11T09:33:14Z</time></trkpt><trkpt lat="43.23470036768379" lon="11.373523225219934"><ele>177.60000000000002</ele><time>2026-04-11T09:33:15Z</time></trkpt><trkpt lat="43.234604531903265" lon="11.373534013616553"><ele>177.8</ele><time>2026-04-11T09:33:16Z</time></trkpt><trkpt lat="43.2345076045957" lon="11.373541168661468"><ele>178.0</ele><time>2026-04-11T09:33:17Z</time></trkpt><trkpt lat="43.234412288240584" lon="11.373535605592265"><ele>178.0</ele><time>2026-04-11T09:33:18Z</time></trkpt><trkpt lat="43.23432493202938" lon="11.373562584439073"><ele>178.0</ele><time>2026-04-11T09:33:19Z</time></trkpt><trkpt lat="43.23423758056536" lon="11.373562163626245"><ele>178.0</ele><time>2026-04-11T09:33:20Z</time></trkpt><trkpt lat="43.23415615804408" lon="11.373566919580856"><ele>178.0</ele><time>2026-04-11T09:33:21Z</time></trkpt><trkpt lat="43.23407856491264" lon="11.373577009544443"><ele>178.0</ele><time>2026-04-11T09:33:22Z</time></trkpt><trkpt lat="43.23399626289808" lon="11.373584265352104"><ele>178.0</ele><time>2026-04-11T09:33:23Z</time></trkpt><trkpt lat="43.233914796658404" lon="11.373588027172588"><ele>178.14285714285714</ele><time>2026-04-11T09:33:24Z</time></trkpt><trkpt lat="43.23383924397017" lon="11.373598157135428"><ele>178.28571428571428</ele><time>2026-04-11T09:33:25Z</time></trkpt><trkpt lat="43.23376565362014" lon="11.373621019320941"><ele>178.42857142857144</ele><time>2026-04-11T09:33:26Z</time></trkpt><trkpt lat="43.23369518501139" lon="11.373648800669526"><ele>178.57142857142856</ele><time>2026-04-11T09:33:27Z</time></trkpt><trkpt lat="43.233627289930624" lon="11.373674877476759"><ele>178.71428571428572</ele><time>2026-04-11T09:33:28Z</time></trkpt><trkpt lat="43.2335593644003" lon="11.373708609911143"><ele>178.85714285714286</ele><time>2026-04-11T09:33:29Z</time></trkpt><trkpt lat="43.23348936474287" lon="11.373760678813232"><ele>179.0</ele><time>2026-04-11T09:33:30Z</time></trkpt><trkpt lat="43.2334255193922" lon="11.373816414349518"><ele>179.00000000000003</ele><time>2026-04-11T09:33:31Z</time></trkpt><trkpt lat="43.23336427545512" lon="11.373862694617866"><ele>179.0</ele><time>2026-04-11T09:33:32Z</time></trkpt><trkpt lat="43.23329784543611" lon="11.373906316606385"><ele>179.0</ele><time>2026-04-11T09:33:33Z</time></trkpt><trkpt lat="43.23323326525201" lon="11.373952279951247"><ele>179.0</ele><time>2026-04-11T09:33:34Z</time></trkpt><trkpt lat="43.23316977005193" lon="11.374004400188902"><ele>179.0</ele><time>2026-04-11T09:33:35Z</time></trkpt><trkpt lat="43.23310037656991" lon="11.374047501774704"><ele>179.00000000000003</ele><time>2026-04-11T09:33:36Z</time></trkpt><trkpt lat="43.2330328807441" lon="11.37409379061523"><ele>179.0</ele><time>2026-04-11T09:33:37Z</time></trkpt><trkpt lat="43.23297036608184" lon="11.374144028924855"><ele>179.00000000000003</ele><time>2026-04-11T09:33:38Z</time></trkpt><trkpt lat="43.23291335095995" lon="11.37418296960147"><ele>179.0</ele><time>2026-04-11T09:33:39Z</time></trkpt><trkpt lat="43.23284391689954" lon="11.374213492472897"><ele>179.0</ele><time>2026-04-11T09:33:40Z</time></trkpt><trkpt lat="43.232781749108355" lon="11.37426321755992"><ele>179.0</ele><time>2026-04-11T09:33:41Z</time></trkpt><trkpt lat="43.23272028905019" lon="11.374308998713277"><ele>179.0</ele><time>2026-04-11T09:33:42Z</time></trkpt><trkpt lat="43.232657021845256" lon="11.374357566623068"><ele>179.00000000000003</ele><time>2026-04-11T09:33:43Z</time></trkpt><trkpt lat="43.23259045506851" lon="11.374399595979838"><ele>179.0</ele><time>2026-04-11T09:33:44Z</time></trkpt><trkpt lat="43.232524874355285" lon="11.37443985625847"><ele>179.00000000000003</ele><time>2026-04-11T09:33:45Z</time></trkpt><trkpt lat="43.23246043924651" lon="11.374484702492975"><ele>179.0</ele><time>2026-04-11T09:33:46Z</time></trkpt><trkpt lat="43.23239475897753" lon="11.374531427521616"><ele>179.0</ele><time>2026-04-11T09:33:47Z</time></trkpt><trkpt lat="43.23233028527385" lon="11.374577141878255"><ele>179.0</ele><time>2026-04-11T09:33:48Z</time></trkpt><trkpt lat="43.23226526403675" lon="11.37462371460659"><ele>179.0</ele><time>2026-04-11T09:33:49Z</time></trkpt><trkpt lat="43.232203481396" lon="11.374667707240313"><ele>179.00000000000003</ele><time>2026-04-11T09:33:50Z</time></trkpt><trkpt lat="43.232141773123104" lon="11.374706625778659"><ele>179.0</ele><time>2026-04-11T09:33:51Z</time></trkpt><trkpt lat="43.23207669723696" lon="11.374760085400593"><ele>179.00000000000003</ele><time>2026-04-11T09:33:52Z</time></trkpt><trkpt lat="43.23201270973975" lon="11.37480161626815"><ele>179.0</ele><time>2026-04-11T09:33:53Z</time></trkpt><trkpt lat="43.23195158753387" lon="11.37484703780491"><ele>179.0</ele><time>2026-04-11T09:33:54Z</time></trkpt><trkpt lat="43.23189296814728" lon="11.37488936848825"><ele>179.0</ele><time>2026-04-11T09:33:55Z</time></trkpt><trkpt lat="43.2318331315746" lon="11.374933191672497"><ele>179.0</ele><time>2026-04-11T09:33:56Z</time></trkpt><trkpt lat="43.23177122547996" lon="11.374978716610231"><ele>179.00000000000003</ele><time>2026-04-11T09:33:57Z</time></trkpt><trkpt lat="43.231708580498264" lon="11.375025473941761"><ele>179.0</ele><time>2026-04-11T09:33:58Z</time></trkpt><trkpt lat="43.23164683742316" lon="11.375067736018217"><ele>179.00000000000003</ele><time>2026-04-11T09:33:59Z</time></trkpt><trkpt lat="43.231586052132826" lon="11.375110570636647"><ele>179.0</ele><time>2026-04-11T09:34:00Z</time></trkpt><trkpt lat="43.23152787814221" lon="11.375150218640462"><ele>179.0</ele><time>2026-04-11T09:34:01Z</time></trkpt><trkpt lat="43.231466511311915" lon="11.375196967922822"><ele>179.0</ele><time>2026-04-11T09:34:02Z</time></trkpt><trkpt lat="43.23140072684174" lon="11.375254500845273"><ele>179.0</ele><time>2026-04-11T09:34:03Z</time></trkpt><trkpt lat="43.23133159050237" lon="11.375290004707031"><ele>179.00000000000003</ele><time>2026-04-11T09:34:04Z</time></trkpt><trkpt lat="43.23127031390941" lon="11.3753362197849"><ele>179.0</ele><time>2026-04-11T09:34:05Z</time></trkpt><trkpt lat="43.23120028235939" lon="11.375384783384183"><ele>179.00000000000003</ele><time>2026-04-11T09:34:06Z</time></trkpt><trkpt lat="43.23113455480723" lon="11.375434758876308"><ele>179.0</ele><time>2026-04-11T09:34:07Z</time></trkpt><trkpt lat="43.23106938947437" lon="11.37548252399281"><ele>179.0</ele><time>2026-04-11T09:34:08Z</time></trkpt><trkpt lat="43.23100610177397" lon="11.375528123240604"><ele>179.0</ele><time>2026-04-11T09:34:09Z</time></trkpt><trkpt lat="43.23094025309909" lon="11.375579195519519"><ele>179.0</ele><time>2026-04-11T09:34:10Z</time></trkpt><trkpt lat="43.23087773282" lon="11.375622060790796"><ele>179.00000000000003</ele><time>2026-04-11T09:34:11Z</time></trkpt><trkpt lat="43.23082024356072" lon="11.375665632231403"><ele>179.0</ele><time>2026-04-11T09:34:12Z</time></trkpt><trkpt lat="43.23075397850659" lon="11.375711146332801"><ele>179.0</ele><time>2026-04-11T09:34:13Z</time></trkpt><trkpt lat="43.23066033737853" lon="11.375760929437547"><ele>179.0</ele><time>2026-04-11T09:34:15Z</time></trkpt><trkpt lat="43.230555799127245" lon="11.375834410282547"><ele>179.0</ele><time>2026-04-11T09:34:17Z</time></trkpt><trkpt lat="43.230455150462475" lon="11.375909533760622"><ele>179.0</ele><time>2026-04-11T09:34:19Z</time></trkpt><trkpt lat="43.23035010897394" lon="11.375987337595847"><ele>180.25</ele><time>2026-04-11T09:34:21Z</time></trkpt><trkpt lat="43.23024386406435" lon="11.376062367487405"><ele>181.5</ele><time>2026-04-11T09:34:23Z</time></trkpt><trkpt lat="43.230146939157024" lon="11.376130071441656"><ele>182.75</ele><time>2026-04-11T09:34:25Z</time></trkpt><trkpt lat="43.23005155159128" lon="11.376210562874995"><ele>184.0</ele><time>2026-04-11T09:34:27Z</time></trkpt><trkpt lat="43.22994709663292" lon="11.37628173352079"><ele>184.0</ele><time>2026-04-11T09:34:29Z</time></trkpt><trkpt lat="43.22989028812846" lon="11.376322388652856"><ele>184.0</ele><time>2026-04-11T09:34:30Z</time></trkpt><trkpt lat="43.22978873919005" lon="11.376407435725193"><ele>184.0</ele><time>2026-04-11T09:34:32Z</time></trkpt><trkpt lat="43.22968523398067" lon="11.376497433253217"><ele>184.0</ele><time>2026-04-11T09:34:34Z</time></trkpt><trkpt lat="43.22958399174957" lon="11.376582611172223"><ele>184.0</ele><time>2026-04-11T09:34:36Z</time></trkpt><trkpt lat="43.22948968179748" lon="11.376666319032001"><ele>184.39999999999998</ele><time>2026-04-11T09:34:38Z</time></trkpt><trkpt lat="43.22939041115209" lon="11.376751710527152"><ele>184.8</ele><time>2026-04-11T09:34:40Z</time></trkpt><trkpt lat="43.229291321429955" lon="11.376837437662607"><ele>185.2</ele><time>2026-04-11T09:34:42Z</time></trkpt><trkpt lat="43.22918825620558" lon="11.37690950309346"><ele>185.60000000000002</ele><time>2026-04-11T09:34:44Z</time></trkpt><trkpt lat="43.22912542473826" lon="11.376955785831685"><ele>186.0</ele><time>2026-04-11T09:34:45Z</time></trkpt><trkpt lat="43.22907106449055" lon="11.377000754243126"><ele>186.0</ele><time>2026-04-11T09:34:46Z</time></trkpt><trkpt lat="43.22901028817559" lon="11.377034744126643"><ele>186.0</ele><time>2026-04-11T09:34:47Z</time></trkpt><trkpt lat="43.22889646096965" lon="11.377105026216984"><ele>186.0</ele><time>2026-04-11T09:34:49Z</time></trkpt><trkpt lat="43.22883294256077" lon="11.377137614259635"><ele>186.0</ele><time>2026-04-11T09:34:50Z</time></trkpt><trkpt lat="43.22877236997541" lon="11.377169392900642"><ele>186.0</ele><time>2026-04-11T09:34:51Z</time></trkpt><trkpt lat="43.228708353415705" lon="11.377178685653005"><ele>186.0</ele><time>2026-04-11T09:34:52Z</time></trkpt><trkpt lat="43.22859251972395" lon="11.377210356311354"><ele>184.0</ele><time>2026-04-11T09:34:54Z</time></trkpt><trkpt lat="43.22847670958484" lon="11.377230729163609"><ele>182.0</ele><time>2026-04-11T09:34:56Z</time></trkpt><trkpt lat="43.22836227517694" lon="11.377251705530457"><ele>180.0</ele><time>2026-04-11T09:34:58Z</time></trkpt><trkpt lat="43.22824310465814" lon="11.377256810077684"><ele>178.0</ele><time>2026-04-11T09:35:00Z</time></trkpt><trkpt lat="43.22813237053578" lon="11.377274087844167"><ele>178.0</ele><time>2026-04-11T09:35:02Z</time></trkpt><trkpt lat="43.2280218651742" lon="11.37729556887757"><ele>178.0</ele><time>2026-04-11T09:35:04Z</time></trkpt><trkpt lat="43.227938069500674" lon="11.377280496916377"><ele>178.0</ele><time>2026-04-11T09:35:06Z</time></trkpt><trkpt lat="43.22783814429745" lon="11.377286973053911"><ele>178.0</ele><time>2026-04-11T09:35:08Z</time></trkpt><trkpt lat="43.22774202565142" lon="11.377305894177825"><ele>178.0</ele><time>2026-04-11T09:35:10Z</time></trkpt><trkpt lat="43.22764919857702" lon="11.377300921671619"><ele>178.0</ele><time>2026-04-11T09:35:12Z</time></trkpt><trkpt lat="43.227536130873" lon="11.37730241395115"><ele>178.0</ele><time>2026-04-11T09:35:14Z</time></trkpt><trkpt lat="43.22741383172762" lon="11.377297587008353"><ele>178.0</ele><time>2026-04-11T09:35:16Z</time></trkpt><trkpt lat="43.22729737462042" lon="11.377270483017089"><ele>178.0</ele><time>2026-04-11T09:35:18Z</time></trkpt><trkpt lat="43.22718060463661" lon="11.377233271837635"><ele>178.60000000000002</ele><time>2026-04-11T09:35:20Z</time></trkpt><trkpt lat="43.2270734856829" lon="11.377170849517485"><ele>179.20000000000002</ele><time>2026-04-11T09:35:22Z</time></trkpt><trkpt lat="43.22697090117857" lon="11.377102767620741"><ele>179.8</ele><time>2026-04-11T09:35:24Z</time></trkpt><trkpt lat="43.22691094519992" lon="11.377066584767608"><ele>180.4</ele><time>2026-04-11T09:35:25Z</time></trkpt><trkpt lat="43.22680526486274" lon="11.376993763113788"><ele>181.0</ele><time>2026-04-11T09:35:27Z</time></trkpt><trkpt lat="43.22671977758261" lon="11.376913449067436"><ele>181.0</ele><time>2026-04-11T09:35:29Z</time></trkpt><trkpt lat="43.2266301861301" lon="11.37681247873723"><ele>181.0</ele><time>2026-04-11T09:35:31Z</time></trkpt><trkpt lat="43.22653592536483" lon="11.376711656303112"><ele>181.0</ele><time>2026-04-11T09:35:33Z</time></trkpt><trkpt lat="43.22648267263767" lon="11.37664655206383"><ele>181.0</ele><time>2026-04-11T09:35:34Z</time></trkpt><trkpt lat="43.226393905691125" lon="11.376541239688743"><ele>181.0</ele><time>2026-04-11T09:35:36Z</time></trkpt><trkpt lat="43.22631238097688" lon="11.376412437876143"><ele>180.60000000000002</ele><time>2026-04-11T09:35:38Z</time></trkpt><trkpt lat="43.226240203453706" lon="11.376269678879874"><ele>180.2</ele><time>2026-04-11T09:35:40Z</time></trkpt><trkpt lat="43.226193904351746" lon="11.376131714960959"><ele>179.8</ele><time>2026-04-11T09:35:42Z</time></trkpt><trkpt lat="43.22616389250017" lon="11.376054105752836"><ele>179.39999999999998</ele><time>2026-04-11T09:35:43Z</time></trkpt><trkpt lat="43.2261111998421" lon="11.375891210248609"><ele>179.0</ele><time>2026-04-11T09:35:45Z</time></trkpt><trkpt lat="43.22608858432317" lon="11.375806730646039"><ele>179.00000000000003</ele><time>2026-04-11T09:35:46Z</time></trkpt><trkpt lat="43.22606491105891" lon="11.375720780776922"><ele>179.0</ele><time>2026-04-11T09:35:47Z</time></trkpt><trkpt lat="43.226042993737146" lon="11.375636377353018"><ele>179.0</ele><time>2026-04-11T09:35:48Z</time></trkpt><trkpt lat="43.22601730883369" lon="11.375474491169665"><ele>179.0</ele><time>2026-04-11T09:35:50Z</time></trkpt><trkpt lat="43.226014413505055" lon="11.375386853888072"><ele>179.0</ele><time>2026-04-11T09:35:51Z</time></trkpt><trkpt lat="43.22602955515482" lon="11.375299367272884"><ele>179.00000000000003</ele><time>2026-04-11T09:35:52Z</time></trkpt><trkpt lat="43.22601915481115" lon="11.37520995455193"><ele>179.0</ele><time>2026-04-11T09:35:53Z</time></trkpt><trkpt lat="43.226034666996036" lon="11.375120802126593"><ele>178.83333333333331</ele><time>2026-04-11T09:35:54Z</time></trkpt><trkpt lat="43.22603759833672" lon="11.375029509952984"><ele>178.66666666666666</ele><time>2026-04-11T09:35:55Z</time></trkpt><trkpt lat="43.22604919653681" lon="11.374942401616837"><ele>178.5</ele><time>2026-04-11T09:35:56Z</time></trkpt><trkpt lat="43.22606108617869" lon="11.374855405777305"><ele>178.33333333333334</ele><time>2026-04-11T09:35:57Z</time></trkpt><trkpt lat="43.226072253497044" lon="11.374686397798424"><ele>178.16666666666669</ele><time>2026-04-11T09:35:59Z</time></trkpt><trkpt lat="43.22609786467316" lon="11.374513139928444"><ele>178.0</ele><time>2026-04-11T09:36:01Z</time></trkpt><trkpt lat="43.22610817059548" lon="11.374421054399622"><ele>178.0</ele><time>2026-04-11T09:36:02Z</time></trkpt><trkpt lat="43.22612810902313" lon="11.374251758430532"><ele>178.0</ele><time>2026-04-11T09:36:04Z</time></trkpt><trkpt lat="43.22613405235805" lon="11.374162086875085"><ele>178.0</ele><time>2026-04-11T09:36:05Z</time></trkpt><trkpt lat="43.22614190171738" lon="11.373993834126825"><ele>178.0</ele><time>2026-04-11T09:36:07Z</time></trkpt><trkpt lat="43.22613616483637" lon="11.373905002816187"><ele>178.0</ele><time>2026-04-11T09:36:08Z</time></trkpt><trkpt lat="43.22613609536959" lon="11.373817910007187"><ele>178.0</ele><time>2026-04-11T09:36:09Z</time></trkpt><trkpt lat="43.22611714857544" lon="11.373647689281137"><ele>178.0</ele><time>2026-04-11T09:36:11Z</time></trkpt><trkpt lat="43.22610234143524" lon="11.373561306532094"><ele>178.0</ele><time>2026-04-11T09:36:12Z</time></trkpt><trkpt lat="43.226061640642975" lon="11.373408288661006"><ele>178.0</ele><time>2026-04-11T09:36:14Z</time></trkpt><trkpt lat="43.22602366453373" lon="11.373276573414604"><ele>178.0</ele><time>2026-04-11T09:36:16Z</time></trkpt><trkpt lat="43.22598601942321" lon="11.373138856159144"><ele>178.0</ele><time>2026-04-11T09:36:18Z</time></trkpt><trkpt lat="43.22593876437138" lon="11.372989634081877"><ele>178.66666666666669</ele><time>2026-04-11T09:36:20Z</time></trkpt><trkpt lat="43.22588890535478" lon="11.372834055667319"><ele>179.33333333333334</ele><time>2026-04-11T09:36:22Z</time></trkpt><trkpt lat="43.22586052602087" lon="11.372749832478503"><ele>180.0</ele><time>2026-04-11T09:36:23Z</time></trkpt><trkpt lat="43.225837893336696" lon="11.372668386080875"><ele>180.66666666666666</ele><time>2026-04-11T09:36:24Z</time></trkpt><trkpt lat="43.22578961862814" lon="11.372508821450959"><ele>181.33333333333331</ele><time>2026-04-11T09:36:26Z</time></trkpt><trkpt lat="43.225763796114975" lon="11.372427556843629"><ele>182.0</ele><time>2026-04-11T09:36:27Z</time></trkpt><trkpt lat="43.22572845147824" lon="11.37234272318134"><ele>182.0</ele><time>2026-04-11T09:36:28Z</time></trkpt><trkpt lat="43.22568391206587" lon="11.372263000833906"><ele>182.0</ele><time>2026-04-11T09:36:29Z</time></trkpt><trkpt lat="43.22557987053528" lon="11.372148207327298"><ele>182.0</ele><time>2026-04-11T09:36:31Z</time></trkpt><trkpt lat="43.225502426740114" lon="11.372141988786845"><ele>182.0</ele><time>2026-04-11T09:36:32Z</time></trkpt><trkpt lat="43.22543379774391" lon="11.372180293049878"><ele>182.0</ele><time>2026-04-11T09:36:33Z</time></trkpt><trkpt lat="43.225372510976506" lon="11.372220745176413"><ele>182.0</ele><time>2026-04-11T09:36:34Z</time></trkpt><trkpt lat="43.22532624415426" lon="11.372299604334259"><ele>181.66666666666666</ele><time>2026-04-11T09:36:35Z</time></trkpt><trkpt lat="43.22528323952052" lon="11.372370409324903"><ele>181.33333333333331</ele><time>2026-04-11T09:36:36Z</time></trkpt><trkpt lat="43.2252494678867" lon="11.372450335322258"><ele>181.0</ele><time>2026-04-11T09:36:37Z</time></trkpt><trkpt lat="43.22518555219289" lon="11.372577913616638"><ele>180.66666666666666</ele><time>2026-04-11T09:36:39Z</time></trkpt><trkpt lat="43.22516864387591" lon="11.372673358743388"><ele>180.33333333333334</ele><time>2026-04-11T09:36:40Z</time></trkpt><trkpt lat="43.2251293079927" lon="11.37274819386718"><ele>180.0</ele><time>2026-04-11T09:36:41Z</time></trkpt><trkpt lat="43.225085428104315" lon="11.372864705837035"><ele>180.0</ele><time>2026-04-11T09:36:43Z</time></trkpt><trkpt lat="43.22503946922894" lon="11.372970114049414"><ele>180.0</ele><time>2026-04-11T09:36:45Z</time></trkpt><trkpt lat="43.22499974578916" lon="11.373054594765144"><ele>180.0</ele><time>2026-04-11T09:36:47Z</time></trkpt><trkpt lat="43.22495641360547" lon="11.373140596501981"><ele>180.0</ele><time>2026-04-11T09:36:49Z</time></trkpt><trkpt lat="43.22491736678374" lon="11.373227953983163"><ele>180.0</ele><time>2026-04-11T09:36:52Z</time></trkpt><trkpt lat="43.224861827535165" lon="11.37330253362238"><ele>180.0</ele><time>2026-04-11T09:36:54Z</time></trkpt><trkpt lat="43.22480908454781" lon="11.37335068118184"><ele>181.33333333333334</ele><time>2026-04-11T09:36:56Z</time></trkpt><trkpt lat="43.22472872666385" lon="11.373398263495918"><ele>182.66666666666666</ele><time>2026-04-11T09:36:59Z</time></trkpt><trkpt lat="43.22465746620382" lon="11.373462148963789"><ele>184.0</ele><time>2026-04-11T09:37:02Z</time></trkpt><trkpt lat="43.2245776139553" lon="11.373502249782353"><ele>185.33333333333331</ele><time>2026-04-11T09:37:05Z</time></trkpt><trkpt lat="43.22449884202726" lon="11.373522244204487"><ele>186.66666666666666</ele><time>2026-04-11T09:37:08Z</time></trkpt><trkpt lat="43.224427710205276" lon="11.373536175383343"><ele>188.0</ele><time>2026-04-11T09:37:11Z</time></trkpt><trkpt lat="43.22436232325783" lon="11.373535790443945"><ele>188.0</ele><time>2026-04-11T09:37:14Z</time></trkpt><trkpt lat="43.22428573133674" lon="11.373527607854037"><ele>188.0</ele><time>2026-04-11T09:37:17Z</time></trkpt><trkpt lat="43.22420595823182" lon="11.373508992345974"><ele>188.0</ele><time>2026-04-11T09:37:20Z</time></trkpt><trkpt lat="43.22413147205387" lon="11.373476802771107"><ele>188.0</ele><time>2026-04-11T09:37:23Z</time></trkpt><trkpt lat="43.22405175783324" lon="11.37343199149704"><ele>188.0</ele><time>2026-04-11T09:37:27Z</time></trkpt><trkpt lat="43.22398604910678" lon="11.37339869232073"><ele>188.0</ele><time>2026-04-11T09:37:30Z</time></trkpt><trkpt lat="43.22393295255491" lon="11.37333574068325"><ele>190.57142857142856</ele><time>2026-04-11T09:37:33Z</time></trkpt><trkpt lat="43.223866602046215" lon="11.373299966065911"><ele>193.14285714285714</ele><time>2026-04-11T09:37:36Z</time></trkpt><trkpt lat="43.223805848671624" lon="11.373264635006302"><ele>195.71428571428572</ele><time>2026-04-11T09:37:39Z</time></trkpt><trkpt lat="43.22375864750335" lon="11.373188534872046"><ele>198.28571428571428</ele><time>2026-04-11T09:37:42Z</time></trkpt><trkpt lat="43.22370620628051" lon="11.373099010340415"><ele>200.85714285714286</ele><time>2026-04-11T09:37:46Z</time></trkpt><trkpt lat="43.22367661849824" lon="11.373017234636091"><ele>203.42857142857142</ele><time>2026-04-11T09:37:50Z</time></trkpt><trkpt lat="43.22364467279178" lon="11.372942069720876"><ele>206.0</ele><time>2026-04-11T09:37:55Z</time></trkpt><trkpt lat="43.22362008960284" lon="11.372861474127836"><ele>205.99999999999997</ele><time>2026-04-11T09:37:58Z</time></trkpt><trkpt lat="43.22359815484587" lon="11.372774203083884"><ele>206.0</ele><time>2026-04-11T09:38:02Z</time></trkpt><trkpt lat="43.22360025689253" lon="11.372685261123252"><ele>206.0</ele><time>2026-04-11T09:38:05Z</time></trkpt><trkpt lat="43.2235895120688" lon="11.372577711561204"><ele>206.0</ele><time>2026-04-11T09:38:10Z</time></trkpt><trkpt lat="43.22359811249838" lon="11.372474657537769"><ele>206.0</ele><time>2026-04-11T09:38:14Z</time></trkpt><trkpt lat="43.22360360729581" lon="11.372380837361076"><ele>205.99999999999997</ele><time>2026-04-11T09:38:18Z</time></trkpt><trkpt lat="43.22362577885545" lon="11.372294340093724"><ele>206.0</ele><time>2026-04-11T09:38:22Z</time></trkpt><trkpt lat="43.223635260667855" lon="11.372183297956962"><ele>206.00000000000003</ele><time>2026-04-11T09:38:26Z</time></trkpt><trkpt lat="43.22364224675202" lon="11.372070432553533"><ele>206.0</ele><time>2026-04-11T09:38:30Z</time></trkpt><trkpt lat="43.22364677649536" lon="11.371957472201565"><ele>206.0</ele><time>2026-04-11T09:38:34Z</time></trkpt><trkpt lat="43.223653104321286" lon="11.371852458504982"><ele>206.0</ele><time>2026-04-11T09:38:37Z</time></trkpt><trkpt lat="43.223642959832056" lon="11.371757791155595"><ele>206.00000000000003</ele><time>2026-04-11T09:38:41Z</time></trkpt><trkpt lat="43.22361387273656" lon="11.371651484508435"><ele>206.0</ele><time>2026-04-11T09:38:45Z</time></trkpt><trkpt lat="43.22358827059029" lon="11.37156757364474"><ele>205.99999999999997</ele><time>2026-04-11T09:38:48Z</time></trkpt><trkpt lat="43.22354631756098" lon="11.371483616108701"><ele>206.0</ele><time>2026-04-11T09:38:51Z</time></trkpt><trkpt lat="43.223505163558045" lon="11.371415092468276"><ele>206.0</ele><time>2026-04-11T09:38:54Z</time></trkpt><trkpt lat="43.2234518800896" lon="11.371362704945756"><ele>206.0</ele><time>2026-04-11T09:38:57Z</time></trkpt><trkpt lat="43.22339847768943" lon="11.371286712862156"><ele>206.0</ele><time>2026-04-11T09:39:00Z</time></trkpt><trkpt lat="43.22332784107106" lon="11.371216956196427"><ele>205.99999999999997</ele><time>2026-04-11T09:39:04Z</time></trkpt><trkpt lat="43.223263154546444" lon="11.371171528228555"><ele>206.0</ele><time>2026-04-11T09:39:07Z</time></trkpt><trkpt lat="43.22318630824025" lon="11.371156194733414"><ele>206.33333333333334</ele><time>2026-04-11T09:39:11Z</time></trkpt><trkpt lat="43.2231145628206" lon="11.371156118958398"><ele>206.66666666666669</ele><time>2026-04-11T09:39:14Z</time></trkpt><trkpt lat="43.22304077985253" lon="11.371186976628438"><ele>207.0</ele><time>2026-04-11T09:39:17Z</time></trkpt><trkpt lat="43.22297862500813" lon="11.371236435288361"><ele>207.33333333333331</ele><time>2026-04-11T09:39:20Z</time></trkpt><trkpt lat="43.222916526000915" lon="11.371297762145536"><ele>207.66666666666666</ele><time>2026-04-11T09:39:24Z</time></trkpt><trkpt lat="43.22287144591957" lon="11.371383010364756"><ele>208.0</ele><time>2026-04-11T09:39:27Z</time></trkpt><trkpt lat="43.22280663737682" lon="11.371457951867253"><ele>207.99999999999997</ele><time>2026-04-11T09:39:31Z</time></trkpt><trkpt lat="43.222760155060136" lon="11.371544166043364"><ele>208.0</ele><time>2026-04-11T09:39:34Z</time></trkpt><trkpt lat="43.22271711237616" lon="11.371630372623759"><ele>208.0</ele><time>2026-04-11T09:39:37Z</time></trkpt><trkpt lat="43.22266985635332" lon="11.371725017827627"><ele>208.0</ele><time>2026-04-11T09:39:40Z</time></trkpt><trkpt lat="43.22263165190594" lon="11.371798898963915"><ele>207.99999999999997</ele><time>2026-04-11T09:39:43Z</time></trkpt><trkpt lat="43.22259249035181" lon="11.37189410530679"><ele>208.0</ele><time>2026-04-11T09:39:46Z</time></trkpt><trkpt lat="43.22254643234458" lon="11.371964322252635"><ele>208.0</ele><time>2026-04-11T09:39:49Z</time></trkpt><trkpt lat="43.22250291667049" lon="11.372042289448542"><ele>208.0</ele><time>2026-04-11T09:39:52Z</time></trkpt><trkpt lat="43.222445974913356" lon="11.37211520350434"><ele>208.0</ele><time>2026-04-11T09:39:55Z</time></trkpt><trkpt lat="43.222386156923115" lon="11.372164475512498"><ele>208.0</ele><time>2026-04-11T09:39:58Z</time></trkpt><trkpt lat="43.222335431062916" lon="11.372220994113926"><ele>208.0</ele><time>2026-04-11T09:40:01Z</time></trkpt><trkpt lat="43.2222740281643" lon="11.37228892199914"><ele>208.0</ele><time>2026-04-11T09:40:04Z</time></trkpt><trkpt lat="43.22221455080157" lon="11.37235301326868"><ele>208.0</ele><time>2026-04-11T09:40:07Z</time></trkpt><trkpt lat="43.222151044493394" lon="11.372416328509791"><ele>209.85714285714286</ele><time>2026-04-11T09:40:10Z</time></trkpt><trkpt lat="43.22209040082163" lon="11.37247134244883"><ele>211.71428571428572</ele><time>2026-04-11T09:40:13Z</time></trkpt><trkpt lat="43.222033355721045" lon="11.37251539215919"><ele>213.57142857142858</ele><time>2026-04-11T09:40:16Z</time></trkpt><trkpt lat="43.22196811515816" lon="11.372556169353667"><ele>215.42857142857144</ele><time>2026-04-11T09:40:19Z</time></trkpt><trkpt lat="43.22189999002933" lon="11.372592666865467"><ele>217.28571428571428</ele><time>2026-04-11T09:40:22Z</time></trkpt><trkpt lat="43.22183143183485" lon="11.372617084444338"><ele>219.14285714285717</ele><time>2026-04-11T09:40:25Z</time></trkpt><trkpt lat="43.22176525002074" lon="11.372673008559135"><ele>221.0</ele><time>2026-04-11T09:40:28Z</time></trkpt><trkpt lat="43.2216966112424" lon="11.372682807865356"><ele>221.00000000000003</ele><time>2026-04-11T09:40:31Z</time></trkpt><trkpt lat="43.221613857653566" lon="11.372673900103793"><ele>221.0</ele><time>2026-04-11T09:40:34Z</time></trkpt><trkpt lat="43.22153565684343" lon="11.372692279499557"><ele>221.0</ele><time>2026-04-11T09:40:37Z</time></trkpt><trkpt lat="43.221457585441385" lon="11.3727170847136"><ele>221.0</ele><time>2026-04-11T09:40:41Z</time></trkpt><trkpt lat="43.221390650793175" lon="11.372741679376167"><ele>221.0</ele><time>2026-04-11T09:40:44Z</time></trkpt><trkpt lat="43.22132702844853" lon="11.372738067250461"><ele>221.00000000000003</ele><time>2026-04-11T09:40:47Z</time></trkpt><trkpt lat="43.22125425895708" lon="11.372753587090786"><ele>221.0</ele><time>2026-04-11T09:40:50Z</time></trkpt><trkpt lat="43.22118373316943" lon="11.372768595694435"><ele>222.00000000000003</ele><time>2026-04-11T09:40:53Z</time></trkpt><trkpt lat="43.221104774949026" lon="11.372784689229308"><ele>223.0</ele><time>2026-04-11T09:40:56Z</time></trkpt><trkpt lat="43.22102699937265" lon="11.3728005417164"><ele>224.0</ele><time>2026-04-11T09:40:59Z</time></trkpt><trkpt lat="43.220957375550675" lon="11.372814732695856"><ele>225.0</ele><time>2026-04-11T09:41:03Z</time></trkpt><trkpt lat="43.22087951814771" lon="11.372830601849264"><ele>226.00000000000003</ele><time>2026-04-11T09:41:06Z</time></trkpt><trkpt lat="43.22079596567013" lon="11.372870349353876"><ele>227.0</ele><time>2026-04-11T09:41:09Z</time></trkpt><trkpt lat="43.22071685547689" lon="11.372884175775702"><ele>228.33333333333334</ele><time>2026-04-11T09:41:12Z</time></trkpt><trkpt lat="43.22063805872322" lon="11.372900503568275"><ele>229.66666666666669</ele><time>2026-04-11T09:41:15Z</time></trkpt><trkpt lat="43.22056801467444" lon="11.372915469250682"><ele>231.0</ele><time>2026-04-11T09:41:18Z</time></trkpt><trkpt lat="43.220487105039076" lon="11.372912393052951"><ele>232.33333333333331</ele><time>2026-04-11T09:41:21Z</time></trkpt><trkpt lat="43.220405294855595" lon="11.372922746376885"><ele>233.66666666666666</ele><time>2026-04-11T09:41:24Z</time></trkpt><trkpt lat="43.220332518922135" lon="11.372948490940516"><ele>235.0</ele><time>2026-04-11T09:41:28Z</time></trkpt><trkpt lat="43.22026224524524" lon="11.372972489481224"><ele>235.0</ele><time>2026-04-11T09:41:32Z</time></trkpt><trkpt lat="43.22019875697782" lon="11.372980201031165"><ele>234.99999999999997</ele><time>2026-04-11T09:41:35Z</time></trkpt><trkpt lat="43.22012793667392" lon="11.372992561459387"><ele>235.0</ele><time>2026-04-11T09:41:40Z</time></trkpt><trkpt lat="43.220061670560064" lon="11.373013649075219"><ele>235.0</ele><time>2026-04-11T09:41:43Z</time></trkpt><trkpt lat="43.21998299916932" lon="11.37302983170728"><ele>234.99999999999997</ele><time>2026-04-11T09:41:47Z</time></trkpt><trkpt lat="43.21990704684689" lon="11.373039204386513"><ele>235.0</ele><time>2026-04-11T09:41:51Z</time></trkpt><trkpt lat="43.219825921710346" lon="11.37304633720364"><ele>235.0</ele><time>2026-04-11T09:41:55Z</time></trkpt><trkpt lat="43.21976048369521" lon="11.373062077456627"><ele>236.49999999999997</ele><time>2026-04-11T09:41:58Z</time></trkpt><trkpt lat="43.219679165157466" lon="11.373067730948124"><ele>238.0</ele><time>2026-04-11T09:42:02Z</time></trkpt><trkpt lat="43.21960190489068" lon="11.373079619127399"><ele>239.5</ele><time>2026-04-11T09:42:06Z</time></trkpt><trkpt lat="43.21953557057944" lon="11.37308702764866"><ele>241.0</ele><time>2026-04-11T09:42:09Z</time></trkpt><trkpt lat="43.21945226543647" lon="11.373070960343252"><ele>242.49999999999997</ele><time>2026-04-11T09:42:13Z</time></trkpt><trkpt lat="43.21937983247317" lon="11.373062159836769"><ele>244.0</ele><time>2026-04-11T09:42:17Z</time></trkpt><trkpt lat="43.219292294423035" lon="11.373071479543265"><ele>243.99999999999997</ele><time>2026-04-11T09:42:22Z</time></trkpt><trkpt lat="43.21922911086512" lon="11.373063519047061"><ele>244.0</ele><time>2026-04-11T09:42:26Z</time></trkpt><trkpt lat="43.21915823259811" lon="11.373041205553928"><ele>244.0</ele><time>2026-04-11T09:42:29Z</time></trkpt><trkpt lat="43.2190858028395" lon="11.373018484942483"><ele>244.0</ele><time>2026-04-11T09:42:33Z</time></trkpt><trkpt lat="43.21898879674967" lon="11.372987403647407"><ele>243.99999999999997</ele><time>2026-04-11T09:42:37Z</time></trkpt><trkpt lat="43.21891926879088" lon="11.372959283712822"><ele>244.0</ele><time>2026-04-11T09:42:41Z</time></trkpt><trkpt lat="43.21883270859984" lon="11.372920957688864"><ele>245.33333333333331</ele><time>2026-04-11T09:42:46Z</time></trkpt><trkpt lat="43.21873823359459" lon="11.37288875475933"><ele>246.66666666666666</ele><time>2026-04-11T09:42:48Z</time></trkpt><trkpt lat="43.218660034403776" lon="11.372872655365638"><ele>248.0</ele><time>2026-04-11T09:42:50Z</time></trkpt><trkpt lat="43.21859040485013" lon="11.372856662048584"><ele>249.33333333333331</ele><time>2026-04-11T09:42:52Z</time></trkpt><trkpt lat="43.21850998169436" lon="11.372799905257732"><ele>250.66666666666666</ele><time>2026-04-11T09:42:54Z</time></trkpt><trkpt lat="43.21843614615587" lon="11.37273280298132"><ele>252.0</ele><time>2026-04-11T09:42:56Z</time></trkpt><trkpt lat="43.21836422771112" lon="11.372696313272666"><ele>252.0</ele><time>2026-04-11T09:42:58Z</time></trkpt><trkpt lat="43.218290705127515" lon="11.372665815297946"><ele>252.0</ele><time>2026-04-11T09:43:00Z</time></trkpt><trkpt lat="43.21821731030993" lon="11.37262708160199"><ele>252.0</ele><time>2026-04-11T09:43:02Z</time></trkpt><trkpt lat="43.218134305900655" lon="11.372582805991179"><ele>252.0</ele><time>2026-04-11T09:43:04Z</time></trkpt><trkpt lat="43.218057851269606" lon="11.37255160110913"><ele>252.0</ele><time>2026-04-11T09:43:06Z</time></trkpt><trkpt lat="43.217964084679366" lon="11.37249347161193"><ele>252.0</ele><time>2026-04-11T09:43:08Z</time></trkpt><trkpt lat="43.21787695250322" lon="11.37244305842254"><ele>250.0</ele><time>2026-04-11T09:43:10Z</time></trkpt><trkpt lat="43.21777714509066" lon="11.372396496058416"><ele>248.0</ele><time>2026-04-11T09:43:12Z</time></trkpt><trkpt lat="43.21767362922199" lon="11.372353323782296"><ele>246.0</ele><time>2026-04-11T09:43:14Z</time></trkpt><trkpt lat="43.21756604844244" lon="11.372304371450738"><ele>244.0</ele><time>2026-04-11T09:43:16Z</time></trkpt><trkpt lat="43.21746828082204" lon="11.372248203471182"><ele>242.0</ele><time>2026-04-11T09:43:18Z</time></trkpt><trkpt lat="43.21740121273095" lon="11.372204545696947"><ele>241.50000000000003</ele><time>2026-04-11T09:43:20Z</time></trkpt><trkpt lat="43.21735180181099" lon="11.372146316529273"><ele>241.0</ele><time>2026-04-11T09:43:46Z</time></trkpt><trkpt lat="43.21727028545838" lon="11.37214911420519"><ele>240.5</ele><time>2026-04-11T09:47:53Z</time></trkpt><trkpt lat="43.217181705574845" lon="11.372103844322224"><ele>240.0</ele><time>2026-04-11T09:47:56Z</time></trkpt><trkpt lat="43.21708927962836" lon="11.372062582925341"><ele>239.50000000000003</ele><time>2026-04-11T09:47:58Z</time></trkpt><trkpt lat="43.21698532361804" lon="11.372009350806138"><ele>239.0</ele><time>2026-04-11T09:48:00Z</time></trkpt><trkpt lat="43.216877835933346" lon="11.371951397080034"><ele>238.83333333333334</ele><time>2026-04-11T09:48:02Z</time></trkpt><trkpt lat="43.21676733147721" lon="11.371885735806769"><ele>238.66666666666669</ele><time>2026-04-11T09:48:04Z</time></trkpt><trkpt lat="43.216702808042825" lon="11.371857005002207"><ele>238.5</ele><time>2026-04-11T09:48:05Z</time></trkpt><trkpt lat="43.21664114190819" lon="11.371816374742323"><ele>238.33333333333331</ele><time>2026-04-11T09:48:06Z</time></trkpt><trkpt lat="43.21657601670412" lon="11.371779440412068"><ele>238.16666666666666</ele><time>2026-04-11T09:48:07Z</time></trkpt><trkpt lat="43.21651227219627" lon="11.371748411564312"><ele>238.0</ele><time>2026-04-11T09:48:08Z</time></trkpt><trkpt lat="43.21644927549296" lon="11.371721718539655"><ele>239.2</ele><time>2026-04-11T09:48:09Z</time></trkpt><trkpt lat="43.21633255444516" lon="11.371672995150943"><ele>240.4</ele><time>2026-04-11T09:48:11Z</time></trkpt><trkpt lat="43.21627209790024" lon="11.371648005571622"><ele>241.59999999999997</ele><time>2026-04-11T09:48:12Z</time></trkpt><trkpt lat="43.21621405050466" lon="11.371613364904462"><ele>242.79999999999998</ele><time>2026-04-11T09:48:13Z</time></trkpt><trkpt lat="43.21610555236984" lon="11.371556773010736"><ele>244.0</ele><time>2026-04-11T09:48:15Z</time></trkpt><trkpt lat="43.21600115861068" lon="11.371509139371755"><ele>243.99999999999997</ele><time>2026-04-11T09:48:17Z</time></trkpt><trkpt lat="43.21592513461686" lon="11.37145083145895"><ele>244.0</ele><time>2026-04-11T09:48:19Z</time></trkpt><trkpt lat="43.21584111911791" lon="11.371386496309873"><ele>244.0</ele><time>2026-04-11T09:48:21Z</time></trkpt><trkpt lat="43.21578090297489" lon="11.371329878065298"><ele>244.0</ele><time>2026-04-11T09:48:23Z</time></trkpt><trkpt lat="43.21570784829519" lon="11.37126503050376"><ele>243.99999999999997</ele><time>2026-04-11T09:48:25Z</time></trkpt><trkpt lat="43.215645249275205" lon="11.3711747321462"><ele>244.0</ele><time>2026-04-11T09:48:27Z</time></trkpt><trkpt lat="43.21558820599279" lon="11.371132274821141"><ele>243.2</ele><time>2026-04-11T09:48:28Z</time></trkpt><trkpt lat="43.215494131891724" lon="11.371034405705142"><ele>242.39999999999998</ele><time>2026-04-11T09:48:30Z</time></trkpt><trkpt lat="43.21539036673923" lon="11.370931516288405"><ele>241.6</ele><time>2026-04-11T09:48:32Z</time></trkpt><trkpt lat="43.215327899645544" lon="11.370881972605655"><ele>240.8</ele><time>2026-04-11T09:48:33Z</time></trkpt><trkpt lat="43.21525603438831" lon="11.370834318244647"><ele>240.0</ele><time>2026-04-11T09:48:34Z</time></trkpt><trkpt lat="43.215177551100695" lon="11.370786304880344"><ele>240.0</ele><time>2026-04-11T09:48:35Z</time></trkpt><trkpt lat="43.21509203701228" lon="11.370744531483274"><ele>240.0</ele><time>2026-04-11T09:48:36Z</time></trkpt><trkpt lat="43.21499751326832" lon="11.370710557809637"><ele>240.0</ele><time>2026-04-11T09:48:37Z</time></trkpt><trkpt lat="43.214907947856894" lon="11.370679899491044"><ele>240.0</ele><time>2026-04-11T09:48:38Z</time></trkpt><trkpt lat="43.214816707149" lon="11.370672683023006"><ele>240.0</ele><time>2026-04-11T09:48:39Z</time></trkpt><trkpt lat="43.214735170188746" lon="11.370691356012824"><ele>237.6</ele><time>2026-04-11T09:48:40Z</time></trkpt><trkpt lat="43.21465249476903" lon="11.370716404073738"><ele>235.2</ele><time>2026-04-11T09:48:41Z</time></trkpt><trkpt lat="43.21455584129538" lon="11.370755000925397"><ele>232.8</ele><time>2026-04-11T09:48:42Z</time></trkpt><trkpt lat="43.21446284433665" lon="11.370810383737304"><ele>230.4</ele><time>2026-04-11T09:48:43Z</time></trkpt><trkpt lat="43.214364334671764" lon="11.37087101619822"><ele>228.0</ele><time>2026-04-11T09:48:44Z</time></trkpt><trkpt lat="43.2142607898617" lon="11.370939340942819"><ele>228.0</ele><time>2026-04-11T09:48:45Z</time></trkpt><trkpt lat="43.21416046201322" lon="11.371009070419941"><ele>228.0</ele><time>2026-04-11T09:48:46Z</time></trkpt><trkpt lat="43.21405650837968" lon="11.37107833875264"><ele>228.0</ele><time>2026-04-11T09:48:47Z</time></trkpt><trkpt lat="43.21394658991365" lon="11.371152427918851"><ele>228.0</ele><time>2026-04-11T09:48:48Z</time></trkpt><trkpt lat="43.21382927239764" lon="11.371230065017063"><ele>226.8</ele><time>2026-04-11T09:48:49Z</time></trkpt><trkpt lat="43.21370873777476" lon="11.371302074583333"><ele>225.60000000000002</ele><time>2026-04-11T09:48:50Z</time></trkpt><trkpt lat="43.21359898106142" lon="11.371345505069915"><ele>224.39999999999998</ele><time>2026-04-11T09:48:51Z</time></trkpt><trkpt lat="43.21349651674354" lon="11.37135897198113"><ele>223.2</ele><time>2026-04-11T09:48:52Z</time></trkpt><trkpt lat="43.21340243671024" lon="11.371349519738454"><ele>222.0</ele><time>2026-04-11T09:48:53Z</time></trkpt><trkpt lat="43.2133196573136" lon="11.37129062576144"><ele>222.0</ele><time>2026-04-11T09:48:54Z</time></trkpt><trkpt lat="43.21326017361024" lon="11.37120016950123"><ele>222.0</ele><time>2026-04-11T09:48:55Z</time></trkpt><trkpt lat="43.21320970629922" lon="11.371112530020092"><ele>222.0</ele><time>2026-04-11T09:48:56Z</time></trkpt><trkpt lat="43.2131662952393" lon="11.371033702858337"><ele>222.0</ele><time>2026-04-11T09:48:57Z</time></trkpt><trkpt lat="43.213116015291064" lon="11.370960687323477"><ele>222.0</ele><time>2026-04-11T09:48:58Z</time></trkpt><trkpt lat="43.21307118803219" lon="11.370889934651922"><ele>222.0</ele><time>2026-04-11T09:48:59Z</time></trkpt><trkpt lat="43.21302982881915" lon="11.370805459328082"><ele>222.0</ele><time>2026-04-11T09:49:00Z</time></trkpt><trkpt lat="43.21299119293772" lon="11.370724120856728"><ele>222.0</ele><time>2026-04-11T09:49:01Z</time></trkpt><trkpt lat="43.212958821836786" lon="11.3706387239479"><ele>222.0</ele><time>2026-04-11T09:49:02Z</time></trkpt><trkpt lat="43.21288905045337" lon="11.370499560526744"><ele>222.0</ele><time>2026-04-11T09:49:04Z</time></trkpt><trkpt lat="43.21282703605653" lon="11.370399462562935"><ele>222.0</ele><time>2026-04-11T09:49:06Z</time></trkpt><trkpt lat="43.212792495884756" lon="11.370289930722695"><ele>222.0</ele><time>2026-04-11T09:49:08Z</time></trkpt><trkpt lat="43.21274695421696" lon="11.37019540180179"><ele>222.5</ele><time>2026-04-11T09:49:10Z</time></trkpt><trkpt lat="43.21268795429133" lon="11.370096848677939"><ele>223.0</ele><time>2026-04-11T09:49:12Z</time></trkpt><trkpt lat="43.212635497986476" lon="11.370005447730959"><ele>223.5</ele><time>2026-04-11T09:49:14Z</time></trkpt><trkpt lat="43.21257389350211" lon="11.369912597131439"><ele>224.0</ele><time>2026-04-11T09:49:16Z</time></trkpt><trkpt lat="43.212516061787326" lon="11.369834135494614"><ele>224.5</ele><time>2026-04-11T09:49:18Z</time></trkpt><trkpt lat="43.21246603471352" lon="11.369756936085077"><ele>225.0</ele><time>2026-04-11T09:49:20Z</time></trkpt><trkpt lat="43.21241906959176" lon="11.369659884397151"><ele>225.0</ele><time>2026-04-11T09:49:22Z</time></trkpt><trkpt lat="43.21236402736795" lon="11.369580547385317"><ele>225.0</ele><time>2026-04-11T09:49:24Z</time></trkpt><trkpt lat="43.21232027949629" lon="11.369499386176557"><ele>225.0</ele><time>2026-04-11T09:49:26Z</time></trkpt><trkpt lat="43.2122613794673" lon="11.369413868890254"><ele>225.0</ele><time>2026-04-11T09:49:28Z</time></trkpt><trkpt lat="43.21220844592733" lon="11.36932709693724"><ele>225.0</ele><time>2026-04-11T09:49:30Z</time></trkpt><trkpt lat="43.21215561535387" lon="11.36926095835953"><ele>225.0</ele><time>2026-04-11T09:49:32Z</time></trkpt><trkpt lat="43.21210534834812" lon="11.369181696354351"><ele>226.28571428571433</ele><time>2026-04-11T09:49:34Z</time></trkpt><trkpt lat="43.21204416002272" lon="11.369118263140745"><ele>227.57142857142858</ele><time>2026-04-11T09:49:36Z</time></trkpt><trkpt lat="43.21199040287832" lon="11.369072298344166"><ele>228.8571428571429</ele><time>2026-04-11T09:49:38Z</time></trkpt><trkpt lat="43.21193617430772" lon="11.369027803690416"><ele>230.14285714285717</ele><time>2026-04-11T09:49:40Z</time></trkpt><trkpt lat="43.211877583511" lon="11.36898764781366"><ele>231.42857142857144</ele><time>2026-04-11T09:49:42Z</time></trkpt><trkpt lat="43.21181297226108" lon="11.368956686132174"><ele>232.71428571428572</ele><time>2026-04-11T09:49:44Z</time></trkpt><trkpt lat="43.21175045278983" lon="11.368900854000499"><ele>234.0</ele><time>2026-04-11T09:49:46Z</time></trkpt><trkpt lat="43.21167219434723" lon="11.36887717626183"><ele>233.83333333333334</ele><time>2026-04-11T09:49:48Z</time></trkpt><trkpt lat="43.211598397963606" lon="11.368839951453419"><ele>233.66666666666669</ele><time>2026-04-11T09:49:50Z</time></trkpt><trkpt lat="43.211527761818566" lon="11.368790562416253"><ele>233.5</ele><time>2026-04-11T09:49:52Z</time></trkpt><trkpt lat="43.2114605441118" lon="11.368737838572189"><ele>233.33333333333334</ele><time>2026-04-11T09:49:54Z</time></trkpt><trkpt lat="43.21136270295651" lon="11.368717386902825"><ele>233.16666666666669</ele><time>2026-04-11T09:49:56Z</time></trkpt><trkpt lat="43.211280268284874" lon="11.368680477856495"><ele>233.0</ele><time>2026-04-11T09:49:58Z</time></trkpt><trkpt lat="43.21118695884544" lon="11.368653687122816"><ele>233.0</ele><time>2026-04-11T09:50:00Z</time></trkpt><trkpt lat="43.21109084230073" lon="11.368619819181662"><ele>233.0</ele><time>2026-04-11T09:50:02Z</time></trkpt><trkpt lat="43.2109959342695" lon="11.36858907884894"><ele>233.0</ele><time>2026-04-11T09:50:04Z</time></trkpt><trkpt lat="43.210908117794744" lon="11.368546966007212"><ele>233.0</ele><time>2026-04-11T09:50:06Z</time></trkpt><trkpt lat="43.210829643925685" lon="11.368529622932833"><ele>233.0</ele><time>2026-04-11T09:50:08Z</time></trkpt><trkpt lat="43.21074098332357" lon="11.368494386880421"><ele>232.60000000000002</ele><time>2026-04-11T09:50:10Z</time></trkpt><trkpt lat="43.21065641361122" lon="11.368483867463107"><ele>232.20000000000002</ele><time>2026-04-11T09:50:12Z</time></trkpt><trkpt lat="43.21056710949033" lon="11.368441526188052"><ele>231.8</ele><time>2026-04-11T09:50:14Z</time></trkpt><trkpt lat="43.21046417676263" lon="11.368410978392335"><ele>231.4</ele><time>2026-04-11T09:50:16Z</time></trkpt><trkpt lat="43.21037030399155" lon="11.368380806829004"><ele>231.0</ele><time>2026-04-11T09:50:18Z</time></trkpt><trkpt lat="43.210270742027724" lon="11.368357895444227"><ele>231.0</ele><time>2026-04-11T09:50:20Z</time></trkpt><trkpt lat="43.2101740269525" lon="11.368329209398697"><ele>231.00000000000003</ele><time>2026-04-11T09:50:22Z</time></trkpt><trkpt lat="43.21008248937761" lon="11.368295229710917"><ele>231.00000000000003</ele><time>2026-04-11T09:50:24Z</time></trkpt><trkpt lat="43.209998063572336" lon="11.368252665394358"><ele>231.0</ele><time>2026-04-11T09:50:26Z</time></trkpt><trkpt lat="43.209909501929715" lon="11.36822577891699"><ele>231.0</ele><time>2026-04-11T09:50:28Z</time></trkpt><trkpt lat="43.209819723305635" lon="11.368210260124219"><ele>233.33333333333334</ele><time>2026-04-11T09:50:30Z</time></trkpt><trkpt lat="43.2097322438227" lon="11.368221795351207"><ele>235.66666666666669</ele><time>2026-04-11T09:50:32Z</time></trkpt><trkpt lat="43.20965733395656" lon="11.368267716508267"><ele>238.0</ele><time>2026-04-11T09:50:34Z</time></trkpt><trkpt lat="43.209594048699614" lon="11.368337867410666"><ele>240.33333333333334</ele><time>2026-04-11T09:50:36Z</time></trkpt><trkpt lat="43.20953436291085" lon="11.368415860606866"><ele>242.66666666666669</ele><time>2026-04-11T09:50:38Z</time></trkpt><trkpt lat="43.20948163720713" lon="11.36851143902196"><ele>245.0</ele><time>2026-04-11T09:50:40Z</time></trkpt><trkpt lat="43.209412976106634" lon="11.368600857277407"><ele>245.00000000000003</ele><time>2026-04-11T09:50:42Z</time></trkpt><trkpt lat="43.20934966905189" lon="11.368683399103622"><ele>245.0</ele><time>2026-04-11T09:50:44Z</time></trkpt><trkpt lat="43.20930184553316" lon="11.368771139798318"><ele>245.0</ele><time>2026-04-11T09:50:46Z</time></trkpt><trkpt lat="43.20924121931391" lon="11.368867022309965"><ele>245.0</ele><time>2026-04-11T09:50:48Z</time></trkpt><trkpt lat="43.2091767109261" lon="11.36894163935917"><ele>245.00000000000003</ele><time>2026-04-11T09:50:50Z</time></trkpt><trkpt lat="43.209126955382146" lon="11.369029892486711"><ele>245.0</ele><time>2026-04-11T09:50:53Z</time></trkpt><trkpt lat="43.209059693621974" lon="11.369116897552981"><ele>244.14285714285714</ele><time>2026-04-11T09:50:56Z</time></trkpt><trkpt lat="43.209012930983135" lon="11.369175214766635"><ele>243.28571428571428</ele><time>2026-04-11T09:50:58Z</time></trkpt><trkpt lat="43.20896104814052" lon="11.36923963138563"><ele>242.42857142857144</ele><time>2026-04-11T09:51:00Z</time></trkpt><trkpt lat="43.208911428568" lon="11.369301305109998"><ele>241.57142857142858</ele><time>2026-04-11T09:51:02Z</time></trkpt><trkpt lat="43.20886272210052" lon="11.369366358251884"><ele>240.71428571428572</ele><time>2026-04-11T09:51:04Z</time></trkpt><trkpt lat="43.20881232047504" lon="11.369436251599812"><ele>239.8571428571429</ele><time>2026-04-11T09:51:06Z</time></trkpt><trkpt lat="43.20876160757411" lon="11.369506559806801"><ele>239.00000000000003</ele><time>2026-04-11T09:51:08Z</time></trkpt><trkpt lat="43.20871044850402" lon="11.36957809376428"><ele>241.33333333333334</ele><time>2026-04-11T09:51:10Z</time></trkpt><trkpt lat="43.20864798551854" lon="11.369647795787888"><ele>243.66666666666669</ele><time>2026-04-11T09:51:12Z</time></trkpt><trkpt lat="43.208581067705595" lon="11.369714804468469"><ele>246.0</ele><time>2026-04-11T09:51:14Z</time></trkpt><trkpt lat="43.20852980922091" lon="11.36978373023823"><ele>248.33333333333331</ele><time>2026-04-11T09:51:17Z</time></trkpt><trkpt lat="43.20847956110273" lon="11.369860033531783"><ele>250.66666666666666</ele><time>2026-04-11T09:51:20Z</time></trkpt><trkpt lat="43.20841753201065" lon="11.369934705938686"><ele>253.0</ele><time>2026-04-11T09:51:23Z</time></trkpt><trkpt lat="43.20836980490869" lon="11.369999147867754"><ele>252.99999999999997</ele><time>2026-04-11T09:51:25Z</time></trkpt><trkpt lat="43.2083044430127" lon="11.370089272091112"><ele>253.0</ele><time>2026-04-11T09:51:28Z</time></trkpt><trkpt lat="43.20824396630554" lon="11.370172660141181"><ele>253.0</ele><time>2026-04-11T09:51:31Z</time></trkpt><trkpt lat="43.20818515775291" lon="11.370253748480085"><ele>253.0</ele><time>2026-04-11T09:51:33Z</time></trkpt><trkpt lat="43.20813940846074" lon="11.370317669625187"><ele>252.99999999999997</ele><time>2026-04-11T09:51:35Z</time></trkpt><trkpt lat="43.20807909957152" lon="11.370405412267802"><ele>253.0</ele><time>2026-04-11T09:51:38Z</time></trkpt><trkpt lat="43.208026843202894" lon="11.37045966625991"><ele>255.83333333333331</ele><time>2026-04-11T09:51:41Z</time></trkpt><trkpt lat="43.20797092756163" lon="11.370553843691347"><ele>258.66666666666663</ele><time>2026-04-11T09:51:45Z</time></trkpt><trkpt lat="43.20793474042426" lon="11.370632761308451"><ele>261.5</ele><time>2026-04-11T09:51:49Z</time></trkpt><trkpt lat="43.20787689540344" lon="11.370706458098462"><ele>264.3333333333333</ele><time>2026-04-11T09:51:52Z</time></trkpt><trkpt lat="43.20780618320998" lon="11.370783743639164"><ele>267.1666666666667</ele><time>2026-04-11T09:51:55Z</time></trkpt><trkpt lat="43.20774458137144" lon="11.37086951090142"><ele>270.0</ele><time>2026-04-11T09:51:58Z</time></trkpt><trkpt lat="43.20769095341386" lon="11.370944232801646"><ele>270.0</ele><time>2026-04-11T09:52:01Z</time></trkpt><trkpt lat="43.20763863204313" lon="11.37101692770165"><ele>270.0</ele><time>2026-04-11T09:52:04Z</time></trkpt><trkpt lat="43.20759183184143" lon="11.371080429318708"><ele>270.0</ele><time>2026-04-11T09:52:08Z</time></trkpt><trkpt lat="43.207554276523105" lon="11.371158440718503"><ele>270.0</ele><time>2026-04-11T09:52:11Z</time></trkpt><trkpt lat="43.207500521522206" lon="11.371212893867042"><ele>270.0</ele><time>2026-04-11T09:52:15Z</time></trkpt><trkpt lat="43.20745387379675" lon="11.37127795081876"><ele>270.0</ele><time>2026-04-11T09:52:18Z</time></trkpt><trkpt lat="43.20740425357581" lon="11.371336236290643"><ele>270.0</ele><time>2026-04-11T09:52:21Z</time></trkpt><trkpt lat="43.207358915405564" lon="11.371414795296745"><ele>272.8333333333333</ele><time>2026-04-11T09:52:25Z</time></trkpt><trkpt lat="43.207309898660874" lon="11.371480612119907"><ele>275.6666666666667</ele><time>2026-04-11T09:52:28Z</time></trkpt><trkpt lat="43.20726504243371" lon="11.371551691658787"><ele>278.5</ele><time>2026-04-11T09:52:31Z</time></trkpt><trkpt lat="43.20720160549206" lon="11.37162232087352"><ele>281.33333333333337</ele><time>2026-04-11T09:52:35Z</time></trkpt><trkpt lat="43.20715401556654" lon="11.371710338504629"><ele>284.1666666666667</ele><time>2026-04-11T09:52:38Z</time></trkpt><trkpt lat="43.207115689295954" lon="11.37181255603819"><ele>287.0</ele><time>2026-04-11T09:52:41Z</time></trkpt><trkpt lat="43.20706312467419" lon="11.37190213444043"><ele>287.0</ele><time>2026-04-11T09:52:46Z</time></trkpt><trkpt lat="43.2070356012893" lon="11.37198589819074"><ele>287.0</ele><time>2026-04-11T09:52:48Z</time></trkpt><trkpt lat="43.20698269361312" lon="11.372052855143084"><ele>287.0</ele><time>2026-04-11T09:52:50Z</time></trkpt><trkpt lat="43.206938243639364" lon="11.372130846272501"><ele>287.0</ele><time>2026-04-11T09:52:52Z</time></trkpt><trkpt lat="43.20691095540948" lon="11.372210832029195"><ele>287.0</ele><time>2026-04-11T09:52:54Z</time></trkpt><trkpt lat="43.20686714028604" lon="11.372275985276316"><ele>287.0</ele><time>2026-04-11T09:52:56Z</time></trkpt><trkpt lat="43.20681962998233" lon="11.372334331668489"><ele>287.0</ele><time>2026-04-11T09:52:58Z</time></trkpt><trkpt lat="43.20676058742982" lon="11.372433181662025"><ele>287.4</ele><time>2026-04-11T09:53:00Z</time></trkpt><trkpt lat="43.20670217640768" lon="11.37252747506229"><ele>287.79999999999995</ele><time>2026-04-11T09:53:02Z</time></trkpt><trkpt lat="43.206639602095066" lon="11.372650022241354"><ele>288.2</ele><time>2026-04-11T09:53:04Z</time></trkpt><trkpt lat="43.20654879336292" lon="11.372743210502996"><ele>288.59999999999997</ele><time>2026-04-11T09:53:06Z</time></trkpt><trkpt lat="43.206454947383534" lon="11.372835412728337"><ele>289.0</ele><time>2026-04-11T09:53:08Z</time></trkpt><trkpt lat="43.20635788973984" lon="11.372913934565215"><ele>289.0</ele><time>2026-04-11T09:53:10Z</time></trkpt><trkpt lat="43.20626042762613" lon="11.372991054007672"><ele>289.0</ele><time>2026-04-11T09:53:12Z</time></trkpt><trkpt lat="43.20616448697869" lon="11.373053751324274"><ele>289.0</ele><time>2026-04-11T09:53:14Z</time></trkpt><trkpt lat="43.20610616308482" lon="11.373100060286536"><ele>289.0</ele><time>2026-04-11T09:53:15Z</time></trkpt><trkpt lat="43.20601685092806" lon="11.373154594546028"><ele>289.0</ele><time>2026-04-11T09:53:17Z</time></trkpt><trkpt lat="43.20593163682482" lon="11.37322835503806"><ele>283.75</ele><time>2026-04-11T09:53:19Z</time></trkpt><trkpt lat="43.20583065820853" lon="11.37329864192242"><ele>278.5</ele><time>2026-04-11T09:53:21Z</time></trkpt><trkpt lat="43.20573362573337" lon="11.373383610740593"><ele>273.25</ele><time>2026-04-11T09:53:23Z</time></trkpt><trkpt lat="43.205631842756304" lon="11.373473582337542"><ele>268.0</ele><time>2026-04-11T09:53:25Z</time></trkpt><trkpt lat="43.20553900899368" lon="11.373552640282465"><ele>268.0</ele><time>2026-04-11T09:53:27Z</time></trkpt><trkpt lat="43.2054727018241" lon="11.373604783086238"><ele>268.0</ele><time>2026-04-11T09:53:28Z</time></trkpt><trkpt lat="43.20540791165749" lon="11.373658718117165"><ele>268.0</ele><time>2026-04-11T09:53:29Z</time></trkpt><trkpt lat="43.205337736276405" lon="11.373705338938942"><ele>268.0</ele><time>2026-04-11T09:53:30Z</time></trkpt><trkpt lat="43.20526019919148" lon="11.373737678389679"><ele>268.0</ele><time>2026-04-11T09:53:31Z</time></trkpt><trkpt lat="43.20518000778714" lon="11.373749867245484"><ele>268.0</ele><time>2026-04-11T09:53:32Z</time></trkpt><trkpt lat="43.205105343684984" lon="11.373736767722775"><ele>268.0</ele><time>2026-04-11T09:53:33Z</time></trkpt><trkpt lat="43.20502811093833" lon="11.373752060523824"><ele>268.0</ele><time>2026-04-11T09:53:34Z</time></trkpt><trkpt lat="43.20493890922186" lon="11.373748745768076"><ele>268.0</ele><time>2026-04-11T09:53:35Z</time></trkpt><trkpt lat="43.20484311979057" lon="11.373741163892703"><ele>268.0</ele><time>2026-04-11T09:53:36Z</time></trkpt><trkpt lat="43.20475180643985" lon="11.373755582760648"><ele>268.0</ele><time>2026-04-11T09:53:37Z</time></trkpt><trkpt lat="43.20465782712691" lon="11.373769212828243"><ele>267.8333333333333</ele><time>2026-04-11T09:53:38Z</time></trkpt><trkpt lat="43.204568952895144" lon="11.373774116050033"><ele>267.66666666666663</ele><time>2026-04-11T09:53:39Z</time></trkpt><trkpt lat="43.20445317931536" lon="11.373790214257786"><ele>267.5</ele><time>2026-04-11T09:53:40Z</time></trkpt><trkpt lat="43.204389019031616" lon="11.373848723552245"><ele>267.3333333333333</ele><time>2026-04-11T09:53:42Z</time></trkpt><trkpt lat="43.20430624480808" lon="11.373886648001513"><ele>267.1666666666667</ele><time>2026-04-11T09:53:43Z</time></trkpt><trkpt lat="43.2042324978886" lon="11.373900706233135"><ele>267.0</ele><time>2026-04-11T09:53:44Z</time></trkpt><trkpt lat="43.204139869394496" lon="11.373952268718096"><ele>265.2</ele><time>2026-04-11T09:53:45Z</time></trkpt><trkpt lat="43.20404238376305" lon="11.373979823504706"><ele>263.4</ele><time>2026-04-11T09:53:46Z</time></trkpt><trkpt lat="43.20393927049429" lon="11.373995677823814"><ele>261.6</ele><time>2026-04-11T09:53:47Z</time></trkpt><trkpt lat="43.20385129736631" lon="11.374029812612255"><ele>259.8</ele><time>2026-04-11T09:53:48Z</time></trkpt><trkpt lat="43.20377183831665" lon="11.374065611667588"><ele>258.0</ele><time>2026-04-11T09:53:49Z</time></trkpt><trkpt lat="43.203696628679005" lon="11.374108185486676"><ele>258.0</ele><time>2026-04-11T09:53:50Z</time></trkpt><trkpt lat="43.20362731303295" lon="11.374154099685121"><ele>258.0</ele><time>2026-04-11T09:53:51Z</time></trkpt><trkpt lat="43.20355092566204" lon="11.374220748204563"><ele>258.0</ele><time>2026-04-11T09:53:52Z</time></trkpt><trkpt lat="43.203476679366645" lon="11.374290939020725"><ele>258.0</ele><time>2026-04-11T09:53:53Z</time></trkpt><trkpt lat="43.20341008881423" lon="11.374353133099207"><ele>258.0</ele><time>2026-04-11T09:53:54Z</time></trkpt><trkpt lat="43.20333726594974" lon="11.374407424062467"><ele>258.0</ele><time>2026-04-11T09:53:55Z</time></trkpt><trkpt lat="43.203260401451224" lon="11.374459446822547"><ele>257.99999999999994</ele><time>2026-04-11T09:53:56Z</time></trkpt><trkpt lat="43.203188375368335" lon="11.374493332129049"><ele>258.0</ele><time>2026-04-11T09:53:57Z</time></trkpt><trkpt lat="43.203115610343055" lon="11.374517047284474"><ele>258.0</ele><time>2026-04-11T09:53:58Z</time></trkpt><trkpt lat="43.20304481305404" lon="11.374536075716314"><ele>258.0</ele><time>2026-04-11T09:53:59Z</time></trkpt><trkpt lat="43.202980233081284" lon="11.374551420385647"><ele>258.0</ele><time>2026-04-11T09:54:00Z</time></trkpt><trkpt lat="43.20291440141362" lon="11.37456706250761"><ele>257.99999999999994</ele><time>2026-04-11T09:54:01Z</time></trkpt><trkpt lat="43.20284532573031" lon="11.374594861910909"><ele>258.0</ele><time>2026-04-11T09:54:02Z</time></trkpt><trkpt lat="43.20271133633772" lon="11.374622485450018"><ele>257.0</ele><time>2026-04-11T09:54:04Z</time></trkpt><trkpt lat="43.20263405743237" lon="11.374637658611283"><ele>256.0</ele><time>2026-04-11T09:54:05Z</time></trkpt><trkpt lat="43.202563854193265" lon="11.374667905161552"><ele>255.0</ele><time>2026-04-11T09:54:07Z</time></trkpt><trkpt lat="43.20246416058389" lon="11.374681458835402"><ele>254.0</ele><time>2026-04-11T09:54:09Z</time></trkpt><trkpt lat="43.202380586579864" lon="11.374709472771087"><ele>253.0</ele><time>2026-04-11T09:54:11Z</time></trkpt><trkpt lat="43.202314518916786" lon="11.374733059205871"><ele>252.0</ele><time>2026-04-11T09:54:13Z</time></trkpt><trkpt lat="43.202212319074675" lon="11.374742881730734"><ele>254.0</ele><time>2026-04-11T09:54:16Z</time></trkpt><trkpt lat="43.20214901099621" lon="11.374779825404975"><ele>256.0</ele><time>2026-04-11T09:54:18Z</time></trkpt><trkpt lat="43.20208590724959" lon="11.374779399367897"><ele>258.0</ele><time>2026-04-11T09:54:22Z</time></trkpt><trkpt lat="43.202018272844654" lon="11.374800153766543"><ele>260.0</ele><time>2026-04-11T09:54:26Z</time></trkpt><trkpt lat="43.20195113414918" lon="11.374823861818289"><ele>262.0</ele><time>2026-04-11T09:54:29Z</time></trkpt><trkpt lat="43.20188543007341" lon="11.374847966637494"><ele>264.0</ele><time>2026-04-11T09:54:33Z</time></trkpt><trkpt lat="43.20180330115693" lon="11.374884288330819"><ele>266.0</ele><time>2026-04-11T09:54:36Z</time></trkpt><trkpt lat="43.20173264701238" lon="11.374923012544254"><ele>266.0</ele><time>2026-04-11T09:54:39Z</time></trkpt><trkpt lat="43.201667578899574" lon="11.374965574022578"><ele>266.0</ele><time>2026-04-11T09:54:43Z</time></trkpt><trkpt lat="43.20160289008576" lon="11.37499210470684"><ele>266.0</ele><time>2026-04-11T09:54:47Z</time></trkpt><trkpt lat="43.201545275938216" lon="11.375060414616273"><ele>266.0</ele><time>2026-04-11T09:54:49Z</time></trkpt><trkpt lat="43.201471375125095" lon="11.375107237029736"><ele>266.0</ele><time>2026-04-11T09:54:52Z</time></trkpt><trkpt lat="43.20141377808797" lon="11.375148182586203"><ele>266.0</ele><time>2026-04-11T09:54:54Z</time></trkpt><trkpt lat="43.20134323897163" lon="11.37519832866228"><ele>266.0</ele><time>2026-04-11T09:54:58Z</time></trkpt><trkpt lat="43.20126125340321" lon="11.375256611965625"><ele>266.7142857142857</ele><time>2026-04-11T09:55:01Z</time></trkpt><trkpt lat="43.20119502277932" lon="11.375301830978522"><ele>267.42857142857144</ele><time>2026-04-11T09:55:05Z</time></trkpt><trkpt lat="43.201131385074206" lon="11.37534087040965"><ele>268.1428571428571</ele><time>2026-04-11T09:55:08Z</time></trkpt><trkpt lat="43.20105880808881" lon="11.375376499820039"><ele>268.8571428571429</ele><time>2026-04-11T09:55:12Z</time></trkpt><trkpt lat="43.20098454810033" lon="11.375403051508579"><ele>269.57142857142856</ele><time>2026-04-11T09:55:18Z</time></trkpt><trkpt lat="43.200916335248365" lon="11.37537125165434"><ele>270.2857142857143</ele><time>2026-04-11T09:55:21Z</time></trkpt><trkpt lat="43.20085205201522" lon="11.37535136400887"><ele>271.0</ele><time>2026-04-11T09:55:23Z</time></trkpt><trkpt lat="43.20076973169889" lon="11.375295133570502"><ele>271.0</ele><time>2026-04-11T09:55:25Z</time></trkpt><trkpt lat="43.200681094056606" lon="11.375242901871049"><ele>271.0</ele><time>2026-04-11T09:55:27Z</time></trkpt><trkpt lat="43.20059733628695" lon="11.375197253420811"><ele>271.0</ele><time>2026-04-11T09:55:29Z</time></trkpt><trkpt lat="43.20051771466514" lon="11.375141458828121"><ele>271.0</ele><time>2026-04-11T09:55:31Z</time></trkpt><trkpt lat="43.200442684147056" lon="11.375099772737407"><ele>271.0</ele><time>2026-04-11T09:55:33Z</time></trkpt><trkpt lat="43.20035670540541" lon="11.375028502688766"><ele>268.5</ele><time>2026-04-11T09:55:35Z</time></trkpt><trkpt lat="43.20027748826661" lon="11.37499203108547"><ele>266.0</ele><time>2026-04-11T09:55:37Z</time></trkpt><trkpt lat="43.20020022862856" lon="11.37497156008037"><ele>263.5</ele><time>2026-04-11T09:55:39Z</time></trkpt><trkpt lat="43.2001159025065" lon="11.374983184781552"><ele>261.0</ele><time>2026-04-11T09:55:41Z</time></trkpt><trkpt lat="43.200016615023216" lon="11.37503679724873"><ele>258.5</ele><time>2026-04-11T09:55:43Z</time></trkpt><trkpt lat="43.19997910713636" lon="11.375121090358192"><ele>256.0</ele><time>2026-04-11T09:55:44Z</time></trkpt><trkpt lat="43.19993849216532" lon="11.37520140330197"><ele>256.0</ele><time>2026-04-11T09:55:45Z</time></trkpt><trkpt lat="43.199899137683325" lon="11.375284473423832"><ele>255.99999999999997</ele><time>2026-04-11T09:55:46Z</time></trkpt><trkpt lat="43.1998599725469" lon="11.375366807100907"><ele>256.0</ele><time>2026-04-11T09:55:47Z</time></trkpt><trkpt lat="43.19981807889683" lon="11.375442843341261"><ele>256.0</ele><time>2026-04-11T09:55:48Z</time></trkpt><trkpt lat="43.199770914467635" lon="11.375513137798418"><ele>255.99999999999997</ele><time>2026-04-11T09:55:49Z</time></trkpt><trkpt lat="43.1997166233433" lon="11.375587741993478"><ele>256.0</ele><time>2026-04-11T09:55:50Z</time></trkpt><trkpt lat="43.19966624196801" lon="11.375653490911017"><ele>256.0</ele><time>2026-04-11T09:55:51Z</time></trkpt><trkpt lat="43.19960863224566" lon="11.375725911963533"><ele>254.28571428571428</ele><time>2026-04-11T09:55:52Z</time></trkpt><trkpt lat="43.19955506417" lon="11.375786768465089"><ele>252.57142857142856</ele><time>2026-04-11T09:55:53Z</time></trkpt><trkpt lat="43.199497746809165" lon="11.375851825806013"><ele>250.85714285714283</ele><time>2026-04-11T09:55:54Z</time></trkpt><trkpt lat="43.19943482115831" lon="11.375923333789427"><ele>249.1428571428571</ele><time>2026-04-11T09:55:55Z</time></trkpt><trkpt lat="43.19938190654468" lon="11.375983465303962"><ele>247.42857142857142</ele><time>2026-04-11T09:55:56Z</time></trkpt><trkpt lat="43.19933046292686" lon="11.37603665829572"><ele>245.71428571428567</ele><time>2026-04-11T09:55:57Z</time></trkpt><trkpt lat="43.199260737167315" lon="11.376094189186984"><ele>243.99999999999997</ele><time>2026-04-11T09:55:58Z</time></trkpt><trkpt lat="43.19918686426676" lon="11.376140640411462"><ele>244.0</ele><time>2026-04-11T09:55:59Z</time></trkpt><trkpt lat="43.19910884005877" lon="11.376170816438174"><ele>243.99999999999997</ele><time>2026-04-11T09:56:00Z</time></trkpt><trkpt lat="43.19902377440846" lon="11.376211896951101"><ele>243.99999999999997</ele><time>2026-04-11T09:56:01Z</time></trkpt><trkpt lat="43.1989378680659" lon="11.376227852082913"><ele>244.0</ele><time>2026-04-11T09:56:02Z</time></trkpt><trkpt lat="43.1988421393239" lon="11.376249029419036"><ele>244.0</ele><time>2026-04-11T09:56:03Z</time></trkpt><trkpt lat="43.19873722626265" lon="11.376260698260143"><ele>243.2</ele><time>2026-04-11T09:56:04Z</time></trkpt><trkpt lat="43.198641567484934" lon="11.376278903929899"><ele>242.39999999999998</ele><time>2026-04-11T09:56:05Z</time></trkpt><trkpt lat="43.19854779542648" lon="11.376313457214128"><ele>241.6</ele><time>2026-04-11T09:56:06Z</time></trkpt><trkpt lat="43.1984480189859" lon="11.376360393999645"><ele>240.8</ele><time>2026-04-11T09:56:07Z</time></trkpt><trkpt lat="43.19836345106477" lon="11.376418811036622"><ele>240.0</ele><time>2026-04-11T09:56:08Z</time></trkpt><trkpt lat="43.19828301553644" lon="11.376482494847089"><ele>240.0</ele><time>2026-04-11T09:56:09Z</time></trkpt><trkpt lat="43.1982109681924" lon="11.376556115367883"><ele>240.0</ele><time>2026-04-11T09:56:10Z</time></trkpt><trkpt lat="43.19814020959657" lon="11.376621245123474"><ele>240.0</ele><time>2026-04-11T09:56:11Z</time></trkpt><trkpt lat="43.19808119849432" lon="11.376687707052756"><ele>240.0</ele><time>2026-04-11T09:56:12Z</time></trkpt><trkpt lat="43.198025330972285" lon="11.376748775830432"><ele>240.0</ele><time>2026-04-11T09:56:13Z</time></trkpt><trkpt lat="43.19798163898447" lon="11.376821807830334"><ele>240.0</ele><time>2026-04-11T09:56:14Z</time></trkpt><trkpt lat="43.19791855740275" lon="11.376887670918356"><ele>240.0</ele><time>2026-04-11T09:56:15Z</time></trkpt><trkpt lat="43.19784933258788" lon="11.376943237240262"><ele>240.0</ele><time>2026-04-11T09:56:16Z</time></trkpt><trkpt lat="43.1977935038229" lon="11.377005633292027"><ele>240.0</ele><time>2026-04-11T09:56:17Z</time></trkpt><trkpt lat="43.19772851947159" lon="11.377031230810578"><ele>240.0</ele><time>2026-04-11T09:56:18Z</time></trkpt><trkpt lat="43.19766984484365" lon="11.377090428287206"><ele>240.0</ele><time>2026-04-11T09:56:19Z</time></trkpt><trkpt lat="43.19760108907261" lon="11.377131562467556"><ele>240.0</ele><time>2026-04-11T09:56:20Z</time></trkpt><trkpt lat="43.197543618673656" lon="11.37718045404794"><ele>240.0</ele><time>2026-04-11T09:56:21Z</time></trkpt><trkpt lat="43.197480590012354" lon="11.377227007282235"><ele>240.0</ele><time>2026-04-11T09:56:22Z</time></trkpt><trkpt lat="43.19741501755361" lon="11.377270652488946"><ele>240.0</ele><time>2026-04-11T09:56:23Z</time></trkpt><trkpt lat="43.19734543312799" lon="11.37731861503242"><ele>240.0</ele><time>2026-04-11T09:56:24Z</time></trkpt><trkpt lat="43.197278741173015" lon="11.377356811936371"><ele>240.0</ele><time>2026-04-11T09:56:25Z</time></trkpt><trkpt lat="43.197219727446345" lon="11.377393012480065"><ele>240.0</ele><time>2026-04-11T09:56:26Z</time></trkpt><trkpt lat="43.19715571835962" lon="11.377430172554684"><ele>240.0</ele><time>2026-04-11T09:56:27Z</time></trkpt><trkpt lat="43.19709226554101" lon="11.377467360350563"><ele>240.0</ele><time>2026-04-11T09:56:28Z</time></trkpt><trkpt lat="43.197028793745034" lon="11.377510601436729"><ele>238.85714285714286</ele><time>2026-04-11T09:56:29Z</time></trkpt><trkpt lat="43.19697130559739" lon="11.377552715166125"><ele>237.71428571428572</ele><time>2026-04-11T09:56:30Z</time></trkpt><trkpt lat="43.19690860183421" lon="11.377604597908476"><ele>236.57142857142858</ele><time>2026-04-11T09:56:31Z</time></trkpt><trkpt lat="43.19685048305289" lon="11.37764355423075"><ele>235.42857142857144</ele><time>2026-04-11T09:56:32Z</time></trkpt><trkpt lat="43.196791458647745" lon="11.377685801382558"><ele>234.28571428571428</ele><time>2026-04-11T09:56:33Z</time></trkpt><trkpt lat="43.196729691832076" lon="11.377732246672576"><ele>233.14285714285717</ele><time>2026-04-11T09:56:34Z</time></trkpt><trkpt lat="43.196671752219274" lon="11.377770990302675"><ele>232.00000000000003</ele><time>2026-04-11T09:56:35Z</time></trkpt><trkpt lat="43.19660674779762" lon="11.377799406912613"><ele>231.99999999999997</ele><time>2026-04-11T09:56:36Z</time></trkpt><trkpt lat="43.19654498706712" lon="11.377842403728716"><ele>232.0</ele><time>2026-04-11T09:56:37Z</time></trkpt><trkpt lat="43.196477400273544" lon="11.377889456483015"><ele>232.0</ele><time>2026-04-11T09:56:38Z</time></trkpt><trkpt lat="43.19641136938273" lon="11.377935426109875"><ele>232.0</ele><time>2026-04-11T09:56:39Z</time></trkpt><trkpt lat="43.19634286392263" lon="11.377983309794628"><ele>231.99999999999997</ele><time>2026-04-11T09:56:40Z</time></trkpt><trkpt lat="43.19627806584236" lon="11.378053652093419"><ele>232.0</ele><time>2026-04-11T09:56:41Z</time></trkpt><trkpt lat="43.19620863427994" lon="11.378099453882175"><ele>232.33333333333331</ele><time>2026-04-11T09:56:42Z</time></trkpt><trkpt lat="43.19612922610825" lon="11.37813136036028"><ele>232.66666666666666</ele><time>2026-04-11T09:56:43Z</time></trkpt><trkpt lat="43.196052878191466" lon="11.378179941166882"><ele>233.0</ele><time>2026-04-11T09:56:44Z</time></trkpt><trkpt lat="43.1959754503234" lon="11.378225711775512"><ele>233.33333333333331</ele><time>2026-04-11T09:56:45Z</time></trkpt><trkpt lat="43.19589863687352" lon="11.37826683827262"><ele>233.66666666666666</ele><time>2026-04-11T09:56:46Z</time></trkpt><trkpt lat="43.195812854593285" lon="11.37830987543981"><ele>234.0</ele><time>2026-04-11T09:56:47Z</time></trkpt><trkpt lat="43.195729547685104" lon="11.378369785668514"><ele>233.33333333333334</ele><time>2026-04-11T09:56:48Z</time></trkpt><trkpt lat="43.19565830548754" lon="11.378393648497111"><ele>232.66666666666669</ele><time>2026-04-11T09:56:49Z</time></trkpt><trkpt lat="43.19559482236979" lon="11.378406507186284"><ele>232.0</ele><time>2026-04-11T09:56:50Z</time></trkpt><trkpt lat="43.19554011539779" lon="11.378451349522347"><ele>231.33333333333334</ele><time>2026-04-11T09:56:51Z</time></trkpt><trkpt lat="43.19547473078851" lon="11.378473556944417"><ele>230.66666666666669</ele><time>2026-04-11T09:56:52Z</time></trkpt><trkpt lat="43.19536226516147" lon="11.378532756804733"><ele>230.0</ele><time>2026-04-11T09:56:54Z</time></trkpt><trkpt lat="43.19524824116708" lon="11.378594145161498"><ele>230.0</ele><time>2026-04-11T09:56:56Z</time></trkpt><trkpt lat="43.19515410157052" lon="11.378688954221646"><ele>230.0</ele><time>2026-04-11T09:56:58Z</time></trkpt><trkpt lat="43.19507375887955" lon="11.378785233942848"><ele>230.0</ele><time>2026-04-11T09:57:00Z</time></trkpt><trkpt lat="43.19499478880417" lon="11.378889016158196"><ele>230.0</ele><time>2026-04-11T09:57:02Z</time></trkpt><trkpt lat="43.19491906341596" lon="11.37899897144214"><ele>230.0</ele><time>2026-04-11T09:57:04Z</time></trkpt><trkpt lat="43.194853091619294" lon="11.379103396580227"><ele>229.50000000000003</ele><time>2026-04-11T09:57:06Z</time></trkpt><trkpt lat="43.19480721171159" lon="11.379220601262995"><ele>229.0</ele><time>2026-04-11T09:57:08Z</time></trkpt><trkpt lat="43.194757032596975" lon="11.379325959417706"><ele>228.5</ele><time>2026-04-11T09:57:10Z</time></trkpt><trkpt lat="43.194713392666195" lon="11.379425259821083"><ele>228.0</ele><time>2026-04-11T09:57:12Z</time></trkpt><trkpt lat="43.19467876197591" lon="11.379521883530233"><ele>227.50000000000003</ele><time>2026-04-11T09:57:14Z</time></trkpt><trkpt lat="43.19465502406165" lon="11.379639525662828"><ele>227.0</ele><time>2026-04-11T09:58:06Z</time></trkpt><trkpt lat="43.194636567448754" lon="11.379746262871324"><ele>227.00000000000003</ele><time>2026-04-11T09:58:08Z</time></trkpt><trkpt lat="43.19460696452963" lon="11.37989877728986"><ele>227.0</ele><time>2026-04-11T09:58:10Z</time></trkpt><trkpt lat="43.194590885579814" lon="11.379990854155729"><ele>227.0</ele><time>2026-04-11T09:58:11Z</time></trkpt><trkpt lat="43.19453382195789" lon="11.380084166138985"><ele>227.0</ele><time>2026-04-11T09:58:12Z</time></trkpt><trkpt lat="43.19452264917086" lon="11.380200581794751"><ele>227.00000000000003</ele><time>2026-04-11T09:58:13Z</time></trkpt><trkpt lat="43.19451365444783" lon="11.380319848035235"><ele>227.0</ele><time>2026-04-11T09:58:14Z</time></trkpt><trkpt lat="43.19450557502151" lon="11.380430404282684"><ele>227.14285714285717</ele><time>2026-04-11T09:58:15Z</time></trkpt><trkpt lat="43.19449674630039" lon="11.380541254573195"><ele>227.2857142857143</ele><time>2026-04-11T09:58:16Z</time></trkpt><trkpt lat="43.19448788646147" lon="11.380645182541379"><ele>227.42857142857144</ele><time>2026-04-11T09:58:17Z</time></trkpt><trkpt lat="43.194479159259316" lon="11.380747554411728"><ele>227.57142857142856</ele><time>2026-04-11T09:58:18Z</time></trkpt><trkpt lat="43.19446854702523" lon="11.380839558586818"><ele>227.7142857142857</ele><time>2026-04-11T09:58:19Z</time></trkpt><trkpt lat="43.19444806894909" lon="11.380928104031634"><ele>227.85714285714283</ele><time>2026-04-11T09:58:20Z</time></trkpt><trkpt lat="43.19442586540134" lon="11.381011814677962"><ele>228.0</ele><time>2026-04-11T09:58:21Z</time></trkpt><trkpt lat="43.19439827003284" lon="11.381097970134745"><ele>228.0</ele><time>2026-04-11T09:58:22Z</time></trkpt><trkpt lat="43.194369541630955" lon="11.381182616468642"><ele>227.99999999999997</ele><time>2026-04-11T09:58:23Z</time></trkpt><trkpt lat="43.194338662508834" lon="11.381272934492483"><ele>228.0</ele><time>2026-04-11T09:58:24Z</time></trkpt><trkpt lat="43.1943036606656" lon="11.381375310808547"><ele>228.0</ele><time>2026-04-11T09:58:25Z</time></trkpt><trkpt lat="43.19427452605315" lon="11.381459613083274"><ele>227.99999999999997</ele><time>2026-04-11T09:58:26Z</time></trkpt><trkpt lat="43.194241135716084" lon="11.381554434070592"><ele>228.0</ele><time>2026-04-11T09:58:27Z</time></trkpt><trkpt lat="43.194208633519246" lon="11.38164673280271"><ele>228.0</ele><time>2026-04-11T09:58:28Z</time></trkpt><trkpt lat="43.1941767279254" lon="11.381737337394192"><ele>228.0</ele><time>2026-04-11T09:58:29Z</time></trkpt><trkpt lat="43.194111540520495" lon="11.38192288345734"><ele>228.0</ele><time>2026-04-11T09:58:31Z</time></trkpt><trkpt lat="43.19407322779066" lon="11.382032166679402"><ele>228.0</ele><time>2026-04-11T09:58:32Z</time></trkpt><trkpt lat="43.19403390608757" lon="11.382144327942465"><ele>228.0</ele><time>2026-04-11T09:58:33Z</time></trkpt><trkpt lat="43.19399666448701" lon="11.382250555849094"><ele>228.0</ele><time>2026-04-11T09:58:34Z</time></trkpt><trkpt lat="43.19395756057559" lon="11.382362095843874"><ele>226.83333333333334</ele><time>2026-04-11T09:58:35Z</time></trkpt><trkpt lat="43.193920497579555" lon="11.382467779443129"><ele>225.66666666666669</ele><time>2026-04-11T09:58:36Z</time></trkpt><trkpt lat="43.19388215364514" lon="11.382576512539481"><ele>224.5</ele><time>2026-04-11T09:58:37Z</time></trkpt><trkpt lat="43.193846323181745" lon="11.38267811800051"><ele>223.33333333333334</ele><time>2026-04-11T09:58:38Z</time></trkpt><trkpt lat="43.193810155228455" lon="11.382780680719012"><ele>222.16666666666669</ele><time>2026-04-11T09:58:39Z</time></trkpt><trkpt lat="43.19377501503084" lon="11.382880328977308"><ele>221.0</ele><time>2026-04-11T09:58:40Z</time></trkpt><trkpt lat="43.193741113214585" lon="11.382976465356338"><ele>221.71428571428572</ele><time>2026-04-11T09:58:41Z</time></trkpt><trkpt lat="43.19371117971424" lon="11.383059918502868"><ele>222.42857142857144</ele><time>2026-04-11T09:58:42Z</time></trkpt><trkpt lat="43.193675472060875" lon="11.383149276508016"><ele>223.14285714285717</ele><time>2026-04-11T09:58:43Z</time></trkpt><trkpt lat="43.19363198314921" lon="11.383231749716424"><ele>223.85714285714286</ele><time>2026-04-11T09:58:44Z</time></trkpt><trkpt lat="43.19358488728548" lon="11.38330325773375"><ele>224.57142857142856</ele><time>2026-04-11T09:58:45Z</time></trkpt><trkpt lat="43.193543103781074" lon="11.38337454065649"><ele>225.2857142857143</ele><time>2026-04-11T09:58:46Z</time></trkpt><trkpt lat="43.193481575759456" lon="11.383420864448093"><ele>226.0</ele><time>2026-04-11T09:58:47Z</time></trkpt><trkpt lat="43.19341445896145" lon="11.38346379434896"><ele>225.99999999999997</ele><time>2026-04-11T09:58:48Z</time></trkpt><trkpt lat="43.19334247657591" lon="11.383492507813866"><ele>226.0</ele><time>2026-04-11T09:58:49Z</time></trkpt><trkpt lat="43.1932733066964" lon="11.383530042320185"><ele>226.0</ele><time>2026-04-11T09:58:50Z</time></trkpt><trkpt lat="43.19319770938835" lon="11.383573797264827"><ele>226.0</ele><time>2026-04-11T09:58:51Z</time></trkpt><trkpt lat="43.19312457548417" lon="11.383604898717174"><ele>225.99999999999997</ele><time>2026-04-11T09:58:52Z</time></trkpt><trkpt lat="43.19303950239107" lon="11.383641622602946"><ele>226.0</ele><time>2026-04-11T09:58:53Z</time></trkpt><trkpt lat="43.19295167900094" lon="11.383682308638457"><ele>225.60000000000002</ele><time>2026-04-11T09:58:54Z</time></trkpt><trkpt lat="43.192867382177724" lon="11.383734947118757"><ele>225.20000000000002</ele><time>2026-04-11T09:58:55Z</time></trkpt><trkpt lat="43.19278171742412" lon="11.38378460509228"><ele>224.79999999999998</ele><time>2026-04-11T09:58:56Z</time></trkpt><trkpt lat="43.192689419855036" lon="11.383830479021789"><ele>224.39999999999998</ele><time>2026-04-11T09:58:57Z</time></trkpt><trkpt lat="43.19259888031647" lon="11.383871369031988"><ele>224.0</ele><time>2026-04-11T09:58:58Z</time></trkpt><trkpt lat="43.19250610541933" lon="11.383902937896128"><ele>224.0</ele><time>2026-04-11T09:58:59Z</time></trkpt><trkpt lat="43.19240603832676" lon="11.383933560584865"><ele>223.99999999999997</ele><time>2026-04-11T09:59:00Z</time></trkpt><trkpt lat="43.19230368112811" lon="11.383950782581076"><ele>223.99999999999997</ele><time>2026-04-11T09:59:01Z</time></trkpt><trkpt lat="43.192202715237805" lon="11.383955271272589"><ele>224.0</ele><time>2026-04-11T09:59:02Z</time></trkpt><trkpt lat="43.19210351290512" lon="11.383954244602513"><ele>224.0</ele><time>2026-04-11T09:59:03Z</time></trkpt><trkpt lat="43.19201152610019" lon="11.383939843173442"><ele>224.16666666666669</ele><time>2026-04-11T09:59:04Z</time></trkpt><trkpt lat="43.19192469297366" lon="11.383925779150632"><ele>224.33333333333334</ele><time>2026-04-11T09:59:05Z</time></trkpt><trkpt lat="43.19183820163329" lon="11.383929442503327"><ele>224.5</ele><time>2026-04-11T09:59:06Z</time></trkpt><trkpt lat="43.191771532439155" lon="11.383980985061376"><ele>224.66666666666669</ele><time>2026-04-11T09:59:07Z</time></trkpt><trkpt lat="43.191698741057024" lon="11.384063958050302"><ele>224.83333333333334</ele><time>2026-04-11T09:59:08Z</time></trkpt><trkpt lat="43.19161146290176" lon="11.384133191470509"><ele>225.0</ele><time>2026-04-11T09:59:09Z</time></trkpt><trkpt lat="43.19155769341643" lon="11.384189092067183"><ele>225.0</ele><time>2026-04-11T09:59:10Z</time></trkpt><trkpt lat="43.1915116481014" lon="11.384254159705046"><ele>225.0</ele><time>2026-04-11T09:59:11Z</time></trkpt><trkpt lat="43.19145545099051" lon="11.384338963724252"><ele>225.0</ele><time>2026-04-11T09:59:12Z</time></trkpt><trkpt lat="43.19140623414932" lon="11.384413234255488"><ele>225.0</ele><time>2026-04-11T09:59:13Z</time></trkpt><trkpt lat="43.19135330371373" lon="11.384490836527702"><ele>225.0</ele><time>2026-04-11T09:59:14Z</time></trkpt><trkpt lat="43.191300142759566" lon="11.384565771062299"><ele>225.0</ele><time>2026-04-11T09:59:15Z</time></trkpt><trkpt lat="43.19124546091119" lon="11.384642849420104"><ele>225.5</ele><time>2026-04-11T09:59:16Z</time></trkpt><trkpt lat="43.191139726604774" lon="11.38478685096936"><ele>226.0</ele><time>2026-04-11T09:59:18Z</time></trkpt><trkpt lat="43.19108833097002" lon="11.384851175418978"><ele>226.5</ele><time>2026-04-11T09:59:19Z</time></trkpt><trkpt lat="43.19103099653757" lon="11.384917001284919"><ele>227.0</ele><time>2026-04-11T09:59:20Z</time></trkpt><trkpt lat="43.190978886009844" lon="11.38497270446483"><ele>227.5</ele><time>2026-04-11T09:59:21Z</time></trkpt><trkpt lat="43.19091177844479" lon="11.385040825934414"><ele>228.0</ele><time>2026-04-11T09:59:22Z</time></trkpt><trkpt lat="43.19085312105489" lon="11.385097664719451"><ele>228.0</ele><time>2026-04-11T09:59:23Z</time></trkpt><trkpt lat="43.190788633267054" lon="11.385157056979365"><ele>228.0</ele><time>2026-04-11T09:59:24Z</time></trkpt><trkpt lat="43.1907271419248" lon="11.385211365132404"><ele>228.0</ele><time>2026-04-11T09:59:25Z</time></trkpt><trkpt lat="43.190657132585024" lon="11.385268355600653"><ele>228.0</ele><time>2026-04-11T09:59:26Z</time></trkpt><trkpt lat="43.190593801468395" lon="11.385316797258737"><ele>228.0</ele><time>2026-04-11T09:59:27Z</time></trkpt><trkpt lat="43.190525508210115" lon="11.385361600797411"><ele>228.0</ele><time>2026-04-11T09:59:28Z</time></trkpt><trkpt lat="43.190456977009845" lon="11.385402608471011"><ele>228.66666666666666</ele><time>2026-04-11T09:59:29Z</time></trkpt><trkpt lat="43.19038641992112" lon="11.385439873444009"><ele>229.33333333333331</ele><time>2026-04-11T09:59:30Z</time></trkpt><trkpt lat="43.19031526036313" lon="11.385474378801925"><ele>230.0</ele><time>2026-04-11T09:59:31Z</time></trkpt><trkpt lat="43.19024520978698" lon="11.385506661852936"><ele>230.66666666666666</ele><time>2026-04-11T09:59:32Z</time></trkpt><trkpt lat="43.19016855859267" lon="11.385547374930697"><ele>231.33333333333331</ele><time>2026-04-11T09:59:33Z</time></trkpt><trkpt lat="43.19008360232677" lon="11.38558126801987"><ele>232.0</ele><time>2026-04-11T09:59:34Z</time></trkpt><trkpt lat="43.19000583512611" lon="11.385600559947136"><ele>230.5714285714286</ele><time>2026-04-11T09:59:35Z</time></trkpt><trkpt lat="43.18993213800779" lon="11.385619651359189"><ele>229.14285714285717</ele><time>2026-04-11T09:59:36Z</time></trkpt><trkpt lat="43.189858637053845" lon="11.385635352524643"><ele>227.71428571428572</ele><time>2026-04-11T09:59:37Z</time></trkpt><trkpt lat="43.189788558409084" lon="11.385655844242669"><ele>226.2857142857143</ele><time>2026-04-11T09:59:38Z</time></trkpt><trkpt lat="43.18971534021271" lon="11.385679631745239"><ele>224.8571428571429</ele><time>2026-04-11T09:59:39Z</time></trkpt><trkpt lat="43.18964468054359" lon="11.385699445358961"><ele>223.42857142857142</ele><time>2026-04-11T09:59:40Z</time></trkpt><trkpt lat="43.18957319940117" lon="11.385699306610858"><ele>222.0</ele><time>2026-04-11T09:59:41Z</time></trkpt><trkpt lat="43.18950604353411" lon="11.385714748762926"><ele>221.5</ele><time>2026-04-11T09:59:42Z</time></trkpt><trkpt lat="43.189440776381446" lon="11.385730714537887"><ele>221.0</ele><time>2026-04-11T09:59:43Z</time></trkpt><trkpt lat="43.18937821345327" lon="11.385768816078162"><ele>220.5</ele><time>2026-04-11T09:59:44Z</time></trkpt><trkpt lat="43.189254685984096" lon="11.385798652726159"><ele>220.0</ele><time>2026-04-11T09:59:46Z</time></trkpt><trkpt lat="43.18918898587787" lon="11.385793909002677"><ele>219.5</ele><time>2026-04-11T09:59:47Z</time></trkpt><trkpt lat="43.189126128849466" lon="11.385812124865517"><ele>219.0</ele><time>2026-04-11T09:59:48Z</time></trkpt><trkpt lat="43.18906096654905" lon="11.3858341444047"><ele>220.16666666666666</ele><time>2026-04-11T09:59:49Z</time></trkpt><trkpt lat="43.188995872783586" lon="11.385856140797852"><ele>221.33333333333331</ele><time>2026-04-11T09:59:50Z</time></trkpt><trkpt lat="43.188876556369635" lon="11.385893613857656"><ele>222.5</ele><time>2026-04-11T09:59:52Z</time></trkpt><trkpt lat="43.1887804578048" lon="11.385919421795549"><ele>223.66666666666666</ele><time>2026-04-11T09:59:54Z</time></trkpt><trkpt lat="43.18870941310856" lon="11.385933649586915"><ele>224.83333333333331</ele><time>2026-04-11T09:59:56Z</time></trkpt><trkpt lat="43.1886250596607" lon="11.385949806508313"><ele>226.0</ele><time>2026-04-11T09:59:59Z</time></trkpt><trkpt lat="43.18856207769085" lon="11.385938413017547"><ele>225.99999999999997</ele><time>2026-04-11T10:00:02Z</time></trkpt><trkpt lat="43.188489964853254" lon="11.385893323864446"><ele>226.0</ele><time>2026-04-11T10:00:05Z</time></trkpt><trkpt lat="43.18841300788835" lon="11.385862222830424"><ele>226.0</ele><time>2026-04-11T10:00:08Z</time></trkpt><trkpt lat="43.18834760811576" lon="11.385791263091406"><ele>226.0</ele><time>2026-04-11T10:00:12Z</time></trkpt><trkpt lat="43.188283817760876" lon="11.385759831404814"><ele>225.99999999999997</ele><time>2026-04-11T10:00:16Z</time></trkpt><trkpt lat="43.188222986135834" lon="11.385691582307063"><ele>226.0</ele><time>2026-04-11T10:00:20Z</time></trkpt><trkpt lat="43.188172591767845" lon="11.385638639684256"><ele>228.33333333333331</ele><time>2026-04-11T10:00:23Z</time></trkpt><trkpt lat="43.18811526477644" lon="11.385573623134952"><ele>230.66666666666666</ele><time>2026-04-11T10:00:27Z</time></trkpt><trkpt lat="43.188051443655674" lon="11.385517525474974"><ele>233.0</ele><time>2026-04-11T10:00:31Z</time></trkpt><trkpt lat="43.18797580127132" lon="11.385482578597571"><ele>235.33333333333331</ele><time>2026-04-11T10:00:35Z</time></trkpt><trkpt lat="43.1879185492305" lon="11.385442240783675"><ele>237.66666666666666</ele><time>2026-04-11T10:00:39Z</time></trkpt><trkpt lat="43.18783280127131" lon="11.385358437923502"><ele>240.0</ele><time>2026-04-11T10:00:43Z</time></trkpt><trkpt lat="43.18776875176957" lon="11.385363386033276"><ele>240.0</ele><time>2026-04-11T10:00:49Z</time></trkpt><trkpt lat="43.18770661101" lon="11.385334848865279"><ele>240.0</ele><time>2026-04-11T10:00:53Z</time></trkpt><trkpt lat="43.18764557873112" lon="11.385300277507476"><ele>240.0</ele><time>2026-04-11T10:00:57Z</time></trkpt><trkpt lat="43.187579645899184" lon="11.385286314015236"><ele>240.0</ele><time>2026-04-11T10:01:01Z</time></trkpt><trkpt lat="43.18751966770777" lon="11.385259699369549"><ele>240.0</ele><time>2026-04-11T10:01:05Z</time></trkpt><trkpt lat="43.18744857958534" lon="11.38526405660579"><ele>240.0</ele><time>2026-04-11T10:01:09Z</time></trkpt><trkpt lat="43.187373919580715" lon="11.385251084313321"><ele>240.0</ele><time>2026-04-11T10:01:13Z</time></trkpt><trkpt lat="43.187305585563514" lon="11.385229723270948"><ele>241.33333333333334</ele><time>2026-04-11T10:01:17Z</time></trkpt><trkpt lat="43.1872378146419" lon="11.385233816573672"><ele>242.66666666666669</ele><time>2026-04-11T10:01:21Z</time></trkpt><trkpt lat="43.1871580779963" lon="11.385234642244237"><ele>244.0</ele><time>2026-04-11T10:01:25Z</time></trkpt><trkpt lat="43.187087688486514" lon="11.385257364844412"><ele>245.33333333333334</ele><time>2026-04-11T10:01:29Z</time></trkpt><trkpt lat="43.18701262018315" lon="11.385275079172779"><ele>246.66666666666669</ele><time>2026-04-11T10:01:33Z</time></trkpt><trkpt lat="43.18692886059047" lon="11.38527588045116"><ele>248.0</ele><time>2026-04-11T10:01:37Z</time></trkpt><trkpt lat="43.186852742732846" lon="11.385292742649176"><ele>248.0</ele><time>2026-04-11T10:01:41Z</time></trkpt><trkpt lat="43.18677221376991" lon="11.385310582025813"><ele>248.00000000000003</ele><time>2026-04-11T10:01:45Z</time></trkpt><trkpt lat="43.186693244983296" lon="11.38532538100886"><ele>248.0</ele><time>2026-04-11T10:01:49Z</time></trkpt><trkpt lat="43.186629404486396" lon="11.385337030899375"><ele>248.0</ele><time>2026-04-11T10:01:52Z</time></trkpt><trkpt lat="43.18656058213044" lon="11.385349589900267"><ele>248.00000000000003</ele><time>2026-04-11T10:01:55Z</time></trkpt><trkpt lat="43.18649168392719" lon="11.385362162741716"><ele>248.0</ele><time>2026-04-11T10:01:58Z</time></trkpt><trkpt lat="43.186429037308784" lon="11.385371772060122"><ele>248.0</ele><time>2026-04-11T10:02:01Z</time></trkpt><trkpt lat="43.1863572148935" lon="11.385382098461587"><ele>249.14285714285717</ele><time>2026-04-11T10:02:04Z</time></trkpt><trkpt lat="43.18629148127128" lon="11.38539024988293"><ele>250.2857142857143</ele><time>2026-04-11T10:02:07Z</time></trkpt><trkpt lat="43.18621846499245" lon="11.385408350649962"><ele>251.42857142857144</ele><time>2026-04-11T10:02:10Z</time></trkpt><trkpt lat="43.18614691763794" lon="11.385415940323655"><ele>252.57142857142856</ele><time>2026-04-11T10:02:14Z</time></trkpt><trkpt lat="43.18607611775693" lon="11.385417726799226"><ele>253.7142857142857</ele><time>2026-04-11T10:02:18Z</time></trkpt><trkpt lat="43.18600164782356" lon="11.385415998845344"><ele>254.85714285714283</ele><time>2026-04-11T10:02:22Z</time></trkpt><trkpt lat="43.185923722460934" lon="11.385405143599487"><ele>256.0</ele><time>2026-04-11T10:02:26Z</time></trkpt><trkpt lat="43.185848761392144" lon="11.385405143600043"><ele>256.0</ele><time>2026-04-11T10:02:30Z</time></trkpt><trkpt lat="43.185779055824966" lon="11.385405143604267"><ele>255.99999999999997</ele><time>2026-04-11T10:02:34Z</time></trkpt><trkpt lat="43.18571321307587" lon="11.385404554219209"><ele>256.0</ele><time>2026-04-11T10:02:38Z</time></trkpt><trkpt lat="43.185645520882126" lon="11.385403725823506"><ele>256.0</ele><time>2026-04-11T10:02:42Z</time></trkpt><trkpt lat="43.18558016225748" lon="11.385396073216246"><ele>255.99999999999997</ele><time>2026-04-11T10:02:45Z</time></trkpt><trkpt lat="43.185503363724315" lon="11.38537857240185"><ele>256.0</ele><time>2026-04-11T10:02:50Z</time></trkpt><trkpt lat="43.185427218961465" lon="11.385360029538031"><ele>256.0</ele><time>2026-04-11T10:02:54Z</time></trkpt><trkpt lat="43.18537023086435" lon="11.385298853949278"><ele>257.57142857142856</ele><time>2026-04-11T10:02:58Z</time></trkpt><trkpt lat="43.18530820659535" lon="11.385263016366213"><ele>259.1428571428571</ele><time>2026-04-11T10:03:02Z</time></trkpt><trkpt lat="43.18526207250593" lon="11.38518122243895"><ele>260.7142857142857</ele><time>2026-04-11T10:03:06Z</time></trkpt><trkpt lat="43.18521514523732" lon="11.385121426343987"><ele>262.2857142857143</ele><time>2026-04-11T10:03:10Z</time></trkpt><trkpt lat="43.18515711024733" lon="11.385061052276821"><ele>263.8571428571429</ele><time>2026-04-11T10:03:14Z</time></trkpt><trkpt lat="43.185111670640524" lon="11.384991634620267"><ele>265.42857142857144</ele><time>2026-04-11T10:03:18Z</time></trkpt><trkpt lat="43.18506767884397" lon="11.384916296541371"><ele>267.0</ele><time>2026-04-11T10:03:22Z</time></trkpt><trkpt lat="43.185028669957056" lon="11.384843263348303"><ele>267.00000000000006</ele><time>2026-04-11T10:03:26Z</time></trkpt><trkpt lat="43.184981986085084" lon="11.384779059204188"><ele>267.0</ele><time>2026-04-11T10:03:30Z</time></trkpt><trkpt lat="43.1849304208138" lon="11.384706002292457"><ele>267.0</ele><time>2026-04-11T10:03:34Z</time></trkpt><trkpt lat="43.184878916540185" lon="11.3846303565841"><ele>267.0</ele><time>2026-04-11T10:03:38Z</time></trkpt><trkpt lat="43.18483224457711" lon="11.384562301738859"><ele>267.0</ele><time>2026-04-11T10:03:42Z</time></trkpt><trkpt lat="43.18478094416717" lon="11.384495340624866"><ele>267.00000000000006</ele><time>2026-04-11T10:03:46Z</time></trkpt><trkpt lat="43.1847270189642" lon="11.384434656694589"><ele>267.0</ele><time>2026-04-11T10:03:50Z</time></trkpt><trkpt lat="43.184663688918775" lon="11.384362324212281"><ele>268.3333333333333</ele><time>2026-04-11T10:03:55Z</time></trkpt><trkpt lat="43.1845933911745" lon="11.384295328250197"><ele>269.6666666666667</ele><time>2026-04-11T10:03:59Z</time></trkpt><trkpt lat="43.184524418222836" lon="11.384226879716488"><ele>271.0</ele><time>2026-04-11T10:04:03Z</time></trkpt><trkpt lat="43.1844685939914" lon="11.38417804359022"><ele>272.33333333333337</ele><time>2026-04-11T10:04:06Z</time></trkpt><trkpt lat="43.18439926944879" lon="11.384121838827268"><ele>273.6666666666667</ele><time>2026-04-11T10:04:10Z</time></trkpt><trkpt lat="43.1843378679925" lon="11.38405771800847"><ele>275.0</ele><time>2026-04-11T10:04:16Z</time></trkpt><trkpt lat="43.18428509599442" lon="11.384010380117681"><ele>275.0</ele><time>2026-04-11T10:04:19Z</time></trkpt><trkpt lat="43.184217394693654" lon="11.38397334755502"><ele>275.0</ele><time>2026-04-11T10:04:22Z</time></trkpt><trkpt lat="43.18416288836384" lon="11.383927736681127"><ele>275.0</ele><time>2026-04-11T10:04:25Z</time></trkpt><trkpt lat="43.184098799069616" lon="11.383878835721662"><ele>275.0</ele><time>2026-04-11T10:04:28Z</time></trkpt><trkpt lat="43.18402143332659" lon="11.383858461226582"><ele>275.0</ele><time>2026-04-11T10:04:31Z</time></trkpt><trkpt lat="43.18395053385107" lon="11.383833615500649"><ele>275.0</ele><time>2026-04-11T10:04:34Z</time></trkpt><trkpt lat="43.18386910976721" lon="11.383808941536234"><ele>275.0</ele><time>2026-04-11T10:04:38Z</time></trkpt><trkpt lat="43.18380483315377" lon="11.383778590921434"><ele>274.8571428571429</ele><time>2026-04-11T10:04:41Z</time></trkpt><trkpt lat="43.18373833254601" lon="11.383756232812816"><ele>274.7142857142857</ele><time>2026-04-11T10:04:45Z</time></trkpt><trkpt lat="43.18366940289995" lon="11.383728252382255"><ele>274.57142857142856</ele><time>2026-04-11T10:04:49Z</time></trkpt><trkpt lat="43.183599162517766" lon="11.38371297271382"><ele>274.42857142857144</ele><time>2026-04-11T10:04:53Z</time></trkpt><trkpt lat="43.18353447822633" lon="11.383693274966852"><ele>274.2857142857143</ele><time>2026-04-11T10:04:56Z</time></trkpt><trkpt lat="43.18346027701251" lon="11.383638887188665"><ele>274.14285714285717</ele><time>2026-04-11T10:04:59Z</time></trkpt><trkpt lat="43.183381622884035" lon="11.38362882597478"><ele>274.0</ele><time>2026-04-11T10:05:02Z</time></trkpt><trkpt lat="43.18332228737307" lon="11.383587760237383"><ele>274.0</ele><time>2026-04-11T10:05:04Z</time></trkpt><trkpt lat="43.18323787343237" lon="11.38354449993576"><ele>274.0</ele><time>2026-04-11T10:05:06Z</time></trkpt><trkpt lat="43.18312979592105" lon="11.383496643151119"><ele>274.0</ele><time>2026-04-11T10:05:08Z</time></trkpt><trkpt lat="43.183066965951106" lon="11.383475927370554"><ele>274.0</ele><time>2026-04-11T10:05:09Z</time></trkpt><trkpt lat="43.18300058395265" lon="11.383446279902426"><ele>274.0</ele><time>2026-04-11T10:05:10Z</time></trkpt><trkpt lat="43.182933451405255" lon="11.383416701161396"><ele>274.0</ele><time>2026-04-11T10:05:11Z</time></trkpt><trkpt lat="43.18286978739009" lon="11.383386743347264"><ele>273.5</ele><time>2026-04-11T10:05:12Z</time></trkpt><trkpt lat="43.18279664821334" lon="11.383331436236354"><ele>273.0</ele><time>2026-04-11T10:05:13Z</time></trkpt><trkpt lat="43.1827293843762" lon="11.383292262907169"><ele>272.5</ele><time>2026-04-11T10:05:14Z</time></trkpt><trkpt lat="43.18265373281916" lon="11.383261475794022"><ele>272.0</ele><time>2026-04-11T10:05:15Z</time></trkpt><trkpt lat="43.18258442325574" lon="11.383219959981325"><ele>271.5</ele><time>2026-04-11T10:05:16Z</time></trkpt><trkpt lat="43.18251442302829" lon="11.383184661446025"><ele>271.0</ele><time>2026-04-11T10:05:17Z</time></trkpt><trkpt lat="43.18243752790313" lon="11.383163487014876"><ele>271.0</ele><time>2026-04-11T10:05:18Z</time></trkpt><trkpt lat="43.18236528201669" lon="11.38314398397625"><ele>271.0</ele><time>2026-04-11T10:05:19Z</time></trkpt><trkpt lat="43.182296592656265" lon="11.383142682617404"><ele>271.0</ele><time>2026-04-11T10:05:20Z</time></trkpt><trkpt lat="43.18217202893383" lon="11.383116709367544"><ele>271.0</ele><time>2026-04-11T10:05:22Z</time></trkpt><trkpt lat="43.18205208121138" lon="11.383094862153337"><ele>271.0</ele><time>2026-04-11T10:05:24Z</time></trkpt><trkpt lat="43.181944726496816" lon="11.383053024227442"><ele>270.66666666666663</ele><time>2026-04-11T10:05:26Z</time></trkpt><trkpt lat="43.18184587504521" lon="11.383029958916861"><ele>270.3333333333333</ele><time>2026-04-11T10:05:28Z</time></trkpt><trkpt lat="43.18176224216883" lon="11.38300971524059"><ele>270.0</ele><time>2026-04-11T10:05:30Z</time></trkpt><trkpt lat="43.18168652037851" lon="11.38297629055426"><ele>269.6666666666667</ele><time>2026-04-11T10:05:32Z</time></trkpt><trkpt lat="43.181615280115956" lon="11.382969956172497"><ele>269.33333333333337</ele><time>2026-04-11T10:05:34Z</time></trkpt><trkpt lat="43.18154893092993" lon="11.382944012044037"><ele>269.0</ele><time>2026-04-11T10:05:36Z</time></trkpt><trkpt lat="43.18148599552309" lon="11.382950244018106"><ele>268.5</ele><time>2026-04-11T10:05:38Z</time></trkpt><trkpt lat="43.18140683086895" lon="11.382910804789903"><ele>268.0</ele><time>2026-04-11T10:05:41Z</time></trkpt><trkpt lat="43.18133657806849" lon="11.382896808593935"><ele>267.5</ele><time>2026-04-11T10:05:43Z</time></trkpt><trkpt lat="43.18123264536327" lon="11.3828671481188"><ele>267.0</ele><time>2026-04-11T10:05:46Z</time></trkpt><trkpt lat="43.18117070594469" lon="11.382841664865794"><ele>266.5</ele><time>2026-04-11T10:05:48Z</time></trkpt><trkpt lat="43.18109575323253" lon="11.382803631109777"><ele>266.0</ele><time>2026-04-11T10:05:50Z</time></trkpt><trkpt lat="43.18101155762189" lon="11.382746401775746"><ele>266.0</ele><time>2026-04-11T10:05:52Z</time></trkpt><trkpt lat="43.18091011703041" lon="11.382694327223156"><ele>266.0</ele><time>2026-04-11T10:05:54Z</time></trkpt><trkpt lat="43.180815117615865" lon="11.38266483068733"><ele>266.0</ele><time>2026-04-11T10:05:56Z</time></trkpt><trkpt lat="43.18075076041025" lon="11.382738285827813"><ele>266.0</ele><time>2026-04-11T10:05:57Z</time></trkpt><trkpt lat="43.18066445238094" lon="11.382826439378517"><ele>266.0</ele><time>2026-04-11T10:05:59Z</time></trkpt><trkpt lat="43.18057208875385" lon="11.382909228627511"><ele>266.0</ele><time>2026-04-11T10:06:01Z</time></trkpt><trkpt lat="43.18047827635691" lon="11.382980262517878"><ele>266.0</ele><time>2026-04-11T10:06:03Z</time></trkpt><trkpt lat="43.180380170943074" lon="11.383077502871965"><ele>266.0</ele><time>2026-04-11T10:06:05Z</time></trkpt><trkpt lat="43.180284002912884" lon="11.383172388975312"><ele>266.0</ele><time>2026-04-11T10:06:07Z</time></trkpt><trkpt lat="43.18019004976378" lon="11.383266155898983"><ele>266.0</ele><time>2026-04-11T10:06:09Z</time></trkpt><trkpt lat="43.18009785839589" lon="11.383342291619462"><ele>266.0</ele><time>2026-04-11T10:06:11Z</time></trkpt><trkpt lat="43.179993929805256" lon="11.383405785813546"><ele>266.0</ele><time>2026-04-11T10:06:13Z</time></trkpt><trkpt lat="43.179893036324586" lon="11.383480274326232"><ele>266.0</ele><time>2026-04-11T10:06:15Z</time></trkpt><trkpt lat="43.17979367849557" lon="11.383526417185097"><ele>266.0</ele><time>2026-04-11T10:06:17Z</time></trkpt><trkpt lat="43.17970577443121" lon="11.383572940219471"><ele>265.5</ele><time>2026-04-11T10:06:19Z</time></trkpt><trkpt lat="43.17963155714085" lon="11.38361752455453"><ele>265.0</ele><time>2026-04-11T10:06:21Z</time></trkpt><trkpt lat="43.179555476424056" lon="11.383639148498606"><ele>264.5</ele><time>2026-04-11T10:06:23Z</time></trkpt><trkpt lat="43.17947603268113" lon="11.383675497609268"><ele>264.0</ele><time>2026-04-11T10:06:25Z</time></trkpt><trkpt lat="43.17940004389447" lon="11.3837077957468"><ele>263.5</ele><time>2026-04-11T10:06:27Z</time></trkpt><trkpt lat="43.17934609763642" lon="11.383760341772042"><ele>263.0</ele><time>2026-04-11T10:06:53Z</time></trkpt><trkpt lat="43.17927851335973" lon="11.383805485331417"><ele>263.0</ele><time>2026-04-11T10:06:57Z</time></trkpt><trkpt lat="43.17920734629006" lon="11.383822156943209"><ele>263.0</ele><time>2026-04-11T10:06:59Z</time></trkpt><trkpt lat="43.17914173789665" lon="11.383858180675928"><ele>263.0</ele><time>2026-04-11T10:07:01Z</time></trkpt><trkpt lat="43.17906057390223" lon="11.38391698409269"><ele>263.0</ele><time>2026-04-11T10:07:03Z</time></trkpt><trkpt lat="43.178974521971966" lon="11.38396148431993"><ele>263.0</ele><time>2026-04-11T10:07:05Z</time></trkpt><trkpt lat="43.17887866846416" lon="11.38401873343234"><ele>263.0</ele><time>2026-04-11T10:07:07Z</time></trkpt><trkpt lat="43.17879725668243" lon="11.384071128635423"><ele>264.2</ele><time>2026-04-11T10:07:09Z</time></trkpt><trkpt lat="43.178715239308694" lon="11.384119467706629"><ele>265.4</ele><time>2026-04-11T10:07:11Z</time></trkpt><trkpt lat="43.17863180883784" lon="11.384216254456863"><ele>266.59999999999997</ele><time>2026-04-11T10:07:13Z</time></trkpt><trkpt lat="43.178558962832554" lon="11.384347198005356"><ele>267.8</ele><time>2026-04-11T10:07:15Z</time></trkpt><trkpt lat="43.17847486714281" lon="11.38445543081594"><ele>269.0</ele><time>2026-04-11T10:07:17Z</time></trkpt><trkpt lat="43.1784049778894" lon="11.38457183027625"><ele>269.0</ele><time>2026-04-11T10:07:19Z</time></trkpt><trkpt lat="43.17832250050241" lon="11.384678487538437"><ele>269.0</ele><time>2026-04-11T10:07:21Z</time></trkpt><trkpt lat="43.178234002327905" lon="11.384783324636516"><ele>269.0</ele><time>2026-04-11T10:07:23Z</time></trkpt><trkpt lat="43.17812189446823" lon="11.384867799181603"><ele>269.0</ele><time>2026-04-11T10:07:25Z</time></trkpt><trkpt lat="43.17807352542031" lon="11.384933087971165"><ele>269.0</ele><time>2026-04-11T10:07:26Z</time></trkpt><trkpt lat="43.17796357365631" lon="11.38500862898782"><ele>269.0</ele><time>2026-04-11T10:07:28Z</time></trkpt><trkpt lat="43.177854189108665" lon="11.385093175573198"><ele>269.0</ele><time>2026-04-11T10:07:30Z</time></trkpt><trkpt lat="43.17779857411046" lon="11.3851420319884"><ele>269.0</ele><time>2026-04-11T10:07:31Z</time></trkpt><trkpt lat="43.17770122920963" lon="11.385220938660666"><ele>269.0</ele><time>2026-04-11T10:07:33Z</time></trkpt><trkpt lat="43.177604237509456" lon="11.385299871234212"><ele>269.0</ele><time>2026-04-11T10:07:35Z</time></trkpt><trkpt lat="43.17750815266229" lon="11.385397999065237"><ele>269.0</ele><time>2026-04-11T10:07:37Z</time></trkpt><trkpt lat="43.17741644106329" lon="11.385501910959295"><ele>269.0</ele><time>2026-04-11T10:07:39Z</time></trkpt><trkpt lat="43.17732705563367" lon="11.385606902542984"><ele>269.0</ele><time>2026-04-11T10:07:41Z</time></trkpt><trkpt lat="43.17727996222908" lon="11.385687956820462"><ele>269.0</ele><time>2026-04-11T10:07:42Z</time></trkpt><trkpt lat="43.17724015216397" lon="11.385765278713766"><ele>269.0</ele><time>2026-04-11T10:07:43Z</time></trkpt><trkpt lat="43.177201315210446" lon="11.385851863450368"><ele>269.42857142857144</ele><time>2026-04-11T10:07:44Z</time></trkpt><trkpt lat="43.17716422394302" lon="11.385939713027591"><ele>269.8571428571429</ele><time>2026-04-11T10:07:45Z</time></trkpt><trkpt lat="43.177130621699135" lon="11.386021493710938"><ele>270.2857142857143</ele><time>2026-04-11T10:07:46Z</time></trkpt><trkpt lat="43.17709615958506" lon="11.386105367044564"><ele>270.7142857142857</ele><time>2026-04-11T10:07:47Z</time></trkpt><trkpt lat="43.177059772273495" lon="11.386189891264005"><ele>271.1428571428571</ele><time>2026-04-11T10:07:48Z</time></trkpt><trkpt lat="43.17702312077421" lon="11.386274665509605"><ele>271.57142857142856</ele><time>2026-04-11T10:07:49Z</time></trkpt><trkpt lat="43.17698787157522" lon="11.386362557820904"><ele>272.0</ele><time>2026-04-11T10:07:50Z</time></trkpt><trkpt lat="43.17696637824894" lon="11.386455527598049"><ele>271.99999999999994</ele><time>2026-04-11T10:07:51Z</time></trkpt><trkpt lat="43.17693216903072" lon="11.38654603095697"><ele>272.0</ele><time>2026-04-11T10:07:52Z</time></trkpt><trkpt lat="43.17688692157743" lon="11.38661318999126"><ele>272.0</ele><time>2026-04-11T10:07:53Z</time></trkpt><trkpt lat="43.17685173884071" lon="11.386700024831423"><ele>272.0</ele><time>2026-04-11T10:07:54Z</time></trkpt><trkpt lat="43.17682498494494" lon="11.386797788571727"><ele>272.0</ele><time>2026-04-11T10:07:55Z</time></trkpt><trkpt lat="43.176786822253675" lon="11.386877547536372"><ele>271.99999999999994</ele><time>2026-04-11T10:07:56Z</time></trkpt><trkpt lat="43.1767599554134" lon="11.386960667104702"><ele>272.0</ele><time>2026-04-11T10:07:57Z</time></trkpt><trkpt lat="43.176698901422164" lon="11.38711592192154"><ele>271.6</ele><time>2026-04-11T10:07:59Z</time></trkpt><trkpt lat="43.17666364747305" lon="11.387189572955528"><ele>271.2</ele><time>2026-04-11T10:08:00Z</time></trkpt><trkpt lat="43.17660015382583" lon="11.38733791107507"><ele>270.8</ele><time>2026-04-11T10:08:02Z</time></trkpt><trkpt lat="43.17656467542441" lon="11.387416049850067"><ele>270.4</ele><time>2026-04-11T10:08:03Z</time></trkpt><trkpt lat="43.176513139733586" lon="11.387548355303428"><ele>270.0</ele><time>2026-04-11T10:08:05Z</time></trkpt><trkpt lat="43.17645820548142" lon="11.387674642094304"><ele>270.8</ele><time>2026-04-11T10:08:07Z</time></trkpt><trkpt lat="43.17638769039296" lon="11.387797032202695"><ele>271.6</ele><time>2026-04-11T10:08:09Z</time></trkpt><trkpt lat="43.17630231040784" lon="11.387903072638705"><ele>272.4</ele><time>2026-04-11T10:08:11Z</time></trkpt><trkpt lat="43.17622327936417" lon="11.388007862678057"><ele>273.2</ele><time>2026-04-11T10:08:13Z</time></trkpt><trkpt lat="43.17617519870839" lon="11.388067258576505"><ele>274.0</ele><time>2026-04-11T10:08:14Z</time></trkpt><trkpt lat="43.176094863734214" lon="11.388144819147655"><ele>274.0</ele><time>2026-04-11T10:08:16Z</time></trkpt><trkpt lat="43.17600344096854" lon="11.388218390502471"><ele>274.0</ele><time>2026-04-11T10:08:18Z</time></trkpt><trkpt lat="43.175912987441684" lon="11.38828366278708"><ele>274.0</ele><time>2026-04-11T10:08:20Z</time></trkpt><trkpt lat="43.17581877071211" lon="11.388335650347875"><ele>274.0</ele><time>2026-04-11T10:08:22Z</time></trkpt><trkpt lat="43.17572430117177" lon="11.388378851065054"><ele>274.0</ele><time>2026-04-11T10:08:24Z</time></trkpt><trkpt lat="43.17561375556851" lon="11.388426059513828"><ele>273.8333333333333</ele><time>2026-04-11T10:08:26Z</time></trkpt><trkpt lat="43.175522984950206" lon="11.388462232942084"><ele>273.66666666666663</ele><time>2026-04-11T10:08:28Z</time></trkpt><trkpt lat="43.17542710205339" lon="11.388507395681527"><ele>273.5</ele><time>2026-04-11T10:08:30Z</time></trkpt><trkpt lat="43.1753424864588" lon="11.388546523651565"><ele>273.3333333333333</ele><time>2026-04-11T10:08:32Z</time></trkpt><trkpt lat="43.17526656229241" lon="11.388581553771267"><ele>273.1666666666667</ele><time>2026-04-11T10:08:34Z</time></trkpt><trkpt lat="43.17519148419077" lon="11.388612765127906"><ele>273.0</ele><time>2026-04-11T10:08:36Z</time></trkpt><trkpt lat="43.175121185426825" lon="11.388654118609244"><ele>273.0</ele><time>2026-04-11T10:08:38Z</time></trkpt><trkpt lat="43.17504449816127" lon="11.38868163990691"><ele>273.0</ele><time>2026-04-11T10:08:40Z</time></trkpt><trkpt lat="43.1749684227912" lon="11.388711146153204"><ele>273.0</ele><time>2026-04-11T10:08:42Z</time></trkpt><trkpt lat="43.17489498631965" lon="11.388746969709906"><ele>273.0</ele><time>2026-04-11T10:08:44Z</time></trkpt><trkpt lat="43.174820935956106" lon="11.388775732233027"><ele>273.0</ele><time>2026-04-11T10:08:46Z</time></trkpt><trkpt lat="43.174744189313806" lon="11.388810611029973"><ele>273.0</ele><time>2026-04-11T10:08:48Z</time></trkpt><trkpt lat="43.1746714089994" lon="11.388842325540304"><ele>274.0</ele><time>2026-04-11T10:08:50Z</time></trkpt><trkpt lat="43.17459821256555" lon="11.388879685494599"><ele>275.0</ele><time>2026-04-11T10:08:52Z</time></trkpt><trkpt lat="43.17452010150916" lon="11.388909153272804"><ele>276.0</ele><time>2026-04-11T10:08:54Z</time></trkpt><trkpt lat="43.17444166154457" lon="11.388941273650941"><ele>277.0</ele><time>2026-04-11T10:08:56Z</time></trkpt><trkpt lat="43.17436685056818" lon="11.388978271033311"><ele>278.0</ele><time>2026-04-11T10:08:58Z</time></trkpt><trkpt lat="43.1742955106928" lon="11.389011036790126"><ele>279.0</ele><time>2026-04-11T10:09:00Z</time></trkpt><trkpt lat="43.17422953500054" lon="11.389036412065375"><ele>279.0</ele><time>2026-04-11T10:09:02Z</time></trkpt><trkpt lat="43.17416400057494" lon="11.389081316207303"><ele>279.0</ele><time>2026-04-11T10:09:04Z</time></trkpt><trkpt lat="43.17409840792077" lon="11.389107953460714"><ele>279.0</ele><time>2026-04-11T10:09:06Z</time></trkpt><trkpt lat="43.17402686895302" lon="11.38915724463479"><ele>279.0</ele><time>2026-04-11T10:09:09Z</time></trkpt><trkpt lat="43.17395181624449" lon="11.389228411245696"><ele>279.0</ele><time>2026-04-11T10:09:12Z</time></trkpt><trkpt lat="43.173891334411195" lon="11.389297206248338"><ele>279.0</ele><time>2026-04-11T10:09:14Z</time></trkpt><trkpt lat="43.17383411455666" lon="11.389364131732357"><ele>280.1666666666667</ele><time>2026-04-11T10:09:16Z</time></trkpt><trkpt lat="43.173787970609105" lon="11.389425133401"><ele>281.3333333333333</ele><time>2026-04-11T10:09:18Z</time></trkpt><trkpt lat="43.173729193120074" lon="11.389521877035707"><ele>282.5</ele><time>2026-04-11T10:09:21Z</time></trkpt><trkpt lat="43.17366189761693" lon="11.389635177360287"><ele>283.66666666666663</ele><time>2026-04-11T10:09:24Z</time></trkpt><trkpt lat="43.173616994721066" lon="11.389713772145225"><ele>284.8333333333333</ele><time>2026-04-11T10:09:26Z</time></trkpt><trkpt lat="43.173574634435724" lon="11.389781190427465"><ele>286.0</ele><time>2026-04-11T10:09:28Z</time></trkpt><trkpt lat="43.17351717664258" lon="11.389873450197767"><ele>286.0</ele><time>2026-04-11T10:09:31Z</time></trkpt><trkpt lat="43.1734680805589" lon="11.389947092494802"><ele>286.0</ele><time>2026-04-11T10:09:33Z</time></trkpt><trkpt lat="43.173379747249754" lon="11.39006188710601"><ele>286.0</ele><time>2026-04-11T10:09:35Z</time></trkpt><trkpt lat="43.17332674157188" lon="11.390137113833323"><ele>286.0</ele><time>2026-04-11T10:09:39Z</time></trkpt><trkpt lat="43.173285125044444" lon="11.390207057804"><ele>286.0</ele><time>2026-04-11T10:09:42Z</time></trkpt><trkpt lat="43.17324491749359" lon="11.390294257867783"><ele>286.0</ele><time>2026-04-11T10:09:45Z</time></trkpt><trkpt lat="43.17320450972015" lon="11.390368568075875"><ele>288.0</ele><time>2026-04-11T10:09:48Z</time></trkpt><trkpt lat="43.173135875795296" lon="11.390430544012354"><ele>290.0</ele><time>2026-04-11T10:09:52Z</time></trkpt><trkpt lat="43.17309048246409" lon="11.390506228101623"><ele>292.0</ele><time>2026-04-11T10:09:54Z</time></trkpt><trkpt lat="43.1730287671994" lon="11.390587919291741"><ele>294.0</ele><time>2026-04-11T10:09:57Z</time></trkpt><trkpt lat="43.17296366468416" lon="11.390648252811939"><ele>296.0</ele><time>2026-04-11T10:10:00Z</time></trkpt><trkpt lat="43.1728886986741" lon="11.390707935985656"><ele>298.0</ele><time>2026-04-11T10:10:04Z</time></trkpt><trkpt lat="43.172822829131896" lon="11.390735287142125"><ele>298.0</ele><time>2026-04-11T10:10:08Z</time></trkpt><trkpt lat="43.17275943753953" lon="11.390767458371235"><ele>298.0</ele><time>2026-04-11T10:10:11Z</time></trkpt><trkpt lat="43.17267376082365" lon="11.39080368224759"><ele>298.0</ele><time>2026-04-11T10:10:16Z</time></trkpt><trkpt lat="43.17259258254774" lon="11.390827693073891"><ele>298.0</ele><time>2026-04-11T10:10:20Z</time></trkpt><trkpt lat="43.172531111335374" lon="11.390857333569855"><ele>298.0</ele><time>2026-04-11T10:10:23Z</time></trkpt><trkpt lat="43.172462325198566" lon="11.39087389489702"><ele>298.0</ele><time>2026-04-11T10:10:27Z</time></trkpt><trkpt lat="43.17238225493471" lon="11.390911883023561"><ele>299.16666666666663</ele><time>2026-04-11T10:10:31Z</time></trkpt><trkpt lat="43.17229797228482" lon="11.390968927942382"><ele>300.3333333333333</ele><time>2026-04-11T10:10:35Z</time></trkpt><trkpt lat="43.1722305088153" lon="11.391020861457111"><ele>301.5</ele><time>2026-04-11T10:10:38Z</time></trkpt><trkpt lat="43.17215969922681" lon="11.391059261578759"><ele>302.6666666666667</ele><time>2026-04-11T10:10:41Z</time></trkpt><trkpt lat="43.172096574853484" lon="11.39109443445636"><ele>303.83333333333337</ele><time>2026-04-11T10:10:44Z</time></trkpt><trkpt lat="43.17203515577585" lon="11.39112909362047"><ele>305.0</ele><time>2026-04-11T10:10:47Z</time></trkpt><trkpt lat="43.1719729302404" lon="11.391165022941765"><ele>305.0</ele><time>2026-04-11T10:10:51Z</time></trkpt><trkpt lat="43.17191210112805" lon="11.391204016090562"><ele>305.0</ele><time>2026-04-11T10:10:53Z</time></trkpt><trkpt lat="43.171833459044954" lon="11.391224206742185"><ele>305.0</ele><time>2026-04-11T10:10:57Z</time></trkpt><trkpt lat="43.17176104283905" lon="11.391254065992968"><ele>305.0</ele><time>2026-04-11T10:11:01Z</time></trkpt><trkpt lat="43.17168336705641" lon="11.391272027485831"><ele>305.0</ele><time>2026-04-11T10:11:04Z</time></trkpt><trkpt lat="43.17161022903569" lon="11.391286869743041"><ele>305.0</ele><time>2026-04-11T10:11:06Z</time></trkpt><trkpt lat="43.17153121036596" lon="11.391289657502243"><ele>304.4</ele><time>2026-04-11T10:11:08Z</time></trkpt><trkpt lat="43.17144325978427" lon="11.391303802839065"><ele>303.8</ele><time>2026-04-11T10:11:10Z</time></trkpt><trkpt lat="43.17133840561511" lon="11.391316958601308"><ele>303.2</ele><time>2026-04-11T10:11:12Z</time></trkpt><trkpt lat="43.17123763902289" lon="11.391287500532945"><ele>302.6</ele><time>2026-04-11T10:11:14Z</time></trkpt><trkpt lat="43.1711449087657" lon="11.391244955127908"><ele>302.0</ele><time>2026-04-11T10:11:16Z</time></trkpt><trkpt lat="43.171069804094714" lon="11.391198723791629"><ele>302.00000000000006</ele><time>2026-04-11T10:11:18Z</time></trkpt><trkpt lat="43.1710009705774" lon="11.391162042882254"><ele>302.0</ele><time>2026-04-11T10:11:20Z</time></trkpt><trkpt lat="43.170931138071445" lon="11.391125244678749"><ele>302.0</ele><time>2026-04-11T10:11:22Z</time></trkpt><trkpt lat="43.170871400221216" lon="11.391083397051691"><ele>302.0</ele><time>2026-04-11T10:11:24Z</time></trkpt><trkpt lat="43.170789761145365" lon="11.39104016627156"><ele>302.0</ele><time>2026-04-11T10:11:27Z</time></trkpt><trkpt lat="43.17072900705506" lon="11.391014243526516"><ele>302.00000000000006</ele><time>2026-04-11T10:11:29Z</time></trkpt><trkpt lat="43.170664575177966" lon="11.390981552039626"><ele>302.0</ele><time>2026-04-11T10:11:31Z</time></trkpt><trkpt lat="43.17059383884634" lon="11.390948380715843"><ele>302.0</ele><time>2026-04-11T10:11:33Z</time></trkpt><trkpt lat="43.170526617214016" lon="11.390901319661607"><ele>302.0</ele><time>2026-04-11T10:11:35Z</time></trkpt><trkpt lat="43.17045377100362" lon="11.390840673661096"><ele>302.0</ele><time>2026-04-11T10:11:37Z</time></trkpt><trkpt lat="43.17036689351077" lon="11.390780193626851"><ele>302.0</ele><time>2026-04-11T10:11:39Z</time></trkpt><trkpt lat="43.17026513448182" lon="11.39069881299042"><ele>302.0</ele><time>2026-04-11T10:11:41Z</time></trkpt><trkpt lat="43.17016153217746" lon="11.390606459593256"><ele>302.0</ele><time>2026-04-11T10:11:43Z</time></trkpt><trkpt lat="43.1701049197462" lon="11.390556439031489"><ele>302.0</ele><time>2026-04-11T10:11:44Z</time></trkpt><trkpt lat="43.17004287638397" lon="11.390505575257192"><ele>302.0</ele><time>2026-04-11T10:11:45Z</time></trkpt><trkpt lat="43.169978533670026" lon="11.390452103325039"><ele>302.0</ele><time>2026-04-11T10:11:46Z</time></trkpt><trkpt lat="43.169913414813344" lon="11.390394039624171"><ele>302.0</ele><time>2026-04-11T10:11:47Z</time></trkpt><trkpt lat="43.169841042541144" lon="11.390336025711129"><ele>302.0</ele><time>2026-04-11T10:11:48Z</time></trkpt><trkpt lat="43.169768554652" lon="11.390268565572605"><ele>299.6</ele><time>2026-04-11T10:11:49Z</time></trkpt><trkpt lat="43.16969315536746" lon="11.390213209809728"><ele>297.2</ele><time>2026-04-11T10:11:50Z</time></trkpt><trkpt lat="43.16961157044069" lon="11.390163742200565"><ele>294.8</ele><time>2026-04-11T10:11:51Z</time></trkpt><trkpt lat="43.16952303360533" lon="11.39011839795933"><ele>292.4</ele><time>2026-04-11T10:11:52Z</time></trkpt><trkpt lat="43.16943215307028" lon="11.390083689225795"><ele>290.0</ele><time>2026-04-11T10:11:53Z</time></trkpt><trkpt lat="43.16934641837685" lon="11.390039787724078"><ele>290.0</ele><time>2026-04-11T10:11:54Z</time></trkpt><trkpt lat="43.16923546685882" lon="11.390017430304587"><ele>290.0</ele><time>2026-04-11T10:11:55Z</time></trkpt><trkpt lat="43.16914604708654" lon="11.389992217492898"><ele>290.0</ele><time>2026-04-11T10:11:56Z</time></trkpt><trkpt lat="43.1690659606173" lon="11.389983355756177"><ele>290.0</ele><time>2026-04-11T10:11:57Z</time></trkpt><trkpt lat="43.16899313692629" lon="11.38998014004086"><ele>290.0</ele><time>2026-04-11T10:11:58Z</time></trkpt><trkpt lat="43.168926707772265" lon="11.38997785029623"><ele>290.0</ele><time>2026-04-11T10:11:59Z</time></trkpt><trkpt lat="43.16885184681151" lon="11.389986714555683"><ele>288.1666666666667</ele><time>2026-04-11T10:12:00Z</time></trkpt><trkpt lat="43.16877385805987" lon="11.389974399401499"><ele>286.33333333333337</ele><time>2026-04-11T10:12:01Z</time></trkpt><trkpt lat="43.16869447063046" lon="11.389948776901756"><ele>284.5</ele><time>2026-04-11T10:12:02Z</time></trkpt><trkpt lat="43.16860640578016" lon="11.389936045756501"><ele>282.6666666666667</ele><time>2026-04-11T10:12:03Z</time></trkpt><trkpt lat="43.168512562894556" lon="11.389928503179005"><ele>280.8333333333333</ele><time>2026-04-11T10:12:04Z</time></trkpt><trkpt lat="43.16841626933304" lon="11.389917361653431"><ele>279.0</ele><time>2026-04-11T10:12:05Z</time></trkpt><trkpt lat="43.16831508040433" lon="11.389905160314157"><ele>279.0</ele><time>2026-04-11T10:12:06Z</time></trkpt><trkpt lat="43.1682094661337" lon="11.38990013352901"><ele>279.0</ele><time>2026-04-11T10:12:07Z</time></trkpt><trkpt lat="43.16810373243962" lon="11.389893688610753"><ele>279.0</ele><time>2026-04-11T10:12:08Z</time></trkpt><trkpt lat="43.1679946529511" lon="11.389884060002872"><ele>279.0</ele><time>2026-04-11T10:12:09Z</time></trkpt><trkpt lat="43.16788437702059" lon="11.38987240775725"><ele>279.0</ele><time>2026-04-11T10:12:10Z</time></trkpt><trkpt lat="43.16776949826289" lon="11.38986485860988"><ele>277.75</ele><time>2026-04-11T10:12:11Z</time></trkpt><trkpt lat="43.16765343759214" lon="11.389854609499924"><ele>276.5</ele><time>2026-04-11T10:12:12Z</time></trkpt><trkpt lat="43.167533373137026" lon="11.389843996745878"><ele>275.25</ele><time>2026-04-11T10:12:13Z</time></trkpt><trkpt lat="43.16741277477638" lon="11.389838098887804"><ele>274.0</ele><time>2026-04-11T10:12:14Z</time></trkpt><trkpt lat="43.16729193239319" lon="11.389832075360486"><ele>274.0</ele><time>2026-04-11T10:12:15Z</time></trkpt><trkpt lat="43.16717349486971" lon="11.389833172967723"><ele>274.0</ele><time>2026-04-11T10:12:16Z</time></trkpt><trkpt lat="43.16705937107665" lon="11.389838523077472"><ele>274.0</ele><time>2026-04-11T10:12:17Z</time></trkpt><trkpt lat="43.1669469686007" lon="11.389863228624526"><ele>274.0</ele><time>2026-04-11T10:12:18Z</time></trkpt><trkpt lat="43.166839453798914" lon="11.389904919230155"><ele>274.0</ele><time>2026-04-11T10:12:19Z</time></trkpt><trkpt lat="43.166739716859624" lon="11.389959565579986"><ele>274.0</ele><time>2026-04-11T10:12:20Z</time></trkpt><trkpt lat="43.16664830387501" lon="11.390030105920518"><ele>274.0</ele><time>2026-04-11T10:12:21Z</time></trkpt><trkpt lat="43.16655398433577" lon="11.39009138535993"><ele>274.0</ele><time>2026-04-11T10:12:22Z</time></trkpt><trkpt lat="43.166475997589714" lon="11.390183356754322"><ele>274.0</ele><time>2026-04-11T10:12:23Z</time></trkpt><trkpt lat="43.166404384307135" lon="11.390288137926918"><ele>274.5</ele><time>2026-04-11T10:12:24Z</time></trkpt><trkpt lat="43.16634061616455" lon="11.390392041870816"><ele>275.0</ele><time>2026-04-11T10:12:25Z</time></trkpt><trkpt lat="43.16628442803355" lon="11.390481269837853"><ele>275.5</ele><time>2026-04-11T10:12:26Z</time></trkpt><trkpt lat="43.16622780066032" lon="11.390565822611302"><ele>276.0</ele><time>2026-04-11T10:12:27Z</time></trkpt><trkpt lat="43.16615531003887" lon="11.390613299284832"><ele>276.5</ele><time>2026-04-11T10:12:28Z</time></trkpt><trkpt lat="43.16608720339753" lon="11.390664288420652"><ele>277.0</ele><time>2026-04-11T10:12:29Z</time></trkpt><trkpt lat="43.1660182695897" lon="11.39071044251444"><ele>276.5</ele><time>2026-04-11T10:12:30Z</time></trkpt><trkpt lat="43.16595076267526" lon="11.390748167616175"><ele>276.0</ele><time>2026-04-11T10:12:31Z</time></trkpt><trkpt lat="43.165877996363434" lon="11.390774711949286"><ele>275.5</ele><time>2026-04-11T10:12:32Z</time></trkpt><trkpt lat="43.16581590254451" lon="11.390801340578014"><ele>275.0</ele><time>2026-04-11T10:12:33Z</time></trkpt><trkpt lat="43.165750625561444" lon="11.390826928849329"><ele>274.5</ele><time>2026-04-11T10:12:34Z</time></trkpt><trkpt lat="43.165629352865366" lon="11.390852186389608"><ele>274.0</ele><time>2026-04-11T10:12:36Z</time></trkpt><trkpt lat="43.16556715107498" lon="11.390868774509164"><ele>274.0</ele><time>2026-04-11T10:12:37Z</time></trkpt><trkpt lat="43.16544201864526" lon="11.39090178921666"><ele>274.0</ele><time>2026-04-11T10:12:39Z</time></trkpt><trkpt lat="43.165380216876336" lon="11.390921622154742"><ele>274.0</ele><time>2026-04-11T10:12:40Z</time></trkpt><trkpt lat="43.165317610654434" lon="11.390938109647646"><ele>274.0</ele><time>2026-04-11T10:12:41Z</time></trkpt><trkpt lat="43.165196647342185" lon="11.390966051717907"><ele>274.0</ele><time>2026-04-11T10:12:43Z</time></trkpt><trkpt lat="43.16508710424493" lon="11.391000928512488"><ele>274.0</ele><time>2026-04-11T10:12:45Z</time></trkpt><trkpt lat="43.164999093993266" lon="11.391036704018527"><ele>274.0</ele><time>2026-04-11T10:12:47Z</time></trkpt><trkpt lat="43.164909590616375" lon="11.391065767735617"><ele>274.0</ele><time>2026-04-11T10:12:49Z</time></trkpt><trkpt lat="43.16482051902079" lon="11.391080389963756"><ele>274.0</ele><time>2026-04-11T10:12:51Z</time></trkpt><trkpt lat="43.164739943408925" lon="11.391096308431527"><ele>274.0</ele><time>2026-04-11T10:12:53Z</time></trkpt><trkpt lat="43.16466589636236" lon="11.391116230426222"><ele>274.0</ele><time>2026-04-11T10:12:55Z</time></trkpt><trkpt lat="43.16459285052234" lon="11.391136452610109"><ele>274.16666666666663</ele><time>2026-04-11T10:12:57Z</time></trkpt><trkpt lat="43.16451584109761" lon="11.391153845617174"><ele>274.3333333333333</ele><time>2026-04-11T10:12:59Z</time></trkpt><trkpt lat="43.164431978398724" lon="11.391180467691715"><ele>274.5</ele><time>2026-04-11T10:13:01Z</time></trkpt><trkpt lat="43.16435228048656" lon="11.391197032508897"><ele>274.6666666666667</ele><time>2026-04-11T10:13:03Z</time></trkpt><trkpt lat="43.16427403397977" lon="11.391208350924956"><ele>274.83333333333337</ele><time>2026-04-11T10:13:05Z</time></trkpt><trkpt lat="43.16419827011075" lon="11.391225529176472"><ele>275.0</ele><time>2026-04-11T10:13:07Z</time></trkpt><trkpt lat="43.164122420766326" lon="11.391243793231085"><ele>275.0</ele><time>2026-04-11T10:13:09Z</time></trkpt><trkpt lat="43.164043968716975" lon="11.391262586488159"><ele>275.0</ele><time>2026-04-11T10:13:11Z</time></trkpt><trkpt lat="43.16397004671945" lon="11.391276590259478"><ele>275.0</ele><time>2026-04-11T10:13:13Z</time></trkpt><trkpt lat="43.16389565070454" lon="11.391293486642743"><ele>275.0</ele><time>2026-04-11T10:13:15Z</time></trkpt><trkpt lat="43.1638224243404" lon="11.39131725068449"><ele>275.0</ele><time>2026-04-11T10:13:17Z</time></trkpt><trkpt lat="43.16374822255213" lon="11.391337469353115"><ele>275.0</ele><time>2026-04-11T10:13:19Z</time></trkpt><trkpt lat="43.163674829541634" lon="11.391357601265675"><ele>275.2857142857143</ele><time>2026-04-11T10:13:21Z</time></trkpt><trkpt lat="43.163600310332406" lon="11.39137722977813"><ele>275.57142857142856</ele><time>2026-04-11T10:13:23Z</time></trkpt><trkpt lat="43.16352710936994" lon="11.391389424902671"><ele>275.85714285714283</ele><time>2026-04-11T10:13:25Z</time></trkpt><trkpt lat="43.16345315764808" lon="11.391398686231227"><ele>276.1428571428571</ele><time>2026-04-11T10:13:27Z</time></trkpt><trkpt lat="43.16338365247625" lon="11.39141429239512"><ele>276.4285714285714</ele><time>2026-04-11T10:13:29Z</time></trkpt><trkpt lat="43.16331534738869" lon="11.391429313816094"><ele>276.7142857142857</ele><time>2026-04-11T10:13:31Z</time></trkpt><trkpt lat="43.16324574964333" lon="11.391447373899823"><ele>277.0</ele><time>2026-04-11T10:13:33Z</time></trkpt><trkpt lat="43.16317546160936" lon="11.391462950155002"><ele>277.7142857142857</ele><time>2026-04-11T10:13:35Z</time></trkpt><trkpt lat="43.16310516155289" lon="11.39148120078103"><ele>278.4285714285714</ele><time>2026-04-11T10:13:37Z</time></trkpt><trkpt lat="43.16303975881286" lon="11.391498230694737"><ele>279.1428571428571</ele><time>2026-04-11T10:13:39Z</time></trkpt><trkpt lat="43.16297320784562" lon="11.391514280580504"><ele>279.85714285714283</ele><time>2026-04-11T10:13:41Z</time></trkpt><trkpt lat="43.16290552120553" lon="11.391531988447987"><ele>280.57142857142856</ele><time>2026-04-11T10:13:43Z</time></trkpt><trkpt lat="43.16283825170468" lon="11.391544700826948"><ele>281.2857142857143</ele><time>2026-04-11T10:13:45Z</time></trkpt><trkpt lat="43.162768182530606" lon="11.39155246693921"><ele>282.0</ele><time>2026-04-11T10:13:47Z</time></trkpt><trkpt lat="43.16270184177056" lon="11.391565966346834"><ele>282.0</ele><time>2026-04-11T10:13:49Z</time></trkpt><trkpt lat="43.16263642911417" lon="11.391575753553973"><ele>282.0</ele><time>2026-04-11T10:13:51Z</time></trkpt><trkpt lat="43.16256967859799" lon="11.391583864928842"><ele>282.0</ele><time>2026-04-11T10:13:53Z</time></trkpt><trkpt lat="43.162503351562414" lon="11.391596090073486"><ele>282.0</ele><time>2026-04-11T10:13:55Z</time></trkpt><trkpt lat="43.16244057460311" lon="11.39160349890369"><ele>282.0</ele><time>2026-04-11T10:13:57Z</time></trkpt><trkpt lat="43.16237344794567" lon="11.391610731226292"><ele>282.0</ele><time>2026-04-11T10:13:59Z</time></trkpt><trkpt lat="43.162306532844745" lon="11.391620256129013"><ele>282.0</ele><time>2026-04-11T10:14:01Z</time></trkpt><trkpt lat="43.16223846530714" lon="11.391629713386477"><ele>282.6666666666667</ele><time>2026-04-11T10:14:03Z</time></trkpt><trkpt lat="43.16216899756592" lon="11.391643135073494"><ele>283.3333333333333</ele><time>2026-04-11T10:14:05Z</time></trkpt><trkpt lat="43.162097412521135" lon="11.391662679986943"><ele>284.0</ele><time>2026-04-11T10:14:07Z</time></trkpt><trkpt lat="43.16201970372249" lon="11.391691746091151"><ele>284.66666666666663</ele><time>2026-04-11T10:14:09Z</time></trkpt><trkpt lat="43.16193957965471" lon="11.391732912934334"><ele>285.3333333333333</ele><time>2026-04-11T10:14:11Z</time></trkpt><trkpt lat="43.16187563250324" lon="11.391786785336286"><ele>286.0</ele><time>2026-04-11T10:14:13Z</time></trkpt><trkpt lat="43.16180547333024" lon="11.391834251220283"><ele>286.0</ele><time>2026-04-11T10:14:15Z</time></trkpt><trkpt lat="43.161745691953215" lon="11.391942518948357"><ele>286.0</ele><time>2026-04-11T10:14:17Z</time></trkpt><trkpt lat="43.16169899430449" lon="11.392049492573369"><ele>286.0</ele><time>2026-04-11T10:14:19Z</time></trkpt><trkpt lat="43.16165545527642" lon="11.39217871399149"><ele>286.0</ele><time>2026-04-11T10:14:21Z</time></trkpt><trkpt lat="43.16161915411848" lon="11.392307019776933"><ele>286.0</ele><time>2026-04-11T10:14:23Z</time></trkpt><trkpt lat="43.161579104589954" lon="11.392448574167844"><ele>285.0</ele><time>2026-04-11T10:14:25Z</time></trkpt><trkpt lat="43.1615365226023" lon="11.39259292921774"><ele>284.0</ele><time>2026-04-11T10:14:27Z</time></trkpt><trkpt lat="43.16148622816845" lon="11.392736946089205"><ele>283.0</ele><time>2026-04-11T10:14:29Z</time></trkpt><trkpt lat="43.161415505182276" lon="11.392858175227595"><ele>282.0</ele><time>2026-04-11T10:14:31Z</time></trkpt><trkpt lat="43.16133737825158" lon="11.392972507308299"><ele>281.5</ele><time>2026-04-11T10:14:33Z</time></trkpt><trkpt lat="43.16121891828278" lon="11.393039015391578"><ele>281.0</ele><time>2026-04-11T10:14:35Z</time></trkpt><trkpt lat="43.16115617816414" lon="11.393070761501145"><ele>280.5</ele><time>2026-04-11T10:14:36Z</time></trkpt><trkpt lat="43.16109352276114" lon="11.39310315181456"><ele>280.0</ele><time>2026-04-11T10:14:37Z</time></trkpt><trkpt lat="43.16102812142232" lon="11.393133384723567"><ele>279.5</ele><time>2026-04-11T10:14:38Z</time></trkpt><trkpt lat="43.16096215366737" lon="11.393158660009744"><ele>279.0</ele><time>2026-04-11T10:14:39Z</time></trkpt><trkpt lat="43.160896441738494" lon="11.393188953705474"><ele>278.99999999999994</ele><time>2026-04-11T10:14:40Z</time></trkpt><trkpt lat="43.16082800501616" lon="11.393221139030045"><ele>279.0</ele><time>2026-04-11T10:14:41Z</time></trkpt><trkpt lat="43.1607597924538" lon="11.393251135241377"><ele>279.0</ele><time>2026-04-11T10:14:42Z</time></trkpt><trkpt lat="43.16068441279851" lon="11.39327834822191"><ele>279.0</ele><time>2026-04-11T10:14:43Z</time></trkpt><trkpt lat="43.160615225525326" lon="11.393306583974107"><ele>279.0</ele><time>2026-04-11T10:14:44Z</time></trkpt><trkpt lat="43.160547992955884" lon="11.393338113711179"><ele>278.99999999999994</ele><time>2026-04-11T10:14:45Z</time></trkpt><trkpt lat="43.160479111073286" lon="11.393364698938438"><ele>279.0</ele><time>2026-04-11T10:14:46Z</time></trkpt><trkpt lat="43.16041025350345" lon="11.393395360062733"><ele>278.71428571428567</ele><time>2026-04-11T10:14:47Z</time></trkpt><trkpt lat="43.16034205220051" lon="11.393425288450212"><ele>278.42857142857144</ele><time>2026-04-11T10:14:48Z</time></trkpt><trkpt lat="43.16027328874819" lon="11.393456325316155"><ele>278.1428571428571</ele><time>2026-04-11T10:14:49Z</time></trkpt><trkpt lat="43.16020218774499" lon="11.393489281328721"><ele>277.85714285714283</ele><time>2026-04-11T10:14:50Z</time></trkpt><trkpt lat="43.16013244298207" lon="11.39352147587563"><ele>277.57142857142856</ele><time>2026-04-11T10:14:51Z</time></trkpt><trkpt lat="43.160062761300914" lon="11.39354998983926"><ele>277.2857142857143</ele><time>2026-04-11T10:14:52Z</time></trkpt><trkpt lat="43.159997140445356" lon="11.393588020747492"><ele>277.0</ele><time>2026-04-11T10:14:53Z</time></trkpt><trkpt lat="43.15992975685439" lon="11.393624626594415"><ele>276.85714285714283</ele><time>2026-04-11T10:14:54Z</time></trkpt><trkpt lat="43.15986646244704" lon="11.393658800705069"><ele>276.71428571428567</ele><time>2026-04-11T10:14:55Z</time></trkpt><trkpt lat="43.159804029649905" lon="11.393690767692389"><ele>276.57142857142856</ele><time>2026-04-11T10:14:56Z</time></trkpt><trkpt lat="43.15974687952011" lon="11.393727824337438"><ele>276.42857142857144</ele><time>2026-04-11T10:14:57Z</time></trkpt><trkpt lat="43.15969014298382" lon="11.39376588510133"><ele>276.28571428571433</ele><time>2026-04-11T10:14:58Z</time></trkpt><trkpt lat="43.15963431152698" lon="11.393806276356838"><ele>276.14285714285717</ele><time>2026-04-11T10:14:59Z</time></trkpt><trkpt lat="43.15953037979818" lon="11.393896529383918"><ele>276.0</ele><time>2026-04-11T10:15:01Z</time></trkpt><trkpt lat="43.15942973507675" lon="11.393995479900099"><ele>276.0</ele><time>2026-04-11T10:15:03Z</time></trkpt><trkpt lat="43.159378021411456" lon="11.394048032852576"><ele>276.0</ele><time>2026-04-11T10:15:04Z</time></trkpt><trkpt lat="43.159324232352745" lon="11.394101340745596"><ele>276.0</ele><time>2026-04-11T10:15:05Z</time></trkpt><trkpt lat="43.15927407139819" lon="11.394162864167816"><ele>276.0</ele><time>2026-04-11T10:15:06Z</time></trkpt><trkpt lat="43.159219738853274" lon="11.39422795760662"><ele>276.0</ele><time>2026-04-11T10:15:07Z</time></trkpt><trkpt lat="43.15916775047516" lon="11.394295539236008"><ele>276.0</ele><time>2026-04-11T10:15:08Z</time></trkpt><trkpt lat="43.15911660529493" lon="11.394358807700073"><ele>276.0</ele><time>2026-04-11T10:15:09Z</time></trkpt><trkpt lat="43.1590724965929" lon="11.394429198111993"><ele>276.42857142857144</ele><time>2026-04-11T10:15:10Z</time></trkpt><trkpt lat="43.159023214029894" lon="11.394501157548351"><ele>276.8571428571429</ele><time>2026-04-11T10:15:11Z</time></trkpt><trkpt lat="43.158967171136354" lon="11.394564311991607"><ele>277.2857142857143</ele><time>2026-04-11T10:15:12Z</time></trkpt><trkpt lat="43.1589271170694" lon="11.394651881294186"><ele>277.7142857142857</ele><time>2026-04-11T10:15:13Z</time></trkpt><trkpt lat="43.15888395751126" lon="11.394734515687091"><ele>278.1428571428571</ele><time>2026-04-11T10:15:14Z</time></trkpt><trkpt lat="43.15884080384754" lon="11.394821713563289"><ele>278.57142857142856</ele><time>2026-04-11T10:15:15Z</time></trkpt><trkpt lat="43.15880237027863" lon="11.394911365203672"><ele>279.0</ele><time>2026-04-11T10:15:16Z</time></trkpt><trkpt lat="43.158771017202774" lon="11.395004187461714"><ele>278.99999999999994</ele><time>2026-04-11T10:15:17Z</time></trkpt><trkpt lat="43.158747701874134" lon="11.395098365791137"><ele>279.0</ele><time>2026-04-11T10:15:18Z</time></trkpt><trkpt lat="43.15872685501904" lon="11.395191005812862"><ele>279.0</ele><time>2026-04-11T10:15:19Z</time></trkpt><trkpt lat="43.158710635046255" lon="11.395279157700767"><ele>279.0</ele><time>2026-04-11T10:15:20Z</time></trkpt><trkpt lat="43.15869632322673" lon="11.39536880986934"><ele>279.0</ele><time>2026-04-11T10:15:21Z</time></trkpt><trkpt lat="43.158686659082676" lon="11.395459385523651"><ele>278.99999999999994</ele><time>2026-04-11T10:15:22Z</time></trkpt><trkpt lat="43.1586799927361" lon="11.395548918702891"><ele>279.0</ele><time>2026-04-11T10:15:23Z</time></trkpt><trkpt lat="43.15867620250063" lon="11.39563815774008"><ele>279.0</ele><time>2026-04-11T10:15:24Z</time></trkpt><trkpt lat="43.15867158090215" lon="11.395813201345666"><ele>279.0</ele><time>2026-04-11T10:15:26Z</time></trkpt><trkpt lat="43.15866926132396" lon="11.395903534509717"><ele>279.0</ele><time>2026-04-11T10:15:27Z</time></trkpt><trkpt lat="43.15866796558675" lon="11.395992213833528"><ele>279.0</ele><time>2026-04-11T10:15:28Z</time></trkpt><trkpt lat="43.15866557018266" lon="11.396156153588176"><ele>279.0</ele><time>2026-04-11T10:15:30Z</time></trkpt><trkpt lat="43.15866331269999" lon="11.396310653970223"><ele>279.1666666666667</ele><time>2026-04-11T10:15:32Z</time></trkpt><trkpt lat="43.158661011963595" lon="11.396468114570629"><ele>279.3333333333333</ele><time>2026-04-11T10:15:34Z</time></trkpt><trkpt lat="43.15865860491609" lon="11.396633293006868"><ele>279.5</ele><time>2026-04-11T10:15:36Z</time></trkpt><trkpt lat="43.15865739910035" lon="11.39672729424488"><ele>279.66666666666663</ele><time>2026-04-11T10:15:37Z</time></trkpt><trkpt lat="43.15865625354183" lon="11.396816598101358"><ele>279.8333333333333</ele><time>2026-04-11T10:15:38Z</time></trkpt><trkpt lat="43.15865502595114" lon="11.396912296687074"><ele>280.0</ele><time>2026-04-11T10:15:39Z</time></trkpt><trkpt lat="43.15865388407135" lon="11.397001313625989"><ele>280.0</ele><time>2026-04-11T10:15:40Z</time></trkpt><trkpt lat="43.15865273598503" lon="11.397090814560572"><ele>280.0</ele><time>2026-04-11T10:15:41Z</time></trkpt><trkpt lat="43.15865180241746" lon="11.397184344079172"><ele>280.0</ele><time>2026-04-11T10:15:42Z</time></trkpt><trkpt lat="43.15865210500218" lon="11.397275664423226"><ele>280.0</ele><time>2026-04-11T10:15:43Z</time></trkpt><trkpt lat="43.15865242961187" lon="11.397373631162864"><ele>280.0</ele><time>2026-04-11T10:15:44Z</time></trkpt><trkpt lat="43.15865274569067" lon="11.39746902382128"><ele>280.0</ele><time>2026-04-11T10:15:45Z</time></trkpt><trkpt lat="43.15865581459648" lon="11.39756180473894"><ele>280.0</ele><time>2026-04-11T10:15:46Z</time></trkpt><trkpt lat="43.158659904544976" lon="11.397652843732436"><ele>280.0</ele><time>2026-04-11T10:15:47Z</time></trkpt><trkpt lat="43.15868189765287" lon="11.397738467234069"><ele>280.0</ele><time>2026-04-11T10:15:48Z</time></trkpt><trkpt lat="43.15868944616453" lon="11.397827544582945"><ele>280.0</ele><time>2026-04-11T10:15:49Z</time></trkpt><trkpt lat="43.15869668153341" lon="11.397913579484444"><ele>280.0</ele><time>2026-04-11T10:15:50Z</time></trkpt><trkpt lat="43.158715625929716" lon="11.398083190855768"><ele>280.0</ele><time>2026-04-11T10:15:52Z</time></trkpt><trkpt lat="43.158754634891935" lon="11.3982093280004"><ele>280.0</ele><time>2026-04-11T10:15:54Z</time></trkpt><trkpt lat="43.15877364072106" lon="11.398351967592177"><ele>280.4</ele><time>2026-04-11T10:15:56Z</time></trkpt><trkpt lat="43.158805401548584" lon="11.398480834874736"><ele>280.8</ele><time>2026-04-11T10:15:58Z</time></trkpt><trkpt lat="43.15883534265177" lon="11.398604321018443"><ele>281.2</ele><time>2026-04-11T10:16:00Z</time></trkpt><trkpt lat="43.158863025864655" lon="11.398728436446694"><ele>281.6</ele><time>2026-04-11T10:16:02Z</time></trkpt><trkpt lat="43.158897226131636" lon="11.398840384178115"><ele>282.0</ele><time>2026-04-11T10:16:04Z</time></trkpt><trkpt lat="43.15890582187436" lon="11.398959896245627"><ele>282.3333333333333</ele><time>2026-04-11T10:16:06Z</time></trkpt><trkpt lat="43.15892198650044" lon="11.399086346553101"><ele>282.6666666666667</ele><time>2026-04-11T10:16:08Z</time></trkpt><trkpt lat="43.15892650294777" lon="11.399200074018442"><ele>283.0</ele><time>2026-04-11T10:16:10Z</time></trkpt><trkpt lat="43.158914394074486" lon="11.399309594914222"><ele>283.33333333333337</ele><time>2026-04-11T10:16:12Z</time></trkpt><trkpt lat="43.15888697481691" lon="11.399407127663231"><ele>283.6666666666667</ele><time>2026-04-11T10:16:14Z</time></trkpt><trkpt lat="43.15884584661133" lon="11.399495308809916"><ele>284.0</ele><time>2026-04-11T10:16:16Z</time></trkpt><trkpt lat="43.15878388873552" lon="11.39956659510034"><ele>284.0</ele><time>2026-04-11T10:16:18Z</time></trkpt><trkpt lat="43.158719574270044" lon="11.399607524493636"><ele>284.0</ele><time>2026-04-11T10:16:20Z</time></trkpt><trkpt lat="43.1586473315003" lon="11.399622660378"><ele>284.0</ele><time>2026-04-11T10:16:22Z</time></trkpt><trkpt lat="43.158564752417014" lon="11.399610264976904"><ele>284.0</ele><time>2026-04-11T10:16:24Z</time></trkpt><trkpt lat="43.15848962801619" lon="11.399597431958608"><ele>284.0</ele><time>2026-04-11T10:16:26Z</time></trkpt><trkpt lat="43.15841557218615" lon="11.399587085184724"><ele>284.0</ele><time>2026-04-11T10:16:28Z</time></trkpt><trkpt lat="43.15833874065376" lon="11.399588021501259"><ele>284.0</ele><time>2026-04-11T10:16:30Z</time></trkpt><trkpt lat="43.15826051269603" lon="11.399588504407525"><ele>284.0</ele><time>2026-04-11T10:16:32Z</time></trkpt><trkpt lat="43.15818917391981" lon="11.399602400979365"><ele>284.0</ele><time>2026-04-11T10:16:34Z</time></trkpt><trkpt lat="43.15811131160781" lon="11.399622529649463"><ele>284.0</ele><time>2026-04-11T10:16:36Z</time></trkpt><trkpt lat="43.15803452702789" lon="11.399646417916196"><ele>284.0</ele><time>2026-04-11T10:16:38Z</time></trkpt><trkpt lat="43.157964053709804" lon="11.399682202212785"><ele>284.0</ele><time>2026-04-11T10:16:40Z</time></trkpt><trkpt lat="43.15789738601793" lon="11.3997331927737"><ele>284.85714285714283</ele><time>2026-04-11T10:16:42Z</time></trkpt><trkpt lat="43.15783582059881" lon="11.399790397287902"><ele>285.71428571428567</ele><time>2026-04-11T10:16:44Z</time></trkpt><trkpt lat="43.1577758780296" lon="11.399846446272347"><ele>286.57142857142856</ele><time>2026-04-11T10:16:46Z</time></trkpt><trkpt lat="43.15772250317808" lon="11.39990505409571"><ele>287.42857142857144</ele><time>2026-04-11T10:16:48Z</time></trkpt><trkpt lat="43.15766014232238" lon="11.399957988995826"><ele>288.28571428571433</ele><time>2026-04-11T10:16:50Z</time></trkpt><trkpt lat="43.15759511439256" lon="11.400005139839935"><ele>289.14285714285717</ele><time>2026-04-11T10:16:52Z</time></trkpt><trkpt lat="43.15753465729828" lon="11.400051112552955"><ele>290.0</ele><time>2026-04-11T10:16:54Z</time></trkpt><trkpt lat="43.15746441472569" lon="11.400098427288144"><ele>290.0</ele><time>2026-04-11T10:16:56Z</time></trkpt><trkpt lat="43.157392066711694" lon="11.40012596671257"><ele>290.0</ele><time>2026-04-11T10:16:58Z</time></trkpt><trkpt lat="43.15731932269453" lon="11.40014298112776"><ele>290.0</ele><time>2026-04-11T10:17:00Z</time></trkpt><trkpt lat="43.15724333092795" lon="11.400158535661268"><ele>290.0</ele><time>2026-04-11T10:17:02Z</time></trkpt><trkpt lat="43.157175707803425" lon="11.40014540157914"><ele>290.0</ele><time>2026-04-11T10:17:05Z</time></trkpt><trkpt lat="43.15711078059265" lon="11.40009344790257"><ele>290.0</ele><time>2026-04-11T10:17:08Z</time></trkpt><trkpt lat="43.15703553032865" lon="11.400088421169514"><ele>290.0</ele><time>2026-04-11T10:17:10Z</time></trkpt><trkpt lat="43.15693665481883" lon="11.400068581149496"><ele>290.8</ele><time>2026-04-11T10:17:12Z</time></trkpt><trkpt lat="43.156826472093385" lon="11.400008762399889"><ele>291.6</ele><time>2026-04-11T10:17:16Z</time></trkpt><trkpt lat="43.15674968285714" lon="11.399992165249122"><ele>292.4</ele><time>2026-04-11T10:17:18Z</time></trkpt><trkpt lat="43.156660649134686" lon="11.39997444922962"><ele>293.2</ele><time>2026-04-11T10:17:20Z</time></trkpt><trkpt lat="43.156559834535635" lon="11.399981291164648"><ele>294.0</ele><time>2026-04-11T10:17:22Z</time></trkpt><trkpt lat="43.15648430444329" lon="11.39998117146285"><ele>296.1666666666667</ele><time>2026-04-11T10:17:23Z</time></trkpt><trkpt lat="43.156422796822504" lon="11.400006436234925"><ele>298.3333333333333</ele><time>2026-04-11T10:17:24Z</time></trkpt><trkpt lat="43.15637154893193" lon="11.40011538635827"><ele>300.5</ele><time>2026-04-11T10:17:26Z</time></trkpt><trkpt lat="43.15631851629458" lon="11.40020134968397"><ele>302.66666666666663</ele><time>2026-04-11T10:17:28Z</time></trkpt><trkpt lat="43.15632528622157" lon="11.400335335300072"><ele>304.8333333333333</ele><time>2026-04-11T10:17:30Z</time></trkpt><trkpt lat="43.156331466682694" lon="11.400465530027942"><ele>307.0</ele><time>2026-04-11T10:17:32Z</time></trkpt><trkpt lat="43.15637827158455" lon="11.400605843654894"><ele>307.16666666666663</ele><time>2026-04-11T10:17:34Z</time></trkpt><trkpt lat="43.156380792869534" lon="11.40070647192588"><ele>307.3333333333333</ele><time>2026-04-11T10:17:35Z</time></trkpt><trkpt lat="43.15644956165843" lon="11.400863195857614"><ele>307.5</ele><time>2026-04-11T10:17:37Z</time></trkpt><trkpt lat="43.156484704569976" lon="11.400940510412372"><ele>307.6666666666667</ele><time>2026-04-11T10:17:38Z</time></trkpt><trkpt lat="43.156523508004064" lon="11.401025877875776"><ele>307.83333333333337</ele><time>2026-04-11T10:17:39Z</time></trkpt><trkpt lat="43.15656115554147" lon="11.401113602799326"><ele>308.0</ele><time>2026-04-11T10:17:40Z</time></trkpt><trkpt lat="43.15659873543143" lon="11.401206601491571"><ele>304.5</ele><time>2026-04-11T10:17:41Z</time></trkpt><trkpt lat="43.15663516675338" lon="11.401307933149987"><ele>301.0</ele><time>2026-04-11T10:17:42Z</time></trkpt><trkpt lat="43.15666864820125" lon="11.401415201964847"><ele>297.5</ele><time>2026-04-11T10:17:43Z</time></trkpt><trkpt lat="43.156691006986925" lon="11.401520067704835"><ele>294.0</ele><time>2026-04-11T10:17:44Z</time></trkpt><trkpt lat="43.15669694844931" lon="11.401635995741863"><ele>290.5</ele><time>2026-04-11T10:17:45Z</time></trkpt><trkpt lat="43.15669195473947" lon="11.401759522533963"><ele>287.0</ele><time>2026-04-11T10:17:46Z</time></trkpt><trkpt lat="43.15667530565871" lon="11.401878848557295"><ele>286.6</ele><time>2026-04-11T10:17:47Z</time></trkpt><trkpt lat="43.15665698970231" lon="11.401992176311087"><ele>286.2</ele><time>2026-04-11T10:17:48Z</time></trkpt><trkpt lat="43.1566350987548" lon="11.402119121265413"><ele>285.8</ele><time>2026-04-11T10:17:49Z</time></trkpt><trkpt lat="43.156614936852115" lon="11.402235724045317"><ele>285.4</ele><time>2026-04-11T10:17:50Z</time></trkpt><trkpt lat="43.156593760059415" lon="11.402358196353767"><ele>285.0</ele><time>2026-04-11T10:17:51Z</time></trkpt><trkpt lat="43.15657267924632" lon="11.402480113818445"><ele>284.6</ele><time>2026-04-11T10:17:52Z</time></trkpt><trkpt lat="43.15655241452703" lon="11.40259731144129"><ele>284.2</ele><time>2026-04-11T10:17:53Z</time></trkpt><trkpt lat="43.15653145131418" lon="11.402718548752429"><ele>283.8</ele><time>2026-04-11T10:17:54Z</time></trkpt><trkpt lat="43.15651031727149" lon="11.402840773946608"><ele>283.4</ele><time>2026-04-11T10:17:55Z</time></trkpt><trkpt lat="43.15649134045646" lon="11.40296452208919"><ele>283.0</ele><time>2026-04-11T10:17:56Z</time></trkpt><trkpt lat="43.15647328183531" lon="11.4030881329394"><ele>286.0</ele><time>2026-04-11T10:17:57Z</time></trkpt><trkpt lat="43.156473976973935" lon="11.403215617858173"><ele>289.0</ele><time>2026-04-11T10:17:58Z</time></trkpt><trkpt lat="43.156462423242026" lon="11.403345017609091"><ele>292.0</ele><time>2026-04-11T10:17:59Z</time></trkpt><trkpt lat="43.156447571025545" lon="11.403471136143043"><ele>295.0</ele><time>2026-04-11T10:18:00Z</time></trkpt><trkpt lat="43.15644379595489" lon="11.403596440992665"><ele>298.0</ele><time>2026-04-11T10:18:01Z</time></trkpt><trkpt lat="43.15644035946634" lon="11.403720810003039"><ele>296.8</ele><time>2026-04-11T10:18:02Z</time></trkpt><trkpt lat="43.156435731127495" lon="11.403842114219076"><ele>295.6</ele><time>2026-04-11T10:18:03Z</time></trkpt><trkpt lat="43.15642275783187" lon="11.403962844324363"><ele>294.4</ele><time>2026-04-11T10:18:04Z</time></trkpt><trkpt lat="43.15638327852223" lon="11.404089107553965"><ele>293.2</ele><time>2026-04-11T10:18:05Z</time></trkpt><trkpt lat="43.15635435361534" lon="11.404204397116413"><ele>292.0</ele><time>2026-04-11T10:18:06Z</time></trkpt><trkpt lat="43.15632463652728" lon="11.404321199021961"><ele>292.0</ele><time>2026-04-11T10:18:07Z</time></trkpt><trkpt lat="43.15626134652651" lon="11.4044002415374"><ele>292.0</ele><time>2026-04-11T10:18:08Z</time></trkpt><trkpt lat="43.15620808708472" lon="11.40447963838013"><ele>292.0</ele><time>2026-04-11T10:18:09Z</time></trkpt><trkpt lat="43.1561399662486" lon="11.40455951868119"><ele>292.0</ele><time>2026-04-11T10:18:10Z</time></trkpt><trkpt lat="43.15608073775676" lon="11.404626527927274"><ele>292.0</ele><time>2026-04-11T10:18:11Z</time></trkpt><trkpt lat="43.15600299342224" lon="11.404686111627248"><ele>292.0</ele><time>2026-04-11T10:18:12Z</time></trkpt><trkpt lat="43.15593148365195" lon="11.40474354274094"><ele>290.8333333333333</ele><time>2026-04-11T10:18:13Z</time></trkpt><trkpt lat="43.15586049063723" lon="11.404788837870658"><ele>289.66666666666663</ele><time>2026-04-11T10:18:14Z</time></trkpt><trkpt lat="43.155777416631956" lon="11.40481190585277"><ele>288.5</ele><time>2026-04-11T10:18:15Z</time></trkpt><trkpt lat="43.15569953337295" lon="11.40483210350924"><ele>287.3333333333333</ele><time>2026-04-11T10:18:16Z</time></trkpt><trkpt lat="43.1556235678294" lon="11.404839056705876"><ele>286.1666666666667</ele><time>2026-04-11T10:18:17Z</time></trkpt><trkpt lat="43.15554478306648" lon="11.404850664858326"><ele>285.0</ele><time>2026-04-11T10:18:18Z</time></trkpt><trkpt lat="43.15548105342439" lon="11.404861336165668"><ele>285.0</ele><time>2026-04-11T10:18:19Z</time></trkpt><trkpt lat="43.15540559173919" lon="11.404876191916452"><ele>285.0</ele><time>2026-04-11T10:18:20Z</time></trkpt><trkpt lat="43.15533456604885" lon="11.404893354892453"><ele>285.0</ele><time>2026-04-11T10:18:21Z</time></trkpt><trkpt lat="43.155269475442196" lon="11.404905778360188"><ele>285.0</ele><time>2026-04-11T10:18:22Z</time></trkpt><trkpt lat="43.15520047877351" lon="11.404931009526795"><ele>285.0</ele><time>2026-04-11T10:18:23Z</time></trkpt><trkpt lat="43.155124459495546" lon="11.404962839981136"><ele>285.0</ele><time>2026-04-11T10:18:24Z</time></trkpt><trkpt lat="43.15506195879305" lon="11.40499531561419"><ele>285.0</ele><time>2026-04-11T10:18:25Z</time></trkpt><trkpt lat="43.15499991765486" lon="11.40504032655456"><ele>285.0</ele><time>2026-04-11T10:18:26Z</time></trkpt><trkpt lat="43.154879905742796" lon="11.405096300726846"><ele>285.0</ele><time>2026-04-11T10:18:28Z</time></trkpt><trkpt lat="43.154811716988675" lon="11.405134533304246"><ele>285.0</ele><time>2026-04-11T10:18:29Z</time></trkpt><trkpt lat="43.154690297713465" lon="11.405194920629368"><ele>285.0</ele><time>2026-04-11T10:18:31Z</time></trkpt><trkpt lat="43.15457884103147" lon="11.405232164953327"><ele>285.0</ele><time>2026-04-11T10:18:33Z</time></trkpt><trkpt lat="43.154479338803384" lon="11.40529959827377"><ele>283.8</ele><time>2026-04-11T10:18:35Z</time></trkpt><trkpt lat="43.154390328321526" lon="11.405362618044588"><ele>282.6</ele><time>2026-04-11T10:18:37Z</time></trkpt><trkpt lat="43.15429817737186" lon="11.405412687966148"><ele>281.4</ele><time>2026-04-11T10:18:39Z</time></trkpt><trkpt lat="43.154220609482934" lon="11.405474309837473"><ele>280.2</ele><time>2026-04-11T10:18:41Z</time></trkpt><trkpt lat="43.15414409588482" lon="11.405554976785599"><ele>279.0</ele><time>2026-04-11T10:18:43Z</time></trkpt><trkpt lat="43.15404898325631" lon="11.405596428246756"><ele>280.4</ele><time>2026-04-11T10:18:45Z</time></trkpt><trkpt lat="43.15394946584087" lon="11.405628954077377"><ele>281.79999999999995</ele><time>2026-04-11T10:18:47Z</time></trkpt><trkpt lat="43.15384491942352" lon="11.40564718616199"><ele>283.20000000000005</ele><time>2026-04-11T10:18:49Z</time></trkpt><trkpt lat="43.153750715955276" lon="11.405651687733029"><ele>284.6</ele><time>2026-04-11T10:18:51Z</time></trkpt><trkpt lat="43.15365714863025" lon="11.40565376541939"><ele>286.0</ele><time>2026-04-11T10:18:53Z</time></trkpt><trkpt lat="43.15356823617002" lon="11.405671323104047"><ele>286.0</ele><time>2026-04-11T10:18:55Z</time></trkpt><trkpt lat="43.15347499664566" lon="11.405681004095104"><ele>286.0</ele><time>2026-04-11T10:18:57Z</time></trkpt><trkpt lat="43.153388180525866" lon="11.405702249379177"><ele>286.0</ele><time>2026-04-11T10:18:59Z</time></trkpt><trkpt lat="43.1533016152729" lon="11.40575144687701"><ele>286.0</ele><time>2026-04-11T10:19:01Z</time></trkpt><trkpt lat="43.153222614727824" lon="11.405825283412556"><ele>286.0</ele><time>2026-04-11T10:19:03Z</time></trkpt><trkpt lat="43.15314387655774" lon="11.405883067405549"><ele>288.0</ele><time>2026-04-11T10:19:05Z</time></trkpt><trkpt lat="43.1530733120615" lon="11.405960822616116"><ele>290.0</ele><time>2026-04-11T10:19:07Z</time></trkpt><trkpt lat="43.152995474150984" lon="11.406048242432169"><ele>292.0</ele><time>2026-04-11T10:19:09Z</time></trkpt><trkpt lat="43.152917916948645" lon="11.406127643735081"><ele>294.0</ele><time>2026-04-11T10:19:11Z</time></trkpt><trkpt lat="43.15283910069054" lon="11.40620456908074"><ele>296.0</ele><time>2026-04-11T10:19:13Z</time></trkpt><trkpt lat="43.15276101841317" lon="11.406282540509904"><ele>293.40000000000003</ele><time>2026-04-11T10:19:15Z</time></trkpt><trkpt lat="43.152671820907784" lon="11.406352250681117"><ele>290.8</ele><time>2026-04-11T10:19:17Z</time></trkpt><trkpt lat="43.15258239060321" lon="11.406411642643782"><ele>288.20000000000005</ele><time>2026-04-11T10:19:19Z</time></trkpt><trkpt lat="43.15248066264683" lon="11.40645803911878"><ele>285.6</ele><time>2026-04-11T10:19:21Z</time></trkpt><trkpt lat="43.15237576286106" lon="11.406502979516407"><ele>283.0</ele><time>2026-04-11T10:19:23Z</time></trkpt><trkpt lat="43.152281464713724" lon="11.406533193063202"><ele>283.0</ele><time>2026-04-11T10:19:25Z</time></trkpt><trkpt lat="43.15216790627521" lon="11.40655979374784"><ele>283.0</ele><time>2026-04-11T10:19:27Z</time></trkpt><trkpt lat="43.15205659053738" lon="11.406574061901019"><ele>283.0</ele><time>2026-04-11T10:19:29Z</time></trkpt><trkpt lat="43.15193830728249" lon="11.406584708802507"><ele>283.0</ele><time>2026-04-11T10:19:31Z</time></trkpt><trkpt lat="43.15181517296969" lon="11.406594237247438"><ele>283.0</ele><time>2026-04-11T10:19:33Z</time></trkpt><trkpt lat="43.1517505628217" lon="11.406598361976842"><ele>283.0</ele><time>2026-04-11T10:19:34Z</time></trkpt><trkpt lat="43.151682946002055" lon="11.406599881133578"><ele>283.0</ele><time>2026-04-11T10:19:35Z</time></trkpt><trkpt lat="43.15161196644205" lon="11.40660316566442"><ele>283.0</ele><time>2026-04-11T10:19:36Z</time></trkpt><trkpt lat="43.15154356816726" lon="11.406611632770167"><ele>283.0</ele><time>2026-04-11T10:19:37Z</time></trkpt><trkpt lat="43.15147500109878" lon="11.406623219456701"><ele>283.0</ele><time>2026-04-11T10:19:38Z</time></trkpt><trkpt lat="43.15140307506883" lon="11.406637642302107"><ele>283.0</ele><time>2026-04-11T10:19:39Z</time></trkpt><trkpt lat="43.151335013540944" lon="11.406661927177687"><ele>283.5</ele><time>2026-04-11T10:19:40Z</time></trkpt><trkpt lat="43.151207866352394" lon="11.406712618212932"><ele>284.0</ele><time>2026-04-11T10:19:42Z</time></trkpt><trkpt lat="43.151141910087006" lon="11.406735798387194"><ele>284.5</ele><time>2026-04-11T10:19:43Z</time></trkpt><trkpt lat="43.151073149130575" lon="11.406754927644322"><ele>285.0</ele><time>2026-04-11T10:19:44Z</time></trkpt><trkpt lat="43.1510033997857" lon="11.406770900283359"><ele>285.5</ele><time>2026-04-11T10:19:45Z</time></trkpt><trkpt lat="43.150934934214185" lon="11.406776463242384"><ele>286.0</ele><time>2026-04-11T10:19:46Z</time></trkpt><trkpt lat="43.15086167438816" lon="11.406786886486534"><ele>286.0</ele><time>2026-04-11T10:19:47Z</time></trkpt><trkpt lat="43.15078912848056" lon="11.40678486530632"><ele>286.0</ele><time>2026-04-11T10:19:48Z</time></trkpt><trkpt lat="43.15071068899415" lon="11.406776565588178"><ele>286.0</ele><time>2026-04-11T10:19:49Z</time></trkpt><trkpt lat="43.150645209966235" lon="11.40676240369421"><ele>286.0</ele><time>2026-04-11T10:19:50Z</time></trkpt><trkpt lat="43.15056963249973" lon="11.406739192867065"><ele>286.0</ele><time>2026-04-11T10:19:51Z</time></trkpt><trkpt lat="43.15049402505285" lon="11.406721906310665"><ele>286.0</ele><time>2026-04-11T10:19:52Z</time></trkpt><trkpt lat="43.15041629130691" lon="11.406698308486789"><ele>285.16666666666663</ele><time>2026-04-11T10:19:53Z</time></trkpt><trkpt lat="43.15034427240154" lon="11.406672997793258"><ele>284.3333333333333</ele><time>2026-04-11T10:19:54Z</time></trkpt><trkpt lat="43.15026667923493" lon="11.406628345092846"><ele>283.5</ele><time>2026-04-11T10:19:55Z</time></trkpt><trkpt lat="43.15020035643642" lon="11.406581337399999"><ele>282.6666666666667</ele><time>2026-04-11T10:19:56Z</time></trkpt><trkpt lat="43.15014083157394" lon="11.406516156202725"><ele>281.83333333333337</ele><time>2026-04-11T10:19:57Z</time></trkpt><trkpt lat="43.15008975771138" lon="11.406442366526443"><ele>281.0</ele><time>2026-04-11T10:19:58Z</time></trkpt><trkpt lat="43.15004042792161" lon="11.406369183282203"><ele>283.1666666666667</ele><time>2026-04-11T10:19:59Z</time></trkpt><trkpt lat="43.149990214410295" lon="11.406300346602448"><ele>285.33333333333337</ele><time>2026-04-11T10:20:00Z</time></trkpt><trkpt lat="43.14993240408656" lon="11.406242648257159"><ele>287.5</ele><time>2026-04-11T10:20:01Z</time></trkpt><trkpt lat="43.14986850827067" lon="11.406202187995264"><ele>289.6666666666667</ele><time>2026-04-11T10:20:02Z</time></trkpt><trkpt lat="43.149803209831035" lon="11.406175677752302"><ele>291.8333333333333</ele><time>2026-04-11T10:20:03Z</time></trkpt><trkpt lat="43.14973354074759" lon="11.406164906516683"><ele>294.0</ele><time>2026-04-11T10:20:04Z</time></trkpt><trkpt lat="43.14960473816363" lon="11.406182306024382"><ele>294.2</ele><time>2026-04-11T10:20:06Z</time></trkpt><trkpt lat="43.14954602476563" lon="11.406220469362774"><ele>294.4</ele><time>2026-04-11T10:20:07Z</time></trkpt><trkpt lat="43.149483460942825" lon="11.406256708963264"><ele>294.6</ele><time>2026-04-11T10:20:08Z</time></trkpt><trkpt lat="43.14939298386731" lon="11.406363874296044"><ele>294.8</ele><time>2026-04-11T10:20:10Z</time></trkpt><trkpt lat="43.14931994589347" lon="11.40648065551028"><ele>295.0</ele><time>2026-04-11T10:20:12Z</time></trkpt><trkpt lat="43.14923571402467" lon="11.406588229627706"><ele>293.8</ele><time>2026-04-11T10:20:14Z</time></trkpt><trkpt lat="43.149130668832605" lon="11.406658547227954"><ele>292.6</ele><time>2026-04-11T10:20:16Z</time></trkpt><trkpt lat="43.1490674483031" lon="11.406681189137766"><ele>291.4</ele><time>2026-04-11T10:20:17Z</time></trkpt><trkpt lat="43.148944626958105" lon="11.406704559214042"><ele>290.2</ele><time>2026-04-11T10:20:19Z</time></trkpt><trkpt lat="43.148821600966755" lon="11.406709686705529"><ele>289.0</ele><time>2026-04-11T10:20:21Z</time></trkpt><trkpt lat="43.1487574215377" lon="11.406730089376447"><ele>289.0</ele><time>2026-04-11T10:20:22Z</time></trkpt><trkpt lat="43.14869429939412" lon="11.406749051793884"><ele>289.0</ele><time>2026-04-11T10:20:23Z</time></trkpt><trkpt lat="43.14857219095735" lon="11.406804910846551"><ele>289.0</ele><time>2026-04-11T10:20:25Z</time></trkpt><trkpt lat="43.14851700306837" lon="11.40684705851769"><ele>289.0</ele><time>2026-04-11T10:20:26Z</time></trkpt><trkpt lat="43.14841921709411" lon="11.406957071591288"><ele>289.0</ele><time>2026-04-11T10:20:28Z</time></trkpt><trkpt lat="43.14837540692665" lon="11.407019259245578"><ele>289.0</ele><time>2026-04-11T10:20:29Z</time></trkpt><trkpt lat="43.148333242704524" lon="11.407097352875512"><ele>289.5</ele><time>2026-04-11T10:20:30Z</time></trkpt><trkpt lat="43.148274839303994" lon="11.407243734905844"><ele>290.0</ele><time>2026-04-11T10:20:32Z</time></trkpt><trkpt lat="43.14824654350827" lon="11.407321519411607"><ele>290.5</ele><time>2026-04-11T10:20:33Z</time></trkpt><trkpt lat="43.148198245787206" lon="11.407391262960498"><ele>291.0</ele><time>2026-04-11T10:20:34Z</time></trkpt><trkpt lat="43.14817620166291" lon="11.407477601053186"><ele>291.5</ele><time>2026-04-11T10:20:35Z</time></trkpt><trkpt lat="43.14813439790082" lon="11.40755188560446"><ele>292.0</ele><time>2026-04-11T10:20:36Z</time></trkpt><trkpt lat="43.148083045208345" lon="11.407643749982615"><ele>292.0</ele><time>2026-04-11T10:20:37Z</time></trkpt><trkpt lat="43.14802122801145" lon="11.407781985296925"><ele>292.0</ele><time>2026-04-11T10:20:39Z</time></trkpt><trkpt lat="43.14799191466664" lon="11.407885162245998"><ele>292.0</ele><time>2026-04-11T10:20:40Z</time></trkpt><trkpt lat="43.14795238582661" lon="11.407969518425306"><ele>292.0</ele><time>2026-04-11T10:20:41Z</time></trkpt><trkpt lat="43.14792894365248" lon="11.408057280209876"><ele>292.0</ele><time>2026-04-11T10:20:42Z</time></trkpt><trkpt lat="43.147911164704674" lon="11.408157836335217"><ele>292.0</ele><time>2026-04-11T10:20:43Z</time></trkpt><trkpt lat="43.14789681768043" lon="11.408258648690921"><ele>291.0</ele><time>2026-04-11T10:20:44Z</time></trkpt><trkpt lat="43.14788463263192" lon="11.408364821385865"><ele>290.0</ele><time>2026-04-11T10:20:45Z</time></trkpt><trkpt lat="43.14787211010735" lon="11.408490168766248"><ele>289.0</ele><time>2026-04-11T10:20:46Z</time></trkpt><trkpt lat="43.147860354388555" lon="11.408609589516564"><ele>288.0</ele><time>2026-04-11T10:20:47Z</time></trkpt><trkpt lat="43.14784839559992" lon="11.408732432813249"><ele>287.0</ele><time>2026-04-11T10:20:48Z</time></trkpt><trkpt lat="43.147835696677156" lon="11.40886506226755"><ele>286.0</ele><time>2026-04-11T10:20:49Z</time></trkpt><trkpt lat="43.147818259773096" lon="11.408995287668077"><ele>284.8</ele><time>2026-04-11T10:20:50Z</time></trkpt><trkpt lat="43.14780370189375" lon="11.409130994046096"><ele>283.6</ele><time>2026-04-11T10:20:51Z</time></trkpt><trkpt lat="43.147779748095324" lon="11.40925036448078"><ele>282.4</ele><time>2026-04-11T10:20:52Z</time></trkpt><trkpt lat="43.14775905591805" lon="11.409386586477718"><ele>281.2</ele><time>2026-04-11T10:20:53Z</time></trkpt><trkpt lat="43.14774431255274" lon="11.409531231905568"><ele>280.0</ele><time>2026-04-11T10:20:54Z</time></trkpt><trkpt lat="43.14771835844151" lon="11.409676416369443"><ele>278.6</ele><time>2026-04-11T10:20:55Z</time></trkpt><trkpt lat="43.14769576991975" lon="11.409824601881395"><ele>277.2</ele><time>2026-04-11T10:20:56Z</time></trkpt><trkpt lat="43.14766105952783" lon="11.409966170743143"><ele>275.8</ele><time>2026-04-11T10:20:57Z</time></trkpt><trkpt lat="43.14762156089636" lon="11.410109939956735"><ele>274.4</ele><time>2026-04-11T10:20:58Z</time></trkpt><trkpt lat="43.1475654470529" lon="11.410241247538229"><ele>273.0</ele><time>2026-04-11T10:20:59Z</time></trkpt><trkpt lat="43.14749196008213" lon="11.410368682274543"><ele>273.0</ele><time>2026-04-11T10:21:00Z</time></trkpt><trkpt lat="43.14739638749783" lon="11.410479099229079"><ele>273.0</ele><time>2026-04-11T10:21:01Z</time></trkpt><trkpt lat="43.1472975845892" lon="11.410573420312002"><ele>273.0</ele><time>2026-04-11T10:21:02Z</time></trkpt><trkpt lat="43.14719498579698" lon="11.410639364915966"><ele>273.0</ele><time>2026-04-11T10:21:03Z</time></trkpt><trkpt lat="43.14708711913435" lon="11.410697504093656"><ele>271.25</ele><time>2026-04-11T10:21:04Z</time></trkpt><trkpt lat="43.14699089723543" lon="11.410760036643653"><ele>269.5</ele><time>2026-04-11T10:21:05Z</time></trkpt><trkpt lat="43.14689102853096" lon="11.410838080326576"><ele>267.75</ele><time>2026-04-11T10:21:06Z</time></trkpt><trkpt lat="43.14679662942884" lon="11.410931878264568"><ele>266.0</ele><time>2026-04-11T10:21:07Z</time></trkpt><trkpt lat="43.14671133028251" lon="11.411036620537773"><ele>266.0</ele><time>2026-04-11T10:21:08Z</time></trkpt><trkpt lat="43.146624170588446" lon="11.411150803184027"><ele>266.0</ele><time>2026-04-11T10:21:09Z</time></trkpt><trkpt lat="43.14655428155612" lon="11.41127182238338"><ele>266.0</ele><time>2026-04-11T10:21:10Z</time></trkpt><trkpt lat="43.14647302830471" lon="11.411392579829117"><ele>266.0</ele><time>2026-04-11T10:21:11Z</time></trkpt><trkpt lat="43.146400641604586" lon="11.411526548653658"><ele>264.75</ele><time>2026-04-11T10:21:12Z</time></trkpt><trkpt lat="43.146326241437514" lon="11.411655882438959"><ele>263.5</ele><time>2026-04-11T10:21:13Z</time></trkpt><trkpt lat="43.146252138428316" lon="11.411782795096933"><ele>262.25</ele><time>2026-04-11T10:21:14Z</time></trkpt><trkpt lat="43.14617498272134" lon="11.411907593162686"><ele>261.0</ele><time>2026-04-11T10:21:15Z</time></trkpt><trkpt lat="43.14610482970098" lon="11.412038717943597"><ele>259.0</ele><time>2026-04-11T10:21:16Z</time></trkpt><trkpt lat="43.14604402250115" lon="11.412177527801768"><ele>257.0</ele><time>2026-04-11T10:21:17Z</time></trkpt><trkpt lat="43.145974432755445" lon="11.412329157730467"><ele>255.0</ele><time>2026-04-11T10:21:18Z</time></trkpt><trkpt lat="43.145930311876675" lon="11.412482291710583"><ele>253.0</ele><time>2026-04-11T10:21:19Z</time></trkpt><trkpt lat="43.14589504989233" lon="11.412636614943596"><ele>253.0</ele><time>2026-04-11T10:21:20Z</time></trkpt><trkpt lat="43.14586618737815" lon="11.412793135947174"><ele>253.0</ele><time>2026-04-11T10:21:21Z</time></trkpt><trkpt lat="43.145834808741974" lon="11.41294339632373"><ele>253.0</ele><time>2026-04-11T10:21:22Z</time></trkpt><trkpt lat="43.145798458016294" lon="11.413091690061014"><ele>253.0</ele><time>2026-04-11T10:21:23Z</time></trkpt><trkpt lat="43.145752628145836" lon="11.413233739717393"><ele>251.25</ele><time>2026-04-11T10:21:24Z</time></trkpt><trkpt lat="43.145706803227036" lon="11.413382740753482"><ele>249.5</ele><time>2026-04-11T10:21:25Z</time></trkpt><trkpt lat="43.14563626171898" lon="11.413508252379996"><ele>247.75</ele><time>2026-04-11T10:21:26Z</time></trkpt><trkpt lat="43.145548144475924" lon="11.41360671144481"><ele>246.0</ele><time>2026-04-11T10:21:27Z</time></trkpt><trkpt lat="43.145469524365595" lon="11.413709767204635"><ele>246.0</ele><time>2026-04-11T10:21:28Z</time></trkpt><trkpt lat="43.145392307420686" lon="11.413819392827216"><ele>246.0</ele><time>2026-04-11T10:21:29Z</time></trkpt><trkpt lat="43.14531692230977" lon="11.41393439649714"><ele>246.0</ele><time>2026-04-11T10:21:30Z</time></trkpt><trkpt lat="43.14525445330366" lon="11.414069477734445"><ele>246.0</ele><time>2026-04-11T10:21:31Z</time></trkpt><trkpt lat="43.1452151125475" lon="11.414218595541898"><ele>245.0</ele><time>2026-04-11T10:21:32Z</time></trkpt><trkpt lat="43.1451942211685" lon="11.414375893413633"><ele>244.0</ele><time>2026-04-11T10:21:33Z</time></trkpt><trkpt lat="43.14520285075322" lon="11.414543610193133"><ele>243.0</ele><time>2026-04-11T10:21:34Z</time></trkpt><trkpt lat="43.14524473826242" lon="11.41470480931671"><ele>242.0</ele><time>2026-04-11T10:21:35Z</time></trkpt><trkpt lat="43.1453166474868" lon="11.414842943263524"><ele>240.5</ele><time>2026-04-11T10:21:36Z</time></trkpt><trkpt lat="43.14539570589463" lon="11.41496628536367"><ele>239.0</ele><time>2026-04-11T10:21:37Z</time></trkpt><trkpt lat="43.14547449402256" lon="11.415085350019176"><ele>237.5</ele><time>2026-04-11T10:21:38Z</time></trkpt><trkpt lat="43.14555261102365" lon="11.415200866329837"><ele>236.0</ele><time>2026-04-11T10:21:39Z</time></trkpt><trkpt lat="43.14562031679796" lon="11.415319933127126"><ele>236.0</ele><time>2026-04-11T10:21:40Z</time></trkpt><trkpt lat="43.1456821037529" lon="11.415449347302092"><ele>236.00000000000003</ele><time>2026-04-11T10:21:41Z</time></trkpt><trkpt lat="43.14572596913748" lon="11.41558572486579"><ele>236.00000000000003</ele><time>2026-04-11T10:21:42Z</time></trkpt><trkpt lat="43.14575926872635" lon="11.415728209929915"><ele>236.0</ele><time>2026-04-11T10:21:43Z</time></trkpt><trkpt lat="43.14577418627286" lon="11.415874529641485"><ele>236.0</ele><time>2026-04-11T10:21:44Z</time></trkpt><trkpt lat="43.1457725768469" lon="11.416020415594566"><ele>236.0</ele><time>2026-04-11T10:21:45Z</time></trkpt><trkpt lat="43.1457625923405" lon="11.416170945403774"><ele>236.0</ele><time>2026-04-11T10:21:46Z</time></trkpt><trkpt lat="43.145749036413456" lon="11.416328296118593"><ele>236.0</ele><time>2026-04-11T10:21:47Z</time></trkpt><trkpt lat="43.145733365878606" lon="11.416488203205553"><ele>236.0</ele><time>2026-04-11T10:21:48Z</time></trkpt><trkpt lat="43.14571532625861" lon="11.416653788785135"><ele>232.5</ele><time>2026-04-11T10:21:49Z</time></trkpt><trkpt lat="43.14569450412564" lon="11.41682049238148"><ele>229.0</ele><time>2026-04-11T10:21:50Z</time></trkpt><trkpt lat="43.14567116936206" lon="11.4169883980197"><ele>225.5</ele><time>2026-04-11T10:21:51Z</time></trkpt><trkpt lat="43.14564275500265" lon="11.417154620891216"><ele>222.0</ele><time>2026-04-11T10:21:52Z</time></trkpt><trkpt lat="43.14560284506387" lon="11.417316879138134"><ele>220.75</ele><time>2026-04-11T10:21:53Z</time></trkpt><trkpt lat="43.14555945684101" lon="11.417466573515313"><ele>219.5</ele><time>2026-04-11T10:21:54Z</time></trkpt><trkpt lat="43.14550939605672" lon="11.41762676369952"><ele>218.25</ele><time>2026-04-11T10:21:55Z</time></trkpt><trkpt lat="43.145459476643005" lon="11.417781684342536"><ele>217.0</ele><time>2026-04-11T10:21:56Z</time></trkpt><trkpt lat="43.14541198045408" lon="11.417943818118811"><ele>216.25</ele><time>2026-04-11T10:21:57Z</time></trkpt><trkpt lat="43.145371371659444" lon="11.418108219920908"><ele>215.5</ele><time>2026-04-11T10:21:58Z</time></trkpt><trkpt lat="43.14534964990944" lon="11.418289696056036"><ele>214.75</ele><time>2026-04-11T10:21:59Z</time></trkpt><trkpt lat="43.14534080517804" lon="11.418467667136984"><ele>214.0</ele><time>2026-04-11T10:22:00Z</time></trkpt><trkpt lat="43.14533634832269" lon="11.418658607749773"><ele>213.75</ele><time>2026-04-11T10:22:01Z</time></trkpt><trkpt lat="43.1453310484513" lon="11.418835980025698"><ele>213.5</ele><time>2026-04-11T10:22:02Z</time></trkpt><trkpt lat="43.14532582888977" lon="11.419010663985452"><ele>213.25</ele><time>2026-04-11T10:22:03Z</time></trkpt><trkpt lat="43.145314140195474" lon="11.419176488934113"><ele>213.0</ele><time>2026-04-11T10:22:04Z</time></trkpt><trkpt lat="43.145298076459675" lon="11.419336458029637"><ele>213.0</ele><time>2026-04-11T10:22:05Z</time></trkpt><trkpt lat="43.14526609629276" lon="11.419487804100676"><ele>213.0</ele><time>2026-04-11T10:22:06Z</time></trkpt><trkpt lat="43.145225956864905" lon="11.419654946579923"><ele>213.0</ele><time>2026-04-11T10:22:07Z</time></trkpt><trkpt lat="43.145186808337286" lon="11.419817962832736"><ele>213.0</ele><time>2026-04-11T10:22:08Z</time></trkpt><trkpt lat="43.145153886292384" lon="11.419990383422252"><ele>212.25</ele><time>2026-04-11T10:22:09Z</time></trkpt><trkpt lat="43.14513501794584" lon="11.420168653702195"><ele>211.5</ele><time>2026-04-11T10:22:10Z</time></trkpt><trkpt lat="43.14513245700704" lon="11.420343536247952"><ele>210.75</ele><time>2026-04-11T10:22:11Z</time></trkpt><trkpt lat="43.14513879331855" lon="11.420513948995497"><ele>210.0</ele><time>2026-04-11T10:22:12Z</time></trkpt><trkpt lat="43.145142786787865" lon="11.420685658453928"><ele>209.4</ele><time>2026-04-11T10:22:13Z</time></trkpt><trkpt lat="43.14514188996521" lon="11.420843964591944"><ele>208.8</ele><time>2026-04-11T10:22:14Z</time></trkpt><trkpt lat="43.145137378930656" lon="11.42098820103296"><ele>208.2</ele><time>2026-04-11T10:22:15Z</time></trkpt><trkpt lat="43.145122663913206" lon="11.421110790582224"><ele>207.6</ele><time>2026-04-11T10:22:16Z</time></trkpt><trkpt lat="43.14509832822787" lon="11.421199517356744"><ele>207.0</ele><time>2026-04-11T10:22:17Z</time></trkpt><trkpt lat="43.14521088059428" lon="11.4213431973352"><ele>206.83333333333334</ele><time>2026-04-11T10:22:18Z</time></trkpt><trkpt lat="43.14523582379196" lon="11.421433560070497"><ele>206.66666666666669</ele><time>2026-04-11T10:22:19Z</time></trkpt><trkpt lat="43.14526634305414" lon="11.421519870765957"><ele>206.5</ele><time>2026-04-11T10:22:20Z</time></trkpt><trkpt lat="43.14527955029131" lon="11.421608911214845"><ele>206.33333333333334</ele><time>2026-04-11T10:22:21Z</time></trkpt><trkpt lat="43.14530537235314" lon="11.421694621041542"><ele>206.16666666666669</ele><time>2026-04-11T10:22:22Z</time></trkpt><trkpt lat="43.145359201385276" lon="11.42182166644942"><ele>206.0</ele><time>2026-04-11T10:22:24Z</time></trkpt><trkpt lat="43.14536234131063" lon="11.421926588787384"><ele>206.00000000000003</ele><time>2026-04-11T10:22:26Z</time></trkpt><trkpt lat="43.14539281359426" lon="11.42202013035882"><ele>206.0</ele><time>2026-04-11T10:22:43Z</time></trkpt><trkpt lat="43.14527646518523" lon="11.422109986211158"><ele>206.0</ele><time>2026-04-11T10:23:07Z</time></trkpt><trkpt lat="43.14531806960615" lon="11.422189899418013"><ele>206.0</ele><time>2026-04-11T10:25:44Z</time></trkpt><trkpt lat="43.14525210375362" lon="11.422178185520881"><ele>206.00000000000003</ele><time>2026-04-11T10:26:03Z</time></trkpt><trkpt lat="43.1451921944062" lon="11.422151482423999"><ele>206.0</ele><time>2026-04-11T10:40:51Z</time></trkpt><trkpt lat="43.145259754513305" lon="11.422152021659576"><ele>205.99999999999997</ele><time>2026-04-11T10:41:18Z</time></trkpt><trkpt lat="43.14522664053525" lon="11.422230884431304"><ele>206.0</ele><time>2026-04-11T10:41:30Z</time></trkpt><trkpt lat="43.14517115401015" lon="11.422179655340734"><ele>206.0</ele><time>2026-04-11T10:44:58Z</time></trkpt><trkpt lat="43.14523059928731" lon="11.422144262023394"><ele>206.0</ele><time>2026-04-11T10:45:10Z</time></trkpt><trkpt lat="43.14524361154177" lon="11.422054568984269"><ele>206.0</ele><time>2026-04-11T10:45:40Z</time></trkpt><trkpt lat="43.145208290069874" lon="11.421971327440376"><ele>205.99999999999997</ele><time>2026-04-11T10:46:15Z</time></trkpt><trkpt lat="43.1452827477779" lon="11.42189958069149"><ele>206.0</ele><time>2026-04-11T10:46:19Z</time></trkpt><trkpt lat="43.145364207385825" lon="11.42188303259992"><ele>206.00000000000003</ele><time>2026-04-11T10:46:22Z</time></trkpt><trkpt lat="43.14543162154113" lon="11.421969156254121"><ele>206.0</ele><time>2026-04-11T10:46:25Z</time></trkpt><trkpt lat="43.14546246492675" lon="11.422087142246395"><ele>206.0</ele><time>2026-04-11T10:46:28Z</time></trkpt><trkpt lat="43.145495843327545" lon="11.422165650500231"><ele>206.0</ele><time>2026-04-11T10:46:30Z</time></trkpt><trkpt lat="43.14552973209591" lon="11.422263651303663"><ele>206.00000000000003</ele><time>2026-04-11T10:46:32Z</time></trkpt><trkpt lat="43.14556582593699" lon="11.422359926588715"><ele>206.0</ele><time>2026-04-11T10:46:34Z</time></trkpt><trkpt lat="43.14559714651789" lon="11.422459386122364"><ele>206.16666666666669</ele><time>2026-04-11T10:46:36Z</time></trkpt><trkpt lat="43.14563391980725" lon="11.422554561879384"><ele>206.33333333333334</ele><time>2026-04-11T10:46:38Z</time></trkpt><trkpt lat="43.145664723704535" lon="11.422652117253518"><ele>206.5</ele><time>2026-04-11T10:46:40Z</time></trkpt><trkpt lat="43.14569901951321" lon="11.422750184823464"><ele>206.66666666666669</ele><time>2026-04-11T10:46:42Z</time></trkpt><trkpt lat="43.14572725431683" lon="11.422838794613417"><ele>206.83333333333334</ele><time>2026-04-11T10:46:44Z</time></trkpt><trkpt lat="43.14576241731292" lon="11.422943730795412"><ele>207.0</ele><time>2026-04-11T10:46:46Z</time></trkpt><trkpt lat="43.14580308933212" lon="11.423052124844904"><ele>207.0</ele><time>2026-04-11T10:46:48Z</time></trkpt><trkpt lat="43.14583987935303" lon="11.423157913800669"><ele>207.0</ele><time>2026-04-11T10:46:50Z</time></trkpt><trkpt lat="43.14587752268004" lon="11.423265748492623"><ele>207.0</ele><time>2026-04-11T10:46:52Z</time></trkpt><trkpt lat="43.14591228420896" lon="11.423378345936781"><ele>207.0</ele><time>2026-04-11T10:46:54Z</time></trkpt><trkpt lat="43.145941900462944" lon="11.423501882468724"><ele>207.0</ele><time>2026-04-11T10:46:56Z</time></trkpt><trkpt lat="43.14596190126656" lon="11.42363413940407"><ele>207.0</ele><time>2026-04-11T10:46:58Z</time></trkpt><trkpt lat="43.145977540870334" lon="11.423767108236465"><ele>207.0</ele><time>2026-04-11T10:47:00Z</time></trkpt><trkpt lat="43.14597312048187" lon="11.423904859763994"><ele>207.0</ele><time>2026-04-11T10:47:02Z</time></trkpt><trkpt lat="43.14595028914531" lon="11.424038498463508"><ele>207.0</ele><time>2026-04-11T10:47:04Z</time></trkpt><trkpt lat="43.14591676713601" lon="11.424175926853573"><ele>207.0</ele><time>2026-04-11T10:47:06Z</time></trkpt><trkpt lat="43.1458513495955" lon="11.424288418965801"><ele>206.8</ele><time>2026-04-11T10:47:08Z</time></trkpt><trkpt lat="43.145798042775944" lon="11.424410063548564"><ele>206.6</ele><time>2026-04-11T10:47:12Z</time></trkpt><trkpt lat="43.145734550656236" lon="11.424536634240154"><ele>206.4</ele><time>2026-04-11T10:47:14Z</time></trkpt><trkpt lat="43.14568478512471" lon="11.424625179131608"><ele>206.20000000000002</ele><time>2026-04-11T10:47:16Z</time></trkpt><trkpt lat="43.1456252193884" lon="11.424731160956455"><ele>206.0</ele><time>2026-04-11T10:47:19Z</time></trkpt><trkpt lat="43.14554692536052" lon="11.42487988237741"><ele>206.0</ele><time>2026-04-11T10:47:20Z</time></trkpt><trkpt lat="43.1455266590687" lon="11.42499489875022"><ele>206.0</ele><time>2026-04-11T10:47:21Z</time></trkpt><trkpt lat="43.14553043934494" lon="11.425123716110896"><ele>206.0</ele><time>2026-04-11T10:47:22Z</time></trkpt><trkpt lat="43.14555118903188" lon="11.425225455410688"><ele>206.0</ele><time>2026-04-11T10:47:23Z</time></trkpt><trkpt lat="43.145657248434624" lon="11.425310112825791"><ele>206.0</ele><time>2026-04-11T10:47:24Z</time></trkpt><trkpt lat="43.14572994363996" lon="11.425326588878217"><ele>206.0</ele><time>2026-04-11T10:47:25Z</time></trkpt><trkpt lat="43.145830641711214" lon="11.425390486153491"><ele>206.0</ele><time>2026-04-11T10:47:27Z</time></trkpt><trkpt lat="43.14592878794558" lon="11.42545323113351"><ele>206.0</ele><time>2026-04-11T10:47:29Z</time></trkpt><trkpt lat="43.146033267505274" lon="11.425524907656657"><ele>206.0</ele><time>2026-04-11T10:47:31Z</time></trkpt><trkpt lat="43.14612456078959" lon="11.425609191854125"><ele>206.0</ele><time>2026-04-11T10:47:33Z</time></trkpt><trkpt lat="43.14620688568895" lon="11.425723471230876"><ele>204.75</ele><time>2026-04-11T10:47:35Z</time></trkpt><trkpt lat="43.14628468917594" lon="11.425829629392789"><ele>203.5</ele><time>2026-04-11T10:47:37Z</time></trkpt><trkpt lat="43.14638676769328" lon="11.425943202507518"><ele>202.25</ele><time>2026-04-11T10:47:39Z</time></trkpt><trkpt lat="43.146476395291444" lon="11.426035132324147"><ele>201.0</ele><time>2026-04-11T10:47:41Z</time></trkpt><trkpt lat="43.146574667586926" lon="11.426125729104314"><ele>201.0</ele><time>2026-04-11T10:47:43Z</time></trkpt><trkpt lat="43.14666794585851" lon="11.426206210781633"><ele>201.0</ele><time>2026-04-11T10:47:45Z</time></trkpt><trkpt lat="43.14675998149802" lon="11.426283654996867"><ele>201.0</ele><time>2026-04-11T10:47:47Z</time></trkpt><trkpt lat="43.14684898311149" lon="11.426357729281161"><ele>201.0</ele><time>2026-04-11T10:47:49Z</time></trkpt><trkpt lat="43.146941715794384" lon="11.426430946286215"><ele>201.0</ele><time>2026-04-11T10:47:51Z</time></trkpt><trkpt lat="43.14703777514262" lon="11.42650572790159"><ele>201.0</ele><time>2026-04-11T10:47:53Z</time></trkpt><trkpt lat="43.14713102934508" lon="11.426589083542613"><ele>201.0</ele><time>2026-04-11T10:47:55Z</time></trkpt><trkpt lat="43.147216467187135" lon="11.426692405626522"><ele>201.0</ele><time>2026-04-11T10:47:57Z</time></trkpt><trkpt lat="43.1473061542712" lon="11.42680908885326"><ele>201.0</ele><time>2026-04-11T10:47:59Z</time></trkpt><trkpt lat="43.14735255658534" lon="11.426867539960508"><ele>201.0</ele><time>2026-04-11T10:48:00Z</time></trkpt><trkpt lat="43.147445058264196" lon="11.426969953731984"><ele>201.0</ele><time>2026-04-11T10:48:02Z</time></trkpt><trkpt lat="43.147498266730615" lon="11.427016707628939"><ele>201.0</ele><time>2026-04-11T10:48:03Z</time></trkpt><trkpt lat="43.14759993748584" lon="11.427108335245698"><ele>201.0</ele><time>2026-04-11T10:48:05Z</time></trkpt><trkpt lat="43.14765091818485" lon="11.427159083648823"><ele>201.0</ele><time>2026-04-11T10:48:06Z</time></trkpt><trkpt lat="43.14771388646495" lon="11.427187314095553"><ele>201.0</ele><time>2026-04-11T10:48:07Z</time></trkpt><trkpt lat="43.14778480683278" lon="11.427183131430857"><ele>201.0</ele><time>2026-04-11T10:48:08Z</time></trkpt><trkpt lat="43.14790247721607" lon="11.427234171590758"><ele>201.8</ele><time>2026-04-11T10:48:10Z</time></trkpt><trkpt lat="43.148018317322695" lon="11.427264945863323"><ele>202.60000000000002</ele><time>2026-04-11T10:48:12Z</time></trkpt><trkpt lat="43.1481262597874" lon="11.427300040172751"><ele>203.4</ele><time>2026-04-11T10:48:14Z</time></trkpt><trkpt lat="43.1481889881446" lon="11.42732604318061"><ele>204.2</ele><time>2026-04-11T10:48:15Z</time></trkpt><trkpt lat="43.14830610104503" lon="11.42738316648464"><ele>205.0</ele><time>2026-04-11T10:48:17Z</time></trkpt><trkpt lat="43.14841643562168" lon="11.427438912514113"><ele>205.0</ele><time>2026-04-11T10:48:19Z</time></trkpt><trkpt lat="43.148512463272105" lon="11.42749036322128"><ele>205.0</ele><time>2026-04-11T10:48:21Z</time></trkpt><trkpt lat="43.148649532168754" lon="11.427564053564836"><ele>205.0</ele><time>2026-04-11T10:48:23Z</time></trkpt><trkpt lat="43.14873279149632" lon="11.427607742666696"><ele>205.0</ele><time>2026-04-11T10:48:24Z</time></trkpt><trkpt lat="43.148804056139205" lon="11.427643448039499"><ele>205.0</ele><time>2026-04-11T10:48:25Z</time></trkpt><trkpt lat="43.148872591957826" lon="11.427677786251033"><ele>204.99999999999997</ele><time>2026-04-11T10:48:26Z</time></trkpt><trkpt lat="43.14894816354176" lon="11.427715691392198"><ele>205.0</ele><time>2026-04-11T10:48:27Z</time></trkpt><trkpt lat="43.1490201146819" lon="11.427756635454832"><ele>205.0</ele><time>2026-04-11T10:48:28Z</time></trkpt><trkpt lat="43.14908415002674" lon="11.42779598414935"><ele>205.0</ele><time>2026-04-11T10:48:29Z</time></trkpt><trkpt lat="43.149198151355485" lon="11.427873075053641"><ele>204.99999999999997</ele><time>2026-04-11T10:48:31Z</time></trkpt><trkpt lat="43.14926583921955" lon="11.427926970241424"><ele>205.0</ele><time>2026-04-11T10:48:32Z</time></trkpt><trkpt lat="43.14933334747558" lon="11.427985025681117"><ele>203.16666666666666</ele><time>2026-04-11T10:48:33Z</time></trkpt><trkpt lat="43.14939799421431" lon="11.428057745028783"><ele>201.33333333333331</ele><time>2026-04-11T10:48:34Z</time></trkpt><trkpt lat="43.149462902420034" lon="11.428137950248534"><ele>199.5</ele><time>2026-04-11T10:48:35Z</time></trkpt><trkpt lat="43.14952480002816" lon="11.428214148598288"><ele>197.66666666666669</ele><time>2026-04-11T10:48:36Z</time></trkpt><trkpt lat="43.149602237785864" lon="11.428270186130023"><ele>195.83333333333334</ele><time>2026-04-11T10:48:37Z</time></trkpt><trkpt lat="43.14966907343885" lon="11.428338676457628"><ele>194.0</ele><time>2026-04-11T10:48:38Z</time></trkpt><trkpt lat="43.149735300271836" lon="11.428406454734615"><ele>194.00000000000003</ele><time>2026-04-11T10:48:39Z</time></trkpt><trkpt lat="43.14979585408201" lon="11.4284912754827"><ele>194.0</ele><time>2026-04-11T10:48:40Z</time></trkpt><trkpt lat="43.149864006262845" lon="11.428561484207377"><ele>194.0</ele><time>2026-04-11T10:48:41Z</time></trkpt><trkpt lat="43.14993598626495" lon="11.428636731487522"><ele>194.0</ele><time>2026-04-11T10:48:42Z</time></trkpt><trkpt lat="43.15000117085356" lon="11.428706108597998"><ele>194.00000000000003</ele><time>2026-04-11T10:48:43Z</time></trkpt><trkpt lat="43.15006021859263" lon="11.428786640608248"><ele>194.0</ele><time>2026-04-11T10:48:44Z</time></trkpt><trkpt lat="43.15010736542937" lon="11.428880032664408"><ele>193.0</ele><time>2026-04-11T10:48:45Z</time></trkpt><trkpt lat="43.150154008411384" lon="11.428985443520778"><ele>192.0</ele><time>2026-04-11T10:48:46Z</time></trkpt><trkpt lat="43.15020799874444" lon="11.429085507673094"><ele>191.0</ele><time>2026-04-11T10:48:47Z</time></trkpt><trkpt lat="43.15026515694502" lon="11.429184729743513"><ele>190.0</ele><time>2026-04-11T10:48:48Z</time></trkpt><trkpt lat="43.1503235515167" lon="11.429278368045177"><ele>189.0</ele><time>2026-04-11T10:48:49Z</time></trkpt><trkpt lat="43.15038656558753" lon="11.42937047789392"><ele>189.0</ele><time>2026-04-11T10:48:50Z</time></trkpt><trkpt lat="43.15045271276357" lon="11.429462725774629"><ele>189.0</ele><time>2026-04-11T10:48:51Z</time></trkpt><trkpt lat="43.150524454977" lon="11.429556535440474"><ele>189.0</ele><time>2026-04-11T10:48:52Z</time></trkpt><trkpt lat="43.15059575976734" lon="11.429644300896104"><ele>189.0</ele><time>2026-04-11T10:48:53Z</time></trkpt><trkpt lat="43.15066567298313" lon="11.429724318085547"><ele>189.0</ele><time>2026-04-11T10:48:54Z</time></trkpt><trkpt lat="43.150751649055785" lon="11.42979026880923"><ele>189.16666666666666</ele><time>2026-04-11T10:48:55Z</time></trkpt><trkpt lat="43.15082842711526" lon="11.429860465011586"><ele>189.33333333333334</ele><time>2026-04-11T10:48:56Z</time></trkpt><trkpt lat="43.15089219015566" lon="11.429938903592321"><ele>189.5</ele><time>2026-04-11T10:48:57Z</time></trkpt><trkpt lat="43.1509642994372" lon="11.43000601284982"><ele>189.66666666666669</ele><time>2026-04-11T10:48:58Z</time></trkpt><trkpt lat="43.15102520413889" lon="11.430082805411207"><ele>189.83333333333334</ele><time>2026-04-11T10:48:59Z</time></trkpt><trkpt lat="43.15108576564969" lon="11.430177340169175"><ele>190.0</ele><time>2026-04-11T10:49:00Z</time></trkpt><trkpt lat="43.15112202213657" lon="11.43029115696699"><ele>190.0</ele><time>2026-04-11T10:49:01Z</time></trkpt><trkpt lat="43.151134957284654" lon="11.430411365129999"><ele>190.0</ele><time>2026-04-11T10:49:02Z</time></trkpt><trkpt lat="43.15113324818621" lon="11.430531969134936"><ele>190.0</ele><time>2026-04-11T10:49:03Z</time></trkpt><trkpt lat="43.1511243548749" lon="11.430661679440039"><ele>190.0</ele><time>2026-04-11T10:49:04Z</time></trkpt><trkpt lat="43.151114056381864" lon="11.430790616566265"><ele>190.0</ele><time>2026-04-11T10:49:05Z</time></trkpt><trkpt lat="43.15110407162239" lon="11.430919282196912"><ele>188.6</ele><time>2026-04-11T10:49:06Z</time></trkpt><trkpt lat="43.15109451266979" lon="11.43105115670899"><ele>187.2</ele><time>2026-04-11T10:49:07Z</time></trkpt><trkpt lat="43.15108473787544" lon="11.431186008998536"><ele>185.8</ele><time>2026-04-11T10:49:08Z</time></trkpt><trkpt lat="43.15107747281765" lon="11.431326483409634"><ele>184.4</ele><time>2026-04-11T10:49:09Z</time></trkpt><trkpt lat="43.15109053446489" lon="11.431464779578741"><ele>183.0</ele><time>2026-04-11T10:49:10Z</time></trkpt><trkpt lat="43.15108130256032" lon="11.43160110235964"><ele>182.0</ele><time>2026-04-11T10:49:11Z</time></trkpt><trkpt lat="43.15109185700848" lon="11.431734278040903"><ele>181.0</ele><time>2026-04-11T10:49:12Z</time></trkpt><trkpt lat="43.151103320333974" lon="11.431856317977031"><ele>180.0</ele><time>2026-04-11T10:49:13Z</time></trkpt><trkpt lat="43.151116814934824" lon="11.43197766309787"><ele>179.0</ele><time>2026-04-11T10:49:14Z</time></trkpt><trkpt lat="43.15112770881043" lon="11.43208798290324"><ele>178.0</ele><time>2026-04-11T10:49:15Z</time></trkpt><trkpt lat="43.15112696313579" lon="11.432206392139555"><ele>177.0</ele><time>2026-04-11T10:49:16Z</time></trkpt><trkpt lat="43.15111048406225" lon="11.43232287972935"><ele>176.39999999999998</ele><time>2026-04-11T10:49:17Z</time></trkpt><trkpt lat="43.15109546309052" lon="11.432444054477832"><ele>175.79999999999998</ele><time>2026-04-11T10:49:18Z</time></trkpt><trkpt lat="43.15109514706184" lon="11.432568263294721"><ele>175.2</ele><time>2026-04-11T10:49:19Z</time></trkpt><trkpt lat="43.15110670573136" lon="11.432689744443593"><ele>174.6</ele><time>2026-04-11T10:49:20Z</time></trkpt><trkpt lat="43.15114808481425" lon="11.43280598881773"><ele>174.0</ele><time>2026-04-11T10:49:21Z</time></trkpt><trkpt lat="43.151198945010584" lon="11.432917908296911"><ele>173.33333333333334</ele><time>2026-04-11T10:49:22Z</time></trkpt><trkpt lat="43.15125475866061" lon="11.433005136664566"><ele>172.66666666666666</ele><time>2026-04-11T10:49:23Z</time></trkpt><trkpt lat="43.15131498968951" lon="11.433089446638315"><ele>172.0</ele><time>2026-04-11T10:49:24Z</time></trkpt><trkpt lat="43.151383053713275" lon="11.433175199766357"><ele>171.33333333333331</ele><time>2026-04-11T10:49:25Z</time></trkpt><trkpt lat="43.151455157855516" lon="11.433257399399888"><ele>170.66666666666666</ele><time>2026-04-11T10:49:26Z</time></trkpt><trkpt lat="43.15152696827197" lon="11.433330537876909"><ele>170.0</ele><time>2026-04-11T10:49:27Z</time></trkpt><trkpt lat="43.15161034393387" lon="11.433402523825203"><ele>171.6</ele><time>2026-04-11T10:49:28Z</time></trkpt><trkpt lat="43.151681878303194" lon="11.433458237746196"><ele>173.2</ele><time>2026-04-11T10:49:29Z</time></trkpt><trkpt lat="43.15176516476068" lon="11.433509619875231"><ele>174.8</ele><time>2026-04-11T10:49:30Z</time></trkpt><trkpt lat="43.15185853603304" lon="11.43353401687978"><ele>176.4</ele><time>2026-04-11T10:49:31Z</time></trkpt><trkpt lat="43.15194492356873" lon="11.433558494378888"><ele>178.0</ele><time>2026-04-11T10:49:32Z</time></trkpt><trkpt lat="43.152037554094264" lon="11.433510561195467"><ele>178.0</ele><time>2026-04-11T10:49:33Z</time></trkpt><trkpt lat="43.15212674796934" lon="11.433463387078781"><ele>178.0</ele><time>2026-04-11T10:49:34Z</time></trkpt><trkpt lat="43.1522088317362" lon="11.433404944980449"><ele>178.0</ele><time>2026-04-11T10:49:35Z</time></trkpt><trkpt lat="43.15227563613885" lon="11.43331667186254"><ele>178.0</ele><time>2026-04-11T10:49:36Z</time></trkpt><trkpt lat="43.15233204402512" lon="11.433223216060982"><ele>178.0</ele><time>2026-04-11T10:49:37Z</time></trkpt><trkpt lat="43.152395460939736" lon="11.43313648564254"><ele>178.33333333333334</ele><time>2026-04-11T10:49:38Z</time></trkpt><trkpt lat="43.15246234024898" lon="11.433044003441177"><ele>178.66666666666669</ele><time>2026-04-11T10:49:39Z</time></trkpt><trkpt lat="43.15252810354845" lon="11.432973722883562"><ele>179.0</ele><time>2026-04-11T10:49:40Z</time></trkpt><trkpt lat="43.152602132062256" lon="11.432965151475921"><ele>179.33333333333334</ele><time>2026-04-11T10:49:41Z</time></trkpt><trkpt lat="43.152669430658904" lon="11.432966667997869"><ele>179.66666666666666</ele><time>2026-04-11T10:49:42Z</time></trkpt><trkpt lat="43.15273937844792" lon="11.433002327833488"><ele>180.0</ele><time>2026-04-11T10:49:43Z</time></trkpt><trkpt lat="43.15278980699614" lon="11.433081491484607"><ele>178.5</ele><time>2026-04-11T10:49:44Z</time></trkpt><trkpt lat="43.15279691032495" lon="11.433182533894579"><ele>177.0</ele><time>2026-04-11T10:49:45Z</time></trkpt><trkpt lat="43.1527431562947" lon="11.433320400259731"><ele>175.5</ele><time>2026-04-11T10:49:47Z</time></trkpt><trkpt lat="43.152693467000454" lon="11.433395620601859"><ele>174.0</ele><time>2026-04-11T10:49:48Z</time></trkpt><trkpt lat="43.15263920785865" lon="11.433469690880337"><ele>172.5</ele><time>2026-04-11T10:49:49Z</time></trkpt><trkpt lat="43.15257882626281" lon="11.433544089091273"><ele>171.0</ele><time>2026-04-11T10:49:50Z</time></trkpt><trkpt lat="43.1525146367753" lon="11.433620448203445"><ele>171.0</ele><time>2026-04-11T10:49:51Z</time></trkpt><trkpt lat="43.15244527801217" lon="11.433702956578857"><ele>171.0</ele><time>2026-04-11T10:49:52Z</time></trkpt><trkpt lat="43.152376156280155" lon="11.433786106782392"><ele>171.0</ele><time>2026-04-11T10:49:53Z</time></trkpt><trkpt lat="43.15230382550338" lon="11.433873555562574"><ele>171.0</ele><time>2026-04-11T10:49:54Z</time></trkpt><trkpt lat="43.15223169524846" lon="11.433960762155502"><ele>171.0</ele><time>2026-04-11T10:49:55Z</time></trkpt><trkpt lat="43.152156870990765" lon="11.434051225767824"><ele>170.4</ele><time>2026-04-11T10:49:56Z</time></trkpt><trkpt lat="43.15207957043883" lon="11.434142354553885"><ele>169.8</ele><time>2026-04-11T10:49:57Z</time></trkpt><trkpt lat="43.15200288654577" lon="11.434232204458834"><ele>169.20000000000002</ele><time>2026-04-11T10:49:58Z</time></trkpt><trkpt lat="43.15192347468799" lon="11.434325721196416"><ele>168.60000000000002</ele><time>2026-04-11T10:49:59Z</time></trkpt><trkpt lat="43.15184295955358" lon="11.434423137026672"><ele>168.0</ele><time>2026-04-11T10:50:00Z</time></trkpt><trkpt lat="43.15176326985839" lon="11.434522219504046"><ele>168.0</ele><time>2026-04-11T10:50:01Z</time></trkpt><trkpt lat="43.151685904135945" lon="11.434621698101319"><ele>168.0</ele><time>2026-04-11T10:50:02Z</time></trkpt><trkpt lat="43.15161985191451" lon="11.434725751360384"><ele>168.0</ele><time>2026-04-11T10:50:03Z</time></trkpt><trkpt lat="43.15157122029421" lon="11.43484956530096"><ele>168.0</ele><time>2026-04-11T10:50:04Z</time></trkpt><trkpt lat="43.15154614043956" lon="11.434997093443506"><ele>168.0</ele><time>2026-04-11T10:50:05Z</time></trkpt><trkpt lat="43.151543466908294" lon="11.435144154829374"><ele>166.20000000000002</ele><time>2026-04-11T10:50:06Z</time></trkpt><trkpt lat="43.15155005320212" lon="11.435290852031262"><ele>164.4</ele><time>2026-04-11T10:50:07Z</time></trkpt><trkpt lat="43.151583474922305" lon="11.435428424931262"><ele>162.60000000000002</ele><time>2026-04-11T10:50:08Z</time></trkpt><trkpt lat="43.15159825363699" lon="11.435565739437319"><ele>160.8</ele><time>2026-04-11T10:50:09Z</time></trkpt><trkpt lat="43.1516191368315" lon="11.435698964692019"><ele>159.0</ele><time>2026-04-11T10:50:10Z</time></trkpt><trkpt lat="43.151639208611755" lon="11.435827013487021"><ele>158.6</ele><time>2026-04-11T10:50:11Z</time></trkpt><trkpt lat="43.15165807492268" lon="11.435947372280713"><ele>158.2</ele><time>2026-04-11T10:50:12Z</time></trkpt><trkpt lat="43.15167742001238" lon="11.436070785495112"><ele>157.79999999999998</ele><time>2026-04-11T10:50:13Z</time></trkpt><trkpt lat="43.15169613482697" lon="11.43619017740857"><ele>157.4</ele><time>2026-04-11T10:50:14Z</time></trkpt><trkpt lat="43.15171466200744" lon="11.436309618997914"><ele>157.0</ele><time>2026-04-11T10:50:15Z</time></trkpt><trkpt lat="43.15173240201313" lon="11.436430779480265"><ele>156.66666666666669</ele><time>2026-04-11T10:50:16Z</time></trkpt><trkpt lat="43.15174965679056" lon="11.436548625855602"><ele>156.33333333333334</ele><time>2026-04-11T10:50:17Z</time></trkpt><trkpt lat="43.151766983152264" lon="11.436666961342086"><ele>156.0</ele><time>2026-04-11T10:50:18Z</time></trkpt><trkpt lat="43.15178388261751" lon="11.436782298741429"><ele>155.66666666666666</ele><time>2026-04-11T10:50:19Z</time></trkpt><trkpt lat="43.15180053740122" lon="11.436895137871732"><ele>155.33333333333331</ele><time>2026-04-11T10:50:20Z</time></trkpt><trkpt lat="43.15181637322675" lon="11.437002428415477"><ele>155.0</ele><time>2026-04-11T10:50:21Z</time></trkpt><trkpt lat="43.15183104938737" lon="11.437101861981823"><ele>155.16666666666666</ele><time>2026-04-11T10:50:22Z</time></trkpt><trkpt lat="43.1518473321906" lon="11.437212181070375"><ele>155.33333333333331</ele><time>2026-04-11T10:50:23Z</time></trkpt><trkpt lat="43.15186321955" lon="11.437316148190538"><ele>155.5</ele><time>2026-04-11T10:50:24Z</time></trkpt><trkpt lat="43.151879136412596" lon="11.437419246057129"><ele>155.66666666666666</ele><time>2026-04-11T10:50:25Z</time></trkpt><trkpt lat="43.15189458053243" lon="11.437519281867042"><ele>155.83333333333334</ele><time>2026-04-11T10:50:26Z</time></trkpt><trkpt lat="43.15191024985648" lon="11.437618237221558"><ele>156.0</ele><time>2026-04-11T10:50:27Z</time></trkpt><trkpt lat="43.15192636916122" lon="11.437716370172858"><ele>156.0</ele><time>2026-04-11T10:50:28Z</time></trkpt><trkpt lat="43.15195819014077" lon="11.437811472435493"><ele>156.0</ele><time>2026-04-11T10:50:29Z</time></trkpt><trkpt lat="43.15197263949517" lon="11.437899924750395"><ele>156.0</ele><time>2026-04-11T10:50:30Z</time></trkpt><trkpt lat="43.151970415205106" lon="11.437995577864701"><ele>156.0</ele><time>2026-04-11T10:50:31Z</time></trkpt><trkpt lat="43.151983241759524" lon="11.438091118769862"><ele>156.0</ele><time>2026-04-11T10:50:32Z</time></trkpt><trkpt lat="43.151992105457204" lon="11.438182693290658"><ele>156.0</ele><time>2026-04-11T10:50:33Z</time></trkpt><trkpt lat="43.15199837611069" lon="11.438347736974608"><ele>157.25</ele><time>2026-04-11T10:50:35Z</time></trkpt><trkpt lat="43.15198289205895" lon="11.43850682732872"><ele>158.5</ele><time>2026-04-11T10:50:37Z</time></trkpt><trkpt lat="43.15194603009921" lon="11.438641326261052"><ele>159.75</ele><time>2026-04-11T10:50:39Z</time></trkpt><trkpt lat="43.151880362024016" lon="11.438778443909094"><ele>161.0</ele><time>2026-04-11T10:50:41Z</time></trkpt><trkpt lat="43.1518078248992" lon="11.438893968599535"><ele>161.60000000000002</ele><time>2026-04-11T10:50:43Z</time></trkpt><trkpt lat="43.15173991669967" lon="11.43900647234277"><ele>162.2</ele><time>2026-04-11T10:50:45Z</time></trkpt><trkpt lat="43.15167393637965" lon="11.43911616941384"><ele>162.8</ele><time>2026-04-11T10:50:47Z</time></trkpt><trkpt lat="43.151616510538545" lon="11.439211644227608"><ele>163.39999999999998</ele><time>2026-04-11T10:50:49Z</time></trkpt><trkpt lat="43.15154267130694" lon="11.439334407451259"><ele>164.0</ele><time>2026-04-11T10:50:53Z</time></trkpt><trkpt lat="43.15147540992756" lon="11.439446231891898"><ele>163.66666666666666</ele><time>2026-04-11T10:50:56Z</time></trkpt><trkpt lat="43.151428391508354" lon="11.439528251115362"><ele>163.33333333333331</ele><time>2026-04-11T10:50:59Z</time></trkpt><trkpt lat="43.151388658076414" lon="11.439596511875916"><ele>163.0</ele><time>2026-04-11T10:51:01Z</time></trkpt><trkpt lat="43.151339723282895" lon="11.439688011850695"><ele>162.66666666666666</ele><time>2026-04-11T10:51:03Z</time></trkpt><trkpt lat="43.151291910018664" lon="11.439778061073511"><ele>162.33333333333334</ele><time>2026-04-11T10:51:04Z</time></trkpt><trkpt lat="43.151249360227595" lon="11.439863023354745"><ele>162.0</ele><time>2026-04-11T10:51:05Z</time></trkpt><trkpt lat="43.151203262878745" lon="11.439961233217057"><ele>162.0</ele><time>2026-04-11T10:51:06Z</time></trkpt><trkpt lat="43.15114083857138" lon="11.440101256943382"><ele>162.0</ele><time>2026-04-11T10:51:07Z</time></trkpt><trkpt lat="43.15109415094442" lon="11.440261824555725"><ele>162.0</ele><time>2026-04-11T10:51:09Z</time></trkpt><trkpt lat="43.15104389031089" lon="11.440352968904651"><ele>162.0</ele><time>2026-04-11T10:51:12Z</time></trkpt><trkpt lat="43.15101257718216" lon="11.440440228125263"><ele>162.0</ele><time>2026-04-11T10:51:14Z</time></trkpt><trkpt lat="43.15098342981793" lon="11.440517817405585"><ele>162.33333333333334</ele><time>2026-04-11T10:51:15Z</time></trkpt><trkpt lat="43.15092774527575" lon="11.440581104606565"><ele>162.66666666666669</ele><time>2026-04-11T10:51:18Z</time></trkpt><trkpt lat="43.150723186398174" lon="11.4408475410588"><ele>163.0</ele><time>2026-04-11T10:51:19Z</time></trkpt><trkpt lat="43.15062340221864" lon="11.440920808953024"><ele>163.0</ele><time>2026-04-11T10:51:21Z</time></trkpt><trkpt lat="43.150572011260714" lon="11.440973816487892"><ele>163.0</ele><time>2026-04-11T10:51:22Z</time></trkpt><trkpt lat="43.15047034621537" lon="11.441040000580596"><ele>163.0</ele><time>2026-04-11T10:51:24Z</time></trkpt><trkpt lat="43.15038563406145" lon="11.44113029105279"><ele>163.0</ele><time>2026-04-11T10:51:26Z</time></trkpt><trkpt lat="43.150301279301495" lon="11.44119371513236"><ele>163.0</ele><time>2026-04-11T10:51:28Z</time></trkpt><trkpt lat="43.150207341092994" lon="11.441273574990769"><ele>163.0</ele><time>2026-04-11T10:51:30Z</time></trkpt><trkpt lat="43.15011027276473" lon="11.441344808570156"><ele>163.0</ele><time>2026-04-11T10:51:32Z</time></trkpt><trkpt lat="43.15002481345778" lon="11.441421526715136"><ele>163.0</ele><time>2026-04-11T10:51:34Z</time></trkpt><trkpt lat="43.14993549743433" lon="11.441503990340452"><ele>163.0</ele><time>2026-04-11T10:51:36Z</time></trkpt><trkpt lat="43.1498470441657" lon="11.441569727764898"><ele>163.0</ele><time>2026-04-11T10:51:38Z</time></trkpt><trkpt lat="43.14975409225571" lon="11.441619315743104"><ele>163.0</ele><time>2026-04-11T10:51:40Z</time></trkpt><trkpt lat="43.149656569244165" lon="11.441696749073973"><ele>163.0</ele><time>2026-04-11T10:51:42Z</time></trkpt><trkpt lat="43.14956338296291" lon="11.441770738988485"><ele>163.0</ele><time>2026-04-11T10:51:44Z</time></trkpt><trkpt lat="43.14950327107358" lon="11.441818467796551"><ele>163.0</ele><time>2026-04-11T10:51:48Z</time></trkpt><trkpt lat="43.149434495830405" lon="11.44187307526853"><ele>163.0</ele><time>2026-04-11T10:51:50Z</time></trkpt><trkpt lat="43.14935713504425" lon="11.441935689674704"><ele>163.0</ele><time>2026-04-11T10:51:51Z</time></trkpt><trkpt lat="43.14925679196725" lon="11.442016936566093"><ele>163.0</ele><time>2026-04-11T10:51:53Z</time></trkpt><trkpt lat="43.149194091498394" lon="11.442068132710236"><ele>163.0</ele><time>2026-04-11T10:51:55Z</time></trkpt><trkpt lat="43.149120011708845" lon="11.442130829776103"><ele>163.0</ele><time>2026-04-11T10:51:57Z</time></trkpt><trkpt lat="43.149052584932186" lon="11.442188293112736"><ele>163.0</ele><time>2026-04-11T10:51:59Z</time></trkpt><trkpt lat="43.1489792899783" lon="11.442272301705126"><ele>163.16666666666669</ele><time>2026-04-11T10:52:00Z</time></trkpt><trkpt lat="43.14888617072623" lon="11.442332015259078"><ele>163.33333333333334</ele><time>2026-04-11T10:52:03Z</time></trkpt><trkpt lat="43.148818565698846" lon="11.442394541488266"><ele>163.5</ele><time>2026-04-11T10:52:06Z</time></trkpt><trkpt lat="43.148826080219095" lon="11.442508535553158"><ele>163.66666666666666</ele><time>2026-04-11T10:52:07Z</time></trkpt><trkpt lat="43.14877825328095" lon="11.442605101100499"><ele>163.83333333333331</ele><time>2026-04-11T10:52:10Z</time></trkpt><trkpt lat="43.148724041164975" lon="11.44264990789972"><ele>164.0</ele><time>2026-04-11T10:52:12Z</time></trkpt><trkpt lat="43.148650851196635" lon="11.442690452615636"><ele>168.0</ele><time>2026-04-11T10:52:14Z</time></trkpt><trkpt lat="43.14822734129602" lon="11.44327887335851"><ele>167.2</ele><time>2026-04-11T10:52:15Z</time></trkpt><trkpt lat="43.148137080868224" lon="11.443386560480663"><ele>166.4</ele><time>2026-04-11T10:52:17Z</time></trkpt><trkpt lat="43.148068778063994" lon="11.443517022912335"><ele>165.6</ele><time>2026-04-11T10:52:19Z</time></trkpt><trkpt lat="43.14804071860191" lon="11.443610158215142"><ele>164.79999999999998</ele><time>2026-04-11T10:52:20Z</time></trkpt><trkpt lat="43.148027046947405" lon="11.443775202627243"><ele>164.0</ele><time>2026-04-11T10:52:22Z</time></trkpt><trkpt lat="43.14804156826556" lon="11.443869742035064"><ele>164.0</ele><time>2026-04-11T10:52:23Z</time></trkpt><trkpt lat="43.14806560516691" lon="11.4439512732353"><ele>164.0</ele><time>2026-04-11T10:52:24Z</time></trkpt><trkpt lat="43.148114251851545" lon="11.444095679934845"><ele>164.0</ele><time>2026-04-11T10:52:26Z</time></trkpt><trkpt lat="43.148155182038295" lon="11.444185734950498"><ele>164.0</ele><time>2026-04-11T10:52:27Z</time></trkpt><trkpt lat="43.14820983511754" lon="11.444324763910819"><ele>164.0</ele><time>2026-04-11T10:52:29Z</time></trkpt><trkpt lat="43.148200248716236" lon="11.444496617386356"><ele>165.75</ele><time>2026-04-11T10:52:31Z</time></trkpt><trkpt lat="43.1481662151042" lon="11.444655852810776"><ele>167.5</ele><time>2026-04-11T10:52:33Z</time></trkpt><trkpt lat="43.14809001736689" lon="11.444758897959403"><ele>169.25</ele><time>2026-04-11T10:52:35Z</time></trkpt><trkpt lat="43.14797264595961" lon="11.444804024626519"><ele>171.0</ele><time>2026-04-11T10:52:37Z</time></trkpt><trkpt lat="43.14784233724551" lon="11.444773026730166"><ele>171.0</ele><time>2026-04-11T10:52:39Z</time></trkpt><trkpt lat="43.14778187948146" lon="11.444747701599447"><ele>171.0</ele><time>2026-04-11T10:52:40Z</time></trkpt><trkpt lat="43.14766814152597" lon="11.444698468310182"><ele>171.0</ele><time>2026-04-11T10:52:42Z</time></trkpt><trkpt lat="43.14755559980718" lon="11.444651745940684"><ele>171.0</ele><time>2026-04-11T10:52:44Z</time></trkpt><trkpt lat="43.14749519816298" lon="11.444622772649398"><ele>171.0</ele><time>2026-04-11T10:52:45Z</time></trkpt><trkpt lat="43.14742779195623" lon="11.444600863448393"><ele>171.0</ele><time>2026-04-11T10:52:46Z</time></trkpt><trkpt lat="43.1473097109127" lon="11.444573295859055"><ele>169.20000000000002</ele><time>2026-04-11T10:52:48Z</time></trkpt><trkpt lat="43.1472011663064" lon="11.444525144947889"><ele>167.4</ele><time>2026-04-11T10:52:50Z</time></trkpt><trkpt lat="43.14708320046434" lon="11.44450763648496"><ele>165.6</ele><time>2026-04-11T10:52:52Z</time></trkpt><trkpt lat="43.147018951244554" lon="11.444503322991443"><ele>163.8</ele><time>2026-04-11T10:52:53Z</time></trkpt><trkpt lat="43.146954687944564" lon="11.444500245666875"><ele>162.0</ele><time>2026-04-11T10:52:54Z</time></trkpt><trkpt lat="43.14683181701593" lon="11.444498657301294"><ele>162.0</ele><time>2026-04-11T10:52:56Z</time></trkpt><trkpt lat="43.14670413745383" lon="11.444507663162137"><ele>162.0</ele><time>2026-04-11T10:52:58Z</time></trkpt><trkpt lat="43.146640494021895" lon="11.444517370005107"><ele>162.0</ele><time>2026-04-11T10:52:59Z</time></trkpt><trkpt lat="43.14652430635531" lon="11.444557354521368"><ele>162.0</ele><time>2026-04-11T10:53:01Z</time></trkpt><trkpt lat="43.14640876259388" lon="11.444597495167047"><ele>162.0</ele><time>2026-04-11T10:53:03Z</time></trkpt><trkpt lat="43.14630333603499" lon="11.444677830942949"><ele>162.0</ele><time>2026-04-11T10:53:05Z</time></trkpt><trkpt lat="43.14620771385679" lon="11.444791386076215"><ele>162.0</ele><time>2026-04-11T10:53:07Z</time></trkpt><trkpt lat="43.14618683935501" lon="11.444879207787391"><ele>162.0</ele><time>2026-04-11T10:53:08Z</time></trkpt><trkpt lat="43.14614726916039" lon="11.444951234323886"><ele>162.0</ele><time>2026-04-11T10:53:09Z</time></trkpt><trkpt lat="43.14610965708314" lon="11.44511548167028"><ele>162.0</ele><time>2026-04-11T10:53:11Z</time></trkpt><trkpt lat="43.14611192765922" lon="11.445201906846098"><ele>162.0</ele><time>2026-04-11T10:53:12Z</time></trkpt><trkpt lat="43.14611729996321" lon="11.445368713851533"><ele>162.0</ele><time>2026-04-11T10:53:14Z</time></trkpt><trkpt lat="43.14612120002465" lon="11.445460187720492"><ele>162.0</ele><time>2026-04-11T10:53:15Z</time></trkpt><trkpt lat="43.146139158713765" lon="11.445545482912319"><ele>162.0</ele><time>2026-04-11T10:53:16Z</time></trkpt><trkpt lat="43.14615674104376" lon="11.445628345621891"><ele>162.0</ele><time>2026-04-11T10:53:17Z</time></trkpt><trkpt lat="43.14619152038446" lon="11.445717495935437"><ele>162.0</ele><time>2026-04-11T10:53:18Z</time></trkpt><trkpt lat="43.14621399125817" lon="11.445878933063556"><ele>162.0</ele><time>2026-04-11T10:53:20Z</time></trkpt><trkpt lat="43.146250988413165" lon="11.446029400224086"><ele>161.8</ele><time>2026-04-11T10:53:22Z</time></trkpt><trkpt lat="43.146273199222726" lon="11.446110304413553"><ele>161.6</ele><time>2026-04-11T10:53:23Z</time></trkpt><trkpt lat="43.14632743712977" lon="11.44625779035677"><ele>161.4</ele><time>2026-04-11T10:53:25Z</time></trkpt><trkpt lat="43.14635383705858" lon="11.446408434210948"><ele>161.20000000000002</ele><time>2026-04-11T10:53:27Z</time></trkpt><trkpt lat="43.14639201814383" lon="11.446558727157512"><ele>161.0</ele><time>2026-04-11T10:53:29Z</time></trkpt><trkpt lat="43.14641179994944" lon="11.446653556584424"><ele>162.25</ele><time>2026-04-11T10:53:30Z</time></trkpt><trkpt lat="43.14641654812683" lon="11.446809319320284"><ele>163.5</ele><time>2026-04-11T10:53:32Z</time></trkpt><trkpt lat="43.146327299302044" lon="11.446915690392931"><ele>164.75</ele><time>2026-04-11T10:53:34Z</time></trkpt><trkpt lat="43.14620514999256" lon="11.446894815801613"><ele>166.0</ele><time>2026-04-11T10:53:36Z</time></trkpt><trkpt lat="43.14608308106632" lon="11.446866450517872"><ele>166.0</ele><time>2026-04-11T10:53:38Z</time></trkpt><trkpt lat="43.145956759417146" lon="11.446872068705298"><ele>166.0</ele><time>2026-04-11T10:53:40Z</time></trkpt><trkpt lat="43.14589582135588" lon="11.446844713460363"><ele>166.0</ele><time>2026-04-11T10:53:41Z</time></trkpt><trkpt lat="43.145769901852" lon="11.446840132443729"><ele>166.0</ele><time>2026-04-11T10:53:43Z</time></trkpt><trkpt lat="43.14564085092621" lon="11.44685534140524"><ele>166.0</ele><time>2026-04-11T10:53:45Z</time></trkpt><trkpt lat="43.14557239487274" lon="11.446870362430367"><ele>166.4</ele><time>2026-04-11T10:53:46Z</time></trkpt><trkpt lat="43.14550653624034" lon="11.446892660757944"><ele>166.8</ele><time>2026-04-11T10:53:47Z</time></trkpt><trkpt lat="43.14538804612833" lon="11.446958883439082"><ele>167.20000000000002</ele><time>2026-04-11T10:53:49Z</time></trkpt><trkpt lat="43.14533551398909" lon="11.44700851871285"><ele>167.60000000000002</ele><time>2026-04-11T10:53:50Z</time></trkpt><trkpt lat="43.145235260592486" lon="11.44711334606801"><ele>168.0</ele><time>2026-04-11T10:53:52Z</time></trkpt><trkpt lat="43.145139291831875" lon="11.447226073359946"><ele>168.0</ele><time>2026-04-11T10:53:54Z</time></trkpt><trkpt lat="43.14509200296442" lon="11.447283295520258"><ele>168.0</ele><time>2026-04-11T10:53:55Z</time></trkpt><trkpt lat="43.14504258009352" lon="11.447346337924488"><ele>168.0</ele><time>2026-04-11T10:53:56Z</time></trkpt><trkpt lat="43.14496602026337" lon="11.447470060285305"><ele>168.0</ele><time>2026-04-11T10:53:58Z</time></trkpt><trkpt lat="43.14490225251077" lon="11.447608887053685"><ele>168.0</ele><time>2026-04-11T10:54:00Z</time></trkpt><trkpt lat="43.14487194064951" lon="11.44774906811616"><ele>167.83333333333334</ele><time>2026-04-11T10:54:02Z</time></trkpt><trkpt lat="43.144863104041534" lon="11.447878312620034"><ele>167.66666666666666</ele><time>2026-04-11T10:54:04Z</time></trkpt><trkpt lat="43.14486423753528" lon="11.448003584957613"><ele>167.5</ele><time>2026-04-11T10:54:07Z</time></trkpt><trkpt lat="43.14490391883627" lon="11.448110661354184"><ele>167.33333333333331</ele><time>2026-04-11T10:54:09Z</time></trkpt><trkpt lat="43.14490826557563" lon="11.448223876128264"><ele>167.16666666666666</ele><time>2026-04-11T10:54:11Z</time></trkpt><trkpt lat="43.14485521561507" lon="11.448301280749668"><ele>167.0</ele><time>2026-04-11T10:54:13Z</time></trkpt><trkpt lat="43.144832424354654" lon="11.448390847860965"><ele>167.0</ele><time>2026-04-11T10:54:15Z</time></trkpt><trkpt lat="43.14481895039375" lon="11.44847542171754"><ele>167.0</ele><time>2026-04-11T10:54:17Z</time></trkpt><trkpt lat="43.14475643850758" lon="11.448523866596988"><ele>167.0</ele><time>2026-04-11T10:54:19Z</time></trkpt><trkpt lat="43.14469198554502" lon="11.448559458059263"><ele>167.0</ele><time>2026-04-11T10:54:21Z</time></trkpt><trkpt lat="43.144618493038564" lon="11.44859175254447"><ele>167.0</ele><time>2026-04-11T10:54:24Z</time></trkpt><trkpt lat="43.144542799464936" lon="11.448608658788357"><ele>167.0</ele><time>2026-04-11T10:54:27Z</time></trkpt><trkpt lat="43.1444747467985" lon="11.448615710498938"><ele>167.0</ele><time>2026-04-11T10:54:29Z</time></trkpt><trkpt lat="43.14440811441793" lon="11.448610769831708"><ele>167.0</ele><time>2026-04-11T10:54:31Z</time></trkpt><trkpt lat="43.14430386639445" lon="11.44859076678411"><ele>167.0</ele><time>2026-04-11T10:54:33Z</time></trkpt><trkpt lat="43.14421820706374" lon="11.448560838114599"><ele>167.0</ele><time>2026-04-11T10:54:35Z</time></trkpt><trkpt lat="43.144124196979696" lon="11.448534130993433"><ele>167.0</ele><time>2026-04-11T10:54:37Z</time></trkpt><trkpt lat="43.14400980336376" lon="11.448488120010152"><ele>167.0</ele><time>2026-04-11T10:54:39Z</time></trkpt><trkpt lat="43.14392582671423" lon="11.448371988631123"><ele>168.0</ele><time>2026-04-11T10:54:41Z</time></trkpt><trkpt lat="43.14382784298143" lon="11.44831400564683"><ele>169.0</ele><time>2026-04-11T10:54:43Z</time></trkpt><trkpt lat="43.143728013582425" lon="11.44825356052789"><ele>170.0</ele><time>2026-04-11T10:54:45Z</time></trkpt><trkpt lat="43.14362670226757" lon="11.448190149265262"><ele>171.0</ele><time>2026-04-11T10:54:47Z</time></trkpt><trkpt lat="43.14351923758522" lon="11.448118395162046"><ele>172.0</ele><time>2026-04-11T10:54:49Z</time></trkpt><trkpt lat="43.143419797522775" lon="11.448043828579316"><ele>172.0</ele><time>2026-04-11T10:54:51Z</time></trkpt><trkpt lat="43.14331391252291" lon="11.447960321059801"><ele>172.0</ele><time>2026-04-11T10:54:53Z</time></trkpt><trkpt lat="43.14321161306926" lon="11.447883367566032"><ele>172.0</ele><time>2026-04-11T10:54:55Z</time></trkpt><trkpt lat="43.14310947426585" lon="11.447810311110356"><ele>172.0</ele><time>2026-04-11T10:54:57Z</time></trkpt><trkpt lat="43.14300822151581" lon="11.447748287078076"><ele>170.2</ele><time>2026-04-11T10:54:59Z</time></trkpt><trkpt lat="43.14289693904655" lon="11.447702967376685"><ele>168.39999999999998</ele><time>2026-04-11T10:55:01Z</time></trkpt><trkpt lat="43.14279105954075" lon="11.447675206609702"><ele>166.60000000000002</ele><time>2026-04-11T10:55:03Z</time></trkpt><trkpt lat="43.14272513039201" lon="11.4476676532322"><ele>164.8</ele><time>2026-04-11T10:55:04Z</time></trkpt><trkpt lat="43.14260058719672" lon="11.447668280281107"><ele>163.0</ele><time>2026-04-11T10:55:06Z</time></trkpt><trkpt lat="43.14248758359913" lon="11.447688119780127"><ele>162.75</ele><time>2026-04-11T10:55:08Z</time></trkpt><trkpt lat="43.14237100570592" lon="11.447735012964268"><ele>162.5</ele><time>2026-04-11T10:55:10Z</time></trkpt><trkpt lat="43.14226058661567" lon="11.447764021343225"><ele>162.25</ele><time>2026-04-11T10:55:12Z</time></trkpt><trkpt lat="43.142145206121654" lon="11.447807994192955"><ele>162.0</ele><time>2026-04-11T10:55:14Z</time></trkpt><trkpt lat="43.14203224290562" lon="11.447847172963838"><ele>162.0</ele><time>2026-04-11T10:55:16Z</time></trkpt><trkpt lat="43.14191708173802" lon="11.447863857116708"><ele>162.0</ele><time>2026-04-11T10:55:18Z</time></trkpt><trkpt lat="43.14185322033589" lon="11.44788572744585"><ele>162.0</ele><time>2026-04-11T10:55:19Z</time></trkpt><trkpt lat="43.14173539609954" lon="11.447926697690098"><ele>162.0</ele><time>2026-04-11T10:55:21Z</time></trkpt><trkpt lat="43.141632703865085" lon="11.447962548893521"><ele>162.0</ele><time>2026-04-11T10:55:23Z</time></trkpt><trkpt lat="43.14153088694101" lon="11.448012628301914"><ele>163.8</ele><time>2026-04-11T10:55:25Z</time></trkpt><trkpt lat="43.14141323487138" lon="11.448029110983018"><ele>165.6</ele><time>2026-04-11T10:55:27Z</time></trkpt><trkpt lat="43.14130902909942" lon="11.448051625886905"><ele>167.4</ele><time>2026-04-11T10:55:29Z</time></trkpt><trkpt lat="43.14120525468591" lon="11.448088065657428"><ele>169.20000000000002</ele><time>2026-04-11T10:55:31Z</time></trkpt><trkpt lat="43.14109583728298" lon="11.448103819297303"><ele>171.0</ele><time>2026-04-11T10:55:33Z</time></trkpt><trkpt lat="43.140985139170425" lon="11.448112680159742"><ele>171.0</ele><time>2026-04-11T10:55:35Z</time></trkpt><trkpt lat="43.14088972995632" lon="11.448130048075459"><ele>171.0</ele><time>2026-04-11T10:55:37Z</time></trkpt><trkpt lat="43.14080467650034" lon="11.44814485801682"><ele>171.0</ele><time>2026-04-11T10:55:40Z</time></trkpt><trkpt lat="43.140720465754235" lon="11.448167049831532"><ele>171.0</ele><time>2026-04-11T10:55:43Z</time></trkpt><trkpt lat="43.14063427326572" lon="11.448175902317272"><ele>171.0</ele><time>2026-04-11T10:55:44Z</time></trkpt><trkpt lat="43.14051119638119" lon="11.448151400723216"><ele>170.4</ele><time>2026-04-11T10:55:46Z</time></trkpt><trkpt lat="43.14042101487198" lon="11.448120781984642"><ele>169.8</ele><time>2026-04-11T10:55:48Z</time></trkpt><trkpt lat="43.140329751226034" lon="11.448084959358946"><ele>169.20000000000002</ele><time>2026-04-11T10:55:50Z</time></trkpt><trkpt lat="43.14022035603766" lon="11.448062901135836"><ele>168.60000000000002</ele><time>2026-04-11T10:55:51Z</time></trkpt><trkpt lat="43.14011652172594" lon="11.448003954891862"><ele>168.0</ele><time>2026-04-11T10:55:53Z</time></trkpt><trkpt lat="43.140015852657264" lon="11.447964490471119"><ele>167.66666666666666</ele><time>2026-04-11T10:55:54Z</time></trkpt><trkpt lat="43.13993242865812" lon="11.447906076734855"><ele>167.33333333333334</ele><time>2026-04-11T10:55:55Z</time></trkpt><trkpt lat="43.139811470138724" lon="11.447831343827822"><ele>167.0</ele><time>2026-04-11T10:55:57Z</time></trkpt><trkpt lat="43.1397402730533" lon="11.447803870497456"><ele>166.66666666666669</ele><time>2026-04-11T10:55:58Z</time></trkpt><trkpt lat="43.139672005903286" lon="11.447793964949865"><ele>166.33333333333334</ele><time>2026-04-11T10:55:59Z</time></trkpt><trkpt lat="43.13959880485327" lon="11.447779460885926"><ele>166.0</ele><time>2026-04-11T10:56:00Z</time></trkpt><trkpt lat="43.139524925066794" lon="11.447826308645142"><ele>165.0</ele><time>2026-04-11T10:56:01Z</time></trkpt><trkpt lat="43.13945284176605" lon="11.447884858534064"><ele>164.0</ele><time>2026-04-11T10:56:02Z</time></trkpt><trkpt lat="43.13939113197292" lon="11.447960663311786"><ele>163.0</ele><time>2026-04-11T10:56:03Z</time></trkpt><trkpt lat="43.13934039017322" lon="11.448037491787128"><ele>162.0</ele><time>2026-04-11T10:56:04Z</time></trkpt><trkpt lat="43.13932343709071" lon="11.448181675345381"><ele>161.0</ele><time>2026-04-11T10:56:05Z</time></trkpt><trkpt lat="43.1393057353238" lon="11.44828676834019"><ele>160.0</ele><time>2026-04-11T10:56:06Z</time></trkpt><trkpt lat="43.1392904409342" lon="11.448388654301215"><ele>160.0</ele><time>2026-04-11T10:56:07Z</time></trkpt><trkpt lat="43.13927957130846" lon="11.448488880983195"><ele>160.0</ele><time>2026-04-11T10:56:08Z</time></trkpt><trkpt lat="43.139271195166586" lon="11.448597302133487"><ele>160.0</ele><time>2026-04-11T10:56:09Z</time></trkpt><trkpt lat="43.13926564200275" lon="11.448701969363453"><ele>160.0</ele><time>2026-04-11T10:56:10Z</time></trkpt><trkpt lat="43.13926202211447" lon="11.448811043526511"><ele>160.0</ele><time>2026-04-11T10:56:11Z</time></trkpt><trkpt lat="43.13925942890007" lon="11.448919233263265"><ele>160.0</ele><time>2026-04-11T10:56:12Z</time></trkpt><trkpt lat="43.13925696745" lon="11.449021925840357"><ele>160.0</ele><time>2026-04-11T10:56:13Z</time></trkpt><trkpt lat="43.1392544139599" lon="11.44912845817722"><ele>160.0</ele><time>2026-04-11T10:56:14Z</time></trkpt><trkpt lat="43.13925181952252" lon="11.449236698966503"><ele>160.0</ele><time>2026-04-11T10:56:15Z</time></trkpt><trkpt lat="43.13924991866308" lon="11.449342270053746"><ele>160.0</ele><time>2026-04-11T10:56:16Z</time></trkpt><trkpt lat="43.13924838178243" lon="11.449449575836033"><ele>160.0</ele><time>2026-04-11T10:56:17Z</time></trkpt><trkpt lat="43.139246870060525" lon="11.4495551248425"><ele>160.0</ele><time>2026-04-11T10:56:18Z</time></trkpt><trkpt lat="43.139246948080164" lon="11.449662353071874"><ele>160.0</ele><time>2026-04-11T10:56:19Z</time></trkpt><trkpt lat="43.13924732413453" lon="11.449769401944677"><ele>160.0</ele><time>2026-04-11T10:56:20Z</time></trkpt><trkpt lat="43.13924879443829" lon="11.449876881191832"><ele>160.0</ele><time>2026-04-11T10:56:21Z</time></trkpt><trkpt lat="43.13925138551486" lon="11.44998466501664"><ele>160.0</ele><time>2026-04-11T10:56:22Z</time></trkpt><trkpt lat="43.139255146304855" lon="11.450089439509194"><ele>160.0</ele><time>2026-04-11T10:56:23Z</time></trkpt><trkpt lat="43.13926221272175" lon="11.450197159747349"><ele>160.0</ele><time>2026-04-11T10:56:24Z</time></trkpt><trkpt lat="43.13927072966811" lon="11.450301110072726"><ele>160.0</ele><time>2026-04-11T10:56:25Z</time></trkpt><trkpt lat="43.139275838953864" lon="11.450403663941815"><ele>160.0</ele><time>2026-04-11T10:56:26Z</time></trkpt><trkpt lat="43.139276348078646" lon="11.450507621857467"><ele>160.0</ele><time>2026-04-11T10:56:27Z</time></trkpt><trkpt lat="43.13927326565811" lon="11.450612661369485"><ele>160.0</ele><time>2026-04-11T10:56:28Z</time></trkpt><trkpt lat="43.13926519095266" lon="11.45071901630706"><ele>160.0</ele><time>2026-04-11T10:56:29Z</time></trkpt><trkpt lat="43.13924281292085" lon="11.450811288878556"><ele>160.0</ele><time>2026-04-11T10:56:30Z</time></trkpt><trkpt lat="43.13920955490599" lon="11.450902151269291"><ele>160.28571428571428</ele><time>2026-04-11T10:56:31Z</time></trkpt><trkpt lat="43.13917314995481" lon="11.450993437157678"><ele>160.57142857142858</ele><time>2026-04-11T10:56:32Z</time></trkpt><trkpt lat="43.13913042131196" lon="11.451074345513465"><ele>160.85714285714286</ele><time>2026-04-11T10:56:33Z</time></trkpt><trkpt lat="43.13908837736889" lon="11.451157380345856"><ele>161.14285714285714</ele><time>2026-04-11T10:56:34Z</time></trkpt><trkpt lat="43.139048800491274" lon="11.451235933355836"><ele>161.42857142857142</ele><time>2026-04-11T10:56:35Z</time></trkpt><trkpt lat="43.13901103140409" lon="11.451311645818913"><ele>161.71428571428572</ele><time>2026-04-11T10:56:36Z</time></trkpt><trkpt lat="43.13897279247357" lon="11.451388300253749"><ele>162.0</ele><time>2026-04-11T10:56:37Z</time></trkpt><trkpt lat="43.13893217202093" lon="11.451469728706334"><ele>161.0</ele><time>2026-04-11T10:56:38Z</time></trkpt><trkpt lat="43.138891005220266" lon="11.451552252251185"><ele>160.0</ele><time>2026-04-11T10:56:39Z</time></trkpt><trkpt lat="43.13884948392955" lon="11.451633074188134"><ele>159.0</ele><time>2026-04-11T10:56:40Z</time></trkpt><trkpt lat="43.138808439539574" lon="11.451712828041565"><ele>158.0</ele><time>2026-04-11T10:56:41Z</time></trkpt><trkpt lat="43.1387696244616" lon="11.451787540662004"><ele>157.0</ele><time>2026-04-11T10:56:42Z</time></trkpt><trkpt lat="43.138734719866704" lon="11.451878218198898"><ele>156.0</ele><time>2026-04-11T10:56:43Z</time></trkpt><trkpt lat="43.13869088176607" lon="11.451952871160593"><ele>155.0</ele><time>2026-04-11T10:56:44Z</time></trkpt><trkpt lat="43.13864743788267" lon="11.452023976392356"><ele>155.0</ele><time>2026-04-11T10:56:45Z</time></trkpt><trkpt lat="43.13859588805725" lon="11.452078492539625"><ele>155.0</ele><time>2026-04-11T10:56:46Z</time></trkpt><trkpt lat="43.13855650718618" lon="11.452157802098407"><ele>155.0</ele><time>2026-04-11T10:56:47Z</time></trkpt><trkpt lat="43.13851317024683" lon="11.452227345049604"><ele>155.0</ele><time>2026-04-11T10:56:48Z</time></trkpt><trkpt lat="43.13845374033546" lon="11.45227335919267"><ele>155.0</ele><time>2026-04-11T10:56:49Z</time></trkpt><trkpt lat="43.13840710435945" lon="11.452331442108704"><ele>155.0</ele><time>2026-04-11T10:56:50Z</time></trkpt><trkpt lat="43.138355174220145" lon="11.452394036116448"><ele>155.0</ele><time>2026-04-11T10:56:51Z</time></trkpt><trkpt lat="43.138306386413305" lon="11.452450461575227"><ele>154.71428571428572</ele><time>2026-04-11T10:56:52Z</time></trkpt><trkpt lat="43.138256127645256" lon="11.452508587311392"><ele>154.42857142857142</ele><time>2026-04-11T10:56:53Z</time></trkpt><trkpt lat="43.138198038418345" lon="11.452557924955324"><ele>154.14285714285714</ele><time>2026-04-11T10:56:54Z</time></trkpt><trkpt lat="43.13813949981046" lon="11.45260577988309"><ele>153.85714285714286</ele><time>2026-04-11T10:56:55Z</time></trkpt><trkpt lat="43.13808038706831" lon="11.452671044455759"><ele>153.57142857142858</ele><time>2026-04-11T10:56:56Z</time></trkpt><trkpt lat="43.13801884070151" lon="11.452714236005278"><ele>153.28571428571428</ele><time>2026-04-11T10:56:57Z</time></trkpt><trkpt lat="43.137951661500196" lon="11.452740064454629"><ele>153.0</ele><time>2026-04-11T10:56:58Z</time></trkpt><trkpt lat="43.13788735109004" lon="11.452782730629757"><ele>153.0</ele><time>2026-04-11T10:56:59Z</time></trkpt><trkpt lat="43.13782272834133" lon="11.452823808975408"><ele>153.0</ele><time>2026-04-11T10:57:00Z</time></trkpt><trkpt lat="43.13775961851619" lon="11.452863570859721"><ele>153.0</ele><time>2026-04-11T10:57:01Z</time></trkpt><trkpt lat="43.1376889674405" lon="11.452908084042763"><ele>153.0</ele><time>2026-04-11T10:57:02Z</time></trkpt><trkpt lat="43.13756716901729" lon="11.452984822182323"><ele>153.0</ele><time>2026-04-11T10:57:04Z</time></trkpt><trkpt lat="43.1375032318193" lon="11.453025105351754"><ele>153.0</ele><time>2026-04-11T10:57:05Z</time></trkpt><trkpt lat="43.1374418434613" lon="11.453066097695654"><ele>153.0</ele><time>2026-04-11T10:57:06Z</time></trkpt><trkpt lat="43.13738177321715" lon="11.45310635049564"><ele>153.0</ele><time>2026-04-11T10:57:07Z</time></trkpt><trkpt lat="43.13731971055395" lon="11.453151364696764"><ele>153.0</ele><time>2026-04-11T10:57:08Z</time></trkpt><trkpt lat="43.137259473610875" lon="11.453201034592801"><ele>153.0</ele><time>2026-04-11T10:57:09Z</time></trkpt><trkpt lat="43.13720244951227" lon="11.453256630000068"><ele>153.0</ele><time>2026-04-11T10:57:10Z</time></trkpt><trkpt lat="43.137144210528035" lon="11.453319313513935"><ele>153.0</ele><time>2026-04-11T10:57:11Z</time></trkpt><trkpt lat="43.13708784159201" lon="11.45337983643577"><ele>153.0</ele><time>2026-04-11T10:57:12Z</time></trkpt><trkpt lat="43.137033215415435" lon="11.453436050927595"><ele>153.0</ele><time>2026-04-11T10:57:13Z</time></trkpt><trkpt lat="43.13697796838967" lon="11.453492347324605"><ele>153.0</ele><time>2026-04-11T10:57:14Z</time></trkpt><trkpt lat="43.136919390039616" lon="11.453552038264458"><ele>153.0</ele><time>2026-04-11T10:57:15Z</time></trkpt><trkpt lat="43.13686581289861" lon="11.453607337499855"><ele>153.0</ele><time>2026-04-11T10:57:16Z</time></trkpt><trkpt lat="43.13681239758137" lon="11.453663954755937"><ele>153.0</ele><time>2026-04-11T10:57:17Z</time></trkpt><trkpt lat="43.136756983952196" lon="11.453726537222082"><ele>153.0</ele><time>2026-04-11T10:57:18Z</time></trkpt><trkpt lat="43.1367031173354" lon="11.453788174785755"><ele>153.0</ele><time>2026-04-11T10:57:19Z</time></trkpt><trkpt lat="43.13664744623707" lon="11.453855788944825"><ele>152.71428571428572</ele><time>2026-04-11T10:57:20Z</time></trkpt><trkpt lat="43.136592069818526" lon="11.453924981293035"><ele>152.42857142857144</ele><time>2026-04-11T10:57:21Z</time></trkpt><trkpt lat="43.136538759741896" lon="11.453993325607696"><ele>152.14285714285717</ele><time>2026-04-11T10:57:22Z</time></trkpt><trkpt lat="43.13648607043267" lon="11.454068718721656"><ele>151.85714285714286</ele><time>2026-04-11T10:57:23Z</time></trkpt><trkpt lat="43.136437270632" lon="11.454139859692766"><ele>151.57142857142858</ele><time>2026-04-11T10:57:24Z</time></trkpt><trkpt lat="43.13638739761023" lon="11.4542184991213"><ele>151.2857142857143</ele><time>2026-04-11T10:57:25Z</time></trkpt><trkpt lat="43.136342315222265" lon="11.454292454187915"><ele>151.0</ele><time>2026-04-11T10:57:26Z</time></trkpt><trkpt lat="43.13629869964458" lon="11.454369217651863"><ele>151.00000000000003</ele><time>2026-04-11T10:57:27Z</time></trkpt><trkpt lat="43.136256975263166" lon="11.45444835166489"><ele>151.0</ele><time>2026-04-11T10:57:28Z</time></trkpt><trkpt lat="43.136217620771276" lon="11.454526837354772"><ele>151.0</ele><time>2026-04-11T10:57:29Z</time></trkpt><trkpt lat="43.13617643511623" lon="11.454608975901024"><ele>151.0</ele><time>2026-04-11T10:57:30Z</time></trkpt><trkpt lat="43.136138769855705" lon="11.45468910134988"><ele>151.0</ele><time>2026-04-11T10:57:31Z</time></trkpt><trkpt lat="43.13610049337797" lon="11.454771967399507"><ele>151.00000000000003</ele><time>2026-04-11T10:57:32Z</time></trkpt><trkpt lat="43.136062969277084" lon="11.454855215662077"><ele>151.0</ele><time>2026-04-11T10:57:33Z</time></trkpt><trkpt lat="43.1360255641744" lon="11.454938198997825"><ele>151.71428571428572</ele><time>2026-04-11T10:57:34Z</time></trkpt><trkpt lat="43.135989274652815" lon="11.455018707623537"><ele>152.42857142857144</ele><time>2026-04-11T10:57:35Z</time></trkpt><trkpt lat="43.13595296133867" lon="11.45509926922933"><ele>153.14285714285717</ele><time>2026-04-11T10:57:36Z</time></trkpt><trkpt lat="43.13591448811949" lon="11.455183341461328"><ele>153.85714285714286</ele><time>2026-04-11T10:57:37Z</time></trkpt><trkpt lat="43.13587596027328" lon="11.455262139446212"><ele>154.57142857142856</ele><time>2026-04-11T10:57:38Z</time></trkpt><trkpt lat="43.13583691784966" lon="11.455341991454945"><ele>155.2857142857143</ele><time>2026-04-11T10:57:39Z</time></trkpt><trkpt lat="43.135793320402925" lon="11.455419935085633"><ele>156.0</ele><time>2026-04-11T10:57:40Z</time></trkpt><trkpt lat="43.13574703818113" lon="11.4554948307208"><ele>155.42857142857144</ele><time>2026-04-11T10:57:41Z</time></trkpt><trkpt lat="43.13569836665573" lon="11.455560267113217"><ele>154.85714285714283</ele><time>2026-04-11T10:57:42Z</time></trkpt><trkpt lat="43.13564613075822" lon="11.455622194512658"><ele>154.28571428571428</ele><time>2026-04-11T10:57:43Z</time></trkpt><trkpt lat="43.13559303548514" lon="11.455679063016142"><ele>153.71428571428572</ele><time>2026-04-11T10:57:44Z</time></trkpt><trkpt lat="43.1355360665856" lon="11.455737681788893"><ele>153.14285714285717</ele><time>2026-04-11T10:57:45Z</time></trkpt><trkpt lat="43.13547848065395" lon="11.455796333717613"><ele>152.57142857142856</ele><time>2026-04-11T10:57:46Z</time></trkpt><trkpt lat="43.135420993948244" lon="11.45585423042778"><ele>152.0</ele><time>2026-04-11T10:57:47Z</time></trkpt><trkpt lat="43.13535982163637" lon="11.455915839027588"><ele>152.0</ele><time>2026-04-11T10:57:48Z</time></trkpt><trkpt lat="43.1352979169922" lon="11.455978185217997"><ele>152.0</ele><time>2026-04-11T10:57:49Z</time></trkpt><trkpt lat="43.13523593246986" lon="11.456040611837382"><ele>152.0</ele><time>2026-04-11T10:57:50Z</time></trkpt><trkpt lat="43.135175633711484" lon="11.45610134062745"><ele>152.0</ele><time>2026-04-11T10:57:51Z</time></trkpt><trkpt lat="43.1351170380037" lon="11.456160354296873"><ele>152.0</ele><time>2026-04-11T10:57:52Z</time></trkpt><trkpt lat="43.135057223827026" lon="11.456220595091455"><ele>152.0</ele><time>2026-04-11T10:57:53Z</time></trkpt><trkpt lat="43.13499989128642" lon="11.456279757415459"><ele>152.0</ele><time>2026-04-11T10:57:54Z</time></trkpt><trkpt lat="43.13494184878588" lon="11.456341021557389"><ele>152.0</ele><time>2026-04-11T10:57:55Z</time></trkpt><trkpt lat="43.13488190021112" lon="11.456404297536483"><ele>152.0</ele><time>2026-04-11T10:57:56Z</time></trkpt><trkpt lat="43.1348228765718" lon="11.456466597218359"><ele>152.0</ele><time>2026-04-11T10:57:57Z</time></trkpt><trkpt lat="43.13476396396071" lon="11.45652877979075"><ele>152.0</ele><time>2026-04-11T10:57:58Z</time></trkpt><trkpt lat="43.13470231392199" lon="11.456593887033915"><ele>152.0</ele><time>2026-04-11T10:57:59Z</time></trkpt><trkpt lat="43.13464031950374" lon="11.45665710952795"><ele>152.0</ele><time>2026-04-11T10:58:00Z</time></trkpt><trkpt lat="43.13457841288266" lon="11.456720242520475"><ele>152.0</ele><time>2026-04-11T10:58:01Z</time></trkpt><trkpt lat="43.134515737909325" lon="11.45678187344264"><ele>152.0</ele><time>2026-04-11T10:58:02Z</time></trkpt><trkpt lat="43.134454140713345" lon="11.456842329384651"><ele>152.0</ele><time>2026-04-11T10:58:03Z</time></trkpt><trkpt lat="43.13439423381333" lon="11.456901126357561"><ele>152.0</ele><time>2026-04-11T10:58:04Z</time></trkpt><trkpt lat="43.134326642275994" lon="11.456968387276996"><ele>152.0</ele><time>2026-04-11T10:58:05Z</time></trkpt><trkpt lat="43.13426608884042" lon="11.457029277469"><ele>152.0</ele><time>2026-04-11T10:58:06Z</time></trkpt><trkpt lat="43.13420304386525" lon="11.457092673046732"><ele>151.66666666666666</ele><time>2026-04-11T10:58:07Z</time></trkpt><trkpt lat="43.13414212303482" lon="11.457153932649119"><ele>151.33333333333331</ele><time>2026-04-11T10:58:08Z</time></trkpt><trkpt lat="43.134079849972984" lon="11.457216552033872"><ele>151.0</ele><time>2026-04-11T10:58:09Z</time></trkpt><trkpt lat="43.1340178241535" lon="11.457278922818388"><ele>150.66666666666666</ele><time>2026-04-11T10:58:10Z</time></trkpt><trkpt lat="43.13395637871514" lon="11.457340709928445"><ele>150.33333333333334</ele><time>2026-04-11T10:58:11Z</time></trkpt><trkpt lat="43.133893413632386" lon="11.457404025233886"><ele>150.0</ele><time>2026-04-11T10:58:12Z</time></trkpt><trkpt lat="43.133835337018645" lon="11.457460991992525"><ele>149.99999999999997</ele><time>2026-04-11T10:58:13Z</time></trkpt><trkpt lat="43.13377213264104" lon="11.457522494017258"><ele>150.0</ele><time>2026-04-11T10:58:14Z</time></trkpt><trkpt lat="43.13371144705526" lon="11.457580443238617"><ele>150.0</ele><time>2026-04-11T10:58:15Z</time></trkpt><trkpt lat="43.133647581924976" lon="11.457639586804552"><ele>150.0</ele><time>2026-04-11T10:58:16Z</time></trkpt><trkpt lat="43.1335864255202" lon="11.457696221959573"><ele>150.0</ele><time>2026-04-11T10:58:17Z</time></trkpt><trkpt lat="43.13352764578698" lon="11.45775050089714"><ele>149.99999999999997</ele><time>2026-04-11T10:58:18Z</time></trkpt><trkpt lat="43.13346647792171" lon="11.457802567420694"><ele>150.0</ele><time>2026-04-11T10:58:19Z</time></trkpt><trkpt lat="43.13340411863425" lon="11.457855648096077"><ele>149.99999999999997</ele><time>2026-04-11T10:58:20Z</time></trkpt><trkpt lat="43.13334025980483" lon="11.457910829688547"><ele>150.0</ele><time>2026-04-11T10:58:21Z</time></trkpt><trkpt lat="43.13328448734361" lon="11.457962348894716"><ele>150.0</ele><time>2026-04-11T10:58:22Z</time></trkpt><trkpt lat="43.13322263697805" lon="11.45802472734483"><ele>150.0</ele><time>2026-04-11T10:58:23Z</time></trkpt><trkpt lat="43.133166043104715" lon="11.45808331236221"><ele>150.0</ele><time>2026-04-11T10:58:24Z</time></trkpt><trkpt lat="43.13310626004481" lon="11.458152559996003"><ele>149.99999999999997</ele><time>2026-04-11T10:58:25Z</time></trkpt><trkpt lat="43.13304852308158" lon="11.458218055892258"><ele>150.0</ele><time>2026-04-11T10:58:26Z</time></trkpt><trkpt lat="43.13298824776463" lon="11.458287514163526"><ele>149.5</ele><time>2026-04-11T10:58:27Z</time></trkpt><trkpt lat="43.13292723557669" lon="11.458357795898166"><ele>149.0</ele><time>2026-04-11T10:58:28Z</time></trkpt><trkpt lat="43.132868107068234" lon="11.458430114568168"><ele>148.5</ele><time>2026-04-11T10:58:29Z</time></trkpt><trkpt lat="43.13281070895885" lon="11.458503071222088"><ele>148.0</ele><time>2026-04-11T10:58:30Z</time></trkpt><trkpt lat="43.1327528041323" lon="11.4585803474742"><ele>147.5</ele><time>2026-04-11T10:58:31Z</time></trkpt><trkpt lat="43.132696593675554" lon="11.45865841882961"><ele>147.0</ele><time>2026-04-11T10:58:32Z</time></trkpt><trkpt lat="43.132648479977696" lon="11.458754072847665"><ele>147.83333333333334</ele><time>2026-04-11T10:58:33Z</time></trkpt><trkpt lat="43.13261015660006" lon="11.458847233156842"><ele>148.66666666666666</ele><time>2026-04-11T10:58:34Z</time></trkpt><trkpt lat="43.13256833508386" lon="11.458942386690826"><ele>149.5</ele><time>2026-04-11T10:58:35Z</time></trkpt><trkpt lat="43.132523562498335" lon="11.45902910017976"><ele>150.33333333333331</ele><time>2026-04-11T10:58:36Z</time></trkpt><trkpt lat="43.13249175381568" lon="11.459127114344716"><ele>151.16666666666666</ele><time>2026-04-11T10:58:37Z</time></trkpt><trkpt lat="43.13246595687325" lon="11.45922700286303"><ele>152.0</ele><time>2026-04-11T10:58:38Z</time></trkpt><trkpt lat="43.13245605787084" lon="11.459327915905016"><ele>152.0</ele><time>2026-04-11T10:58:39Z</time></trkpt><trkpt lat="43.13241935824794" lon="11.459411840501327"><ele>152.0</ele><time>2026-04-11T10:58:40Z</time></trkpt><trkpt lat="43.132396683819024" lon="11.459508404988501"><ele>152.0</ele><time>2026-04-11T10:58:41Z</time></trkpt><trkpt lat="43.13237553819129" lon="11.459598458704988"><ele>152.0</ele><time>2026-04-11T10:58:42Z</time></trkpt><trkpt lat="43.13235386563109" lon="11.45969075660188"><ele>152.0</ele><time>2026-04-11T10:58:43Z</time></trkpt><trkpt lat="43.132332087037234" lon="11.459782072580204"><ele>152.0</ele><time>2026-04-11T10:58:44Z</time></trkpt><trkpt lat="43.1323087384988" lon="11.459879676117964"><ele>152.0</ele><time>2026-04-11T10:58:45Z</time></trkpt><trkpt lat="43.132285622972454" lon="11.459976305559243"><ele>151.0</ele><time>2026-04-11T10:58:46Z</time></trkpt><trkpt lat="43.13226342472617" lon="11.4600691005469"><ele>150.0</ele><time>2026-04-11T10:58:47Z</time></trkpt><trkpt lat="43.13224164880508" lon="11.460160130096767"><ele>149.0</ele><time>2026-04-11T10:58:48Z</time></trkpt><trkpt lat="43.132218892798214" lon="11.460253030418185"><ele>148.0</ele><time>2026-04-11T10:58:49Z</time></trkpt><trkpt lat="43.13219802089281" lon="11.460337822627343"><ele>147.0</ele><time>2026-04-11T10:58:50Z</time></trkpt><trkpt lat="43.132157748324865" lon="11.460501429947687"><ele>146.0</ele><time>2026-04-11T10:58:52Z</time></trkpt><trkpt lat="43.13213865824277" lon="11.460586469117793"><ele>146.0</ele><time>2026-04-11T10:58:53Z</time></trkpt><trkpt lat="43.13212043648716" lon="11.46066908822283"><ele>146.0</ele><time>2026-04-11T10:58:54Z</time></trkpt><trkpt lat="43.13210323234669" lon="11.460753806489386"><ele>146.0</ele><time>2026-04-11T10:58:55Z</time></trkpt><trkpt lat="43.132089797812604" lon="11.460847531568662"><ele>146.0</ele><time>2026-04-11T10:58:56Z</time></trkpt><trkpt lat="43.13208625748737" lon="11.460943095314596"><ele>146.0</ele><time>2026-04-11T10:58:57Z</time></trkpt><trkpt lat="43.13208827583305" lon="11.461032667742122"><ele>146.0</ele><time>2026-04-11T10:58:58Z</time></trkpt><trkpt lat="43.13209431904759" lon="11.461130265427272"><ele>146.0</ele><time>2026-04-11T10:58:59Z</time></trkpt><trkpt lat="43.13210245039522" lon="11.461241506341702"><ele>146.0</ele><time>2026-04-11T10:59:00Z</time></trkpt><trkpt lat="43.13213247496072" lon="11.461341764003679"><ele>146.0</ele><time>2026-04-11T10:59:01Z</time></trkpt><trkpt lat="43.132130219653" lon="11.461453681923134"><ele>146.0</ele><time>2026-04-11T10:59:02Z</time></trkpt><trkpt lat="43.132142145648416" lon="11.461550194677224"><ele>146.0</ele><time>2026-04-11T10:59:03Z</time></trkpt><trkpt lat="43.132149329838725" lon="11.46170647555235"><ele>146.0</ele><time>2026-04-11T10:59:05Z</time></trkpt><trkpt lat="43.132159879840955" lon="11.461819601614504"><ele>146.0</ele><time>2026-04-11T10:59:07Z</time></trkpt><trkpt lat="43.1321180313889" lon="11.46192080796932"><ele>146.0</ele><time>2026-04-11T10:59:10Z</time></trkpt><trkpt lat="43.13202902986394" lon="11.46186333061666"><ele>146.0</ele><time>2026-04-11T10:59:13Z</time></trkpt><trkpt lat="43.13198264483874" lon="11.461762580293888"><ele>146.0</ele><time>2026-04-11T10:59:15Z</time></trkpt><trkpt lat="43.13193482603883" lon="11.461661492687439"><ele>146.0</ele><time>2026-04-11T10:59:17Z</time></trkpt><trkpt lat="43.13185979892055" lon="11.46159405760424"><ele>146.0</ele><time>2026-04-11T10:59:19Z</time></trkpt><trkpt lat="43.131750209594706" lon="11.461577114915384"><ele>146.0</ele><time>2026-04-11T10:59:21Z</time></trkpt><trkpt lat="43.13162515553171" lon="11.461571223946741"><ele>146.0</ele><time>2026-04-11T10:59:23Z</time></trkpt><trkpt lat="43.13155642958324" lon="11.461557001699862"><ele>146.0</ele><time>2026-04-11T10:59:24Z</time></trkpt><trkpt lat="43.13148288638778" lon="11.46153624801043"><ele>146.0</ele><time>2026-04-11T10:59:25Z</time></trkpt><trkpt lat="43.131408601520185" lon="11.461506401672162"><ele>146.0</ele><time>2026-04-11T10:59:26Z</time></trkpt><trkpt lat="43.131340082201646" lon="11.461438859575276"><ele>146.0</ele><time>2026-04-11T10:59:27Z</time></trkpt><trkpt lat="43.1312814644032" lon="11.461353861089778"><ele>145.5</ele><time>2026-04-11T10:59:28Z</time></trkpt><trkpt lat="43.131236914482315" lon="11.461254267496066"><ele>145.0</ele><time>2026-04-11T10:59:29Z</time></trkpt><trkpt lat="43.131196758828516" lon="11.461161914970521"><ele>144.5</ele><time>2026-04-11T10:59:30Z</time></trkpt><trkpt lat="43.13115496191979" lon="11.461076338163195"><ele>144.0</ele><time>2026-04-11T10:59:31Z</time></trkpt><trkpt lat="43.131109950234176" lon="11.460994795345465"><ele>143.5</ele><time>2026-04-11T10:59:32Z</time></trkpt><trkpt lat="43.13105583979058" lon="11.460924547744042"><ele>143.0</ele><time>2026-04-11T10:59:33Z</time></trkpt><trkpt lat="43.131000022338284" lon="11.460866991755456"><ele>142.99999999999997</ele><time>2026-04-11T10:59:34Z</time></trkpt><trkpt lat="43.13093079631596" lon="11.46083008020557"><ele>143.0</ele><time>2026-04-11T10:59:35Z</time></trkpt><trkpt lat="43.1308648268157" lon="11.46081166538101"><ele>143.0</ele><time>2026-04-11T10:59:36Z</time></trkpt><trkpt lat="43.130797927771845" lon="11.460805366843411"><ele>143.0</ele><time>2026-04-11T10:59:37Z</time></trkpt><trkpt lat="43.13072695776477" lon="11.460799137254677"><ele>143.0</ele><time>2026-04-11T10:59:38Z</time></trkpt><trkpt lat="43.13065539131072" lon="11.460779708758057"><ele>142.99999999999997</ele><time>2026-04-11T10:59:39Z</time></trkpt><trkpt lat="43.1305980241637" lon="11.460739919382082"><ele>143.0</ele><time>2026-04-11T10:59:40Z</time></trkpt><trkpt lat="43.13050630865896" lon="11.460623964959444"><ele>142.75</ele><time>2026-04-11T10:59:42Z</time></trkpt><trkpt lat="43.13044849857625" lon="11.460482436895152"><ele>142.5</ele><time>2026-04-11T10:59:44Z</time></trkpt><trkpt lat="43.130427055233945" lon="11.460326673985575"><ele>142.25</ele><time>2026-04-11T10:59:46Z</time></trkpt><trkpt lat="43.13039118345856" lon="11.46018311257045"><ele>142.0</ele><time>2026-04-11T10:59:48Z</time></trkpt><trkpt lat="43.13035946483131" lon="11.460040187009604"><ele>142.5</ele><time>2026-04-11T10:59:50Z</time></trkpt><trkpt lat="43.130328637392175" lon="11.45987450504959"><ele>143.0</ele><time>2026-04-11T10:59:52Z</time></trkpt><trkpt lat="43.13029583367076" lon="11.459721878668798"><ele>143.5</ele><time>2026-04-11T10:59:54Z</time></trkpt><trkpt lat="43.13026591821627" lon="11.45956727380621"><ele>144.0</ele><time>2026-04-11T10:59:56Z</time></trkpt><trkpt lat="43.130233846649254" lon="11.459416362008783"><ele>144.2</ele><time>2026-04-11T10:59:58Z</time></trkpt><trkpt lat="43.13020819336261" lon="11.45927438186304"><ele>144.4</ele><time>2026-04-11T11:00:00Z</time></trkpt><trkpt lat="43.13017906589662" lon="11.459140032527586"><ele>144.6</ele><time>2026-04-11T11:00:02Z</time></trkpt><trkpt lat="43.13014561256599" lon="11.459016680672919"><ele>144.8</ele><time>2026-04-11T11:00:04Z</time></trkpt><trkpt lat="43.1301329934568" lon="11.458896922961154"><ele>145.0</ele><time>2026-04-11T11:00:06Z</time></trkpt><trkpt lat="43.13010737404163" lon="11.458790277916966"><ele>145.85714285714286</ele><time>2026-04-11T11:00:08Z</time></trkpt><trkpt lat="43.130079681035895" lon="11.45870614346578"><ele>146.71428571428572</ele><time>2026-04-11T11:00:10Z</time></trkpt><trkpt lat="43.13004804441349" lon="11.4586297259831"><ele>147.57142857142858</ele><time>2026-04-11T11:00:13Z</time></trkpt><trkpt lat="43.13002818562647" lon="11.458525023932376"><ele>148.42857142857144</ele><time>2026-04-11T11:00:16Z</time></trkpt><trkpt lat="43.13003073797158" lon="11.45843731790715"><ele>149.28571428571428</ele><time>2026-04-11T11:00:19Z</time></trkpt><trkpt lat="43.13002419218661" lon="11.458321357128995"><ele>150.14285714285717</ele><time>2026-04-11T11:00:23Z</time></trkpt><trkpt lat="43.12999329343059" lon="11.458213593221265"><ele>151.0</ele><time>2026-04-11T11:00:26Z</time></trkpt><trkpt lat="43.129955612601414" lon="11.458137598056394"><ele>151.00000000000003</ele><time>2026-04-11T11:00:29Z</time></trkpt><trkpt lat="43.12990705408784" lon="11.45805641579092"><ele>151.0</ele><time>2026-04-11T11:00:33Z</time></trkpt><trkpt lat="43.12987359067268" lon="11.457981129580483"><ele>151.0</ele><time>2026-04-11T11:00:36Z</time></trkpt><trkpt lat="43.12983628810287" lon="11.457907136786343"><ele>151.0</ele><time>2026-04-11T11:00:39Z</time></trkpt><trkpt lat="43.12979410626583" lon="11.45783699597624"><ele>151.0</ele><time>2026-04-11T11:00:42Z</time></trkpt><trkpt lat="43.12973187957871" lon="11.457763669836995"><ele>151.00000000000003</ele><time>2026-04-11T11:00:46Z</time></trkpt><trkpt lat="43.129697506670894" lon="11.45768957958386"><ele>151.0</ele><time>2026-04-11T11:00:49Z</time></trkpt><trkpt lat="43.129647948109906" lon="11.45759884289214"><ele>152.66666666666669</ele><time>2026-04-11T11:00:53Z</time></trkpt><trkpt lat="43.1295975001472" lon="11.457512979144484"><ele>154.33333333333334</ele><time>2026-04-11T11:00:57Z</time></trkpt><trkpt lat="43.12955438984353" lon="11.45742521871805"><ele>156.0</ele><time>2026-04-11T11:01:01Z</time></trkpt><trkpt lat="43.129501948736625" lon="11.45734731609337"><ele>157.66666666666666</ele><time>2026-04-11T11:01:05Z</time></trkpt><trkpt lat="43.1294486940026" lon="11.457263457562913"><ele>159.33333333333331</ele><time>2026-04-11T11:01:09Z</time></trkpt><trkpt lat="43.12939484610638" lon="11.457174803755946"><ele>161.0</ele><time>2026-04-11T11:01:13Z</time></trkpt><trkpt lat="43.129352479726926" lon="11.457106810390007"><ele>161.28571428571428</ele><time>2026-04-11T11:01:16Z</time></trkpt><trkpt lat="43.12930040030965" lon="11.457020325781805"><ele>161.57142857142856</ele><time>2026-04-11T11:01:20Z</time></trkpt><trkpt lat="43.12926703869506" lon="11.456943651113354"><ele>161.85714285714286</ele><time>2026-04-11T11:01:23Z</time></trkpt><trkpt lat="43.129209190315876" lon="11.45688460391223"><ele>162.14285714285714</ele><time>2026-04-11T11:01:26Z</time></trkpt><trkpt lat="43.12917067081258" lon="11.456806434122539"><ele>162.42857142857142</ele><time>2026-04-11T11:01:29Z</time></trkpt><trkpt lat="43.12912447344717" lon="11.456744827916067"><ele>162.71428571428572</ele><time>2026-04-11T11:01:32Z</time></trkpt><trkpt lat="43.129083147213564" lon="11.456675786352461"><ele>163.0</ele><time>2026-04-11T11:01:35Z</time></trkpt><trkpt lat="43.12904680686103" lon="11.45659866066709"><ele>164.42857142857144</ele><time>2026-04-11T11:01:38Z</time></trkpt><trkpt lat="43.129001319857664" lon="11.456533369193707"><ele>165.85714285714283</ele><time>2026-04-11T11:01:41Z</time></trkpt><trkpt lat="43.12896994431174" lon="11.456447874663779"><ele>167.28571428571428</ele><time>2026-04-11T11:01:44Z</time></trkpt><trkpt lat="43.12893492364151" lon="11.456360095103273"><ele>168.71428571428572</ele><time>2026-04-11T11:01:47Z</time></trkpt><trkpt lat="43.128896435838854" lon="11.456275073751742"><ele>170.14285714285717</ele><time>2026-04-11T11:01:50Z</time></trkpt><trkpt lat="43.12885618188721" lon="11.45619756233042"><ele>171.57142857142856</ele><time>2026-04-11T11:01:53Z</time></trkpt><trkpt lat="43.12881725348952" lon="11.456126327772946"><ele>173.0</ele><time>2026-04-11T11:01:56Z</time></trkpt><trkpt lat="43.128767997678366" lon="11.456042129920203"><ele>173.33333333333331</ele><time>2026-04-11T11:02:00Z</time></trkpt><trkpt lat="43.12871721953449" lon="11.455950857056342"><ele>173.66666666666666</ele><time>2026-04-11T11:02:04Z</time></trkpt><trkpt lat="43.12866894432085" lon="11.455863199129478"><ele>174.0</ele><time>2026-04-11T11:02:08Z</time></trkpt><trkpt lat="43.12861920599387" lon="11.455787173860237"><ele>174.33333333333334</ele><time>2026-04-11T11:02:12Z</time></trkpt><trkpt lat="43.12857660411811" lon="11.455701423010506"><ele>174.66666666666669</ele><time>2026-04-11T11:02:16Z</time></trkpt><trkpt lat="43.128510827334246" lon="11.45564173917064"><ele>175.0</ele><time>2026-04-11T11:02:20Z</time></trkpt><trkpt lat="43.12846577861143" lon="11.455580730523941"><ele>175.0</ele><time>2026-04-11T11:02:23Z</time></trkpt><trkpt lat="43.12839933556008" lon="11.455521769085497"><ele>175.0</ele><time>2026-04-11T11:02:27Z</time></trkpt><trkpt lat="43.12833526254501" lon="11.455481082813318"><ele>175.0</ele><time>2026-04-11T11:02:31Z</time></trkpt><trkpt lat="43.12826309198289" lon="11.4554466451321"><ele>175.0</ele><time>2026-04-11T11:02:35Z</time></trkpt><trkpt lat="43.12820005702433" lon="11.455389875825837"><ele>175.0</ele><time>2026-04-11T11:02:39Z</time></trkpt><trkpt lat="43.128132209493764" lon="11.455366192670937"><ele>175.0</ele><time>2026-04-11T11:02:43Z</time></trkpt><trkpt lat="43.12806935521186" lon="11.455338606654786"><ele>175.0</ele><time>2026-04-11T11:02:48Z</time></trkpt><trkpt lat="43.12799802895238" lon="11.455319316873144"><ele>177.57142857142858</ele><time>2026-04-11T11:02:53Z</time></trkpt><trkpt lat="43.12793795778233" lon="11.455277929788885"><ele>180.14285714285714</ele><time>2026-04-11T11:02:58Z</time></trkpt><trkpt lat="43.12786799971621" lon="11.455258629023602"><ele>182.71428571428572</ele><time>2026-04-11T11:03:03Z</time></trkpt><trkpt lat="43.12780424360097" lon="11.45521650144111"><ele>185.28571428571428</ele><time>2026-04-11T11:03:08Z</time></trkpt><trkpt lat="43.127736964803745" lon="11.455187672982571"><ele>187.85714285714286</ele><time>2026-04-11T11:03:13Z</time></trkpt><trkpt lat="43.12767263775234" lon="11.455150690268932"><ele>190.42857142857144</ele><time>2026-04-11T11:03:18Z</time></trkpt><trkpt lat="43.12760817822639" lon="11.455133022689118"><ele>193.0</ele><time>2026-04-11T11:03:23Z</time></trkpt><trkpt lat="43.12754430307326" lon="11.455103944472398"><ele>193.00000000000003</ele><time>2026-04-11T11:03:28Z</time></trkpt><trkpt lat="43.127481623752125" lon="11.45508425211914"><ele>193.0</ele><time>2026-04-11T11:03:33Z</time></trkpt><trkpt lat="43.127418083938636" lon="11.455071671108303"><ele>193.0</ele><time>2026-04-11T11:03:38Z</time></trkpt><trkpt lat="43.127354598936485" lon="11.455037444560398"><ele>193.0</ele><time>2026-04-11T11:03:43Z</time></trkpt><trkpt lat="43.12730003764698" lon="11.454985892681233"><ele>193.0</ele><time>2026-04-11T11:03:50Z</time></trkpt><trkpt lat="43.127250168342115" lon="11.454927366398326"><ele>193.00000000000003</ele><time>2026-04-11T11:03:55Z</time></trkpt><trkpt lat="43.127186550877724" lon="11.454904648272645"><ele>193.0</ele><time>2026-04-11T11:04:00Z</time></trkpt><trkpt lat="43.127141062205695" lon="11.454842363035208"><ele>194.57142857142858</ele><time>2026-04-11T11:04:05Z</time></trkpt><trkpt lat="43.12710005888107" lon="11.454765011234066"><ele>196.14285714285714</ele><time>2026-04-11T11:04:10Z</time></trkpt><trkpt lat="43.12705927655379" lon="11.45468658516084"><ele>197.71428571428572</ele><time>2026-04-11T11:04:15Z</time></trkpt><trkpt lat="43.12701535234555" lon="11.454601687731977"><ele>199.28571428571428</ele><time>2026-04-11T11:04:20Z</time></trkpt><trkpt lat="43.126971951520304" lon="11.454537311449418"><ele>200.85714285714286</ele><time>2026-04-11T11:04:24Z</time></trkpt><trkpt lat="43.12692799546416" lon="11.45445146264376"><ele>202.42857142857144</ele><time>2026-04-11T11:04:29Z</time></trkpt><trkpt lat="43.12687476578413" lon="11.454378852587954"><ele>204.0</ele><time>2026-04-11T11:04:34Z</time></trkpt><trkpt lat="43.126866865664816" lon="11.454292242868183"><ele>205.28571428571428</ele><time>2026-04-11T11:04:38Z</time></trkpt><trkpt lat="43.12685878108899" lon="11.45420345577583"><ele>206.57142857142858</ele><time>2026-04-11T11:04:43Z</time></trkpt><trkpt lat="43.126811314592764" lon="11.454127168483192"><ele>207.85714285714283</ele><time>2026-04-11T11:04:48Z</time></trkpt><trkpt lat="43.1268166937087" lon="11.454027171381018"><ele>209.14285714285714</ele><time>2026-04-11T11:04:53Z</time></trkpt><trkpt lat="43.12678970189869" lon="11.453948185322888"><ele>210.42857142857142</ele><time>2026-04-11T11:04:58Z</time></trkpt><trkpt lat="43.1268110728998" lon="11.453855868011754"><ele>211.7142857142857</ele><time>2026-04-11T11:05:03Z</time></trkpt><trkpt lat="43.126795737653566" lon="11.453759355662475"><ele>213.0</ele><time>2026-04-11T11:05:08Z</time></trkpt><trkpt lat="43.126811150790545" lon="11.45365769068174"><ele>213.85714285714283</ele><time>2026-04-11T11:05:13Z</time></trkpt><trkpt lat="43.1268020544049" lon="11.453556634794172"><ele>214.71428571428572</ele><time>2026-04-11T11:05:18Z</time></trkpt><trkpt lat="43.126761836030795" lon="11.453477847413911"><ele>215.57142857142856</ele><time>2026-04-11T11:05:23Z</time></trkpt><trkpt lat="43.126799358902105" lon="11.453399883921097"><ele>216.42857142857142</ele><time>2026-04-11T11:05:27Z</time></trkpt><trkpt lat="43.12678371111962" lon="11.453311437794296"><ele>217.28571428571428</ele><time>2026-04-11T11:05:31Z</time></trkpt><trkpt lat="43.12679684737674" lon="11.45322356242241"><ele>218.14285714285714</ele><time>2026-04-11T11:05:35Z</time></trkpt><trkpt lat="43.12679243100825" lon="11.453132769566372"><ele>219.0</ele><time>2026-04-11T11:05:39Z</time></trkpt><trkpt lat="43.12679157830411" lon="11.453040579274488"><ele>219.42857142857144</ele><time>2026-04-11T11:05:43Z</time></trkpt><trkpt lat="43.12679644419001" lon="11.45295256155673"><ele>219.85714285714283</ele><time>2026-04-11T11:05:47Z</time></trkpt><trkpt lat="43.12679508303513" lon="11.452860238515928"><ele>220.28571428571428</ele><time>2026-04-11T11:05:51Z</time></trkpt><trkpt lat="43.1267946403443" lon="11.452756473506486"><ele>220.71428571428572</ele><time>2026-04-11T11:05:55Z</time></trkpt><trkpt lat="43.12679524678611" lon="11.452655638367984"><ele>221.14285714285717</ele><time>2026-04-11T11:05:59Z</time></trkpt><trkpt lat="43.12678856088737" lon="11.452557172254753"><ele>221.57142857142856</ele><time>2026-04-11T11:06:03Z</time></trkpt><trkpt lat="43.12679571704775" lon="11.452451195512639"><ele>222.0</ele><time>2026-04-11T11:06:07Z</time></trkpt><trkpt lat="43.12679524703894" lon="11.452364020143099"><ele>222.0</ele><time>2026-04-11T11:06:10Z</time></trkpt><trkpt lat="43.12677953924018" lon="11.452255812164665"><ele>222.0</ele><time>2026-04-11T11:06:14Z</time></trkpt><trkpt lat="43.1267525301465" lon="11.452150703879617"><ele>222.0</ele><time>2026-04-11T11:06:18Z</time></trkpt><trkpt lat="43.12674774014075" lon="11.45205698427004"><ele>222.0</ele><time>2026-04-11T11:06:21Z</time></trkpt><trkpt lat="43.126732237414075" lon="11.451964892709464"><ele>222.0</ele><time>2026-04-11T11:06:24Z</time></trkpt><trkpt lat="43.12673283827098" lon="11.45186463286249"><ele>222.0</ele><time>2026-04-11T11:06:27Z</time></trkpt><trkpt lat="43.12672294258388" lon="11.451770070955615"><ele>222.0</ele><time>2026-04-11T11:06:30Z</time></trkpt><trkpt lat="43.126710029800186" lon="11.451676782429804"><ele>222.42857142857142</ele><time>2026-04-11T11:06:33Z</time></trkpt><trkpt lat="43.12670861196413" lon="11.451575195641649"><ele>222.8571428571429</ele><time>2026-04-11T11:06:36Z</time></trkpt><trkpt lat="43.12669181650189" lon="11.451484136490583"><ele>223.2857142857143</ele><time>2026-04-11T11:06:39Z</time></trkpt><trkpt lat="43.126698972844125" lon="11.4513944093533"><ele>223.71428571428572</ele><time>2026-04-11T11:06:41Z</time></trkpt><trkpt lat="43.12667804022572" lon="11.451293214908873"><ele>224.14285714285717</ele><time>2026-04-11T11:06:44Z</time></trkpt><trkpt lat="43.12665619795305" lon="11.451199334804407"><ele>224.5714285714286</ele><time>2026-04-11T11:06:47Z</time></trkpt><trkpt lat="43.1266304908941" lon="11.451118652443984"><ele>225.00000000000003</ele><time>2026-04-11T11:06:50Z</time></trkpt><trkpt lat="43.1265931625883" lon="11.451016059894188"><ele>225.0</ele><time>2026-04-11T11:06:54Z</time></trkpt><trkpt lat="43.126556015118496" lon="11.450918103493567"><ele>225.0</ele><time>2026-04-11T11:06:58Z</time></trkpt><trkpt lat="43.126525545163766" lon="11.450834562146987"><ele>225.0</ele><time>2026-04-11T11:07:01Z</time></trkpt><trkpt lat="43.12650666797235" lon="11.450736828359128"><ele>225.0</ele><time>2026-04-11T11:07:04Z</time></trkpt><trkpt lat="43.1264797040848" lon="11.450643903241348"><ele>225.0</ele><time>2026-04-11T11:07:07Z</time></trkpt><trkpt lat="43.12643277126359" lon="11.4505453958129"><ele>225.0</ele><time>2026-04-11T11:07:10Z</time></trkpt><trkpt lat="43.12640021171755" lon="11.450440897526754"><ele>225.8571428571429</ele><time>2026-04-11T11:07:13Z</time></trkpt><trkpt lat="43.12636661338104" lon="11.450336031874974"><ele>226.71428571428572</ele><time>2026-04-11T11:07:17Z</time></trkpt><trkpt lat="43.12632511197237" lon="11.450238292372388"><ele>227.57142857142858</ele><time>2026-04-11T11:07:21Z</time></trkpt><trkpt lat="43.126303952536134" lon="11.45013867824878"><ele>228.42857142857144</ele><time>2026-04-11T11:07:24Z</time></trkpt><trkpt lat="43.12630625880492" lon="11.4500523985123"><ele>229.28571428571428</ele><time>2026-04-11T11:07:27Z</time></trkpt><trkpt lat="43.12627181581101" lon="11.449973983833113"><ele>230.14285714285714</ele><time>2026-04-11T11:07:30Z</time></trkpt><trkpt lat="43.12624163908475" lon="11.449891448302097"><ele>231.0</ele><time>2026-04-11T11:07:33Z</time></trkpt><trkpt lat="43.12622078700496" lon="11.449797634228409"><ele>231.0</ele><time>2026-04-11T11:07:37Z</time></trkpt><trkpt lat="43.12619124913878" lon="11.449709355454168"><ele>231.0</ele><time>2026-04-11T11:07:40Z</time></trkpt><trkpt lat="43.12616769256029" lon="11.449621431817796"><ele>231.0</ele><time>2026-04-11T11:07:43Z</time></trkpt><trkpt lat="43.12612632953307" lon="11.449552619233408"><ele>231.0</ele><time>2026-04-11T11:07:46Z</time></trkpt><trkpt lat="43.12608573778279" lon="11.449483822976175"><ele>231.0</ele><time>2026-04-11T11:07:49Z</time></trkpt><trkpt lat="43.12603624492013" lon="11.449420057895981"><ele>231.0</ele><time>2026-04-11T11:07:52Z</time></trkpt><trkpt lat="43.12597687799218" lon="11.449363000157373"><ele>231.0</ele><time>2026-04-11T11:07:55Z</time></trkpt><trkpt lat="43.12591124827355" lon="11.449311994634659"><ele>232.14285714285714</ele><time>2026-04-11T11:07:58Z</time></trkpt><trkpt lat="43.12583990220105" lon="11.449261380453711"><ele>233.28571428571428</ele><time>2026-04-11T11:08:01Z</time></trkpt><trkpt lat="43.125770609156596" lon="11.44922919199072"><ele>234.42857142857144</ele><time>2026-04-11T11:08:04Z</time></trkpt><trkpt lat="43.12570211400333" lon="11.449199042471461"><ele>235.57142857142858</ele><time>2026-04-11T11:08:07Z</time></trkpt><trkpt lat="43.125633361172575" lon="11.449199389440583"><ele>236.71428571428572</ele><time>2026-04-11T11:08:09Z</time></trkpt><trkpt lat="43.12556763218298" lon="11.449148248602118"><ele>237.8571428571429</ele><time>2026-04-11T11:08:11Z</time></trkpt><trkpt lat="43.12550770331624" lon="11.449106052612446"><ele>239.00000000000003</ele><time>2026-04-11T11:08:13Z</time></trkpt><trkpt lat="43.12544427641141" lon="11.449075714513109"><ele>239.00000000000003</ele><time>2026-04-11T11:08:15Z</time></trkpt><trkpt lat="43.125356535675266" lon="11.449051796643051"><ele>239.0</ele><time>2026-04-11T11:08:18Z</time></trkpt><trkpt lat="43.125270652841074" lon="11.4490108081868"><ele>239.0</ele><time>2026-04-11T11:08:21Z</time></trkpt><trkpt lat="43.1251840418368" lon="11.44897461529072"><ele>239.0</ele><time>2026-04-11T11:08:24Z</time></trkpt><trkpt lat="43.125115982965355" lon="11.448937756527515"><ele>239.00000000000003</ele><time>2026-04-11T11:08:26Z</time></trkpt><trkpt lat="43.125051331280886" lon="11.448900709675634"><ele>239.0</ele><time>2026-04-11T11:08:28Z</time></trkpt><trkpt lat="43.12498188168406" lon="11.448860154183983"><ele>239.00000000000003</ele><time>2026-04-11T11:08:30Z</time></trkpt><trkpt lat="43.124919771945905" lon="11.448835671639214"><ele>239.0</ele><time>2026-04-11T11:08:32Z</time></trkpt><trkpt lat="43.124855567427126" lon="11.448797898226939"><ele>239.00000000000003</ele><time>2026-04-11T11:08:34Z</time></trkpt><trkpt lat="43.12478765041764" lon="11.44878514250291"><ele>239.00000000000003</ele><time>2026-04-11T11:08:36Z</time></trkpt><trkpt lat="43.124717281377336" lon="11.448762873828647"><ele>239.0</ele><time>2026-04-11T11:08:38Z</time></trkpt><trkpt lat="43.124651160246714" lon="11.448759405900004"><ele>239.00000000000003</ele><time>2026-04-11T11:08:40Z</time></trkpt><trkpt lat="43.12458316555488" lon="11.448843853010855"><ele>239.00000000000003</ele><time>2026-04-11T11:10:59Z</time></trkpt><trkpt lat="43.1244934638097" lon="11.448983125607265"><ele>238.6</ele><time>2026-04-11T11:11:02Z</time></trkpt><trkpt lat="43.124433223811074" lon="11.449066123881405"><ele>238.2</ele><time>2026-04-11T11:11:04Z</time></trkpt><trkpt lat="43.124350045496534" lon="11.449162426921323"><ele>237.79999999999998</ele><time>2026-04-11T11:11:06Z</time></trkpt><trkpt lat="43.12424752701649" lon="11.449226803837892"><ele>237.39999999999998</ele><time>2026-04-11T11:11:08Z</time></trkpt><trkpt lat="43.12413593961395" lon="11.449247978575245"><ele>237.0</ele><time>2026-04-11T11:11:10Z</time></trkpt><trkpt lat="43.12404425340988" lon="11.449244573138456"><ele>236.39999999999998</ele><time>2026-04-11T11:11:12Z</time></trkpt><trkpt lat="43.12394067039863" lon="11.44921840955295"><ele>235.79999999999998</ele><time>2026-04-11T11:11:14Z</time></trkpt><trkpt lat="43.12383719948217" lon="11.449180706751626"><ele>235.2</ele><time>2026-04-11T11:11:16Z</time></trkpt><trkpt lat="43.12373475669008" lon="11.449154485147657"><ele>234.6</ele><time>2026-04-11T11:11:18Z</time></trkpt><trkpt lat="43.12362855273527" lon="11.449099254486109"><ele>234.0</ele><time>2026-04-11T11:11:20Z</time></trkpt><trkpt lat="43.12350877777182" lon="11.44906639509857"><ele>234.0</ele><time>2026-04-11T11:11:22Z</time></trkpt><trkpt lat="43.123440797146735" lon="11.449043383533457"><ele>234.00000000000003</ele><time>2026-04-11T11:11:23Z</time></trkpt><trkpt lat="43.123379382844995" lon="11.449015320489863"><ele>234.0</ele><time>2026-04-11T11:11:24Z</time></trkpt><trkpt lat="43.12331146576954" lon="11.448995532218506"><ele>234.0</ele><time>2026-04-11T11:11:25Z</time></trkpt><trkpt lat="43.12324703781212" lon="11.448971730828664"><ele>234.00000000000003</ele><time>2026-04-11T11:11:26Z</time></trkpt><trkpt lat="43.12317915115738" lon="11.448948107908658"><ele>234.0</ele><time>2026-04-11T11:11:27Z</time></trkpt><trkpt lat="43.123111427466235" lon="11.448924758030936"><ele>234.0</ele><time>2026-04-11T11:11:28Z</time></trkpt><trkpt lat="43.12304160089805" lon="11.4488934082248"><ele>233.5</ele><time>2026-04-11T11:11:29Z</time></trkpt><trkpt lat="43.122966399463586" lon="11.448878840222134"><ele>233.0</ele><time>2026-04-11T11:11:30Z</time></trkpt><trkpt lat="43.12289347836916" lon="11.448858572878628"><ele>232.5</ele><time>2026-04-11T11:11:31Z</time></trkpt><trkpt lat="43.122823327515" lon="11.448808729915623"><ele>232.0</ele><time>2026-04-11T11:11:32Z</time></trkpt><trkpt lat="43.122750291388186" lon="11.448788366095563"><ele>231.5</ele><time>2026-04-11T11:11:33Z</time></trkpt><trkpt lat="43.122672207391744" lon="11.44877621154635"><ele>231.0</ele><time>2026-04-11T11:11:34Z</time></trkpt><trkpt lat="43.122597099201016" lon="11.448754159871445"><ele>230.83333333333334</ele><time>2026-04-11T11:11:35Z</time></trkpt><trkpt lat="43.1225233264619" lon="11.448724800154379"><ele>230.66666666666669</ele><time>2026-04-11T11:11:36Z</time></trkpt><trkpt lat="43.12245649212499" lon="11.448698539541526"><ele>230.5</ele><time>2026-04-11T11:11:37Z</time></trkpt><trkpt lat="43.12234907476812" lon="11.448674944919613"><ele>230.33333333333334</ele><time>2026-04-11T11:11:39Z</time></trkpt><trkpt lat="43.12224049468874" lon="11.448635633959851"><ele>230.16666666666669</ele><time>2026-04-11T11:11:41Z</time></trkpt><trkpt lat="43.12217754323306" lon="11.448609054503208"><ele>230.0</ele><time>2026-04-11T11:11:42Z</time></trkpt><trkpt lat="43.12211185660736" lon="11.448589683507572"><ele>229.00000000000003</ele><time>2026-04-11T11:11:43Z</time></trkpt><trkpt lat="43.12204147601498" lon="11.448568101171972"><ele>228.0</ele><time>2026-04-11T11:11:44Z</time></trkpt><trkpt lat="43.121970478884336" lon="11.448547591675325"><ele>227.0</ele><time>2026-04-11T11:11:45Z</time></trkpt><trkpt lat="43.12189852040765" lon="11.448503841133356"><ele>226.0</ele><time>2026-04-11T11:11:46Z</time></trkpt><trkpt lat="43.12181997454935" lon="11.448468250667734"><ele>225.00000000000003</ele><time>2026-04-11T11:11:47Z</time></trkpt><trkpt lat="43.12173574205335" lon="11.448437845356896"><ele>224.0</ele><time>2026-04-11T11:11:48Z</time></trkpt><trkpt lat="43.121650168654924" lon="11.448393827096753"><ele>224.0</ele><time>2026-04-11T11:11:49Z</time></trkpt><trkpt lat="43.12156686514544" lon="11.448342954868712"><ele>223.99999999999997</ele><time>2026-04-11T11:11:50Z</time></trkpt><trkpt lat="43.121480971433385" lon="11.448285317435737"><ele>223.99999999999997</ele><time>2026-04-11T11:11:51Z</time></trkpt><trkpt lat="43.1214074409397" lon="11.44820051383095"><ele>224.0</ele><time>2026-04-11T11:11:52Z</time></trkpt><trkpt lat="43.12135134660919" lon="11.44807701661965"><ele>224.0</ele><time>2026-04-11T11:11:53Z</time></trkpt><trkpt lat="43.121301878395506" lon="11.447951785280686"><ele>222.6</ele><time>2026-04-11T11:11:54Z</time></trkpt><trkpt lat="43.121262720191446" lon="11.4478249363136"><ele>221.2</ele><time>2026-04-11T11:11:55Z</time></trkpt><trkpt lat="43.12122174011494" lon="11.447700710835722"><ele>219.79999999999998</ele><time>2026-04-11T11:11:56Z</time></trkpt><trkpt lat="43.12118154913929" lon="11.447568346552613"><ele>218.39999999999998</ele><time>2026-04-11T11:11:57Z</time></trkpt><trkpt lat="43.121142835740635" lon="11.447439166295899"><ele>217.0</ele><time>2026-04-11T11:11:58Z</time></trkpt><trkpt lat="43.121095348241205" lon="11.447311057140157"><ele>217.0</ele><time>2026-04-11T11:11:59Z</time></trkpt><trkpt lat="43.121057276055765" lon="11.447180617375723"><ele>217.0</ele><time>2026-04-11T11:12:00Z</time></trkpt><trkpt lat="43.12101180286784" lon="11.447048888204199"><ele>217.0</ele><time>2026-04-11T11:12:01Z</time></trkpt><trkpt lat="43.120975047550274" lon="11.44691831376835"><ele>217.0</ele><time>2026-04-11T11:12:02Z</time></trkpt><trkpt lat="43.12093550668699" lon="11.446773682413646"><ele>217.0</ele><time>2026-04-11T11:12:03Z</time></trkpt><trkpt lat="43.12088883007395" lon="11.446634370004347"><ele>216.2</ele><time>2026-04-11T11:12:04Z</time></trkpt><trkpt lat="43.12084513452248" lon="11.446490308894452"><ele>215.39999999999998</ele><time>2026-04-11T11:12:05Z</time></trkpt><trkpt lat="43.120798379665814" lon="11.44635148847343"><ele>214.60000000000002</ele><time>2026-04-11T11:12:06Z</time></trkpt><trkpt lat="43.120761159401454" lon="11.44622335582481"><ele>213.8</ele><time>2026-04-11T11:12:07Z</time></trkpt><trkpt lat="43.120722461894275" lon="11.446098318131348"><ele>213.0</ele><time>2026-04-11T11:12:08Z</time></trkpt><trkpt lat="43.12070416165157" lon="11.445973164173608"><ele>212.60000000000002</ele><time>2026-04-11T11:12:09Z</time></trkpt><trkpt lat="43.120706459703065" lon="11.445835015669921"><ele>212.20000000000002</ele><time>2026-04-11T11:12:10Z</time></trkpt><trkpt lat="43.1207314005853" lon="11.445685833362186"><ele>211.8</ele><time>2026-04-11T11:12:11Z</time></trkpt><trkpt lat="43.1207731792788" lon="11.445547090587214"><ele>211.4</ele><time>2026-04-11T11:12:12Z</time></trkpt><trkpt lat="43.120826895077684" lon="11.445403174828783"><ele>211.0</ele><time>2026-04-11T11:12:13Z</time></trkpt><trkpt lat="43.12088400130807" lon="11.445261670548959"><ele>211.0</ele><time>2026-04-11T11:12:14Z</time></trkpt><trkpt lat="43.12090984018578" lon="11.445126816829388"><ele>211.0</ele><time>2026-04-11T11:12:15Z</time></trkpt><trkpt lat="43.120925563218876" lon="11.44498078786323"><ele>211.0</ele><time>2026-04-11T11:12:16Z</time></trkpt><trkpt lat="43.120921329370276" lon="11.444838287025611"><ele>211.0</ele><time>2026-04-11T11:12:17Z</time></trkpt><trkpt lat="43.12087226798443" lon="11.444701106656625"><ele>211.0</ele><time>2026-04-11T11:12:18Z</time></trkpt><trkpt lat="43.120792283558174" lon="11.444580864020297"><ele>209.25</ele><time>2026-04-11T11:12:19Z</time></trkpt><trkpt lat="43.12069271789773" lon="11.444485985966935"><ele>207.5</ele><time>2026-04-11T11:12:20Z</time></trkpt><trkpt lat="43.1205746178063" lon="11.444420145234055"><ele>205.75</ele><time>2026-04-11T11:12:21Z</time></trkpt><trkpt lat="43.12046328345695" lon="11.444358409345925"><ele>204.0</ele><time>2026-04-11T11:12:22Z</time></trkpt><trkpt lat="43.12034196864044" lon="11.444298358990673"><ele>204.0</ele><time>2026-04-11T11:12:23Z</time></trkpt><trkpt lat="43.12022846600431" lon="11.444232183716641"><ele>204.0</ele><time>2026-04-11T11:12:24Z</time></trkpt><trkpt lat="43.12011702778895" lon="11.444152743642034"><ele>204.0</ele><time>2026-04-11T11:12:25Z</time></trkpt><trkpt lat="43.12000730773908" lon="11.444073111650345"><ele>204.0</ele><time>2026-04-11T11:12:26Z</time></trkpt><trkpt lat="43.11989826802114" lon="11.443986690708135"><ele>202.0</ele><time>2026-04-11T11:12:27Z</time></trkpt><trkpt lat="43.11979415776774" lon="11.443924503850775"><ele>200.0</ele><time>2026-04-11T11:12:28Z</time></trkpt><trkpt lat="43.11968221306262" lon="11.44386216227525"><ele>198.0</ele><time>2026-04-11T11:12:29Z</time></trkpt><trkpt lat="43.11957331527869" lon="11.443788346015017"><ele>196.0</ele><time>2026-04-11T11:12:30Z</time></trkpt><trkpt lat="43.11947407479558" lon="11.44370647588956"><ele>194.75</ele><time>2026-04-11T11:12:31Z</time></trkpt><trkpt lat="43.119369897105685" lon="11.443622480009669"><ele>193.5</ele><time>2026-04-11T11:12:32Z</time></trkpt><trkpt lat="43.119266315928705" lon="11.443557439066257"><ele>192.25</ele><time>2026-04-11T11:12:33Z</time></trkpt><trkpt lat="43.11916579145686" lon="11.44346205293401"><ele>191.0</ele><time>2026-04-11T11:12:34Z</time></trkpt><trkpt lat="43.119060244290374" lon="11.443367083071324"><ele>190.20000000000002</ele><time>2026-04-11T11:12:35Z</time></trkpt><trkpt lat="43.118955252664264" lon="11.443273813358617"><ele>189.4</ele><time>2026-04-11T11:12:36Z</time></trkpt><trkpt lat="43.11886327381012" lon="11.443173573414697"><ele>188.6</ele><time>2026-04-11T11:12:37Z</time></trkpt><trkpt lat="43.1187950156095" lon="11.44307277919761"><ele>187.8</ele><time>2026-04-11T11:12:38Z</time></trkpt><trkpt lat="43.118736299999874" lon="11.442988092098735"><ele>187.0</ele><time>2026-04-11T11:12:39Z</time></trkpt><trkpt lat="43.11867914552868" lon="11.442918745267152"><ele>185.16666666666669</ele><time>2026-04-11T11:12:40Z</time></trkpt><trkpt lat="43.11858866888007" lon="11.442795835732774"><ele>183.33333333333334</ele><time>2026-04-11T11:12:42Z</time></trkpt><trkpt lat="43.11853072787164" lon="11.442729548518795"><ele>181.5</ele><time>2026-04-11T11:12:43Z</time></trkpt><trkpt lat="43.11846833955143" lon="11.44268001409651"><ele>179.66666666666666</ele><time>2026-04-11T11:12:44Z</time></trkpt><trkpt lat="43.11840492471566" lon="11.442618623029317"><ele>177.83333333333331</ele><time>2026-04-11T11:12:45Z</time></trkpt><trkpt lat="43.11833140848148" lon="11.442560294268617"><ele>176.0</ele><time>2026-04-11T11:12:46Z</time></trkpt><trkpt lat="43.11825792539099" lon="11.44250079441963"><ele>176.0</ele><time>2026-04-11T11:12:47Z</time></trkpt><trkpt lat="43.11817216482243" lon="11.442432498704846"><ele>176.0</ele><time>2026-04-11T11:12:48Z</time></trkpt><trkpt lat="43.118085411900964" lon="11.442365143902883"><ele>176.0</ele><time>2026-04-11T11:12:49Z</time></trkpt><trkpt lat="43.11801870924218" lon="11.44229179664518"><ele>176.0</ele><time>2026-04-11T11:12:50Z</time></trkpt><trkpt lat="43.11794549148915" lon="11.442231435905947"><ele>176.0</ele><time>2026-04-11T11:12:51Z</time></trkpt><trkpt lat="43.11787618627888" lon="11.442174298351622"><ele>174.42857142857144</ele><time>2026-04-11T11:12:52Z</time></trkpt><trkpt lat="43.11781075027314" lon="11.442121015595555"><ele>172.85714285714286</ele><time>2026-04-11T11:12:53Z</time></trkpt><trkpt lat="43.11775026631676" lon="11.442074046606907"><ele>171.28571428571428</ele><time>2026-04-11T11:12:54Z</time></trkpt><trkpt lat="43.117689973914715" lon="11.442030347896159"><ele>169.71428571428572</ele><time>2026-04-11T11:12:55Z</time></trkpt><trkpt lat="43.11763115889994" lon="11.441993140640175"><ele>168.14285714285714</ele><time>2026-04-11T11:12:56Z</time></trkpt><trkpt lat="43.11756273247565" lon="11.441955668420553"><ele>166.57142857142858</ele><time>2026-04-11T11:12:57Z</time></trkpt><trkpt lat="43.11749479379416" lon="11.44193239427249"><ele>165.0</ele><time>2026-04-11T11:12:58Z</time></trkpt><trkpt lat="43.11742483381048" lon="11.44194983089996"><ele>165.5</ele><time>2026-04-11T11:12:59Z</time></trkpt><trkpt lat="43.11735436794174" lon="11.44196305034607"><ele>166.0</ele><time>2026-04-11T11:13:00Z</time></trkpt><trkpt lat="43.11725595016957" lon="11.441982525916067"><ele>166.5</ele><time>2026-04-11T11:13:01Z</time></trkpt><trkpt lat="43.11718889115993" lon="11.442032760881748"><ele>167.0</ele><time>2026-04-11T11:13:02Z</time></trkpt><trkpt lat="43.11711963565467" lon="11.442065989095275"><ele>167.5</ele><time>2026-04-11T11:13:03Z</time></trkpt><trkpt lat="43.1170478868796" lon="11.442123837260116"><ele>168.0</ele><time>2026-04-11T11:13:04Z</time></trkpt><trkpt lat="43.11696420729106" lon="11.442159310519427"><ele>168.0</ele><time>2026-04-11T11:13:05Z</time></trkpt><trkpt lat="43.11688025237781" lon="11.442204278755764"><ele>168.0</ele><time>2026-04-11T11:13:06Z</time></trkpt><trkpt lat="43.11680030955971" lon="11.442246143219073"><ele>168.0</ele><time>2026-04-11T11:13:07Z</time></trkpt><trkpt lat="43.11672174313335" lon="11.442262272517596"><ele>168.0</ele><time>2026-04-11T11:13:08Z</time></trkpt><trkpt lat="43.11665211341103" lon="11.442256068173606"><ele>168.0</ele><time>2026-04-11T11:13:09Z</time></trkpt><trkpt lat="43.11657890223309" lon="11.442238119313226"><ele>168.0</ele><time>2026-04-11T11:13:10Z</time></trkpt><trkpt lat="43.1165117439649" lon="11.442207809464763"><ele>168.0</ele><time>2026-04-11T11:13:11Z</time></trkpt><trkpt lat="43.11645523577717" lon="11.442132239280358"><ele>168.0</ele><time>2026-04-11T11:13:12Z</time></trkpt><trkpt lat="43.1163984814184" lon="11.442056350607832"><ele>168.0</ele><time>2026-04-11T11:13:13Z</time></trkpt><trkpt lat="43.11634176655493" lon="11.44198114758146"><ele>168.0</ele><time>2026-04-11T11:13:14Z</time></trkpt><trkpt lat="43.11627385351791" lon="11.441918966929407"><ele>168.0</ele><time>2026-04-11T11:13:15Z</time></trkpt><trkpt lat="43.11621284670203" lon="11.441840272497977"><ele>168.0</ele><time>2026-04-11T11:13:16Z</time></trkpt><trkpt lat="43.116147847944866" lon="11.441759894476576"><ele>166.5</ele><time>2026-04-11T11:13:17Z</time></trkpt><trkpt lat="43.1160896304571" lon="11.441672867858856"><ele>165.0</ele><time>2026-04-11T11:13:18Z</time></trkpt><trkpt lat="43.1160139867741" lon="11.441611744043616"><ele>163.5</ele><time>2026-04-11T11:13:19Z</time></trkpt><trkpt lat="43.11595794393163" lon="11.441516059168109"><ele>162.0</ele><time>2026-04-11T11:13:20Z</time></trkpt><trkpt lat="43.11589129113406" lon="11.44143651911693"><ele>160.5</ele><time>2026-04-11T11:13:21Z</time></trkpt><trkpt lat="43.11581539499425" lon="11.441360689058774"><ele>159.0</ele><time>2026-04-11T11:13:22Z</time></trkpt><trkpt lat="43.11573622922405" lon="11.441291121122461"><ele>156.6</ele><time>2026-04-11T11:13:23Z</time></trkpt><trkpt lat="43.1156554500565" lon="11.441232379436318"><ele>154.2</ele><time>2026-04-11T11:13:24Z</time></trkpt><trkpt lat="43.11555766958367" lon="11.441191637273675"><ele>151.79999999999998</ele><time>2026-04-11T11:13:25Z</time></trkpt><trkpt lat="43.115453086800954" lon="11.441221093717553"><ele>149.4</ele><time>2026-04-11T11:13:26Z</time></trkpt><trkpt lat="43.11536960311912" lon="11.441239732451074"><ele>147.0</ele><time>2026-04-11T11:13:27Z</time></trkpt><trkpt lat="43.11527731875081" lon="11.441234673183363"><ele>147.0</ele><time>2026-04-11T11:13:28Z</time></trkpt><trkpt lat="43.115188496745134" lon="11.441252823545762"><ele>147.0</ele><time>2026-04-11T11:13:29Z</time></trkpt><trkpt lat="43.11511112057424" lon="11.441270890852339"><ele>147.0</ele><time>2026-04-11T11:13:30Z</time></trkpt><trkpt lat="43.1150298094637" lon="11.441286421372142"><ele>147.0</ele><time>2026-04-11T11:13:31Z</time></trkpt><trkpt lat="43.11494526139684" lon="11.441297959445864"><ele>147.0</ele><time>2026-04-11T11:13:32Z</time></trkpt><trkpt lat="43.11486012151572" lon="11.441307987200359"><ele>147.0</ele><time>2026-04-11T11:13:33Z</time></trkpt><trkpt lat="43.11477658385547" lon="11.441315572955094"><ele>146.0</ele><time>2026-04-11T11:13:34Z</time></trkpt><trkpt lat="43.11469722947046" lon="11.44132277887883"><ele>145.0</ele><time>2026-04-11T11:13:35Z</time></trkpt><trkpt lat="43.114613834591296" lon="11.441327990449246"><ele>144.0</ele><time>2026-04-11T11:13:36Z</time></trkpt><trkpt lat="43.114531734703284" lon="11.441333499409083"><ele>143.0</ele><time>2026-04-11T11:13:37Z</time></trkpt><trkpt lat="43.11445499050239" lon="11.441338649076705"><ele>142.0</ele><time>2026-04-11T11:13:38Z</time></trkpt><trkpt lat="43.11437673660966" lon="11.44134349643401"><ele>141.0</ele><time>2026-04-11T11:13:39Z</time></trkpt><trkpt lat="43.1142973061245" lon="11.441348592634485"><ele>141.0</ele><time>2026-04-11T11:13:40Z</time></trkpt><trkpt lat="43.114212472113266" lon="11.44135463936644"><ele>141.0</ele><time>2026-04-11T11:13:41Z</time></trkpt><trkpt lat="43.11413163159744" lon="11.441361446476135"><ele>141.0</ele><time>2026-04-11T11:13:42Z</time></trkpt><trkpt lat="43.11404982247739" lon="11.44136833515204"><ele>141.0</ele><time>2026-04-11T11:13:43Z</time></trkpt><trkpt lat="43.11396608993963" lon="11.441375385788835"><ele>141.0</ele><time>2026-04-11T11:13:44Z</time></trkpt><trkpt lat="43.11388200443016" lon="11.441404038254682"><ele>141.0</ele><time>2026-04-11T11:13:45Z</time></trkpt><trkpt lat="43.113799929403804" lon="11.44140487835303"><ele>140.5</ele><time>2026-04-11T11:13:46Z</time></trkpt><trkpt lat="43.11371488531753" lon="11.441407581520377"><ele>140.0</ele><time>2026-04-11T11:13:47Z</time></trkpt><trkpt lat="43.11362924936497" lon="11.441414638411844"><ele>139.5</ele><time>2026-04-11T11:13:48Z</time></trkpt><trkpt lat="43.113542636728724" lon="11.441428956566623"><ele>139.0</ele><time>2026-04-11T11:13:49Z</time></trkpt><trkpt lat="43.11344958692259" lon="11.441445760962457"><ele>138.5</ele><time>2026-04-11T11:13:50Z</time></trkpt><trkpt lat="43.11336580369124" lon="11.441438905506642"><ele>138.0</ele><time>2026-04-11T11:13:51Z</time></trkpt><trkpt lat="43.11327704176785" lon="11.441455190941527"><ele>137.83333333333334</ele><time>2026-04-11T11:13:52Z</time></trkpt><trkpt lat="43.11319090728845" lon="11.441470903853947"><ele>137.66666666666666</ele><time>2026-04-11T11:13:53Z</time></trkpt><trkpt lat="43.11310323648413" lon="11.44145761667047"><ele>137.5</ele><time>2026-04-11T11:13:54Z</time></trkpt><trkpt lat="43.11301922653319" lon="11.441465953608281"><ele>137.33333333333331</ele><time>2026-04-11T11:13:55Z</time></trkpt><trkpt lat="43.11293950893483" lon="11.441473864582358"><ele>137.16666666666666</ele><time>2026-04-11T11:13:56Z</time></trkpt><trkpt lat="43.11285350759562" lon="11.441482399144732"><ele>137.0</ele><time>2026-04-11T11:13:57Z</time></trkpt><trkpt lat="43.112767332847156" lon="11.44149085779036"><ele>137.0</ele><time>2026-04-11T11:13:58Z</time></trkpt><trkpt lat="43.112686158497844" lon="11.441497722614738"><ele>137.0</ele><time>2026-04-11T11:13:59Z</time></trkpt><trkpt lat="43.112600601021356" lon="11.441504958118234"><ele>137.0</ele><time>2026-04-11T11:14:00Z</time></trkpt><trkpt lat="43.11251691597035" lon="11.44151203527327"><ele>137.0</ele><time>2026-04-11T11:14:01Z</time></trkpt><trkpt lat="43.11243569127204" lon="11.441539959125064"><ele>137.0</ele><time>2026-04-11T11:14:02Z</time></trkpt><trkpt lat="43.11235774497428" lon="11.441543416416177"><ele>137.0</ele><time>2026-04-11T11:14:03Z</time></trkpt><trkpt lat="43.112265913778046" lon="11.441534599705802"><ele>136.83333333333331</ele><time>2026-04-11T11:14:04Z</time></trkpt><trkpt lat="43.11218012340977" lon="11.441542653932727"><ele>136.66666666666666</ele><time>2026-04-11T11:14:05Z</time></trkpt><trkpt lat="43.11209676376128" lon="11.441550479955964"><ele>136.5</ele><time>2026-04-11T11:14:06Z</time></trkpt><trkpt lat="43.11201328149246" lon="11.441558317490571"><ele>136.33333333333334</ele><time>2026-04-11T11:14:07Z</time></trkpt><trkpt lat="43.11192893400057" lon="11.441565431608266"><ele>136.16666666666669</ele><time>2026-04-11T11:14:08Z</time></trkpt><trkpt lat="43.11184097291366" lon="11.441572805839447"><ele>136.0</ele><time>2026-04-11T11:14:09Z</time></trkpt><trkpt lat="43.111755927581186" lon="11.44157993561896"><ele>135.99999999999997</ele><time>2026-04-11T11:14:10Z</time></trkpt><trkpt lat="43.11167624286922" lon="11.44158661599805"><ele>136.0</ele><time>2026-04-11T11:14:11Z</time></trkpt><trkpt lat="43.11160437278343" lon="11.441592641228926"><ele>136.0</ele><time>2026-04-11T11:14:12Z</time></trkpt><trkpt lat="43.11152802505937" lon="11.441599041932932"><ele>136.0</ele><time>2026-04-11T11:14:13Z</time></trkpt><trkpt lat="43.111453324214686" lon="11.441612228789834"><ele>136.0</ele><time>2026-04-11T11:14:14Z</time></trkpt><trkpt lat="43.11138160696376" lon="11.441626442260882"><ele>135.99999999999997</ele><time>2026-04-11T11:14:15Z</time></trkpt><trkpt lat="43.11131487602346" lon="11.441656540829825"><ele>136.0</ele><time>2026-04-11T11:14:16Z</time></trkpt><trkpt lat="43.11124230046916" lon="11.441652187239649"><ele>135.83333333333334</ele><time>2026-04-11T11:14:17Z</time></trkpt><trkpt lat="43.11116701863687" lon="11.441665181671887"><ele>135.66666666666669</ele><time>2026-04-11T11:14:18Z</time></trkpt><trkpt lat="43.11108884875079" lon="11.441677838157927"><ele>135.5</ele><time>2026-04-11T11:14:19Z</time></trkpt><trkpt lat="43.111012198962214" lon="11.441690248534373"><ele>135.33333333333334</ele><time>2026-04-11T11:14:20Z</time></trkpt><trkpt lat="43.11093753327892" lon="11.441701636626895"><ele>135.16666666666666</ele><time>2026-04-11T11:14:21Z</time></trkpt><trkpt lat="43.11086254662484" lon="11.441710151731735"><ele>135.0</ele><time>2026-04-11T11:14:22Z</time></trkpt><trkpt lat="43.110782214001844" lon="11.441715071088346"><ele>134.66666666666666</ele><time>2026-04-11T11:14:23Z</time></trkpt><trkpt lat="43.110701877637496" lon="11.441714767389156"><ele>134.33333333333334</ele><time>2026-04-11T11:14:24Z</time></trkpt><trkpt lat="43.11062147644663" lon="11.44171518265057"><ele>134.0</ele><time>2026-04-11T11:14:25Z</time></trkpt><trkpt lat="43.11054271859633" lon="11.441715589423087"><ele>133.66666666666669</ele><time>2026-04-11T11:14:26Z</time></trkpt><trkpt lat="43.11046602560422" lon="11.441717092905954"><ele>133.33333333333334</ele><time>2026-04-11T11:14:27Z</time></trkpt><trkpt lat="43.11038516613302" lon="11.44171862942946"><ele>133.0</ele><time>2026-04-11T11:14:28Z</time></trkpt><trkpt lat="43.110303176783546" lon="11.441723388305162"><ele>133.0</ele><time>2026-04-11T11:14:29Z</time></trkpt><trkpt lat="43.11022168066579" lon="11.44173610986835"><ele>133.0</ele><time>2026-04-11T11:14:30Z</time></trkpt><trkpt lat="43.110141675184614" lon="11.441752681243635"><ele>133.0</ele><time>2026-04-11T11:14:31Z</time></trkpt><trkpt lat="43.11006582106531" lon="11.441772393556054"><ele>133.0</ele><time>2026-04-11T11:14:32Z</time></trkpt><trkpt lat="43.10998905510073" lon="11.441796447772429"><ele>133.0</ele><time>2026-04-11T11:14:33Z</time></trkpt><trkpt lat="43.109915726652005" lon="11.441821694760543"><ele>133.0</ele><time>2026-04-11T11:14:34Z</time></trkpt><trkpt lat="43.10984054526096" lon="11.441855345978382"><ele>133.0</ele><time>2026-04-11T11:14:35Z</time></trkpt><trkpt lat="43.109770697875774" lon="11.44190562461653"><ele>133.0</ele><time>2026-04-11T11:14:36Z</time></trkpt><trkpt lat="43.109697189220775" lon="11.441941360133143"><ele>133.0</ele><time>2026-04-11T11:14:37Z</time></trkpt><trkpt lat="43.109619184864265" lon="11.441959099343851"><ele>133.0</ele><time>2026-04-11T11:14:38Z</time></trkpt><trkpt lat="43.109546666482025" lon="11.441989900525236"><ele>133.0</ele><time>2026-04-11T11:14:39Z</time></trkpt><trkpt lat="43.109472796017414" lon="11.442021275989816"><ele>133.0</ele><time>2026-04-11T11:14:40Z</time></trkpt><trkpt lat="43.10940240844843" lon="11.442050567564952"><ele>133.0</ele><time>2026-04-11T11:14:41Z</time></trkpt><trkpt lat="43.10933145589218" lon="11.44207909487227"><ele>133.0</ele><time>2026-04-11T11:14:42Z</time></trkpt><trkpt lat="43.10926009473998" lon="11.442103648120387"><ele>133.0</ele><time>2026-04-11T11:14:43Z</time></trkpt><trkpt lat="43.10918817069202" lon="11.442122859752311"><ele>133.0</ele><time>2026-04-11T11:14:44Z</time></trkpt><trkpt lat="43.10911691922774" lon="11.442144740889319"><ele>133.0</ele><time>2026-04-11T11:14:45Z</time></trkpt><trkpt lat="43.1090442868582" lon="11.442166402796168"><ele>133.0</ele><time>2026-04-11T11:14:46Z</time></trkpt><trkpt lat="43.10897338299437" lon="11.442183951895002"><ele>133.0</ele><time>2026-04-11T11:14:47Z</time></trkpt><trkpt lat="43.10890218685372" lon="11.442200989927166"><ele>133.0</ele><time>2026-04-11T11:14:48Z</time></trkpt><trkpt lat="43.10883122220741" lon="11.442217972573141"><ele>133.0</ele><time>2026-04-11T11:14:49Z</time></trkpt><trkpt lat="43.108761363311345" lon="11.442233041691859"><ele>133.0</ele><time>2026-04-11T11:14:50Z</time></trkpt><trkpt lat="43.10869373741961" lon="11.442247665685437"><ele>133.0</ele><time>2026-04-11T11:14:51Z</time></trkpt><trkpt lat="43.10862498112525" lon="11.442262226902193"><ele>133.0</ele><time>2026-04-11T11:14:52Z</time></trkpt><trkpt lat="43.108556277285324" lon="11.442276564856332"><ele>133.0</ele><time>2026-04-11T11:14:53Z</time></trkpt><trkpt lat="43.10849126935973" lon="11.442312368866517"><ele>133.0</ele><time>2026-04-11T11:14:54Z</time></trkpt><trkpt lat="43.108421299629505" lon="11.442324888582606"><ele>133.0</ele><time>2026-04-11T11:14:55Z</time></trkpt><trkpt lat="43.108349297659316" lon="11.442336395617959"><ele>133.0</ele><time>2026-04-11T11:14:56Z</time></trkpt><trkpt lat="43.10828117794438" lon="11.442352191366075"><ele>133.0</ele><time>2026-04-11T11:14:57Z</time></trkpt><trkpt lat="43.108208234876514" lon="11.44234628404899"><ele>133.0</ele><time>2026-04-11T11:14:58Z</time></trkpt><trkpt lat="43.10813859650811" lon="11.44236057053671"><ele>133.0</ele><time>2026-04-11T11:14:59Z</time></trkpt><trkpt lat="43.108072335494064" lon="11.442375279709468"><ele>133.0</ele><time>2026-04-11T11:15:00Z</time></trkpt><trkpt lat="43.108004477481174" lon="11.442390692241197"><ele>133.0</ele><time>2026-04-11T11:15:01Z</time></trkpt><trkpt lat="43.10793908149225" lon="11.442405545594372"><ele>133.16666666666669</ele><time>2026-04-11T11:15:02Z</time></trkpt><trkpt lat="43.107875765290856" lon="11.44243501886436"><ele>133.33333333333334</ele><time>2026-04-11T11:15:03Z</time></trkpt><trkpt lat="43.107745684004435" lon="11.442460924065443"><ele>133.5</ele><time>2026-04-11T11:15:05Z</time></trkpt><trkpt lat="43.107679983477865" lon="11.442457987026101"><ele>133.66666666666666</ele><time>2026-04-11T11:15:06Z</time></trkpt><trkpt lat="43.10761357951623" lon="11.442444343015845"><ele>133.83333333333331</ele><time>2026-04-11T11:15:07Z</time></trkpt><trkpt lat="43.10753948024016" lon="11.442427594563208"><ele>134.0</ele><time>2026-04-11T11:15:08Z</time></trkpt><trkpt lat="43.10746785823178" lon="11.442399083903945"><ele>133.5</ele><time>2026-04-11T11:15:09Z</time></trkpt><trkpt lat="43.10739898057864" lon="11.442351847972041"><ele>133.0</ele><time>2026-04-11T11:15:10Z</time></trkpt><trkpt lat="43.10733958768936" lon="11.442290079076178"><ele>132.5</ele><time>2026-04-11T11:15:11Z</time></trkpt><trkpt lat="43.10728904163041" lon="11.442196696499256"><ele>132.0</ele><time>2026-04-11T11:15:12Z</time></trkpt><trkpt lat="43.10722371232623" lon="11.442124062469627"><ele>131.5</ele><time>2026-04-11T11:15:13Z</time></trkpt><trkpt lat="43.10716193373012" lon="11.442039294400953"><ele>131.0</ele><time>2026-04-11T11:15:14Z</time></trkpt><trkpt lat="43.107112577888536" lon="11.441936643364327"><ele>131.0</ele><time>2026-04-11T11:15:15Z</time></trkpt><trkpt lat="43.1070582552654" lon="11.441857572266048"><ele>131.0</ele><time>2026-04-11T11:15:16Z</time></trkpt><trkpt lat="43.10699110220817" lon="11.441789951145909"><ele>131.0</ele><time>2026-04-11T11:15:17Z</time></trkpt><trkpt lat="43.10693975878905" lon="11.441703579010706"><ele>131.0</ele><time>2026-04-11T11:15:18Z</time></trkpt><trkpt lat="43.10688451508109" lon="11.441617478744467"><ele>131.0</ele><time>2026-04-11T11:15:19Z</time></trkpt><trkpt lat="43.106820448663136" lon="11.44154478650658"><ele>131.0</ele><time>2026-04-11T11:15:20Z</time></trkpt><trkpt lat="43.10676316673408" lon="11.441467401303607"><ele>131.0</ele><time>2026-04-11T11:15:21Z</time></trkpt><trkpt lat="43.10670713771252" lon="11.44138651448248"><ele>131.0</ele><time>2026-04-11T11:15:22Z</time></trkpt><trkpt lat="43.106652009195905" lon="11.441307629084662"><ele>131.0</ele><time>2026-04-11T11:15:23Z</time></trkpt><trkpt lat="43.10659727992078" lon="11.441229834573301"><ele>131.0</ele><time>2026-04-11T11:15:24Z</time></trkpt><trkpt lat="43.106541734834074" lon="11.441147927386256"><ele>131.0</ele><time>2026-04-11T11:15:25Z</time></trkpt><trkpt lat="43.106487561977005" lon="11.441068458889719"><ele>131.0</ele><time>2026-04-11T11:15:26Z</time></trkpt><trkpt lat="43.10642777671325" lon="11.44099955170539"><ele>131.0</ele><time>2026-04-11T11:15:27Z</time></trkpt><trkpt lat="43.10638450250342" lon="11.440906335453283"><ele>131.0</ele><time>2026-04-11T11:15:28Z</time></trkpt><trkpt lat="43.1063305418436" lon="11.440830233024966"><ele>131.0</ele><time>2026-04-11T11:15:29Z</time></trkpt><trkpt lat="43.10627659454193" lon="11.440754149496549"><ele>131.0</ele><time>2026-04-11T11:15:30Z</time></trkpt><trkpt lat="43.10622356086511" lon="11.440679355867903"><ele>131.0</ele><time>2026-04-11T11:15:31Z</time></trkpt><trkpt lat="43.106170301088916" lon="11.440604242057661"><ele>131.0</ele><time>2026-04-11T11:15:32Z</time></trkpt><trkpt lat="43.10611633361705" lon="11.440528130083006"><ele>131.0</ele><time>2026-04-11T11:15:33Z</time></trkpt><trkpt lat="43.106051145153764" lon="11.440466498379568"><ele>131.0</ele><time>2026-04-11T11:15:34Z</time></trkpt><trkpt lat="43.10600804755105" lon="11.440375411024924"><ele>131.0</ele><time>2026-04-11T11:15:35Z</time></trkpt><trkpt lat="43.10595598171356" lon="11.440301981027382"><ele>131.0</ele><time>2026-04-11T11:15:36Z</time></trkpt><trkpt lat="43.10589878664452" lon="11.440222771474485"><ele>131.0</ele><time>2026-04-11T11:15:37Z</time></trkpt><trkpt lat="43.105834759315584" lon="11.440162930516065"><ele>131.0</ele><time>2026-04-11T11:15:38Z</time></trkpt><trkpt lat="43.105781266005614" lon="11.44009031529389"><ele>130.85714285714286</ele><time>2026-04-11T11:15:39Z</time></trkpt><trkpt lat="43.105735388081335" lon="11.440007429010773"><ele>130.71428571428572</ele><time>2026-04-11T11:15:40Z</time></trkpt><trkpt lat="43.10567505977614" lon="11.439944914900046"><ele>130.57142857142858</ele><time>2026-04-11T11:15:41Z</time></trkpt><trkpt lat="43.105628707780454" lon="11.439868205792719"><ele>130.42857142857144</ele><time>2026-04-11T11:15:42Z</time></trkpt><trkpt lat="43.10557437570242" lon="11.43980428154864"><ele>130.28571428571428</ele><time>2026-04-11T11:15:43Z</time></trkpt><trkpt lat="43.10552365342023" lon="11.439742579070769"><ele>130.14285714285717</ele><time>2026-04-11T11:15:44Z</time></trkpt><trkpt lat="43.10546995604736" lon="11.439685305759244"><ele>130.0</ele><time>2026-04-11T11:15:45Z</time></trkpt><trkpt lat="43.10542121026875" lon="11.439621121151665"><ele>129.83333333333334</ele><time>2026-04-11T11:15:46Z</time></trkpt><trkpt lat="43.10537654953508" lon="11.439559326944783"><ele>129.66666666666669</ele><time>2026-04-11T11:15:47Z</time></trkpt><trkpt lat="43.10533384871284" lon="11.439494211796152"><ele>129.5</ele><time>2026-04-11T11:15:48Z</time></trkpt><trkpt lat="43.10524970055258" lon="11.439366680078493"><ele>129.33333333333334</ele><time>2026-04-11T11:15:50Z</time></trkpt><trkpt lat="43.105208033641034" lon="11.439297791148176"><ele>129.16666666666666</ele><time>2026-04-11T11:15:51Z</time></trkpt><trkpt lat="43.10512770344998" lon="11.439164833583854"><ele>129.0</ele><time>2026-04-11T11:15:53Z</time></trkpt><trkpt lat="43.10508455440856" lon="11.43909115419125"><ele>128.99999999999997</ele><time>2026-04-11T11:15:54Z</time></trkpt><trkpt lat="43.10504516009118" lon="11.439016233427669"><ele>129.0</ele><time>2026-04-11T11:15:55Z</time></trkpt><trkpt lat="43.10499908840399" lon="11.438937298972576"><ele>129.0</ele><time>2026-04-11T11:15:56Z</time></trkpt><trkpt lat="43.10494827144214" lon="11.43885922548144"><ele>129.0</ele><time>2026-04-11T11:15:57Z</time></trkpt><trkpt lat="43.10489465859413" lon="11.438786200190181"><ele>129.0</ele><time>2026-04-11T11:15:58Z</time></trkpt><trkpt lat="43.104839898518335" lon="11.438717864169417"><ele>128.99999999999997</ele><time>2026-04-11T11:15:59Z</time></trkpt><trkpt lat="43.104799392115545" lon="11.4386266411184"><ele>129.0</ele><time>2026-04-11T11:16:00Z</time></trkpt><trkpt lat="43.10475084263727" lon="11.438558419606645"><ele>129.28571428571428</ele><time>2026-04-11T11:16:01Z</time></trkpt><trkpt lat="43.10469072362968" lon="11.438503666250664"><ele>129.57142857142856</ele><time>2026-04-11T11:16:02Z</time></trkpt><trkpt lat="43.10464007211919" lon="11.438426289791805"><ele>129.85714285714286</ele><time>2026-04-11T11:16:03Z</time></trkpt><trkpt lat="43.1045881237066" lon="11.438353821225965"><ele>130.14285714285714</ele><time>2026-04-11T11:16:04Z</time></trkpt><trkpt lat="43.10453203199324" lon="11.438281920462725"><ele>130.42857142857144</ele><time>2026-04-11T11:16:05Z</time></trkpt><trkpt lat="43.10448108760014" lon="11.438208634318295"><ele>130.71428571428572</ele><time>2026-04-11T11:16:06Z</time></trkpt><trkpt lat="43.10443366417754" lon="11.438133195795576"><ele>131.0</ele><time>2026-04-11T11:16:07Z</time></trkpt><trkpt lat="43.104383718402175" lon="11.43806170079452"><ele>131.0</ele><time>2026-04-11T11:16:08Z</time></trkpt><trkpt lat="43.10433166508042" lon="11.437992018043861"><ele>131.0</ele><time>2026-04-11T11:16:09Z</time></trkpt><trkpt lat="43.10428413319973" lon="11.437929894175953"><ele>131.0</ele><time>2026-04-11T11:16:10Z</time></trkpt><trkpt lat="43.10423792088734" lon="11.437859499947972"><ele>131.0</ele><time>2026-04-11T11:16:11Z</time></trkpt><trkpt lat="43.10420166448291" lon="11.437785893561935"><ele>131.0</ele><time>2026-04-11T11:16:12Z</time></trkpt><trkpt lat="43.10415521157302" lon="11.43771412457366"><ele>131.0</ele><time>2026-04-11T11:16:13Z</time></trkpt><trkpt lat="43.104108326462274" lon="11.43764816227774"><ele>131.0</ele><time>2026-04-11T11:16:14Z</time></trkpt><trkpt lat="43.104062035600634" lon="11.437583493243652"><ele>131.2</ele><time>2026-04-11T11:16:15Z</time></trkpt><trkpt lat="43.10401702738313" lon="11.437520245396131"><ele>131.39999999999998</ele><time>2026-04-11T11:16:16Z</time></trkpt><trkpt lat="43.103931913648736" lon="11.437389168180749"><ele>131.6</ele><time>2026-04-11T11:16:18Z</time></trkpt><trkpt lat="43.10384316794417" lon="11.437283093684734"><ele>131.79999999999998</ele><time>2026-04-11T11:16:20Z</time></trkpt><trkpt lat="43.103764466607046" lon="11.437168565221445"><ele>132.0</ele><time>2026-04-11T11:16:22Z</time></trkpt><trkpt lat="43.10367762672795" lon="11.437061523827962"><ele>132.4</ele><time>2026-04-11T11:16:24Z</time></trkpt><trkpt lat="43.103602307396514" lon="11.436945723785492"><ele>132.79999999999998</ele><time>2026-04-11T11:16:26Z</time></trkpt><trkpt lat="43.10352280070858" lon="11.436835707663018"><ele>133.2</ele><time>2026-04-11T11:16:28Z</time></trkpt><trkpt lat="43.10344512363821" lon="11.436733707990667"><ele>133.6</ele><time>2026-04-11T11:16:30Z</time></trkpt><trkpt lat="43.103372110148655" lon="11.43662782740957"><ele>134.0</ele><time>2026-04-11T11:16:32Z</time></trkpt><trkpt lat="43.103304339826416" lon="11.436524992624365"><ele>134.4</ele><time>2026-04-11T11:16:34Z</time></trkpt><trkpt lat="43.10322900728924" lon="11.436432736879143"><ele>134.8</ele><time>2026-04-11T11:16:36Z</time></trkpt><trkpt lat="43.10315247622221" lon="11.436331302030425"><ele>135.2</ele><time>2026-04-11T11:16:38Z</time></trkpt><trkpt lat="43.103077172928934" lon="11.436216224522196"><ele>135.6</ele><time>2026-04-11T11:16:40Z</time></trkpt><trkpt lat="43.102994667555016" lon="11.436106463424231"><ele>136.0</ele><time>2026-04-11T11:16:42Z</time></trkpt><trkpt lat="43.10292060882027" lon="11.435988443742893"><ele>136.0</ele><time>2026-04-11T11:16:44Z</time></trkpt><trkpt lat="43.10283981671593" lon="11.43587413714526"><ele>136.0</ele><time>2026-04-11T11:16:46Z</time></trkpt><trkpt lat="43.102766398815646" lon="11.435763675902098"><ele>136.0</ele><time>2026-04-11T11:16:48Z</time></trkpt><trkpt lat="43.102690650383536" lon="11.435643629393036"><ele>136.0</ele><time>2026-04-11T11:16:50Z</time></trkpt><trkpt lat="43.10261022424093" lon="11.435561997377533"><ele>136.0</ele><time>2026-04-11T11:16:52Z</time></trkpt><trkpt lat="43.10253791293804" lon="11.435454000072253"><ele>136.0</ele><time>2026-04-11T11:16:54Z</time></trkpt><trkpt lat="43.10246545715014" lon="11.435349391001916"><ele>136.0</ele><time>2026-04-11T11:16:56Z</time></trkpt><trkpt lat="43.10240262809656" lon="11.435232897139484"><ele>136.0</ele><time>2026-04-11T11:16:58Z</time></trkpt><trkpt lat="43.102344778589305" lon="11.43512140630085"><ele>136.0</ele><time>2026-04-11T11:17:00Z</time></trkpt><trkpt lat="43.10227345483273" lon="11.435008301258904"><ele>136.0</ele><time>2026-04-11T11:17:02Z</time></trkpt><trkpt lat="43.1022282623731" lon="11.434890645951299"><ele>136.5</ele><time>2026-04-11T11:17:04Z</time></trkpt><trkpt lat="43.102211726564406" lon="11.434769500055552"><ele>137.0</ele><time>2026-04-11T11:17:06Z</time></trkpt><trkpt lat="43.10222315493714" lon="11.434678261629497"><ele>137.5</ele><time>2026-04-11T11:17:09Z</time></trkpt><trkpt lat="43.102243053733815" lon="11.434569287234403"><ele>138.0</ele><time>2026-04-11T11:17:12Z</time></trkpt><trkpt lat="43.10225431936426" lon="11.434483095125973"><ele>138.5</ele><time>2026-04-11T11:17:14Z</time></trkpt><trkpt lat="43.10228006457156" lon="11.434307188014325"><ele>139.0</ele><time>2026-04-11T11:17:16Z</time></trkpt><trkpt lat="43.10229221277323" lon="11.434195000859775"><ele>140.0</ele><time>2026-04-11T11:17:18Z</time></trkpt><trkpt lat="43.10230436821883" lon="11.434090862631479"><ele>141.0</ele><time>2026-04-11T11:17:20Z</time></trkpt><trkpt lat="43.10231498559264" lon="11.433972877494757"><ele>142.0</ele><time>2026-04-11T11:17:22Z</time></trkpt><trkpt lat="43.102325346640214" lon="11.433857215980062"><ele>143.0</ele><time>2026-04-11T11:17:24Z</time></trkpt><trkpt lat="43.102341706471734" lon="11.433706361030243"><ele>144.0</ele><time>2026-04-11T11:17:27Z</time></trkpt><trkpt lat="43.10234775289426" lon="11.433611544835315"><ele>145.0</ele><time>2026-04-11T11:17:30Z</time></trkpt><trkpt lat="43.102342140585776" lon="11.433491294116727"><ele>145.14285714285714</ele><time>2026-04-11T11:17:33Z</time></trkpt><trkpt lat="43.10233040405884" lon="11.433379224236107"><ele>145.2857142857143</ele><time>2026-04-11T11:17:36Z</time></trkpt><trkpt lat="43.102314562446594" lon="11.43329381179629"><ele>145.42857142857144</ele><time>2026-04-11T11:17:38Z</time></trkpt><trkpt lat="43.10230279390973" lon="11.433208490291097"><ele>145.57142857142858</ele><time>2026-04-11T11:17:40Z</time></trkpt><trkpt lat="43.102268963155204" lon="11.433103442298265"><ele>145.71428571428572</ele><time>2026-04-11T11:17:43Z</time></trkpt><trkpt lat="43.102239746897546" lon="11.43302642705386"><ele>145.85714285714286</ele><time>2026-04-11T11:17:45Z</time></trkpt><trkpt lat="43.102216662097575" lon="11.43294348467046"><ele>146.0</ele><time>2026-04-11T11:17:47Z</time></trkpt><trkpt lat="43.102190223131835" lon="11.432831750020691"><ele>146.0</ele><time>2026-04-11T11:17:50Z</time></trkpt><trkpt lat="43.10211604336715" lon="11.432778390295185"><ele>146.0</ele><time>2026-04-11T11:17:53Z</time></trkpt><trkpt lat="43.10206281900771" lon="11.432691744630093"><ele>146.0</ele><time>2026-04-11T11:17:56Z</time></trkpt><trkpt lat="43.10201123083505" lon="11.432640474461898"><ele>146.0</ele><time>2026-04-11T11:17:59Z</time></trkpt><trkpt lat="43.101954992375816" lon="11.432584288261953"><ele>146.0</ele><time>2026-04-11T11:18:02Z</time></trkpt><trkpt lat="43.101886830383194" lon="11.432537569367415"><ele>146.0</ele><time>2026-04-11T11:18:05Z</time></trkpt><trkpt lat="43.101817889351764" lon="11.43254232746756"><ele>146.0</ele><time>2026-04-11T11:18:07Z</time></trkpt><trkpt lat="43.10175217663126" lon="11.432528169034057"><ele>146.0</ele><time>2026-04-11T11:18:09Z</time></trkpt><trkpt lat="43.10166132798761" lon="11.432499827215409"><ele>146.0</ele><time>2026-04-11T11:18:12Z</time></trkpt><trkpt lat="43.10156708208592" lon="11.432484473004244"><ele>146.0</ele><time>2026-04-11T11:18:15Z</time></trkpt><trkpt lat="43.10150335127757" lon="11.432492644793145"><ele>146.0</ele><time>2026-04-11T11:18:17Z</time></trkpt><trkpt lat="43.101440967289776" lon="11.43247391348596"><ele>146.0</ele><time>2026-04-11T11:18:19Z</time></trkpt><trkpt lat="43.10137613309981" lon="11.432460138695511"><ele>146.0</ele><time>2026-04-11T11:18:21Z</time></trkpt><trkpt lat="43.10131163053829" lon="11.4324484421096"><ele>146.0</ele><time>2026-04-11T11:18:23Z</time></trkpt><trkpt lat="43.10123900129816" lon="11.432441295826111"><ele>147.0</ele><time>2026-04-11T11:18:25Z</time></trkpt><trkpt lat="43.101171390934354" lon="11.43242662374059"><ele>148.0</ele><time>2026-04-11T11:18:27Z</time></trkpt><trkpt lat="43.10108041034308" lon="11.432432085157046"><ele>149.0</ele><time>2026-04-11T11:18:30Z</time></trkpt><trkpt lat="43.10099883848926" lon="11.432414805686195"><ele>150.0</ele><time>2026-04-11T11:18:33Z</time></trkpt><trkpt lat="43.100931230701704" lon="11.432418022489946"><ele>151.0</ele><time>2026-04-11T11:18:35Z</time></trkpt><trkpt lat="43.100844239396245" lon="11.43242536980532"><ele>152.0</ele><time>2026-04-11T11:18:38Z</time></trkpt><trkpt lat="43.100781876314414" lon="11.432401826151626"><ele>152.85714285714286</ele><time>2026-04-11T11:18:40Z</time></trkpt><trkpt lat="43.10071700889369" lon="11.432397773980083"><ele>153.71428571428572</ele><time>2026-04-11T11:18:42Z</time></trkpt><trkpt lat="43.10063480865246" lon="11.432391240041698"><ele>154.57142857142858</ele><time>2026-04-11T11:18:45Z</time></trkpt><trkpt lat="43.10054716669761" lon="11.432395020298914"><ele>155.42857142857144</ele><time>2026-04-11T11:18:48Z</time></trkpt><trkpt lat="43.10048366582808" lon="11.432388640711295"><ele>156.28571428571428</ele><time>2026-04-11T11:18:50Z</time></trkpt><trkpt lat="43.10041876845212" lon="11.432381694168052"><ele>157.14285714285717</ele><time>2026-04-11T11:18:52Z</time></trkpt><trkpt lat="43.10035477245578" lon="11.432376702228215"><ele>158.0</ele><time>2026-04-11T11:18:54Z</time></trkpt><trkpt lat="43.100290841586556" lon="11.432368384552662"><ele>158.0</ele><time>2026-04-11T11:18:56Z</time></trkpt><trkpt lat="43.10019730244941" lon="11.432362866855344"><ele>158.0</ele><time>2026-04-11T11:18:59Z</time></trkpt><trkpt lat="43.10011010981847" lon="11.43235334006522"><ele>158.0</ele><time>2026-04-11T11:19:02Z</time></trkpt><trkpt lat="43.100024743698704" lon="11.432338115004171"><ele>158.0</ele><time>2026-04-11T11:19:05Z</time></trkpt><trkpt lat="43.099939267763105" lon="11.432335861570786"><ele>158.0</ele><time>2026-04-11T11:19:08Z</time></trkpt><trkpt lat="43.09985495555518" lon="11.432320038861183"><ele>158.0</ele><time>2026-04-11T11:19:11Z</time></trkpt><trkpt lat="43.09978013430972" lon="11.432328717966215"><ele>158.42857142857144</ele><time>2026-04-11T11:19:14Z</time></trkpt><trkpt lat="43.0997108248444" lon="11.432314547862655"><ele>158.85714285714286</ele><time>2026-04-11T11:19:17Z</time></trkpt><trkpt lat="43.09964260134771" lon="11.432308396802327"><ele>159.28571428571428</ele><time>2026-04-11T11:19:20Z</time></trkpt><trkpt lat="43.09957406283234" lon="11.432312918165973"><ele>159.71428571428572</ele><time>2026-04-11T11:19:23Z</time></trkpt><trkpt lat="43.09949832249678" lon="11.432313767384496"><ele>160.14285714285714</ele><time>2026-04-11T11:19:26Z</time></trkpt><trkpt lat="43.09942947399237" lon="11.432296981919722"><ele>160.57142857142858</ele><time>2026-04-11T11:19:29Z</time></trkpt><trkpt lat="43.099355300546904" lon="11.43230206128268"><ele>161.0</ele><time>2026-04-11T11:19:32Z</time></trkpt><trkpt lat="43.099281089458124" lon="11.432291431175894"><ele>161.0</ele><time>2026-04-11T11:19:35Z</time></trkpt><trkpt lat="43.09918648996827" lon="11.432278834754921"><ele>161.0</ele><time>2026-04-11T11:19:38Z</time></trkpt><trkpt lat="43.09910419965007" lon="11.432267712322517"><ele>161.0</ele><time>2026-04-11T11:19:41Z</time></trkpt><trkpt lat="43.09902666263333" lon="11.432238562695467"><ele>161.0</ele><time>2026-04-11T11:19:44Z</time></trkpt><trkpt lat="43.09894413780877" lon="11.43221154987704"><ele>161.0</ele><time>2026-04-11T11:19:47Z</time></trkpt><trkpt lat="43.09886439519999" lon="11.432198432289368"><ele>161.0</ele><time>2026-04-11T11:19:50Z</time></trkpt><trkpt lat="43.09879334904169" lon="11.432176789527736"><ele>160.33333333333331</ele><time>2026-04-11T11:19:53Z</time></trkpt><trkpt lat="43.09872449136963" lon="11.4321405329017"><ele>159.66666666666666</ele><time>2026-04-11T11:19:56Z</time></trkpt><trkpt lat="43.09864889469049" lon="11.432102050838644"><ele>159.0</ele><time>2026-04-11T11:19:58Z</time></trkpt><trkpt lat="43.09858029633348" lon="11.432063036537437"><ele>158.33333333333334</ele><time>2026-04-11T11:20:01Z</time></trkpt><trkpt lat="43.098512176065775" lon="11.43201357830124"><ele>157.66666666666669</ele><time>2026-04-11T11:20:04Z</time></trkpt><trkpt lat="43.098445249246545" lon="11.431956870399963"><ele>157.0</ele><time>2026-04-11T11:20:07Z</time></trkpt><trkpt lat="43.098376743152315" lon="11.431908577264469"><ele>158.0</ele><time>2026-04-11T11:20:10Z</time></trkpt><trkpt lat="43.09829521653331" lon="11.43186550811583"><ele>159.0</ele><time>2026-04-11T11:20:13Z</time></trkpt><trkpt lat="43.09822390736614" lon="11.431824626837427"><ele>160.0</ele><time>2026-04-11T11:20:16Z</time></trkpt><trkpt lat="43.0981500804914" lon="11.431765633247723"><ele>161.0</ele><time>2026-04-11T11:20:19Z</time></trkpt><trkpt lat="43.098099625085204" lon="11.431670796155297"><ele>162.0</ele><time>2026-04-11T11:20:22Z</time></trkpt><trkpt lat="43.097995694844535" lon="11.431632820813846"><ele>163.0</ele><time>2026-04-11T11:20:24Z</time></trkpt><trkpt lat="43.097943030344396" lon="11.431581666635674"><ele>163.0</ele><time>2026-04-11T11:20:26Z</time></trkpt><trkpt lat="43.0978979643956" lon="11.431517382629833"><ele>163.0</ele><time>2026-04-11T11:20:28Z</time></trkpt><trkpt lat="43.0978352206256" lon="11.43147043584789"><ele>163.0</ele><time>2026-04-11T11:20:30Z</time></trkpt><trkpt lat="43.09775386365878" lon="11.431377799826098"><ele>163.0</ele><time>2026-04-11T11:20:33Z</time></trkpt><trkpt lat="43.0976794416492" lon="11.431351166752394"><ele>163.0</ele><time>2026-04-11T11:20:35Z</time></trkpt><trkpt lat="43.09762307698854" lon="11.431291684875776"><ele>163.0</ele><time>2026-04-11T11:20:37Z</time></trkpt><trkpt lat="43.09756536374109" lon="11.431246828423097"><ele>163.57142857142858</ele><time>2026-04-11T11:20:39Z</time></trkpt><trkpt lat="43.09750910257198" lon="11.431188509402757"><ele>164.14285714285714</ele><time>2026-04-11T11:20:41Z</time></trkpt><trkpt lat="43.097450264587835" lon="11.43113375542193"><ele>164.71428571428572</ele><time>2026-04-11T11:20:43Z</time></trkpt><trkpt lat="43.09738919598546" lon="11.431088101185356"><ele>165.28571428571428</ele><time>2026-04-11T11:20:45Z</time></trkpt><trkpt lat="43.097327197187944" lon="11.431047311750385"><ele>165.85714285714286</ele><time>2026-04-11T11:20:47Z</time></trkpt><trkpt lat="43.09727424645438" lon="11.430994682326999"><ele>166.42857142857142</ele><time>2026-04-11T11:20:49Z</time></trkpt><trkpt lat="43.0972101480175" lon="11.430944089214032"><ele>167.0</ele><time>2026-04-11T11:20:50Z</time></trkpt><trkpt lat="43.09713951971931" lon="11.430888914581066"><ele>167.0</ele><time>2026-04-11T11:20:53Z</time></trkpt><trkpt lat="43.097071107809406" lon="11.430846054115282"><ele>167.0</ele><time>2026-04-11T11:20:55Z</time></trkpt><trkpt lat="43.09699853588693" lon="11.430793529210154"><ele>167.0</ele><time>2026-04-11T11:20:57Z</time></trkpt><trkpt lat="43.09693417159605" lon="11.430747413711472"><ele>167.0</ele><time>2026-04-11T11:20:59Z</time></trkpt><trkpt lat="43.096873071640154" lon="11.430703464538594"><ele>167.0</ele><time>2026-04-11T11:21:01Z</time></trkpt><trkpt lat="43.0968115842645" lon="11.430671089546202"><ele>167.0</ele><time>2026-04-11T11:21:03Z</time></trkpt><trkpt lat="43.09675867155802" lon="11.430611408798569"><ele>167.0</ele><time>2026-04-11T11:21:05Z</time></trkpt><trkpt lat="43.09669006221886" lon="11.43054345067965"><ele>167.66666666666666</ele><time>2026-04-11T11:21:08Z</time></trkpt><trkpt lat="43.09662477816294" lon="11.430473380171115"><ele>168.33333333333331</ele><time>2026-04-11T11:21:11Z</time></trkpt><trkpt lat="43.09656200569682" lon="11.430406181356801"><ele>169.0</ele><time>2026-04-11T11:21:14Z</time></trkpt><trkpt lat="43.096512217913336" lon="11.430338128375087"><ele>169.66666666666666</ele><time>2026-04-11T11:21:16Z</time></trkpt><trkpt lat="43.09646311295025" lon="11.430272373811283"><ele>170.33333333333334</ele><time>2026-04-11T11:21:18Z</time></trkpt><trkpt lat="43.096401548438344" lon="11.430222875786637"><ele>171.0</ele><time>2026-04-11T11:21:20Z</time></trkpt><trkpt lat="43.09632327016262" lon="11.430139518213933"><ele>171.0</ele><time>2026-04-11T11:21:23Z</time></trkpt><trkpt lat="43.096266225021694" lon="11.43005328543566"><ele>171.0</ele><time>2026-04-11T11:21:25Z</time></trkpt><trkpt lat="43.096201860693746" lon="11.429979155111925"><ele>171.0</ele><time>2026-04-11T11:21:27Z</time></trkpt><trkpt lat="43.096140135188875" lon="11.429913520289682"><ele>171.0</ele><time>2026-04-11T11:21:29Z</time></trkpt><trkpt lat="43.09607904872877" lon="11.429850202776365"><ele>171.0</ele><time>2026-04-11T11:21:31Z</time></trkpt><trkpt lat="43.09602540115228" lon="11.429788683500814"><ele>171.0</ele><time>2026-04-11T11:21:33Z</time></trkpt><trkpt lat="43.09596572116037" lon="11.429732835899658"><ele>170.99999999999997</ele><time>2026-04-11T11:21:35Z</time></trkpt><trkpt lat="43.0959120337266" lon="11.429676580896576"><ele>171.0</ele><time>2026-04-11T11:21:37Z</time></trkpt><trkpt lat="43.09586022508402" lon="11.429615275446816"><ele>171.0</ele><time>2026-04-11T11:21:39Z</time></trkpt><trkpt lat="43.09580053631242" lon="11.429571385180052"><ele>171.0</ele><time>2026-04-11T11:21:41Z</time></trkpt><trkpt lat="43.095737534362904" lon="11.429527234525022"><ele>171.0</ele><time>2026-04-11T11:21:43Z</time></trkpt><trkpt lat="43.0956811515182" lon="11.429476742670207"><ele>170.99999999999997</ele><time>2026-04-11T11:21:45Z</time></trkpt><trkpt lat="43.09562598048584" lon="11.429432530639048"><ele>171.0</ele><time>2026-04-11T11:21:47Z</time></trkpt><trkpt lat="43.0955397644495" lon="11.429379036582201"><ele>172.14285714285714</ele><time>2026-04-11T11:21:50Z</time></trkpt><trkpt lat="43.095484731110844" lon="11.429333187213363"><ele>173.28571428571428</ele><time>2026-04-11T11:21:52Z</time></trkpt><trkpt lat="43.09542966987077" lon="11.429275227253019"><ele>174.42857142857144</ele><time>2026-04-11T11:21:54Z</time></trkpt><trkpt lat="43.09537043260172" lon="11.429232887448523"><ele>175.57142857142856</ele><time>2026-04-11T11:21:56Z</time></trkpt><trkpt lat="43.09531350567867" lon="11.429193175781245"><ele>176.71428571428572</ele><time>2026-04-11T11:21:58Z</time></trkpt><trkpt lat="43.095257540627074" lon="11.429151964543111"><ele>177.85714285714286</ele><time>2026-04-11T11:22:00Z</time></trkpt><trkpt lat="43.09520002380323" lon="11.429107206977726"><ele>179.0</ele><time>2026-04-11T11:22:02Z</time></trkpt><trkpt lat="43.09514392706768" lon="11.42905750888813"><ele>179.0</ele><time>2026-04-11T11:22:04Z</time></trkpt><trkpt lat="43.09505702939655" lon="11.428998195368806"><ele>179.0</ele><time>2026-04-11T11:22:07Z</time></trkpt><trkpt lat="43.094973868048584" lon="11.428946151596987"><ele>179.0</ele><time>2026-04-11T11:22:10Z</time></trkpt><trkpt lat="43.09491693154916" lon="11.428906661305742"><ele>179.0</ele><time>2026-04-11T11:22:12Z</time></trkpt><trkpt lat="43.09483930416225" lon="11.428843861893801"><ele>179.0</ele><time>2026-04-11T11:22:15Z</time></trkpt><trkpt lat="43.09477272965274" lon="11.428797914562134"><ele>179.0</ele><time>2026-04-11T11:22:18Z</time></trkpt><trkpt lat="43.09469748493601" lon="11.428744227569162"><ele>180.16666666666666</ele><time>2026-04-11T11:22:21Z</time></trkpt><trkpt lat="43.0946330728952" lon="11.428692789375756"><ele>181.33333333333331</ele><time>2026-04-11T11:22:23Z</time></trkpt><trkpt lat="43.094560919309075" lon="11.428653353182614"><ele>182.5</ele><time>2026-04-11T11:22:26Z</time></trkpt><trkpt lat="43.09449113598682" lon="11.428601699655584"><ele>183.66666666666666</ele><time>2026-04-11T11:22:29Z</time></trkpt><trkpt lat="43.09441737587649" lon="11.4285504473292"><ele>184.83333333333334</ele><time>2026-04-11T11:22:32Z</time></trkpt><trkpt lat="43.09434241652643" lon="11.428492441117342"><ele>186.0</ele><time>2026-04-11T11:22:35Z</time></trkpt><trkpt lat="43.09426941872352" lon="11.428433124591969"><ele>186.0</ele><time>2026-04-11T11:22:38Z</time></trkpt><trkpt lat="43.09419540864258" lon="11.428377580401333"><ele>186.0</ele><time>2026-04-11T11:22:41Z</time></trkpt><trkpt lat="43.094119761278115" lon="11.428326847173652"><ele>186.0</ele><time>2026-04-11T11:22:44Z</time></trkpt><trkpt lat="43.094044319603526" lon="11.428280289819577"><ele>186.0</ele><time>2026-04-11T11:22:47Z</time></trkpt><trkpt lat="43.093973591136006" lon="11.428230504958071"><ele>186.0</ele><time>2026-04-11T11:22:50Z</time></trkpt><trkpt lat="43.09390499780878" lon="11.428168300122355"><ele>186.0</ele><time>2026-04-11T11:22:53Z</time></trkpt><trkpt lat="43.09379973291199" lon="11.428103193697819"><ele>186.33333333333334</ele><time>2026-04-11T11:22:56Z</time></trkpt><trkpt lat="43.09372129617934" lon="11.428032276438758"><ele>186.66666666666666</ele><time>2026-04-11T11:22:59Z</time></trkpt><trkpt lat="43.09366036733833" lon="11.42799154559343"><ele>187.0</ele><time>2026-04-11T11:23:02Z</time></trkpt><trkpt lat="43.09358622074019" lon="11.427950033218092"><ele>187.33333333333331</ele><time>2026-04-11T11:23:05Z</time></trkpt><trkpt lat="43.09350937518166" lon="11.427907584949923"><ele>187.66666666666666</ele><time>2026-04-11T11:23:08Z</time></trkpt><trkpt lat="43.09343463055547" lon="11.42784731650118"><ele>188.0</ele><time>2026-04-11T11:23:11Z</time></trkpt><trkpt lat="43.09336292751574" lon="11.427802143997226"><ele>188.5</ele><time>2026-04-11T11:23:14Z</time></trkpt><trkpt lat="43.09329004710766" lon="11.427740244465484"><ele>189.0</ele><time>2026-04-11T11:23:17Z</time></trkpt><trkpt lat="43.09321933899736" lon="11.427697389819759"><ele>189.5</ele><time>2026-04-11T11:23:20Z</time></trkpt><trkpt lat="43.09314501789483" lon="11.427642653374035"><ele>190.0</ele><time>2026-04-11T11:23:23Z</time></trkpt><trkpt lat="43.0930726683662" lon="11.427589249775417"><ele>190.5</ele><time>2026-04-11T11:23:26Z</time></trkpt><trkpt lat="43.09299773076111" lon="11.42754910248651"><ele>191.0</ele><time>2026-04-11T11:23:29Z</time></trkpt><trkpt lat="43.09292054720344" lon="11.427536302824576"><ele>191.5</ele><time>2026-04-11T11:23:32Z</time></trkpt><trkpt lat="43.09284712573113" lon="11.427494575777983"><ele>192.0</ele><time>2026-04-11T11:23:35Z</time></trkpt><trkpt lat="43.09277288441282" lon="11.427446730092141"><ele>192.5</ele><time>2026-04-11T11:23:38Z</time></trkpt><trkpt lat="43.09269748185027" lon="11.427393870024947"><ele>193.0</ele><time>2026-04-11T11:23:41Z</time></trkpt><trkpt lat="43.09262654605951" lon="11.427343185865256"><ele>193.50000000000003</ele><time>2026-04-11T11:23:44Z</time></trkpt><trkpt lat="43.092553822770725" lon="11.427290732987645"><ele>194.0</ele><time>2026-04-11T11:23:47Z</time></trkpt><trkpt lat="43.09247891198244" lon="11.427236702310553"><ele>193.33333333333334</ele><time>2026-04-11T11:23:50Z</time></trkpt><trkpt lat="43.092408230805056" lon="11.427185910325464"><ele>192.66666666666669</ele><time>2026-04-11T11:23:53Z</time></trkpt><trkpt lat="43.09233073704851" lon="11.427129828660828"><ele>192.0</ele><time>2026-04-11T11:23:56Z</time></trkpt><trkpt lat="43.09225480306864" lon="11.427076798147873"><ele>191.33333333333334</ele><time>2026-04-11T11:23:59Z</time></trkpt><trkpt lat="43.092174159301415" lon="11.427021294135539"><ele>190.66666666666669</ele><time>2026-04-11T11:24:02Z</time></trkpt><trkpt lat="43.092095619715444" lon="11.426967238428597"><ele>190.0</ele><time>2026-04-11T11:24:05Z</time></trkpt><trkpt lat="43.092016729151545" lon="11.426912941113578"><ele>191.5</ele><time>2026-04-11T11:24:08Z</time></trkpt><trkpt lat="43.09194169453905" lon="11.42686129769916"><ele>193.0</ele><time>2026-04-11T11:24:11Z</time></trkpt><trkpt lat="43.09186842567252" lon="11.42680913164449"><ele>194.5</ele><time>2026-04-11T11:24:14Z</time></trkpt><trkpt lat="43.09179784593563" lon="11.42675824602738"><ele>196.0</ele><time>2026-04-11T11:24:17Z</time></trkpt><trkpt lat="43.09172800409773" lon="11.426703228707273"><ele>197.49999999999997</ele><time>2026-04-11T11:24:20Z</time></trkpt><trkpt lat="43.09165418941469" lon="11.426646148543062"><ele>199.0</ele><time>2026-04-11T11:24:23Z</time></trkpt><trkpt lat="43.09158317489246" lon="11.426593505399438"><ele>198.99999999999997</ele><time>2026-04-11T11:24:26Z</time></trkpt><trkpt lat="43.09150960628002" lon="11.426542769715432"><ele>199.0</ele><time>2026-04-11T11:24:29Z</time></trkpt><trkpt lat="43.09142629463651" lon="11.42650826750879"><ele>199.0</ele><time>2026-04-11T11:24:32Z</time></trkpt><trkpt lat="43.091358204210685" lon="11.426452109328277"><ele>199.0</ele><time>2026-04-11T11:24:35Z</time></trkpt><trkpt lat="43.091267845207284" lon="11.426431558801468"><ele>198.99999999999997</ele><time>2026-04-11T11:24:38Z</time></trkpt><trkpt lat="43.091190353684674" lon="11.426376815075585"><ele>199.0</ele><time>2026-04-11T11:24:41Z</time></trkpt><trkpt lat="43.091121912753444" lon="11.426336806530522"><ele>199.66666666666666</ele><time>2026-04-11T11:24:44Z</time></trkpt><trkpt lat="43.091050362849096" lon="11.426273195773632"><ele>200.33333333333331</ele><time>2026-04-11T11:24:48Z</time></trkpt><trkpt lat="43.091000000885174" lon="11.42621163915152"><ele>201.0</ele><time>2026-04-11T11:24:50Z</time></trkpt><trkpt lat="43.090948465037556" lon="11.42611228019224"><ele>201.66666666666669</ele><time>2026-04-11T11:24:52Z</time></trkpt><trkpt lat="43.09090194504397" lon="11.426029549154114"><ele>202.33333333333334</ele><time>2026-04-11T11:24:55Z</time></trkpt><trkpt lat="43.09082724605674" lon="11.425991843009333"><ele>203.0</ele><time>2026-04-11T11:24:57Z</time></trkpt><trkpt lat="43.09076132262152" lon="11.425973238025193"><ele>204.00000000000003</ele><time>2026-04-11T11:24:59Z</time></trkpt><trkpt lat="43.090698225232934" lon="11.42595180791033"><ele>205.0</ele><time>2026-04-11T11:25:01Z</time></trkpt><trkpt lat="43.09063297243505" lon="11.42593390076181"><ele>206.0</ele><time>2026-04-11T11:25:04Z</time></trkpt><trkpt lat="43.09055209738673" lon="11.425931276404622"><ele>207.0</ele><time>2026-04-11T11:25:07Z</time></trkpt><trkpt lat="43.09047313047973" lon="11.42588602035756"><ele>208.00000000000003</ele><time>2026-04-11T11:25:10Z</time></trkpt><trkpt lat="43.090391900167326" lon="11.425855056905082"><ele>209.0</ele><time>2026-04-11T11:25:13Z</time></trkpt><trkpt lat="43.09032132648281" lon="11.425841726836877"><ele>209.00000000000003</ele><time>2026-04-11T11:25:16Z</time></trkpt><trkpt lat="43.090246017934405" lon="11.425816429599553"><ele>209.0</ele><time>2026-04-11T11:25:19Z</time></trkpt><trkpt lat="43.090172512247435" lon="11.425790072928134"><ele>209.0</ele><time>2026-04-11T11:25:22Z</time></trkpt><trkpt lat="43.09009345124244" lon="11.425773847335527"><ele>209.0</ele><time>2026-04-11T11:25:25Z</time></trkpt><trkpt lat="43.0900110800908" lon="11.425748949513402"><ele>209.00000000000003</ele><time>2026-04-11T11:25:28Z</time></trkpt><trkpt lat="43.08993589007881" lon="11.42572892255707"><ele>209.0</ele><time>2026-04-11T11:25:31Z</time></trkpt><trkpt lat="43.08986635020394" lon="11.42571566770831"><ele>209.83333333333334</ele><time>2026-04-11T11:25:34Z</time></trkpt><trkpt lat="43.089795079977804" lon="11.425697856531231"><ele>210.66666666666669</ele><time>2026-04-11T11:25:37Z</time></trkpt><trkpt lat="43.089722524460626" lon="11.425674816360607"><ele>211.5</ele><time>2026-04-11T11:25:40Z</time></trkpt><trkpt lat="43.08964675716047" lon="11.425644452447775"><ele>212.33333333333331</ele><time>2026-04-11T11:25:43Z</time></trkpt><trkpt lat="43.08957360348379" lon="11.42563428386597"><ele>213.16666666666666</ele><time>2026-04-11T11:25:46Z</time></trkpt><trkpt lat="43.08950013194858" lon="11.425616163648579"><ele>214.0</ele><time>2026-04-11T11:25:49Z</time></trkpt><trkpt lat="43.08942492839606" lon="11.425590721168007"><ele>214.00000000000003</ele><time>2026-04-11T11:25:52Z</time></trkpt><trkpt lat="43.08935380144241" lon="11.425566322888494"><ele>214.0</ele><time>2026-04-11T11:25:55Z</time></trkpt><trkpt lat="43.08928857715793" lon="11.425538992287871"><ele>214.0</ele><time>2026-04-11T11:25:58Z</time></trkpt><trkpt lat="43.089221471418504" lon="11.425523329047653"><ele>214.0</ele><time>2026-04-11T11:26:01Z</time></trkpt><trkpt lat="43.08915868598608" lon="11.425499544315826"><ele>214.0</ele><time>2026-04-11T11:26:04Z</time></trkpt><trkpt lat="43.08909652061779" lon="11.425460406051691"><ele>214.00000000000003</ele><time>2026-04-11T11:26:07Z</time></trkpt><trkpt lat="43.08903695124052" lon="11.425432109707563"><ele>214.0</ele><time>2026-04-11T11:26:10Z</time></trkpt><trkpt lat="43.08897283269967" lon="11.425355917650684"><ele>217.71428571428572</ele><time>2026-04-11T11:26:14Z</time></trkpt><trkpt lat="43.08893800901817" lon="11.425283491143274"><ele>221.42857142857144</ele><time>2026-04-11T11:26:17Z</time></trkpt><trkpt lat="43.088918440552334" lon="11.425183773247518"><ele>225.14285714285717</ele><time>2026-04-11T11:26:21Z</time></trkpt><trkpt lat="43.08891549412922" lon="11.425080626939682"><ele>228.85714285714286</ele><time>2026-04-11T11:26:25Z</time></trkpt><trkpt lat="43.08890865478025" lon="11.42498720052463"><ele>232.57142857142856</ele><time>2026-04-11T11:26:29Z</time></trkpt><trkpt lat="43.08892040469942" lon="11.424889258308134"><ele>236.2857142857143</ele><time>2026-04-11T11:26:33Z</time></trkpt><trkpt lat="43.08893143843922" lon="11.424792057165673"><ele>240.0</ele><time>2026-04-11T11:26:37Z</time></trkpt><trkpt lat="43.08893838971482" lon="11.424688775238776"><ele>242.28571428571428</ele><time>2026-04-11T11:26:41Z</time></trkpt><trkpt lat="43.088954393090134" lon="11.424597978304998"><ele>244.57142857142856</ele><time>2026-04-11T11:26:44Z</time></trkpt><trkpt lat="43.08896556585924" lon="11.424512647613053"><ele>246.85714285714283</ele><time>2026-04-11T11:26:47Z</time></trkpt><trkpt lat="43.088981625490305" lon="11.424402022970494"><ele>249.14285714285714</ele><time>2026-04-11T11:26:51Z</time></trkpt><trkpt lat="43.08901130089954" lon="11.424301232625236"><ele>251.4285714285714</ele><time>2026-04-11T11:26:55Z</time></trkpt><trkpt lat="43.08902493568676" lon="11.424206531419232"><ele>253.7142857142857</ele><time>2026-04-11T11:26:59Z</time></trkpt><trkpt lat="43.089040196816256" lon="11.424097257028029"><ele>256.0</ele><time>2026-04-11T11:27:03Z</time></trkpt><trkpt lat="43.08905330982615" lon="11.423997673783633"><ele>255.99999999999997</ele><time>2026-04-11T11:27:07Z</time></trkpt><trkpt lat="43.08906893288396" lon="11.423893086854006"><ele>256.0</ele><time>2026-04-11T11:27:11Z</time></trkpt><trkpt lat="43.089087333089886" lon="11.423779621299648"><ele>256.0</ele><time>2026-04-11T11:27:15Z</time></trkpt><trkpt lat="43.08909518784972" lon="11.423688430151325"><ele>256.0</ele><time>2026-04-11T11:27:19Z</time></trkpt><trkpt lat="43.089119034036074" lon="11.423575241147764"><ele>255.99999999999997</ele><time>2026-04-11T11:27:23Z</time></trkpt><trkpt lat="43.08912497258607" lon="11.423472277918908"><ele>256.0</ele><time>2026-04-11T11:27:27Z</time></trkpt><trkpt lat="43.08910868374899" lon="11.423370277076625"><ele>256.85714285714283</ele><time>2026-04-11T11:27:32Z</time></trkpt><trkpt lat="43.08908429802431" lon="11.423275227542954"><ele>257.71428571428567</ele><time>2026-04-11T11:27:37Z</time></trkpt><trkpt lat="43.089062851882936" lon="11.423186166873078"><ele>258.57142857142856</ele><time>2026-04-11T11:27:41Z</time></trkpt><trkpt lat="43.089031415984245" lon="11.423090767923703"><ele>259.42857142857144</ele><time>2026-04-11T11:27:46Z</time></trkpt><trkpt lat="43.08900946164469" lon="11.422990861589994"><ele>260.28571428571433</ele><time>2026-04-11T11:27:51Z</time></trkpt><trkpt lat="43.08898714544425" lon="11.422906145619875"><ele>261.14285714285717</ele><time>2026-04-11T11:27:55Z</time></trkpt><trkpt lat="43.08895930166638" lon="11.422828507572548"><ele>262.0</ele><time>2026-04-11T11:27:59Z</time></trkpt><trkpt lat="43.08891383464834" lon="11.422739070424258"><ele>262.14285714285717</ele><time>2026-04-11T11:28:04Z</time></trkpt><trkpt lat="43.08886998589636" lon="11.422666176167963"><ele>262.28571428571433</ele><time>2026-04-11T11:28:09Z</time></trkpt><trkpt lat="43.08883592272147" lon="11.422581066624922"><ele>262.42857142857144</ele><time>2026-04-11T11:28:14Z</time></trkpt><trkpt lat="43.08880002922823" lon="11.422476143748286"><ele>262.57142857142856</ele><time>2026-04-11T11:28:19Z</time></trkpt><trkpt lat="43.08876668724574" lon="11.422380530899366"><ele>262.71428571428567</ele><time>2026-04-11T11:28:24Z</time></trkpt><trkpt lat="43.08874742229653" lon="11.422292260422454"><ele>262.85714285714283</ele><time>2026-04-11T11:28:28Z</time></trkpt><trkpt lat="43.08870503466994" lon="11.422222554373539"><ele>263.0</ele><time>2026-04-11T11:28:33Z</time></trkpt><trkpt lat="43.08865218880126" lon="11.422130616827145"><ele>262.1428571428571</ele><time>2026-04-11T11:28:38Z</time></trkpt><trkpt lat="43.088629033541814" lon="11.422048126805487"><ele>261.2857142857143</ele><time>2026-04-11T11:28:42Z</time></trkpt><trkpt lat="43.08859288067292" lon="11.421956828037482"><ele>260.42857142857144</ele><time>2026-04-11T11:28:47Z</time></trkpt><trkpt lat="43.08855193844278" lon="11.421885008060467"><ele>259.57142857142856</ele><time>2026-04-11T11:28:51Z</time></trkpt><trkpt lat="43.08849521372246" lon="11.421814311852874"><ele>258.7142857142857</ele><time>2026-04-11T11:28:56Z</time></trkpt><trkpt lat="43.08843135504333" lon="11.421769453381208"><ele>257.85714285714283</ele><time>2026-04-11T11:29:01Z</time></trkpt><trkpt lat="43.08836212628752" lon="11.421721083700032"><ele>257.0</ele><time>2026-04-11T11:29:06Z</time></trkpt><trkpt lat="43.08828682209123" lon="11.421726710759598"><ele>260.1428571428571</ele><time>2026-04-11T11:29:11Z</time></trkpt><trkpt lat="43.088225942331206" lon="11.421756813073856"><ele>263.2857142857143</ele><time>2026-04-11T11:29:16Z</time></trkpt><trkpt lat="43.08817916699717" lon="11.421818849118228"><ele>266.42857142857144</ele><time>2026-04-11T11:29:21Z</time></trkpt><trkpt lat="43.08814773767416" lon="11.421906607737354"><ele>269.57142857142856</ele><time>2026-04-11T11:29:27Z</time></trkpt><trkpt lat="43.088123535766" lon="11.421990670261108"><ele>272.7142857142857</ele><time>2026-04-11T11:29:32Z</time></trkpt><trkpt lat="43.088096609629" lon="11.422086384184368"><ele>275.85714285714283</ele><time>2026-04-11T11:29:38Z</time></trkpt><trkpt lat="43.08809723449525" lon="11.422172891400846"><ele>279.0</ele><time>2026-04-11T11:29:43Z</time></trkpt><trkpt lat="43.088085230583744" lon="11.422261069375516"><ele>279.4285714285714</ele><time>2026-04-11T11:29:48Z</time></trkpt><trkpt lat="43.08806587199152" lon="11.422350024793511"><ele>279.85714285714283</ele><time>2026-04-11T11:29:53Z</time></trkpt><trkpt lat="43.08803847861835" lon="11.422438806327385"><ele>280.2857142857143</ele><time>2026-04-11T11:29:59Z</time></trkpt><trkpt lat="43.08803057432418" lon="11.42253002067185"><ele>280.71428571428567</ele><time>2026-04-11T11:30:04Z</time></trkpt><trkpt lat="43.088007270872424" lon="11.422617948756704"><ele>281.1428571428571</ele><time>2026-04-11T11:30:09Z</time></trkpt><trkpt lat="43.08798148702946" lon="11.42271176463973"><ele>281.57142857142856</ele><time>2026-04-11T11:30:14Z</time></trkpt><trkpt lat="43.08795945046436" lon="11.422809091930773"><ele>282.0</ele><time>2026-04-11T11:30:19Z</time></trkpt><trkpt lat="43.08794322874885" lon="11.42289325035465"><ele>282.14285714285717</ele><time>2026-04-11T11:30:23Z</time></trkpt><trkpt lat="43.08792299196927" lon="11.422981243487813"><ele>282.2857142857143</ele><time>2026-04-11T11:30:27Z</time></trkpt><trkpt lat="43.08789892894956" lon="11.423069710746255"><ele>282.42857142857144</ele><time>2026-04-11T11:30:31Z</time></trkpt><trkpt lat="43.08786229305026" lon="11.423169590362617"><ele>282.57142857142856</ele><time>2026-04-11T11:30:36Z</time></trkpt><trkpt lat="43.087833232124076" lon="11.423262524420432"><ele>282.7142857142857</ele><time>2026-04-11T11:30:41Z</time></trkpt><trkpt lat="43.08779432374198" lon="11.423346951146286"><ele>282.8571428571429</ele><time>2026-04-11T11:30:46Z</time></trkpt><trkpt lat="43.087757204425536" lon="11.42341679011412"><ele>283.0</ele><time>2026-04-11T11:30:50Z</time></trkpt><trkpt lat="43.087708196739534" lon="11.42348649628667"><ele>283.0</ele><time>2026-04-11T11:30:54Z</time></trkpt><trkpt lat="43.087653246484656" lon="11.423541163987496"><ele>283.0</ele><time>2026-04-11T11:30:58Z</time></trkpt><trkpt lat="43.0875834986188" lon="11.423552160605155"><ele>283.0</ele><time>2026-04-11T11:31:02Z</time></trkpt><trkpt lat="43.0875164653319" lon="11.423507215371284"><ele>283.0</ele><time>2026-04-11T11:31:07Z</time></trkpt><trkpt lat="43.08747478941751" lon="11.423433140526942"><ele>283.0</ele><time>2026-04-11T11:31:12Z</time></trkpt><trkpt lat="43.08744145206216" lon="11.423356309745005"><ele>283.0</ele><time>2026-04-11T11:31:17Z</time></trkpt><trkpt lat="43.08742583062531" lon="11.423262341440209"><ele>283.0</ele><time>2026-04-11T11:31:22Z</time></trkpt><trkpt lat="43.087397743956174" lon="11.423172242790118"><ele>286.8571428571429</ele><time>2026-04-11T11:31:48Z</time></trkpt><trkpt lat="43.087370337764725" lon="11.423074263930758"><ele>290.7142857142857</ele><time>2026-04-11T11:31:53Z</time></trkpt><trkpt lat="43.087353251643485" lon="11.422976958674688"><ele>294.57142857142856</ele><time>2026-04-11T11:31:58Z</time></trkpt><trkpt lat="43.08733800514442" lon="11.422892287814665"><ele>298.42857142857144</ele><time>2026-04-11T11:32:02Z</time></trkpt><trkpt lat="43.08732328428751" lon="11.422795704695677"><ele>302.2857142857143</ele><time>2026-04-11T11:32:06Z</time></trkpt><trkpt lat="43.0872885400384" lon="11.422705652444241"><ele>306.14285714285717</ele><time>2026-04-11T11:32:10Z</time></trkpt><trkpt lat="43.087235992551065" lon="11.422648362386825"><ele>310.0</ele><time>2026-04-11T11:32:14Z</time></trkpt><trkpt lat="43.08716533180321" lon="11.422675542052266"><ele>310.0</ele><time>2026-04-11T11:32:20Z</time></trkpt><trkpt lat="43.087144659201265" lon="11.422757489096453"><ele>310.0</ele><time>2026-04-11T11:32:26Z</time></trkpt><trkpt lat="43.087137260848614" lon="11.4228453132187"><ele>310.0</ele><time>2026-04-11T11:32:31Z</time></trkpt><trkpt lat="43.08713393296503" lon="11.422932933279153"><ele>310.0</ele><time>2026-04-11T11:32:36Z</time></trkpt><trkpt lat="43.0871056993126" lon="11.423026835558032"><ele>310.0</ele><time>2026-04-11T11:33:10Z</time></trkpt><trkpt lat="43.08709381105726" lon="11.423129800428061"><ele>310.0</ele><time>2026-04-11T11:33:15Z</time></trkpt><trkpt lat="43.08708060725358" lon="11.42321690863506"><ele>310.0</ele><time>2026-04-11T11:33:19Z</time></trkpt><trkpt lat="43.08707450163453" lon="11.423305140473756"><ele>310.0</ele><time>2026-04-11T11:33:23Z</time></trkpt><trkpt lat="43.087047876853156" lon="11.423405181389636"><ele>310.0</ele><time>2026-04-11T11:33:28Z</time></trkpt><trkpt lat="43.08702550503968" lon="11.423502535361477"><ele>310.0</ele><time>2026-04-11T11:33:33Z</time></trkpt><trkpt lat="43.087017606067064" lon="11.423591518304153"><ele>310.0</ele><time>2026-04-11T11:33:37Z</time></trkpt><trkpt lat="43.086981965197914" lon="11.423675931974126"><ele>310.0</ele><time>2026-04-11T11:33:41Z</time></trkpt><trkpt lat="43.086942627782285" lon="11.423748240524885"><ele>310.0</ele><time>2026-04-11T11:33:45Z</time></trkpt><trkpt lat="43.08689296299917" lon="11.423810879713399"><ele>310.0</ele><time>2026-04-11T11:33:48Z</time></trkpt><trkpt lat="43.086837179095575" lon="11.423860501204656"><ele>311.14285714285717</ele><time>2026-04-11T11:33:52Z</time></trkpt><trkpt lat="43.086771536755414" lon="11.423882376671612"><ele>312.2857142857143</ele><time>2026-04-11T11:33:55Z</time></trkpt><trkpt lat="43.08670345721979" lon="11.423861319800865"><ele>313.42857142857144</ele><time>2026-04-11T11:33:59Z</time></trkpt><trkpt lat="43.08663192061557" lon="11.42384921908861"><ele>314.57142857142856</ele><time>2026-04-11T11:34:03Z</time></trkpt><trkpt lat="43.08655724636732" lon="11.423833270286206"><ele>315.7142857142857</ele><time>2026-04-11T11:34:07Z</time></trkpt><trkpt lat="43.08648870889873" lon="11.423817099020338"><ele>316.85714285714283</ele><time>2026-04-11T11:34:11Z</time></trkpt><trkpt lat="43.0864210148225" lon="11.423768274703574"><ele>318.0</ele><time>2026-04-11T11:34:16Z</time></trkpt><trkpt lat="43.086372859929625" lon="11.42370310241893"><ele>319.57142857142856</ele><time>2026-04-11T11:34:20Z</time></trkpt><trkpt lat="43.08634906494773" lon="11.423603458334776"><ele>321.14285714285717</ele><time>2026-04-11T11:34:25Z</time></trkpt><trkpt lat="43.08635869165968" lon="11.423492320912365"><ele>322.7142857142857</ele><time>2026-04-11T11:34:30Z</time></trkpt><trkpt lat="43.086387016943554" lon="11.423399318753468"><ele>324.2857142857143</ele><time>2026-04-11T11:34:35Z</time></trkpt><trkpt lat="43.08641542256049" lon="11.4232936120139"><ele>325.8571428571429</ele><time>2026-04-11T11:34:40Z</time></trkpt><trkpt lat="43.086445765549655" lon="11.423214654651778"><ele>327.42857142857144</ele><time>2026-04-11T11:34:44Z</time></trkpt><trkpt lat="43.0864577999789" lon="11.42312098000001"><ele>329.0</ele><time>2026-04-11T11:34:49Z</time></trkpt><trkpt lat="43.08647082322969" lon="11.423000549594692"><ele>328.85714285714283</ele><time>2026-04-11T11:34:54Z</time></trkpt><trkpt lat="43.08646973844691" lon="11.42289126809843"><ele>328.7142857142857</ele><time>2026-04-11T11:34:59Z</time></trkpt><trkpt lat="43.08645213915849" lon="11.422791602131863"><ele>328.57142857142856</ele><time>2026-04-11T11:35:04Z</time></trkpt><trkpt lat="43.086406902454506" lon="11.422712712215757"><ele>328.42857142857144</ele><time>2026-04-11T11:35:09Z</time></trkpt><trkpt lat="43.086356641260984" lon="11.422657013247946"><ele>328.2857142857143</ele><time>2026-04-11T11:35:13Z</time></trkpt><trkpt lat="43.086294232722565" lon="11.422639348119453"><ele>328.1428571428571</ele><time>2026-04-11T11:35:17Z</time></trkpt><trkpt lat="43.08622007320767" lon="11.422675744770565"><ele>328.0</ele><time>2026-04-11T11:35:23Z</time></trkpt><trkpt lat="43.086165632726086" lon="11.422744125944343"><ele>327.99999999999994</ele><time>2026-04-11T11:35:29Z</time></trkpt><trkpt lat="43.08613484639872" lon="11.422845779597552"><ele>328.0</ele><time>2026-04-11T11:35:35Z</time></trkpt><trkpt lat="43.08610090439597" lon="11.422933215055645"><ele>328.0</ele><time>2026-04-11T11:35:41Z</time></trkpt><trkpt lat="43.086062948616835" lon="11.42300303030991"><ele>328.0</ele><time>2026-04-11T11:35:46Z</time></trkpt><trkpt lat="43.08601416466987" lon="11.423078138564842"><ele>328.0</ele><time>2026-04-11T11:35:51Z</time></trkpt><trkpt lat="43.085970970085555" lon="11.42317289393957"><ele>327.99999999999994</ele><time>2026-04-11T11:35:56Z</time></trkpt><trkpt lat="43.08592582219365" lon="11.423234576877773"><ele>328.0</ele><time>2026-04-11T11:36:00Z</time></trkpt><trkpt lat="43.08586951352932" lon="11.423283907857385"><ele>328.1428571428571</ele><time>2026-04-11T11:36:04Z</time></trkpt><trkpt lat="43.08580332039743" lon="11.423305709837544"><ele>328.2857142857143</ele><time>2026-04-11T11:36:08Z</time></trkpt><trkpt lat="43.0857402553821" lon="11.423290115849225"><ele>328.42857142857144</ele><time>2026-04-11T11:36:11Z</time></trkpt><trkpt lat="43.08567832676376" lon="11.423256068992552"><ele>328.57142857142856</ele><time>2026-04-11T11:36:15Z</time></trkpt><trkpt lat="43.08561416742321" lon="11.42321601667821"><ele>328.7142857142857</ele><time>2026-04-11T11:36:19Z</time></trkpt><trkpt lat="43.08555896983256" lon="11.423139371338564"><ele>328.85714285714283</ele><time>2026-04-11T11:36:24Z</time></trkpt><trkpt lat="43.08552145652828" lon="11.423050311456626"><ele>329.0</ele><time>2026-04-11T11:36:29Z</time></trkpt><trkpt lat="43.08549364480993" lon="11.4229723478887"><ele>331.85714285714283</ele><time>2026-04-11T11:36:33Z</time></trkpt><trkpt lat="43.08545825339613" lon="11.42287581742883"><ele>334.7142857142857</ele><time>2026-04-11T11:36:38Z</time></trkpt><trkpt lat="43.085427546253136" lon="11.422774606219285"><ele>337.57142857142856</ele><time>2026-04-11T11:36:43Z</time></trkpt><trkpt lat="43.08540491761685" lon="11.422681668940537"><ele>340.42857142857144</ele><time>2026-04-11T11:36:47Z</time></trkpt><trkpt lat="43.085374171931974" lon="11.422598035584386"><ele>343.2857142857143</ele><time>2026-04-11T11:36:51Z</time></trkpt><trkpt lat="43.085344614225306" lon="11.422506136451126"><ele>346.1428571428571</ele><time>2026-04-11T11:36:55Z</time></trkpt><trkpt lat="43.08531839317685" lon="11.422414083870361"><ele>349.0</ele><time>2026-04-11T11:36:59Z</time></trkpt><trkpt lat="43.0853100847047" lon="11.422324466572183"><ele>348.99999999999994</ele><time>2026-04-11T11:37:02Z</time></trkpt><trkpt lat="43.08528906297553" lon="11.422237788694027"><ele>349.0</ele><time>2026-04-11T11:37:05Z</time></trkpt><trkpt lat="43.085262297495646" lon="11.42215812123755"><ele>349.0</ele><time>2026-04-11T11:37:08Z</time></trkpt><trkpt lat="43.08524968391228" lon="11.422068869932463"><ele>349.0</ele><time>2026-04-11T11:37:17Z</time></trkpt><trkpt lat="43.08521966830919" lon="11.421976660892186"><ele>349.0</ele><time>2026-04-11T11:39:16Z</time></trkpt><trkpt lat="43.08516527185435" lon="11.421913312933025"><ele>348.99999999999994</ele><time>2026-04-11T11:39:19Z</time></trkpt><trkpt lat="43.08509679730803" lon="11.421850336358158"><ele>349.0</ele><time>2026-04-11T11:39:22Z</time></trkpt><trkpt lat="43.085032595544874" lon="11.421798116135578"><ele>348.4285714285714</ele><time>2026-04-11T11:39:25Z</time></trkpt><trkpt lat="43.08497280622283" lon="11.421767304681685"><ele>347.85714285714283</ele><time>2026-04-11T11:39:28Z</time></trkpt><trkpt lat="43.084898195284914" lon="11.42172913904984"><ele>347.2857142857143</ele><time>2026-04-11T11:39:32Z</time></trkpt><trkpt lat="43.08481607372538" lon="11.421691854574968"><ele>346.71428571428567</ele><time>2026-04-11T11:39:35Z</time></trkpt><trkpt lat="43.0847531492468" lon="11.421665277843188"><ele>346.1428571428571</ele><time>2026-04-11T11:39:37Z</time></trkpt><trkpt lat="43.08468266304078" lon="11.421640468603997"><ele>345.57142857142856</ele><time>2026-04-11T11:39:39Z</time></trkpt><trkpt lat="43.08461053463517" lon="11.421625057184537"><ele>345.0</ele><time>2026-04-11T11:39:41Z</time></trkpt><trkpt lat="43.08454196690903" lon="11.421608418660607"><ele>345.0</ele><time>2026-04-11T11:39:43Z</time></trkpt><trkpt lat="43.0844755372275" lon="11.421577842196694"><ele>345.0</ele><time>2026-04-11T11:39:45Z</time></trkpt><trkpt lat="43.08440914120782" lon="11.421543634939626"><ele>345.0</ele><time>2026-04-11T11:39:47Z</time></trkpt><trkpt lat="43.0843463712706" lon="11.421514241427673"><ele>345.0</ele><time>2026-04-11T11:39:49Z</time></trkpt><trkpt lat="43.084287721433775" lon="11.421461787667583"><ele>345.0</ele><time>2026-04-11T11:39:51Z</time></trkpt><trkpt lat="43.08422772924482" lon="11.421411379124343"><ele>345.0</ele><time>2026-04-11T11:39:53Z</time></trkpt><trkpt lat="43.08416859010552" lon="11.421370901991004"><ele>345.0</ele><time>2026-04-11T11:39:55Z</time></trkpt><trkpt lat="43.08409001041075" lon="11.421319312460017"><ele>345.2857142857143</ele><time>2026-04-11T11:39:58Z</time></trkpt><trkpt lat="43.08402117008103" lon="11.421270862615978"><ele>345.57142857142856</ele><time>2026-04-11T11:40:01Z</time></trkpt><trkpt lat="43.083959223031236" lon="11.421235118479519"><ele>345.8571428571429</ele><time>2026-04-11T11:40:04Z</time></trkpt><trkpt lat="43.08390854653309" lon="11.421173914047296"><ele>346.1428571428571</ele><time>2026-04-11T11:40:07Z</time></trkpt><trkpt lat="43.08384494775537" lon="11.421109722572398"><ele>346.4285714285714</ele><time>2026-04-11T11:40:11Z</time></trkpt><trkpt lat="43.08376696047592" lon="11.42106551868573"><ele>346.7142857142857</ele><time>2026-04-11T11:40:15Z</time></trkpt><trkpt lat="43.0837057586979" lon="11.421027574872427"><ele>347.0</ele><time>2026-04-11T11:40:18Z</time></trkpt><trkpt lat="43.0836311735682" lon="11.420985588384921"><ele>347.0</ele><time>2026-04-11T11:40:22Z</time></trkpt><trkpt lat="43.08356127943703" lon="11.42095814260267"><ele>347.0</ele><time>2026-04-11T11:40:26Z</time></trkpt><trkpt lat="43.08348176355269" lon="11.420933206266985"><ele>347.0</ele><time>2026-04-11T11:40:30Z</time></trkpt><trkpt lat="43.08340229594077" lon="11.420909263492254"><ele>347.0</ele><time>2026-04-11T11:40:34Z</time></trkpt><trkpt lat="43.08333952857909" lon="11.420880729609008"><ele>347.0</ele><time>2026-04-11T11:40:37Z</time></trkpt><trkpt lat="43.08327257504007" lon="11.420855892337581"><ele>347.0</ele><time>2026-04-11T11:40:40Z</time></trkpt><trkpt lat="43.08320491504421" lon="11.420834018222735"><ele>347.0</ele><time>2026-04-11T11:40:43Z</time></trkpt><trkpt lat="43.08313643457364" lon="11.420814853968157"><ele>348.14285714285717</ele><time>2026-04-11T11:40:46Z</time></trkpt><trkpt lat="43.08306765656493" lon="11.420793866785528"><ele>349.2857142857143</ele><time>2026-04-11T11:40:49Z</time></trkpt><trkpt lat="43.0830043731965" lon="11.420773508462593"><ele>350.42857142857144</ele><time>2026-04-11T11:40:52Z</time></trkpt><trkpt lat="43.08293873666076" lon="11.420756215232368"><ele>351.57142857142856</ele><time>2026-04-11T11:40:55Z</time></trkpt><trkpt lat="43.082871916689925" lon="11.42073325250469"><ele>352.7142857142857</ele><time>2026-04-11T11:40:58Z</time></trkpt><trkpt lat="43.08281010295737" lon="11.420716660553007"><ele>353.85714285714283</ele><time>2026-04-11T11:41:01Z</time></trkpt><trkpt lat="43.08273339715984" lon="11.420692521319365"><ele>355.0</ele><time>2026-04-11T11:41:05Z</time></trkpt><trkpt lat="43.08265940024356" lon="11.42066504097886"><ele>355.0</ele><time>2026-04-11T11:41:09Z</time></trkpt><trkpt lat="43.08257948817965" lon="11.420643277963526"><ele>355.0</ele><time>2026-04-11T11:41:13Z</time></trkpt><trkpt lat="43.08251415928866" lon="11.42063030512098"><ele>355.0</ele><time>2026-04-11T11:41:16Z</time></trkpt><trkpt lat="43.08244887819084" lon="11.420623614246844"><ele>355.0</ele><time>2026-04-11T11:41:19Z</time></trkpt><trkpt lat="43.082372627835156" lon="11.420598363653003"><ele>355.0</ele><time>2026-04-11T11:41:22Z</time></trkpt><trkpt lat="43.082295386128635" lon="11.420582635599732"><ele>355.0</ele><time>2026-04-11T11:41:25Z</time></trkpt><trkpt lat="43.08222626586575" lon="11.420571275029731"><ele>355.0</ele><time>2026-04-11T11:41:28Z</time></trkpt><trkpt lat="43.08214963606183" lon="11.420572083017827"><ele>354.8333333333333</ele><time>2026-04-11T11:41:30Z</time></trkpt><trkpt lat="43.08206643994849" lon="11.420563670837616"><ele>354.66666666666663</ele><time>2026-04-11T11:41:33Z</time></trkpt><trkpt lat="43.082001187098726" lon="11.420578337194497"><ele>354.5</ele><time>2026-04-11T11:41:36Z</time></trkpt><trkpt lat="43.081924193117615" lon="11.420561899302038"><ele>354.3333333333333</ele><time>2026-04-11T11:41:39Z</time></trkpt><trkpt lat="43.08183697550614" lon="11.420536322004635"><ele>354.1666666666667</ele><time>2026-04-11T11:41:42Z</time></trkpt><trkpt lat="43.08176666041948" lon="11.420497298050618"><ele>354.0</ele><time>2026-04-11T11:41:45Z</time></trkpt><trkpt lat="43.08169508151948" lon="11.420442687172207"><ele>354.8333333333333</ele><time>2026-04-11T11:41:48Z</time></trkpt><trkpt lat="43.08162387937654" lon="11.42038765859484"><ele>355.6666666666667</ele><time>2026-04-11T11:41:51Z</time></trkpt><trkpt lat="43.08155887103658" lon="11.420321558482469"><ele>356.5</ele><time>2026-04-11T11:41:54Z</time></trkpt><trkpt lat="43.081498574804854" lon="11.420251466397849"><ele>357.33333333333337</ele><time>2026-04-11T11:41:57Z</time></trkpt><trkpt lat="43.08143803258444" lon="11.420184229145155"><ele>358.1666666666667</ele><time>2026-04-11T11:42:00Z</time></trkpt><trkpt lat="43.08139232650337" lon="11.420111529176227"><ele>359.0</ele><time>2026-04-11T11:42:03Z</time></trkpt><trkpt lat="43.0813443640693" lon="11.420044476602087"><ele>360.0</ele><time>2026-04-11T11:42:06Z</time></trkpt><trkpt lat="43.081294334633164" lon="11.419973687179453"><ele>361.0</ele><time>2026-04-11T11:42:09Z</time></trkpt><trkpt lat="43.081248467908026" lon="11.419908739438728"><ele>362.0</ele><time>2026-04-11T11:42:12Z</time></trkpt><trkpt lat="43.08120331582587" lon="11.419832534493048"><ele>363.0</ele><time>2026-04-11T11:42:15Z</time></trkpt><trkpt lat="43.08116124413475" lon="11.419762343794382"><ele>364.0</ele><time>2026-04-11T11:42:18Z</time></trkpt><trkpt lat="43.08110212697711" lon="11.419697826628413"><ele>365.0</ele><time>2026-04-11T11:42:21Z</time></trkpt><trkpt lat="43.08104416272861" lon="11.41964769614845"><ele>366.0</ele><time>2026-04-11T11:42:24Z</time></trkpt><trkpt lat="43.08098646562773" lon="11.41959408310739"><ele>366.0</ele><time>2026-04-11T11:42:28Z</time></trkpt><trkpt lat="43.08091467239596" lon="11.419535332227756"><ele>366.0</ele><time>2026-04-11T11:42:32Z</time></trkpt><trkpt lat="43.08083982589433" lon="11.419499626215922"><ele>366.0</ele><time>2026-04-11T11:42:36Z</time></trkpt><trkpt lat="43.080763594683624" lon="11.419474590645784"><ele>366.0</ele><time>2026-04-11T11:42:40Z</time></trkpt><trkpt lat="43.08069997480763" lon="11.419457905950003"><ele>366.0</ele><time>2026-04-11T11:42:43Z</time></trkpt><trkpt lat="43.08060742393398" lon="11.41943605308883"><ele>366.0</ele><time>2026-04-11T11:42:47Z</time></trkpt><trkpt lat="43.08053720829145" lon="11.419417770379635"><ele>368.7142857142857</ele><time>2026-04-11T11:42:51Z</time></trkpt><trkpt lat="43.080462593957115" lon="11.419399015113454"><ele>371.42857142857144</ele><time>2026-04-11T11:42:55Z</time></trkpt><trkpt lat="43.08039282771293" lon="11.419384414767826"><ele>374.1428571428571</ele><time>2026-04-11T11:42:59Z</time></trkpt><trkpt lat="43.08031582729715" lon="11.4193475646763"><ele>376.8571428571429</ele><time>2026-04-11T11:43:03Z</time></trkpt><trkpt lat="43.08026367546329" lon="11.419296738319487"><ele>379.57142857142856</ele><time>2026-04-11T11:43:07Z</time></trkpt><trkpt lat="43.080211179367886" lon="11.419240857369642"><ele>382.2857142857143</ele><time>2026-04-11T11:43:11Z</time></trkpt><trkpt lat="43.080175347065556" lon="11.419160625896264"><ele>385.0</ele><time>2026-04-11T11:43:15Z</time></trkpt><trkpt lat="43.08014436587466" lon="11.4190817472886"><ele>385.0</ele><time>2026-04-11T11:43:19Z</time></trkpt><trkpt lat="43.080118970453576" lon="11.41899737496652"><ele>385.0</ele><time>2026-04-11T11:43:23Z</time></trkpt><trkpt lat="43.080071197308605" lon="11.418913230957383"><ele>385.0</ele><time>2026-04-11T11:43:28Z</time></trkpt><trkpt lat="43.08002290782408" lon="11.41884772053336"><ele>385.0</ele><time>2026-04-11T11:43:32Z</time></trkpt><trkpt lat="43.07997094297235" lon="11.418790364055061"><ele>385.0</ele><time>2026-04-11T11:43:36Z</time></trkpt><trkpt lat="43.079915953340716" lon="11.418738303362806"><ele>385.0</ele><time>2026-04-11T11:43:40Z</time></trkpt><trkpt lat="43.07984881337853" lon="11.4186908768494"><ele>385.0</ele><time>2026-04-11T11:43:45Z</time></trkpt><trkpt lat="43.07978774134275" lon="11.418651737951503"><ele>386.7142857142857</ele><time>2026-04-11T11:43:49Z</time></trkpt><trkpt lat="43.07972250042471" lon="11.418635669477302"><ele>388.42857142857144</ele><time>2026-04-11T11:43:53Z</time></trkpt><trkpt lat="43.07965944392705" lon="11.4186075231356"><ele>390.1428571428571</ele><time>2026-04-11T11:43:57Z</time></trkpt><trkpt lat="43.07959189558701" lon="11.41857208732042"><ele>391.8571428571429</ele><time>2026-04-11T11:44:02Z</time></trkpt><trkpt lat="43.07951655919633" lon="11.418530122207672"><ele>393.57142857142856</ele><time>2026-04-11T11:44:07Z</time></trkpt><trkpt lat="43.079455063305595" lon="11.418504275422862"><ele>395.2857142857143</ele><time>2026-04-11T11:44:11Z</time></trkpt><trkpt lat="43.0793885509981" lon="11.418470909654424"><ele>397.0</ele><time>2026-04-11T11:44:15Z</time></trkpt><trkpt lat="43.079322551210176" lon="11.418434328918206"><ele>397.0</ele><time>2026-04-11T11:44:19Z</time></trkpt><trkpt lat="43.079261191899704" lon="11.418394255873144"><ele>397.0</ele><time>2026-04-11T11:44:23Z</time></trkpt><trkpt lat="43.07919400340733" lon="11.418348558260048"><ele>397.0</ele><time>2026-04-11T11:44:27Z</time></trkpt><trkpt lat="43.07914245442346" lon="11.41829859007472"><ele>397.0</ele><time>2026-04-11T11:44:30Z</time></trkpt><trkpt lat="43.0790870952297" lon="11.418241222532176"><ele>397.0</ele><time>2026-04-11T11:44:34Z</time></trkpt><trkpt lat="43.07903205833685" lon="11.418179811721211"><ele>397.0</ele><time>2026-04-11T11:44:38Z</time></trkpt><trkpt lat="43.07897778068362" lon="11.418116531374357"><ele>397.0</ele><time>2026-04-11T11:44:42Z</time></trkpt><trkpt lat="43.07890630000761" lon="11.418068607214067"><ele>396.7142857142857</ele><time>2026-04-11T11:44:46Z</time></trkpt><trkpt lat="43.07883018520007" lon="11.418034766331678"><ele>396.42857142857144</ele><time>2026-04-11T11:44:50Z</time></trkpt><trkpt lat="43.07875340451768" lon="11.41800303862098"><ele>396.1428571428571</ele><time>2026-04-11T11:44:54Z</time></trkpt><trkpt lat="43.078683790884334" lon="11.417989450191516"><ele>395.8571428571429</ele><time>2026-04-11T11:44:58Z</time></trkpt><trkpt lat="43.078615237529974" lon="11.417988797812374"><ele>395.5714285714286</ele><time>2026-04-11T11:45:02Z</time></trkpt><trkpt lat="43.07853810716999" lon="11.417971942994097"><ele>395.2857142857143</ele><time>2026-04-11T11:45:07Z</time></trkpt><trkpt lat="43.07846858270142" lon="11.417986219676584"><ele>395.0</ele><time>2026-04-11T11:45:12Z</time></trkpt><trkpt lat="43.078391966081654" lon="11.417983608469253"><ele>395.0</ele><time>2026-04-11T11:45:17Z</time></trkpt><trkpt lat="43.078319543432016" lon="11.417968644353563"><ele>395.0</ele><time>2026-04-11T11:45:22Z</time></trkpt><trkpt lat="43.07824118413611" lon="11.417970079533152"><ele>395.0</ele><time>2026-04-11T11:45:27Z</time></trkpt><trkpt lat="43.07817743382168" lon="11.41796533326414"><ele>395.0</ele><time>2026-04-11T11:45:32Z</time></trkpt><trkpt lat="43.07809711123034" lon="11.417949726907997"><ele>395.0</ele><time>2026-04-11T11:45:37Z</time></trkpt><trkpt lat="43.078024880204346" lon="11.417944608154919"><ele>395.0</ele><time>2026-04-11T11:45:42Z</time></trkpt><trkpt lat="43.07795474091602" lon="11.417942844759192"><ele>395.0</ele><time>2026-04-11T11:45:47Z</time></trkpt><trkpt lat="43.07788831304593" lon="11.417932961427434"><ele>397.0</ele><time>2026-04-11T11:45:52Z</time></trkpt><trkpt lat="43.07781276104689" lon="11.417934130387259"><ele>399.0</ele><time>2026-04-11T11:45:57Z</time></trkpt><trkpt lat="43.07774681201259" lon="11.41793893083631"><ele>401.0</ele><time>2026-04-11T11:46:01Z</time></trkpt><trkpt lat="43.07768139044716" lon="11.417945076607442"><ele>403.0</ele><time>2026-04-11T11:46:05Z</time></trkpt><trkpt lat="43.077613512981706" lon="11.417943082466014"><ele>405.0</ele><time>2026-04-11T11:46:09Z</time></trkpt><trkpt lat="43.07753352125822" lon="11.417937552559714"><ele>407.0</ele><time>2026-04-11T11:46:13Z</time></trkpt><trkpt lat="43.077456935250034" lon="11.417904271067368"><ele>409.0</ele><time>2026-04-11T11:46:17Z</time></trkpt><trkpt lat="43.077397551724076" lon="11.417869105229054"><ele>411.57142857142856</ele><time>2026-04-11T11:46:20Z</time></trkpt><trkpt lat="43.07733653038446" lon="11.417818012294807"><ele>414.14285714285717</ele><time>2026-04-11T11:46:23Z</time></trkpt><trkpt lat="43.07727985846336" lon="11.417777577718818"><ele>416.7142857142857</ele><time>2026-04-11T11:46:26Z</time></trkpt><trkpt lat="43.07722040404083" lon="11.417732839285332"><ele>419.2857142857143</ele><time>2026-04-11T11:46:29Z</time></trkpt><trkpt lat="43.07715800421386" lon="11.417684066941638"><ele>421.8571428571429</ele><time>2026-04-11T11:46:32Z</time></trkpt><trkpt lat="43.07708855271244" lon="11.417624417470496"><ele>424.42857142857144</ele><time>2026-04-11T11:46:35Z</time></trkpt><trkpt lat="43.07702013075808" lon="11.417564471720326"><ele>427.0</ele><time>2026-04-11T11:46:38Z</time></trkpt><trkpt lat="43.07695707499167" lon="11.417502508323206"><ele>427.0</ele><time>2026-04-11T11:46:41Z</time></trkpt><trkpt lat="43.07690280717901" lon="11.417437319899271"><ele>427.0</ele><time>2026-04-11T11:46:44Z</time></trkpt><trkpt lat="43.07687226832309" lon="11.417345264033647"><ele>427.0</ele><time>2026-04-11T11:46:47Z</time></trkpt><trkpt lat="43.076845141421046" lon="11.417259790352597"><ele>427.0</ele><time>2026-04-11T11:46:50Z</time></trkpt><trkpt lat="43.07681626352817" lon="11.41717067267819"><ele>427.0</ele><time>2026-04-11T11:46:53Z</time></trkpt><trkpt lat="43.076779907395306" lon="11.417097639663139"><ele>427.0</ele><time>2026-04-11T11:46:56Z</time></trkpt><trkpt lat="43.07673224493373" lon="11.417011240945069"><ele>427.0</ele><time>2026-04-11T11:47:00Z</time></trkpt><trkpt lat="43.076672845843405" lon="11.416952263439516"><ele>427.42857142857144</ele><time>2026-04-11T11:47:04Z</time></trkpt><trkpt lat="43.07660574100457" lon="11.416911878000647"><ele>427.8571428571429</ele><time>2026-04-11T11:47:08Z</time></trkpt><trkpt lat="43.07653734123861" lon="11.416883511044647"><ele>428.2857142857143</ele><time>2026-04-11T11:47:12Z</time></trkpt><trkpt lat="43.076474565272456" lon="11.41687218301171"><ele>428.7142857142857</ele><time>2026-04-11T11:47:16Z</time></trkpt><trkpt lat="43.07640541792626" lon="11.41685201977232"><ele>429.14285714285717</ele><time>2026-04-11T11:47:21Z</time></trkpt><trkpt lat="43.0763302038157" lon="11.416832073424155"><ele>429.57142857142856</ele><time>2026-04-11T11:47:25Z</time></trkpt><trkpt lat="43.07625887961818" lon="11.41680992072981"><ele>430.0</ele><time>2026-04-11T11:47:29Z</time></trkpt><trkpt lat="43.07618519444047" lon="11.416785966151398"><ele>430.00000000000006</ele><time>2026-04-11T11:47:33Z</time></trkpt><trkpt lat="43.07611009288163" lon="11.416751498934596"><ele>430.0</ele><time>2026-04-11T11:47:37Z</time></trkpt><trkpt lat="43.076032925372466" lon="11.416720794356102"><ele>430.0</ele><time>2026-04-11T11:47:41Z</time></trkpt><trkpt lat="43.07596657516152" lon="11.416676394274388"><ele>430.0</ele><time>2026-04-11T11:47:44Z</time></trkpt><trkpt lat="43.075903197267685" lon="11.416631746898604"><ele>430.00000000000006</ele><time>2026-04-11T11:47:48Z</time></trkpt><trkpt lat="43.075849888943004" lon="11.416575798493792"><ele>430.0</ele><time>2026-04-11T11:47:51Z</time></trkpt><trkpt lat="43.075781914308926" lon="11.41651449905885"><ele>430.57142857142856</ele><time>2026-04-11T11:47:55Z</time></trkpt><trkpt lat="43.0757081892509" lon="11.41645880283851"><ele>431.14285714285717</ele><time>2026-04-11T11:47:59Z</time></trkpt><trkpt lat="43.07564302332927" lon="11.416410724691483"><ele>431.7142857142857</ele><time>2026-04-11T11:48:02Z</time></trkpt><trkpt lat="43.075586029105914" lon="11.416368409182363"><ele>432.2857142857143</ele><time>2026-04-11T11:48:05Z</time></trkpt><trkpt lat="43.07552758078415" lon="11.416331818638676"><ele>432.8571428571429</ele><time>2026-04-11T11:48:08Z</time></trkpt><trkpt lat="43.07545481467874" lon="11.416273073792565"><ele>433.42857142857144</ele><time>2026-04-11T11:48:12Z</time></trkpt><trkpt lat="43.075393913374654" lon="11.416230687910634"><ele>434.0</ele><time>2026-04-11T11:48:15Z</time></trkpt><trkpt lat="43.07533319037157" lon="11.41617628603952"><ele>434.16666666666663</ele><time>2026-04-11T11:48:19Z</time></trkpt><trkpt lat="43.07527004222281" lon="11.416125343079472"><ele>434.3333333333333</ele><time>2026-04-11T11:48:23Z</time></trkpt><trkpt lat="43.07520435545726" lon="11.416073691081907"><ele>434.5</ele><time>2026-04-11T11:48:27Z</time></trkpt><trkpt lat="43.07513342058391" lon="11.416030611647411"><ele>434.66666666666663</ele><time>2026-04-11T11:48:31Z</time></trkpt><trkpt lat="43.07506248804743" lon="11.41598909531764"><ele>434.8333333333333</ele><time>2026-04-11T11:48:35Z</time></trkpt><trkpt lat="43.074992744152084" lon="11.415951241613438"><ele>435.0</ele><time>2026-04-11T11:48:39Z</time></trkpt><trkpt lat="43.07491622445976" lon="11.415917388123582"><ele>435.8333333333333</ele><time>2026-04-11T11:48:43Z</time></trkpt><trkpt lat="43.074842897122906" lon="11.415878098015316"><ele>436.66666666666663</ele><time>2026-04-11T11:48:47Z</time></trkpt><trkpt lat="43.07476948427792" lon="11.415850024516253"><ele>437.5</ele><time>2026-04-11T11:48:51Z</time></trkpt><trkpt lat="43.074696324304796" lon="11.415828491104412"><ele>438.3333333333333</ele><time>2026-04-11T11:48:55Z</time></trkpt><trkpt lat="43.07462573138875" lon="11.415820377234636"><ele>439.16666666666663</ele><time>2026-04-11T11:48:59Z</time></trkpt><trkpt lat="43.07454704417679" lon="11.415805718659234"><ele>440.0</ele><time>2026-04-11T11:49:03Z</time></trkpt><trkpt lat="43.0744713594107" lon="11.415773614163928"><ele>439.99999999999994</ele><time>2026-04-11T11:49:07Z</time></trkpt><trkpt lat="43.07440361051178" lon="11.41573415665236"><ele>440.0</ele><time>2026-04-11T11:49:11Z</time></trkpt><trkpt lat="43.074351230089555" lon="11.415668465003758"><ele>440.0</ele><time>2026-04-11T11:49:15Z</time></trkpt><trkpt lat="43.074325562486784" lon="11.415587343229365"><ele>440.0</ele><time>2026-04-11T11:49:19Z</time></trkpt><trkpt lat="43.07431529505536" lon="11.415497403579007"><ele>440.0</ele><time>2026-04-11T11:49:23Z</time></trkpt><trkpt lat="43.07430279881378" lon="11.415407832559106"><ele>439.99999999999994</ele><time>2026-04-11T11:49:27Z</time></trkpt><trkpt lat="43.074305538854375" lon="11.415318664545714"><ele>440.0</ele><time>2026-04-11T11:49:31Z</time></trkpt><trkpt lat="43.07431504144767" lon="11.415229906970875"><ele>441.4285714285714</ele><time>2026-04-11T11:49:35Z</time></trkpt><trkpt lat="43.07430715203534" lon="11.415143512826596"><ele>442.8571428571429</ele><time>2026-04-11T11:49:39Z</time></trkpt><trkpt lat="43.0742910095974" lon="11.415057479178348"><ele>444.28571428571433</ele><time>2026-04-11T11:49:43Z</time></trkpt><trkpt lat="43.07426701656453" lon="11.414957021372526"><ele>445.7142857142857</ele><time>2026-04-11T11:49:48Z</time></trkpt><trkpt lat="43.07424359102188" lon="11.414866179569117"><ele>447.14285714285717</ele><time>2026-04-11T11:49:52Z</time></trkpt><trkpt lat="43.07421842684701" lon="11.414770175900848"><ele>448.5714285714286</ele><time>2026-04-11T11:49:57Z</time></trkpt><trkpt lat="43.07418535178884" lon="11.414688819857238"><ele>450.00000000000006</ele><time>2026-04-11T11:50:01Z</time></trkpt><trkpt lat="43.07415530143286" lon="11.41459683044886"><ele>451.00000000000006</ele><time>2026-04-11T11:50:06Z</time></trkpt><trkpt lat="43.074114443814736" lon="11.414525284417866"><ele>452.0</ele><time>2026-04-11T11:50:10Z</time></trkpt><trkpt lat="43.0740527199357" lon="11.414471441648026"><ele>453.00000000000006</ele><time>2026-04-11T11:50:15Z</time></trkpt><trkpt lat="43.07397598988148" lon="11.414451270324287"><ele>454.00000000000006</ele><time>2026-04-11T11:50:20Z</time></trkpt><trkpt lat="43.073900446000856" lon="11.41444427696348"><ele>455.0</ele><time>2026-04-11T11:50:25Z</time></trkpt><trkpt lat="43.0738372569241" lon="11.414441522269216"><ele>456.00000000000006</ele><time>2026-04-11T11:50:29Z</time></trkpt><trkpt lat="43.07376074904062" lon="11.414428366365074"><ele>457.00000000000006</ele><time>2026-04-11T11:50:34Z</time></trkpt><trkpt lat="43.073696181040305" lon="11.41442538825119"><ele>458.57142857142867</ele><time>2026-04-11T11:50:39Z</time></trkpt><trkpt lat="43.073626541667394" lon="11.41441520300763"><ele>460.14285714285717</ele><time>2026-04-11T11:50:44Z</time></trkpt><trkpt lat="43.07355444467776" lon="11.414397812943303"><ele>461.7142857142858</ele><time>2026-04-11T11:50:49Z</time></trkpt><trkpt lat="43.073480456596975" lon="11.414389923078499"><ele>463.28571428571433</ele><time>2026-04-11T11:50:54Z</time></trkpt><trkpt lat="43.07340614713136" lon="11.414368911168841"><ele>464.8571428571429</ele><time>2026-04-11T11:50:59Z</time></trkpt><trkpt lat="43.07334503061484" lon="11.414342796119644"><ele>466.42857142857144</ele><time>2026-04-11T11:51:03Z</time></trkpt><trkpt lat="43.073282700267036" lon="11.414322994038516"><ele>468.0</ele><time>2026-04-11T11:51:07Z</time></trkpt><trkpt lat="43.07321760856927" lon="11.414302254022472"><ele>469.28571428571433</ele><time>2026-04-11T11:51:11Z</time></trkpt><trkpt lat="43.07315273668202" lon="11.414296718512057"><ele>470.5714285714286</ele><time>2026-04-11T11:51:15Z</time></trkpt><trkpt lat="43.073089346901114" lon="11.414294161090615"><ele>471.8571428571429</ele><time>2026-04-11T11:51:19Z</time></trkpt><trkpt lat="43.07301097801987" lon="11.414298220051199"><ele>473.1428571428571</ele><time>2026-04-11T11:51:24Z</time></trkpt><trkpt lat="43.072935536280745" lon="11.414305867458731"><ele>474.4285714285714</ele><time>2026-04-11T11:51:29Z</time></trkpt><trkpt lat="43.072855938459774" lon="11.41431526069581"><ele>475.71428571428567</ele><time>2026-04-11T11:51:34Z</time></trkpt><trkpt lat="43.072778549654444" lon="11.414326413198868"><ele>477.0</ele><time>2026-04-11T11:51:39Z</time></trkpt><trkpt lat="43.072701321124896" lon="11.414325639726625"><ele>477.0</ele><time>2026-04-11T11:51:44Z</time></trkpt><trkpt lat="43.07263263825193" lon="11.414312303847163"><ele>476.99999999999994</ele><time>2026-04-11T11:51:49Z</time></trkpt><trkpt lat="43.07256101959791" lon="11.414284667404218"><ele>477.0</ele><time>2026-04-11T11:51:54Z</time></trkpt><trkpt lat="43.072491418324766" lon="11.414260764907578"><ele>477.0</ele><time>2026-04-11T11:51:59Z</time></trkpt><trkpt lat="43.07242367585056" lon="11.414219682131375"><ele>476.99999999999994</ele><time>2026-04-11T11:52:04Z</time></trkpt><trkpt lat="43.07236614585079" lon="11.414183121216851"><ele>477.0</ele><time>2026-04-11T11:52:08Z</time></trkpt><trkpt lat="43.07230372464042" lon="11.41414729230052"><ele>477.0</ele><time>2026-04-11T11:52:12Z</time></trkpt><trkpt lat="43.0722437772407" lon="11.414108157840342"><ele>476.6666666666667</ele><time>2026-04-11T11:52:16Z</time></trkpt><trkpt lat="43.072170006532346" lon="11.414058904553134"><ele>476.33333333333337</ele><time>2026-04-11T11:52:20Z</time></trkpt><trkpt lat="43.07208601292916" lon="11.414014822586923"><ele>476.0</ele><time>2026-04-11T11:52:22Z</time></trkpt><trkpt lat="43.071993879615675" lon="11.413967518508322"><ele>475.6666666666667</ele><time>2026-04-11T11:52:25Z</time></trkpt><trkpt lat="43.07193027256568" lon="11.413941965736143"><ele>475.33333333333337</ele><time>2026-04-11T11:52:27Z</time></trkpt><trkpt lat="43.07186014443531" lon="11.413918214079622"><ele>475.0</ele><time>2026-04-11T11:52:29Z</time></trkpt><trkpt lat="43.071781820720695" lon="11.413871915679765"><ele>477.75</ele><time>2026-04-11T11:52:31Z</time></trkpt><trkpt lat="43.07169136511749" lon="11.413804340391755"><ele>480.5</ele><time>2026-04-11T11:52:33Z</time></trkpt><trkpt lat="43.07159603186636" lon="11.413717549108247"><ele>483.25</ele><time>2026-04-11T11:52:35Z</time></trkpt><trkpt lat="43.071492290247086" lon="11.413621116566025"><ele>486.0</ele><time>2026-04-11T11:52:37Z</time></trkpt><trkpt lat="43.071375921307705" lon="11.413587375707083"><ele>486.0</ele><time>2026-04-11T11:52:39Z</time></trkpt><trkpt lat="43.07127314107694" lon="11.41358578965609"><ele>486.0</ele><time>2026-04-11T11:52:41Z</time></trkpt><trkpt lat="43.07119759333598" lon="11.413616027729585"><ele>486.0</ele><time>2026-04-11T11:52:43Z</time></trkpt><trkpt lat="43.07113157889504" lon="11.4136329130654"><ele>486.0</ele><time>2026-04-11T11:52:45Z</time></trkpt><trkpt lat="43.07105543871403" lon="11.41363704356632"><ele>486.0</ele><time>2026-04-11T11:52:48Z</time></trkpt><trkpt lat="43.07097434662134" lon="11.413632436644184"><ele>486.0</ele><time>2026-04-11T11:52:52Z</time></trkpt><trkpt lat="43.07091705545505" lon="11.4135909411799"><ele>486.0</ele><time>2026-04-11T11:52:55Z</time></trkpt><trkpt lat="43.07084212863137" lon="11.413527813830225"><ele>486.0</ele><time>2026-04-11T11:52:59Z</time></trkpt><trkpt lat="43.070785319519764" lon="11.413458386310397"><ele>486.0</ele><time>2026-04-11T11:53:03Z</time></trkpt><trkpt lat="43.07073425317872" lon="11.413399735081638"><ele>486.0</ele><time>2026-04-11T11:53:06Z</time></trkpt><trkpt lat="43.07068143556628" lon="11.41333442343875"><ele>486.0</ele><time>2026-04-11T11:53:09Z</time></trkpt><trkpt lat="43.070631615553296" lon="11.413269957938939"><ele>486.0</ele><time>2026-04-11T11:53:12Z</time></trkpt><trkpt lat="43.070578125038786" lon="11.41320551136508"><ele>486.0</ele><time>2026-04-11T11:53:15Z</time></trkpt><trkpt lat="43.07052952231938" lon="11.413147005735967"><ele>487.2857142857143</ele><time>2026-04-11T11:53:18Z</time></trkpt><trkpt lat="43.07046740719426" lon="11.413075499103646"><ele>488.57142857142856</ele><time>2026-04-11T11:53:21Z</time></trkpt><trkpt lat="43.07041200447318" lon="11.413022792154528"><ele>489.85714285714283</ele><time>2026-04-11T11:53:24Z</time></trkpt><trkpt lat="43.07035305376558" lon="11.412984751057005"><ele>491.1428571428571</ele><time>2026-04-11T11:53:27Z</time></trkpt><trkpt lat="43.070278835881695" lon="11.412979104462435"><ele>492.42857142857144</ele><time>2026-04-11T11:53:31Z</time></trkpt><trkpt lat="43.070204236129236" lon="11.412999058385198"><ele>493.71428571428567</ele><time>2026-04-11T11:53:35Z</time></trkpt><trkpt lat="43.07014693273124" lon="11.41304594906176"><ele>494.99999999999994</ele><time>2026-04-11T11:53:39Z</time></trkpt><trkpt lat="43.070110148838666" lon="11.413117473792335"><ele>494.99999999999994</ele><time>2026-04-11T11:53:43Z</time></trkpt><trkpt lat="43.070086907372335" lon="11.413203329645507"><ele>495.0</ele><time>2026-04-11T11:53:48Z</time></trkpt><trkpt lat="43.07007733474882" lon="11.4132981425765"><ele>494.99999999999994</ele><time>2026-04-11T11:57:16Z</time></trkpt><trkpt lat="43.07004226392112" lon="11.413381719154977"><ele>494.99999999999994</ele><time>2026-04-11T11:57:20Z</time></trkpt><trkpt lat="43.07001300541343" lon="11.413468039515422"><ele>495.0</ele><time>2026-04-11T11:57:24Z</time></trkpt><trkpt lat="43.070001043291334" lon="11.413582958419665"><ele>494.99999999999994</ele><time>2026-04-11T11:57:28Z</time></trkpt><trkpt lat="43.069992737267334" lon="11.413685644309625"><ele>494.99999999999994</ele><time>2026-04-11T11:57:32Z</time></trkpt><trkpt lat="43.07000187249" lon="11.41377817134059"><ele>494.8571428571428</ele><time>2026-04-11T11:57:36Z</time></trkpt><trkpt lat="43.07000204811073" lon="11.413869918668999"><ele>494.71428571428567</ele><time>2026-04-11T11:57:40Z</time></trkpt><trkpt lat="43.0700122276879" lon="11.413966551848668"><ele>494.57142857142856</ele><time>2026-04-11T11:57:44Z</time></trkpt><trkpt lat="43.07001905214107" lon="11.414076607751479"><ele>494.4285714285714</ele><time>2026-04-11T11:57:48Z</time></trkpt><trkpt lat="43.070022596951986" lon="11.414171023686292"><ele>494.2857142857142</ele><time>2026-04-11T11:57:51Z</time></trkpt><trkpt lat="43.07002136968008" lon="11.4142642177337"><ele>494.14285714285717</ele><time>2026-04-11T11:57:54Z</time></trkpt><trkpt lat="43.07001131677606" lon="11.414374205776953"><ele>494.0</ele><time>2026-04-11T11:57:57Z</time></trkpt><trkpt lat="43.06999517568945" lon="11.414468726791585"><ele>494.0</ele><time>2026-04-11T11:58:00Z</time></trkpt><trkpt lat="43.069972950359556" lon="11.414554022711167"><ele>494.0</ele><time>2026-04-11T11:58:03Z</time></trkpt><trkpt lat="43.069951538839206" lon="11.414637128810128"><ele>494.0</ele><time>2026-04-11T11:58:06Z</time></trkpt><trkpt lat="43.06992304866813" lon="11.414716697554898"><ele>494.0</ele><time>2026-04-11T11:58:09Z</time></trkpt><trkpt lat="43.06988637073603" lon="11.414788826971817"><ele>494.0</ele><time>2026-04-11T11:58:12Z</time></trkpt><trkpt lat="43.06984925672619" lon="11.41486507025063"><ele>494.0</ele><time>2026-04-11T11:58:15Z</time></trkpt><trkpt lat="43.06979855832562" lon="11.414928748480746"><ele>494.0</ele><time>2026-04-11T11:58:18Z</time></trkpt><trkpt lat="43.06973991330328" lon="11.414984293742595"><ele>494.8333333333333</ele><time>2026-04-11T11:58:21Z</time></trkpt><trkpt lat="43.06966992285978" lon="11.415029553483178"><ele>495.66666666666663</ele><time>2026-04-11T11:58:24Z</time></trkpt><trkpt lat="43.06960361739096" lon="11.415076592786123"><ele>496.5</ele><time>2026-04-11T11:58:27Z</time></trkpt><trkpt lat="43.06951476610393" lon="11.415150883323745"><ele>497.33333333333337</ele><time>2026-04-11T11:58:30Z</time></trkpt><trkpt lat="43.06944761936648" lon="11.415191842338118"><ele>498.1666666666667</ele><time>2026-04-11T11:58:32Z</time></trkpt><trkpt lat="43.06939296052365" lon="11.41525363337368"><ele>499.0</ele><time>2026-04-11T11:58:34Z</time></trkpt><trkpt lat="43.06933787800495" lon="11.41531263985865"><ele>499.00000000000006</ele><time>2026-04-11T11:58:36Z</time></trkpt><trkpt lat="43.06927886144069" lon="11.415385641047994"><ele>499.0</ele><time>2026-04-11T11:58:39Z</time></trkpt><trkpt lat="43.06922088591198" lon="11.415422571500923"><ele>499.00000000000006</ele><time>2026-04-11T11:58:41Z</time></trkpt><trkpt lat="43.069162118886936" lon="11.415467218741856"><ele>499.00000000000006</ele><time>2026-04-11T11:58:43Z</time></trkpt><trkpt lat="43.06908854810305" lon="11.415504833685457"><ele>499.0</ele><time>2026-04-11T11:58:45Z</time></trkpt><trkpt lat="43.06901917407502" lon="11.415539942237759"><ele>499.00000000000006</ele><time>2026-04-11T11:58:47Z</time></trkpt><trkpt lat="43.0689372337182" lon="11.415550397592805"><ele>499.00000000000006</ele><time>2026-04-11T11:58:49Z</time></trkpt><trkpt lat="43.06886056489041" lon="11.415566596111722"><ele>496.79999999999995</ele><time>2026-04-11T11:58:51Z</time></trkpt><trkpt lat="43.06878235365087" lon="11.415591495525254"><ele>494.59999999999997</ele><time>2026-04-11T11:58:53Z</time></trkpt><trkpt lat="43.0686943367346" lon="11.41563119321819"><ele>492.4</ele><time>2026-04-11T11:58:55Z</time></trkpt><trkpt lat="43.06860010098944" lon="11.41569259576608"><ele>490.2</ele><time>2026-04-11T11:58:57Z</time></trkpt><trkpt lat="43.068505533534946" lon="11.415774530139874"><ele>488.0</ele><time>2026-04-11T11:58:59Z</time></trkpt><trkpt lat="43.06842205297339" lon="11.415871794465016"><ele>488.0</ele><time>2026-04-11T11:59:01Z</time></trkpt><trkpt lat="43.06834712061405" lon="11.415977333687755"><ele>487.99999999999994</ele><time>2026-04-11T11:59:03Z</time></trkpt><trkpt lat="43.06825693199926" lon="11.416081377594109"><ele>487.99999999999994</ele><time>2026-04-11T11:59:05Z</time></trkpt><trkpt lat="43.06816547186759" lon="11.416169442326078"><ele>488.0</ele><time>2026-04-11T11:59:07Z</time></trkpt><trkpt lat="43.06807760823117" lon="11.416248990246313"><ele>488.0</ele><time>2026-04-11T11:59:09Z</time></trkpt><trkpt lat="43.067991135872866" lon="11.416312875278443"><ele>489.2857142857142</ele><time>2026-04-11T11:59:11Z</time></trkpt><trkpt lat="43.06791123879726" lon="11.416372737921684"><ele>490.57142857142856</ele><time>2026-04-11T11:59:13Z</time></trkpt><trkpt lat="43.06784614766698" lon="11.41641964521456"><ele>491.85714285714283</ele><time>2026-04-11T11:59:15Z</time></trkpt><trkpt lat="43.067792731312835" lon="11.41647084256297"><ele>493.1428571428571</ele><time>2026-04-11T11:59:17Z</time></trkpt><trkpt lat="43.067755748039" lon="11.416543202435824"><ele>494.42857142857144</ele><time>2026-04-11T11:59:19Z</time></trkpt><trkpt lat="43.06772641836455" lon="11.416621327016717"><ele>495.7142857142857</ele><time>2026-04-11T11:59:21Z</time></trkpt><trkpt lat="43.06769842336263" lon="11.416714691361975"><ele>497.0</ele><time>2026-04-11T11:59:24Z</time></trkpt><trkpt lat="43.06767715031126" lon="11.41682043582218"><ele>497.0</ele><time>2026-04-11T11:59:27Z</time></trkpt><trkpt lat="43.06765952842537" lon="11.416905383573706"><ele>497.00000000000006</ele><time>2026-04-11T11:59:30Z</time></trkpt><trkpt lat="43.067621292921956" lon="11.417013820952093"><ele>497.00000000000006</ele><time>2026-04-11T11:59:33Z</time></trkpt><trkpt lat="43.06757050402067" lon="11.417145563121611"><ele>497.0</ele><time>2026-04-11T11:59:36Z</time></trkpt><trkpt lat="43.067511073673806" lon="11.417232242362509"><ele>497.0</ele><time>2026-04-11T11:59:39Z</time></trkpt><trkpt lat="43.06744089623178" lon="11.417348156684076"><ele>498.16666666666663</ele><time>2026-04-11T11:59:42Z</time></trkpt><trkpt lat="43.06737510168342" lon="11.417419681502082"><ele>499.3333333333333</ele><time>2026-04-11T11:59:44Z</time></trkpt><trkpt lat="43.06732053939714" lon="11.417476841081793"><ele>500.5</ele><time>2026-04-11T11:59:46Z</time></trkpt><trkpt lat="43.06725737113073" lon="11.41752402349733"><ele>501.66666666666663</ele><time>2026-04-11T11:59:49Z</time></trkpt><trkpt lat="43.06719183421227" lon="11.417566133321273"><ele>502.8333333333333</ele><time>2026-04-11T11:59:51Z</time></trkpt><trkpt lat="43.06711916464332" lon="11.417595685382517"><ele>504.0</ele><time>2026-04-11T11:59:54Z</time></trkpt><trkpt lat="43.06701898848812" lon="11.417634142305085"><ele>504.0</ele><time>2026-04-11T11:59:57Z</time></trkpt><trkpt lat="43.066961982486355" lon="11.41767084423802"><ele>504.0</ele><time>2026-04-11T11:59:59Z</time></trkpt><trkpt lat="43.06687742059049" lon="11.417762030975238"><ele>504.0</ele><time>2026-04-11T12:00:02Z</time></trkpt><trkpt lat="43.06682954698666" lon="11.417865955200595"><ele>504.0</ele><time>2026-04-11T12:00:05Z</time></trkpt><trkpt lat="43.066777135516084" lon="11.417969325635045"><ele>504.0</ele><time>2026-04-11T12:00:08Z</time></trkpt><trkpt lat="43.06673169675703" lon="11.418076017601122"><ele>504.0</ele><time>2026-04-11T12:00:10Z</time></trkpt><trkpt lat="43.06668833228064" lon="11.41815708415943"><ele>502.8333333333333</ele><time>2026-04-11T12:00:12Z</time></trkpt><trkpt lat="43.06665323508981" lon="11.418243781711352"><ele>501.66666666666663</ele><time>2026-04-11T12:00:13Z</time></trkpt><trkpt lat="43.0666208720772" lon="11.418355866097473"><ele>500.5</ele><time>2026-04-11T12:00:15Z</time></trkpt><trkpt lat="43.066593189159505" lon="11.418461818193729"><ele>499.3333333333333</ele><time>2026-04-11T12:00:17Z</time></trkpt><trkpt lat="43.066575816814584" lon="11.41856427083321"><ele>498.16666666666663</ele><time>2026-04-11T12:00:19Z</time></trkpt><trkpt lat="43.066565167742574" lon="11.418666356584646"><ele>497.0</ele><time>2026-04-11T12:00:21Z</time></trkpt><trkpt lat="43.066556528850946" lon="11.41877288168975"><ele>494.3333333333333</ele><time>2026-04-11T12:00:23Z</time></trkpt><trkpt lat="43.06654951073662" lon="11.418902895426282"><ele>491.66666666666663</ele><time>2026-04-11T12:00:25Z</time></trkpt><trkpt lat="43.06655255316697" lon="11.418996729314411"><ele>489.0</ele><time>2026-04-11T12:00:27Z</time></trkpt><trkpt lat="43.06655209568078" lon="11.419083378106151"><ele>486.33333333333337</ele><time>2026-04-11T12:00:29Z</time></trkpt><trkpt lat="43.06655520304558" lon="11.41921637044572"><ele>483.6666666666667</ele><time>2026-04-11T12:00:32Z</time></trkpt><trkpt lat="43.066557868792984" lon="11.419306187433566"><ele>481.0</ele><time>2026-04-11T12:00:34Z</time></trkpt><trkpt lat="43.06655940325715" lon="11.419404630890366"><ele>481.0</ele><time>2026-04-11T12:00:37Z</time></trkpt><trkpt lat="43.06656166372399" lon="11.419566387758831"><ele>481.0</ele><time>2026-04-11T12:00:39Z</time></trkpt><trkpt lat="43.06656390935531" lon="11.419693435278385"><ele>481.0</ele><time>2026-04-11T12:00:41Z</time></trkpt><trkpt lat="43.066538972069374" lon="11.41985148498587"><ele>481.0</ele><time>2026-04-11T12:00:44Z</time></trkpt><trkpt lat="43.06651217730423" lon="11.4199869394045"><ele>481.0</ele><time>2026-04-11T12:00:46Z</time></trkpt><trkpt lat="43.06647169774969" lon="11.420104645935401"><ele>481.6666666666667</ele><time>2026-04-11T12:00:48Z</time></trkpt><trkpt lat="43.06643273656178" lon="11.42020296976157"><ele>482.33333333333337</ele><time>2026-04-11T12:00:50Z</time></trkpt><trkpt lat="43.066379481782285" lon="11.420300913656446"><ele>483.0</ele><time>2026-04-11T12:00:52Z</time></trkpt><trkpt lat="43.06631890389066" lon="11.420377940666889"><ele>483.66666666666663</ele><time>2026-04-11T12:00:54Z</time></trkpt><trkpt lat="43.0662793558898" lon="11.420470061745084"><ele>484.3333333333333</ele><time>2026-04-11T12:00:56Z</time></trkpt><trkpt lat="43.06624540955539" lon="11.420577930009639"><ele>485.0</ele><time>2026-04-11T12:00:58Z</time></trkpt><trkpt lat="43.06620031588443" lon="11.420698056122033"><ele>486.4</ele><time>2026-04-11T12:01:00Z</time></trkpt><trkpt lat="43.066137694099446" lon="11.420805481392922"><ele>487.8</ele><time>2026-04-11T12:01:02Z</time></trkpt><trkpt lat="43.066075332054346" lon="11.420920085768117"><ele>489.20000000000005</ele><time>2026-04-11T12:01:04Z</time></trkpt><trkpt lat="43.06601195824969" lon="11.421028895158718"><ele>490.6</ele><time>2026-04-11T12:01:06Z</time></trkpt><trkpt lat="43.06593889750764" lon="11.421128142562239"><ele>492.0</ele><time>2026-04-11T12:01:08Z</time></trkpt><trkpt lat="43.06586473760118" lon="11.421254422650867"><ele>493.0</ele><time>2026-04-11T12:01:10Z</time></trkpt><trkpt lat="43.06580245347726" lon="11.421387888202181"><ele>494.00000000000006</ele><time>2026-04-11T12:01:12Z</time></trkpt><trkpt lat="43.065743234259614" lon="11.421530961411197"><ele>495.00000000000006</ele><time>2026-04-11T12:01:14Z</time></trkpt><trkpt lat="43.065698570389486" lon="11.42159259501879"><ele>496.0</ele><time>2026-04-11T12:01:15Z</time></trkpt><trkpt lat="43.06562638526184" lon="11.421722646169725"><ele>497.0</ele><time>2026-04-11T12:01:17Z</time></trkpt><trkpt lat="43.06553866072093" lon="11.421827204002497"><ele>496.40000000000003</ele><time>2026-04-11T12:01:19Z</time></trkpt><trkpt lat="43.0654476855768" lon="11.421905881684546"><ele>495.80000000000007</ele><time>2026-04-11T12:01:21Z</time></trkpt><trkpt lat="43.06534545835948" lon="11.42200241786292"><ele>495.2</ele><time>2026-04-11T12:01:23Z</time></trkpt><trkpt lat="43.065288329965455" lon="11.422061853005005"><ele>494.6</ele><time>2026-04-11T12:01:24Z</time></trkpt><trkpt lat="43.06518801305845" lon="11.42213630287705"><ele>494.0</ele><time>2026-04-11T12:01:26Z</time></trkpt><trkpt lat="43.06509547401195" lon="11.422183968033846"><ele>494.0</ele><time>2026-04-11T12:01:28Z</time></trkpt><trkpt lat="43.06499691713803" lon="11.422207540787818"><ele>494.0</ele><time>2026-04-11T12:01:30Z</time></trkpt><trkpt lat="43.064894634513834" lon="11.422203286326525"><ele>494.0</ele><time>2026-04-11T12:01:32Z</time></trkpt><trkpt lat="43.06478741654559" lon="11.422204030153305"><ele>494.0</ele><time>2026-04-11T12:01:34Z</time></trkpt><trkpt lat="43.06466847613212" lon="11.422198280120826"><ele>494.0</ele><time>2026-04-11T12:01:36Z</time></trkpt><trkpt lat="43.06455602475717" lon="11.422176711055181"><ele>490.25</ele><time>2026-04-11T12:01:38Z</time></trkpt><trkpt lat="43.06444355940539" lon="11.422139927061323"><ele>486.5</ele><time>2026-04-11T12:01:40Z</time></trkpt><trkpt lat="43.06433051538105" lon="11.422093739402717"><ele>482.75</ele><time>2026-04-11T12:01:42Z</time></trkpt><trkpt lat="43.06422217390736" lon="11.422042321800221"><ele>479.0</ele><time>2026-04-11T12:01:44Z</time></trkpt><trkpt lat="43.06411565306961" lon="11.421989634102834"><ele>477.25</ele><time>2026-04-11T12:01:46Z</time></trkpt><trkpt lat="43.06401356965127" lon="11.421937138835489"><ele>475.5</ele><time>2026-04-11T12:01:48Z</time></trkpt><trkpt lat="43.06389763887488" lon="11.421920178476059"><ele>473.75</ele><time>2026-04-11T12:01:50Z</time></trkpt><trkpt lat="43.063776610225034" lon="11.421956707068055"><ele>472.0</ele><time>2026-04-11T12:01:52Z</time></trkpt><trkpt lat="43.063664268496765" lon="11.421973474375305"><ele>472.00000000000006</ele><time>2026-04-11T12:01:54Z</time></trkpt><trkpt lat="43.06356527586586" lon="11.42200452493473"><ele>472.0</ele><time>2026-04-11T12:01:56Z</time></trkpt><trkpt lat="43.0634834005547" lon="11.422074315573099"><ele>472.0</ele><time>2026-04-11T12:01:58Z</time></trkpt><trkpt lat="43.06346047713412" lon="11.422155757042853"><ele>472.0</ele><time>2026-04-11T12:01:59Z</time></trkpt><trkpt lat="43.06344894333623" lon="11.422243547453805"><ele>472.00000000000006</ele><time>2026-04-11T12:02:00Z</time></trkpt><trkpt lat="43.063476287260116" lon="11.422332899191073"><ele>472.0</ele><time>2026-04-11T12:02:01Z</time></trkpt><trkpt lat="43.0634960886852" lon="11.422416655626687"><ele>472.0</ele><time>2026-04-11T12:02:02Z</time></trkpt><trkpt lat="43.06354523427336" lon="11.422583172505265"><ele>472.00000000000006</ele><time>2026-04-11T12:02:04Z</time></trkpt><trkpt lat="43.063568372688096" lon="11.422670551495887"><ele>472.00000000000006</ele><time>2026-04-11T12:02:05Z</time></trkpt><trkpt lat="43.06354252002498" lon="11.42281938633766"><ele>472.0</ele><time>2026-04-11T12:02:07Z</time></trkpt><trkpt lat="43.06349386853435" lon="11.42296347321428"><ele>472.0</ele><time>2026-04-11T12:02:09Z</time></trkpt><trkpt lat="43.06342771701797" lon="11.423095789506757"><ele>471.40000000000003</ele><time>2026-04-11T12:02:11Z</time></trkpt><trkpt lat="43.06337095411879" lon="11.423238004129676"><ele>470.80000000000007</ele><time>2026-04-11T12:02:13Z</time></trkpt><trkpt lat="43.06333000106743" lon="11.423372340486306"><ele>470.2</ele><time>2026-04-11T12:02:15Z</time></trkpt><trkpt lat="43.06330325662731" lon="11.423507917953497"><ele>469.6</ele><time>2026-04-11T12:02:17Z</time></trkpt><trkpt lat="43.06333515083827" lon="11.42364991783022"><ele>469.0</ele><time>2026-04-11T12:02:19Z</time></trkpt><trkpt lat="43.06336531066275" lon="11.423771711361988"><ele>468.2</ele><time>2026-04-11T12:02:21Z</time></trkpt><trkpt lat="43.0634000448633" lon="11.423886544765281"><ele>467.4</ele><time>2026-04-11T12:02:23Z</time></trkpt><trkpt lat="43.06341202769843" lon="11.424006322624498"><ele>466.6</ele><time>2026-04-11T12:02:25Z</time></trkpt><trkpt lat="43.06337786881132" lon="11.424130915846971"><ele>465.8</ele><time>2026-04-11T12:02:27Z</time></trkpt><trkpt lat="43.063329614085845" lon="11.42426223603422"><ele>465.0</ele><time>2026-04-11T12:02:29Z</time></trkpt><trkpt lat="43.06327767608691" lon="11.424419947878485"><ele>464.57142857142856</ele><time>2026-04-11T12:02:31Z</time></trkpt><trkpt lat="43.063258852557766" lon="11.424514119837704"><ele>464.14285714285717</ele><time>2026-04-11T12:02:32Z</time></trkpt><trkpt lat="43.063261624886664" lon="11.424618156920616"><ele>463.7142857142857</ele><time>2026-04-11T12:02:33Z</time></trkpt><trkpt lat="43.063249156018635" lon="11.424715803502828"><ele>463.2857142857143</ele><time>2026-04-11T12:02:34Z</time></trkpt><trkpt lat="43.063239532704586" lon="11.424812268555689"><ele>462.8571428571429</ele><time>2026-04-11T12:02:35Z</time></trkpt><trkpt lat="43.06321045435153" lon="11.424897426555848"><ele>462.42857142857144</ele><time>2026-04-11T12:02:36Z</time></trkpt><trkpt lat="43.063192792457016" lon="11.424983244018788"><ele>462.0</ele><time>2026-04-11T12:02:37Z</time></trkpt><trkpt lat="43.06316927466096" lon="11.42506618814062"><ele>462.0</ele><time>2026-04-11T12:02:38Z</time></trkpt><trkpt lat="43.0631331550595" lon="11.425146369054184"><ele>462.0</ele><time>2026-04-11T12:02:39Z</time></trkpt><trkpt lat="43.06308980696488" lon="11.425221065977173"><ele>462.0</ele><time>2026-04-11T12:02:40Z</time></trkpt><trkpt lat="43.06304557152621" lon="11.425296317706815"><ele>462.0</ele><time>2026-04-11T12:02:41Z</time></trkpt><trkpt lat="43.06299981555005" lon="11.42536428844821"><ele>462.0</ele><time>2026-04-11T12:02:42Z</time></trkpt><trkpt lat="43.06295654919321" lon="11.425428794655579"><ele>462.0</ele><time>2026-04-11T12:02:43Z</time></trkpt><trkpt lat="43.062915484316626" lon="11.425500964450086"><ele>462.0</ele><time>2026-04-11T12:02:44Z</time></trkpt><trkpt lat="43.062882873083915" lon="11.425575435799928"><ele>462.6666666666667</ele><time>2026-04-11T12:02:45Z</time></trkpt><trkpt lat="43.06283719944548" lon="11.425712009987945"><ele>463.33333333333337</ele><time>2026-04-11T12:02:47Z</time></trkpt><trkpt lat="43.06284562445749" lon="11.425843156553782"><ele>464.0</ele><time>2026-04-11T12:02:49Z</time></trkpt><trkpt lat="43.06283522871342" lon="11.425948151098595"><ele>464.6666666666667</ele><time>2026-04-11T12:02:51Z</time></trkpt><trkpt lat="43.06283088313034" lon="11.426040908313567"><ele>465.33333333333337</ele><time>2026-04-11T12:02:53Z</time></trkpt><trkpt lat="43.062831359936666" lon="11.426161203920623"><ele>466.0</ele><time>2026-04-11T12:02:56Z</time></trkpt><trkpt lat="43.062839387227626" lon="11.426287185129238"><ele>466.57142857142856</ele><time>2026-04-11T12:02:59Z</time></trkpt><trkpt lat="43.062844642638346" lon="11.426378411146212"><ele>467.1428571428571</ele><time>2026-04-11T12:03:01Z</time></trkpt><trkpt lat="43.06285303470267" lon="11.426489014927391"><ele>467.71428571428567</ele><time>2026-04-11T12:03:03Z</time></trkpt><trkpt lat="43.06286521769647" lon="11.426595750614556"><ele>468.2857142857143</ele><time>2026-04-11T12:03:05Z</time></trkpt><trkpt lat="43.062883182786436" lon="11.426695501172306"><ele>468.8571428571428</ele><time>2026-04-11T12:03:07Z</time></trkpt><trkpt lat="43.06289951583242" lon="11.426787130880184"><ele>469.4285714285714</ele><time>2026-04-11T12:03:09Z</time></trkpt><trkpt lat="43.06291631533935" lon="11.426874493510368"><ele>470.0</ele><time>2026-04-11T12:03:11Z</time></trkpt><trkpt lat="43.06291404007862" lon="11.42696372555498"><ele>469.99999999999994</ele><time>2026-04-11T12:03:13Z</time></trkpt><trkpt lat="43.06289978650632" lon="11.427059541270127"><ele>470.0</ele><time>2026-04-11T12:03:16Z</time></trkpt><trkpt lat="43.06286970377131" lon="11.427167279015228"><ele>470.0</ele><time>2026-04-11T12:03:19Z</time></trkpt><trkpt lat="43.062820118009334" lon="11.427251988339064"><ele>470.0</ele><time>2026-04-11T12:03:22Z</time></trkpt><trkpt lat="43.062767327281065" lon="11.427317917263826"><ele>469.99999999999994</ele><time>2026-04-11T12:03:25Z</time></trkpt><trkpt lat="43.0627080923496" lon="11.427377859171656"><ele>470.0</ele><time>2026-04-11T12:03:28Z</time></trkpt><trkpt lat="43.06263809707252" lon="11.4274247788877"><ele>470.0</ele><time>2026-04-11T12:03:31Z</time></trkpt><trkpt lat="43.06256340363066" lon="11.427464249094124"><ele>470.0</ele><time>2026-04-11T12:03:34Z</time></trkpt><trkpt lat="43.06248298607755" lon="11.427497083988785"><ele>470.0</ele><time>2026-04-11T12:03:37Z</time></trkpt><trkpt lat="43.062389498414646" lon="11.427538552906062"><ele>470.0</ele><time>2026-04-11T12:03:40Z</time></trkpt><trkpt lat="43.062296061247935" lon="11.427586536161876"><ele>470.0</ele><time>2026-04-11T12:03:43Z</time></trkpt><trkpt lat="43.062193523767185" lon="11.427619813577115"><ele>469.99999999999994</ele><time>2026-04-11T12:03:45Z</time></trkpt><trkpt lat="43.06212149313674" lon="11.427634397268367"><ele>470.0</ele><time>2026-04-11T12:03:47Z</time></trkpt><trkpt lat="43.06203838161603" lon="11.427642667011268"><ele>470.0</ele><time>2026-04-11T12:03:49Z</time></trkpt><trkpt lat="43.061960151078075" lon="11.427633717612316"><ele>470.0</ele><time>2026-04-11T12:03:51Z</time></trkpt><trkpt lat="43.06188157011434" lon="11.42761479851368"><ele>469.99999999999994</ele><time>2026-04-11T12:03:53Z</time></trkpt><trkpt lat="43.0618072341741" lon="11.427586188903366"><ele>470.0</ele><time>2026-04-11T12:03:55Z</time></trkpt><trkpt lat="43.06172695843937" lon="11.427546041446274"><ele>470.0</ele><time>2026-04-11T12:03:57Z</time></trkpt><trkpt lat="43.06164511146246" lon="11.427485800727535"><ele>470.0</ele><time>2026-04-11T12:03:59Z</time></trkpt><trkpt lat="43.06155699630458" lon="11.427429581024624"><ele>470.0</ele><time>2026-04-11T12:04:01Z</time></trkpt><trkpt lat="43.06145619282263" lon="11.427405478614267"><ele>470.0</ele><time>2026-04-11T12:04:03Z</time></trkpt><trkpt lat="43.061361493666666" lon="11.427352318725122"><ele>470.0</ele><time>2026-04-11T12:04:05Z</time></trkpt><trkpt lat="43.06127397577224" lon="11.427363194698751"><ele>470.16666666666663</ele><time>2026-04-11T12:04:07Z</time></trkpt><trkpt lat="43.061190856270564" lon="11.427385550428856"><ele>470.3333333333333</ele><time>2026-04-11T12:04:09Z</time></trkpt><trkpt lat="43.06111160930044" lon="11.427410933548249"><ele>470.5</ele><time>2026-04-11T12:04:11Z</time></trkpt><trkpt lat="43.061041619909844" lon="11.427439413079096"><ele>470.66666666666663</ele><time>2026-04-11T12:04:13Z</time></trkpt><trkpt lat="43.06097970547877" lon="11.42746332344418"><ele>470.8333333333333</ele><time>2026-04-11T12:04:15Z</time></trkpt><trkpt lat="43.060890495773236" lon="11.427481265763145"><ele>471.0</ele><time>2026-04-11T12:04:18Z</time></trkpt><trkpt lat="43.06081129612323" lon="11.427458279237937"><ele>472.3333333333333</ele><time>2026-04-11T12:04:21Z</time></trkpt><trkpt lat="43.06073618362675" lon="11.427403612089874"><ele>473.66666666666663</ele><time>2026-04-11T12:04:24Z</time></trkpt><trkpt lat="43.06064151939503" lon="11.427397392387292"><ele>475.0</ele><time>2026-04-11T12:04:27Z</time></trkpt><trkpt lat="43.060569839085346" lon="11.4273543565002"><ele>476.3333333333333</ele><time>2026-04-11T12:04:31Z</time></trkpt><trkpt lat="43.06049549959091" lon="11.42732177817143"><ele>477.66666666666663</ele><time>2026-04-11T12:04:34Z</time></trkpt><trkpt lat="43.060424656687424" lon="11.427306327729328"><ele>479.0</ele><time>2026-04-11T12:04:37Z</time></trkpt><trkpt lat="43.06036752794915" lon="11.427343011861979"><ele>478.99999999999994</ele><time>2026-04-11T12:04:40Z</time></trkpt><trkpt lat="43.06034295891504" lon="11.42744325670504"><ele>479.0</ele><time>2026-04-11T12:04:44Z</time></trkpt><trkpt lat="43.0603311991264" lon="11.427539877011371"><ele>479.0</ele><time>2026-04-11T12:04:47Z</time></trkpt><trkpt lat="43.060301531363805" lon="11.427642330987771"><ele>479.0</ele><time>2026-04-11T12:04:50Z</time></trkpt><trkpt lat="43.06024180875249" lon="11.427722841685235"><ele>478.99999999999994</ele><time>2026-04-11T12:04:53Z</time></trkpt><trkpt lat="43.060175972204235" lon="11.427779550086377"><ele>479.0</ele><time>2026-04-11T12:04:56Z</time></trkpt><trkpt lat="43.06010478515191" lon="11.4278244523168"><ele>479.0</ele><time>2026-04-11T12:04:59Z</time></trkpt><trkpt lat="43.059987708736706" lon="11.427886407367644"><ele>479.0</ele><time>2026-04-11T12:05:02Z</time></trkpt><trkpt lat="43.05991481628618" lon="11.427895208619415"><ele>479.0</ele><time>2026-04-11T12:05:05Z</time></trkpt><trkpt lat="43.059832350040494" lon="11.427867429787499"><ele>479.0</ele><time>2026-04-11T12:05:08Z</time></trkpt><trkpt lat="43.059767933161865" lon="11.42780266582682"><ele>479.0</ele><time>2026-04-11T12:05:11Z</time></trkpt><trkpt lat="43.05970416524864" lon="11.427722719202121"><ele>479.8333333333333</ele><time>2026-04-11T12:05:14Z</time></trkpt><trkpt lat="43.059636784496135" lon="11.427643108754685"><ele>480.66666666666663</ele><time>2026-04-11T12:05:17Z</time></trkpt><trkpt lat="43.059580629011705" lon="11.427571392847689"><ele>481.5</ele><time>2026-04-11T12:05:20Z</time></trkpt><trkpt lat="43.059524998369916" lon="11.427504377776234"><ele>482.33333333333337</ele><time>2026-04-11T12:05:23Z</time></trkpt><trkpt lat="43.059472586951124" lon="11.427445654790105"><ele>483.1666666666667</ele><time>2026-04-11T12:05:26Z</time></trkpt><trkpt lat="43.059401225620576" lon="11.427379702682485"><ele>484.0</ele><time>2026-04-11T12:05:28Z</time></trkpt><trkpt lat="43.0593157425574" lon="11.427345759726697"><ele>484.00000000000006</ele><time>2026-04-11T12:05:31Z</time></trkpt><trkpt lat="43.0592137215926" lon="11.427315964710072"><ele>484.0</ele><time>2026-04-11T12:05:35Z</time></trkpt><trkpt lat="43.05912803127509" lon="11.427353490772914"><ele>484.0</ele><time>2026-04-11T12:05:38Z</time></trkpt><trkpt lat="43.05907746521936" lon="11.427409817427197"><ele>484.0</ele><time>2026-04-11T12:05:40Z</time></trkpt><trkpt lat="43.059050096496414" lon="11.4275118709487"><ele>484.00000000000006</ele><time>2026-04-11T12:05:43Z</time></trkpt><trkpt lat="43.05906303994894" lon="11.427600047373565"><ele>484.0</ele><time>2026-04-11T12:05:45Z</time></trkpt><trkpt lat="43.05909352570326" lon="11.427717213910046"><ele>484.00000000000006</ele><time>2026-04-11T12:05:47Z</time></trkpt><trkpt lat="43.05912525939288" lon="11.427808730178223"><ele>484.0</ele><time>2026-04-11T12:05:49Z</time></trkpt><trkpt lat="43.05914812055838" lon="11.427905564035568"><ele>484.0</ele><time>2026-04-11T12:05:52Z</time></trkpt><trkpt lat="43.05916112554943" lon="11.427991187416323"><ele>484.0</ele><time>2026-04-11T12:05:54Z</time></trkpt><trkpt lat="43.05917716491581" lon="11.428087494099419"><ele>484.00000000000006</ele><time>2026-04-11T12:05:56Z</time></trkpt><trkpt lat="43.05918170328198" lon="11.428196942521376"><ele>484.0</ele><time>2026-04-11T12:05:58Z</time></trkpt><trkpt lat="43.059123126075384" lon="11.428323224274823"><ele>485.1666666666667</ele><time>2026-04-11T12:06:01Z</time></trkpt><trkpt lat="43.05904359519733" lon="11.42838682462582"><ele>486.33333333333337</ele><time>2026-04-11T12:06:04Z</time></trkpt><trkpt lat="43.058977910789466" lon="11.428427952680455"><ele>487.5</ele><time>2026-04-11T12:06:08Z</time></trkpt><trkpt lat="43.05890237276618" lon="11.42850542573146"><ele>488.66666666666663</ele><time>2026-04-11T12:06:11Z</time></trkpt><trkpt lat="43.0588331119332" lon="11.428603319058553"><ele>489.8333333333333</ele><time>2026-04-11T12:06:14Z</time></trkpt><trkpt lat="43.058774574903076" lon="11.428669118125939"><ele>491.0</ele><time>2026-04-11T12:06:17Z</time></trkpt><trkpt lat="43.058731639817545" lon="11.428751074730858"><ele>490.16666666666663</ele><time>2026-04-11T12:06:20Z</time></trkpt><trkpt lat="43.05869037678295" lon="11.428847361421031"><ele>489.3333333333333</ele><time>2026-04-11T12:06:23Z</time></trkpt><trkpt lat="43.05864432015442" lon="11.428943388606893"><ele>488.5</ele><time>2026-04-11T12:06:26Z</time></trkpt><trkpt lat="43.05860294135161" lon="11.42904867496112"><ele>487.66666666666663</ele><time>2026-04-11T12:06:29Z</time></trkpt><trkpt lat="43.05855364402292" lon="11.429159010700012"><ele>486.8333333333333</ele><time>2026-04-11T12:06:32Z</time></trkpt><trkpt lat="43.05851254230015" lon="11.429271147002538"><ele>486.0</ele><time>2026-04-11T12:06:35Z</time></trkpt><trkpt lat="43.05847452324101" lon="11.429383849267236"><ele>486.0</ele><time>2026-04-11T12:06:38Z</time></trkpt><trkpt lat="43.05844411531351" lon="11.429495608838247"><ele>486.0</ele><time>2026-04-11T12:06:41Z</time></trkpt><trkpt lat="43.05841878487378" lon="11.429600293873063"><ele>486.0</ele><time>2026-04-11T12:06:44Z</time></trkpt><trkpt lat="43.05838932651724" lon="11.429723248559023"><ele>486.0</ele><time>2026-04-11T12:06:47Z</time></trkpt><trkpt lat="43.0583596576097" lon="11.429869565005024"><ele>486.0</ele><time>2026-04-11T12:06:50Z</time></trkpt><trkpt lat="43.05834267984297" lon="11.429978780934594"><ele>486.0</ele><time>2026-04-11T12:06:53Z</time></trkpt><trkpt lat="43.05833049050363" lon="11.43008002120946"><ele>486.0</ele><time>2026-04-11T12:06:55Z</time></trkpt><trkpt lat="43.058322608038104" lon="11.43021745638009"><ele>486.0</ele><time>2026-04-11T12:06:58Z</time></trkpt><trkpt lat="43.058323401863134" lon="11.430330569660896"><ele>486.0</ele><time>2026-04-11T12:07:00Z</time></trkpt><trkpt lat="43.05832716486727" lon="11.430457458771908"><ele>486.0</ele><time>2026-04-11T12:07:03Z</time></trkpt><trkpt lat="43.058332822455284" lon="11.430602861071335"><ele>485.8</ele><time>2026-04-11T12:07:05Z</time></trkpt><trkpt lat="43.05832006335911" lon="11.430699250285919"><ele>485.6</ele><time>2026-04-11T12:07:07Z</time></trkpt><trkpt lat="43.058276581229414" lon="11.430820971311745"><ele>485.4</ele><time>2026-04-11T12:07:09Z</time></trkpt><trkpt lat="43.05823254528272" lon="11.430907133903466"><ele>485.2</ele><time>2026-04-11T12:07:10Z</time></trkpt><trkpt lat="43.05813972515144" lon="11.430974104058155"><ele>485.0</ele><time>2026-04-11T12:07:12Z</time></trkpt><trkpt lat="43.0580498345012" lon="11.431036803680598"><ele>484.0</ele><time>2026-04-11T12:07:14Z</time></trkpt><trkpt lat="43.057959115269654" lon="11.431096919040275"><ele>483.0</ele><time>2026-04-11T12:07:16Z</time></trkpt><trkpt lat="43.05787190394666" lon="11.431163938321799"><ele>482.0</ele><time>2026-04-11T12:07:18Z</time></trkpt><trkpt lat="43.057780972471576" lon="11.431197423524148"><ele>481.0</ele><time>2026-04-11T12:07:20Z</time></trkpt><trkpt lat="43.05769944379036" lon="11.431239956128252"><ele>480.0</ele><time>2026-04-11T12:07:22Z</time></trkpt><trkpt lat="43.05761859779914" lon="11.431292521324723"><ele>481.3333333333333</ele><time>2026-04-11T12:07:24Z</time></trkpt><trkpt lat="43.05754520634985" lon="11.43135809970259"><ele>482.66666666666663</ele><time>2026-04-11T12:07:26Z</time></trkpt><trkpt lat="43.05749149839897" lon="11.431428862667904"><ele>484.0</ele><time>2026-04-11T12:07:28Z</time></trkpt><trkpt lat="43.05742884833181" lon="11.431514690565992"><ele>485.3333333333333</ele><time>2026-04-11T12:07:31Z</time></trkpt><trkpt lat="43.0573672749913" lon="11.431586608153198"><ele>486.66666666666663</ele><time>2026-04-11T12:07:34Z</time></trkpt><trkpt lat="43.0573035691898" lon="11.431663237241246"><ele>488.0</ele><time>2026-04-11T12:07:37Z</time></trkpt><trkpt lat="43.05727146637469" lon="11.43177614382562"><ele>488.1428571428571</ele><time>2026-04-11T12:07:40Z</time></trkpt><trkpt lat="43.0572151591427" lon="11.431858234584784"><ele>488.2857142857143</ele><time>2026-04-11T12:07:43Z</time></trkpt><trkpt lat="43.05717179841092" lon="11.431934325752488"><ele>488.42857142857144</ele><time>2026-04-11T12:07:46Z</time></trkpt><trkpt lat="43.05712019827466" lon="11.432011478968429"><ele>488.57142857142856</ele><time>2026-04-11T12:07:49Z</time></trkpt><trkpt lat="43.05708031205604" lon="11.432081457635228"><ele>488.7142857142858</ele><time>2026-04-11T12:07:52Z</time></trkpt><trkpt lat="43.057039318883156" lon="11.43214694107388"><ele>488.8571428571429</ele><time>2026-04-11T12:07:55Z</time></trkpt><trkpt lat="43.05699316942574" lon="11.432218947815693"><ele>489.0</ele><time>2026-04-11T12:10:13Z</time></trkpt><trkpt lat="43.05692885531325" lon="11.432260976832431"><ele>489.1666666666667</ele><time>2026-04-11T12:10:16Z</time></trkpt><trkpt lat="43.056863296952876" lon="11.43230176157274"><ele>489.33333333333337</ele><time>2026-04-11T12:10:18Z</time></trkpt><trkpt lat="43.05678858357531" lon="11.4323263456382"><ele>489.5</ele><time>2026-04-11T12:10:20Z</time></trkpt><trkpt lat="43.05672165915994" lon="11.432313481397918"><ele>489.6666666666667</ele><time>2026-04-11T12:10:22Z</time></trkpt><trkpt lat="43.05664442887122" lon="11.432260249958007"><ele>489.83333333333337</ele><time>2026-04-11T12:10:24Z</time></trkpt><trkpt lat="43.05656607411868" lon="11.432183367250705"><ele>490.0</ele><time>2026-04-11T12:10:26Z</time></trkpt><trkpt lat="43.056478452419306" lon="11.4321207029704"><ele>488.6</ele><time>2026-04-11T12:10:28Z</time></trkpt><trkpt lat="43.05639534434261" lon="11.432063856437807"><ele>487.2</ele><time>2026-04-11T12:10:30Z</time></trkpt><trkpt lat="43.05630667917192" lon="11.43201161910573"><ele>485.79999999999995</ele><time>2026-04-11T12:10:32Z</time></trkpt><trkpt lat="43.0562063915415" lon="11.431961481572714"><ele>484.4</ele><time>2026-04-11T12:10:34Z</time></trkpt><trkpt lat="43.0561220794421" lon="11.431881366712977"><ele>483.0</ele><time>2026-04-11T12:10:36Z</time></trkpt><trkpt lat="43.05602289408698" lon="11.431837982139019"><ele>483.0</ele><time>2026-04-11T12:10:38Z</time></trkpt><trkpt lat="43.05590913809193" lon="11.431800739888704"><ele>482.99999999999994</ele><time>2026-04-11T12:10:40Z</time></trkpt><trkpt lat="43.05583491751879" lon="11.431809939663818"><ele>482.99999999999994</ele><time>2026-04-11T12:10:41Z</time></trkpt><trkpt lat="43.055737833578" lon="11.431779783163588"><ele>483.0</ele><time>2026-04-11T12:10:43Z</time></trkpt><trkpt lat="43.05561968246119" lon="11.431760161831999"><ele>483.0</ele><time>2026-04-11T12:10:45Z</time></trkpt><trkpt lat="43.0555551983627" lon="11.431754205701496"><ele>482.0</ele><time>2026-04-11T12:10:46Z</time></trkpt><trkpt lat="43.05545341825311" lon="11.431693371579849"><ele>480.99999999999994</ele><time>2026-04-11T12:10:48Z</time></trkpt><trkpt lat="43.05536963085232" lon="11.431616231523266"><ele>479.99999999999994</ele><time>2026-04-11T12:10:50Z</time></trkpt><trkpt lat="43.05529481375319" lon="11.431530531833879"><ele>479.0</ele><time>2026-04-11T12:10:52Z</time></trkpt><trkpt lat="43.05522323212649" lon="11.431442960796616"><ele>478.0</ele><time>2026-04-11T12:10:54Z</time></trkpt><trkpt lat="43.05514485780841" lon="11.431337760075136"><ele>476.33333333333337</ele><time>2026-04-11T12:10:56Z</time></trkpt><trkpt lat="43.055088244487116" lon="11.431272446997225"><ele>474.6666666666667</ele><time>2026-04-11T12:10:57Z</time></trkpt><trkpt lat="43.05503846606592" lon="11.431213641055775"><ele>473.0</ele><time>2026-04-11T12:10:58Z</time></trkpt><trkpt lat="43.05499015666711" lon="11.431154102984632"><ele>471.33333333333337</ele><time>2026-04-11T12:10:59Z</time></trkpt><trkpt lat="43.054934781759215" lon="11.43110868174104"><ele>469.6666666666667</ele><time>2026-04-11T12:11:00Z</time></trkpt><trkpt lat="43.05485471467943" lon="11.43099415573411"><ele>468.0</ele><time>2026-04-11T12:11:02Z</time></trkpt><trkpt lat="43.05475443264347" lon="11.43090696766741"><ele>467.7142857142857</ele><time>2026-04-11T12:11:04Z</time></trkpt><trkpt lat="43.05469207022443" lon="11.430880091532511"><ele>467.42857142857144</ele><time>2026-04-11T12:11:05Z</time></trkpt><trkpt lat="43.05462888870386" lon="11.430865329736594"><ele>467.14285714285717</ele><time>2026-04-11T12:11:06Z</time></trkpt><trkpt lat="43.05456291140132" lon="11.430862247849236"><ele>466.8571428571429</ele><time>2026-04-11T12:11:07Z</time></trkpt><trkpt lat="43.054497462381384" lon="11.430850738975721"><ele>466.57142857142856</ele><time>2026-04-11T12:11:08Z</time></trkpt><trkpt lat="43.054428881609184" lon="11.430838679400665"><ele>466.28571428571433</ele><time>2026-04-11T12:11:09Z</time></trkpt><trkpt lat="43.05435974729062" lon="11.430827575096489"><ele>466.0</ele><time>2026-04-11T12:11:10Z</time></trkpt><trkpt lat="43.05428927424031" lon="11.43081727799787"><ele>466.0</ele><time>2026-04-11T12:11:11Z</time></trkpt><trkpt lat="43.05421802785317" lon="11.430827014838759"><ele>466.0</ele><time>2026-04-11T12:11:12Z</time></trkpt><trkpt lat="43.05414957136964" lon="11.43080620967192"><ele>466.0</ele><time>2026-04-11T12:11:13Z</time></trkpt><trkpt lat="43.054074672992186" lon="11.43079791515399"><ele>466.0</ele><time>2026-04-11T12:11:14Z</time></trkpt><trkpt lat="43.05400172962539" lon="11.430792770624038"><ele>466.0</ele><time>2026-04-11T12:11:15Z</time></trkpt><trkpt lat="43.05393345525927" lon="11.430790821900034"><ele>466.0</ele><time>2026-04-11T12:11:16Z</time></trkpt><trkpt lat="43.05386904247544" lon="11.430791156478243"><ele>466.0</ele><time>2026-04-11T12:11:17Z</time></trkpt><trkpt lat="43.05374854008368" lon="11.43078594946489"><ele>464.6666666666667</ele><time>2026-04-11T12:11:19Z</time></trkpt><trkpt lat="43.05362664747492" lon="11.430776474140297"><ele>463.33333333333337</ele><time>2026-04-11T12:11:21Z</time></trkpt><trkpt lat="43.05350641240764" lon="11.430734144507774"><ele>462.0</ele><time>2026-04-11T12:11:23Z</time></trkpt><trkpt lat="43.053443746981735" lon="11.430705637717525"><ele>460.66666666666663</ele><time>2026-04-11T12:11:24Z</time></trkpt><trkpt lat="43.0533841167529" lon="11.430675889590503"><ele>459.3333333333333</ele><time>2026-04-11T12:11:25Z</time></trkpt><trkpt lat="43.05332571691598" lon="11.430643327708104"><ele>458.0</ele><time>2026-04-11T12:11:26Z</time></trkpt><trkpt lat="43.053212108324935" lon="11.430582313814625"><ele>455.59999999999997</ele><time>2026-04-11T12:11:28Z</time></trkpt><trkpt lat="43.053109259694985" lon="11.43051007670456"><ele>453.19999999999993</ele><time>2026-04-11T12:11:30Z</time></trkpt><trkpt lat="43.053009028080915" lon="11.430449587065754"><ele>450.8</ele><time>2026-04-11T12:11:32Z</time></trkpt><trkpt lat="43.05291299887031" lon="11.430380511325975"><ele>448.4</ele><time>2026-04-11T12:11:34Z</time></trkpt><trkpt lat="43.052857759578814" lon="11.430336373485016"><ele>446.0</ele><time>2026-04-11T12:11:35Z</time></trkpt><trkpt lat="43.05279554826158" lon="11.43029187551885"><ele>445.99999999999994</ele><time>2026-04-11T12:11:36Z</time></trkpt><trkpt lat="43.05272629382015" lon="11.4302695900853"><ele>446.0</ele><time>2026-04-11T12:11:37Z</time></trkpt><trkpt lat="43.052664420279044" lon="11.430228939158738"><ele>446.0</ele><time>2026-04-11T12:11:38Z</time></trkpt><trkpt lat="43.05259622826435" lon="11.43018622452039"><ele>446.0</ele><time>2026-04-11T12:11:39Z</time></trkpt><trkpt lat="43.05251909188228" lon="11.430143403392709"><ele>445.99999999999994</ele><time>2026-04-11T12:11:40Z</time></trkpt><trkpt lat="43.05243555568239" lon="11.43010000759891"><ele>446.0</ele><time>2026-04-11T12:11:41Z</time></trkpt><trkpt lat="43.052348590811484" lon="11.430053535795285"><ele>443.20000000000005</ele><time>2026-04-11T12:11:42Z</time></trkpt><trkpt lat="43.05225741252948" lon="11.430004446416186"><ele>440.40000000000003</ele><time>2026-04-11T12:11:43Z</time></trkpt><trkpt lat="43.05216637570791" lon="11.429950431336374"><ele>437.6</ele><time>2026-04-11T12:11:44Z</time></trkpt><trkpt lat="43.05207280788073" lon="11.429913710279514"><ele>434.8</ele><time>2026-04-11T12:11:45Z</time></trkpt><trkpt lat="43.051982036508036" lon="11.429877041481975"><ele>432.0</ele><time>2026-04-11T12:11:46Z</time></trkpt><trkpt lat="43.05189582999697" lon="11.4298486866016"><ele>432.0</ele><time>2026-04-11T12:11:47Z</time></trkpt><trkpt lat="43.051810605831385" lon="11.42982247516408"><ele>432.0</ele><time>2026-04-11T12:11:48Z</time></trkpt><trkpt lat="43.0517347561587" lon="11.42976555953198"><ele>432.0</ele><time>2026-04-11T12:11:49Z</time></trkpt><trkpt lat="43.05165099149275" lon="11.42972858978418"><ele>432.0</ele><time>2026-04-11T12:11:50Z</time></trkpt><trkpt lat="43.051565509839456" lon="11.429690863942492"><ele>432.0</ele><time>2026-04-11T12:11:51Z</time></trkpt><trkpt lat="43.0514879840646" lon="11.429654054239382"><ele>432.0</ele><time>2026-04-11T12:11:52Z</time></trkpt><trkpt lat="43.0514125787954" lon="11.42960698632505"><ele>432.6666666666667</ele><time>2026-04-11T12:11:53Z</time></trkpt><trkpt lat="43.051340478254716" lon="11.429552009190315"><ele>433.33333333333337</ele><time>2026-04-11T12:11:54Z</time></trkpt><trkpt lat="43.051277140554824" lon="11.429491201047252"><ele>434.0</ele><time>2026-04-11T12:11:55Z</time></trkpt><trkpt lat="43.051209270670334" lon="11.42942243133816"><ele>434.6666666666667</ele><time>2026-04-11T12:11:56Z</time></trkpt><trkpt lat="43.05114474528366" lon="11.429356248292562"><ele>435.33333333333337</ele><time>2026-04-11T12:11:57Z</time></trkpt><trkpt lat="43.05107741624502" lon="11.429287939976687"><ele>436.0</ele><time>2026-04-11T12:11:58Z</time></trkpt><trkpt lat="43.0510098556714" lon="11.429224807595102"><ele>436.00000000000006</ele><time>2026-04-11T12:11:59Z</time></trkpt><trkpt lat="43.050935102651124" lon="11.42918781498414"><ele>436.0</ele><time>2026-04-11T12:12:00Z</time></trkpt><trkpt lat="43.05087971013562" lon="11.429123485943776"><ele>436.0</ele><time>2026-04-11T12:12:01Z</time></trkpt><trkpt lat="43.050851131178185" lon="11.429025307202883"><ele>436.0</ele><time>2026-04-11T12:12:02Z</time></trkpt><trkpt lat="43.050755939052245" lon="11.428927299070768"><ele>436.00000000000006</ele><time>2026-04-11T12:12:04Z</time></trkpt><trkpt lat="43.05068253748456" lon="11.428859235613581"><ele>436.0</ele><time>2026-04-11T12:12:06Z</time></trkpt><trkpt lat="43.05061452612321" lon="11.428793124546708"><ele>436.20000000000005</ele><time>2026-04-11T12:12:08Z</time></trkpt><trkpt lat="43.05053257509267" lon="11.42871270222224"><ele>436.40000000000003</ele><time>2026-04-11T12:12:10Z</time></trkpt><trkpt lat="43.05044153116612" lon="11.428623356625472"><ele>436.6</ele><time>2026-04-11T12:12:12Z</time></trkpt><trkpt lat="43.050354746946745" lon="11.428538805971748"><ele>436.8</ele><time>2026-04-11T12:12:14Z</time></trkpt><trkpt lat="43.050268188593456" lon="11.428457197636323"><ele>437.0</ele><time>2026-04-11T12:12:16Z</time></trkpt><trkpt lat="43.050170498848" lon="11.428372983674732"><ele>436.99999999999994</ele><time>2026-04-11T12:12:18Z</time></trkpt><trkpt lat="43.05005979487936" lon="11.428307287637205"><ele>437.0</ele><time>2026-04-11T12:12:20Z</time></trkpt><trkpt lat="43.049997006376366" lon="11.428289460105825"><ele>437.0</ele><time>2026-04-11T12:12:21Z</time></trkpt><trkpt lat="43.04992293338093" lon="11.42827244758677"><ele>437.0</ele><time>2026-04-11T12:12:22Z</time></trkpt><trkpt lat="43.04985007562971" lon="11.428262669622788"><ele>436.99999999999994</ele><time>2026-04-11T12:12:23Z</time></trkpt><trkpt lat="43.049774660312394" lon="11.428240980249566"><ele>437.0</ele><time>2026-04-11T12:12:24Z</time></trkpt><trkpt lat="43.04969624290956" lon="11.42820678396571"><ele>437.8333333333333</ele><time>2026-04-11T12:12:25Z</time></trkpt><trkpt lat="43.0496335232404" lon="11.428134305804521"><ele>438.66666666666663</ele><time>2026-04-11T12:12:26Z</time></trkpt><trkpt lat="43.049595228213185" lon="11.428034281903221"><ele>439.5</ele><time>2026-04-11T12:12:27Z</time></trkpt><trkpt lat="43.04954386363608" lon="11.427947624346828"><ele>440.33333333333337</ele><time>2026-04-11T12:12:28Z</time></trkpt><trkpt lat="43.04948618085786" lon="11.427874914787733"><ele>441.1666666666667</ele><time>2026-04-11T12:12:29Z</time></trkpt><trkpt lat="43.04941881332932" lon="11.427809600705617"><ele>442.0</ele><time>2026-04-11T12:12:30Z</time></trkpt><trkpt lat="43.049350870252056" lon="11.427751397170692"><ele>439.6666666666667</ele><time>2026-04-11T12:12:31Z</time></trkpt><trkpt lat="43.04928081742493" lon="11.427696029353946"><ele>437.33333333333337</ele><time>2026-04-11T12:12:32Z</time></trkpt><trkpt lat="43.04920918310761" lon="11.42764043094157"><ele>435.0</ele><time>2026-04-11T12:12:33Z</time></trkpt><trkpt lat="43.0491329109646" lon="11.427581232910718"><ele>432.66666666666663</ele><time>2026-04-11T12:12:34Z</time></trkpt><trkpt lat="43.0490557652426" lon="11.427525758232266"><ele>430.3333333333333</ele><time>2026-04-11T12:12:35Z</time></trkpt><trkpt lat="43.04897756639578" lon="11.427493035974505"><ele>428.0</ele><time>2026-04-11T12:12:36Z</time></trkpt><trkpt lat="43.04890626100272" lon="11.427433921856046"><ele>427.8333333333333</ele><time>2026-04-11T12:12:37Z</time></trkpt><trkpt lat="43.0488346787636" lon="11.427375791654283"><ele>427.66666666666663</ele><time>2026-04-11T12:12:38Z</time></trkpt><trkpt lat="43.04877183590923" lon="11.427306673177174"><ele>427.5</ele><time>2026-04-11T12:12:39Z</time></trkpt><trkpt lat="43.04874286285079" lon="11.427195034085944"><ele>427.33333333333337</ele><time>2026-04-11T12:12:40Z</time></trkpt><trkpt lat="43.0487124447014" lon="11.42709704243304"><ele>427.1666666666667</ele><time>2026-04-11T12:12:41Z</time></trkpt><trkpt lat="43.04867082593225" lon="11.427003378719807"><ele>427.0</ele><time>2026-04-11T12:12:42Z</time></trkpt><trkpt lat="43.04861365562155" lon="11.426915396031777"><ele>425.20000000000005</ele><time>2026-04-11T12:12:43Z</time></trkpt><trkpt lat="43.04854786145312" lon="11.426839674975488"><ele>423.40000000000003</ele><time>2026-04-11T12:12:44Z</time></trkpt><trkpt lat="43.048471158081234" lon="11.42676486682571"><ele>421.6</ele><time>2026-04-11T12:12:45Z</time></trkpt><trkpt lat="43.04840211560019" lon="11.426679147555156"><ele>419.79999999999995</ele><time>2026-04-11T12:12:46Z</time></trkpt><trkpt lat="43.04834295412461" lon="11.42657021942427"><ele>418.0</ele><time>2026-04-11T12:12:47Z</time></trkpt><trkpt lat="43.048293029093266" lon="11.426447506324692"><ele>417.1666666666667</ele><time>2026-04-11T12:12:48Z</time></trkpt><trkpt lat="43.048248842568306" lon="11.426329894121936"><ele>416.33333333333337</ele><time>2026-04-11T12:12:49Z</time></trkpt><trkpt lat="43.04821091714973" lon="11.426226132143261"><ele>415.5</ele><time>2026-04-11T12:12:50Z</time></trkpt><trkpt lat="43.048161363716034" lon="11.426142903120528"><ele>414.66666666666663</ele><time>2026-04-11T12:12:51Z</time></trkpt><trkpt lat="43.048122734669064" lon="11.426054284227114"><ele>413.8333333333333</ele><time>2026-04-11T12:12:52Z</time></trkpt><trkpt lat="43.048099108388605" lon="11.425959450222509"><ele>413.0</ele><time>2026-04-11T12:12:53Z</time></trkpt><trkpt lat="43.04806133160512" lon="11.425879730452198"><ele>411.99999999999994</ele><time>2026-04-11T12:12:54Z</time></trkpt><trkpt lat="43.04802185093591" lon="11.425797688373539"><ele>411.0</ele><time>2026-04-11T12:12:55Z</time></trkpt><trkpt lat="43.047982532357445" lon="11.425715545912917"><ele>410.0</ele><time>2026-04-11T12:12:56Z</time></trkpt><trkpt lat="43.04792290912191" lon="11.425645514511661"><ele>409.0</ele><time>2026-04-11T12:12:57Z</time></trkpt><trkpt lat="43.047873397703825" lon="11.4255640912708"><ele>407.99999999999994</ele><time>2026-04-11T12:12:58Z</time></trkpt><trkpt lat="43.047837228204585" lon="11.425465553046667"><ele>407.0</ele><time>2026-04-11T12:12:59Z</time></trkpt><trkpt lat="43.04778435874918" lon="11.425377599228305"><ele>405.3333333333333</ele><time>2026-04-11T12:13:00Z</time></trkpt><trkpt lat="43.047729092180184" lon="11.425287486161881"><ele>403.66666666666663</ele><time>2026-04-11T12:13:01Z</time></trkpt><trkpt lat="43.04767526848118" lon="11.425202906051645"><ele>402.0</ele><time>2026-04-11T12:13:02Z</time></trkpt><trkpt lat="43.04762201522701" lon="11.425119222358399"><ele>400.33333333333337</ele><time>2026-04-11T12:13:03Z</time></trkpt><trkpt lat="43.04756811264323" lon="11.42503662133998"><ele>398.6666666666667</ele><time>2026-04-11T12:13:04Z</time></trkpt><trkpt lat="43.04751548197357" lon="11.424957375129411"><ele>397.0</ele><time>2026-04-11T12:13:05Z</time></trkpt><trkpt lat="43.047452987137945" lon="11.42489781909936"><ele>396.57142857142856</ele><time>2026-04-11T12:13:06Z</time></trkpt><trkpt lat="43.04740403684585" lon="11.424827025926446"><ele>396.1428571428571</ele><time>2026-04-11T12:13:07Z</time></trkpt><trkpt lat="43.04735363044755" lon="11.424762412240222"><ele>395.7142857142857</ele><time>2026-04-11T12:13:08Z</time></trkpt><trkpt lat="43.04729655043835" lon="11.42470837704791"><ele>395.2857142857143</ele><time>2026-04-11T12:13:09Z</time></trkpt><trkpt lat="43.0472341305398" lon="11.42466157611774"><ele>394.8571428571429</ele><time>2026-04-11T12:13:10Z</time></trkpt><trkpt lat="43.04716384921228" lon="11.424626322129324"><ele>394.42857142857144</ele><time>2026-04-11T12:13:11Z</time></trkpt><trkpt lat="43.04710227460119" lon="11.42455849791431"><ele>394.0</ele><time>2026-04-11T12:13:12Z</time></trkpt><trkpt lat="43.047031063759825" lon="11.424488693054064"><ele>393.0</ele><time>2026-04-11T12:13:13Z</time></trkpt><trkpt lat="43.046970276863014" lon="11.424399813554926"><ele>392.0</ele><time>2026-04-11T12:13:14Z</time></trkpt><trkpt lat="43.04692340851676" lon="11.42428689329991"><ele>391.0</ele><time>2026-04-11T12:13:15Z</time></trkpt><trkpt lat="43.04688833714348" lon="11.424164470529856"><ele>390.0</ele><time>2026-04-11T12:13:16Z</time></trkpt><trkpt lat="43.04684640611195" lon="11.424041230279874"><ele>389.0</ele><time>2026-04-11T12:13:17Z</time></trkpt><trkpt lat="43.046794549317646" lon="11.423927358602917"><ele>388.8333333333333</ele><time>2026-04-11T12:13:18Z</time></trkpt><trkpt lat="43.046750342172125" lon="11.423812197181984"><ele>388.66666666666663</ele><time>2026-04-11T12:13:19Z</time></trkpt><trkpt lat="43.046726840259" lon="11.423692478833782"><ele>388.5</ele><time>2026-04-11T12:13:20Z</time></trkpt><trkpt lat="43.04667907050359" lon="11.423582879318635"><ele>388.33333333333337</ele><time>2026-04-11T12:13:21Z</time></trkpt><trkpt lat="43.046638484413364" lon="11.423487347195922"><ele>388.1666666666667</ele><time>2026-04-11T12:13:22Z</time></trkpt><trkpt lat="43.04660689851705" lon="11.423395037222448"><ele>388.0</ele><time>2026-04-11T12:13:23Z</time></trkpt><trkpt lat="43.046573042010664" lon="11.423308881985545"><ele>387.83333333333337</ele><time>2026-04-11T12:13:24Z</time></trkpt><trkpt lat="43.04654003854938" lon="11.423233815047483"><ele>387.6666666666667</ele><time>2026-04-11T12:13:25Z</time></trkpt><trkpt lat="43.046483038815644" lon="11.423093202598958"><ele>387.5</ele><time>2026-04-11T12:13:27Z</time></trkpt><trkpt lat="43.046432605146904" lon="11.422967955857326"><ele>387.33333333333337</ele><time>2026-04-11T12:13:29Z</time></trkpt><trkpt lat="43.046394765925555" lon="11.422870980183998"><ele>387.1666666666667</ele><time>2026-04-11T12:13:31Z</time></trkpt><trkpt lat="43.04637537761754" lon="11.42277827669721"><ele>387.0</ele><time>2026-04-11T12:13:34Z</time></trkpt><trkpt lat="43.04631154630201" lon="11.422762339778998"><ele>389.1666666666667</ele><time>2026-04-11T12:13:36Z</time></trkpt><trkpt lat="43.0462395359239" lon="11.422752903062056"><ele>391.33333333333337</ele><time>2026-04-11T12:13:39Z</time></trkpt><trkpt lat="43.04617244594644" lon="11.422750723830134"><ele>393.5</ele><time>2026-04-11T12:13:41Z</time></trkpt><trkpt lat="43.04610471687018" lon="11.422744668638085"><ele>395.6666666666667</ele><time>2026-04-11T12:13:43Z</time></trkpt><trkpt lat="43.045992973524505" lon="11.422734801073027"><ele>397.83333333333337</ele><time>2026-04-11T12:13:47Z</time></trkpt><trkpt lat="43.045917470833366" lon="11.422719478868801"><ele>400.0</ele><time>2026-04-11T12:13:50Z</time></trkpt><trkpt lat="43.04585074322936" lon="11.422704677969202"><ele>397.33333333333337</ele><time>2026-04-11T12:13:52Z</time></trkpt><trkpt lat="43.04578806842589" lon="11.422686124621173"><ele>394.6666666666667</ele><time>2026-04-11T12:13:54Z</time></trkpt><trkpt lat="43.04569935020948" lon="11.422645912724583"><ele>392.0</ele><time>2026-04-11T12:13:57Z</time></trkpt><trkpt lat="43.04564184823537" lon="11.422604143426616"><ele>389.33333333333337</ele><time>2026-04-11T12:13:59Z</time></trkpt><trkpt lat="43.045581241443614" lon="11.422558695403824"><ele>386.6666666666667</ele><time>2026-04-11T12:14:01Z</time></trkpt><trkpt lat="43.04552328364321" lon="11.422500750717763"><ele>384.0</ele><time>2026-04-11T12:14:03Z</time></trkpt><trkpt lat="43.04545289884713" lon="11.422425528048903"><ele>384.0</ele><time>2026-04-11T12:14:06Z</time></trkpt><trkpt lat="43.045412944294384" lon="11.422351580765776"><ele>384.0</ele><time>2026-04-11T12:14:08Z</time></trkpt><trkpt lat="43.04537452768523" lon="11.42228238000572"><ele>384.0</ele><time>2026-04-11T12:14:10Z</time></trkpt><trkpt lat="43.04534379536988" lon="11.422202965049696"><ele>384.0</ele><time>2026-04-11T12:14:11Z</time></trkpt><trkpt lat="43.04528026604071" lon="11.422152019215988"><ele>384.0</ele><time>2026-04-11T12:14:12Z</time></trkpt><trkpt lat="43.04526692161729" lon="11.421990118050777"><ele>384.0</ele><time>2026-04-11T12:14:14Z</time></trkpt><trkpt lat="43.045221695640656" lon="11.421849620764004"><ele>385.75</ele><time>2026-04-11T12:14:16Z</time></trkpt><trkpt lat="43.045178129737145" lon="11.421698817984124"><ele>387.5</ele><time>2026-04-11T12:14:18Z</time></trkpt><trkpt lat="43.04513505803528" lon="11.42154698810198"><ele>389.25</ele><time>2026-04-11T12:14:20Z</time></trkpt><trkpt lat="43.04508627427973" lon="11.421395577155467"><ele>391.0</ele><time>2026-04-11T12:14:22Z</time></trkpt><trkpt lat="43.04503220267097" lon="11.421243969021079"><ele>391.00000000000006</ele><time>2026-04-11T12:14:24Z</time></trkpt><trkpt lat="43.044991041876195" lon="11.421174686365728"><ele>391.0</ele><time>2026-04-11T12:14:25Z</time></trkpt><trkpt lat="43.04498069554673" lon="11.421087513572866"><ele>391.0</ele><time>2026-04-11T12:14:26Z</time></trkpt><trkpt lat="43.044949166248294" lon="11.420951806702915"><ele>391.0</ele><time>2026-04-11T12:14:28Z</time></trkpt><trkpt lat="43.0449306416624" lon="11.420831544991309"><ele>391.00000000000006</ele><time>2026-04-11T12:14:30Z</time></trkpt><trkpt lat="43.04494466303106" lon="11.420723905516255"><ele>391.0</ele><time>2026-04-11T12:14:32Z</time></trkpt><trkpt lat="43.04502374162857" lon="11.420699909790713"><ele>391.00000000000006</ele><time>2026-04-11T12:14:34Z</time></trkpt><trkpt lat="43.045114253179285" lon="11.420652536632664"><ele>391.0</ele><time>2026-04-11T12:14:37Z</time></trkpt><trkpt lat="43.04517393864985" lon="11.420608270847282"><ele>391.0</ele><time>2026-04-11T12:14:39Z</time></trkpt><trkpt lat="43.04518804593645" lon="11.420497898395125"><ele>391.0</ele><time>2026-04-11T12:14:42Z</time></trkpt><trkpt lat="43.04517208991898" lon="11.420413528126911"><ele>391.00000000000006</ele><time>2026-04-11T12:14:46Z</time></trkpt><trkpt lat="43.04511601558846" lon="11.420303551716515"><ele>391.0</ele><time>2026-04-11T12:14:48Z</time></trkpt><trkpt lat="43.0450623052703" lon="11.420145424591059"><ele>390.33333333333337</ele><time>2026-04-11T12:14:50Z</time></trkpt><trkpt lat="43.04505858919634" lon="11.420041098724289"><ele>389.6666666666667</ele><time>2026-04-11T12:14:51Z</time></trkpt><trkpt lat="43.04502196782472" lon="11.419957732837434"><ele>389.0</ele><time>2026-04-11T12:14:52Z</time></trkpt><trkpt lat="43.04498572949406" lon="11.419870436941318"><ele>388.33333333333337</ele><time>2026-04-11T12:14:53Z</time></trkpt><trkpt lat="43.04494809195416" lon="11.419779770404581"><ele>387.6666666666667</ele><time>2026-04-11T12:14:54Z</time></trkpt><trkpt lat="43.044910743650824" lon="11.41968980067212"><ele>387.0</ele><time>2026-04-11T12:14:55Z</time></trkpt><trkpt lat="43.04487186517893" lon="11.419595328937016"><ele>383.8</ele><time>2026-04-11T12:14:56Z</time></trkpt><trkpt lat="43.04482757550478" lon="11.419487520571753"><ele>380.6</ele><time>2026-04-11T12:14:57Z</time></trkpt><trkpt lat="43.04478140813347" lon="11.419375260238976"><ele>377.40000000000003</ele><time>2026-04-11T12:14:58Z</time></trkpt><trkpt lat="43.044734346384175" lon="11.419260849101045"><ele>374.20000000000005</ele><time>2026-04-11T12:14:59Z</time></trkpt><trkpt lat="43.044685649294586" lon="11.419142462328596"><ele>371.0</ele><time>2026-04-11T12:15:00Z</time></trkpt><trkpt lat="43.044635544266804" lon="11.41902129037329"><ele>371.0</ele><time>2026-04-11T12:15:01Z</time></trkpt><trkpt lat="43.0445839126582" lon="11.418898147305185"><ele>371.0</ele><time>2026-04-11T12:15:02Z</time></trkpt><trkpt lat="43.04453301448256" lon="11.418777881596107"><ele>371.0</ele><time>2026-04-11T12:15:03Z</time></trkpt><trkpt lat="43.04448153909864" lon="11.41865752001554"><ele>371.0</ele><time>2026-04-11T12:15:04Z</time></trkpt><trkpt lat="43.044432769242626" lon="11.418543484667737"><ele>371.0</ele><time>2026-04-11T12:15:05Z</time></trkpt><trkpt lat="43.044388246123475" lon="11.41843937905726"><ele>371.33333333333337</ele><time>2026-04-11T12:15:06Z</time></trkpt><trkpt lat="43.04434685843115" lon="11.418342604930523"><ele>371.6666666666667</ele><time>2026-04-11T12:15:07Z</time></trkpt><trkpt lat="43.04430831657811" lon="11.4182524850268"><ele>372.0</ele><time>2026-04-11T12:15:08Z</time></trkpt><trkpt lat="43.04427181931369" lon="11.41816714580912"><ele>372.3333333333333</ele><time>2026-04-11T12:15:09Z</time></trkpt><trkpt lat="43.04423753779196" lon="11.418086987561795"><ele>372.66666666666663</ele><time>2026-04-11T12:15:10Z</time></trkpt><trkpt lat="43.044204717305995" lon="11.418010770294313"><ele>373.0</ele><time>2026-04-11T12:15:11Z</time></trkpt><trkpt lat="43.044145475985644" lon="11.417873448039844"><ele>371.59999999999997</ele><time>2026-04-11T12:15:13Z</time></trkpt><trkpt lat="43.04409172796415" lon="11.417746344788789"><ele>370.2</ele><time>2026-04-11T12:15:15Z</time></trkpt><trkpt lat="43.04403367771186" lon="11.417610019053132"><ele>368.8</ele><time>2026-04-11T12:15:17Z</time></trkpt><trkpt lat="43.04399805934742" lon="11.417538836970765"><ele>367.4</ele><time>2026-04-11T12:15:18Z</time></trkpt><trkpt lat="43.043914643466586" lon="11.417406602880963"><ele>366.0</ele><time>2026-04-11T12:15:20Z</time></trkpt><trkpt lat="43.04386908870314" lon="11.417343713710347"><ele>366.0</ele><time>2026-04-11T12:15:21Z</time></trkpt><trkpt lat="43.04382452921837" lon="11.417282616294639"><ele>366.0</ele><time>2026-04-11T12:15:22Z</time></trkpt><trkpt lat="43.0437685897214" lon="11.417233655690627"><ele>366.0</ele><time>2026-04-11T12:15:23Z</time></trkpt><trkpt lat="43.04373858345546" lon="11.417150607274934"><ele>366.0</ele><time>2026-04-11T12:15:24Z</time></trkpt><trkpt lat="43.04369488710906" lon="11.417078155275261"><ele>366.0</ele><time>2026-04-11T12:15:25Z</time></trkpt><trkpt lat="43.043653102298045" lon="11.41700866714059"><ele>366.0</ele><time>2026-04-11T12:15:26Z</time></trkpt><trkpt lat="43.04361152704025" lon="11.416938766130615"><ele>366.0</ele><time>2026-04-11T12:15:27Z</time></trkpt><trkpt lat="43.04357026678007" lon="11.41686855638632"><ele>365.8333333333333</ele><time>2026-04-11T12:15:28Z</time></trkpt><trkpt lat="43.043490342971715" lon="11.416732533977132"><ele>365.6666666666667</ele><time>2026-04-11T12:15:30Z</time></trkpt><trkpt lat="43.043448746535105" lon="11.416665078514935"><ele>365.5</ele><time>2026-04-11T12:15:31Z</time></trkpt><trkpt lat="43.04340807126621" lon="11.416599116891854"><ele>365.33333333333337</ele><time>2026-04-11T12:15:32Z</time></trkpt><trkpt lat="43.043365727188494" lon="11.416531063629575"><ele>365.1666666666667</ele><time>2026-04-11T12:15:33Z</time></trkpt><trkpt lat="43.04332591561899" lon="11.416457940224014"><ele>365.0</ele><time>2026-04-11T12:15:34Z</time></trkpt><trkpt lat="43.04329250094074" lon="11.416379116343903"><ele>364.2</ele><time>2026-04-11T12:15:35Z</time></trkpt><trkpt lat="43.0432665555872" lon="11.416219844852703"><ele>363.4</ele><time>2026-04-11T12:15:37Z</time></trkpt><trkpt lat="43.04328555422418" lon="11.41607599314917"><ele>362.6</ele><time>2026-04-11T12:15:39Z</time></trkpt><trkpt lat="43.043177531877" lon="11.415979652857636"><ele>361.8</ele><time>2026-04-11T12:15:40Z</time></trkpt><trkpt lat="43.04313658483044" lon="11.415910222245683"><ele>361.0</ele><time>2026-04-11T12:15:41Z</time></trkpt><trkpt lat="43.04309732323926" lon="11.415838855438768"><ele>361.0</ele><time>2026-04-11T12:15:42Z</time></trkpt><trkpt lat="43.04305863810991" lon="11.415765000533181"><ele>361.0</ele><time>2026-04-11T12:15:43Z</time></trkpt><trkpt lat="43.043020689431884" lon="11.415688352805134"><ele>361.0</ele><time>2026-04-11T12:15:44Z</time></trkpt><trkpt lat="43.042982836225384" lon="11.415607116818068"><ele>361.0</ele><time>2026-04-11T12:15:45Z</time></trkpt><trkpt lat="43.04294566964358" lon="11.415527354380723"><ele>361.0</ele><time>2026-04-11T12:15:46Z</time></trkpt><trkpt lat="43.04290718257342" lon="11.415440696655494"><ele>361.0</ele><time>2026-04-11T12:15:47Z</time></trkpt><trkpt lat="43.04287160131572" lon="11.415352029125774"><ele>361.0</ele><time>2026-04-11T12:15:48Z</time></trkpt><trkpt lat="43.04283203222167" lon="11.415253424002207"><ele>360.8333333333333</ele><time>2026-04-11T12:15:49Z</time></trkpt><trkpt lat="43.04278531257099" lon="11.415153964226365"><ele>360.66666666666663</ele><time>2026-04-11T12:15:50Z</time></trkpt><trkpt lat="43.042734905873566" lon="11.415065766346503"><ele>360.5</ele><time>2026-04-11T12:15:51Z</time></trkpt><trkpt lat="43.04267656527893" lon="11.414988406654308"><ele>360.3333333333333</ele><time>2026-04-11T12:15:52Z</time></trkpt><trkpt lat="43.04262504224388" lon="11.414922895062455"><ele>360.1666666666667</ele><time>2026-04-11T12:15:53Z</time></trkpt><trkpt lat="43.04257778158493" lon="11.414861815647816"><ele>360.0</ele><time>2026-04-11T12:15:54Z</time></trkpt><trkpt lat="43.04248827155463" lon="11.414746833507138"><ele>359.0</ele><time>2026-04-11T12:15:56Z</time></trkpt><trkpt lat="43.04244055831774" lon="11.414686509807611"><ele>358.0</ele><time>2026-04-11T12:15:57Z</time></trkpt><trkpt lat="43.04239092354248" lon="11.41462375675981"><ele>357.0</ele><time>2026-04-11T12:15:58Z</time></trkpt><trkpt lat="43.042340663686275" lon="11.414560213343934"><ele>356.0</ele><time>2026-04-11T12:15:59Z</time></trkpt><trkpt lat="43.04228903189732" lon="11.414496724882774"><ele>355.0</ele><time>2026-04-11T12:16:00Z</time></trkpt><trkpt lat="43.04223593744611" lon="11.414437358469662"><ele>354.0</ele><time>2026-04-11T12:16:01Z</time></trkpt><trkpt lat="43.042187157238864" lon="11.414381464402966"><ele>353.0</ele><time>2026-04-11T12:16:02Z</time></trkpt><trkpt lat="43.042102620841256" lon="11.414263119542001"><ele>352.6666666666667</ele><time>2026-04-11T12:16:04Z</time></trkpt><trkpt lat="43.04204598810274" lon="11.414123002226606"><ele>352.33333333333337</ele><time>2026-04-11T12:16:06Z</time></trkpt><trkpt lat="43.04201887974827" lon="11.414042330419896"><ele>352.0</ele><time>2026-04-11T12:16:07Z</time></trkpt><trkpt lat="43.04199176897364" lon="11.413961748969955"><ele>351.6666666666667</ele><time>2026-04-11T12:16:08Z</time></trkpt><trkpt lat="43.04196431837045" lon="11.413878396616274"><ele>351.3333333333333</ele><time>2026-04-11T12:16:09Z</time></trkpt><trkpt lat="43.041936668731566" lon="11.413792626308297"><ele>351.0</ele><time>2026-04-11T12:16:10Z</time></trkpt><trkpt lat="43.04190828766455" lon="11.413704587091777"><ele>350.14285714285717</ele><time>2026-04-11T12:16:11Z</time></trkpt><trkpt lat="43.041878228324244" lon="11.413611341751265"><ele>349.2857142857143</ele><time>2026-04-11T12:16:12Z</time></trkpt><trkpt lat="43.04184775258249" lon="11.413519276871318"><ele>348.42857142857144</ele><time>2026-04-11T12:16:13Z</time></trkpt><trkpt lat="43.04181771130591" lon="11.413430224455135"><ele>347.57142857142856</ele><time>2026-04-11T12:16:14Z</time></trkpt><trkpt lat="43.04178703491604" lon="11.413341151533997"><ele>346.7142857142857</ele><time>2026-04-11T12:16:15Z</time></trkpt><trkpt lat="43.041756241469514" lon="11.413251458542453"><ele>345.8571428571429</ele><time>2026-04-11T12:16:16Z</time></trkpt><trkpt lat="43.04172590469562" lon="11.413160514019031"><ele>345.0</ele><time>2026-04-11T12:16:17Z</time></trkpt><trkpt lat="43.04169702565986" lon="11.413069589612263"><ele>344.2857142857143</ele><time>2026-04-11T12:16:18Z</time></trkpt><trkpt lat="43.041669293551884" lon="11.412979025349594"><ele>343.57142857142856</ele><time>2026-04-11T12:16:19Z</time></trkpt><trkpt lat="43.04164163004212" lon="11.41288868510706"><ele>342.8571428571429</ele><time>2026-04-11T12:16:20Z</time></trkpt><trkpt lat="43.04161607856082" lon="11.412797520899609"><ele>342.1428571428571</ele><time>2026-04-11T12:16:21Z</time></trkpt><trkpt lat="43.04159211395381" lon="11.41270399269443"><ele>341.4285714285714</ele><time>2026-04-11T12:16:22Z</time></trkpt><trkpt lat="43.041571342854496" lon="11.41260590050309"><ele>340.7142857142857</ele><time>2026-04-11T12:16:23Z</time></trkpt><trkpt lat="43.04155531345869" lon="11.412498870369078"><ele>340.0</ele><time>2026-04-11T12:16:24Z</time></trkpt><trkpt lat="43.041544677181236" lon="11.412381251966732"><ele>338.2</ele><time>2026-04-11T12:16:25Z</time></trkpt><trkpt lat="43.04153730434642" lon="11.412252074289212"><ele>336.4</ele><time>2026-04-11T12:16:26Z</time></trkpt><trkpt lat="43.04151908663464" lon="11.41211924961422"><ele>334.6</ele><time>2026-04-11T12:16:27Z</time></trkpt><trkpt lat="43.04151890461227" lon="11.411985959776247"><ele>332.8</ele><time>2026-04-11T12:16:28Z</time></trkpt><trkpt lat="43.04151772947855" lon="11.411853568905354"><ele>331.0</ele><time>2026-04-11T12:16:29Z</time></trkpt><trkpt lat="43.0415351995146" lon="11.411721845436713"><ele>329.8333333333333</ele><time>2026-04-11T12:16:30Z</time></trkpt><trkpt lat="43.041537695304065" lon="11.411587368980852"><ele>328.66666666666663</ele><time>2026-04-11T12:16:31Z</time></trkpt><trkpt lat="43.041541204438914" lon="11.411459737257312"><ele>327.5</ele><time>2026-04-11T12:16:32Z</time></trkpt><trkpt lat="43.041529290264954" lon="11.411342024050272"><ele>326.3333333333333</ele><time>2026-04-11T12:16:33Z</time></trkpt><trkpt lat="43.041550225877536" lon="11.411234173054005"><ele>325.1666666666667</ele><time>2026-04-11T12:16:34Z</time></trkpt><trkpt lat="43.041556742562" lon="11.41113360418841"><ele>324.0</ele><time>2026-04-11T12:16:35Z</time></trkpt><trkpt lat="43.04155071708927" lon="11.411035871389899"><ele>323.7142857142857</ele><time>2026-04-11T12:16:36Z</time></trkpt><trkpt lat="43.04156245725424" lon="11.410944532126534"><ele>323.42857142857144</ele><time>2026-04-11T12:16:37Z</time></trkpt><trkpt lat="43.041574652061826" lon="11.410848230450254"><ele>323.1428571428571</ele><time>2026-04-11T12:16:38Z</time></trkpt><trkpt lat="43.04158692312625" lon="11.410748341154267"><ele>322.8571428571429</ele><time>2026-04-11T12:16:39Z</time></trkpt><trkpt lat="43.041615257034614" lon="11.410651490710256"><ele>322.57142857142856</ele><time>2026-04-11T12:16:40Z</time></trkpt><trkpt lat="43.04162720226302" lon="11.410555035015232"><ele>322.2857142857143</ele><time>2026-04-11T12:16:41Z</time></trkpt><trkpt lat="43.04162405718282" lon="11.410457444341425"><ele>322.0</ele><time>2026-04-11T12:16:42Z</time></trkpt><trkpt lat="43.04163537563039" lon="11.410364882450185"><ele>321.8333333333333</ele><time>2026-04-11T12:16:43Z</time></trkpt><trkpt lat="43.04164813228286" lon="11.410276944022813"><ele>321.66666666666663</ele><time>2026-04-11T12:16:44Z</time></trkpt><trkpt lat="43.041671330518014" lon="11.410188414150353"><ele>321.5</ele><time>2026-04-11T12:16:45Z</time></trkpt><trkpt lat="43.041681881228904" lon="11.410099121115644"><ele>321.3333333333333</ele><time>2026-04-11T12:16:46Z</time></trkpt><trkpt lat="43.041692882696026" lon="11.410006013226768"><ele>321.1666666666667</ele><time>2026-04-11T12:16:47Z</time></trkpt><trkpt lat="43.04171309115686" lon="11.409834984521394"><ele>321.0</ele><time>2026-04-11T12:16:49Z</time></trkpt><trkpt lat="43.04172379858804" lon="11.409742714896772"><ele>319.85714285714283</ele><time>2026-04-11T12:16:50Z</time></trkpt><trkpt lat="43.04173310176078" lon="11.409653272576088"><ele>318.7142857142857</ele><time>2026-04-11T12:16:51Z</time></trkpt><trkpt lat="43.04173971641377" lon="11.409561343781574"><ele>317.57142857142856</ele><time>2026-04-11T12:16:52Z</time></trkpt><trkpt lat="43.041743072389025" lon="11.409472306217197"><ele>316.42857142857144</ele><time>2026-04-11T12:16:53Z</time></trkpt><trkpt lat="43.04174433213745" lon="11.409379688611887"><ele>315.2857142857143</ele><time>2026-04-11T12:16:54Z</time></trkpt><trkpt lat="43.04174469388545" lon="11.409292363153027"><ele>314.1428571428571</ele><time>2026-04-11T12:16:55Z</time></trkpt><trkpt lat="43.04174511977329" lon="11.409204133820941"><ele>313.0</ele><time>2026-04-11T12:16:56Z</time></trkpt><trkpt lat="43.04174806308152" lon="11.409115091353206"><ele>313.0</ele><time>2026-04-11T12:16:57Z</time></trkpt><trkpt lat="43.04175477949288" lon="11.408944942394404"><ele>313.0</ele><time>2026-04-11T12:16:59Z</time></trkpt><trkpt lat="43.04176140480052" lon="11.408779905168828"><ele>313.0</ele><time>2026-04-11T12:17:01Z</time></trkpt><trkpt lat="43.04176800928677" lon="11.408619506104197"><ele>313.0</ele><time>2026-04-11T12:17:03Z</time></trkpt><trkpt lat="43.04177157526701" lon="11.408532901302033"><ele>313.0</ele><time>2026-04-11T12:17:04Z</time></trkpt><trkpt lat="43.0417753516653" lon="11.408441186232594"><ele>311.0</ele><time>2026-04-11T12:17:05Z</time></trkpt><trkpt lat="43.04178130489803" lon="11.408276282356317"><ele>309.0</ele><time>2026-04-11T12:17:07Z</time></trkpt><trkpt lat="43.04178585957981" lon="11.408118717170652"><ele>307.0</ele><time>2026-04-11T12:17:09Z</time></trkpt><trkpt lat="43.04178275588661" lon="11.407956917760899"><ele>305.0</ele><time>2026-04-11T12:17:11Z</time></trkpt><trkpt lat="43.04174057916237" lon="11.407786086294246"><ele>303.5</ele><time>2026-04-11T12:17:13Z</time></trkpt><trkpt lat="43.041678893069815" lon="11.407708484388445"><ele>302.0</ele><time>2026-04-11T12:17:14Z</time></trkpt><trkpt lat="43.04159735495154" lon="11.40766518361054"><ele>300.5</ele><time>2026-04-11T12:17:15Z</time></trkpt><trkpt lat="43.0415083728537" lon="11.407660675421749"><ele>299.0</ele><time>2026-04-11T12:17:16Z</time></trkpt><trkpt lat="43.04142630271022" lon="11.40768424693191"><ele>297.5</ele><time>2026-04-11T12:17:17Z</time></trkpt><trkpt lat="43.04135174340152" lon="11.40766791603672"><ele>296.0</ele><time>2026-04-11T12:17:18Z</time></trkpt><trkpt lat="43.04127992306398" lon="11.40764838064916"><ele>296.0</ele><time>2026-04-11T12:17:19Z</time></trkpt><trkpt lat="43.04119765543183" lon="11.407625309579783"><ele>296.0</ele><time>2026-04-11T12:17:20Z</time></trkpt><trkpt lat="43.041109770523676" lon="11.407601532672592"><ele>296.0</ele><time>2026-04-11T12:17:21Z</time></trkpt><trkpt lat="43.04101965060421" lon="11.407577528768483"><ele>296.0</ele><time>2026-04-11T12:17:22Z</time></trkpt><trkpt lat="43.04092375921888" lon="11.407551987597524"><ele>296.0</ele><time>2026-04-11T12:17:23Z</time></trkpt><trkpt lat="43.040826538246435" lon="11.40753017885804"><ele>295.1666666666667</ele><time>2026-04-11T12:17:24Z</time></trkpt><trkpt lat="43.040729829478416" lon="11.40751807219118"><ele>294.33333333333337</ele><time>2026-04-11T12:17:25Z</time></trkpt><trkpt lat="43.04064051937288" lon="11.407518937579516"><ele>293.5</ele><time>2026-04-11T12:17:26Z</time></trkpt><trkpt lat="43.04055866230902" lon="11.407528485067493"><ele>292.6666666666667</ele><time>2026-04-11T12:17:27Z</time></trkpt><trkpt lat="43.040477651547654" lon="11.40754922616717"><ele>291.8333333333333</ele><time>2026-04-11T12:17:28Z</time></trkpt><trkpt lat="43.04040023406131" lon="11.407581563003543"><ele>291.0</ele><time>2026-04-11T12:17:29Z</time></trkpt><trkpt lat="43.04032643886958" lon="11.407625988723865"><ele>291.0</ele><time>2026-04-11T12:17:30Z</time></trkpt><trkpt lat="43.04026127625434" lon="11.407707041322471"><ele>291.0</ele><time>2026-04-11T12:17:31Z</time></trkpt><trkpt lat="43.040195925748876" lon="11.407762183980363"><ele>291.0</ele><time>2026-04-11T12:17:32Z</time></trkpt><trkpt lat="43.040127781637445" lon="11.407809532214328"><ele>291.0</ele><time>2026-04-11T12:17:33Z</time></trkpt><trkpt lat="43.04006063994236" lon="11.407851707213158"><ele>291.0</ele><time>2026-04-11T12:17:34Z</time></trkpt><trkpt lat="43.03999602305177" lon="11.407889116994387"><ele>291.0</ele><time>2026-04-11T12:17:35Z</time></trkpt><trkpt lat="43.039930153933305" lon="11.40792354914703"><ele>290.7142857142857</ele><time>2026-04-11T12:17:36Z</time></trkpt><trkpt lat="43.03986178550032" lon="11.407957531197665"><ele>290.4285714285714</ele><time>2026-04-11T12:17:37Z</time></trkpt><trkpt lat="43.03979778955221" lon="11.407982914466638"><ele>290.1428571428571</ele><time>2026-04-11T12:17:38Z</time></trkpt><trkpt lat="43.03973142533474" lon="11.408004522002745"><ele>289.85714285714283</ele><time>2026-04-11T12:17:39Z</time></trkpt><trkpt lat="43.039663160442714" lon="11.408023262070879"><ele>289.57142857142856</ele><time>2026-04-11T12:17:40Z</time></trkpt><trkpt lat="43.03958378385521" lon="11.408043202616781"><ele>289.2857142857143</ele><time>2026-04-11T12:17:41Z</time></trkpt><trkpt lat="43.03949867722121" lon="11.408066446336981"><ele>289.0</ele><time>2026-04-11T12:17:42Z</time></trkpt><trkpt lat="43.03941469007833" lon="11.408089848828858"><ele>289.0</ele><time>2026-04-11T12:17:43Z</time></trkpt><trkpt lat="43.03933127943402" lon="11.408113090678176"><ele>289.0</ele><time>2026-04-11T12:17:44Z</time></trkpt><trkpt lat="43.039249166220564" lon="11.408135971009374"><ele>289.0</ele><time>2026-04-11T12:17:45Z</time></trkpt><trkpt lat="43.03916268197484" lon="11.408162193375183"><ele>289.0</ele><time>2026-04-11T12:17:46Z</time></trkpt><trkpt lat="43.03908620126003" lon="11.408187806074126"><ele>289.0</ele><time>2026-04-11T12:17:47Z</time></trkpt><trkpt lat="43.03900530551033" lon="11.408219114389716"><ele>289.0</ele><time>2026-04-11T12:17:48Z</time></trkpt><trkpt lat="43.038919950364594" lon="11.408254134264832"><ele>287.66666666666663</ele><time>2026-04-11T12:17:49Z</time></trkpt><trkpt lat="43.03883688018472" lon="11.408291683975213"><ele>286.3333333333333</ele><time>2026-04-11T12:17:50Z</time></trkpt><trkpt lat="43.03875544593497" lon="11.408330429726169"><ele>285.0</ele><time>2026-04-11T12:17:51Z</time></trkpt><trkpt lat="43.03867980349905" lon="11.40836763370935"><ele>283.6666666666667</ele><time>2026-04-11T12:17:52Z</time></trkpt><trkpt lat="43.03860933970768" lon="11.408405794561773"><ele>282.33333333333337</ele><time>2026-04-11T12:17:53Z</time></trkpt><trkpt lat="43.03854438221028" lon="11.408450681387281"><ele>281.0</ele><time>2026-04-11T12:17:54Z</time></trkpt><trkpt lat="43.038492846407316" lon="11.408503030955194"><ele>281.0</ele><time>2026-04-11T12:17:55Z</time></trkpt><trkpt lat="43.03843542244913" lon="11.408551868841014"><ele>281.0</ele><time>2026-04-11T12:17:56Z</time></trkpt><trkpt lat="43.03835365217306" lon="11.408549759629459"><ele>281.0</ele><time>2026-04-11T12:17:57Z</time></trkpt><trkpt lat="43.0382832977263" lon="11.40860424936405"><ele>281.0</ele><time>2026-04-11T12:17:58Z</time></trkpt><trkpt lat="43.03821521245947" lon="11.408662975428719"><ele>281.0</ele><time>2026-04-11T12:17:59Z</time></trkpt><trkpt lat="43.0381569715837" lon="11.408748969994953"><ele>281.0</ele><time>2026-04-11T12:18:00Z</time></trkpt><trkpt lat="43.03809858869289" lon="11.40882725437412"><ele>280.33333333333337</ele><time>2026-04-11T12:18:01Z</time></trkpt><trkpt lat="43.0380441499025" lon="11.408904898262952"><ele>279.6666666666667</ele><time>2026-04-11T12:18:02Z</time></trkpt><trkpt lat="43.037988221740264" lon="11.408985114438693"><ele>279.0</ele><time>2026-04-11T12:18:03Z</time></trkpt><trkpt lat="43.037934329971904" lon="11.409063871115148"><ele>278.3333333333333</ele><time>2026-04-11T12:18:04Z</time></trkpt><trkpt lat="43.037881465533644" lon="11.409140581266602"><ele>277.66666666666663</ele><time>2026-04-11T12:18:05Z</time></trkpt><trkpt lat="43.03783082621134" lon="11.409213295233942"><ele>277.0</ele><time>2026-04-11T12:18:06Z</time></trkpt><trkpt lat="43.03778050756487" lon="11.409285548804068"><ele>277.0</ele><time>2026-04-11T12:18:07Z</time></trkpt><trkpt lat="43.03773359274645" lon="11.409355789667192"><ele>277.0</ele><time>2026-04-11T12:18:08Z</time></trkpt><trkpt lat="43.03769879024085" lon="11.409431253405446"><ele>277.0</ele><time>2026-04-11T12:18:09Z</time></trkpt><trkpt lat="43.03759878347946" lon="11.409510999470047"><ele>277.0</ele><time>2026-04-11T12:18:11Z</time></trkpt><trkpt lat="43.037534557365596" lon="11.409500552529119"><ele>277.0</ele><time>2026-04-11T12:18:12Z</time></trkpt><trkpt lat="43.03747282563147" lon="11.40945927639614"><ele>277.0</ele><time>2026-04-11T12:18:13Z</time></trkpt><trkpt lat="43.03743004679071" lon="11.40939235660488"><ele>277.0</ele><time>2026-04-11T12:18:14Z</time></trkpt><trkpt lat="43.03738894287678" lon="11.40931353858641"><ele>276.66666666666663</ele><time>2026-04-11T12:18:15Z</time></trkpt><trkpt lat="43.03733574938973" lon="11.40922918638634"><ele>276.3333333333333</ele><time>2026-04-11T12:18:16Z</time></trkpt><trkpt lat="43.03728256792197" lon="11.409144942693038"><ele>276.0</ele><time>2026-04-11T12:18:17Z</time></trkpt><trkpt lat="43.03722814881089" lon="11.409057805664093"><ele>275.6666666666667</ele><time>2026-04-11T12:18:18Z</time></trkpt><trkpt lat="43.0371706098703" lon="11.408965596652871"><ele>275.33333333333337</ele><time>2026-04-11T12:18:19Z</time></trkpt><trkpt lat="43.03711197736669" lon="11.408871635178123"><ele>275.0</ele><time>2026-04-11T12:18:20Z</time></trkpt><trkpt lat="43.03705236546417" lon="11.408776105267963"><ele>274.0</ele><time>2026-04-11T12:18:21Z</time></trkpt><trkpt lat="43.03699126657954" lon="11.408678478442516"><ele>273.0</ele><time>2026-04-11T12:18:22Z</time></trkpt><trkpt lat="43.03692920177362" lon="11.408580401165679"><ele>272.0</ele><time>2026-04-11T12:18:23Z</time></trkpt><trkpt lat="43.036865844398285" lon="11.40848028132425"><ele>271.0</ele><time>2026-04-11T12:18:24Z</time></trkpt><trkpt lat="43.036805838688046" lon="11.40838545779351"><ele>270.0</ele><time>2026-04-11T12:18:25Z</time></trkpt><trkpt lat="43.03675238814554" lon="11.408297912869923"><ele>270.0</ele><time>2026-04-11T12:18:26Z</time></trkpt><trkpt lat="43.03670389423299" lon="11.408227527999712"><ele>270.0</ele><time>2026-04-11T12:18:27Z</time></trkpt><trkpt lat="43.03660711771465" lon="11.408177147964885"><ele>270.0</ele><time>2026-04-11T12:18:29Z</time></trkpt><trkpt lat="43.036533954213496" lon="11.408246931725364"><ele>270.0</ele><time>2026-04-11T12:18:31Z</time></trkpt><trkpt lat="43.03647094618973" lon="11.408291171164477"><ele>270.0</ele><time>2026-04-11T12:18:33Z</time></trkpt><trkpt lat="43.03641389139504" lon="11.408357357473609"><ele>270.0</ele><time>2026-04-11T12:18:35Z</time></trkpt><trkpt lat="43.036357187577856" lon="11.408431191046402"><ele>270.3333333333333</ele><time>2026-04-11T12:18:37Z</time></trkpt><trkpt lat="43.03629839270571" lon="11.408510064850162"><ele>270.6666666666667</ele><time>2026-04-11T12:18:39Z</time></trkpt><trkpt lat="43.03624316353381" lon="11.408586591623433"><ele>271.0</ele><time>2026-04-11T12:18:41Z</time></trkpt><trkpt lat="43.03619310190393" lon="11.408660917176727"><ele>271.33333333333337</ele><time>2026-04-11T12:18:43Z</time></trkpt><trkpt lat="43.036140658808534" lon="11.40873910349573"><ele>271.6666666666667</ele><time>2026-04-11T12:18:45Z</time></trkpt><trkpt lat="43.036080682179616" lon="11.40882852135622"><ele>272.0</ele><time>2026-04-11T12:18:47Z</time></trkpt><trkpt lat="43.036022417337946" lon="11.408915387116851"><ele>272.0</ele><time>2026-04-11T12:18:49Z</time></trkpt><trkpt lat="43.035973099070524" lon="11.409051664103712"><ele>272.0</ele><time>2026-04-11T12:18:52Z</time></trkpt><trkpt lat="43.03590517024511" lon="11.409088904511806"><ele>272.0</ele><time>2026-04-11T12:18:53Z</time></trkpt><trkpt lat="43.03585655902547" lon="11.409158800014216"><ele>272.0</ele><time>2026-04-11T12:18:56Z</time></trkpt><trkpt lat="43.03580358239212" lon="11.409232378704534"><ele>272.0</ele><time>2026-04-11T12:18:57Z</time></trkpt><trkpt lat="43.035751099719036" lon="11.409306887603794"><ele>272.0</ele><time>2026-04-11T12:18:59Z</time></trkpt><trkpt lat="43.035681449182434" lon="11.40940574642149"><ele>271.71428571428567</ele><time>2026-04-11T12:19:01Z</time></trkpt><trkpt lat="43.03563493624826" lon="11.409496339617736"><ele>271.42857142857144</ele><time>2026-04-11T12:19:03Z</time></trkpt><trkpt lat="43.035575865423944" lon="11.409556786584732"><ele>271.1428571428571</ele><time>2026-04-11T12:19:05Z</time></trkpt><trkpt lat="43.035520624473264" lon="11.409616470073708"><ele>270.85714285714283</ele><time>2026-04-11T12:19:07Z</time></trkpt><trkpt lat="43.03546324802584" lon="11.40967218832589"><ele>270.57142857142856</ele><time>2026-04-11T12:19:09Z</time></trkpt><trkpt lat="43.03539940781878" lon="11.409724136442657"><ele>270.2857142857143</ele><time>2026-04-11T12:19:11Z</time></trkpt><trkpt lat="43.03533473223662" lon="11.409783143365024"><ele>270.0</ele><time>2026-04-11T12:19:13Z</time></trkpt><trkpt lat="43.03527682375716" lon="11.40983040105549"><ele>270.8</ele><time>2026-04-11T12:19:16Z</time></trkpt><trkpt lat="43.03521906115287" lon="11.409879282902997"><ele>271.6</ele><time>2026-04-11T12:19:17Z</time></trkpt><trkpt lat="43.035164711645876" lon="11.409928803300703"><ele>272.4</ele><time>2026-04-11T12:19:19Z</time></trkpt><trkpt lat="43.035084899171125" lon="11.409989504918176"><ele>273.2</ele><time>2026-04-11T12:19:22Z</time></trkpt><trkpt lat="43.03501062608871" lon="11.410050559913769"><ele>274.0</ele><time>2026-04-11T12:19:24Z</time></trkpt><trkpt lat="43.034860348314446" lon="11.410114283239174"><ele>274.00000000000006</ele><time>2026-04-11T12:19:27Z</time></trkpt><trkpt lat="43.0347973279214" lon="11.410159267779223"><ele>274.0</ele><time>2026-04-11T12:19:29Z</time></trkpt><trkpt lat="43.034740376439544" lon="11.410201081100181"><ele>274.0</ele><time>2026-04-11T12:19:31Z</time></trkpt><trkpt lat="43.03468127205228" lon="11.410241433622897"><ele>274.0</ele><time>2026-04-11T12:19:33Z</time></trkpt><trkpt lat="43.03461124856072" lon="11.410280648672963"><ele>274.0</ele><time>2026-04-11T12:19:35Z</time></trkpt><trkpt lat="43.034539540225445" lon="11.410319197185148"><ele>274.00000000000006</ele><time>2026-04-11T12:19:37Z</time></trkpt><trkpt lat="43.03446212117339" lon="11.41035256876559"><ele>274.0</ele><time>2026-04-11T12:19:39Z</time></trkpt><trkpt lat="43.03438076684635" lon="11.410378844248903"><ele>274.0</ele><time>2026-04-11T12:19:41Z</time></trkpt><trkpt lat="43.03429153592093" lon="11.410412192658812"><ele>274.0</ele><time>2026-04-11T12:19:43Z</time></trkpt><trkpt lat="43.03420278213128" lon="11.410466697660176"><ele>274.0</ele><time>2026-04-11T12:19:45Z</time></trkpt><trkpt lat="43.03410033493437" lon="11.410487638544629"><ele>274.0</ele><time>2026-04-11T12:19:47Z</time></trkpt><trkpt lat="43.033974009125856" lon="11.410497324278591"><ele>274.0</ele><time>2026-04-11T12:19:49Z</time></trkpt><trkpt lat="43.0338535193869" lon="11.410497970141558"><ele>273.8</ele><time>2026-04-11T12:19:51Z</time></trkpt><trkpt lat="43.03378895244844" lon="11.41049961379365"><ele>273.59999999999997</ele><time>2026-04-11T12:19:52Z</time></trkpt><trkpt lat="43.033664841896275" lon="11.410504834895477"><ele>273.4</ele><time>2026-04-11T12:19:54Z</time></trkpt><trkpt lat="43.03355616803734" lon="11.410541469978208"><ele>273.2</ele><time>2026-04-11T12:19:56Z</time></trkpt><trkpt lat="43.03343382564743" lon="11.410570435050097"><ele>273.0</ele><time>2026-04-11T12:19:58Z</time></trkpt><trkpt lat="43.03336449440572" lon="11.410578978494264"><ele>271.3333333333333</ele><time>2026-04-11T12:19:59Z</time></trkpt><trkpt lat="43.033297724944866" lon="11.41060001662024"><ele>269.6666666666667</ele><time>2026-04-11T12:20:00Z</time></trkpt><trkpt lat="43.03321554098659" lon="11.410612763618166"><ele>268.0</ele><time>2026-04-11T12:20:01Z</time></trkpt><trkpt lat="43.03313540028016" lon="11.410629880175353"><ele>266.33333333333337</ele><time>2026-04-11T12:20:02Z</time></trkpt><trkpt lat="43.03305935677867" lon="11.410637653063405"><ele>264.6666666666667</ele><time>2026-04-11T12:20:03Z</time></trkpt><trkpt lat="43.03298023364315" lon="11.410652572708381"><ele>263.0</ele><time>2026-04-11T12:20:04Z</time></trkpt><trkpt lat="43.03290053938679" lon="11.410668934591422"><ele>263.0</ele><time>2026-04-11T12:20:05Z</time></trkpt><trkpt lat="43.03282165527209" lon="11.410676317880924"><ele>263.0</ele><time>2026-04-11T12:20:06Z</time></trkpt><trkpt lat="43.03274534124563" lon="11.410683922707381"><ele>263.0</ele><time>2026-04-11T12:20:07Z</time></trkpt><trkpt lat="43.03266460779479" lon="11.410703057675196"><ele>263.0</ele><time>2026-04-11T12:20:08Z</time></trkpt><trkpt lat="43.03257739688714" lon="11.410729444874356"><ele>263.0</ele><time>2026-04-11T12:20:09Z</time></trkpt><trkpt lat="43.03248478068353" lon="11.41075658797749"><ele>263.0</ele><time>2026-04-11T12:20:10Z</time></trkpt><trkpt lat="43.03239956404673" lon="11.41078383046098"><ele>261.1666666666667</ele><time>2026-04-11T12:20:11Z</time></trkpt><trkpt lat="43.032318899318554" lon="11.410814078172022"><ele>259.33333333333337</ele><time>2026-04-11T12:20:12Z</time></trkpt><trkpt lat="43.032236837956255" lon="11.410852989993982"><ele>257.5</ele><time>2026-04-11T12:20:13Z</time></trkpt><trkpt lat="43.03215610917298" lon="11.410893125181632"><ele>255.66666666666669</ele><time>2026-04-11T12:20:14Z</time></trkpt><trkpt lat="43.03208382130027" lon="11.410919021070205"><ele>253.83333333333334</ele><time>2026-04-11T12:20:15Z</time></trkpt><trkpt lat="43.032015730859214" lon="11.410948251284148"><ele>252.0</ele><time>2026-04-11T12:20:16Z</time></trkpt><trkpt lat="43.03194598105272" lon="11.410981021808059"><ele>252.0</ele><time>2026-04-11T12:20:17Z</time></trkpt><trkpt lat="43.031866768314586" lon="11.410943394082823"><ele>252.0</ele><time>2026-04-11T12:20:18Z</time></trkpt><trkpt lat="43.03180141988845" lon="11.41097205170814"><ele>252.0</ele><time>2026-04-11T12:20:19Z</time></trkpt><trkpt lat="43.03173466061442" lon="11.411001326171752"><ele>252.0</ele><time>2026-04-11T12:20:20Z</time></trkpt><trkpt lat="43.03166623222922" lon="11.411034062610979"><ele>252.0</ele><time>2026-04-11T12:20:21Z</time></trkpt><trkpt lat="43.031598058084704" lon="11.411065338602336"><ele>252.0</ele><time>2026-04-11T12:20:22Z</time></trkpt><trkpt lat="43.03152364851462" lon="11.411099475191838"><ele>252.0</ele><time>2026-04-11T12:20:23Z</time></trkpt><trkpt lat="43.031453524088846" lon="11.411131342869554"><ele>250.5</ele><time>2026-04-11T12:20:24Z</time></trkpt><trkpt lat="43.03137811384654" lon="11.411164798599815"><ele>249.0</ele><time>2026-04-11T12:20:25Z</time></trkpt><trkpt lat="43.03130636704621" lon="11.411194816404134"><ele>247.5</ele><time>2026-04-11T12:20:26Z</time></trkpt><trkpt lat="43.0312343562659" lon="11.411221676336293"><ele>246.0</ele><time>2026-04-11T12:20:27Z</time></trkpt><trkpt lat="43.0311619545678" lon="11.41124810157796"><ele>244.5</ele><time>2026-04-11T12:20:28Z</time></trkpt><trkpt lat="43.031089815277674" lon="11.411271423624376"><ele>243.0</ele><time>2026-04-11T12:20:29Z</time></trkpt><trkpt lat="43.03101522635364" lon="11.411295695497268"><ele>243.0</ele><time>2026-04-11T12:20:30Z</time></trkpt><trkpt lat="43.030944616936026" lon="11.41131923960696"><ele>243.0</ele><time>2026-04-11T12:20:31Z</time></trkpt><trkpt lat="43.03087226108367" lon="11.411344905545343"><ele>243.0</ele><time>2026-04-11T12:20:32Z</time></trkpt><trkpt lat="43.03080265617282" lon="11.4113775981385"><ele>243.0</ele><time>2026-04-11T12:20:33Z</time></trkpt><trkpt lat="43.030739649544955" lon="11.411411278032965"><ele>243.0</ele><time>2026-04-11T12:20:34Z</time></trkpt><trkpt lat="43.030686182759524" lon="11.411466014693309"><ele>243.0</ele><time>2026-04-11T12:20:35Z</time></trkpt><trkpt lat="43.03062555200317" lon="11.411512639174937"><ele>243.0</ele><time>2026-04-11T12:20:36Z</time></trkpt><trkpt lat="43.03056847176208" lon="11.41156167743749"><ele>242.42857142857142</ele><time>2026-04-11T12:20:37Z</time></trkpt><trkpt lat="43.030514217073936" lon="11.411616685070294"><ele>241.8571428571429</ele><time>2026-04-11T12:20:38Z</time></trkpt><trkpt lat="43.0304628178437" lon="11.41167529927473"><ele>241.2857142857143</ele><time>2026-04-11T12:20:39Z</time></trkpt><trkpt lat="43.03040398428771" lon="11.41171837746655"><ele>240.71428571428572</ele><time>2026-04-11T12:20:40Z</time></trkpt><trkpt lat="43.030349883824805" lon="11.41177905487094"><ele>240.14285714285717</ele><time>2026-04-11T12:20:41Z</time></trkpt><trkpt lat="43.03029722266846" lon="11.411840754388109"><ele>239.5714285714286</ele><time>2026-04-11T12:20:42Z</time></trkpt><trkpt lat="43.030248175057565" lon="11.411899317215953"><ele>239.00000000000003</ele><time>2026-04-11T12:20:43Z</time></trkpt><trkpt lat="43.03019835882258" lon="11.41196191199756"><ele>239.00000000000003</ele><time>2026-04-11T12:20:44Z</time></trkpt><trkpt lat="43.03014918830067" lon="11.412025016545435"><ele>239.0</ele><time>2026-04-11T12:20:45Z</time></trkpt><trkpt lat="43.030099642423025" lon="11.412095002447378"><ele>239.0</ele><time>2026-04-11T12:20:46Z</time></trkpt><trkpt lat="43.03004044102886" lon="11.412182951712756"><ele>239.0</ele><time>2026-04-11T12:20:47Z</time></trkpt><trkpt lat="43.02998008559842" lon="11.412275879251522"><ele>239.00000000000003</ele><time>2026-04-11T12:20:48Z</time></trkpt><trkpt lat="43.02992283517105" lon="11.41239120416193"><ele>239.0</ele><time>2026-04-11T12:20:49Z</time></trkpt><trkpt lat="43.02987127259013" lon="11.41250382155941"><ele>239.2</ele><time>2026-04-11T12:20:50Z</time></trkpt><trkpt lat="43.02982352793727" lon="11.412611837723212"><ele>239.39999999999998</ele><time>2026-04-11T12:20:51Z</time></trkpt><trkpt lat="43.02978104177726" lon="11.412705902994167"><ele>239.6</ele><time>2026-04-11T12:20:52Z</time></trkpt><trkpt lat="43.029752876021924" lon="11.412792472907766"><ele>239.8</ele><time>2026-04-11T12:20:53Z</time></trkpt><trkpt lat="43.029678556770875" lon="11.412919885156226"><ele>240.0</ele><time>2026-04-11T12:20:55Z</time></trkpt><trkpt lat="43.02962505917236" lon="11.413025754665366"><ele>240.0</ele><time>2026-04-11T12:20:57Z</time></trkpt><trkpt lat="43.02957787830535" lon="11.41310749353553"><ele>240.0</ele><time>2026-04-11T12:20:59Z</time></trkpt><trkpt lat="43.02953618460143" lon="11.413183932392895"><ele>240.0</ele><time>2026-04-11T12:21:01Z</time></trkpt><trkpt lat="43.0294836465795" lon="11.41324364489746"><ele>240.0</ele><time>2026-04-11T12:21:03Z</time></trkpt><trkpt lat="43.02944291663408" lon="11.41331228034978"><ele>240.0</ele><time>2026-04-11T12:21:05Z</time></trkpt><trkpt lat="43.02939886275201" lon="11.41338651712242"><ele>240.0</ele><time>2026-04-11T12:21:07Z</time></trkpt><trkpt lat="43.02935347455624" lon="11.413462090188617"><ele>240.0</ele><time>2026-04-11T12:21:09Z</time></trkpt><trkpt lat="43.0293093383514" lon="11.413534919145224"><ele>240.0</ele><time>2026-04-11T12:21:11Z</time></trkpt><trkpt lat="43.02926530091934" lon="11.413607585137703"><ele>240.0</ele><time>2026-04-11T12:21:14Z</time></trkpt><trkpt lat="43.02921620578934" lon="11.413748651875597"><ele>240.0</ele><time>2026-04-11T12:21:17Z</time></trkpt><trkpt lat="43.029168611629295" lon="11.413823438246546"><ele>240.0</ele><time>2026-04-11T12:21:19Z</time></trkpt><trkpt lat="43.029122737455005" lon="11.41389329339863"><ele>240.0</ele><time>2026-04-11T12:21:21Z</time></trkpt><trkpt lat="43.02905821269637" lon="11.413989028968299"><ele>240.0</ele><time>2026-04-11T12:21:23Z</time></trkpt><trkpt lat="43.029001459622776" lon="11.414089662434074"><ele>239.25</ele><time>2026-04-11T12:21:25Z</time></trkpt><trkpt lat="43.02893486005104" lon="11.414188829578404"><ele>238.5</ele><time>2026-04-11T12:21:27Z</time></trkpt><trkpt lat="43.02888137976232" lon="11.414296766255836"><ele>237.75</ele><time>2026-04-11T12:21:29Z</time></trkpt><trkpt lat="43.02883429623692" lon="11.41437529162294"><ele>237.0</ele><time>2026-04-11T12:21:31Z</time></trkpt><trkpt lat="43.02868551430484" lon="11.414565094303164"><ele>238.39999999999998</ele><time>2026-04-11T12:21:34Z</time></trkpt><trkpt lat="43.02861270838708" lon="11.414662205526646"><ele>239.79999999999998</ele><time>2026-04-11T12:21:36Z</time></trkpt><trkpt lat="43.028552347229244" lon="11.414766295620643"><ele>241.2</ele><time>2026-04-11T12:21:38Z</time></trkpt><trkpt lat="43.028492219989865" lon="11.414859154983152"><ele>242.6</ele><time>2026-04-11T12:21:40Z</time></trkpt><trkpt lat="43.02844074991728" lon="11.414938153958836"><ele>244.0</ele><time>2026-04-11T12:21:42Z</time></trkpt><trkpt lat="43.02838473013259" lon="11.415029728498265"><ele>243.99999999999997</ele><time>2026-04-11T12:21:45Z</time></trkpt><trkpt lat="43.02834681278621" lon="11.415100693041648"><ele>244.0</ele><time>2026-04-11T12:21:47Z</time></trkpt><trkpt lat="43.02830167523981" lon="11.415165769727764"><ele>243.99999999999997</ele><time>2026-04-11T12:21:49Z</time></trkpt><trkpt lat="43.02824713578657" lon="11.41524194840464"><ele>243.99999999999997</ele><time>2026-04-11T12:21:52Z</time></trkpt><trkpt lat="43.02820312492399" lon="11.415313427240505"><ele>244.0</ele><time>2026-04-11T12:21:55Z</time></trkpt><trkpt lat="43.028157898344894" lon="11.4153875198713"><ele>243.99999999999997</ele><time>2026-04-11T12:21:58Z</time></trkpt><trkpt lat="43.02810041972217" lon="11.41548168454403"><ele>243.99999999999997</ele><time>2026-04-11T12:22:01Z</time></trkpt><trkpt lat="43.02808367364652" lon="11.415579548931005"><ele>244.16666666666666</ele><time>2026-04-11T12:22:04Z</time></trkpt><trkpt lat="43.02803662052952" lon="11.415650313498581"><ele>244.33333333333331</ele><time>2026-04-11T12:22:07Z</time></trkpt><trkpt lat="43.027993910656654" lon="11.415738475045348"><ele>244.5</ele><time>2026-04-11T12:22:10Z</time></trkpt><trkpt lat="43.0279418300441" lon="11.415833454162234"><ele>244.66666666666669</ele><time>2026-04-11T12:22:13Z</time></trkpt><trkpt lat="43.02788155895594" lon="11.415956287976828"><ele>244.83333333333334</ele><time>2026-04-11T12:22:16Z</time></trkpt><trkpt lat="43.027833327920135" lon="11.416030919409707"><ele>245.0</ele><time>2026-04-11T12:22:19Z</time></trkpt><trkpt lat="43.02777796190789" lon="11.416123507920949"><ele>245.0</ele><time>2026-04-11T12:22:22Z</time></trkpt><trkpt lat="43.02767081905138" lon="11.416259334088208"><ele>245.0</ele><time>2026-04-11T12:22:24Z</time></trkpt><trkpt lat="43.02761350673937" lon="11.416367538027387"><ele>245.0</ele><time>2026-04-11T12:22:26Z</time></trkpt><trkpt lat="43.02755371918284" lon="11.416463063484567"><ele>245.0</ele><time>2026-04-11T12:22:28Z</time></trkpt><trkpt lat="43.02749132127424" lon="11.416575146749965"><ele>245.0</ele><time>2026-04-11T12:22:30Z</time></trkpt><trkpt lat="43.0274116297275" lon="11.41666798441475"><ele>245.00000000000003</ele><time>2026-04-11T12:22:32Z</time></trkpt><trkpt lat="43.02735080260837" lon="11.416776711050497"><ele>245.0</ele><time>2026-04-11T12:22:34Z</time></trkpt><trkpt lat="43.027294054783695" lon="11.416877116346674"><ele>245.0</ele><time>2026-04-11T12:22:36Z</time></trkpt><trkpt lat="43.02723956461541" lon="11.416971984760156"><ele>245.0</ele><time>2026-04-11T12:22:38Z</time></trkpt><trkpt lat="43.02719302483523" lon="11.417053012679228"><ele>245.00000000000003</ele><time>2026-04-11T12:22:40Z</time></trkpt><trkpt lat="43.027162275721594" lon="11.417141594617894"><ele>245.0</ele><time>2026-04-11T12:22:42Z</time></trkpt><trkpt lat="43.027104231135404" lon="11.417203809742212"><ele>245.00000000000003</ele><time>2026-04-11T12:22:44Z</time></trkpt><trkpt lat="43.02705496774982" lon="11.417284150100356"><ele>245.0</ele><time>2026-04-11T12:22:46Z</time></trkpt><trkpt lat="43.02700337412889" lon="11.417363722778896"><ele>245.0</ele><time>2026-04-11T12:22:48Z</time></trkpt><trkpt lat="43.02694724683904" lon="11.417448037647645"><ele>245.0</ele><time>2026-04-11T12:22:50Z</time></trkpt><trkpt lat="43.02688884920509" lon="11.417532329556769"><ele>245.00000000000003</ele><time>2026-04-11T12:22:52Z</time></trkpt><trkpt lat="43.02682644173978" lon="11.417619082878742"><ele>245.0</ele><time>2026-04-11T12:22:54Z</time></trkpt><trkpt lat="43.026755730785844" lon="11.417714639585288"><ele>245.0</ele><time>2026-04-11T12:22:56Z</time></trkpt><trkpt lat="43.02668707778055" lon="11.417806834049374"><ele>245.0</ele><time>2026-04-11T12:22:58Z</time></trkpt><trkpt lat="43.02663460520185" lon="11.417928961249858"><ele>245.0</ele><time>2026-04-11T12:23:00Z</time></trkpt><trkpt lat="43.026567503729474" lon="11.418022424056478"><ele>245.0</ele><time>2026-04-11T12:23:02Z</time></trkpt><trkpt lat="43.02649057270033" lon="11.418110339823485"><ele>245.0</ele><time>2026-04-11T12:23:04Z</time></trkpt><trkpt lat="43.02643121828827" lon="11.41819495326149"><ele>245.16666666666669</ele><time>2026-04-11T12:23:06Z</time></trkpt><trkpt lat="43.026387339849386" lon="11.418263385082353"><ele>245.33333333333334</ele><time>2026-04-11T12:23:09Z</time></trkpt><trkpt lat="43.02630220824245" lon="11.418366358120519"><ele>245.5</ele><time>2026-04-11T12:23:12Z</time></trkpt><trkpt lat="43.02625574266678" lon="11.418438344083304"><ele>245.66666666666669</ele><time>2026-04-11T12:23:14Z</time></trkpt><trkpt lat="43.02619218564322" lon="11.41851054383593"><ele>245.83333333333334</ele><time>2026-04-11T12:23:16Z</time></trkpt><trkpt lat="43.02612640598485" lon="11.418588372733488"><ele>246.0</ele><time>2026-04-11T12:23:18Z</time></trkpt><trkpt lat="43.02605469477524" lon="11.418684902335839"><ele>246.0</ele><time>2026-04-11T12:23:20Z</time></trkpt><trkpt lat="43.02597373517383" lon="11.418793841800742"><ele>246.0</ele><time>2026-04-11T12:23:22Z</time></trkpt><trkpt lat="43.02590249463118" lon="11.41881359762988"><ele>246.0</ele><time>2026-04-11T12:23:23Z</time></trkpt><trkpt lat="43.02585531847047" lon="11.418875081460124"><ele>246.0</ele><time>2026-04-11T12:23:24Z</time></trkpt><trkpt lat="43.02580400247912" lon="11.418941960656621"><ele>246.0</ele><time>2026-04-11T12:23:25Z</time></trkpt><trkpt lat="43.02575438203785" lon="11.419006630179906"><ele>246.0</ele><time>2026-04-11T12:23:26Z</time></trkpt><trkpt lat="43.02570420867679" lon="11.419072020177115"><ele>244.0</ele><time>2026-04-11T12:23:27Z</time></trkpt><trkpt lat="43.02565273081892" lon="11.419136481290938"><ele>242.0</ele><time>2026-04-11T12:23:28Z</time></trkpt><trkpt lat="43.025595826375245" lon="11.419207282075325"><ele>240.0</ele><time>2026-04-11T12:23:29Z</time></trkpt><trkpt lat="43.02553734725204" lon="11.419279323450326"><ele>238.0</ele><time>2026-04-11T12:23:30Z</time></trkpt><trkpt lat="43.025477728789646" lon="11.419352105036737"><ele>236.0</ele><time>2026-04-11T12:23:31Z</time></trkpt><trkpt lat="43.02541592052763" lon="11.419427559794483"><ele>234.0</ele><time>2026-04-11T12:23:32Z</time></trkpt><trkpt lat="43.02535463868264" lon="11.41950157418846"><ele>234.0</ele><time>2026-04-11T12:23:33Z</time></trkpt><trkpt lat="43.02529513863556" lon="11.419573400894633"><ele>234.0</ele><time>2026-04-11T12:23:34Z</time></trkpt><trkpt lat="43.02523644272999" lon="11.41964228449025"><ele>234.0</ele><time>2026-04-11T12:23:35Z</time></trkpt><trkpt lat="43.025175717876465" lon="11.419713260527807"><ele>234.0</ele><time>2026-04-11T12:23:36Z</time></trkpt><trkpt lat="43.025115633803026" lon="11.419783487451744"><ele>234.0</ele><time>2026-04-11T12:23:37Z</time></trkpt><trkpt lat="43.02505465168612" lon="11.419851103294162"><ele>234.0</ele><time>2026-04-11T12:23:38Z</time></trkpt><trkpt lat="43.024994083153416" lon="11.419909364387571"><ele>233.5</ele><time>2026-04-11T12:23:39Z</time></trkpt><trkpt lat="43.02492940702931" lon="11.419956633045564"><ele>233.0</ele><time>2026-04-11T12:23:40Z</time></trkpt><trkpt lat="43.024858109884924" lon="11.419994934936524"><ele>232.5</ele><time>2026-04-11T12:23:41Z</time></trkpt><trkpt lat="43.02478196618943" lon="11.420025913911443"><ele>232.0</ele><time>2026-04-11T12:23:42Z</time></trkpt><trkpt lat="43.02470282339848" lon="11.420045842477558"><ele>231.5</ele><time>2026-04-11T12:23:43Z</time></trkpt><trkpt lat="43.024623087554914" lon="11.420053232220113"><ele>231.0</ele><time>2026-04-11T12:23:44Z</time></trkpt><trkpt lat="43.02453824294" lon="11.420058671718532"><ele>231.0</ele><time>2026-04-11T12:23:45Z</time></trkpt><trkpt lat="43.02444810135679" lon="11.42006329308561"><ele>231.00000000000003</ele><time>2026-04-11T12:23:46Z</time></trkpt><trkpt lat="43.02435692238071" lon="11.42006788456044"><ele>231.00000000000003</ele><time>2026-04-11T12:23:47Z</time></trkpt><trkpt lat="43.024268385570934" lon="11.420071588665653"><ele>231.0</ele><time>2026-04-11T12:23:48Z</time></trkpt><trkpt lat="43.024175757919345" lon="11.4200754639229"><ele>231.0</ele><time>2026-04-11T12:23:49Z</time></trkpt><trkpt lat="43.02408275093117" lon="11.42007935505184"><ele>230.0</ele><time>2026-04-11T12:23:50Z</time></trkpt><trkpt lat="43.02398783933627" lon="11.420083325853101"><ele>229.00000000000003</ele><time>2026-04-11T12:23:51Z</time></trkpt><trkpt lat="43.02389125287752" lon="11.420087366732968"><ele>228.00000000000003</ele><time>2026-04-11T12:23:52Z</time></trkpt><trkpt lat="43.02379827941628" lon="11.420089002907027"><ele>227.0</ele><time>2026-04-11T12:23:53Z</time></trkpt><trkpt lat="43.023700954052124" lon="11.420085634986783"><ele>226.0</ele><time>2026-04-11T12:23:54Z</time></trkpt><trkpt lat="43.023606339516604" lon="11.420074627547503"><ele>226.0</ele><time>2026-04-11T12:23:55Z</time></trkpt><trkpt lat="43.023510732199846" lon="11.420058801052255"><ele>226.00000000000003</ele><time>2026-04-11T12:23:56Z</time></trkpt><trkpt lat="43.02341502790798" lon="11.42002493662978"><ele>226.00000000000003</ele><time>2026-04-11T12:23:57Z</time></trkpt><trkpt lat="43.02332758741726" lon="11.41997424744592"><ele>226.0</ele><time>2026-04-11T12:23:58Z</time></trkpt><trkpt lat="43.02323471986013" lon="11.419920877539084"><ele>226.0</ele><time>2026-04-11T12:23:59Z</time></trkpt><trkpt lat="43.02314536192276" lon="11.419865962617205"><ele>226.20000000000002</ele><time>2026-04-11T12:24:00Z</time></trkpt><trkpt lat="43.02305731236847" lon="11.419801336613732"><ele>226.40000000000003</ele><time>2026-04-11T12:24:01Z</time></trkpt><trkpt lat="43.02297154846833" lon="11.419733104244681"><ele>226.6</ele><time>2026-04-11T12:24:02Z</time></trkpt><trkpt lat="43.02288494894193" lon="11.419662129835956"><ele>226.8</ele><time>2026-04-11T12:24:03Z</time></trkpt><trkpt lat="43.022801953336725" lon="11.4195941104275"><ele>227.0</ele><time>2026-04-11T12:24:04Z</time></trkpt><trkpt lat="43.02271950655358" lon="11.419527548378216"><ele>226.50000000000003</ele><time>2026-04-11T12:24:05Z</time></trkpt><trkpt lat="43.022641301717805" lon="11.419464730417324"><ele>226.0</ele><time>2026-04-11T12:24:06Z</time></trkpt><trkpt lat="43.022562076682064" lon="11.419401092940182"><ele>225.5</ele><time>2026-04-11T12:24:07Z</time></trkpt><trkpt lat="43.022484899091914" lon="11.419339100128713"><ele>225.0</ele><time>2026-04-11T12:24:08Z</time></trkpt><trkpt lat="43.02241049741833" lon="11.419280116164014"><ele>224.50000000000003</ele><time>2026-04-11T12:24:09Z</time></trkpt><trkpt lat="43.02234055759953" lon="11.41922536076733"><ele>224.0</ele><time>2026-04-11T12:24:10Z</time></trkpt><trkpt lat="43.02227264441357" lon="11.419172191792322"><ele>224.0</ele><time>2026-04-11T12:24:11Z</time></trkpt><trkpt lat="43.022205953538375" lon="11.419119956972995"><ele>224.0</ele><time>2026-04-11T12:24:12Z</time></trkpt><trkpt lat="43.022142652020314" lon="11.419072764423046"><ele>224.0</ele><time>2026-04-11T12:24:13Z</time></trkpt><trkpt lat="43.02208223783866" lon="11.419027724244941"><ele>224.0</ele><time>2026-04-11T12:24:14Z</time></trkpt><trkpt lat="43.02202153377599" lon="11.418982467985602"><ele>224.0</ele><time>2026-04-11T12:24:15Z</time></trkpt><trkpt lat="43.021963703070796" lon="11.418940056149191"><ele>224.0</ele><time>2026-04-11T12:24:16Z</time></trkpt><trkpt lat="43.021907036600744" lon="11.418900719736627"><ele>224.0</ele><time>2026-04-11T12:24:17Z</time></trkpt><trkpt lat="43.02179236766666" lon="11.418832288480802"><ele>223.0</ele><time>2026-04-11T12:24:19Z</time></trkpt><trkpt lat="43.02173220756807" lon="11.418800836496066"><ele>221.99999999999997</ele><time>2026-04-11T12:24:20Z</time></trkpt><trkpt lat="43.02161893083073" lon="11.41875012686714"><ele>220.99999999999997</ele><time>2026-04-11T12:24:22Z</time></trkpt><trkpt lat="43.021514196756975" lon="11.418715008745167"><ele>220.0</ele><time>2026-04-11T12:24:24Z</time></trkpt><trkpt lat="43.0214207191525" lon="11.418683319995543"><ele>219.0</ele><time>2026-04-11T12:24:26Z</time></trkpt><trkpt lat="43.02133328573987" lon="11.418656106635025"><ele>219.0</ele><time>2026-04-11T12:24:28Z</time></trkpt><trkpt lat="43.021259624430066" lon="11.418636201225418"><ele>219.0</ele><time>2026-04-11T12:24:30Z</time></trkpt><trkpt lat="43.02118801077514" lon="11.418624304581394"><ele>219.0</ele><time>2026-04-11T12:24:32Z</time></trkpt><trkpt lat="43.0211110995808" lon="11.41862524296948"><ele>219.0</ele><time>2026-04-11T12:24:34Z</time></trkpt><trkpt lat="43.02111863404982" lon="11.418831607095083"><ele>219.0</ele><time>2026-04-11T12:24:38Z</time></trkpt><trkpt lat="43.021169319210536" lon="11.418899906175504"><ele>219.0</ele><time>2026-04-11T12:24:41Z</time></trkpt><trkpt lat="43.02120696130208" lon="11.418984410849777"><ele>220.33333333333334</ele><time>2026-04-11T12:24:44Z</time></trkpt><trkpt lat="43.02125490246382" lon="11.419065912088303"><ele>221.66666666666669</ele><time>2026-04-11T12:24:47Z</time></trkpt><trkpt lat="43.02130826701867" lon="11.419146269745506"><ele>223.0</ele><time>2026-04-11T12:24:51Z</time></trkpt><trkpt lat="43.02135446075478" lon="11.419240937346093"><ele>224.33333333333334</ele><time>2026-04-11T12:24:55Z</time></trkpt><trkpt lat="43.021401839270226" lon="11.419317996858865"><ele>225.66666666666669</ele><time>2026-04-11T12:24:59Z</time></trkpt><trkpt lat="43.02145663245309" lon="11.41938014622662"><ele>227.0</ele><time>2026-04-11T12:25:04Z</time></trkpt><trkpt lat="43.02147856894715" lon="11.419477273730557"><ele>227.0</ele><time>2026-04-11T12:25:07Z</time></trkpt><trkpt lat="43.02154370547291" lon="11.419572879039556"><ele>227.00000000000003</ele><time>2026-04-11T12:25:10Z</time></trkpt><trkpt lat="43.02158759432958" lon="11.419639203329949"><ele>227.0</ele><time>2026-04-11T12:25:12Z</time></trkpt><trkpt lat="43.02162964732996" lon="11.419707511589861"><ele>227.0</ele><time>2026-04-11T12:25:14Z</time></trkpt><trkpt lat="43.02167000892487" lon="11.419775193187096"><ele>227.00000000000003</ele><time>2026-04-11T12:25:16Z</time></trkpt><trkpt lat="43.02170451498466" lon="11.419848459135755"><ele>227.0</ele><time>2026-04-11T12:25:18Z</time></trkpt><trkpt lat="43.02175343941506" lon="11.419923260210853"><ele>227.0</ele><time>2026-04-11T12:25:21Z</time></trkpt><trkpt lat="43.02181215447206" lon="11.420002223578392"><ele>227.83333333333334</ele><time>2026-04-11T12:25:24Z</time></trkpt><trkpt lat="43.02185139996757" lon="11.42008703323701"><ele>228.66666666666669</ele><time>2026-04-11T12:25:26Z</time></trkpt><trkpt lat="43.021889185169954" lon="11.420174372737987"><ele>229.5</ele><time>2026-04-11T12:25:28Z</time></trkpt><trkpt lat="43.02192825503317" lon="11.420246915115534"><ele>230.33333333333331</ele><time>2026-04-11T12:25:30Z</time></trkpt><trkpt lat="43.02197725238496" lon="11.420348118136433"><ele>231.16666666666666</ele><time>2026-04-11T12:25:32Z</time></trkpt><trkpt lat="43.02203315125246" lon="11.420446052175008"><ele>232.0</ele><time>2026-04-11T12:25:35Z</time></trkpt><trkpt lat="43.022097866573375" lon="11.42053433381175"><ele>231.99999999999997</ele><time>2026-04-11T12:25:38Z</time></trkpt><trkpt lat="43.022131450940876" lon="11.420612087596634"><ele>232.0</ele><time>2026-04-11T12:25:40Z</time></trkpt><trkpt lat="43.02217518516697" lon="11.4206912748005"><ele>232.0</ele><time>2026-04-11T12:25:42Z</time></trkpt><trkpt lat="43.02222370925114" lon="11.420786801108996"><ele>232.0</ele><time>2026-04-11T12:25:44Z</time></trkpt><trkpt lat="43.02226625092734" lon="11.420889716365892"><ele>231.99999999999997</ele><time>2026-04-11T12:25:46Z</time></trkpt><trkpt lat="43.022300122435595" lon="11.421017982229662"><ele>232.0</ele><time>2026-04-11T12:25:48Z</time></trkpt><trkpt lat="43.02231263935791" lon="11.421156768679399"><ele>230.0</ele><time>2026-04-11T12:25:50Z</time></trkpt><trkpt lat="43.02230804248031" lon="11.421317075646975"><ele>228.0</ele><time>2026-04-11T12:25:52Z</time></trkpt><trkpt lat="43.022267244575566" lon="11.42148238085459"><ele>226.0</ele><time>2026-04-11T12:25:54Z</time></trkpt><trkpt lat="43.0222348404332" lon="11.421574323408999"><ele>224.0</ele><time>2026-04-11T12:25:55Z</time></trkpt><trkpt lat="43.02219577811795" lon="11.42166923210629"><ele>222.0</ele><time>2026-04-11T12:25:56Z</time></trkpt><trkpt lat="43.02215189439386" lon="11.421768553132797"><ele>222.0</ele><time>2026-04-11T12:25:57Z</time></trkpt><trkpt lat="43.02210363667348" lon="11.421872685868665"><ele>222.0</ele><time>2026-04-11T12:25:58Z</time></trkpt><trkpt lat="43.02205845391479" lon="11.42197725209084"><ele>222.0</ele><time>2026-04-11T12:25:59Z</time></trkpt><trkpt lat="43.0219948994637" lon="11.422077534675402"><ele>222.0</ele><time>2026-04-11T12:26:00Z</time></trkpt><trkpt lat="43.0219434187127" lon="11.422194788490172"><ele>222.0</ele><time>2026-04-11T12:26:01Z</time></trkpt><trkpt lat="43.02189005216557" lon="11.422321728981721"><ele>220.8</ele><time>2026-04-11T12:26:02Z</time></trkpt><trkpt lat="43.02183715073978" lon="11.42244756279406"><ele>219.6</ele><time>2026-04-11T12:26:03Z</time></trkpt><trkpt lat="43.021795854823004" lon="11.422588125729312"><ele>218.40000000000003</ele><time>2026-04-11T12:26:04Z</time></trkpt><trkpt lat="43.02174253054195" lon="11.422717111896022"><ele>217.20000000000002</ele><time>2026-04-11T12:26:05Z</time></trkpt><trkpt lat="43.02169047620795" lon="11.422844481305985"><ele>216.0</ele><time>2026-04-11T12:26:06Z</time></trkpt><trkpt lat="43.02163009881774" lon="11.42296521741361"><ele>215.4</ele><time>2026-04-11T12:26:07Z</time></trkpt><trkpt lat="43.02158136463272" lon="11.423084296825685"><ele>214.8</ele><time>2026-04-11T12:26:08Z</time></trkpt><trkpt lat="43.021536495784254" lon="11.423204475200217"><ele>214.20000000000002</ele><time>2026-04-11T12:26:09Z</time></trkpt><trkpt lat="43.02148545729679" lon="11.423313165580126"><ele>213.60000000000002</ele><time>2026-04-11T12:26:10Z</time></trkpt><trkpt lat="43.02143846648979" lon="11.42342288315279"><ele>213.0</ele><time>2026-04-11T12:26:11Z</time></trkpt><trkpt lat="43.02139078511265" lon="11.42352508579881"><ele>213.0</ele><time>2026-04-11T12:26:12Z</time></trkpt><trkpt lat="43.021340849047675" lon="11.423624465675159"><ele>213.0</ele><time>2026-04-11T12:26:13Z</time></trkpt><trkpt lat="43.021286241757295" lon="11.423717828374397"><ele>213.0</ele><time>2026-04-11T12:26:14Z</time></trkpt><trkpt lat="43.021218125264085" lon="11.423790858966411"><ele>213.0</ele><time>2026-04-11T12:26:15Z</time></trkpt><trkpt lat="43.021166732839205" lon="11.423883479626932"><ele>213.0</ele><time>2026-04-11T12:26:16Z</time></trkpt><trkpt lat="43.0211101072197" lon="11.42395706272317"><ele>213.0</ele><time>2026-04-11T12:26:17Z</time></trkpt><trkpt lat="43.021056725487306" lon="11.424031295334814"><ele>213.83333333333334</ele><time>2026-04-11T12:26:18Z</time></trkpt><trkpt lat="43.020989977957264" lon="11.424076235452864"><ele>214.66666666666669</ele><time>2026-04-11T12:26:19Z</time></trkpt><trkpt lat="43.0209362699787" lon="11.424135559983133"><ele>215.5</ele><time>2026-04-11T12:26:20Z</time></trkpt><trkpt lat="43.020886455126956" lon="11.424190584371464"><ele>216.33333333333334</ele><time>2026-04-11T12:26:21Z</time></trkpt><trkpt lat="43.020796850167876" lon="11.424289559585233"><ele>217.16666666666669</ele><time>2026-04-11T12:26:23Z</time></trkpt><trkpt lat="43.020725520563296" lon="11.424368222214463"><ele>218.0</ele><time>2026-04-11T12:26:25Z</time></trkpt><trkpt lat="43.020673078036026" lon="11.42442642770471"><ele>218.16666666666669</ele><time>2026-04-11T12:26:27Z</time></trkpt><trkpt lat="43.020601522751925" lon="11.424509547689357"><ele>218.33333333333334</ele><time>2026-04-11T12:26:30Z</time></trkpt><trkpt lat="43.02054987647257" lon="11.424570196440419"><ele>218.5</ele><time>2026-04-11T12:26:32Z</time></trkpt><trkpt lat="43.02049909607442" lon="11.424632530490832"><ele>218.66666666666669</ele><time>2026-04-11T12:26:34Z</time></trkpt><trkpt lat="43.02044719364745" lon="11.424699977983629"><ele>218.83333333333334</ele><time>2026-04-11T12:26:37Z</time></trkpt><trkpt lat="43.020379278737295" lon="11.424789276019805"><ele>219.0</ele><time>2026-04-11T12:26:40Z</time></trkpt><trkpt lat="43.02032576052965" lon="11.424863300764642"><ele>220.33333333333334</ele><time>2026-04-11T12:26:42Z</time></trkpt><trkpt lat="43.02030365893787" lon="11.424952422043926"><ele>221.66666666666669</ele><time>2026-04-11T12:26:44Z</time></trkpt><trkpt lat="43.02024545713266" lon="11.425052255567008"><ele>223.0</ele><time>2026-04-11T12:26:47Z</time></trkpt><trkpt lat="43.02019364308183" lon="11.425154715196806"><ele>224.33333333333334</ele><time>2026-04-11T12:26:50Z</time></trkpt><trkpt lat="43.02014804216505" lon="11.425254042606714"><ele>225.66666666666669</ele><time>2026-04-11T12:26:53Z</time></trkpt><trkpt lat="43.020106053470535" lon="11.425353302212248"><ele>227.0</ele><time>2026-04-11T12:26:56Z</time></trkpt><trkpt lat="43.020067757499305" lon="11.425443055463257"><ele>228.50000000000003</ele><time>2026-04-11T12:26:59Z</time></trkpt><trkpt lat="43.020026077256134" lon="11.425530375893024"><ele>230.0</ele><time>2026-04-11T12:27:02Z</time></trkpt><trkpt lat="43.01997868321687" lon="11.425621493718161"><ele>231.5</ele><time>2026-04-11T12:27:05Z</time></trkpt><trkpt lat="43.01993910939976" lon="11.425723394408001"><ele>233.0</ele><time>2026-04-11T12:27:09Z</time></trkpt><trkpt lat="43.01990729894734" lon="11.425812443552253"><ele>234.50000000000003</ele><time>2026-04-11T12:27:12Z</time></trkpt><trkpt lat="43.019871599967715" lon="11.425903248425044"><ele>236.0</ele><time>2026-04-11T12:27:15Z</time></trkpt><trkpt lat="43.01984335948099" lon="11.425990807509791"><ele>236.57142857142856</ele><time>2026-04-11T12:27:18Z</time></trkpt><trkpt lat="43.01981684814137" lon="11.426071013019994"><ele>237.14285714285717</ele><time>2026-04-11T12:27:21Z</time></trkpt><trkpt lat="43.01978041382699" lon="11.426152284837357"><ele>237.71428571428572</ele><time>2026-04-11T12:27:24Z</time></trkpt><trkpt lat="43.01973449659142" lon="11.426231532883085"><ele>238.28571428571428</ele><time>2026-04-11T12:27:27Z</time></trkpt><trkpt lat="43.0196939252702" lon="11.42632196067248"><ele>238.85714285714283</ele><time>2026-04-11T12:27:30Z</time></trkpt><trkpt lat="43.01966006611518" lon="11.426406254073791"><ele>239.42857142857144</ele><time>2026-04-11T12:27:33Z</time></trkpt><trkpt lat="43.01961369308841" lon="11.426484463739207"><ele>240.0</ele><time>2026-04-11T12:27:36Z</time></trkpt><trkpt lat="43.01958134915918" lon="11.426561073924873"><ele>240.57142857142858</ele><time>2026-04-11T12:27:39Z</time></trkpt><trkpt lat="43.01954775673579" lon="11.426643401497081"><ele>241.1428571428571</ele><time>2026-04-11T12:27:42Z</time></trkpt><trkpt lat="43.01951894200366" lon="11.42672612668619"><ele>241.7142857142857</ele><time>2026-04-11T12:27:45Z</time></trkpt><trkpt lat="43.01948766238726" lon="11.426804181478488"><ele>242.28571428571428</ele><time>2026-04-11T12:27:48Z</time></trkpt><trkpt lat="43.0194460087517" lon="11.426899762791852"><ele>242.85714285714283</ele><time>2026-04-11T12:27:52Z</time></trkpt><trkpt lat="43.019407989018724" lon="11.426977675363812"><ele>243.4285714285714</ele><time>2026-04-11T12:27:55Z</time></trkpt><trkpt lat="43.01937030593923" lon="11.42704971489292"><ele>243.99999999999997</ele><time>2026-04-11T12:27:58Z</time></trkpt><trkpt lat="43.019320745796435" lon="11.427153113815715"><ele>244.99999999999997</ele><time>2026-04-11T12:28:02Z</time></trkpt><trkpt lat="43.01928785232126" lon="11.427235360078427"><ele>246.0</ele><time>2026-04-11T12:28:06Z</time></trkpt><trkpt lat="43.01925113960032" lon="11.42733819334999"><ele>247.0</ele><time>2026-04-11T12:28:10Z</time></trkpt><trkpt lat="43.01920850416475" lon="11.427429744052889"><ele>248.0</ele><time>2026-04-11T12:28:14Z</time></trkpt><trkpt lat="43.019163299552815" lon="11.427522665554891"><ele>248.99999999999997</ele><time>2026-04-11T12:28:18Z</time></trkpt><trkpt lat="43.0191166529747" lon="11.427614233067619"><ele>250.0</ele><time>2026-04-11T12:28:22Z</time></trkpt><trkpt lat="43.01907448667915" lon="11.427688224882582"><ele>250.33333333333331</ele><time>2026-04-11T12:28:25Z</time></trkpt><trkpt lat="43.01906789980057" lon="11.42778304796895"><ele>250.66666666666666</ele><time>2026-04-11T12:28:28Z</time></trkpt><trkpt lat="43.01902797993481" lon="11.427862625136276"><ele>251.0</ele><time>2026-04-11T12:28:31Z</time></trkpt><trkpt lat="43.018988659005785" lon="11.427963724047038"><ele>251.33333333333331</ele><time>2026-04-11T12:28:34Z</time></trkpt><trkpt lat="43.01895442178637" lon="11.428052253170009"><ele>251.66666666666666</ele><time>2026-04-11T12:28:37Z</time></trkpt><trkpt lat="43.01891931026218" lon="11.42814890631618"><ele>252.0</ele><time>2026-04-11T12:28:40Z</time></trkpt><trkpt lat="43.018886624635755" lon="11.428248740465996"><ele>252.0</ele><time>2026-04-11T12:28:43Z</time></trkpt><trkpt lat="43.01884472015819" lon="11.42834959152799"><ele>252.0</ele><time>2026-04-11T12:28:46Z</time></trkpt><trkpt lat="43.01880283252443" lon="11.42845261700504"><ele>252.0</ele><time>2026-04-11T12:28:49Z</time></trkpt><trkpt lat="43.01875790166261" lon="11.428574320297125"><ele>252.0</ele><time>2026-04-11T12:28:52Z</time></trkpt><trkpt lat="43.01873456217705" lon="11.428678892223529"><ele>252.0</ele><time>2026-04-11T12:28:55Z</time></trkpt><trkpt lat="43.01873502563553" lon="11.42877588203902"><ele>252.0</ele><time>2026-04-11T12:28:58Z</time></trkpt><trkpt lat="43.018709986364065" lon="11.42888824793927"><ele>251.33333333333331</ele><time>2026-04-11T12:29:01Z</time></trkpt><trkpt lat="43.01854605331551" lon="11.429201172484037"><ele>250.66666666666666</ele><time>2026-04-11T12:29:03Z</time></trkpt><trkpt lat="43.01850159825975" lon="11.429354035594752"><ele>250.0</ele><time>2026-04-11T12:29:05Z</time></trkpt><trkpt lat="43.018475683047534" lon="11.42943513452643"><ele>250.0</ele><time>2026-04-11T12:29:06Z</time></trkpt><trkpt lat="43.01844873860448" lon="11.42952146651704"><ele>250.0</ele><time>2026-04-11T12:29:07Z</time></trkpt><trkpt lat="43.01842134259203" lon="11.429608775432252"><ele>250.0</ele><time>2026-04-11T12:29:08Z</time></trkpt><trkpt lat="43.01839544403427" lon="11.429697927838921"><ele>250.0</ele><time>2026-04-11T12:29:09Z</time></trkpt><trkpt lat="43.01837173643874" lon="11.429797410641592"><ele>250.0</ele><time>2026-04-11T12:29:10Z</time></trkpt><trkpt lat="43.01834667135061" lon="11.429896500394872"><ele>250.0</ele><time>2026-04-11T12:29:11Z</time></trkpt><trkpt lat="43.018316540020734" lon="11.43000355261012"><ele>250.0</ele><time>2026-04-11T12:29:12Z</time></trkpt><trkpt lat="43.01827788817828" lon="11.43010973240297"><ele>249.66666666666666</ele><time>2026-04-11T12:29:13Z</time></trkpt><trkpt lat="43.01825137537737" lon="11.430219476939952"><ele>249.33333333333331</ele><time>2026-04-11T12:29:14Z</time></trkpt><trkpt lat="43.0182158457612" lon="11.430322120128153"><ele>249.0</ele><time>2026-04-11T12:29:15Z</time></trkpt><trkpt lat="43.018185409531874" lon="11.430429436193506"><ele>248.66666666666669</ele><time>2026-04-11T12:29:16Z</time></trkpt><trkpt lat="43.018159505276905" lon="11.430547943563337"><ele>248.33333333333334</ele><time>2026-04-11T12:29:17Z</time></trkpt><trkpt lat="43.01812520290274" lon="11.430659957854425"><ele>248.0</ele><time>2026-04-11T12:29:18Z</time></trkpt><trkpt lat="43.01809811675487" lon="11.430775629575"><ele>246.8</ele><time>2026-04-11T12:29:19Z</time></trkpt><trkpt lat="43.018060675989155" lon="11.43088903701807"><ele>245.60000000000002</ele><time>2026-04-11T12:29:20Z</time></trkpt><trkpt lat="43.01801896526961" lon="11.43103093898267"><ele>244.39999999999998</ele><time>2026-04-11T12:29:21Z</time></trkpt><trkpt lat="43.01798439026815" lon="11.431152623221493"><ele>243.2</ele><time>2026-04-11T12:29:22Z</time></trkpt><trkpt lat="43.01794935800857" lon="11.431277353370628"><ele>242.0</ele><time>2026-04-11T12:29:23Z</time></trkpt><trkpt lat="43.01791238359536" lon="11.431401113484071"><ele>241.39999999999998</ele><time>2026-04-11T12:29:24Z</time></trkpt><trkpt lat="43.017877986616284" lon="11.431528280127232"><ele>240.79999999999998</ele><time>2026-04-11T12:29:25Z</time></trkpt><trkpt lat="43.01783918746798" lon="11.431655919002793"><ele>240.2</ele><time>2026-04-11T12:29:26Z</time></trkpt><trkpt lat="43.01779543240402" lon="11.431778106194772"><ele>239.6</ele><time>2026-04-11T12:29:27Z</time></trkpt><trkpt lat="43.01776325207927" lon="11.431905120324878"><ele>239.0</ele><time>2026-04-11T12:29:28Z</time></trkpt><trkpt lat="43.017724211948526" lon="11.432028559925723"><ele>239.00000000000003</ele><time>2026-04-11T12:29:29Z</time></trkpt><trkpt lat="43.01769008326778" lon="11.432148391197924"><ele>239.0</ele><time>2026-04-11T12:29:30Z</time></trkpt><trkpt lat="43.01765835987508" lon="11.432266273151415"><ele>239.0</ele><time>2026-04-11T12:29:31Z</time></trkpt><trkpt lat="43.017620998765516" lon="11.43237311881634"><ele>239.0</ele><time>2026-04-11T12:29:32Z</time></trkpt><trkpt lat="43.01758893259414" lon="11.43248550763101"><ele>239.00000000000003</ele><time>2026-04-11T12:29:33Z</time></trkpt><trkpt lat="43.01756142413086" lon="11.432592043696177"><ele>239.0</ele><time>2026-04-11T12:29:34Z</time></trkpt><trkpt lat="43.017530839046096" lon="11.432695788192241"><ele>239.00000000000003</ele><time>2026-04-11T12:29:35Z</time></trkpt><trkpt lat="43.01750769194119" lon="11.432798879059625"><ele>239.0</ele><time>2026-04-11T12:29:36Z</time></trkpt><trkpt lat="43.017475218147155" lon="11.43289818188863"><ele>239.00000000000003</ele><time>2026-04-11T12:29:37Z</time></trkpt><trkpt lat="43.01744492478819" lon="11.43299771725507"><ele>239.00000000000003</ele><time>2026-04-11T12:29:38Z</time></trkpt><trkpt lat="43.01741976383759" lon="11.433086183334956"><ele>239.0</ele><time>2026-04-11T12:29:39Z</time></trkpt><trkpt lat="43.01739235665339" lon="11.433176797125276"><ele>239.00000000000003</ele><time>2026-04-11T12:29:40Z</time></trkpt><trkpt lat="43.01736631266399" lon="11.433262731151853"><ele>239.00000000000003</ele><time>2026-04-11T12:29:41Z</time></trkpt><trkpt lat="43.01734358677263" lon="11.433349429910685"><ele>239.66666666666669</ele><time>2026-04-11T12:29:42Z</time></trkpt><trkpt lat="43.017319789643096" lon="11.433435406935095"><ele>240.33333333333334</ele><time>2026-04-11T12:29:43Z</time></trkpt><trkpt lat="43.01729748088623" lon="11.433516579112371"><ele>241.0</ele><time>2026-04-11T12:29:44Z</time></trkpt><trkpt lat="43.017250554173266" lon="11.433661951127375"><ele>241.66666666666669</ele><time>2026-04-11T12:29:46Z</time></trkpt><trkpt lat="43.017215141417665" lon="11.43379250918306"><ele>242.33333333333334</ele><time>2026-04-11T12:29:48Z</time></trkpt><trkpt lat="43.017184384140954" lon="11.433901109212252"><ele>243.0</ele><time>2026-04-11T12:29:50Z</time></trkpt><trkpt lat="43.01715442518002" lon="11.433997685637895"><ele>243.85714285714283</ele><time>2026-04-11T12:29:52Z</time></trkpt><trkpt lat="43.01711954162774" lon="11.434092316221598"><ele>244.71428571428572</ele><time>2026-04-11T12:29:54Z</time></trkpt><trkpt lat="43.01709899531292" lon="11.434186926371538"><ele>245.57142857142856</ele><time>2026-04-11T12:29:56Z</time></trkpt><trkpt lat="43.01707356323052" lon="11.43427511902142"><ele>246.42857142857142</ele><time>2026-04-11T12:29:58Z</time></trkpt><trkpt lat="43.01703961903956" lon="11.434363857866044"><ele>247.28571428571428</ele><time>2026-04-11T12:30:00Z</time></trkpt><trkpt lat="43.017008145929424" lon="11.434456759759273"><ele>248.14285714285714</ele><time>2026-04-11T12:30:02Z</time></trkpt><trkpt lat="43.016993714888365" lon="11.434546561873471"><ele>249.0</ele><time>2026-04-11T12:30:05Z</time></trkpt><trkpt lat="43.01696203202419" lon="11.434652939767837"><ele>249.33333333333334</ele><time>2026-04-11T12:30:08Z</time></trkpt><trkpt lat="43.01691532763676" lon="11.43475829760902"><ele>249.66666666666669</ele><time>2026-04-11T12:30:11Z</time></trkpt><trkpt lat="43.01687989118212" lon="11.434876696344958"><ele>250.0</ele><time>2026-04-11T12:30:14Z</time></trkpt><trkpt lat="43.01684945648358" lon="11.434978383400171"><ele>250.33333333333334</ele><time>2026-04-11T12:30:17Z</time></trkpt><trkpt lat="43.01681817045919" lon="11.435082914785808"><ele>250.66666666666669</ele><time>2026-04-11T12:30:20Z</time></trkpt><trkpt lat="43.01681368037859" lon="11.435191360559376"><ele>251.0</ele><time>2026-04-11T12:30:23Z</time></trkpt><trkpt lat="43.01679148323287" lon="11.43527858282946"><ele>250.99999999999997</ele><time>2026-04-11T12:30:26Z</time></trkpt><trkpt lat="43.01676577402676" lon="11.435364262803056"><ele>251.0</ele><time>2026-04-11T12:30:29Z</time></trkpt><trkpt lat="43.01674251343047" lon="11.435450269496316"><ele>250.99999999999997</ele><time>2026-04-11T12:30:32Z</time></trkpt><trkpt lat="43.016713522099316" lon="11.435533039409135"><ele>250.99999999999997</ele><time>2026-04-11T12:30:35Z</time></trkpt><trkpt lat="43.01669311708402" lon="11.435621896005433"><ele>251.0</ele><time>2026-04-11T12:30:38Z</time></trkpt><trkpt lat="43.01666547405372" lon="11.435704360532837"><ele>250.99999999999997</ele><time>2026-04-11T12:30:41Z</time></trkpt><trkpt lat="43.01663991657853" lon="11.435792139427884"><ele>250.99999999999997</ele><time>2026-04-11T12:30:44Z</time></trkpt><trkpt lat="43.016608999390165" lon="11.435890437996155"><ele>251.71428571428567</ele><time>2026-04-11T12:30:47Z</time></trkpt><trkpt lat="43.016579576393276" lon="11.435968149910236"><ele>252.42857142857142</ele><time>2026-04-11T12:30:50Z</time></trkpt><trkpt lat="43.01655273864944" lon="11.436052126270036"><ele>253.1428571428571</ele><time>2026-04-11T12:30:53Z</time></trkpt><trkpt lat="43.01653111521196" lon="11.436141621499683"><ele>253.85714285714283</ele><time>2026-04-11T12:30:56Z</time></trkpt><trkpt lat="43.01650556518655" lon="11.436236182046544"><ele>254.57142857142856</ele><time>2026-04-11T12:30:59Z</time></trkpt><trkpt lat="43.01647805062733" lon="11.436338913242018"><ele>255.28571428571428</ele><time>2026-04-11T12:31:03Z</time></trkpt><trkpt lat="43.01645668874942" lon="11.436425465470773"><ele>256.0</ele><time>2026-04-11T12:31:06Z</time></trkpt><trkpt lat="43.01643490157333" lon="11.436515283532826"><ele>256.5</ele><time>2026-04-11T12:31:09Z</time></trkpt><trkpt lat="43.016402159537776" lon="11.436590737614424"><ele>257.0</ele><time>2026-04-11T12:31:12Z</time></trkpt><trkpt lat="43.016370821340615" lon="11.4366930865692"><ele>257.5</ele><time>2026-04-11T12:31:16Z</time></trkpt><trkpt lat="43.016348769647315" lon="11.436778009543376"><ele>258.0</ele><time>2026-04-11T12:31:19Z</time></trkpt><trkpt lat="43.01632715914536" lon="11.436874993656625"><ele>258.5</ele><time>2026-04-11T12:31:23Z</time></trkpt><trkpt lat="43.01628335766419" lon="11.43697857505788"><ele>259.0</ele><time>2026-04-11T12:31:27Z</time></trkpt><trkpt lat="43.016258670170544" lon="11.4370780086991"><ele>259.85714285714283</ele><time>2026-04-11T12:31:30Z</time></trkpt><trkpt lat="43.016236023146405" lon="11.437161014164918"><ele>260.7142857142857</ele><time>2026-04-11T12:31:33Z</time></trkpt><trkpt lat="43.01621511586173" lon="11.437243652808837"><ele>261.57142857142856</ele><time>2026-04-11T12:31:36Z</time></trkpt><trkpt lat="43.01618662396226" lon="11.437324100959463"><ele>262.42857142857144</ele><time>2026-04-11T12:31:39Z</time></trkpt><trkpt lat="43.016162798610246" lon="11.437422880316142"><ele>263.2857142857143</ele><time>2026-04-11T12:31:42Z</time></trkpt><trkpt lat="43.016136959118796" lon="11.437520904787881"><ele>264.1428571428571</ele><time>2026-04-11T12:31:45Z</time></trkpt><trkpt lat="43.01610873907112" lon="11.437607589344811"><ele>265.0</ele><time>2026-04-11T12:31:48Z</time></trkpt><trkpt lat="43.01607909144504" lon="11.437689586991958"><ele>264.99999999999994</ele><time>2026-04-11T12:31:51Z</time></trkpt><trkpt lat="43.01605804437524" lon="11.437776006643904"><ele>265.0</ele><time>2026-04-11T12:31:54Z</time></trkpt><trkpt lat="43.01603648832693" lon="11.437858825767078"><ele>265.0</ele><time>2026-04-11T12:31:57Z</time></trkpt><trkpt lat="43.016012860818414" lon="11.43793876562359"><ele>265.0</ele><time>2026-04-11T12:32:00Z</time></trkpt><trkpt lat="43.01599339038087" lon="11.438020708844052"><ele>265.0</ele><time>2026-04-11T12:32:03Z</time></trkpt><trkpt lat="43.015965537812676" lon="11.438105519947905"><ele>264.99999999999994</ele><time>2026-04-11T12:32:06Z</time></trkpt><trkpt lat="43.01593180195587" lon="11.438211518208158"><ele>265.0</ele><time>2026-04-11T12:32:10Z</time></trkpt><trkpt lat="43.01590206849647" lon="11.43829375660746"><ele>265.71428571428567</ele><time>2026-04-11T12:32:13Z</time></trkpt><trkpt lat="43.01588200005509" lon="11.438379475036411"><ele>266.42857142857144</ele><time>2026-04-11T12:32:16Z</time></trkpt><trkpt lat="43.0158588109983" lon="11.438464572314565"><ele>267.1428571428571</ele><time>2026-04-11T12:32:19Z</time></trkpt><trkpt lat="43.015822123122526" lon="11.438545711680565"><ele>267.85714285714283</ele><time>2026-04-11T12:32:22Z</time></trkpt><trkpt lat="43.01579041390328" lon="11.43862934429842"><ele>268.57142857142856</ele><time>2026-04-11T12:32:25Z</time></trkpt><trkpt lat="43.01574385545833" lon="11.43869944514461"><ele>269.2857142857143</ele><time>2026-04-11T12:32:28Z</time></trkpt><trkpt lat="43.01568619618619" lon="11.438738835338178"><ele>270.0</ele><time>2026-04-11T12:32:31Z</time></trkpt><trkpt lat="43.01562118152473" lon="11.438730681276935"><ele>270.57142857142856</ele><time>2026-04-11T12:32:34Z</time></trkpt><trkpt lat="43.01556701882925" lon="11.438680216344487"><ele>271.1428571428571</ele><time>2026-04-11T12:32:37Z</time></trkpt><trkpt lat="43.015520851575445" lon="11.438610218648739"><ele>271.7142857142857</ele><time>2026-04-11T12:32:40Z</time></trkpt><trkpt lat="43.01548324354103" lon="11.438523620340888"><ele>272.2857142857143</ele><time>2026-04-11T12:32:43Z</time></trkpt><trkpt lat="43.015430086915856" lon="11.438415182214417"><ele>272.8571428571429</ele><time>2026-04-11T12:32:45Z</time></trkpt><trkpt lat="43.01539304518891" lon="11.438341688720907"><ele>273.42857142857144</ele><time>2026-04-11T12:32:47Z</time></trkpt><trkpt lat="43.0153504777228" lon="11.438261939869763"><ele>274.0</ele><time>2026-04-11T12:32:49Z</time></trkpt><trkpt lat="43.01531166619775" lon="11.438193968235097"><ele>274.0</ele><time>2026-04-11T12:32:51Z</time></trkpt><trkpt lat="43.01525451653669" lon="11.43808274681844"><ele>274.0</ele><time>2026-04-11T12:32:54Z</time></trkpt><trkpt lat="43.015199787791154" lon="11.437997492538052"><ele>274.0</ele><time>2026-04-11T12:32:56Z</time></trkpt><trkpt lat="43.01515673918341" lon="11.437879625298464"><ele>274.0</ele><time>2026-04-11T12:32:58Z</time></trkpt><trkpt lat="43.01509977926146" lon="11.437744943195904"><ele>274.0</ele><time>2026-04-11T12:33:00Z</time></trkpt><trkpt lat="43.015064876569724" lon="11.437583925711357"><ele>273.14285714285717</ele><time>2026-04-11T12:33:02Z</time></trkpt><trkpt lat="43.01503789939475" lon="11.437503680058871"><ele>272.2857142857143</ele><time>2026-04-11T12:33:03Z</time></trkpt><trkpt lat="43.01499763158142" lon="11.437418952946272"><ele>271.42857142857144</ele><time>2026-04-11T12:33:04Z</time></trkpt><trkpt lat="43.014989490650244" lon="11.437322250499609"><ele>270.57142857142856</ele><time>2026-04-11T12:33:05Z</time></trkpt><trkpt lat="43.01496850870759" lon="11.437220769390983"><ele>269.7142857142857</ele><time>2026-04-11T12:33:06Z</time></trkpt><trkpt lat="43.01495239133832" lon="11.437121200190825"><ele>268.8571428571429</ele><time>2026-04-11T12:33:07Z</time></trkpt><trkpt lat="43.014939867180985" lon="11.43701467848566"><ele>268.0</ele><time>2026-04-11T12:33:08Z</time></trkpt><trkpt lat="43.01493141900778" lon="11.436906208111479"><ele>266.5</ele><time>2026-04-11T12:33:09Z</time></trkpt><trkpt lat="43.014924007578145" lon="11.436798011398473"><ele>265.0</ele><time>2026-04-11T12:33:10Z</time></trkpt><trkpt lat="43.01490336379827" lon="11.436693175838016"><ele>263.5</ele><time>2026-04-11T12:33:11Z</time></trkpt><trkpt lat="43.01489460171081" lon="11.436583252353852"><ele>262.0</ele><time>2026-04-11T12:33:12Z</time></trkpt><trkpt lat="43.014889896287116" lon="11.436475198486846"><ele>260.5</ele><time>2026-04-11T12:33:13Z</time></trkpt><trkpt lat="43.01488463566066" lon="11.436369790975489"><ele>259.0</ele><time>2026-04-11T12:33:14Z</time></trkpt><trkpt lat="43.01488328295674" lon="11.436255113872685"><ele>258.66666666666663</ele><time>2026-04-11T12:33:15Z</time></trkpt><trkpt lat="43.014876888140904" lon="11.436144435479815"><ele>258.3333333333333</ele><time>2026-04-11T12:33:16Z</time></trkpt><trkpt lat="43.01487271309696" lon="11.436032771691226"><ele>258.0</ele><time>2026-04-11T12:33:17Z</time></trkpt><trkpt lat="43.01487064490843" lon="11.435922876357665"><ele>257.6666666666667</ele><time>2026-04-11T12:33:18Z</time></trkpt><trkpt lat="43.01486698414059" lon="11.43580850410842"><ele>257.33333333333337</ele><time>2026-04-11T12:33:19Z</time></trkpt><trkpt lat="43.01486007365866" lon="11.435699110510896"><ele>257.0</ele><time>2026-04-11T12:33:20Z</time></trkpt><trkpt lat="43.01485803585345" lon="11.435596508985748"><ele>257.0</ele><time>2026-04-11T12:33:21Z</time></trkpt><trkpt lat="43.01485796129819" lon="11.435508367319857"><ele>257.0</ele><time>2026-04-11T12:33:22Z</time></trkpt><trkpt lat="43.0148526694761" lon="11.435352609325692"><ele>257.0</ele><time>2026-04-11T12:33:24Z</time></trkpt><trkpt lat="43.014843468347934" lon="11.43522003905046"><ele>257.0</ele><time>2026-04-11T12:33:26Z</time></trkpt><trkpt lat="43.014825145260495" lon="11.435103629655307"><ele>257.0</ele><time>2026-04-11T12:33:28Z</time></trkpt><trkpt lat="43.014803798555675" lon="11.434951298875434"><ele>256.83333333333337</ele><time>2026-04-11T12:33:30Z</time></trkpt><trkpt lat="43.0147920514842" lon="11.43486352812094"><ele>256.6666666666667</ele><time>2026-04-11T12:33:31Z</time></trkpt><trkpt lat="43.01478192095961" lon="11.434767489348284"><ele>256.5</ele><time>2026-04-11T12:33:32Z</time></trkpt><trkpt lat="43.01476893701011" lon="11.43466292782695"><ele>256.3333333333333</ele><time>2026-04-11T12:33:33Z</time></trkpt><trkpt lat="43.01475173953806" lon="11.434558739768624"><ele>256.16666666666663</ele><time>2026-04-11T12:33:34Z</time></trkpt><trkpt lat="43.01473439417015" lon="11.434451225308557"><ele>256.0</ele><time>2026-04-11T12:33:35Z</time></trkpt><trkpt lat="43.01471839230008" lon="11.434343553928965"><ele>255.83333333333331</ele><time>2026-04-11T12:33:36Z</time></trkpt><trkpt lat="43.01470391843018" lon="11.43423550554195"><ele>255.66666666666666</ele><time>2026-04-11T12:33:37Z</time></trkpt><trkpt lat="43.014694363553176" lon="11.434125744212563"><ele>255.5</ele><time>2026-04-11T12:33:38Z</time></trkpt><trkpt lat="43.01469321857768" lon="11.4340118175915"><ele>255.33333333333331</ele><time>2026-04-11T12:33:39Z</time></trkpt><trkpt lat="43.01469485111715" lon="11.433902941206085"><ele>255.16666666666666</ele><time>2026-04-11T12:33:40Z</time></trkpt><trkpt lat="43.014706547096914" lon="11.43379641537937"><ele>255.0</ele><time>2026-04-11T12:33:41Z</time></trkpt><trkpt lat="43.014732414820486" lon="11.433693404953733"><ele>254.33333333333334</ele><time>2026-04-11T12:33:42Z</time></trkpt><trkpt lat="43.014780351855556" lon="11.433604912286166"><ele>253.66666666666669</ele><time>2026-04-11T12:33:43Z</time></trkpt><trkpt lat="43.014823388094484" lon="11.433512991694894"><ele>253.0</ele><time>2026-04-11T12:33:44Z</time></trkpt><trkpt lat="43.01485205003541" lon="11.433412862228602"><ele>252.33333333333334</ele><time>2026-04-11T12:33:45Z</time></trkpt><trkpt lat="43.014895304006146" lon="11.433320232695436"><ele>251.66666666666669</ele><time>2026-04-11T12:33:46Z</time></trkpt><trkpt lat="43.01493523819001" lon="11.433214736705898"><ele>251.0</ele><time>2026-04-11T12:33:47Z</time></trkpt><trkpt lat="43.014963583541245" lon="11.433106913749457"><ele>251.00000000000003</ele><time>2026-04-11T12:33:48Z</time></trkpt><trkpt lat="43.01498685587907" lon="11.432992169277068"><ele>251.0</ele><time>2026-04-11T12:33:49Z</time></trkpt><trkpt lat="43.01500010813272" lon="11.432876453121361"><ele>251.0</ele><time>2026-04-11T12:33:50Z</time></trkpt><trkpt lat="43.01500924442929" lon="11.432761115307152"><ele>251.0</ele><time>2026-04-11T12:33:51Z</time></trkpt><trkpt lat="43.01499862128293" lon="11.43265403736382"><ele>251.00000000000003</ele><time>2026-04-11T12:33:52Z</time></trkpt><trkpt lat="43.01498800940141" lon="11.432544517892204"><ele>251.0</ele><time>2026-04-11T12:33:53Z</time></trkpt><trkpt lat="43.01496774141496" lon="11.432435591252833"><ele>250.4</ele><time>2026-04-11T12:33:54Z</time></trkpt><trkpt lat="43.014941104876314" lon="11.432317896144651"><ele>249.8</ele><time>2026-04-11T12:33:55Z</time></trkpt><trkpt lat="43.01491727125485" lon="11.432193717062221"><ele>249.20000000000002</ele><time>2026-04-11T12:33:56Z</time></trkpt><trkpt lat="43.0148959019841" lon="11.432072212684064"><ele>248.60000000000002</ele><time>2026-04-11T12:33:57Z</time></trkpt><trkpt lat="43.01487282765134" lon="11.431948397542689"><ele>248.0</ele><time>2026-04-11T12:33:58Z</time></trkpt><trkpt lat="43.01484951986272" lon="11.431820981897083"><ele>247.4</ele><time>2026-04-11T12:33:59Z</time></trkpt><trkpt lat="43.01482231238383" lon="11.431693079434716"><ele>246.8</ele><time>2026-04-11T12:34:00Z</time></trkpt><trkpt lat="43.014800792100246" lon="11.431559843113673"><ele>246.2</ele><time>2026-04-11T12:34:01Z</time></trkpt><trkpt lat="43.01478053179755" lon="11.43142819484661"><ele>245.6</ele><time>2026-04-11T12:34:02Z</time></trkpt><trkpt lat="43.014754100136386" lon="11.431299259532176"><ele>245.0</ele><time>2026-04-11T12:34:03Z</time></trkpt><trkpt lat="43.014732108258684" lon="11.431167163801216"><ele>244.0</ele><time>2026-04-11T12:34:04Z</time></trkpt><trkpt lat="43.014702491126464" lon="11.43103598333936"><ele>243.0</ele><time>2026-04-11T12:34:05Z</time></trkpt><trkpt lat="43.01466301091237" lon="11.430911936147274"><ele>242.0</ele><time>2026-04-11T12:34:06Z</time></trkpt><trkpt lat="43.01462134273165" lon="11.430798049738945"><ele>241.0</ele><time>2026-04-11T12:34:07Z</time></trkpt><trkpt lat="43.01455373888866" lon="11.430698044237397"><ele>240.0</ele><time>2026-04-11T12:34:08Z</time></trkpt><trkpt lat="43.01447708922051" lon="11.430625956447278"><ele>240.0</ele><time>2026-04-11T12:34:09Z</time></trkpt><trkpt lat="43.01439725746998" lon="11.430569164839854"><ele>240.0</ele><time>2026-04-11T12:34:10Z</time></trkpt><trkpt lat="43.01432781761872" lon="11.430512652235118"><ele>240.0</ele><time>2026-04-11T12:34:11Z</time></trkpt><trkpt lat="43.014263866068" lon="11.430479942500119"><ele>240.0</ele><time>2026-04-11T12:34:12Z</time></trkpt><trkpt lat="43.014202402136995" lon="11.430435424099741"><ele>240.0</ele><time>2026-04-11T12:34:13Z</time></trkpt><trkpt lat="43.01415069688783" lon="11.430372115692073"><ele>240.0</ele><time>2026-04-11T12:34:14Z</time></trkpt><trkpt lat="43.01410033235128" lon="11.430291098280804"><ele>239.2</ele><time>2026-04-11T12:34:15Z</time></trkpt><trkpt lat="43.014050813393894" lon="11.430194084735374"><ele>238.4</ele><time>2026-04-11T12:34:16Z</time></trkpt><trkpt lat="43.0140073379785" lon="11.430084983951838"><ele>237.60000000000002</ele><time>2026-04-11T12:34:17Z</time></trkpt><trkpt lat="43.01396824793303" lon="11.429961543272327"><ele>236.8</ele><time>2026-04-11T12:34:18Z</time></trkpt><trkpt lat="43.01393144036397" lon="11.429833131766722"><ele>236.0</ele><time>2026-04-11T12:34:19Z</time></trkpt><trkpt lat="43.01390557265816" lon="11.42969686038613"><ele>234.8</ele><time>2026-04-11T12:34:20Z</time></trkpt><trkpt lat="43.013871509237546" lon="11.429563743872295"><ele>233.60000000000002</ele><time>2026-04-11T12:34:21Z</time></trkpt><trkpt lat="43.01383421479891" lon="11.429434700661876"><ele>232.4</ele><time>2026-04-11T12:34:22Z</time></trkpt><trkpt lat="43.01378153207747" lon="11.429327629568467"><ele>231.2</ele><time>2026-04-11T12:34:23Z</time></trkpt><trkpt lat="43.01371804057378" lon="11.429232418775253"><ele>230.0</ele><time>2026-04-11T12:34:24Z</time></trkpt><trkpt lat="43.013656144032886" lon="11.429146005030526"><ele>230.00000000000003</ele><time>2026-04-11T12:34:25Z</time></trkpt><trkpt lat="43.01357829444255" lon="11.429088120415098"><ele>230.0</ele><time>2026-04-11T12:34:26Z</time></trkpt><trkpt lat="43.01350646015707" lon="11.429032609895296"><ele>230.0</ele><time>2026-04-11T12:34:27Z</time></trkpt><trkpt lat="43.01343202002831" lon="11.428981213071264"><ele>230.0</ele><time>2026-04-11T12:34:28Z</time></trkpt><trkpt lat="43.01335365438228" lon="11.42893599402438"><ele>230.00000000000003</ele><time>2026-04-11T12:34:29Z</time></trkpt><trkpt lat="43.01326472995279" lon="11.42891363914746"><ele>230.0</ele><time>2026-04-11T12:34:30Z</time></trkpt><trkpt lat="43.01317855677086" lon="11.428884185423662"><ele>230.00000000000003</ele><time>2026-04-11T12:34:31Z</time></trkpt><trkpt lat="43.01310099640193" lon="11.428833653304261"><ele>230.0</ele><time>2026-04-11T12:34:32Z</time></trkpt><trkpt lat="43.01302052104453" lon="11.428804196063819"><ele>230.0</ele><time>2026-04-11T12:34:33Z</time></trkpt><trkpt lat="43.012938268062534" lon="11.428774088168959"><ele>230.0</ele><time>2026-04-11T12:34:34Z</time></trkpt><trkpt lat="43.01285153164221" lon="11.428752070209901"><ele>230.00000000000003</ele><time>2026-04-11T12:34:35Z</time></trkpt><trkpt lat="43.01277330358794" lon="11.42873670449178"><ele>230.0</ele><time>2026-04-11T12:34:36Z</time></trkpt><trkpt lat="43.01269953710912" lon="11.428711791068721"><ele>229.6</ele><time>2026-04-11T12:34:37Z</time></trkpt><trkpt lat="43.01263188476765" lon="11.428695197683547"><ele>229.2</ele><time>2026-04-11T12:34:38Z</time></trkpt><trkpt lat="43.01256957964353" lon="11.428670189474786"><ele>228.8</ele><time>2026-04-11T12:34:39Z</time></trkpt><trkpt lat="43.01245749279735" lon="11.428614630468951"><ele>228.4</ele><time>2026-04-11T12:34:41Z</time></trkpt><trkpt lat="43.0123623902026" lon="11.428558070193583"><ele>228.0</ele><time>2026-04-11T12:34:43Z</time></trkpt><trkpt lat="43.01226919903752" lon="11.428452700186728"><ele>228.0</ele><time>2026-04-11T12:34:45Z</time></trkpt><trkpt lat="43.01221566844403" lon="11.428406862815912"><ele>227.99999999999997</ele><time>2026-04-11T12:34:46Z</time></trkpt><trkpt lat="43.012153320974726" lon="11.428371372351082"><ele>228.0</ele><time>2026-04-11T12:34:47Z</time></trkpt><trkpt lat="43.012109778160465" lon="11.428296494698424"><ele>228.0</ele><time>2026-04-11T12:34:48Z</time></trkpt><trkpt lat="43.012053886899764" lon="11.428239405769007"><ele>227.99999999999997</ele><time>2026-04-11T12:34:49Z</time></trkpt><trkpt lat="43.01199460016467" lon="11.428182438157148"><ele>228.0</ele><time>2026-04-11T12:34:50Z</time></trkpt><trkpt lat="43.01193560220552" lon="11.428125907694957"><ele>228.0</ele><time>2026-04-11T12:34:51Z</time></trkpt><trkpt lat="43.011873536036894" lon="11.428066437278913"><ele>228.0</ele><time>2026-04-11T12:34:52Z</time></trkpt><trkpt lat="43.01181217501899" lon="11.428008499422802"><ele>227.99999999999997</ele><time>2026-04-11T12:34:53Z</time></trkpt><trkpt lat="43.011742278659746" lon="11.427970905583377"><ele>228.0</ele><time>2026-04-11T12:34:54Z</time></trkpt><trkpt lat="43.011685161361456" lon="11.427912409685707"><ele>228.0</ele><time>2026-04-11T12:34:55Z</time></trkpt><trkpt lat="43.011630815092126" lon="11.42785560295139"><ele>227.99999999999997</ele><time>2026-04-11T12:34:56Z</time></trkpt><trkpt lat="43.01157596945725" lon="11.427802385753576"><ele>228.0</ele><time>2026-04-11T12:34:57Z</time></trkpt><trkpt lat="43.011520888157165" lon="11.42774939033825"><ele>228.0</ele><time>2026-04-11T12:34:58Z</time></trkpt><trkpt lat="43.011465127077514" lon="11.427683122734484"><ele>227.66666666666666</ele><time>2026-04-11T12:34:59Z</time></trkpt><trkpt lat="43.01140688955577" lon="11.427606556372078"><ele>227.33333333333331</ele><time>2026-04-11T12:35:00Z</time></trkpt><trkpt lat="43.01135221404288" lon="11.427527909835023"><ele>227.0</ele><time>2026-04-11T12:35:01Z</time></trkpt><trkpt lat="43.01130102555433" lon="11.427441350162436"><ele>226.66666666666666</ele><time>2026-04-11T12:35:02Z</time></trkpt><trkpt lat="43.01125303074234" lon="11.427353943716598"><ele>226.33333333333331</ele><time>2026-04-11T12:35:03Z</time></trkpt><trkpt lat="43.01120991984942" lon="11.4272564976587"><ele>226.0</ele><time>2026-04-11T12:35:04Z</time></trkpt><trkpt lat="43.01116693560865" lon="11.427169123052812"><ele>226.66666666666666</ele><time>2026-04-11T12:35:05Z</time></trkpt><trkpt lat="43.01112466382747" lon="11.4270768556264"><ele>227.33333333333331</ele><time>2026-04-11T12:35:06Z</time></trkpt><trkpt lat="43.011084624792794" lon="11.42698921821991"><ele>228.0</ele><time>2026-04-11T12:35:07Z</time></trkpt><trkpt lat="43.01104735865746" lon="11.426904059012806"><ele>228.66666666666669</ele><time>2026-04-11T12:35:08Z</time></trkpt><trkpt lat="43.01100839318772" lon="11.426825389260829"><ele>229.33333333333334</ele><time>2026-04-11T12:35:09Z</time></trkpt><trkpt lat="43.01097456606547" lon="11.426746936863"><ele>230.0</ele><time>2026-04-11T12:35:10Z</time></trkpt><trkpt lat="43.01090612250754" lon="11.426606732750653"><ele>229.99999999999997</ele><time>2026-04-11T12:35:12Z</time></trkpt><trkpt lat="43.01086981941188" lon="11.426528131809285"><ele>230.0</ele><time>2026-04-11T12:35:13Z</time></trkpt><trkpt lat="43.01083436461185" lon="11.426450571044757"><ele>229.99999999999997</ele><time>2026-04-11T12:35:14Z</time></trkpt><trkpt lat="43.010794782005625" lon="11.426374835256885"><ele>229.99999999999997</ele><time>2026-04-11T12:35:15Z</time></trkpt><trkpt lat="43.01075525845836" lon="11.426295936470675"><ele>230.0</ele><time>2026-04-11T12:35:16Z</time></trkpt><trkpt lat="43.01071149995638" lon="11.426220789976501"><ele>229.99999999999997</ele><time>2026-04-11T12:35:17Z</time></trkpt><trkpt lat="43.01067082622638" lon="11.426140873830024"><ele>229.99999999999997</ele><time>2026-04-11T12:35:18Z</time></trkpt><trkpt lat="43.01062639540836" lon="11.426067445245835"><ele>229.4</ele><time>2026-04-11T12:35:19Z</time></trkpt><trkpt lat="43.010581936668835" lon="11.425996915287696"><ele>228.8</ele><time>2026-04-11T12:35:20Z</time></trkpt><trkpt lat="43.0105418013612" lon="11.425929320661941"><ele>228.2</ele><time>2026-04-11T12:35:21Z</time></trkpt><trkpt lat="43.01047333166586" lon="11.42579433722425"><ele>227.6</ele><time>2026-04-11T12:35:23Z</time></trkpt><trkpt lat="43.010419323866074" lon="11.425677789671287"><ele>227.0</ele><time>2026-04-11T12:35:25Z</time></trkpt><trkpt lat="43.01037997704503" lon="11.425547501150874"><ele>226.39999999999998</ele><time>2026-04-11T12:35:27Z</time></trkpt><trkpt lat="43.01034008946004" lon="11.425406648237118"><ele>225.79999999999998</ele><time>2026-04-11T12:35:29Z</time></trkpt><trkpt lat="43.01030770972086" lon="11.425236321634314"><ele>225.2</ele><time>2026-04-11T12:35:31Z</time></trkpt><trkpt lat="43.01028841987601" lon="11.4251453269141"><ele>224.6</ele><time>2026-04-11T12:35:32Z</time></trkpt><trkpt lat="43.01028081473705" lon="11.425047170969794"><ele>224.0</ele><time>2026-04-11T12:35:33Z</time></trkpt><trkpt lat="43.01026719626955" lon="11.424946331025634"><ele>224.0</ele><time>2026-04-11T12:35:34Z</time></trkpt><trkpt lat="43.010248206602164" lon="11.424851962258428"><ele>224.0</ele><time>2026-04-11T12:35:35Z</time></trkpt><trkpt lat="43.01022173824067" lon="11.424758481597264"><ele>224.0</ele><time>2026-04-11T12:35:36Z</time></trkpt><trkpt lat="43.01020080203618" lon="11.424661188564091"><ele>224.0</ele><time>2026-04-11T12:35:37Z</time></trkpt><trkpt lat="43.01018500708803" lon="11.42456449214112"><ele>224.0</ele><time>2026-04-11T12:35:38Z</time></trkpt><trkpt lat="43.01017056003405" lon="11.4244660362643"><ele>224.0</ele><time>2026-04-11T12:35:39Z</time></trkpt><trkpt lat="43.01014218504643" lon="11.424383479468972"><ele>224.0</ele><time>2026-04-11T12:35:40Z</time></trkpt><trkpt lat="43.01011883633849" lon="11.42428045232558"><ele>223.57142857142858</ele><time>2026-04-11T12:35:41Z</time></trkpt><trkpt lat="43.01011832523738" lon="11.424177855742476"><ele>223.14285714285714</ele><time>2026-04-11T12:35:42Z</time></trkpt><trkpt lat="43.01008536272544" lon="11.42409772950996"><ele>222.71428571428572</ele><time>2026-04-11T12:35:43Z</time></trkpt><trkpt lat="43.01006870618646" lon="11.424000505836641"><ele>222.28571428571428</ele><time>2026-04-11T12:35:44Z</time></trkpt><trkpt lat="43.010042933023044" lon="11.423918914375635"><ele>221.85714285714286</ele><time>2026-04-11T12:35:45Z</time></trkpt><trkpt lat="43.0100302183264" lon="11.423821574409503"><ele>221.42857142857144</ele><time>2026-04-11T12:35:46Z</time></trkpt><trkpt lat="43.010007349715345" lon="11.423715441265516"><ele>221.0</ele><time>2026-04-11T12:35:47Z</time></trkpt><trkpt lat="43.00996839895114" lon="11.423609121116918"><ele>220.00000000000003</ele><time>2026-04-11T12:35:48Z</time></trkpt><trkpt lat="43.00995514632142" lon="11.42348542531373"><ele>219.0</ele><time>2026-04-11T12:35:49Z</time></trkpt><trkpt lat="43.00991803109617" lon="11.423365270974598"><ele>218.0</ele><time>2026-04-11T12:35:50Z</time></trkpt><trkpt lat="43.00989102931846" lon="11.423248676217685"><ele>217.0</ele><time>2026-04-11T12:35:51Z</time></trkpt><trkpt lat="43.00986612445636" lon="11.423145208399983"><ele>216.00000000000003</ele><time>2026-04-11T12:35:52Z</time></trkpt><trkpt lat="43.00983232339148" lon="11.423062518391262"><ele>215.0</ele><time>2026-04-11T12:35:53Z</time></trkpt><trkpt lat="43.009801061276185" lon="11.422976941763078"><ele>215.0</ele><time>2026-04-11T12:35:54Z</time></trkpt><trkpt lat="43.009771727753915" lon="11.422897857874949"><ele>215.0</ele><time>2026-04-11T12:35:55Z</time></trkpt><trkpt lat="43.00972158278022" lon="11.422766951082636"><ele>215.0</ele><time>2026-04-11T12:35:57Z</time></trkpt><trkpt lat="43.00968409140942" lon="11.422608980950502"><ele>215.0</ele><time>2026-04-11T12:35:59Z</time></trkpt><trkpt lat="43.009632042705405" lon="11.422456040214861"><ele>215.0</ele><time>2026-04-11T12:36:01Z</time></trkpt><trkpt lat="43.00958002147047" lon="11.422299649712146"><ele>215.0</ele><time>2026-04-11T12:36:03Z</time></trkpt><trkpt lat="43.00955338571895" lon="11.422219302353469"><ele>215.0</ele><time>2026-04-11T12:36:04Z</time></trkpt><trkpt lat="43.009526964914" lon="11.422139600935136"><ele>215.0</ele><time>2026-04-11T12:36:05Z</time></trkpt><trkpt lat="43.0094833797224" lon="11.421988684655373"><ele>215.0</ele><time>2026-04-11T12:36:07Z</time></trkpt><trkpt lat="43.0094020870118" lon="11.421891424230806"><ele>215.0</ele><time>2026-04-11T12:36:09Z</time></trkpt><trkpt lat="43.009343500067814" lon="11.421777615823007"><ele>215.8</ele><time>2026-04-11T12:36:11Z</time></trkpt><trkpt lat="43.00931301132637" lon="11.421636621481637"><ele>216.6</ele><time>2026-04-11T12:36:13Z</time></trkpt><trkpt lat="43.009264555177126" lon="11.421532581594276"><ele>217.39999999999998</ele><time>2026-04-11T12:36:15Z</time></trkpt><trkpt lat="43.0092081493934" lon="11.421443108896508"><ele>218.2</ele><time>2026-04-11T12:36:17Z</time></trkpt><trkpt lat="43.00913613475194" lon="11.421362039995767"><ele>219.0</ele><time>2026-04-11T12:36:19Z</time></trkpt><trkpt lat="43.00906282204564" lon="11.421299146905785"><ele>220.16666666666666</ele><time>2026-04-11T12:36:21Z</time></trkpt><trkpt lat="43.009003243247435" lon="11.421247666247162"><ele>221.33333333333331</ele><time>2026-04-11T12:36:23Z</time></trkpt><trkpt lat="43.00891467863694" lon="11.421218330159835"><ele>222.5</ele><time>2026-04-11T12:36:26Z</time></trkpt><trkpt lat="43.00884899009967" lon="11.42116144293166"><ele>223.66666666666666</ele><time>2026-04-11T12:36:29Z</time></trkpt><trkpt lat="43.008789140767746" lon="11.42110594898997"><ele>224.83333333333331</ele><time>2026-04-11T12:36:32Z</time></trkpt><trkpt lat="43.00871449133018" lon="11.421063043724608"><ele>226.0</ele><time>2026-04-11T12:36:35Z</time></trkpt><trkpt lat="43.008643187625665" lon="11.42102068572803"><ele>226.0</ele><time>2026-04-11T12:36:38Z</time></trkpt><trkpt lat="43.00857234436499" lon="11.420959886349214"><ele>226.0</ele><time>2026-04-11T12:36:41Z</time></trkpt><trkpt lat="43.00849858289831" lon="11.420911477722093"><ele>226.0</ele><time>2026-04-11T12:36:44Z</time></trkpt><trkpt lat="43.00844963714034" lon="11.420853396569031"><ele>226.0</ele><time>2026-04-11T12:36:47Z</time></trkpt><trkpt lat="43.008382314488045" lon="11.420782965846234"><ele>226.0</ele><time>2026-04-11T12:36:50Z</time></trkpt><trkpt lat="43.00832419227316" lon="11.42074355938803"><ele>226.0</ele><time>2026-04-11T12:36:52Z</time></trkpt><trkpt lat="43.008264655258806" lon="11.420699544909679"><ele>226.0</ele><time>2026-04-11T12:36:54Z</time></trkpt><trkpt lat="43.00820718489698" lon="11.420642454135148"><ele>226.99999999999997</ele><time>2026-04-11T12:36:56Z</time></trkpt><trkpt lat="43.008161764350646" lon="11.420579535729829"><ele>228.0</ele><time>2026-04-11T12:36:58Z</time></trkpt><trkpt lat="43.00807886651111" lon="11.42052455769823"><ele>229.0</ele><time>2026-04-11T12:37:01Z</time></trkpt><trkpt lat="43.00802083070788" lon="11.420484417095889"><ele>230.0</ele><time>2026-04-11T12:37:03Z</time></trkpt><trkpt lat="43.00794762985778" lon="11.420434272988444"><ele>230.99999999999997</ele><time>2026-04-11T12:37:07Z</time></trkpt><trkpt lat="43.007855479878" lon="11.420358085299197"><ele>232.0</ele><time>2026-04-11T12:37:10Z</time></trkpt><trkpt lat="43.00779324443207" lon="11.420306590362436"><ele>232.16666666666666</ele><time>2026-04-11T12:37:13Z</time></trkpt><trkpt lat="43.00772075618067" lon="11.420240429458774"><ele>232.33333333333331</ele><time>2026-04-11T12:37:16Z</time></trkpt><trkpt lat="43.00765486880335" lon="11.420192235072395"><ele>232.5</ele><time>2026-04-11T12:37:18Z</time></trkpt><trkpt lat="43.007588069247504" lon="11.420129065047325"><ele>232.66666666666669</ele><time>2026-04-11T12:37:21Z</time></trkpt><trkpt lat="43.0075230082738" lon="11.420073812229175"><ele>232.83333333333334</ele><time>2026-04-11T12:37:24Z</time></trkpt><trkpt lat="43.007458604973216" lon="11.420022147471668"><ele>233.0</ele><time>2026-04-11T12:37:26Z</time></trkpt><trkpt lat="43.007392922796086" lon="11.419960241880203"><ele>233.0</ele><time>2026-04-11T12:37:29Z</time></trkpt><trkpt lat="43.00731051816442" lon="11.419911842049457"><ele>233.0</ele><time>2026-04-11T12:37:32Z</time></trkpt><trkpt lat="43.0072437510512" lon="11.419842318645733"><ele>233.0</ele><time>2026-04-11T12:37:35Z</time></trkpt><trkpt lat="43.007181488967916" lon="11.419807103871339"><ele>233.0</ele><time>2026-04-11T12:37:37Z</time></trkpt><trkpt lat="43.00708456222695" lon="11.419736989710836"><ele>233.0</ele><time>2026-04-11T12:37:40Z</time></trkpt><trkpt lat="43.006996873494714" lon="11.419663971502617"><ele>233.0</ele><time>2026-04-11T12:37:42Z</time></trkpt><trkpt lat="43.00691187960583" lon="11.419565248530132"><ele>233.0</ele><time>2026-04-11T12:37:44Z</time></trkpt><trkpt lat="43.006831085681256" lon="11.419464761873742"><ele>233.0</ele><time>2026-04-11T12:37:46Z</time></trkpt><trkpt lat="43.00674868207747" lon="11.419373883506266"><ele>233.0</ele><time>2026-04-11T12:37:48Z</time></trkpt><trkpt lat="43.00666106038041" lon="11.419247019378414"><ele>233.00000000000003</ele><time>2026-04-11T12:37:50Z</time></trkpt><trkpt lat="43.00663077676745" lon="11.419157070984655"><ele>233.0</ele><time>2026-04-11T12:37:51Z</time></trkpt><trkpt lat="43.00657493687342" lon="11.419104767472906"><ele>233.0</ele><time>2026-04-11T12:37:52Z</time></trkpt><trkpt lat="43.006539025819755" lon="11.419024768760138"><ele>233.0</ele><time>2026-04-11T12:37:53Z</time></trkpt><trkpt lat="43.006460545412956" lon="11.418897661579047"><ele>233.00000000000003</ele><time>2026-04-11T12:37:55Z</time></trkpt><trkpt lat="43.00640965642031" lon="11.418840547082315"><ele>233.0</ele><time>2026-04-11T12:37:56Z</time></trkpt><trkpt lat="43.0063388870682" lon="11.418701730051614"><ele>232.33333333333334</ele><time>2026-04-11T12:37:58Z</time></trkpt><trkpt lat="43.006270427326484" lon="11.418563339679679"><ele>231.66666666666669</ele><time>2026-04-11T12:38:00Z</time></trkpt><trkpt lat="43.006234863209116" lon="11.418491329105732"><ele>231.0</ele><time>2026-04-11T12:38:01Z</time></trkpt><trkpt lat="43.00619155971037" lon="11.418408185624832"><ele>230.33333333333331</ele><time>2026-04-11T12:38:02Z</time></trkpt><trkpt lat="43.00615089087214" lon="11.41832254980372"><ele>229.66666666666666</ele><time>2026-04-11T12:38:03Z</time></trkpt><trkpt lat="43.00610713067389" lon="11.418230297842207"><ele>229.0</ele><time>2026-04-11T12:38:04Z</time></trkpt><trkpt lat="43.006064323225864" lon="11.418136859291202"><ele>228.99999999999997</ele><time>2026-04-11T12:38:05Z</time></trkpt><trkpt lat="43.00601543589307" lon="11.418043904582778"><ele>229.0</ele><time>2026-04-11T12:38:06Z</time></trkpt><trkpt lat="43.00596677419598" lon="11.41794672667365"><ele>229.0</ele><time>2026-04-11T12:38:07Z</time></trkpt><trkpt lat="43.00591929367394" lon="11.417848025752743"><ele>229.0</ele><time>2026-04-11T12:38:08Z</time></trkpt><trkpt lat="43.005870032823545" lon="11.417758065534217"><ele>228.99999999999997</ele><time>2026-04-11T12:38:09Z</time></trkpt><trkpt lat="43.005826109638306" lon="11.417684131312296"><ele>229.0</ele><time>2026-04-11T12:38:10Z</time></trkpt><trkpt lat="43.00574789989701" lon="11.41753526340504"><ele>228.49999999999997</ele><time>2026-04-11T12:38:12Z</time></trkpt><trkpt lat="43.005709847670644" lon="11.417454675716584"><ele>228.0</ele><time>2026-04-11T12:38:13Z</time></trkpt><trkpt lat="43.00566317144702" lon="11.417357841358779"><ele>227.5</ele><time>2026-04-11T12:38:14Z</time></trkpt><trkpt lat="43.00561747530863" lon="11.417257371087135"><ele>227.0</ele><time>2026-04-11T12:38:15Z</time></trkpt><trkpt lat="43.00557329264876" lon="11.417157181260807"><ele>226.49999999999997</ele><time>2026-04-11T12:38:16Z</time></trkpt><trkpt lat="43.00552693523775" lon="11.41705753482036"><ele>226.0</ele><time>2026-04-11T12:38:17Z</time></trkpt><trkpt lat="43.005482853253355" lon="11.416955353760217"><ele>225.49999999999997</ele><time>2026-04-11T12:38:18Z</time></trkpt><trkpt lat="43.0054246813566" lon="11.416865384361596"><ele>225.0</ele><time>2026-04-11T12:38:19Z</time></trkpt><trkpt lat="43.00538011557071" lon="11.41676011142917"><ele>224.5</ele><time>2026-04-11T12:38:20Z</time></trkpt><trkpt lat="43.00533453541861" lon="11.416659752242712"><ele>224.0</ele><time>2026-04-11T12:38:21Z</time></trkpt><trkpt lat="43.0052938194621" lon="11.416562608693374"><ele>223.49999999999997</ele><time>2026-04-11T12:38:22Z</time></trkpt><trkpt lat="43.00524829865245" lon="11.416465140739305"><ele>223.0</ele><time>2026-04-11T12:38:23Z</time></trkpt><trkpt lat="43.00520735982392" lon="11.416374577517002"><ele>223.16666666666666</ele><time>2026-04-11T12:38:24Z</time></trkpt><trkpt lat="43.00517258727388" lon="11.416290634017225"><ele>223.33333333333331</ele><time>2026-04-11T12:38:25Z</time></trkpt><trkpt lat="43.00513485098543" lon="11.416218653280753"><ele>223.5</ele><time>2026-04-11T12:38:26Z</time></trkpt><trkpt lat="43.005076083574615" lon="11.416089397457354"><ele>223.66666666666669</ele><time>2026-04-11T12:38:28Z</time></trkpt><trkpt lat="43.00502405296613" lon="11.415972097734924"><ele>223.83333333333334</ele><time>2026-04-11T12:38:30Z</time></trkpt><trkpt lat="43.00497678976523" lon="11.415865415836153"><ele>224.0</ele><time>2026-04-11T12:38:32Z</time></trkpt><trkpt lat="43.004932335696516" lon="11.415778082131741"><ele>224.00000000000003</ele><time>2026-04-11T12:38:35Z</time></trkpt><trkpt lat="43.004891784399476" lon="11.415686707266245"><ele>224.0</ele><time>2026-04-11T12:38:37Z</time></trkpt><trkpt lat="43.00484195997792" lon="11.415579772717912"><ele>224.0</ele><time>2026-04-11T12:38:41Z</time></trkpt><trkpt lat="43.004787352480854" lon="11.41548069050609"><ele>224.0</ele><time>2026-04-11T12:38:44Z</time></trkpt><trkpt lat="43.004752915378006" lon="11.415399639731543"><ele>224.00000000000003</ele><time>2026-04-11T12:38:46Z</time></trkpt><trkpt lat="43.00469997693428" lon="11.415307234001567"><ele>224.0</ele><time>2026-04-11T12:38:48Z</time></trkpt><trkpt lat="43.00457742194164" lon="11.415035972124816"><ele>225.00000000000003</ele><time>2026-04-11T12:38:50Z</time></trkpt><trkpt lat="43.00452490109202" lon="11.414924881066325"><ele>226.0</ele><time>2026-04-11T12:38:52Z</time></trkpt><trkpt lat="43.00447070680822" lon="11.414817590473653"><ele>227.0</ele><time>2026-04-11T12:38:54Z</time></trkpt><trkpt lat="43.004421519269336" lon="11.414724131079321"><ele>228.0</ele><time>2026-04-11T12:38:56Z</time></trkpt><trkpt lat="43.00437751257537" lon="11.414636308044502"><ele>229.00000000000003</ele><time>2026-04-11T12:38:58Z</time></trkpt><trkpt lat="43.00432960248732" lon="11.414557030908242"><ele>230.0</ele><time>2026-04-11T12:39:00Z</time></trkpt><trkpt lat="43.00428540591722" lon="11.414478797732306"><ele>230.4285714285714</ele><time>2026-04-11T12:39:02Z</time></trkpt><trkpt lat="43.004238582862946" lon="11.41440159635675"><ele>230.85714285714283</ele><time>2026-04-11T12:39:04Z</time></trkpt><trkpt lat="43.004198383389586" lon="11.414322139163502"><ele>231.28571428571428</ele><time>2026-04-11T12:39:06Z</time></trkpt><trkpt lat="43.00415748178685" lon="11.414235062375823"><ele>231.7142857142857</ele><time>2026-04-11T12:39:09Z</time></trkpt><trkpt lat="43.004108764938245" lon="11.414178606998403"><ele>232.1428571428571</ele><time>2026-04-11T12:39:12Z</time></trkpt><trkpt lat="43.00406097920206" lon="11.414107222067049"><ele>232.57142857142858</ele><time>2026-04-11T12:39:14Z</time></trkpt><trkpt lat="43.00402420123024" lon="11.414033745461362"><ele>233.0</ele><time>2026-04-11T12:39:16Z</time></trkpt><trkpt lat="43.003979896322356" lon="11.413964389294014"><ele>233.00000000000003</ele><time>2026-04-11T12:39:18Z</time></trkpt><trkpt lat="43.00394103645698" lon="11.413890529974575"><ele>233.0</ele><time>2026-04-11T12:39:20Z</time></trkpt><trkpt lat="43.00388107193855" lon="11.413798141918043"><ele>233.0</ele><time>2026-04-11T12:39:23Z</time></trkpt><trkpt lat="43.00383002730986" lon="11.413694680614173"><ele>233.0</ele><time>2026-04-11T12:39:26Z</time></trkpt><trkpt lat="43.00376791978418" lon="11.413628338869108"><ele>233.00000000000003</ele><time>2026-04-11T12:39:29Z</time></trkpt><trkpt lat="43.003733750892366" lon="11.413548651044106"><ele>233.0</ele><time>2026-04-11T12:39:31Z</time></trkpt><trkpt lat="43.00368201399133" lon="11.413480083686126"><ele>233.0</ele><time>2026-04-11T12:39:33Z</time></trkpt><trkpt lat="43.003624748083574" lon="11.413394852952425"><ele>233.0</ele><time>2026-04-11T12:39:34Z</time></trkpt><trkpt lat="43.0035641461201" lon="11.413262236798676"><ele>233.0</ele><time>2026-04-11T12:39:36Z</time></trkpt><trkpt lat="43.003512375849176" lon="11.413156235168792"><ele>233.0</ele><time>2026-04-11T12:39:38Z</time></trkpt><trkpt lat="43.003424251764564" lon="11.412967870447751"><ele>233.0</ele><time>2026-04-11T12:39:40Z</time></trkpt><trkpt lat="43.003359617940234" lon="11.41285152660292"><ele>233.0</ele><time>2026-04-11T12:39:42Z</time></trkpt><trkpt lat="43.003293433797424" lon="11.412729830993353"><ele>233.0</ele><time>2026-04-11T12:39:44Z</time></trkpt><trkpt lat="43.00322239854603" lon="11.412605577092485"><ele>233.0</ele><time>2026-04-11T12:39:46Z</time></trkpt><trkpt lat="43.003174861362794" lon="11.412474688379772"><ele>233.0</ele><time>2026-04-11T12:39:48Z</time></trkpt><trkpt lat="43.00311424217502" lon="11.412375516426653"><ele>232.83333333333334</ele><time>2026-04-11T12:39:50Z</time></trkpt><trkpt lat="43.00306144657184" lon="11.412287892046411"><ele>232.66666666666669</ele><time>2026-04-11T12:39:52Z</time></trkpt><trkpt lat="43.00301635136931" lon="11.4121852514502"><ele>232.5</ele><time>2026-04-11T12:39:54Z</time></trkpt><trkpt lat="43.00296587393707" lon="11.412109550188124"><ele>232.33333333333331</ele><time>2026-04-11T12:39:56Z</time></trkpt><trkpt lat="43.00291471886819" lon="11.412020926322954"><ele>232.16666666666666</ele><time>2026-04-11T12:39:58Z</time></trkpt><trkpt lat="43.0028537127308" lon="11.411944016304515"><ele>232.0</ele><time>2026-04-11T12:40:00Z</time></trkpt><trkpt lat="43.002808241519446" lon="11.411868869391016"><ele>232.8571428571429</ele><time>2026-04-11T12:40:02Z</time></trkpt><trkpt lat="43.00276739196967" lon="11.41179542227364"><ele>233.71428571428572</ele><time>2026-04-11T12:40:04Z</time></trkpt><trkpt lat="43.00272608550063" lon="11.411715889759735"><ele>234.57142857142858</ele><time>2026-04-11T12:40:06Z</time></trkpt><trkpt lat="43.00268348532629" lon="11.411647736662873"><ele>235.42857142857144</ele><time>2026-04-11T12:40:08Z</time></trkpt><trkpt lat="43.00264915638896" lon="11.411566241080674"><ele>236.28571428571428</ele><time>2026-04-11T12:40:10Z</time></trkpt><trkpt lat="43.002601757173494" lon="11.411497558612552"><ele>237.14285714285714</ele><time>2026-04-11T12:40:12Z</time></trkpt><trkpt lat="43.00255493628358" lon="11.411423715766263"><ele>238.0</ele><time>2026-04-11T12:40:14Z</time></trkpt><trkpt lat="43.002508714014475" lon="11.411342578567218"><ele>238.16666666666666</ele><time>2026-04-11T12:40:16Z</time></trkpt><trkpt lat="43.00245571806487" lon="11.411243808466617"><ele>238.33333333333331</ele><time>2026-04-11T12:40:18Z</time></trkpt><trkpt lat="43.00239953483732" lon="11.411154749955907"><ele>238.5</ele><time>2026-04-11T12:40:20Z</time></trkpt><trkpt lat="43.002337500379966" lon="11.411058642933952"><ele>238.66666666666669</ele><time>2026-04-11T12:40:22Z</time></trkpt><trkpt lat="43.002267150047985" lon="11.410967375958087"><ele>238.83333333333334</ele><time>2026-04-11T12:40:24Z</time></trkpt><trkpt lat="43.00222125649779" lon="11.410878404707752"><ele>239.0</ele><time>2026-04-11T12:40:26Z</time></trkpt><trkpt lat="43.002166815081374" lon="11.41081683043371"><ele>239.0</ele><time>2026-04-11T12:40:28Z</time></trkpt><trkpt lat="43.0020839356471" lon="11.410774176076512"><ele>238.99999999999997</ele><time>2026-04-11T12:40:31Z</time></trkpt><trkpt lat="43.001977376885506" lon="11.410734638056713"><ele>238.99999999999997</ele><time>2026-04-11T12:40:34Z</time></trkpt><trkpt lat="43.001849898850956" lon="11.410717096718166"><ele>239.0</ele><time>2026-04-11T12:40:36Z</time></trkpt><trkpt lat="43.00174838586416" lon="11.410634926330617"><ele>239.0</ele><time>2026-04-11T12:40:38Z</time></trkpt><trkpt lat="43.00164608485505" lon="11.41065601123445"><ele>238.79999999999998</ele><time>2026-04-11T12:40:40Z</time></trkpt><trkpt lat="43.00155393520719" lon="11.410676818025525"><ele>238.59999999999997</ele><time>2026-04-11T12:40:42Z</time></trkpt><trkpt lat="43.00146442076648" lon="11.410697029864124"><ele>238.4</ele><time>2026-04-11T12:40:45Z</time></trkpt><trkpt lat="43.00136083377139" lon="11.41071841485579"><ele>238.2</ele><time>2026-04-11T12:40:46Z</time></trkpt><trkpt lat="43.0012725403005" lon="11.410736592936985"><ele>238.0</ele><time>2026-04-11T12:40:48.001Z</time></trkpt><trkpt lat="43.00118435669715" lon="11.410754748396522"><ele>238.0</ele><time>2026-04-11T12:40:50Z</time></trkpt><trkpt lat="43.00111703388809" lon="11.410768608970768"><ele>238.0</ele><time>2026-04-11T12:40:52Z</time></trkpt><trkpt lat="43.001046266900694" lon="11.410783178620692"><ele>238.0</ele><time>2026-04-11T12:40:53Z</time></trkpt><trkpt lat="43.00094889758288" lon="11.41080322525779"><ele>238.0</ele><time>2026-04-11T12:40:55Z</time></trkpt><trkpt lat="43.00079534751702" lon="11.410834485815855"><ele>238.0</ele><time>2026-04-11T12:40:58Z</time></trkpt><trkpt lat="43.00068281135289" lon="11.410857300943242"><ele>238.8</ele><time>2026-04-11T12:41:00Z</time></trkpt><trkpt lat="43.000580316636196" lon="11.410878080295307"><ele>239.60000000000002</ele><time>2026-04-11T12:41:02Z</time></trkpt><trkpt lat="43.000487316083124" lon="11.410896934823613"><ele>240.39999999999998</ele><time>2026-04-11T12:41:04Z</time></trkpt><trkpt lat="43.00040077996562" lon="11.410938673363733"><ele>241.2</ele><time>2026-04-11T12:41:06Z</time></trkpt><trkpt lat="43.000305258725895" lon="11.410954082972326"><ele>242.0</ele><time>2026-04-11T12:41:08Z</time></trkpt><trkpt lat="43.00022211640902" lon="11.410985089826456"><ele>242.0</ele><time>2026-04-11T12:41:10Z</time></trkpt><trkpt lat="43.00012156011188" lon="11.411002780245797"><ele>242.0</ele><time>2026-04-11T12:41:12Z</time></trkpt><trkpt lat="43.00002619261349" lon="11.411019714636142"><ele>242.0</ele><time>2026-04-11T12:41:14Z</time></trkpt><trkpt lat="42.99993095172972" lon="11.411043175541462"><ele>242.0</ele><time>2026-04-11T12:41:16Z</time></trkpt><trkpt lat="42.999842068920756" lon="11.41105995542873"><ele>242.0</ele><time>2026-04-11T12:41:18Z</time></trkpt><trkpt lat="42.9997547436576" lon="11.411078292319786"><ele>242.00000000000003</ele><time>2026-04-11T12:41:20Z</time></trkpt><trkpt lat="42.99967293181635" lon="11.411094815861603"><ele>242.0</ele><time>2026-04-11T12:41:22Z</time></trkpt><trkpt lat="42.99959280176322" lon="11.411115267119234"><ele>242.0</ele><time>2026-04-11T12:41:24Z</time></trkpt><trkpt lat="42.999512018078676" lon="11.41113301831017"><ele>242.0</ele><time>2026-04-11T12:41:26Z</time></trkpt><trkpt lat="42.99943611345722" lon="11.41115525567354"><ele>242.00000000000003</ele><time>2026-04-11T12:41:28Z</time></trkpt><trkpt lat="42.999349283067325" lon="11.411179659638906"><ele>242.0</ele><time>2026-04-11T12:41:32Z</time></trkpt><trkpt lat="42.999247313359795" lon="11.41120177896118"><ele>242.00000000000003</ele><time>2026-04-11T12:41:35Z</time></trkpt><trkpt lat="42.99918174310527" lon="11.411204748194526"><ele>242.0</ele><time>2026-04-11T12:41:38Z</time></trkpt><trkpt lat="42.999118462111454" lon="11.4112181803241"><ele>242.0</ele><time>2026-04-11T12:41:40Z</time></trkpt><trkpt lat="42.99904200167351" lon="11.41122845968494"><ele>242.0</ele><time>2026-04-11T12:41:43Z</time></trkpt><trkpt lat="42.99896091288712" lon="11.411256561560869"><ele>242.00000000000003</ele><time>2026-04-11T12:41:46Z</time></trkpt><trkpt lat="42.99888637942456" lon="11.411267124830411"><ele>242.0</ele><time>2026-04-11T12:41:48Z</time></trkpt><trkpt lat="42.99880223901867" lon="11.411292353270749"><ele>242.33333333333334</ele><time>2026-04-11T12:41:51Z</time></trkpt><trkpt lat="42.998724482068326" lon="11.41129728697039"><ele>242.66666666666669</ele><time>2026-04-11T12:41:54Z</time></trkpt><trkpt lat="42.99866135053579" lon="11.411321249757052"><ele>243.0</ele><time>2026-04-11T12:41:56Z</time></trkpt><trkpt lat="42.998574741034155" lon="11.411329607838104"><ele>243.33333333333331</ele><time>2026-04-11T12:41:59Z</time></trkpt><trkpt lat="42.99849229388185" lon="11.411343946432057"><ele>243.66666666666666</ele><time>2026-04-11T12:42:01Z</time></trkpt><trkpt lat="42.99841009596629" lon="11.411359398160565"><ele>244.0</ele><time>2026-04-11T12:42:04Z</time></trkpt><trkpt lat="42.998307805241254" lon="11.411375232452064"><ele>245.33333333333331</ele><time>2026-04-11T12:42:07Z</time></trkpt><trkpt lat="42.99824015153998" lon="11.41139132509529"><ele>246.66666666666666</ele><time>2026-04-11T12:42:09Z</time></trkpt><trkpt lat="42.998167320514106" lon="11.41139955773413"><ele>248.0</ele><time>2026-04-11T12:42:11Z</time></trkpt><trkpt lat="42.998097875767904" lon="11.411408857884844"><ele>249.33333333333331</ele><time>2026-04-11T12:42:13Z</time></trkpt><trkpt lat="42.99803245488313" lon="11.411425502990225"><ele>250.66666666666666</ele><time>2026-04-11T12:42:15Z</time></trkpt><trkpt lat="42.99796835789304" lon="11.411429701033974"><ele>252.0</ele><time>2026-04-11T12:42:17Z</time></trkpt><trkpt lat="42.99774684913156" lon="11.411499621651448"><ele>252.0</ele><time>2026-04-11T12:42:19Z</time></trkpt><trkpt lat="42.99765699252701" lon="11.41151753448246"><ele>252.0</ele><time>2026-04-11T12:42:21Z</time></trkpt><trkpt lat="42.99756428674113" lon="11.411532571390806"><ele>252.0</ele><time>2026-04-11T12:42:23Z</time></trkpt><trkpt lat="42.99747777690384" lon="11.411554655127576"><ele>252.0</ele><time>2026-04-11T12:42:25Z</time></trkpt><trkpt lat="42.99738404533629" lon="11.411574644868843"><ele>252.0</ele><time>2026-04-11T12:42:27Z</time></trkpt><trkpt lat="42.99728595517891" lon="11.411590483196123"><ele>252.0</ele><time>2026-04-11T12:42:29Z</time></trkpt><trkpt lat="42.997190781345886" lon="11.41159804183281"><ele>252.0</ele><time>2026-04-11T12:42:31Z</time></trkpt><trkpt lat="42.997101004091064" lon="11.411614460452938"><ele>252.0</ele><time>2026-04-11T12:42:33Z</time></trkpt><trkpt lat="42.99701602497812" lon="11.411622854926154"><ele>252.0</ele><time>2026-04-11T12:42:35Z</time></trkpt><trkpt lat="42.99692460459602" lon="11.411616417265682"><ele>252.0</ele><time>2026-04-11T12:42:37Z</time></trkpt><trkpt lat="42.99683167687898" lon="11.41161801665068"><ele>252.0</ele><time>2026-04-11T12:42:40Z</time></trkpt><trkpt lat="42.99676794205306" lon="11.411627320370894"><ele>252.0</ele><time>2026-04-11T12:42:43Z</time></trkpt><trkpt lat="42.996695105774535" lon="11.411670773691451"><ele>252.0</ele><time>2026-04-11T12:42:46Z</time></trkpt><trkpt lat="42.99663316291207" lon="11.411694651522955"><ele>252.0</ele><time>2026-04-11T12:42:48Z</time></trkpt><trkpt lat="42.99655139392447" lon="11.41171116095177"><ele>252.0</ele><time>2026-04-11T12:42:51Z</time></trkpt><trkpt lat="42.996470514643555" lon="11.41173259696884"><ele>252.0</ele><time>2026-04-11T12:42:54Z</time></trkpt><trkpt lat="42.99640751713986" lon="11.411790481737922"><ele>252.0</ele><time>2026-04-11T12:42:56Z</time></trkpt><trkpt lat="42.99628899107322" lon="11.411804403038007"><ele>252.2</ele><time>2026-04-11T12:42:58Z</time></trkpt><trkpt lat="42.99609247066423" lon="11.411877404165086"><ele>252.39999999999998</ele><time>2026-04-11T12:42:59Z</time></trkpt><trkpt lat="42.996026044284186" lon="11.411889660675149"><ele>252.60000000000002</ele><time>2026-04-11T12:43:00Z</time></trkpt><trkpt lat="42.99594105031298" lon="11.41192046640463"><ele>252.8</ele><time>2026-04-11T12:43:02Z</time></trkpt><trkpt lat="42.99585970868122" lon="11.411937028293506"><ele>253.0</ele><time>2026-04-11T12:43:04Z</time></trkpt><trkpt lat="42.995790817142165" lon="11.411951441127107"><ele>253.0</ele><time>2026-04-11T12:43:06Z</time></trkpt><trkpt lat="42.99567851783217" lon="11.411951548442511"><ele>253.0</ele><time>2026-04-11T12:43:08Z</time></trkpt><trkpt lat="42.995591303087224" lon="11.412006236605935"><ele>253.0</ele><time>2026-04-11T12:43:10Z</time></trkpt><trkpt lat="42.99549657233592" lon="11.412055681852367"><ele>253.0</ele><time>2026-04-11T12:43:12Z</time></trkpt><trkpt lat="42.995393230593336" lon="11.412082726639888"><ele>253.0</ele><time>2026-04-11T12:43:14Z</time></trkpt><trkpt lat="42.9952978726738" lon="11.41211024137533"><ele>253.0</ele><time>2026-04-11T12:43:16Z</time></trkpt><trkpt lat="42.99516067441203" lon="11.4121202377819"><ele>253.0</ele><time>2026-04-11T12:43:18Z</time></trkpt><trkpt lat="42.995046286994516" lon="11.412130483019379"><ele>253.0</ele><time>2026-04-11T12:43:20Z</time></trkpt><trkpt lat="42.99494286473816" lon="11.412110141338822"><ele>253.0</ele><time>2026-04-11T12:43:22Z</time></trkpt><trkpt lat="42.99482680026726" lon="11.412074470343986"><ele>252.66666666666666</ele><time>2026-04-11T12:43:24Z</time></trkpt><trkpt lat="42.99476186462954" lon="11.41204952160348"><ele>252.33333333333331</ele><time>2026-04-11T12:43:25Z</time></trkpt><trkpt lat="42.994647072266716" lon="11.41197990312769"><ele>252.0</ele><time>2026-04-11T12:43:27Z</time></trkpt><trkpt lat="42.994586947699034" lon="11.411933846140927"><ele>251.66666666666669</ele><time>2026-04-11T12:43:28Z</time></trkpt><trkpt lat="42.99452697416321" lon="11.411890457199217"><ele>251.33333333333334</ele><time>2026-04-11T12:43:29Z</time></trkpt><trkpt lat="42.99446663895011" lon="11.411849575341412"><ele>251.0</ele><time>2026-04-11T12:43:30Z</time></trkpt><trkpt lat="42.994351718709495" lon="11.41176966157253"><ele>251.00000000000003</ele><time>2026-04-11T12:43:32Z</time></trkpt><trkpt lat="42.994243257025964" lon="11.411684919201639"><ele>251.0</ele><time>2026-04-11T12:43:34Z</time></trkpt><trkpt lat="42.99413958089477" lon="11.411591636503152"><ele>251.0</ele><time>2026-04-11T12:43:36Z</time></trkpt><trkpt lat="42.99407743073488" lon="11.411564768751774"><ele>251.0</ele><time>2026-04-11T12:43:37Z</time></trkpt><trkpt lat="42.99402172366968" lon="11.411519157246865"><ele>251.00000000000003</ele><time>2026-04-11T12:43:38Z</time></trkpt><trkpt lat="42.993975497776844" lon="11.411453781588765"><ele>251.0</ele><time>2026-04-11T12:43:39Z</time></trkpt><trkpt lat="42.993915841240785" lon="11.411402010294855"><ele>250.85714285714283</ele><time>2026-04-11T12:43:40Z</time></trkpt><trkpt lat="42.99384602797229" lon="11.41136196695373"><ele>250.71428571428572</ele><time>2026-04-11T12:43:41Z</time></trkpt><trkpt lat="42.99378519374498" lon="11.411309557135235"><ele>250.57142857142856</ele><time>2026-04-11T12:43:42Z</time></trkpt><trkpt lat="42.99372617675697" lon="11.411253999158316"><ele>250.42857142857142</ele><time>2026-04-11T12:43:43Z</time></trkpt><trkpt lat="42.993678623721166" lon="11.411179389482463"><ele>250.28571428571428</ele><time>2026-04-11T12:43:44Z</time></trkpt><trkpt lat="42.993621388824835" lon="11.411121182271524"><ele>250.14285714285714</ele><time>2026-04-11T12:43:45Z</time></trkpt><trkpt lat="42.99356834876034" lon="11.411064843719366"><ele>250.0</ele><time>2026-04-11T12:43:46Z</time></trkpt><trkpt lat="42.9935136129501" lon="11.411006614843316"><ele>249.42857142857142</ele><time>2026-04-11T12:43:47Z</time></trkpt><trkpt lat="42.993460090201765" lon="11.410945099733873"><ele>248.8571428571429</ele><time>2026-04-11T12:43:48Z</time></trkpt><trkpt lat="42.99340812223336" lon="11.41088602030226"><ele>248.2857142857143</ele><time>2026-04-11T12:43:49Z</time></trkpt><trkpt lat="42.993359237260364" lon="11.410830445740562"><ele>247.71428571428572</ele><time>2026-04-11T12:43:50Z</time></trkpt><trkpt lat="42.99330970704785" lon="11.410776099715111"><ele>247.14285714285717</ele><time>2026-04-11T12:43:51Z</time></trkpt><trkpt lat="42.99325837349964" lon="11.410720831610568"><ele>246.5714285714286</ele><time>2026-04-11T12:43:52Z</time></trkpt><trkpt lat="42.99320569439885" lon="11.410664114965547"><ele>246.00000000000003</ele><time>2026-04-11T12:43:53Z</time></trkpt><trkpt lat="42.9931467232785" lon="11.410611305974076"><ele>246.0</ele><time>2026-04-11T12:43:54Z</time></trkpt><trkpt lat="42.99308975243057" lon="11.410567633844044"><ele>246.0</ele><time>2026-04-11T12:43:55Z</time></trkpt><trkpt lat="42.99302632240241" lon="11.410528385958958"><ele>246.0</ele><time>2026-04-11T12:43:56Z</time></trkpt><trkpt lat="42.992963341906744" lon="11.41049530924179"><ele>246.0</ele><time>2026-04-11T12:43:57Z</time></trkpt><trkpt lat="42.99283641639225" lon="11.410463330490801"><ele>246.0</ele><time>2026-04-11T12:43:59Z</time></trkpt><trkpt lat="42.99277915925279" lon="11.410424017065512"><ele>246.0</ele><time>2026-04-11T12:44:00Z</time></trkpt><trkpt lat="42.992712385694645" lon="11.410432526591215"><ele>245.60000000000002</ele><time>2026-04-11T12:44:01Z</time></trkpt><trkpt lat="42.99264992426833" lon="11.410417696383572"><ele>245.20000000000002</ele><time>2026-04-11T12:44:02Z</time></trkpt><trkpt lat="42.99258662877796" lon="11.41040724446046"><ele>244.79999999999998</ele><time>2026-04-11T12:44:03Z</time></trkpt><trkpt lat="42.99246422404951" lon="11.410366394182514"><ele>244.39999999999998</ele><time>2026-04-11T12:44:05Z</time></trkpt><trkpt lat="42.99234043590496" lon="11.410347599939053"><ele>244.0</ele><time>2026-04-11T12:44:07Z</time></trkpt><trkpt lat="42.9922222652818" lon="11.410334451788259"><ele>244.0</ele><time>2026-04-11T12:44:09Z</time></trkpt><trkpt lat="42.992105171497634" lon="11.410339576444391"><ele>244.0</ele><time>2026-04-11T12:44:11Z</time></trkpt><trkpt lat="42.99199185395295" lon="11.41034019680195"><ele>244.0</ele><time>2026-04-11T12:44:13Z</time></trkpt><trkpt lat="42.99188000854633" lon="11.410333212558806"><ele>244.0</ele><time>2026-04-11T12:44:15Z</time></trkpt><trkpt lat="42.99176780294812" lon="11.410341763116927"><ele>244.2</ele><time>2026-04-11T12:44:17Z</time></trkpt><trkpt lat="42.99165666818258" lon="11.410354601696529"><ele>244.39999999999998</ele><time>2026-04-11T12:44:19Z</time></trkpt><trkpt lat="42.99154556567254" lon="11.4103576029439"><ele>244.6</ele><time>2026-04-11T12:44:21Z</time></trkpt><trkpt lat="42.99143858484402" lon="11.410359372614918"><ele>244.8</ele><time>2026-04-11T12:44:23Z</time></trkpt><trkpt lat="42.99132127372797" lon="11.410361717551412"><ele>245.0</ele><time>2026-04-11T12:44:25Z</time></trkpt><trkpt lat="42.991196197956995" lon="11.410336260729096"><ele>245.00000000000003</ele><time>2026-04-11T12:44:27Z</time></trkpt><trkpt lat="42.99106607541465" lon="11.410311995770673"><ele>245.0</ele><time>2026-04-11T12:44:29Z</time></trkpt><trkpt lat="42.99099620197955" lon="11.410304048928268"><ele>245.0</ele><time>2026-04-11T12:44:30Z</time></trkpt><trkpt lat="42.99092787292966" lon="11.410292883335577"><ele>245.0</ele><time>2026-04-11T12:44:31Z</time></trkpt><trkpt lat="42.990861499052606" lon="11.410290077184575"><ele>245.00000000000003</ele><time>2026-04-11T12:44:32Z</time></trkpt><trkpt lat="42.990793208221355" lon="11.410272900688813"><ele>245.0</ele><time>2026-04-11T12:44:33Z</time></trkpt><trkpt lat="42.99072591729835" lon="11.4102654117961"><ele>244.85714285714286</ele><time>2026-04-11T12:44:34Z</time></trkpt><trkpt lat="42.990657422503055" lon="11.410254847308273"><ele>244.71428571428572</ele><time>2026-04-11T12:44:35Z</time></trkpt><trkpt lat="42.9905885246855" lon="11.41024335756391"><ele>244.57142857142856</ele><time>2026-04-11T12:44:36Z</time></trkpt><trkpt lat="42.99052091583743" lon="11.410233997445419"><ele>244.42857142857142</ele><time>2026-04-11T12:44:37Z</time></trkpt><trkpt lat="42.99045283724312" lon="11.410230562960614"><ele>244.28571428571428</ele><time>2026-04-11T12:44:38Z</time></trkpt><trkpt lat="42.99038738786773" lon="11.410220940045551"><ele>244.1428571428571</ele><time>2026-04-11T12:44:39Z</time></trkpt><trkpt lat="42.990318934727355" lon="11.41021814831601"><ele>243.99999999999997</ele><time>2026-04-11T12:44:40Z</time></trkpt><trkpt lat="42.99019840404332" lon="11.41023066768079"><ele>244.0</ele><time>2026-04-11T12:44:42Z</time></trkpt><trkpt lat="42.990075340912774" lon="11.41023892584197"><ele>244.0</ele><time>2026-04-11T12:44:44Z</time></trkpt><trkpt lat="42.98996247070838" lon="11.410289889451427"><ele>244.0</ele><time>2026-04-11T12:44:46Z</time></trkpt><trkpt lat="42.989855043273295" lon="11.410342865541585"><ele>244.0</ele><time>2026-04-11T12:44:48Z</time></trkpt><trkpt lat="42.98974204573188" lon="11.410403815809683"><ele>243.99999999999997</ele><time>2026-04-11T12:44:50Z</time></trkpt><trkpt lat="42.98961816568552" lon="11.41044153096678"><ele>244.0</ele><time>2026-04-11T12:44:52Z</time></trkpt><trkpt lat="42.9895506858057" lon="11.410455675940394"><ele>244.0</ele><time>2026-04-11T12:44:53Z</time></trkpt><trkpt lat="42.989475452241436" lon="11.410470567808595"><ele>244.0</ele><time>2026-04-11T12:44:54Z</time></trkpt><trkpt lat="42.989397140603984" lon="11.410478058633831"><ele>243.99999999999997</ele><time>2026-04-11T12:44:55Z</time></trkpt><trkpt lat="42.9893159244668" lon="11.410481488376544"><ele>244.0</ele><time>2026-04-11T12:44:56Z</time></trkpt><trkpt lat="42.989231346095295" lon="11.410480794451116"><ele>242.79999999999998</ele><time>2026-04-11T12:44:57Z</time></trkpt><trkpt lat="42.98914447070088" lon="11.410484920277641"><ele>241.59999999999997</ele><time>2026-04-11T12:44:58Z</time></trkpt><trkpt lat="42.98905335898106" lon="11.41048206032862"><ele>240.4</ele><time>2026-04-11T12:44:59Z</time></trkpt><trkpt lat="42.98895738411306" lon="11.410479357358978"><ele>239.2</ele><time>2026-04-11T12:45:00Z</time></trkpt><trkpt lat="42.98885431721636" lon="11.41047360667137"><ele>238.0</ele><time>2026-04-11T12:45:01Z</time></trkpt><trkpt lat="42.988755754594" lon="11.410462881963603"><ele>238.0</ele><time>2026-04-11T12:45:02Z</time></trkpt><trkpt lat="42.98865616791567" lon="11.410443303707773"><ele>238.0</ele><time>2026-04-11T12:45:03Z</time></trkpt><trkpt lat="42.9885580540206" lon="11.410427716366575"><ele>238.0</ele><time>2026-04-11T12:45:04Z</time></trkpt><trkpt lat="42.98846578310364" lon="11.41040688767718"><ele>238.0</ele><time>2026-04-11T12:45:05Z</time></trkpt><trkpt lat="42.98837501018392" lon="11.410390734389138"><ele>238.0</ele><time>2026-04-11T12:45:06Z</time></trkpt><trkpt lat="42.98828470854007" lon="11.410368674135041"><ele>237.33333333333331</ele><time>2026-04-11T12:45:07Z</time></trkpt><trkpt lat="42.98820072464738" lon="11.410357940764127"><ele>236.66666666666666</ele><time>2026-04-11T12:45:08Z</time></trkpt><trkpt lat="42.98811623943997" lon="11.41034074579529"><ele>236.0</ele><time>2026-04-11T12:45:09Z</time></trkpt><trkpt lat="42.98803255274699" lon="11.410328493833424"><ele>235.33333333333331</ele><time>2026-04-11T12:45:10Z</time></trkpt><trkpt lat="42.98795061618587" lon="11.410314359781564"><ele>234.66666666666666</ele><time>2026-04-11T12:45:11Z</time></trkpt><trkpt lat="42.987869392257494" lon="11.41029998841552"><ele>234.0</ele><time>2026-04-11T12:45:12Z</time></trkpt><trkpt lat="42.98778932850625" lon="11.410286533952203"><ele>234.0</ele><time>2026-04-11T12:45:13Z</time></trkpt><trkpt lat="42.98771026099468" lon="11.410275299229909"><ele>234.0</ele><time>2026-04-11T12:45:14Z</time></trkpt><trkpt lat="42.98763473757856" lon="11.410262892512685"><ele>234.0</ele><time>2026-04-11T12:45:15Z</time></trkpt><trkpt lat="42.987561901464595" lon="11.410245327517247"><ele>234.0</ele><time>2026-04-11T12:45:16Z</time></trkpt><trkpt lat="42.987488104852986" lon="11.410232788079721"><ele>234.0</ele><time>2026-04-11T12:45:17Z</time></trkpt><trkpt lat="42.98741488300805" lon="11.410219464256059"><ele>234.0</ele><time>2026-04-11T12:45:18Z</time></trkpt><trkpt lat="42.98734387782422" lon="11.410203581352965"><ele>234.2857142857143</ele><time>2026-04-11T12:45:19Z</time></trkpt><trkpt lat="42.98727482366805" lon="11.41018799357907"><ele>234.5714285714286</ele><time>2026-04-11T12:45:20Z</time></trkpt><trkpt lat="42.98720804714703" lon="11.410172158213692"><ele>234.85714285714286</ele><time>2026-04-11T12:45:21Z</time></trkpt><trkpt lat="42.987142180292075" lon="11.410154316811775"><ele>235.14285714285717</ele><time>2026-04-11T12:45:22Z</time></trkpt><trkpt lat="42.987077498343055" lon="11.410146675916502"><ele>235.42857142857144</ele><time>2026-04-11T12:45:23Z</time></trkpt><trkpt lat="42.987017356294714" lon="11.410110650004555"><ele>235.71428571428572</ele><time>2026-04-11T12:45:24Z</time></trkpt><trkpt lat="42.98694430335174" lon="11.41011388085274"><ele>236.0</ele><time>2026-04-11T12:45:25Z</time></trkpt><trkpt lat="42.98687347047851" lon="11.410096076428953"><ele>236.0</ele><time>2026-04-11T12:45:26Z</time></trkpt><trkpt lat="42.9868032362955" lon="11.41007445204224"><ele>236.0</ele><time>2026-04-11T12:45:27Z</time></trkpt><trkpt lat="42.98673051688032" lon="11.41005607482283"><ele>236.0</ele><time>2026-04-11T12:45:28Z</time></trkpt><trkpt lat="42.98665820967689" lon="11.410035243091004"><ele>236.0</ele><time>2026-04-11T12:45:29Z</time></trkpt><trkpt lat="42.98658782573354" lon="11.410016051643215"><ele>236.0</ele><time>2026-04-11T12:45:30Z</time></trkpt><trkpt lat="42.986520955837456" lon="11.409992618121684"><ele>236.0</ele><time>2026-04-11T12:45:31Z</time></trkpt><trkpt lat="42.98644848077441" lon="11.409978568546695"><ele>236.0</ele><time>2026-04-11T12:45:32Z</time></trkpt><trkpt lat="42.98638180433226" lon="11.409965728492429"><ele>235.33333333333334</ele><time>2026-04-11T12:45:33Z</time></trkpt><trkpt lat="42.9863156154613" lon="11.409945099914545"><ele>234.66666666666669</ele><time>2026-04-11T12:45:34Z</time></trkpt><trkpt lat="42.986250183103365" lon="11.409925223577243"><ele>234.0</ele><time>2026-04-11T12:45:35Z</time></trkpt><trkpt lat="42.98618500464532" lon="11.409904412698006"><ele>233.33333333333331</ele><time>2026-04-11T12:45:36Z</time></trkpt><trkpt lat="42.986118986087206" lon="11.409879777983061"><ele>232.66666666666666</ele><time>2026-04-11T12:45:37Z</time></trkpt><trkpt lat="42.98599665426229" lon="11.40984070614009"><ele>232.0</ele><time>2026-04-11T12:45:39Z</time></trkpt><trkpt lat="42.98588062946733" lon="11.409781199975326"><ele>231.83333333333331</ele><time>2026-04-11T12:45:41Z</time></trkpt><trkpt lat="42.98582184635899" lon="11.409742443092526"><ele>231.66666666666666</ele><time>2026-04-11T12:45:42Z</time></trkpt><trkpt lat="42.98576144606744" lon="11.409706705108832"><ele>231.5</ele><time>2026-04-11T12:45:43Z</time></trkpt><trkpt lat="42.98564621288022" lon="11.409637729171275"><ele>231.33333333333331</ele><time>2026-04-11T12:45:45Z</time></trkpt><trkpt lat="42.985533710602226" lon="11.409570277592696"><ele>231.16666666666666</ele><time>2026-04-11T12:45:47Z</time></trkpt><trkpt lat="42.985471917107745" lon="11.409536948185494"><ele>231.0</ele><time>2026-04-11T12:45:48Z</time></trkpt><trkpt lat="42.985408462796585" lon="11.409512165874187"><ele>229.66666666666666</ele><time>2026-04-11T12:45:49Z</time></trkpt><trkpt lat="42.98532826064951" lon="11.409471931050286"><ele>228.33333333333331</ele><time>2026-04-11T12:45:50Z</time></trkpt><trkpt lat="42.98524398995366" lon="11.40944165720967"><ele>227.0</ele><time>2026-04-11T12:45:51Z</time></trkpt><trkpt lat="42.98516286728905" lon="11.40941251426021"><ele>225.66666666666666</ele><time>2026-04-11T12:45:52Z</time></trkpt><trkpt lat="42.98507243586376" lon="11.409380646790925"><ele>224.33333333333331</ele><time>2026-04-11T12:45:53Z</time></trkpt><trkpt lat="42.98498101821886" lon="11.409348994395334"><ele>223.0</ele><time>2026-04-11T12:45:54Z</time></trkpt><trkpt lat="42.98488710762201" lon="11.409315806283956"><ele>222.60000000000002</ele><time>2026-04-11T12:45:55Z</time></trkpt><trkpt lat="42.984793681822495" lon="11.409274141123774"><ele>222.20000000000002</ele><time>2026-04-11T12:45:56Z</time></trkpt><trkpt lat="42.98470258663419" lon="11.409225110691493"><ele>221.8</ele><time>2026-04-11T12:45:57Z</time></trkpt><trkpt lat="42.984609945852846" lon="11.40916741549589"><ele>221.4</ele><time>2026-04-11T12:45:58Z</time></trkpt><trkpt lat="42.98451964829777" lon="11.409103089307806"><ele>221.0</ele><time>2026-04-11T12:45:59Z</time></trkpt><trkpt lat="42.98442289661269" lon="11.409033314603674"><ele>221.0</ele><time>2026-04-11T12:46:00Z</time></trkpt><trkpt lat="42.98432461814123" lon="11.408956849624065"><ele>221.00000000000003</ele><time>2026-04-11T12:46:01Z</time></trkpt><trkpt lat="42.98422970571068" lon="11.408878485374187"><ele>221.00000000000003</ele><time>2026-04-11T12:46:02Z</time></trkpt><trkpt lat="42.98413453322541" lon="11.408799912867934"><ele>221.0</ele><time>2026-04-11T12:46:03Z</time></trkpt><trkpt lat="42.98404275414121" lon="11.40872414175815"><ele>221.0</ele><time>2026-04-11T12:46:04Z</time></trkpt><trkpt lat="42.98394990439479" lon="11.408645948876305"><ele>218.60000000000002</ele><time>2026-04-11T12:46:05Z</time></trkpt><trkpt lat="42.98386002581071" lon="11.408570809084162"><ele>216.20000000000002</ele><time>2026-04-11T12:46:06Z</time></trkpt><trkpt lat="42.98377119958306" lon="11.40849749393957"><ele>213.8</ele><time>2026-04-11T12:46:07Z</time></trkpt><trkpt lat="42.98368298584051" lon="11.40842468422136"><ele>211.39999999999998</ele><time>2026-04-11T12:46:08Z</time></trkpt><trkpt lat="42.98359542536863" lon="11.408352413701001"><ele>209.0</ele><time>2026-04-11T12:46:09Z</time></trkpt><trkpt lat="42.9835084668798" lon="11.408280640084369"><ele>209.0</ele><time>2026-04-11T12:46:10Z</time></trkpt><trkpt lat="42.98342365033805" lon="11.408210634341783"><ele>209.0</ele><time>2026-04-11T12:46:11Z</time></trkpt><trkpt lat="42.98334023335138" lon="11.408141783770134"><ele>209.0</ele><time>2026-04-11T12:46:12Z</time></trkpt><trkpt lat="42.98326021265349" lon="11.408075736505435"><ele>209.0</ele><time>2026-04-11T12:46:13Z</time></trkpt><trkpt lat="42.983180582108695" lon="11.40801019076718"><ele>209.0</ele><time>2026-04-11T12:46:14Z</time></trkpt><trkpt lat="42.98310131531689" lon="11.40794588183179"><ele>208.2</ele><time>2026-04-11T12:46:15Z</time></trkpt><trkpt lat="42.983019874302244" lon="11.407882290881131"><ele>207.39999999999998</ele><time>2026-04-11T12:46:16Z</time></trkpt><trkpt lat="42.98294176099046" lon="11.407821298260597"><ele>206.6</ele><time>2026-04-11T12:46:17Z</time></trkpt><trkpt lat="42.98286494418625" lon="11.407760010246859"><ele>205.8</ele><time>2026-04-11T12:46:18Z</time></trkpt><trkpt lat="42.982790331625495" lon="11.407697186596351"><ele>205.0</ele><time>2026-04-11T12:46:19Z</time></trkpt><trkpt lat="42.98271365257931" lon="11.407633949365126"><ele>204.99999999999997</ele><time>2026-04-11T12:46:20Z</time></trkpt><trkpt lat="42.98263970395401" lon="11.407575672386436"><ele>205.0</ele><time>2026-04-11T12:46:21Z</time></trkpt><trkpt lat="42.98256032211008" lon="11.407523536631167"><ele>205.0</ele><time>2026-04-11T12:46:22Z</time></trkpt><trkpt lat="42.98248783928758" lon="11.40749867793767"><ele>205.0</ele><time>2026-04-11T12:46:23Z</time></trkpt><trkpt lat="42.982415827596945" lon="11.407530259698587"><ele>204.99999999999997</ele><time>2026-04-11T12:46:24Z</time></trkpt><trkpt lat="42.982358092865184" lon="11.407590040163898"><ele>205.0</ele><time>2026-04-11T12:46:25Z</time></trkpt><trkpt lat="42.98231572022634" lon="11.40766620524614"><ele>205.14285714285714</ele><time>2026-04-11T12:46:26Z</time></trkpt><trkpt lat="42.98229351269457" lon="11.407758108447814"><ele>205.28571428571428</ele><time>2026-04-11T12:46:27Z</time></trkpt><trkpt lat="42.982274487105904" lon="11.407851376619606"><ele>205.42857142857142</ele><time>2026-04-11T12:46:28Z</time></trkpt><trkpt lat="42.98224331879702" lon="11.40793791925622"><ele>205.57142857142856</ele><time>2026-04-11T12:46:29Z</time></trkpt><trkpt lat="42.982212764806896" lon="11.408025920533385"><ele>205.71428571428572</ele><time>2026-04-11T12:46:30Z</time></trkpt><trkpt lat="42.98218168765514" lon="11.408115584963607"><ele>205.85714285714283</ele><time>2026-04-11T12:46:31Z</time></trkpt><trkpt lat="42.98214813216346" lon="11.40820836700819"><ele>206.0</ele><time>2026-04-11T12:46:32Z</time></trkpt><trkpt lat="42.982116653417464" lon="11.408300023047405"><ele>206.57142857142856</ele><time>2026-04-11T12:46:33Z</time></trkpt><trkpt lat="42.982084517243536" lon="11.40839070400486"><ele>207.14285714285714</ele><time>2026-04-11T12:46:34Z</time></trkpt><trkpt lat="42.98205238381102" lon="11.408476092026484"><ele>207.71428571428572</ele><time>2026-04-11T12:46:35Z</time></trkpt><trkpt lat="42.982016066997545" lon="11.408557950744246"><ele>208.28571428571428</ele><time>2026-04-11T12:46:36Z</time></trkpt><trkpt lat="42.98196920954116" lon="11.408628879494353"><ele>208.85714285714286</ele><time>2026-04-11T12:46:37Z</time></trkpt><trkpt lat="42.98191373168328" lon="11.40868964869939"><ele>209.42857142857142</ele><time>2026-04-11T12:46:38Z</time></trkpt><trkpt lat="42.98186317738691" lon="11.408744641235565"><ele>210.0</ele><time>2026-04-11T12:46:39Z</time></trkpt><trkpt lat="42.98181568984963" lon="11.408806206081623"><ele>210.4</ele><time>2026-04-11T12:46:40Z</time></trkpt><trkpt lat="42.98171031921018" lon="11.408885560759472"><ele>210.8</ele><time>2026-04-11T12:46:42Z</time></trkpt><trkpt lat="42.981611455259696" lon="11.408953450799984"><ele>211.2</ele><time>2026-04-11T12:46:44Z</time></trkpt><trkpt lat="42.98150459728376" lon="11.40897838850549"><ele>211.6</ele><time>2026-04-11T12:46:46Z</time></trkpt><trkpt lat="42.98140561579403" lon="11.40901497818804"><ele>212.0</ele><time>2026-04-11T12:46:48Z</time></trkpt><trkpt lat="42.98130853995969" lon="11.409031329275516"><ele>212.6</ele><time>2026-04-11T12:46:50Z</time></trkpt><trkpt lat="42.981213169239304" lon="11.40904268882772"><ele>213.2</ele><time>2026-04-11T12:46:52Z</time></trkpt><trkpt lat="42.981117457505974" lon="11.40906136529827"><ele>213.8</ele><time>2026-04-11T12:46:54Z</time></trkpt><trkpt lat="42.98101685333349" lon="11.409080834308437"><ele>214.4</ele><time>2026-04-11T12:46:56Z</time></trkpt><trkpt lat="42.980930353028256" lon="11.4090808085202"><ele>215.0</ele><time>2026-04-11T12:46:59Z</time></trkpt><trkpt lat="42.98084150123352" lon="11.40915923038965"><ele>215.4</ele><time>2026-04-11T12:47:02Z</time></trkpt><trkpt lat="42.98077926195815" lon="11.409195494843184"><ele>215.8</ele><time>2026-04-11T12:47:04Z</time></trkpt><trkpt lat="42.98069335070427" lon="11.409216501760367"><ele>216.2</ele><time>2026-04-11T12:47:05Z</time></trkpt><trkpt lat="42.98059723192987" lon="11.409243050535856"><ele>216.6</ele><time>2026-04-11T12:47:06Z</time></trkpt><trkpt lat="42.980503522779834" lon="11.409237717530019"><ele>217.0</ele><time>2026-04-11T12:47:07Z</time></trkpt><trkpt lat="42.98039741864914" lon="11.409213394773277"><ele>217.0</ele><time>2026-04-11T12:47:08Z</time></trkpt><trkpt lat="42.98031712258477" lon="11.40923887872572"><ele>217.0</ele><time>2026-04-11T12:47:09Z</time></trkpt><trkpt lat="42.98023464477212" lon="11.409277438861686"><ele>217.0</ele><time>2026-04-11T12:47:10Z</time></trkpt><trkpt lat="42.980148878719234" lon="11.409314833744736"><ele>217.0</ele><time>2026-04-11T12:47:11Z</time></trkpt><trkpt lat="42.98004549313484" lon="11.409332021304657"><ele>217.0</ele><time>2026-04-11T12:47:12Z</time></trkpt><trkpt lat="42.97993323888711" lon="11.409342285469473"><ele>215.6</ele><time>2026-04-11T12:47:13Z</time></trkpt><trkpt lat="42.97981531387199" lon="11.40931324092906"><ele>214.2</ele><time>2026-04-11T12:47:14Z</time></trkpt><trkpt lat="42.97971679260114" lon="11.40929209798461"><ele>212.8</ele><time>2026-04-11T12:47:15Z</time></trkpt><trkpt lat="42.979634668430826" lon="11.409286277349862"><ele>211.4</ele><time>2026-04-11T12:47:16Z</time></trkpt><trkpt lat="42.9795503722577" lon="11.409271292139966"><ele>210.0</ele><time>2026-04-11T12:47:17Z</time></trkpt><trkpt lat="42.979458649852845" lon="11.40925445288346"><ele>210.0</ele><time>2026-04-11T12:47:18Z</time></trkpt><trkpt lat="42.97937382019175" lon="11.409237786346797"><ele>210.0</ele><time>2026-04-11T12:47:19Z</time></trkpt><trkpt lat="42.97927612301737" lon="11.40925933614825"><ele>210.0</ele><time>2026-04-11T12:47:20Z</time></trkpt><trkpt lat="42.979174025851734" lon="11.409287627396822"><ele>210.0</ele><time>2026-04-11T12:47:21Z</time></trkpt><trkpt lat="42.979070270603984" lon="11.409329754141327"><ele>210.0</ele><time>2026-04-11T12:47:22Z</time></trkpt><trkpt lat="42.97897943449387" lon="11.409379590133037"><ele>208.0</ele><time>2026-04-11T12:47:23Z</time></trkpt><trkpt lat="42.978889194863214" lon="11.409415571822585"><ele>206.0</ele><time>2026-04-11T12:47:24Z</time></trkpt><trkpt lat="42.978798664534914" lon="11.409448056231492"><ele>204.0</ele><time>2026-04-11T12:47:25Z</time></trkpt><trkpt lat="42.978708594023495" lon="11.409467045088505"><ele>202.0</ele><time>2026-04-11T12:47:26Z</time></trkpt><trkpt lat="42.97860981871976" lon="11.409459083509244"><ele>200.0</ele><time>2026-04-11T12:47:27Z</time></trkpt><trkpt lat="42.978509859746424" lon="11.409434110392352"><ele>200.0</ele><time>2026-04-11T12:47:28Z</time></trkpt><trkpt lat="42.97839789639633" lon="11.409395451998119"><ele>200.0</ele><time>2026-04-11T12:47:29Z</time></trkpt><trkpt lat="42.97828538547794" lon="11.409346170571686"><ele>200.0</ele><time>2026-04-11T12:47:30Z</time></trkpt><trkpt lat="42.97816977554485" lon="11.409311969753567"><ele>200.0</ele><time>2026-04-11T12:47:31Z</time></trkpt><trkpt lat="42.978060791221594" lon="11.40925208445413"><ele>197.75</ele><time>2026-04-11T12:47:32Z</time></trkpt><trkpt lat="42.97794405326702" lon="11.409197679892802"><ele>195.5</ele><time>2026-04-11T12:47:33Z</time></trkpt><trkpt lat="42.97782006293021" lon="11.409137638617755"><ele>193.25</ele><time>2026-04-11T12:47:34Z</time></trkpt><trkpt lat="42.97769512014124" lon="11.409082852027122"><ele>191.0</ele><time>2026-04-11T12:47:35Z</time></trkpt><trkpt lat="42.97754528759105" lon="11.409016987382326"><ele>189.25</ele><time>2026-04-11T12:47:36Z</time></trkpt><trkpt lat="42.977419972056836" lon="11.408949557854273"><ele>187.5</ele><time>2026-04-11T12:47:37Z</time></trkpt><trkpt lat="42.97729896732154" lon="11.408878133443567"><ele>185.75</ele><time>2026-04-11T12:47:38Z</time></trkpt><trkpt lat="42.97719567607473" lon="11.408805843278433"><ele>184.0</ele><time>2026-04-11T12:47:39Z</time></trkpt><trkpt lat="42.977092007719904" lon="11.408737244448542"><ele>182.25</ele><time>2026-04-11T12:47:40Z</time></trkpt><trkpt lat="42.97698526185633" lon="11.408651058821222"><ele>180.5</ele><time>2026-04-11T12:47:41Z</time></trkpt><trkpt lat="42.97687916602087" lon="11.408591913904818"><ele>178.75</ele><time>2026-04-11T12:47:42Z</time></trkpt><trkpt lat="42.97677022211063" lon="11.408550260693072"><ele>177.0</ele><time>2026-04-11T12:47:43Z</time></trkpt><trkpt lat="42.976669845730314" lon="11.408532197493367"><ele>176.66666666666666</ele><time>2026-04-11T12:47:44Z</time></trkpt><trkpt lat="42.976582747264615" lon="11.408515495392477"><ele>176.33333333333334</ele><time>2026-04-11T12:47:45Z</time></trkpt><trkpt lat="42.97650184082916" lon="11.408518767819965"><ele>176.0</ele><time>2026-04-11T12:47:46Z</time></trkpt><trkpt lat="42.97642413155542" lon="11.408571361787955"><ele>175.66666666666669</ele><time>2026-04-11T12:47:47Z</time></trkpt><trkpt lat="42.97636446920017" lon="11.408674266479355"><ele>175.33333333333334</ele><time>2026-04-11T12:47:48Z</time></trkpt><trkpt lat="42.97633734153355" lon="11.40878994553511"><ele>175.0</ele><time>2026-04-11T12:47:49Z</time></trkpt><trkpt lat="42.976319254685414" lon="11.408900741524223"><ele>175.0</ele><time>2026-04-11T12:47:50Z</time></trkpt><trkpt lat="42.976311237223854" lon="11.409004235792997"><ele>175.0</ele><time>2026-04-11T12:47:51Z</time></trkpt><trkpt lat="42.976309641365866" lon="11.40910438927142"><ele>175.0</ele><time>2026-04-11T12:47:52Z</time></trkpt><trkpt lat="42.97629801936469" lon="11.409200158720772"><ele>175.0</ele><time>2026-04-11T12:47:53Z</time></trkpt><trkpt lat="42.97629074694381" lon="11.409293546876638"><ele>175.0</ele><time>2026-04-11T12:47:54Z</time></trkpt><trkpt lat="42.97625687309847" lon="11.409382231789154"><ele>175.0</ele><time>2026-04-11T12:47:55Z</time></trkpt><trkpt lat="42.976224304935954" lon="11.409469511768405"><ele>175.0</ele><time>2026-04-11T12:47:56Z</time></trkpt><trkpt lat="42.976187595519626" lon="11.409551055441238"><ele>175.8</ele><time>2026-04-11T12:47:57Z</time></trkpt><trkpt lat="42.976125097664784" lon="11.409682258184596"><ele>176.6</ele><time>2026-04-11T12:47:59Z</time></trkpt><trkpt lat="42.976062280187215" lon="11.409794344082474"><ele>177.39999999999998</ele><time>2026-04-11T12:48:01Z</time></trkpt><trkpt lat="42.97598987697894" lon="11.409884307768777"><ele>178.2</ele><time>2026-04-11T12:48:03Z</time></trkpt><trkpt lat="42.975869600017646" lon="11.409926896628706"><ele>179.0</ele><time>2026-04-11T12:48:05Z</time></trkpt><trkpt lat="42.97581114993266" lon="11.409976396501563"><ele>176.85714285714286</ele><time>2026-04-11T12:48:06Z</time></trkpt><trkpt lat="42.97574836322114" lon="11.410001911150198"><ele>174.71428571428572</ele><time>2026-04-11T12:48:07Z</time></trkpt><trkpt lat="42.975687195159054" lon="11.410028821424953"><ele>172.57142857142856</ele><time>2026-04-11T12:48:08Z</time></trkpt><trkpt lat="42.97562037416224" lon="11.410061868023309"><ele>170.42857142857144</ele><time>2026-04-11T12:48:09Z</time></trkpt><trkpt lat="42.97555047294739" lon="11.410107943877883"><ele>168.28571428571428</ele><time>2026-04-11T12:48:10Z</time></trkpt><trkpt lat="42.97548367224939" lon="11.410152318869326"><ele>166.14285714285714</ele><time>2026-04-11T12:48:11Z</time></trkpt><trkpt lat="42.97541853794016" lon="11.410196227509502"><ele>164.0</ele><time>2026-04-11T12:48:12Z</time></trkpt><trkpt lat="42.97534974455739" lon="11.410250977371891"><ele>164.0</ele><time>2026-04-11T12:48:13Z</time></trkpt><trkpt lat="42.97528705398668" lon="11.410302306186942"><ele>164.0</ele><time>2026-04-11T12:48:14Z</time></trkpt><trkpt lat="42.97523257052126" lon="11.410370314766801"><ele>164.0</ele><time>2026-04-11T12:48:15Z</time></trkpt><trkpt lat="42.97518673608618" lon="11.410455314265867"><ele>164.0</ele><time>2026-04-11T12:48:16Z</time></trkpt><trkpt lat="42.97516670109454" lon="11.410550332035562"><ele>164.0</ele><time>2026-04-11T12:48:17Z</time></trkpt><trkpt lat="42.97514272219517" lon="11.410660762183115"><ele>164.0</ele><time>2026-04-11T12:48:18Z</time></trkpt><trkpt lat="42.9751273904844" lon="11.410790214013678"><ele>164.6</ele><time>2026-04-11T12:48:19Z</time></trkpt><trkpt lat="42.975098846013104" lon="11.410919550895402"><ele>165.2</ele><time>2026-04-11T12:48:20Z</time></trkpt><trkpt lat="42.97504816649327" lon="11.411046377378014"><ele>165.79999999999998</ele><time>2026-04-11T12:48:21Z</time></trkpt><trkpt lat="42.97497361735921" lon="11.41115119388953"><ele>166.39999999999998</ele><time>2026-04-11T12:48:22Z</time></trkpt><trkpt lat="42.97488733464256" lon="11.411238942869876"><ele>167.0</ele><time>2026-04-11T12:48:23Z</time></trkpt><trkpt lat="42.97480230085597" lon="11.411318015538896"><ele>164.79999999999998</ele><time>2026-04-11T12:48:24Z</time></trkpt><trkpt lat="42.974727365121275" lon="11.411412303567232"><ele>162.6</ele><time>2026-04-11T12:48:25Z</time></trkpt><trkpt lat="42.97465295582527" lon="11.411509344249025"><ele>160.39999999999998</ele><time>2026-04-11T12:48:26Z</time></trkpt><trkpt lat="42.97457284636839" lon="11.411615705409261"><ele>158.2</ele><time>2026-04-11T12:48:27Z</time></trkpt><trkpt lat="42.97449728645661" lon="11.411725363566589"><ele>156.0</ele><time>2026-04-11T12:48:28Z</time></trkpt><trkpt lat="42.97441582936834" lon="11.411829340681194"><ele>156.0</ele><time>2026-04-11T12:48:29Z</time></trkpt><trkpt lat="42.97432925736035" lon="11.411932951563879"><ele>156.0</ele><time>2026-04-11T12:48:30Z</time></trkpt><trkpt lat="42.97423986115036" lon="11.412033759674568"><ele>156.0</ele><time>2026-04-11T12:48:31Z</time></trkpt><trkpt lat="42.97414270916462" lon="11.412130871075385"><ele>156.0</ele><time>2026-04-11T12:48:32Z</time></trkpt><trkpt lat="42.97406354428544" lon="11.412248872502976"><ele>153.5</ele><time>2026-04-11T12:48:33Z</time></trkpt><trkpt lat="42.97397595315022" lon="11.4123612142462"><ele>151.0</ele><time>2026-04-11T12:48:34Z</time></trkpt><trkpt lat="42.973882209335954" lon="11.412472556054883"><ele>148.5</ele><time>2026-04-11T12:48:35Z</time></trkpt><trkpt lat="42.9737910556973" lon="11.412589002164347"><ele>146.0</ele><time>2026-04-11T12:48:36Z</time></trkpt><trkpt lat="42.973697321758266" lon="11.41270499476689"><ele>146.0</ele><time>2026-04-11T12:48:37Z</time></trkpt><trkpt lat="42.97359762212309" lon="11.412819715777246"><ele>146.0</ele><time>2026-04-11T12:48:38Z</time></trkpt><trkpt lat="42.97349945160432" lon="11.41293809136229"><ele>146.0</ele><time>2026-04-11T12:48:39Z</time></trkpt><trkpt lat="42.97340320278986" lon="11.413061842406602"><ele>146.0</ele><time>2026-04-11T12:48:40Z</time></trkpt><trkpt lat="42.97330567469068" lon="11.413185143696618"><ele>143.75</ele><time>2026-04-11T12:48:41Z</time></trkpt><trkpt lat="42.97320295332643" lon="11.4133060656476"><ele>141.5</ele><time>2026-04-11T12:48:42Z</time></trkpt><trkpt lat="42.97310136825111" lon="11.413428719199134"><ele>139.25</ele><time>2026-04-11T12:48:43Z</time></trkpt><trkpt lat="42.97300122788128" lon="11.413559014639395"><ele>137.0</ele><time>2026-04-11T12:48:44Z</time></trkpt><trkpt lat="42.97289981958051" lon="11.413690031348576"><ele>137.0</ele><time>2026-04-11T12:48:45Z</time></trkpt><trkpt lat="42.97279817085034" lon="11.413821371483253"><ele>137.0</ele><time>2026-04-11T12:48:46Z</time></trkpt><trkpt lat="42.97269449242232" lon="11.413951222327487"><ele>137.0</ele><time>2026-04-11T12:48:47Z</time></trkpt><trkpt lat="42.97260089341167" lon="11.41407247099483"><ele>137.0</ele><time>2026-04-11T12:48:48Z</time></trkpt><trkpt lat="42.97251384712476" lon="11.414184777771336"><ele>135.0</ele><time>2026-04-11T12:48:49Z</time></trkpt><trkpt lat="42.97242713164415" lon="11.414293432275564"><ele>133.0</ele><time>2026-04-11T12:48:50Z</time></trkpt><trkpt lat="42.97233968252053" lon="11.41441264615334"><ele>131.0</ele><time>2026-04-11T12:48:51Z</time></trkpt><trkpt lat="42.97225152889713" lon="11.414532652931307"><ele>129.0</ele><time>2026-04-11T12:48:52Z</time></trkpt><trkpt lat="42.97215050933014" lon="11.414643849018837"><ele>127.25</ele><time>2026-04-11T12:48:53Z</time></trkpt><trkpt lat="42.97204259302634" lon="11.41475003583764"><ele>125.5</ele><time>2026-04-11T12:48:54Z</time></trkpt><trkpt lat="42.971927225067724" lon="11.414847936156047"><ele>123.75</ele><time>2026-04-11T12:48:55Z</time></trkpt><trkpt lat="42.97180640509212" lon="11.41493466151846"><ele>122.0</ele><time>2026-04-11T12:48:56Z</time></trkpt><trkpt lat="42.97168578952542" lon="11.415013510470121"><ele>121.75</ele><time>2026-04-11T12:48:57Z</time></trkpt><trkpt lat="42.971570121850064" lon="11.415092863477412"><ele>121.5</ele><time>2026-04-11T12:48:58Z</time></trkpt><trkpt lat="42.97145381556392" lon="11.415167834898373"><ele>121.25</ele><time>2026-04-11T12:48:59Z</time></trkpt><trkpt lat="42.97133921821199" lon="11.415234463982197"><ele>121.0</ele><time>2026-04-11T12:49:00Z</time></trkpt><trkpt lat="42.971223238199606" lon="11.415298525506934"><ele>121.0</ele><time>2026-04-11T12:49:01Z</time></trkpt><trkpt lat="42.97110920960212" lon="11.415362314554311"><ele>121.0</ele><time>2026-04-11T12:49:02Z</time></trkpt><trkpt lat="42.97099632221504" lon="11.415426752097087"><ele>121.0</ele><time>2026-04-11T12:49:03Z</time></trkpt><trkpt lat="42.97088698365677" lon="11.415495099679816"><ele>121.0</ele><time>2026-04-11T12:49:04Z</time></trkpt><trkpt lat="42.97078036147344" lon="11.415559560903105"><ele>119.8</ele><time>2026-04-11T12:49:05Z</time></trkpt><trkpt lat="42.97067674278205" lon="11.415627158750425"><ele>118.6</ele><time>2026-04-11T12:49:06Z</time></trkpt><trkpt lat="42.97057470003222" lon="11.41568952074968"><ele>117.4</ele><time>2026-04-11T12:49:07Z</time></trkpt><trkpt lat="42.97047202210295" lon="11.415735260151823"><ele>116.2</ele><time>2026-04-11T12:49:08Z</time></trkpt><trkpt lat="42.97037130813095" lon="11.415783389600211"><ele>115.0</ele><time>2026-04-11T12:49:09Z</time></trkpt><trkpt lat="42.970275175925586" lon="11.415838765970715"><ele>115.0</ele><time>2026-04-11T12:49:10Z</time></trkpt><trkpt lat="42.97018091865434" lon="11.415891194947143"><ele>115.0</ele><time>2026-04-11T12:49:11Z</time></trkpt><trkpt lat="42.97008762730135" lon="11.415943502194127"><ele>115.0</ele><time>2026-04-11T12:49:12Z</time></trkpt><trkpt lat="42.96999930489124" lon="11.41599617288731"><ele>115.0</ele><time>2026-04-11T12:49:13Z</time></trkpt><trkpt lat="42.96990788665748" lon="11.416046297614894"><ele>115.0</ele><time>2026-04-11T12:49:14Z</time></trkpt><trkpt lat="42.96981905032537" lon="11.416098970463805"><ele>114.66666666666667</ele><time>2026-04-11T12:49:15Z</time></trkpt><trkpt lat="42.96973175984075" lon="11.416140747229843"><ele>114.33333333333334</ele><time>2026-04-11T12:49:16Z</time></trkpt><trkpt lat="42.96964644409222" lon="11.416193310246893"><ele>114.0</ele><time>2026-04-11T12:49:17Z</time></trkpt><trkpt lat="42.96956173378524" lon="11.416229241357579"><ele>113.66666666666666</ele><time>2026-04-11T12:49:18Z</time></trkpt><trkpt lat="42.96947892220516" lon="11.41627204989633"><ele>113.33333333333333</ele><time>2026-04-11T12:49:19Z</time></trkpt><trkpt lat="42.96940329044789" lon="11.416324585663615"><ele>113.0</ele><time>2026-04-11T12:49:20Z</time></trkpt><trkpt lat="42.969325737433046" lon="11.416366604153124"><ele>113.0</ele><time>2026-04-11T12:49:21Z</time></trkpt><trkpt lat="42.96924864367104" lon="11.416406335646373"><ele>113.0</ele><time>2026-04-11T12:49:22Z</time></trkpt><trkpt lat="42.96917674386144" lon="11.416452274452116"><ele>113.0</ele><time>2026-04-11T12:49:23Z</time></trkpt><trkpt lat="42.969110263689885" lon="11.41649742174285"><ele>113.0</ele><time>2026-04-11T12:49:24Z</time></trkpt><trkpt lat="42.96904555391043" lon="11.416509175432507"><ele>113.0</ele><time>2026-04-11T12:49:25Z</time></trkpt><trkpt lat="42.96897945985081" lon="11.416511153329738"><ele>113.0</ele><time>2026-04-11T12:49:26Z</time></trkpt><trkpt lat="42.9689153280374" lon="11.4165394339076"><ele>113.0</ele><time>2026-04-11T12:49:27Z</time></trkpt><trkpt lat="42.96885426334923" lon="11.416577024872417"><ele>112.5</ele><time>2026-04-11T12:49:28Z</time></trkpt><trkpt lat="42.96875137327032" lon="11.416680790824218"><ele>112.0</ele><time>2026-04-11T12:49:30Z</time></trkpt><trkpt lat="42.96870709307" lon="11.416881820742107"><ele>111.5</ele><time>2026-04-11T12:49:32Z</time></trkpt><trkpt lat="42.96872936116885" lon="11.416974641617909"><ele>111.0</ele><time>2026-04-11T12:49:33Z</time></trkpt><trkpt lat="42.968711285968595" lon="11.417122591233253"><ele>111.33333333333333</ele><time>2026-04-11T12:49:35Z</time></trkpt><trkpt lat="42.968729910126186" lon="11.417269068597195"><ele>111.66666666666666</ele><time>2026-04-11T12:49:37Z</time></trkpt><trkpt lat="42.968767633872424" lon="11.417381764086393"><ele>112.0</ele><time>2026-04-11T12:49:39Z</time></trkpt><trkpt lat="42.968796025150006" lon="11.417497075404533"><ele>112.33333333333333</ele><time>2026-04-11T12:49:42Z</time></trkpt><trkpt lat="42.96883364788411" lon="11.417576351363255"><ele>112.66666666666666</ele><time>2026-04-11T12:49:45Z</time></trkpt><trkpt lat="42.96886019117888" lon="11.417668673934585"><ele>113.0</ele><time>2026-04-11T12:49:48Z</time></trkpt><trkpt lat="42.96887940572935" lon="11.417757823400594"><ele>112.99999999999999</ele><time>2026-04-11T12:49:51Z</time></trkpt><trkpt lat="42.96889989265679" lon="11.417840184023671"><ele>113.0</ele><time>2026-04-11T12:49:54Z</time></trkpt><trkpt lat="42.968917046607906" lon="11.417935943939169"><ele>113.0</ele><time>2026-04-11T12:49:57Z</time></trkpt><trkpt lat="42.96892310726718" lon="11.418041820978432"><ele>113.0</ele><time>2026-04-11T12:50:01Z</time></trkpt><trkpt lat="42.9689138790917" lon="11.41815406766013"><ele>112.99999999999999</ele><time>2026-04-11T12:50:05Z</time></trkpt><trkpt lat="42.968873976651736" lon="11.418241448204435"><ele>113.0</ele><time>2026-04-11T12:50:09Z</time></trkpt><trkpt lat="42.968817254912906" lon="11.418315379121516"><ele>115.0</ele><time>2026-04-11T12:50:13Z</time></trkpt><trkpt lat="42.96877645428344" lon="11.4183857660729"><ele>117.0</ele><time>2026-04-11T12:50:16Z</time></trkpt><trkpt lat="42.968713714686125" lon="11.41845623016621"><ele>119.0</ele><time>2026-04-11T12:50:20Z</time></trkpt><trkpt lat="42.968666192520935" lon="11.418513896017863"><ele>121.0</ele><time>2026-04-11T12:50:23Z</time></trkpt><trkpt lat="42.96860204060772" lon="11.418598740013366"><ele>123.0</ele><time>2026-04-11T12:50:26Z</time></trkpt><trkpt lat="42.96855120382827" lon="11.41867525166068"><ele>125.0</ele><time>2026-04-11T12:50:29Z</time></trkpt><trkpt lat="42.96850107815203" lon="11.41874552321028"><ele>127.0</ele><time>2026-04-11T12:50:32Z</time></trkpt><trkpt lat="42.968459838521866" lon="11.41881496639744"><ele>128.5</ele><time>2026-04-11T12:50:35Z</time></trkpt><trkpt lat="42.968428403193265" lon="11.418894466870691"><ele>130.0</ele><time>2026-04-11T12:50:38Z</time></trkpt><trkpt lat="42.968406245845486" lon="11.418975750588244"><ele>131.5</ele><time>2026-04-11T12:50:41Z</time></trkpt><trkpt lat="42.96837843315942" lon="11.419077517249107"><ele>133.0</ele><time>2026-04-11T12:50:45Z</time></trkpt><trkpt lat="42.96837214540855" lon="11.419182060225115"><ele>134.5</ele><time>2026-04-11T12:50:49Z</time></trkpt><trkpt lat="42.96835792687528" lon="11.419302311879916"><ele>136.0</ele><time>2026-04-11T12:50:53Z</time></trkpt><trkpt lat="42.96834003797658" lon="11.419413233657636"><ele>135.99999999999997</ele><time>2026-04-11T12:50:56Z</time></trkpt><trkpt lat="42.96832312422497" lon="11.419502255614015"><ele>136.0</ele><time>2026-04-11T12:50:59Z</time></trkpt><trkpt lat="42.968293524456904" lon="11.41959106973054"><ele>136.0</ele><time>2026-04-11T12:51:02Z</time></trkpt><trkpt lat="42.96828506624995" lon="11.419711761992078"><ele>136.0</ele><time>2026-04-11T12:51:05Z</time></trkpt><trkpt lat="42.968299158601695" lon="11.419798477763148"><ele>136.0</ele><time>2026-04-11T12:51:10Z</time></trkpt><trkpt lat="42.96830890202754" lon="11.419900968360633"><ele>135.99999999999997</ele><time>2026-04-11T12:51:14Z</time></trkpt><trkpt lat="42.9683104065156" lon="11.419996564639835"><ele>136.0</ele><time>2026-04-11T12:51:17Z</time></trkpt><trkpt lat="42.96832868362031" lon="11.420116782517468"><ele>135.6</ele><time>2026-04-11T12:51:20Z</time></trkpt><trkpt lat="42.96835249359053" lon="11.420208763075726"><ele>135.2</ele><time>2026-04-11T12:51:22Z</time></trkpt><trkpt lat="42.9683757854983" lon="11.420312151867266"><ele>134.8</ele><time>2026-04-11T12:51:24Z</time></trkpt><trkpt lat="42.968399734485196" lon="11.420426153237033"><ele>134.4</ele><time>2026-04-11T12:51:26Z</time></trkpt><trkpt lat="42.96842683008179" lon="11.420552460191299"><ele>134.0</ele><time>2026-04-11T12:51:28Z</time></trkpt><trkpt lat="42.96846641788009" lon="11.420701843003675"><ele>134.8</ele><time>2026-04-11T12:51:30Z</time></trkpt><trkpt lat="42.96850392481384" lon="11.420860330355346"><ele>135.60000000000002</ele><time>2026-04-11T12:51:32Z</time></trkpt><trkpt lat="42.96851577026151" lon="11.42094742937216"><ele>136.4</ele><time>2026-04-11T12:51:33Z</time></trkpt><trkpt lat="42.968548434998915" lon="11.42108896828631"><ele>137.20000000000002</ele><time>2026-04-11T12:51:35Z</time></trkpt><trkpt lat="42.96857368925332" lon="11.421222332844257"><ele>138.0</ele><time>2026-04-11T12:51:37Z</time></trkpt><trkpt lat="42.96859782499218" lon="11.421340968942605"><ele>138.33333333333334</ele><time>2026-04-11T12:51:39Z</time></trkpt><trkpt lat="42.96862444914256" lon="11.421453968892568"><ele>138.66666666666666</ele><time>2026-04-11T12:51:41Z</time></trkpt><trkpt lat="42.96864102282346" lon="11.421561003077425"><ele>139.0</ele><time>2026-04-11T12:51:43Z</time></trkpt><trkpt lat="42.96866603435244" lon="11.421671050843269"><ele>139.33333333333331</ele><time>2026-04-11T12:51:45Z</time></trkpt><trkpt lat="42.96869274913185" lon="11.421776924800056"><ele>139.66666666666666</ele><time>2026-04-11T12:51:47Z</time></trkpt><trkpt lat="42.96871911386267" lon="11.421880218554818"><ele>140.0</ele><time>2026-04-11T12:51:49Z</time></trkpt><trkpt lat="42.968754112951686" lon="11.421987635201257"><ele>140.0</ele><time>2026-04-11T12:51:51Z</time></trkpt><trkpt lat="42.968775476764094" lon="11.422103505380813"><ele>140.0</ele><time>2026-04-11T12:51:53Z</time></trkpt><trkpt lat="42.968804000243885" lon="11.422235597156295"><ele>140.0</ele><time>2026-04-11T12:51:55Z</time></trkpt><trkpt lat="42.96881536865692" lon="11.422344597364807"><ele>140.0</ele><time>2026-04-11T12:51:57Z</time></trkpt><trkpt lat="42.96882309744095" lon="11.422475230131163"><ele>140.0</ele><time>2026-04-11T12:51:59Z</time></trkpt><trkpt lat="42.96881887587667" lon="11.422606562616664"><ele>140.0</ele><time>2026-04-11T12:52:01Z</time></trkpt><trkpt lat="42.968814729896714" lon="11.422753947999839"><ele>140.0</ele><time>2026-04-11T12:52:03Z</time></trkpt><trkpt lat="42.96881135083654" lon="11.422879223723022"><ele>140.0</ele><time>2026-04-11T12:52:05Z</time></trkpt><trkpt lat="42.96880988294351" lon="11.422986570440102"><ele>140.0</ele><time>2026-04-11T12:52:07Z</time></trkpt><trkpt lat="42.968793682019594" lon="11.423091314135787"><ele>140.0</ele><time>2026-04-11T12:52:09Z</time></trkpt><trkpt lat="42.96877998824703" lon="11.423205629841648"><ele>140.0</ele><time>2026-04-11T12:52:11Z</time></trkpt><trkpt lat="42.96876834972566" lon="11.423332297944382"><ele>140.33333333333331</ele><time>2026-04-11T12:52:13Z</time></trkpt><trkpt lat="42.96876039267752" lon="11.423467168616039"><ele>140.66666666666666</ele><time>2026-04-11T12:52:15Z</time></trkpt><trkpt lat="42.9687434286983" lon="11.423610275837289"><ele>141.0</ele><time>2026-04-11T12:52:17Z</time></trkpt><trkpt lat="42.96874089124635" lon="11.423696779242263"><ele>141.33333333333334</ele><time>2026-04-11T12:52:19Z</time></trkpt><trkpt lat="42.96871582133046" lon="11.42380332595869"><ele>141.66666666666669</ele><time>2026-04-11T12:52:21Z</time></trkpt><trkpt lat="42.96869392564507" lon="11.42391324719176"><ele>142.0</ele><time>2026-04-11T12:52:23Z</time></trkpt><trkpt lat="42.96867309043103" lon="11.42400149239507"><ele>142.16666666666669</ele><time>2026-04-11T12:52:24Z</time></trkpt><trkpt lat="42.96864433752323" lon="11.42409671655854"><ele>142.33333333333334</ele><time>2026-04-11T12:52:25Z</time></trkpt><trkpt lat="42.96860758472994" lon="11.424210043871755"><ele>142.5</ele><time>2026-04-11T12:52:27Z</time></trkpt><trkpt lat="42.96857521454584" lon="11.424317565361934"><ele>142.66666666666666</ele><time>2026-04-11T12:52:29Z</time></trkpt><trkpt lat="42.96853707260864" lon="11.424421403738595"><ele>142.83333333333331</ele><time>2026-04-11T12:52:31Z</time></trkpt><trkpt lat="42.968497170734345" lon="11.424528152378036"><ele>143.0</ele><time>2026-04-11T12:52:33Z</time></trkpt><trkpt lat="42.968461477463315" lon="11.424635336885725"><ele>142.8</ele><time>2026-04-11T12:52:35Z</time></trkpt><trkpt lat="42.968415785905464" lon="11.424735409870214"><ele>142.60000000000002</ele><time>2026-04-11T12:52:37Z</time></trkpt><trkpt lat="42.96837052132481" lon="11.424849400939953"><ele>142.39999999999998</ele><time>2026-04-11T12:52:39Z</time></trkpt><trkpt lat="42.96833213833547" lon="11.424981972059372"><ele>142.2</ele><time>2026-04-11T12:52:41Z</time></trkpt><trkpt lat="42.968280067633856" lon="11.425122712532112"><ele>142.0</ele><time>2026-04-11T12:52:43Z</time></trkpt><trkpt lat="42.96823077623946" lon="11.425262857215648"><ele>138.75</ele><time>2026-04-11T12:52:45Z</time></trkpt><trkpt lat="42.968188393424064" lon="11.425396370109372"><ele>135.5</ele><time>2026-04-11T12:52:47Z</time></trkpt><trkpt lat="42.96813862243089" lon="11.425513676305886"><ele>132.25</ele><time>2026-04-11T12:52:49Z</time></trkpt><trkpt lat="42.968087732448666" lon="11.425652168790654"><ele>129.0</ele><time>2026-04-11T12:52:51Z</time></trkpt><trkpt lat="42.968031725446224" lon="11.42581430707507"><ele>128.66666666666666</ele><time>2026-04-11T12:52:53Z</time></trkpt><trkpt lat="42.9680041353137" lon="11.425902548461208"><ele>128.33333333333334</ele><time>2026-04-11T12:52:54Z</time></trkpt><trkpt lat="42.967981808520285" lon="11.425993872462495"><ele>128.0</ele><time>2026-04-11T12:52:55Z</time></trkpt><trkpt lat="42.96795862944813" lon="11.426089139861993"><ele>127.66666666666667</ele><time>2026-04-11T12:52:56Z</time></trkpt><trkpt lat="42.96793221748272" lon="11.42619481252616"><ele>127.33333333333334</ele><time>2026-04-11T12:52:57Z</time></trkpt><trkpt lat="42.96789822322797" lon="11.42629982692771"><ele>127.0</ele><time>2026-04-11T12:52:58Z</time></trkpt><trkpt lat="42.96784696038862" lon="11.426393857763482"><ele>128.33333333333334</ele><time>2026-04-11T12:52:59Z</time></trkpt><trkpt lat="42.96778458232719" lon="11.426468899235461"><ele>129.66666666666669</ele><time>2026-04-11T12:53:00Z</time></trkpt><trkpt lat="42.96772432649539" lon="11.426537545633902"><ele>131.0</ele><time>2026-04-11T12:53:01Z</time></trkpt><trkpt lat="42.96767406865815" lon="11.426607446075556"><ele>132.33333333333334</ele><time>2026-04-11T12:53:02Z</time></trkpt><trkpt lat="42.96762706967019" lon="11.426670983179342"><ele>133.66666666666666</ele><time>2026-04-11T12:53:03Z</time></trkpt><trkpt lat="42.96754744275002" lon="11.426781212316206"><ele>135.0</ele><time>2026-04-11T12:53:05Z</time></trkpt><trkpt lat="42.96748433708571" lon="11.426875004661493"><ele>133.0</ele><time>2026-04-11T12:53:07Z</time></trkpt><trkpt lat="42.967431483981336" lon="11.426923204306206"><ele>131.0</ele><time>2026-04-11T12:53:09Z</time></trkpt><trkpt lat="42.96738302216868" lon="11.427004212004515"><ele>129.0</ele><time>2026-04-11T12:53:11Z</time></trkpt><trkpt lat="42.96732977216206" lon="11.427098921560802"><ele>127.0</ele><time>2026-04-11T12:53:13Z</time></trkpt><trkpt lat="42.96723996894078" lon="11.427241193732323"><ele>125.0</ele><time>2026-04-11T12:53:15Z</time></trkpt><trkpt lat="42.96719456163696" lon="11.42730805180628"><ele>123.0</ele><time>2026-04-11T12:53:16Z</time></trkpt><trkpt lat="42.96715200934442" lon="11.42738876827215"><ele>123.0</ele><time>2026-04-11T12:53:17Z</time></trkpt><trkpt lat="42.967102032119946" lon="11.427477301545846"><ele>123.00000000000001</ele><time>2026-04-11T12:53:18Z</time></trkpt><trkpt lat="42.967047618691815" lon="11.42757633633421"><ele>123.00000000000001</ele><time>2026-04-11T12:53:19Z</time></trkpt><trkpt lat="42.96698780763113" lon="11.427669761890888"><ele>123.0</ele><time>2026-04-11T12:53:20Z</time></trkpt><trkpt lat="42.96692089736091" lon="11.427766418192991"><ele>123.0</ele><time>2026-04-11T12:53:21Z</time></trkpt><trkpt lat="42.96686162866348" lon="11.427866646937998"><ele>123.0</ele><time>2026-04-11T12:53:22Z</time></trkpt><trkpt lat="42.966800842628196" lon="11.427969544095996"><ele>123.0</ele><time>2026-04-11T12:53:23Z</time></trkpt><trkpt lat="42.96673968718371" lon="11.42806986333514"><ele>123.0</ele><time>2026-04-11T12:53:24Z</time></trkpt><trkpt lat="42.966680344950106" lon="11.428163634024944"><ele>123.0</ele><time>2026-04-11T12:53:25Z</time></trkpt><trkpt lat="42.966622125151254" lon="11.428238158454496"><ele>123.0</ele><time>2026-04-11T12:53:26Z</time></trkpt><trkpt lat="42.966571563765505" lon="11.428297432224518"><ele>123.0</ele><time>2026-04-11T12:53:27Z</time></trkpt><trkpt lat="42.96646869670457" lon="11.42834391755922"><ele>121.60000000000001</ele><time>2026-04-11T12:53:29Z</time></trkpt><trkpt lat="42.96640491825767" lon="11.428344376273781"><ele>120.20000000000002</ele><time>2026-04-11T12:53:31Z</time></trkpt><trkpt lat="42.96639101720861" lon="11.428153035018083"><ele>118.8</ele><time>2026-04-11T12:53:33Z</time></trkpt><trkpt lat="42.96635370911176" lon="11.428021733404226"><ele>117.4</ele><time>2026-04-11T12:53:35Z</time></trkpt><trkpt lat="42.966314283801246" lon="11.427882980304638"><ele>116.0</ele><time>2026-04-11T12:53:37Z</time></trkpt><trkpt lat="42.96626144956365" lon="11.427755243255435"><ele>116.0</ele><time>2026-04-11T12:53:39Z</time></trkpt><trkpt lat="42.966237992801034" lon="11.427606348051201"><ele>116.0</ele><time>2026-04-11T12:53:41Z</time></trkpt><trkpt lat="42.9661995854524" lon="11.427462570688371"><ele>116.0</ele><time>2026-04-11T12:53:43Z</time></trkpt><trkpt lat="42.96615904808997" lon="11.42731081962754"><ele>116.0</ele><time>2026-04-11T12:53:45Z</time></trkpt><trkpt lat="42.96612102072337" lon="11.427168464721419"><ele>115.4</ele><time>2026-04-11T12:53:47Z</time></trkpt><trkpt lat="42.96608436814158" lon="11.427033905659437"><ele>114.8</ele><time>2026-04-11T12:53:49Z</time></trkpt><trkpt lat="42.96604481133307" lon="11.426899335926413"><ele>114.20000000000002</ele><time>2026-04-11T12:53:52Z</time></trkpt><trkpt lat="42.965991738234706" lon="11.426769742302541"><ele>113.60000000000001</ele><time>2026-04-11T12:53:54Z</time></trkpt><trkpt lat="42.96591963904883" lon="11.426672424649578"><ele>113.0</ele><time>2026-04-11T12:53:56Z</time></trkpt><trkpt lat="42.96584502430135" lon="11.426591564299114"><ele>112.0</ele><time>2026-04-11T12:53:58Z</time></trkpt><trkpt lat="42.965746689677765" lon="11.426536240772712"><ele>111.00000000000001</ele><time>2026-04-11T12:54:00Z</time></trkpt><trkpt lat="42.96567205087155" lon="11.426474936821368"><ele>110.00000000000001</ele><time>2026-04-11T12:54:02Z</time></trkpt><trkpt lat="42.96565349534183" lon="11.426387477867738"><ele>109.0</ele><time>2026-04-11T12:54:16Z</time></trkpt><trkpt lat="42.96562531789169" lon="11.426466712582794"><ele>108.0</ele><time>2026-04-11T12:55:08Z</time></trkpt><trkpt lat="42.965531265969005" lon="11.426580379463822"><ele>108.0</ele><time>2026-04-11T12:58:32Z</time></trkpt><trkpt lat="42.96546629003517" lon="11.426548181898147"><ele>108.0</ele><time>2026-04-11T12:58:34Z</time></trkpt><trkpt lat="42.965421040282344" lon="11.426471585246178"><ele>108.0</ele><time>2026-04-11T12:58:38Z</time></trkpt><trkpt lat="42.96538890239939" lon="11.426391871475397"><ele>108.0</ele><time>2026-04-11T12:58:41Z</time></trkpt><trkpt lat="42.965550228274616" lon="11.426393063559347"><ele>108.0</ele><time>2026-04-11T12:58:44Z</time></trkpt><trkpt lat="42.965604298364546" lon="11.426450553895437"><ele>108.0</ele><time>2026-04-11T13:00:11Z</time></trkpt><trkpt lat="42.96566473958552" lon="11.426399689751262"><ele>108.0</ele><time>2026-04-11T13:00:23Z</time></trkpt><trkpt lat="42.96562045423714" lon="11.426469258692368"><ele>108.0</ele><time>2026-04-11T13:02:25Z</time></trkpt><trkpt lat="42.96556695757311" lon="11.4265244782332"><ele>108.0</ele><time>2026-04-11T13:02:41Z</time></trkpt><trkpt lat="42.965626663669866" lon="11.426459579833773"><ele>108.0</ele><time>2026-04-11T13:05:31Z</time></trkpt><trkpt lat="42.96566349542379" lon="11.426387482195597"><ele>108.0</ele><time>2026-04-11T13:05:55Z</time></trkpt><trkpt lat="42.96567873928946" lon="11.42648654966024"><ele>108.0</ele><time>2026-04-11T13:08:18Z</time></trkpt><trkpt lat="42.9657457113471" lon="11.42651338579832"><ele>108.0</ele><time>2026-04-11T13:08:21Z</time></trkpt><trkpt lat="42.96582064181536" lon="11.42656822692899"><ele>108.83333333333333</ele><time>2026-04-11T13:08:25Z</time></trkpt><trkpt lat="42.96587229211166" lon="11.426646670838984"><ele>109.66666666666666</ele><time>2026-04-11T13:08:28Z</time></trkpt><trkpt lat="42.96593880549903" lon="11.42672241100634"><ele>110.5</ele><time>2026-04-11T13:08:31Z</time></trkpt><trkpt lat="42.966001357253404" lon="11.426805866427928"><ele>111.33333333333333</ele><time>2026-04-11T13:08:34Z</time></trkpt><trkpt lat="42.96603223077822" lon="11.426890122281884"><ele>112.16666666666666</ele><time>2026-04-11T13:08:36Z</time></trkpt><trkpt lat="42.966057823480625" lon="11.426988462063605"><ele>113.0</ele><time>2026-04-11T13:08:38Z</time></trkpt><trkpt lat="42.9660801968143" lon="11.427091830329056"><ele>113.49999999999999</ele><time>2026-04-11T13:08:40Z</time></trkpt><trkpt lat="42.96612137612563" lon="11.42716924600519"><ele>114.0</ele><time>2026-04-11T13:08:42Z</time></trkpt><trkpt lat="42.96615387542655" lon="11.427248339628125"><ele>114.5</ele><time>2026-04-11T13:08:44Z</time></trkpt><trkpt lat="42.966174194837066" lon="11.427334963582934"><ele>115.0</ele><time>2026-04-11T13:08:46Z</time></trkpt><trkpt lat="42.96619604988859" lon="11.427432309805054"><ele>115.49999999999999</ele><time>2026-04-11T13:08:48Z</time></trkpt><trkpt lat="42.96622708854551" lon="11.427546385385886"><ele>116.0</ele><time>2026-04-11T13:08:50Z</time></trkpt><trkpt lat="42.96625249341879" lon="11.427660074775623"><ele>115.99999999999999</ele><time>2026-04-11T13:08:52Z</time></trkpt><trkpt lat="42.96627961866066" lon="11.427770396364142"><ele>116.0</ele><time>2026-04-11T13:08:54Z</time></trkpt><trkpt lat="42.9663081491527" lon="11.427878616367172"><ele>116.0</ele><time>2026-04-11T13:08:56Z</time></trkpt><trkpt lat="42.96634210256396" lon="11.427987225485632"><ele>116.0</ele><time>2026-04-11T13:08:58Z</time></trkpt><trkpt lat="42.96637168709985" lon="11.428092072275216"><ele>115.99999999999999</ele><time>2026-04-11T13:09:00Z</time></trkpt><trkpt lat="42.966399937266424" lon="11.428195113093032"><ele>116.0</ele><time>2026-04-11T13:09:02Z</time></trkpt><trkpt lat="42.96642577258296" lon="11.428294687078079"><ele>115.85714285714288</ele><time>2026-04-11T13:09:04Z</time></trkpt><trkpt lat="42.966490340068354" lon="11.428361852869678"><ele>115.71428571428572</ele><time>2026-04-11T13:09:07Z</time></trkpt><trkpt lat="42.96646180913717" lon="11.428457908448905"><ele>115.57142857142857</ele><time>2026-04-11T13:09:10Z</time></trkpt><trkpt lat="42.966465987655205" lon="11.428551199454647"><ele>115.42857142857143</ele><time>2026-04-11T13:09:12Z</time></trkpt><trkpt lat="42.96647777421314" lon="11.428651117594859"><ele>115.28571428571428</ele><time>2026-04-11T13:09:14Z</time></trkpt><trkpt lat="42.96647010305566" lon="11.428752759347855"><ele>115.14285714285712</ele><time>2026-04-11T13:09:16Z</time></trkpt><trkpt lat="42.96645181544131" lon="11.428844409216842"><ele>114.99999999999999</ele><time>2026-04-11T13:09:18Z</time></trkpt><trkpt lat="42.9664333790526" lon="11.428938179001985"><ele>115.00000000000001</ele><time>2026-04-11T13:09:20Z</time></trkpt><trkpt lat="42.966427940248174" lon="11.429035498333315"><ele>115.0</ele><time>2026-04-11T13:09:22Z</time></trkpt><trkpt lat="42.96642149418923" lon="11.429165939635082"><ele>115.0</ele><time>2026-04-11T13:09:25Z</time></trkpt><trkpt lat="42.96642026369149" lon="11.429286368023474"><ele>115.0</ele><time>2026-04-11T13:09:28Z</time></trkpt><trkpt lat="42.96640665776766" lon="11.429414521137812"><ele>115.00000000000001</ele><time>2026-04-11T13:09:31Z</time></trkpt><trkpt lat="42.966397070159324" lon="11.42954583284329"><ele>115.0</ele><time>2026-04-11T13:09:34Z</time></trkpt><trkpt lat="42.96637377090111" lon="11.42962945526487"><ele>114.85714285714283</ele><time>2026-04-11T13:09:36Z</time></trkpt><trkpt lat="42.966377730455186" lon="11.429730721887418"><ele>114.71428571428571</ele><time>2026-04-11T13:09:38Z</time></trkpt><trkpt lat="42.96638829612648" lon="11.429833838366914"><ele>114.57142857142856</ele><time>2026-04-11T13:09:40Z</time></trkpt><trkpt lat="42.966394229936526" lon="11.429934671053841"><ele>114.42857142857142</ele><time>2026-04-11T13:09:42Z</time></trkpt><trkpt lat="42.96640618025149" lon="11.430027518190172"><ele>114.28571428571428</ele><time>2026-04-11T13:09:44Z</time></trkpt><trkpt lat="42.96641471889517" lon="11.430152403646051"><ele>114.14285714285714</ele><time>2026-04-11T13:09:47Z</time></trkpt><trkpt lat="42.966423338278005" lon="11.43023799773648"><ele>114.0</ele><time>2026-04-11T13:09:49Z</time></trkpt><trkpt lat="42.966430233644665" lon="11.430326591922366"><ele>114.0</ele><time>2026-04-11T13:09:51Z</time></trkpt><trkpt lat="42.9664478835843" lon="11.43042973911892"><ele>114.0</ele><time>2026-04-11T13:09:54Z</time></trkpt><trkpt lat="42.966452325766866" lon="11.43054323359007"><ele>114.0</ele><time>2026-04-11T13:09:57Z</time></trkpt><trkpt lat="42.966472956229026" lon="11.430659950910876"><ele>114.0</ele><time>2026-04-11T13:10:00Z</time></trkpt><trkpt lat="42.966490890216846" lon="11.4307885496985"><ele>114.0</ele><time>2026-04-11T13:10:03Z</time></trkpt><trkpt lat="42.966515690982064" lon="11.43093891101023"><ele>114.0</ele><time>2026-04-11T13:10:06Z</time></trkpt><trkpt lat="42.96653531657736" lon="11.431044620093278"><ele>114.0</ele><time>2026-04-11T13:10:07Z</time></trkpt><trkpt lat="42.966567481130014" lon="11.431193337698796"><ele>114.0</ele><time>2026-04-11T13:10:09Z</time></trkpt><trkpt lat="42.966554372534524" lon="11.431362142759161"><ele>114.0</ele><time>2026-04-11T13:10:11Z</time></trkpt><trkpt lat="42.96657717174475" lon="11.431521461306964"><ele>114.0</ele><time>2026-04-11T13:10:13Z</time></trkpt><trkpt lat="42.96658092867534" lon="11.431688999732096"><ele>113.5</ele><time>2026-04-11T13:10:15Z</time></trkpt><trkpt lat="42.96657094691928" lon="11.431855945245124"><ele>113.0</ele><time>2026-04-11T13:10:17Z</time></trkpt><trkpt lat="42.96655517517769" lon="11.432010811303284"><ele>112.5</ele><time>2026-04-11T13:10:19Z</time></trkpt><trkpt lat="42.96653891003137" lon="11.432162058003183"><ele>112.0</ele><time>2026-04-11T13:10:21Z</time></trkpt><trkpt lat="42.96652481245654" lon="11.432306817048472"><ele>112.00000000000001</ele><time>2026-04-11T13:10:23Z</time></trkpt><trkpt lat="42.96651128219671" lon="11.43244575065269"><ele>112.0</ele><time>2026-04-11T13:10:25Z</time></trkpt><trkpt lat="42.96649906018436" lon="11.432567498823476"><ele>112.0</ele><time>2026-04-11T13:10:27Z</time></trkpt><trkpt lat="42.966487818691476" lon="11.432677023137094"><ele>112.0</ele><time>2026-04-11T13:10:29Z</time></trkpt><trkpt lat="42.96647597696446" lon="11.43279014060393"><ele>112.00000000000001</ele><time>2026-04-11T13:10:31Z</time></trkpt><trkpt lat="42.966463183787965" lon="11.432909754981617"><ele>112.0</ele><time>2026-04-11T13:10:33Z</time></trkpt><trkpt lat="42.96645111686814" lon="11.433022579049199"><ele>112.16666666666667</ele><time>2026-04-11T13:10:35Z</time></trkpt><trkpt lat="42.96644066353154" lon="11.433123554668395"><ele>112.33333333333334</ele><time>2026-04-11T13:10:37Z</time></trkpt><trkpt lat="42.96645613631441" lon="11.433225072409082"><ele>112.5</ele><time>2026-04-11T13:10:39Z</time></trkpt><trkpt lat="42.96645274224622" lon="11.433315709556304"><ele>112.66666666666666</ele><time>2026-04-11T13:10:41Z</time></trkpt><trkpt lat="42.96644035833957" lon="11.433421618164862"><ele>112.83333333333333</ele><time>2026-04-11T13:10:44Z</time></trkpt><trkpt lat="42.96643637657614" lon="11.433530501674982"><ele>113.0</ele><time>2026-04-11T13:10:47Z</time></trkpt><trkpt lat="42.966422072209575" lon="11.433664374265728"><ele>112.99999999999999</ele><time>2026-04-11T13:10:50Z</time></trkpt><trkpt lat="42.96640742070115" lon="11.43376274959601"><ele>113.0</ele><time>2026-04-11T13:10:53Z</time></trkpt><trkpt lat="42.966408755012445" lon="11.433879225754186"><ele>113.0</ele><time>2026-04-11T13:10:56Z</time></trkpt><trkpt lat="42.96641074578928" lon="11.43398467404263"><ele>113.0</ele><time>2026-04-11T13:10:59Z</time></trkpt><trkpt lat="42.96641095349463" lon="11.434095311416442"><ele>112.99999999999999</ele><time>2026-04-11T13:11:02Z</time></trkpt><trkpt lat="42.96642806490883" lon="11.434205413703616"><ele>113.0</ele><time>2026-04-11T13:11:05Z</time></trkpt><trkpt lat="42.966460454004114" lon="11.434299489808625"><ele>113.49999999999999</ele><time>2026-04-11T13:11:08Z</time></trkpt><trkpt lat="42.96648865488967" lon="11.43441229713523"><ele>114.0</ele><time>2026-04-11T13:11:11Z</time></trkpt><trkpt lat="42.96653293648917" lon="11.434521825303948"><ele>114.5</ele><time>2026-04-11T13:11:14Z</time></trkpt><trkpt lat="42.96655736892959" lon="11.43460632990534"><ele>115.0</ele><time>2026-04-11T13:11:16Z</time></trkpt><trkpt lat="42.966625356274626" lon="11.434674418973893"><ele>115.49999999999999</ele><time>2026-04-11T13:11:18Z</time></trkpt><trkpt lat="42.966691763410665" lon="11.434750587038705"><ele>116.0</ele><time>2026-04-11T13:11:20Z</time></trkpt><trkpt lat="42.96676139864346" lon="11.434816821795948"><ele>117.33333333333333</ele><time>2026-04-11T13:11:21Z</time></trkpt><trkpt lat="42.96680951930469" lon="11.434889028794244"><ele>118.66666666666666</ele><time>2026-04-11T13:11:22Z</time></trkpt><trkpt lat="42.96683772821936" lon="11.434995783857586"><ele>120.0</ele><time>2026-04-11T13:11:23Z</time></trkpt><trkpt lat="42.966901880540476" lon="11.435079251996406"><ele>121.33333333333334</ele><time>2026-04-11T13:11:24Z</time></trkpt><trkpt lat="42.966946237682954" lon="11.435149302071334"><ele>122.66666666666667</ele><time>2026-04-11T13:11:25Z</time></trkpt><trkpt lat="42.96698869864618" lon="11.435213401865894"><ele>124.0</ele><time>2026-04-11T13:11:26Z</time></trkpt><trkpt lat="42.96702199360838" lon="11.435360776163627"><ele>123.2</ele><time>2026-04-11T13:11:28Z</time></trkpt><trkpt lat="42.96706007333071" lon="11.43550104722874"><ele>122.4</ele><time>2026-04-11T13:11:30Z</time></trkpt><trkpt lat="42.96711743221786" lon="11.435636346423241"><ele>121.6</ele><time>2026-04-11T13:11:32Z</time></trkpt><trkpt lat="42.96718288919543" lon="11.435756120400708"><ele>120.8</ele><time>2026-04-11T13:11:34Z</time></trkpt><trkpt lat="42.967259260589685" lon="11.435872156644258"><ele>120.0</ele><time>2026-04-11T13:11:36Z</time></trkpt><trkpt lat="42.967330511366924" lon="11.43598263291417"><ele>120.0</ele><time>2026-04-11T13:11:38Z</time></trkpt><trkpt lat="42.96739325872196" lon="11.436121527311036"><ele>120.0</ele><time>2026-04-11T13:11:40Z</time></trkpt><trkpt lat="42.967415432275445" lon="11.43627308657918"><ele>120.0</ele><time>2026-04-11T13:11:42Z</time></trkpt><trkpt lat="42.967427500692004" lon="11.43643520575161"><ele>120.0</ele><time>2026-04-11T13:11:44Z</time></trkpt><trkpt lat="42.96744275318279" lon="11.436586257993188"><ele>119.5</ele><time>2026-04-11T13:11:46Z</time></trkpt><trkpt lat="42.96746367241317" lon="11.436731042561462"><ele>119.0</ele><time>2026-04-11T13:11:48Z</time></trkpt><trkpt lat="42.967494534642235" lon="11.43687210135545"><ele>118.5</ele><time>2026-04-11T13:11:50Z</time></trkpt><trkpt lat="42.967546219358866" lon="11.437024529094979"><ele>118.0</ele><time>2026-04-11T13:11:52Z</time></trkpt><trkpt lat="42.96757655581762" lon="11.43718383643999"><ele>118.0</ele><time>2026-04-11T13:11:54Z</time></trkpt><trkpt lat="42.96756112215606" lon="11.437275345223624"><ele>118.00000000000001</ele><time>2026-04-11T13:11:55Z</time></trkpt><trkpt lat="42.9675468121771" lon="11.437445528143769"><ele>118.00000000000001</ele><time>2026-04-11T13:11:57Z</time></trkpt><trkpt lat="42.96752747491977" lon="11.437608492527811"><ele>118.0</ele><time>2026-04-11T13:11:59Z</time></trkpt><trkpt lat="42.967509446476015" lon="11.437762921352979"><ele>118.0</ele><time>2026-04-11T13:12:01Z</time></trkpt><trkpt lat="42.96749327252073" lon="11.43790984678199"><ele>118.0</ele><time>2026-04-11T13:12:03Z</time></trkpt><trkpt lat="42.9674829856219" lon="11.438047810675448"><ele>118.00000000000001</ele><time>2026-04-11T13:12:05Z</time></trkpt><trkpt lat="42.967476278074955" lon="11.438175593400974"><ele>118.00000000000001</ele><time>2026-04-11T13:12:07Z</time></trkpt><trkpt lat="42.967472223108025" lon="11.438309783240477"><ele>118.0</ele><time>2026-04-11T13:12:09Z</time></trkpt><trkpt lat="42.967471116715714" lon="11.438452726626922"><ele>118.0</ele><time>2026-04-11T13:12:11Z</time></trkpt><trkpt lat="42.967472004792995" lon="11.438600037428058"><ele>118.0</ele><time>2026-04-11T13:12:13Z</time></trkpt><trkpt lat="42.96747408157315" lon="11.438754700167012"><ele>118.00000000000001</ele><time>2026-04-11T13:12:15Z</time></trkpt><trkpt lat="42.967476302014475" lon="11.438902718732058"><ele>118.00000000000001</ele><time>2026-04-11T13:12:17Z</time></trkpt><trkpt lat="42.96747851333574" lon="11.4390501292688"><ele>118.0</ele><time>2026-04-11T13:12:19Z</time></trkpt><trkpt lat="42.967480344308214" lon="11.439186442783633"><ele>118.0</ele><time>2026-04-11T13:12:21Z</time></trkpt><trkpt lat="42.967476750821916" lon="11.439334603543777"><ele>118.0</ele><time>2026-04-11T13:12:23Z</time></trkpt><trkpt lat="42.96746425495538" lon="11.439488878101942"><ele>118.00000000000001</ele><time>2026-04-11T13:12:25Z</time></trkpt><trkpt lat="42.96746402263505" lon="11.439641354573707"><ele>118.00000000000001</ele><time>2026-04-11T13:12:27Z</time></trkpt><trkpt lat="42.967445044460355" lon="11.439791668837124"><ele>118.0</ele><time>2026-04-11T13:12:29Z</time></trkpt><trkpt lat="42.967435629486666" lon="11.43993960231548"><ele>118.0</ele><time>2026-04-11T13:12:31Z</time></trkpt><trkpt lat="42.967405630739464" lon="11.440075367946072"><ele>118.0</ele><time>2026-04-11T13:12:33Z</time></trkpt><trkpt lat="42.96739458491535" lon="11.440212782776525"><ele>118.00000000000001</ele><time>2026-04-11T13:12:35Z</time></trkpt><trkpt lat="42.967386439603246" lon="11.440344569886703"><ele>118.00000000000001</ele><time>2026-04-11T13:12:37Z</time></trkpt><trkpt lat="42.96738260226356" lon="11.440484113426669"><ele>118.0</ele><time>2026-04-11T13:12:39Z</time></trkpt><trkpt lat="42.96739426576822" lon="11.440621837687816"><ele>118.0</ele><time>2026-04-11T13:12:41Z</time></trkpt><trkpt lat="42.96741403424916" lon="11.440743728705879"><ele>117.80000000000001</ele><time>2026-04-11T13:12:43Z</time></trkpt><trkpt lat="42.967429061658784" lon="11.440851764754047"><ele>117.60000000000001</ele><time>2026-04-11T13:12:45Z</time></trkpt><trkpt lat="42.96744062084589" lon="11.440969038587003"><ele>117.39999999999999</ele><time>2026-04-11T13:12:47Z</time></trkpt><trkpt lat="42.967442347457585" lon="11.44108584690287"><ele>117.19999999999999</ele><time>2026-04-11T13:12:49Z</time></trkpt><trkpt lat="42.967425090983745" lon="11.441210860544151"><ele>117.0</ele><time>2026-04-11T13:12:51Z</time></trkpt><trkpt lat="42.96737198631442" lon="11.441355865140098"><ele>117.57142857142858</ele><time>2026-04-11T13:12:53Z</time></trkpt><trkpt lat="42.967340428499654" lon="11.441433116387532"><ele>118.14285714285715</ele><time>2026-04-11T13:12:54Z</time></trkpt><trkpt lat="42.96730680280247" lon="11.441515429723571"><ele>118.71428571428572</ele><time>2026-04-11T13:12:55Z</time></trkpt><trkpt lat="42.96727300582683" lon="11.441601895949983"><ele>119.28571428571428</ele><time>2026-04-11T13:12:56Z</time></trkpt><trkpt lat="42.96724102545192" lon="11.44169893046422"><ele>119.85714285714285</ele><time>2026-04-11T13:12:57Z</time></trkpt><trkpt lat="42.96721571700176" lon="11.441794620499042"><ele>120.42857142857142</ele><time>2026-04-11T13:12:58Z</time></trkpt><trkpt lat="42.967191303828194" lon="11.44188602647284"><ele>121.0</ele><time>2026-04-11T13:12:59Z</time></trkpt><trkpt lat="42.967181916463346" lon="11.441992072448963"><ele>121.0</ele><time>2026-04-11T13:13:00Z</time></trkpt><trkpt lat="42.96716886021772" lon="11.442081198924532"><ele>121.0</ele><time>2026-04-11T13:13:01Z</time></trkpt><trkpt lat="42.96714828268222" lon="11.44225094850937"><ele>121.0</ele><time>2026-04-11T13:13:03Z</time></trkpt><trkpt lat="42.967130836592304" lon="11.442404734188186"><ele>121.0</ele><time>2026-04-11T13:13:05Z</time></trkpt><trkpt lat="42.967111528128534" lon="11.442574936503483"><ele>121.0</ele><time>2026-04-11T13:13:07Z</time></trkpt><trkpt lat="42.96709338764801" lon="11.44273484314446"><ele>122.0</ele><time>2026-04-11T13:13:09Z</time></trkpt><trkpt lat="42.96707539872422" lon="11.442893413804859"><ele>123.0</ele><time>2026-04-11T13:13:11Z</time></trkpt><trkpt lat="42.967061327963165" lon="11.443027651709235"><ele>124.0</ele><time>2026-04-11T13:13:13Z</time></trkpt><trkpt lat="42.96704964158011" lon="11.443156754636822"><ele>125.0</ele><time>2026-04-11T13:13:15Z</time></trkpt><trkpt lat="42.96704007388084" lon="11.443269370445034"><ele>126.0</ele><time>2026-04-11T13:13:17Z</time></trkpt><trkpt lat="42.96702558869607" lon="11.44340699921223"><ele>126.4</ele><time>2026-04-11T13:13:19Z</time></trkpt><trkpt lat="42.96701036690768" lon="11.443539722087355"><ele>126.8</ele><time>2026-04-11T13:13:21Z</time></trkpt><trkpt lat="42.967028781533514" lon="11.443675330712995"><ele>127.20000000000002</ele><time>2026-04-11T13:13:23Z</time></trkpt><trkpt lat="42.96701536048763" lon="11.443806189301643"><ele>127.60000000000001</ele><time>2026-04-11T13:13:25Z</time></trkpt><trkpt lat="42.96700661387478" lon="11.443938350651194"><ele>128.0</ele><time>2026-04-11T13:13:27Z</time></trkpt><trkpt lat="42.96699126830236" lon="11.444069675693095"><ele>127.4</ele><time>2026-04-11T13:13:29Z</time></trkpt><trkpt lat="42.96698793310698" lon="11.444184340383062"><ele>126.80000000000001</ele><time>2026-04-11T13:13:31Z</time></trkpt><trkpt lat="42.966980249769136" lon="11.44428796826959"><ele>126.2</ele><time>2026-04-11T13:13:33Z</time></trkpt><trkpt lat="42.96697601576458" lon="11.444435036583979"><ele>125.6</ele><time>2026-04-11T13:13:35Z</time></trkpt><trkpt lat="42.966968056843676" lon="11.444592450604327"><ele>125.0</ele><time>2026-04-11T13:13:37Z</time></trkpt><trkpt lat="42.966988837463546" lon="11.444740442132293"><ele>124.99999999999999</ele><time>2026-04-11T13:13:39Z</time></trkpt><trkpt lat="42.9669428645352" lon="11.444838925295329"><ele>125.0</ele><time>2026-04-11T13:13:40Z</time></trkpt><trkpt lat="42.96700359289203" lon="11.444909758879167"><ele>125.0</ele><time>2026-04-11T13:13:41Z</time></trkpt><trkpt lat="42.967057634058655" lon="11.444971321021882"><ele>125.0</ele><time>2026-04-11T13:13:43Z</time></trkpt><trkpt lat="42.9671101127242" lon="11.445024662449129"><ele>124.99999999999999</ele><time>2026-04-11T13:13:45Z</time></trkpt><trkpt lat="42.967204919103025" lon="11.445054454149155"><ele>125.0</ele><time>2026-04-11T13:13:47Z</time></trkpt><trkpt lat="42.967275469130676" lon="11.445059736549085"><ele>125.0</ele><time>2026-04-11T13:13:49Z</time></trkpt><trkpt lat="42.967361175201255" lon="11.445055577535205"><ele>125.0</ele><time>2026-04-11T13:13:52Z</time></trkpt><trkpt lat="42.967449624063406" lon="11.445042329113335"><ele>125.0</ele><time>2026-04-11T13:13:55Z</time></trkpt><trkpt lat="42.9675181633712" lon="11.445018777030048"><ele>125.0</ele><time>2026-04-11T13:13:58Z</time></trkpt><trkpt lat="42.967581943527016" lon="11.444994877968695"><ele>125.0</ele><time>2026-04-11T13:14:01Z</time></trkpt><trkpt lat="42.967587750855195" lon="11.44490453230104"><ele>125.0</ele><time>2026-04-11T13:14:02Z</time></trkpt><trkpt lat="42.96765773334968" lon="11.444891888233604"><ele>125.0</ele><time>2026-04-11T13:14:05Z</time></trkpt><trkpt lat="42.967738121724295" lon="11.444922005508971"><ele>125.0</ele><time>2026-04-11T13:14:09Z</time></trkpt><trkpt lat="42.96780693364439" lon="11.444966384808872"><ele>125.0</ele><time>2026-04-11T13:14:13Z</time></trkpt><trkpt lat="42.967861158037685" lon="11.445028138897186"><ele>125.0</ele><time>2026-04-11T13:14:17Z</time></trkpt><trkpt lat="42.96790133080064" lon="11.445119400845508"><ele>125.0</ele><time>2026-04-11T13:14:21Z</time></trkpt><trkpt lat="42.967916614696264" lon="11.445219769284574"><ele>125.0</ele><time>2026-04-11T13:14:25Z</time></trkpt><trkpt lat="42.967952335156" lon="11.445293120602239"><ele>125.0</ele><time>2026-04-11T13:14:28Z</time></trkpt><trkpt lat="42.96799710252148" lon="11.445358879773615"><ele>125.0</ele><time>2026-04-11T13:14:33Z</time></trkpt><trkpt lat="42.968047962132275" lon="11.445427970723893"><ele>125.85714285714286</ele><time>2026-04-11T13:14:37Z</time></trkpt><trkpt lat="42.968115709029824" lon="11.445471573301099"><ele>126.71428571428572</ele><time>2026-04-11T13:14:42Z</time></trkpt><trkpt lat="42.96818371972618" lon="11.445500910134"><ele>127.57142857142858</ele><time>2026-04-11T13:14:47Z</time></trkpt><trkpt lat="42.96824787893931" lon="11.445502070337499"><ele>128.42857142857144</ele><time>2026-04-11T13:14:51Z</time></trkpt><trkpt lat="42.96832164261338" lon="11.44549198465932"><ele>129.2857142857143</ele><time>2026-04-11T13:14:55Z</time></trkpt><trkpt lat="42.96839395277742" lon="11.445491682307619"><ele>130.14285714285714</ele><time>2026-04-11T13:14:59Z</time></trkpt><trkpt lat="42.96846425854317" lon="11.445490049262391"><ele>131.0</ele><time>2026-04-11T13:15:03Z</time></trkpt><trkpt lat="42.968536145146295" lon="11.445522898440766"><ele>131.0</ele><time>2026-04-11T13:15:07Z</time></trkpt><trkpt lat="42.968590238769764" lon="11.445582601421044"><ele>131.0</ele><time>2026-04-11T13:15:11Z</time></trkpt><trkpt lat="42.96864691522634" lon="11.44564064917983"><ele>131.0</ele><time>2026-04-11T13:15:16Z</time></trkpt><trkpt lat="42.9686782571125" lon="11.445717461574809"><ele>131.0</ele><time>2026-04-11T13:15:20Z</time></trkpt><trkpt lat="42.96871617817172" lon="11.445821509172374"><ele>131.0</ele><time>2026-04-11T13:15:24Z</time></trkpt><trkpt lat="42.96876287600989" lon="11.445904646667266"><ele>131.0</ele><time>2026-04-11T13:15:29Z</time></trkpt><trkpt lat="42.96880790278725" lon="11.445983714162555"><ele>131.0</ele><time>2026-04-11T13:15:33Z</time></trkpt><trkpt lat="42.96883362563915" lon="11.446068616531301"><ele>131.0</ele><time>2026-04-11T13:15:38Z</time></trkpt><trkpt lat="42.96883983065637" lon="11.446176350182494"><ele>131.0</ele><time>2026-04-11T13:15:43Z</time></trkpt><trkpt lat="42.96885444126746" lon="11.446277687264617"><ele>131.0</ele><time>2026-04-11T13:15:48Z</time></trkpt><trkpt lat="42.96889065551014" lon="11.446367278260409"><ele>131.0</ele><time>2026-04-11T13:15:54Z</time></trkpt><trkpt lat="42.96890577445904" lon="11.446462249537277"><ele>131.0</ele><time>2026-04-11T13:15:59Z</time></trkpt><trkpt lat="42.96895390856208" lon="11.446532241998662"><ele>131.0</ele><time>2026-04-11T13:16:04Z</time></trkpt><trkpt lat="42.9690106467115" lon="11.446589349629017"><ele>131.0</ele><time>2026-04-11T13:16:11Z</time></trkpt><trkpt lat="42.96908289019661" lon="11.446640259759201"><ele>131.85714285714286</ele><time>2026-04-11T13:16:15Z</time></trkpt><trkpt lat="42.969153894071006" lon="11.446691225274183"><ele>132.71428571428572</ele><time>2026-04-11T13:16:20Z</time></trkpt><trkpt lat="42.96921503204615" lon="11.44672281215902"><ele>133.57142857142858</ele><time>2026-04-11T13:16:24Z</time></trkpt><trkpt lat="42.96927899820568" lon="11.446757208412167"><ele>134.42857142857144</ele><time>2026-04-11T13:16:28Z</time></trkpt><trkpt lat="42.96934298428363" lon="11.44680190137739"><ele>135.28571428571428</ele><time>2026-04-11T13:16:32Z</time></trkpt><trkpt lat="42.969407693854286" lon="11.446858595351657"><ele>136.14285714285717</ele><time>2026-04-11T13:16:36Z</time></trkpt><trkpt lat="42.969460935417466" lon="11.446935666810418"><ele>137.0</ele><time>2026-04-11T13:16:40Z</time></trkpt><trkpt lat="42.969489424138914" lon="11.447035601635617"><ele>137.0</ele><time>2026-04-11T13:16:43Z</time></trkpt><trkpt lat="42.969509499979814" lon="11.447126497052427"><ele>137.0</ele><time>2026-04-11T13:16:46Z</time></trkpt><trkpt lat="42.969502265153565" lon="11.447241422475074"><ele>137.0</ele><time>2026-04-11T13:16:49Z</time></trkpt><trkpt lat="42.96951620512256" lon="11.447360296313724"><ele>137.0</ele><time>2026-04-11T13:16:52Z</time></trkpt><trkpt lat="42.96952687617356" lon="11.44745924622558"><ele>137.0</ele><time>2026-04-11T13:16:55Z</time></trkpt><trkpt lat="42.96954586403028" lon="11.447602459417018"><ele>137.0</ele><time>2026-04-11T13:16:58Z</time></trkpt><trkpt lat="42.969596769477725" lon="11.447702354213433"><ele>139.33333333333331</ele><time>2026-04-11T13:17:00Z</time></trkpt><trkpt lat="42.96964523434996" lon="11.447791797204664"><ele>141.66666666666666</ele><time>2026-04-11T13:17:02Z</time></trkpt><trkpt lat="42.96968248036909" lon="11.44786810033968"><ele>144.0</ele><time>2026-04-11T13:17:04Z</time></trkpt><trkpt lat="42.96974181839077" lon="11.447922530447958"><ele>146.33333333333334</ele><time>2026-04-11T13:17:08Z</time></trkpt><trkpt lat="42.96979763131431" lon="11.447979199256384"><ele>148.66666666666669</ele><time>2026-04-11T13:17:11Z</time></trkpt><trkpt lat="42.96986444965599" lon="11.448054325237557"><ele>151.0</ele><time>2026-04-11T13:17:14Z</time></trkpt><trkpt lat="42.96991858990468" lon="11.448126160122115"><ele>151.5</ele><time>2026-04-11T13:17:18Z</time></trkpt><trkpt lat="42.969985943952146" lon="11.448195593507672"><ele>152.0</ele><time>2026-04-11T13:17:22Z</time></trkpt><trkpt lat="42.97004214610476" lon="11.448250365926695"><ele>152.5</ele><time>2026-04-11T13:17:25Z</time></trkpt><trkpt lat="42.97011734469624" lon="11.448292228485242"><ele>153.0</ele><time>2026-04-11T13:17:29Z</time></trkpt><trkpt lat="42.970180473460395" lon="11.448358092942689"><ele>153.5</ele><time>2026-04-11T13:17:33Z</time></trkpt><trkpt lat="42.97025476138406" lon="11.448409008547022"><ele>154.0</ele><time>2026-04-11T13:17:37Z</time></trkpt><trkpt lat="42.97030921192697" lon="11.448456732624365"><ele>154.83333333333334</ele><time>2026-04-11T13:17:40Z</time></trkpt><trkpt lat="42.97037568636805" lon="11.448517031616248"><ele>155.66666666666669</ele><time>2026-04-11T13:17:44Z</time></trkpt><trkpt lat="42.97044988675916" lon="11.44856000353434"><ele>156.5</ele><time>2026-04-11T13:17:48Z</time></trkpt><trkpt lat="42.97050992066102" lon="11.448619369551427"><ele>157.33333333333334</ele><time>2026-04-11T13:17:52Z</time></trkpt><trkpt lat="42.97057595304504" lon="11.448682784736953"><ele>158.16666666666666</ele><time>2026-04-11T13:17:56Z</time></trkpt><trkpt lat="42.970640854744" lon="11.448746503162411"><ele>159.0</ele><time>2026-04-11T13:18:00Z</time></trkpt><trkpt lat="42.970693398777996" lon="11.448802342362939"><ele>159.0</ele><time>2026-04-11T13:18:03Z</time></trkpt><trkpt lat="42.97076396438825" lon="11.448860471533314"><ele>159.0</ele><time>2026-04-11T13:18:07Z</time></trkpt><trkpt lat="42.97081300041523" lon="11.448914822618516"><ele>159.0</ele><time>2026-04-11T13:18:10Z</time></trkpt><trkpt lat="42.970867630475325" lon="11.448964320339961"><ele>159.0</ele><time>2026-04-11T13:18:13Z</time></trkpt><trkpt lat="42.97092842708851" lon="11.449039166375753"><ele>159.0</ele><time>2026-04-11T13:18:17Z</time></trkpt><trkpt lat="42.970977689335086" lon="11.449095148833367"><ele>159.0</ele><time>2026-04-11T13:18:20Z</time></trkpt><trkpt lat="42.97103272913569" lon="11.449144496109117"><ele>159.0</ele><time>2026-04-11T13:18:23Z</time></trkpt><trkpt lat="42.97110495929475" lon="11.449196827226015"><ele>160.0</ele><time>2026-04-11T13:18:27Z</time></trkpt><trkpt lat="42.97116752400283" lon="11.449261284310882"><ele>161.0</ele><time>2026-04-11T13:18:31Z</time></trkpt><trkpt lat="42.97122435332343" lon="11.449299285947614"><ele>162.0</ele><time>2026-04-11T13:18:34Z</time></trkpt><trkpt lat="42.97128129057597" lon="11.449338789364205"><ele>163.0</ele><time>2026-04-11T13:18:37Z</time></trkpt><trkpt lat="42.97135570992195" lon="11.449388337856922"><ele>164.0</ele><time>2026-04-11T13:18:41Z</time></trkpt><trkpt lat="42.9714136973648" lon="11.449423520679261"><ele>165.0</ele><time>2026-04-11T13:18:44Z</time></trkpt><trkpt lat="42.97148466960573" lon="11.449476611999547"><ele>166.0</ele><time>2026-04-11T13:18:48Z</time></trkpt><trkpt lat="42.97153905779583" lon="11.44952299142193"><ele>166.0</ele><time>2026-04-11T13:18:51Z</time></trkpt><trkpt lat="42.97160211774179" lon="11.449549375170532"><ele>166.0</ele><time>2026-04-11T13:18:54Z</time></trkpt><trkpt lat="42.97166341512587" lon="11.44958088750081"><ele>166.0</ele><time>2026-04-11T13:18:57Z</time></trkpt><trkpt lat="42.971724855952765" lon="11.449622639067137"><ele>166.0</ele><time>2026-04-11T13:19:00Z</time></trkpt><trkpt lat="42.97178618350825" lon="11.449658290629692"><ele>166.0</ele><time>2026-04-11T13:19:03Z</time></trkpt><trkpt lat="42.97184385773661" lon="11.449704036373383"><ele>166.0</ele><time>2026-04-11T13:19:06Z</time></trkpt><trkpt lat="42.97190449284767" lon="11.449738021873122"><ele>166.0</ele><time>2026-04-11T13:19:09Z</time></trkpt><trkpt lat="42.971962281154404" lon="11.449786713219174"><ele>167.0</ele><time>2026-04-11T13:19:12Z</time></trkpt><trkpt lat="42.97202410717019" lon="11.44982922024324"><ele>168.0</ele><time>2026-04-11T13:19:15Z</time></trkpt><trkpt lat="42.97208350604987" lon="11.449882702851266"><ele>169.0</ele><time>2026-04-11T13:19:18Z</time></trkpt><trkpt lat="42.972159214868704" lon="11.449932822953626"><ele>170.0</ele><time>2026-04-11T13:19:22Z</time></trkpt><trkpt lat="42.97221661695026" lon="11.449976949014193"><ele>171.0</ele><time>2026-04-11T13:19:25Z</time></trkpt><trkpt lat="42.97227810732809" lon="11.450016504685737"><ele>172.0</ele><time>2026-04-11T13:19:28Z</time></trkpt><trkpt lat="42.97233977403865" lon="11.450053300900638"><ele>173.0</ele><time>2026-04-11T13:19:31Z</time></trkpt><trkpt lat="42.97239861624407" lon="11.450087316655683"><ele>173.0</ele><time>2026-04-11T13:19:34Z</time></trkpt><trkpt lat="42.972459084544276" lon="11.450112675186539"><ele>173.0</ele><time>2026-04-11T13:19:37Z</time></trkpt><trkpt lat="42.97252520498983" lon="11.450128528995046"><ele>173.0</ele><time>2026-04-11T13:19:40Z</time></trkpt><trkpt lat="42.97259017838724" lon="11.450136368782276"><ele>173.0</ele><time>2026-04-11T13:19:43Z</time></trkpt><trkpt lat="42.97265557111952" lon="11.450143143235618"><ele>173.0</ele><time>2026-04-11T13:19:46Z</time></trkpt><trkpt lat="42.972720446278494" lon="11.450141836554405"><ele>173.0</ele><time>2026-04-11T13:19:49Z</time></trkpt><trkpt lat="42.97278523871705" lon="11.450140700466346"><ele>173.0</ele><time>2026-04-11T13:19:52Z</time></trkpt><trkpt lat="42.97284944212279" lon="11.450141709640725"><ele>174.57142857142856</ele><time>2026-04-11T13:19:55Z</time></trkpt><trkpt lat="42.972912620291545" lon="11.45016225361735"><ele>176.14285714285717</ele><time>2026-04-11T13:19:58Z</time></trkpt><trkpt lat="42.97299209738601" lon="11.450198231760439"><ele>177.71428571428572</ele><time>2026-04-11T13:20:02Z</time></trkpt><trkpt lat="42.97303837954993" lon="11.450258724882676"><ele>179.28571428571428</ele><time>2026-04-11T13:20:05Z</time></trkpt><trkpt lat="42.973077292402785" lon="11.45035884875632"><ele>180.85714285714283</ele><time>2026-04-11T13:20:09Z</time></trkpt><trkpt lat="42.973087953548415" lon="11.450447809730457"><ele>182.42857142857144</ele><time>2026-04-11T13:20:12Z</time></trkpt><trkpt lat="42.973099721229715" lon="11.450533579392777"><ele>184.0</ele><time>2026-04-11T13:20:15Z</time></trkpt><trkpt lat="42.97309894714364" lon="11.45062050948127"><ele>184.57142857142858</ele><time>2026-04-11T13:20:18Z</time></trkpt><trkpt lat="42.97309972762749" lon="11.450707998472147"><ele>185.14285714285714</ele><time>2026-04-11T13:20:21Z</time></trkpt><trkpt lat="42.97310238048821" lon="11.45079464056543"><ele>185.71428571428572</ele><time>2026-04-11T13:20:24Z</time></trkpt><trkpt lat="42.97310014980367" lon="11.450903054821692"><ele>186.28571428571428</ele><time>2026-04-11T13:20:28Z</time></trkpt><trkpt lat="42.9731057834349" lon="11.4510134656268"><ele>186.85714285714283</ele><time>2026-04-11T13:20:32Z</time></trkpt><trkpt lat="42.9731213572029" lon="11.45109686214921"><ele>187.42857142857142</ele><time>2026-04-11T13:20:35Z</time></trkpt><trkpt lat="42.973157998738685" lon="11.451195006910526"><ele>188.0</ele><time>2026-04-11T13:20:39Z</time></trkpt><trkpt lat="42.97321282506184" lon="11.451274180644052"><ele>187.85714285714286</ele><time>2026-04-11T13:20:43Z</time></trkpt><trkpt lat="42.97326807514856" lon="11.451315738820528"><ele>187.71428571428572</ele><time>2026-04-11T13:20:46Z</time></trkpt><trkpt lat="42.97334823208231" lon="11.451325111198443"><ele>187.57142857142856</ele><time>2026-04-11T13:20:50Z</time></trkpt><trkpt lat="42.97342629141754" lon="11.451295412605596"><ele>187.42857142857144</ele><time>2026-04-11T13:20:54Z</time></trkpt><trkpt lat="42.97347841969765" lon="11.45122747048508"><ele>187.2857142857143</ele><time>2026-04-11T13:20:58Z</time></trkpt><trkpt lat="42.97351603445451" lon="11.45115606767438"><ele>187.14285714285714</ele><time>2026-04-11T13:21:02Z</time></trkpt><trkpt lat="42.97353832362863" lon="11.451073164419522"><ele>187.0</ele><time>2026-04-11T13:21:06Z</time></trkpt><trkpt lat="42.97356293952334" lon="11.450975410847342"><ele>188.28571428571428</ele><time>2026-04-11T13:21:10Z</time></trkpt><trkpt lat="42.97358675991852" lon="11.450879880289094"><ele>189.57142857142858</ele><time>2026-04-11T13:21:14Z</time></trkpt><trkpt lat="42.973624467782635" lon="11.450793014730532"><ele>190.85714285714286</ele><time>2026-04-11T13:21:18Z</time></trkpt><trkpt lat="42.97365546944051" lon="11.450708048343344"><ele>192.14285714285714</ele><time>2026-04-11T13:21:22Z</time></trkpt><trkpt lat="42.973709066437934" lon="11.45064071097217"><ele>193.42857142857144</ele><time>2026-04-11T13:21:26Z</time></trkpt><trkpt lat="42.973757722183336" lon="11.450570640368575"><ele>194.71428571428572</ele><time>2026-04-11T13:21:30Z</time></trkpt><trkpt lat="42.97380781712867" lon="11.45050033371461"><ele>196.0</ele><time>2026-04-11T13:21:34Z</time></trkpt><trkpt lat="42.97386709441356" lon="11.450437359315176"><ele>196.0</ele><time>2026-04-11T13:21:38Z</time></trkpt><trkpt lat="42.97392455696998" lon="11.450378547589679"><ele>196.0</ele><time>2026-04-11T13:21:42Z</time></trkpt><trkpt lat="42.973993613363646" lon="11.450343855965153"><ele>196.0</ele><time>2026-04-11T13:21:46Z</time></trkpt><trkpt lat="42.974063852495895" lon="11.450330844909708"><ele>196.0</ele><time>2026-04-11T13:21:50Z</time></trkpt><trkpt lat="42.97413859297941" lon="11.450337842099032"><ele>196.0</ele><time>2026-04-11T13:21:54Z</time></trkpt><trkpt lat="42.974201609083316" lon="11.45037069795382"><ele>196.0</ele><time>2026-04-11T13:21:58Z</time></trkpt><trkpt lat="42.97425790599453" lon="11.450434451449551"><ele>196.0</ele><time>2026-04-11T13:22:02Z</time></trkpt><trkpt lat="42.97431354091345" lon="11.450490997639566"><ele>197.71428571428572</ele><time>2026-04-11T13:22:06Z</time></trkpt><trkpt lat="42.97437394125519" lon="11.450522762819936"><ele>199.42857142857144</ele><time>2026-04-11T13:22:10Z</time></trkpt><trkpt lat="42.9744521177911" lon="11.450534732725863"><ele>201.14285714285714</ele><time>2026-04-11T13:22:14Z</time></trkpt><trkpt lat="42.974524422008216" lon="11.450534746135691"><ele>202.85714285714286</ele><time>2026-04-11T13:22:18Z</time></trkpt><trkpt lat="42.97460158776765" lon="11.450536070345235"><ele>204.57142857142858</ele><time>2026-04-11T13:22:22Z</time></trkpt><trkpt lat="42.97468049882128" lon="11.450540796959281"><ele>206.28571428571428</ele><time>2026-04-11T13:22:26Z</time></trkpt><trkpt lat="42.974746790478605" lon="11.450545931338597"><ele>208.0</ele><time>2026-04-11T13:22:29Z</time></trkpt><trkpt lat="42.9748100660095" lon="11.450548132272983"><ele>207.99999999999997</ele><time>2026-04-11T13:22:32Z</time></trkpt><trkpt lat="42.974877338137084" lon="11.450555862678375"><ele>208.0</ele><time>2026-04-11T13:22:36Z</time></trkpt><trkpt lat="42.974946982911874" lon="11.45057196989683"><ele>208.0</ele><time>2026-04-11T13:22:40Z</time></trkpt><trkpt lat="42.97502909168067" lon="11.450595923063055"><ele>208.0</ele><time>2026-04-11T13:22:44Z</time></trkpt><trkpt lat="42.97510338323537" lon="11.45062832869171"><ele>207.99999999999997</ele><time>2026-04-11T13:22:47Z</time></trkpt><trkpt lat="42.97517694674231" lon="11.450644447532579"><ele>208.0</ele><time>2026-04-11T13:22:50Z</time></trkpt><trkpt lat="42.975255161614854" lon="11.45066941777797"><ele>208.16666666666666</ele><time>2026-04-11T13:22:53Z</time></trkpt><trkpt lat="42.97532718431066" lon="11.450704842542589"><ele>208.33333333333331</ele><time>2026-04-11T13:22:56Z</time></trkpt><trkpt lat="42.97542280281357" lon="11.450747134661952"><ele>208.5</ele><time>2026-04-11T13:22:58Z</time></trkpt><trkpt lat="42.97550646841574" lon="11.45077908313177"><ele>208.66666666666669</ele><time>2026-04-11T13:23:01Z</time></trkpt><trkpt lat="42.97557930791111" lon="11.45080884587982"><ele>208.83333333333334</ele><time>2026-04-11T13:23:04Z</time></trkpt><trkpt lat="42.97564908696781" lon="11.450838217396415"><ele>209.0</ele><time>2026-04-11T13:23:06Z</time></trkpt><trkpt lat="42.97571706704976" lon="11.450869421869305"><ele>209.00000000000003</ele><time>2026-04-11T13:23:08Z</time></trkpt><trkpt lat="42.97578189360173" lon="11.450891647437365"><ele>209.0</ele><time>2026-04-11T13:23:10Z</time></trkpt><trkpt lat="42.97585366770088" lon="11.450929053880339"><ele>209.0</ele><time>2026-04-11T13:23:12Z</time></trkpt><trkpt lat="42.97592474877325" lon="11.450952092880483"><ele>209.0</ele><time>2026-04-11T13:23:14Z</time></trkpt><trkpt lat="42.975999638701836" lon="11.45098189424288"><ele>209.00000000000003</ele><time>2026-04-11T13:23:16Z</time></trkpt><trkpt lat="42.97608527971029" lon="11.45101527612334"><ele>209.0</ele><time>2026-04-11T13:23:19Z</time></trkpt><trkpt lat="42.97616320301872" lon="11.451055758661562"><ele>209.50000000000003</ele><time>2026-04-11T13:23:23Z</time></trkpt><trkpt lat="42.976240885899664" lon="11.451081487921092"><ele>210.0</ele><time>2026-04-11T13:23:26Z</time></trkpt><trkpt lat="42.9763201784471" lon="11.451113561189386"><ele>210.5</ele><time>2026-04-11T13:23:29Z</time></trkpt><trkpt lat="42.97639318329617" lon="11.451155273624329"><ele>211.0</ele><time>2026-04-11T13:23:32Z</time></trkpt><trkpt lat="42.97647177636622" lon="11.451188483589313"><ele>211.50000000000003</ele><time>2026-04-11T13:23:35Z</time></trkpt><trkpt lat="42.97655069084354" lon="11.451229248288186"><ele>212.0</ele><time>2026-04-11T13:23:38Z</time></trkpt><trkpt lat="42.976637432398796" lon="11.451267538164643"><ele>212.66666666666669</ele><time>2026-04-11T13:23:41Z</time></trkpt><trkpt lat="42.97672119411711" lon="11.451309828659213"><ele>213.33333333333334</ele><time>2026-04-11T13:23:44Z</time></trkpt><trkpt lat="42.97678273357569" lon="11.451348781417705"><ele>214.0</ele><time>2026-04-11T13:23:46Z</time></trkpt><trkpt lat="42.976870317777596" lon="11.45138680940203"><ele>214.66666666666669</ele><time>2026-04-11T13:23:49Z</time></trkpt><trkpt lat="42.976949322602636" lon="11.451430022386184"><ele>215.33333333333334</ele><time>2026-04-11T13:23:52Z</time></trkpt><trkpt lat="42.9770201395101" lon="11.451465025935482"><ele>216.0</ele><time>2026-04-11T13:23:55Z</time></trkpt><trkpt lat="42.9771002316305" lon="11.45151202601142"><ele>216.0</ele><time>2026-04-11T13:23:58Z</time></trkpt><trkpt lat="42.97718096513606" lon="11.451562711798916"><ele>216.0</ele><time>2026-04-11T13:24:00Z</time></trkpt><trkpt lat="42.977245989869196" lon="11.45162625354193"><ele>216.0</ele><time>2026-04-11T13:24:03Z</time></trkpt><trkpt lat="42.97732378204329" lon="11.451646530253075"><ele>216.0</ele><time>2026-04-11T13:24:06Z</time></trkpt><trkpt lat="42.97738345137422" lon="11.45169683867188"><ele>216.0</ele><time>2026-04-11T13:24:09Z</time></trkpt><trkpt lat="42.977473450942874" lon="11.451739315706806"><ele>216.0</ele><time>2026-04-11T13:24:12Z</time></trkpt><trkpt lat="42.97753925611454" lon="11.451800234768763"><ele>216.33333333333334</ele><time>2026-04-11T13:24:14Z</time></trkpt><trkpt lat="42.97760715263699" lon="11.451836702512571"><ele>216.66666666666669</ele><time>2026-04-11T13:24:16Z</time></trkpt><trkpt lat="42.97769792866603" lon="11.4518935970899"><ele>217.0</ele><time>2026-04-11T13:24:19Z</time></trkpt><trkpt lat="42.977764447301524" lon="11.451935617241952"><ele>217.33333333333334</ele><time>2026-04-11T13:24:21Z</time></trkpt><trkpt lat="42.97784028749583" lon="11.451985264390744"><ele>217.66666666666669</ele><time>2026-04-11T13:24:25Z</time></trkpt><trkpt lat="42.977912672855325" lon="11.45203348745969"><ele>218.0</ele><time>2026-04-11T13:24:28Z</time></trkpt><trkpt lat="42.97799197463238" lon="11.452077815707902"><ele>218.00000000000003</ele><time>2026-04-11T13:24:31Z</time></trkpt><trkpt lat="42.97806559095452" lon="11.452122417664928"><ele>218.0</ele><time>2026-04-11T13:24:34Z</time></trkpt><trkpt lat="42.978143537627155" lon="11.452159670288443"><ele>218.0</ele><time>2026-04-11T13:24:37Z</time></trkpt><trkpt lat="42.97821443468557" lon="11.452212732072017"><ele>218.0</ele><time>2026-04-11T13:24:40Z</time></trkpt><trkpt lat="42.97826459015809" lon="11.452265168461132"><ele>218.00000000000003</ele><time>2026-04-11T13:24:43Z</time></trkpt><trkpt lat="42.978336900209044" lon="11.452299031040283"><ele>218.0</ele><time>2026-04-11T13:24:55Z</time></trkpt><trkpt lat="42.97840874713556" lon="11.452324096412527"><ele>218.33333333333334</ele><time>2026-04-11T13:24:59Z</time></trkpt><trkpt lat="42.97848210320017" lon="11.452366530817859"><ele>218.66666666666669</ele><time>2026-04-11T13:25:02Z</time></trkpt><trkpt lat="42.978561834279766" lon="11.452393771204669"><ele>219.0</ele><time>2026-04-11T13:25:06Z</time></trkpt><trkpt lat="42.97863106635887" lon="11.452437061639557"><ele>219.33333333333331</ele><time>2026-04-11T13:25:09Z</time></trkpt><trkpt lat="42.97870259777637" lon="11.452482299427173"><ele>219.66666666666666</ele><time>2026-04-11T13:25:12Z</time></trkpt><trkpt lat="42.9787599606553" lon="11.452521991230375"><ele>220.0</ele><time>2026-04-11T13:25:15Z</time></trkpt><trkpt lat="42.978833856694976" lon="11.452570795044018"><ele>219.99999999999997</ele><time>2026-04-11T13:25:18Z</time></trkpt><trkpt lat="42.978910238435695" lon="11.45263182778533"><ele>220.0</ele><time>2026-04-11T13:25:21Z</time></trkpt><trkpt lat="42.978972745051315" lon="11.452679528698745"><ele>220.0</ele><time>2026-04-11T13:25:24Z</time></trkpt><trkpt lat="42.97903421571502" lon="11.452731293560923"><ele>220.0</ele><time>2026-04-11T13:25:26Z</time></trkpt><trkpt lat="42.979092535224154" lon="11.452807844608857"><ele>219.99999999999997</ele><time>2026-04-11T13:25:30Z</time></trkpt><trkpt lat="42.97914956415608" lon="11.452864761209597"><ele>220.0</ele><time>2026-04-11T13:25:34Z</time></trkpt><trkpt lat="42.97921741572346" lon="11.452935561576377"><ele>219.33333333333331</ele><time>2026-04-11T13:25:37Z</time></trkpt><trkpt lat="42.97926342702454" lon="11.453012468565303"><ele>218.66666666666666</ele><time>2026-04-11T13:25:39Z</time></trkpt><trkpt lat="42.979342374393134" lon="11.45310371902666"><ele>218.0</ele><time>2026-04-11T13:25:41Z</time></trkpt><trkpt lat="42.979396993440346" lon="11.453173698097507"><ele>217.33333333333331</ele><time>2026-04-11T13:25:43Z</time></trkpt><trkpt lat="42.97945012003127" lon="11.453248254239096"><ele>216.66666666666666</ele><time>2026-04-11T13:25:45Z</time></trkpt><trkpt lat="42.97950089799024" lon="11.453329597659227"><ele>216.0</ele><time>2026-04-11T13:25:47Z</time></trkpt><trkpt lat="42.97954834614552" lon="11.453410068986141"><ele>216.0</ele><time>2026-04-11T13:25:49Z</time></trkpt><trkpt lat="42.97959205060288" lon="11.453485802030102"><ele>216.0</ele><time>2026-04-11T13:25:51Z</time></trkpt><trkpt lat="42.97963148287822" lon="11.453575995007418"><ele>216.0</ele><time>2026-04-11T13:25:53Z</time></trkpt><trkpt lat="42.979674791762704" lon="11.453658954121138"><ele>216.0</ele><time>2026-04-11T13:25:55Z</time></trkpt><trkpt lat="42.97972425382216" lon="11.453750313147651"><ele>216.0</ele><time>2026-04-11T13:25:57Z</time></trkpt><trkpt lat="42.979772933469924" lon="11.453836856247436"><ele>216.0</ele><time>2026-04-11T13:25:59Z</time></trkpt><trkpt lat="42.979831887410754" lon="11.453930167003922"><ele>216.20000000000002</ele><time>2026-04-11T13:26:01Z</time></trkpt><trkpt lat="42.979883973841325" lon="11.454036881132483"><ele>216.40000000000003</ele><time>2026-04-11T13:26:03Z</time></trkpt><trkpt lat="42.979931853781366" lon="11.454153159185408"><ele>216.6</ele><time>2026-04-11T13:26:05Z</time></trkpt><trkpt lat="42.979983331534065" lon="11.454255973974268"><ele>216.8</ele><time>2026-04-11T13:26:07Z</time></trkpt><trkpt lat="42.98003742844148" lon="11.454364041933395"><ele>217.0</ele><time>2026-04-11T13:26:09Z</time></trkpt><trkpt lat="42.980089255574875" lon="11.454504971778915"><ele>216.39999999999998</ele><time>2026-04-11T13:26:12Z</time></trkpt><trkpt lat="42.98012893535179" lon="11.45459351653443"><ele>215.79999999999998</ele><time>2026-04-11T13:26:13Z</time></trkpt><trkpt lat="42.98017824211626" lon="11.454717738081882"><ele>215.2</ele><time>2026-04-11T13:26:15Z</time></trkpt><trkpt lat="42.980203434125" lon="11.454859560168517"><ele>214.6</ele><time>2026-04-11T13:26:17Z</time></trkpt><trkpt lat="42.980258572360334" lon="11.454983256423045"><ele>214.0</ele><time>2026-04-11T13:26:19Z</time></trkpt><trkpt lat="42.98031330344677" lon="11.455093454975803"><ele>214.00000000000003</ele><time>2026-04-11T13:26:21Z</time></trkpt><trkpt lat="42.98036263755647" lon="11.45518893243104"><ele>214.0</ele><time>2026-04-11T13:26:23Z</time></trkpt><trkpt lat="42.98040278771499" lon="11.455263076557538"><ele>214.0</ele><time>2026-04-11T13:26:25Z</time></trkpt><trkpt lat="42.98044147996872" lon="11.455334232591923"><ele>214.0</ele><time>2026-04-11T13:26:27Z</time></trkpt><trkpt lat="42.98048445915302" lon="11.455408109747859"><ele>214.0</ele><time>2026-04-11T13:26:29Z</time></trkpt><trkpt lat="42.98052483872302" lon="11.455477518408214"><ele>214.00000000000003</ele><time>2026-04-11T13:26:31Z</time></trkpt><trkpt lat="42.98056673437254" lon="11.455550358049257"><ele>214.0</ele><time>2026-04-11T13:26:33Z</time></trkpt><trkpt lat="42.98060831223684" lon="11.45562267727102"><ele>213.57142857142858</ele><time>2026-04-11T13:26:35Z</time></trkpt><trkpt lat="42.980648393605826" lon="11.455692393535895"><ele>213.14285714285714</ele><time>2026-04-11T13:26:37Z</time></trkpt><trkpt lat="42.98069189483812" lon="11.45576805820263"><ele>212.71428571428572</ele><time>2026-04-11T13:26:39Z</time></trkpt><trkpt lat="42.98073790251093" lon="11.455848082495839"><ele>212.28571428571428</ele><time>2026-04-11T13:26:41Z</time></trkpt><trkpt lat="42.98078362520317" lon="11.455925593949063"><ele>211.85714285714286</ele><time>2026-04-11T13:26:43Z</time></trkpt><trkpt lat="42.98086056655669" lon="11.455956509979341"><ele>211.42857142857144</ele><time>2026-04-11T13:26:45Z</time></trkpt><trkpt lat="42.9809087668927" lon="11.45602587653544"><ele>211.0</ele><time>2026-04-11T13:26:47Z</time></trkpt><trkpt lat="42.98096542111502" lon="11.456087502494562"><ele>211.0</ele><time>2026-04-11T13:26:49Z</time></trkpt><trkpt lat="42.98101749108208" lon="11.456153595823874"><ele>211.0</ele><time>2026-04-11T13:26:51Z</time></trkpt><trkpt lat="42.981071801119946" lon="11.456207184453065"><ele>211.0</ele><time>2026-04-11T13:26:53Z</time></trkpt><trkpt lat="42.98113531348031" lon="11.456287327782727"><ele>211.0</ele><time>2026-04-11T13:26:56Z</time></trkpt><trkpt lat="42.98118461182043" lon="11.456344066684341"><ele>211.0</ele><time>2026-04-11T13:26:58Z</time></trkpt><trkpt lat="42.981237979892676" lon="11.456411702731632"><ele>211.0</ele><time>2026-04-11T13:27:01Z</time></trkpt><trkpt lat="42.98130137820962" lon="11.456492705440246"><ele>211.0</ele><time>2026-04-11T13:27:04Z</time></trkpt><trkpt lat="42.98135835686258" lon="11.456587759140065"><ele>211.49999999999997</ele><time>2026-04-11T13:27:07Z</time></trkpt><trkpt lat="42.981419275643155" lon="11.456668843243941"><ele>212.0</ele><time>2026-04-11T13:27:10Z</time></trkpt><trkpt lat="42.98148584479267" lon="11.456758840497429"><ele>212.5</ele><time>2026-04-11T13:27:13Z</time></trkpt><trkpt lat="42.98153837691591" lon="11.45681536111664"><ele>213.0</ele><time>2026-04-11T13:27:15Z</time></trkpt><trkpt lat="42.98158596937936" lon="11.456885792431034"><ele>213.49999999999997</ele><time>2026-04-11T13:27:17Z</time></trkpt><trkpt lat="42.98163192217222" lon="11.456945627521169"><ele>214.0</ele><time>2026-04-11T13:27:19Z</time></trkpt><trkpt lat="42.98169697298284" lon="11.45703454075011"><ele>215.83333333333331</ele><time>2026-04-11T13:27:22Z</time></trkpt><trkpt lat="42.98175188788146" lon="11.457120701828115"><ele>217.66666666666666</ele><time>2026-04-11T13:27:25Z</time></trkpt><trkpt lat="42.98181362277691" lon="11.45720241909827"><ele>219.5</ele><time>2026-04-11T13:27:28Z</time></trkpt><trkpt lat="42.981875490707615" lon="11.457278303942553"><ele>221.33333333333331</ele><time>2026-04-11T13:27:31Z</time></trkpt><trkpt lat="42.98192416868557" lon="11.45733513577895"><ele>223.16666666666666</ele><time>2026-04-11T13:27:34Z</time></trkpt><trkpt lat="42.98197949943168" lon="11.457399689283454"><ele>225.0</ele><time>2026-04-11T13:27:37Z</time></trkpt><trkpt lat="42.98203844853242" lon="11.457463923879745"><ele>225.0</ele><time>2026-04-11T13:27:40Z</time></trkpt><trkpt lat="42.98210203390066" lon="11.457527426894169"><ele>225.0</ele><time>2026-04-11T13:27:43Z</time></trkpt><trkpt lat="42.98217770162265" lon="11.457582331643493"><ele>225.0</ele><time>2026-04-11T13:27:46Z</time></trkpt><trkpt lat="42.98225045055635" lon="11.457616624873173"><ele>225.0</ele><time>2026-04-11T13:27:49Z</time></trkpt><trkpt lat="42.982315548375475" lon="11.457640478746749"><ele>225.0</ele><time>2026-04-11T13:27:51Z</time></trkpt><trkpt lat="42.98238788157466" lon="11.457683714786908"><ele>225.0</ele><time>2026-04-11T13:27:53Z</time></trkpt><trkpt lat="42.98247807212038" lon="11.457719084459942"><ele>225.33333333333334</ele><time>2026-04-11T13:27:56Z</time></trkpt><trkpt lat="42.98254691245949" lon="11.457755495165939"><ele>225.66666666666669</ele><time>2026-04-11T13:27:58Z</time></trkpt><trkpt lat="42.982641200926324" lon="11.45779406287737"><ele>226.0</ele><time>2026-04-11T13:28:01Z</time></trkpt><trkpt lat="42.98271270764363" lon="11.45783217546278"><ele>226.33333333333334</ele><time>2026-04-11T13:28:04Z</time></trkpt><trkpt lat="42.982785484088275" lon="11.457863965638989"><ele>226.66666666666669</ele><time>2026-04-11T13:28:07Z</time></trkpt><trkpt lat="42.982855572377005" lon="11.457888982060334"><ele>227.0</ele><time>2026-04-11T13:28:10Z</time></trkpt><trkpt lat="42.98292097019904" lon="11.457871585892955"><ele>227.0</ele><time>2026-04-11T13:28:14Z</time></trkpt><trkpt lat="42.983002282936965" lon="11.457873088273999"><ele>227.00000000000003</ele><time>2026-04-11T13:28:18Z</time></trkpt><trkpt lat="42.98308157218593" lon="11.457885396163974"><ele>227.0</ele><time>2026-04-11T13:28:22Z</time></trkpt><trkpt lat="42.98315881466855" lon="11.457900128439668"><ele>227.0</ele><time>2026-04-11T13:28:26Z</time></trkpt><trkpt lat="42.983225852326875" lon="11.45789930409744"><ele>227.00000000000003</ele><time>2026-04-11T13:28:29Z</time></trkpt><trkpt lat="42.98330189415089" lon="11.457910618113116"><ele>227.0</ele><time>2026-04-11T13:28:33Z</time></trkpt><trkpt lat="42.983364605023816" lon="11.457926311016923"><ele>227.0</ele><time>2026-04-11T13:28:36Z</time></trkpt><trkpt lat="42.98342986601418" lon="11.457950477053407"><ele>229.66666666666669</ele><time>2026-04-11T13:28:39Z</time></trkpt><trkpt lat="42.983499519905735" lon="11.457962092523337"><ele>232.33333333333334</ele><time>2026-04-11T13:28:42Z</time></trkpt><trkpt lat="42.98357412885498" lon="11.457985547635086"><ele>235.0</ele><time>2026-04-11T13:28:45Z</time></trkpt><trkpt lat="42.983646564308415" lon="11.457994577167703"><ele>237.66666666666669</ele><time>2026-04-11T13:28:48Z</time></trkpt><trkpt lat="42.98372014896274" lon="11.458019770550147"><ele>240.33333333333334</ele><time>2026-04-11T13:28:51Z</time></trkpt><trkpt lat="42.9838047190546" lon="11.45803340758913"><ele>243.0</ele><time>2026-04-11T13:28:55Z</time></trkpt><trkpt lat="42.98387445684146" lon="11.458057245630101"><ele>243.0</ele><time>2026-04-11T13:28:58Z</time></trkpt><trkpt lat="42.98395868577441" lon="11.458067112705223"><ele>243.0</ele><time>2026-04-11T13:29:02Z</time></trkpt><trkpt lat="42.98403485902311" lon="11.458082857962548"><ele>243.0</ele><time>2026-04-11T13:29:06Z</time></trkpt><trkpt lat="42.98410724712239" lon="11.458107775448317"><ele>243.0</ele><time>2026-04-11T13:29:10Z</time></trkpt><trkpt lat="42.98418809531525" lon="11.458120299516757"><ele>243.0</ele><time>2026-04-11T13:29:14Z</time></trkpt><trkpt lat="42.98426078198355" lon="11.458136530207897"><ele>243.0</ele><time>2026-04-11T13:29:18Z</time></trkpt><trkpt lat="42.98433056976656" lon="11.458153604882181"><ele>244.28571428571428</ele><time>2026-04-11T13:29:22Z</time></trkpt><trkpt lat="42.98440131150134" lon="11.458172170759633"><ele>245.57142857142858</ele><time>2026-04-11T13:29:26Z</time></trkpt><trkpt lat="42.984471544907976" lon="11.458198387619563"><ele>246.85714285714286</ele><time>2026-04-11T13:29:30Z</time></trkpt><trkpt lat="42.984540703654076" lon="11.458211523245739"><ele>248.14285714285714</ele><time>2026-04-11T13:29:34Z</time></trkpt><trkpt lat="42.98461161038947" lon="11.45823418039451"><ele>249.42857142857144</ele><time>2026-04-11T13:29:38Z</time></trkpt><trkpt lat="42.98468369465679" lon="11.458252737993575"><ele>250.71428571428572</ele><time>2026-04-11T13:29:42Z</time></trkpt><trkpt lat="42.98475475346252" lon="11.458261300829077"><ele>252.0</ele><time>2026-04-11T13:29:46Z</time></trkpt><trkpt lat="42.984827964367184" lon="11.458280083327157"><ele>252.0</ele><time>2026-04-11T13:29:50Z</time></trkpt><trkpt lat="42.98489987192663" lon="11.45829284988686"><ele>252.0</ele><time>2026-04-11T13:29:54Z</time></trkpt><trkpt lat="42.98497253105695" lon="11.458309178640796"><ele>252.0</ele><time>2026-04-11T13:29:58Z</time></trkpt><trkpt lat="42.985049994737125" lon="11.458324018502578"><ele>252.0</ele><time>2026-04-11T13:30:02Z</time></trkpt><trkpt lat="42.98512561952675" lon="11.458325359555435"><ele>252.0</ele><time>2026-04-11T13:30:06Z</time></trkpt><trkpt lat="42.98520321622566" lon="11.458329144231666"><ele>252.0</ele><time>2026-04-11T13:30:10Z</time></trkpt><trkpt lat="42.985280693498574" lon="11.458348417067192"><ele>253.85714285714286</ele><time>2026-04-11T13:30:14Z</time></trkpt><trkpt lat="42.9853548645917" lon="11.458348752738617"><ele>255.71428571428572</ele><time>2026-04-11T13:30:18Z</time></trkpt><trkpt lat="42.98542774395308" lon="11.458368936340177"><ele>257.57142857142856</ele><time>2026-04-11T13:30:22Z</time></trkpt><trkpt lat="42.985501039074876" lon="11.458374799633845"><ele>259.42857142857144</ele><time>2026-04-11T13:30:26Z</time></trkpt><trkpt lat="42.98556662691945" lon="11.45836759913852"><ele>261.2857142857143</ele><time>2026-04-11T13:30:30Z</time></trkpt><trkpt lat="42.985628841357226" lon="11.458342451475383"><ele>263.1428571428571</ele><time>2026-04-11T13:30:34Z</time></trkpt><trkpt lat="42.9856929436441" lon="11.458325619838197"><ele>265.0</ele><time>2026-04-11T13:30:38Z</time></trkpt><trkpt lat="42.98576734803451" lon="11.458301950337285"><ele>264.99999999999994</ele><time>2026-04-11T13:30:43Z</time></trkpt><trkpt lat="42.98584109887287" lon="11.458275035765713"><ele>265.0</ele><time>2026-04-11T13:30:48Z</time></trkpt><trkpt lat="42.98590607928473" lon="11.458279609880659"><ele>265.0</ele><time>2026-04-11T13:30:52Z</time></trkpt><trkpt lat="42.985975324151596" lon="11.458260305132654"><ele>265.0</ele><time>2026-04-11T13:30:57Z</time></trkpt><trkpt lat="42.986048548479424" lon="11.458254693809662"><ele>265.0</ele><time>2026-04-11T13:31:02Z</time></trkpt><trkpt lat="42.98612294942078" lon="11.458249036199593"><ele>264.99999999999994</ele><time>2026-04-11T13:31:07Z</time></trkpt><trkpt lat="42.98619302070875" lon="11.458241734647922"><ele>265.0</ele><time>2026-04-11T13:31:12Z</time></trkpt><trkpt lat="42.986259831195696" lon="11.458233807013226"><ele>267.1428571428571</ele><time>2026-04-11T13:31:17Z</time></trkpt><trkpt lat="42.986328661666334" lon="11.458236212798164"><ele>269.2857142857143</ele><time>2026-04-11T13:31:22Z</time></trkpt><trkpt lat="42.986400792521295" lon="11.458239267341792"><ele>271.42857142857144</ele><time>2026-04-11T13:31:27Z</time></trkpt><trkpt lat="42.986465264238696" lon="11.458233008831497"><ele>273.57142857142856</ele><time>2026-04-11T13:31:32Z</time></trkpt><trkpt lat="42.986535130534385" lon="11.45822738916475"><ele>275.7142857142857</ele><time>2026-04-11T13:31:37Z</time></trkpt><trkpt lat="42.98660685253961" lon="11.458234457430631"><ele>277.85714285714283</ele><time>2026-04-11T13:31:42Z</time></trkpt><trkpt lat="42.986672867243804" lon="11.458240492026771"><ele>280.0</ele><time>2026-04-11T13:31:47Z</time></trkpt><trkpt lat="42.9867455603619" lon="11.45824217391284"><ele>280.2857142857143</ele><time>2026-04-11T13:31:52Z</time></trkpt><trkpt lat="42.98681444380727" lon="11.458241948321536"><ele>280.57142857142856</ele><time>2026-04-11T13:31:57Z</time></trkpt><trkpt lat="42.98688380129588" lon="11.458259302247521"><ele>280.8571428571429</ele><time>2026-04-11T13:32:02Z</time></trkpt><trkpt lat="42.986954541684945" lon="11.458256417022346"><ele>281.1428571428571</ele><time>2026-04-11T13:32:07Z</time></trkpt><trkpt lat="42.987022957545584" lon="11.458255770015494"><ele>281.42857142857144</ele><time>2026-04-11T13:32:12Z</time></trkpt><trkpt lat="42.987086216233266" lon="11.4582609735199"><ele>281.7142857142857</ele><time>2026-04-11T13:32:17Z</time></trkpt><trkpt lat="42.987155627595406" lon="11.458259330243754"><ele>282.0</ele><time>2026-04-11T13:32:22Z</time></trkpt><trkpt lat="42.987227479050986" lon="11.458280265502689"><ele>282.0</ele><time>2026-04-11T13:32:27Z</time></trkpt><trkpt lat="42.98729631304423" lon="11.45829866914377"><ele>282.0</ele><time>2026-04-11T13:32:32Z</time></trkpt><trkpt lat="42.98736255054971" lon="11.458345235948233"><ele>282.0</ele><time>2026-04-11T13:32:37Z</time></trkpt><trkpt lat="42.98742078132651" lon="11.45840007152323"><ele>282.0</ele><time>2026-04-11T13:32:42Z</time></trkpt><trkpt lat="42.98747638512577" lon="11.458468035302902"><ele>282.0</ele><time>2026-04-11T13:32:47Z</time></trkpt><trkpt lat="42.987511076173554" lon="11.458552373681666"><ele>282.0</ele><time>2026-04-11T13:32:52Z</time></trkpt><trkpt lat="42.987542122780454" lon="11.458630749180557"><ele>282.0</ele><time>2026-04-11T13:32:57Z</time></trkpt><trkpt lat="42.98757275831007" lon="11.458720585533065"><ele>285.57142857142856</ele><time>2026-04-11T13:33:02Z</time></trkpt><trkpt lat="42.987622470218135" lon="11.458791818989672"><ele>289.1428571428571</ele><time>2026-04-11T13:33:07Z</time></trkpt><trkpt lat="42.98768658035473" lon="11.458834752483018"><ele>292.71428571428567</ele><time>2026-04-11T13:33:12Z</time></trkpt><trkpt lat="42.987751514312286" lon="11.458865344295997"><ele>296.2857142857143</ele><time>2026-04-11T13:33:17Z</time></trkpt><trkpt lat="42.98781901265758" lon="11.458860059216258"><ele>299.85714285714283</ele><time>2026-04-11T13:33:22Z</time></trkpt><trkpt lat="42.9878942214227" lon="11.458862692289243"><ele>303.4285714285714</ele><time>2026-04-11T13:33:27Z</time></trkpt><trkpt lat="42.9879553926049" lon="11.458893942175656"><ele>307.0</ele><time>2026-04-11T13:33:31Z</time></trkpt><trkpt lat="42.98803047145178" lon="11.458916769430848"><ele>306.99999999999994</ele><time>2026-04-11T13:33:36Z</time></trkpt><trkpt lat="42.988096151381924" lon="11.458970470156046"><ele>307.0</ele><time>2026-04-11T13:33:41Z</time></trkpt><trkpt lat="42.98811756689573" lon="11.459069398999643"><ele>307.0</ele><time>2026-04-11T13:33:46Z</time></trkpt><trkpt lat="42.988055100635826" lon="11.45912546084891"><ele>307.0</ele><time>2026-04-11T13:33:50Z</time></trkpt><trkpt lat="42.98798845560083" lon="11.45914729055653"><ele>307.0</ele><time>2026-04-11T13:33:54Z</time></trkpt><trkpt lat="42.98791812720899" lon="11.459133858110093"><ele>306.99999999999994</ele><time>2026-04-11T13:33:58Z</time></trkpt><trkpt lat="42.987851053054854" lon="11.459161198509017"><ele>307.0</ele><time>2026-04-11T13:34:02Z</time></trkpt><trkpt lat="42.987786992901356" lon="11.459195136059396"><ele>307.0</ele><time>2026-04-11T13:34:06Z</time></trkpt><trkpt lat="42.987721669620406" lon="11.459240974373465"><ele>307.0</ele><time>2026-04-11T13:34:10Z</time></trkpt><trkpt lat="42.98765040008257" lon="11.459291092604918"><ele>307.0</ele><time>2026-04-11T13:34:14Z</time></trkpt><trkpt lat="42.987583555223495" lon="11.459349411784409"><ele>307.0</ele><time>2026-04-11T13:34:18Z</time></trkpt><trkpt lat="42.9875155352636" lon="11.45940466670176"><ele>307.0</ele><time>2026-04-11T13:34:22Z</time></trkpt><trkpt lat="42.98746264959456" lon="11.459452408720912"><ele>307.0</ele><time>2026-04-11T13:34:25Z</time></trkpt><trkpt lat="42.98739235533078" lon="11.45951567011653"><ele>306.57142857142856</ele><time>2026-04-11T13:34:29Z</time></trkpt><trkpt lat="42.98734431637899" lon="11.459576027388378"><ele>306.1428571428571</ele><time>2026-04-11T13:34:32Z</time></trkpt><trkpt lat="42.98729132629288" lon="11.45962933753547"><ele>305.71428571428567</ele><time>2026-04-11T13:34:35Z</time></trkpt><trkpt lat="42.98724335005084" lon="11.459699805539012"><ele>305.2857142857143</ele><time>2026-04-11T13:34:39Z</time></trkpt><trkpt lat="42.98719598254008" lon="11.459762426289693"><ele>304.8571428571429</ele><time>2026-04-11T13:34:42Z</time></trkpt><trkpt lat="42.987152255624544" lon="11.45982537121643"><ele>304.4285714285714</ele><time>2026-04-11T13:34:45Z</time></trkpt><trkpt lat="42.98710638213578" lon="11.459915848474894"><ele>304.0</ele><time>2026-04-11T13:34:49Z</time></trkpt><trkpt lat="42.987069908648344" lon="11.460016216622112"><ele>305.7142857142857</ele><time>2026-04-11T13:34:53Z</time></trkpt><trkpt lat="42.98706305899581" lon="11.460115021530584"><ele>307.42857142857144</ele><time>2026-04-11T13:34:57Z</time></trkpt><trkpt lat="42.98704826218672" lon="11.46021516070598"><ele>309.14285714285717</ele><time>2026-04-11T13:35:01Z</time></trkpt><trkpt lat="42.9870385435831" lon="11.46031884257729"><ele>310.8571428571429</ele><time>2026-04-11T13:35:05Z</time></trkpt><trkpt lat="42.98709600135175" lon="11.460373318231154"><ele>312.57142857142856</ele><time>2026-04-11T13:35:09Z</time></trkpt><trkpt lat="42.98715186578904" lon="11.460294344940687"><ele>314.28571428571433</ele><time>2026-04-11T13:35:14Z</time></trkpt><trkpt lat="42.98720097865629" lon="11.460219780418196"><ele>316.0</ele><time>2026-04-11T13:35:18Z</time></trkpt><trkpt lat="42.98726402143444" lon="11.460166548895767"><ele>316.0</ele><time>2026-04-11T13:35:22Z</time></trkpt><trkpt lat="42.98731936846693" lon="11.460122754821755"><ele>316.0</ele><time>2026-04-11T13:35:25Z</time></trkpt><trkpt lat="42.987384798754306" lon="11.460073524922386"><ele>316.0</ele><time>2026-04-11T13:35:29Z</time></trkpt><trkpt lat="42.987455151894224" lon="11.460029061043599"><ele>316.0</ele><time>2026-04-11T13:35:33Z</time></trkpt><trkpt lat="42.98752881916528" lon="11.460006460908884"><ele>316.0</ele><time>2026-04-11T13:35:37Z</time></trkpt><trkpt lat="42.987617423743046" lon="11.459986872396039"><ele>316.0</ele><time>2026-04-11T13:35:41Z</time></trkpt><trkpt lat="42.98769337085433" lon="11.459986390615063"><ele>317.14285714285717</ele><time>2026-04-11T13:35:45Z</time></trkpt><trkpt lat="42.987763236559005" lon="11.46000016131222"><ele>318.2857142857143</ele><time>2026-04-11T13:35:49Z</time></trkpt><trkpt lat="42.987824694137785" lon="11.4600277307267"><ele>319.42857142857144</ele><time>2026-04-11T13:35:53Z</time></trkpt><trkpt lat="42.98788573201258" lon="11.460050427186262"><ele>320.57142857142856</ele><time>2026-04-11T13:35:57Z</time></trkpt><trkpt lat="42.98795787589686" lon="11.46007266733118"><ele>321.7142857142857</ele><time>2026-04-11T13:36:02Z</time></trkpt><trkpt lat="42.98803013769037" lon="11.46009123946882"><ele>322.8571428571429</ele><time>2026-04-11T13:36:08Z</time></trkpt><trkpt lat="42.988104263054694" lon="11.460116631946205"><ele>324.0</ele><time>2026-04-11T13:36:14Z</time></trkpt><trkpt lat="42.9881709010694" lon="11.46013342948197"><ele>324.0</ele><time>2026-04-11T13:36:19Z</time></trkpt><trkpt lat="42.98823351519565" lon="11.460160197576624"><ele>324.0</ele><time>2026-04-11T13:36:23Z</time></trkpt><trkpt lat="42.98830588407802" lon="11.460185112329846"><ele>324.0</ele><time>2026-04-11T13:36:28Z</time></trkpt><trkpt lat="42.98837738748583" lon="11.460207599114172"><ele>324.0</ele><time>2026-04-11T13:36:33Z</time></trkpt><trkpt lat="42.98844650288722" lon="11.460235050602806"><ele>324.0</ele><time>2026-04-11T13:36:38Z</time></trkpt><trkpt lat="42.9885070986003" lon="11.460260506369632"><ele>324.0</ele><time>2026-04-11T13:36:42Z</time></trkpt><trkpt lat="42.98857750353242" lon="11.46029336133725"><ele>324.0</ele><time>2026-04-11T13:36:47Z</time></trkpt><trkpt lat="42.98864569346993" lon="11.460336940750466"><ele>324.7142857142857</ele><time>2026-04-11T13:36:51Z</time></trkpt><trkpt lat="42.98871154338154" lon="11.460379846161608"><ele>325.42857142857144</ele><time>2026-04-11T13:36:55Z</time></trkpt><trkpt lat="42.98877551303481" lon="11.460438813192237"><ele>326.1428571428571</ele><time>2026-04-11T13:36:59Z</time></trkpt><trkpt lat="42.98883468154035" lon="11.460491707111661"><ele>326.8571428571429</ele><time>2026-04-11T13:37:03Z</time></trkpt><trkpt lat="42.9889010322601" lon="11.460528648059675"><ele>327.57142857142856</ele><time>2026-04-11T13:37:07Z</time></trkpt><trkpt lat="42.98895665863043" lon="11.46059397556467"><ele>328.2857142857143</ele><time>2026-04-11T13:37:11Z</time></trkpt><trkpt lat="42.98901327622037" lon="11.460655339669222"><ele>329.0</ele><time>2026-04-11T13:37:15Z</time></trkpt><trkpt lat="42.98907252351994" lon="11.46071118926492"><ele>330.0</ele><time>2026-04-11T13:37:19Z</time></trkpt><trkpt lat="42.98913093445214" lon="11.460777204614145"><ele>331.0</ele><time>2026-04-11T13:37:23Z</time></trkpt><trkpt lat="42.98919629874144" lon="11.460826278302982"><ele>332.0</ele><time>2026-04-11T13:37:27Z</time></trkpt><trkpt lat="42.98926305239663" lon="11.460862429356132"><ele>333.0</ele><time>2026-04-11T13:37:31Z</time></trkpt><trkpt lat="42.989339804919666" lon="11.460867432836428"><ele>334.0</ele><time>2026-04-11T13:37:35Z</time></trkpt><trkpt lat="42.98941499808706" lon="11.46088484358655"><ele>335.0</ele><time>2026-04-11T13:37:38Z</time></trkpt><trkpt lat="42.98947870827706" lon="11.460897671145919"><ele>336.0</ele><time>2026-04-11T13:37:41Z</time></trkpt><trkpt lat="42.98956007050047" lon="11.46089602946738"><ele>336.7142857142857</ele><time>2026-04-11T13:37:45Z</time></trkpt><trkpt lat="42.989638332351156" lon="11.46090656935811"><ele>337.42857142857144</ele><time>2026-04-11T13:37:49Z</time></trkpt><trkpt lat="42.989701433519066" lon="11.460901815203242"><ele>338.1428571428571</ele><time>2026-04-11T13:37:52Z</time></trkpt><trkpt lat="42.98976806483072" lon="11.46090879533031"><ele>338.8571428571429</ele><time>2026-04-11T13:37:55Z</time></trkpt><trkpt lat="42.989844093935965" lon="11.460905937233917"><ele>339.57142857142856</ele><time>2026-04-11T13:37:59Z</time></trkpt><trkpt lat="42.98991868543332" lon="11.460908220798224"><ele>340.2857142857143</ele><time>2026-04-11T13:38:03Z</time></trkpt><trkpt lat="42.989990881028085" lon="11.46091857700791"><ele>341.0</ele><time>2026-04-11T13:38:07Z</time></trkpt><trkpt lat="42.99006114445969" lon="11.460924319496836"><ele>343.1428571428571</ele><time>2026-04-11T13:38:11Z</time></trkpt><trkpt lat="42.99013074606774" lon="11.460918216599062"><ele>345.2857142857143</ele><time>2026-04-11T13:38:15Z</time></trkpt><trkpt lat="42.990197817506726" lon="11.460927240745736"><ele>347.42857142857144</ele><time>2026-04-11T13:38:19Z</time></trkpt><trkpt lat="42.99026416276965" lon="11.460942204888877"><ele>349.57142857142856</ele><time>2026-04-11T13:38:23Z</time></trkpt><trkpt lat="42.99032404740468" lon="11.460983744084256"><ele>351.7142857142857</ele><time>2026-04-11T13:38:27Z</time></trkpt><trkpt lat="42.99038395756671" lon="11.461030066239955"><ele>353.85714285714283</ele><time>2026-04-11T13:38:31Z</time></trkpt><trkpt lat="42.990436889981225" lon="11.461087250632406"><ele>356.0</ele><time>2026-04-11T13:38:35Z</time></trkpt><trkpt lat="42.99049109618189" lon="11.46114308653125"><ele>355.99999999999994</ele><time>2026-04-11T13:38:39Z</time></trkpt><trkpt lat="42.99055086733604" lon="11.461193678952323"><ele>356.0</ele><time>2026-04-11T13:38:43Z</time></trkpt><trkpt lat="42.99060548990341" lon="11.461251459400716"><ele>356.0</ele><time>2026-04-11T13:38:47Z</time></trkpt><trkpt lat="42.99066498832353" lon="11.461298483440135"><ele>356.0</ele><time>2026-04-11T13:38:51Z</time></trkpt><trkpt lat="42.990727733858854" lon="11.461337614269903"><ele>356.0</ele><time>2026-04-11T13:38:55Z</time></trkpt><trkpt lat="42.99079495358395" lon="11.4613520585103"><ele>355.99999999999994</ele><time>2026-04-11T13:38:59Z</time></trkpt><trkpt lat="42.99085902845846" lon="11.46132621041772"><ele>356.0</ele><time>2026-04-11T13:39:03Z</time></trkpt><trkpt lat="42.990913654689926" lon="11.461272743444535"><ele>358.1428571428571</ele><time>2026-04-11T13:39:07Z</time></trkpt><trkpt lat="42.99096000550442" lon="11.461206700738611"><ele>360.2857142857143</ele><time>2026-04-11T13:39:11Z</time></trkpt><trkpt lat="42.9909783630621" lon="11.461104438526185"><ele>362.42857142857144</ele><time>2026-04-11T13:39:16Z</time></trkpt><trkpt lat="42.99097004372525" lon="11.461015594619605"><ele>364.57142857142856</ele><time>2026-04-11T13:39:20Z</time></trkpt><trkpt lat="42.99098142452486" lon="11.460912984674328"><ele>366.7142857142857</ele><time>2026-04-11T13:39:25Z</time></trkpt><trkpt lat="42.99102432049261" lon="11.460838263152011"><ele>368.85714285714283</ele><time>2026-04-11T13:39:29Z</time></trkpt><trkpt lat="42.9910791537872" lon="11.460780795378056"><ele>371.0</ele><time>2026-04-11T13:39:33Z</time></trkpt><trkpt lat="42.99114624094946" lon="11.460749611697729"><ele>371.0</ele><time>2026-04-11T13:39:37Z</time></trkpt><trkpt lat="42.991214171791704" lon="11.460721952701117"><ele>371.0</ele><time>2026-04-11T13:39:41Z</time></trkpt><trkpt lat="42.991279344218704" lon="11.460692050511293"><ele>371.0</ele><time>2026-04-11T13:39:45Z</time></trkpt><trkpt lat="42.991343968495805" lon="11.460663242095276"><ele>371.0</ele><time>2026-04-11T13:39:49Z</time></trkpt><trkpt lat="42.991421945337684" lon="11.460670700485299"><ele>371.0</ele><time>2026-04-11T13:39:54Z</time></trkpt><trkpt lat="42.99148755580148" lon="11.460688495548673"><ele>371.0</ele><time>2026-04-11T13:39:59Z</time></trkpt><trkpt lat="42.99154801027194" lon="11.460713231410372"><ele>371.0</ele><time>2026-04-11T13:40:04Z</time></trkpt><trkpt lat="42.99161872538047" lon="11.46074208464593"><ele>374.57142857142856</ele><time>2026-04-11T13:40:09Z</time></trkpt><trkpt lat="42.99168314868844" lon="11.460734841232108"><ele>378.1428571428571</ele><time>2026-04-11T13:40:14Z</time></trkpt><trkpt lat="42.99174433101323" lon="11.460701112912561"><ele>381.7142857142857</ele><time>2026-04-11T13:40:19Z</time></trkpt><trkpt lat="42.99179354102559" lon="11.460631297985602"><ele>385.2857142857143</ele><time>2026-04-11T13:40:25Z</time></trkpt><trkpt lat="42.991762558419516" lon="11.460537163656412"><ele>388.85714285714283</ele><time>2026-04-11T13:40:30Z</time></trkpt><trkpt lat="42.99175098918374" lon="11.4604353468441"><ele>392.42857142857144</ele><time>2026-04-11T13:40:35Z</time></trkpt><trkpt lat="42.99176556320097" lon="11.460332136657497"><ele>396.0</ele><time>2026-04-11T13:40:40Z</time></trkpt><trkpt lat="42.99178770611372" lon="11.46023181545892"><ele>396.0</ele><time>2026-04-11T13:40:45Z</time></trkpt><trkpt lat="42.99181621218635" lon="11.460152600519727"><ele>396.0</ele><time>2026-04-11T13:40:49Z</time></trkpt><trkpt lat="42.99183295375189" lon="11.46006527213763"><ele>396.0</ele><time>2026-04-11T13:40:53Z</time></trkpt><trkpt lat="42.99186991359194" lon="11.459973487028204"><ele>396.0</ele><time>2026-04-11T13:40:58Z</time></trkpt><trkpt lat="42.99190133949126" lon="11.459897272064651"><ele>396.0</ele><time>2026-04-11T13:41:02Z</time></trkpt><trkpt lat="42.991946182057944" lon="11.459815259807632"><ele>396.0</ele><time>2026-04-11T13:41:07Z</time></trkpt><trkpt lat="42.991996412580434" lon="11.459757089909703"><ele>396.0</ele><time>2026-04-11T13:41:11Z</time></trkpt><trkpt lat="42.992046179898324" lon="11.459692603479484"><ele>396.0</ele><time>2026-04-11T13:41:15Z</time></trkpt><trkpt lat="42.992100344829204" lon="11.459630625397251"><ele>396.0</ele><time>2026-04-11T13:41:19Z</time></trkpt><trkpt lat="42.99216330069672" lon="11.459578221004307"><ele>396.0</ele><time>2026-04-11T13:41:23Z</time></trkpt><trkpt lat="42.992220787724676" lon="11.45952062409129"><ele>396.0</ele><time>2026-04-11T13:41:27Z</time></trkpt><trkpt lat="42.992283745474914" lon="11.459475097290705"><ele>396.0</ele><time>2026-04-11T13:41:31Z</time></trkpt><trkpt lat="42.99234652401162" lon="11.459424427516906"><ele>396.0</ele><time>2026-04-11T13:41:35Z</time></trkpt><trkpt lat="42.992411091535175" lon="11.459384534744284"><ele>396.0</ele><time>2026-04-11T13:41:39Z</time></trkpt><trkpt lat="42.992477573077686" lon="11.459355786844213"><ele>396.42857142857144</ele><time>2026-04-11T13:41:43Z</time></trkpt><trkpt lat="42.992545010600914" lon="11.459316094580636"><ele>396.85714285714283</ele><time>2026-04-11T13:41:47Z</time></trkpt><trkpt lat="42.99261015246888" lon="11.459281882341747"><ele>397.2857142857143</ele><time>2026-04-11T13:41:51Z</time></trkpt><trkpt lat="42.992680008506994" lon="11.459259552597464"><ele>397.7142857142857</ele><time>2026-04-11T13:41:56Z</time></trkpt><trkpt lat="42.99274170761331" lon="11.459236929575146"><ele>398.1428571428571</ele><time>2026-04-11T13:42:00Z</time></trkpt><trkpt lat="42.9928049124408" lon="11.459237046442638"><ele>398.57142857142856</ele><time>2026-04-11T13:42:05Z</time></trkpt><trkpt lat="42.992859692370715" lon="11.459191991037088"><ele>399.0</ele><time>2026-04-11T13:42:10Z</time></trkpt><trkpt lat="42.99292615170858" lon="11.45915492101411"><ele>399.0</ele><time>2026-04-11T13:42:15Z</time></trkpt><trkpt lat="42.993000239606715" lon="11.459123747322282"><ele>399.0</ele><time>2026-04-11T13:42:20Z</time></trkpt><trkpt lat="42.9930671607149" lon="11.459092293312871"><ele>399.0</ele><time>2026-04-11T13:42:25Z</time></trkpt><trkpt lat="42.99313075654341" lon="11.459064418744907"><ele>399.0</ele><time>2026-04-11T13:42:29Z</time></trkpt><trkpt lat="42.993194238576585" lon="11.459055828813923"><ele>399.0</ele><time>2026-04-11T13:42:33Z</time></trkpt><trkpt lat="42.993261680137266" lon="11.459048926378689"><ele>399.0</ele><time>2026-04-11T13:42:37Z</time></trkpt><trkpt lat="42.9933357750249" lon="11.459037278514305"><ele>399.0</ele><time>2026-04-11T13:42:42Z</time></trkpt><trkpt lat="42.9934045776411" lon="11.458997969367394"><ele>400.42857142857144</ele><time>2026-04-11T13:42:47Z</time></trkpt><trkpt lat="42.993467469045456" lon="11.458962333277924"><ele>401.8571428571429</ele><time>2026-04-11T13:42:51Z</time></trkpt><trkpt lat="42.993541145793" lon="11.458943945702245"><ele>403.2857142857143</ele><time>2026-04-11T13:42:55Z</time></trkpt><trkpt lat="42.99362117816615" lon="11.458904086438789"><ele>404.7142857142857</ele><time>2026-04-11T13:42:58Z</time></trkpt><trkpt lat="42.99368943485645" lon="11.458878902855835"><ele>406.14285714285717</ele><time>2026-04-11T13:43:01Z</time></trkpt><trkpt lat="42.99374863788542" lon="11.458847322543216"><ele>407.57142857142856</ele><time>2026-04-11T13:43:04Z</time></trkpt><trkpt lat="42.993823757945954" lon="11.458816536554439"><ele>409.0</ele><time>2026-04-11T13:43:09Z</time></trkpt><trkpt lat="42.993904405942736" lon="11.45876612448132"><ele>405.33333333333337</ele><time>2026-04-11T13:43:13Z</time></trkpt><trkpt lat="42.993965452650684" lon="11.458744514306158"><ele>401.6666666666667</ele><time>2026-04-11T13:43:15Z</time></trkpt><trkpt lat="42.99404918916083" lon="11.458718297264177"><ele>398.0</ele><time>2026-04-11T13:43:18Z</time></trkpt><trkpt lat="42.994111244358216" lon="11.458701826604242"><ele>394.33333333333337</ele><time>2026-04-11T13:43:20Z</time></trkpt><trkpt lat="42.994168179923705" lon="11.458639317733635"><ele>390.6666666666667</ele><time>2026-04-11T13:43:23Z</time></trkpt><trkpt lat="42.99425912116172" lon="11.458609126015611"><ele>387.0</ele><time>2026-04-11T13:43:25Z</time></trkpt><trkpt lat="42.99434981754683" lon="11.458553996907606"><ele>387.0</ele><time>2026-04-11T13:43:27Z</time></trkpt><trkpt lat="42.9944306508644" lon="11.458504679635537"><ele>387.0</ele><time>2026-04-11T13:43:29Z</time></trkpt><trkpt lat="42.99453651760611" lon="11.45846188575792"><ele>387.0</ele><time>2026-04-11T13:43:31Z</time></trkpt><trkpt lat="42.99464153160247" lon="11.458435995872714"><ele>387.0</ele><time>2026-04-11T13:43:33Z</time></trkpt><trkpt lat="42.99471934352566" lon="11.45843546572904"><ele>387.0</ele><time>2026-04-11T13:43:34Z</time></trkpt><trkpt lat="42.99478616457611" lon="11.458440772090936"><ele>387.0</ele><time>2026-04-11T13:43:35Z</time></trkpt><trkpt lat="42.99488689625093" lon="11.458503596883421"><ele>387.0</ele><time>2026-04-11T13:43:37Z</time></trkpt><trkpt lat="42.994970113849604" lon="11.458568077823127"><ele>387.0</ele><time>2026-04-11T13:43:39Z</time></trkpt><trkpt lat="42.995038468480224" lon="11.45861409621014"><ele>387.0</ele><time>2026-04-11T13:43:41Z</time></trkpt><trkpt lat="42.99510147095663" lon="11.458645584909165"><ele>387.0</ele><time>2026-04-11T13:43:44Z</time></trkpt><trkpt lat="42.995148922327125" lon="11.458710138843017"><ele>387.0</ele><time>2026-04-11T13:44:03Z</time></trkpt><trkpt lat="42.995193458393786" lon="11.458792619508625"><ele>387.7142857142857</ele><time>2026-04-11T13:44:17Z</time></trkpt><trkpt lat="42.99523049248124" lon="11.458890631221593"><ele>388.42857142857144</ele><time>2026-04-11T13:44:23Z</time></trkpt><trkpt lat="42.99526752287302" lon="11.458963245123778"><ele>389.1428571428571</ele><time>2026-04-11T13:44:26Z</time></trkpt><trkpt lat="42.99528934497642" lon="11.459055740304837"><ele>389.8571428571429</ele><time>2026-04-11T13:44:31Z</time></trkpt><trkpt lat="42.995330570707345" lon="11.45914321358691"><ele>390.57142857142856</ele><time>2026-04-11T13:44:36Z</time></trkpt><trkpt lat="42.995363462691294" lon="11.459218690467948"><ele>391.2857142857143</ele><time>2026-04-11T13:44:41Z</time></trkpt><trkpt lat="42.99539869729531" lon="11.45931203762561"><ele>392.0</ele><time>2026-04-11T13:44:45Z</time></trkpt><trkpt lat="42.995433660563116" lon="11.45939131405684"><ele>392.0</ele><time>2026-04-11T13:44:49Z</time></trkpt><trkpt lat="42.99546155976263" lon="11.459474691834293"><ele>392.0</ele><time>2026-04-11T13:44:53Z</time></trkpt><trkpt lat="42.99549465620066" lon="11.459549207774296"><ele>392.0</ele><time>2026-04-11T13:44:57Z</time></trkpt><trkpt lat="42.99552686533534" lon="11.45964394123857"><ele>392.0</ele><time>2026-04-11T13:45:02Z</time></trkpt><trkpt lat="42.99556511638417" lon="11.459735775070104"><ele>392.0</ele><time>2026-04-11T13:45:07Z</time></trkpt><trkpt lat="42.99558547583398" lon="11.459823015226629"><ele>392.0</ele><time>2026-04-11T13:45:12Z</time></trkpt><trkpt lat="42.99561448398247" lon="11.459902137881718"><ele>392.0</ele><time>2026-04-11T13:45:17Z</time></trkpt><trkpt lat="42.995639419161655" lon="11.460003082202755"><ele>394.14285714285717</ele><time>2026-04-11T13:45:22Z</time></trkpt><trkpt lat="42.995661415727774" lon="11.46010210048581"><ele>396.2857142857143</ele><time>2026-04-11T13:45:27Z</time></trkpt><trkpt lat="42.995671340192246" lon="11.460189701644035"><ele>398.42857142857144</ele><time>2026-04-11T13:45:31Z</time></trkpt><trkpt lat="42.99569084723396" lon="11.460275031776822"><ele>400.57142857142856</ele><time>2026-04-11T13:45:35Z</time></trkpt><trkpt lat="42.99570111597807" lon="11.460380567471965"><ele>402.7142857142857</ele><time>2026-04-11T13:45:40Z</time></trkpt><trkpt lat="42.99570231528004" lon="11.460472879065794"><ele>404.8571428571429</ele><time>2026-04-11T13:45:45Z</time></trkpt><trkpt lat="42.99574046220431" lon="11.460545451880815"><ele>407.0</ele><time>2026-04-11T13:46:01Z</time></trkpt><trkpt lat="42.99580686719325" lon="11.460600987419408"><ele>408.49999999999994</ele><time>2026-04-11T13:49:15Z</time></trkpt><trkpt lat="42.99584851651588" lon="11.460699291157304"><ele>410.0</ele><time>2026-04-11T13:49:19Z</time></trkpt><trkpt lat="42.99590208776124" lon="11.460759033516096"><ele>411.5</ele><time>2026-04-11T13:49:22Z</time></trkpt><trkpt lat="42.99595827963243" lon="11.460833704999153"><ele>413.0</ele><time>2026-04-11T13:49:25Z</time></trkpt><trkpt lat="42.99600601182202" lon="11.460901170815324"><ele>414.49999999999994</ele><time>2026-04-11T13:49:28Z</time></trkpt><trkpt lat="42.99606536526526" lon="11.460976270652681"><ele>416.0</ele><time>2026-04-11T13:49:32Z</time></trkpt><trkpt lat="42.99597669782113" lon="11.460952238956404"><ele>415.99999999999994</ele><time>2026-04-11T13:51:35Z</time></trkpt><trkpt lat="42.9959330801419" lon="11.460872293879715"><ele>416.0</ele><time>2026-04-11T13:51:37Z</time></trkpt><trkpt lat="42.99587914358488" lon="11.460793051049011"><ele>416.0</ele><time>2026-04-11T13:51:39Z</time></trkpt><trkpt lat="42.99583276968969" lon="11.460697639222028"><ele>416.0</ele><time>2026-04-11T13:51:41Z</time></trkpt><trkpt lat="42.99581694439484" lon="11.460604821942049"><ele>415.99999999999994</ele><time>2026-04-11T13:51:43Z</time></trkpt><trkpt lat="42.99587040120344" lon="11.460524707488297"><ele>416.0</ele><time>2026-04-11T13:51:45Z</time></trkpt><trkpt lat="42.995971473302795" lon="11.46047909672304"><ele>415.3333333333333</ele><time>2026-04-11T13:51:47Z</time></trkpt><trkpt lat="42.99607703247629" lon="11.460420289739039"><ele>414.66666666666663</ele><time>2026-04-11T13:51:49Z</time></trkpt><trkpt lat="42.99613997816714" lon="11.460388506764126"><ele>414.0</ele><time>2026-04-11T13:51:50Z</time></trkpt><trkpt lat="42.99619849816699" lon="11.460336016911917"><ele>413.33333333333337</ele><time>2026-04-11T13:51:51Z</time></trkpt><trkpt lat="42.99626135923473" lon="11.460308613504559"><ele>412.6666666666667</ele><time>2026-04-11T13:51:52Z</time></trkpt><trkpt lat="42.99632530907758" lon="11.460269071384678"><ele>412.0</ele><time>2026-04-11T13:51:53Z</time></trkpt><trkpt lat="42.996369226434446" lon="11.460186897128462"><ele>412.00000000000006</ele><time>2026-04-11T13:51:54Z</time></trkpt><trkpt lat="42.99639995813749" lon="11.460089957968634"><ele>412.0</ele><time>2026-04-11T13:51:55Z</time></trkpt><trkpt lat="42.99643534531457" lon="11.460005921069207"><ele>412.0</ele><time>2026-04-11T13:51:56Z</time></trkpt><trkpt lat="42.99647081055121" lon="11.459933541361487"><ele>412.0</ele><time>2026-04-11T13:51:57Z</time></trkpt><trkpt lat="42.996512692597705" lon="11.459864197445244"><ele>412.00000000000006</ele><time>2026-04-11T13:51:58Z</time></trkpt><trkpt lat="42.99657601125829" lon="11.459748953003857"><ele>412.0</ele><time>2026-04-11T13:52:00Z</time></trkpt><trkpt lat="42.99662170458952" lon="11.45965265863675"><ele>413.1666666666667</ele><time>2026-04-11T13:52:02Z</time></trkpt><trkpt lat="42.996674070663495" lon="11.459585840000914"><ele>414.33333333333337</ele><time>2026-04-11T13:52:04Z</time></trkpt><trkpt lat="42.99672916463913" lon="11.459475234135722"><ele>415.5</ele><time>2026-04-11T13:52:07Z</time></trkpt><trkpt lat="42.996779045124256" lon="11.45941624829849"><ele>416.66666666666663</ele><time>2026-04-11T13:52:09Z</time></trkpt><trkpt lat="42.99681321286477" lon="11.459327819153293"><ele>417.8333333333333</ele><time>2026-04-11T13:52:11Z</time></trkpt><trkpt lat="42.99685421293759" lon="11.459233747334604"><ele>419.0</ele><time>2026-04-11T13:52:13Z</time></trkpt><trkpt lat="42.99689512286058" lon="11.459145866631983"><ele>419.0</ele><time>2026-04-11T13:52:15Z</time></trkpt><trkpt lat="42.99693841462316" lon="11.459043890155224"><ele>419.0</ele><time>2026-04-11T13:52:17Z</time></trkpt><trkpt lat="42.99697200615574" lon="11.458923734403545"><ele>419.0</ele><time>2026-04-11T13:52:19Z</time></trkpt><trkpt lat="42.997012472977225" lon="11.458794517943451"><ele>419.0</ele><time>2026-04-11T13:52:21Z</time></trkpt><trkpt lat="42.99706721849078" lon="11.458673462418064"><ele>419.0</ele><time>2026-04-11T13:52:23Z</time></trkpt><trkpt lat="42.997144177669874" lon="11.458665363562474"><ele>419.1428571428571</ele><time>2026-04-11T13:52:24Z</time></trkpt><trkpt lat="42.99723953524955" lon="11.458693969931947"><ele>419.2857142857143</ele><time>2026-04-11T13:52:26Z</time></trkpt><trkpt lat="42.99730409820242" lon="11.45867476076432"><ele>419.42857142857144</ele><time>2026-04-11T13:52:28Z</time></trkpt><trkpt lat="42.99736798373267" lon="11.458676855035872"><ele>419.57142857142856</ele><time>2026-04-11T13:52:30Z</time></trkpt><trkpt lat="42.99744154064347" lon="11.458654603510203"><ele>419.7142857142857</ele><time>2026-04-11T13:52:33Z</time></trkpt><trkpt lat="42.99750543803019" lon="11.458628905642163"><ele>419.85714285714283</ele><time>2026-04-11T13:52:37Z</time></trkpt><trkpt lat="42.99757845637606" lon="11.458592832298384"><ele>420.0</ele><time>2026-04-11T13:52:41Z</time></trkpt><trkpt lat="42.997638545821836" lon="11.458559819688757"><ele>420.0</ele><time>2026-04-11T13:52:44Z</time></trkpt><trkpt lat="42.997707153974666" lon="11.458521451791444"><ele>420.0</ele><time>2026-04-11T13:52:47Z</time></trkpt><trkpt lat="42.9977802219998" lon="11.45847737987451"><ele>420.0</ele><time>2026-04-11T13:52:50Z</time></trkpt><trkpt lat="42.997841235945174" lon="11.458401737249039"><ele>420.0</ele><time>2026-04-11T13:52:53Z</time></trkpt><trkpt lat="42.99791261662957" lon="11.45836071114977"><ele>420.0</ele><time>2026-04-11T13:52:56Z</time></trkpt><trkpt lat="42.99798501746799" lon="11.458305014514368"><ele>420.0</ele><time>2026-04-11T13:53:00Z</time></trkpt><trkpt lat="42.99805074563415" lon="11.458265317425361"><ele>420.0</ele><time>2026-04-11T13:53:04Z</time></trkpt><trkpt lat="42.99812354595945" lon="11.458234204888635"><ele>420.0</ele><time>2026-04-11T13:53:08Z</time></trkpt><trkpt lat="42.998193256839876" lon="11.458181020522805"><ele>420.0</ele><time>2026-04-11T13:53:12Z</time></trkpt><trkpt lat="42.99825761876739" lon="11.458140954318853"><ele>420.0</ele><time>2026-04-11T13:53:15Z</time></trkpt><trkpt lat="42.99833197066957" lon="11.458101132089228"><ele>420.0</ele><time>2026-04-11T13:53:18Z</time></trkpt><trkpt lat="42.99839899536825" lon="11.458064077691374"><ele>420.0</ele><time>2026-04-11T13:53:21Z</time></trkpt><trkpt lat="42.99847458864183" lon="11.458032104608014"><ele>420.1666666666667</ele><time>2026-04-11T13:53:24Z</time></trkpt><trkpt lat="42.99854641639444" lon="11.458008259192988"><ele>420.33333333333337</ele><time>2026-04-11T13:53:27Z</time></trkpt><trkpt lat="42.99861546583211" lon="11.457985259499592"><ele>420.5</ele><time>2026-04-11T13:53:30Z</time></trkpt><trkpt lat="42.99868863204743" lon="11.457950606822923"><ele>420.6666666666667</ele><time>2026-04-11T13:53:34Z</time></trkpt><trkpt lat="42.99877733904467" lon="11.457933799221218"><ele>420.83333333333337</ele><time>2026-04-11T13:53:37Z</time></trkpt><trkpt lat="42.99884514160808" lon="11.457932870844843"><ele>421.0</ele><time>2026-04-11T13:53:40Z</time></trkpt><trkpt lat="42.99894124079595" lon="11.45791440730887"><ele>421.00000000000006</ele><time>2026-04-11T13:53:43Z</time></trkpt><trkpt lat="42.999013304625294" lon="11.457895269682297"><ele>421.0</ele><time>2026-04-11T13:53:45Z</time></trkpt><trkpt lat="42.999077256654616" lon="11.457878802252836"><ele>421.0</ele><time>2026-04-11T13:53:47Z</time></trkpt><trkpt lat="42.99917526393007" lon="11.457865960169222"><ele>421.0</ele><time>2026-04-11T13:53:51Z</time></trkpt><trkpt lat="42.99926087942582" lon="11.45783521916956"><ele>421.00000000000006</ele><time>2026-04-11T13:53:54Z</time></trkpt><trkpt lat="42.99934918807554" lon="11.457813379565474"><ele>421.0</ele><time>2026-04-11T13:53:57Z</time></trkpt><trkpt lat="42.99944093123157" lon="11.457804443990316"><ele>421.00000000000006</ele><time>2026-04-11T13:54:00Z</time></trkpt><trkpt lat="42.999506184241525" lon="11.457796534218346"><ele>421.0</ele><time>2026-04-11T13:54:02Z</time></trkpt><trkpt lat="42.999574627447835" lon="11.457784543390334"><ele>421.0</ele><time>2026-04-11T13:54:04Z</time></trkpt><trkpt lat="42.99963950269083" lon="11.457785934923942"><ele>421.0</ele><time>2026-04-11T13:54:06Z</time></trkpt><trkpt lat="42.99970592319973" lon="11.457785795528544"><ele>421.0</ele><time>2026-04-11T13:54:08Z</time></trkpt><trkpt lat="42.99977175978031" lon="11.457782674093595"><ele>421.00000000000006</ele><time>2026-04-11T13:54:10Z</time></trkpt><trkpt lat="42.99985211288377" lon="11.457775915138901"><ele>421.0</ele><time>2026-04-11T13:54:12Z</time></trkpt><trkpt lat="42.999935098103514" lon="11.457784786227727"><ele>421.00000000000006</ele><time>2026-04-11T13:54:14Z</time></trkpt><trkpt lat="43.00000916212867" lon="11.457784870733947"><ele>421.0</ele><time>2026-04-11T13:54:16Z</time></trkpt><trkpt lat="43.000095199023434" lon="11.457777522400246"><ele>421.0</ele><time>2026-04-11T13:54:18Z</time></trkpt><trkpt lat="43.00018567777894" lon="11.457783187963551"><ele>421.0</ele><time>2026-04-11T13:54:20Z</time></trkpt><trkpt lat="43.000280361311916" lon="11.457797654791111"><ele>421.00000000000006</ele><time>2026-04-11T13:54:22Z</time></trkpt><trkpt lat="43.00037615848176" lon="11.457791516159524"><ele>421.0</ele><time>2026-04-11T13:54:24Z</time></trkpt><trkpt lat="43.00048482614447" lon="11.45779983747098"><ele>421.0</ele><time>2026-04-11T13:54:26Z</time></trkpt><trkpt lat="43.00060285721455" lon="11.457817976891912"><ele>421.0</ele><time>2026-04-11T13:54:28Z</time></trkpt><trkpt lat="43.0007207535457" lon="11.457855350203783"><ele>421.0</ele><time>2026-04-11T13:54:30Z</time></trkpt><trkpt lat="43.00083743941093" lon="11.457920716090584"><ele>421.0</ele><time>2026-04-11T13:54:32Z</time></trkpt><trkpt lat="43.000894102926566" lon="11.457961308731193"><ele>421.0</ele><time>2026-04-11T13:54:33Z</time></trkpt><trkpt lat="43.000954164910304" lon="11.458003231161957"><ele>422.28571428571433</ele><time>2026-04-11T13:54:34Z</time></trkpt><trkpt lat="43.00101582564471" lon="11.458044496356168"><ele>423.57142857142856</ele><time>2026-04-11T13:54:35Z</time></trkpt><trkpt lat="43.001080535741615" lon="11.458106542034193"><ele>424.8571428571429</ele><time>2026-04-11T13:54:36Z</time></trkpt><trkpt lat="43.00113247639597" lon="11.458173364878563"><ele>426.14285714285717</ele><time>2026-04-11T13:54:37Z</time></trkpt><trkpt lat="43.001191766259" lon="11.458225925430519"><ele>427.42857142857144</ele><time>2026-04-11T13:54:38Z</time></trkpt><trkpt lat="43.00124842943727" lon="11.458275888773752"><ele>428.7142857142857</ele><time>2026-04-11T13:54:39Z</time></trkpt><trkpt lat="43.00130695976849" lon="11.458327357654266"><ele>430.0</ele><time>2026-04-11T13:54:40Z</time></trkpt><trkpt lat="43.001361797331725" lon="11.458375579276508"><ele>430.00000000000006</ele><time>2026-04-11T13:54:41Z</time></trkpt><trkpt lat="43.00141801837989" lon="11.458425017492099"><ele>430.0</ele><time>2026-04-11T13:54:42Z</time></trkpt><trkpt lat="43.0015239194099" lon="11.45851814197823"><ele>430.0</ele><time>2026-04-11T13:54:44Z</time></trkpt><trkpt lat="43.00157986853328" lon="11.458568681569998"><ele>430.0</ele><time>2026-04-11T13:54:45Z</time></trkpt><trkpt lat="43.001633455717545" lon="11.458617151678775"><ele>430.00000000000006</ele><time>2026-04-11T13:54:46Z</time></trkpt><trkpt lat="43.00168810419135" lon="11.458666581726373"><ele>430.0</ele><time>2026-04-11T13:54:47Z</time></trkpt><trkpt lat="43.001790679573524" lon="11.458759362330131"><ele>430.85714285714283</ele><time>2026-04-11T13:54:49Z</time></trkpt><trkpt lat="43.00184961245772" lon="11.458812710760334"><ele>431.7142857142857</ele><time>2026-04-11T13:54:50Z</time></trkpt><trkpt lat="43.001905189851726" lon="11.458863021670808"><ele>432.57142857142856</ele><time>2026-04-11T13:54:51Z</time></trkpt><trkpt lat="43.001978600736116" lon="11.458907414213568"><ele>433.42857142857144</ele><time>2026-04-11T13:54:52Z</time></trkpt><trkpt lat="43.00202552721784" lon="11.458983857693898"><ele>434.28571428571433</ele><time>2026-04-11T13:54:53Z</time></trkpt><trkpt lat="43.002078066207574" lon="11.459039231972648"><ele>435.14285714285717</ele><time>2026-04-11T13:54:54Z</time></trkpt><trkpt lat="43.0021321775665" lon="11.459099520223036"><ele>436.0</ele><time>2026-04-11T13:54:55Z</time></trkpt><trkpt lat="43.00218646417409" lon="11.45916551985895"><ele>436.00000000000006</ele><time>2026-04-11T13:54:56Z</time></trkpt><trkpt lat="43.002239097069214" lon="11.459233822908757"><ele>436.0</ele><time>2026-04-11T13:54:57Z</time></trkpt><trkpt lat="43.00229355660296" lon="11.459308210547864"><ele>436.0</ele><time>2026-04-11T13:54:58Z</time></trkpt><trkpt lat="43.00234479853403" lon="11.459381347403811"><ele>436.0</ele><time>2026-04-11T13:54:59Z</time></trkpt><trkpt lat="43.00239339237813" lon="11.459459992971755"><ele>436.00000000000006</ele><time>2026-04-11T13:55:00Z</time></trkpt><trkpt lat="43.00244547873326" lon="11.459546470422966"><ele>436.0</ele><time>2026-04-11T13:55:01Z</time></trkpt><trkpt lat="43.00249769836701" lon="11.459635585312611"><ele>434.1666666666667</ele><time>2026-04-11T13:55:02Z</time></trkpt><trkpt lat="43.00254863933107" lon="11.459725181851175"><ele>432.33333333333337</ele><time>2026-04-11T13:55:03Z</time></trkpt><trkpt lat="43.00259636185686" lon="11.459813799031636"><ele>430.5</ele><time>2026-04-11T13:55:04Z</time></trkpt><trkpt lat="43.002645371799055" lon="11.459911054432524"><ele>428.66666666666663</ele><time>2026-04-11T13:55:05Z</time></trkpt><trkpt lat="43.0026916987681" lon="11.460009122488655"><ele>426.8333333333333</ele><time>2026-04-11T13:55:06Z</time></trkpt><trkpt lat="43.002736258998524" lon="11.460110833732479"><ele>425.0</ele><time>2026-04-11T13:55:07Z</time></trkpt><trkpt lat="43.00277883013278" lon="11.460216366891055"><ele>425.0</ele><time>2026-04-11T13:55:08Z</time></trkpt><trkpt lat="43.002818836168906" lon="11.460325009035893"><ele>425.0</ele><time>2026-04-11T13:55:09Z</time></trkpt><trkpt lat="43.002855832718545" lon="11.460437649142614"><ele>425.0</ele><time>2026-04-11T13:55:10Z</time></trkpt><trkpt lat="43.00288837226108" lon="11.460556279418439"><ele>425.0</ele><time>2026-04-11T13:55:11Z</time></trkpt><trkpt lat="43.00291378072269" lon="11.460676399439034"><ele>425.0</ele><time>2026-04-11T13:55:12Z</time></trkpt><trkpt lat="43.0029388238368" lon="11.460800373192923"><ele>425.49999999999994</ele><time>2026-04-11T13:55:13Z</time></trkpt><trkpt lat="43.0029585632867" lon="11.460919785335301"><ele>426.0</ele><time>2026-04-11T13:55:14Z</time></trkpt><trkpt lat="43.00297412860609" lon="11.461032942859546"><ele>426.5</ele><time>2026-04-11T13:55:15Z</time></trkpt><trkpt lat="43.00299917415462" lon="11.461143257105812"><ele>427.0</ele><time>2026-04-11T13:55:16Z</time></trkpt><trkpt lat="43.00299156765435" lon="11.461259225268847"><ele>427.49999999999994</ele><time>2026-04-11T13:55:17Z</time></trkpt><trkpt lat="43.00299371373731" lon="11.46136802839204"><ele>428.0</ele><time>2026-04-11T13:55:18Z</time></trkpt><trkpt lat="43.002996644186716" lon="11.461483469601081"><ele>427.99999999999994</ele><time>2026-04-11T13:55:19Z</time></trkpt><trkpt lat="43.002999421761324" lon="11.461592888631294"><ele>428.0</ele><time>2026-04-11T13:55:20Z</time></trkpt><trkpt lat="43.00300239313717" lon="11.461709942106413"><ele>428.0</ele><time>2026-04-11T13:55:21Z</time></trkpt><trkpt lat="43.00302203037139" lon="11.461824399633572"><ele>428.0</ele><time>2026-04-11T13:55:22Z</time></trkpt><trkpt lat="43.00302579735372" lon="11.461941932888005"><ele>427.99999999999994</ele><time>2026-04-11T13:55:23Z</time></trkpt><trkpt lat="43.003024193383304" lon="11.462056738198976"><ele>428.0</ele><time>2026-04-11T13:55:24Z</time></trkpt><trkpt lat="43.003037747275634" lon="11.46216847158282"><ele>427.8333333333333</ele><time>2026-04-11T13:55:25Z</time></trkpt><trkpt lat="43.00305356731619" lon="11.462276220272548"><ele>427.66666666666663</ele><time>2026-04-11T13:55:26Z</time></trkpt><trkpt lat="43.003075489737206" lon="11.462381733503312"><ele>427.5</ele><time>2026-04-11T13:55:27Z</time></trkpt><trkpt lat="43.003113569260094" lon="11.462472158105125"><ele>427.33333333333337</ele><time>2026-04-11T13:55:28Z</time></trkpt><trkpt lat="43.00315712259495" lon="11.462559154347174"><ele>427.1666666666667</ele><time>2026-04-11T13:55:29Z</time></trkpt><trkpt lat="43.00319599237058" lon="11.462638047585857"><ele>427.0</ele><time>2026-04-11T13:55:30Z</time></trkpt><trkpt lat="43.00324138462448" lon="11.462709988936487"><ele>427.0</ele><time>2026-04-11T13:55:31Z</time></trkpt><trkpt lat="43.003330494647216" lon="11.462825818590783"><ele>427.00000000000006</ele><time>2026-04-11T13:55:33Z</time></trkpt><trkpt lat="43.00341833270812" lon="11.462913563511554"><ele>427.00000000000006</ele><time>2026-04-11T13:55:35Z</time></trkpt><trkpt lat="43.003507131643396" lon="11.462971493877031"><ele>427.0</ele><time>2026-04-11T13:55:37Z</time></trkpt><trkpt lat="43.00358537616319" lon="11.46301858013213"><ele>427.0</ele><time>2026-04-11T13:55:39Z</time></trkpt><trkpt lat="43.00365340823982" lon="11.463079786439051"><ele>424.8</ele><time>2026-04-11T13:55:41Z</time></trkpt><trkpt lat="43.00364852766212" lon="11.4631952497234"><ele>422.6</ele><time>2026-04-11T13:55:43Z</time></trkpt><trkpt lat="43.00367370968174" lon="11.463298734577107"><ele>420.40000000000003</ele><time>2026-04-11T13:55:45Z</time></trkpt><trkpt lat="43.003754226687214" lon="11.463421724904022"><ele>418.20000000000005</ele><time>2026-04-11T13:55:47Z</time></trkpt><trkpt lat="43.0038552927196" lon="11.463511719681515"><ele>416.0</ele><time>2026-04-11T13:55:49Z</time></trkpt><trkpt lat="43.003947943653856" lon="11.463596945153874"><ele>416.0</ele><time>2026-04-11T13:55:51Z</time></trkpt><trkpt lat="43.00404469667341" lon="11.463697674306449"><ele>416.0</ele><time>2026-04-11T13:55:53Z</time></trkpt><trkpt lat="43.004138002518964" lon="11.463785334152679"><ele>416.0</ele><time>2026-04-11T13:55:55Z</time></trkpt><trkpt lat="43.004236482557936" lon="11.463837580108537"><ele>416.0</ele><time>2026-04-11T13:55:57Z</time></trkpt><trkpt lat="43.004325333623214" lon="11.46390494668865"><ele>416.0</ele><time>2026-04-11T13:55:59Z</time></trkpt><trkpt lat="43.004411847464354" lon="11.463949206952066"><ele>415.8333333333333</ele><time>2026-04-11T13:56:01Z</time></trkpt><trkpt lat="43.00450128967172" lon="11.463992929763153"><ele>415.66666666666663</ele><time>2026-04-11T13:56:03Z</time></trkpt><trkpt lat="43.00457797771672" lon="11.46404048767122"><ele>415.5</ele><time>2026-04-11T13:56:05Z</time></trkpt><trkpt lat="43.004658273598935" lon="11.464066996453102"><ele>415.33333333333337</ele><time>2026-04-11T13:56:07Z</time></trkpt><trkpt lat="43.00472156079298" lon="11.46414923506867"><ele>415.1666666666667</ele><time>2026-04-11T13:56:09Z</time></trkpt><trkpt lat="43.0047690007303" lon="11.464243055181708"><ele>415.0</ele><time>2026-04-11T13:56:11Z</time></trkpt><trkpt lat="43.0048045434735" lon="11.46434547325285"><ele>415.0</ele><time>2026-04-11T13:56:13Z</time></trkpt><trkpt lat="43.00483378518068" lon="11.464466423691702"><ele>415.0</ele><time>2026-04-11T13:56:15Z</time></trkpt><trkpt lat="43.00485424592349" lon="11.464587060913779"><ele>415.0</ele><time>2026-04-11T13:56:17Z</time></trkpt><trkpt lat="43.004877086975114" lon="11.464713497984079"><ele>415.0</ele><time>2026-04-11T13:56:19Z</time></trkpt><trkpt lat="43.00486685880349" lon="11.464847282293094"><ele>415.0</ele><time>2026-04-11T13:56:21Z</time></trkpt><trkpt lat="43.0048477283232" lon="11.46499708842631"><ele>414.0</ele><time>2026-04-11T13:56:23Z</time></trkpt><trkpt lat="43.00476825555273" lon="11.465132755175773"><ele>413.0</ele><time>2026-04-11T13:56:25Z</time></trkpt><trkpt lat="43.004726526623934" lon="11.465265308042069"><ele>412.0</ele><time>2026-04-11T13:56:27Z</time></trkpt><trkpt lat="43.0046858014496" lon="11.465398730188815"><ele>411.0</ele><time>2026-04-11T13:56:29Z</time></trkpt><trkpt lat="43.00465514943134" lon="11.465535189880333"><ele>410.0</ele><time>2026-04-11T13:56:31Z</time></trkpt><trkpt lat="43.00463482894997" lon="11.465679903345023"><ele>409.75</ele><time>2026-04-11T13:56:33Z</time></trkpt><trkpt lat="43.00462190546442" lon="11.465849837851486"><ele>409.5</ele><time>2026-04-11T13:56:35Z</time></trkpt><trkpt lat="43.00461839934258" lon="11.466006956867497"><ele>409.25</ele><time>2026-04-11T13:56:37Z</time></trkpt><trkpt lat="43.00461320380312" lon="11.466169955771848"><ele>409.0</ele><time>2026-04-11T13:56:39Z</time></trkpt><trkpt lat="43.00461158801537" lon="11.466326040268324"><ele>408.33333333333337</ele><time>2026-04-11T13:56:41Z</time></trkpt><trkpt lat="43.004614778745335" lon="11.466490074073992"><ele>407.6666666666667</ele><time>2026-04-11T13:56:43Z</time></trkpt><trkpt lat="43.00462264897763" lon="11.466654847720656"><ele>407.0</ele><time>2026-04-11T13:56:45Z</time></trkpt><trkpt lat="43.00462694917222" lon="11.466744877912328"><ele>406.33333333333337</ele><time>2026-04-11T13:56:46Z</time></trkpt><trkpt lat="43.004631068546395" lon="11.466836654182057"><ele>405.6666666666667</ele><time>2026-04-11T13:56:47Z</time></trkpt><trkpt lat="43.00463410009524" lon="11.46692826866892"><ele>405.0</ele><time>2026-04-11T13:56:48Z</time></trkpt><trkpt lat="43.004643040929835" lon="11.467095765300606"><ele>404.0</ele><time>2026-04-11T13:56:50Z</time></trkpt><trkpt lat="43.004664447057856" lon="11.46725099571355"><ele>403.0</ele><time>2026-04-11T13:56:52Z</time></trkpt><trkpt lat="43.00468903279448" lon="11.467394002617867"><ele>402.0</ele><time>2026-04-11T13:56:54Z</time></trkpt><trkpt lat="43.00471659793651" lon="11.467538452454034"><ele>401.0</ele><time>2026-04-11T13:56:56Z</time></trkpt><trkpt lat="43.00474367812448" lon="11.467680082849007"><ele>400.0</ele><time>2026-04-11T13:56:58Z</time></trkpt><trkpt lat="43.004753502786755" lon="11.467816050548254"><ele>400.1666666666667</ele><time>2026-04-11T13:57:00Z</time></trkpt><trkpt lat="43.004741046907846" lon="11.467947495534837"><ele>400.33333333333337</ele><time>2026-04-11T13:57:02Z</time></trkpt><trkpt lat="43.0047059087248" lon="11.468072562624048"><ele>400.5</ele><time>2026-04-11T13:57:04Z</time></trkpt><trkpt lat="43.00466425940525" lon="11.468185967077954"><ele>400.66666666666663</ele><time>2026-04-11T13:57:06Z</time></trkpt><trkpt lat="43.0046072383262" lon="11.468256081625338"><ele>400.8333333333333</ele><time>2026-04-11T13:57:08Z</time></trkpt><trkpt lat="43.004533662544816" lon="11.468301521498157"><ele>401.0</ele><time>2026-04-11T13:57:10Z</time></trkpt><trkpt lat="43.00444003966817" lon="11.468273113487998"><ele>401.0</ele><time>2026-04-11T13:57:12Z</time></trkpt><trkpt lat="43.0043354720487" lon="11.468280802913249"><ele>401.0</ele><time>2026-04-11T13:57:14Z</time></trkpt><trkpt lat="43.004227617197785" lon="11.468288735545924"><ele>401.0</ele><time>2026-04-11T13:57:16Z</time></trkpt><trkpt lat="43.00410505259081" lon="11.468301788515879"><ele>401.0</ele><time>2026-04-11T13:57:18Z</time></trkpt><trkpt lat="43.00398718407796" lon="11.46833494718743"><ele>399.16666666666663</ele><time>2026-04-11T13:57:20Z</time></trkpt><trkpt lat="43.00386502118856" lon="11.468434190495165"><ele>397.3333333333333</ele><time>2026-04-11T13:57:22Z</time></trkpt><trkpt lat="43.00381251446678" lon="11.468504573550346"><ele>395.5</ele><time>2026-04-11T13:57:23Z</time></trkpt><trkpt lat="43.00376472123804" lon="11.46859544160679"><ele>393.66666666666663</ele><time>2026-04-11T13:57:24Z</time></trkpt><trkpt lat="43.00372749135902" lon="11.468691275779646"><ele>391.8333333333333</ele><time>2026-04-11T13:57:25Z</time></trkpt><trkpt lat="43.00370402181805" lon="11.468777708796472"><ele>390.0</ele><time>2026-04-11T13:57:26Z</time></trkpt><trkpt lat="43.00368442904515" lon="11.468862439503903"><ele>389.8</ele><time>2026-04-11T13:57:27Z</time></trkpt><trkpt lat="43.00367286721926" lon="11.468949519689929"><ele>389.6</ele><time>2026-04-11T13:57:28Z</time></trkpt><trkpt lat="43.003655027397926" lon="11.469101509291924"><ele>389.4</ele><time>2026-04-11T13:57:30Z</time></trkpt><trkpt lat="43.00363942441082" lon="11.469271014303866"><ele>389.2</ele><time>2026-04-11T13:57:32Z</time></trkpt><trkpt lat="43.00362893499218" lon="11.469426739858145"><ele>389.0</ele><time>2026-04-11T13:57:34Z</time></trkpt><trkpt lat="43.003620653248184" lon="11.469573690898372"><ele>389.25</ele><time>2026-04-11T13:57:36Z</time></trkpt><trkpt lat="43.00361414325279" lon="11.46972788479066"><ele>389.5</ele><time>2026-04-11T13:57:38Z</time></trkpt><trkpt lat="43.00360372081815" lon="11.469869725240368"><ele>389.75</ele><time>2026-04-11T13:57:40Z</time></trkpt><trkpt lat="43.00357800243593" lon="11.470012673287943"><ele>390.0</ele><time>2026-04-11T13:57:42Z</time></trkpt><trkpt lat="43.00353181822752" lon="11.470175124676645"><ele>390.0</ele><time>2026-04-11T13:57:44Z</time></trkpt><trkpt lat="43.003480151447995" lon="11.470343736775197"><ele>390.0</ele><time>2026-04-11T13:57:46Z</time></trkpt><trkpt lat="43.0034572287618" lon="11.47042787505596"><ele>390.0</ele><time>2026-04-11T13:57:47Z</time></trkpt><trkpt lat="43.003433574242294" lon="11.470515800515555"><ele>390.0</ele><time>2026-04-11T13:57:48Z</time></trkpt><trkpt lat="43.00340937441803" lon="11.470605752916768"><ele>390.0</ele><time>2026-04-11T13:57:49Z</time></trkpt><trkpt lat="43.00338421623543" lon="11.470699267479148"><ele>390.0</ele><time>2026-04-11T13:57:50Z</time></trkpt><trkpt lat="43.00336273618812" lon="11.470784945915474"><ele>390.2857142857143</ele><time>2026-04-11T13:57:51Z</time></trkpt><trkpt lat="43.003340159226845" lon="11.470874361927008"><ele>390.57142857142856</ele><time>2026-04-11T13:57:52Z</time></trkpt><trkpt lat="43.003318072229035" lon="11.470968754234342"><ele>390.8571428571429</ele><time>2026-04-11T13:57:53Z</time></trkpt><trkpt lat="43.003298432012265" lon="11.471063848856378"><ele>391.1428571428571</ele><time>2026-04-11T13:57:54Z</time></trkpt><trkpt lat="43.00328067584851" lon="11.471156692306383"><ele>391.42857142857144</ele><time>2026-04-11T13:57:55Z</time></trkpt><trkpt lat="43.00326942203124" lon="11.471247176521182"><ele>391.7142857142857</ele><time>2026-04-11T13:57:56Z</time></trkpt><trkpt lat="43.00325760664817" lon="11.471338578565913"><ele>392.0</ele><time>2026-04-11T13:57:57Z</time></trkpt><trkpt lat="43.003248457867656" lon="11.471429688036084"><ele>390.20000000000005</ele><time>2026-04-11T13:57:58Z</time></trkpt><trkpt lat="43.00323356044091" lon="11.471596022206375"><ele>388.4</ele><time>2026-04-11T13:58:00Z</time></trkpt><trkpt lat="43.00321435864327" lon="11.471747114567531"><ele>386.6</ele><time>2026-04-11T13:58:02Z</time></trkpt><trkpt lat="43.0031810384671" lon="11.471871865430714"><ele>384.79999999999995</ele><time>2026-04-11T13:58:04Z</time></trkpt><trkpt lat="43.00314140958302" lon="11.471992943903679"><ele>383.0</ele><time>2026-04-11T13:58:06Z</time></trkpt><trkpt lat="43.00310676613844" lon="11.472146224479403"><ele>383.0</ele><time>2026-04-11T13:58:08Z</time></trkpt><trkpt lat="43.00309889729662" lon="11.47223359907907"><ele>383.0</ele><time>2026-04-11T13:58:09Z</time></trkpt><trkpt lat="43.00310465606183" lon="11.472320877493612"><ele>383.0</ele><time>2026-04-11T13:58:10Z</time></trkpt><trkpt lat="43.00311072237678" lon="11.472492533671527"><ele>383.0</ele><time>2026-04-11T13:58:12Z</time></trkpt><trkpt lat="43.00311394297998" lon="11.472583665815629"><ele>383.0</ele><time>2026-04-11T13:58:13Z</time></trkpt><trkpt lat="43.00310981000646" lon="11.472749780145193"><ele>383.0</ele><time>2026-04-11T13:58:15Z</time></trkpt><trkpt lat="43.00310353935933" lon="11.472837081325814"><ele>383.0</ele><time>2026-04-11T13:58:16Z</time></trkpt><trkpt lat="43.0030964657778" lon="11.472923552252366"><ele>383.0</ele><time>2026-04-11T13:58:17Z</time></trkpt><trkpt lat="43.003088643266445" lon="11.473011876160014"><ele>383.0</ele><time>2026-04-11T13:58:18Z</time></trkpt><trkpt lat="43.00308004008809" lon="11.473104280743383"><ele>383.0</ele><time>2026-04-11T13:58:19Z</time></trkpt><trkpt lat="43.00307118323217" lon="11.473199409796988"><ele>383.0</ele><time>2026-04-11T13:58:20Z</time></trkpt><trkpt lat="43.00306699834232" lon="11.473291086830267"><ele>383.0</ele><time>2026-04-11T13:58:21Z</time></trkpt><trkpt lat="43.00306498286278" lon="11.473378317650809"><ele>383.0</ele><time>2026-04-11T13:58:22Z</time></trkpt><trkpt lat="43.003071480302665" lon="11.473544786593411"><ele>383.1666666666667</ele><time>2026-04-11T13:58:24Z</time></trkpt><trkpt lat="43.00309915932807" lon="11.473681480255491"><ele>383.33333333333337</ele><time>2026-04-11T13:58:26Z</time></trkpt><trkpt lat="43.003145900048466" lon="11.473846029975325"><ele>383.5</ele><time>2026-04-11T13:58:28Z</time></trkpt><trkpt lat="43.00318680780165" lon="11.473920535153464"><ele>383.6666666666667</ele><time>2026-04-11T13:58:29Z</time></trkpt><trkpt lat="43.00323138655913" lon="11.473985996304238"><ele>383.8333333333333</ele><time>2026-04-11T13:58:30Z</time></trkpt><trkpt lat="43.003283962931945" lon="11.474034275313286"><ele>384.0</ele><time>2026-04-11T13:58:31Z</time></trkpt><trkpt lat="43.00334879911259" lon="11.474085773679297"><ele>384.8333333333333</ele><time>2026-04-11T13:58:32Z</time></trkpt><trkpt lat="43.00341489533693" lon="11.474127936173081"><ele>385.66666666666663</ele><time>2026-04-11T13:58:33Z</time></trkpt><trkpt lat="43.00347099435862" lon="11.474184156709727"><ele>386.5</ele><time>2026-04-11T13:58:34Z</time></trkpt><trkpt lat="43.00353452980871" lon="11.474222374453417"><ele>387.3333333333333</ele><time>2026-04-11T13:58:35Z</time></trkpt><trkpt lat="43.00359264055705" lon="11.474260849466704"><ele>388.16666666666663</ele><time>2026-04-11T13:58:36Z</time></trkpt><trkpt lat="43.00365964383988" lon="11.474368964210873"><ele>389.0</ele><time>2026-04-11T13:58:38Z</time></trkpt><trkpt lat="43.00366538653991" lon="11.474520781643168"><ele>389.0</ele><time>2026-04-11T13:58:40Z</time></trkpt><trkpt lat="43.0036174111998" lon="11.474578796567517"><ele>389.0</ele><time>2026-04-11T13:58:41Z</time></trkpt><trkpt lat="43.003532554634845" lon="11.474663482449728"><ele>389.0</ele><time>2026-04-11T13:58:43Z</time></trkpt><trkpt lat="43.00343533592536" lon="11.474728036695534"><ele>389.0</ele><time>2026-04-11T13:58:45Z</time></trkpt><trkpt lat="43.00334214998764" lon="11.47476998467978"><ele>389.0</ele><time>2026-04-11T13:58:47Z</time></trkpt><trkpt lat="43.00324025677866" lon="11.474807980758763"><ele>387.2</ele><time>2026-04-11T13:58:49Z</time></trkpt><trkpt lat="43.003131782959315" lon="11.474848051707971"><ele>385.4</ele><time>2026-04-11T13:58:51Z</time></trkpt><trkpt lat="43.00302431022533" lon="11.474898969875166"><ele>383.6</ele><time>2026-04-11T13:58:53Z</time></trkpt><trkpt lat="43.002906868881894" lon="11.474966607531499"><ele>381.8</ele><time>2026-04-11T13:58:55Z</time></trkpt><trkpt lat="43.002844394603684" lon="11.475007377619095"><ele>380.0</ele><time>2026-04-11T13:58:56Z</time></trkpt><trkpt lat="43.002773108277836" lon="11.475058390283142"><ele>380.0</ele><time>2026-04-11T13:58:57Z</time></trkpt><trkpt lat="43.002703750296654" lon="11.475110459850004"><ele>380.0</ele><time>2026-04-11T13:58:58Z</time></trkpt><trkpt lat="43.002630022411374" lon="11.475165797321939"><ele>380.0</ele><time>2026-04-11T13:58:59Z</time></trkpt><trkpt lat="43.00255637086546" lon="11.475218620913232"><ele>380.0</ele><time>2026-04-11T13:59:00Z</time></trkpt><trkpt lat="43.00248014375016" lon="11.475273291724887"><ele>380.0</ele><time>2026-04-11T13:59:01Z</time></trkpt><trkpt lat="43.0024040544126" lon="11.47532786375337"><ele>380.0</ele><time>2026-04-11T13:59:02Z</time></trkpt><trkpt lat="43.002323614967274" lon="11.47538517436263"><ele>379.5</ele><time>2026-04-11T13:59:03Z</time></trkpt><trkpt lat="43.002244356971175" lon="11.475444170970576"><ele>379.0</ele><time>2026-04-11T13:59:04Z</time></trkpt><trkpt lat="43.00216916241546" lon="11.475500347571941"><ele>378.5</ele><time>2026-04-11T13:59:05Z</time></trkpt><trkpt lat="43.00209284036262" lon="11.475557366506493"><ele>378.0</ele><time>2026-04-11T13:59:06Z</time></trkpt><trkpt lat="43.0020171553518" lon="11.475613909533486"><ele>377.5</ele><time>2026-04-11T13:59:07Z</time></trkpt><trkpt lat="43.001940145801576" lon="11.475671442076562"><ele>377.0</ele><time>2026-04-11T13:59:08Z</time></trkpt><trkpt lat="43.00186348982416" lon="11.475728710462416"><ele>377.0</ele><time>2026-04-11T13:59:09Z</time></trkpt><trkpt lat="43.00178630973612" lon="11.475786370413084"><ele>377.0</ele><time>2026-04-11T13:59:10Z</time></trkpt><trkpt lat="43.00170773269112" lon="11.475845074036124"><ele>377.0</ele><time>2026-04-11T13:59:11Z</time></trkpt><trkpt lat="43.001629369589715" lon="11.475903617800816"><ele>377.0</ele><time>2026-04-11T13:59:12Z</time></trkpt><trkpt lat="43.00155189290261" lon="11.475962080570763"><ele>377.0</ele><time>2026-04-11T13:59:13Z</time></trkpt><trkpt lat="43.00147912493096" lon="11.476017374942156"><ele>377.0</ele><time>2026-04-11T13:59:14Z</time></trkpt><trkpt lat="43.001406990688814" lon="11.47607230138618"><ele>376.57142857142856</ele><time>2026-04-11T13:59:15Z</time></trkpt><trkpt lat="43.00133469064803" lon="11.476127486924545"><ele>376.1428571428571</ele><time>2026-04-11T13:59:16Z</time></trkpt><trkpt lat="43.00126668924677" lon="11.476179391370911"><ele>375.71428571428567</ele><time>2026-04-11T13:59:17Z</time></trkpt><trkpt lat="43.00120260823283" lon="11.476231771228766"><ele>375.2857142857143</ele><time>2026-04-11T13:59:18Z</time></trkpt><trkpt lat="43.001144652318004" lon="11.47627938897825"><ele>374.8571428571429</ele><time>2026-04-11T13:59:19Z</time></trkpt><trkpt lat="43.00108689213661" lon="11.476323812799007"><ele>374.4285714285714</ele><time>2026-04-11T13:59:20Z</time></trkpt><trkpt lat="43.001029559415294" lon="11.476361698339872"><ele>374.0</ele><time>2026-04-11T13:59:21Z</time></trkpt><trkpt lat="43.00096679637714" lon="11.476390631647751"><ele>374.2</ele><time>2026-04-11T13:59:22Z</time></trkpt><trkpt lat="43.00084156078477" lon="11.476372666161389"><ele>374.4</ele><time>2026-04-11T13:59:24Z</time></trkpt><trkpt lat="43.000799812100226" lon="11.476305944806318"><ele>374.6</ele><time>2026-04-11T13:59:25Z</time></trkpt><trkpt lat="43.00071765891501" lon="11.476174507894783"><ele>374.8</ele><time>2026-04-11T13:59:27Z</time></trkpt><trkpt lat="43.000650656947414" lon="11.476026095881169"><ele>375.0</ele><time>2026-04-11T13:59:29Z</time></trkpt><trkpt lat="43.00061109316924" lon="11.475942020753838"><ele>375.0</ele><time>2026-04-11T13:59:30Z</time></trkpt><trkpt lat="43.00056811873891" lon="11.47585069785749"><ele>375.0</ele><time>2026-04-11T13:59:31Z</time></trkpt><trkpt lat="43.00052449531862" lon="11.475757995720143"><ele>375.0</ele><time>2026-04-11T13:59:32Z</time></trkpt><trkpt lat="43.000481033914035" lon="11.475666034160513"><ele>375.0</ele><time>2026-04-11T13:59:33Z</time></trkpt><trkpt lat="43.000436709439604" lon="11.475575934012701"><ele>375.0</ele><time>2026-04-11T13:59:34Z</time></trkpt><trkpt lat="43.0003931492434" lon="11.475487387443424"><ele>375.0</ele><time>2026-04-11T13:59:35Z</time></trkpt><trkpt lat="43.00034870473808" lon="11.47539798038816"><ele>374.3333333333333</ele><time>2026-04-11T13:59:36Z</time></trkpt><trkpt lat="43.0003025732227" lon="11.475305667875977"><ele>373.6666666666667</ele><time>2026-04-11T13:59:37Z</time></trkpt><trkpt lat="43.000253303832956" lon="11.47521110584149"><ele>373.0</ele><time>2026-04-11T13:59:38Z</time></trkpt><trkpt lat="43.000204909744944" lon="11.475121832039784"><ele>372.33333333333337</ele><time>2026-04-11T13:59:39Z</time></trkpt><trkpt lat="43.00015290013012" lon="11.475036567492879"><ele>371.6666666666667</ele><time>2026-04-11T13:59:40Z</time></trkpt><trkpt lat="43.000100705589674" lon="11.474956709663124"><ele>371.0</ele><time>2026-04-11T13:59:41Z</time></trkpt><trkpt lat="43.000045613558235" lon="11.474873476461115"><ele>371.0</ele><time>2026-04-11T13:59:42Z</time></trkpt><trkpt lat="42.99999374507265" lon="11.47479078884833"><ele>371.0</ele><time>2026-04-11T13:59:43Z</time></trkpt><trkpt lat="42.99994464375473" lon="11.474712512591509"><ele>371.0</ele><time>2026-04-11T13:59:44Z</time></trkpt><trkpt lat="42.999895304859265" lon="11.474633857765815"><ele>371.0</ele><time>2026-04-11T13:59:45Z</time></trkpt><trkpt lat="42.99984582913998" lon="11.474554984808176"><ele>371.0</ele><time>2026-04-11T13:59:46Z</time></trkpt><trkpt lat="42.99979206476355" lon="11.474469639843521"><ele>371.0</ele><time>2026-04-11T13:59:47Z</time></trkpt><trkpt lat="42.99973817274439" lon="11.47438423497837"><ele>370.1666666666667</ele><time>2026-04-11T13:59:48Z</time></trkpt><trkpt lat="42.99968473870372" lon="11.474299500755672"><ele>369.33333333333337</ele><time>2026-04-11T13:59:49Z</time></trkpt><trkpt lat="42.99963083990774" lon="11.474215477598179"><ele>368.5</ele><time>2026-04-11T13:59:50Z</time></trkpt><trkpt lat="42.99957892237206" lon="11.474136900843794"><ele>367.6666666666667</ele><time>2026-04-11T13:59:51Z</time></trkpt><trkpt lat="42.99952870612532" lon="11.474061526744212"><ele>366.8333333333333</ele><time>2026-04-11T13:59:52Z</time></trkpt><trkpt lat="42.99947913406737" lon="11.473990879648493"><ele>366.0</ele><time>2026-04-11T13:59:53Z</time></trkpt><trkpt lat="42.9994270815106" lon="11.473928814757071"><ele>366.0</ele><time>2026-04-11T13:59:54Z</time></trkpt><trkpt lat="42.99937496035601" lon="11.473870980452853"><ele>366.0</ele><time>2026-04-11T13:59:55Z</time></trkpt><trkpt lat="42.99931131802033" lon="11.473828560929961"><ele>366.0</ele><time>2026-04-11T13:59:56Z</time></trkpt><trkpt lat="42.999242507111724" lon="11.473792808311032"><ele>366.0</ele><time>2026-04-11T13:59:57Z</time></trkpt><trkpt lat="42.99917578597833" lon="11.473765976221424"><ele>366.0</ele><time>2026-04-11T13:59:58Z</time></trkpt><trkpt lat="42.99910368267085" lon="11.473751558050479"><ele>366.0</ele><time>2026-04-11T13:59:59Z</time></trkpt><trkpt lat="42.999038315667775" lon="11.473735057641422"><ele>366.0</ele><time>2026-04-11T14:00:00Z</time></trkpt><trkpt lat="42.998917384266676" lon="11.473705385602656"><ele>365.4</ele><time>2026-04-11T14:00:02Z</time></trkpt><trkpt lat="42.9988552176233" lon="11.473690431935108"><ele>364.8</ele><time>2026-04-11T14:00:03Z</time></trkpt><trkpt lat="42.99873777310805" lon="11.473662181642823"><ele>364.2</ele><time>2026-04-11T14:00:05Z</time></trkpt><trkpt lat="42.99862078014039" lon="11.473633486010588"><ele>363.59999999999997</ele><time>2026-04-11T14:00:07Z</time></trkpt><trkpt lat="42.998505164664934" lon="11.473605129871368"><ele>363.0</ele><time>2026-04-11T14:00:09Z</time></trkpt><trkpt lat="42.99838554257296" lon="11.473575791058622"><ele>363.1428571428571</ele><time>2026-04-11T14:00:11Z</time></trkpt><trkpt lat="42.99832031075226" lon="11.473559792141767"><ele>363.2857142857143</ele><time>2026-04-11T14:00:12Z</time></trkpt><trkpt lat="42.99825279731078" lon="11.473543299816459"><ele>363.42857142857144</ele><time>2026-04-11T14:00:13Z</time></trkpt><trkpt lat="42.99818140248131" lon="11.473525969447191"><ele>363.57142857142856</ele><time>2026-04-11T14:00:14Z</time></trkpt><trkpt lat="42.99811096066248" lon="11.473508870419943"><ele>363.7142857142857</ele><time>2026-04-11T14:00:15Z</time></trkpt><trkpt lat="42.99804373265755" lon="11.473488337781694"><ele>363.85714285714283</ele><time>2026-04-11T14:00:16Z</time></trkpt><trkpt lat="42.997972929215564" lon="11.473462254320847"><ele>364.0</ele><time>2026-04-11T14:00:17Z</time></trkpt><trkpt lat="42.99790833765371" lon="11.473432972864687"><ele>364.0</ele><time>2026-04-11T14:00:18Z</time></trkpt><trkpt lat="42.99784061065165" lon="11.473395498358109"><ele>364.0</ele><time>2026-04-11T14:00:19Z</time></trkpt><trkpt lat="42.99777643199445" lon="11.473355087985846"><ele>364.0</ele><time>2026-04-11T14:00:20Z</time></trkpt><trkpt lat="42.99771350055429" lon="11.473314404246187"><ele>364.0</ele><time>2026-04-11T14:00:21Z</time></trkpt><trkpt lat="42.99760166911376" lon="11.473243572964364"><ele>364.0</ele><time>2026-04-11T14:00:23Z</time></trkpt><trkpt lat="42.99750276196865" lon="11.473181915195457"><ele>364.0</ele><time>2026-04-11T14:00:25Z</time></trkpt><trkpt lat="42.99742398083584" lon="11.473132803774915"><ele>364.0</ele><time>2026-04-11T14:00:27Z</time></trkpt><trkpt lat="42.997361883416104" lon="11.473093225900344"><ele>364.0</ele><time>2026-04-11T14:00:29Z</time></trkpt><trkpt lat="42.99728942371749" lon="11.473045405935686"><ele>364.0</ele><time>2026-04-11T14:00:31Z</time></trkpt><trkpt lat="42.99722965943816" lon="11.473005964344322"><ele>364.0</ele><time>2026-04-11T14:00:33Z</time></trkpt><trkpt lat="42.997169748730144" lon="11.472970767358259"><ele>364.0</ele><time>2026-04-11T14:00:35Z</time></trkpt><trkpt lat="42.997092998533" lon="11.472937443871883"><ele>364.0</ele><time>2026-04-11T14:00:38Z</time></trkpt><trkpt lat="42.99702313505956" lon="11.472940313590096"><ele>364.0</ele><time>2026-04-11T14:00:40Z</time></trkpt><trkpt lat="42.99695391506397" lon="11.472970117528137"><ele>364.5</ele><time>2026-04-11T14:00:42Z</time></trkpt><trkpt lat="42.99693063446003" lon="11.473057114096884"><ele>365.0</ele><time>2026-04-11T14:00:45Z</time></trkpt><trkpt lat="42.99688441758623" lon="11.473121721945988"><ele>365.5</ele><time>2026-04-11T14:00:48Z</time></trkpt><trkpt lat="42.9968241906938" lon="11.473201308146152"><ele>366.0</ele><time>2026-04-11T14:00:51Z</time></trkpt><trkpt lat="42.99676124398514" lon="11.473291096035801"><ele>366.5</ele><time>2026-04-11T14:00:54Z</time></trkpt><trkpt lat="42.996707845774246" lon="11.473370103192666"><ele>367.0</ele><time>2026-04-11T14:00:57Z</time></trkpt><trkpt lat="42.99665382384402" lon="11.473446392849217"><ele>367.7142857142857</ele><time>2026-04-11T14:01:00Z</time></trkpt><trkpt lat="42.9966110783365" lon="11.473517904974383"><ele>368.42857142857144</ele><time>2026-04-11T14:01:03Z</time></trkpt><trkpt lat="42.996557450377274" lon="11.473594555808369"><ele>369.14285714285717</ele><time>2026-04-11T14:01:06Z</time></trkpt><trkpt lat="42.99651146201149" lon="11.473683468396068"><ele>369.8571428571429</ele><time>2026-04-11T14:01:09Z</time></trkpt><trkpt lat="42.99647232779532" lon="11.473752005389414"><ele>370.57142857142856</ele><time>2026-04-11T14:01:12Z</time></trkpt><trkpt lat="42.99641775033806" lon="11.47383143539071"><ele>371.28571428571433</ele><time>2026-04-11T14:01:15Z</time></trkpt><trkpt lat="42.99636692098216" lon="11.473909461320046"><ele>372.0</ele><time>2026-04-11T14:01:18Z</time></trkpt><trkpt lat="42.9963089081063" lon="11.47400042162625"><ele>372.1666666666667</ele><time>2026-04-11T14:01:21Z</time></trkpt><trkpt lat="42.99626212341497" lon="11.474059342029378"><ele>372.3333333333333</ele><time>2026-04-11T14:01:23Z</time></trkpt><trkpt lat="42.99619790735368" lon="11.474143845062786"><ele>372.5</ele><time>2026-04-11T14:01:26Z</time></trkpt><trkpt lat="42.99615641608167" lon="11.474218306207117"><ele>372.66666666666663</ele><time>2026-04-11T14:01:29Z</time></trkpt><trkpt lat="42.9960971704318" lon="11.474299426086013"><ele>372.8333333333333</ele><time>2026-04-11T14:01:32Z</time></trkpt><trkpt lat="42.996035220524945" lon="11.474370762363055"><ele>373.0</ele><time>2026-04-11T14:01:34Z</time></trkpt><trkpt lat="42.995969623954686" lon="11.474439140615944"><ele>373.0</ele><time>2026-04-11T14:01:37Z</time></trkpt><trkpt lat="42.99590703272222" lon="11.474509341873317"><ele>373.0</ele><time>2026-04-11T14:01:40Z</time></trkpt><trkpt lat="42.995833380153954" lon="11.474560870268503"><ele>373.0</ele><time>2026-04-11T14:01:43Z</time></trkpt><trkpt lat="42.99576001919754" lon="11.474620860216355"><ele>373.0</ele><time>2026-04-11T14:01:46Z</time></trkpt><trkpt lat="42.99568841139416" lon="11.4746807191591"><ele>373.0</ele><time>2026-04-11T14:01:49Z</time></trkpt><trkpt lat="42.99561921790091" lon="11.47474348277356"><ele>373.0</ele><time>2026-04-11T14:01:52Z</time></trkpt><trkpt lat="42.99553833215722" lon="11.47479861361888"><ele>373.8333333333333</ele><time>2026-04-11T14:01:55Z</time></trkpt><trkpt lat="42.99544854154907" lon="11.47485130123709"><ele>374.66666666666663</ele><time>2026-04-11T14:01:58Z</time></trkpt><trkpt lat="42.995384548155904" lon="11.474877054905303"><ele>375.5</ele><time>2026-04-11T14:02:00Z</time></trkpt><trkpt lat="42.995316943561825" lon="11.474871694667614"><ele>376.3333333333333</ele><time>2026-04-11T14:02:02Z</time></trkpt><trkpt lat="42.99523557109001" lon="11.47485431394349"><ele>377.1666666666667</ele><time>2026-04-11T14:02:04Z</time></trkpt><trkpt lat="42.99513616957311" lon="11.474831941494168"><ele>378.0</ele><time>2026-04-11T14:02:06Z</time></trkpt><trkpt lat="42.99501855510869" lon="11.474818678848012"><ele>377.7142857142857</ele><time>2026-04-11T14:02:08Z</time></trkpt><trkpt lat="42.994953068696525" lon="11.474805848812846"><ele>377.42857142857144</ele><time>2026-04-11T14:02:09Z</time></trkpt><trkpt lat="42.994880145781885" lon="11.474799619023909"><ele>377.1428571428571</ele><time>2026-04-11T14:02:10Z</time></trkpt><trkpt lat="42.99480794407935" lon="11.47478606740172"><ele>376.8571428571429</ele><time>2026-04-11T14:02:11Z</time></trkpt><trkpt lat="42.99473533573956" lon="11.474776677268038"><ele>376.57142857142856</ele><time>2026-04-11T14:02:12Z</time></trkpt><trkpt lat="42.99467034558686" lon="11.474759961714584"><ele>376.2857142857143</ele><time>2026-04-11T14:02:13Z</time></trkpt><trkpt lat="42.99460309982751" lon="11.474753681593363"><ele>376.0</ele><time>2026-04-11T14:02:14Z</time></trkpt><trkpt lat="42.9944856550987" lon="11.474750535366866"><ele>376.0</ele><time>2026-04-11T14:02:16Z</time></trkpt><trkpt lat="42.9943830584131" lon="11.474788248585746"><ele>376.0</ele><time>2026-04-11T14:02:18Z</time></trkpt><trkpt lat="42.99428442621684" lon="11.47485903406333"><ele>376.0</ele><time>2026-04-11T14:02:20Z</time></trkpt><trkpt lat="42.99417921153055" lon="11.474933623738576"><ele>376.0</ele><time>2026-04-11T14:02:22Z</time></trkpt><trkpt lat="42.9940716702018" lon="11.475018975277996"><ele>374.0</ele><time>2026-04-11T14:02:24Z</time></trkpt><trkpt lat="42.99401443702176" lon="11.475059429012424"><ele>372.0</ele><time>2026-04-11T14:02:25Z</time></trkpt><trkpt lat="42.99390602590942" lon="11.47512593682702"><ele>370.0</ele><time>2026-04-11T14:02:27Z</time></trkpt><trkpt lat="42.9938077335638" lon="11.475196362135405"><ele>368.0</ele><time>2026-04-11T14:02:29Z</time></trkpt><trkpt lat="42.9937215290487" lon="11.475285037366909"><ele>366.0</ele><time>2026-04-11T14:02:31Z</time></trkpt><trkpt lat="42.993636610541415" lon="11.475378609059833"><ele>367.75</ele><time>2026-04-11T14:02:33Z</time></trkpt><trkpt lat="42.993555222986906" lon="11.475494376501722"><ele>369.5</ele><time>2026-04-11T14:02:35Z</time></trkpt><trkpt lat="42.9934954856822" lon="11.475629345301233"><ele>371.25</ele><time>2026-04-11T14:02:37Z</time></trkpt><trkpt lat="42.99345239122126" lon="11.475777425487776"><ele>373.0</ele><time>2026-04-11T14:02:39Z</time></trkpt><trkpt lat="42.99341105326425" lon="11.475923171208802"><ele>373.0</ele><time>2026-04-11T14:02:41Z</time></trkpt><trkpt lat="42.99336876628304" lon="11.476072263220507"><ele>373.0</ele><time>2026-04-11T14:02:43Z</time></trkpt><trkpt lat="42.99332603002308" lon="11.47621735154327"><ele>373.0</ele><time>2026-04-11T14:02:45Z</time></trkpt><trkpt lat="42.993280626816755" lon="11.476365733501035"><ele>373.0</ele><time>2026-04-11T14:02:47Z</time></trkpt><trkpt lat="42.99323091150835" lon="11.4765084832361"><ele>369.0</ele><time>2026-04-11T14:02:49Z</time></trkpt><trkpt lat="42.993183852343485" lon="11.476643141354748"><ele>365.0</ele><time>2026-04-11T14:02:51Z</time></trkpt><trkpt lat="42.99313403872802" lon="11.476787472371159"><ele>361.0</ele><time>2026-04-11T14:02:53Z</time></trkpt><trkpt lat="42.9930856890159" lon="11.476937040527497"><ele>357.0</ele><time>2026-04-11T14:02:55Z</time></trkpt><trkpt lat="42.99305484441667" lon="11.477082298258706"><ele>355.6</ele><time>2026-04-11T14:02:57Z</time></trkpt><trkpt lat="42.9930639775716" lon="11.477238498390482"><ele>354.20000000000005</ele><time>2026-04-11T14:02:59Z</time></trkpt><trkpt lat="42.993062664604466" lon="11.47740581551346"><ele>352.8</ele><time>2026-04-11T14:03:01Z</time></trkpt><trkpt lat="42.99307311135893" lon="11.477492057799791"><ele>351.4</ele><time>2026-04-11T14:03:02Z</time></trkpt><trkpt lat="42.99310246352319" lon="11.477646023758465"><ele>350.0</ele><time>2026-04-11T14:03:04Z</time></trkpt><trkpt lat="42.993150668170195" lon="11.477774136494228"><ele>350.0</ele><time>2026-04-11T14:03:06Z</time></trkpt><trkpt lat="42.993222028592285" lon="11.477890997256562"><ele>350.0</ele><time>2026-04-11T14:03:08Z</time></trkpt><trkpt lat="42.99330689162325" lon="11.477991421381581"><ele>350.0</ele><time>2026-04-11T14:03:10Z</time></trkpt><trkpt lat="42.99336867776573" lon="11.478008367269258"><ele>350.0</ele><time>2026-04-11T14:03:11Z</time></trkpt><trkpt lat="42.99347740103197" lon="11.478070338000299"><ele>350.0</ele><time>2026-04-11T14:03:13Z</time></trkpt><trkpt lat="42.99352904470343" lon="11.478123795430129"><ele>349.57142857142856</ele><time>2026-04-11T14:03:14Z</time></trkpt><trkpt lat="42.9935977089889" lon="11.478140019302032"><ele>349.1428571428571</ele><time>2026-04-11T14:03:15Z</time></trkpt><trkpt lat="42.99365582625021" lon="11.47818127179568"><ele>348.7142857142857</ele><time>2026-04-11T14:03:16Z</time></trkpt><trkpt lat="42.99371011673245" lon="11.478248206414063"><ele>348.2857142857143</ele><time>2026-04-11T14:03:17Z</time></trkpt><trkpt lat="42.993778360653465" lon="11.478300729380257"><ele>347.85714285714283</ele><time>2026-04-11T14:03:18Z</time></trkpt><trkpt lat="42.993855285463894" lon="11.47832969734585"><ele>347.42857142857144</ele><time>2026-04-11T14:03:19Z</time></trkpt><trkpt lat="42.99392351168954" lon="11.478373819398115"><ele>347.0</ele><time>2026-04-11T14:03:20Z</time></trkpt><trkpt lat="42.99398682395543" lon="11.478395372044153"><ele>347.0</ele><time>2026-04-11T14:03:21Z</time></trkpt><trkpt lat="42.99411035637371" lon="11.47838726801783"><ele>347.0</ele><time>2026-04-11T14:03:23Z</time></trkpt><trkpt lat="42.994216094843345" lon="11.47842271991603"><ele>347.0</ele><time>2026-04-11T14:03:25Z</time></trkpt><trkpt lat="42.994293942984974" lon="11.478483013041465"><ele>347.0</ele><time>2026-04-11T14:03:27Z</time></trkpt><trkpt lat="42.9943148510369" lon="11.47860478755473"><ele>347.0</ele><time>2026-04-11T14:03:29Z</time></trkpt><trkpt lat="42.994286334379055" lon="11.47873468966529"><ele>345.6666666666667</ele><time>2026-04-11T14:03:31Z</time></trkpt><trkpt lat="42.994209634344955" lon="11.47883433474733"><ele>344.33333333333337</ele><time>2026-04-11T14:03:33Z</time></trkpt><trkpt lat="42.994161082704935" lon="11.478909613421777"><ele>343.0</ele><time>2026-04-11T14:03:34Z</time></trkpt><trkpt lat="42.994114174400735" lon="11.478979852955623"><ele>341.6666666666667</ele><time>2026-04-11T14:03:35Z</time></trkpt><trkpt lat="42.99406793442546" lon="11.479049091721416"><ele>340.3333333333333</ele><time>2026-04-11T14:03:36Z</time></trkpt><trkpt lat="42.99402321115215" lon="11.479117687636096"><ele>339.0</ele><time>2026-04-11T14:03:37Z</time></trkpt><trkpt lat="42.99394681845807" lon="11.47924684257895"><ele>339.0</ele><time>2026-04-11T14:03:39Z</time></trkpt><trkpt lat="42.993872660356594" lon="11.479382109848226"><ele>339.0</ele><time>2026-04-11T14:03:41Z</time></trkpt><trkpt lat="42.993801413367564" lon="11.47952664575165"><ele>339.0</ele><time>2026-04-11T14:03:43Z</time></trkpt><trkpt lat="42.99374193718982" lon="11.47966373792388"><ele>339.0</ele><time>2026-04-11T14:03:45Z</time></trkpt><trkpt lat="42.99369802126436" lon="11.479810536183875"><ele>339.5</ele><time>2026-04-11T14:03:47Z</time></trkpt><trkpt lat="42.993679276906214" lon="11.479968588006939"><ele>340.0</ele><time>2026-04-11T14:03:49Z</time></trkpt><trkpt lat="42.993687757279574" lon="11.480062005688598"><ele>340.5</ele><time>2026-04-11T14:03:50Z</time></trkpt><trkpt lat="42.99369635976945" lon="11.480158806524722"><ele>341.0</ele><time>2026-04-11T14:03:51Z</time></trkpt><trkpt lat="42.993706708899566" lon="11.480253310166772"><ele>341.5</ele><time>2026-04-11T14:03:52Z</time></trkpt><trkpt lat="42.993716811036535" lon="11.48034256553975"><ele>342.0</ele><time>2026-04-11T14:03:53Z</time></trkpt><trkpt lat="42.99372925943766" lon="11.48043801885167"><ele>340.6666666666667</ele><time>2026-04-11T14:03:54Z</time></trkpt><trkpt lat="42.99374311535872" lon="11.480525366535316"><ele>339.3333333333333</ele><time>2026-04-11T14:03:55Z</time></trkpt><trkpt lat="42.99375670872687" lon="11.480611059168105"><ele>338.0</ele><time>2026-04-11T14:03:56Z</time></trkpt><trkpt lat="42.99377111236806" lon="11.480701859585443"><ele>336.66666666666663</ele><time>2026-04-11T14:03:57Z</time></trkpt><trkpt lat="42.993784478162624" lon="11.480787330680272"><ele>335.3333333333333</ele><time>2026-04-11T14:03:58Z</time></trkpt><trkpt lat="42.99379818673562" lon="11.480875280591869"><ele>334.0</ele><time>2026-04-11T14:03:59Z</time></trkpt><trkpt lat="42.99381870651514" lon="11.481050605080679"><ele>334.0</ele><time>2026-04-11T14:04:01Z</time></trkpt><trkpt lat="42.993826701902925" lon="11.481141874437421"><ele>334.0</ele><time>2026-04-11T14:04:02Z</time></trkpt><trkpt lat="42.99383140233847" lon="11.481229066749622"><ele>334.0</ele><time>2026-04-11T14:04:03Z</time></trkpt><trkpt lat="42.99383543967507" lon="11.481317203323476"><ele>334.0</ele><time>2026-04-11T14:04:04Z</time></trkpt><trkpt lat="42.993819705917936" lon="11.48147275514383"><ele>334.0</ele><time>2026-04-11T14:04:06Z</time></trkpt><trkpt lat="42.993782001282256" lon="11.48163397380067"><ele>334.0</ele><time>2026-04-11T14:04:08Z</time></trkpt><trkpt lat="42.99376143838344" lon="11.48171832658535"><ele>331.57142857142856</ele><time>2026-04-11T14:04:09Z</time></trkpt><trkpt lat="42.99373960578522" lon="11.481803241896436"><ele>329.14285714285717</ele><time>2026-04-11T14:04:10Z</time></trkpt><trkpt lat="42.99371825172215" lon="11.48188775216133"><ele>326.7142857142857</ele><time>2026-04-11T14:04:11Z</time></trkpt><trkpt lat="42.99369803982803" lon="11.481978121419388"><ele>324.2857142857143</ele><time>2026-04-11T14:04:12Z</time></trkpt><trkpt lat="42.9936835456267" lon="11.482067946967918"><ele>321.85714285714283</ele><time>2026-04-11T14:04:13Z</time></trkpt><trkpt lat="42.993675214356436" lon="11.48215708912807"><ele>319.42857142857144</ele><time>2026-04-11T14:04:14Z</time></trkpt><trkpt lat="42.9936770523279" lon="11.482256541063542"><ele>317.0</ele><time>2026-04-11T14:04:15Z</time></trkpt><trkpt lat="42.993683038607045" lon="11.482355987874952"><ele>316.0</ele><time>2026-04-11T14:04:16Z</time></trkpt><trkpt lat="42.9937006174803" lon="11.482461196378862"><ele>315.0</ele><time>2026-04-11T14:04:17Z</time></trkpt><trkpt lat="42.99373849172736" lon="11.482553100642988"><ele>314.0</ele><time>2026-04-11T14:04:18Z</time></trkpt><trkpt lat="42.993770315238635" lon="11.48263191242937"><ele>313.0</ele><time>2026-04-11T14:04:19Z</time></trkpt><trkpt lat="42.993801209372364" lon="11.48270768765361"><ele>312.0</ele><time>2026-04-11T14:04:20Z</time></trkpt><trkpt lat="42.993835823703485" lon="11.48279096940736"><ele>311.0</ele><time>2026-04-11T14:04:21Z</time></trkpt><trkpt lat="42.99387122976887" lon="11.482873804644582"><ele>310.0</ele><time>2026-04-11T14:04:22Z</time></trkpt><trkpt lat="42.993904355552914" lon="11.482951063529477"><ele>309.42857142857144</ele><time>2026-04-11T14:04:23Z</time></trkpt><trkpt lat="42.993935274559206" lon="11.483026292645333"><ele>308.85714285714283</ele><time>2026-04-11T14:04:24Z</time></trkpt><trkpt lat="42.99396578244323" lon="11.483104475955457"><ele>308.2857142857143</ele><time>2026-04-11T14:04:25Z</time></trkpt><trkpt lat="42.99399684956314" lon="11.48318826375854"><ele>307.7142857142857</ele><time>2026-04-11T14:04:26Z</time></trkpt><trkpt lat="42.99402861053385" lon="11.483273922767696"><ele>307.14285714285717</ele><time>2026-04-11T14:04:27Z</time></trkpt><trkpt lat="42.99406016617542" lon="11.483359028022823"><ele>306.57142857142856</ele><time>2026-04-11T14:04:28Z</time></trkpt><trkpt lat="42.9940919358313" lon="11.483444710513236"><ele>306.0</ele><time>2026-04-11T14:04:29Z</time></trkpt><trkpt lat="42.99412343518847" lon="11.483525929060223"><ele>306.6666666666667</ele><time>2026-04-11T14:04:30Z</time></trkpt><trkpt lat="42.99418068338275" lon="11.483660863232986"><ele>307.3333333333333</ele><time>2026-04-11T14:04:32Z</time></trkpt><trkpt lat="42.99421810166331" lon="11.483733659383645"><ele>308.0</ele><time>2026-04-11T14:04:33Z</time></trkpt><trkpt lat="42.99426490702005" lon="11.483799031408804"><ele>308.66666666666663</ele><time>2026-04-11T14:04:34Z</time></trkpt><trkpt lat="42.99431809714036" lon="11.483870306529315"><ele>309.3333333333333</ele><time>2026-04-11T14:04:35Z</time></trkpt><trkpt lat="42.99437197486154" lon="11.483934263029694"><ele>310.0</ele><time>2026-04-11T14:04:36Z</time></trkpt><trkpt lat="42.99443634536156" lon="11.484001775268746"><ele>308.66666666666663</ele><time>2026-04-11T14:04:37Z</time></trkpt><trkpt lat="42.994493237566076" lon="11.48405448223036"><ele>307.3333333333333</ele><time>2026-04-11T14:04:38Z</time></trkpt><trkpt lat="42.99455708831183" lon="11.484098743486637"><ele>306.0</ele><time>2026-04-11T14:04:39Z</time></trkpt><trkpt lat="42.99467903263667" lon="11.484160257486941"><ele>304.6666666666667</ele><time>2026-04-11T14:04:41Z</time></trkpt><trkpt lat="42.994745052664946" lon="11.484187266040298"><ele>303.33333333333337</ele><time>2026-04-11T14:04:42Z</time></trkpt><trkpt lat="42.99480702322798" lon="11.484211751473788"><ele>302.0</ele><time>2026-04-11T14:04:43Z</time></trkpt><trkpt lat="42.99487228926859" lon="11.48424102014174"><ele>302.0</ele><time>2026-04-11T14:04:44Z</time></trkpt><trkpt lat="42.99494130236975" lon="11.484274119537472"><ele>302.0</ele><time>2026-04-11T14:04:45Z</time></trkpt><trkpt lat="42.99500528374958" lon="11.48430763332948"><ele>302.0</ele><time>2026-04-11T14:04:46Z</time></trkpt><trkpt lat="42.99510946205033" lon="11.484404216164396"><ele>302.0</ele><time>2026-04-11T14:04:48Z</time></trkpt><trkpt lat="42.99515999474319" lon="11.484461206875086"><ele>302.0</ele><time>2026-04-11T14:04:49Z</time></trkpt><trkpt lat="42.995250397904904" lon="11.484573825702414"><ele>303.1666666666667</ele><time>2026-04-11T14:04:51Z</time></trkpt><trkpt lat="42.995297076839186" lon="11.484637806366143"><ele>304.33333333333337</ele><time>2026-04-11T14:04:52Z</time></trkpt><trkpt lat="42.995373621336086" lon="11.484773577423542"><ele>305.5</ele><time>2026-04-11T14:04:54Z</time></trkpt><trkpt lat="42.99540217092526" lon="11.484850630842674"><ele>306.6666666666667</ele><time>2026-04-11T14:04:55Z</time></trkpt><trkpt lat="42.995422553276825" lon="11.484936540493653"><ele>307.8333333333333</ele><time>2026-04-11T14:04:56Z</time></trkpt><trkpt lat="42.995429577821405" lon="11.485024560076837"><ele>309.0</ele><time>2026-04-11T14:04:57Z</time></trkpt><trkpt lat="42.99543759764233" lon="11.485187715640247"><ele>309.0</ele><time>2026-04-11T14:04:59Z</time></trkpt><trkpt lat="42.99543253349831" lon="11.485327539744047"><ele>309.0</ele><time>2026-04-11T14:05:01Z</time></trkpt><trkpt lat="42.99538390549775" lon="11.485456060698269"><ele>309.0</ele><time>2026-04-11T14:05:03Z</time></trkpt><trkpt lat="42.99531954609458" lon="11.48548775564694"><ele>309.0</ele><time>2026-04-11T14:05:05Z</time></trkpt><trkpt lat="42.99525103147542" lon="11.485486903101124"><ele>309.0</ele><time>2026-04-11T14:05:09Z</time></trkpt><trkpt lat="42.995183722580066" lon="11.485450139632624"><ele>309.0</ele><time>2026-04-11T14:05:12Z</time></trkpt><trkpt lat="42.995111422934784" lon="11.485401277494715"><ele>309.0</ele><time>2026-04-11T14:05:15Z</time></trkpt><trkpt lat="42.99501281043856" lon="11.485396748271553"><ele>309.0</ele><time>2026-04-11T14:05:18Z</time></trkpt><trkpt lat="42.994923764917765" lon="11.485389963607778"><ele>309.0</ele><time>2026-04-11T14:05:21Z</time></trkpt><trkpt lat="42.9948397700478" lon="11.485399581530142"><ele>309.0</ele><time>2026-04-11T14:05:24Z</time></trkpt><trkpt lat="42.99476921252868" lon="11.485430197445172"><ele>309.0</ele><time>2026-04-11T14:05:28Z</time></trkpt><trkpt lat="42.994699915786136" lon="11.48547829100383"><ele>309.0</ele><time>2026-04-11T14:05:31Z</time></trkpt><trkpt lat="42.99462694346764" lon="11.485521834698071"><ele>307.8333333333333</ele><time>2026-04-11T14:05:34Z</time></trkpt><trkpt lat="42.9945393710312" lon="11.485551388433603"><ele>306.6666666666667</ele><time>2026-04-11T14:05:37Z</time></trkpt><trkpt lat="42.994479583281056" lon="11.48560347771728"><ele>305.5</ele><time>2026-04-11T14:05:39Z</time></trkpt><trkpt lat="42.994397734287546" lon="11.485640885377412"><ele>304.33333333333337</ele><time>2026-04-11T14:05:42Z</time></trkpt><trkpt lat="42.99431440964617" lon="11.485700042045965"><ele>303.1666666666667</ele><time>2026-04-11T14:05:45Z</time></trkpt><trkpt lat="42.994246220182404" lon="11.48573395824859"><ele>302.0</ele><time>2026-04-11T14:05:48Z</time></trkpt><trkpt lat="42.99418686768573" lon="11.485765541364723"><ele>302.6</ele><time>2026-04-11T14:05:50Z</time></trkpt><trkpt lat="42.994115846719" lon="11.485788721097181"><ele>303.2</ele><time>2026-04-11T14:05:52Z</time></trkpt><trkpt lat="42.994009545773956" lon="11.485798383323022"><ele>303.8</ele><time>2026-04-11T14:05:54Z</time></trkpt><trkpt lat="42.9939121218969" lon="11.485798488199007"><ele>304.4</ele><time>2026-04-11T14:05:56Z</time></trkpt><trkpt lat="42.993816485039495" lon="11.485781295743207"><ele>305.0</ele><time>2026-04-11T14:05:58Z</time></trkpt><trkpt lat="42.993710663988665" lon="11.485777672322996"><ele>305.0</ele><time>2026-04-11T14:06:00Z</time></trkpt><trkpt lat="42.99361050270079" lon="11.485778713913229"><ele>305.0</ele><time>2026-04-11T14:06:02Z</time></trkpt><trkpt lat="42.993508193556885" lon="11.485788391267569"><ele>305.0</ele><time>2026-04-11T14:06:04Z</time></trkpt><trkpt lat="42.99340757775983" lon="11.485793835673004"><ele>305.0</ele><time>2026-04-11T14:06:06Z</time></trkpt><trkpt lat="42.99330007139981" lon="11.485795224558512"><ele>305.0</ele><time>2026-04-11T14:06:08Z</time></trkpt><trkpt lat="42.993246679322574" lon="11.485737666988992"><ele>304.0</ele><time>2026-04-11T14:06:09Z</time></trkpt><trkpt lat="42.99314070701651" lon="11.4857471293625"><ele>303.0</ele><time>2026-04-11T14:06:11Z</time></trkpt><trkpt lat="42.99303001857207" lon="11.485771353905141"><ele>302.0</ele><time>2026-04-11T14:06:13Z</time></trkpt><trkpt lat="42.99291621906644" lon="11.485827530295166"><ele>301.0</ele><time>2026-04-11T14:06:15Z</time></trkpt><trkpt lat="42.99280990105351" lon="11.485922422309583"><ele>301.0</ele><time>2026-04-11T14:06:17Z</time></trkpt><trkpt lat="42.99275837254195" lon="11.485987058355411"><ele>301.0</ele><time>2026-04-11T14:06:18Z</time></trkpt><trkpt lat="42.992711520405464" lon="11.486047656363455"><ele>301.0</ele><time>2026-04-11T14:06:19Z</time></trkpt><trkpt lat="42.99266584934574" lon="11.486113938222754"><ele>301.0</ele><time>2026-04-11T14:06:20Z</time></trkpt><trkpt lat="42.99261964608684" lon="11.486181282547433"><ele>301.0</ele><time>2026-04-11T14:06:21Z</time></trkpt><trkpt lat="42.99257254641676" lon="11.486249933444126"><ele>301.0</ele><time>2026-04-11T14:06:22Z</time></trkpt><trkpt lat="42.99252483906166" lon="11.486319470059115"><ele>301.0</ele><time>2026-04-11T14:06:23Z</time></trkpt><trkpt lat="42.99247757738814" lon="11.486388807081541"><ele>299.40000000000003</ele><time>2026-04-11T14:06:24Z</time></trkpt><trkpt lat="42.99243207280339" lon="11.486457392658838"><ele>297.8</ele><time>2026-04-11T14:06:25Z</time></trkpt><trkpt lat="42.9923876023494" lon="11.486524419512913"><ele>296.20000000000005</ele><time>2026-04-11T14:06:26Z</time></trkpt><trkpt lat="42.99230377130296" lon="11.486652781657549"><ele>294.6</ele><time>2026-04-11T14:06:28Z</time></trkpt><trkpt lat="42.992222323143444" lon="11.486780119228115"><ele>293.0</ele><time>2026-04-11T14:06:30Z</time></trkpt><trkpt lat="42.99215130727385" lon="11.486905655419234"><ele>293.0</ele><time>2026-04-11T14:06:32Z</time></trkpt><trkpt lat="42.9921032819937" lon="11.487036228165978"><ele>293.0</ele><time>2026-04-11T14:06:34Z</time></trkpt><trkpt lat="42.99209893986716" lon="11.487159603983544"><ele>293.0</ele><time>2026-04-11T14:06:36Z</time></trkpt><trkpt lat="42.99209278846692" lon="11.48727638784126"><ele>293.0</ele><time>2026-04-11T14:06:38Z</time></trkpt><trkpt lat="42.992087672491955" lon="11.487371664434187"><ele>293.0</ele><time>2026-04-11T14:06:40Z</time></trkpt><trkpt lat="42.99207432786369" lon="11.487467892595681"><ele>293.0</ele><time>2026-04-11T14:06:42Z</time></trkpt><trkpt lat="42.99206316583919" lon="11.487560289243154"><ele>294.57142857142856</ele><time>2026-04-11T14:06:44Z</time></trkpt><trkpt lat="42.992063856046435" lon="11.487653974863557"><ele>296.1428571428571</ele><time>2026-04-11T14:06:47Z</time></trkpt><trkpt lat="42.99207221875125" lon="11.487754549346217"><ele>297.71428571428567</ele><time>2026-04-11T14:06:50Z</time></trkpt><trkpt lat="42.992072977515875" lon="11.487866742712686"><ele>299.2857142857143</ele><time>2026-04-11T14:06:53Z</time></trkpt><trkpt lat="42.99206374219033" lon="11.487955035439631"><ele>300.8571428571429</ele><time>2026-04-11T14:06:55Z</time></trkpt><trkpt lat="42.99205134083155" lon="11.488051735504433"><ele>302.4285714285714</ele><time>2026-04-11T14:06:58Z</time></trkpt><trkpt lat="42.99204678015695" lon="11.488139720785577"><ele>304.0</ele><time>2026-04-11T14:07:00Z</time></trkpt><trkpt lat="42.99203483088839" lon="11.488243279465598"><ele>304.8333333333333</ele><time>2026-04-11T14:07:02Z</time></trkpt><trkpt lat="42.99202573210391" lon="11.488351439482237"><ele>305.66666666666663</ele><time>2026-04-11T14:07:05Z</time></trkpt><trkpt lat="42.992021423779704" lon="11.488446329089674"><ele>306.5</ele><time>2026-04-11T14:07:07Z</time></trkpt><trkpt lat="42.9920141134834" lon="11.488571873674411"><ele>307.3333333333333</ele><time>2026-04-11T14:07:10Z</time></trkpt><trkpt lat="42.99201333273142" lon="11.488691639116771"><ele>308.1666666666667</ele><time>2026-04-11T14:07:12Z</time></trkpt><trkpt lat="42.992000718224276" lon="11.488803182972644"><ele>309.0</ele><time>2026-04-11T14:07:14Z</time></trkpt><trkpt lat="42.991985481424244" lon="11.48893229617637"><ele>309.4</ele><time>2026-04-11T14:07:16Z</time></trkpt><trkpt lat="42.991961624943386" lon="11.489102227247944"><ele>309.79999999999995</ele><time>2026-04-11T14:07:18Z</time></trkpt><trkpt lat="42.99193899414514" lon="11.489188729455051"><ele>310.20000000000005</ele><time>2026-04-11T14:07:19Z</time></trkpt><trkpt lat="42.99189967866764" lon="11.489323310510871"><ele>310.6</ele><time>2026-04-11T14:07:21Z</time></trkpt><trkpt lat="42.99187565893539" lon="11.48946236291036"><ele>311.0</ele><time>2026-04-11T14:07:23Z</time></trkpt><trkpt lat="42.991844373619884" lon="11.48960126363559"><ele>311.2</ele><time>2026-04-11T14:07:25Z</time></trkpt><trkpt lat="42.99181180998478" lon="11.48974028792997"><ele>311.40000000000003</ele><time>2026-04-11T14:07:27Z</time></trkpt><trkpt lat="42.991785884905454" lon="11.489880590402212"><ele>311.6</ele><time>2026-04-11T14:07:29Z</time></trkpt><trkpt lat="42.991764503655475" lon="11.490013611926756"><ele>311.8</ele><time>2026-04-11T14:07:31Z</time></trkpt><trkpt lat="42.991738075309954" lon="11.490146632740835"><ele>312.0</ele><time>2026-04-11T14:07:33Z</time></trkpt><trkpt lat="42.99172376669265" lon="11.490274287439917"><ele>312.0</ele><time>2026-04-11T14:07:35Z</time></trkpt><trkpt lat="42.99169458578078" lon="11.490405927354225"><ele>312.0</ele><time>2026-04-11T14:07:37Z</time></trkpt><trkpt lat="42.99167375844417" lon="11.490535271661718"><ele>312.0</ele><time>2026-04-11T14:07:39Z</time></trkpt><trkpt lat="42.99164748894511" lon="11.490664025672789"><ele>312.0</ele><time>2026-04-11T14:07:41Z</time></trkpt><trkpt lat="42.991626141879905" lon="11.490794570109344"><ele>312.0</ele><time>2026-04-11T14:07:43Z</time></trkpt><trkpt lat="42.99160526236667" lon="11.490930481990397"><ele>309.0</ele><time>2026-04-11T14:07:45Z</time></trkpt><trkpt lat="42.9915747017964" lon="11.49107920355511"><ele>306.0</ele><time>2026-04-11T14:07:47Z</time></trkpt><trkpt lat="42.9915505090452" lon="11.491241799332142"><ele>303.0</ele><time>2026-04-11T14:07:49Z</time></trkpt><trkpt lat="42.9915276936093" lon="11.491327033791318"><ele>300.0</ele><time>2026-04-11T14:07:50Z</time></trkpt><trkpt lat="42.99151043840119" lon="11.4914174655236"><ele>297.0</ele><time>2026-04-11T14:07:51Z</time></trkpt><trkpt lat="42.99148959878028" lon="11.491514975469453"><ele>294.0</ele><time>2026-04-11T14:07:52Z</time></trkpt><trkpt lat="42.991473503246354" lon="11.491613258710995"><ele>293.8333333333333</ele><time>2026-04-11T14:07:53Z</time></trkpt><trkpt lat="42.99145629865274" lon="11.491716919662464"><ele>293.6666666666667</ele><time>2026-04-11T14:07:54Z</time></trkpt><trkpt lat="42.99143901994315" lon="11.491822220815854"><ele>293.5</ele><time>2026-04-11T14:07:55Z</time></trkpt><trkpt lat="42.99142486352688" lon="11.491933303680405"><ele>293.33333333333337</ele><time>2026-04-11T14:07:56Z</time></trkpt><trkpt lat="42.991408903348244" lon="11.492047967634237"><ele>293.1666666666667</ele><time>2026-04-11T14:07:57Z</time></trkpt><trkpt lat="42.99134881586949" lon="11.492151118695777"><ele>293.0</ele><time>2026-04-11T14:07:58Z</time></trkpt><trkpt lat="42.99133107966316" lon="11.492259173293794"><ele>292.99999999999994</ele><time>2026-04-11T14:07:59Z</time></trkpt><trkpt lat="42.99131338201971" lon="11.492364971202209"><ele>293.0</ele><time>2026-04-11T14:08:00Z</time></trkpt><trkpt lat="42.991295784284326" lon="11.492466711342587"><ele>293.0</ele><time>2026-04-11T14:08:01Z</time></trkpt><trkpt lat="42.991278400146136" lon="11.492566404408274"><ele>293.0</ele><time>2026-04-11T14:08:02Z</time></trkpt><trkpt lat="42.99126186188961" lon="11.492660574522585"><ele>293.0</ele><time>2026-04-11T14:08:03Z</time></trkpt><trkpt lat="42.99124515711977" lon="11.49274903248211"><ele>292.99999999999994</ele><time>2026-04-11T14:08:04Z</time></trkpt><trkpt lat="42.991228357845564" lon="11.492835403636828"><ele>293.0</ele><time>2026-04-11T14:08:05Z</time></trkpt><trkpt lat="42.99121141647153" lon="11.492919809472511"><ele>292.85714285714283</ele><time>2026-04-11T14:08:06Z</time></trkpt><trkpt lat="42.99119347301412" lon="11.493009207948147"><ele>292.7142857142857</ele><time>2026-04-11T14:08:07Z</time></trkpt><trkpt lat="42.99117505993082" lon="11.493100945981986"><ele>292.57142857142856</ele><time>2026-04-11T14:08:08Z</time></trkpt><trkpt lat="42.99115597020213" lon="11.493194658361311"><ele>292.42857142857144</ele><time>2026-04-11T14:08:09Z</time></trkpt><trkpt lat="42.991135407637834" lon="11.493294536489842"><ele>292.2857142857143</ele><time>2026-04-11T14:08:10Z</time></trkpt><trkpt lat="42.99111353122496" lon="11.493400796346481"><ele>292.1428571428571</ele><time>2026-04-11T14:08:11Z</time></trkpt><trkpt lat="42.9910920844846" lon="11.493504969223443"><ele>292.0</ele><time>2026-04-11T14:08:12Z</time></trkpt><trkpt lat="42.99106938733628" lon="11.493615215679746"><ele>292.0</ele><time>2026-04-11T14:08:13Z</time></trkpt><trkpt lat="42.99104534233759" lon="11.493729199320875"><ele>292.0</ele><time>2026-04-11T14:08:14Z</time></trkpt><trkpt lat="42.991020340075266" lon="11.493846914290181"><ele>292.0</ele><time>2026-04-11T14:08:15Z</time></trkpt><trkpt lat="42.99099350150685" lon="11.493973274817499"><ele>292.0</ele><time>2026-04-11T14:08:16Z</time></trkpt><trkpt lat="42.99096657402881" lon="11.494100053985738"><ele>292.0</ele><time>2026-04-11T14:08:17Z</time></trkpt><trkpt lat="42.990938024202535" lon="11.494234471527788"><ele>292.4</ele><time>2026-04-11T14:08:18Z</time></trkpt><trkpt lat="42.99090846298138" lon="11.494369388762362"><ele>292.79999999999995</ele><time>2026-04-11T14:08:19Z</time></trkpt><trkpt lat="42.99087702543758" lon="11.49451248745666"><ele>293.2</ele><time>2026-04-11T14:08:20Z</time></trkpt><trkpt lat="42.99084538053442" lon="11.494649866334585"><ele>293.59999999999997</ele><time>2026-04-11T14:08:21Z</time></trkpt><trkpt lat="42.99081297833539" lon="11.494789990864453"><ele>294.0</ele><time>2026-04-11T14:08:22Z</time></trkpt><trkpt lat="42.99078162950999" lon="11.49492312434708"><ele>292.1666666666667</ele><time>2026-04-11T14:08:23Z</time></trkpt><trkpt lat="42.990751070471944" lon="11.495048965349847"><ele>290.3333333333333</ele><time>2026-04-11T14:08:24Z</time></trkpt><trkpt lat="42.99072227061991" lon="11.495167561952611"><ele>288.5</ele><time>2026-04-11T14:08:25Z</time></trkpt><trkpt lat="42.99069425564789" lon="11.495282644427416"><ele>286.66666666666663</ele><time>2026-04-11T14:08:26Z</time></trkpt><trkpt lat="42.9906669657806" lon="11.49539420906619"><ele>284.8333333333333</ele><time>2026-04-11T14:08:27Z</time></trkpt><trkpt lat="42.99063882986229" lon="11.49550338634616"><ele>283.0</ele><time>2026-04-11T14:08:28Z</time></trkpt><trkpt lat="42.9906119337308" lon="11.495607752867059"><ele>283.0</ele><time>2026-04-11T14:08:29Z</time></trkpt><trkpt lat="42.990584777955554" lon="11.495707583851654"><ele>283.0</ele><time>2026-04-11T14:08:30Z</time></trkpt><trkpt lat="42.990556953600304" lon="11.495802931982443"><ele>283.0</ele><time>2026-04-11T14:08:31Z</time></trkpt><trkpt lat="42.99053003259493" lon="11.495891746668685"><ele>283.0</ele><time>2026-04-11T14:08:32Z</time></trkpt><trkpt lat="42.99050299405799" lon="11.495974186839446"><ele>283.0</ele><time>2026-04-11T14:08:33Z</time></trkpt><trkpt lat="42.99049227989851" lon="11.496061934991516"><ele>283.0</ele><time>2026-04-11T14:08:34Z</time></trkpt><trkpt lat="42.99045074175328" lon="11.496133503459461"><ele>283.0</ele><time>2026-04-11T14:08:35Z</time></trkpt><trkpt lat="42.990399819303974" lon="11.49628876536193"><ele>284.8</ele><time>2026-04-11T14:08:37Z</time></trkpt><trkpt lat="42.99035106221374" lon="11.496438596403605"><ele>286.6</ele><time>2026-04-11T14:08:39Z</time></trkpt><trkpt lat="42.990303676814364" lon="11.496584916864219"><ele>288.4</ele><time>2026-04-11T14:08:41Z</time></trkpt><trkpt lat="42.99026060967591" lon="11.496717902517537"><ele>290.2</ele><time>2026-04-11T14:08:43Z</time></trkpt><trkpt lat="42.99022175002372" lon="11.496837895918588"><ele>292.0</ele><time>2026-04-11T14:08:45Z</time></trkpt><trkpt lat="42.990186872670634" lon="11.496945592690432"><ele>292.0</ele><time>2026-04-11T14:08:47Z</time></trkpt><trkpt lat="42.99015435802161" lon="11.497045993857895"><ele>292.0</ele><time>2026-04-11T14:08:49Z</time></trkpt><trkpt lat="42.990126655335466" lon="11.497140843190653"><ele>292.0</ele><time>2026-04-11T14:08:51Z</time></trkpt><trkpt lat="42.99012607774963" lon="11.497248423932668"><ele>292.0</ele><time>2026-04-11T14:08:53Z</time></trkpt><trkpt lat="42.99010356736012" lon="11.497337596962833"><ele>292.0</ele><time>2026-04-11T14:08:55Z</time></trkpt><trkpt lat="42.990086103565375" lon="11.49742249506781"><ele>292.0</ele><time>2026-04-11T14:08:57Z</time></trkpt><trkpt lat="42.990071607913464" lon="11.497511515061301"><ele>292.0</ele><time>2026-04-11T14:08:59Z</time></trkpt><trkpt lat="42.99006030302297" lon="11.497658802960505"><ele>292.8</ele><time>2026-04-11T14:09:03Z</time></trkpt><trkpt lat="42.99005367989597" lon="11.497773706174545"><ele>293.6</ele><time>2026-04-11T14:09:06Z</time></trkpt><trkpt lat="42.99004049545722" lon="11.498005121230277"><ele>294.40000000000003</ele><time>2026-04-11T14:09:09Z</time></trkpt><trkpt lat="42.99004307407069" lon="11.498126718791184"><ele>295.2</ele><time>2026-04-11T14:09:11Z</time></trkpt><trkpt lat="42.9900398460315" lon="11.498252118741245"><ele>296.0</ele><time>2026-04-11T14:09:13Z</time></trkpt><trkpt lat="42.990036308473414" lon="11.498388648167795"><ele>296.0</ele><time>2026-04-11T14:09:15Z</time></trkpt><trkpt lat="42.99004314188635" lon="11.498534196919776"><ele>296.0</ele><time>2026-04-11T14:09:17Z</time></trkpt><trkpt lat="42.99007184570847" lon="11.498674588167118"><ele>296.0</ele><time>2026-04-11T14:09:19Z</time></trkpt><trkpt lat="42.990132706772464" lon="11.498817768435512"><ele>296.0</ele><time>2026-04-11T14:09:21Z</time></trkpt><trkpt lat="42.99017436056272" lon="11.498885907917137"><ele>296.0</ele><time>2026-04-11T14:09:22Z</time></trkpt><trkpt lat="42.99022030044537" lon="11.498949029669467"><ele>294.2</ele><time>2026-04-11T14:09:23Z</time></trkpt><trkpt lat="42.99027208593978" lon="11.49901689614312"><ele>292.40000000000003</ele><time>2026-04-11T14:09:24Z</time></trkpt><trkpt lat="42.99032945905014" lon="11.499083687485351"><ele>290.6</ele><time>2026-04-11T14:09:25Z</time></trkpt><trkpt lat="42.99041252389486" lon="11.499149725373833"><ele>288.8</ele><time>2026-04-11T14:09:26Z</time></trkpt><trkpt lat="42.99049645602077" lon="11.499301474834867"><ele>287.0</ele><time>2026-04-11T14:09:28Z</time></trkpt><trkpt lat="42.99055453688494" lon="11.49938564037148"><ele>287.0</ele><time>2026-04-11T14:09:29Z</time></trkpt><trkpt lat="42.990612639397426" lon="11.499464353092046"><ele>287.0</ele><time>2026-04-11T14:09:30Z</time></trkpt><trkpt lat="42.99066672570159" lon="11.499552924777593"><ele>287.0</ele><time>2026-04-11T14:09:31Z</time></trkpt><trkpt lat="42.99073436133826" lon="11.499650492782305"><ele>287.0</ele><time>2026-04-11T14:09:32Z</time></trkpt><trkpt lat="42.990804162712465" lon="11.499739238446995"><ele>287.0</ele><time>2026-04-11T14:09:33Z</time></trkpt><trkpt lat="42.99086856178639" lon="11.499839661499763"><ele>286.6</ele><time>2026-04-11T14:09:34Z</time></trkpt><trkpt lat="42.990939796386535" lon="11.49994265424089"><ele>286.2</ele><time>2026-04-11T14:09:35Z</time></trkpt><trkpt lat="42.99100841889348" lon="11.500049034415673"><ele>285.8</ele><time>2026-04-11T14:09:36Z</time></trkpt><trkpt lat="42.99107699437554" lon="11.500156512887642"><ele>285.4</ele><time>2026-04-11T14:09:37Z</time></trkpt><trkpt lat="42.99114218781829" lon="11.50026282420419"><ele>285.0</ele><time>2026-04-11T14:09:38Z</time></trkpt><trkpt lat="42.9911993477692" lon="11.500362319694245"><ele>282.8333333333333</ele><time>2026-04-11T14:09:39Z</time></trkpt><trkpt lat="42.99124981077454" lon="11.500446493450685"><ele>280.6666666666667</ele><time>2026-04-11T14:09:40Z</time></trkpt><trkpt lat="42.99130333501625" lon="11.500527579308958"><ele>278.5</ele><time>2026-04-11T14:09:41Z</time></trkpt><trkpt lat="42.9913575482808" lon="11.500604256268087"><ele>276.33333333333337</ele><time>2026-04-11T14:09:42Z</time></trkpt><trkpt lat="42.991408548643314" lon="11.500681388851891"><ele>274.1666666666667</ele><time>2026-04-11T14:09:43Z</time></trkpt><trkpt lat="42.991464646874626" lon="11.50075011817601"><ele>272.0</ele><time>2026-04-11T14:09:44Z</time></trkpt><trkpt lat="42.99153332266273" lon="11.500812642137726"><ele>271.99999999999994</ele><time>2026-04-11T14:09:45Z</time></trkpt><trkpt lat="42.99160451294123" lon="11.500863460247194"><ele>272.0</ele><time>2026-04-11T14:09:46Z</time></trkpt><trkpt lat="42.991676608486486" lon="11.500906435154358"><ele>272.0</ele><time>2026-04-11T14:09:47Z</time></trkpt><trkpt lat="42.99174549865658" lon="11.500935894006055"><ele>272.0</ele><time>2026-04-11T14:09:48Z</time></trkpt><trkpt lat="42.99181058571192" lon="11.50096610891613"><ele>272.0</ele><time>2026-04-11T14:09:49Z</time></trkpt><trkpt lat="42.99187165590014" lon="11.501000911405272"><ele>271.99999999999994</ele><time>2026-04-11T14:09:50Z</time></trkpt><trkpt lat="42.99193348480147" lon="11.501035806831993"><ele>272.0</ele><time>2026-04-11T14:09:51Z</time></trkpt><trkpt lat="42.99198703529104" lon="11.501081159954959"><ele>274.8</ele><time>2026-04-11T14:09:52Z</time></trkpt><trkpt lat="42.992079550561655" lon="11.501199518337593"><ele>277.6</ele><time>2026-04-11T14:09:54Z</time></trkpt><trkpt lat="42.99210338665033" lon="11.501284354035812"><ele>280.40000000000003</ele><time>2026-04-11T14:09:55Z</time></trkpt><trkpt lat="42.99211390082306" lon="11.50138091860691"><ele>283.2</ele><time>2026-04-11T14:09:56Z</time></trkpt><trkpt lat="42.9920600782621" lon="11.501475549668182"><ele>286.0</ele><time>2026-04-11T14:09:57Z</time></trkpt><trkpt lat="42.99199484707501" lon="11.50161486398548"><ele>286.40000000000003</ele><time>2026-04-11T14:09:59Z</time></trkpt><trkpt lat="42.991968904441315" lon="11.501694954638847"><ele>286.8</ele><time>2026-04-11T14:10:00Z</time></trkpt><trkpt lat="42.99191908058036" lon="11.501840827563116"><ele>287.20000000000005</ele><time>2026-04-11T14:10:02Z</time></trkpt><trkpt lat="42.99186988346938" lon="11.501984149233646"><ele>287.6</ele><time>2026-04-11T14:10:04Z</time></trkpt><trkpt lat="42.991821961396575" lon="11.502123756972717"><ele>288.0</ele><time>2026-04-11T14:10:06Z</time></trkpt><trkpt lat="42.991775179796726" lon="11.502259971055249"><ele>291.5</ele><time>2026-04-11T14:10:08Z</time></trkpt><trkpt lat="42.99172983283292" lon="11.502391897034691"><ele>295.0</ele><time>2026-04-11T14:10:10Z</time></trkpt><trkpt lat="42.99168485464221" lon="11.502522750346204"><ele>298.5</ele><time>2026-04-11T14:10:12Z</time></trkpt><trkpt lat="42.99163517990251" lon="11.502667267155637"><ele>302.0</ele><time>2026-04-11T14:10:14Z</time></trkpt><trkpt lat="42.9915823694879" lon="11.502817918314491"><ele>297.8</ele><time>2026-04-11T14:10:16Z</time></trkpt><trkpt lat="42.991533609167256" lon="11.502961313544196"><ele>293.6</ele><time>2026-04-11T14:10:18Z</time></trkpt><trkpt lat="42.99149116690686" lon="11.503088796929237"><ele>289.40000000000003</ele><time>2026-04-11T14:10:20Z</time></trkpt><trkpt lat="42.99144886255937" lon="11.50321586635947"><ele>285.2</ele><time>2026-04-11T14:10:22Z</time></trkpt><trkpt lat="42.991406029154824" lon="11.50333857619888"><ele>281.0</ele><time>2026-04-11T14:10:24Z</time></trkpt><trkpt lat="42.99135819077797" lon="11.50345386037864"><ele>281.0</ele><time>2026-04-11T14:10:26Z</time></trkpt><trkpt lat="42.99129650868771" lon="11.503580193234813"><ele>281.0</ele><time>2026-04-11T14:10:28Z</time></trkpt><trkpt lat="42.99123335715575" lon="11.503700310856598"><ele>281.0</ele><time>2026-04-11T14:10:30Z</time></trkpt><trkpt lat="42.99119540053085" lon="11.503771657669152"><ele>281.0</ele><time>2026-04-11T14:10:31Z</time></trkpt><trkpt lat="42.99112624099909" lon="11.503904872377495"><ele>281.0</ele><time>2026-04-11T14:10:33Z</time></trkpt><trkpt lat="42.99106444028468" lon="11.50403162493715"><ele>283.40000000000003</ele><time>2026-04-11T14:10:35Z</time></trkpt><trkpt lat="42.99101538238403" lon="11.504139277589381"><ele>285.8</ele><time>2026-04-11T14:10:37Z</time></trkpt><trkpt lat="42.990965963143445" lon="11.50425946088219"><ele>288.20000000000005</ele><time>2026-04-11T14:10:39Z</time></trkpt><trkpt lat="42.99091898095927" lon="11.504383998346308"><ele>290.6</ele><time>2026-04-11T14:10:41Z</time></trkpt><trkpt lat="42.99086847491282" lon="11.504519463851333"><ele>293.0</ele><time>2026-04-11T14:10:43Z</time></trkpt><trkpt lat="42.99081372395778" lon="11.504666315170795"><ele>288.2</ele><time>2026-04-11T14:10:45Z</time></trkpt><trkpt lat="42.99078496363155" lon="11.50474325259088"><ele>283.4</ele><time>2026-04-11T14:10:46Z</time></trkpt><trkpt lat="42.99072916431103" lon="11.504892231455843"><ele>278.59999999999997</ele><time>2026-04-11T14:10:48Z</time></trkpt><trkpt lat="42.990671530664684" lon="11.50504083840949"><ele>273.8</ele><time>2026-04-11T14:10:50Z</time></trkpt><trkpt lat="42.99061770140201" lon="11.505178598883115"><ele>269.0</ele><time>2026-04-11T14:10:52Z</time></trkpt><trkpt lat="42.9905717832963" lon="11.505294998344416"><ele>269.0</ele><time>2026-04-11T14:10:54Z</time></trkpt><trkpt lat="42.990561117495204" lon="11.505410052395375"><ele>269.0</ele><time>2026-04-11T14:10:56Z</time></trkpt><trkpt lat="42.990529459200644" lon="11.505505635158901"><ele>269.0</ele><time>2026-04-11T14:10:58Z</time></trkpt><trkpt lat="42.99048742204807" lon="11.505598936787322"><ele>269.0</ele><time>2026-04-11T14:11:00Z</time></trkpt><trkpt lat="42.990449396923886" lon="11.505692607032804"><ele>269.0</ele><time>2026-04-11T14:11:02Z</time></trkpt><trkpt lat="42.99040789305157" lon="11.505771119006557"><ele>269.0</ele><time>2026-04-11T14:11:04Z</time></trkpt><trkpt lat="42.99036246765313" lon="11.5058535886995"><ele>271.5</ele><time>2026-04-11T14:11:06Z</time></trkpt><trkpt lat="42.99033202474323" lon="11.50593470315142"><ele>274.0</ele><time>2026-04-11T14:11:10Z</time></trkpt><trkpt lat="42.990301116050325" lon="11.506013718100142"><ele>276.5</ele><time>2026-04-11T14:11:12Z</time></trkpt><trkpt lat="42.990279166966396" lon="11.506109472745498"><ele>279.0</ele><time>2026-04-11T14:11:14Z</time></trkpt><trkpt lat="42.99025552047494" lon="11.506261282324214"><ele>281.5</ele><time>2026-04-11T14:11:16Z</time></trkpt><trkpt lat="42.990234259901776" lon="11.506361154798784"><ele>284.0</ele><time>2026-04-11T14:11:17Z</time></trkpt><trkpt lat="42.99010737868929" lon="11.506412801596559"><ele>285.4</ele><time>2026-04-11T14:11:18Z</time></trkpt><trkpt lat="42.99009583974498" lon="11.506578537610542"><ele>286.79999999999995</ele><time>2026-04-11T14:11:20Z</time></trkpt><trkpt lat="42.99008523707532" lon="11.506750540754386"><ele>288.20000000000005</ele><time>2026-04-11T14:11:22Z</time></trkpt><trkpt lat="42.99007267982755" lon="11.506899266587538"><ele>289.6</ele><time>2026-04-11T14:11:24Z</time></trkpt><trkpt lat="42.990047636528644" lon="11.507018837067719"><ele>291.0</ele><time>2026-04-11T14:11:26Z</time></trkpt><trkpt lat="42.99000499321577" lon="11.507098172935981"><ele>287.6666666666667</ele><time>2026-04-11T14:11:28Z</time></trkpt><trkpt lat="42.989947881445566" lon="11.507169577205197"><ele>284.3333333333333</ele><time>2026-04-11T14:11:31Z</time></trkpt><trkpt lat="42.989885437427226" lon="11.507241481934264"><ele>281.0</ele><time>2026-04-11T14:11:35Z</time></trkpt><trkpt lat="42.98982924509686" lon="11.507288683161"><ele>277.66666666666663</ele><time>2026-04-11T14:11:38Z</time></trkpt><trkpt lat="42.98976499093531" lon="11.507353375551283"><ele>274.3333333333333</ele><time>2026-04-11T14:11:41Z</time></trkpt><trkpt lat="42.98971245514909" lon="11.507438945439846"><ele>271.0</ele><time>2026-04-11T14:11:44Z</time></trkpt><trkpt lat="42.98972726411895" lon="11.507534701391727"><ele>271.0</ele><time>2026-04-11T14:11:47Z</time></trkpt><trkpt lat="42.989696405468116" lon="11.507633738269549"><ele>271.0</ele><time>2026-04-11T14:11:50Z</time></trkpt><trkpt lat="42.98966860171657" lon="11.507746462641691"><ele>271.0</ele><time>2026-04-11T14:11:53Z</time></trkpt><trkpt lat="42.989632549168014" lon="11.507851991404806"><ele>271.0</ele><time>2026-04-11T14:11:56Z</time></trkpt><trkpt lat="42.98960828244584" lon="11.507956574983092"><ele>271.0</ele><time>2026-04-11T14:11:59Z</time></trkpt><trkpt lat="42.98959093485086" lon="11.50804049682876"><ele>271.0</ele><time>2026-04-11T14:12:01Z</time></trkpt><trkpt lat="42.98957600558206" lon="11.508141274100177"><ele>272.8333333333333</ele><time>2026-04-11T14:12:04Z</time></trkpt><trkpt lat="42.98956236541366" lon="11.508262463737847"><ele>274.66666666666663</ele><time>2026-04-11T14:12:07Z</time></trkpt><trkpt lat="42.98954947498793" lon="11.508390148663445"><ele>276.5</ele><time>2026-04-11T14:12:10Z</time></trkpt><trkpt lat="42.98954241976624" lon="11.50851872419536"><ele>278.3333333333333</ele><time>2026-04-11T14:12:13Z</time></trkpt><trkpt lat="42.98952996295872" lon="11.508613574731895"><ele>280.1666666666667</ele><time>2026-04-11T14:12:14Z</time></trkpt><trkpt lat="42.98950531043696" lon="11.508714589402562"><ele>282.0</ele><time>2026-04-11T14:12:16Z</time></trkpt><trkpt lat="42.989488210308025" lon="11.508819760773822"><ele>284.1666666666667</ele><time>2026-04-11T14:12:18Z</time></trkpt><trkpt lat="42.98947645098114" lon="11.50891152020864"><ele>286.3333333333333</ele><time>2026-04-11T14:12:20Z</time></trkpt><trkpt lat="42.98946337300831" lon="11.50903540388829"><ele>288.5</ele><time>2026-04-11T14:12:23Z</time></trkpt><trkpt lat="42.989455721868495" lon="11.509149359650287"><ele>290.66666666666663</ele><time>2026-04-11T14:12:26Z</time></trkpt><trkpt lat="42.989447167385045" lon="11.509263007193669"><ele>292.8333333333333</ele><time>2026-04-11T14:12:30Z</time></trkpt><trkpt lat="42.98943590342008" lon="11.509368403264382"><ele>295.0</ele><time>2026-04-11T14:12:34Z</time></trkpt><trkpt lat="42.98943250856331" lon="11.509476728251121"><ele>295.00000000000006</ele><time>2026-04-11T14:12:38Z</time></trkpt><trkpt lat="42.98942990469799" lon="11.509569908998099"><ele>295.0</ele><time>2026-04-11T14:12:42Z</time></trkpt><trkpt lat="42.98941914399562" lon="11.50965900809154"><ele>295.0</ele><time>2026-04-11T14:12:45Z</time></trkpt><trkpt lat="42.9894194572919" lon="11.509751795784611"><ele>295.0</ele><time>2026-04-11T14:12:49Z</time></trkpt><trkpt lat="42.98941518505072" lon="11.509859878705605"><ele>295.0</ele><time>2026-04-11T14:12:53Z</time></trkpt><trkpt lat="42.98941471392124" lon="11.509960343453285"><ele>295.00000000000006</ele><time>2026-04-11T14:12:57Z</time></trkpt><trkpt lat="42.989424338090934" lon="11.510056780493732"><ele>295.0</ele><time>2026-04-11T14:13:01Z</time></trkpt><trkpt lat="42.98943457556851" lon="11.510165781786185"><ele>294.8571428571429</ele><time>2026-04-11T14:13:05Z</time></trkpt><trkpt lat="42.98945249525274" lon="11.51027597093117"><ele>294.7142857142857</ele><time>2026-04-11T14:13:09Z</time></trkpt><trkpt lat="42.98946372150079" lon="11.510361470175123"><ele>294.57142857142856</ele><time>2026-04-11T14:13:13Z</time></trkpt><trkpt lat="42.98948614099293" lon="11.510450387535831"><ele>294.42857142857144</ele><time>2026-04-11T14:13:16Z</time></trkpt><trkpt lat="42.98950106924469" lon="11.510553218078629"><ele>294.2857142857143</ele><time>2026-04-11T14:13:20Z</time></trkpt><trkpt lat="42.98950690725991" lon="11.51065274645874"><ele>294.14285714285717</ele><time>2026-04-11T14:13:24Z</time></trkpt><trkpt lat="42.989526912584886" lon="11.510751065176397"><ele>294.0</ele><time>2026-04-11T14:13:28Z</time></trkpt><trkpt lat="42.98954824091262" lon="11.510855377828191"><ele>294.0</ele><time>2026-04-11T14:13:32Z</time></trkpt><trkpt lat="42.98956806355787" lon="11.51094352074902"><ele>294.0</ele><time>2026-04-11T14:13:36Z</time></trkpt><trkpt lat="42.98959176551529" lon="11.511041584923834"><ele>294.0</ele><time>2026-04-11T14:13:40Z</time></trkpt><trkpt lat="42.98959442398833" lon="11.51114486656013"><ele>294.0</ele><time>2026-04-11T14:13:44Z</time></trkpt><trkpt lat="42.98960622666715" lon="11.511236988047859"><ele>294.0</ele><time>2026-04-11T14:13:48Z</time></trkpt><trkpt lat="42.98962978035006" lon="11.511327601325435"><ele>294.0</ele><time>2026-04-11T14:13:52Z</time></trkpt><trkpt lat="42.98964783459038" lon="11.511418612995937"><ele>294.0</ele><time>2026-04-11T14:13:56Z</time></trkpt><trkpt lat="42.98967959212657" lon="11.511503300883385"><ele>292.4</ele><time>2026-04-11T14:13:59Z</time></trkpt><trkpt lat="42.98973294643843" lon="11.51155776537027"><ele>290.79999999999995</ele><time>2026-04-11T14:14:02Z</time></trkpt><trkpt lat="42.98982231314584" lon="11.511573140492791"><ele>289.20000000000005</ele><time>2026-04-11T14:14:04Z</time></trkpt><trkpt lat="42.989883429118855" lon="11.511541831912542"><ele>287.6</ele><time>2026-04-11T14:14:06Z</time></trkpt><trkpt lat="42.98996349984741" lon="11.511620330246886"><ele>286.0</ele><time>2026-04-11T14:14:08Z</time></trkpt><trkpt lat="42.99010897857262" lon="11.511669234240982"><ele>286.0</ele><time>2026-04-11T14:14:09Z</time></trkpt><trkpt lat="42.99019178248299" lon="11.511708309213565"><ele>286.0</ele><time>2026-04-11T14:14:10Z</time></trkpt><trkpt lat="42.99028988504478" lon="11.511747246774753"><ele>286.0</ele><time>2026-04-11T14:14:11Z</time></trkpt><trkpt lat="42.99035819085261" lon="11.511784305617338"><ele>286.0</ele><time>2026-04-11T14:14:12Z</time></trkpt><trkpt lat="42.99043893544341" lon="11.511819318785099"><ele>286.0</ele><time>2026-04-11T14:14:13Z</time></trkpt><trkpt lat="42.9905113980716" lon="11.511838354999652"><ele>286.0</ele><time>2026-04-11T14:14:14Z</time></trkpt><trkpt lat="42.99058982011347" lon="11.511864907947167"><ele>286.0</ele><time>2026-04-11T14:14:15Z</time></trkpt><trkpt lat="42.990666425100265" lon="11.511884969866593"><ele>286.0</ele><time>2026-04-11T14:14:16Z</time></trkpt><trkpt lat="42.99074584186481" lon="11.511911252961097"><ele>286.0</ele><time>2026-04-11T14:14:17Z</time></trkpt><trkpt lat="42.990823185434834" lon="11.511936310272052"><ele>286.0</ele><time>2026-04-11T14:14:18Z</time></trkpt><trkpt lat="42.990903146699424" lon="11.511961140401361"><ele>286.0</ele><time>2026-04-11T14:14:19Z</time></trkpt><trkpt lat="42.990989922412645" lon="11.512002204808102"><ele>286.0</ele><time>2026-04-11T14:14:20Z</time></trkpt><trkpt lat="42.991068836361634" lon="11.512024940740638"><ele>286.16666666666663</ele><time>2026-04-11T14:14:21Z</time></trkpt><trkpt lat="42.991147071606946" lon="11.51205111258967"><ele>286.3333333333333</ele><time>2026-04-11T14:14:22Z</time></trkpt><trkpt lat="42.99123792433729" lon="11.512079583700055"><ele>286.5</ele><time>2026-04-11T14:14:23Z</time></trkpt><trkpt lat="42.99132298848846" lon="11.512099242767198"><ele>286.6666666666667</ele><time>2026-04-11T14:14:24Z</time></trkpt><trkpt lat="42.99139727575197" lon="11.512177996614394"><ele>286.83333333333337</ele><time>2026-04-11T14:14:25Z</time></trkpt><trkpt lat="42.99148089808811" lon="11.512202483986936"><ele>287.0</ele><time>2026-04-11T14:14:26Z</time></trkpt><trkpt lat="42.99156696847553" lon="11.512227688259918"><ele>285.83333333333337</ele><time>2026-04-11T14:14:27Z</time></trkpt><trkpt lat="42.99165269518043" lon="11.512254259890852"><ele>284.6666666666667</ele><time>2026-04-11T14:14:28Z</time></trkpt><trkpt lat="42.99173436079521" lon="11.512291153129015"><ele>283.5</ele><time>2026-04-11T14:14:29Z</time></trkpt><trkpt lat="42.99180370069767" lon="11.51233377993782"><ele>282.3333333333333</ele><time>2026-04-11T14:14:30Z</time></trkpt><trkpt lat="42.99187211880437" lon="11.51240194760657"><ele>281.16666666666663</ele><time>2026-04-11T14:14:31Z</time></trkpt><trkpt lat="42.99192341322406" lon="11.512483622055179"><ele>280.0</ele><time>2026-04-11T14:14:32Z</time></trkpt><trkpt lat="42.991958579445026" lon="11.51257651420345"><ele>280.0</ele><time>2026-04-11T14:14:33Z</time></trkpt><trkpt lat="42.991977026477194" lon="11.512670271966261"><ele>280.0</ele><time>2026-04-11T14:14:34Z</time></trkpt><trkpt lat="42.99200288973505" lon="11.512755902048129"><ele>280.0</ele><time>2026-04-11T14:14:35Z</time></trkpt><trkpt lat="42.99203265430014" lon="11.512841389089958"><ele>280.0</ele><time>2026-04-11T14:14:36Z</time></trkpt><trkpt lat="42.99211074901201" lon="11.512962521775352"><ele>280.0</ele><time>2026-04-11T14:14:38Z</time></trkpt><trkpt lat="42.992189751024846" lon="11.513037993097123"><ele>280.0</ele><time>2026-04-11T14:14:40Z</time></trkpt><trkpt lat="42.992266862757596" lon="11.513078188745228"><ele>279.8333333333333</ele><time>2026-04-11T14:14:42Z</time></trkpt><trkpt lat="42.99233830713234" lon="11.513109900618735"><ele>279.66666666666663</ele><time>2026-04-11T14:14:44Z</time></trkpt><trkpt lat="42.99243179453688" lon="11.513142000134781"><ele>279.5</ele><time>2026-04-11T14:14:47Z</time></trkpt><trkpt lat="42.9925141072331" lon="11.513171006833678"><ele>279.3333333333333</ele><time>2026-04-11T14:14:50Z</time></trkpt><trkpt lat="42.99259542151315" lon="11.513182316842178"><ele>279.1666666666667</ele><time>2026-04-11T14:14:54Z</time></trkpt><trkpt lat="42.992674776912494" lon="11.513201172354584"><ele>279.0</ele><time>2026-04-11T14:14:58Z</time></trkpt><trkpt lat="42.99274929731629" lon="11.513233631209896"><ele>278.99999999999994</ele><time>2026-04-11T14:15:01Z</time></trkpt><trkpt lat="42.99282027667063" lon="11.513266310765559"><ele>279.0</ele><time>2026-04-11T14:15:05Z</time></trkpt><trkpt lat="42.992879474647175" lon="11.513298413692148"><ele>279.0</ele><time>2026-04-11T14:15:08Z</time></trkpt><trkpt lat="42.99293420633568" lon="11.513342072404713"><ele>279.0</ele><time>2026-04-11T14:15:11Z</time></trkpt><trkpt lat="42.99299190570472" lon="11.513377578239528"><ele>279.0</ele><time>2026-04-11T14:15:14Z</time></trkpt><trkpt lat="42.99305199372638" lon="11.513437975659754"><ele>278.99999999999994</ele><time>2026-04-11T14:15:18Z</time></trkpt><trkpt lat="42.993106874453126" lon="11.513492496907181"><ele>279.0</ele><time>2026-04-11T14:15:21Z</time></trkpt><trkpt lat="42.99316955570529" lon="11.513546841598776"><ele>279.0</ele><time>2026-04-11T14:15:25Z</time></trkpt><trkpt lat="42.99322770009287" lon="11.513597822339188"><ele>279.0</ele><time>2026-04-11T14:15:28Z</time></trkpt><trkpt lat="42.99329907426272" lon="11.51365646747164"><ele>279.0</ele><time>2026-04-11T14:15:32Z</time></trkpt><trkpt lat="42.9933742573876" lon="11.513706814051918"><ele>279.0</ele><time>2026-04-11T14:15:36Z</time></trkpt><trkpt lat="42.993428491777266" lon="11.513758634547788"><ele>279.0</ele><time>2026-04-11T14:15:40Z</time></trkpt><trkpt lat="42.99349520062724" lon="11.513825015028749"><ele>279.0</ele><time>2026-04-11T14:15:44Z</time></trkpt><trkpt lat="42.99356991319897" lon="11.51388075963138"><ele>282.57142857142856</ele><time>2026-04-11T14:15:48Z</time></trkpt><trkpt lat="42.99362656463102" lon="11.513919896841342"><ele>286.1428571428571</ele><time>2026-04-11T14:15:52Z</time></trkpt><trkpt lat="42.99369853260744" lon="11.51396322278332"><ele>289.71428571428567</ele><time>2026-04-11T14:15:56Z</time></trkpt><trkpt lat="42.99375965069142" lon="11.51401738982637"><ele>293.2857142857143</ele><time>2026-04-11T14:16:00Z</time></trkpt><trkpt lat="42.99383694145465" lon="11.514025068047683"><ele>296.8571428571429</ele><time>2026-04-11T14:16:04Z</time></trkpt><trkpt lat="42.993906452887096" lon="11.514017986750035"><ele>300.4285714285714</ele><time>2026-04-11T14:16:08Z</time></trkpt><trkpt lat="42.99397007066314" lon="11.514001450959084"><ele>304.0</ele><time>2026-04-11T14:16:12Z</time></trkpt><trkpt lat="42.99403774437864" lon="11.513972822692747"><ele>304.0</ele><time>2026-04-11T14:16:15Z</time></trkpt><trkpt lat="42.994110929114115" lon="11.513936353539496"><ele>304.0</ele><time>2026-04-11T14:16:19Z</time></trkpt><trkpt lat="42.9941748294698" lon="11.51391002635334"><ele>304.0</ele><time>2026-04-11T14:16:22Z</time></trkpt><trkpt lat="42.994248949482355" lon="11.513867992950594"><ele>304.0</ele><time>2026-04-11T14:16:26Z</time></trkpt><trkpt lat="42.99431888327906" lon="11.513825349581436"><ele>304.0</ele><time>2026-04-11T14:16:30Z</time></trkpt><trkpt lat="42.99439338810736" lon="11.513783063700728"><ele>304.0</ele><time>2026-04-11T14:16:34Z</time></trkpt><trkpt lat="42.994456654603304" lon="11.513751569668141"><ele>304.0</ele><time>2026-04-11T14:16:38Z</time></trkpt><trkpt lat="42.99453188903683" lon="11.513711100950054"><ele>303.2857142857143</ele><time>2026-04-11T14:16:42Z</time></trkpt><trkpt lat="42.99460259361579" lon="11.513667586740137"><ele>302.5714285714286</ele><time>2026-04-11T14:16:46Z</time></trkpt><trkpt lat="42.994671296643965" lon="11.51362426555195"><ele>301.8571428571429</ele><time>2026-04-11T14:16:50Z</time></trkpt><trkpt lat="42.994728435833046" lon="11.513586784162367"><ele>301.1428571428571</ele><time>2026-04-11T14:16:53Z</time></trkpt><trkpt lat="42.99478970332642" lon="11.513537761712078"><ele>300.42857142857144</ele><time>2026-04-11T14:16:57Z</time></trkpt><trkpt lat="42.9948507849269" lon="11.513514542689627"><ele>299.7142857142857</ele><time>2026-04-11T14:17:00Z</time></trkpt><trkpt lat="42.99490896388433" lon="11.513478453034132"><ele>299.0</ele><time>2026-04-11T14:17:03Z</time></trkpt><trkpt lat="42.994984937368145" lon="11.513441511350297"><ele>300.33333333333337</ele><time>2026-04-11T14:17:07Z</time></trkpt><trkpt lat="42.99506589382134" lon="11.513384491632017"><ele>301.6666666666667</ele><time>2026-04-11T14:17:12Z</time></trkpt><trkpt lat="42.995133194374304" lon="11.51335756679945"><ele>303.0</ele><time>2026-04-11T14:17:16Z</time></trkpt><trkpt lat="42.995202127000404" lon="11.513325627588896"><ele>304.3333333333333</ele><time>2026-04-11T14:17:20Z</time></trkpt><trkpt lat="42.99528185167302" lon="11.513308638106047"><ele>305.66666666666663</ele><time>2026-04-11T14:17:24Z</time></trkpt><trkpt lat="42.995363426777175" lon="11.513290720139075"><ele>307.0</ele><time>2026-04-11T14:17:28Z</time></trkpt><trkpt lat="42.99544566250242" lon="11.513298296180867"><ele>306.99999999999994</ele><time>2026-04-11T14:17:32Z</time></trkpt><trkpt lat="42.99551203076875" lon="11.51330415748571"><ele>307.0</ele><time>2026-04-11T14:17:36Z</time></trkpt><trkpt lat="42.995577542493905" lon="11.513314886980913"><ele>307.0</ele><time>2026-04-11T14:17:39Z</time></trkpt><trkpt lat="42.99564058719278" lon="11.513325242664303"><ele>307.0</ele><time>2026-04-11T14:17:42Z</time></trkpt><trkpt lat="42.995717930731566" lon="11.51334668977479"><ele>307.0</ele><time>2026-04-11T14:17:46Z</time></trkpt><trkpt lat="42.99579008333765" lon="11.513362540853523"><ele>306.99999999999994</ele><time>2026-04-11T14:17:50Z</time></trkpt><trkpt lat="42.995861186641235" lon="11.513375338256234"><ele>307.0</ele><time>2026-04-11T14:17:54Z</time></trkpt><trkpt lat="42.99593023725427" lon="11.513397878691706"><ele>307.16666666666663</ele><time>2026-04-11T14:17:58Z</time></trkpt><trkpt lat="42.99601605434489" lon="11.513442413988892"><ele>307.3333333333333</ele><time>2026-04-11T14:18:02Z</time></trkpt><trkpt lat="42.9960801728896" lon="11.513475534583936"><ele>307.5</ele><time>2026-04-11T14:18:05Z</time></trkpt><trkpt lat="42.99615774797132" lon="11.513526603368728"><ele>307.6666666666667</ele><time>2026-04-11T14:18:08Z</time></trkpt><trkpt lat="42.996221468075156" lon="11.513566107774365"><ele>307.83333333333337</ele><time>2026-04-11T14:18:11Z</time></trkpt><trkpt lat="42.99629519580515" lon="11.513592065965732"><ele>308.0</ele><time>2026-04-11T14:18:14Z</time></trkpt><trkpt lat="42.996373768893974" lon="11.513597979118579"><ele>308.0</ele><time>2026-04-11T14:18:17Z</time></trkpt><trkpt lat="42.99645217287815" lon="11.5136282327955"><ele>308.0</ele><time>2026-04-11T14:18:20Z</time></trkpt><trkpt lat="42.99653776194074" lon="11.513638047835116"><ele>308.0</ele><time>2026-04-11T14:18:23Z</time></trkpt><trkpt lat="42.99660102013364" lon="11.5136533161672"><ele>308.0</ele><time>2026-04-11T14:18:26Z</time></trkpt><trkpt lat="42.996693282297024" lon="11.513673193522953"><ele>308.0</ele><time>2026-04-11T14:18:29Z</time></trkpt><trkpt lat="42.99677446811542" lon="11.513700029887628"><ele>308.0</ele><time>2026-04-11T14:18:32Z</time></trkpt><trkpt lat="42.99682563042415" lon="11.513755296881586"><ele>307.5</ele><time>2026-04-11T14:18:34Z</time></trkpt><trkpt lat="42.99689473390719" lon="11.513835060110813"><ele>307.0</ele><time>2026-04-11T14:18:37Z</time></trkpt><trkpt lat="42.99694496156902" lon="11.513940889125893"><ele>306.5</ele><time>2026-04-11T14:18:40Z</time></trkpt><trkpt lat="42.996982419939826" lon="11.514039423347313"><ele>306.0</ele><time>2026-04-11T14:18:43Z</time></trkpt><trkpt lat="42.99700758512012" lon="11.514140333131252"><ele>305.5</ele><time>2026-04-11T14:18:46Z</time></trkpt><trkpt lat="42.99704814625414" lon="11.514234160790226"><ele>305.0</ele><time>2026-04-11T14:18:49Z</time></trkpt><trkpt lat="42.997074085405416" lon="11.514341248220259"><ele>305.0</ele><time>2026-04-11T14:18:52Z</time></trkpt><trkpt lat="42.99710778371405" lon="11.514453707635692"><ele>305.0</ele><time>2026-04-11T14:18:55Z</time></trkpt><trkpt lat="42.99714108989492" lon="11.514531501795847"><ele>305.0</ele><time>2026-04-11T14:18:57Z</time></trkpt><trkpt lat="42.997175227377845" lon="11.514637876826136"><ele>305.0</ele><time>2026-04-11T14:19:00Z</time></trkpt><trkpt lat="42.99720280816502" lon="11.514739745620249"><ele>305.0</ele><time>2026-04-11T14:19:03Z</time></trkpt><trkpt lat="42.99724038371608" lon="11.514841829990928"><ele>305.0</ele><time>2026-04-11T14:19:05Z</time></trkpt><trkpt lat="42.99727415388763" lon="11.514928077222779"><ele>306.0</ele><time>2026-04-11T14:19:07Z</time></trkpt><trkpt lat="42.99730369109978" lon="11.515018629596216"><ele>307.0</ele><time>2026-04-11T14:19:09Z</time></trkpt><trkpt lat="42.99732138657697" lon="11.515111728000337"><ele>308.0</ele><time>2026-04-11T14:19:11Z</time></trkpt><trkpt lat="42.997337532786766" lon="11.515233154855034"><ele>309.0</ele><time>2026-04-11T14:19:14Z</time></trkpt><trkpt lat="42.99733488446223" lon="11.51533293433122"><ele>310.0</ele><time>2026-04-11T14:19:17Z</time></trkpt><trkpt lat="42.99734553437937" lon="11.515452957396443"><ele>311.0</ele><time>2026-04-11T14:19:20Z</time></trkpt><trkpt lat="42.997330223801406" lon="11.515564618740939"><ele>311.5</ele><time>2026-04-11T14:19:23Z</time></trkpt><trkpt lat="42.997327826974356" lon="11.515672901134451"><ele>312.0</ele><time>2026-04-11T14:19:25Z</time></trkpt><trkpt lat="42.99730312974758" lon="11.515773202209925"><ele>312.5</ele><time>2026-04-11T14:19:27Z</time></trkpt><trkpt lat="42.997286881800775" lon="11.515870390169036"><ele>313.0</ele><time>2026-04-11T14:19:29Z</time></trkpt><trkpt lat="42.99728029613558" lon="11.51597066658703"><ele>313.5</ele><time>2026-04-11T14:19:31Z</time></trkpt><trkpt lat="42.997263826322005" lon="11.516078704841396"><ele>314.0</ele><time>2026-04-11T14:19:33Z</time></trkpt><trkpt lat="42.99726646832989" lon="11.516169683590848"><ele>313.83333333333337</ele><time>2026-04-11T14:19:35Z</time></trkpt><trkpt lat="42.997240980720754" lon="11.516291114504005"><ele>313.6666666666667</ele><time>2026-04-11T14:19:38Z</time></trkpt><trkpt lat="42.99722602035243" lon="11.516377066909412"><ele>313.5</ele><time>2026-04-11T14:19:40Z</time></trkpt><trkpt lat="42.99720652542299" lon="11.51646352983921"><ele>313.3333333333333</ele><time>2026-04-11T14:19:42Z</time></trkpt><trkpt lat="42.99718065361712" lon="11.51658607453944"><ele>313.16666666666663</ele><time>2026-04-11T14:19:45Z</time></trkpt><trkpt lat="42.997156204161925" lon="11.51667061712029"><ele>313.0</ele><time>2026-04-11T14:19:47Z</time></trkpt><trkpt lat="42.997131486377015" lon="11.516755867755558"><ele>313.0</ele><time>2026-04-11T14:19:49Z</time></trkpt><trkpt lat="42.99710655626591" lon="11.516841135034449"><ele>313.0</ele><time>2026-04-11T14:19:51Z</time></trkpt><trkpt lat="42.99706644644284" lon="11.51694833313939"><ele>313.0</ele><time>2026-04-11T14:19:54Z</time></trkpt><trkpt lat="42.99703660116904" lon="11.517029361422345"><ele>313.0</ele><time>2026-04-11T14:19:56Z</time></trkpt><trkpt lat="42.99699542453913" lon="11.517104700437953"><ele>313.0</ele><time>2026-04-11T14:19:58Z</time></trkpt><trkpt lat="42.99696120095996" lon="11.517177873687103"><ele>313.0</ele><time>2026-04-11T14:20:00Z</time></trkpt><trkpt lat="42.99690255699095" lon="11.517266174948443"><ele>313.0</ele><time>2026-04-11T14:20:03Z</time></trkpt><trkpt lat="42.99683882530406" lon="11.517356066875216"><ele>312.66666666666663</ele><time>2026-04-11T14:20:06Z</time></trkpt><trkpt lat="42.996795187239854" lon="11.517418548563972"><ele>312.3333333333333</ele><time>2026-04-11T14:20:08Z</time></trkpt><trkpt lat="42.996733189998565" lon="11.517509741477859"><ele>312.0</ele><time>2026-04-11T14:20:11Z</time></trkpt><trkpt lat="42.99665938656623" lon="11.517569490713418"><ele>311.6666666666667</ele><time>2026-04-11T14:20:14Z</time></trkpt><trkpt lat="42.99658925914125" lon="11.51764455772392"><ele>311.33333333333337</ele><time>2026-04-11T14:20:17Z</time></trkpt><trkpt lat="42.996518820985266" lon="11.51769765266363"><ele>311.0</ele><time>2026-04-11T14:20:20Z</time></trkpt><trkpt lat="42.996441930231875" lon="11.517749878222833"><ele>312.83333333333337</ele><time>2026-04-11T14:20:23Z</time></trkpt><trkpt lat="42.99637076840162" lon="11.517787268784899"><ele>314.6666666666667</ele><time>2026-04-11T14:20:26Z</time></trkpt><trkpt lat="42.99630844129827" lon="11.517841685528328"><ele>316.5</ele><time>2026-04-11T14:20:29Z</time></trkpt><trkpt lat="42.99623786389561" lon="11.517919027021259"><ele>318.3333333333333</ele><time>2026-04-11T14:20:32Z</time></trkpt><trkpt lat="42.99617033764498" lon="11.517977959759904"><ele>320.16666666666663</ele><time>2026-04-11T14:20:35Z</time></trkpt><trkpt lat="42.99611767556435" lon="11.518039624059789"><ele>322.0</ele><time>2026-04-11T14:20:38Z</time></trkpt><trkpt lat="42.9960544412595" lon="11.518096181223454"><ele>322.0</ele><time>2026-04-11T14:20:41Z</time></trkpt><trkpt lat="42.99599186823358" lon="11.518154109427337"><ele>322.0</ele><time>2026-04-11T14:20:44Z</time></trkpt><trkpt lat="42.99594417009223" lon="11.518220813847677"><ele>322.0</ele><time>2026-04-11T14:20:47Z</time></trkpt><trkpt lat="42.99588637163945" lon="11.518283338481638"><ele>322.0</ele><time>2026-04-11T14:20:50Z</time></trkpt><trkpt lat="42.995834019629655" lon="11.518346054895103"><ele>322.0</ele><time>2026-04-11T14:20:53Z</time></trkpt><trkpt lat="42.99578400806535" lon="11.518428244215825"><ele>322.0</ele><time>2026-04-11T14:20:57Z</time></trkpt><trkpt lat="42.995728498508655" lon="11.5184838763545"><ele>322.0</ele><time>2026-04-11T14:21:00Z</time></trkpt><trkpt lat="42.99567128919474" lon="11.518550597503939"><ele>323.7142857142857</ele><time>2026-04-11T14:21:03Z</time></trkpt><trkpt lat="42.99562164648556" lon="11.518612517814848"><ele>325.42857142857144</ele><time>2026-04-11T14:21:06Z</time></trkpt><trkpt lat="42.99557608583205" lon="11.5186719327729"><ele>327.1428571428571</ele><time>2026-04-11T14:21:09Z</time></trkpt><trkpt lat="42.99552447024498" lon="11.518747324499005"><ele>328.8571428571429</ele><time>2026-04-11T14:21:13Z</time></trkpt><trkpt lat="42.99549665629635" lon="11.518828961047875"><ele>330.57142857142856</ele><time>2026-04-11T14:21:17Z</time></trkpt><trkpt lat="42.995436354980086" lon="11.51889924263561"><ele>332.2857142857143</ele><time>2026-04-11T14:21:21Z</time></trkpt><trkpt lat="42.99536370729289" lon="11.518934145793557"><ele>334.0</ele><time>2026-04-11T14:21:24Z</time></trkpt><trkpt lat="42.99530618212945" lon="11.518972424325481"><ele>334.0</ele><time>2026-04-11T14:21:27Z</time></trkpt><trkpt lat="42.995242816859324" lon="11.519013309639249"><ele>334.0</ele><time>2026-04-11T14:21:31Z</time></trkpt><trkpt lat="42.99518301947388" lon="11.519054118577936"><ele>334.0</ele><time>2026-04-11T14:21:34Z</time></trkpt><trkpt lat="42.99511110345519" lon="11.519117805241951"><ele>334.0</ele><time>2026-04-11T14:21:38Z</time></trkpt><trkpt lat="42.99505061401603" lon="11.519190975712112"><ele>334.0</ele><time>2026-04-11T14:21:41Z</time></trkpt><trkpt lat="42.995008448872824" lon="11.519266045432918"><ele>334.0</ele><time>2026-04-11T14:21:44Z</time></trkpt><trkpt lat="42.99498072441599" lon="11.519348620449003"><ele>334.0</ele><time>2026-04-11T14:21:47Z</time></trkpt><trkpt lat="42.99494237983758" lon="11.51945002933201"><ele>334.7142857142857</ele><time>2026-04-11T14:21:50Z</time></trkpt><trkpt lat="42.99490875483463" lon="11.519529115164572"><ele>335.42857142857144</ele><time>2026-04-11T14:21:53Z</time></trkpt><trkpt lat="42.99489395249384" lon="11.519624000719135"><ele>336.1428571428571</ele><time>2026-04-11T14:21:57Z</time></trkpt><trkpt lat="42.99488076880766" lon="11.519716456312125"><ele>336.8571428571429</ele><time>2026-04-11T14:22:02Z</time></trkpt><trkpt lat="42.994955319332256" lon="11.519784245914975"><ele>337.5714285714286</ele><time>2026-04-11T14:22:06Z</time></trkpt><trkpt lat="42.99502129940994" lon="11.51983309014786"><ele>338.2857142857143</ele><time>2026-04-11T14:22:08Z</time></trkpt><trkpt lat="42.99509520018273" lon="11.519850807729906"><ele>339.0</ele><time>2026-04-11T14:22:10Z</time></trkpt><trkpt lat="42.99517584452444" lon="11.519873900831291"><ele>339.0</ele><time>2026-04-11T14:22:12Z</time></trkpt><trkpt lat="42.99525786553898" lon="11.519939217819623"><ele>339.0</ele><time>2026-04-11T14:22:14Z</time></trkpt><trkpt lat="42.995345678187185" lon="11.52000573643475"><ele>339.0</ele><time>2026-04-11T14:22:16Z</time></trkpt><trkpt lat="42.995442202128814" lon="11.520070361747225"><ele>339.0</ele><time>2026-04-11T14:22:18Z</time></trkpt><trkpt lat="42.9955354310415" lon="11.520155628161387"><ele>339.0</ele><time>2026-04-11T14:22:20Z</time></trkpt><trkpt lat="42.995636186518844" lon="11.520239725984204"><ele>339.0</ele><time>2026-04-11T14:22:22Z</time></trkpt><trkpt lat="42.9956947040046" lon="11.520276675159597"><ele>339.0</ele><time>2026-04-11T14:22:23Z</time></trkpt><trkpt lat="42.995759596724014" lon="11.520322771919542"><ele>339.0</ele><time>2026-04-11T14:22:24Z</time></trkpt><trkpt lat="42.99581897776104" lon="11.520362356628556"><ele>339.0</ele><time>2026-04-11T14:22:25Z</time></trkpt><trkpt lat="42.995877935223824" lon="11.520412392798521"><ele>339.0</ele><time>2026-04-11T14:22:26Z</time></trkpt><trkpt lat="42.99593519648534" lon="11.520505131005352"><ele>339.0</ele><time>2026-04-11T14:22:27Z</time></trkpt><trkpt lat="42.99598344750737" lon="11.520598849493494"><ele>339.0</ele><time>2026-04-11T14:22:28Z</time></trkpt><trkpt lat="42.996031199968684" lon="11.520699967681953"><ele>337.79999999999995</ele><time>2026-04-11T14:22:29Z</time></trkpt><trkpt lat="42.99607905564021" lon="11.52079705021709"><ele>336.59999999999997</ele><time>2026-04-11T14:22:30Z</time></trkpt><trkpt lat="42.99613176947225" lon="11.520901055945535"><ele>335.4</ele><time>2026-04-11T14:22:31Z</time></trkpt><trkpt lat="42.99618998120137" lon="11.520993223842243"><ele>334.2</ele><time>2026-04-11T14:22:32Z</time></trkpt><trkpt lat="42.99624947350255" lon="11.521090610106285"><ele>333.0</ele><time>2026-04-11T14:22:33Z</time></trkpt><trkpt lat="42.996310772639085" lon="11.521192782803867"><ele>334.2</ele><time>2026-04-11T14:22:34Z</time></trkpt><trkpt lat="42.996381299343646" lon="11.521290070119976"><ele>335.4</ele><time>2026-04-11T14:22:35Z</time></trkpt><trkpt lat="42.99645420074047" lon="11.521384974046212"><ele>336.59999999999997</ele><time>2026-04-11T14:22:36Z</time></trkpt><trkpt lat="42.99653348874308" lon="11.521480610526027"><ele>337.79999999999995</ele><time>2026-04-11T14:22:37Z</time></trkpt><trkpt lat="42.99661213233979" lon="11.52157326877737"><ele>339.0</ele><time>2026-04-11T14:22:38Z</time></trkpt><trkpt lat="42.996702933868605" lon="11.521650513442962"><ele>336.0</ele><time>2026-04-11T14:22:39Z</time></trkpt><trkpt lat="42.996809061860404" lon="11.521730584762903"><ele>333.0</ele><time>2026-04-11T14:22:40Z</time></trkpt><trkpt lat="42.9969038368717" lon="11.521826755215761"><ele>330.0</ele><time>2026-04-11T14:22:41Z</time></trkpt><trkpt lat="42.99700122540715" lon="11.52192339090667"><ele>327.0</ele><time>2026-04-11T14:22:42Z</time></trkpt><trkpt lat="42.99710148209086" lon="11.522020002744293"><ele>327.75</ele><time>2026-04-11T14:22:43Z</time></trkpt><trkpt lat="42.997202893555425" lon="11.522123961287077"><ele>328.5</ele><time>2026-04-11T14:22:44Z</time></trkpt><trkpt lat="42.997300837007565" lon="11.522222945011828"><ele>329.25</ele><time>2026-04-11T14:22:45Z</time></trkpt><trkpt lat="42.99740754990668" lon="11.522326113325652"><ele>330.0</ele><time>2026-04-11T14:22:46Z</time></trkpt><trkpt lat="42.99750383628405" lon="11.522436247166906"><ele>327.0</ele><time>2026-04-11T14:22:47Z</time></trkpt><trkpt lat="42.997606714479936" lon="11.522529668850776"><ele>324.0</ele><time>2026-04-11T14:22:48Z</time></trkpt><trkpt lat="42.99769974665614" lon="11.52261901106797"><ele>321.0</ele><time>2026-04-11T14:22:49Z</time></trkpt><trkpt lat="42.997797365031616" lon="11.522722417208389"><ele>318.0</ele><time>2026-04-11T14:22:50Z</time></trkpt><trkpt lat="42.997902450370105" lon="11.522816432590986"><ele>319.25</ele><time>2026-04-11T14:22:51Z</time></trkpt><trkpt lat="42.99800283836981" lon="11.522916940304938"><ele>320.5</ele><time>2026-04-11T14:22:52Z</time></trkpt><trkpt lat="42.99810049722761" lon="11.52300955866186"><ele>321.75</ele><time>2026-04-11T14:22:53Z</time></trkpt><trkpt lat="42.99820180405448" lon="11.523098142372142"><ele>323.0</ele><time>2026-04-11T14:22:54Z</time></trkpt><trkpt lat="42.99831459248745" lon="11.52316590632907"><ele>321.25</ele><time>2026-04-11T14:22:55Z</time></trkpt><trkpt lat="42.99842721719273" lon="11.52322676902515"><ele>319.5</ele><time>2026-04-11T14:22:56Z</time></trkpt><trkpt lat="42.998545532071425" lon="11.523269363387561"><ele>317.75</ele><time>2026-04-11T14:22:57Z</time></trkpt><trkpt lat="42.998665555307824" lon="11.523311965650826"><ele>316.0</ele><time>2026-04-11T14:22:58Z</time></trkpt><trkpt lat="42.99878416399582" lon="11.523360091440015"><ele>316.0</ele><time>2026-04-11T14:22:59Z</time></trkpt><trkpt lat="42.9988987123943" lon="11.523412878692685"><ele>316.0</ele><time>2026-04-11T14:23:00Z</time></trkpt><trkpt lat="42.99901487308642" lon="11.523472471319963"><ele>316.0</ele><time>2026-04-11T14:23:01Z</time></trkpt><trkpt lat="42.99912553248316" lon="11.523538482406392"><ele>316.0</ele><time>2026-04-11T14:23:02Z</time></trkpt><trkpt lat="42.99923650392222" lon="11.52361615837101"><ele>316.25</ele><time>2026-04-11T14:23:03Z</time></trkpt><trkpt lat="42.99934376573863" lon="11.523698676520253"><ele>316.5</ele><time>2026-04-11T14:23:04Z</time></trkpt><trkpt lat="42.99944735810349" lon="11.523786888794008"><ele>316.75</ele><time>2026-04-11T14:23:05Z</time></trkpt><trkpt lat="42.99955567880219" lon="11.523863347540702"><ele>317.0</ele><time>2026-04-11T14:23:06Z</time></trkpt><trkpt lat="42.99966422951979" lon="11.523937039949907"><ele>317.0</ele><time>2026-04-11T14:23:07Z</time></trkpt><trkpt lat="42.999770829281076" lon="11.524014760702388"><ele>317.0</ele><time>2026-04-11T14:23:08Z</time></trkpt><trkpt lat="42.999879268519294" lon="11.524079553951768"><ele>317.0</ele><time>2026-04-11T14:23:09Z</time></trkpt><trkpt lat="42.99998841579416" lon="11.52414509148016"><ele>317.0</ele><time>2026-04-11T14:23:10Z</time></trkpt><trkpt lat="43.000098731882936" lon="11.524199107257905"><ele>317.0</ele><time>2026-04-11T14:23:11Z</time></trkpt><trkpt lat="43.000208080690626" lon="11.524247048950938"><ele>317.0</ele><time>2026-04-11T14:23:12Z</time></trkpt><trkpt lat="43.00031196572869" lon="11.524277752423702"><ele>317.0</ele><time>2026-04-11T14:23:13Z</time></trkpt><trkpt lat="43.00041217136594" lon="11.524340574856145"><ele>317.0</ele><time>2026-04-11T14:23:14Z</time></trkpt><trkpt lat="43.00051612374121" lon="11.524373856906253"><ele>317.0</ele><time>2026-04-11T14:23:15Z</time></trkpt><trkpt lat="43.000616513253476" lon="11.524412581781558"><ele>317.0</ele><time>2026-04-11T14:23:16Z</time></trkpt><trkpt lat="43.00071455000455" lon="11.524450511116115"><ele>317.0</ele><time>2026-04-11T14:23:17Z</time></trkpt><trkpt lat="43.0008109412378" lon="11.524491124348016"><ele>317.0</ele><time>2026-04-11T14:23:18Z</time></trkpt><trkpt lat="43.0009061049597" lon="11.524529104341038"><ele>317.0</ele><time>2026-04-11T14:23:19Z</time></trkpt><trkpt lat="43.000997345135744" lon="11.524571148607675"><ele>317.0</ele><time>2026-04-11T14:23:20Z</time></trkpt><trkpt lat="43.001088596398375" lon="11.524606546123511"><ele>317.8</ele><time>2026-04-11T14:23:21Z</time></trkpt><trkpt lat="43.001177396827835" lon="11.524638739120089"><ele>318.6</ele><time>2026-04-11T14:23:22Z</time></trkpt><trkpt lat="43.00126548651085" lon="11.52467220471618"><ele>319.40000000000003</ele><time>2026-04-11T14:23:23Z</time></trkpt><trkpt lat="43.00135361385079" lon="11.524718574181442"><ele>320.2</ele><time>2026-04-11T14:23:24Z</time></trkpt><trkpt lat="43.00144092356768" lon="11.524747817057168"><ele>321.0</ele><time>2026-04-11T14:23:25Z</time></trkpt><trkpt lat="43.00152553351951" lon="11.524783584048789"><ele>321.0</ele><time>2026-04-11T14:23:26Z</time></trkpt><trkpt lat="43.00160972286247" lon="11.524823582144393"><ele>321.0</ele><time>2026-04-11T14:23:27Z</time></trkpt><trkpt lat="43.001693689476014" lon="11.524862483849747"><ele>321.0</ele><time>2026-04-11T14:23:28Z</time></trkpt><trkpt lat="43.001775008555256" lon="11.524888515814906"><ele>321.0</ele><time>2026-04-11T14:23:29Z</time></trkpt><trkpt lat="43.001858618805954" lon="11.524920045689873"><ele>321.0</ele><time>2026-04-11T14:23:30Z</time></trkpt><trkpt lat="43.001941353261664" lon="11.52495235555194"><ele>321.0</ele><time>2026-04-11T14:23:31Z</time></trkpt><trkpt lat="43.00202280524159" lon="11.52498041983906"><ele>321.0</ele><time>2026-04-11T14:23:32Z</time></trkpt><trkpt lat="43.00210495075946" lon="11.525004701762795"><ele>321.0</ele><time>2026-04-11T14:23:33Z</time></trkpt><trkpt lat="43.00218715691003" lon="11.525035211667516"><ele>321.0</ele><time>2026-04-11T14:23:34Z</time></trkpt><trkpt lat="43.00227010282274" lon="11.525058523643127"><ele>321.0</ele><time>2026-04-11T14:23:35Z</time></trkpt><trkpt lat="43.00235246672556" lon="11.52507946662031"><ele>321.0</ele><time>2026-04-11T14:23:36Z</time></trkpt><trkpt lat="43.00243402256479" lon="11.525099270921322"><ele>321.0</ele><time>2026-04-11T14:23:37Z</time></trkpt><trkpt lat="43.002515256815016" lon="11.52512372935527"><ele>321.0</ele><time>2026-04-11T14:23:38Z</time></trkpt><trkpt lat="43.00258806238554" lon="11.525180863434851"><ele>321.0</ele><time>2026-04-11T14:23:39Z</time></trkpt><trkpt lat="43.00267581868966" lon="11.525180541715308"><ele>321.0</ele><time>2026-04-11T14:23:40Z</time></trkpt><trkpt lat="43.00275030722929" lon="11.52520314289045"><ele>321.0</ele><time>2026-04-11T14:23:41Z</time></trkpt><trkpt lat="43.00282244010445" lon="11.525222832975714"><ele>321.0</ele><time>2026-04-11T14:23:42Z</time></trkpt><trkpt lat="43.002895357322245" lon="11.525243996405731"><ele>321.0</ele><time>2026-04-11T14:23:43Z</time></trkpt><trkpt lat="43.00296855554644" lon="11.525266551388151"><ele>320.99999999999994</ele><time>2026-04-11T14:23:44Z</time></trkpt><trkpt lat="43.003041365810105" lon="11.525290077779394"><ele>321.0</ele><time>2026-04-11T14:23:45Z</time></trkpt><trkpt lat="43.00311554776563" lon="11.525310514908933"><ele>321.0</ele><time>2026-04-11T14:23:46Z</time></trkpt><trkpt lat="43.003185660804064" lon="11.525329178326107"><ele>321.0</ele><time>2026-04-11T14:23:47Z</time></trkpt><trkpt lat="43.00325545060786" lon="11.525350531387758"><ele>321.0</ele><time>2026-04-11T14:23:48Z</time></trkpt><trkpt lat="43.00332376887636" lon="11.525364170118117"><ele>320.99999999999994</ele><time>2026-04-11T14:23:49Z</time></trkpt><trkpt lat="43.0033902875414" lon="11.525375709177887"><ele>321.0</ele><time>2026-04-11T14:23:50Z</time></trkpt><trkpt lat="43.00345419966025" lon="11.525407330396174"><ele>321.3333333333333</ele><time>2026-04-11T14:23:51Z</time></trkpt><trkpt lat="43.00351732693371" lon="11.525419762579961"><ele>321.6666666666667</ele><time>2026-04-11T14:23:52Z</time></trkpt><trkpt lat="43.00357938855743" lon="11.525443515627082"><ele>322.0</ele><time>2026-04-11T14:23:53Z</time></trkpt><trkpt lat="43.00364128272443" lon="11.525461054684294"><ele>322.33333333333337</ele><time>2026-04-11T14:23:54Z</time></trkpt><trkpt lat="43.003764923675305" lon="11.525501690168607"><ele>322.6666666666667</ele><time>2026-04-11T14:23:56Z</time></trkpt><trkpt lat="43.00383051277251" lon="11.525518751774293"><ele>323.0</ele><time>2026-04-11T14:23:57Z</time></trkpt><trkpt lat="43.0039525958117" lon="11.525551235390731"><ele>323.0</ele><time>2026-04-11T14:23:59Z</time></trkpt><trkpt lat="43.00406870549633" lon="11.525595387691638"><ele>323.0</ele><time>2026-04-11T14:24:01Z</time></trkpt><trkpt lat="43.00417949026463" lon="11.525622197941889"><ele>323.0</ele><time>2026-04-11T14:24:03Z</time></trkpt><trkpt lat="43.00428994203953" lon="11.525652796263378"><ele>323.0</ele><time>2026-04-11T14:24:05Z</time></trkpt><trkpt lat="43.00440204979167" lon="11.52568049470214"><ele>323.2</ele><time>2026-04-11T14:24:07Z</time></trkpt><trkpt lat="43.00451023737927" lon="11.525708842233568"><ele>323.4</ele><time>2026-04-11T14:24:09Z</time></trkpt><trkpt lat="43.004613826045606" lon="11.525734549052414"><ele>323.59999999999997</ele><time>2026-04-11T14:24:11Z</time></trkpt><trkpt lat="43.004726467833095" lon="11.525766348396948"><ele>323.79999999999995</ele><time>2026-04-11T14:24:13Z</time></trkpt><trkpt lat="43.00483425482099" lon="11.525796316691714"><ele>324.0</ele><time>2026-04-11T14:24:15Z</time></trkpt><trkpt lat="43.00493512750066" lon="11.525825958688685"><ele>324.2</ele><time>2026-04-11T14:24:17Z</time></trkpt><trkpt lat="43.00503770618006" lon="11.525853187029432"><ele>324.4</ele><time>2026-04-11T14:24:19Z</time></trkpt><trkpt lat="43.00509783046721" lon="11.525879744399093"><ele>324.6</ele><time>2026-04-11T14:24:21Z</time></trkpt><trkpt lat="43.00517588697242" lon="11.525892653662366"><ele>324.8</ele><time>2026-04-11T14:24:23Z</time></trkpt><trkpt lat="43.005270259361886" lon="11.525909954786565"><ele>325.0</ele><time>2026-04-11T14:24:26Z</time></trkpt><trkpt lat="43.00556814587245" lon="11.526017422705106"><ele>325.0</ele><time>2026-04-11T14:24:29Z</time></trkpt><trkpt lat="43.00566568825014" lon="11.526045838681096"><ele>325.0</ele><time>2026-04-11T14:24:31Z</time></trkpt><trkpt lat="43.005771905548485" lon="11.52607350754135"><ele>325.0</ele><time>2026-04-11T14:24:33Z</time></trkpt><trkpt lat="43.00587826190885" lon="11.526114655129556"><ele>325.0</ele><time>2026-04-11T14:24:35Z</time></trkpt><trkpt lat="43.00598365574796" lon="11.526131693719467"><ele>325.0</ele><time>2026-04-11T14:24:37Z</time></trkpt><trkpt lat="43.00608932992345" lon="11.526160117107397"><ele>325.2</ele><time>2026-04-11T14:24:39Z</time></trkpt><trkpt lat="43.006196881451785" lon="11.526189013603917"><ele>325.4</ele><time>2026-04-11T14:24:41Z</time></trkpt><trkpt lat="43.00630001045785" lon="11.52621973771132"><ele>325.6</ele><time>2026-04-11T14:24:43Z</time></trkpt><trkpt lat="43.00641710861168" lon="11.526263076494198"><ele>325.8</ele><time>2026-04-11T14:24:45Z</time></trkpt><trkpt lat="43.00647968465876" lon="11.52627982429292"><ele>326.0</ele><time>2026-04-11T14:24:46Z</time></trkpt><trkpt lat="43.006587676796904" lon="11.52631862304974"><ele>326.6</ele><time>2026-04-11T14:24:48Z</time></trkpt><trkpt lat="43.006714136238045" lon="11.526343244060788"><ele>327.20000000000005</ele><time>2026-04-11T14:24:50Z</time></trkpt><trkpt lat="43.00681722336919" lon="11.526373334689103"><ele>327.79999999999995</ele><time>2026-04-11T14:24:52Z</time></trkpt><trkpt lat="43.006928451785306" lon="11.52640450927365"><ele>328.4</ele><time>2026-04-11T14:24:54Z</time></trkpt><trkpt lat="43.00703074012033" lon="11.526416010570296"><ele>329.0</ele><time>2026-04-11T14:24:56Z</time></trkpt><trkpt lat="43.00713268882293" lon="11.526443681921545"><ele>329.0</ele><time>2026-04-11T14:24:58Z</time></trkpt><trkpt lat="43.007237722879786" lon="11.52644628259341"><ele>329.0</ele><time>2026-04-11T14:25:00Z</time></trkpt><trkpt lat="43.00734829528257" lon="11.526472116042548"><ele>329.0</ele><time>2026-04-11T14:25:02Z</time></trkpt><trkpt lat="43.007457725439174" lon="11.526498025858219"><ele>329.0</ele><time>2026-04-11T14:25:04Z</time></trkpt><trkpt lat="43.0075667353286" lon="11.526498420042607"><ele>329.0</ele><time>2026-04-11T14:25:06Z</time></trkpt><trkpt lat="43.007674630918366" lon="11.526517671092114"><ele>329.0</ele><time>2026-04-11T14:25:08Z</time></trkpt><trkpt lat="43.00777237774656" lon="11.52651905232911"><ele>329.0</ele><time>2026-04-11T14:25:10Z</time></trkpt><trkpt lat="43.00787765990922" lon="11.526519164618074"><ele>329.0</ele><time>2026-04-11T14:25:12Z</time></trkpt><trkpt lat="43.00798990969666" lon="11.52654358120886"><ele>329.0</ele><time>2026-04-11T14:25:14Z</time></trkpt><trkpt lat="43.00809795804258" lon="11.52655468736699"><ele>329.0</ele><time>2026-04-11T14:25:16Z</time></trkpt><trkpt lat="43.00820725822395" lon="11.526561027668619"><ele>329.0</ele><time>2026-04-11T14:25:18Z</time></trkpt><trkpt lat="43.008315058952114" lon="11.5265736164533"><ele>329.0</ele><time>2026-04-11T14:25:20Z</time></trkpt><trkpt lat="43.00842391332429" lon="11.526588414996333"><ele>329.0</ele><time>2026-04-11T14:25:22Z</time></trkpt><trkpt lat="43.00852995904689" lon="11.526598961595877"><ele>329.0</ele><time>2026-04-11T14:25:24Z</time></trkpt><trkpt lat="43.00863776491017" lon="11.526617385347986"><ele>329.0</ele><time>2026-04-11T14:25:26Z</time></trkpt><trkpt lat="43.00874472451911" lon="11.52663388716807"><ele>329.4</ele><time>2026-04-11T14:25:28Z</time></trkpt><trkpt lat="43.00885270393766" lon="11.526643117016087"><ele>329.79999999999995</ele><time>2026-04-11T14:25:30Z</time></trkpt><trkpt lat="43.00892701161139" lon="11.526671226728242"><ele>330.20000000000005</ele><time>2026-04-11T14:25:31Z</time></trkpt><trkpt lat="43.00903659560825" lon="11.526684379830938"><ele>330.6</ele><time>2026-04-11T14:25:33Z</time></trkpt><trkpt lat="43.00914991773478" lon="11.526698713116781"><ele>331.0</ele><time>2026-04-11T14:25:35Z</time></trkpt><trkpt lat="43.00926336052833" lon="11.526706278900486"><ele>331.20000000000005</ele><time>2026-04-11T14:25:37Z</time></trkpt><trkpt lat="43.009373202222804" lon="11.52671857739501"><ele>331.40000000000003</ele><time>2026-04-11T14:25:39Z</time></trkpt><trkpt lat="43.00947728447387" lon="11.526735217898636"><ele>331.6</ele><time>2026-04-11T14:25:41Z</time></trkpt><trkpt lat="43.009581113125584" lon="11.526751336608584"><ele>331.8</ele><time>2026-04-11T14:25:43Z</time></trkpt><trkpt lat="43.00969076234129" lon="11.526753356702864"><ele>332.0</ele><time>2026-04-11T14:25:45Z</time></trkpt><trkpt lat="43.0097949010534" lon="11.526771638862373"><ele>332.0</ele><time>2026-04-11T14:25:47Z</time></trkpt><trkpt lat="43.009890479367925" lon="11.52679846444936"><ele>332.0</ele><time>2026-04-11T14:25:49Z</time></trkpt><trkpt lat="43.00997841378915" lon="11.526787574846274"><ele>332.0</ele><time>2026-04-11T14:25:51Z</time></trkpt><trkpt lat="43.01008909021361" lon="11.526793479281697"><ele>332.0</ele><time>2026-04-11T14:25:53Z</time></trkpt><trkpt lat="43.01019177906699" lon="11.526804124469445"><ele>332.0</ele><time>2026-04-11T14:25:55Z</time></trkpt><trkpt lat="43.01025538821331" lon="11.526808452376995"><ele>332.40000000000003</ele><time>2026-04-11T14:25:57Z</time></trkpt><trkpt lat="43.010448232430875" lon="11.526848368214345"><ele>332.8</ele><time>2026-04-11T14:26:00Z</time></trkpt><trkpt lat="43.010545724633815" lon="11.526866334245781"><ele>333.2</ele><time>2026-04-11T14:26:02Z</time></trkpt><trkpt lat="43.010626760917354" lon="11.5268757194388"><ele>333.6</ele><time>2026-04-11T14:26:04Z</time></trkpt><trkpt lat="43.01069164079555" lon="11.526872343198274"><ele>334.0</ele><time>2026-04-11T14:26:06Z</time></trkpt><trkpt lat="43.01075862414911" lon="11.526902608000983"><ele>334.79999999999995</ele><time>2026-04-11T14:26:08Z</time></trkpt><trkpt lat="43.01083176688205" lon="11.526906251981861"><ele>335.59999999999997</ele><time>2026-04-11T14:26:10Z</time></trkpt><trkpt lat="43.01092018861921" lon="11.526905886788533"><ele>336.4</ele><time>2026-04-11T14:26:12Z</time></trkpt><trkpt lat="43.011017718482904" lon="11.526929632848772"><ele>337.2</ele><time>2026-04-11T14:26:14Z</time></trkpt><trkpt lat="43.0111142472708" lon="11.526944012925581"><ele>338.0</ele><time>2026-04-11T14:26:16Z</time></trkpt><trkpt lat="43.01121791604548" lon="11.526950405420745"><ele>338.0</ele><time>2026-04-11T14:26:18Z</time></trkpt><trkpt lat="43.01131370970588" lon="11.526943901535217"><ele>338.0</ele><time>2026-04-11T14:26:20Z</time></trkpt><trkpt lat="43.0114039471099" lon="11.526966818047573"><ele>338.0</ele><time>2026-04-11T14:26:22Z</time></trkpt><trkpt lat="43.011475204996906" lon="11.526958633465165"><ele>338.0</ele><time>2026-04-11T14:26:24Z</time></trkpt><trkpt lat="43.01154779470421" lon="11.52695994045276"><ele>338.0</ele><time>2026-04-11T14:26:26Z</time></trkpt><trkpt lat="43.011628147865736" lon="11.52696467444088"><ele>338.0</ele><time>2026-04-11T14:26:28Z</time></trkpt><trkpt lat="43.01170509337684" lon="11.526964173368938"><ele>338.83333333333337</ele><time>2026-04-11T14:26:30Z</time></trkpt><trkpt lat="43.011784661244086" lon="11.526983855505645"><ele>339.6666666666667</ele><time>2026-04-11T14:26:32Z</time></trkpt><trkpt lat="43.011864463346434" lon="11.526982618904073"><ele>340.5</ele><time>2026-04-11T14:26:34Z</time></trkpt><trkpt lat="43.01195012829495" lon="11.526976683945804"><ele>341.3333333333333</ele><time>2026-04-11T14:26:36Z</time></trkpt><trkpt lat="43.01201575242293" lon="11.526969501613436"><ele>342.16666666666663</ele><time>2026-04-11T14:26:38Z</time></trkpt><trkpt lat="43.012126212138604" lon="11.526951753432714"><ele>343.0</ele><time>2026-04-11T14:26:41Z</time></trkpt><trkpt lat="43.012189112385585" lon="11.52693940676871"><ele>343.0</ele><time>2026-04-11T14:26:43Z</time></trkpt><trkpt lat="43.012269547104765" lon="11.526921631953114"><ele>343.0</ele><time>2026-04-11T14:26:45Z</time></trkpt><trkpt lat="43.012351123258554" lon="11.52690195529259"><ele>343.0</ele><time>2026-04-11T14:26:47Z</time></trkpt><trkpt lat="43.01245606967181" lon="11.526839845420426"><ele>343.0</ele><time>2026-04-11T14:26:49Z</time></trkpt><trkpt lat="43.01256472040262" lon="11.526816286327422"><ele>343.0</ele><time>2026-04-11T14:26:51Z</time></trkpt><trkpt lat="43.012665998615155" lon="11.52679351734739"><ele>343.59999999999997</ele><time>2026-04-11T14:26:53Z</time></trkpt><trkpt lat="43.012769088908705" lon="11.526770184722645"><ele>344.2</ele><time>2026-04-11T14:26:55Z</time></trkpt><trkpt lat="43.01287521959991" lon="11.526743886863969"><ele>344.8</ele><time>2026-04-11T14:26:57Z</time></trkpt><trkpt lat="43.01297843013544" lon="11.526726458044356"><ele>345.4</ele><time>2026-04-11T14:26:59Z</time></trkpt><trkpt lat="43.013086785063464" lon="11.526716663084096"><ele>346.0</ele><time>2026-04-11T14:27:01Z</time></trkpt><trkpt lat="43.013170473307596" lon="11.526712557086908"><ele>346.0</ele><time>2026-04-11T14:27:04Z</time></trkpt><trkpt lat="43.01333969818529" lon="11.52671865169394"><ele>346.0</ele><time>2026-04-11T14:27:06Z</time></trkpt><trkpt lat="43.0134387572426" lon="11.526711329737786"><ele>346.0</ele><time>2026-04-11T14:27:08Z</time></trkpt><trkpt lat="43.01354109553835" lon="11.526712667330967"><ele>346.0</ele><time>2026-04-11T14:27:10Z</time></trkpt><trkpt lat="43.0136407076067" lon="11.526713340971176"><ele>346.0</ele><time>2026-04-11T14:27:12Z</time></trkpt><trkpt lat="43.01373117900077" lon="11.52672885656546"><ele>346.0</ele><time>2026-04-11T14:27:14Z</time></trkpt><trkpt lat="43.0138440715339" lon="11.526722040563477"><ele>346.0</ele><time>2026-04-11T14:27:17Z</time></trkpt><trkpt lat="43.01391111499329" lon="11.52669055559955"><ele>346.0</ele><time>2026-04-11T14:27:19Z</time></trkpt><trkpt lat="43.01398504171032" lon="11.52666283269572"><ele>346.0</ele><time>2026-04-11T14:27:21Z</time></trkpt><trkpt lat="43.01406956722397" lon="11.52660961767931"><ele>346.0</ele><time>2026-04-11T14:27:23Z</time></trkpt><trkpt lat="43.01415756356059" lon="11.526526508177678"><ele>346.20000000000005</ele><time>2026-04-11T14:27:25Z</time></trkpt><trkpt lat="43.01423849504562" lon="11.526433034742556"><ele>346.40000000000003</ele><time>2026-04-11T14:27:27Z</time></trkpt><trkpt lat="43.01430104480084" lon="11.526331386441615"><ele>346.6</ele><time>2026-04-11T14:27:29Z</time></trkpt><trkpt lat="43.01435240454818" lon="11.526218426042922"><ele>346.8</ele><time>2026-04-11T14:27:31Z</time></trkpt><trkpt lat="43.014399877926905" lon="11.526109450247358"><ele>347.0</ele><time>2026-04-11T14:27:33Z</time></trkpt><trkpt lat="43.0144459902474" lon="11.526020893556703"><ele>349.0</ele><time>2026-04-11T14:27:36Z</time></trkpt><trkpt lat="43.01448497265047" lon="11.525929642704213"><ele>351.0</ele><time>2026-04-11T14:27:38Z</time></trkpt><trkpt lat="43.014528395961634" lon="11.525847406819"><ele>353.0</ele><time>2026-04-11T14:27:40Z</time></trkpt><trkpt lat="43.014582397605786" lon="11.525774874469999"><ele>355.0</ele><time>2026-04-11T14:27:42Z</time></trkpt><trkpt lat="43.014626688597666" lon="11.52569996175087"><ele>357.0</ele><time>2026-04-11T14:27:44Z</time></trkpt><trkpt lat="43.014681534253285" lon="11.525638218562033"><ele>359.0</ele><time>2026-04-11T14:27:46Z</time></trkpt><trkpt lat="43.014738941774986" lon="11.525584684021608"><ele>361.0</ele><time>2026-04-11T14:27:48Z</time></trkpt><trkpt lat="43.01479537152034" lon="11.525537595197257"><ele>361.0</ele><time>2026-04-11T14:27:50Z</time></trkpt><trkpt lat="43.01484335674856" lon="11.525472624559498"><ele>361.0</ele><time>2026-04-11T14:27:52Z</time></trkpt><trkpt lat="43.01491934468792" lon="11.525401421801787"><ele>361.0</ele><time>2026-04-11T14:27:55Z</time></trkpt><trkpt lat="43.014997236559616" lon="11.525337824290432"><ele>361.0</ele><time>2026-04-11T14:27:58Z</time></trkpt><trkpt lat="43.01505946626379" lon="11.525251688352851"><ele>361.0</ele><time>2026-04-11T14:28:01Z</time></trkpt><trkpt lat="43.015126913487045" lon="11.525190164131637"><ele>361.0</ele><time>2026-04-11T14:28:04Z</time></trkpt><trkpt lat="43.01519929775101" lon="11.525167463612737"><ele>361.0</ele><time>2026-04-11T14:28:07Z</time></trkpt><trkpt lat="43.015288270263596" lon="11.525136721180772"><ele>361.0</ele><time>2026-04-11T14:28:11Z</time></trkpt><trkpt lat="43.01536533103833" lon="11.525115050911097"><ele>361.0</ele><time>2026-04-11T14:28:13Z</time></trkpt><trkpt lat="43.01545269288419" lon="11.525067275725021"><ele>361.0</ele><time>2026-04-11T14:28:16Z</time></trkpt><trkpt lat="43.015510892077856" lon="11.52501718587528"><ele>361.0</ele><time>2026-04-11T14:28:18Z</time></trkpt><trkpt lat="43.0155859539005" lon="11.52497643330492"><ele>361.0</ele><time>2026-04-11T14:28:20Z</time></trkpt><trkpt lat="43.01566036300864" lon="11.524941591653942"><ele>361.0</ele><time>2026-04-11T14:28:22Z</time></trkpt><trkpt lat="43.015727517831316" lon="11.524898466874488"><ele>361.0</ele><time>2026-04-11T14:28:25Z</time></trkpt><trkpt lat="43.01578055858659" lon="11.5248368026404"><ele>361.0</ele><time>2026-04-11T14:28:28Z</time></trkpt><trkpt lat="43.01581439465826" lon="11.524743792467728"><ele>361.0</ele><time>2026-04-11T14:28:31Z</time></trkpt><trkpt lat="43.01586816758936" lon="11.524658736783282"><ele>361.0</ele><time>2026-04-11T14:28:33Z</time></trkpt><trkpt lat="43.01592892751127" lon="11.52458029611704"><ele>361.0</ele><time>2026-04-11T14:28:34Z</time></trkpt><trkpt lat="43.015968039954764" lon="11.524511377633775"><ele>361.0</ele><time>2026-04-11T14:28:35Z</time></trkpt><trkpt lat="43.016021488254964" lon="11.52442057651178"><ele>362.6</ele><time>2026-04-11T14:28:36Z</time></trkpt><trkpt lat="43.016080357307175" lon="11.524295061150431"><ele>364.20000000000005</ele><time>2026-04-11T14:28:38Z</time></trkpt><trkpt lat="43.016139393277335" lon="11.524166539859962"><ele>365.79999999999995</ele><time>2026-04-11T14:28:40Z</time></trkpt><trkpt lat="43.016193118183295" lon="11.524063599459085"><ele>367.4</ele><time>2026-04-11T14:28:42Z</time></trkpt><trkpt lat="43.01624179767363" lon="11.523961694033664"><ele>369.0</ele><time>2026-04-11T14:28:44Z</time></trkpt><trkpt lat="43.016296154154" lon="11.523865529708914"><ele>369.0</ele><time>2026-04-11T14:28:46Z</time></trkpt><trkpt lat="43.01633933397083" lon="11.523758448399814"><ele>369.0</ele><time>2026-04-11T14:28:48Z</time></trkpt><trkpt lat="43.01638546855992" lon="11.523675873115439"><ele>369.0</ele><time>2026-04-11T14:28:50Z</time></trkpt><trkpt lat="43.01642909629667" lon="11.523586366646656"><ele>369.0</ele><time>2026-04-11T14:28:52Z</time></trkpt><trkpt lat="43.01647167551991" lon="11.52350125657439"><ele>369.0</ele><time>2026-04-11T14:28:54Z</time></trkpt><trkpt lat="43.016521550201574" lon="11.523419054667484"><ele>369.0</ele><time>2026-04-11T14:28:56Z</time></trkpt><trkpt lat="43.01656849389584" lon="11.523346252443952"><ele>369.42857142857144</ele><time>2026-04-11T14:28:58Z</time></trkpt><trkpt lat="43.01661588312756" lon="11.523279191257913"><ele>369.85714285714283</ele><time>2026-04-11T14:29:00Z</time></trkpt><trkpt lat="43.01666210446378" lon="11.523200377284109"><ele>370.28571428571433</ele><time>2026-04-11T14:29:02Z</time></trkpt><trkpt lat="43.01672372692273" lon="11.523112187982075"><ele>370.7142857142857</ele><time>2026-04-11T14:29:05Z</time></trkpt><trkpt lat="43.01676764649373" lon="11.523047124327126"><ele>371.14285714285717</ele><time>2026-04-11T14:29:07Z</time></trkpt><trkpt lat="43.01681180528448" lon="11.522981849167985"><ele>371.5714285714286</ele><time>2026-04-11T14:29:09Z</time></trkpt><trkpt lat="43.016866224267076" lon="11.522921778024392"><ele>372.0</ele><time>2026-04-11T14:29:11Z</time></trkpt><trkpt lat="43.016918272615484" lon="11.522872999998832"><ele>372.0</ele><time>2026-04-11T14:29:14Z</time></trkpt><trkpt lat="43.01698666464331" lon="11.522795428605352"><ele>372.0</ele><time>2026-04-11T14:29:16Z</time></trkpt><trkpt lat="43.01707018160373" lon="11.522723623944255"><ele>372.0</ele><time>2026-04-11T14:29:19Z</time></trkpt><trkpt lat="43.01714682395216" lon="11.52266451983625"><ele>372.0</ele><time>2026-04-11T14:29:22Z</time></trkpt><trkpt lat="43.017241415823484" lon="11.522612325161555"><ele>372.0</ele><time>2026-04-11T14:29:25Z</time></trkpt><trkpt lat="43.01731469836237" lon="11.522561686133056"><ele>372.0</ele><time>2026-04-11T14:29:28Z</time></trkpt><trkpt lat="43.01739211506132" lon="11.522496191956106"><ele>372.0</ele><time>2026-04-11T14:29:30Z</time></trkpt><trkpt lat="43.017464544378754" lon="11.522414634224969"><ele>372.0</ele><time>2026-04-11T14:29:33Z</time></trkpt><trkpt lat="43.0175205645058" lon="11.522360715153965"><ele>372.0</ele><time>2026-04-11T14:29:36Z</time></trkpt><trkpt lat="43.017564889108506" lon="11.522296489736773"><ele>372.0</ele><time>2026-04-11T14:29:39Z</time></trkpt><trkpt lat="43.01763348527602" lon="11.522235303811899"><ele>372.0</ele><time>2026-04-11T14:29:43Z</time></trkpt><trkpt lat="43.01767934382489" lon="11.522175870638106"><ele>371.0</ele><time>2026-04-11T14:29:45Z</time></trkpt><trkpt lat="43.017740717634574" lon="11.522155061641364"><ele>370.0</ele><time>2026-04-11T14:29:48Z</time></trkpt><trkpt lat="43.01781219186095" lon="11.522086736975663"><ele>369.0</ele><time>2026-04-11T14:29:50Z</time></trkpt><trkpt lat="43.017897499628724" lon="11.521977291298308"><ele>368.0</ele><time>2026-04-11T14:29:53Z</time></trkpt><trkpt lat="43.01795181169217" lon="11.521874390488817"><ele>367.0</ele><time>2026-04-11T14:29:57Z</time></trkpt><trkpt lat="43.018001133891666" lon="11.521803694121274"><ele>366.0</ele><time>2026-04-11T14:30:00Z</time></trkpt><trkpt lat="43.01806171161221" lon="11.52173747142601"><ele>367.2857142857143</ele><time>2026-04-11T14:30:02Z</time></trkpt><trkpt lat="43.018112073176574" lon="11.521683474681373"><ele>368.57142857142856</ele><time>2026-04-11T14:30:04Z</time></trkpt><trkpt lat="43.01817220945679" lon="11.521642214509694"><ele>369.8571428571429</ele><time>2026-04-11T14:30:06Z</time></trkpt><trkpt lat="43.018233706866205" lon="11.52157879164961"><ele>371.1428571428571</ele><time>2026-04-11T14:30:10Z</time></trkpt><trkpt lat="43.0183010652064" lon="11.521519599848721"><ele>372.4285714285714</ele><time>2026-04-11T14:30:14Z</time></trkpt><trkpt lat="43.01837304829441" lon="11.521460859188762"><ele>373.7142857142857</ele><time>2026-04-11T14:30:18Z</time></trkpt><trkpt lat="43.01843250607605" lon="11.521428558404763"><ele>375.0</ele><time>2026-04-11T14:30:21Z</time></trkpt><trkpt lat="43.018497532072146" lon="11.521370420635533"><ele>375.0</ele><time>2026-04-11T14:30:24Z</time></trkpt><trkpt lat="43.018572105446125" lon="11.521335261370576"><ele>375.0</ele><time>2026-04-11T14:30:27Z</time></trkpt><trkpt lat="43.018644780025944" lon="11.521323526318765"><ele>375.0</ele><time>2026-04-11T14:30:30Z</time></trkpt><trkpt lat="43.01870009615078" lon="11.521246322296673"><ele>375.0</ele><time>2026-04-11T14:30:32Z</time></trkpt><trkpt lat="43.01878847888373" lon="11.521200090927227"><ele>375.0</ele><time>2026-04-11T14:30:34Z</time></trkpt><trkpt lat="43.01885335118224" lon="11.521172947597526"><ele>375.0</ele><time>2026-04-11T14:30:36Z</time></trkpt><trkpt lat="43.018923516447074" lon="11.5211265161114"><ele>376.3333333333333</ele><time>2026-04-11T14:30:39Z</time></trkpt><trkpt lat="43.019003714189594" lon="11.521070724890668"><ele>377.6666666666667</ele><time>2026-04-11T14:30:42Z</time></trkpt><trkpt lat="43.01906127089882" lon="11.52101805228234"><ele>379.0</ele><time>2026-04-11T14:30:45Z</time></trkpt><trkpt lat="43.01915189538787" lon="11.520980588011852"><ele>380.33333333333337</ele><time>2026-04-11T14:30:48Z</time></trkpt><trkpt lat="43.01921663400719" lon="11.52094046869674"><ele>381.6666666666667</ele><time>2026-04-11T14:30:50Z</time></trkpt><trkpt lat="43.0192884918653" lon="11.52088079861996"><ele>383.0</ele><time>2026-04-11T14:30:52Z</time></trkpt><trkpt lat="43.019356141476514" lon="11.520839408816974"><ele>383.0</ele><time>2026-04-11T14:30:54Z</time></trkpt><trkpt lat="43.01942860033024" lon="11.52079051671348"><ele>383.0</ele><time>2026-04-11T14:30:56Z</time></trkpt><trkpt lat="43.019508001611065" lon="11.520741781849926"><ele>383.0</ele><time>2026-04-11T14:30:58Z</time></trkpt><trkpt lat="43.01956809773453" lon="11.520713920568726"><ele>383.0</ele><time>2026-04-11T14:31:00Z</time></trkpt><trkpt lat="43.01963753092756" lon="11.520688553098115"><ele>383.0</ele><time>2026-04-11T14:31:02Z</time></trkpt><trkpt lat="43.019705704804466" lon="11.520656706744605"><ele>383.0</ele><time>2026-04-11T14:31:04Z</time></trkpt><trkpt lat="43.01976387281063" lon="11.520622771012754"><ele>383.0</ele><time>2026-04-11T14:31:06Z</time></trkpt><trkpt lat="43.019853632120636" lon="11.520569899055667"><ele>383.0</ele><time>2026-04-11T14:31:08Z</time></trkpt><trkpt lat="43.01994367346157" lon="11.52051891565572"><ele>383.0</ele><time>2026-04-11T14:31:10Z</time></trkpt><trkpt lat="43.0200203184955" lon="11.520472970660634"><ele>383.0</ele><time>2026-04-11T14:31:12Z</time></trkpt><trkpt lat="43.020097127069974" lon="11.520414065414837"><ele>383.0</ele><time>2026-04-11T14:31:14Z</time></trkpt><trkpt lat="43.02016398269323" lon="11.520354169177738"><ele>383.0</ele><time>2026-04-11T14:31:16Z</time></trkpt><trkpt lat="43.020231470392545" lon="11.520268876844707"><ele>383.0</ele><time>2026-04-11T14:31:19Z</time></trkpt><trkpt lat="43.020291046272035" lon="11.520171027294127"><ele>384.25</ele><time>2026-04-11T14:31:22Z</time></trkpt><trkpt lat="43.02034586168014" lon="11.52003924631542"><ele>385.5</ele><time>2026-04-11T14:31:25Z</time></trkpt><trkpt lat="43.02049631114557" lon="11.519773617741185"><ele>386.75</ele><time>2026-04-11T14:31:29Z</time></trkpt><trkpt lat="43.02053494075287" lon="11.519675385218228"><ele>388.0</ele><time>2026-04-11T14:31:31Z</time></trkpt><trkpt lat="43.020576848867385" lon="11.519580296144854"><ele>390.0</ele><time>2026-04-11T14:31:33Z</time></trkpt><trkpt lat="43.020620636532584" lon="11.519483179662421"><ele>392.0</ele><time>2026-04-11T14:31:35Z</time></trkpt><trkpt lat="43.02065380596274" lon="11.519382572987132"><ele>394.0</ele><time>2026-04-11T14:31:37Z</time></trkpt><trkpt lat="43.020715064098376" lon="11.519278717008332"><ele>396.0</ele><time>2026-04-11T14:31:39Z</time></trkpt><trkpt lat="43.02076681554327" lon="11.519170364852766"><ele>398.0</ele><time>2026-04-11T14:31:41Z</time></trkpt><trkpt lat="43.020818578087145" lon="11.519053276739776"><ele>395.79999999999995</ele><time>2026-04-11T14:31:43Z</time></trkpt><trkpt lat="43.020867978629894" lon="11.518932448141685"><ele>393.6</ele><time>2026-04-11T14:31:45Z</time></trkpt><trkpt lat="43.02090883374432" lon="11.5188158968658"><ele>391.4</ele><time>2026-04-11T14:31:47Z</time></trkpt><trkpt lat="43.020958142007835" lon="11.518695539642298"><ele>389.20000000000005</ele><time>2026-04-11T14:31:49Z</time></trkpt><trkpt lat="43.02102444768343" lon="11.518569064939317"><ele>387.0</ele><time>2026-04-11T14:31:51Z</time></trkpt><trkpt lat="43.0210874144317" lon="11.518425095833464"><ele>387.0</ele><time>2026-04-11T14:31:53Z</time></trkpt><trkpt lat="43.021121017367456" lon="11.518352048045"><ele>387.0</ele><time>2026-04-11T14:31:54Z</time></trkpt><trkpt lat="43.02115805339926" lon="11.518279820374746"><ele>387.0</ele><time>2026-04-11T14:31:55Z</time></trkpt><trkpt lat="43.02118873284885" lon="11.518203992612031"><ele>387.0</ele><time>2026-04-11T14:31:56Z</time></trkpt><trkpt lat="43.02122191189038" lon="11.518123925529611"><ele>387.0</ele><time>2026-04-11T14:31:57Z</time></trkpt><trkpt lat="43.021252817462944" lon="11.518043449247559"><ele>387.0</ele><time>2026-04-11T14:31:58Z</time></trkpt><trkpt lat="43.02128609822872" lon="11.517965192590914"><ele>387.0</ele><time>2026-04-11T14:31:59Z</time></trkpt><trkpt lat="43.0213260560355" lon="11.517885168486178"><ele>387.6666666666667</ele><time>2026-04-11T14:32:00Z</time></trkpt><trkpt lat="43.021374469346554" lon="11.51780908611627"><ele>388.33333333333337</ele><time>2026-04-11T14:32:01Z</time></trkpt><trkpt lat="43.02142942985433" lon="11.51773931076499"><ele>389.0</ele><time>2026-04-11T14:32:02Z</time></trkpt><trkpt lat="43.02148959143835" lon="11.517674785868277"><ele>389.6666666666667</ele><time>2026-04-11T14:32:03Z</time></trkpt><trkpt lat="43.0215568259781" lon="11.517618377616396"><ele>390.33333333333337</ele><time>2026-04-11T14:32:04Z</time></trkpt><trkpt lat="43.02162489011511" lon="11.517566130611625"><ele>391.0</ele><time>2026-04-11T14:32:05Z</time></trkpt><trkpt lat="43.02169708321792" lon="11.51751311291504"><ele>388.6666666666667</ele><time>2026-04-11T14:32:06Z</time></trkpt><trkpt lat="43.021767337959545" lon="11.517453143896665"><ele>386.33333333333337</ele><time>2026-04-11T14:32:07Z</time></trkpt><trkpt lat="43.02183564665658" lon="11.517390564735132"><ele>384.0</ele><time>2026-04-11T14:32:08Z</time></trkpt><trkpt lat="43.02190592542059" lon="11.51732517893107"><ele>381.6666666666667</ele><time>2026-04-11T14:32:09Z</time></trkpt><trkpt lat="43.021979322432614" lon="11.517265639323373"><ele>379.33333333333337</ele><time>2026-04-11T14:32:10Z</time></trkpt><trkpt lat="43.02204703282408" lon="11.51720460287448"><ele>377.0</ele><time>2026-04-11T14:32:11Z</time></trkpt><trkpt lat="43.02211578522255" lon="11.517143993168865"><ele>377.0</ele><time>2026-04-11T14:32:12Z</time></trkpt><trkpt lat="43.02218258478941" lon="11.517087757763973"><ele>377.0</ele><time>2026-04-11T14:32:13Z</time></trkpt><trkpt lat="43.022239323221825" lon="11.517027791924585"><ele>377.0</ele><time>2026-04-11T14:32:14Z</time></trkpt><trkpt lat="43.02228822884441" lon="11.516966282872236"><ele>377.0</ele><time>2026-04-11T14:32:15Z</time></trkpt><trkpt lat="43.02235318904483" lon="11.516838454772417"><ele>377.0</ele><time>2026-04-11T14:32:17Z</time></trkpt><trkpt lat="43.022382245810526" lon="11.51672229140642"><ele>377.0</ele><time>2026-04-11T14:32:19Z</time></trkpt><trkpt lat="43.02239271440907" lon="11.516626563137553"><ele>378.1666666666667</ele><time>2026-04-11T14:32:21Z</time></trkpt><trkpt lat="43.02240395214693" lon="11.516523080142882"><ele>379.33333333333337</ele><time>2026-04-11T14:32:24Z</time></trkpt><trkpt lat="43.0224016259176" lon="11.516416701198851"><ele>380.5</ele><time>2026-04-11T14:32:29Z</time></trkpt><trkpt lat="43.02240561915253" lon="11.516303973776063"><ele>381.6666666666667</ele><time>2026-04-11T14:32:33Z</time></trkpt><trkpt lat="43.02241820015247" lon="11.516195204670158"><ele>382.8333333333333</ele><time>2026-04-11T14:32:37Z</time></trkpt><trkpt lat="43.022421539201694" lon="11.516088079317743"><ele>384.0</ele><time>2026-04-11T14:32:41Z</time></trkpt><trkpt lat="43.02242892445196" lon="11.515985441451331"><ele>384.8333333333333</ele><time>2026-04-11T14:32:45Z</time></trkpt><trkpt lat="43.022428201162384" lon="11.515883626122294"><ele>385.66666666666663</ele><time>2026-04-11T14:32:49Z</time></trkpt><trkpt lat="43.02243792039257" lon="11.515778672338643"><ele>386.5</ele><time>2026-04-11T14:32:53Z</time></trkpt><trkpt lat="43.0224433470217" lon="11.515675202493691"><ele>387.3333333333333</ele><time>2026-04-11T14:32:57Z</time></trkpt><trkpt lat="43.02244909215082" lon="11.515570648323225"><ele>388.16666666666663</ele><time>2026-04-11T14:33:01Z</time></trkpt><trkpt lat="43.02245848905886" lon="11.51546626568004"><ele>389.0</ele><time>2026-04-11T14:33:05Z</time></trkpt><trkpt lat="43.02245891220835" lon="11.515362132114529"><ele>388.8571428571429</ele><time>2026-04-11T14:33:09Z</time></trkpt><trkpt lat="43.02246175709957" lon="11.515261999066361"><ele>388.71428571428567</ele><time>2026-04-11T14:33:13Z</time></trkpt><trkpt lat="43.02247358182223" lon="11.515165205949991"><ele>388.57142857142856</ele><time>2026-04-11T14:33:17Z</time></trkpt><trkpt lat="43.0224927029278" lon="11.515082296618827"><ele>388.42857142857144</ele><time>2026-04-11T14:33:20Z</time></trkpt><trkpt lat="43.02252544747616" lon="11.514979628125952"><ele>388.28571428571433</ele><time>2026-04-11T14:33:24Z</time></trkpt><trkpt lat="43.02255752979648" lon="11.514879415556326"><ele>388.1428571428571</ele><time>2026-04-11T14:33:28Z</time></trkpt><trkpt lat="43.02259143677758" lon="11.514785496790896"><ele>388.0</ele><time>2026-04-11T14:33:32Z</time></trkpt><trkpt lat="43.02262589824652" lon="11.514690023834012"><ele>388.0</ele><time>2026-04-11T14:33:36Z</time></trkpt><trkpt lat="43.02267049419021" lon="11.514610719084663"><ele>388.0</ele><time>2026-04-11T14:33:39Z</time></trkpt><trkpt lat="43.02270309151349" lon="11.514536402243818"><ele>388.0</ele><time>2026-04-11T14:33:42Z</time></trkpt><trkpt lat="43.022746108931756" lon="11.514444350160705"><ele>388.0</ele><time>2026-04-11T14:33:46Z</time></trkpt><trkpt lat="43.0227807226475" lon="11.514346085737968"><ele>388.0</ele><time>2026-04-11T14:33:50Z</time></trkpt><trkpt lat="43.02282083908499" lon="11.514275907388551"><ele>388.0</ele><time>2026-04-11T14:33:53Z</time></trkpt><trkpt lat="43.02285813852136" lon="11.514176507310045"><ele>388.0</ele><time>2026-04-11T14:33:57Z</time></trkpt><trkpt lat="43.02290766393904" lon="11.514079822183831"><ele>388.7142857142857</ele><time>2026-04-11T14:34:02Z</time></trkpt><trkpt lat="43.02295620007266" lon="11.513996117363686"><ele>389.42857142857144</ele><time>2026-04-11T14:34:06Z</time></trkpt><trkpt lat="43.02300186808538" lon="11.513930442823126"><ele>390.14285714285717</ele><time>2026-04-11T14:34:09Z</time></trkpt><trkpt lat="43.02305528773761" lon="11.51388174060893"><ele>390.8571428571429</ele><time>2026-04-11T14:34:12Z</time></trkpt><trkpt lat="43.023115994731214" lon="11.513832848441243"><ele>391.57142857142856</ele><time>2026-04-11T14:34:15Z</time></trkpt><trkpt lat="43.0231725669582" lon="11.513781948431287"><ele>392.28571428571433</ele><time>2026-04-11T14:34:18Z</time></trkpt><trkpt lat="43.02323056889841" lon="11.513738816834508"><ele>393.0</ele><time>2026-04-11T14:34:21Z</time></trkpt><trkpt lat="43.02330353427288" lon="11.513681292400742"><ele>393.8571428571429</ele><time>2026-04-11T14:34:25Z</time></trkpt><trkpt lat="43.02336138031179" lon="11.513641123683707"><ele>394.7142857142857</ele><time>2026-04-11T14:34:28Z</time></trkpt><trkpt lat="43.023423729338596" lon="11.513602225753841"><ele>395.57142857142856</ele><time>2026-04-11T14:34:31Z</time></trkpt><trkpt lat="43.0234877485193" lon="11.513569638983734"><ele>396.42857142857144</ele><time>2026-04-11T14:34:34Z</time></trkpt><trkpt lat="43.02355321677288" lon="11.513527825271154"><ele>397.2857142857143</ele><time>2026-04-11T14:34:37Z</time></trkpt><trkpt lat="43.02361387502736" lon="11.513483603825506"><ele>398.14285714285717</ele><time>2026-04-11T14:34:40Z</time></trkpt><trkpt lat="43.023687535773384" lon="11.513431778788412"><ele>399.0</ele><time>2026-04-11T14:34:43Z</time></trkpt><trkpt lat="43.02375312819997" lon="11.513387094106463"><ele>399.0</ele><time>2026-04-11T14:34:46Z</time></trkpt><trkpt lat="43.02381080080699" lon="11.51333954785132"><ele>399.0</ele><time>2026-04-11T14:34:49Z</time></trkpt><trkpt lat="43.02389036335569" lon="11.513295077824555"><ele>399.0</ele><time>2026-04-11T14:34:53Z</time></trkpt><trkpt lat="43.023948578536974" lon="11.513257692909557"><ele>399.0</ele><time>2026-04-11T14:34:56Z</time></trkpt><trkpt lat="43.02400800869515" lon="11.513218243407465"><ele>399.0</ele><time>2026-04-11T14:34:59Z</time></trkpt><trkpt lat="43.0240657822446" lon="11.513165626693413"><ele>399.0</ele><time>2026-04-11T14:35:02Z</time></trkpt><trkpt lat="43.02412613948098" lon="11.513124498196358"><ele>399.0</ele><time>2026-04-11T14:35:05Z</time></trkpt><trkpt lat="43.02418147352874" lon="11.513079316474965"><ele>400.2857142857143</ele><time>2026-04-11T14:35:08Z</time></trkpt><trkpt lat="43.02424724593992" lon="11.513047722086505"><ele>401.57142857142856</ele><time>2026-04-11T14:35:11Z</time></trkpt><trkpt lat="43.02431224994936" lon="11.513009669513853"><ele>402.8571428571429</ele><time>2026-04-11T14:35:14Z</time></trkpt><trkpt lat="43.02437498385502" lon="11.512966140081952"><ele>404.1428571428571</ele><time>2026-04-11T14:35:17Z</time></trkpt><trkpt lat="43.02443912630174" lon="11.512927738143922"><ele>405.42857142857144</ele><time>2026-04-11T14:35:20Z</time></trkpt><trkpt lat="43.02451379295396" lon="11.51288721599412"><ele>406.7142857142857</ele><time>2026-04-11T14:35:23Z</time></trkpt><trkpt lat="43.024573550739646" lon="11.512842469462171"><ele>408.0</ele><time>2026-04-11T14:35:26Z</time></trkpt><trkpt lat="43.02463923744575" lon="11.512795740797753"><ele>408.0</ele><time>2026-04-11T14:35:29Z</time></trkpt><trkpt lat="43.02470527584331" lon="11.51275292980143"><ele>408.0</ele><time>2026-04-11T14:35:32Z</time></trkpt><trkpt lat="43.024767749380366" lon="11.512718862280025"><ele>408.0</ele><time>2026-04-11T14:35:35Z</time></trkpt><trkpt lat="43.024842336686596" lon="11.512669774957711"><ele>408.0</ele><time>2026-04-11T14:35:39Z</time></trkpt><trkpt lat="43.024907889910004" lon="11.512625473524077"><ele>408.0</ele><time>2026-04-11T14:35:42Z</time></trkpt><trkpt lat="43.02497699711404" lon="11.512578042589478"><ele>408.0</ele><time>2026-04-11T14:35:45Z</time></trkpt><trkpt lat="43.025035555972984" lon="11.512527341296837"><ele>408.0</ele><time>2026-04-11T14:35:48Z</time></trkpt><trkpt lat="43.02508990008087" lon="11.512479877185577"><ele>409.0</ele><time>2026-04-11T14:35:51Z</time></trkpt><trkpt lat="43.02515387741543" lon="11.512439846594088"><ele>410.0</ele><time>2026-04-11T14:35:54Z</time></trkpt><trkpt lat="43.025199538549934" lon="11.512370519428803"><ele>411.0</ele><time>2026-04-11T14:35:57Z</time></trkpt><trkpt lat="43.02525101434143" lon="11.512315352458165"><ele>412.0</ele><time>2026-04-11T14:36:00Z</time></trkpt><trkpt lat="43.02531265528805" lon="11.512258859583667"><ele>413.0</ele><time>2026-04-11T14:36:03Z</time></trkpt><trkpt lat="43.025367321964204" lon="11.51219779863991"><ele>414.0</ele><time>2026-04-11T14:36:06Z</time></trkpt><trkpt lat="43.02542365938494" lon="11.512140005780536"><ele>415.0</ele><time>2026-04-11T14:36:09Z</time></trkpt><trkpt lat="43.0254718081549" lon="11.512076831980071"><ele>415.0</ele><time>2026-04-11T14:36:12Z</time></trkpt><trkpt lat="43.02552408415986" lon="11.512023944580227"><ele>415.0</ele><time>2026-04-11T14:36:15Z</time></trkpt><trkpt lat="43.025569457728885" lon="11.511960003610858"><ele>415.0</ele><time>2026-04-11T14:36:18Z</time></trkpt><trkpt lat="43.025632244212815" lon="11.511901198271735"><ele>415.0</ele><time>2026-04-11T14:36:22Z</time></trkpt><trkpt lat="43.02568696546933" lon="11.511845343885723"><ele>415.0</ele><time>2026-04-11T14:36:25Z</time></trkpt><trkpt lat="43.025749767404754" lon="11.511788516153231"><ele>415.0</ele><time>2026-04-11T14:36:28Z</time></trkpt><trkpt lat="43.0258083998229" lon="11.511739656047345"><ele>415.0</ele><time>2026-04-11T14:36:31Z</time></trkpt><trkpt lat="43.0258715928592" lon="11.511701650875152"><ele>415.42857142857144</ele><time>2026-04-11T14:36:34Z</time></trkpt><trkpt lat="43.02594221262679" lon="11.51167799299687"><ele>415.8571428571429</ele><time>2026-04-11T14:36:37Z</time></trkpt><trkpt lat="43.02600952549519" lon="11.511652309658485"><ele>416.2857142857143</ele><time>2026-04-11T14:36:40Z</time></trkpt><trkpt lat="43.026073949540496" lon="11.511631111429375"><ele>416.7142857142857</ele><time>2026-04-11T14:36:43Z</time></trkpt><trkpt lat="43.026138269072135" lon="11.511606231148601"><ele>417.1428571428571</ele><time>2026-04-11T14:36:46Z</time></trkpt><trkpt lat="43.026201074741394" lon="11.511582796769083"><ele>417.57142857142856</ele><time>2026-04-11T14:36:49Z</time></trkpt><trkpt lat="43.02626503391671" lon="11.51156875327285"><ele>418.0</ele><time>2026-04-11T14:36:52Z</time></trkpt><trkpt lat="43.02633071998504" lon="11.511548229029794"><ele>418.0</ele><time>2026-04-11T14:36:55Z</time></trkpt><trkpt lat="43.02640820878213" lon="11.511523597226203"><ele>418.0</ele><time>2026-04-11T14:36:59Z</time></trkpt><trkpt lat="43.0264722689321" lon="11.511514548207911"><ele>418.0</ele><time>2026-04-11T14:37:02Z</time></trkpt><trkpt lat="43.02654375721203" lon="11.511503549885813"><ele>418.0</ele><time>2026-04-11T14:37:05Z</time></trkpt><trkpt lat="43.026606585924526" lon="11.511481823434556"><ele>418.0</ele><time>2026-04-11T14:37:08Z</time></trkpt><trkpt lat="43.02667138003667" lon="11.511467231784804"><ele>418.0</ele><time>2026-04-11T14:37:11Z</time></trkpt><trkpt lat="43.026732656215486" lon="11.511440862876878"><ele>418.0</ele><time>2026-04-11T14:37:14Z</time></trkpt><trkpt lat="43.0267896174908" lon="11.511397788146056"><ele>418.50000000000006</ele><time>2026-04-11T14:37:17Z</time></trkpt><trkpt lat="43.02684470133559" lon="11.511351237744169"><ele>419.0</ele><time>2026-04-11T14:37:20Z</time></trkpt><trkpt lat="43.02689048766748" lon="11.511260901568875"><ele>419.5</ele><time>2026-04-11T14:37:24Z</time></trkpt><trkpt lat="43.02693178405348" lon="11.511157286681787"><ele>420.0</ele><time>2026-04-11T14:37:28Z</time></trkpt><trkpt lat="43.026971655216954" lon="11.511073437317261"><ele>420.50000000000006</ele><time>2026-04-11T14:37:32Z</time></trkpt><trkpt lat="43.0270099693183" lon="11.510987322951035"><ele>421.0</ele><time>2026-04-11T14:37:35Z</time></trkpt><trkpt lat="43.027058165118774" lon="11.51090944969081"><ele>421.00000000000006</ele><time>2026-04-11T14:37:38Z</time></trkpt><trkpt lat="43.02712132186399" lon="11.510802725967213"><ele>421.0</ele><time>2026-04-11T14:37:41Z</time></trkpt><trkpt lat="43.027180380977114" lon="11.51072367947252"><ele>421.0</ele><time>2026-04-11T14:37:44Z</time></trkpt><trkpt lat="43.027243713535604" lon="11.510653215315058"><ele>421.0</ele><time>2026-04-11T14:37:48Z</time></trkpt><trkpt lat="43.02730228258239" lon="11.510597643560875"><ele>421.00000000000006</ele><time>2026-04-11T14:37:51Z</time></trkpt><trkpt lat="43.02736018751665" lon="11.51054553253526"><ele>421.0</ele><time>2026-04-11T14:37:54Z</time></trkpt><trkpt lat="43.027422170978" lon="11.510487199972077"><ele>422.50000000000006</ele><time>2026-04-11T14:37:57Z</time></trkpt><trkpt lat="43.02748765078364" lon="11.510411201786306"><ele>424.0</ele><time>2026-04-11T14:38:00Z</time></trkpt><trkpt lat="43.027545048688374" lon="11.510344303777947"><ele>425.5</ele><time>2026-04-11T14:38:03Z</time></trkpt><trkpt lat="43.02760268243031" lon="11.510285613519846"><ele>427.0</ele><time>2026-04-11T14:38:06Z</time></trkpt><trkpt lat="43.02766508932582" lon="11.510225629617244"><ele>428.50000000000006</ele><time>2026-04-11T14:38:09Z</time></trkpt><trkpt lat="43.02771416706193" lon="11.510153706431709"><ele>430.0</ele><time>2026-04-11T14:38:12Z</time></trkpt><trkpt lat="43.027768174956485" lon="11.510087297462787"><ele>430.00000000000006</ele><time>2026-04-11T14:38:15Z</time></trkpt><trkpt lat="43.02781384039397" lon="11.510008203107182"><ele>430.0</ele><time>2026-04-11T14:38:18Z</time></trkpt><trkpt lat="43.02786940022291" lon="11.509927826628996"><ele>430.0</ele><time>2026-04-11T14:38:21Z</time></trkpt><trkpt lat="43.02792516806247" lon="11.50984786024204"><ele>430.0</ele><time>2026-04-11T14:38:24Z</time></trkpt><trkpt lat="43.02797343083201" lon="11.509766337676286"><ele>430.00000000000006</ele><time>2026-04-11T14:38:27Z</time></trkpt><trkpt lat="43.02803212161717" lon="11.509695553464036"><ele>430.0</ele><time>2026-04-11T14:38:30Z</time></trkpt><trkpt lat="43.02808387996472" lon="11.509610888184369"><ele>428.83333333333337</ele><time>2026-04-11T14:38:33Z</time></trkpt><trkpt lat="43.028135861244905" lon="11.509524219665886"><ele>427.6666666666667</ele><time>2026-04-11T14:38:36Z</time></trkpt><trkpt lat="43.028190347486124" lon="11.509450765787445"><ele>426.5</ele><time>2026-04-11T14:38:39Z</time></trkpt><trkpt lat="43.02825462679296" lon="11.509387125068372"><ele>425.33333333333337</ele><time>2026-04-11T14:38:42Z</time></trkpt><trkpt lat="43.02834606934898" lon="11.509293444836125"><ele>424.1666666666667</ele><time>2026-04-11T14:38:45Z</time></trkpt><trkpt lat="43.02840508145417" lon="11.509253282127865"><ele>423.0</ele><time>2026-04-11T14:38:47Z</time></trkpt><trkpt lat="43.02846407167427" lon="11.50920982025252"><ele>425.1428571428571</ele><time>2026-04-11T14:38:49Z</time></trkpt><trkpt lat="43.02851949475906" lon="11.509166985807024"><ele>427.28571428571433</ele><time>2026-04-11T14:38:51Z</time></trkpt><trkpt lat="43.02857420513215" lon="11.509117009521942"><ele>429.42857142857144</ele><time>2026-04-11T14:38:54Z</time></trkpt><trkpt lat="43.028635657739606" lon="11.509060082379458"><ele>431.57142857142856</ele><time>2026-04-11T14:38:57Z</time></trkpt><trkpt lat="43.02870153175103" lon="11.509004441083286"><ele>433.71428571428567</ele><time>2026-04-11T14:39:00Z</time></trkpt><trkpt lat="43.02877106986384" lon="11.508954947372185"><ele>435.8571428571429</ele><time>2026-04-11T14:39:03Z</time></trkpt><trkpt lat="43.02883748566401" lon="11.508907121285649"><ele>438.0</ele><time>2026-04-11T14:39:06Z</time></trkpt><trkpt lat="43.02891356738985" lon="11.508853305187264"><ele>438.0</ele><time>2026-04-11T14:39:09Z</time></trkpt><trkpt lat="43.02898918518213" lon="11.508793281417717"><ele>438.0</ele><time>2026-04-11T14:39:12Z</time></trkpt><trkpt lat="43.029052077047915" lon="11.50874162604703"><ele>438.0</ele><time>2026-04-11T14:39:15Z</time></trkpt><trkpt lat="43.02910989339499" lon="11.50869545366468"><ele>438.0</ele><time>2026-04-11T14:39:17Z</time></trkpt><trkpt lat="43.029168539502855" lon="11.508645645185704"><ele>438.0</ele><time>2026-04-11T14:39:21Z</time></trkpt><trkpt lat="43.029258048651876" lon="11.508585963092372"><ele>438.0</ele><time>2026-04-11T14:39:24Z</time></trkpt><trkpt lat="43.02933402244934" lon="11.508515161350402"><ele>438.0</ele><time>2026-04-11T14:39:27Z</time></trkpt><trkpt lat="43.02941895233668" lon="11.508464220785614"><ele>438.0</ele><time>2026-04-11T14:39:30Z</time></trkpt><trkpt lat="43.02949351691071" lon="11.508404361140885"><ele>438.0</ele><time>2026-04-11T14:39:33Z</time></trkpt><trkpt lat="43.02954617900655" lon="11.508357014561554"><ele>438.0</ele><time>2026-04-11T14:39:36Z</time></trkpt><trkpt lat="43.02960838702005" lon="11.50830810650167"><ele>438.0</ele><time>2026-04-11T14:39:39Z</time></trkpt><trkpt lat="43.02967832445121" lon="11.508252285315251"><ele>438.0</ele><time>2026-04-11T14:39:42Z</time></trkpt><trkpt lat="43.0297492226935" lon="11.508204804185363"><ele>438.0</ele><time>2026-04-11T14:39:45Z</time></trkpt><trkpt lat="43.029815354391616" lon="11.508141335290565"><ele>438.0</ele><time>2026-04-11T14:39:48Z</time></trkpt><trkpt lat="43.029908323640576" lon="11.508069464370863"><ele>438.0</ele><time>2026-04-11T14:39:51Z</time></trkpt><trkpt lat="43.029978834509" lon="11.508019641837935"><ele>438.0</ele><time>2026-04-11T14:39:54Z</time></trkpt><trkpt lat="43.03005556767971" lon="11.50795476137812"><ele>438.0</ele><time>2026-04-11T14:39:57Z</time></trkpt><trkpt lat="43.03012533935535" lon="11.507901656287892"><ele>438.0</ele><time>2026-04-11T14:40:01Z</time></trkpt><trkpt lat="43.030189055866956" lon="11.50785503836176"><ele>438.3333333333333</ele><time>2026-04-11T14:40:04Z</time></trkpt><trkpt lat="43.03026552487002" lon="11.507805365490047"><ele>438.66666666666663</ele><time>2026-04-11T14:40:06Z</time></trkpt><trkpt lat="43.03032421724931" lon="11.507764530192405"><ele>439.0</ele><time>2026-04-11T14:40:08Z</time></trkpt><trkpt lat="43.03037973068662" lon="11.507722771147089"><ele>439.3333333333333</ele><time>2026-04-11T14:40:10Z</time></trkpt><trkpt lat="43.03046122268334" lon="11.507671518133566"><ele>439.66666666666663</ele><time>2026-04-11T14:40:13Z</time></trkpt><trkpt lat="43.030541537578046" lon="11.507611532288971"><ele>440.0</ele><time>2026-04-11T14:40:16Z</time></trkpt><trkpt lat="43.03060224129281" lon="11.507587043104143"><ele>439.99999999999994</ele><time>2026-04-11T14:40:19Z</time></trkpt><trkpt lat="43.03067799636311" lon="11.507549754542312"><ele>440.0</ele><time>2026-04-11T14:40:22Z</time></trkpt><trkpt lat="43.030763097819765" lon="11.507526107088127"><ele>440.0</ele><time>2026-04-11T14:40:25Z</time></trkpt><trkpt lat="43.030850579162895" lon="11.50750690502429"><ele>440.0</ele><time>2026-04-11T14:40:28Z</time></trkpt><trkpt lat="43.03094277026831" lon="11.507506691248176"><ele>439.99999999999994</ele><time>2026-04-11T14:40:31Z</time></trkpt><trkpt lat="43.03103989953832" lon="11.507508080222177"><ele>440.0</ele><time>2026-04-11T14:40:34Z</time></trkpt><trkpt lat="43.031152882850215" lon="11.50750689354982"><ele>441.6</ele><time>2026-04-11T14:40:37Z</time></trkpt><trkpt lat="43.03123465949577" lon="11.507509746649262"><ele>443.2</ele><time>2026-04-11T14:40:40Z</time></trkpt><trkpt lat="43.03134349469189" lon="11.507518671511477"><ele>444.79999999999995</ele><time>2026-04-11T14:40:43Z</time></trkpt><trkpt lat="43.03144922879706" lon="11.50754039768226"><ele>446.4</ele><time>2026-04-11T14:40:46Z</time></trkpt><trkpt lat="43.03153364769177" lon="11.507556270936357"><ele>448.0</ele><time>2026-04-11T14:40:49Z</time></trkpt><trkpt lat="43.03162346349478" lon="11.507569217139839"><ele>448.6666666666667</ele><time>2026-04-11T14:40:52Z</time></trkpt><trkpt lat="43.03171560118707" lon="11.507572120255116"><ele>449.33333333333337</ele><time>2026-04-11T14:40:55Z</time></trkpt><trkpt lat="43.03180733147109" lon="11.50755826642119"><ele>450.0</ele><time>2026-04-11T14:40:58Z</time></trkpt><trkpt lat="43.03190700583576" lon="11.507563695210258"><ele>450.66666666666663</ele><time>2026-04-11T14:41:01Z</time></trkpt><trkpt lat="43.0319744276173" lon="11.507571041129848"><ele>451.3333333333333</ele><time>2026-04-11T14:41:03Z</time></trkpt><trkpt lat="43.03204004311971" lon="11.507581722927762"><ele>452.0</ele><time>2026-04-11T14:41:05Z</time></trkpt><trkpt lat="43.03210625741169" lon="11.507588926590005"><ele>451.99999999999994</ele><time>2026-04-11T14:41:07Z</time></trkpt><trkpt lat="43.032198820284314" lon="11.507596824687255"><ele>452.0</ele><time>2026-04-11T14:41:10Z</time></trkpt><trkpt lat="43.03229056705951" lon="11.507586030525708"><ele>452.0</ele><time>2026-04-11T14:41:13Z</time></trkpt><trkpt lat="43.03235379332008" lon="11.50758731973361"><ele>452.0</ele><time>2026-04-11T14:41:15Z</time></trkpt><trkpt lat="43.03243616147252" lon="11.50756298644999"><ele>451.99999999999994</ele><time>2026-04-11T14:41:18Z</time></trkpt><trkpt lat="43.03250798545711" lon="11.5075495849506"><ele>452.0</ele><time>2026-04-11T14:41:20Z</time></trkpt><trkpt lat="43.03257876646442" lon="11.507522274418845"><ele>452.66666666666663</ele><time>2026-04-11T14:41:22Z</time></trkpt><trkpt lat="43.0326440342607" lon="11.50748667087193"><ele>453.3333333333333</ele><time>2026-04-11T14:41:24Z</time></trkpt><trkpt lat="43.03273649324952" lon="11.507419310834681"><ele>454.0</ele><time>2026-04-11T14:41:27Z</time></trkpt><trkpt lat="43.0327960213799" lon="11.507350829897087"><ele>454.66666666666663</ele><time>2026-04-11T14:41:30Z</time></trkpt><trkpt lat="43.032850936931474" lon="11.507282379120278"><ele>455.3333333333333</ele><time>2026-04-11T14:41:32Z</time></trkpt><trkpt lat="43.03291765629384" lon="11.507205550888058"><ele>456.0</ele><time>2026-04-11T14:41:35Z</time></trkpt><trkpt lat="43.03299478503902" lon="11.507111746730576"><ele>454.5</ele><time>2026-04-11T14:41:38Z</time></trkpt><trkpt lat="43.033062775398356" lon="11.50701934607813"><ele>453.0</ele><time>2026-04-11T14:41:41Z</time></trkpt><trkpt lat="43.033122236297544" lon="11.506946312827694"><ele>451.5</ele><time>2026-04-11T14:41:43Z</time></trkpt><trkpt lat="43.03318143853637" lon="11.506860019133871"><ele>450.0</ele><time>2026-04-11T14:41:46Z</time></trkpt><trkpt lat="43.03323758833243" lon="11.506772799093353"><ele>448.5</ele><time>2026-04-11T14:41:49Z</time></trkpt><trkpt lat="43.033297007526414" lon="11.506678209594341"><ele>447.0</ele><time>2026-04-11T14:41:52Z</time></trkpt><trkpt lat="43.033357678436765" lon="11.506589642137016"><ele>448.6666666666667</ele><time>2026-04-11T14:41:54Z</time></trkpt><trkpt lat="43.03342208117866" lon="11.506505685806145"><ele>450.33333333333337</ele><time>2026-04-11T14:41:57Z</time></trkpt><trkpt lat="43.03347482531166" lon="11.506430826137299"><ele>452.0</ele><time>2026-04-11T14:41:59Z</time></trkpt><trkpt lat="43.033517400884236" lon="11.506361568003737"><ele>453.6666666666667</ele><time>2026-04-11T14:42:01Z</time></trkpt><trkpt lat="43.033572061531935" lon="11.506279368972484"><ele>455.33333333333337</ele><time>2026-04-11T14:42:04Z</time></trkpt><trkpt lat="43.03365004988118" lon="11.50617117016878"><ele>457.0</ele><time>2026-04-11T14:42:08Z</time></trkpt><trkpt lat="43.03369880892051" lon="11.506079749088604"><ele>457.00000000000006</ele><time>2026-04-11T14:42:11Z</time></trkpt><trkpt lat="43.03373860624131" lon="11.506012985292614"><ele>457.0</ele><time>2026-04-11T14:42:13Z</time></trkpt><trkpt lat="43.03378618918757" lon="11.505944994726159"><ele>457.0</ele><time>2026-04-11T14:42:15Z</time></trkpt><trkpt lat="43.03384460152217" lon="11.505847279428293"><ele>457.0</ele><time>2026-04-11T14:42:18Z</time></trkpt><trkpt lat="43.033896428631174" lon="11.50574696049356"><ele>457.00000000000006</ele><time>2026-04-11T14:42:21Z</time></trkpt><trkpt lat="43.03394846549227" lon="11.505682828242902"><ele>457.0</ele><time>2026-04-11T14:42:25Z</time></trkpt><trkpt lat="43.03399374033304" lon="11.505598966966831"><ele>457.00000000000006</ele><time>2026-04-11T14:42:29Z</time></trkpt><trkpt lat="43.03405342833245" lon="11.505530876800215"><ele>457.0</ele><time>2026-04-11T14:42:33Z</time></trkpt><trkpt lat="43.034104537130254" lon="11.505478560663883"><ele>457.0</ele><time>2026-04-11T14:42:36Z</time></trkpt><trkpt lat="43.03415471601017" lon="11.505389943604497"><ele>457.0</ele><time>2026-04-11T14:42:40Z</time></trkpt><trkpt lat="43.03420500979693" lon="11.5053096931149"><ele>457.00000000000006</ele><time>2026-04-11T14:42:43Z</time></trkpt><trkpt lat="43.034275476580156" lon="11.505235350247585"><ele>457.0</ele><time>2026-04-11T14:42:46Z</time></trkpt><trkpt lat="43.03433032407372" lon="11.505173872425178"><ele>458.00000000000006</ele><time>2026-04-11T14:42:48Z</time></trkpt><trkpt lat="43.03438945289046" lon="11.505115485104712"><ele>459.0</ele><time>2026-04-11T14:42:50Z</time></trkpt><trkpt lat="43.03444928651204" lon="11.505051284823944"><ele>460.00000000000006</ele><time>2026-04-11T14:42:52Z</time></trkpt><trkpt lat="43.03450428520969" lon="11.5049973349046"><ele>461.00000000000006</ele><time>2026-04-11T14:42:54Z</time></trkpt><trkpt lat="43.034572187494746" lon="11.504931049444979"><ele>462.0</ele><time>2026-04-11T14:42:57Z</time></trkpt><trkpt lat="43.034634924911565" lon="11.504868688834437"><ele>463.00000000000006</ele><time>2026-04-11T14:43:00Z</time></trkpt><trkpt lat="43.03468999349618" lon="11.504813348556674"><ele>464.00000000000006</ele><time>2026-04-11T14:43:02Z</time></trkpt><trkpt lat="43.03476199487876" lon="11.504737126519618"><ele>464.00000000000006</ele><time>2026-04-11T14:43:05Z</time></trkpt><trkpt lat="43.03482364445031" lon="11.504673800490014"><ele>464.0</ele><time>2026-04-11T14:43:08Z</time></trkpt><trkpt lat="43.0348770805533" lon="11.5046229584142"><ele>464.00000000000006</ele><time>2026-04-11T14:43:10Z</time></trkpt><trkpt lat="43.034931865583665" lon="11.504568565808313"><ele>464.00000000000006</ele><time>2026-04-11T14:43:12Z</time></trkpt><trkpt lat="43.03498348953944" lon="11.504510906824004"><ele>464.0</ele><time>2026-04-11T14:43:14Z</time></trkpt><trkpt lat="43.03503750994753" lon="11.504445124138604"><ele>464.00000000000006</ele><time>2026-04-11T14:43:16Z</time></trkpt><trkpt lat="43.035091597851526" lon="11.504388337038897"><ele>464.00000000000006</ele><time>2026-04-11T14:43:18Z</time></trkpt><trkpt lat="43.03515192783579" lon="11.504331013621076"><ele>464.16666666666663</ele><time>2026-04-11T14:43:20Z</time></trkpt><trkpt lat="43.03521283521179" lon="11.50427088709506"><ele>464.3333333333333</ele><time>2026-04-11T14:43:22Z</time></trkpt><trkpt lat="43.03527786622522" lon="11.50418929539489"><ele>464.5</ele><time>2026-04-11T14:43:25Z</time></trkpt><trkpt lat="43.0353425698269" lon="11.50414515042534"><ele>464.66666666666663</ele><time>2026-04-11T14:43:28Z</time></trkpt><trkpt lat="43.035410372821325" lon="11.50405864096956"><ele>464.8333333333333</ele><time>2026-04-11T14:43:31Z</time></trkpt><trkpt lat="43.03545635830119" lon="11.503999447128024"><ele>465.0</ele><time>2026-04-11T14:43:33Z</time></trkpt><trkpt lat="43.0355150036967" lon="11.503952782832853"><ele>465.0</ele><time>2026-04-11T14:43:35Z</time></trkpt><trkpt lat="43.03556917616276" lon="11.503896279184252"><ele>465.0</ele><time>2026-04-11T14:43:37Z</time></trkpt><trkpt lat="43.03562764155594" lon="11.503846061457406"><ele>465.0</ele><time>2026-04-11T14:43:39Z</time></trkpt><trkpt lat="43.03568632395375" lon="11.503793997404888"><ele>465.0</ele><time>2026-04-11T14:43:41Z</time></trkpt><trkpt lat="43.035766273697" lon="11.503758885378577"><ele>465.0</ele><time>2026-04-11T14:43:44Z</time></trkpt><trkpt lat="43.03584503968663" lon="11.503731264015073"><ele>465.0</ele><time>2026-04-11T14:43:47Z</time></trkpt><trkpt lat="43.03592933708833" lon="11.503714725209708"><ele>464.3333333333333</ele><time>2026-04-11T14:43:50Z</time></trkpt><trkpt lat="43.036019104434715" lon="11.503720178399634"><ele>463.66666666666663</ele><time>2026-04-11T14:43:53Z</time></trkpt><trkpt lat="43.03610733452169" lon="11.503729078515697"><ele>463.0</ele><time>2026-04-11T14:43:56Z</time></trkpt><trkpt lat="43.03618673041728" lon="11.503759078401153"><ele>462.3333333333333</ele><time>2026-04-11T14:43:59Z</time></trkpt><trkpt lat="43.036245444614465" lon="11.503790326548284"><ele>461.66666666666663</ele><time>2026-04-11T14:44:01Z</time></trkpt><trkpt lat="43.036308849769696" lon="11.50381398362936"><ele>461.0</ele><time>2026-04-11T14:44:03Z</time></trkpt><trkpt lat="43.03639672083657" lon="11.503822695700991"><ele>463.49999999999994</ele><time>2026-04-11T14:44:06Z</time></trkpt><trkpt lat="43.03648270121153" lon="11.503862137811133"><ele>466.0</ele><time>2026-04-11T14:44:09Z</time></trkpt><trkpt lat="43.03657348145269" lon="11.503862707047492"><ele>468.5</ele><time>2026-04-11T14:44:13Z</time></trkpt><trkpt lat="43.03664816385326" lon="11.503888345971628"><ele>471.0</ele><time>2026-04-11T14:44:15Z</time></trkpt><trkpt lat="43.036710493627034" lon="11.503905380509138"><ele>473.49999999999994</ele><time>2026-04-11T14:44:17Z</time></trkpt><trkpt lat="43.03677390042834" lon="11.503918341690254"><ele>476.0</ele><time>2026-04-11T14:44:19Z</time></trkpt><trkpt lat="43.0368672375407" lon="11.503946335815625"><ele>476.57142857142856</ele><time>2026-04-11T14:44:22Z</time></trkpt><trkpt lat="43.03693529753435" lon="11.503948498003654"><ele>477.1428571428571</ele><time>2026-04-11T14:44:24Z</time></trkpt><trkpt lat="43.0370049289219" lon="11.50394370094676"><ele>477.7142857142857</ele><time>2026-04-11T14:44:26Z</time></trkpt><trkpt lat="43.03707580676537" lon="11.503937581720363"><ele>478.2857142857143</ele><time>2026-04-11T14:44:28Z</time></trkpt><trkpt lat="43.03714702778858" lon="11.503918187635236"><ele>478.85714285714283</ele><time>2026-04-11T14:44:30Z</time></trkpt><trkpt lat="43.03722082491899" lon="11.503878197846836"><ele>479.42857142857144</ele><time>2026-04-11T14:44:32Z</time></trkpt><trkpt lat="43.037296604991305" lon="11.503831233239296"><ele>480.0</ele><time>2026-04-11T14:44:34Z</time></trkpt><trkpt lat="43.037369984806254" lon="11.503770960762179"><ele>478.8333333333333</ele><time>2026-04-11T14:44:36Z</time></trkpt><trkpt lat="43.03743197292753" lon="11.503720430851747"><ele>477.66666666666663</ele><time>2026-04-11T14:44:38Z</time></trkpt><trkpt lat="43.03751578630585" lon="11.503664158557518"><ele>476.5</ele><time>2026-04-11T14:44:41Z</time></trkpt><trkpt lat="43.037584831802484" lon="11.503610512389804"><ele>475.3333333333333</ele><time>2026-04-11T14:44:43Z</time></trkpt><trkpt lat="43.03764914485781" lon="11.503559740448797"><ele>474.16666666666663</ele><time>2026-04-11T14:44:45Z</time></trkpt><trkpt lat="43.037715896394275" lon="11.503511997301112"><ele>473.0</ele><time>2026-04-11T14:44:47Z</time></trkpt><trkpt lat="43.03778428002704" lon="11.503462142387377"><ele>472.99999999999994</ele><time>2026-04-11T14:44:49Z</time></trkpt><trkpt lat="43.037844757359565" lon="11.5034037076914"><ele>473.0</ele><time>2026-04-11T14:44:51Z</time></trkpt><trkpt lat="43.03791272016914" lon="11.503353833181402"><ele>473.0</ele><time>2026-04-11T14:44:53Z</time></trkpt><trkpt lat="43.037987592782166" lon="11.50329996893094"><ele>473.0</ele><time>2026-04-11T14:44:56Z</time></trkpt><trkpt lat="43.03805584661648" lon="11.503245629007262"><ele>472.99999999999994</ele><time>2026-04-11T14:44:58Z</time></trkpt><trkpt lat="43.03812822927574" lon="11.503192962674236"><ele>473.0</ele><time>2026-04-11T14:45:00Z</time></trkpt><trkpt lat="43.03819186346827" lon="11.503144171993107"><ele>474.25</ele><time>2026-04-11T14:45:02Z</time></trkpt><trkpt lat="43.03835446176608" lon="11.5030289731429"><ele>475.5</ele><time>2026-04-11T14:45:05Z</time></trkpt><trkpt lat="43.038430938507425" lon="11.502969317473726"><ele>476.75</ele><time>2026-04-11T14:45:07Z</time></trkpt><trkpt lat="43.03851255371662" lon="11.502915214513044"><ele>478.0</ele><time>2026-04-11T14:45:09Z</time></trkpt><trkpt lat="43.03858239428946" lon="11.50283881259123"><ele>478.00000000000006</ele><time>2026-04-11T14:45:11Z</time></trkpt><trkpt lat="43.038657056891914" lon="11.502772062387141"><ele>478.0</ele><time>2026-04-11T14:45:13Z</time></trkpt><trkpt lat="43.03873525843535" lon="11.502729346323575"><ele>478.0</ele><time>2026-04-11T14:45:15Z</time></trkpt><trkpt lat="43.0388219667024" lon="11.50266853786517"><ele>478.0</ele><time>2026-04-11T14:45:17Z</time></trkpt><trkpt lat="43.03889703441221" lon="11.502614238714612"><ele>478.00000000000006</ele><time>2026-04-11T14:45:19Z</time></trkpt><trkpt lat="43.0389622638108" lon="11.50256738348582"><ele>478.0</ele><time>2026-04-11T14:45:21Z</time></trkpt><trkpt lat="43.039044657687825" lon="11.502489718710814"><ele>478.00000000000006</ele><time>2026-04-11T14:45:24Z</time></trkpt><trkpt lat="43.03912562578086" lon="11.5024029491832"><ele>478.0</ele><time>2026-04-11T14:45:27Z</time></trkpt><trkpt lat="43.03919464457378" lon="11.502343264506761"><ele>478.0</ele><time>2026-04-11T14:45:29Z</time></trkpt><trkpt lat="43.03924802785831" lon="11.502274481442472"><ele>478.0</ele><time>2026-04-11T14:45:31Z</time></trkpt><trkpt lat="43.03930771332482" lon="11.502199132134349"><ele>478.00000000000006</ele><time>2026-04-11T14:45:33Z</time></trkpt><trkpt lat="43.03936151150962" lon="11.502123477584075"><ele>478.0</ele><time>2026-04-11T14:45:35Z</time></trkpt><trkpt lat="43.039405911629714" lon="11.502046963885913"><ele>478.33333333333337</ele><time>2026-04-11T14:45:37Z</time></trkpt><trkpt lat="43.03944810444256" lon="11.50195829361842"><ele>478.6666666666667</ele><time>2026-04-11T14:45:40Z</time></trkpt><trkpt lat="43.03949148481467" lon="11.50187288233139"><ele>479.0</ele><time>2026-04-11T14:45:42Z</time></trkpt><trkpt lat="43.039540662979284" lon="11.501792306244495"><ele>479.33333333333337</ele><time>2026-04-11T14:45:44Z</time></trkpt><trkpt lat="43.03958931993544" lon="11.501713187294007"><ele>479.6666666666667</ele><time>2026-04-11T14:45:46Z</time></trkpt><trkpt lat="43.0396347139707" lon="11.501624737201372"><ele>480.0</ele><time>2026-04-11T14:45:48Z</time></trkpt><trkpt lat="43.03968729069877" lon="11.501542890340298"><ele>480.0</ele><time>2026-04-11T14:45:50Z</time></trkpt><trkpt lat="43.039734055319094" lon="11.501459958883503"><ele>480.0</ele><time>2026-04-11T14:45:52Z</time></trkpt><trkpt lat="43.03977715506754" lon="11.501374156168833"><ele>480.0</ele><time>2026-04-11T14:45:54Z</time></trkpt><trkpt lat="43.039830814920016" lon="11.5012889423375"><ele>480.0</ele><time>2026-04-11T14:45:56Z</time></trkpt><trkpt lat="43.039873332882436" lon="11.501214347336276"><ele>480.0</ele><time>2026-04-11T14:45:58Z</time></trkpt><trkpt lat="43.03990691311227" lon="11.501132935737763"><ele>480.0</ele><time>2026-04-11T14:46:00Z</time></trkpt><trkpt lat="43.03995419896892" lon="11.50104793491996"><ele>480.14285714285717</ele><time>2026-04-11T14:46:02Z</time></trkpt><trkpt lat="43.040003376511336" lon="11.50096167663195"><ele>480.2857142857142</ele><time>2026-04-11T14:46:04Z</time></trkpt><trkpt lat="43.04004938173516" lon="11.500879506388248"><ele>480.4285714285714</ele><time>2026-04-11T14:46:06Z</time></trkpt><trkpt lat="43.04008489619225" lon="11.500807469866555"><ele>480.57142857142856</ele><time>2026-04-11T14:46:08Z</time></trkpt><trkpt lat="43.040128732461476" lon="11.500722454309928"><ele>480.71428571428567</ele><time>2026-04-11T14:46:10Z</time></trkpt><trkpt lat="43.04016775885343" lon="11.500637036499521"><ele>480.8571428571428</ele><time>2026-04-11T14:46:12Z</time></trkpt><trkpt lat="43.04021945469835" lon="11.500553159209522"><ele>480.99999999999994</ele><time>2026-04-11T14:46:14Z</time></trkpt><trkpt lat="43.040269932951844" lon="11.500466054288486"><ele>480.6666666666667</ele><time>2026-04-11T14:46:16Z</time></trkpt><trkpt lat="43.040318260826204" lon="11.500373393369127"><ele>480.33333333333337</ele><time>2026-04-11T14:46:18Z</time></trkpt><trkpt lat="43.04036611212939" lon="11.500279022249746"><ele>480.0</ele><time>2026-04-11T14:46:20Z</time></trkpt><trkpt lat="43.04041835941233" lon="11.500194166139654"><ele>479.66666666666663</ele><time>2026-04-11T14:46:22Z</time></trkpt><trkpt lat="43.04046223721664" lon="11.50011078545841"><ele>479.3333333333333</ele><time>2026-04-11T14:46:24Z</time></trkpt><trkpt lat="43.04050780084738" lon="11.500027193226721"><ele>479.0</ele><time>2026-04-11T14:46:26Z</time></trkpt><trkpt lat="43.04055226852422" lon="11.499945946418489"><ele>479.0</ele><time>2026-04-11T14:46:28Z</time></trkpt><trkpt lat="43.04059523146577" lon="11.499862362145462"><ele>479.0</ele><time>2026-04-11T14:46:30Z</time></trkpt><trkpt lat="43.040636607517634" lon="11.499782338828041"><ele>479.0</ele><time>2026-04-11T14:46:32Z</time></trkpt><trkpt lat="43.040676613483676" lon="11.499705460577056"><ele>479.0</ele><time>2026-04-11T14:46:34Z</time></trkpt><trkpt lat="43.040724846748795" lon="11.499624701819066"><ele>479.0</ele><time>2026-04-11T14:46:36Z</time></trkpt><trkpt lat="43.04076741544951" lon="11.499545173478882"><ele>479.0</ele><time>2026-04-11T14:46:38Z</time></trkpt><trkpt lat="43.040820052414055" lon="11.499459361060623"><ele>479.0</ele><time>2026-04-11T14:46:41Z</time></trkpt><trkpt lat="43.040867804011484" lon="11.499360011748031"><ele>479.8333333333333</ele><time>2026-04-11T14:46:44Z</time></trkpt><trkpt lat="43.040914689015295" lon="11.499276297601396"><ele>480.66666666666663</ele><time>2026-04-11T14:46:46Z</time></trkpt><trkpt lat="43.040970720128776" lon="11.499188216676364"><ele>481.5</ele><time>2026-04-11T14:46:48Z</time></trkpt><trkpt lat="43.04101867486353" lon="11.499101622615225"><ele>482.33333333333337</ele><time>2026-04-11T14:46:50Z</time></trkpt><trkpt lat="43.04105843174795" lon="11.49901813058348"><ele>483.1666666666667</ele><time>2026-04-11T14:46:52Z</time></trkpt><trkpt lat="43.04110350410954" lon="11.498927752346738"><ele>484.0</ele><time>2026-04-11T14:46:54Z</time></trkpt><trkpt lat="43.0411477279849" lon="11.498847662623714"><ele>484.00000000000006</ele><time>2026-04-11T14:46:56Z</time></trkpt><trkpt lat="43.04119043077174" lon="11.498771824886262"><ele>484.0</ele><time>2026-04-11T14:46:58Z</time></trkpt><trkpt lat="43.041229155991246" lon="11.498703486910397"><ele>484.0</ele><time>2026-04-11T14:47:00Z</time></trkpt><trkpt lat="43.041278424701915" lon="11.498613897864011"><ele>484.0</ele><time>2026-04-11T14:47:04Z</time></trkpt><trkpt lat="43.04131972024367" lon="11.49852329314374"><ele>484.00000000000006</ele><time>2026-04-11T14:47:06Z</time></trkpt><trkpt lat="43.041382054507466" lon="11.498422664689961"><ele>484.0</ele><time>2026-04-11T14:47:08Z</time></trkpt><trkpt lat="43.04142793176207" lon="11.498335587371885"><ele>484.0</ele><time>2026-04-11T14:47:10Z</time></trkpt><trkpt lat="43.04147108148204" lon="11.498256798369342"><ele>483.99999999999994</ele><time>2026-04-11T14:47:12Z</time></trkpt><trkpt lat="43.041513027064454" lon="11.49818762668173"><ele>484.0</ele><time>2026-04-11T14:47:14Z</time></trkpt><trkpt lat="43.041550186156165" lon="11.498108628988607"><ele>484.0</ele><time>2026-04-11T14:47:16Z</time></trkpt><trkpt lat="43.04159694210702" lon="11.498033168840957"><ele>483.99999999999994</ele><time>2026-04-11T14:47:18Z</time></trkpt><trkpt lat="43.04163415396514" lon="11.497953820413102"><ele>484.0</ele><time>2026-04-11T14:47:20Z</time></trkpt><trkpt lat="43.041677808047254" lon="11.497866870625286"><ele>484.0</ele><time>2026-04-11T14:47:23Z</time></trkpt><trkpt lat="43.04172401310461" lon="11.497781431261798"><ele>484.83333333333337</ele><time>2026-04-11T14:47:26Z</time></trkpt><trkpt lat="43.04176547400316" lon="11.497695034420564"><ele>485.6666666666667</ele><time>2026-04-11T14:47:29Z</time></trkpt><trkpt lat="43.04181231399605" lon="11.49762420966851"><ele>486.5</ele><time>2026-04-11T14:47:31Z</time></trkpt><trkpt lat="43.041869227150976" lon="11.497531986650285"><ele>487.33333333333337</ele><time>2026-04-11T14:47:34Z</time></trkpt><trkpt lat="43.041932355472944" lon="11.49744286966802"><ele>488.1666666666667</ele><time>2026-04-11T14:47:37Z</time></trkpt><trkpt lat="43.041987755503726" lon="11.497376488128358"><ele>489.0</ele><time>2026-04-11T14:47:39Z</time></trkpt><trkpt lat="43.04204049109748" lon="11.497322019476675"><ele>489.0</ele><time>2026-04-11T14:47:41Z</time></trkpt><trkpt lat="43.042101818344726" lon="11.49724365097141"><ele>489.0</ele><time>2026-04-11T14:47:44Z</time></trkpt><trkpt lat="43.042169589649376" lon="11.497180853025155"><ele>489.0</ele><time>2026-04-11T14:47:47Z</time></trkpt><trkpt lat="43.04223962667444" lon="11.497110346516884"><ele>489.0</ele><time>2026-04-11T14:47:50Z</time></trkpt><trkpt lat="43.042296547728206" lon="11.49706834917976"><ele>489.0</ele><time>2026-04-11T14:47:52Z</time></trkpt><trkpt lat="43.04236685406133" lon="11.497005964436118"><ele>489.0</ele><time>2026-04-11T14:47:55Z</time></trkpt><trkpt lat="43.042427756585404" lon="11.496984102368542"><ele>490.14285714285717</ele><time>2026-04-11T14:47:57Z</time></trkpt><trkpt lat="43.042509579856016" lon="11.496934048263354"><ele>491.28571428571433</ele><time>2026-04-11T14:48:00Z</time></trkpt><trkpt lat="43.042568779214704" lon="11.4968958725737"><ele>492.42857142857144</ele><time>2026-04-11T14:48:02Z</time></trkpt><trkpt lat="43.04263137955327" lon="11.496862538732556"><ele>493.57142857142856</ele><time>2026-04-11T14:48:04Z</time></trkpt><trkpt lat="43.04270063145329" lon="11.4968218063826"><ele>494.7142857142857</ele><time>2026-04-11T14:48:06Z</time></trkpt><trkpt lat="43.042768484065164" lon="11.496790516016837"><ele>495.8571428571429</ele><time>2026-04-11T14:48:08Z</time></trkpt><trkpt lat="43.04283660209889" lon="11.496762343888143"><ele>497.0</ele><time>2026-04-11T14:48:10Z</time></trkpt><trkpt lat="43.042901631498616" lon="11.496737178356284"><ele>497.0</ele><time>2026-04-11T14:48:12Z</time></trkpt><trkpt lat="43.042964110041055" lon="11.496716987537672"><ele>497.0</ele><time>2026-04-11T14:48:14Z</time></trkpt><trkpt lat="43.04305040815037" lon="11.496672487849548"><ele>497.0</ele><time>2026-04-11T14:48:17Z</time></trkpt><trkpt lat="43.043129647172485" lon="11.496634388667065"><ele>497.0</ele><time>2026-04-11T14:48:20Z</time></trkpt><trkpt lat="43.04318956316431" lon="11.496607037692606"><ele>497.0</ele><time>2026-04-11T14:48:23Z</time></trkpt><trkpt lat="43.04325550694168" lon="11.496595626859081"><ele>497.0</ele><time>2026-04-11T14:48:26Z</time></trkpt><trkpt lat="43.04331884040845" lon="11.496588041550515"><ele>497.0</ele><time>2026-04-11T14:48:29Z</time></trkpt><trkpt lat="43.0433937727548" lon="11.496567210932094"><ele>497.57142857142856</ele><time>2026-04-11T14:48:32Z</time></trkpt><trkpt lat="43.04345744831328" lon="11.496548778720866"><ele>498.1428571428571</ele><time>2026-04-11T14:48:36Z</time></trkpt><trkpt lat="43.043540544881814" lon="11.496525934642516"><ele>498.7142857142857</ele><time>2026-04-11T14:48:40Z</time></trkpt><trkpt lat="43.043626059067314" lon="11.496508746092161"><ele>499.2857142857143</ele><time>2026-04-11T14:48:43Z</time></trkpt><trkpt lat="43.043688458459066" lon="11.496491636563615"><ele>499.85714285714283</ele><time>2026-04-11T14:48:45Z</time></trkpt><trkpt lat="43.04375382336094" lon="11.496489209592132"><ele>500.42857142857144</ele><time>2026-04-11T14:48:47Z</time></trkpt><trkpt lat="43.043827854852964" lon="11.496497288158931"><ele>501.0</ele><time>2026-04-11T14:48:50Z</time></trkpt><trkpt lat="43.043889320386135" lon="11.49646700617504"><ele>501.0</ele><time>2026-04-11T14:49:25Z</time></trkpt><trkpt lat="43.04397809475195" lon="11.496447529734183"><ele>501.0</ele><time>2026-04-11T14:49:29Z</time></trkpt><trkpt lat="43.04405320024309" lon="11.496442172421311"><ele>501.0</ele><time>2026-04-11T14:49:31Z</time></trkpt><trkpt lat="43.0441383274534" lon="11.496429876072906"><ele>501.0</ele><time>2026-04-11T14:49:33Z</time></trkpt><trkpt lat="43.04422610605229" lon="11.496418114157006"><ele>501.0</ele><time>2026-04-11T14:49:35Z</time></trkpt><trkpt lat="43.04431696170093" lon="11.496404522206582"><ele>501.0</ele><time>2026-04-11T14:49:37Z</time></trkpt><trkpt lat="43.04440937040611" lon="11.496396534336698"><ele>500.3333333333333</ele><time>2026-04-11T14:49:39Z</time></trkpt><trkpt lat="43.04450032502789" lon="11.496382005865227"><ele>499.66666666666663</ele><time>2026-04-11T14:49:41Z</time></trkpt><trkpt lat="43.04459055347899" lon="11.496369679768106"><ele>499.0</ele><time>2026-04-11T14:49:43Z</time></trkpt><trkpt lat="43.04468245468203" lon="11.496364045337067"><ele>498.3333333333333</ele><time>2026-04-11T14:49:45Z</time></trkpt><trkpt lat="43.04477069682545" lon="11.496354649836011"><ele>497.66666666666663</ele><time>2026-04-11T14:49:47Z</time></trkpt><trkpt lat="43.044854770760836" lon="11.496340596809038"><ele>497.0</ele><time>2026-04-11T14:49:49Z</time></trkpt><trkpt lat="43.0449407562214" lon="11.496323528028269"><ele>497.16666666666663</ele><time>2026-04-11T14:49:51Z</time></trkpt><trkpt lat="43.04502734722739" lon="11.496312940120333"><ele>497.3333333333333</ele><time>2026-04-11T14:49:53Z</time></trkpt><trkpt lat="43.04511232278703" lon="11.496297344997748"><ele>497.5</ele><time>2026-04-11T14:49:55Z</time></trkpt><trkpt lat="43.04518805901714" lon="11.496273860907856"><ele>497.66666666666663</ele><time>2026-04-11T14:49:58Z</time></trkpt><trkpt lat="43.04526477256621" lon="11.496252852744572"><ele>497.8333333333333</ele><time>2026-04-11T14:50:01Z</time></trkpt><trkpt lat="43.04533394814426" lon="11.49625555921669"><ele>498.0</ele><time>2026-04-11T14:50:03Z</time></trkpt><trkpt lat="43.04544987090685" lon="11.496244086442577"><ele>499.5</ele><time>2026-04-11T14:50:05Z</time></trkpt><trkpt lat="43.045533083423074" lon="11.496229895455462"><ele>501.0</ele><time>2026-04-11T14:50:07Z</time></trkpt><trkpt lat="43.045623642896" lon="11.496221175940033"><ele>502.5</ele><time>2026-04-11T14:50:09Z</time></trkpt><trkpt lat="43.04570089883141" lon="11.496208637267701"><ele>504.0</ele><time>2026-04-11T14:50:11Z</time></trkpt><trkpt lat="43.045778462054045" lon="11.496197254303791"><ele>505.5</ele><time>2026-04-11T14:50:13Z</time></trkpt><trkpt lat="43.04584558373436" lon="11.496177200414296"><ele>507.0</ele><time>2026-04-11T14:50:15Z</time></trkpt><trkpt lat="43.04590685778122" lon="11.496156047632448"><ele>507.6666666666667</ele><time>2026-04-11T14:50:17Z</time></trkpt><trkpt lat="43.04598732810443" lon="11.496145902246104"><ele>508.33333333333337</ele><time>2026-04-11T14:50:19Z</time></trkpt><trkpt lat="43.04606931184986" lon="11.496139821713673"><ele>509.0</ele><time>2026-04-11T14:50:21Z</time></trkpt><trkpt lat="43.04613504303561" lon="11.496134128502927"><ele>509.6666666666667</ele><time>2026-04-11T14:50:23Z</time></trkpt><trkpt lat="43.046208846454725" lon="11.496133252006963"><ele>510.33333333333337</ele><time>2026-04-11T14:50:25Z</time></trkpt><trkpt lat="43.04627895625168" lon="11.496127191550375"><ele>511.0</ele><time>2026-04-11T14:50:27Z</time></trkpt><trkpt lat="43.04636952381704" lon="11.496103686616504"><ele>511.00000000000006</ele><time>2026-04-11T14:50:30Z</time></trkpt><trkpt lat="43.04646029671788" lon="11.496091880758748"><ele>511.0</ele><time>2026-04-11T14:50:33Z</time></trkpt><trkpt lat="43.046549080242144" lon="11.496084403806918"><ele>511.0</ele><time>2026-04-11T14:50:36Z</time></trkpt><trkpt lat="43.04661218478524" lon="11.49607893510079"><ele>511.0</ele><time>2026-04-11T14:50:38Z</time></trkpt><trkpt lat="43.04670377994994" lon="11.496067949641757"><ele>511.00000000000006</ele><time>2026-04-11T14:50:41Z</time></trkpt><trkpt lat="43.04679188600334" lon="11.496047924518841"><ele>511.0</ele><time>2026-04-11T14:50:44Z</time></trkpt><trkpt lat="43.046876536531904" lon="11.496020866441508"><ele>511.6666666666667</ele><time>2026-04-11T14:50:47Z</time></trkpt><trkpt lat="43.04695532422405" lon="11.49597208797314"><ele>512.3333333333334</ele><time>2026-04-11T14:50:50Z</time></trkpt><trkpt lat="43.04702863709273" lon="11.495917460391137"><ele>513.0</ele><time>2026-04-11T14:50:53Z</time></trkpt><trkpt lat="43.04709653587664" lon="11.495851379394882"><ele>513.6666666666666</ele><time>2026-04-11T14:50:56Z</time></trkpt><trkpt lat="43.047154222419074" lon="11.49577288371214"><ele>514.3333333333333</ele><time>2026-04-11T14:50:59Z</time></trkpt><trkpt lat="43.047208906250674" lon="11.495688516691974"><ele>515.0</ele><time>2026-04-11T14:51:02Z</time></trkpt><trkpt lat="43.04725326763893" lon="11.495588516524178"><ele>515.0</ele><time>2026-04-11T14:51:05Z</time></trkpt><trkpt lat="43.047297535575446" lon="11.495470569332188"><ele>515.0</ele><time>2026-04-11T14:51:08Z</time></trkpt><trkpt lat="43.04733151197441" lon="11.495386880167967"><ele>515.0</ele><time>2026-04-11T14:51:10Z</time></trkpt><trkpt lat="43.04736323873401" lon="11.495299446032268"><ele>515.0</ele><time>2026-04-11T14:51:12Z</time></trkpt><trkpt lat="43.047396201309645" lon="11.495208337337168"><ele>515.0</ele><time>2026-04-11T14:51:14Z</time></trkpt><trkpt lat="43.04743663738688" lon="11.495119254352156"><ele>515.0</ele><time>2026-04-11T14:51:16Z</time></trkpt><trkpt lat="43.04747667730935" lon="11.495026340502966"><ele>515.6666666666666</ele><time>2026-04-11T14:51:18Z</time></trkpt><trkpt lat="43.047516846626685" lon="11.494919088655548"><ele>516.3333333333333</ele><time>2026-04-11T14:51:21Z</time></trkpt><trkpt lat="43.047544410132744" lon="11.494839784915786"><ele>517.0</ele><time>2026-04-11T14:51:22Z</time></trkpt><trkpt lat="43.04758458186952" lon="11.494730053026656"><ele>517.6666666666666</ele><time>2026-04-11T14:51:24Z</time></trkpt><trkpt lat="43.04760929078516" lon="11.494650035212619"><ele>518.3333333333334</ele><time>2026-04-11T14:51:27Z</time></trkpt><trkpt lat="43.047639066374174" lon="11.494527942414564"><ele>519.0</ele><time>2026-04-11T14:51:30Z</time></trkpt><trkpt lat="43.047670055698426" lon="11.494443786164892"><ele>521.0</ele><time>2026-04-11T14:51:32Z</time></trkpt><trkpt lat="43.047704490943325" lon="11.494357838719278"><ele>523.0</ele><time>2026-04-11T14:51:33Z</time></trkpt><trkpt lat="43.04774396242528" lon="11.49428362786632"><ele>525.0</ele><time>2026-04-11T14:51:34Z</time></trkpt><trkpt lat="43.04778241828837" lon="11.494177723221688"><ele>527.0</ele><time>2026-04-11T14:51:36Z</time></trkpt><trkpt lat="43.047824017709374" lon="11.49407996837141"><ele>529.0</ele><time>2026-04-11T14:51:38Z</time></trkpt><trkpt lat="43.04787032411804" lon="11.493972204531802"><ele>531.0</ele><time>2026-04-11T14:51:40Z</time></trkpt><trkpt lat="43.047916740995056" lon="11.493868312575618"><ele>531.0</ele><time>2026-04-11T14:51:42Z</time></trkpt><trkpt lat="43.047958444138665" lon="11.493759464881949"><ele>531.0</ele><time>2026-04-11T14:51:44Z</time></trkpt><trkpt lat="43.04800325501176" lon="11.493683503813367"><ele>531.0</ele><time>2026-04-11T14:51:46Z</time></trkpt><trkpt lat="43.048073065176695" lon="11.493585314082656"><ele>531.0</ele><time>2026-04-11T14:51:48Z</time></trkpt><trkpt lat="43.04816271698708" lon="11.493544677200969"><ele>531.0</ele><time>2026-04-11T14:51:50Z</time></trkpt><trkpt lat="43.04824507716744" lon="11.49354886021246"><ele>531.0</ele><time>2026-04-11T14:51:52Z</time></trkpt><trkpt lat="43.04832524343485" lon="11.493624120736737"><ele>531.0</ele><time>2026-04-11T14:51:54Z</time></trkpt><trkpt lat="43.04836219607655" lon="11.49370174108596"><ele>531.0</ele><time>2026-04-11T14:51:55Z</time></trkpt><trkpt lat="43.04837393598744" lon="11.493842363656302"><ele>531.0</ele><time>2026-04-11T14:51:57Z</time></trkpt><trkpt lat="43.048359286844835" lon="11.493990891031919"><ele>531.0</ele><time>2026-04-11T14:51:59Z</time></trkpt><trkpt lat="43.04833640319486" lon="11.494118407270715"><ele>531.0</ele><time>2026-04-11T14:52:01Z</time></trkpt><trkpt lat="43.048290179845885" lon="11.494247184780194"><ele>531.0</ele><time>2026-04-11T14:52:03Z</time></trkpt><trkpt lat="43.0482682914113" lon="11.49437880320406"><ele>531.0</ele><time>2026-04-11T14:52:05Z</time></trkpt><trkpt lat="43.04826425511052" lon="11.494495162689297"><ele>531.0</ele><time>2026-04-11T14:52:07Z</time></trkpt><trkpt lat="43.0482546686879" lon="11.494622512745366"><ele>531.0</ele><time>2026-04-11T14:52:09Z</time></trkpt><trkpt lat="43.048262537040316" lon="11.494742606229716"><ele>531.0</ele><time>2026-04-11T14:52:11Z</time></trkpt><trkpt lat="43.0482731545732" lon="11.494849309509913"><ele>531.0</ele><time>2026-04-11T14:52:13Z</time></trkpt><trkpt lat="43.048296978004984" lon="11.494953445637707"><ele>529.5</ele><time>2026-04-11T14:52:15Z</time></trkpt><trkpt lat="43.04832816717991" lon="11.495050581701811"><ele>528.0</ele><time>2026-04-11T14:52:17Z</time></trkpt><trkpt lat="43.04837204920729" lon="11.495138656173518"><ele>526.5</ele><time>2026-04-11T14:52:19Z</time></trkpt><trkpt lat="43.048437220956814" lon="11.495205385962759"><ele>525.0</ele><time>2026-04-11T14:52:21Z</time></trkpt><trkpt lat="43.04850558534285" lon="11.495281491658726"><ele>523.5</ele><time>2026-04-11T14:52:23Z</time></trkpt><trkpt lat="43.0485633897545" lon="11.495346103585106"><ele>522.0</ele><time>2026-04-11T14:52:25Z</time></trkpt><trkpt lat="43.04860256217792" lon="11.495421227887595"><ele>520.6666666666666</ele><time>2026-04-11T14:52:28Z</time></trkpt><trkpt lat="43.04864159099529" lon="11.495498365976177"><ele>519.3333333333334</ele><time>2026-04-11T14:52:30Z</time></trkpt><trkpt lat="43.04867513682327" lon="11.495583703629274"><ele>518.0</ele><time>2026-04-11T14:52:32Z</time></trkpt><trkpt lat="43.04871817889254" lon="11.495687177693815"><ele>516.6666666666667</ele><time>2026-04-11T14:52:35Z</time></trkpt><trkpt lat="43.04876729816443" lon="11.495804313578262"><ele>515.3333333333334</ele><time>2026-04-11T14:52:38Z</time></trkpt><trkpt lat="43.04880611874169" lon="11.495878756239529"><ele>514.0</ele><time>2026-04-11T14:52:40Z</time></trkpt><trkpt lat="43.04884703226198" lon="11.495952170119335"><ele>514.0</ele><time>2026-04-11T14:52:42Z</time></trkpt><trkpt lat="43.04889048619311" lon="11.496014768647255"><ele>514.0</ele><time>2026-04-11T14:52:44Z</time></trkpt><trkpt lat="43.04893684184717" lon="11.496075345264865"><ele>514.0</ele><time>2026-04-11T14:52:46Z</time></trkpt><trkpt lat="43.04898911434177" lon="11.49613100263048"><ele>514.0</ele><time>2026-04-11T14:52:48Z</time></trkpt><trkpt lat="43.04904456067374" lon="11.496183639807493"><ele>514.0</ele><time>2026-04-11T14:52:50Z</time></trkpt><trkpt lat="43.04910486027319" lon="11.496236960158853"><ele>514.0</ele><time>2026-04-11T14:52:52Z</time></trkpt><trkpt lat="43.049164970755996" lon="11.496291372676591"><ele>514.0</ele><time>2026-04-11T14:52:54Z</time></trkpt><trkpt lat="43.049228372618586" lon="11.496346574995753"><ele>515.0</ele><time>2026-04-11T14:52:56Z</time></trkpt><trkpt lat="43.04929164904048" lon="11.496400021432892"><ele>516.0</ele><time>2026-04-11T14:52:58Z</time></trkpt><trkpt lat="43.049352103899025" lon="11.496448188806172"><ele>517.0</ele><time>2026-04-11T14:53:00Z</time></trkpt><trkpt lat="43.04941553869132" lon="11.496503246748185"><ele>518.0</ele><time>2026-04-11T14:53:02Z</time></trkpt><trkpt lat="43.04947750894605" lon="11.496553081569159"><ele>519.0</ele><time>2026-04-11T14:53:04Z</time></trkpt><trkpt lat="43.04954257487363" lon="11.496603724476637"><ele>520.0</ele><time>2026-04-11T14:53:06Z</time></trkpt><trkpt lat="43.04962472582291" lon="11.4966582842964"><ele>520.0000000000001</ele><time>2026-04-11T14:53:09Z</time></trkpt><trkpt lat="43.04970682583009" lon="11.496717890877282"><ele>520.0</ele><time>2026-04-11T14:53:12Z</time></trkpt><trkpt lat="43.049770625119976" lon="11.496772833938493"><ele>520.0</ele><time>2026-04-11T14:53:14Z</time></trkpt><trkpt lat="43.04983558171104" lon="11.496827727245075"><ele>520.0</ele><time>2026-04-11T14:53:16Z</time></trkpt><trkpt lat="43.0499001860203" lon="11.496878408232062"><ele>520.0</ele><time>2026-04-11T14:53:18Z</time></trkpt><trkpt lat="43.04996034147968" lon="11.496915319642712"><ele>520.0000000000001</ele><time>2026-04-11T14:53:20Z</time></trkpt><trkpt lat="43.05001833583459" lon="11.496953651305194"><ele>520.0</ele><time>2026-04-11T14:53:22Z</time></trkpt><trkpt lat="43.05008246468501" lon="11.496977267721975"><ele>523.0</ele><time>2026-04-11T14:53:24Z</time></trkpt><trkpt lat="43.050170654253414" lon="11.497005997678109"><ele>526.0</ele><time>2026-04-11T14:53:27Z</time></trkpt><trkpt lat="43.05024000906414" lon="11.497017718455705"><ele>529.0</ele><time>2026-04-11T14:53:29Z</time></trkpt><trkpt lat="43.05030753424502" lon="11.497000726162863"><ele>532.0</ele><time>2026-04-11T14:53:31Z</time></trkpt><trkpt lat="43.0501687634388" lon="11.496836821162388"><ele>535.0</ele><time>2026-04-11T14:53:33Z</time></trkpt><trkpt lat="43.050260290698354" lon="11.49680482625232"><ele>535.0</ele><time>2026-04-11T14:53:36Z</time></trkpt><trkpt lat="43.05035668964961" lon="11.496766519991496"><ele>535.0</ele><time>2026-04-11T14:53:39Z</time></trkpt><trkpt lat="43.05043606048696" lon="11.496721580218654"><ele>535.0</ele><time>2026-04-11T14:53:42Z</time></trkpt><trkpt lat="43.0505027356313" lon="11.49671681949093"><ele>535.0</ele><time>2026-04-11T14:53:44Z</time></trkpt><trkpt lat="43.050605890381526" lon="11.496680031261382"><ele>535.0</ele><time>2026-04-11T14:53:47Z</time></trkpt><trkpt lat="43.0506903157105" lon="11.496613198984845"><ele>535.0</ele><time>2026-04-11T14:53:50Z</time></trkpt><trkpt lat="43.050732629445335" lon="11.49653085411142"><ele>535.0</ele><time>2026-04-11T14:53:52Z</time></trkpt><trkpt lat="43.05078569443849" lon="11.496434598180167"><ele>535.0</ele><time>2026-04-11T14:53:55Z</time></trkpt><trkpt lat="43.05084258843981" lon="11.496286915388753"><ele>535.0</ele><time>2026-04-11T14:53:58Z</time></trkpt><trkpt lat="43.050859398061576" lon="11.496198169188093"><ele>535.0</ele><time>2026-04-11T14:54:01Z</time></trkpt><trkpt lat="43.05082318845367" lon="11.496095681881478"><ele>535.0</ele><time>2026-04-11T14:54:02Z</time></trkpt><trkpt lat="43.050843875136465" lon="11.49598803320472"><ele>536.1666666666667</ele><time>2026-04-11T14:54:05Z</time></trkpt><trkpt lat="43.05086458858202" lon="11.495896014027805"><ele>537.3333333333334</ele><time>2026-04-11T14:54:07Z</time></trkpt><trkpt lat="43.05087445355288" lon="11.495804665049176"><ele>538.5</ele><time>2026-04-11T14:54:09Z</time></trkpt><trkpt lat="43.05089103047162" lon="11.495699173467505"><ele>539.6666666666666</ele><time>2026-04-11T14:54:11Z</time></trkpt><trkpt lat="43.05090198959542" lon="11.49555267801221"><ele>540.8333333333333</ele><time>2026-04-11T14:54:14Z</time></trkpt><trkpt lat="43.05092195162582" lon="11.495448341913573"><ele>542.0</ele><time>2026-04-11T14:54:16Z</time></trkpt><trkpt lat="43.0509327321652" lon="11.495351449266455"><ele>542.8333333333333</ele><time>2026-04-11T14:54:17Z</time></trkpt><trkpt lat="43.050953052492595" lon="11.495230255237658"><ele>543.6666666666666</ele><time>2026-04-11T14:54:19Z</time></trkpt><trkpt lat="43.05096476730909" lon="11.49512056689795"><ele>544.5</ele><time>2026-04-11T14:54:21Z</time></trkpt><trkpt lat="43.05098808212324" lon="11.4950029708225"><ele>545.3333333333334</ele><time>2026-04-11T14:54:23Z</time></trkpt><trkpt lat="43.05101188010046" lon="11.494892530652573"><ele>546.1666666666667</ele><time>2026-04-11T14:54:25Z</time></trkpt><trkpt lat="43.05103446407778" lon="11.494782530112015"><ele>547.0</ele><time>2026-04-11T14:54:27Z</time></trkpt><trkpt lat="43.051052622368545" lon="11.494681214354578"><ele>547.0</ele><time>2026-04-11T14:54:29Z</time></trkpt><trkpt lat="43.05106657901885" lon="11.49458817545308"><ele>547.0</ele><time>2026-04-11T14:54:31Z</time></trkpt><trkpt lat="43.05107617113083" lon="11.49449912529195"><ele>547.0</ele><time>2026-04-11T14:54:33Z</time></trkpt><trkpt lat="43.051097926939846" lon="11.494384700131105"><ele>547.0</ele><time>2026-04-11T14:54:35Z</time></trkpt><trkpt lat="43.05112727909339" lon="11.494270411550588"><ele>547.0</ele><time>2026-04-11T14:54:37Z</time></trkpt><trkpt lat="43.05115167525707" lon="11.494163389166607"><ele>547.0</ele><time>2026-04-11T14:54:39Z</time></trkpt><trkpt lat="43.05119185534649" lon="11.494059366383372"><ele>548.8333333333334</ele><time>2026-04-11T14:54:41Z</time></trkpt><trkpt lat="43.05122337170294" lon="11.493929296646487"><ele>550.6666666666667</ele><time>2026-04-11T14:54:43Z</time></trkpt><trkpt lat="43.05123214919181" lon="11.4938340407676"><ele>552.5</ele><time>2026-04-11T14:54:46Z</time></trkpt><trkpt lat="43.05125113583527" lon="11.493727064222623"><ele>554.3333333333334</ele><time>2026-04-11T14:54:49Z</time></trkpt><trkpt lat="43.05125586452602" lon="11.493627412196478"><ele>556.1666666666666</ele><time>2026-04-11T14:54:52Z</time></trkpt><trkpt lat="43.05124923430705" lon="11.49351023727769"><ele>558.0</ele><time>2026-04-11T14:54:55Z</time></trkpt><trkpt lat="43.0512462114275" lon="11.49340004320703"><ele>558.6666666666666</ele><time>2026-04-11T14:54:58Z</time></trkpt><trkpt lat="43.05124923201826" lon="11.493276394477586"><ele>559.3333333333334</ele><time>2026-04-11T14:55:01Z</time></trkpt><trkpt lat="43.05125969744751" lon="11.493168995202192"><ele>560.0</ele><time>2026-04-11T14:55:03Z</time></trkpt><trkpt lat="43.05126165081767" lon="11.493058796402073"><ele>560.6666666666667</ele><time>2026-04-11T14:55:05Z</time></trkpt><trkpt lat="43.051257322817655" lon="11.492948425362952"><ele>561.3333333333334</ele><time>2026-04-11T14:55:07Z</time></trkpt><trkpt lat="43.051267357453085" lon="11.492811622457163"><ele>562.0</ele><time>2026-04-11T14:55:09Z</time></trkpt><trkpt lat="43.05127267188482" lon="11.492694929146603"><ele>563.0</ele><time>2026-04-11T14:55:11Z</time></trkpt><trkpt lat="43.05127616304157" lon="11.492576720068232"><ele>564.0</ele><time>2026-04-11T14:55:13Z</time></trkpt><trkpt lat="43.051271359902806" lon="11.49248262079337"><ele>565.0</ele><time>2026-04-11T14:55:15Z</time></trkpt><trkpt lat="43.05128325925182" lon="11.492370115197483"><ele>566.0</ele><time>2026-04-11T14:55:17Z</time></trkpt><trkpt lat="43.0512867535913" lon="11.492265438200116"><ele>567.0</ele><time>2026-04-11T14:55:19Z</time></trkpt><trkpt lat="43.051288204333986" lon="11.492169613305707"><ele>568.0</ele><time>2026-04-11T14:55:21Z</time></trkpt><trkpt lat="43.05128376034471" lon="11.492051887500367"><ele>568.3333333333334</ele><time>2026-04-11T14:55:24Z</time></trkpt><trkpt lat="43.0513006374472" lon="11.491963716436167"><ele>568.6666666666667</ele><time>2026-04-11T14:55:26Z</time></trkpt><trkpt lat="43.05132991322364" lon="11.491878799875368"><ele>569.0</ele><time>2026-04-11T14:55:28Z</time></trkpt><trkpt lat="43.051374133416004" lon="11.491806449699881"><ele>569.3333333333334</ele><time>2026-04-11T14:55:30Z</time></trkpt><trkpt lat="43.051478803882496" lon="11.491754582963566"><ele>569.6666666666666</ele><time>2026-04-11T14:55:33Z</time></trkpt><trkpt lat="43.051529842968264" lon="11.491829193398456"><ele>570.0</ele><time>2026-04-11T14:55:36Z</time></trkpt><trkpt lat="43.051584124445725" lon="11.49189284869002"><ele>567.4</ele><time>2026-04-11T14:55:38Z</time></trkpt><trkpt lat="43.051666472595905" lon="11.491974246097564"><ele>564.8</ele><time>2026-04-11T14:55:41Z</time></trkpt><trkpt lat="43.05170575751225" lon="11.49206672868803"><ele>562.2</ele><time>2026-04-11T14:55:43Z</time></trkpt><trkpt lat="43.051754617272735" lon="11.492123663999513"><ele>559.6</ele><time>2026-04-11T14:55:44Z</time></trkpt><trkpt lat="43.051826831440565" lon="11.49223417062784"><ele>557.0</ele><time>2026-04-11T14:55:46Z</time></trkpt><trkpt lat="43.0519059328617" lon="11.492342301794073"><ele>555.1666666666666</ele><time>2026-04-11T14:55:48Z</time></trkpt><trkpt lat="43.05197196568592" lon="11.492410419889806"><ele>553.3333333333333</ele><time>2026-04-11T14:55:50Z</time></trkpt><trkpt lat="43.05204124592909" lon="11.492446874205543"><ele>551.5</ele><time>2026-04-11T14:55:52Z</time></trkpt><trkpt lat="43.05211761571069" lon="11.492483788518653"><ele>549.6666666666666</ele><time>2026-04-11T14:55:54Z</time></trkpt><trkpt lat="43.05219382416225" lon="11.49247784468885"><ele>547.8333333333334</ele><time>2026-04-11T14:55:56Z</time></trkpt><trkpt lat="43.052265777713906" lon="11.492429692576412"><ele>546.0</ele><time>2026-04-11T14:55:58Z</time></trkpt><trkpt lat="43.05232716349772" lon="11.492368694863842"><ele>546.0</ele><time>2026-04-11T14:56:00Z</time></trkpt><trkpt lat="43.05235740582984" lon="11.492262270985306"><ele>546.0</ele><time>2026-04-11T14:56:02Z</time></trkpt><trkpt lat="43.05240342974634" lon="11.492147694945498"><ele>546.0</ele><time>2026-04-11T14:56:04Z</time></trkpt><trkpt lat="43.05245437721626" lon="11.492016704067678"><ele>546.0</ele><time>2026-04-11T14:56:06Z</time></trkpt><trkpt lat="43.052517697855734" lon="11.491895410199158"><ele>546.0</ele><time>2026-04-11T14:56:08Z</time></trkpt><trkpt lat="43.05259644235406" lon="11.491787913108135"><ele>547.8333333333334</ele><time>2026-04-11T14:56:10Z</time></trkpt><trkpt lat="43.052685847800156" lon="11.491780332748878"><ele>549.6666666666666</ele><time>2026-04-11T14:56:12Z</time></trkpt><trkpt lat="43.05277742421829" lon="11.491746872867264"><ele>551.5</ele><time>2026-04-11T14:56:14Z</time></trkpt><trkpt lat="43.05287334880465" lon="11.49174838867015"><ele>553.3333333333333</ele><time>2026-04-11T14:56:16Z</time></trkpt><trkpt lat="43.05295131711536" lon="11.491777985580539"><ele>555.1666666666666</ele><time>2026-04-11T14:56:18Z</time></trkpt><trkpt lat="43.053029709463374" lon="11.491826549734345"><ele>557.0</ele><time>2026-04-11T14:56:20Z</time></trkpt><trkpt lat="43.053106207661095" lon="11.491884591169786"><ele>557.0</ele><time>2026-04-11T14:56:22Z</time></trkpt><trkpt lat="43.053184799151325" lon="11.491927765328562"><ele>557.0</ele><time>2026-04-11T14:56:24Z</time></trkpt><trkpt lat="43.05327897171989" lon="11.491968109453714"><ele>557.0</ele><time>2026-04-11T14:56:26Z</time></trkpt><trkpt lat="43.05337521036274" lon="11.492005218042179"><ele>557.0</ele><time>2026-04-11T14:56:28Z</time></trkpt><trkpt lat="43.05346905988298" lon="11.492021953282448"><ele>557.0</ele><time>2026-04-11T14:56:30Z</time></trkpt><trkpt lat="43.05355291419988" lon="11.492018103552548"><ele>555.6</ele><time>2026-04-11T14:56:32Z</time></trkpt><trkpt lat="43.05363154715342" lon="11.491985508386131"><ele>554.2</ele><time>2026-04-11T14:56:34Z</time></trkpt><trkpt lat="43.05370045141153" lon="11.491883183612064"><ele>552.8</ele><time>2026-04-11T14:56:37Z</time></trkpt><trkpt lat="43.05374392131196" lon="11.491753086670272"><ele>551.4</ele><time>2026-04-11T14:56:39Z</time></trkpt><trkpt lat="43.0537587634312" lon="11.491626583349989"><ele>550.0</ele><time>2026-04-11T14:56:41Z</time></trkpt><trkpt lat="43.05375878478954" lon="11.49151115983013"><ele>550.0</ele><time>2026-04-11T14:56:43Z</time></trkpt><trkpt lat="43.053761048180526" lon="11.491382656647326"><ele>550.0</ele><time>2026-04-11T14:56:45Z</time></trkpt><trkpt lat="43.05376388063794" lon="11.491255212579448"><ele>550.0</ele><time>2026-04-11T14:56:47Z</time></trkpt><trkpt lat="43.0537562567685" lon="11.491134541614743"><ele>550.0</ele><time>2026-04-11T14:56:49Z</time></trkpt><trkpt lat="43.05375181683796" lon="11.490984019094954"><ele>550.0</ele><time>2026-04-11T14:56:51Z</time></trkpt><trkpt lat="43.05376223698439" lon="11.490862498829392"><ele>552.1666666666667</ele><time>2026-04-11T14:56:53Z</time></trkpt><trkpt lat="43.05377198697873" lon="11.4907217473023"><ele>554.3333333333334</ele><time>2026-04-11T14:56:55Z</time></trkpt><trkpt lat="43.05375012237296" lon="11.490627346334364"><ele>556.5</ele><time>2026-04-11T14:56:58Z</time></trkpt><trkpt lat="43.05376312060042" lon="11.490527839744475"><ele>558.6666666666666</ele><time>2026-04-11T14:57:00Z</time></trkpt><trkpt lat="43.053765404388216" lon="11.490431392017586"><ele>560.8333333333333</ele><time>2026-04-11T14:57:02Z</time></trkpt><trkpt lat="43.05376774094514" lon="11.490332715765629"><ele>563.0</ele><time>2026-04-11T14:57:04Z</time></trkpt><trkpt lat="43.05377005577977" lon="11.490234956691754"><ele>563.5</ele><time>2026-04-11T14:57:06Z</time></trkpt><trkpt lat="43.05377025807214" lon="11.489939260753523"><ele>564.0</ele><time>2026-04-11T14:57:07Z</time></trkpt><trkpt lat="43.05377293483264" lon="11.489831256068598"><ele>564.5</ele><time>2026-04-11T14:57:09Z</time></trkpt><trkpt lat="43.05377459099885" lon="11.489716973007324"><ele>565.0</ele><time>2026-04-11T14:57:11Z</time></trkpt><trkpt lat="43.053787826248985" lon="11.489600861817191"><ele>565.8</ele><time>2026-04-11T14:57:13Z</time></trkpt><trkpt lat="43.05382640974761" lon="11.489490935027556"><ele>566.6</ele><time>2026-04-11T14:57:15Z</time></trkpt><trkpt lat="43.05388460453124" lon="11.489390332679436"><ele>567.4</ele><time>2026-04-11T14:57:17Z</time></trkpt><trkpt lat="43.053967216482526" lon="11.489314070125442"><ele>568.2</ele><time>2026-04-11T14:57:19Z</time></trkpt><trkpt lat="43.054061328682906" lon="11.48923576361772"><ele>569.0</ele><time>2026-04-11T14:57:21Z</time></trkpt><trkpt lat="43.05414089708189" lon="11.489203583682208"><ele>566.6666666666666</ele><time>2026-04-11T14:57:23Z</time></trkpt><trkpt lat="43.05421371589872" lon="11.489179561205788"><ele>564.3333333333333</ele><time>2026-04-11T14:57:25Z</time></trkpt><trkpt lat="43.05428770325705" lon="11.489186959457788"><ele>562.0</ele><time>2026-04-11T14:57:27Z</time></trkpt><trkpt lat="43.054372864055296" lon="11.489192515430627"><ele>559.6666666666666</ele><time>2026-04-11T14:57:29Z</time></trkpt><trkpt lat="43.05446439360471" lon="11.489189883370255"><ele>557.3333333333334</ele><time>2026-04-11T14:57:31Z</time></trkpt><trkpt lat="43.054543928934244" lon="11.489180701429708"><ele>555.0</ele><time>2026-04-11T14:57:33Z</time></trkpt><trkpt lat="43.05460895588983" lon="11.489179525616677"><ele>555.0</ele><time>2026-04-11T14:57:35Z</time></trkpt><trkpt lat="43.05468326443821" lon="11.489176423671074"><ele>555.0</ele><time>2026-04-11T14:57:37Z</time></trkpt><trkpt lat="43.05475893836744" lon="11.489169873952964"><ele>555.0</ele><time>2026-04-11T14:57:39Z</time></trkpt><trkpt lat="43.054828637790884" lon="11.489160461428852"><ele>555.0</ele><time>2026-04-11T14:57:41Z</time></trkpt><trkpt lat="43.05489742450904" lon="11.489150814425319"><ele>555.0</ele><time>2026-04-11T14:57:43Z</time></trkpt><trkpt lat="43.05496964074616" lon="11.489147504205723"><ele>555.0</ele><time>2026-04-11T14:57:45Z</time></trkpt><trkpt lat="43.055070112531006" lon="11.489138736220621"><ele>554.6</ele><time>2026-04-11T14:57:48Z</time></trkpt><trkpt lat="43.055150110948176" lon="11.489134104287146"><ele>554.2</ele><time>2026-04-11T14:57:50Z</time></trkpt><trkpt lat="43.05523974881597" lon="11.489113349234437"><ele>553.8</ele><time>2026-04-11T14:57:52Z</time></trkpt><trkpt lat="43.055353834634275" lon="11.489077593366593"><ele>553.4</ele><time>2026-04-11T14:57:54Z</time></trkpt><trkpt lat="43.05547507993323" lon="11.489032626706074"><ele>553.0</ele><time>2026-04-11T14:57:56Z</time></trkpt><trkpt lat="43.055538746272305" lon="11.489012196642115"><ele>553.0</ele><time>2026-04-11T14:57:57Z</time></trkpt><trkpt lat="43.05560645404" lon="11.488987409346453"><ele>553.0</ele><time>2026-04-11T14:57:58Z</time></trkpt><trkpt lat="43.05567443033538" lon="11.488965209982503"><ele>553.0</ele><time>2026-04-11T14:57:59Z</time></trkpt><trkpt lat="43.05574210474222" lon="11.488958905166557"><ele>553.0</ele><time>2026-04-11T14:58:00Z</time></trkpt><trkpt lat="43.055809151768734" lon="11.488991793531955"><ele>553.0</ele><time>2026-04-11T14:58:01Z</time></trkpt><trkpt lat="43.05591245572539" lon="11.489064135582018"><ele>553.0</ele><time>2026-04-11T14:58:03Z</time></trkpt><trkpt lat="43.055934412105564" lon="11.48914499042661"><ele>552.3333333333334</ele><time>2026-04-11T14:58:04Z</time></trkpt><trkpt lat="43.05599014926305" lon="11.48919696832149"><ele>551.6666666666667</ele><time>2026-04-11T14:58:06Z</time></trkpt><trkpt lat="43.05604579402917" lon="11.489255071465655"><ele>551.0</ele><time>2026-04-11T14:58:09Z</time></trkpt><trkpt lat="43.0561057475055" lon="11.489305593862353"><ele>550.3333333333334</ele><time>2026-04-11T14:58:13Z</time></trkpt><trkpt lat="43.05617404085136" lon="11.489344252970422"><ele>549.6666666666666</ele><time>2026-04-11T14:58:20Z</time></trkpt><trkpt lat="43.05625725143602" lon="11.489399542884817"><ele>549.0</ele><time>2026-04-11T14:58:22Z</time></trkpt><trkpt lat="43.056339194387746" lon="11.489368298409268"><ele>549.0</ele><time>2026-04-11T14:58:24Z</time></trkpt><trkpt lat="43.056399934693715" lon="11.489453848867306"><ele>549.0</ele><time>2026-04-11T14:58:28Z</time></trkpt><trkpt lat="43.05646303659431" lon="11.489480674794123"><ele>549.0</ele><time>2026-04-11T14:58:32Z</time></trkpt><trkpt lat="43.05653799363632" lon="11.48953749055542"><ele>549.0</ele><time>2026-04-11T14:58:36Z</time></trkpt><trkpt lat="43.056612575296356" lon="11.489594231362727"><ele>549.0</ele><time>2026-04-11T14:58:40Z</time></trkpt><trkpt lat="43.05670162733366" lon="11.489623045688289"><ele>549.0</ele><time>2026-04-11T14:58:44Z</time></trkpt><trkpt lat="43.05676822991704" lon="11.48962343393547"><ele>549.1666666666666</ele><time>2026-04-11T14:58:46Z</time></trkpt><trkpt lat="43.056861909154264" lon="11.489621704554807"><ele>549.3333333333334</ele><time>2026-04-11T14:58:49Z</time></trkpt><trkpt lat="43.056945614320135" lon="11.48958552268875"><ele>549.5</ele><time>2026-04-11T14:58:50Z</time></trkpt><trkpt lat="43.05701173651719" lon="11.489554684992104"><ele>549.6666666666667</ele><time>2026-04-11T14:58:52Z</time></trkpt><trkpt lat="43.05708610920785" lon="11.489543087260632"><ele>549.8333333333334</ele><time>2026-04-11T14:58:55Z</time></trkpt><trkpt lat="43.05715044727886" lon="11.48952155803196"><ele>550.0</ele><time>2026-04-11T14:58:58Z</time></trkpt><trkpt lat="43.05718966353224" lon="11.489444472131554"><ele>550.0</ele><time>2026-04-11T14:58:59Z</time></trkpt><trkpt lat="43.057234771330386" lon="11.489509890882196"><ele>550.0</ele><time>2026-04-11T14:59:02Z</time></trkpt><trkpt lat="43.05728611478709" lon="11.489580129153168"><ele>550.0</ele><time>2026-04-11T14:59:04Z</time></trkpt><trkpt lat="43.05733876445209" lon="11.489669179761075"><ele>550.0</ele><time>2026-04-11T14:59:06Z</time></trkpt><trkpt lat="43.05744385843073" lon="11.489679871896714"><ele>550.0</ele><time>2026-04-11T14:59:08Z</time></trkpt><trkpt lat="43.05748494089851" lon="11.489788109636713"><ele>550.0</ele><time>2026-04-11T14:59:10Z</time></trkpt><trkpt lat="43.05746498952342" lon="11.489907822502094"><ele>550.0</ele><time>2026-04-11T14:59:12Z</time></trkpt><trkpt lat="43.05744748558828" lon="11.489996530844257"><ele>550.0</ele><time>2026-04-11T14:59:14Z</time></trkpt><trkpt lat="43.05746868415585" lon="11.49011442778709"><ele>550.0</ele><time>2026-04-11T14:59:17Z</time></trkpt><trkpt lat="43.05744872002359" lon="11.490220269116138"><ele>550.0</ele><time>2026-04-11T14:59:20Z</time></trkpt><trkpt lat="43.05755767633747" lon="11.490209423521954"><ele>550.0</ele><time>2026-04-11T14:59:22Z</time></trkpt><trkpt lat="43.05765579759411" lon="11.49019139780709"><ele>550.0</ele><time>2026-04-11T14:59:24Z</time></trkpt><trkpt lat="43.057702385100264" lon="11.490128112490073"><ele>550.0</ele><time>2026-04-11T14:59:28Z</time></trkpt><trkpt lat="43.05767022728939" lon="11.490225542774109"><ele>550.0</ele><time>2026-04-11T14:59:30Z</time></trkpt><trkpt lat="43.05762406240353" lon="11.490327381496941"><ele>550.0</ele><time>2026-04-11T14:59:32Z</time></trkpt><trkpt lat="43.05757227616733" lon="11.490404993157942"><ele>550.0</ele><time>2026-04-11T14:59:34Z</time></trkpt><trkpt lat="43.057501532629644" lon="11.490487263166369"><ele>550.0</ele><time>2026-04-11T15:00:14Z</time></trkpt><trkpt lat="43.05758696892094" lon="11.490565272666242"><ele>550.0</ele><time>2026-04-11T15:01:08.43Z</time></trkpt><trkpt lat="43.057491194582006" lon="11.490513800012367"><ele>550.0</ele><time>2026-04-11T15:02:23Z</time></trkpt><trkpt lat="43.057439309789906" lon="11.490464906855497"><ele>550.0</ele><time>2026-04-11T15:03:33Z</time></trkpt><trkpt lat="43.05750632044677" lon="11.490454817217632"><ele>550.0</ele><time>2026-04-11T15:10:17Z</time></trkpt><trkpt lat="43.05744953062936" lon="11.490388628278103"><ele>550.0</ele><time>2026-04-11T15:10:28Z</time></trkpt><trkpt lat="43.057509713747386" lon="11.49041418049011"><ele>550.0</ele><time>2026-04-11T15:11:24Z</time></trkpt><trkpt lat="43.05753519298194" lon="11.490499858844807"><ele>550.0</ele><time>2026-04-11T15:13:51Z</time></trkpt><trkpt lat="43.05751353538821" lon="11.490589272859767"><ele>550.0</ele><time>2026-04-11T15:13:55Z</time></trkpt><trkpt lat="43.05752451549387" lon="11.490693898112259"><ele>549.3333333333334</ele><time>2026-04-11T15:13:59Z</time></trkpt><trkpt lat="43.05750197113589" lon="11.490779020475333"><ele>548.6666666666667</ele><time>2026-04-11T15:14:02Z</time></trkpt><trkpt lat="43.057449641258195" lon="11.490839780400425"><ele>548.0</ele><time>2026-04-11T15:14:05Z</time></trkpt><trkpt lat="43.05738197638977" lon="11.490897535300695"><ele>547.3333333333334</ele><time>2026-04-11T15:14:09Z</time></trkpt><trkpt lat="43.05730199149498" lon="11.490958041841884"><ele>546.6666666666666</ele><time>2026-04-11T15:14:12Z</time></trkpt><trkpt lat="43.05723261959485" lon="11.491003823586528"><ele>546.0</ele><time>2026-04-11T15:14:15Z</time></trkpt><trkpt lat="43.05716061960356" lon="11.49105263936794"><ele>546.0</ele><time>2026-04-11T15:14:18Z</time></trkpt><trkpt lat="43.057114556766585" lon="11.49112269433735"><ele>546.0</ele><time>2026-04-11T15:14:21Z</time></trkpt><trkpt lat="43.05706068085424" lon="11.491205343408684"><ele>546.0</ele><time>2026-04-11T15:14:23Z</time></trkpt><trkpt lat="43.05699443244183" lon="11.491227546312484"><ele>546.0</ele><time>2026-04-11T15:14:25Z</time></trkpt><trkpt lat="43.0570473015518" lon="11.491338804662135"><ele>546.0</ele><time>2026-04-11T15:14:26Z</time></trkpt><trkpt lat="43.056870499550385" lon="11.491293680526345"><ele>544.0</ele><time>2026-04-11T15:14:30Z</time></trkpt><trkpt lat="43.05684689313763" lon="11.491384702123334"><ele>542.0</ele><time>2026-04-11T15:14:32Z</time></trkpt><trkpt lat="43.056801774915115" lon="11.491464476859687"><ele>540.0</ele><time>2026-04-11T15:14:38Z</time></trkpt><trkpt lat="43.05680642511881" lon="11.491565343286165"><ele>538.0</ele><time>2026-04-11T15:14:42Z</time></trkpt><trkpt lat="43.056807214147035" lon="11.491707379885275"><ele>536.0</ele><time>2026-04-11T15:14:43Z</time></trkpt><trkpt lat="43.056693283225485" lon="11.491710891832149"><ele>534.0</ele><time>2026-04-11T15:14:44Z</time></trkpt><trkpt lat="43.05661317868189" lon="11.491756816230746"><ele>534.0</ele><time>2026-04-11T15:14:46Z</time></trkpt><trkpt lat="43.05653094882868" lon="11.491810852901724"><ele>534.0</ele><time>2026-04-11T15:14:48Z</time></trkpt><trkpt lat="43.056458121911284" lon="11.491761993826772"><ele>534.0</ele><time>2026-04-11T15:14:49Z</time></trkpt><trkpt lat="43.05639469264282" lon="11.491807774382593"><ele>534.0</ele><time>2026-04-11T15:14:51Z</time></trkpt><trkpt lat="43.05631694398565" lon="11.491820941164542"><ele>534.0</ele><time>2026-04-11T15:14:54Z</time></trkpt><trkpt lat="43.05623727213442" lon="11.49182980405663"><ele>534.0</ele><time>2026-04-11T15:14:55Z</time></trkpt><trkpt lat="43.056127056821" lon="11.49181156952644"><ele>534.0</ele><time>2026-04-11T15:14:57Z</time></trkpt><trkpt lat="43.056029234981516" lon="11.491804382320689"><ele>534.0</ele><time>2026-04-11T15:14:59Z</time></trkpt><trkpt lat="43.05594359084181" lon="11.491825363300194"><ele>534.0</ele><time>2026-04-11T15:15:01Z</time></trkpt><trkpt lat="43.05585857460675" lon="11.4918493442569"><ele>534.0</ele><time>2026-04-11T15:15:03Z</time></trkpt><trkpt lat="43.05579420056718" lon="11.491856830093614"><ele>534.0</ele><time>2026-04-11T15:15:05Z</time></trkpt><trkpt lat="43.05573108695235" lon="11.491891715095468"><ele>534.0</ele><time>2026-04-11T15:15:07Z</time></trkpt><trkpt lat="43.05565905316389" lon="11.49197963450595"><ele>531.1666666666666</ele><time>2026-04-11T15:15:09Z</time></trkpt><trkpt lat="43.055573949774775" lon="11.4919927902189"><ele>528.3333333333334</ele><time>2026-04-11T15:15:11Z</time></trkpt><trkpt lat="43.05549957896112" lon="11.491957855209332"><ele>525.5</ele><time>2026-04-11T15:15:13Z</time></trkpt><trkpt lat="43.05543010592654" lon="11.491935430771289"><ele>522.6666666666667</ele><time>2026-04-11T15:15:15Z</time></trkpt><trkpt lat="43.05536206262384" lon="11.491866727775308"><ele>519.8333333333334</ele><time>2026-04-11T15:15:17Z</time></trkpt><trkpt lat="43.055301062774745" lon="11.491779786696547"><ele>517.0</ele><time>2026-04-11T15:15:19Z</time></trkpt><trkpt lat="43.055234163654156" lon="11.491673696401072"><ele>517.0</ele><time>2026-04-11T15:15:21Z</time></trkpt><trkpt lat="43.055150507574275" lon="11.49156057865417"><ele>517.0</ele><time>2026-04-11T15:15:23Z</time></trkpt><trkpt lat="43.055063904385015" lon="11.49144863536485"><ele>517.0</ele><time>2026-04-11T15:15:25Z</time></trkpt><trkpt lat="43.05502502393405" lon="11.491380675772776"><ele>517.0</ele><time>2026-04-11T15:15:26Z</time></trkpt><trkpt lat="43.05494288095428" lon="11.491252627474797"><ele>517.0</ele><time>2026-04-11T15:15:28Z</time></trkpt><trkpt lat="43.05489941873067" lon="11.491189154012314"><ele>520.5</ele><time>2026-04-11T15:15:29Z</time></trkpt><trkpt lat="43.05481718562964" lon="11.4910631297289"><ele>524.0</ele><time>2026-04-11T15:15:31Z</time></trkpt><trkpt lat="43.05477025584347" lon="11.490999235342176"><ele>527.5</ele><time>2026-04-11T15:15:32Z</time></trkpt><trkpt lat="43.05471097533878" lon="11.490944883318049"><ele>531.0</ele><time>2026-04-11T15:15:33Z</time></trkpt><trkpt lat="43.054642781321085" lon="11.490921151427747"><ele>534.5</ele><time>2026-04-11T15:15:34Z</time></trkpt><trkpt lat="43.05456540155403" lon="11.490930638715612"><ele>538.0</ele><time>2026-04-11T15:15:35Z</time></trkpt><trkpt lat="43.05448992611407" lon="11.490966541505971"><ele>538.0</ele><time>2026-04-11T15:15:36Z</time></trkpt><trkpt lat="43.05442077014153" lon="11.491039620242901"><ele>538.0</ele><time>2026-04-11T15:15:37Z</time></trkpt><trkpt lat="43.054357241451115" lon="11.491140177954897"><ele>538.0</ele><time>2026-04-11T15:15:38Z</time></trkpt><trkpt lat="43.054348407772665" lon="11.491275516434696"><ele>538.0</ele><time>2026-04-11T15:15:39Z</time></trkpt><trkpt lat="43.0543342224809" lon="11.491398015887167"><ele>538.0</ele><time>2026-04-11T15:15:40Z</time></trkpt><trkpt lat="43.054357071741876" lon="11.491517014857832"><ele>537.6</ele><time>2026-04-11T15:15:41Z</time></trkpt><trkpt lat="43.05437674810892" lon="11.491640439495606"><ele>537.1999999999999</ele><time>2026-04-11T15:15:42Z</time></trkpt><trkpt lat="43.05440184722816" lon="11.491767069257227"><ele>536.8</ele><time>2026-04-11T15:15:43Z</time></trkpt><trkpt lat="43.054403732168986" lon="11.491898520859857"><ele>536.4</ele><time>2026-04-11T15:15:44Z</time></trkpt><trkpt lat="43.054429657058186" lon="11.492026783635236"><ele>536.0</ele><time>2026-04-11T15:15:45Z</time></trkpt><trkpt lat="43.05442593106847" lon="11.492165973335345"><ele>533.6</ele><time>2026-04-11T15:15:46Z</time></trkpt><trkpt lat="43.05444656353092" lon="11.492302864847408"><ele>531.2</ele><time>2026-04-11T15:15:47Z</time></trkpt><trkpt lat="43.054433640995015" lon="11.492443956642898"><ele>528.8</ele><time>2026-04-11T15:15:48Z</time></trkpt><trkpt lat="43.05442733422586" lon="11.492581827689769"><ele>526.4</ele><time>2026-04-11T15:15:49Z</time></trkpt><trkpt lat="43.05441400574185" lon="11.492717884820294"><ele>524.0</ele><time>2026-04-11T15:15:50Z</time></trkpt><trkpt lat="43.05440151627852" lon="11.49285670866056"><ele>520.4</ele><time>2026-04-11T15:15:51Z</time></trkpt><trkpt lat="43.054359085642425" lon="11.492972807285977"><ele>516.8</ele><time>2026-04-11T15:15:52Z</time></trkpt><trkpt lat="43.0543164342412" lon="11.493080141185171"><ele>513.2</ele><time>2026-04-11T15:15:53Z</time></trkpt><trkpt lat="43.05426484002636" lon="11.493192373460813"><ele>509.6</ele><time>2026-04-11T15:15:54Z</time></trkpt><trkpt lat="43.05421352578715" lon="11.493308292647486"><ele>506.0</ele><time>2026-04-11T15:15:55Z</time></trkpt><trkpt lat="43.054141502660244" lon="11.49340355810902"><ele>506.4</ele><time>2026-04-11T15:15:56Z</time></trkpt><trkpt lat="43.0540551231573" lon="11.493480443239147"><ele>506.8</ele><time>2026-04-11T15:15:57Z</time></trkpt><trkpt lat="43.05396672830263" lon="11.493553368772943"><ele>507.19999999999993</ele><time>2026-04-11T15:15:58Z</time></trkpt><trkpt lat="43.053872544630735" lon="11.493622251781142"><ele>507.59999999999997</ele><time>2026-04-11T15:15:59Z</time></trkpt><trkpt lat="43.05379275566105" lon="11.493708132722183"><ele>508.0</ele><time>2026-04-11T15:16:00Z</time></trkpt><trkpt lat="43.05371920378529" lon="11.493809434274693"><ele>508.0</ele><time>2026-04-11T15:16:01Z</time></trkpt><trkpt lat="43.05365433780478" lon="11.493909819896162"><ele>507.99999999999994</ele><time>2026-04-11T15:16:02Z</time></trkpt><trkpt lat="43.05359870281641" lon="11.494017616557903"><ele>507.99999999999994</ele><time>2026-04-11T15:16:03Z</time></trkpt><trkpt lat="43.053542268782785" lon="11.494137613710501"><ele>508.0</ele><time>2026-04-11T15:16:04Z</time></trkpt><trkpt lat="43.053507223897164" lon="11.494267845236655"><ele>508.0</ele><time>2026-04-11T15:16:05Z</time></trkpt><trkpt lat="43.05349369503776" lon="11.494404442354087"><ele>508.0</ele><time>2026-04-11T15:16:06Z</time></trkpt><trkpt lat="43.05349251497438" lon="11.49451307273578"><ele>507.99999999999994</ele><time>2026-04-11T15:16:07Z</time></trkpt><trkpt lat="43.05347981038562" lon="11.49467357946552"><ele>507.99999999999994</ele><time>2026-04-11T15:16:08Z</time></trkpt><trkpt lat="43.05348920878587" lon="11.494813738982964"><ele>508.0</ele><time>2026-04-11T15:16:09Z</time></trkpt><trkpt lat="43.05350296159681" lon="11.49495212067145"><ele>508.0</ele><time>2026-04-11T15:16:10Z</time></trkpt><trkpt lat="43.05351431802304" lon="11.495094049281814"><ele>507.4</ele><time>2026-04-11T15:16:11Z</time></trkpt><trkpt lat="43.0535199663096" lon="11.495234758658283"><ele>506.79999999999995</ele><time>2026-04-11T15:16:12Z</time></trkpt><trkpt lat="43.05352601790583" lon="11.495375902480907"><ele>506.2</ele><time>2026-04-11T15:16:13Z</time></trkpt><trkpt lat="43.05353340769923" lon="11.495513226890168"><ele>505.6</ele><time>2026-04-11T15:16:14Z</time></trkpt><trkpt lat="43.05354545114651" lon="11.495654828919571"><ele>505.0</ele><time>2026-04-11T15:16:15Z</time></trkpt><trkpt lat="43.05354663861937" lon="11.495796961080861"><ele>504.8</ele><time>2026-04-11T15:16:16Z</time></trkpt><trkpt lat="43.05354179203877" lon="11.49593935570265"><ele>504.6</ele><time>2026-04-11T15:16:17Z</time></trkpt><trkpt lat="43.053528859210196" lon="11.496081587292284"><ele>504.4</ele><time>2026-04-11T15:16:18Z</time></trkpt><trkpt lat="43.053507980423184" lon="11.496220874787832"><ele>504.2</ele><time>2026-04-11T15:16:19Z</time></trkpt><trkpt lat="43.053489879809625" lon="11.496362415560835"><ele>504.0</ele><time>2026-04-11T15:16:20Z</time></trkpt><trkpt lat="43.05347564798309" lon="11.496497899092006"><ele>503.0</ele><time>2026-04-11T15:16:21Z</time></trkpt><trkpt lat="43.05346162586465" lon="11.49663028008075"><ele>502.0</ele><time>2026-04-11T15:16:22Z</time></trkpt><trkpt lat="43.053437377835195" lon="11.496762573364125"><ele>501.0</ele><time>2026-04-11T15:16:23Z</time></trkpt><trkpt lat="43.053419241509474" lon="11.496891162241562"><ele>500.0</ele><time>2026-04-11T15:16:24Z</time></trkpt><trkpt lat="43.05339533086977" lon="11.49702215151256"><ele>499.0</ele><time>2026-04-11T15:16:25Z</time></trkpt><trkpt lat="43.053372194800524" lon="11.497143063235843"><ele>498.50000000000006</ele><time>2026-04-11T15:16:26Z</time></trkpt><trkpt lat="43.053341008246434" lon="11.497252495568011"><ele>498.0</ele><time>2026-04-11T15:16:27Z</time></trkpt><trkpt lat="43.05331028265235" lon="11.497357965405676"><ele>497.5</ele><time>2026-04-11T15:16:28Z</time></trkpt><trkpt lat="43.05327315447596" lon="11.49745855319881"><ele>497.0</ele><time>2026-04-11T15:16:29Z</time></trkpt><trkpt lat="43.05323489880759" lon="11.497564058545041"><ele>496.50000000000006</ele><time>2026-04-11T15:16:30Z</time></trkpt><trkpt lat="43.05319119083891" lon="11.497658202206123"><ele>496.0</ele><time>2026-04-11T15:16:31Z</time></trkpt><trkpt lat="43.05315484459381" lon="11.497756795894395"><ele>496.6666666666667</ele><time>2026-04-11T15:16:32Z</time></trkpt><trkpt lat="43.05310944743621" lon="11.497846417192013"><ele>497.33333333333337</ele><time>2026-04-11T15:16:33Z</time></trkpt><trkpt lat="43.05306259358559" lon="11.497936456336644"><ele>498.0</ele><time>2026-04-11T15:16:34Z</time></trkpt><trkpt lat="43.05302726156898" lon="11.498028469826194"><ele>498.66666666666663</ele><time>2026-04-11T15:16:35Z</time></trkpt><trkpt lat="43.05299405460568" lon="11.498120530558253"><ele>499.3333333333333</ele><time>2026-04-11T15:16:36Z</time></trkpt><trkpt lat="43.05295030076586" lon="11.49821560270747"><ele>500.0</ele><time>2026-04-11T15:16:37Z</time></trkpt><trkpt lat="43.052910633579046" lon="11.498318342024097"><ele>500.0</ele><time>2026-04-11T15:16:38Z</time></trkpt><trkpt lat="43.05285521368788" lon="11.498407937525942"><ele>500.0</ele><time>2026-04-11T15:16:39Z</time></trkpt><trkpt lat="43.05280911518556" lon="11.498514305590982"><ele>500.0</ele><time>2026-04-11T15:16:40Z</time></trkpt><trkpt lat="43.052774978753824" lon="11.49863078250214"><ele>500.0</ele><time>2026-04-11T15:16:41Z</time></trkpt><trkpt lat="43.052728036669315" lon="11.498744282667277"><ele>500.0</ele><time>2026-04-11T15:16:42Z</time></trkpt><trkpt lat="43.052683489958675" lon="11.498860084748886"><ele>498.6</ele><time>2026-04-11T15:16:43Z</time></trkpt><trkpt lat="43.05262169761164" lon="11.498970049517226"><ele>497.2</ele><time>2026-04-11T15:16:44Z</time></trkpt><trkpt lat="43.05258188736309" lon="11.49910838437232"><ele>495.79999999999995</ele><time>2026-04-11T15:16:45Z</time></trkpt><trkpt lat="43.052518134409034" lon="11.499224075959111"><ele>494.4</ele><time>2026-04-11T15:16:46Z</time></trkpt><trkpt lat="43.0524663569242" lon="11.4993510790996"><ele>493.0</ele><time>2026-04-11T15:16:47Z</time></trkpt><trkpt lat="43.052413738533346" lon="11.499480144851596"><ele>489.5</ele><time>2026-04-11T15:16:48Z</time></trkpt><trkpt lat="43.05235737762176" lon="11.499616145784396"><ele>486.0</ele><time>2026-04-11T15:16:49Z</time></trkpt><trkpt lat="43.05230180803579" lon="11.499753557647066"><ele>482.5</ele><time>2026-04-11T15:16:50Z</time></trkpt><trkpt lat="43.052246450273614" lon="11.499890445720617"><ele>479.0</ele><time>2026-04-11T15:16:51Z</time></trkpt><trkpt lat="43.052203384040126" lon="11.500041356322916"><ele>479.0</ele><time>2026-04-11T15:16:52Z</time></trkpt><trkpt lat="43.052132971034986" lon="11.50016504589588"><ele>479.0</ele><time>2026-04-11T15:16:53Z</time></trkpt><trkpt lat="43.052080641122515" lon="11.50029318429209"><ele>479.0</ele><time>2026-04-11T15:16:54Z</time></trkpt><trkpt lat="43.05202894542915" lon="11.500426659979526"><ele>479.0</ele><time>2026-04-11T15:16:55Z</time></trkpt><trkpt lat="43.051991817628746" lon="11.500572161727337"><ele>479.0</ele><time>2026-04-11T15:16:56Z</time></trkpt><trkpt lat="43.051949097671255" lon="11.500705714960235"><ele>478.0</ele><time>2026-04-11T15:16:57Z</time></trkpt><trkpt lat="43.05194290621587" lon="11.500850858345018"><ele>477.0</ele><time>2026-04-11T15:16:58Z</time></trkpt><trkpt lat="43.05191876016356" lon="11.500998619493869"><ele>476.0</ele><time>2026-04-11T15:16:59Z</time></trkpt><trkpt lat="43.05191534868853" lon="11.501147288422938"><ele>475.0</ele><time>2026-04-11T15:17:00Z</time></trkpt><trkpt lat="43.05193145268709" lon="11.501296827604824"><ele>474.0</ele><time>2026-04-11T15:17:01Z</time></trkpt><trkpt lat="43.051921446029475" lon="11.50145401673859"><ele>472.75</ele><time>2026-04-11T15:17:02Z</time></trkpt><trkpt lat="43.05194445384316" lon="11.501605847234499"><ele>471.5</ele><time>2026-04-11T15:17:03Z</time></trkpt><trkpt lat="43.051932905665666" lon="11.501765978652406"><ele>470.25</ele><time>2026-04-11T15:17:04Z</time></trkpt><trkpt lat="43.05192747453221" lon="11.501919650483734"><ele>469.0</ele><time>2026-04-11T15:17:05Z</time></trkpt><trkpt lat="43.05191258002847" lon="11.50206875996812"><ele>468.4</ele><time>2026-04-11T15:17:06Z</time></trkpt><trkpt lat="43.051889937126724" lon="11.502201960993585"><ele>467.79999999999995</ele><time>2026-04-11T15:17:07Z</time></trkpt><trkpt lat="43.051855542417314" lon="11.502331479979128"><ele>467.20000000000005</ele><time>2026-04-11T15:17:08Z</time></trkpt><trkpt lat="43.05181528035509" lon="11.502464590663218"><ele>466.6</ele><time>2026-04-11T15:17:09Z</time></trkpt><trkpt lat="43.05177886260316" lon="11.502608418598353"><ele>466.0</ele><time>2026-04-11T15:17:10Z</time></trkpt><trkpt lat="43.051745110931904" lon="11.502752030810887"><ele>466.0</ele><time>2026-04-11T15:17:11Z</time></trkpt><trkpt lat="43.051737392587924" lon="11.502902282657852"><ele>466.0</ele><time>2026-04-11T15:17:12Z</time></trkpt><trkpt lat="43.05173090761935" lon="11.503049581006502"><ele>466.0</ele><time>2026-04-11T15:17:13Z</time></trkpt><trkpt lat="43.051741983783735" lon="11.503199411402548"><ele>466.0</ele><time>2026-04-11T15:17:14Z</time></trkpt><trkpt lat="43.05176817941666" lon="11.503345349693523"><ele>466.0</ele><time>2026-04-11T15:17:15Z</time></trkpt><trkpt lat="43.05179841577508" lon="11.503470324655703"><ele>465.6</ele><time>2026-04-11T15:17:16Z</time></trkpt><trkpt lat="43.05185059512895" lon="11.503592464833915"><ele>465.20000000000005</ele><time>2026-04-11T15:17:17Z</time></trkpt><trkpt lat="43.05192739434434" lon="11.503720339677823"><ele>464.79999999999995</ele><time>2026-04-11T15:17:18Z</time></trkpt><trkpt lat="43.051983063949436" lon="11.503853537424458"><ele>464.4</ele><time>2026-04-11T15:17:19Z</time></trkpt><trkpt lat="43.05202305385565" lon="11.503981320501472"><ele>464.0</ele><time>2026-04-11T15:17:20Z</time></trkpt><trkpt lat="43.05205282176121" lon="11.504087921623142"><ele>462.66666666666663</ele><time>2026-04-11T15:17:21Z</time></trkpt><trkpt lat="43.052103690054224" lon="11.504165101236646"><ele>461.3333333333333</ele><time>2026-04-11T15:17:22Z</time></trkpt><trkpt lat="43.05215894365207" lon="11.504257597929492"><ele>460.0</ele><time>2026-04-11T15:17:23Z</time></trkpt><trkpt lat="43.05219478636354" lon="11.504355060828894"><ele>458.66666666666663</ele><time>2026-04-11T15:17:24Z</time></trkpt><trkpt lat="43.05222918600774" lon="11.50444856657985"><ele>457.3333333333333</ele><time>2026-04-11T15:17:25Z</time></trkpt><trkpt lat="43.05225754252624" lon="11.504540616983455"><ele>456.0</ele><time>2026-04-11T15:17:26Z</time></trkpt><trkpt lat="43.05228103897673" lon="11.504632904525591"><ele>454.4</ele><time>2026-04-11T15:17:27Z</time></trkpt><trkpt lat="43.052287046386105" lon="11.504729658743107"><ele>452.8</ele><time>2026-04-11T15:17:28Z</time></trkpt><trkpt lat="43.052270351392714" lon="11.504892229237122"><ele>451.19999999999993</ele><time>2026-04-11T15:17:30Z</time></trkpt><trkpt lat="43.052282628270845" lon="11.505020142144438"><ele>449.59999999999997</ele><time>2026-04-11T15:17:32Z</time></trkpt><trkpt lat="43.0523718399805" lon="11.505095000563797"><ele>448.0</ele><time>2026-04-11T15:17:34Z</time></trkpt><trkpt lat="43.052435312353936" lon="11.505066844710495"><ele>450.0</ele><time>2026-04-11T15:17:35Z</time></trkpt><trkpt lat="43.052529214796614" lon="11.50498597759752"><ele>451.99999999999994</ele><time>2026-04-11T15:17:37Z</time></trkpt><trkpt lat="43.052654223287675" lon="11.505006135606616"><ele>453.99999999999994</ele><time>2026-04-11T15:17:39Z</time></trkpt><trkpt lat="43.05278254157649" lon="11.505069307683252"><ele>456.0</ele><time>2026-04-11T15:17:41Z</time></trkpt><trkpt lat="43.052845798231054" lon="11.505127105555928"><ele>458.0</ele><time>2026-04-11T15:17:42Z</time></trkpt><trkpt lat="43.05291690466117" lon="11.50517744839228"><ele>457.99999999999994</ele><time>2026-04-11T15:17:43Z</time></trkpt><trkpt lat="43.05298955173886" lon="11.505235200711414"><ele>458.0</ele><time>2026-04-11T15:17:44Z</time></trkpt><trkpt lat="43.05306377886007" lon="11.505301618144653"><ele>458.0</ele><time>2026-04-11T15:17:45Z</time></trkpt><trkpt lat="43.0531300194029" lon="11.505385624875316"><ele>458.0</ele><time>2026-04-11T15:17:46Z</time></trkpt><trkpt lat="43.05317819658216" lon="11.505478005557787"><ele>457.99999999999994</ele><time>2026-04-11T15:17:47Z</time></trkpt><trkpt lat="43.05321364838052" lon="11.505581629238225"><ele>458.0</ele><time>2026-04-11T15:17:48Z</time></trkpt><trkpt lat="43.053259707185354" lon="11.505677203270698"><ele>457.59999999999997</ele><time>2026-04-11T15:17:49Z</time></trkpt><trkpt lat="43.0532594021391" lon="11.505806513784911"><ele>457.19999999999993</ele><time>2026-04-11T15:17:50Z</time></trkpt><trkpt lat="43.05324930306403" lon="11.50593532213365"><ele>456.8</ele><time>2026-04-11T15:17:51Z</time></trkpt><trkpt lat="43.05323506306344" lon="11.506081397192716"><ele>456.4</ele><time>2026-04-11T15:17:52Z</time></trkpt><trkpt lat="43.05322094342962" lon="11.506226894502014"><ele>456.0</ele><time>2026-04-11T15:17:53Z</time></trkpt><trkpt lat="43.05320151192834" lon="11.50637345191171"><ele>455.4</ele><time>2026-04-11T15:17:54Z</time></trkpt><trkpt lat="43.0531836271639" lon="11.506511249818775"><ele>454.8</ele><time>2026-04-11T15:17:55Z</time></trkpt><trkpt lat="43.053168171909725" lon="11.506652834302194"><ele>454.19999999999993</ele><time>2026-04-11T15:17:56Z</time></trkpt><trkpt lat="43.05315157688728" lon="11.506801402305696"><ele>453.59999999999997</ele><time>2026-04-11T15:17:57Z</time></trkpt><trkpt lat="43.05312979303356" lon="11.506953988650503"><ele>453.0</ele><time>2026-04-11T15:17:58Z</time></trkpt><trkpt lat="43.05311749470014" lon="11.507109282233845"><ele>451.0</ele><time>2026-04-11T15:17:59Z</time></trkpt><trkpt lat="43.053098703461664" lon="11.507263094797015"><ele>449.0</ele><time>2026-04-11T15:18:00Z</time></trkpt><trkpt lat="43.05307782815568" lon="11.50742243778775"><ele>447.0</ele><time>2026-04-11T15:18:01Z</time></trkpt><trkpt lat="43.053055667795896" lon="11.507575380489568"><ele>445.0</ele><time>2026-04-11T15:18:02Z</time></trkpt><trkpt lat="43.05303889273309" lon="11.507724757074813"><ele>445.0</ele><time>2026-04-11T15:18:03Z</time></trkpt><trkpt lat="43.053021641273226" lon="11.507878375819635"><ele>445.0</ele><time>2026-04-11T15:18:04Z</time></trkpt><trkpt lat="43.05300398217173" lon="11.508035244624672"><ele>445.0</ele><time>2026-04-11T15:18:05Z</time></trkpt><trkpt lat="43.05298442705622" lon="11.50819368200409"><ele>445.0</ele><time>2026-04-11T15:18:06Z</time></trkpt><trkpt lat="43.05297016648032" lon="11.50835931922347"><ele>442.75</ele><time>2026-04-11T15:18:07Z</time></trkpt><trkpt lat="43.052966248535995" lon="11.508540629108433"><ele>440.5</ele><time>2026-04-11T15:18:08Z</time></trkpt><trkpt lat="43.052988418877455" lon="11.508715338325365"><ele>438.25</ele><time>2026-04-11T15:18:09Z</time></trkpt><trkpt lat="43.05299602661059" lon="11.508901515812688"><ele>436.0</ele><time>2026-04-11T15:18:10Z</time></trkpt><trkpt lat="43.05302890000495" lon="11.509077745832679"><ele>434.0</ele><time>2026-04-11T15:18:11Z</time></trkpt><trkpt lat="43.053064768211605" lon="11.509245160340912"><ele>432.0</ele><time>2026-04-11T15:18:12Z</time></trkpt><trkpt lat="43.05309911526193" lon="11.509406324769678"><ele>430.0</ele><time>2026-04-11T15:18:13Z</time></trkpt><trkpt lat="43.05314341622902" lon="11.5095587732196"><ele>428.0</ele><time>2026-04-11T15:18:14Z</time></trkpt><trkpt lat="43.05318662969638" lon="11.509715957073748"><ele>427.25</ele><time>2026-04-11T15:18:15Z</time></trkpt><trkpt lat="43.05322223487661" lon="11.509881271830459"><ele>426.5</ele><time>2026-04-11T15:18:16Z</time></trkpt><trkpt lat="43.053287724618016" lon="11.510033846534897"><ele>425.75</ele><time>2026-04-11T15:18:17Z</time></trkpt><trkpt lat="43.05336995959879" lon="11.510154683058625"><ele>425.0</ele><time>2026-04-11T15:18:18Z</time></trkpt><trkpt lat="43.05346404543584" lon="11.510267595616815"><ele>425.0</ele><time>2026-04-11T15:18:19Z</time></trkpt><trkpt lat="43.053565026962076" lon="11.510363086715325"><ele>425.0</ele><time>2026-04-11T15:18:20Z</time></trkpt><trkpt lat="43.0536809087227" lon="11.510457380669292"><ele>425.0</ele><time>2026-04-11T15:18:21Z</time></trkpt><trkpt lat="43.053790330765544" lon="11.510554439975506"><ele>425.0</ele><time>2026-04-11T15:18:22Z</time></trkpt><trkpt lat="43.053909131312565" lon="11.510609296865852"><ele>423.25</ele><time>2026-04-11T15:18:23Z</time></trkpt><trkpt lat="43.05403953809368" lon="11.510641081750045"><ele>421.5</ele><time>2026-04-11T15:18:24Z</time></trkpt><trkpt lat="43.0541774428108" lon="11.510642867651777"><ele>419.75</ele><time>2026-04-11T15:18:25Z</time></trkpt><trkpt lat="43.054312224076654" lon="11.51061106029293"><ele>418.0</ele><time>2026-04-11T15:18:26Z</time></trkpt><trkpt lat="43.054440902487464" lon="11.510550620238432"><ele>417.5</ele><time>2026-04-11T15:18:27Z</time></trkpt><trkpt lat="43.05455973515226" lon="11.510455802141701"><ele>417.0</ele><time>2026-04-11T15:18:28Z</time></trkpt><trkpt lat="43.05467610133585" lon="11.510340550794856"><ele>416.5</ele><time>2026-04-11T15:18:29Z</time></trkpt><trkpt lat="43.05477785035652" lon="11.510218160861363"><ele>416.0</ele><time>2026-04-11T15:18:30Z</time></trkpt><trkpt lat="43.05487321731845" lon="11.510076697625555"><ele>415.5</ele><time>2026-04-11T15:18:31Z</time></trkpt><trkpt lat="43.05494793501936" lon="11.50991564380955"><ele>415.0</ele><time>2026-04-11T15:18:32Z</time></trkpt><trkpt lat="43.055020119285764" lon="11.50976310669234"><ele>414.5</ele><time>2026-04-11T15:18:33Z</time></trkpt><trkpt lat="43.055076277010095" lon="11.509583684897683"><ele>414.0</ele><time>2026-04-11T15:18:34Z</time></trkpt><trkpt lat="43.05512988014926" lon="11.509415926931178"><ele>414.0</ele><time>2026-04-11T15:18:35Z</time></trkpt><trkpt lat="43.05518443462784" lon="11.50924230346816"><ele>414.0</ele><time>2026-04-11T15:18:36Z</time></trkpt><trkpt lat="43.055271641717496" lon="11.509103577277203"><ele>414.0</ele><time>2026-04-11T15:18:37Z</time></trkpt><trkpt lat="43.055353298149285" lon="11.508971084588591"><ele>414.0</ele><time>2026-04-11T15:18:38Z</time></trkpt><trkpt lat="43.05544521352849" lon="11.508840876602646"><ele>414.2</ele><time>2026-04-11T15:18:39Z</time></trkpt><trkpt lat="43.05554033396149" lon="11.508722591804545"><ele>414.4</ele><time>2026-04-11T15:18:40Z</time></trkpt><trkpt lat="43.055624285717656" lon="11.5086258833775"><ele>414.6</ele><time>2026-04-11T15:18:41Z</time></trkpt><trkpt lat="43.0556971682743" lon="11.508529460248516"><ele>414.8</ele><time>2026-04-11T15:18:42Z</time></trkpt><trkpt lat="43.05577157497518" lon="11.508429399826039"><ele>415.0</ele><time>2026-04-11T15:18:43Z</time></trkpt><trkpt lat="43.05584492201218" lon="11.508317868421056"><ele>411.6</ele><time>2026-04-11T15:18:44Z</time></trkpt><trkpt lat="43.05590324592099" lon="11.508202750250568"><ele>408.2</ele><time>2026-04-11T15:18:45Z</time></trkpt><trkpt lat="43.055944020459336" lon="11.508069886642383"><ele>404.79999999999995</ele><time>2026-04-11T15:18:46Z</time></trkpt><trkpt lat="43.055969391442126" lon="11.507918505889492"><ele>401.4</ele><time>2026-04-11T15:18:47Z</time></trkpt><trkpt lat="43.055978863986155" lon="11.507781340301605"><ele>398.0</ele><time>2026-04-11T15:18:48Z</time></trkpt><trkpt lat="43.05596481292631" lon="11.507641228564557"><ele>397.59999999999997</ele><time>2026-04-11T15:18:49Z</time></trkpt><trkpt lat="43.05596235238928" lon="11.507498401452507"><ele>397.2</ele><time>2026-04-11T15:18:50Z</time></trkpt><trkpt lat="43.05595377448818" lon="11.507365263135174"><ele>396.8</ele><time>2026-04-11T15:18:51Z</time></trkpt><trkpt lat="43.05593325670897" lon="11.507237414838746"><ele>396.4</ele><time>2026-04-11T15:18:52Z</time></trkpt><trkpt lat="43.055902372569314" lon="11.5071115176504"><ele>396.0</ele><time>2026-04-11T15:18:53Z</time></trkpt><trkpt lat="43.055854921527036" lon="11.507005477584945"><ele>394.8</ele><time>2026-04-11T15:18:54Z</time></trkpt><trkpt lat="43.05580281604653" lon="11.50690115154329"><ele>393.6</ele><time>2026-04-11T15:18:55Z</time></trkpt><trkpt lat="43.0557387155395" lon="11.506801396691246"><ele>392.4</ele><time>2026-04-11T15:18:56Z</time></trkpt><trkpt lat="43.05567338390205" lon="11.50671403565427"><ele>391.2</ele><time>2026-04-11T15:18:57Z</time></trkpt><trkpt lat="43.055602638762984" lon="11.50661443855274"><ele>390.0</ele><time>2026-04-11T15:18:58Z</time></trkpt><trkpt lat="43.0555491938113" lon="11.506501537661817"><ele>392.4</ele><time>2026-04-11T15:18:59Z</time></trkpt><trkpt lat="43.05552259095756" lon="11.506370251494507"><ele>394.8</ele><time>2026-04-11T15:19:00Z</time></trkpt><trkpt lat="43.05547629183249" lon="11.506244185995053"><ele>397.20000000000005</ele><time>2026-04-11T15:19:01Z</time></trkpt><trkpt lat="43.05547051263986" lon="11.5061189243283"><ele>399.6</ele><time>2026-04-11T15:19:02Z</time></trkpt><trkpt lat="43.05548608920593" lon="11.50598082629748"><ele>402.0</ele><time>2026-04-11T15:19:03Z</time></trkpt><trkpt lat="43.055525957740755" lon="11.505828063107904"><ele>402.0</ele><time>2026-04-11T15:19:04Z</time></trkpt><trkpt lat="43.05557708745373" lon="11.505693203334351"><ele>402.0</ele><time>2026-04-11T15:19:05Z</time></trkpt><trkpt lat="43.05561079474308" lon="11.505550770632015"><ele>402.0</ele><time>2026-04-11T15:19:06Z</time></trkpt><trkpt lat="43.05566346339533" lon="11.505428705087073"><ele>402.0</ele><time>2026-04-11T15:19:07Z</time></trkpt><trkpt lat="43.05570509112989" lon="11.50529581218953"><ele>402.0</ele><time>2026-04-11T15:19:08Z</time></trkpt><trkpt lat="43.05574601679966" lon="11.50516301109956"><ele>399.6</ele><time>2026-04-11T15:19:09Z</time></trkpt><trkpt lat="43.05579633190874" lon="11.505035166439441"><ele>397.20000000000005</ele><time>2026-04-11T15:19:10Z</time></trkpt><trkpt lat="43.055847128992625" lon="11.504904756370202"><ele>394.8</ele><time>2026-04-11T15:19:11Z</time></trkpt><trkpt lat="43.055904930595545" lon="11.504776098277645"><ele>392.4</ele><time>2026-04-11T15:19:12Z</time></trkpt><trkpt lat="43.05596332209341" lon="11.504649095138928"><ele>390.0</ele><time>2026-04-11T15:19:13Z</time></trkpt><trkpt lat="43.05603301232433" lon="11.504543700054766"><ele>390.0</ele><time>2026-04-11T15:19:14Z</time></trkpt><trkpt lat="43.056099371767125" lon="11.504427403286414"><ele>390.0</ele><time>2026-04-11T15:19:15Z</time></trkpt><trkpt lat="43.05616433162622" lon="11.504307159832205"><ele>390.0</ele><time>2026-04-11T15:19:16Z</time></trkpt><trkpt lat="43.056221855527184" lon="11.504190702306412"><ele>390.0</ele><time>2026-04-11T15:19:17Z</time></trkpt><trkpt lat="43.05630497862457" lon="11.504095224488541"><ele>390.0</ele><time>2026-04-11T15:19:18Z</time></trkpt><trkpt lat="43.056389241049786" lon="11.503992269293963"><ele>390.0</ele><time>2026-04-11T15:19:19Z</time></trkpt><trkpt lat="43.05649675982229" lon="11.503942116819394"><ele>390.0</ele><time>2026-04-11T15:19:20Z</time></trkpt><trkpt lat="43.05660076433455" lon="11.50387006198458"><ele>390.0</ele><time>2026-04-11T15:19:21Z</time></trkpt><trkpt lat="43.056700652124626" lon="11.503802131293194"><ele>390.0</ele><time>2026-04-11T15:19:22Z</time></trkpt><trkpt lat="43.056805406341425" lon="11.503736523092803"><ele>388.5</ele><time>2026-04-11T15:19:23Z</time></trkpt><trkpt lat="43.056908315864284" lon="11.503650589868373"><ele>387.0</ele><time>2026-04-11T15:19:24Z</time></trkpt><trkpt lat="43.05701934151778" lon="11.503589399439555"><ele>385.5</ele><time>2026-04-11T15:19:25Z</time></trkpt><trkpt lat="43.057134764551954" lon="11.503536184237051"><ele>384.0</ele><time>2026-04-11T15:19:26Z</time></trkpt><trkpt lat="43.05725627857621" lon="11.503513743761053"><ele>384.0</ele><time>2026-04-11T15:19:27Z</time></trkpt><trkpt lat="43.05737244281921" lon="11.503453873962899"><ele>384.0</ele><time>2026-04-11T15:19:28Z</time></trkpt><trkpt lat="43.05747797098709" lon="11.503414300888442"><ele>384.0</ele><time>2026-04-11T15:19:29Z</time></trkpt><trkpt lat="43.057573038419235" lon="11.503388911843901"><ele>384.0</ele><time>2026-04-11T15:19:30Z</time></trkpt><trkpt lat="43.0576670955763" lon="11.503330090313096"><ele>384.0</ele><time>2026-04-11T15:19:31Z</time></trkpt><trkpt lat="43.05773488102626" lon="11.503216667060633"><ele>382.2</ele><time>2026-04-11T15:19:32Z</time></trkpt><trkpt lat="43.05778603172573" lon="11.503097051090135"><ele>380.4</ele><time>2026-04-11T15:19:33Z</time></trkpt><trkpt lat="43.057809867962526" lon="11.502964189305928"><ele>378.6</ele><time>2026-04-11T15:19:34Z</time></trkpt><trkpt lat="43.05781490843264" lon="11.502822258823752"><ele>376.8</ele><time>2026-04-11T15:19:35Z</time></trkpt><trkpt lat="43.0578076145816" lon="11.5026923624532"><ele>375.0</ele><time>2026-04-11T15:19:36Z</time></trkpt><trkpt lat="43.05779685566431" lon="11.502564074132382"><ele>375.0</ele><time>2026-04-11T15:19:37Z</time></trkpt><trkpt lat="43.05779386625012" lon="11.50243524153266"><ele>375.0</ele><time>2026-04-11T15:19:38Z</time></trkpt><trkpt lat="43.05783456484541" lon="11.502327552827664"><ele>375.0</ele><time>2026-04-11T15:19:39Z</time></trkpt><trkpt lat="43.057884867236574" lon="11.502233458410688"><ele>375.0</ele><time>2026-04-11T15:19:40Z</time></trkpt><trkpt lat="43.05795471742608" lon="11.502153022535666"><ele>375.0</ele><time>2026-04-11T15:19:41Z</time></trkpt><trkpt lat="43.058034203327836" lon="11.502096107482323"><ele>375.0</ele><time>2026-04-11T15:19:42Z</time></trkpt><trkpt lat="43.058121607327536" lon="11.502066094273314"><ele>374.6666666666667</ele><time>2026-04-11T15:19:43Z</time></trkpt><trkpt lat="43.058209377993265" lon="11.502041890471753"><ele>374.3333333333333</ele><time>2026-04-11T15:19:44Z</time></trkpt><trkpt lat="43.05829970060163" lon="11.502031677231434"><ele>374.0</ele><time>2026-04-11T15:19:45Z</time></trkpt><trkpt lat="43.05838372279758" lon="11.502037417971966"><ele>373.66666666666663</ele><time>2026-04-11T15:19:46Z</time></trkpt><trkpt lat="43.05846661774739" lon="11.502066995591205"><ele>373.3333333333333</ele><time>2026-04-11T15:19:47Z</time></trkpt><trkpt lat="43.05853725090848" lon="11.502133767718693"><ele>373.0</ele><time>2026-04-11T15:19:48Z</time></trkpt><trkpt lat="43.05861401698876" lon="11.50221742231578"><ele>370.59999999999997</ele><time>2026-04-11T15:19:49Z</time></trkpt><trkpt lat="43.05869275983781" lon="11.502305967569106"><ele>368.2</ele><time>2026-04-11T15:19:50Z</time></trkpt><trkpt lat="43.05876641912343" lon="11.502393947729365"><ele>365.8</ele><time>2026-04-11T15:19:51Z</time></trkpt><trkpt lat="43.058844017554144" lon="11.502486622117551"><ele>363.4</ele><time>2026-04-11T15:19:52Z</time></trkpt><trkpt lat="43.05892552186613" lon="11.502580524147998"><ele>361.0</ele><time>2026-04-11T15:19:53Z</time></trkpt><trkpt lat="43.0590218406206" lon="11.502668804211293"><ele>361.0</ele><time>2026-04-11T15:19:54Z</time></trkpt><trkpt lat="43.05908750223489" lon="11.502769773739058"><ele>361.0</ele><time>2026-04-11T15:19:55Z</time></trkpt><trkpt lat="43.05917125066755" lon="11.50285286641949"><ele>361.0</ele><time>2026-04-11T15:19:56Z</time></trkpt><trkpt lat="43.059277152478586" lon="11.502939667947478"><ele>361.0</ele><time>2026-04-11T15:19:57Z</time></trkpt><trkpt lat="43.05939216904083" lon="11.502989180917629"><ele>361.0</ele><time>2026-04-11T15:19:58Z</time></trkpt><trkpt lat="43.05950809251255" lon="11.503022402402596"><ele>357.20000000000005</ele><time>2026-04-11T15:19:59Z</time></trkpt><trkpt lat="43.05962608950296" lon="11.50304595712402"><ele>353.40000000000003</ele><time>2026-04-11T15:20:00Z</time></trkpt><trkpt lat="43.05972941686852" lon="11.503058169038317"><ele>349.6</ele><time>2026-04-11T15:20:01Z</time></trkpt><trkpt lat="43.059830799742656" lon="11.50306845819381"><ele>345.8</ele><time>2026-04-11T15:20:02Z</time></trkpt><trkpt lat="43.059939360876626" lon="11.50307761241862"><ele>342.0</ele><time>2026-04-11T15:20:03Z</time></trkpt><trkpt lat="43.06004278848647" lon="11.50307155562016"><ele>341.20000000000005</ele><time>2026-04-11T15:20:04Z</time></trkpt><trkpt lat="43.06014545275584" lon="11.503045186020813"><ele>340.4</ele><time>2026-04-11T15:20:05Z</time></trkpt><trkpt lat="43.06024987321782" lon="11.503009990780809"><ele>339.6</ele><time>2026-04-11T15:20:06Z</time></trkpt><trkpt lat="43.06034607163761" lon="11.502924658899593"><ele>338.79999999999995</ele><time>2026-04-11T15:20:07Z</time></trkpt><trkpt lat="43.06043800461398" lon="11.502844948556852"><ele>338.0</ele><time>2026-04-11T15:20:08Z</time></trkpt><trkpt lat="43.06052038085872" lon="11.50274809187797"><ele>338.79999999999995</ele><time>2026-04-11T15:20:09Z</time></trkpt><trkpt lat="43.060590207330705" lon="11.502636870727205"><ele>339.6</ele><time>2026-04-11T15:20:10Z</time></trkpt><trkpt lat="43.06065230285026" lon="11.502518270142293"><ele>340.4</ele><time>2026-04-11T15:20:11Z</time></trkpt><trkpt lat="43.06071724481318" lon="11.502403461392488"><ele>341.20000000000005</ele><time>2026-04-11T15:20:12Z</time></trkpt><trkpt lat="43.0607926435279" lon="11.502291411630077"><ele>342.0</ele><time>2026-04-11T15:20:13Z</time></trkpt><trkpt lat="43.06087256828123" lon="11.50219378596736"><ele>342.0</ele><time>2026-04-11T15:20:14Z</time></trkpt><trkpt lat="43.06098551096371" lon="11.502142196768041"><ele>342.0</ele><time>2026-04-11T15:20:15Z</time></trkpt><trkpt lat="43.06109272890039" lon="11.502107876064542"><ele>342.0</ele><time>2026-04-11T15:20:16Z</time></trkpt><trkpt lat="43.06120846825799" lon="11.502088391886085"><ele>342.0</ele><time>2026-04-11T15:20:17Z</time></trkpt><trkpt lat="43.061317462083615" lon="11.502057130244776"><ele>342.0</ele><time>2026-04-11T15:20:18Z</time></trkpt><trkpt lat="43.061431368924026" lon="11.502039833491148"><ele>342.0</ele><time>2026-04-11T15:20:19Z</time></trkpt><trkpt lat="43.06154278134722" lon="11.502007079494135"><ele>342.0</ele><time>2026-04-11T15:20:20Z</time></trkpt><trkpt lat="43.06164871266026" lon="11.501948185859243"><ele>342.0</ele><time>2026-04-11T15:20:21Z</time></trkpt><trkpt lat="43.06175251950704" lon="11.501874998142489"><ele>342.0</ele><time>2026-04-11T15:20:22Z</time></trkpt><trkpt lat="43.06184842467777" lon="11.501781283999163"><ele>342.0</ele><time>2026-04-11T15:20:23Z</time></trkpt><trkpt lat="43.06194536193174" lon="11.501693207419942"><ele>342.0</ele><time>2026-04-11T15:20:24Z</time></trkpt><trkpt lat="43.06203880372447" lon="11.50159980939975"><ele>342.0</ele><time>2026-04-11T15:20:25Z</time></trkpt><trkpt lat="43.062134781469176" lon="11.501511464712381"><ele>342.0</ele><time>2026-04-11T15:20:26Z</time></trkpt><trkpt lat="43.06223063899664" lon="11.501418144168257"><ele>342.0</ele><time>2026-04-11T15:20:27Z</time></trkpt><trkpt lat="43.06232842169502" lon="11.501333012152083"><ele>342.0</ele><time>2026-04-11T15:20:28Z</time></trkpt><trkpt lat="43.06242015519584" lon="11.501242421463587"><ele>342.0</ele><time>2026-04-11T15:20:29Z</time></trkpt><trkpt lat="43.062513539566396" lon="11.501159014475412"><ele>341.0</ele><time>2026-04-11T15:20:30Z</time></trkpt><trkpt lat="43.06260844760507" lon="11.501080647295355"><ele>340.0</ele><time>2026-04-11T15:20:31Z</time></trkpt><trkpt lat="43.062711098408045" lon="11.5010245654277"><ele>339.0</ele><time>2026-04-11T15:20:32Z</time></trkpt><trkpt lat="43.06281377364485" lon="11.500984792695046"><ele>338.0</ele><time>2026-04-11T15:20:33Z</time></trkpt><trkpt lat="43.06292520745894" lon="11.500974684159369"><ele>337.0</ele><time>2026-04-11T15:20:34Z</time></trkpt><trkpt lat="43.063034556192605" lon="11.501006823562715"><ele>337.0</ele><time>2026-04-11T15:20:35Z</time></trkpt><trkpt lat="43.06313469642816" lon="11.501044305159349"><ele>337.0</ele><time>2026-04-11T15:20:36Z</time></trkpt><trkpt lat="43.06324336379828" lon="11.50106517861391"><ele>337.0</ele><time>2026-04-11T15:20:37Z</time></trkpt><trkpt lat="43.06334018251235" lon="11.501122598879297"><ele>337.0</ele><time>2026-04-11T15:20:38Z</time></trkpt><trkpt lat="43.06344080457127" lon="11.501174253789475"><ele>337.0</ele><time>2026-04-11T15:20:39Z</time></trkpt><trkpt lat="43.06354242096167" lon="11.501229088531165"><ele>334.20000000000005</ele><time>2026-04-11T15:20:40Z</time></trkpt><trkpt lat="43.063644624972774" lon="11.501286298829882"><ele>331.4</ele><time>2026-04-11T15:20:41Z</time></trkpt><trkpt lat="43.06374740227995" lon="11.501335207986234"><ele>328.6</ele><time>2026-04-11T15:20:42Z</time></trkpt><trkpt lat="43.06385022349344" lon="11.501391272259522"><ele>325.79999999999995</ele><time>2026-04-11T15:20:43Z</time></trkpt><trkpt lat="43.063959897149616" lon="11.501444909097364"><ele>323.0</ele><time>2026-04-11T15:20:44Z</time></trkpt><trkpt lat="43.064062170894054" lon="11.501521450785138"><ele>322.75</ele><time>2026-04-11T15:20:45Z</time></trkpt><trkpt lat="43.06417099904291" lon="11.50157989917121"><ele>322.5</ele><time>2026-04-11T15:20:46Z</time></trkpt><trkpt lat="43.06428274573305" lon="11.501637815208703"><ele>322.25</ele><time>2026-04-11T15:20:47Z</time></trkpt><trkpt lat="43.06439851755054" lon="11.501689350356049"><ele>322.0</ele><time>2026-04-11T15:20:48Z</time></trkpt><trkpt lat="43.064521523791065" lon="11.501716779613151"><ele>322.0</ele><time>2026-04-11T15:20:49Z</time></trkpt><trkpt lat="43.064640086300344" lon="11.501751155744369"><ele>322.0</ele><time>2026-04-11T15:20:50Z</time></trkpt><trkpt lat="43.06476254801191" lon="11.5017527726894"><ele>322.0</ele><time>2026-04-11T15:20:51Z</time></trkpt><trkpt lat="43.064884212510925" lon="11.5017293945156"><ele>322.0</ele><time>2026-04-11T15:20:52Z</time></trkpt><trkpt lat="43.064998635232115" lon="11.501663418217746"><ele>321.0</ele><time>2026-04-11T15:20:53Z</time></trkpt><trkpt lat="43.06510378639599" lon="11.501592243290286"><ele>320.0</ele><time>2026-04-11T15:20:54Z</time></trkpt><trkpt lat="43.06520396300179" lon="11.501499573521016"><ele>319.0</ele><time>2026-04-11T15:20:55Z</time></trkpt><trkpt lat="43.06529448754455" lon="11.501393807876415"><ele>318.0</ele><time>2026-04-11T15:20:56Z</time></trkpt><trkpt lat="43.065371938978444" lon="11.501269937561768"><ele>318.6</ele><time>2026-04-11T15:20:57Z</time></trkpt><trkpt lat="43.065434727652104" lon="11.501138713169782"><ele>319.20000000000005</ele><time>2026-04-11T15:20:58Z</time></trkpt><trkpt lat="43.065492223335426" lon="11.501009862532076"><ele>319.8</ele><time>2026-04-11T15:20:59Z</time></trkpt><trkpt lat="43.06555282350743" lon="11.500889852231495"><ele>320.40000000000003</ele><time>2026-04-11T15:21:00Z</time></trkpt><trkpt lat="43.06560754435919" lon="11.500787909170674"><ele>321.0</ele><time>2026-04-11T15:21:01Z</time></trkpt><trkpt lat="43.06565410530578" lon="11.500682535643094"><ele>321.0</ele><time>2026-04-11T15:21:02Z</time></trkpt><trkpt lat="43.06569915971614" lon="11.500584753398407"><ele>321.0</ele><time>2026-04-11T15:21:03Z</time></trkpt><trkpt lat="43.06575122877926" lon="11.500488787192086"><ele>321.0</ele><time>2026-04-11T15:21:04Z</time></trkpt><trkpt lat="43.065813527675694" lon="11.500391061525445"><ele>321.0</ele><time>2026-04-11T15:21:05Z</time></trkpt><trkpt lat="43.06588614479262" lon="11.500311630206365"><ele>321.0</ele><time>2026-04-11T15:21:06Z</time></trkpt><trkpt lat="43.065970904239876" lon="11.500237597860927"><ele>319.6</ele><time>2026-04-11T15:21:07Z</time></trkpt><trkpt lat="43.06605443761594" lon="11.500175111445836"><ele>318.20000000000005</ele><time>2026-04-11T15:21:08Z</time></trkpt><trkpt lat="43.06614561190261" lon="11.500132215840683"><ele>316.79999999999995</ele><time>2026-04-11T15:21:09Z</time></trkpt><trkpt lat="43.0662292415869" lon="11.500097686092506"><ele>315.4</ele><time>2026-04-11T15:21:10Z</time></trkpt><trkpt lat="43.06632581321542" lon="11.50006809556581"><ele>314.0</ele><time>2026-04-11T15:21:11Z</time></trkpt><trkpt lat="43.06642909307077" lon="11.500037345042452"><ele>314.0</ele><time>2026-04-11T15:21:12Z</time></trkpt><trkpt lat="43.066526346254264" lon="11.500015901830489"><ele>314.0</ele><time>2026-04-11T15:21:13Z</time></trkpt><trkpt lat="43.066626906158355" lon="11.499978050718306"><ele>314.0</ele><time>2026-04-11T15:21:14Z</time></trkpt><trkpt lat="43.06672495795612" lon="11.499938866946222"><ele>314.0</ele><time>2026-04-11T15:21:15Z</time></trkpt><trkpt lat="43.066822098093205" lon="11.499893923038478"><ele>314.0</ele><time>2026-04-11T15:21:16Z</time></trkpt><trkpt lat="43.066918261646286" lon="11.499835265115342"><ele>313.8</ele><time>2026-04-11T15:21:17Z</time></trkpt><trkpt lat="43.06700053239103" lon="11.499768039962682"><ele>313.59999999999997</ele><time>2026-04-11T15:21:18Z</time></trkpt><trkpt lat="43.06708563975015" lon="11.49969677630106"><ele>313.4</ele><time>2026-04-11T15:21:19Z</time></trkpt><trkpt lat="43.067178523185255" lon="11.499627108062429"><ele>313.2</ele><time>2026-04-11T15:21:20Z</time></trkpt><trkpt lat="43.067273303046704" lon="11.499574497497271"><ele>313.0</ele><time>2026-04-11T15:21:21Z</time></trkpt><trkpt lat="43.06736140802826" lon="11.49949809406699"><ele>311.2</ele><time>2026-04-11T15:21:22Z</time></trkpt><trkpt lat="43.067459489315056" lon="11.49944163496136"><ele>309.4</ele><time>2026-04-11T15:21:23Z</time></trkpt><trkpt lat="43.067547978639" lon="11.499386804222832"><ele>307.59999999999997</ele><time>2026-04-11T15:21:24Z</time></trkpt><trkpt lat="43.067639175201215" lon="11.49932928769761"><ele>305.8</ele><time>2026-04-11T15:21:25Z</time></trkpt><trkpt lat="43.06773858424717" lon="11.499277245883714"><ele>304.0</ele><time>2026-04-11T15:21:26Z</time></trkpt><trkpt lat="43.06783702696087" lon="11.49924184027545"><ele>304.0</ele><time>2026-04-11T15:21:27Z</time></trkpt><trkpt lat="43.06793532111427" lon="11.499205699677418"><ele>304.0</ele><time>2026-04-11T15:21:28Z</time></trkpt><trkpt lat="43.068039564393054" lon="11.499175080178833"><ele>304.0</ele><time>2026-04-11T15:21:29Z</time></trkpt><trkpt lat="43.068146422901904" lon="11.499145938926219"><ele>304.0</ele><time>2026-04-11T15:21:30Z</time></trkpt><trkpt lat="43.06826090155067" lon="11.49911739083132"><ele>304.0</ele><time>2026-04-11T15:21:31Z</time></trkpt><trkpt lat="43.06836515381996" lon="11.499082097762125"><ele>301.5</ele><time>2026-04-11T15:21:32Z</time></trkpt><trkpt lat="43.068470665026" lon="11.499054305202744"><ele>299.0</ele><time>2026-04-11T15:21:33Z</time></trkpt><trkpt lat="43.06858405171819" lon="11.499022022514742"><ele>296.5</ele><time>2026-04-11T15:21:34Z</time></trkpt><trkpt lat="43.06869244017309" lon="11.49899069083449"><ele>294.0</ele><time>2026-04-11T15:21:35Z</time></trkpt><trkpt lat="43.06880669969702" lon="11.498951546312952"><ele>294.0</ele><time>2026-04-11T15:21:36Z</time></trkpt><trkpt lat="43.06891456749078" lon="11.49891285514885"><ele>294.0</ele><time>2026-04-11T15:21:37Z</time></trkpt><trkpt lat="43.069024481934854" lon="11.49888085256874"><ele>294.0</ele><time>2026-04-11T15:21:38Z</time></trkpt><trkpt lat="43.069134072899075" lon="11.498848420130694"><ele>294.0</ele><time>2026-04-11T15:21:39Z</time></trkpt><trkpt lat="43.06924234143684" lon="11.498811595092755"><ele>294.0</ele><time>2026-04-11T15:21:40Z</time></trkpt><trkpt lat="43.06934871008549" lon="11.498776893306182"><ele>293.0</ele><time>2026-04-11T15:21:41Z</time></trkpt><trkpt lat="43.06945517219725" lon="11.498744590299504"><ele>292.0</ele><time>2026-04-11T15:21:42Z</time></trkpt><trkpt lat="43.06956002571027" lon="11.498715125468573"><ele>291.0</ele><time>2026-04-11T15:21:43Z</time></trkpt><trkpt lat="43.06966892233778" lon="11.498687431131001"><ele>290.0</ele><time>2026-04-11T15:21:44Z</time></trkpt><trkpt lat="43.06976887326637" lon="11.498664308803653"><ele>289.0</ele><time>2026-04-11T15:21:45Z</time></trkpt><trkpt lat="43.06986839682579" lon="11.498625869335024"><ele>288.2</ele><time>2026-04-11T15:21:46Z</time></trkpt><trkpt lat="43.06996445349864" lon="11.49858386702539"><ele>287.4</ele><time>2026-04-11T15:21:47Z</time></trkpt><trkpt lat="43.0700556253016" lon="11.498543141290364"><ele>286.6</ele><time>2026-04-11T15:21:48Z</time></trkpt><trkpt lat="43.07014940534454" lon="11.498502851586625"><ele>285.8</ele><time>2026-04-11T15:21:49Z</time></trkpt><trkpt lat="43.07024374494122" lon="11.498455517747175"><ele>285.0</ele><time>2026-04-11T15:21:50Z</time></trkpt><trkpt lat="43.07033309931904" lon="11.498400510423048"><ele>285.0</ele><time>2026-04-11T15:21:51Z</time></trkpt><trkpt lat="43.070423602574245" lon="11.498334098274196"><ele>285.0</ele><time>2026-04-11T15:21:52Z</time></trkpt><trkpt lat="43.07051310583782" lon="11.498265643184673"><ele>285.0</ele><time>2026-04-11T15:21:53Z</time></trkpt><trkpt lat="43.07060372687338" lon="11.498201968766821"><ele>285.0</ele><time>2026-04-11T15:21:54Z</time></trkpt><trkpt lat="43.070687924079515" lon="11.498136479560122"><ele>285.0</ele><time>2026-04-11T15:21:55Z</time></trkpt><trkpt lat="43.07075864951958" lon="11.498076612482606"><ele>284.6666666666667</ele><time>2026-04-11T15:21:56Z</time></trkpt><trkpt lat="43.0708329496989" lon="11.498017044669846"><ele>284.3333333333333</ele><time>2026-04-11T15:21:57Z</time></trkpt><trkpt lat="43.07091107504085" lon="11.497958743994245"><ele>284.0</ele><time>2026-04-11T15:21:58Z</time></trkpt><trkpt lat="43.070989256261726" lon="11.497891650402616"><ele>283.66666666666663</ele><time>2026-04-11T15:21:59Z</time></trkpt><trkpt lat="43.07106807578819" lon="11.49783478362603"><ele>283.3333333333333</ele><time>2026-04-11T15:22:00Z</time></trkpt><trkpt lat="43.07114371262637" lon="11.497770110389864"><ele>283.0</ele><time>2026-04-11T15:22:01Z</time></trkpt><trkpt lat="43.071221244274206" lon="11.497714233651525"><ele>282.5</ele><time>2026-04-11T15:22:02Z</time></trkpt><trkpt lat="43.07130013811362" lon="11.497655486585519"><ele>282.0</ele><time>2026-04-11T15:22:03Z</time></trkpt><trkpt lat="43.071373646669244" lon="11.497597125506951"><ele>281.5</ele><time>2026-04-11T15:22:04Z</time></trkpt><trkpt lat="43.07145122763094" lon="11.497535732392782"><ele>281.0</ele><time>2026-04-11T15:22:05Z</time></trkpt><trkpt lat="43.07152965534166" lon="11.497476787173941"><ele>280.5</ele><time>2026-04-11T15:22:06Z</time></trkpt><trkpt lat="43.07161026855928" lon="11.49741708706211"><ele>280.0</ele><time>2026-04-11T15:22:07Z</time></trkpt><trkpt lat="43.07168937639765" lon="11.497356132304773"><ele>280.0</ele><time>2026-04-11T15:22:08Z</time></trkpt><trkpt lat="43.071770064797676" lon="11.497296181729071"><ele>280.0</ele><time>2026-04-11T15:22:09Z</time></trkpt><trkpt lat="43.071850728972215" lon="11.49723401874767"><ele>280.0</ele><time>2026-04-11T15:22:10Z</time></trkpt><trkpt lat="43.07193083941422" lon="11.497174270622768"><ele>280.0</ele><time>2026-04-11T15:22:11Z</time></trkpt><trkpt lat="43.07200826294296" lon="11.497113984668948"><ele>280.0</ele><time>2026-04-11T15:22:12Z</time></trkpt><trkpt lat="43.072082333911446" lon="11.4970624493572"><ele>280.0</ele><time>2026-04-11T15:22:13Z</time></trkpt><trkpt lat="43.07215727870066" lon="11.49700850233126"><ele>279.3333333333333</ele><time>2026-04-11T15:22:14Z</time></trkpt><trkpt lat="43.072233254084395" lon="11.49695286563104"><ele>278.66666666666663</ele><time>2026-04-11T15:22:15Z</time></trkpt><trkpt lat="43.07230756286861" lon="11.49689199729769"><ele>278.0</ele><time>2026-04-11T15:22:16Z</time></trkpt><trkpt lat="43.07238548222168" lon="11.496833335755076"><ele>277.3333333333333</ele><time>2026-04-11T15:22:17Z</time></trkpt><trkpt lat="43.072469944133545" lon="11.49677838828335"><ele>276.6666666666667</ele><time>2026-04-11T15:22:18Z</time></trkpt><trkpt lat="43.07255007435163" lon="11.49672099910107"><ele>276.0</ele><time>2026-04-11T15:22:19Z</time></trkpt><trkpt lat="43.07263227019415" lon="11.496661119783703"><ele>276.0</ele><time>2026-04-11T15:22:20Z</time></trkpt><trkpt lat="43.07270731500404" lon="11.49659659335213"><ele>276.0</ele><time>2026-04-11T15:22:21Z</time></trkpt><trkpt lat="43.07280151013946" lon="11.496549133605669"><ele>276.0</ele><time>2026-04-11T15:22:22Z</time></trkpt><trkpt lat="43.072894315781944" lon="11.496508575084976"><ele>276.0</ele><time>2026-04-11T15:22:23Z</time></trkpt><trkpt lat="43.0729817985816" lon="11.496463263685678"><ele>276.0</ele><time>2026-04-11T15:22:24Z</time></trkpt><trkpt lat="43.07307010534145" lon="11.496420694349261"><ele>276.0</ele><time>2026-04-11T15:22:25Z</time></trkpt><trkpt lat="43.07316298900175" lon="11.496383349554128"><ele>276.0</ele><time>2026-04-11T15:22:26Z</time></trkpt><trkpt lat="43.07325876594183" lon="11.496347558369823"><ele>276.0</ele><time>2026-04-11T15:22:27Z</time></trkpt><trkpt lat="43.07335716743497" lon="11.496306059219833"><ele>276.0</ele><time>2026-04-11T15:22:28Z</time></trkpt><trkpt lat="43.07345486794056" lon="11.496260848510657"><ele>276.0</ele><time>2026-04-11T15:22:29Z</time></trkpt><trkpt lat="43.07355107786031" lon="11.49621763176197"><ele>273.8</ele><time>2026-04-11T15:22:30Z</time></trkpt><trkpt lat="43.073654925626585" lon="11.496186329345111"><ele>271.6</ele><time>2026-04-11T15:22:31Z</time></trkpt><trkpt lat="43.07374729516015" lon="11.496132260283563"><ele>269.4</ele><time>2026-04-11T15:22:32Z</time></trkpt><trkpt lat="43.07384191926968" lon="11.496078474440774"><ele>267.2</ele><time>2026-04-11T15:22:33Z</time></trkpt><trkpt lat="43.07393120421142" lon="11.496008557481236"><ele>265.0</ele><time>2026-04-11T15:22:34Z</time></trkpt><trkpt lat="43.07402815130164" lon="11.495945103093403"><ele>264.8</ele><time>2026-04-11T15:22:35Z</time></trkpt><trkpt lat="43.0741205266942" lon="11.495873852099464"><ele>264.6</ele><time>2026-04-11T15:22:36Z</time></trkpt><trkpt lat="43.07420743631779" lon="11.495800906027892"><ele>264.4</ele><time>2026-04-11T15:22:37Z</time></trkpt><trkpt lat="43.07429377086971" lon="11.4957347673304"><ele>264.2</ele><time>2026-04-11T15:22:38Z</time></trkpt><trkpt lat="43.07437364173415" lon="11.495660371912686"><ele>264.0</ele><time>2026-04-11T15:22:39Z</time></trkpt><trkpt lat="43.07445686635382" lon="11.49559022599705"><ele>264.0</ele><time>2026-04-11T15:22:40Z</time></trkpt><trkpt lat="43.07454261746589" lon="11.495513143104446"><ele>264.0</ele><time>2026-04-11T15:22:41Z</time></trkpt><trkpt lat="43.07462412096359" lon="11.495437051805606"><ele>264.0</ele><time>2026-04-11T15:22:42Z</time></trkpt><trkpt lat="43.07470616653894" lon="11.495367703954546"><ele>264.0</ele><time>2026-04-11T15:22:43Z</time></trkpt><trkpt lat="43.074789792219164" lon="11.495300524945964"><ele>264.0</ele><time>2026-04-11T15:22:44Z</time></trkpt><trkpt lat="43.07487262187894" lon="11.495237443309463"><ele>262.8</ele><time>2026-04-11T15:22:45Z</time></trkpt><trkpt lat="43.074951818053" lon="11.495173060022148"><ele>261.59999999999997</ele><time>2026-04-11T15:22:46Z</time></trkpt><trkpt lat="43.07503057415399" lon="11.495102269107454"><ele>260.4</ele><time>2026-04-11T15:22:47Z</time></trkpt><trkpt lat="43.07511246704382" lon="11.495031739483704"><ele>259.2</ele><time>2026-04-11T15:22:48Z</time></trkpt><trkpt lat="43.07519694451935" lon="11.494956234636833"><ele>258.0</ele><time>2026-04-11T15:22:49Z</time></trkpt><trkpt lat="43.07527711990137" lon="11.494883901892921"><ele>258.0</ele><time>2026-04-11T15:22:50Z</time></trkpt><trkpt lat="43.07535975945502" lon="11.494813771882143"><ele>258.0</ele><time>2026-04-11T15:22:51Z</time></trkpt><trkpt lat="43.07544335424179" lon="11.494744392444087"><ele>258.0</ele><time>2026-04-11T15:22:52Z</time></trkpt><trkpt lat="43.075524544629424" lon="11.494672085801463"><ele>258.0</ele><time>2026-04-11T15:22:53Z</time></trkpt><trkpt lat="43.07561115581897" lon="11.494607052861598"><ele>258.0</ele><time>2026-04-11T15:22:54Z</time></trkpt><trkpt lat="43.07569356101096" lon="11.494530184888033"><ele>257.0</ele><time>2026-04-11T15:22:55Z</time></trkpt><trkpt lat="43.07577322691145" lon="11.494450750315826"><ele>256.0</ele><time>2026-04-11T15:22:56Z</time></trkpt><trkpt lat="43.07585387867421" lon="11.494377449789308"><ele>255.0</ele><time>2026-04-11T15:22:57Z</time></trkpt><trkpt lat="43.07593425127708" lon="11.494297051375082"><ele>254.0</ele><time>2026-04-11T15:22:58Z</time></trkpt><trkpt lat="43.076008210072935" lon="11.494204274628876"><ele>253.0</ele><time>2026-04-11T15:22:59Z</time></trkpt><trkpt lat="43.07608599242548" lon="11.494119927410237"><ele>253.0</ele><time>2026-04-11T15:23:00Z</time></trkpt><trkpt lat="43.07619273938108" lon="11.494042462422051"><ele>253.0</ele><time>2026-04-11T15:23:01Z</time></trkpt><trkpt lat="43.0762659203595" lon="11.493957945823208"><ele>253.0</ele><time>2026-04-11T15:23:02Z</time></trkpt><trkpt lat="43.07634012199702" lon="11.493865806931552"><ele>253.0</ele><time>2026-04-11T15:23:03Z</time></trkpt><trkpt lat="43.076413191887454" lon="11.493781425253415"><ele>253.0</ele><time>2026-04-11T15:23:04Z</time></trkpt><trkpt lat="43.07648942565088" lon="11.493700308872747"><ele>252.8</ele><time>2026-04-11T15:23:05Z</time></trkpt><trkpt lat="43.07656974438675" lon="11.493617880917434"><ele>252.60000000000002</ele><time>2026-04-11T15:23:06Z</time></trkpt><trkpt lat="43.076647897483284" lon="11.493534651523921"><ele>252.39999999999998</ele><time>2026-04-11T15:23:07Z</time></trkpt><trkpt lat="43.07672064663943" lon="11.493450115222577"><ele>252.2</ele><time>2026-04-11T15:23:08Z</time></trkpt><trkpt lat="43.07679974569204" lon="11.493381154032777"><ele>252.0</ele><time>2026-04-11T15:23:09Z</time></trkpt><trkpt lat="43.07687375660391" lon="11.49331009234505"><ele>251.8</ele><time>2026-04-11T15:23:10Z</time></trkpt><trkpt lat="43.07694993304815" lon="11.493239818040214"><ele>251.6</ele><time>2026-04-11T15:23:11Z</time></trkpt><trkpt lat="43.07703168987701" lon="11.493180465821311"><ele>251.40000000000003</ele><time>2026-04-11T15:23:12Z</time></trkpt><trkpt lat="43.07711194496142" lon="11.49312613487901"><ele>251.20000000000002</ele><time>2026-04-11T15:23:13Z</time></trkpt><trkpt lat="43.07719433816844" lon="11.49307284198725"><ele>251.0</ele><time>2026-04-11T15:23:14Z</time></trkpt><trkpt lat="43.07727812484095" lon="11.493030176748217"><ele>251.00000000000003</ele><time>2026-04-11T15:23:15Z</time></trkpt><trkpt lat="43.077354797432555" lon="11.492988558448552"><ele>251.0</ele><time>2026-04-11T15:23:16Z</time></trkpt><trkpt lat="43.07741744038935" lon="11.492940582155194"><ele>251.0</ele><time>2026-04-11T15:23:17Z</time></trkpt><trkpt lat="43.07747731914495" lon="11.492900153032805"><ele>251.0</ele><time>2026-04-11T15:23:18Z</time></trkpt><trkpt lat="43.07758562449504" lon="11.49284956425342"><ele>251.00000000000003</ele><time>2026-04-11T15:23:20Z</time></trkpt><trkpt lat="43.077681596874676" lon="11.492865580840721"><ele>251.0</ele><time>2026-04-11T15:23:22Z</time></trkpt><trkpt lat="43.077724078157466" lon="11.49295435645892"><ele>250.85714285714283</ele><time>2026-04-11T15:23:24Z</time></trkpt><trkpt lat="43.0777783482666" lon="11.493000201412604"><ele>250.71428571428572</ele><time>2026-04-11T15:23:26Z</time></trkpt><trkpt lat="43.077847760873766" lon="11.493063097784752"><ele>250.57142857142856</ele><time>2026-04-11T15:23:29Z</time></trkpt><trkpt lat="43.07791672872006" lon="11.493133338655364"><ele>250.42857142857142</ele><time>2026-04-11T15:23:32Z</time></trkpt><trkpt lat="43.077974715827" lon="11.493196051828617"><ele>250.28571428571428</ele><time>2026-04-11T15:23:34Z</time></trkpt><trkpt lat="43.0780277499778" lon="11.49325915978279"><ele>250.14285714285714</ele><time>2026-04-11T15:23:37Z</time></trkpt><trkpt lat="43.07807663553644" lon="11.493319985098758"><ele>250.0</ele><time>2026-04-11T15:23:39Z</time></trkpt><trkpt lat="43.07814707934927" lon="11.493393007712845"><ele>250.0</ele><time>2026-04-11T15:23:42Z</time></trkpt><trkpt lat="43.07819316947727" lon="11.493464594174082"><ele>250.0</ele><time>2026-04-11T15:23:44Z</time></trkpt><trkpt lat="43.07826402289461" lon="11.493549411715975"><ele>250.0</ele><time>2026-04-11T15:23:47Z</time></trkpt><trkpt lat="43.07830424534014" lon="11.493623435570417"><ele>250.0</ele><time>2026-04-11T15:23:49Z</time></trkpt><trkpt lat="43.078347203057056" lon="11.493686924122606"><ele>250.0</ele><time>2026-04-11T15:23:51Z</time></trkpt><trkpt lat="43.07839269861782" lon="11.49375318021494"><ele>250.0</ele><time>2026-04-11T15:23:53Z</time></trkpt><trkpt lat="43.078466617163635" lon="11.493786390666"><ele>250.0</ele><time>2026-04-11T15:23:55Z</time></trkpt><trkpt lat="43.07850592857074" lon="11.493865752930688"><ele>250.57142857142856</ele><time>2026-04-11T15:23:57Z</time></trkpt><trkpt lat="43.07855298913145" lon="11.493936704738605"><ele>251.14285714285717</ele><time>2026-04-11T15:23:59Z</time></trkpt><trkpt lat="43.07859291087919" lon="11.494005041707103"><ele>251.71428571428572</ele><time>2026-04-11T15:24:01Z</time></trkpt><trkpt lat="43.07863218941892" lon="11.494074613137748"><ele>252.28571428571428</ele><time>2026-04-11T15:24:03Z</time></trkpt><trkpt lat="43.07866082541044" lon="11.494151521299253"><ele>252.85714285714283</ele><time>2026-04-11T15:24:05Z</time></trkpt><trkpt lat="43.07869010616241" lon="11.49423242858079"><ele>253.42857142857144</ele><time>2026-04-11T15:24:07Z</time></trkpt><trkpt lat="43.07872564642189" lon="11.494315403604476"><ele>254.0</ele><time>2026-04-11T15:24:09Z</time></trkpt><trkpt lat="43.078756911325996" lon="11.49443686840156"><ele>254.0</ele><time>2026-04-11T15:24:12Z</time></trkpt><trkpt lat="43.07879228044611" lon="11.494525184756029"><ele>254.0</ele><time>2026-04-11T15:24:15Z</time></trkpt><trkpt lat="43.07881923873571" lon="11.494624211596506"><ele>254.0</ele><time>2026-04-11T15:24:18Z</time></trkpt><trkpt lat="43.078841676422634" lon="11.494708689730425"><ele>254.0</ele><time>2026-04-11T15:24:21Z</time></trkpt><trkpt lat="43.078870652796994" lon="11.494785619729468"><ele>254.0</ele><time>2026-04-11T15:24:25Z</time></trkpt><trkpt lat="43.07889992249795" lon="11.494867647688663"><ele>254.0</ele><time>2026-04-11T15:24:29Z</time></trkpt><trkpt lat="43.078937324478765" lon="11.494941155635534"><ele>254.0</ele><time>2026-04-11T15:24:32Z</time></trkpt><trkpt lat="43.078975402884474" lon="11.495032764756715"><ele>254.0</ele><time>2026-04-11T15:24:36Z</time></trkpt><trkpt lat="43.07898863182234" lon="11.495129051205604"><ele>254.0</ele><time>2026-04-11T15:24:39Z</time></trkpt><trkpt lat="43.07902471116885" lon="11.495210575912191"><ele>254.0</ele><time>2026-04-11T15:24:42Z</time></trkpt><trkpt lat="43.07905580368326" lon="11.495289676657054"><ele>254.0</ele><time>2026-04-11T15:24:45Z</time></trkpt><trkpt lat="43.07908946553792" lon="11.495363806317922"><ele>254.0</ele><time>2026-04-11T15:24:49Z</time></trkpt><trkpt lat="43.07911334901931" lon="11.495464701628434"><ele>254.0</ele><time>2026-04-11T15:24:53Z</time></trkpt><trkpt lat="43.079140678012905" lon="11.495542849215958"><ele>254.0</ele><time>2026-04-11T15:24:56Z</time></trkpt><trkpt lat="43.07917017661624" lon="11.495630053934487"><ele>255.33333333333334</ele><time>2026-04-11T15:24:59Z</time></trkpt><trkpt lat="43.07920666680007" lon="11.495724214778331"><ele>256.6666666666667</ele><time>2026-04-11T15:25:03Z</time></trkpt><trkpt lat="43.079238198059976" lon="11.495818142620685"><ele>258.0</ele><time>2026-04-11T15:25:07Z</time></trkpt><trkpt lat="43.07925815342411" lon="11.495916933986406"><ele>259.3333333333333</ele><time>2026-04-11T15:25:11Z</time></trkpt><trkpt lat="43.079307419856534" lon="11.49602730500652"><ele>260.66666666666663</ele><time>2026-04-11T15:25:16Z</time></trkpt><trkpt lat="43.07931823410504" lon="11.496129152307303"><ele>262.0</ele><time>2026-04-11T15:25:21Z</time></trkpt><trkpt lat="43.07936477555557" lon="11.496194242213827"><ele>262.5</ele><time>2026-04-11T15:25:24Z</time></trkpt><trkpt lat="43.07939838458661" lon="11.496306406969572"><ele>263.0</ele><time>2026-04-11T15:25:28Z</time></trkpt><trkpt lat="43.07943626331152" lon="11.496420045298573"><ele>263.5</ele><time>2026-04-11T15:25:33Z</time></trkpt><trkpt lat="43.07947448841903" lon="11.496510909659932"><ele>264.0</ele><time>2026-04-11T15:25:37Z</time></trkpt><trkpt lat="43.079491021462566" lon="11.49660717566523"><ele>264.5</ele><time>2026-04-11T15:25:41Z</time></trkpt><trkpt lat="43.079515948858486" lon="11.496715450314612"><ele>265.0</ele><time>2026-04-11T15:25:45Z</time></trkpt><trkpt lat="43.07952959431203" lon="11.496800254702116"><ele>265.0</ele><time>2026-04-11T15:25:49Z</time></trkpt><trkpt lat="43.07953868409747" lon="11.496905341502949"><ele>265.0</ele><time>2026-04-11T15:26:51Z</time></trkpt><trkpt lat="43.07954882610376" lon="11.497003782830188"><ele>265.0</ele><time>2026-04-11T15:26:53Z</time></trkpt><trkpt lat="43.079563708030186" lon="11.497117765464642"><ele>265.0</ele><time>2026-04-11T15:26:55Z</time></trkpt><trkpt lat="43.07958802242712" lon="11.497233970604787"><ele>265.0</ele><time>2026-04-11T15:26:57Z</time></trkpt><trkpt lat="43.079619211711304" lon="11.497348433224186"><ele>265.0</ele><time>2026-04-11T15:26:59Z</time></trkpt><trkpt lat="43.07965278571752" lon="11.497461218914298"><ele>264.6</ele><time>2026-04-11T15:27:01Z</time></trkpt><trkpt lat="43.07969230380884" lon="11.49759355632079"><ele>264.2</ele><time>2026-04-11T15:27:03Z</time></trkpt><trkpt lat="43.07974078269215" lon="11.497727102177297"><ele>263.8</ele><time>2026-04-11T15:27:05Z</time></trkpt><trkpt lat="43.07972953961976" lon="11.49781291948355"><ele>263.4</ele><time>2026-04-11T15:27:07Z</time></trkpt><trkpt lat="43.07977986128133" lon="11.497978743315379"><ele>263.0</ele><time>2026-04-11T15:27:09Z</time></trkpt><trkpt lat="43.07981570343731" lon="11.498102268165352"><ele>262.4</ele><time>2026-04-11T15:27:11Z</time></trkpt><trkpt lat="43.07985014355003" lon="11.498218698596943"><ele>261.8</ele><time>2026-04-11T15:27:13Z</time></trkpt><trkpt lat="43.079883008626624" lon="11.498328612655458"><ele>261.2</ele><time>2026-04-11T15:27:15Z</time></trkpt><trkpt lat="43.07992029491909" lon="11.49843901943433"><ele>260.6</ele><time>2026-04-11T15:27:17Z</time></trkpt><trkpt lat="43.07996671137073" lon="11.498548578685746"><ele>260.0</ele><time>2026-04-11T15:27:19Z</time></trkpt><trkpt lat="43.08002649512671" lon="11.498653605635836"><ele>261.6</ele><time>2026-04-11T15:27:21Z</time></trkpt><trkpt lat="43.08008203633138" lon="11.498745685328148"><ele>263.2</ele><time>2026-04-11T15:27:23Z</time></trkpt><trkpt lat="43.08015264120086" lon="11.498852427953091"><ele>264.8</ele><time>2026-04-11T15:27:25Z</time></trkpt><trkpt lat="43.08022842681831" lon="11.498963249215718"><ele>266.4</ele><time>2026-04-11T15:27:27Z</time></trkpt><trkpt lat="43.080305529131465" lon="11.499074265316626"><ele>268.0</ele><time>2026-04-11T15:27:29Z</time></trkpt><trkpt lat="43.08038421779347" lon="11.499187565518731"><ele>268.0</ele><time>2026-04-11T15:27:31Z</time></trkpt><trkpt lat="43.08042941903635" lon="11.499252789738891"><ele>268.0</ele><time>2026-04-11T15:27:32Z</time></trkpt><trkpt lat="43.08047293334782" lon="11.49931639536716"><ele>268.0</ele><time>2026-04-11T15:27:33Z</time></trkpt><trkpt lat="43.08055406067735" lon="11.499438733315838"><ele>268.0</ele><time>2026-04-11T15:27:35Z</time></trkpt><trkpt lat="43.080636498077965" lon="11.4995670380628"><ele>268.0</ele><time>2026-04-11T15:27:37Z</time></trkpt><trkpt lat="43.08068422967312" lon="11.499642929637957"><ele>268.0</ele><time>2026-04-11T15:27:38Z</time></trkpt><trkpt lat="43.08072837155409" lon="11.499713113697839"><ele>268.0</ele><time>2026-04-11T15:27:39Z</time></trkpt><trkpt lat="43.08077450717221" lon="11.499781758432357"><ele>268.0</ele><time>2026-04-11T15:27:40Z</time></trkpt><trkpt lat="43.080819263697904" lon="11.499848046826424"><ele>268.0</ele><time>2026-04-11T15:27:41Z</time></trkpt><trkpt lat="43.08091675542227" lon="11.499991149914756"><ele>268.0</ele><time>2026-04-11T15:27:43Z</time></trkpt><trkpt lat="43.08096719054353" lon="11.500056861817564"><ele>268.0</ele><time>2026-04-11T15:27:44Z</time></trkpt><trkpt lat="43.08107061708819" lon="11.500148067132331"><ele>268.0</ele><time>2026-04-11T15:27:46Z</time></trkpt><trkpt lat="43.081176775136534" lon="11.500241055031328"><ele>268.0</ele><time>2026-04-11T15:27:48Z</time></trkpt><trkpt lat="43.081292355783674" lon="11.500314957813561"><ele>268.0</ele><time>2026-04-11T15:27:50Z</time></trkpt><trkpt lat="43.08141712371142" lon="11.500349058448474"><ele>268.0</ele><time>2026-04-11T15:27:52Z</time></trkpt><trkpt lat="43.08148340079345" lon="11.500362478237497"><ele>268.0</ele><time>2026-04-11T15:27:53Z</time></trkpt><trkpt lat="43.081549369631034" lon="11.500375946245086"><ele>267.8333333333333</ele><time>2026-04-11T15:27:54Z</time></trkpt><trkpt lat="43.08161696883873" lon="11.500389747092706"><ele>267.66666666666663</ele><time>2026-04-11T15:27:55Z</time></trkpt><trkpt lat="43.08168107304944" lon="11.500403159471901"><ele>267.5</ele><time>2026-04-11T15:27:56Z</time></trkpt><trkpt lat="43.081802051887195" lon="11.500407873249744"><ele>267.3333333333333</ele><time>2026-04-11T15:27:58Z</time></trkpt><trkpt lat="43.08186422433971" lon="11.500444733004256"><ele>267.1666666666667</ele><time>2026-04-11T15:27:59Z</time></trkpt><trkpt lat="43.08198332400258" lon="11.500475147620897"><ele>267.0</ele><time>2026-04-11T15:28:01Z</time></trkpt><trkpt lat="43.08205106359579" lon="11.500492446191833"><ele>267.0</ele><time>2026-04-11T15:28:02Z</time></trkpt><trkpt lat="43.082158730427274" lon="11.500530279189126"><ele>267.0</ele><time>2026-04-11T15:28:04Z</time></trkpt><trkpt lat="43.08226485866988" lon="11.500575316271004"><ele>267.0</ele><time>2026-04-11T15:28:06Z</time></trkpt><trkpt lat="43.08238786953625" lon="11.50063222915577"><ele>267.0</ele><time>2026-04-11T15:28:08Z</time></trkpt><trkpt lat="43.08245295601652" lon="11.500661679455881"><ele>267.0</ele><time>2026-04-11T15:28:09Z</time></trkpt><trkpt lat="43.08251715690436" lon="11.500689650267804"><ele>267.5</ele><time>2026-04-11T15:28:10Z</time></trkpt><trkpt lat="43.08258485202959" lon="11.500719143387782"><ele>268.0</ele><time>2026-04-11T15:28:11Z</time></trkpt><trkpt lat="43.08264960800723" lon="11.500752331105767"><ele>268.5</ele><time>2026-04-11T15:28:12Z</time></trkpt><trkpt lat="43.082777703749976" lon="11.500828566272697"><ele>269.0</ele><time>2026-04-11T15:28:14Z</time></trkpt><trkpt lat="43.082850000354654" lon="11.500852007735558"><ele>269.5</ele><time>2026-04-11T15:28:15Z</time></trkpt><trkpt lat="43.082920761811366" lon="11.50089873725026"><ele>270.0</ele><time>2026-04-11T15:28:16Z</time></trkpt><trkpt lat="43.08300207818132" lon="11.500943753355937"><ele>270.0</ele><time>2026-04-11T15:28:17Z</time></trkpt><trkpt lat="43.083087306332345" lon="11.500989145279082"><ele>270.0</ele><time>2026-04-11T15:28:18Z</time></trkpt><trkpt lat="43.083156368803444" lon="11.501048546541805"><ele>270.0</ele><time>2026-04-11T15:28:19Z</time></trkpt><trkpt lat="43.08323164890593" lon="11.501090815856557"><ele>270.0</ele><time>2026-04-11T15:28:20Z</time></trkpt><trkpt lat="43.083299525361" lon="11.501128928089663"><ele>270.0</ele><time>2026-04-11T15:28:21Z</time></trkpt><trkpt lat="43.08336935979873" lon="11.50116863002135"><ele>270.0</ele><time>2026-04-11T15:28:22Z</time></trkpt><trkpt lat="43.083445065064424" lon="11.50121184317801"><ele>269.4</ele><time>2026-04-11T15:28:23Z</time></trkpt><trkpt lat="43.08354033936168" lon="11.501266226516313"><ele>268.8</ele><time>2026-04-11T15:28:24Z</time></trkpt><trkpt lat="43.083626787478615" lon="11.50131666163836"><ele>268.2</ele><time>2026-04-11T15:28:25Z</time></trkpt><trkpt lat="43.0837178489325" lon="11.501369882626458"><ele>267.6</ele><time>2026-04-11T15:28:26Z</time></trkpt><trkpt lat="43.083802795250094" lon="11.501419528220355"><ele>267.0</ele><time>2026-04-11T15:28:27Z</time></trkpt><trkpt lat="43.08387053936179" lon="11.501461280300727"><ele>267.0</ele><time>2026-04-11T15:28:28Z</time></trkpt><trkpt lat="43.08394447693673" lon="11.501508127836749"><ele>267.0</ele><time>2026-04-11T15:28:29Z</time></trkpt><trkpt lat="43.084013943016544" lon="11.501535368103752"><ele>267.0</ele><time>2026-04-11T15:28:30Z</time></trkpt><trkpt lat="43.08407702321764" lon="11.501580283110522"><ele>267.0</ele><time>2026-04-11T15:28:31Z</time></trkpt><trkpt lat="43.084164345147386" lon="11.501643317814194"><ele>267.0</ele><time>2026-04-11T15:28:33Z</time></trkpt><trkpt lat="43.08423298020833" lon="11.501712573406753"><ele>267.0</ele><time>2026-04-11T15:28:35Z</time></trkpt><trkpt lat="43.08429967334339" lon="11.501759083604163"><ele>267.25</ele><time>2026-04-11T15:28:37Z</time></trkpt><trkpt lat="43.08420596531481" lon="11.501924530583754"><ele>267.5</ele><time>2026-04-11T15:28:38Z</time></trkpt><trkpt lat="43.084163309560076" lon="11.502073660461445"><ele>267.75</ele><time>2026-04-11T15:28:40Z</time></trkpt><trkpt lat="43.08411746609858" lon="11.50222968273399"><ele>268.0</ele><time>2026-04-11T15:28:42Z</time></trkpt><trkpt lat="43.08406969198137" lon="11.50238612528907"><ele>268.0</ele><time>2026-04-11T15:28:44Z</time></trkpt><trkpt lat="43.08402154484538" lon="11.502549148395977"><ele>268.0</ele><time>2026-04-11T15:28:46Z</time></trkpt><trkpt lat="43.08400594333854" lon="11.502635924049413"><ele>268.0</ele><time>2026-04-11T15:28:47Z</time></trkpt><trkpt lat="43.08400043089195" lon="11.502724591096504"><ele>268.0</ele><time>2026-04-11T15:28:48Z</time></trkpt><trkpt lat="43.084000207569964" lon="11.502880826498622"><ele>268.0</ele><time>2026-04-11T15:28:50Z</time></trkpt><trkpt lat="43.084029634495465" lon="11.503000874358808"><ele>268.8571428571429</ele><time>2026-04-11T15:28:52Z</time></trkpt><trkpt lat="43.08402528585407" lon="11.50310477365521"><ele>269.7142857142857</ele><time>2026-04-11T15:28:54Z</time></trkpt><trkpt lat="43.08403541379177" lon="11.503219434138515"><ele>270.57142857142856</ele><time>2026-04-11T15:28:57Z</time></trkpt><trkpt lat="43.08404146003428" lon="11.503322819629586"><ele>271.42857142857144</ele><time>2026-04-11T15:29:00Z</time></trkpt><trkpt lat="43.084039900798686" lon="11.503424679571747"><ele>272.2857142857143</ele><time>2026-04-11T15:29:03Z</time></trkpt><trkpt lat="43.08407605571916" lon="11.503497076697402"><ele>273.14285714285717</ele><time>2026-04-11T15:29:05Z</time></trkpt><trkpt lat="43.08406085448895" lon="11.503595027433603"><ele>274.0</ele><time>2026-04-11T15:29:08Z</time></trkpt><trkpt lat="43.08404209127719" lon="11.503686011115185"><ele>274.7142857142857</ele><time>2026-04-11T15:29:12Z</time></trkpt><trkpt lat="43.08401995419571" lon="11.503781378826273"><ele>275.42857142857144</ele><time>2026-04-11T15:29:15Z</time></trkpt><trkpt lat="43.08398708902656" lon="11.503868611728512"><ele>276.1428571428571</ele><time>2026-04-11T15:29:20Z</time></trkpt><trkpt lat="43.08394661557654" lon="11.503949717892779"><ele>276.8571428571429</ele><time>2026-04-11T15:29:23Z</time></trkpt><trkpt lat="43.08391221986251" lon="11.504026274855855"><ele>277.57142857142856</ele><time>2026-04-11T15:29:27Z</time></trkpt><trkpt lat="43.08387539513033" lon="11.504116183363143"><ele>278.2857142857143</ele><time>2026-04-11T15:29:31Z</time></trkpt><trkpt lat="43.083820041945" lon="11.504208270565828"><ele>279.0</ele><time>2026-04-11T15:29:35Z</time></trkpt><trkpt lat="43.08374272510138" lon="11.504263126336765"><ele>279.0</ele><time>2026-04-11T15:29:39Z</time></trkpt><trkpt lat="43.08365787790437" lon="11.504280494307869"><ele>279.0</ele><time>2026-04-11T15:29:43Z</time></trkpt><trkpt lat="43.08357376318548" lon="11.504273466862237"><ele>279.0</ele><time>2026-04-11T15:29:47Z</time></trkpt><trkpt lat="43.08349826108082" lon="11.504274648340294"><ele>279.0</ele><time>2026-04-11T15:29:50Z</time></trkpt><trkpt lat="43.083426005151665" lon="11.504270196870639"><ele>279.0</ele><time>2026-04-11T15:29:54Z</time></trkpt><trkpt lat="43.08334726580643" lon="11.504258673577816"><ele>279.0</ele><time>2026-04-11T15:29:58Z</time></trkpt><trkpt lat="43.08326355255159" lon="11.504230921530894"><ele>280.2857142857143</ele><time>2026-04-11T15:30:02Z</time></trkpt><trkpt lat="43.0831972063626" lon="11.504223952878137"><ele>281.57142857142856</ele><time>2026-04-11T15:30:05Z</time></trkpt><trkpt lat="43.08313149426469" lon="11.504214207131188"><ele>282.8571428571429</ele><time>2026-04-11T15:30:09Z</time></trkpt><trkpt lat="43.083070571006225" lon="11.504247954056353"><ele>284.1428571428571</ele><time>2026-04-11T15:30:13Z</time></trkpt><trkpt lat="43.08301309379825" lon="11.504285120143836"><ele>285.42857142857144</ele><time>2026-04-11T15:30:17Z</time></trkpt><trkpt lat="43.082949587896834" lon="11.504380268129832"><ele>286.7142857142857</ele><time>2026-04-11T15:30:22Z</time></trkpt><trkpt lat="43.082901030239476" lon="11.504465035209549"><ele>288.0</ele><time>2026-04-11T15:30:26Z</time></trkpt><trkpt lat="43.082856286894" lon="11.504550493004702"><ele>288.7142857142857</ele><time>2026-04-11T15:30:30Z</time></trkpt><trkpt lat="43.08281398804326" lon="11.504626772071903"><ele>289.42857142857144</ele><time>2026-04-11T15:30:34Z</time></trkpt><trkpt lat="43.08277012324306" lon="11.504701634164352"><ele>290.1428571428571</ele><time>2026-04-11T15:30:37Z</time></trkpt><trkpt lat="43.0827271757343" lon="11.504787561187346"><ele>290.8571428571429</ele><time>2026-04-11T15:30:41Z</time></trkpt><trkpt lat="43.08268346904629" lon="11.504870924213584"><ele>291.57142857142856</ele><time>2026-04-11T15:30:45Z</time></trkpt><trkpt lat="43.08263921686992" lon="11.504936052135733"><ele>292.2857142857143</ele><time>2026-04-11T15:30:48Z</time></trkpt><trkpt lat="43.08258851930371" lon="11.505023856125833"><ele>293.0</ele><time>2026-04-11T15:30:52Z</time></trkpt><trkpt lat="43.08254688462315" lon="11.505100843201223"><ele>293.0</ele><time>2026-04-11T15:30:56Z</time></trkpt><trkpt lat="43.082501203065874" lon="11.505170222060787"><ele>293.0</ele><time>2026-04-11T15:31:00Z</time></trkpt><trkpt lat="43.08244922822738" lon="11.505272942292391"><ele>293.0</ele><time>2026-04-11T15:31:04Z</time></trkpt><trkpt lat="43.0824085573952" lon="11.50534359128641"><ele>293.0</ele><time>2026-04-11T15:31:08Z</time></trkpt><trkpt lat="43.082359013678" lon="11.50542220120678"><ele>293.0</ele><time>2026-04-11T15:31:12Z</time></trkpt><trkpt lat="43.08231168304678" lon="11.505513205350328"><ele>293.0</ele><time>2026-04-11T15:31:15Z</time></trkpt><trkpt lat="43.082260972215984" lon="11.505595985428565"><ele>294.1666666666667</ele><time>2026-04-11T15:31:19Z</time></trkpt><trkpt lat="43.082208615098324" lon="11.505670075234393"><ele>295.33333333333337</ele><time>2026-04-11T15:31:22Z</time></trkpt><trkpt lat="43.08215971235734" lon="11.505745765754984"><ele>296.5</ele><time>2026-04-11T15:31:25Z</time></trkpt><trkpt lat="43.08212448053582" lon="11.505843171115504"><ele>297.6666666666667</ele><time>2026-04-11T15:31:28Z</time></trkpt><trkpt lat="43.08207184055095" lon="11.50593241954289"><ele>298.8333333333333</ele><time>2026-04-11T15:31:31Z</time></trkpt><trkpt lat="43.08201962186946" lon="11.506016907991912"><ele>300.0</ele><time>2026-04-11T15:31:34Z</time></trkpt><trkpt lat="43.0819660055676" lon="11.506083083094472"><ele>299.99999999999994</ele><time>2026-04-11T15:31:37Z</time></trkpt><trkpt lat="43.08192853941642" lon="11.506159550750555"><ele>300.0</ele><time>2026-04-11T15:31:40Z</time></trkpt><trkpt lat="43.08188689068316" lon="11.506228099094207"><ele>300.0</ele><time>2026-04-11T15:31:43Z</time></trkpt><trkpt lat="43.081846115776905" lon="11.506300129994672"><ele>300.0</ele><time>2026-04-11T15:31:46Z</time></trkpt><trkpt lat="43.08181127911613" lon="11.506376529543878"><ele>300.0</ele><time>2026-04-11T15:31:49Z</time></trkpt><trkpt lat="43.081762719117066" lon="11.506452659486852"><ele>299.99999999999994</ele><time>2026-04-11T15:31:52Z</time></trkpt><trkpt lat="43.08171212131563" lon="11.506539751153843"><ele>300.0</ele><time>2026-04-11T15:31:56Z</time></trkpt><trkpt lat="43.081671657442335" lon="11.506608534071383"><ele>299.99999999999994</ele><time>2026-04-11T15:31:59Z</time></trkpt><trkpt lat="43.08163037775256" lon="11.506677059180543"><ele>300.0</ele><time>2026-04-11T15:32:02Z</time></trkpt><trkpt lat="43.0815857531955" lon="11.506743028644607"><ele>300.0</ele><time>2026-04-11T15:32:05Z</time></trkpt><trkpt lat="43.08153970854971" lon="11.506811496855013"><ele>300.0</ele><time>2026-04-11T15:32:08Z</time></trkpt><trkpt lat="43.08148483348455" lon="11.506875269410857"><ele>300.0</ele><time>2026-04-11T15:32:11Z</time></trkpt><trkpt lat="43.081452130840916" lon="11.506973648741601"><ele>299.99999999999994</ele><time>2026-04-11T15:32:14Z</time></trkpt><trkpt lat="43.08141380392657" lon="11.507052565056181"><ele>300.0</ele><time>2026-04-11T15:32:17Z</time></trkpt><trkpt lat="43.081368188031796" lon="11.507115559784241"><ele>301.4</ele><time>2026-04-11T15:32:20Z</time></trkpt><trkpt lat="43.081326885233196" lon="11.507221087245014"><ele>302.8</ele><time>2026-04-11T15:32:23Z</time></trkpt><trkpt lat="43.081265693221674" lon="11.50733011549637"><ele>304.2</ele><time>2026-04-11T15:32:25Z</time></trkpt><trkpt lat="43.08118757462557" lon="11.507436034919996"><ele>305.6</ele><time>2026-04-11T15:32:27Z</time></trkpt><trkpt lat="43.081120724865556" lon="11.507531038226247"><ele>307.0</ele><time>2026-04-11T15:32:29Z</time></trkpt><trkpt lat="43.08107894017689" lon="11.50760610836121"><ele>307.0</ele><time>2026-04-11T15:32:31Z</time></trkpt><trkpt lat="43.08103565942011" lon="11.507706298006173"><ele>307.0</ele><time>2026-04-11T15:32:34Z</time></trkpt><trkpt lat="43.08097219109958" lon="11.507789325970483"><ele>307.0</ele><time>2026-04-11T15:32:37Z</time></trkpt><trkpt lat="43.08091480927893" lon="11.507874696912832"><ele>307.0</ele><time>2026-04-11T15:32:40Z</time></trkpt><trkpt lat="43.080861396929585" lon="11.507954335932531"><ele>307.0</ele><time>2026-04-11T15:32:43Z</time></trkpt><trkpt lat="43.08081961613348" lon="11.508054171845751"><ele>307.0</ele><time>2026-04-11T15:32:47Z</time></trkpt><trkpt lat="43.08077195962612" lon="11.508129770675579"><ele>307.0</ele><time>2026-04-11T15:32:50Z</time></trkpt><trkpt lat="43.080727516026684" lon="11.508226021231444"><ele>307.0</ele><time>2026-04-11T15:32:53Z</time></trkpt><trkpt lat="43.08066014459685" lon="11.50832866292955"><ele>307.0</ele><time>2026-04-11T15:32:56Z</time></trkpt><trkpt lat="43.08061401873734" lon="11.508424544797926"><ele>307.0</ele><time>2026-04-11T15:32:59Z</time></trkpt><trkpt lat="43.08056498542355" lon="11.508507650127678"><ele>307.0</ele><time>2026-04-11T15:33:02Z</time></trkpt><trkpt lat="43.080533572565294" lon="11.508592979114136"><ele>307.0</ele><time>2026-04-11T15:33:05Z</time></trkpt><trkpt lat="43.08050240503013" lon="11.508692653076828"><ele>306.66666666666663</ele><time>2026-04-11T15:33:07Z</time></trkpt><trkpt lat="43.08044834546517" lon="11.50880085233843"><ele>306.3333333333333</ele><time>2026-04-11T15:33:08Z</time></trkpt><trkpt lat="43.0804031194539" lon="11.508877361401241"><ele>306.0</ele><time>2026-04-11T15:33:09Z</time></trkpt><trkpt lat="43.08036152217054" lon="11.508955680656396"><ele>305.6666666666667</ele><time>2026-04-11T15:33:10Z</time></trkpt><trkpt lat="43.08026950958447" lon="11.50899026644161"><ele>305.33333333333337</ele><time>2026-04-11T15:33:11Z</time></trkpt><trkpt lat="43.08022753718713" lon="11.509077220616831"><ele>305.0</ele><time>2026-04-11T15:33:12Z</time></trkpt><trkpt lat="43.080181243565725" lon="11.509176499787992"><ele>305.0</ele><time>2026-04-11T15:33:13Z</time></trkpt><trkpt lat="43.0801445603018" lon="11.509259750538359"><ele>305.0</ele><time>2026-04-11T15:33:14Z</time></trkpt><trkpt lat="43.08010821348799" lon="11.509341731088442"><ele>305.0</ele><time>2026-04-11T15:33:15Z</time></trkpt><trkpt lat="43.08004919753238" lon="11.509475895575443"><ele>305.0</ele><time>2026-04-11T15:33:17Z</time></trkpt><trkpt lat="43.07999419730872" lon="11.50960408956234"><ele>305.0</ele><time>2026-04-11T15:33:19Z</time></trkpt><trkpt lat="43.07994699698139" lon="11.509735379301882"><ele>303.83333333333337</ele><time>2026-04-11T15:33:21Z</time></trkpt><trkpt lat="43.079917484969286" lon="11.509860723095057"><ele>302.6666666666667</ele><time>2026-04-11T15:33:23Z</time></trkpt><trkpt lat="43.079905590185675" lon="11.509958072712125"><ele>301.5</ele><time>2026-04-11T15:33:25Z</time></trkpt><trkpt lat="43.07989665572258" lon="11.510046833257576"><ele>300.3333333333333</ele><time>2026-04-11T15:33:27Z</time></trkpt><trkpt lat="43.07989569429704" lon="11.510135961263922"><ele>299.16666666666663</ele><time>2026-04-11T15:33:29Z</time></trkpt><trkpt lat="43.079877937043776" lon="11.510256025927799"><ele>298.0</ele><time>2026-04-11T15:33:32Z</time></trkpt><trkpt lat="43.079877036067394" lon="11.510363566425195"><ele>297.8333333333333</ele><time>2026-04-11T15:33:35Z</time></trkpt><trkpt lat="43.0799080517392" lon="11.510475772257475"><ele>297.66666666666663</ele><time>2026-04-11T15:33:39Z</time></trkpt><trkpt lat="43.07991309074354" lon="11.51058629493525"><ele>297.5</ele><time>2026-04-11T15:33:43Z</time></trkpt><trkpt lat="43.07992814499944" lon="11.510684031816481"><ele>297.3333333333333</ele><time>2026-04-11T15:33:46Z</time></trkpt><trkpt lat="43.079924172699805" lon="11.510772348366533"><ele>297.1666666666667</ele><time>2026-04-11T15:33:49Z</time></trkpt><trkpt lat="43.07993688199241" lon="11.510876975536728"><ele>297.0</ele><time>2026-04-11T15:33:52Z</time></trkpt><trkpt lat="43.07995033947602" lon="11.510978608229864"><ele>299.1666666666667</ele><time>2026-04-11T15:33:54Z</time></trkpt><trkpt lat="43.07996111333253" lon="11.511086274789568"><ele>301.3333333333333</ele><time>2026-04-11T15:33:56Z</time></trkpt><trkpt lat="43.07997650442758" lon="11.511216545900094"><ele>303.5</ele><time>2026-04-11T15:33:58Z</time></trkpt><trkpt lat="43.07996970186331" lon="11.511369039964396"><ele>305.66666666666663</ele><time>2026-04-11T15:34:00Z</time></trkpt><trkpt lat="43.08000942663636" lon="11.511488738095501"><ele>307.8333333333333</ele><time>2026-04-11T15:34:04Z</time></trkpt><trkpt lat="43.080044791977066" lon="11.51156435543298"><ele>310.0</ele><time>2026-04-11T15:34:05Z</time></trkpt><trkpt lat="43.08009798778514" lon="11.511664566180155"><ele>310.0</ele><time>2026-04-11T15:34:07Z</time></trkpt><trkpt lat="43.08013738074188" lon="11.511739977923183"><ele>310.0</ele><time>2026-04-11T15:34:09Z</time></trkpt><trkpt lat="43.08017521603366" lon="11.511812926381117"><ele>310.0</ele><time>2026-04-11T15:34:11Z</time></trkpt><trkpt lat="43.08023185750271" lon="11.511914785088374"><ele>310.0</ele><time>2026-04-11T15:34:15Z</time></trkpt><trkpt lat="43.08027963948682" lon="11.512000711863967"><ele>310.0</ele><time>2026-04-11T15:34:19Z</time></trkpt><trkpt lat="43.08032228696964" lon="11.512077405235074"><ele>310.0</ele><time>2026-04-11T15:34:22Z</time></trkpt><trkpt lat="43.080374165770614" lon="11.512172252401072"><ele>310.3333333333333</ele><time>2026-04-11T15:34:25Z</time></trkpt><trkpt lat="43.08043262169647" lon="11.512223493132636"><ele>310.66666666666663</ele><time>2026-04-11T15:34:28Z</time></trkpt><trkpt lat="43.080481448401954" lon="11.512306118554486"><ele>311.0</ele><time>2026-04-11T15:34:31Z</time></trkpt><trkpt lat="43.08054054563166" lon="11.512396030381579"><ele>311.3333333333333</ele><time>2026-04-11T15:34:34Z</time></trkpt><trkpt lat="43.080591195066106" lon="11.512458589079701"><ele>311.6666666666667</ele><time>2026-04-11T15:34:37Z</time></trkpt><trkpt lat="43.08064289957747" lon="11.512541152406744"><ele>312.0</ele><time>2026-04-11T15:34:40Z</time></trkpt><trkpt lat="43.080686343698936" lon="11.512633663500218"><ele>312.0</ele><time>2026-04-11T15:34:43Z</time></trkpt><trkpt lat="43.08073662116159" lon="11.512718180387155"><ele>312.0</ele><time>2026-04-11T15:34:46Z</time></trkpt><trkpt lat="43.080802307247886" lon="11.51282517375539"><ele>312.0</ele><time>2026-04-11T15:34:50Z</time></trkpt><trkpt lat="43.08085037015433" lon="11.512895907246"><ele>312.0</ele><time>2026-04-11T15:34:54Z</time></trkpt><trkpt lat="43.08090334010983" lon="11.512968308426139"><ele>312.0</ele><time>2026-04-11T15:34:57Z</time></trkpt><trkpt lat="43.08097305779295" lon="11.513033344877375"><ele>312.0</ele><time>2026-04-11T15:35:01Z</time></trkpt><trkpt lat="43.08104644110503" lon="11.513077910451537"><ele>314.0</ele><time>2026-04-11T15:35:05Z</time></trkpt><trkpt lat="43.08111193429685" lon="11.513096499195685"><ele>316.0</ele><time>2026-04-11T15:35:08Z</time></trkpt><trkpt lat="43.081175405797396" lon="11.513099262355091"><ele>318.0</ele><time>2026-04-11T15:35:11Z</time></trkpt><trkpt lat="43.08124654919009" lon="11.513084028053619"><ele>320.0</ele><time>2026-04-11T15:35:14Z</time></trkpt><trkpt lat="43.08132753125364" lon="11.51308442478976"><ele>322.0</ele><time>2026-04-11T15:35:17Z</time></trkpt><trkpt lat="43.08141846391955" lon="11.513086356201422"><ele>324.0</ele><time>2026-04-11T15:35:20Z</time></trkpt><trkpt lat="43.081494381412455" lon="11.513099049236441"><ele>324.0</ele><time>2026-04-11T15:35:23Z</time></trkpt><trkpt lat="43.081569580517034" lon="11.513143210355581"><ele>324.0</ele><time>2026-04-11T15:35:26Z</time></trkpt><trkpt lat="43.08162814935892" lon="11.513231966631556"><ele>324.0</ele><time>2026-04-11T15:35:28Z</time></trkpt><trkpt lat="43.08171435976935" lon="11.513347019484423"><ele>324.0</ele><time>2026-04-11T15:35:30Z</time></trkpt><trkpt lat="43.08178539340588" lon="11.513426147538407"><ele>324.0</ele><time>2026-04-11T15:35:32Z</time></trkpt><trkpt lat="43.081845406384694" lon="11.513507570213221"><ele>324.5</ele><time>2026-04-11T15:35:35Z</time></trkpt><trkpt lat="43.08189228213971" lon="11.513583461968253"><ele>325.0</ele><time>2026-04-11T15:35:37Z</time></trkpt><trkpt lat="43.08195707390928" lon="11.51365576188429"><ele>325.5</ele><time>2026-04-11T15:35:39Z</time></trkpt><trkpt lat="43.08201393165381" lon="11.513720254460734"><ele>326.0</ele><time>2026-04-11T15:35:41Z</time></trkpt><trkpt lat="43.08207002475441" lon="11.51380186736035"><ele>326.5</ele><time>2026-04-11T15:35:43Z</time></trkpt><trkpt lat="43.08212998140225" lon="11.513882783246267"><ele>327.0</ele><time>2026-04-11T15:35:45Z</time></trkpt><trkpt lat="43.082192940549184" lon="11.513964158735117"><ele>327.1666666666667</ele><time>2026-04-11T15:35:47Z</time></trkpt><trkpt lat="43.08224789882971" lon="11.514046411644845"><ele>327.3333333333333</ele><time>2026-04-11T15:35:49Z</time></trkpt><trkpt lat="43.082302753729785" lon="11.514121952836001"><ele>327.5</ele><time>2026-04-11T15:35:51Z</time></trkpt><trkpt lat="43.082363558345826" lon="11.514197196068931"><ele>327.66666666666663</ele><time>2026-04-11T15:35:53Z</time></trkpt><trkpt lat="43.08242867479802" lon="11.514264690062442"><ele>327.8333333333333</ele><time>2026-04-11T15:35:55Z</time></trkpt><trkpt lat="43.082485769541705" lon="11.514332155975639"><ele>328.0</ele><time>2026-04-11T15:35:57Z</time></trkpt><trkpt lat="43.08255176937615" lon="11.514390015505933"><ele>327.8333333333333</ele><time>2026-04-11T15:35:59Z</time></trkpt><trkpt lat="43.082621358594906" lon="11.51445324966349"><ele>327.66666666666663</ele><time>2026-04-11T15:36:01Z</time></trkpt><trkpt lat="43.08268998965198" lon="11.514512466618873"><ele>327.5</ele><time>2026-04-11T15:36:03Z</time></trkpt><trkpt lat="43.08275234935835" lon="11.51457380833737"><ele>327.3333333333333</ele><time>2026-04-11T15:36:05Z</time></trkpt><trkpt lat="43.082828589675465" lon="11.514642860032934"><ele>327.1666666666667</ele><time>2026-04-11T15:36:07Z</time></trkpt><trkpt lat="43.08290994814812" lon="11.514710559038004"><ele>327.0</ele><time>2026-04-11T15:36:09Z</time></trkpt><trkpt lat="43.082993423969825" lon="11.514788527906152"><ele>327.0</ele><time>2026-04-11T15:36:11Z</time></trkpt><trkpt lat="43.08308287162917" lon="11.514855405622749"><ele>327.0</ele><time>2026-04-11T15:36:13Z</time></trkpt><trkpt lat="43.08317221798958" lon="11.514942920105534"><ele>327.0</ele><time>2026-04-11T15:36:15Z</time></trkpt><trkpt lat="43.08327919310237" lon="11.514988518905394"><ele>327.0</ele><time>2026-04-11T15:36:17Z</time></trkpt><trkpt lat="43.08337888089977" lon="11.515023579380937"><ele>327.0</ele><time>2026-04-11T15:36:19Z</time></trkpt><trkpt lat="43.083475668612714" lon="11.515052896638489"><ele>326.40000000000003</ele><time>2026-04-11T15:36:21Z</time></trkpt><trkpt lat="43.083576492548225" lon="11.515079143433507"><ele>325.8</ele><time>2026-04-11T15:36:23Z</time></trkpt><trkpt lat="43.083672004359684" lon="11.5150946405379"><ele>325.2</ele><time>2026-04-11T15:36:25Z</time></trkpt><trkpt lat="43.08377887879567" lon="11.515105266034467"><ele>324.6</ele><time>2026-04-11T15:36:27Z</time></trkpt><trkpt lat="43.083904916308114" lon="11.515102780582103"><ele>324.0</ele><time>2026-04-11T15:36:29Z</time></trkpt><trkpt lat="43.083970874297215" lon="11.515087416720585"><ele>324.0</ele><time>2026-04-11T15:36:30Z</time></trkpt><trkpt lat="43.084039400677554" lon="11.515050368994004"><ele>324.0</ele><time>2026-04-11T15:36:31Z</time></trkpt><trkpt lat="43.08410171989344" lon="11.515004001211798"><ele>324.0</ele><time>2026-04-11T15:36:32Z</time></trkpt><trkpt lat="43.0841539272916" lon="11.514930783826873"><ele>324.0</ele><time>2026-04-11T15:36:33Z</time></trkpt><trkpt lat="43.0842191021353" lon="11.514884028225511"><ele>324.0</ele><time>2026-04-11T15:36:34Z</time></trkpt><trkpt lat="43.08428692242165" lon="11.514849316913656"><ele>324.0</ele><time>2026-04-11T15:36:35Z</time></trkpt><trkpt lat="43.08435941802196" lon="11.514845628374479"><ele>324.0</ele><time>2026-04-11T15:36:36Z</time></trkpt><trkpt lat="43.08443599601618" lon="11.514853417781952"><ele>323.5</ele><time>2026-04-11T15:36:37Z</time></trkpt><trkpt lat="43.084520368445595" lon="11.51485548588791"><ele>323.0</ele><time>2026-04-11T15:36:38Z</time></trkpt><trkpt lat="43.08460865968584" lon="11.514859974647136"><ele>322.5</ele><time>2026-04-11T15:36:39Z</time></trkpt><trkpt lat="43.08469709770997" lon="11.51486447086927"><ele>322.0</ele><time>2026-04-11T15:36:40Z</time></trkpt><trkpt lat="43.0847821685101" lon="11.514867100830754"><ele>321.5</ele><time>2026-04-11T15:36:41Z</time></trkpt><trkpt lat="43.084870135901376" lon="11.514869265934985"><ele>321.0</ele><time>2026-04-11T15:36:42Z</time></trkpt><trkpt lat="43.084962894671946" lon="11.514871403108867"><ele>320.2</ele><time>2026-04-11T15:36:43Z</time></trkpt><trkpt lat="43.08505772286437" lon="11.514873200143917"><ele>319.40000000000003</ele><time>2026-04-11T15:36:44Z</time></trkpt><trkpt lat="43.08514675039393" lon="11.514875445504156"><ele>318.6</ele><time>2026-04-11T15:36:45Z</time></trkpt><trkpt lat="43.085235442939975" lon="11.514878439959361"><ele>317.8</ele><time>2026-04-11T15:36:46Z</time></trkpt><trkpt lat="43.08533101173046" lon="11.514876712798424"><ele>317.0</ele><time>2026-04-11T15:36:47Z</time></trkpt><trkpt lat="43.085423935372226" lon="11.514914537752727"><ele>317.0</ele><time>2026-04-11T15:36:48Z</time></trkpt><trkpt lat="43.085509292566314" lon="11.514972014784203"><ele>317.0</ele><time>2026-04-11T15:36:49Z</time></trkpt><trkpt lat="43.08558305875857" lon="11.515050043651573"><ele>317.0</ele><time>2026-04-11T15:36:50Z</time></trkpt><trkpt lat="43.08564176681088" lon="11.515146627265858"><ele>317.0</ele><time>2026-04-11T15:36:51Z</time></trkpt><trkpt lat="43.085693457422515" lon="11.515236360165533"><ele>317.0</ele><time>2026-04-11T15:36:52Z</time></trkpt><trkpt lat="43.0857458361964" lon="11.515326479469286"><ele>317.0</ele><time>2026-04-11T15:36:53Z</time></trkpt><trkpt lat="43.08579937795199" lon="11.515407764117976"><ele>316.1666666666667</ele><time>2026-04-11T15:36:54Z</time></trkpt><trkpt lat="43.08585249414488" lon="11.515481709757834"><ele>315.33333333333337</ele><time>2026-04-11T15:36:55Z</time></trkpt><trkpt lat="43.085910240793986" lon="11.515543551959405"><ele>314.5</ele><time>2026-04-11T15:36:56Z</time></trkpt><trkpt lat="43.08597558462073" lon="11.51560077381098"><ele>313.6666666666667</ele><time>2026-04-11T15:36:57Z</time></trkpt><trkpt lat="43.0860493332822" lon="11.515647995407663"><ele>312.8333333333333</ele><time>2026-04-11T15:36:58Z</time></trkpt><trkpt lat="43.08611930243512" lon="11.515696201480056"><ele>312.0</ele><time>2026-04-11T15:36:59Z</time></trkpt><trkpt lat="43.08618933308988" lon="11.515758855813365"><ele>312.0</ele><time>2026-04-11T15:37:00Z</time></trkpt><trkpt lat="43.0862534000032" lon="11.515844003151503"><ele>312.0</ele><time>2026-04-11T15:37:01Z</time></trkpt><trkpt lat="43.08631087314082" lon="11.515937998883036"><ele>312.0</ele><time>2026-04-11T15:37:02Z</time></trkpt><trkpt lat="43.086366494328004" lon="11.516032200752944"><ele>312.0</ele><time>2026-04-11T15:37:03Z</time></trkpt><trkpt lat="43.086417300781825" lon="11.516124092320577"><ele>312.0</ele><time>2026-04-11T15:37:04Z</time></trkpt><trkpt lat="43.08647488045464" lon="11.5162082273632"><ele>312.0</ele><time>2026-04-11T15:37:05Z</time></trkpt><trkpt lat="43.086514180638375" lon="11.516307158244393"><ele>310.6666666666667</ele><time>2026-04-11T15:37:06Z</time></trkpt><trkpt lat="43.08654192143982" lon="11.516409276580358"><ele>309.3333333333333</ele><time>2026-04-11T15:37:07Z</time></trkpt><trkpt lat="43.086559695440876" lon="11.51652154777994"><ele>308.0</ele><time>2026-04-11T15:37:08Z</time></trkpt><trkpt lat="43.08656724548125" lon="11.516645185536186"><ele>306.66666666666663</ele><time>2026-04-11T15:37:09Z</time></trkpt><trkpt lat="43.08655014329355" lon="11.516769641593989"><ele>305.3333333333333</ele><time>2026-04-11T15:37:10Z</time></trkpt><trkpt lat="43.086537571732265" lon="11.516898861894687"><ele>304.0</ele><time>2026-04-11T15:37:11Z</time></trkpt><trkpt lat="43.08652459475859" lon="11.517030353086655"><ele>303.0</ele><time>2026-04-11T15:37:12Z</time></trkpt><trkpt lat="43.08651172521962" lon="11.517160743647455"><ele>302.0</ele><time>2026-04-11T15:37:13Z</time></trkpt><trkpt lat="43.08649906520688" lon="11.517290294652517"><ele>301.0</ele><time>2026-04-11T15:37:14Z</time></trkpt><trkpt lat="43.08648699664818" lon="11.517429513512605"><ele>300.0</ele><time>2026-04-11T15:37:15Z</time></trkpt><trkpt lat="43.086474695133894" lon="11.517571419623424"><ele>299.0</ele><time>2026-04-11T15:37:16Z</time></trkpt><trkpt lat="43.08646227882539" lon="11.517714649986953"><ele>299.0</ele><time>2026-04-11T15:37:17Z</time></trkpt><trkpt lat="43.08646163213639" lon="11.517861238253523"><ele>299.0</ele><time>2026-04-11T15:37:18Z</time></trkpt><trkpt lat="43.08644422000423" lon="11.518010960797719"><ele>299.0</ele><time>2026-04-11T15:37:19Z</time></trkpt><trkpt lat="43.08643500653086" lon="11.518162436166845"><ele>299.0</ele><time>2026-04-11T15:37:20Z</time></trkpt><trkpt lat="43.08641888711935" lon="11.518311157970999"><ele>299.0</ele><time>2026-04-11T15:37:21Z</time></trkpt><trkpt lat="43.08640309628781" lon="11.518457521229202"><ele>298.4</ele><time>2026-04-11T15:37:22Z</time></trkpt><trkpt lat="43.08638596612479" lon="11.51860100682559"><ele>297.79999999999995</ele><time>2026-04-11T15:37:23Z</time></trkpt><trkpt lat="43.0863720710954" lon="11.518738527018924"><ele>297.20000000000005</ele><time>2026-04-11T15:37:24Z</time></trkpt><trkpt lat="43.08635568241998" lon="11.518876100351244"><ele>296.6</ele><time>2026-04-11T15:37:25Z</time></trkpt><trkpt lat="43.0863386265379" lon="11.51900734482912"><ele>296.0</ele><time>2026-04-11T15:37:26Z</time></trkpt><trkpt lat="43.086326150623286" lon="11.519137839643836"><ele>296.0</ele><time>2026-04-11T15:37:27Z</time></trkpt><trkpt lat="43.086311458148586" lon="11.519258183985174"><ele>296.0</ele><time>2026-04-11T15:37:28Z</time></trkpt><trkpt lat="43.08630456803104" lon="11.519377283012247"><ele>296.0</ele><time>2026-04-11T15:37:29Z</time></trkpt><trkpt lat="43.086286220604045" lon="11.519486231052465"><ele>296.0</ele><time>2026-04-11T15:37:30Z</time></trkpt><trkpt lat="43.086273330690055" lon="11.519588822176646"><ele>296.0</ele><time>2026-04-11T15:37:31Z</time></trkpt><trkpt lat="43.08625988333307" lon="11.519687533007865"><ele>296.0</ele><time>2026-04-11T15:37:32Z</time></trkpt><trkpt lat="43.086252443412974" lon="11.519792893772166"><ele>296.0</ele><time>2026-04-11T15:37:33Z</time></trkpt><trkpt lat="43.08624105914758" lon="11.519891791499184"><ele>296.0</ele><time>2026-04-11T15:37:34Z</time></trkpt><trkpt lat="43.0862364521329" lon="11.519993584264142"><ele>296.0</ele><time>2026-04-11T15:37:35Z</time></trkpt><trkpt lat="43.086211907968604" lon="11.520106149265057"><ele>296.0</ele><time>2026-04-11T15:37:36Z</time></trkpt><trkpt lat="43.086193146723986" lon="11.520279591963233"><ele>296.0</ele><time>2026-04-11T15:37:38Z</time></trkpt><trkpt lat="43.086174955107545" lon="11.5203629573628"><ele>296.0</ele><time>2026-04-11T15:37:39Z</time></trkpt><trkpt lat="43.08615105617934" lon="11.520443193791166"><ele>296.75</ele><time>2026-04-11T15:37:40Z</time></trkpt><trkpt lat="43.08610214815196" lon="11.520583480617992"><ele>297.5</ele><time>2026-04-11T15:37:42Z</time></trkpt><trkpt lat="43.08603911179359" lon="11.520723084028146"><ele>298.25</ele><time>2026-04-11T15:37:44Z</time></trkpt><trkpt lat="43.08598994589282" lon="11.52086091221566"><ele>299.0</ele><time>2026-04-11T15:37:46Z</time></trkpt><trkpt lat="43.08591664467276" lon="11.520968197457577"><ele>299.0</ele><time>2026-04-11T15:37:48Z</time></trkpt><trkpt lat="43.08583781093145" lon="11.5210569978924"><ele>299.0</ele><time>2026-04-11T15:37:50Z</time></trkpt><trkpt lat="43.085753449037135" lon="11.521152033576028"><ele>299.0</ele><time>2026-04-11T15:37:52Z</time></trkpt><trkpt lat="43.0856669169662" lon="11.521232309964079"><ele>299.0</ele><time>2026-04-11T15:37:54Z</time></trkpt><trkpt lat="43.08557815161916" lon="11.521309311503456"><ele>299.0</ele><time>2026-04-11T15:37:56Z</time></trkpt><trkpt lat="43.0854904802501" lon="11.521383318037017"><ele>298.75</ele><time>2026-04-11T15:37:58Z</time></trkpt><trkpt lat="43.08538205635874" lon="11.52144082403599"><ele>298.5</ele><time>2026-04-11T15:38:00Z</time></trkpt><trkpt lat="43.085274758238704" lon="11.521501031467634"><ele>298.25</ele><time>2026-04-11T15:38:02Z</time></trkpt><trkpt lat="43.08515871765042" lon="11.521547513763391"><ele>298.0</ele><time>2026-04-11T15:38:04Z</time></trkpt><trkpt lat="43.0850385208952" lon="11.521601259201129"><ele>297.25</ele><time>2026-04-11T15:38:06Z</time></trkpt><trkpt lat="43.084919661345964" lon="11.521618158522525"><ele>296.5</ele><time>2026-04-11T15:38:08Z</time></trkpt><trkpt lat="43.084811162021396" lon="11.521681250448022"><ele>295.75</ele><time>2026-04-11T15:38:10Z</time></trkpt><trkpt lat="43.08469552071632" lon="11.521718606672698"><ele>295.0</ele><time>2026-04-11T15:38:12Z</time></trkpt><trkpt lat="43.08458485033278" lon="11.521777747964142"><ele>295.0</ele><time>2026-04-11T15:38:14Z</time></trkpt><trkpt lat="43.08452411014465" lon="11.521807264705338"><ele>295.0</ele><time>2026-04-11T15:38:15Z</time></trkpt><trkpt lat="43.0844630438461" lon="11.521828842532209"><ele>295.0</ele><time>2026-04-11T15:38:16Z</time></trkpt><trkpt lat="43.08434765233173" lon="11.521897951090924"><ele>295.0</ele><time>2026-04-11T15:38:18Z</time></trkpt><trkpt lat="43.08428351300862" lon="11.521919680027489"><ele>295.0</ele><time>2026-04-11T15:38:19Z</time></trkpt><trkpt lat="43.08416847636349" lon="11.52196986212579"><ele>295.0</ele><time>2026-04-11T15:38:21Z</time></trkpt><trkpt lat="43.08405427498277" lon="11.522030212710897"><ele>295.8</ele><time>2026-04-11T15:38:23Z</time></trkpt><trkpt lat="43.083948451826274" lon="11.522092468869767"><ele>296.6</ele><time>2026-04-11T15:38:25Z</time></trkpt><trkpt lat="43.083848101533185" lon="11.522148703556802"><ele>297.4</ele><time>2026-04-11T15:38:27Z</time></trkpt><trkpt lat="43.08375933400673" lon="11.522213089445405"><ele>298.2</ele><time>2026-04-11T15:38:29Z</time></trkpt><trkpt lat="43.08366915983727" lon="11.522280985880064"><ele>299.0</ele><time>2026-04-11T15:38:31Z</time></trkpt><trkpt lat="43.08359823065839" lon="11.522365815125346"><ele>299.0</ele><time>2026-04-11T15:38:33Z</time></trkpt><trkpt lat="43.083535305810976" lon="11.522451566967835"><ele>299.0</ele><time>2026-04-11T15:38:35Z</time></trkpt><trkpt lat="43.08349108795461" lon="11.522569227156781"><ele>299.0</ele><time>2026-04-11T15:38:37Z</time></trkpt><trkpt lat="43.08344787009688" lon="11.52267064258421"><ele>299.0</ele><time>2026-04-11T15:38:39Z</time></trkpt><trkpt lat="43.083418266097034" lon="11.52277775258368"><ele>299.0</ele><time>2026-04-11T15:38:41Z</time></trkpt><trkpt lat="43.08339662022103" lon="11.522897750446244"><ele>299.0</ele><time>2026-04-11T15:38:43Z</time></trkpt><trkpt lat="43.08337726909727" lon="11.523012725303813"><ele>299.0</ele><time>2026-04-11T15:38:46Z</time></trkpt><trkpt lat="43.08336421284652" lon="11.523114302398703"><ele>299.0</ele><time>2026-04-11T15:38:49Z</time></trkpt><trkpt lat="43.08334521654956" lon="11.523223523803289"><ele>299.0</ele><time>2026-04-11T15:38:52Z</time></trkpt><trkpt lat="43.083327784858184" lon="11.523309522331722"><ele>299.0</ele><time>2026-04-11T15:38:54Z</time></trkpt><trkpt lat="43.08330763066775" lon="11.523420917638585"><ele>299.0</ele><time>2026-04-11T15:38:56Z</time></trkpt><trkpt lat="43.08328606573792" lon="11.523525400757572"><ele>299.0</ele><time>2026-04-11T15:38:59Z</time></trkpt><trkpt lat="43.08325663985599" lon="11.523612343788866"><ele>299.33333333333337</ele><time>2026-04-11T15:39:01Z</time></trkpt><trkpt lat="43.083216182058244" lon="11.523695164694802"><ele>299.6666666666667</ele><time>2026-04-11T15:39:03Z</time></trkpt><trkpt lat="43.083163207149525" lon="11.52374507422777"><ele>300.0</ele><time>2026-04-11T15:39:04Z</time></trkpt><trkpt lat="43.08312289177374" lon="11.5238136432434"><ele>300.3333333333333</ele><time>2026-04-11T15:39:05Z</time></trkpt><trkpt lat="43.08307605505761" lon="11.523876381925344"><ele>300.66666666666663</ele><time>2026-04-11T15:39:06Z</time></trkpt><trkpt lat="43.082987367009636" lon="11.523967802263824"><ele>301.0</ele><time>2026-04-11T15:39:07Z</time></trkpt><trkpt lat="43.08291017246168" lon="11.524025382279051"><ele>300.2</ele><time>2026-04-11T15:39:08Z</time></trkpt><trkpt lat="43.08284224784874" lon="11.524131202468569"><ele>299.40000000000003</ele><time>2026-04-11T15:39:09Z</time></trkpt><trkpt lat="43.08276565245632" lon="11.52416940696589"><ele>298.6</ele><time>2026-04-11T15:39:10Z</time></trkpt><trkpt lat="43.082682123637646" lon="11.524194958405882"><ele>297.8</ele><time>2026-04-11T15:39:11Z</time></trkpt><trkpt lat="43.0826037307108" lon="11.524272352636187"><ele>297.0</ele><time>2026-04-11T15:39:12Z</time></trkpt><trkpt lat="43.08253077226559" lon="11.524342476809187"><ele>297.0</ele><time>2026-04-11T15:39:13Z</time></trkpt><trkpt lat="43.08246003072161" lon="11.524400154650074"><ele>297.0</ele><time>2026-04-11T15:39:14Z</time></trkpt><trkpt lat="43.082392284418574" lon="11.524475158069636"><ele>297.0</ele><time>2026-04-11T15:39:15Z</time></trkpt><trkpt lat="43.08231575871397" lon="11.52453327803873"><ele>297.0</ele><time>2026-04-11T15:39:16Z</time></trkpt><trkpt lat="43.082265833919145" lon="11.524620127177162"><ele>297.0</ele><time>2026-04-11T15:39:17Z</time></trkpt><trkpt lat="43.08220708223478" lon="11.52468945713077"><ele>297.0</ele><time>2026-04-11T15:39:18Z</time></trkpt><trkpt lat="43.08214951839349" lon="11.524757756954893"><ele>296.2857142857143</ele><time>2026-04-11T15:39:19Z</time></trkpt><trkpt lat="43.08209598741512" lon="11.524822078384148"><ele>295.5714285714286</ele><time>2026-04-11T15:39:20Z</time></trkpt><trkpt lat="43.08204021619628" lon="11.524894022574811"><ele>294.8571428571429</ele><time>2026-04-11T15:39:21Z</time></trkpt><trkpt lat="43.08198839772015" lon="11.524963139559137"><ele>294.14285714285717</ele><time>2026-04-11T15:39:22Z</time></trkpt><trkpt lat="43.081940527183825" lon="11.525030497583678"><ele>293.42857142857144</ele><time>2026-04-11T15:39:23Z</time></trkpt><trkpt lat="43.081887129647086" lon="11.525089335868824"><ele>292.7142857142857</ele><time>2026-04-11T15:39:24Z</time></trkpt><trkpt lat="43.081837286667344" lon="11.525147631284023"><ele>292.0</ele><time>2026-04-11T15:39:25Z</time></trkpt><trkpt lat="43.08179185125969" lon="11.525216662446132"><ele>292.0</ele><time>2026-04-11T15:39:26Z</time></trkpt><trkpt lat="43.08174684245615" lon="11.525277371282233"><ele>292.0</ele><time>2026-04-11T15:39:27Z</time></trkpt><trkpt lat="43.081659370283795" lon="11.525387425915154"><ele>292.0</ele><time>2026-04-11T15:39:29Z</time></trkpt><trkpt lat="43.08157498832831" lon="11.525498210213545"><ele>292.0</ele><time>2026-04-11T15:39:31Z</time></trkpt><trkpt lat="43.081505306502336" lon="11.525600534336926"><ele>292.0</ele><time>2026-04-11T15:39:33Z</time></trkpt><trkpt lat="43.081449854463656" lon="11.525701134512435"><ele>292.16666666666663</ele><time>2026-04-11T15:39:35Z</time></trkpt><trkpt lat="43.08139100850055" lon="11.525797677928198"><ele>292.3333333333333</ele><time>2026-04-11T15:39:37Z</time></trkpt><trkpt lat="43.08134151592311" lon="11.525904057403798"><ele>292.5</ele><time>2026-04-11T15:39:39Z</time></trkpt><trkpt lat="43.08130801913879" lon="11.526008589606276"><ele>292.6666666666667</ele><time>2026-04-11T15:39:41Z</time></trkpt><trkpt lat="43.08126667903358" lon="11.526095098186413"><ele>292.83333333333337</ele><time>2026-04-11T15:39:43Z</time></trkpt><trkpt lat="43.081234443367315" lon="11.526193301312794"><ele>293.0</ele><time>2026-04-11T15:39:45Z</time></trkpt><trkpt lat="43.08120950488317" lon="11.526276014352701"><ele>293.5</ele><time>2026-04-11T15:39:48Z</time></trkpt><trkpt lat="43.08117377116101" lon="11.526379887668101"><ele>294.0</ele><time>2026-04-11T15:39:51Z</time></trkpt><trkpt lat="43.08114255206219" lon="11.526475918493277"><ele>294.5</ele><time>2026-04-11T15:39:54Z</time></trkpt><trkpt lat="43.08110954659674" lon="11.526590203342291"><ele>295.0</ele><time>2026-04-11T15:39:57Z</time></trkpt><trkpt lat="43.08108357618865" lon="11.526676216389202"><ele>295.5</ele><time>2026-04-11T15:39:59Z</time></trkpt><trkpt lat="43.08105926415091" lon="11.526759923802503"><ele>296.0</ele><time>2026-04-11T15:40:01Z</time></trkpt><trkpt lat="43.08102016939518" lon="11.526873787022316"><ele>296.0</ele><time>2026-04-11T15:40:04Z</time></trkpt><trkpt lat="43.08098732190508" lon="11.526950830520713"><ele>296.0</ele><time>2026-04-11T15:40:06Z</time></trkpt><trkpt lat="43.08096419133848" lon="11.527034176850611"><ele>296.0</ele><time>2026-04-11T15:40:08Z</time></trkpt><trkpt lat="43.0809435041962" lon="11.527120068074383"><ele>296.0</ele><time>2026-04-11T15:40:10Z</time></trkpt><trkpt lat="43.08090982859207" lon="11.527230453982451"><ele>296.0</ele><time>2026-04-11T15:40:13Z</time></trkpt><trkpt lat="43.08087876400828" lon="11.527312813420084"><ele>296.0</ele><time>2026-04-11T15:40:15Z</time></trkpt><trkpt lat="43.080853453257696" lon="11.52739348529456"><ele>296.0</ele><time>2026-04-11T15:40:17Z</time></trkpt><trkpt lat="43.080824717389575" lon="11.52748421564316"><ele>296.40000000000003</ele><time>2026-04-11T15:40:19Z</time></trkpt><trkpt lat="43.08079631992429" lon="11.527585992717869"><ele>296.8</ele><time>2026-04-11T15:40:21Z</time></trkpt><trkpt lat="43.08076473984653" lon="11.527723951446667"><ele>297.20000000000005</ele><time>2026-04-11T15:40:24Z</time></trkpt><trkpt lat="43.08073933960698" lon="11.527817357340986"><ele>297.6</ele><time>2026-04-11T15:40:26Z</time></trkpt><trkpt lat="43.08069263283078" lon="11.52791919846699"><ele>298.0</ele><time>2026-04-11T15:40:28Z</time></trkpt><trkpt lat="43.08063861870474" lon="11.528041313320404"><ele>300.66666666666663</ele><time>2026-04-11T15:40:30Z</time></trkpt><trkpt lat="43.08060025710215" lon="11.528118853003694"><ele>303.3333333333333</ele><time>2026-04-11T15:40:32Z</time></trkpt><trkpt lat="43.08055496763815" lon="11.528208943404854"><ele>306.0</ele><time>2026-04-11T15:40:34Z</time></trkpt><trkpt lat="43.08051454065463" lon="11.528297537367486"><ele>308.6666666666667</ele><time>2026-04-11T15:40:36Z</time></trkpt><trkpt lat="43.08047071529229" lon="11.528397625500979"><ele>311.33333333333337</ele><time>2026-04-11T15:40:38Z</time></trkpt><trkpt lat="43.0804254774499" lon="11.528487617134392"><ele>314.0</ele><time>2026-04-11T15:40:41Z</time></trkpt><trkpt lat="43.08040443369546" lon="11.528569532251113"><ele>313.99999999999994</ele><time>2026-04-11T15:40:43Z</time></trkpt><trkpt lat="43.08037297008383" lon="11.528652392580378"><ele>314.0</ele><time>2026-04-11T15:40:45Z</time></trkpt><trkpt lat="43.08034329850254" lon="11.52874333444864"><ele>314.0</ele><time>2026-04-11T15:40:47Z</time></trkpt><trkpt lat="43.08030895654891" lon="11.528828749078235"><ele>314.0</ele><time>2026-04-11T15:40:49Z</time></trkpt><trkpt lat="43.08028738192335" lon="11.52891914591794"><ele>314.0</ele><time>2026-04-11T15:40:51Z</time></trkpt><trkpt lat="43.080271954929934" lon="11.529017263646622"><ele>313.99999999999994</ele><time>2026-04-11T15:40:53Z</time></trkpt><trkpt lat="43.08024261448423" lon="11.529105450286387"><ele>314.0</ele><time>2026-04-11T15:40:55Z</time></trkpt><trkpt lat="43.08021818484396" lon="11.52920683478945"><ele>313.0</ele><time>2026-04-11T15:40:57Z</time></trkpt><trkpt lat="43.08018895185786" lon="11.52935966270548"><ele>312.0</ele><time>2026-04-11T15:41:00Z</time></trkpt><trkpt lat="43.08014490268941" lon="11.529483317853213"><ele>311.0</ele><time>2026-04-11T15:41:03Z</time></trkpt><trkpt lat="43.080132880904344" lon="11.529617047462596"><ele>310.0</ele><time>2026-04-11T15:41:05Z</time></trkpt><trkpt lat="43.08010955101803" lon="11.529797983467395"><ele>309.0</ele><time>2026-04-11T15:41:07Z</time></trkpt><trkpt lat="43.08009198121615" lon="11.529923185466558"><ele>308.4</ele><time>2026-04-11T15:41:08Z</time></trkpt><trkpt lat="43.080069682587165" lon="11.530011404580199"><ele>307.79999999999995</ele><time>2026-04-11T15:41:09Z</time></trkpt><trkpt lat="43.08005351126338" lon="11.530096942054309"><ele>307.20000000000005</ele><time>2026-04-11T15:41:10Z</time></trkpt><trkpt lat="43.079972438679235" lon="11.530182996597114"><ele>306.6</ele><time>2026-04-11T15:41:11Z</time></trkpt><trkpt lat="43.07999270717935" lon="11.5303488618341"><ele>306.0</ele><time>2026-04-11T15:41:13Z</time></trkpt><trkpt lat="43.07998405845444" lon="11.530519814418543"><ele>305.0</ele><time>2026-04-11T15:41:15Z</time></trkpt><trkpt lat="43.07999095536271" lon="11.530688898638035"><ele>304.0</ele><time>2026-04-11T15:41:17Z</time></trkpt><trkpt lat="43.08000592657915" lon="11.530863476257613"><ele>303.0</ele><time>2026-04-11T15:41:19Z</time></trkpt><trkpt lat="43.080000216494795" lon="11.530953692864895"><ele>302.0</ele><time>2026-04-11T15:41:20Z</time></trkpt><trkpt lat="43.079990951552595" lon="11.531039597609986"><ele>301.0</ele><time>2026-04-11T15:41:21Z</time></trkpt><trkpt lat="43.07997844163232" lon="11.531128684806802"><ele>300.0</ele><time>2026-04-11T15:41:22Z</time></trkpt><trkpt lat="43.079963855067156" lon="11.531216931847942"><ele>299.4</ele><time>2026-04-11T15:41:23Z</time></trkpt><trkpt lat="43.07994599154865" lon="11.53130388728729"><ele>298.8</ele><time>2026-04-11T15:41:24Z</time></trkpt><trkpt lat="43.079926399524396" lon="11.53138614155878"><ele>298.2</ele><time>2026-04-11T15:41:25Z</time></trkpt><trkpt lat="43.07987944074621" lon="11.531535291521942"><ele>297.6</ele><time>2026-04-11T15:41:27Z</time></trkpt><trkpt lat="43.07983098096584" lon="11.531679106971442"><ele>297.0</ele><time>2026-04-11T15:41:29Z</time></trkpt><trkpt lat="43.07978072415246" lon="11.53181030167148"><ele>297.0</ele><time>2026-04-11T15:41:31Z</time></trkpt><trkpt lat="43.07973481788718" lon="11.53191199602836"><ele>297.0</ele><time>2026-04-11T15:41:33Z</time></trkpt><trkpt lat="43.07970226118156" lon="11.531990237388872"><ele>297.0</ele><time>2026-04-11T15:41:35Z</time></trkpt><trkpt lat="43.07967121855585" lon="11.532090062103554"><ele>297.0</ele><time>2026-04-11T15:41:38Z</time></trkpt><trkpt lat="43.07964649151355" lon="11.532190024288187"><ele>297.0</ele><time>2026-04-11T15:41:42Z</time></trkpt><trkpt lat="43.079633625519065" lon="11.532298121357707"><ele>297.0</ele><time>2026-04-11T15:41:46Z</time></trkpt><trkpt lat="43.079632364293026" lon="11.532415427946402"><ele>298.1666666666667</ele><time>2026-04-11T15:41:50Z</time></trkpt><trkpt lat="43.079632809014406" lon="11.532535108894649"><ele>299.3333333333333</ele><time>2026-04-11T15:41:53Z</time></trkpt><trkpt lat="43.07965101243026" lon="11.532620872740923"><ele>300.5</ele><time>2026-04-11T15:41:56Z</time></trkpt><trkpt lat="43.07967334447483" lon="11.532720341423934"><ele>301.66666666666663</ele><time>2026-04-11T15:41:59Z</time></trkpt><trkpt lat="43.07968968880708" lon="11.532809023823898"><ele>302.8333333333333</ele><time>2026-04-11T15:42:01Z</time></trkpt><trkpt lat="43.07971995735655" lon="11.532916666092227"><ele>304.0</ele><time>2026-04-11T15:42:04Z</time></trkpt><trkpt lat="43.07974013922916" lon="11.533045528951625"><ele>305.3333333333333</ele><time>2026-04-11T15:42:07Z</time></trkpt><trkpt lat="43.07976847592165" lon="11.533182293437976"><ele>306.66666666666663</ele><time>2026-04-11T15:42:09Z</time></trkpt><trkpt lat="43.079776649762" lon="11.533292575105172"><ele>308.0</ele><time>2026-04-11T15:42:11Z</time></trkpt><trkpt lat="43.07977684861645" lon="11.533412570510666"><ele>309.3333333333333</ele><time>2026-04-11T15:42:13Z</time></trkpt><trkpt lat="43.07975517401584" lon="11.53350622516481"><ele>310.6666666666667</ele><time>2026-04-11T15:42:15Z</time></trkpt><trkpt lat="43.079735011630724" lon="11.533637708703802"><ele>312.0</ele><time>2026-04-11T15:42:17Z</time></trkpt><trkpt lat="43.07971964188806" lon="11.53373093411536"><ele>313.0</ele><time>2026-04-11T15:42:18Z</time></trkpt><trkpt lat="43.079725819443816" lon="11.533859068300107"><ele>314.0</ele><time>2026-04-11T15:42:20Z</time></trkpt><trkpt lat="43.07974510095606" lon="11.533992584802187"><ele>315.0</ele><time>2026-04-11T15:42:22Z</time></trkpt><trkpt lat="43.07976090188656" lon="11.534115070369122"><ele>316.0</ele><time>2026-04-11T15:42:24Z</time></trkpt><trkpt lat="43.07977981977072" lon="11.534214840505326"><ele>317.0</ele><time>2026-04-11T15:42:25Z</time></trkpt><trkpt lat="43.079812349586376" lon="11.534374834722332"><ele>317.0</ele><time>2026-04-11T15:42:27Z</time></trkpt><trkpt lat="43.07983209649144" lon="11.534458529907898"><ele>317.0</ele><time>2026-04-11T15:42:28Z</time></trkpt><trkpt lat="43.07985196861134" lon="11.534546160754326"><ele>317.0</ele><time>2026-04-11T15:42:29Z</time></trkpt><trkpt lat="43.07987241462956" lon="11.53463189177491"><ele>317.0</ele><time>2026-04-11T15:42:30Z</time></trkpt><trkpt lat="43.079901438402814" lon="11.534715832491122"><ele>317.0</ele><time>2026-04-11T15:42:31Z</time></trkpt><trkpt lat="43.079926543654" lon="11.534797361003145"><ele>317.0</ele><time>2026-04-11T15:42:32Z</time></trkpt><trkpt lat="43.07998452606205" lon="11.534942201159392"><ele>315.8</ele><time>2026-04-11T15:42:34Z</time></trkpt><trkpt lat="43.08007005590934" lon="11.53506078343647"><ele>314.6</ele><time>2026-04-11T15:42:36Z</time></trkpt><trkpt lat="43.08016337572786" lon="11.535165392599476"><ele>313.40000000000003</ele><time>2026-04-11T15:42:38Z</time></trkpt><trkpt lat="43.080225904434165" lon="11.535303605150974"><ele>312.2</ele><time>2026-04-11T15:42:40Z</time></trkpt><trkpt lat="43.08025288657492" lon="11.535384072268135"><ele>311.0</ele><time>2026-04-11T15:42:41Z</time></trkpt><trkpt lat="43.08027210982163" lon="11.53554834457991"><ele>310.0</ele><time>2026-04-11T15:42:43Z</time></trkpt><trkpt lat="43.0802548396793" lon="11.535702401773385"><ele>309.0</ele><time>2026-04-11T15:42:45Z</time></trkpt><trkpt lat="43.08022736610041" lon="11.535860841106823"><ele>308.0</ele><time>2026-04-11T15:42:47Z</time></trkpt><trkpt lat="43.0802078263785" lon="11.53603204599554"><ele>307.0</ele><time>2026-04-11T15:42:49Z</time></trkpt><trkpt lat="43.08021359445004" lon="11.53620719530869"><ele>305.71428571428567</ele><time>2026-04-11T15:42:51Z</time></trkpt><trkpt lat="43.08021924635133" lon="11.536302989955889"><ele>304.42857142857144</ele><time>2026-04-11T15:42:52Z</time></trkpt><trkpt lat="43.080233560958185" lon="11.536392243251978"><ele>303.1428571428571</ele><time>2026-04-11T15:42:53Z</time></trkpt><trkpt lat="43.080247072466086" lon="11.536482287963414"><ele>301.85714285714283</ele><time>2026-04-11T15:42:54Z</time></trkpt><trkpt lat="43.08025993198054" lon="11.536572787949709"><ele>300.57142857142856</ele><time>2026-04-11T15:42:55Z</time></trkpt><trkpt lat="43.08026554586555" lon="11.536667119468625"><ele>299.2857142857143</ele><time>2026-04-11T15:42:56Z</time></trkpt><trkpt lat="43.08026605933095" lon="11.536762494580248"><ele>298.0</ele><time>2026-04-11T15:42:57Z</time></trkpt><trkpt lat="43.08025039587253" lon="11.536860899940493"><ele>298.0</ele><time>2026-04-11T15:42:58Z</time></trkpt><trkpt lat="43.08023269786642" lon="11.53695486326329"><ele>298.0</ele><time>2026-04-11T15:42:59Z</time></trkpt><trkpt lat="43.08022669392109" lon="11.537053765144726"><ele>298.0</ele><time>2026-04-11T15:43:00Z</time></trkpt><trkpt lat="43.08024376713778" lon="11.537155833422775"><ele>298.0</ele><time>2026-04-11T15:43:01Z</time></trkpt><trkpt lat="43.080255392643295" lon="11.537272485654352"><ele>298.0</ele><time>2026-04-11T15:43:02Z</time></trkpt><trkpt lat="43.080305122172106" lon="11.537364733059974"><ele>298.0</ele><time>2026-04-11T15:43:03Z</time></trkpt><trkpt lat="43.08039809982237" lon="11.537406786034591"><ele>296.8333333333333</ele><time>2026-04-11T15:43:04Z</time></trkpt><trkpt lat="43.08047751546502" lon="11.53745256403256"><ele>295.66666666666663</ele><time>2026-04-11T15:43:05Z</time></trkpt><trkpt lat="43.08055177645064" lon="11.537493099057963"><ele>294.5</ele><time>2026-04-11T15:43:06Z</time></trkpt><trkpt lat="43.08061562488932" lon="11.537563509937009"><ele>293.3333333333333</ele><time>2026-04-11T15:43:07Z</time></trkpt><trkpt lat="43.08066300454786" lon="11.537655401056394"><ele>292.1666666666667</ele><time>2026-04-11T15:43:08Z</time></trkpt><trkpt lat="43.08070434464761" lon="11.537760130296807"><ele>291.0</ele><time>2026-04-11T15:43:09Z</time></trkpt><trkpt lat="43.080714891783785" lon="11.53787844657666"><ele>290.2</ele><time>2026-04-11T15:43:10Z</time></trkpt><trkpt lat="43.08074154380489" lon="11.537992500326494"><ele>289.40000000000003</ele><time>2026-04-11T15:43:11Z</time></trkpt><trkpt lat="43.0807563553624" lon="11.538114702678161"><ele>288.6</ele><time>2026-04-11T15:43:12Z</time></trkpt><trkpt lat="43.08077519749528" lon="11.538233689606393"><ele>287.8</ele><time>2026-04-11T15:43:13Z</time></trkpt><trkpt lat="43.08078344999026" lon="11.538358196544532"><ele>287.0</ele><time>2026-04-11T15:43:14Z</time></trkpt><trkpt lat="43.08080227285081" lon="11.538484448290657"><ele>287.0</ele><time>2026-04-11T15:43:15Z</time></trkpt><trkpt lat="43.08082085985172" lon="11.53860911859872"><ele>287.0</ele><time>2026-04-11T15:43:16Z</time></trkpt><trkpt lat="43.08085170707804" lon="11.53872995064057"><ele>287.0</ele><time>2026-04-11T15:43:17Z</time></trkpt><trkpt lat="43.080868906312396" lon="11.538849901660836"><ele>287.0</ele><time>2026-04-11T15:43:18Z</time></trkpt><trkpt lat="43.08088871511111" lon="11.538970674112354"><ele>287.0</ele><time>2026-04-11T15:43:19Z</time></trkpt><trkpt lat="43.08090629413906" lon="11.539085570169355"><ele>286.83333333333337</ele><time>2026-04-11T15:43:20Z</time></trkpt><trkpt lat="43.08092513119557" lon="11.539189572567233"><ele>286.6666666666667</ele><time>2026-04-11T15:43:21Z</time></trkpt><trkpt lat="43.08094958725255" lon="11.539293403568916"><ele>286.5</ele><time>2026-04-11T15:43:22Z</time></trkpt><trkpt lat="43.08097690519464" lon="11.53939022941065"><ele>286.3333333333333</ele><time>2026-04-11T15:43:23Z</time></trkpt><trkpt lat="43.081004011834686" lon="11.539478928206297"><ele>286.16666666666663</ele><time>2026-04-11T15:43:24Z</time></trkpt><trkpt lat="43.08104538809248" lon="11.539561535928243"><ele>286.0</ele><time>2026-04-11T15:43:25Z</time></trkpt><trkpt lat="43.08107458387347" lon="11.539654431786586"><ele>286.5</ele><time>2026-04-11T15:43:26Z</time></trkpt><trkpt lat="43.081124673041614" lon="11.539727806755272"><ele>287.0</ele><time>2026-04-11T15:43:27Z</time></trkpt><trkpt lat="43.081192852928126" lon="11.53977670243446"><ele>287.5</ele><time>2026-04-11T15:43:28Z</time></trkpt><trkpt lat="43.08125390414702" lon="11.539832039632733"><ele>288.0</ele><time>2026-04-11T15:43:29Z</time></trkpt><trkpt lat="43.081302509122615" lon="11.539910251280991"><ele>288.5</ele><time>2026-04-11T15:43:30Z</time></trkpt><trkpt lat="43.08135739301201" lon="11.539968973969728"><ele>289.0</ele><time>2026-04-11T15:43:31Z</time></trkpt><trkpt lat="43.08144941801054" lon="11.540071996364384"><ele>289.0</ele><time>2026-04-11T15:43:33Z</time></trkpt><trkpt lat="43.08153487862433" lon="11.540162164562675"><ele>289.0</ele><time>2026-04-11T15:43:35Z</time></trkpt><trkpt lat="43.081590352942364" lon="11.540278061491405"><ele>289.0</ele><time>2026-04-11T15:43:37Z</time></trkpt><trkpt lat="43.08164202255858" lon="11.540392721662592"><ele>289.0</ele><time>2026-04-11T15:43:39Z</time></trkpt><trkpt lat="43.08167301432281" lon="11.540517879077997"><ele>289.0</ele><time>2026-04-11T15:43:41Z</time></trkpt><trkpt lat="43.08169149527806" lon="11.540652827329108"><ele>289.8</ele><time>2026-04-11T15:43:43Z</time></trkpt><trkpt lat="43.0816910611307" lon="11.540794229242664"><ele>290.59999999999997</ele><time>2026-04-11T15:43:45Z</time></trkpt><trkpt lat="43.08171179719488" lon="11.540935705099331"><ele>291.4</ele><time>2026-04-11T15:43:47Z</time></trkpt><trkpt lat="43.081724441231735" lon="11.54106930820817"><ele>292.2</ele><time>2026-04-11T15:43:50Z</time></trkpt><trkpt lat="43.08172395946464" lon="11.541188975991963"><ele>293.0</ele><time>2026-04-11T15:43:53Z</time></trkpt><trkpt lat="43.08173718040047" lon="11.541284975156817"><ele>293.6</ele><time>2026-04-11T15:43:55Z</time></trkpt><trkpt lat="43.08179002075894" lon="11.541477848947292"><ele>294.20000000000005</ele><time>2026-04-11T15:43:57Z</time></trkpt><trkpt lat="43.08181317357534" lon="11.54157449709112"><ele>294.8</ele><time>2026-04-11T15:43:59Z</time></trkpt><trkpt lat="43.081835450187164" lon="11.541681643216672"><ele>295.40000000000003</ele><time>2026-04-11T15:44:01Z</time></trkpt><trkpt lat="43.081845774066615" lon="11.5417803404391"><ele>296.0</ele><time>2026-04-11T15:44:03Z</time></trkpt><trkpt lat="43.081866418166214" lon="11.54190880922394"><ele>296.0</ele><time>2026-04-11T15:44:06Z</time></trkpt><trkpt lat="43.081881905968686" lon="11.542030068165165"><ele>296.0</ele><time>2026-04-11T15:44:09Z</time></trkpt><trkpt lat="43.081886995922794" lon="11.542126687215335"><ele>296.0</ele><time>2026-04-11T15:44:12Z</time></trkpt><trkpt lat="43.08188965550811" lon="11.542224328401483"><ele>296.0</ele><time>2026-04-11T15:44:15Z</time></trkpt><trkpt lat="43.081890725075894" lon="11.542335253017708"><ele>296.0</ele><time>2026-04-11T15:44:18Z</time></trkpt><trkpt lat="43.081891921835414" lon="11.542424719716585"><ele>296.0</ele><time>2026-04-11T15:44:20Z</time></trkpt><trkpt lat="43.08189386034228" lon="11.542525859050267"><ele>296.0</ele><time>2026-04-11T15:44:22Z</time></trkpt><trkpt lat="43.08190524499973" lon="11.542643550773604"><ele>296.0</ele><time>2026-04-11T15:44:24Z</time></trkpt><trkpt lat="43.08194154417806" lon="11.542766750851774"><ele>296.0</ele><time>2026-04-11T15:44:26Z</time></trkpt><trkpt lat="43.08198336283533" lon="11.542875312656763"><ele>296.0</ele><time>2026-04-11T15:44:28Z</time></trkpt><trkpt lat="43.08205898582072" lon="11.542959415545546"><ele>296.0</ele><time>2026-04-11T15:44:30Z</time></trkpt><trkpt lat="43.08214906116562" lon="11.542990074866829"><ele>295.0</ele><time>2026-04-11T15:44:32Z</time></trkpt><trkpt lat="43.08224256584928" lon="11.542996934014896"><ele>294.0</ele><time>2026-04-11T15:44:34Z</time></trkpt><trkpt lat="43.08233648780196" lon="11.54301658851419"><ele>293.0</ele><time>2026-04-11T15:44:36Z</time></trkpt><trkpt lat="43.08242963453688" lon="11.543040740168056"><ele>292.0</ele><time>2026-04-11T15:44:38Z</time></trkpt><trkpt lat="43.08251992329904" lon="11.543051103123519"><ele>291.0</ele><time>2026-04-11T15:44:40Z</time></trkpt><trkpt lat="43.082586528432266" lon="11.543087352050271"><ele>290.0</ele><time>2026-04-11T15:44:42Z</time></trkpt><trkpt lat="43.08266909115968" lon="11.543117143359613"><ele>290.0</ele><time>2026-04-11T15:44:44Z</time></trkpt><trkpt lat="43.08274966767064" lon="11.54315702143524"><ele>290.0</ele><time>2026-04-11T15:44:46Z</time></trkpt><trkpt lat="43.082830619876624" lon="11.543180047188294"><ele>290.0</ele><time>2026-04-11T15:44:48Z</time></trkpt><trkpt lat="43.08290695299791" lon="11.543202325452052"><ele>290.0</ele><time>2026-04-11T15:44:50Z</time></trkpt><trkpt lat="43.08298082100538" lon="11.543206458773488"><ele>290.0</ele><time>2026-04-11T15:44:52Z</time></trkpt><trkpt lat="43.083081590383074" lon="11.543215781592783"><ele>290.0</ele><time>2026-04-11T15:44:54.002Z</time></trkpt><trkpt lat="43.08318414877694" lon="11.543209209988648"><ele>290.0</ele><time>2026-04-11T15:44:56Z</time></trkpt><trkpt lat="43.08325617168412" lon="11.543237949802279"><ele>290.0</ele><time>2026-04-11T15:44:57Z</time></trkpt><trkpt lat="43.08330127449719" lon="11.543308038212896"><ele>290.0</ele><time>2026-04-11T15:44:58Z</time></trkpt><trkpt lat="43.08336763524281" lon="11.543332545127608"><ele>290.0</ele><time>2026-04-11T15:44:59Z</time></trkpt><trkpt lat="43.08343249013406" lon="11.543354552895503"><ele>290.0</ele><time>2026-04-11T15:45:00Z</time></trkpt><trkpt lat="43.08350633625715" lon="11.543369513815422"><ele>290.0</ele><time>2026-04-11T15:45:01Z</time></trkpt><trkpt lat="43.08357406801778" lon="11.543374970017876"><ele>290.0</ele><time>2026-04-11T15:45:02Z</time></trkpt><trkpt lat="43.08364895252222" lon="11.54335363195024"><ele>289.0</ele><time>2026-04-11T15:45:03Z</time></trkpt><trkpt lat="43.083720444963454" lon="11.543316152382172"><ele>288.0</ele><time>2026-04-11T15:45:04Z</time></trkpt><trkpt lat="43.08378882593707" lon="11.543263708106705"><ele>287.0</ele><time>2026-04-11T15:45:05Z</time></trkpt><trkpt lat="43.08384683033421" lon="11.543221593659636"><ele>286.0</ele><time>2026-04-11T15:45:06Z</time></trkpt><trkpt lat="43.08395186904483" lon="11.543179643266193"><ele>285.0</ele><time>2026-04-11T15:45:08Z</time></trkpt><trkpt lat="43.08407987221716" lon="11.543211830219974"><ele>283.85714285714283</ele><time>2026-04-11T15:45:10Z</time></trkpt><trkpt lat="43.08415817405991" lon="11.543241666409065"><ele>282.7142857142857</ele><time>2026-04-11T15:45:11Z</time></trkpt><trkpt lat="43.08423115978753" lon="11.543273280286686"><ele>281.57142857142856</ele><time>2026-04-11T15:45:12Z</time></trkpt><trkpt lat="43.084306150644096" lon="11.543290313712179"><ele>280.42857142857144</ele><time>2026-04-11T15:45:13Z</time></trkpt><trkpt lat="43.084370981768224" lon="11.543327040066707"><ele>279.2857142857143</ele><time>2026-04-11T15:45:14Z</time></trkpt><trkpt lat="43.08443189780682" lon="11.543361393043744"><ele>278.1428571428571</ele><time>2026-04-11T15:45:15Z</time></trkpt><trkpt lat="43.084492495876866" lon="11.543398236845256"><ele>277.0</ele><time>2026-04-11T15:45:16Z</time></trkpt><trkpt lat="43.08455543729176" lon="11.543415023894608"><ele>277.0</ele><time>2026-04-11T15:45:17Z</time></trkpt><trkpt lat="43.08462757115198" lon="11.543445764362184"><ele>277.0</ele><time>2026-04-11T15:45:18Z</time></trkpt><trkpt lat="43.08469381035227" lon="11.543459820591375"><ele>277.0</ele><time>2026-04-11T15:45:19Z</time></trkpt><trkpt lat="43.0847652813415" lon="11.543489082324594"><ele>277.0</ele><time>2026-04-11T15:45:20Z</time></trkpt><trkpt lat="43.08483968962251" lon="11.543525501580408"><ele>277.0</ele><time>2026-04-11T15:45:21Z</time></trkpt><trkpt lat="43.084908846872175" lon="11.543553297406406"><ele>277.0</ele><time>2026-04-11T15:45:22Z</time></trkpt><trkpt lat="43.084980411508155" lon="11.543594774012336"><ele>277.0</ele><time>2026-04-11T15:45:23Z</time></trkpt><trkpt lat="43.085061158660444" lon="11.543647678307108"><ele>275.6</ele><time>2026-04-11T15:45:24Z</time></trkpt><trkpt lat="43.0851352062833" lon="11.543699063789878"><ele>274.2</ele><time>2026-04-11T15:45:25Z</time></trkpt><trkpt lat="43.085214259968765" lon="11.543735307280043"><ele>272.8</ele><time>2026-04-11T15:45:26Z</time></trkpt><trkpt lat="43.08530796963868" lon="11.543794007811055"><ele>271.4</ele><time>2026-04-11T15:45:27Z</time></trkpt><trkpt lat="43.08539869851224" lon="11.543854272500399"><ele>270.0</ele><time>2026-04-11T15:45:28Z</time></trkpt><trkpt lat="43.08548652984192" lon="11.543903184911215"><ele>270.0</ele><time>2026-04-11T15:45:29Z</time></trkpt><trkpt lat="43.085565799045106" lon="11.5439431773328"><ele>270.0</ele><time>2026-04-11T15:45:30Z</time></trkpt><trkpt lat="43.085645977187234" lon="11.543990134236202"><ele>270.0</ele><time>2026-04-11T15:45:31Z</time></trkpt><trkpt lat="43.085731322977594" lon="11.544016391359973"><ele>270.0</ele><time>2026-04-11T15:45:32Z</time></trkpt><trkpt lat="43.085820090712275" lon="11.544021178391167"><ele>270.0</ele><time>2026-04-11T15:45:33Z</time></trkpt><trkpt lat="43.08590426262726" lon="11.544030438660863"><ele>270.0</ele><time>2026-04-11T15:45:34Z</time></trkpt><trkpt lat="43.0859857757924" lon="11.544037085577939"><ele>270.0</ele><time>2026-04-11T15:45:35Z</time></trkpt><trkpt lat="43.08606240659644" lon="11.544048393131716"><ele>270.0</ele><time>2026-04-11T15:45:36Z</time></trkpt><trkpt lat="43.086139706868614" lon="11.544070783093629"><ele>270.0</ele><time>2026-04-11T15:45:37Z</time></trkpt><trkpt lat="43.08621488484791" lon="11.544065000887144"><ele>270.0</ele><time>2026-04-11T15:45:38Z</time></trkpt><trkpt lat="43.0862805710944" lon="11.54410670545947"><ele>270.0</ele><time>2026-04-11T15:45:39Z</time></trkpt><trkpt lat="43.08635476899098" lon="11.544136669816016"><ele>270.0</ele><time>2026-04-11T15:45:40Z</time></trkpt><trkpt lat="43.086426203515835" lon="11.544176152126347"><ele>270.0</ele><time>2026-04-11T15:45:41Z</time></trkpt><trkpt lat="43.086490866865915" lon="11.544215502555799"><ele>270.0</ele><time>2026-04-11T15:45:42Z</time></trkpt><trkpt lat="43.086558539461286" lon="11.544261218679926"><ele>270.0</ele><time>2026-04-11T15:45:43Z</time></trkpt><trkpt lat="43.08663767393341" lon="11.544295125711416"><ele>270.0</ele><time>2026-04-11T15:45:44Z</time></trkpt><trkpt lat="43.086703450157785" lon="11.54434304687078"><ele>270.0</ele><time>2026-04-11T15:45:45Z</time></trkpt><trkpt lat="43.08676294176956" lon="11.5444052008073"><ele>270.0</ele><time>2026-04-11T15:45:46Z</time></trkpt><trkpt lat="43.08682453102133" lon="11.54445771367277"><ele>270.1666666666667</ele><time>2026-04-11T15:45:47Z</time></trkpt><trkpt lat="43.08687954222001" lon="11.544505477991677"><ele>270.3333333333333</ele><time>2026-04-11T15:45:48Z</time></trkpt><trkpt lat="43.0869296553932" lon="11.544577200280466"><ele>270.5</ele><time>2026-04-11T15:45:49Z</time></trkpt><trkpt lat="43.08698028298935" lon="11.544635844612083"><ele>270.66666666666663</ele><time>2026-04-11T15:45:50Z</time></trkpt><trkpt lat="43.08707312458203" lon="11.544707136543698"><ele>270.8333333333333</ele><time>2026-04-11T15:45:52Z</time></trkpt><trkpt lat="43.08712302713076" lon="11.544799237907345"><ele>271.0</ele><time>2026-04-11T15:45:54Z</time></trkpt><trkpt lat="43.087092097562106" lon="11.54492077653867"><ele>271.0</ele><time>2026-04-11T15:45:55Z</time></trkpt><trkpt lat="43.08706464608459" lon="11.545005628839297"><ele>271.0</ele><time>2026-04-11T15:45:56Z</time></trkpt><trkpt lat="43.086992607558685" lon="11.545157008296929"><ele>271.0</ele><time>2026-04-11T15:45:58Z</time></trkpt><trkpt lat="43.086960166098834" lon="11.545244984400357"><ele>271.0</ele><time>2026-04-11T15:45:59Z</time></trkpt><trkpt lat="43.086927678876" lon="11.545338845058888"><ele>271.0</ele><time>2026-04-11T15:46:00Z</time></trkpt><trkpt lat="43.08689375061652" lon="11.545438748620512"><ele>271.0</ele><time>2026-04-11T15:46:01Z</time></trkpt><trkpt lat="43.086861764494934" lon="11.545540456258106"><ele>270.3333333333333</ele><time>2026-04-11T15:46:02Z</time></trkpt><trkpt lat="43.08683161476175" lon="11.545641703415434"><ele>269.66666666666663</ele><time>2026-04-11T15:46:03Z</time></trkpt><trkpt lat="43.086802527581234" lon="11.545744268780874"><ele>269.0</ele><time>2026-04-11T15:46:04Z</time></trkpt><trkpt lat="43.08677192715495" lon="11.54585730127051"><ele>268.3333333333333</ele><time>2026-04-11T15:46:05Z</time></trkpt><trkpt lat="43.08674258754271" lon="11.545974170168924"><ele>267.6666666666667</ele><time>2026-04-11T15:46:06Z</time></trkpt><trkpt lat="43.08671535692273" lon="11.546090550724822"><ele>267.0</ele><time>2026-04-11T15:46:07Z</time></trkpt><trkpt lat="43.086690239021024" lon="11.54620887157941"><ele>266.8333333333333</ele><time>2026-04-11T15:46:08Z</time></trkpt><trkpt lat="43.08666515763271" lon="11.546327436557466"><ele>266.6666666666667</ele><time>2026-04-11T15:46:09Z</time></trkpt><trkpt lat="43.086641390336354" lon="11.546440219702065"><ele>266.5</ele><time>2026-04-11T15:46:10Z</time></trkpt><trkpt lat="43.08661451181083" lon="11.546549369069464"><ele>266.33333333333337</ele><time>2026-04-11T15:46:11Z</time></trkpt><trkpt lat="43.086588252639714" lon="11.546652109379936"><ele>266.1666666666667</ele><time>2026-04-11T15:46:12Z</time></trkpt><trkpt lat="43.08656434732464" lon="11.546746471114037"><ele>266.0</ele><time>2026-04-11T15:46:13Z</time></trkpt><trkpt lat="43.086540826076885" lon="11.546848589121632"><ele>264.83333333333337</ele><time>2026-04-11T15:46:14Z</time></trkpt><trkpt lat="43.08651766183841" lon="11.546954632794227"><ele>263.6666666666667</ele><time>2026-04-11T15:46:15Z</time></trkpt><trkpt lat="43.086493125838984" lon="11.547066956181832"><ele>262.5</ele><time>2026-04-11T15:46:16Z</time></trkpt><trkpt lat="43.08646905016069" lon="11.547178119449683"><ele>261.3333333333333</ele><time>2026-04-11T15:46:17Z</time></trkpt><trkpt lat="43.08644508188103" lon="11.54729139302385"><ele>260.16666666666663</ele><time>2026-04-11T15:46:18Z</time></trkpt><trkpt lat="43.08642158327535" lon="11.547402446957795"><ele>259.0</ele><time>2026-04-11T15:46:19Z</time></trkpt><trkpt lat="43.086398740120885" lon="11.547510403183473"><ele>258.8333333333333</ele><time>2026-04-11T15:46:20Z</time></trkpt><trkpt lat="43.08637745287708" lon="11.54761813126087"><ele>258.66666666666663</ele><time>2026-04-11T15:46:21Z</time></trkpt><trkpt lat="43.08635964748267" lon="11.54771463315466"><ele>258.5</ele><time>2026-04-11T15:46:22Z</time></trkpt><trkpt lat="43.086344018326834" lon="11.547799340241998"><ele>258.3333333333333</ele><time>2026-04-11T15:46:23Z</time></trkpt><trkpt lat="43.086328218083544" lon="11.547884974573085"><ele>258.1666666666667</ele><time>2026-04-11T15:46:24Z</time></trkpt><trkpt lat="43.08631247066518" lon="11.547970321462836"><ele>258.0</ele><time>2026-04-11T15:46:25Z</time></trkpt><trkpt lat="43.08627731588081" lon="11.548123107521251"><ele>258.0</ele><time>2026-04-11T15:46:27Z</time></trkpt><trkpt lat="43.08623796055724" lon="11.548244731824965"><ele>258.0</ele><time>2026-04-11T15:46:29Z</time></trkpt><trkpt lat="43.086198606718476" lon="11.54836459641894"><ele>258.0</ele><time>2026-04-11T15:46:31Z</time></trkpt><trkpt lat="43.08615729904657" lon="11.548487033144806"><ele>258.0</ele><time>2026-04-11T15:46:33Z</time></trkpt><trkpt lat="43.08612058835198" lon="11.548609012688686"><ele>258.0</ele><time>2026-04-11T15:46:35Z</time></trkpt><trkpt lat="43.086076193369884" lon="11.548755616490176"><ele>258.0</ele><time>2026-04-11T15:46:37Z</time></trkpt><trkpt lat="43.086052457550565" lon="11.548901747450552"><ele>258.0</ele><time>2026-04-11T15:46:39Z</time></trkpt><trkpt lat="43.08601821569644" lon="11.549043868680494"><ele>258.0</ele><time>2026-04-11T15:46:41Z</time></trkpt><trkpt lat="43.085973608134736" lon="11.549183007889084"><ele>258.0</ele><time>2026-04-11T15:46:43Z</time></trkpt><trkpt lat="43.08596088286591" lon="11.549287944117177"><ele>258.0</ele><time>2026-04-11T15:46:45Z</time></trkpt><trkpt lat="43.08590818584705" lon="11.549345071530697"><ele>255.66666666666669</ele><time>2026-04-11T15:46:48Z</time></trkpt><trkpt lat="43.085710252287576" lon="11.549224408261182"><ele>253.33333333333334</ele><time>2026-04-11T15:46:53Z</time></trkpt><trkpt lat="43.08560811413432" lon="11.549154638397566"><ele>251.0</ele><time>2026-04-11T15:46:55Z</time></trkpt><trkpt lat="43.0854975762426" lon="11.549067982840818"><ele>251.0</ele><time>2026-04-11T15:46:57Z</time></trkpt><trkpt lat="43.08541124243039" lon="11.548983875191363"><ele>251.0</ele><time>2026-04-11T15:46:59Z</time></trkpt><trkpt lat="43.08526616335341" lon="11.549152945315534"><ele>251.0</ele><time>2026-04-11T15:47:03Z</time></trkpt><trkpt lat="43.085223093244586" lon="11.549258971705715"><ele>251.0</ele><time>2026-04-11T15:47:05Z</time></trkpt><trkpt lat="43.085181960611436" lon="11.549334083555994"><ele>250.99999999999997</ele><time>2026-04-11T15:47:08Z</time></trkpt><trkpt lat="43.08511412244655" lon="11.549328540248053"><ele>251.0</ele><time>2026-04-11T15:47:34Z</time></trkpt><trkpt lat="43.085056163762" lon="11.549283625919056"><ele>250.99999999999997</ele><time>2026-04-11T15:48:01Z</time></trkpt><trkpt lat="43.08494823319508" lon="11.54930517509096"><ele>250.99999999999997</ele><time>2026-04-11T15:52:31Z</time></trkpt><trkpt lat="43.08501874632568" lon="11.549293487747889"><ele>251.0</ele><time>2026-04-11T15:53:30Z</time></trkpt><trkpt lat="43.08504739853842" lon="11.5492137060745"><ele>250.99999999999997</ele><time>2026-04-11T15:53:36Z</time></trkpt><trkpt lat="43.08508188422281" lon="11.549295455091565"><ele>250.99999999999997</ele><time>2026-04-11T15:57:56Z</time></trkpt><trkpt lat="43.08513793250585" lon="11.5493419609476"><ele>250.99999999999997</ele><time>2026-04-11T15:58:06Z</time></trkpt><trkpt lat="43.085201137287434" lon="11.549335744884951"><ele>251.0</ele><time>2026-04-11T15:58:14Z</time></trkpt><trkpt lat="43.08515180792277" lon="11.549434452773744"><ele>250.99999999999997</ele><time>2026-04-11T15:58:34Z</time></trkpt><trkpt lat="43.08512979777033" lon="11.54953072474423"><ele>250.99999999999997</ele><time>2026-04-11T15:58:37Z</time></trkpt><trkpt lat="43.0851520211232" lon="11.54944629681348"><ele>251.0</ele><time>2026-04-11T15:58:40Z</time></trkpt><trkpt lat="43.08517964699296" lon="11.549362574042187"><ele>250.99999999999997</ele><time>2026-04-11T15:58:43Z</time></trkpt><trkpt lat="43.08524369983016" lon="11.549312421658351"><ele>250.99999999999997</ele><time>2026-04-11T15:59:34Z</time></trkpt><trkpt lat="43.08525915375411" lon="11.549219400915232"><ele>250.99999999999997</ele><time>2026-04-11T15:59:40Z</time></trkpt><trkpt lat="43.08529725236551" lon="11.54914849505824"><ele>251.0</ele><time>2026-04-11T15:59:44Z</time></trkpt><trkpt lat="43.08533109859419" lon="11.549063076033233"><ele>250.99999999999997</ele><time>2026-04-11T15:59:47Z</time></trkpt><trkpt lat="43.08539121433974" lon="11.549016118030035"><ele>250.99999999999997</ele><time>2026-04-11T16:00:01Z</time></trkpt><trkpt lat="43.085455596886675" lon="11.549053412549668"><ele>251.0</ele><time>2026-04-11T16:00:08Z</time></trkpt><trkpt lat="43.08552164770482" lon="11.54911761969832"><ele>250.99999999999997</ele><time>2026-04-11T16:00:12Z</time></trkpt><trkpt lat="43.08557400353515" lon="11.549165691542674"><ele>250.99999999999997</ele><time>2026-04-11T16:00:15Z</time></trkpt><trkpt lat="43.08564448044668" lon="11.549232673807927"><ele>250.99999999999997</ele><time>2026-04-11T16:00:19Z</time></trkpt><trkpt lat="43.08571462545977" lon="11.549278228682498"><ele>251.0</ele><time>2026-04-11T16:00:23Z</time></trkpt><trkpt lat="43.085775808050045" lon="11.54933100288632"><ele>250.99999999999997</ele><time>2026-04-11T16:00:26Z</time></trkpt><trkpt lat="43.0858405579755" lon="11.54935257619678"><ele>250.99999999999997</ele><time>2026-04-11T16:00:29Z</time></trkpt><trkpt lat="43.08589485186708" lon="11.549414511611744"><ele>251.0</ele><time>2026-04-11T16:00:33Z</time></trkpt><trkpt lat="43.085858785775955" lon="11.549485954193376"><ele>250.99999999999997</ele><time>2026-04-11T16:00:38Z</time></trkpt><trkpt lat="43.08583870394658" lon="11.549580892368562"><ele>250.99999999999997</ele><time>2026-04-11T16:00:41Z</time></trkpt><trkpt lat="43.085806376997496" lon="11.549660643242047"><ele>250.8</ele><time>2026-04-11T16:00:43Z</time></trkpt><trkpt lat="43.08575172579412" lon="11.549752374850298"><ele>250.60000000000002</ele><time>2026-04-11T16:00:45Z</time></trkpt><trkpt lat="43.085688776138404" lon="11.54985581325262"><ele>250.4</ele><time>2026-04-11T16:00:47Z</time></trkpt><trkpt lat="43.08561452365799" lon="11.549986489637616"><ele>250.2</ele><time>2026-04-11T16:00:49Z</time></trkpt><trkpt lat="43.0855749200715" lon="11.55006619609942"><ele>250.0</ele><time>2026-04-11T16:00:50Z</time></trkpt><trkpt lat="43.08549452911104" lon="11.550199837384328"><ele>249.99999999999997</ele><time>2026-04-11T16:00:52Z</time></trkpt><trkpt lat="43.085450102832205" lon="11.550268987661761"><ele>250.0</ele><time>2026-04-11T16:00:53Z</time></trkpt><trkpt lat="43.0853691506049" lon="11.550397658442716"><ele>250.0</ele><time>2026-04-11T16:00:55Z</time></trkpt><trkpt lat="43.0853222490593" lon="11.550462440755464"><ele>250.0</ele><time>2026-04-11T16:00:56Z</time></trkpt><trkpt lat="43.08528235863709" lon="11.550537270722016"><ele>249.99999999999997</ele><time>2026-04-11T16:00:57Z</time></trkpt><trkpt lat="43.08519595134043" lon="11.550642880296294"><ele>250.0</ele><time>2026-04-11T16:00:59Z</time></trkpt><trkpt lat="43.085162570464675" lon="11.550719248088193"><ele>249.6</ele><time>2026-04-11T16:01:00Z</time></trkpt><trkpt lat="43.08507419007192" lon="11.550830897540651"><ele>249.2</ele><time>2026-04-11T16:01:02Z</time></trkpt><trkpt lat="43.08502863024921" lon="11.550905721429762"><ele>248.8</ele><time>2026-04-11T16:01:03Z</time></trkpt><trkpt lat="43.08495080573842" lon="11.55101211437193"><ele>248.4</ele><time>2026-04-11T16:01:05Z</time></trkpt><trkpt lat="43.08486780964223" lon="11.551120294817416"><ele>248.0</ele><time>2026-04-11T16:01:07Z</time></trkpt><trkpt lat="43.08478416825905" lon="11.55123109396933"><ele>247.60000000000002</ele><time>2026-04-11T16:01:09Z</time></trkpt><trkpt lat="43.084706909088254" lon="11.551356033606728"><ele>247.20000000000002</ele><time>2026-04-11T16:01:11Z</time></trkpt><trkpt lat="43.08466441230574" lon="11.551421176441181"><ele>246.8</ele><time>2026-04-11T16:01:12Z</time></trkpt><trkpt lat="43.084569953545405" lon="11.551541233242391"><ele>246.4</ele><time>2026-04-11T16:01:14Z</time></trkpt><trkpt lat="43.08448271713475" lon="11.55166631697882"><ele>246.0</ele><time>2026-04-11T16:01:16Z</time></trkpt><trkpt lat="43.08440233438232" lon="11.551776594113656"><ele>246.0</ele><time>2026-04-11T16:01:18Z</time></trkpt><trkpt lat="43.08433437297644" lon="11.551881537420346"><ele>246.00000000000003</ele><time>2026-04-11T16:01:20Z</time></trkpt><trkpt lat="43.084267247005435" lon="11.551986890431492"><ele>246.00000000000003</ele><time>2026-04-11T16:01:22Z</time></trkpt><trkpt lat="43.08420949319485" lon="11.552091185097874"><ele>246.0</ele><time>2026-04-11T16:01:24Z</time></trkpt><trkpt lat="43.08415855994527" lon="11.552187595587515"><ele>246.0</ele><time>2026-04-11T16:01:26Z</time></trkpt><trkpt lat="43.0841107795599" lon="11.552290130275491"><ele>245.4</ele><time>2026-04-11T16:01:28Z</time></trkpt><trkpt lat="43.08405445778976" lon="11.552392211573816"><ele>244.8</ele><time>2026-04-11T16:01:30Z</time></trkpt><trkpt lat="43.08400327000184" lon="11.55250515008728"><ele>244.20000000000002</ele><time>2026-04-11T16:01:32Z</time></trkpt><trkpt lat="43.08395177965512" lon="11.552626854549906"><ele>243.60000000000002</ele><time>2026-04-11T16:01:34Z</time></trkpt><trkpt lat="43.08390444168267" lon="11.552763433964762"><ele>243.0</ele><time>2026-04-11T16:01:36Z</time></trkpt><trkpt lat="43.083873626139834" lon="11.552916959317335"><ele>243.0</ele><time>2026-04-11T16:01:38Z</time></trkpt><trkpt lat="43.08384584344798" lon="11.553073161381452"><ele>243.0</ele><time>2026-04-11T16:01:40Z</time></trkpt><trkpt lat="43.083823610377195" lon="11.5532224434375"><ele>243.0</ele><time>2026-04-11T16:01:42Z</time></trkpt><trkpt lat="43.08379270490154" lon="11.553358288267468"><ele>243.0</ele><time>2026-04-11T16:01:44Z</time></trkpt><trkpt lat="43.083770358778516" lon="11.553503832170628"><ele>243.0</ele><time>2026-04-11T16:01:46Z</time></trkpt><trkpt lat="43.08374844109744" lon="11.553645052371692"><ele>243.60000000000002</ele><time>2026-04-11T16:01:48Z</time></trkpt><trkpt lat="43.08372783414109" lon="11.553783569340892"><ele>244.20000000000002</ele><time>2026-04-11T16:01:50Z</time></trkpt><trkpt lat="43.083707260673144" lon="11.553913708319033"><ele>244.8</ele><time>2026-04-11T16:01:52Z</time></trkpt><trkpt lat="43.08368713310498" lon="11.554035799881563"><ele>245.4</ele><time>2026-04-11T16:01:54Z</time></trkpt><trkpt lat="43.08367193052035" lon="11.554155380729249"><ele>246.0</ele><time>2026-04-11T16:01:56Z</time></trkpt><trkpt lat="43.083655932591284" lon="11.554254864686476"><ele>246.00000000000003</ele><time>2026-04-11T16:01:58Z</time></trkpt><trkpt lat="43.08364416960652" lon="11.554346845471423"><ele>246.0</ele><time>2026-04-11T16:02:00Z</time></trkpt><trkpt lat="43.08362983083933" lon="11.554438338267419"><ele>246.00000000000003</ele><time>2026-04-11T16:02:02Z</time></trkpt><trkpt lat="43.08360961131563" lon="11.554525822251772"><ele>246.00000000000003</ele><time>2026-04-11T16:02:04Z</time></trkpt><trkpt lat="43.08360236038034" lon="11.554624453459825"><ele>246.0</ele><time>2026-04-11T16:02:06Z</time></trkpt><trkpt lat="43.083589740313805" lon="11.554714719665542"><ele>246.00000000000003</ele><time>2026-04-11T16:02:08Z</time></trkpt><trkpt lat="43.08357255726099" lon="11.554799234142203"><ele>246.00000000000003</ele><time>2026-04-11T16:02:10Z</time></trkpt><trkpt lat="43.083550456548345" lon="11.554909545447021"><ele>246.83333333333334</ele><time>2026-04-11T16:02:13Z</time></trkpt><trkpt lat="43.08352360166125" lon="11.555020127526156"><ele>247.66666666666669</ele><time>2026-04-11T16:02:16Z</time></trkpt><trkpt lat="43.083510924811335" lon="11.555132993989952"><ele>248.5</ele><time>2026-04-11T16:02:19Z</time></trkpt><trkpt lat="43.08350121923243" lon="11.555242294166108"><ele>249.33333333333334</ele><time>2026-04-11T16:02:22Z</time></trkpt><trkpt lat="43.08348316743751" lon="11.555354781118204"><ele>250.16666666666669</ele><time>2026-04-11T16:02:25Z</time></trkpt><trkpt lat="43.08347612379753" lon="11.555468045898836"><ele>251.0</ele><time>2026-04-11T16:02:28Z</time></trkpt><trkpt lat="43.08346207183462" lon="11.555581196148184"><ele>251.66666666666669</ele><time>2026-04-11T16:02:31Z</time></trkpt><trkpt lat="43.0834596891336" lon="11.55569011609029"><ele>252.33333333333334</ele><time>2026-04-11T16:02:34Z</time></trkpt><trkpt lat="43.083451665651" lon="11.555794780517967"><ele>253.0</ele><time>2026-04-11T16:02:37Z</time></trkpt><trkpt lat="43.083467096795516" lon="11.555902503126486"><ele>253.66666666666669</ele><time>2026-04-11T16:02:40Z</time></trkpt><trkpt lat="43.08349421995315" lon="11.556010054979136"><ele>254.33333333333334</ele><time>2026-04-11T16:02:43Z</time></trkpt><trkpt lat="43.083545506220084" lon="11.556107111237186"><ele>255.0</ele><time>2026-04-11T16:02:46Z</time></trkpt><trkpt lat="43.0836088276772" lon="11.5561822591442"><ele>255.0</ele><time>2026-04-11T16:02:49Z</time></trkpt><trkpt lat="43.083679593534434" lon="11.556236720568249"><ele>255.0</ele><time>2026-04-11T16:02:52Z</time></trkpt><trkpt lat="43.08375667665764" lon="11.556269467196831"><ele>255.0</ele><time>2026-04-11T16:02:55Z</time></trkpt><trkpt lat="43.08384025226341" lon="11.556288376699303"><ele>255.0</ele><time>2026-04-11T16:02:58Z</time></trkpt><trkpt lat="43.083913941738096" lon="11.556324802983253"><ele>255.0</ele><time>2026-04-11T16:03:01Z</time></trkpt><trkpt lat="43.08397289686629" lon="11.556359298538828"><ele>255.0</ele><time>2026-04-11T16:03:03Z</time></trkpt><trkpt lat="43.084043742631614" lon="11.556414995051458"><ele>256.6666666666667</ele><time>2026-04-11T16:03:06Z</time></trkpt><trkpt lat="43.084133394475636" lon="11.55645639155834"><ele>258.3333333333333</ele><time>2026-04-11T16:03:09Z</time></trkpt><trkpt lat="43.08420749690305" lon="11.556529124719637"><ele>260.0</ele><time>2026-04-11T16:03:12Z</time></trkpt><trkpt lat="43.08425689869508" lon="11.556583618637676"><ele>261.66666666666663</ele><time>2026-04-11T16:03:14Z</time></trkpt><trkpt lat="43.084319578978736" lon="11.556670133775746"><ele>263.3333333333333</ele><time>2026-04-11T16:03:17Z</time></trkpt><trkpt lat="43.08438534760963" lon="11.556755657694547"><ele>265.0</ele><time>2026-04-11T16:03:20Z</time></trkpt><trkpt lat="43.084443088574865" lon="11.556837354352142"><ele>265.0</ele><time>2026-04-11T16:03:23Z</time></trkpt><trkpt lat="43.08448399142196" lon="11.55693317950424"><ele>265.0</ele><time>2026-04-11T16:03:26Z</time></trkpt><trkpt lat="43.08451647083864" lon="11.55704800831835"><ele>265.0</ele><time>2026-04-11T16:03:29Z</time></trkpt><trkpt lat="43.084537386144355" lon="11.557160354453359"><ele>265.0</ele><time>2026-04-11T16:03:32Z</time></trkpt><trkpt lat="43.084546619891" lon="11.557275562263689"><ele>265.0</ele><time>2026-04-11T16:03:35Z</time></trkpt><trkpt lat="43.08456117647546" lon="11.557386869618144"><ele>265.0</ele><time>2026-04-11T16:03:38Z</time></trkpt><trkpt lat="43.08457262489446" lon="11.557492236689528"><ele>266.3333333333333</ele><time>2026-04-11T16:03:41Z</time></trkpt><trkpt lat="43.08456713769985" lon="11.557606822282068"><ele>267.66666666666663</ele><time>2026-04-11T16:03:44Z</time></trkpt><trkpt lat="43.084558530928874" lon="11.55771799864394"><ele>269.0</ele><time>2026-04-11T16:03:47Z</time></trkpt><trkpt lat="43.084544885641435" lon="11.557827604332061"><ele>270.3333333333333</ele><time>2026-04-11T16:03:50Z</time></trkpt><trkpt lat="43.08451697090067" lon="11.557937499543785"><ele>271.6666666666667</ele><time>2026-04-11T16:03:53Z</time></trkpt><trkpt lat="43.08448418844736" lon="11.558035530876287"><ele>273.0</ele><time>2026-04-11T16:03:56Z</time></trkpt><trkpt lat="43.084456986170316" lon="11.558142313410324"><ele>273.7142857142857</ele><time>2026-04-11T16:03:59Z</time></trkpt><trkpt lat="43.084426781300515" lon="11.558246140543801"><ele>274.42857142857144</ele><time>2026-04-11T16:04:02Z</time></trkpt><trkpt lat="43.084393825072034" lon="11.558337202451323"><ele>275.1428571428571</ele><time>2026-04-11T16:04:05Z</time></trkpt><trkpt lat="43.08437194648917" lon="11.558436676260328"><ele>275.8571428571429</ele><time>2026-04-11T16:04:08Z</time></trkpt><trkpt lat="43.08435064269739" lon="11.558529635914734"><ele>276.57142857142856</ele><time>2026-04-11T16:04:11Z</time></trkpt><trkpt lat="43.08433850787394" lon="11.558620741486415"><ele>277.2857142857143</ele><time>2026-04-11T16:04:14Z</time></trkpt><trkpt lat="43.08432407591597" lon="11.558718033639797"><ele>278.0</ele><time>2026-04-11T16:04:17Z</time></trkpt><trkpt lat="43.08433759872181" lon="11.558827404491362"><ele>278.42857142857144</ele><time>2026-04-11T16:04:20Z</time></trkpt><trkpt lat="43.08435591558298" lon="11.55893248031233"><ele>278.8571428571429</ele><time>2026-04-11T16:04:23Z</time></trkpt><trkpt lat="43.08437588600047" lon="11.559029355759245"><ele>279.28571428571433</ele><time>2026-04-11T16:04:26Z</time></trkpt><trkpt lat="43.08440792685332" lon="11.55912118572247"><ele>279.7142857142857</ele><time>2026-04-11T16:04:29Z</time></trkpt><trkpt lat="43.084464472798736" lon="11.559189960494404"><ele>280.14285714285717</ele><time>2026-04-11T16:04:32Z</time></trkpt><trkpt lat="43.08453056025879" lon="11.559225163512929"><ele>280.5714285714286</ele><time>2026-04-11T16:04:35Z</time></trkpt><trkpt lat="43.084601482788194" lon="11.559247180444261"><ele>281.0</ele><time>2026-04-11T16:04:38Z</time></trkpt><trkpt lat="43.0846822738118" lon="11.559275876737413"><ele>281.00000000000006</ele><time>2026-04-11T16:04:41Z</time></trkpt><trkpt lat="43.08474702912295" lon="11.559324574900364"><ele>281.0</ele><time>2026-04-11T16:04:44Z</time></trkpt><trkpt lat="43.084793066534395" lon="11.559405103695893"><ele>281.0</ele><time>2026-04-11T16:04:47Z</time></trkpt><trkpt lat="43.08482224758973" lon="11.559496011662587"><ele>281.0</ele><time>2026-04-11T16:04:50Z</time></trkpt><trkpt lat="43.08482648438261" lon="11.55958983980023"><ele>281.0</ele><time>2026-04-11T16:04:53Z</time></trkpt><trkpt lat="43.084799623820246" lon="11.55968395669082"><ele>281.00000000000006</ele><time>2026-04-11T16:04:56Z</time></trkpt><trkpt lat="43.084783383342256" lon="11.55977050552216"><ele>281.0</ele><time>2026-04-11T16:04:59Z</time></trkpt><trkpt lat="43.08476982632703" lon="11.5598692719347"><ele>281.0</ele><time>2026-04-11T16:05:03Z</time></trkpt><trkpt lat="43.084781525230966" lon="11.559968164266904"><ele>281.0</ele><time>2026-04-11T16:05:06Z</time></trkpt><trkpt lat="43.08481584357682" lon="11.560057244804764"><ele>281.0</ele><time>2026-04-11T16:05:09Z</time></trkpt><trkpt lat="43.084868316346096" lon="11.560131145739739"><ele>281.0</ele><time>2026-04-11T16:05:12Z</time></trkpt><trkpt lat="43.08492508003536" lon="11.560201345821614"><ele>281.0</ele><time>2026-04-11T16:05:15Z</time></trkpt><trkpt lat="43.084987784949284" lon="11.56027218160278"><ele>281.0</ele><time>2026-04-11T16:05:18Z</time></trkpt><trkpt lat="43.08503928825665" lon="11.560346713709082"><ele>282.6666666666667</ele><time>2026-04-11T16:05:21Z</time></trkpt><trkpt lat="43.085079801827106" lon="11.560441736874372"><ele>284.33333333333337</ele><time>2026-04-11T16:05:24Z</time></trkpt><trkpt lat="43.08510070594434" lon="11.560546229385293"><ele>286.0</ele><time>2026-04-11T16:05:27Z</time></trkpt><trkpt lat="43.085095422187955" lon="11.56066294635334"><ele>287.6666666666667</ele><time>2026-04-11T16:05:30Z</time></trkpt><trkpt lat="43.08505871678111" lon="11.56076616176781"><ele>289.3333333333333</ele><time>2026-04-11T16:05:34Z</time></trkpt><trkpt lat="43.08500004441644" lon="11.560833220790407"><ele>291.0</ele><time>2026-04-11T16:05:37Z</time></trkpt><trkpt lat="43.08494479173713" lon="11.560896441527017"><ele>291.2857142857143</ele><time>2026-04-11T16:05:40Z</time></trkpt><trkpt lat="43.08488922379872" lon="11.560944505421118"><ele>291.57142857142856</ele><time>2026-04-11T16:05:43Z</time></trkpt><trkpt lat="43.08483723239118" lon="11.561000077864687"><ele>291.85714285714283</ele><time>2026-04-11T16:05:46Z</time></trkpt><trkpt lat="43.08480187004108" lon="11.561079200672728"><ele>292.1428571428571</ele><time>2026-04-11T16:05:49Z</time></trkpt><trkpt lat="43.08478234725215" lon="11.561175375307629"><ele>292.42857142857144</ele><time>2026-04-11T16:05:52Z</time></trkpt><trkpt lat="43.08478295501851" lon="11.561265613839792"><ele>292.71428571428567</ele><time>2026-04-11T16:05:55Z</time></trkpt><trkpt lat="43.084815703249944" lon="11.56136745622511"><ele>293.0</ele><time>2026-04-11T16:05:59Z</time></trkpt><trkpt lat="43.084853219928995" lon="11.561463772883394"><ele>293.71428571428567</ele><time>2026-04-11T16:06:03Z</time></trkpt><trkpt lat="43.084878584432474" lon="11.561552563083449"><ele>294.42857142857144</ele><time>2026-04-11T16:06:06Z</time></trkpt><trkpt lat="43.08490926834009" lon="11.561634814442494"><ele>295.1428571428571</ele><time>2026-04-11T16:06:09Z</time></trkpt><trkpt lat="43.084939412232984" lon="11.561722724096121"><ele>295.85714285714283</ele><time>2026-04-11T16:06:12Z</time></trkpt><trkpt lat="43.08497272875571" lon="11.561808586351727"><ele>296.57142857142856</ele><time>2026-04-11T16:06:15Z</time></trkpt><trkpt lat="43.08500375373182" lon="11.56189558978155"><ele>297.2857142857143</ele><time>2026-04-11T16:06:18Z</time></trkpt><trkpt lat="43.08503615830992" lon="11.56198504766101"><ele>298.0</ele><time>2026-04-11T16:06:21Z</time></trkpt><trkpt lat="43.085072028941546" lon="11.562079607096798"><ele>298.42857142857144</ele><time>2026-04-11T16:06:24Z</time></trkpt><trkpt lat="43.08509032446226" lon="11.562182054276827"><ele>298.85714285714283</ele><time>2026-04-11T16:06:27Z</time></trkpt><trkpt lat="43.08509910180734" lon="11.562281239957723"><ele>299.2857142857143</ele><time>2026-04-11T16:06:30Z</time></trkpt><trkpt lat="43.0850882239095" lon="11.562379008099496"><ele>299.7142857142857</ele><time>2026-04-11T16:06:33Z</time></trkpt><trkpt lat="43.08506709913617" lon="11.562476714961033"><ele>300.1428571428571</ele><time>2026-04-11T16:06:36Z</time></trkpt><trkpt lat="43.08503145555712" lon="11.562567287969387"><ele>300.57142857142856</ele><time>2026-04-11T16:06:39Z</time></trkpt><trkpt lat="43.0849869328169" lon="11.562644137884302"><ele>301.0</ele><time>2026-04-11T16:06:42Z</time></trkpt><trkpt lat="43.08493032030484" lon="11.562711522785584"><ele>300.8333333333333</ele><time>2026-04-11T16:06:45Z</time></trkpt><trkpt lat="43.084874671366826" lon="11.562770341013314"><ele>300.66666666666663</ele><time>2026-04-11T16:06:48Z</time></trkpt><trkpt lat="43.084801889408396" lon="11.56281422469152"><ele>300.5</ele><time>2026-04-11T16:06:51Z</time></trkpt><trkpt lat="43.08472684098694" lon="11.562839807468553"><ele>300.3333333333333</ele><time>2026-04-11T16:06:54Z</time></trkpt><trkpt lat="43.084647218730495" lon="11.562854219326667"><ele>300.1666666666667</ele><time>2026-04-11T16:06:57Z</time></trkpt><trkpt lat="43.08456853782132" lon="11.562860120100865"><ele>300.0</ele><time>2026-04-11T16:07:00Z</time></trkpt><trkpt lat="43.08449509506053" lon="11.562869050364942"><ele>299.99999999999994</ele><time>2026-04-11T16:07:03Z</time></trkpt><trkpt lat="43.08441997748191" lon="11.562872503999355"><ele>300.0</ele><time>2026-04-11T16:07:06Z</time></trkpt><trkpt lat="43.08434034489521" lon="11.562875010428938"><ele>300.0</ele><time>2026-04-11T16:07:09Z</time></trkpt><trkpt lat="43.084261266168745" lon="11.562882823911249"><ele>300.0</ele><time>2026-04-11T16:07:12Z</time></trkpt><trkpt lat="43.08419033748522" lon="11.562893463042379"><ele>300.0</ele><time>2026-04-11T16:07:14Z</time></trkpt><trkpt lat="43.084123246036825" lon="11.562909059220056"><ele>299.99999999999994</ele><time>2026-04-11T16:07:16Z</time></trkpt><trkpt lat="43.08406137813528" lon="11.56292597233084"><ele>300.0</ele><time>2026-04-11T16:07:18Z</time></trkpt><trkpt lat="43.08399538359272" lon="11.562945298107945"><ele>300.1666666666667</ele><time>2026-04-11T16:07:20Z</time></trkpt><trkpt lat="43.08392729608998" lon="11.562963242056474"><ele>300.3333333333333</ele><time>2026-04-11T16:07:22Z</time></trkpt><trkpt lat="43.08383961824682" lon="11.563007460094909"><ele>300.5</ele><time>2026-04-11T16:07:25Z</time></trkpt><trkpt lat="43.0837800928833" lon="11.56304072417663"><ele>300.66666666666663</ele><time>2026-04-11T16:07:27Z</time></trkpt><trkpt lat="43.08369845636601" lon="11.563090739455305"><ele>300.8333333333333</ele><time>2026-04-11T16:07:30Z</time></trkpt><trkpt lat="43.08363030234137" lon="11.563125888175657"><ele>301.0</ele><time>2026-04-11T16:07:33Z</time></trkpt><trkpt lat="43.08360348778431" lon="11.56324692354301"><ele>301.0</ele><time>2026-04-11T16:09:51Z</time></trkpt><trkpt lat="43.08352660135665" lon="11.563325741907763"><ele>301.0</ele><time>2026-04-11T16:09:53Z</time></trkpt><trkpt lat="43.08345216199383" lon="11.563426871982234"><ele>301.0</ele><time>2026-04-11T16:09:55Z</time></trkpt><trkpt lat="43.08338242269141" lon="11.563555961568152"><ele>301.0</ele><time>2026-04-11T16:09:57Z</time></trkpt><trkpt lat="43.08331412159777" lon="11.563685543063807"><ele>301.0</ele><time>2026-04-11T16:09:59Z</time></trkpt><trkpt lat="43.08324482388307" lon="11.563827802866653"><ele>301.0</ele><time>2026-04-11T16:10:01Z</time></trkpt><trkpt lat="43.083178017049214" lon="11.563969203823486"><ele>301.0</ele><time>2026-04-11T16:10:03Z</time></trkpt><trkpt lat="43.08314711458188" lon="11.564046339847764"><ele>301.0</ele><time>2026-04-11T16:10:04Z</time></trkpt><trkpt lat="43.083115320257846" lon="11.564124438366441"><ele>301.0</ele><time>2026-04-11T16:10:05Z</time></trkpt><trkpt lat="43.083085660003114" lon="11.564202882348019"><ele>301.0</ele><time>2026-04-11T16:10:06Z</time></trkpt><trkpt lat="43.08305927937729" lon="11.564282700416246"><ele>301.0</ele><time>2026-04-11T16:10:07Z</time></trkpt><trkpt lat="43.0830130390628" lon="11.564429173326513"><ele>302.2</ele><time>2026-04-11T16:10:09Z</time></trkpt><trkpt lat="43.082965741364845" lon="11.564562004483985"><ele>303.40000000000003</ele><time>2026-04-11T16:10:11Z</time></trkpt><trkpt lat="43.082917368238036" lon="11.564691523675902"><ele>304.6</ele><time>2026-04-11T16:10:13Z</time></trkpt><trkpt lat="43.082875191969826" lon="11.564821719079223"><ele>305.8</ele><time>2026-04-11T16:10:15Z</time></trkpt><trkpt lat="43.08282653210546" lon="11.564940413095039"><ele>307.0</ele><time>2026-04-11T16:10:17Z</time></trkpt><trkpt lat="43.08278427083212" lon="11.565049681620504"><ele>307.0</ele><time>2026-04-11T16:10:19Z</time></trkpt><trkpt lat="43.08274361193652" lon="11.565157096754916"><ele>307.0</ele><time>2026-04-11T16:10:21Z</time></trkpt><trkpt lat="43.08269479360154" lon="11.56524634504243"><ele>307.0</ele><time>2026-04-11T16:10:23Z</time></trkpt><trkpt lat="43.08264628312378" lon="11.565335879873212"><ele>307.0</ele><time>2026-04-11T16:10:25Z</time></trkpt><trkpt lat="43.08259751240016" lon="11.565418965973826"><ele>307.0</ele><time>2026-04-11T16:10:27Z</time></trkpt><trkpt lat="43.082547410127184" lon="11.565495442584536"><ele>307.0</ele><time>2026-04-11T16:10:29Z</time></trkpt><trkpt lat="43.08250060403176" lon="11.565571833779385"><ele>307.2</ele><time>2026-04-11T16:10:31Z</time></trkpt><trkpt lat="43.082441075787045" lon="11.565668491691673"><ele>307.4</ele><time>2026-04-11T16:10:34Z</time></trkpt><trkpt lat="43.08236473674623" lon="11.565799689836044"><ele>307.6</ele><time>2026-04-11T16:10:38Z</time></trkpt><trkpt lat="43.0823026834086" lon="11.565886839514524"><ele>307.8</ele><time>2026-04-11T16:10:41Z</time></trkpt><trkpt lat="43.082241063036385" lon="11.56597967676061"><ele>308.0</ele><time>2026-04-11T16:10:44Z</time></trkpt><trkpt lat="43.082181406103416" lon="11.566070396606847"><ele>308.0</ele><time>2026-04-11T16:10:47Z</time></trkpt><trkpt lat="43.082118921688995" lon="11.566156297120207"><ele>308.0</ele><time>2026-04-11T16:10:50Z</time></trkpt><trkpt lat="43.082062779548046" lon="11.56625390635096"><ele>308.0</ele><time>2026-04-11T16:10:53Z</time></trkpt><trkpt lat="43.08199378800433" lon="11.566334516301344"><ele>308.0</ele><time>2026-04-11T16:10:56Z</time></trkpt><trkpt lat="43.08193645563943" lon="11.5664366346"><ele>308.0</ele><time>2026-04-11T16:10:59Z</time></trkpt><trkpt lat="43.08188277382274" lon="11.566534235266047"><ele>309.83333333333337</ele><time>2026-04-11T16:11:02Z</time></trkpt><trkpt lat="43.08183819587991" lon="11.566617323933464"><ele>311.6666666666667</ele><time>2026-04-11T16:11:05Z</time></trkpt><trkpt lat="43.08178352693589" lon="11.566708020451124"><ele>313.5</ele><time>2026-04-11T16:11:08Z</time></trkpt><trkpt lat="43.08173870274913" lon="11.566799963538548"><ele>315.3333333333333</ele><time>2026-04-11T16:11:11Z</time></trkpt><trkpt lat="43.08170424861572" lon="11.566906155874333"><ele>317.16666666666663</ele><time>2026-04-11T16:11:14Z</time></trkpt><trkpt lat="43.08166664436899" lon="11.567017794501147"><ele>319.0</ele><time>2026-04-11T16:11:17Z</time></trkpt><trkpt lat="43.08164422665031" lon="11.56713967734316"><ele>320.5</ele><time>2026-04-11T16:11:20Z</time></trkpt><trkpt lat="43.08162441496032" lon="11.567223621704949"><ele>322.0</ele><time>2026-04-11T16:11:22Z</time></trkpt><trkpt lat="43.08159298962535" lon="11.567341480902122"><ele>323.5</ele><time>2026-04-11T16:11:25Z</time></trkpt><trkpt lat="43.081565439569985" lon="11.567466732537968"><ele>325.0</ele><time>2026-04-11T16:11:28Z</time></trkpt><trkpt lat="43.08155595009397" lon="11.567593520943616"><ele>326.5</ele><time>2026-04-11T16:11:31Z</time></trkpt><trkpt lat="43.08154724509074" lon="11.567712389049241"><ele>328.0</ele><time>2026-04-11T16:11:34Z</time></trkpt><trkpt lat="43.08154363824908" lon="11.567838168393303"><ele>325.0</ele><time>2026-04-11T16:11:37Z</time></trkpt><trkpt lat="43.08152897748282" lon="11.567936611457348"><ele>322.0</ele><time>2026-04-11T16:11:39Z</time></trkpt><trkpt lat="43.08152467300997" lon="11.56804121425822"><ele>319.0</ele><time>2026-04-11T16:11:41Z</time></trkpt><trkpt lat="43.081515255941774" lon="11.568141085185246"><ele>316.0</ele><time>2026-04-11T16:11:43Z</time></trkpt><trkpt lat="43.0815028397067" lon="11.568250559821887"><ele>313.0</ele><time>2026-04-11T16:11:45Z</time></trkpt><trkpt lat="43.081491275096084" lon="11.56835806160116"><ele>310.0</ele><time>2026-04-11T16:11:47Z</time></trkpt><trkpt lat="43.08147830176788" lon="11.568463421664983"><ele>310.0</ele><time>2026-04-11T16:11:49Z</time></trkpt><trkpt lat="43.08145976792635" lon="11.568569491831495"><ele>310.0</ele><time>2026-04-11T16:11:51Z</time></trkpt><trkpt lat="43.08144324840412" lon="11.568674536018033"><ele>310.0</ele><time>2026-04-11T16:11:53Z</time></trkpt><trkpt lat="43.08141871065347" lon="11.568788344771711"><ele>310.0</ele><time>2026-04-11T16:11:55Z</time></trkpt><trkpt lat="43.081389356051844" lon="11.56889934774061"><ele>310.0</ele><time>2026-04-11T16:11:57Z</time></trkpt><trkpt lat="43.08134825522669" lon="11.569006729772175"><ele>310.0</ele><time>2026-04-11T16:11:59Z</time></trkpt><trkpt lat="43.08131818199961" lon="11.569114641393647"><ele>311.8333333333333</ele><time>2026-04-11T16:12:01Z</time></trkpt><trkpt lat="43.08128434477149" lon="11.56921822115395"><ele>313.66666666666663</ele><time>2026-04-11T16:12:03Z</time></trkpt><trkpt lat="43.08123743790264" lon="11.569316182508349"><ele>315.5</ele><time>2026-04-11T16:12:05Z</time></trkpt><trkpt lat="43.081196995692764" lon="11.569414698436796"><ele>317.3333333333333</ele><time>2026-04-11T16:12:07Z</time></trkpt><trkpt lat="43.081163340989484" lon="11.56951757756454"><ele>319.1666666666667</ele><time>2026-04-11T16:12:09Z</time></trkpt><trkpt lat="43.08112358523671" lon="11.569618620822515"><ele>321.0</ele><time>2026-04-11T16:12:11Z</time></trkpt><trkpt lat="43.081088436410184" lon="11.56971416974399"><ele>322.1666666666667</ele><time>2026-04-11T16:12:13Z</time></trkpt><trkpt lat="43.08104427505474" lon="11.569807288108583"><ele>323.3333333333333</ele><time>2026-04-11T16:12:15Z</time></trkpt><trkpt lat="43.080995331705196" lon="11.569899157315291"><ele>324.5</ele><time>2026-04-11T16:12:17Z</time></trkpt><trkpt lat="43.080938846694806" lon="11.569989157992007"><ele>325.66666666666663</ele><time>2026-04-11T16:12:19Z</time></trkpt><trkpt lat="43.080884377528506" lon="11.570074482389662"><ele>326.8333333333333</ele><time>2026-04-11T16:12:21Z</time></trkpt><trkpt lat="43.08082029591113" lon="11.570146672725723"><ele>328.0</ele><time>2026-04-11T16:12:23Z</time></trkpt><trkpt lat="43.08074901583944" lon="11.570211571354708"><ele>327.99999999999994</ele><time>2026-04-11T16:12:25Z</time></trkpt><trkpt lat="43.08067122751789" lon="11.57026089129257"><ele>328.0</ele><time>2026-04-11T16:12:27Z</time></trkpt><trkpt lat="43.080597911721576" lon="11.570288919442039"><ele>328.0</ele><time>2026-04-11T16:12:29Z</time></trkpt><trkpt lat="43.08053089690361" lon="11.570307305170894"><ele>328.0</ele><time>2026-04-11T16:12:31Z</time></trkpt><trkpt lat="43.08046450235897" lon="11.5703222637312"><ele>328.0</ele><time>2026-04-11T16:12:33Z</time></trkpt><trkpt lat="43.08040086604588" lon="11.57033630302262"><ele>327.99999999999994</ele><time>2026-04-11T16:12:35Z</time></trkpt><trkpt lat="43.08032260658719" lon="11.570292319215449"><ele>328.0</ele><time>2026-04-11T16:12:37Z</time></trkpt><trkpt lat="43.08022596450351" lon="11.570235569486224"><ele>328.0</ele><time>2026-04-11T16:12:39Z</time></trkpt><trkpt lat="43.08011926406435" lon="11.57020613219239"><ele>328.0</ele><time>2026-04-11T16:12:41Z</time></trkpt><trkpt lat="43.080012486393" lon="11.570186031073261"><ele>328.0</ele><time>2026-04-11T16:12:43Z</time></trkpt><trkpt lat="43.079904217616246" lon="11.570158006642188"><ele>328.0</ele><time>2026-04-11T16:12:45Z</time></trkpt><trkpt lat="43.07979533934065" lon="11.570133887650888"><ele>328.0</ele><time>2026-04-11T16:12:47Z</time></trkpt><trkpt lat="43.07969076793591" lon="11.570105979383577"><ele>328.59999999999997</ele><time>2026-04-11T16:12:49Z</time></trkpt><trkpt lat="43.07958433454042" lon="11.570072692068626"><ele>329.2</ele><time>2026-04-11T16:12:51Z</time></trkpt><trkpt lat="43.07947864625646" lon="11.570046561463739"><ele>329.8</ele><time>2026-04-11T16:12:53Z</time></trkpt><trkpt lat="43.07937214416854" lon="11.57001361526071"><ele>330.4</ele><time>2026-04-11T16:12:55Z</time></trkpt><trkpt lat="43.0792591279744" lon="11.569974881281684"><ele>331.0</ele><time>2026-04-11T16:12:57Z</time></trkpt><trkpt lat="43.07914261933059" lon="11.569947203511715"><ele>331.20000000000005</ele><time>2026-04-11T16:12:59Z</time></trkpt><trkpt lat="43.079021145200215" lon="11.569919022623681"><ele>331.40000000000003</ele><time>2026-04-11T16:13:01Z</time></trkpt><trkpt lat="43.078898248033475" lon="11.569897683253968"><ele>331.6</ele><time>2026-04-11T16:13:03Z</time></trkpt><trkpt lat="43.07883551037138" lon="11.569886748394952"><ele>331.8</ele><time>2026-04-11T16:13:04Z</time></trkpt><trkpt lat="43.07871029256553" lon="11.569886202284579"><ele>332.0</ele><time>2026-04-11T16:13:06Z</time></trkpt><trkpt lat="43.078584613198124" lon="11.5699007300168"><ele>332.0</ele><time>2026-04-11T16:13:08Z</time></trkpt><trkpt lat="43.07852368321002" lon="11.569923343256034"><ele>332.0</ele><time>2026-04-11T16:13:09Z</time></trkpt><trkpt lat="43.07845979474575" lon="11.569955464895418"><ele>332.0</ele><time>2026-04-11T16:13:10Z</time></trkpt><trkpt lat="43.078396611611694" lon="11.569998432101801"><ele>332.0</ele><time>2026-04-11T16:13:11Z</time></trkpt><trkpt lat="43.07833141392597" lon="11.570042023325867"><ele>332.0</ele><time>2026-04-11T16:13:12Z</time></trkpt><trkpt lat="43.0782619092205" lon="11.570087240805895"><ele>332.0</ele><time>2026-04-11T16:13:13Z</time></trkpt><trkpt lat="43.07818934635267" lon="11.570131229639347"><ele>332.0</ele><time>2026-04-11T16:13:14Z</time></trkpt><trkpt lat="43.078111482279795" lon="11.570173903255954"><ele>331.8</ele><time>2026-04-11T16:13:15Z</time></trkpt><trkpt lat="43.07803077989127" lon="11.570217633580217"><ele>331.6</ele><time>2026-04-11T16:13:16Z</time></trkpt><trkpt lat="43.07795006255153" lon="11.57026974904641"><ele>331.40000000000003</ele><time>2026-04-11T16:13:17Z</time></trkpt><trkpt lat="43.077867406823096" lon="11.570325099687468"><ele>331.20000000000005</ele><time>2026-04-11T16:13:18Z</time></trkpt><trkpt lat="43.07778190597804" lon="11.570376652280862"><ele>331.0</ele><time>2026-04-11T16:13:19Z</time></trkpt><trkpt lat="43.0776923512744" lon="11.570420590210194"><ele>328.40000000000003</ele><time>2026-04-11T16:13:20Z</time></trkpt><trkpt lat="43.077602440931216" lon="11.570473721877415"><ele>325.8</ele><time>2026-04-11T16:13:21Z</time></trkpt><trkpt lat="43.07751316798839" lon="11.57053286157525"><ele>323.20000000000005</ele><time>2026-04-11T16:13:22Z</time></trkpt><trkpt lat="43.07742204975634" lon="11.57059431632712"><ele>320.6</ele><time>2026-04-11T16:13:23Z</time></trkpt><trkpt lat="43.077331212263914" lon="11.570659036279581"><ele>318.0</ele><time>2026-04-11T16:13:24Z</time></trkpt><trkpt lat="43.077241902394896" lon="11.57073430323764"><ele>318.0</ele><time>2026-04-11T16:13:25Z</time></trkpt><trkpt lat="43.077155355857826" lon="11.570813083664376"><ele>318.0</ele><time>2026-04-11T16:13:26Z</time></trkpt><trkpt lat="43.0770695944707" lon="11.570893746591867"><ele>318.0</ele><time>2026-04-11T16:13:27Z</time></trkpt><trkpt lat="43.07698768127791" lon="11.57097992304004"><ele>318.0</ele><time>2026-04-11T16:13:28Z</time></trkpt><trkpt lat="43.076913831223386" lon="11.571068370311753"><ele>318.0</ele><time>2026-04-11T16:13:29Z</time></trkpt><trkpt lat="43.07684035417455" lon="11.571156028430085"><ele>315.8</ele><time>2026-04-11T16:13:30Z</time></trkpt><trkpt lat="43.076755283191375" lon="11.571229809529394"><ele>313.6</ele><time>2026-04-11T16:13:31Z</time></trkpt><trkpt lat="43.07665691334496" lon="11.57126642340205"><ele>311.4</ele><time>2026-04-11T16:13:32Z</time></trkpt><trkpt lat="43.07655464757273" lon="11.57128089110883"><ele>309.2</ele><time>2026-04-11T16:13:33Z</time></trkpt><trkpt lat="43.07645289829933" lon="11.571269468790904"><ele>307.0</ele><time>2026-04-11T16:13:34Z</time></trkpt><trkpt lat="43.07635170427517" lon="11.571232784255505"><ele>306.6</ele><time>2026-04-11T16:13:35Z</time></trkpt><trkpt lat="43.07625963972361" lon="11.571154687651905"><ele>306.2</ele><time>2026-04-11T16:13:36Z</time></trkpt><trkpt lat="43.07617498420397" lon="11.571061594683618"><ele>305.8</ele><time>2026-04-11T16:13:37Z</time></trkpt><trkpt lat="43.07609855820367" lon="11.570961178185302"><ele>305.4</ele><time>2026-04-11T16:13:38Z</time></trkpt><trkpt lat="43.07602259767877" lon="11.570863088114724"><ele>305.0</ele><time>2026-04-11T16:13:39Z</time></trkpt><trkpt lat="43.07594205188633" lon="11.570770177759867"><ele>305.0</ele><time>2026-04-11T16:13:40Z</time></trkpt><trkpt lat="43.0758584444164" lon="11.570676545152875"><ele>305.0</ele><time>2026-04-11T16:13:41Z</time></trkpt><trkpt lat="43.07577611933993" lon="11.57058201926149"><ele>305.0</ele><time>2026-04-11T16:13:42Z</time></trkpt><trkpt lat="43.07569085890102" lon="11.570489962444054"><ele>305.0</ele><time>2026-04-11T16:13:43Z</time></trkpt><trkpt lat="43.075617024927865" lon="11.570408484926805"><ele>305.0</ele><time>2026-04-11T16:13:44Z</time></trkpt><trkpt lat="43.07555255402184" lon="11.570351339570218"><ele>305.4</ele><time>2026-04-11T16:13:45Z</time></trkpt><trkpt lat="43.07547223875364" lon="11.570328690927274"><ele>305.8</ele><time>2026-04-11T16:13:46Z</time></trkpt><trkpt lat="43.075385602305396" lon="11.570355769226543"><ele>306.2</ele><time>2026-04-11T16:13:47Z</time></trkpt><trkpt lat="43.07531657913282" lon="11.570431915108685"><ele>306.6</ele><time>2026-04-11T16:13:48Z</time></trkpt><trkpt lat="43.075275196228084" lon="11.57055133712232"><ele>307.0</ele><time>2026-04-11T16:13:49Z</time></trkpt><trkpt lat="43.07526308714738" lon="11.570689458799839"><ele>304.0</ele><time>2026-04-11T16:13:50Z</time></trkpt><trkpt lat="43.07527462279144" lon="11.570826224518397"><ele>301.0</ele><time>2026-04-11T16:13:51Z</time></trkpt><trkpt lat="43.075300800009984" lon="11.570965102237407"><ele>298.0</ele><time>2026-04-11T16:13:52Z</time></trkpt><trkpt lat="43.07534924657435" lon="11.571101615393932"><ele>295.0</ele><time>2026-04-11T16:13:53Z</time></trkpt><trkpt lat="43.075408360559" lon="11.571225334829123"><ele>292.0</ele><time>2026-04-11T16:13:54Z</time></trkpt><trkpt lat="43.07547241086689" lon="11.571343702113193"><ele>293.0</ele><time>2026-04-11T16:13:55Z</time></trkpt><trkpt lat="43.075547638734854" lon="11.57145758391666"><ele>294.0</ele><time>2026-04-11T16:13:56Z</time></trkpt><trkpt lat="43.07562614009889" lon="11.57156250487756"><ele>295.0</ele><time>2026-04-11T16:13:57Z</time></trkpt><trkpt lat="43.07570271189923" lon="11.57165812618124"><ele>296.0</ele><time>2026-04-11T16:13:58Z</time></trkpt><trkpt lat="43.075765298446555" lon="11.571768268623538"><ele>297.0</ele><time>2026-04-11T16:13:59Z</time></trkpt><trkpt lat="43.0758061971725" lon="11.571902600842243"><ele>294.6</ele><time>2026-04-11T16:14:00Z</time></trkpt><trkpt lat="43.075806323169" lon="11.572044338597518"><ele>292.2</ele><time>2026-04-11T16:14:01Z</time></trkpt><trkpt lat="43.075827317565206" lon="11.572178158627494"><ele>289.8</ele><time>2026-04-11T16:14:02Z</time></trkpt><trkpt lat="43.07583411125419" lon="11.572322150667736"><ele>287.4</ele><time>2026-04-11T16:14:03Z</time></trkpt><trkpt lat="43.07588225709317" lon="11.572462497628923"><ele>285.0</ele><time>2026-04-11T16:14:04Z</time></trkpt><trkpt lat="43.07596112958916" lon="11.572581145779004"><ele>285.0</ele><time>2026-04-11T16:14:05Z</time></trkpt><trkpt lat="43.076058223890804" lon="11.57267301572732"><ele>285.0</ele><time>2026-04-11T16:14:06Z</time></trkpt><trkpt lat="43.07616459564782" lon="11.57274475299365"><ele>285.0</ele><time>2026-04-11T16:14:07Z</time></trkpt><trkpt lat="43.07626787661443" lon="11.572800837922594"><ele>285.0</ele><time>2026-04-11T16:14:08Z</time></trkpt><trkpt lat="43.07635042800249" lon="11.572854456838542"><ele>285.0</ele><time>2026-04-11T16:14:09Z</time></trkpt><trkpt lat="43.0764248866744" lon="11.572905868516699"><ele>283.3333333333333</ele><time>2026-04-11T16:14:10Z</time></trkpt><trkpt lat="43.07648699847266" lon="11.572975599547558"><ele>281.6666666666667</ele><time>2026-04-11T16:14:11Z</time></trkpt><trkpt lat="43.07651813561639" lon="11.573073312875575"><ele>280.0</ele><time>2026-04-11T16:14:12Z</time></trkpt><trkpt lat="43.07651740537708" lon="11.573185349657876"><ele>278.33333333333337</ele><time>2026-04-11T16:14:13Z</time></trkpt><trkpt lat="43.0764800471589" lon="11.573294680649074"><ele>276.6666666666667</ele><time>2026-04-11T16:14:14Z</time></trkpt><trkpt lat="43.076403367541495" lon="11.57336773996497"><ele>275.0</ele><time>2026-04-11T16:14:15Z</time></trkpt><trkpt lat="43.07630641047742" lon="11.573396801661124"><ele>275.0</ele><time>2026-04-11T16:14:16Z</time></trkpt><trkpt lat="43.076211161954646" lon="11.573326716303747"><ele>275.0</ele><time>2026-04-11T16:14:17Z</time></trkpt><trkpt lat="43.0761257106177" lon="11.573270300113858"><ele>275.0</ele><time>2026-04-11T16:14:18Z</time></trkpt><trkpt lat="43.07603250362078" lon="11.573230040662086"><ele>275.0</ele><time>2026-04-11T16:14:19Z</time></trkpt><trkpt lat="43.07595457424641" lon="11.573153063721485"><ele>275.0</ele><time>2026-04-11T16:14:20Z</time></trkpt><trkpt lat="43.07588107877106" lon="11.57306867025205"><ele>275.0</ele><time>2026-04-11T16:14:21Z</time></trkpt><trkpt lat="43.07580381124951" lon="11.5729847889445"><ele>275.0</ele><time>2026-04-11T16:14:22Z</time></trkpt><trkpt lat="43.07573080503452" lon="11.572901732923118"><ele>275.0</ele><time>2026-04-11T16:14:23Z</time></trkpt><trkpt lat="43.07565341280679" lon="11.57282952642468"><ele>275.0</ele><time>2026-04-11T16:14:24Z</time></trkpt><trkpt lat="43.075564331001836" lon="11.572786097413367"><ele>275.0</ele><time>2026-04-11T16:14:25Z</time></trkpt><trkpt lat="43.075471391928" lon="11.57277626714622"><ele>274.33333333333337</ele><time>2026-04-11T16:14:26Z</time></trkpt><trkpt lat="43.0753903837788" lon="11.57279836618679"><ele>273.6666666666667</ele><time>2026-04-11T16:14:27Z</time></trkpt><trkpt lat="43.07532663177835" lon="11.572854505123246"><ele>273.0</ele><time>2026-04-11T16:14:28Z</time></trkpt><trkpt lat="43.07528895742239" lon="11.572950226668157"><ele>272.3333333333333</ele><time>2026-04-11T16:14:29Z</time></trkpt><trkpt lat="43.07528095998266" lon="11.57306453713333"><ele>271.66666666666663</ele><time>2026-04-11T16:14:30Z</time></trkpt><trkpt lat="43.075299210002854" lon="11.57318064570184"><ele>271.0</ele><time>2026-04-11T16:14:31Z</time></trkpt><trkpt lat="43.07533633620953" lon="11.573293058742774"><ele>270.2</ele><time>2026-04-11T16:14:32Z</time></trkpt><trkpt lat="43.07538324081439" lon="11.573400860554386"><ele>269.40000000000003</ele><time>2026-04-11T16:14:33Z</time></trkpt><trkpt lat="43.075390373219584" lon="11.573523153228228"><ele>268.6</ele><time>2026-04-11T16:14:34Z</time></trkpt><trkpt lat="43.07539089988616" lon="11.573635365511223"><ele>267.8</ele><time>2026-04-11T16:14:35Z</time></trkpt><trkpt lat="43.07533368308187" lon="11.573733476940085"><ele>267.0</ele><time>2026-04-11T16:14:36Z</time></trkpt><trkpt lat="43.075239881520474" lon="11.573770090470651"><ele>265.4</ele><time>2026-04-11T16:14:37Z</time></trkpt><trkpt lat="43.07515344501835" lon="11.573814223027236"><ele>263.79999999999995</ele><time>2026-04-11T16:14:38Z</time></trkpt><trkpt lat="43.075069942280656" lon="11.573864529900384"><ele>262.2</ele><time>2026-04-11T16:14:39Z</time></trkpt><trkpt lat="43.07497518616115" lon="11.573879033735517"><ele>260.59999999999997</ele><time>2026-04-11T16:14:40Z</time></trkpt><trkpt lat="43.074878556733225" lon="11.573886335401133"><ele>259.0</ele><time>2026-04-11T16:14:41Z</time></trkpt><trkpt lat="43.07477867756536" lon="11.573873323150234"><ele>258.8</ele><time>2026-04-11T16:14:42Z</time></trkpt><trkpt lat="43.07467828905652" lon="11.573856207309282"><ele>258.59999999999997</ele><time>2026-04-11T16:14:43Z</time></trkpt><trkpt lat="43.07457882940203" lon="11.573854227394364"><ele>258.4</ele><time>2026-04-11T16:14:44Z</time></trkpt><trkpt lat="43.07448041796467" lon="11.573887336820484"><ele>258.2</ele><time>2026-04-11T16:14:45Z</time></trkpt><trkpt lat="43.074376594798174" lon="11.573923199787908"><ele>258.0</ele><time>2026-04-11T16:14:46Z</time></trkpt><trkpt lat="43.07428529661635" lon="11.574021660658682"><ele>258.0</ele><time>2026-04-11T16:14:47Z</time></trkpt><trkpt lat="43.0742209721436" lon="11.574149137692427"><ele>258.0</ele><time>2026-04-11T16:14:48Z</time></trkpt><trkpt lat="43.074150627705905" lon="11.57426146426887"><ele>258.0</ele><time>2026-04-11T16:14:49Z</time></trkpt><trkpt lat="43.074080611724376" lon="11.57437746285447"><ele>258.0</ele><time>2026-04-11T16:14:50Z</time></trkpt><trkpt lat="43.07401251183191" lon="11.574498064616659"><ele>258.0</ele><time>2026-04-11T16:14:51Z</time></trkpt><trkpt lat="43.07394265791153" lon="11.57461656481468"><ele>257.2</ele><time>2026-04-11T16:14:52Z</time></trkpt><trkpt lat="43.07387733971754" lon="11.574739257502008"><ele>256.4</ele><time>2026-04-11T16:14:53Z</time></trkpt><trkpt lat="43.07381437574619" lon="11.574863412648158"><ele>255.59999999999997</ele><time>2026-04-11T16:14:54Z</time></trkpt><trkpt lat="43.073746719451265" lon="11.57498520646753"><ele>254.79999999999998</ele><time>2026-04-11T16:14:55Z</time></trkpt><trkpt lat="43.073704270632604" lon="11.575129401364743"><ele>254.0</ele><time>2026-04-11T16:14:56Z</time></trkpt><trkpt lat="43.07367109433334" lon="11.575273010395868"><ele>253.6</ele><time>2026-04-11T16:14:57Z</time></trkpt><trkpt lat="43.07363951646153" lon="11.575417946951191"><ele>253.2</ele><time>2026-04-11T16:14:58Z</time></trkpt><trkpt lat="43.07362774102271" lon="11.57556390689329"><ele>252.79999999999998</ele><time>2026-04-11T16:14:59Z</time></trkpt><trkpt lat="43.073610738708595" lon="11.57570912001234"><ele>252.39999999999998</ele><time>2026-04-11T16:15:00Z</time></trkpt><trkpt lat="43.0735906072983" lon="11.575849624065203"><ele>252.0</ele><time>2026-04-11T16:15:01Z</time></trkpt><trkpt lat="43.07357218704668" lon="11.575988900864457"><ele>252.0</ele><time>2026-04-11T16:15:02Z</time></trkpt><trkpt lat="43.07355531928921" lon="11.576127345251475"><ele>252.0</ele><time>2026-04-11T16:15:03Z</time></trkpt><trkpt lat="43.07354309790562" lon="11.57626310739152"><ele>252.0</ele><time>2026-04-11T16:15:04Z</time></trkpt><trkpt lat="43.073537591300244" lon="11.576402670762436"><ele>252.0</ele><time>2026-04-11T16:15:05Z</time></trkpt><trkpt lat="43.0735370683412" lon="11.576540901280643"><ele>252.0</ele><time>2026-04-11T16:15:06Z</time></trkpt><trkpt lat="43.07354208730492" lon="11.57668156996498"><ele>251.6</ele><time>2026-04-11T16:15:07Z</time></trkpt><trkpt lat="43.07355121962237" lon="11.576823103286536"><ele>251.2</ele><time>2026-04-11T16:15:08Z</time></trkpt><trkpt lat="43.073560990445536" lon="11.576965706347385"><ele>250.8</ele><time>2026-04-11T16:15:09Z</time></trkpt><trkpt lat="43.07356878842446" lon="11.577109930015352"><ele>250.4</ele><time>2026-04-11T16:15:10Z</time></trkpt><trkpt lat="43.07357606728893" lon="11.577255138936296"><ele>250.0</ele><time>2026-04-11T16:15:11Z</time></trkpt><trkpt lat="43.07358226035939" lon="11.577399980404511"><ele>249.8</ele><time>2026-04-11T16:15:12Z</time></trkpt><trkpt lat="43.07358031011076" lon="11.577544958258256"><ele>249.6</ele><time>2026-04-11T16:15:13Z</time></trkpt><trkpt lat="43.07357113921906" lon="11.57768600461599"><ele>249.39999999999998</ele><time>2026-04-11T16:15:14Z</time></trkpt><trkpt lat="43.073550234785124" lon="11.577824851891707"><ele>249.2</ele><time>2026-04-11T16:15:15Z</time></trkpt><trkpt lat="43.07352151274555" lon="11.577957941397171"><ele>249.0</ele><time>2026-04-11T16:15:16Z</time></trkpt><trkpt lat="43.07348449166585" lon="11.578082481518724"><ele>249.39999999999998</ele><time>2026-04-11T16:15:17Z</time></trkpt><trkpt lat="43.07343986708947" lon="11.578202121329877"><ele>249.79999999999998</ele><time>2026-04-11T16:15:18Z</time></trkpt><trkpt lat="43.07338893398329" lon="11.578315835738726"><ele>250.20000000000002</ele><time>2026-04-11T16:15:19Z</time></trkpt><trkpt lat="43.07332514465853" lon="11.578413942405515"><ele>250.60000000000002</ele><time>2026-04-11T16:15:20Z</time></trkpt><trkpt lat="43.073260617162155" lon="11.578506517615768"><ele>251.0</ele><time>2026-04-11T16:15:21Z</time></trkpt><trkpt lat="43.07319886754723" lon="11.578599481306101"><ele>251.33333333333334</ele><time>2026-04-11T16:15:22Z</time></trkpt><trkpt lat="43.07314787424731" lon="11.578695023842153"><ele>251.66666666666669</ele><time>2026-04-11T16:15:23Z</time></trkpt><trkpt lat="43.07309370243267" lon="11.578788424498535"><ele>252.0</ele><time>2026-04-11T16:15:24Z</time></trkpt><trkpt lat="43.073041190617246" lon="11.578881029857094"><ele>252.33333333333331</ele><time>2026-04-11T16:15:25Z</time></trkpt><trkpt lat="43.07298419604358" lon="11.578968288239599"><ele>252.66666666666666</ele><time>2026-04-11T16:15:26Z</time></trkpt><trkpt lat="43.07293647499868" lon="11.579066292464423"><ele>253.0</ele><time>2026-04-11T16:15:27Z</time></trkpt><trkpt lat="43.072885133395516" lon="11.579151822943622"><ele>252.99999999999997</ele><time>2026-04-11T16:15:28Z</time></trkpt><trkpt lat="43.07283344264168" lon="11.579241761248735"><ele>253.0</ele><time>2026-04-11T16:15:29Z</time></trkpt><trkpt lat="43.07278492486094" lon="11.579333161154699"><ele>253.0</ele><time>2026-04-11T16:15:30Z</time></trkpt><trkpt lat="43.0727388935121" lon="11.57941996862884"><ele>253.0</ele><time>2026-04-11T16:15:31Z</time></trkpt><trkpt lat="43.072688718316904" lon="11.579509803758452"><ele>252.99999999999997</ele><time>2026-04-11T16:15:32Z</time></trkpt><trkpt lat="43.07263823369076" lon="11.57958665704232"><ele>253.0</ele><time>2026-04-11T16:15:33Z</time></trkpt><trkpt lat="43.07258549502566" lon="11.579658968656751"><ele>253.14285714285717</ele><time>2026-04-11T16:15:34Z</time></trkpt><trkpt lat="43.07253441479329" lon="11.57973732837997"><ele>253.28571428571428</ele><time>2026-04-11T16:15:35Z</time></trkpt><trkpt lat="43.072480147753005" lon="11.57980635891718"><ele>253.42857142857144</ele><time>2026-04-11T16:15:36Z</time></trkpt><trkpt lat="43.07242436350448" lon="11.579868663313677"><ele>253.57142857142858</ele><time>2026-04-11T16:15:37Z</time></trkpt><trkpt lat="43.07237458254498" lon="11.579938129135634"><ele>253.71428571428572</ele><time>2026-04-11T16:15:38Z</time></trkpt><trkpt lat="43.07232242923459" lon="11.580002873926436"><ele>253.85714285714286</ele><time>2026-04-11T16:15:39Z</time></trkpt><trkpt lat="43.072270001153974" lon="11.580067911124713"><ele>254.0</ele><time>2026-04-11T16:15:40Z</time></trkpt><trkpt lat="43.07218168207987" lon="11.580184063783001"><ele>255.39999999999998</ele><time>2026-04-11T16:15:42Z</time></trkpt><trkpt lat="43.07210358938854" lon="11.580299156186271"><ele>256.79999999999995</ele><time>2026-04-11T16:15:44Z</time></trkpt><trkpt lat="43.07204501327087" lon="11.580414825340739"><ele>258.20000000000005</ele><time>2026-04-11T16:15:46Z</time></trkpt><trkpt lat="43.07201349067177" lon="11.58054219523786"><ele>259.6</ele><time>2026-04-11T16:15:48Z</time></trkpt><trkpt lat="43.07199300187969" lon="11.580652563598436"><ele>261.0</ele><time>2026-04-11T16:15:50Z</time></trkpt><trkpt lat="43.071973851688306" lon="11.580761566173315"><ele>261.3333333333333</ele><time>2026-04-11T16:15:53Z</time></trkpt><trkpt lat="43.07197728193849" lon="11.580920257576576"><ele>261.6666666666667</ele><time>2026-04-11T16:15:56Z</time></trkpt><trkpt lat="43.07198753974887" lon="11.581018122376047"><ele>262.0</ele><time>2026-04-11T16:15:58Z</time></trkpt><trkpt lat="43.07200266703303" lon="11.581104400449957"><ele>262.33333333333337</ele><time>2026-04-11T16:16:00Z</time></trkpt><trkpt lat="43.072036680117904" lon="11.581231505019476"><ele>262.6666666666667</ele><time>2026-04-11T16:16:03Z</time></trkpt><trkpt lat="43.07206187113271" lon="11.581318123450309"><ele>263.0</ele><time>2026-04-11T16:16:05Z</time></trkpt><trkpt lat="43.072089871143646" lon="11.581408041548048"><ele>263.83333333333337</ele><time>2026-04-11T16:16:07Z</time></trkpt><trkpt lat="43.07211805765794" lon="11.581507119339708"><ele>264.6666666666667</ele><time>2026-04-11T16:16:09Z</time></trkpt><trkpt lat="43.07214178412248" lon="11.581653624694367"><ele>265.5</ele><time>2026-04-11T16:16:12Z</time></trkpt><trkpt lat="43.07214092178904" lon="11.581748467519448"><ele>266.3333333333333</ele><time>2026-04-11T16:16:14Z</time></trkpt><trkpt lat="43.07210254352838" lon="11.581859594151808"><ele>267.16666666666663</ele><time>2026-04-11T16:16:17Z</time></trkpt><trkpt lat="43.07202825455283" lon="11.581924790604594"><ele>268.0</ele><time>2026-04-11T16:16:20Z</time></trkpt><trkpt lat="43.071961539454676" lon="11.58191198527575"><ele>268.0</ele><time>2026-04-11T16:16:23Z</time></trkpt><trkpt lat="43.07189830316063" lon="11.581861713769307"><ele>268.0</ele><time>2026-04-11T16:16:25Z</time></trkpt><trkpt lat="43.07184283174214" lon="11.581809720131472"><ele>268.0</ele><time>2026-04-11T16:16:28Z</time></trkpt><trkpt lat="43.071786521736676" lon="11.581763817464765"><ele>268.0</ele><time>2026-04-11T16:16:30Z</time></trkpt><trkpt lat="43.07172777208627" lon="11.581716651872554"><ele>268.0</ele><time>2026-04-11T16:16:32Z</time></trkpt><trkpt lat="43.07164964339584" lon="11.581639550870307"><ele>268.0</ele><time>2026-04-11T16:16:35Z</time></trkpt><trkpt lat="43.071579863727464" lon="11.58160137190766"><ele>268.0</ele><time>2026-04-11T16:16:38Z</time></trkpt><trkpt lat="43.07151451294582" lon="11.581562921323592"><ele>268.0</ele><time>2026-04-11T16:16:40Z</time></trkpt><trkpt lat="43.071456675748536" lon="11.581528323176046"><ele>268.0</ele><time>2026-04-11T16:16:42Z</time></trkpt><trkpt lat="43.071382725289055" lon="11.581482708192755"><ele>268.0</ele><time>2026-04-11T16:16:44Z</time></trkpt><trkpt lat="43.071320336953114" lon="11.581456568627981"><ele>268.0</ele><time>2026-04-11T16:16:46Z</time></trkpt><trkpt lat="43.07125148492361" lon="11.581394087230644"><ele>268.0</ele><time>2026-04-11T16:16:49Z</time></trkpt><trkpt lat="43.071185221640775" lon="11.581312696491764"><ele>268.0</ele><time>2026-04-11T16:16:51Z</time></trkpt><trkpt lat="43.07114594266646" lon="11.58123719657201"><ele>268.0</ele><time>2026-04-11T16:16:54Z</time></trkpt><trkpt lat="43.07106217901877" lon="11.58112010079996"><ele>268.0</ele><time>2026-04-11T16:16:57Z</time></trkpt><trkpt lat="43.07099934164937" lon="11.58102520731968"><ele>268.0</ele><time>2026-04-11T16:17:00Z</time></trkpt><trkpt lat="43.07094000558309" lon="11.580991124158734"><ele>268.0</ele><time>2026-04-11T16:17:02Z</time></trkpt><trkpt lat="43.07085334736615" lon="11.580995361965257"><ele>268.0</ele><time>2026-04-11T16:17:05Z</time></trkpt><trkpt lat="43.07078144293617" lon="11.58102026090124"><ele>268.0</ele><time>2026-04-11T16:17:08Z</time></trkpt><trkpt lat="43.07072301479137" lon="11.581074417417895"><ele>268.0</ele><time>2026-04-11T16:17:11Z</time></trkpt><trkpt lat="43.070680729569105" lon="11.581155520228558"><ele>269.16666666666663</ele><time>2026-04-11T16:17:14Z</time></trkpt><trkpt lat="43.070666516083094" lon="11.581259496091372"><ele>270.3333333333333</ele><time>2026-04-11T16:17:17Z</time></trkpt><trkpt lat="43.07066778128107" lon="11.581368986478417"><ele>271.5</ele><time>2026-04-11T16:17:20Z</time></trkpt><trkpt lat="43.07070967733919" lon="11.581475552100137"><ele>272.6666666666667</ele><time>2026-04-11T16:17:23Z</time></trkpt><trkpt lat="43.07075967972461" lon="11.581579844622585"><ele>273.83333333333337</ele><time>2026-04-11T16:17:26Z</time></trkpt><trkpt lat="43.070791301164746" lon="11.581654425632784"><ele>275.0</ele><time>2026-04-11T16:17:28Z</time></trkpt><trkpt lat="43.07082823595707" lon="11.58172926615697"><ele>275.0</ele><time>2026-04-11T16:17:30Z</time></trkpt><trkpt lat="43.07086576330877" lon="11.581800298608785"><ele>275.0</ele><time>2026-04-11T16:17:32Z</time></trkpt><trkpt lat="43.07091766821545" lon="11.581906666719288"><ele>275.0</ele><time>2026-04-11T16:17:35Z</time></trkpt><trkpt lat="43.07094778436808" lon="11.58198476873254"><ele>275.0</ele><time>2026-04-11T16:17:37Z</time></trkpt><trkpt lat="43.071001887376205" lon="11.582086344623177"><ele>275.0</ele><time>2026-04-11T16:17:40Z</time></trkpt><trkpt lat="43.07104360920984" lon="11.582193917780875"><ele>275.0</ele><time>2026-04-11T16:17:43Z</time></trkpt><trkpt lat="43.0710830480455" lon="11.582268364509757"><ele>276.33333333333337</ele><time>2026-04-11T16:17:45Z</time></trkpt><trkpt lat="43.07112420142251" lon="11.582385068195816"><ele>277.6666666666667</ele><time>2026-04-11T16:17:48Z</time></trkpt><trkpt lat="43.071141486459574" lon="11.582468829766743"><ele>279.0</ele><time>2026-04-11T16:17:50Z</time></trkpt><trkpt lat="43.07115972453682" lon="11.582585677961205"><ele>280.3333333333333</ele><time>2026-04-11T16:17:53Z</time></trkpt><trkpt lat="43.071172663759796" lon="11.58271039871999"><ele>281.66666666666663</ele><time>2026-04-11T16:17:56Z</time></trkpt><trkpt lat="43.071168313723824" lon="11.582826971022827"><ele>283.0</ele><time>2026-04-11T16:17:59Z</time></trkpt><trkpt lat="43.07116527588213" lon="11.582913236957532"><ele>283.3333333333333</ele><time>2026-04-11T16:18:01Z</time></trkpt><trkpt lat="43.071147782329426" lon="11.583036752056016"><ele>283.66666666666663</ele><time>2026-04-11T16:18:04Z</time></trkpt><trkpt lat="43.071120589426606" lon="11.583153337112549"><ele>284.0</ele><time>2026-04-11T16:18:07Z</time></trkpt><trkpt lat="43.07109827740936" lon="11.583267478365853"><ele>284.3333333333333</ele><time>2026-04-11T16:18:10Z</time></trkpt><trkpt lat="43.0710633003525" lon="11.583380901655277"><ele>284.6666666666667</ele><time>2026-04-11T16:18:13Z</time></trkpt><trkpt lat="43.07103467093389" lon="11.583488923781"><ele>285.0</ele><time>2026-04-11T16:18:16Z</time></trkpt><trkpt lat="43.07099818197406" lon="11.583590844653022"><ele>285.5</ele><time>2026-04-11T16:18:19Z</time></trkpt><trkpt lat="43.07096471999099" lon="11.583686763812018"><ele>286.0</ele><time>2026-04-11T16:18:22Z</time></trkpt><trkpt lat="43.07093120366142" lon="11.583790302822825"><ele>286.5</ele><time>2026-04-11T16:18:25Z</time></trkpt><trkpt lat="43.0708952381328" lon="11.583897737258896"><ele>287.0</ele><time>2026-04-11T16:18:28Z</time></trkpt><trkpt lat="43.07085819370238" lon="11.584000276976965"><ele>287.5</ele><time>2026-04-11T16:18:31Z</time></trkpt><trkpt lat="43.0708192158883" lon="11.584105212203356"><ele>288.0</ele><time>2026-04-11T16:18:34Z</time></trkpt><trkpt lat="43.07078780845171" lon="11.584203690331602"><ele>288.8333333333333</ele><time>2026-04-11T16:18:37Z</time></trkpt><trkpt lat="43.070750332543184" lon="11.58430576873008"><ele>289.6666666666667</ele><time>2026-04-11T16:18:40Z</time></trkpt><trkpt lat="43.07071610518435" lon="11.584405276202405"><ele>290.5</ele><time>2026-04-11T16:18:43Z</time></trkpt><trkpt lat="43.070685483986075" lon="11.584508973996298"><ele>291.33333333333337</ele><time>2026-04-11T16:18:46Z</time></trkpt><trkpt lat="43.07064971684893" lon="11.584616916995364"><ele>292.1666666666667</ele><time>2026-04-11T16:18:49Z</time></trkpt><trkpt lat="43.07061845723926" lon="11.58470728625956"><ele>293.0</ele><time>2026-04-11T16:18:52Z</time></trkpt><trkpt lat="43.07058399707189" lon="11.584814955325166"><ele>293.1666666666667</ele><time>2026-04-11T16:18:55Z</time></trkpt><trkpt lat="43.070552344133844" lon="11.584901189150939"><ele>293.33333333333337</ele><time>2026-04-11T16:18:57Z</time></trkpt><trkpt lat="43.070516194779714" lon="11.58501002428402"><ele>293.5</ele><time>2026-04-11T16:19:00Z</time></trkpt><trkpt lat="43.070477427533376" lon="11.585108923187411"><ele>293.6666666666667</ele><time>2026-04-11T16:19:03Z</time></trkpt><trkpt lat="43.07042790623647" lon="11.585188569969446"><ele>293.8333333333333</ele><time>2026-04-11T16:19:06Z</time></trkpt><trkpt lat="43.07035479476239" lon="11.585246724709169"><ele>294.0</ele><time>2026-04-11T16:19:09Z</time></trkpt><trkpt lat="43.0702677884777" lon="11.585275404094006"><ele>294.0</ele><time>2026-04-11T16:19:12Z</time></trkpt><trkpt lat="43.07018022691336" lon="11.585247306772173"><ele>294.0</ele><time>2026-04-11T16:19:15Z</time></trkpt><trkpt lat="43.07012233012227" lon="11.585204269327841"><ele>294.0</ele><time>2026-04-11T16:19:18Z</time></trkpt><trkpt lat="43.070040736961175" lon="11.585144337288162"><ele>294.0</ele><time>2026-04-11T16:19:21Z</time></trkpt><trkpt lat="43.06996436029253" lon="11.585090372762219"><ele>294.0</ele><time>2026-04-11T16:19:24Z</time></trkpt><trkpt lat="43.06988787539562" lon="11.58503881674132"><ele>294.0</ele><time>2026-04-11T16:19:27Z</time></trkpt><trkpt lat="43.069815801744035" lon="11.584984458095413"><ele>295.3333333333333</ele><time>2026-04-11T16:19:30Z</time></trkpt><trkpt lat="43.06974219221521" lon="11.584933313655437"><ele>296.6666666666667</ele><time>2026-04-11T16:19:33Z</time></trkpt><trkpt lat="43.069685199997174" lon="11.584890481043258"><ele>298.0</ele><time>2026-04-11T16:19:36Z</time></trkpt><trkpt lat="43.06960847525608" lon="11.584824230866532"><ele>299.33333333333337</ele><time>2026-04-11T16:19:39Z</time></trkpt><trkpt lat="43.06953883813311" lon="11.584772777428741"><ele>300.6666666666667</ele><time>2026-04-11T16:19:43Z</time></trkpt><trkpt lat="43.0694679749207" lon="11.58472267018994"><ele>302.0</ele><time>2026-04-11T16:19:46Z</time></trkpt><trkpt lat="43.06937762810441" lon="11.584655679190043"><ele>302.00000000000006</ele><time>2026-04-11T16:19:49Z</time></trkpt><trkpt lat="43.069321017951644" lon="11.584601199721694"><ele>302.0</ele><time>2026-04-11T16:19:52Z</time></trkpt><trkpt lat="43.06924699423334" lon="11.584548700366087"><ele>302.0</ele><time>2026-04-11T16:19:55Z</time></trkpt><trkpt lat="43.06918152086605" lon="11.584499563580005"><ele>302.0</ele><time>2026-04-11T16:19:58Z</time></trkpt><trkpt lat="43.06910940721524" lon="11.584448413687156"><ele>302.0</ele><time>2026-04-11T16:20:01Z</time></trkpt><trkpt lat="43.06904751834429" lon="11.584398836105965"><ele>302.00000000000006</ele><time>2026-04-11T16:20:03Z</time></trkpt><trkpt lat="43.06898984970869" lon="11.584356141825555"><ele>302.0</ele><time>2026-04-11T16:20:06Z</time></trkpt><trkpt lat="43.06892759650377" lon="11.58430809243899"><ele>301.8571428571429</ele><time>2026-04-11T16:20:08Z</time></trkpt><trkpt lat="43.068866998897796" lon="11.584263870836894"><ele>301.7142857142857</ele><time>2026-04-11T16:20:11Z</time></trkpt><trkpt lat="43.06880483627244" lon="11.584220718143158"><ele>301.57142857142856</ele><time>2026-04-11T16:20:13Z</time></trkpt><trkpt lat="43.06874545207248" lon="11.5841786845075"><ele>301.42857142857144</ele><time>2026-04-11T16:20:16Z</time></trkpt><trkpt lat="43.06868456245946" lon="11.58414287374477"><ele>301.2857142857143</ele><time>2026-04-11T16:20:18Z</time></trkpt><trkpt lat="43.06861275417885" lon="11.584127120275278"><ele>301.14285714285717</ele><time>2026-04-11T16:20:21Z</time></trkpt><trkpt lat="43.068542006789954" lon="11.58412806590623"><ele>301.0</ele><time>2026-04-11T16:20:23Z</time></trkpt><trkpt lat="43.0684681057965" lon="11.58413993322502"><ele>301.0</ele><time>2026-04-11T16:20:26Z</time></trkpt><trkpt lat="43.06839859605253" lon="11.58418713235819"><ele>301.0</ele><time>2026-04-11T16:20:29Z</time></trkpt><trkpt lat="43.06833362771158" lon="11.584237686445132"><ele>301.0</ele><time>2026-04-11T16:20:32Z</time></trkpt><trkpt lat="43.06827963659755" lon="11.584295942188984"><ele>301.0</ele><time>2026-04-11T16:20:35Z</time></trkpt><trkpt lat="43.06822598109909" lon="11.584356174981702"><ele>301.0</ele><time>2026-04-11T16:20:38Z</time></trkpt><trkpt lat="43.068169592019565" lon="11.584428134674631"><ele>301.0</ele><time>2026-04-11T16:20:41Z</time></trkpt><trkpt lat="43.068115336467855" lon="11.584509905843111"><ele>301.0</ele><time>2026-04-11T16:20:44Z</time></trkpt><trkpt lat="43.068072470244935" lon="11.584589475629729"><ele>300.66666666666663</ele><time>2026-04-11T16:20:46Z</time></trkpt><trkpt lat="43.06803680141174" lon="11.584691784941276"><ele>300.3333333333333</ele><time>2026-04-11T16:20:49Z</time></trkpt><trkpt lat="43.068010819431564" lon="11.584807972676375"><ele>300.0</ele><time>2026-04-11T16:20:52Z</time></trkpt><trkpt lat="43.06798915548622" lon="11.584931757532647"><ele>299.6666666666667</ele><time>2026-04-11T16:20:55Z</time></trkpt><trkpt lat="43.06798368563762" lon="11.585047261321321"><ele>299.33333333333337</ele><time>2026-04-11T16:20:58Z</time></trkpt><trkpt lat="43.06798000635953" lon="11.58516133279594"><ele>299.0</ele><time>2026-04-11T16:21:01Z</time></trkpt><trkpt lat="43.067969117834465" lon="11.585275556357383"><ele>300.33333333333337</ele><time>2026-04-11T16:21:04Z</time></trkpt><trkpt lat="43.06795668833505" lon="11.585390943159899"><ele>301.6666666666667</ele><time>2026-04-11T16:21:07Z</time></trkpt><trkpt lat="43.067953479602785" lon="11.585501336628814"><ele>303.0</ele><time>2026-04-11T16:21:10Z</time></trkpt><trkpt lat="43.06794960003361" lon="11.585618879227617"><ele>304.3333333333333</ele><time>2026-04-11T16:21:13Z</time></trkpt><trkpt lat="43.0679468929691" lon="11.585736073815573"><ele>305.66666666666663</ele><time>2026-04-11T16:21:16Z</time></trkpt><trkpt lat="43.06794287249949" lon="11.585847652519398"><ele>307.0</ele><time>2026-04-11T16:21:19Z</time></trkpt><trkpt lat="43.067928469185155" lon="11.585948157242765"><ele>307.0</ele><time>2026-04-11T16:21:22Z</time></trkpt><trkpt lat="43.06792902694132" lon="11.586038176720104"><ele>307.0</ele><time>2026-04-11T16:21:25Z</time></trkpt><trkpt lat="43.06792263303894" lon="11.586159022498219"><ele>307.0</ele><time>2026-04-11T16:21:28Z</time></trkpt><trkpt lat="43.0679155285216" lon="11.586263301389941"><ele>307.0</ele><time>2026-04-11T16:21:31Z</time></trkpt><trkpt lat="43.06791065282384" lon="11.586368039662197"><ele>307.0</ele><time>2026-04-11T16:21:34Z</time></trkpt><trkpt lat="43.06790018628813" lon="11.586477515579652"><ele>307.0</ele><time>2026-04-11T16:21:37Z</time></trkpt><trkpt lat="43.06788685038883" lon="11.586586990739278"><ele>308.3333333333333</ele><time>2026-04-11T16:21:40Z</time></trkpt><trkpt lat="43.0678651206279" lon="11.586699008742906"><ele>309.66666666666663</ele><time>2026-04-11T16:21:43Z</time></trkpt><trkpt lat="43.06783902956566" lon="11.586800398141458"><ele>311.0</ele><time>2026-04-11T16:21:46Z</time></trkpt><trkpt lat="43.067801767233874" lon="11.586894921829746"><ele>312.3333333333333</ele><time>2026-04-11T16:21:49Z</time></trkpt><trkpt lat="43.067767328329815" lon="11.586985525403003"><ele>313.6666666666667</ele><time>2026-04-11T16:21:52Z</time></trkpt><trkpt lat="43.06772871428359" lon="11.587077201051898"><ele>315.0</ele><time>2026-04-11T16:21:55Z</time></trkpt><trkpt lat="43.06768132662453" lon="11.587167518100225"><ele>315.1666666666667</ele><time>2026-04-11T16:21:58Z</time></trkpt><trkpt lat="43.06763530560155" lon="11.587260943133469"><ele>315.3333333333333</ele><time>2026-04-11T16:22:01Z</time></trkpt><trkpt lat="43.067584903261796" lon="11.587349698344662"><ele>315.5</ele><time>2026-04-11T16:22:04Z</time></trkpt><trkpt lat="43.067539205437875" lon="11.587441177032696"><ele>315.66666666666663</ele><time>2026-04-11T16:22:07Z</time></trkpt><trkpt lat="43.067491972819234" lon="11.587533457378175"><ele>315.8333333333333</ele><time>2026-04-11T16:22:10Z</time></trkpt><trkpt lat="43.06744889111705" lon="11.58762382095541"><ele>316.0</ele><time>2026-04-11T16:22:13Z</time></trkpt><trkpt lat="43.067399409737405" lon="11.587719016223236"><ele>316.0</ele><time>2026-04-11T16:22:16Z</time></trkpt><trkpt lat="43.06734460879364" lon="11.587810702513561"><ele>316.0</ele><time>2026-04-11T16:22:19Z</time></trkpt><trkpt lat="43.06729514844486" lon="11.587906486648198"><ele>316.0</ele><time>2026-04-11T16:22:22Z</time></trkpt><trkpt lat="43.06724533277728" lon="11.58800410582234"><ele>316.0</ele><time>2026-04-11T16:22:25Z</time></trkpt><trkpt lat="43.06719502947729" lon="11.58809429818122"><ele>316.0</ele><time>2026-04-11T16:22:28Z</time></trkpt><trkpt lat="43.06714319539071" lon="11.588188645588858"><ele>316.0</ele><time>2026-04-11T16:22:31Z</time></trkpt><trkpt lat="43.06709032184348" lon="11.58828471710483"><ele>316.8333333333333</ele><time>2026-04-11T16:22:34Z</time></trkpt><trkpt lat="43.067045017361586" lon="11.588379938429398"><ele>317.66666666666663</ele><time>2026-04-11T16:22:37Z</time></trkpt><trkpt lat="43.067007051025" lon="11.588452997448616"><ele>318.5</ele><time>2026-04-11T16:22:39Z</time></trkpt><trkpt lat="43.06696351236796" lon="11.588556306446304"><ele>319.3333333333333</ele><time>2026-04-11T16:22:42Z</time></trkpt><trkpt lat="43.0669114257131" lon="11.58866115124494"><ele>320.1666666666667</ele><time>2026-04-11T16:22:45Z</time></trkpt><trkpt lat="43.066871297352534" lon="11.58876100445212"><ele>321.0</ele><time>2026-04-11T16:22:48Z</time></trkpt><trkpt lat="43.066847337030815" lon="11.588845158702469"><ele>321.3333333333333</ele><time>2026-04-11T16:22:52Z</time></trkpt><trkpt lat="43.06682105390876" lon="11.588938408597166"><ele>321.6666666666667</ele><time>2026-04-11T16:22:55Z</time></trkpt><trkpt lat="43.06679125566844" lon="11.589038843381362"><ele>322.0</ele><time>2026-04-11T16:22:58Z</time></trkpt><trkpt lat="43.0667570827748" lon="11.589145973880932"><ele>322.33333333333337</ele><time>2026-04-11T16:23:01Z</time></trkpt><trkpt lat="43.066723894601694" lon="11.589255284126558"><ele>322.6666666666667</ele><time>2026-04-11T16:23:04Z</time></trkpt><trkpt lat="43.066693413762806" lon="11.589365109703259"><ele>323.0</ele><time>2026-04-11T16:23:07Z</time></trkpt><trkpt lat="43.0666592026474" lon="11.589484129707355"><ele>323.6666666666667</ele><time>2026-04-11T16:23:10Z</time></trkpt><trkpt lat="43.06662369464951" lon="11.589598835740151"><ele>324.33333333333337</ele><time>2026-04-11T16:23:13Z</time></trkpt><trkpt lat="43.066596936225686" lon="11.589717257896671"><ele>325.0</ele><time>2026-04-11T16:23:16Z</time></trkpt><trkpt lat="43.06656035064658" lon="11.58982738946164"><ele>325.6666666666667</ele><time>2026-04-11T16:23:19Z</time></trkpt><trkpt lat="43.066529663289565" lon="11.589934737788946"><ele>326.3333333333333</ele><time>2026-04-11T16:23:22Z</time></trkpt><trkpt lat="43.06649904880977" lon="11.590014849398797"><ele>327.0</ele><time>2026-04-11T16:23:24Z</time></trkpt><trkpt lat="43.06646074152749" lon="11.590104046635732"><ele>327.8333333333333</ele><time>2026-04-11T16:23:28Z</time></trkpt><trkpt lat="43.066418800299395" lon="11.590172230688852"><ele>328.6666666666667</ele><time>2026-04-11T16:23:30Z</time></trkpt><trkpt lat="43.066340621042" lon="11.590227708440008"><ele>329.5</ele><time>2026-04-11T16:23:33Z</time></trkpt><trkpt lat="43.066256037923516" lon="11.590245413015756"><ele>330.33333333333337</ele><time>2026-04-11T16:23:36Z</time></trkpt><trkpt lat="43.06616998187766" lon="11.59022918206421"><ele>331.1666666666667</ele><time>2026-04-11T16:23:39Z</time></trkpt><trkpt lat="43.06608322671333" lon="11.59020523760359"><ele>332.0</ele><time>2026-04-11T16:23:42Z</time></trkpt><trkpt lat="43.06601335179363" lon="11.590188141284578"><ele>332.0</ele><time>2026-04-11T16:23:45Z</time></trkpt><trkpt lat="43.065937437823415" lon="11.590166293699067"><ele>332.0</ele><time>2026-04-11T16:23:48Z</time></trkpt><trkpt lat="43.065867251494204" lon="11.590163569257191"><ele>332.0</ele><time>2026-04-11T16:23:51Z</time></trkpt><trkpt lat="43.0657941462189" lon="11.590160344332634"><ele>332.0</ele><time>2026-04-11T16:23:54Z</time></trkpt><trkpt lat="43.065724283349894" lon="11.59016393326223"><ele>332.0</ele><time>2026-04-11T16:23:57Z</time></trkpt><trkpt lat="43.06565708805913" lon="11.59019197644449"><ele>332.0</ele><time>2026-04-11T16:24:00Z</time></trkpt><trkpt lat="43.065587469096954" lon="11.590227908156729"><ele>332.0</ele><time>2026-04-11T16:24:03Z</time></trkpt><trkpt lat="43.06552597478749" lon="11.59027732910121"><ele>331.85714285714283</ele><time>2026-04-11T16:24:06Z</time></trkpt><trkpt lat="43.06545871530082" lon="11.590323231703522"><ele>331.7142857142857</ele><time>2026-04-11T16:24:09Z</time></trkpt><trkpt lat="43.06539486296208" lon="11.59036393577764"><ele>331.57142857142856</ele><time>2026-04-11T16:24:12Z</time></trkpt><trkpt lat="43.06532930542108" lon="11.590401567874247"><ele>331.42857142857144</ele><time>2026-04-11T16:24:15Z</time></trkpt><trkpt lat="43.065260688319654" lon="11.590447040546593"><ele>331.2857142857143</ele><time>2026-04-11T16:24:18Z</time></trkpt><trkpt lat="43.06519692190843" lon="11.590505149746988"><ele>331.14285714285717</ele><time>2026-04-11T16:24:21Z</time></trkpt><trkpt lat="43.06513744955091" lon="11.590568430817932"><ele>331.0</ele><time>2026-04-11T16:24:24Z</time></trkpt><trkpt lat="43.065075524284154" lon="11.590625285061122"><ele>330.8333333333333</ele><time>2026-04-11T16:24:27Z</time></trkpt><trkpt lat="43.06502613546511" lon="11.5906895716239"><ele>330.66666666666663</ele><time>2026-04-11T16:24:30Z</time></trkpt><trkpt lat="43.06497750098668" lon="11.590762964204965"><ele>330.5</ele><time>2026-04-11T16:24:33Z</time></trkpt><trkpt lat="43.06492476531451" lon="11.5908383897189"><ele>330.3333333333333</ele><time>2026-04-11T16:24:36Z</time></trkpt><trkpt lat="43.064872056973236" lon="11.590924957679132"><ele>330.1666666666667</ele><time>2026-04-11T16:24:39Z</time></trkpt><trkpt lat="43.06483761751844" lon="11.591019802254834"><ele>330.0</ele><time>2026-04-11T16:24:42Z</time></trkpt><trkpt lat="43.064802299040664" lon="11.591109939424879"><ele>330.8333333333333</ele><time>2026-04-11T16:24:45Z</time></trkpt><trkpt lat="43.06477691483486" lon="11.591204699878833"><ele>331.6666666666667</ele><time>2026-04-11T16:24:48Z</time></trkpt><trkpt lat="43.06476230839342" lon="11.591303708044547"><ele>332.5</ele><time>2026-04-11T16:24:51Z</time></trkpt><trkpt lat="43.06475688748541" lon="11.591407033109162"><ele>333.33333333333337</ele><time>2026-04-11T16:24:54Z</time></trkpt><trkpt lat="43.06474995727637" lon="11.59151062985621"><ele>334.1666666666667</ele><time>2026-04-11T16:24:57Z</time></trkpt><trkpt lat="43.06475663107602" lon="11.591614542994689"><ele>335.0</ele><time>2026-04-11T16:25:00Z</time></trkpt><trkpt lat="43.06476434934628" lon="11.591719360549417"><ele>334.99999999999994</ele><time>2026-04-11T16:25:03Z</time></trkpt><trkpt lat="43.064761020185266" lon="11.591816912420239"><ele>335.0</ele><time>2026-04-11T16:25:06Z</time></trkpt><trkpt lat="43.06477489298439" lon="11.591904143756294"><ele>335.0</ele><time>2026-04-11T16:25:09Z</time></trkpt><trkpt lat="43.06478119982542" lon="11.592003779632117"><ele>335.0</ele><time>2026-04-11T16:25:12Z</time></trkpt><trkpt lat="43.06478193907831" lon="11.592104025530233"><ele>335.0</ele><time>2026-04-11T16:25:15Z</time></trkpt><trkpt lat="43.064791442933895" lon="11.592208959799875"><ele>334.99999999999994</ele><time>2026-04-11T16:25:18Z</time></trkpt><trkpt lat="43.064790012334136" lon="11.592317543302192"><ele>335.0</ele><time>2026-04-11T16:25:21Z</time></trkpt><trkpt lat="43.064779118654" lon="11.592424373309871"><ele>336.0</ele><time>2026-04-11T16:25:24Z</time></trkpt><trkpt lat="43.064764263856254" lon="11.592527109133298"><ele>337.0</ele><time>2026-04-11T16:25:27Z</time></trkpt><trkpt lat="43.0647455873261" lon="11.592634269565583"><ele>338.0</ele><time>2026-04-11T16:25:30Z</time></trkpt><trkpt lat="43.06472497613085" lon="11.592730937380436"><ele>339.0</ele><time>2026-04-11T16:25:33Z</time></trkpt><trkpt lat="43.06470130392354" lon="11.59282913016304"><ele>340.0</ele><time>2026-04-11T16:25:36Z</time></trkpt><trkpt lat="43.06467233426909" lon="11.592920502641602"><ele>341.0</ele><time>2026-04-11T16:25:39Z</time></trkpt><trkpt lat="43.0646417980845" lon="11.593013620960242"><ele>342.1666666666667</ele><time>2026-04-11T16:25:42Z</time></trkpt><trkpt lat="43.064618067704295" lon="11.593106068290732"><ele>343.33333333333337</ele><time>2026-04-11T16:25:45Z</time></trkpt><trkpt lat="43.06459123143055" lon="11.593203036760546"><ele>344.5</ele><time>2026-04-11T16:25:48Z</time></trkpt><trkpt lat="43.064565852166666" lon="11.59330544512937"><ele>345.6666666666667</ele><time>2026-04-11T16:25:51Z</time></trkpt><trkpt lat="43.06454393742814" lon="11.593405093733631"><ele>346.8333333333333</ele><time>2026-04-11T16:25:54Z</time></trkpt><trkpt lat="43.064537315315576" lon="11.593493251009223"><ele>348.0</ele><time>2026-04-11T16:25:57Z</time></trkpt><trkpt lat="43.064509346578205" lon="11.593614678434717"><ele>349.1666666666667</ele><time>2026-04-11T16:26:00Z</time></trkpt><trkpt lat="43.064501577557195" lon="11.593711511979524"><ele>350.3333333333333</ele><time>2026-04-11T16:26:03Z</time></trkpt><trkpt lat="43.06448697300979" lon="11.593816426862954"><ele>351.5</ele><time>2026-04-11T16:26:06Z</time></trkpt><trkpt lat="43.064473258760714" lon="11.593922338252371"><ele>352.66666666666663</ele><time>2026-04-11T16:26:09Z</time></trkpt><trkpt lat="43.06446463360205" lon="11.594021666696284"><ele>353.8333333333333</ele><time>2026-04-11T16:26:12Z</time></trkpt><trkpt lat="43.06444644060856" lon="11.594123565506242"><ele>355.0</ele><time>2026-04-11T16:26:15Z</time></trkpt><trkpt lat="43.064436111675" lon="11.594226058595952"><ele>355.0</ele><time>2026-04-11T16:26:18Z</time></trkpt><trkpt lat="43.06442932156966" lon="11.59431388865624"><ele>355.0</ele><time>2026-04-11T16:26:21Z</time></trkpt><trkpt lat="43.06441633140013" lon="11.594417423636058"><ele>355.0</ele><time>2026-04-11T16:26:24Z</time></trkpt><trkpt lat="43.064393962718185" lon="11.594500600836682"><ele>355.0</ele><time>2026-04-11T16:26:26Z</time></trkpt><trkpt lat="43.06439035258019" lon="11.594620550527859"><ele>355.0</ele><time>2026-04-11T16:26:29Z</time></trkpt><trkpt lat="43.06437056447592" lon="11.594731975171037"><ele>355.0</ele><time>2026-04-11T16:26:32Z</time></trkpt><trkpt lat="43.06435351956136" lon="11.59484633141326"><ele>356.0</ele><time>2026-04-11T16:26:35Z</time></trkpt><trkpt lat="43.06434608347024" lon="11.594939742332006"><ele>357.0</ele><time>2026-04-11T16:26:39Z</time></trkpt><trkpt lat="43.064313674578756" lon="11.595050574872214"><ele>358.0</ele><time>2026-04-11T16:26:42Z</time></trkpt><trkpt lat="43.06428830146709" lon="11.59513220055491"><ele>359.0</ele><time>2026-04-11T16:26:44Z</time></trkpt><trkpt lat="43.064252112037764" lon="11.595239050100357"><ele>360.0</ele><time>2026-04-11T16:26:47Z</time></trkpt><trkpt lat="43.06421389040951" lon="11.595323182318184"><ele>361.0</ele><time>2026-04-11T16:26:51Z</time></trkpt><trkpt lat="43.06417279837429" lon="11.59540025134104"><ele>362.0</ele><time>2026-04-11T16:26:54Z</time></trkpt><trkpt lat="43.06412279387985" lon="11.595477788300096"><ele>362.6666666666667</ele><time>2026-04-11T16:26:57Z</time></trkpt><trkpt lat="43.064068394825306" lon="11.595546744432822"><ele>363.33333333333337</ele><time>2026-04-11T16:27:00Z</time></trkpt><trkpt lat="43.06402580528113" lon="11.595644997984737"><ele>364.0</ele><time>2026-04-11T16:27:04Z</time></trkpt><trkpt lat="43.06396685313512" lon="11.59571845850435"><ele>364.6666666666667</ele><time>2026-04-11T16:27:07Z</time></trkpt><trkpt lat="43.06391733241038" lon="11.595798738998866"><ele>365.3333333333333</ele><time>2026-04-11T16:27:11Z</time></trkpt><trkpt lat="43.063868831713776" lon="11.59587508057981"><ele>366.0</ele><time>2026-04-11T16:27:14Z</time></trkpt><trkpt lat="43.06382041936122" lon="11.595940318099476"><ele>366.0</ele><time>2026-04-11T16:27:18Z</time></trkpt><trkpt lat="43.06376949540557" lon="11.596028570347013"><ele>366.0</ele><time>2026-04-11T16:27:21Z</time></trkpt><trkpt lat="43.06372041665021" lon="11.596091630145253"><ele>366.0</ele><time>2026-04-11T16:27:24Z</time></trkpt><trkpt lat="43.063671032307575" lon="11.596155869219071"><ele>366.0</ele><time>2026-04-11T16:27:27Z</time></trkpt><trkpt lat="43.06362521002924" lon="11.596228001019174"><ele>366.0</ele><time>2026-04-11T16:27:30Z</time></trkpt><trkpt lat="43.06357049937977" lon="11.596289008898104"><ele>366.0</ele><time>2026-04-11T16:27:33Z</time></trkpt><trkpt lat="43.06352029550103" lon="11.596362799411668"><ele>366.0</ele><time>2026-04-11T16:27:36Z</time></trkpt><trkpt lat="43.06347046809714" lon="11.596438983437002"><ele>367.5</ele><time>2026-04-11T16:27:39Z</time></trkpt><trkpt lat="43.063407045959366" lon="11.596513071249113"><ele>369.0</ele><time>2026-04-11T16:27:42Z</time></trkpt><trkpt lat="43.063349380152424" lon="11.596582345804917"><ele>370.5</ele><time>2026-04-11T16:27:46Z</time></trkpt><trkpt lat="43.06328955392663" lon="11.59664439824651"><ele>372.0</ele><time>2026-04-11T16:27:49Z</time></trkpt><trkpt lat="43.063218011645205" lon="11.596716668029554"><ele>373.5</ele><time>2026-04-11T16:27:52Z</time></trkpt><trkpt lat="43.06315889031936" lon="11.596777366882346"><ele>375.0</ele><time>2026-04-11T16:27:56Z</time></trkpt><trkpt lat="43.06308897835162" lon="11.596844805302288"><ele>375.0</ele><time>2026-04-11T16:27:59Z</time></trkpt><trkpt lat="43.06302583824041" lon="11.59689627162398"><ele>375.0</ele><time>2026-04-11T16:28:03Z</time></trkpt><trkpt lat="43.06295254097904" lon="11.596953989082794"><ele>375.0</ele><time>2026-04-11T16:28:07Z</time></trkpt><trkpt lat="43.06287275119479" lon="11.597006337151946"><ele>375.0</ele><time>2026-04-11T16:28:10Z</time></trkpt><trkpt lat="43.062819295043866" lon="11.597060269024183"><ele>375.0</ele><time>2026-04-11T16:28:13Z</time></trkpt><trkpt lat="43.062745656291675" lon="11.597118981647466"><ele>375.0</ele><time>2026-04-11T16:28:17Z</time></trkpt><trkpt lat="43.06267795634137" lon="11.597163796553819"><ele>375.5714285714286</ele><time>2026-04-11T16:28:21Z</time></trkpt><trkpt lat="43.06262038294408" lon="11.597212798710823"><ele>376.1428571428571</ele><time>2026-04-11T16:28:24Z</time></trkpt><trkpt lat="43.06256417223215" lon="11.597252210406145"><ele>376.7142857142857</ele><time>2026-04-11T16:28:27Z</time></trkpt><trkpt lat="43.06250421941355" lon="11.597300275166686"><ele>377.28571428571433</ele><time>2026-04-11T16:28:30Z</time></trkpt><trkpt lat="43.062431280719885" lon="11.5973517221623"><ele>377.8571428571429</ele><time>2026-04-11T16:28:34Z</time></trkpt><trkpt lat="43.0623775089299" lon="11.597401380700449"><ele>378.42857142857144</ele><time>2026-04-11T16:28:37Z</time></trkpt><trkpt lat="43.06231469146072" lon="11.597449186161182"><ele>379.0</ele><time>2026-04-11T16:28:41Z</time></trkpt><trkpt lat="43.06225928884816" lon="11.597493440157585"><ele>379.00000000000006</ele><time>2026-04-11T16:28:44Z</time></trkpt><trkpt lat="43.06219908078916" lon="11.597536663058907"><ele>379.0</ele><time>2026-04-11T16:28:49Z</time></trkpt><trkpt lat="43.06214107455638" lon="11.597600206592569"><ele>379.0</ele><time>2026-04-11T16:28:52Z</time></trkpt><trkpt lat="43.06207365557634" lon="11.59763315635825"><ele>379.0</ele><time>2026-04-11T16:28:54Z</time></trkpt><trkpt lat="43.062016166021884" lon="11.597697613423257"><ele>379.0</ele><time>2026-04-11T16:28:57Z</time></trkpt><trkpt lat="43.06196476332536" lon="11.597752778725454"><ele>379.00000000000006</ele><time>2026-04-11T16:29:00Z</time></trkpt><trkpt lat="43.061913877303624" lon="11.597813520568543"><ele>379.0</ele><time>2026-04-11T16:29:03Z</time></trkpt><trkpt lat="43.06185847616714" lon="11.597895924706593"><ele>380.16666666666663</ele><time>2026-04-11T16:29:06Z</time></trkpt><trkpt lat="43.06181130351367" lon="11.597964263005762"><ele>381.3333333333333</ele><time>2026-04-11T16:29:09Z</time></trkpt><trkpt lat="43.06176271049581" lon="11.598052436455202"><ele>382.5</ele><time>2026-04-11T16:29:13Z</time></trkpt><trkpt lat="43.0617236160936" lon="11.598163053517146"><ele>383.66666666666663</ele><time>2026-04-11T16:29:17Z</time></trkpt><trkpt lat="43.0616898229161" lon="11.598285410875608"><ele>384.8333333333333</ele><time>2026-04-11T16:29:20Z</time></trkpt><trkpt lat="43.06166826228614" lon="11.59840905926714"><ele>386.0</ele><time>2026-04-11T16:29:23Z</time></trkpt><trkpt lat="43.06164866007272" lon="11.598528761049533"><ele>385.99999999999994</ele><time>2026-04-11T16:29:26Z</time></trkpt><trkpt lat="43.06163010437095" lon="11.598649091511453"><ele>386.0</ele><time>2026-04-11T16:29:29Z</time></trkpt><trkpt lat="43.06162240619292" lon="11.598738362182502"><ele>386.0</ele><time>2026-04-11T16:29:31Z</time></trkpt><trkpt lat="43.06161058330566" lon="11.598835298664106"><ele>386.0</ele><time>2026-04-11T16:29:33Z</time></trkpt><trkpt lat="43.0615996256621" lon="11.598943671749028"><ele>385.99999999999994</ele><time>2026-04-11T16:29:35Z</time></trkpt><trkpt lat="43.06158314627853" lon="11.599059560684838"><ele>386.0</ele><time>2026-04-11T16:29:37Z</time></trkpt><trkpt lat="43.06157331053683" lon="11.599175283954123"><ele>384.3333333333333</ele><time>2026-04-11T16:29:39Z</time></trkpt><trkpt lat="43.06156308559825" lon="11.59928497668291"><ele>382.66666666666663</ele><time>2026-04-11T16:29:41Z</time></trkpt><trkpt lat="43.0615503745779" lon="11.599395974144532"><ele>381.0</ele><time>2026-04-11T16:29:43Z</time></trkpt><trkpt lat="43.06153835517451" lon="11.599500869495786"><ele>379.3333333333333</ele><time>2026-04-11T16:29:45Z</time></trkpt><trkpt lat="43.06152415633826" lon="11.599599223019982"><ele>377.66666666666663</ele><time>2026-04-11T16:29:47Z</time></trkpt><trkpt lat="43.0615044066239" lon="11.599689866159162"><ele>376.0</ele><time>2026-04-11T16:29:49Z</time></trkpt><trkpt lat="43.061479834376975" lon="11.59977732353377"><ele>376.0</ele><time>2026-04-11T16:29:51Z</time></trkpt><trkpt lat="43.06144355886259" lon="11.5998853473482"><ele>376.0</ele><time>2026-04-11T16:29:54Z</time></trkpt><trkpt lat="43.06140001923638" lon="11.600002610531325"><ele>376.0</ele><time>2026-04-11T16:29:57Z</time></trkpt><trkpt lat="43.061365220402266" lon="11.600087117002506"><ele>376.0</ele><time>2026-04-11T16:29:59Z</time></trkpt><trkpt lat="43.061335820184645" lon="11.600173038065904"><ele>376.0</ele><time>2026-04-11T16:30:01Z</time></trkpt><trkpt lat="43.06129406812398" lon="11.600277773513652"><ele>376.0</ele><time>2026-04-11T16:30:04Z</time></trkpt><trkpt lat="43.06126088728212" lon="11.600368526666577"><ele>377.1428571428571</ele><time>2026-04-11T16:30:07Z</time></trkpt><trkpt lat="43.061232717815784" lon="11.6004466705964"><ele>378.2857142857143</ele><time>2026-04-11T16:30:10Z</time></trkpt><trkpt lat="43.061195957613286" lon="11.60052482953801"><ele>379.42857142857144</ele><time>2026-04-11T16:30:13Z</time></trkpt><trkpt lat="43.06117044057496" lon="11.600609277214481"><ele>380.57142857142856</ele><time>2026-04-11T16:30:16Z</time></trkpt><trkpt lat="43.06113473138577" lon="11.600710862446554"><ele>381.7142857142857</ele><time>2026-04-11T16:30:20Z</time></trkpt><trkpt lat="43.0611022024307" lon="11.600813873850235"><ele>382.85714285714283</ele><time>2026-04-11T16:30:24Z</time></trkpt><trkpt lat="43.061064560145155" lon="11.600908102163492"><ele>384.0</ele><time>2026-04-11T16:30:28Z</time></trkpt><trkpt lat="43.06102858245972" lon="11.601011125154779"><ele>383.99999999999994</ele><time>2026-04-11T16:30:32Z</time></trkpt><trkpt lat="43.06100157709624" lon="11.601098670568433"><ele>384.0</ele><time>2026-04-11T16:30:35Z</time></trkpt><trkpt lat="43.06097359379192" lon="11.601176253183668"><ele>384.0</ele><time>2026-04-11T16:30:38Z</time></trkpt><trkpt lat="43.0609455670911" lon="11.601257799967048"><ele>384.0</ele><time>2026-04-11T16:30:41Z</time></trkpt><trkpt lat="43.06089951988924" lon="11.601338208004563"><ele>384.0</ele><time>2026-04-11T16:30:45Z</time></trkpt><trkpt lat="43.06084461317353" lon="11.601408866171287"><ele>383.99999999999994</ele><time>2026-04-11T16:30:49Z</time></trkpt><trkpt lat="43.06078255334203" lon="11.60146825502046"><ele>384.0</ele><time>2026-04-11T16:30:52Z</time></trkpt><trkpt lat="43.0607131088821" lon="11.601510814851196"><ele>386.1666666666667</ele><time>2026-04-11T16:30:56Z</time></trkpt><trkpt lat="43.06064510689389" lon="11.601568099358506"><ele>388.33333333333337</ele><time>2026-04-11T16:31:00Z</time></trkpt><trkpt lat="43.06059082387349" lon="11.601634095587324"><ele>390.5</ele><time>2026-04-11T16:31:11Z</time></trkpt><trkpt lat="43.060571394531514" lon="11.601745219247544"><ele>392.6666666666667</ele><time>2026-04-11T16:31:16Z</time></trkpt><trkpt lat="43.060612634582846" lon="11.601854009605194"><ele>394.83333333333337</ele><time>2026-04-11T16:31:19Z</time></trkpt><trkpt lat="43.06065540692879" lon="11.601919442253559"><ele>397.0</ele><time>2026-04-11T16:31:21Z</time></trkpt><trkpt lat="43.0607175124082" lon="11.602014162841709"><ele>397.6666666666667</ele><time>2026-04-11T16:31:24Z</time></trkpt><trkpt lat="43.060774285935054" lon="11.602114580651893"><ele>398.33333333333337</ele><time>2026-04-11T16:31:27Z</time></trkpt><trkpt lat="43.06080405293074" lon="11.602231517661396"><ele>399.0</ele><time>2026-04-11T16:31:30Z</time></trkpt><trkpt lat="43.06082520771148" lon="11.602316134872183"><ele>399.66666666666663</ele><time>2026-04-11T16:31:32Z</time></trkpt><trkpt lat="43.06083973977122" lon="11.602432637197822"><ele>400.3333333333333</ele><time>2026-04-11T16:31:35Z</time></trkpt><trkpt lat="43.060854711512725" lon="11.602519948975898"><ele>401.0</ele><time>2026-04-11T16:31:37Z</time></trkpt><trkpt lat="43.0608623749637" lon="11.602609513404246"><ele>400.99999999999994</ele><time>2026-04-11T16:31:39Z</time></trkpt><trkpt lat="43.06088471013104" lon="11.602737801543356"><ele>401.0</ele><time>2026-04-11T16:31:42Z</time></trkpt><trkpt lat="43.06090342986731" lon="11.602860891194034"><ele>401.0</ele><time>2026-04-11T16:31:45Z</time></trkpt><trkpt lat="43.06091522485234" lon="11.602972563468896"><ele>401.0</ele><time>2026-04-11T16:31:48Z</time></trkpt><trkpt lat="43.06092627477615" lon="11.603080499606822"><ele>400.99999999999994</ele><time>2026-04-11T16:31:51Z</time></trkpt><trkpt lat="43.06093206633454" lon="11.603175619059106"><ele>401.0</ele><time>2026-04-11T16:31:54Z</time></trkpt><trkpt lat="43.060940231525464" lon="11.603280500863017"><ele>402.16666666666663</ele><time>2026-04-11T16:31:57Z</time></trkpt><trkpt lat="43.06094446070213" lon="11.60340286085497"><ele>403.3333333333333</ele><time>2026-04-11T16:32:00Z</time></trkpt><trkpt lat="43.06094590325745" lon="11.603510064181014"><ele>404.5</ele><time>2026-04-11T16:32:03Z</time></trkpt><trkpt lat="43.06094135535239" lon="11.60361083187588"><ele>405.66666666666663</ele><time>2026-04-11T16:32:06Z</time></trkpt><trkpt lat="43.06092926746265" lon="11.60371345136931"><ele>406.8333333333333</ele><time>2026-04-11T16:32:09Z</time></trkpt><trkpt lat="43.06092968402052" lon="11.603810351038794"><ele>408.0</ele><time>2026-04-11T16:32:12Z</time></trkpt><trkpt lat="43.06093024182758" lon="11.60391433064718"><ele>408.1666666666667</ele><time>2026-04-11T16:32:15Z</time></trkpt><trkpt lat="43.0609276630084" lon="11.604025737790744"><ele>408.33333333333337</ele><time>2026-04-11T16:32:18Z</time></trkpt><trkpt lat="43.060918485174156" lon="11.604156033092032"><ele>408.5</ele><time>2026-04-11T16:32:20Z</time></trkpt><trkpt lat="43.06092670511253" lon="11.604286932596498"><ele>408.6666666666667</ele><time>2026-04-11T16:32:23Z</time></trkpt><trkpt lat="43.0609304636272" lon="11.604389719055956"><ele>408.83333333333337</ele><time>2026-04-11T16:32:25Z</time></trkpt><trkpt lat="43.06093881427217" lon="11.604509278692086"><ele>409.0</ele><time>2026-04-11T16:32:27Z</time></trkpt><trkpt lat="43.060941021829656" lon="11.604633961781074"><ele>409.0</ele><time>2026-04-11T16:32:29Z</time></trkpt><trkpt lat="43.060946932809856" lon="11.604753869253349"><ele>409.0</ele><time>2026-04-11T16:32:31Z</time></trkpt><trkpt lat="43.06095039918479" lon="11.604873933463344"><ele>409.0</ele><time>2026-04-11T16:32:33Z</time></trkpt><trkpt lat="43.06095397142456" lon="11.605006609323981"><ele>409.0</ele><time>2026-04-11T16:32:35Z</time></trkpt><trkpt lat="43.06095337777552" lon="11.605138016055983"><ele>409.0</ele><time>2026-04-11T16:32:37Z</time></trkpt><trkpt lat="43.060942989986955" lon="11.605268418977962"><ele>408.1666666666667</ele><time>2026-04-11T16:32:39Z</time></trkpt><trkpt lat="43.06091318091023" lon="11.60538906161938"><ele>407.33333333333337</ele><time>2026-04-11T16:32:41Z</time></trkpt><trkpt lat="43.060877195234724" lon="11.605503422479963"><ele>406.5</ele><time>2026-04-11T16:32:43Z</time></trkpt><trkpt lat="43.06084240897583" lon="11.605595834063998"><ele>405.66666666666663</ele><time>2026-04-11T16:32:45Z</time></trkpt><trkpt lat="43.060806284024636" lon="11.605669387302218"><ele>404.8333333333333</ele><time>2026-04-11T16:32:47Z</time></trkpt><trkpt lat="43.0607636025894" lon="11.605763377430504"><ele>404.0</ele><time>2026-04-11T16:32:50Z</time></trkpt><trkpt lat="43.06073611991248" lon="11.605852315541181"><ele>403.99999999999994</ele><time>2026-04-11T16:32:53Z</time></trkpt><trkpt lat="43.0606806125368" lon="11.605918906573615"><ele>404.0</ele><time>2026-04-11T16:32:57Z</time></trkpt><trkpt lat="43.060601605175535" lon="11.605939545170562"><ele>404.0</ele><time>2026-04-11T16:33:02Z</time></trkpt><trkpt lat="43.06051114931108" lon="11.605944294414023"><ele>404.0</ele><time>2026-04-11T16:33:06Z</time></trkpt><trkpt lat="43.060421872028066" lon="11.605934787599871"><ele>403.99999999999994</ele><time>2026-04-11T16:33:09Z</time></trkpt><trkpt lat="43.06033462893251" lon="11.60590482381775"><ele>404.0</ele><time>2026-04-11T16:33:11Z</time></trkpt><trkpt lat="43.06022771083401" lon="11.60587813041819"><ele>404.0</ele><time>2026-04-11T16:33:13Z</time></trkpt><trkpt lat="43.060164076298655" lon="11.605852500987748"><ele>404.0</ele><time>2026-04-11T16:33:14Z</time></trkpt><trkpt lat="43.06004979498976" lon="11.605828409322056"><ele>404.0</ele><time>2026-04-11T16:33:16Z</time></trkpt><trkpt lat="43.05993198865408" lon="11.605801961591315"><ele>404.0</ele><time>2026-04-11T16:33:18Z</time></trkpt><trkpt lat="43.05981352997143" lon="11.605810045089129"><ele>404.0</ele><time>2026-04-11T16:33:20Z</time></trkpt><trkpt lat="43.059752139173774" lon="11.605829674333961"><ele>404.42857142857144</ele><time>2026-04-11T16:33:21Z</time></trkpt><trkpt lat="43.05968808821322" lon="11.605851722474378"><ele>404.85714285714283</ele><time>2026-04-11T16:33:22Z</time></trkpt><trkpt lat="43.0596239670035" lon="11.605883085982938"><ele>405.28571428571433</ele><time>2026-04-11T16:33:23Z</time></trkpt><trkpt lat="43.05956496276818" lon="11.605921562748698"><ele>405.7142857142857</ele><time>2026-04-11T16:33:24Z</time></trkpt><trkpt lat="43.059482244414355" lon="11.605973481151162"><ele>406.14285714285717</ele><time>2026-04-11T16:33:26Z</time></trkpt><trkpt lat="43.05941882269184" lon="11.606020651019648"><ele>406.5714285714286</ele><time>2026-04-11T16:33:28Z</time></trkpt><trkpt lat="43.05934412162827" lon="11.60607248916877"><ele>407.0</ele><time>2026-04-11T16:33:30Z</time></trkpt><trkpt lat="43.05927455049837" lon="11.60612618831895"><ele>407.40000000000003</ele><time>2026-04-11T16:33:32Z</time></trkpt><trkpt lat="43.05920072147934" lon="11.606194204765895"><ele>407.8</ele><time>2026-04-11T16:33:34Z</time></trkpt><trkpt lat="43.05912016776005" lon="11.606264648066942"><ele>408.2</ele><time>2026-04-11T16:33:36Z</time></trkpt><trkpt lat="43.059025592624195" lon="11.606346958691438"><ele>408.6</ele><time>2026-04-11T16:33:38Z</time></trkpt><trkpt lat="43.05892562390808" lon="11.606423429025005"><ele>409.0</ele><time>2026-04-11T16:33:40Z</time></trkpt><trkpt lat="43.05882357181424" lon="11.606505570193443"><ele>409.0</ele><time>2026-04-11T16:33:42Z</time></trkpt><trkpt lat="43.05872775154641" lon="11.606577912650994"><ele>409.0</ele><time>2026-04-11T16:33:44Z</time></trkpt><trkpt lat="43.05863845149561" lon="11.606651554360184"><ele>409.0</ele><time>2026-04-11T16:33:46Z</time></trkpt><trkpt lat="43.05856118093958" lon="11.606723381804077"><ele>409.0</ele><time>2026-04-11T16:33:48Z</time></trkpt><trkpt lat="43.05849836880192" lon="11.606776651994613"><ele>409.0</ele><time>2026-04-11T16:33:50Z</time></trkpt><trkpt lat="43.058418222897735" lon="11.606845727881323"><ele>409.0</ele><time>2026-04-11T16:33:53Z</time></trkpt><trkpt lat="43.05833825104385" lon="11.60691060225966"><ele>409.0</ele><time>2026-04-11T16:33:56Z</time></trkpt><trkpt lat="43.05826202016395" lon="11.606967865413557"><ele>409.0</ele><time>2026-04-11T16:33:59Z</time></trkpt><trkpt lat="43.05817359753824" lon="11.607009653204662"><ele>409.0</ele><time>2026-04-11T16:34:02Z</time></trkpt><trkpt lat="43.05808259600092" lon="11.606979397803654"><ele>409.0</ele><time>2026-04-11T16:34:05Z</time></trkpt><trkpt lat="43.05800656282806" lon="11.606916746704625"><ele>408.83333333333337</ele><time>2026-04-11T16:34:08Z</time></trkpt><trkpt lat="43.05794084963042" lon="11.606819730545753"><ele>408.6666666666667</ele><time>2026-04-11T16:34:11Z</time></trkpt><trkpt lat="43.05788512397632" lon="11.606742116251546"><ele>408.5</ele><time>2026-04-11T16:34:13Z</time></trkpt><trkpt lat="43.057815363022264" lon="11.606662362690315"><ele>408.33333333333337</ele><time>2026-04-11T16:34:15Z</time></trkpt><trkpt lat="43.0577597377846" lon="11.606575566969935"><ele>408.1666666666667</ele><time>2026-04-11T16:34:17Z</time></trkpt><trkpt lat="43.057705902942324" lon="11.606499671378739"><ele>408.0</ele><time>2026-04-11T16:34:19Z</time></trkpt><trkpt lat="43.057672977987" lon="11.606399862375005"><ele>408.0</ele><time>2026-04-11T16:34:21Z</time></trkpt><trkpt lat="43.05762090997644" lon="11.606314407224449"><ele>408.0</ele><time>2026-04-11T16:34:23Z</time></trkpt><trkpt lat="43.05760711942199" lon="11.606212196500794"><ele>408.0</ele><time>2026-04-11T16:34:25Z</time></trkpt><trkpt lat="43.05759942262905" lon="11.606105741035414"><ele>408.0</ele><time>2026-04-11T16:34:27Z</time></trkpt><trkpt lat="43.0575620510759" lon="11.606005129464759"><ele>408.0</ele><time>2026-04-11T16:34:29Z</time></trkpt><trkpt lat="43.057519092031484" lon="11.605927321276887"><ele>408.0</ele><time>2026-04-11T16:34:31Z</time></trkpt><trkpt lat="43.05748700890223" lon="11.605837977725061"><ele>408.3333333333333</ele><time>2026-04-11T16:34:33Z</time></trkpt><trkpt lat="43.057449958974345" lon="11.605750252907121"><ele>408.66666666666663</ele><time>2026-04-11T16:34:35Z</time></trkpt><trkpt lat="43.05741185555809" lon="11.605661723596214"><ele>409.0</ele><time>2026-04-11T16:34:37Z</time></trkpt><trkpt lat="43.05738154843653" lon="11.605571473742346"><ele>409.3333333333333</ele><time>2026-04-11T16:34:39Z</time></trkpt><trkpt lat="43.057341836337855" lon="11.60548401776823"><ele>409.66666666666663</ele><time>2026-04-11T16:34:41Z</time></trkpt><trkpt lat="43.0573118146878" lon="11.605395120377892"><ele>410.0</ele><time>2026-04-11T16:34:43Z</time></trkpt><trkpt lat="43.057270498792654" lon="11.605294764593266"><ele>410.7142857142857</ele><time>2026-04-11T16:34:46Z</time></trkpt><trkpt lat="43.057243814576395" lon="11.60521487231388"><ele>411.4285714285714</ele><time>2026-04-11T16:34:48Z</time></trkpt><trkpt lat="43.05721079519025" lon="11.605130541114598"><ele>412.1428571428571</ele><time>2026-04-11T16:34:50Z</time></trkpt><trkpt lat="43.057182654574724" lon="11.605046505581083"><ele>412.8571428571429</ele><time>2026-04-11T16:34:52Z</time></trkpt><trkpt lat="43.05715711960599" lon="11.60495877865925"><ele>413.57142857142856</ele><time>2026-04-11T16:34:54Z</time></trkpt><trkpt lat="43.057124750222115" lon="11.604874389958425"><ele>414.2857142857143</ele><time>2026-04-11T16:34:56Z</time></trkpt><trkpt lat="43.057089120421" lon="11.604795448515166"><ele>415.0</ele><time>2026-04-11T16:34:58Z</time></trkpt><trkpt lat="43.057042154023925" lon="11.604730005545079"><ele>415.0</ele><time>2026-04-11T16:35:00Z</time></trkpt><trkpt lat="43.05699691733324" lon="11.604656519369044"><ele>415.0</ele><time>2026-04-11T16:35:02Z</time></trkpt><trkpt lat="43.05694302089558" lon="11.60459568807502"><ele>415.0</ele><time>2026-04-11T16:35:04Z</time></trkpt><trkpt lat="43.056908317264366" lon="11.604505712141375"><ele>415.0</ele><time>2026-04-11T16:35:06Z</time></trkpt><trkpt lat="43.05686136391244" lon="11.60442505802625"><ele>415.0</ele><time>2026-04-11T16:35:08Z</time></trkpt><trkpt lat="43.056819720145256" lon="11.604343404828931"><ele>415.0</ele><time>2026-04-11T16:35:10Z</time></trkpt><trkpt lat="43.05677081102521" lon="11.604263101338278"><ele>415.0</ele><time>2026-04-11T16:35:12Z</time></trkpt><trkpt lat="43.05672328739755" lon="11.604192777956934"><ele>415.1666666666667</ele><time>2026-04-11T16:35:14Z</time></trkpt><trkpt lat="43.05668193416003" lon="11.60410655010424"><ele>415.33333333333337</ele><time>2026-04-11T16:35:16Z</time></trkpt><trkpt lat="43.056639366666616" lon="11.60401286311697"><ele>415.5</ele><time>2026-04-11T16:35:18Z</time></trkpt><trkpt lat="43.05659646913574" lon="11.603931445501415"><ele>415.66666666666663</ele><time>2026-04-11T16:35:20Z</time></trkpt><trkpt lat="43.05654307009504" lon="11.60385908679406"><ele>415.8333333333333</ele><time>2026-04-11T16:35:22Z</time></trkpt><trkpt lat="43.05649642858718" lon="11.603782108808872"><ele>416.0</ele><time>2026-04-11T16:35:24Z</time></trkpt><trkpt lat="43.056441516461746" lon="11.603714020069635"><ele>416.7142857142857</ele><time>2026-04-11T16:35:26Z</time></trkpt><trkpt lat="43.0563895777241" lon="11.60364923733656"><ele>417.42857142857144</ele><time>2026-04-11T16:35:28Z</time></trkpt><trkpt lat="43.056332918043424" lon="11.603591423844893"><ele>418.14285714285717</ele><time>2026-04-11T16:35:30Z</time></trkpt><trkpt lat="43.05627784163799" lon="11.603525744482768"><ele>418.8571428571429</ele><time>2026-04-11T16:35:32Z</time></trkpt><trkpt lat="43.056218726098194" lon="11.60346550526811"><ele>419.57142857142856</ele><time>2026-04-11T16:35:34Z</time></trkpt><trkpt lat="43.05616652197757" lon="11.603401340500959"><ele>420.28571428571433</ele><time>2026-04-11T16:35:36Z</time></trkpt><trkpt lat="43.05611350264556" lon="11.603340993221105"><ele>421.0</ele><time>2026-04-11T16:35:38Z</time></trkpt><trkpt lat="43.056060038976206" lon="11.603280575487199"><ele>421.00000000000006</ele><time>2026-04-11T16:35:40Z</time></trkpt><trkpt lat="43.056003002478434" lon="11.603224905199124"><ele>421.0</ele><time>2026-04-11T16:35:42Z</time></trkpt><trkpt lat="43.055948042277635" lon="11.60316680864514"><ele>421.0</ele><time>2026-04-11T16:35:44Z</time></trkpt><trkpt lat="43.055898164421485" lon="11.603103175234898"><ele>421.0</ele><time>2026-04-11T16:35:46Z</time></trkpt><trkpt lat="43.05584047868519" lon="11.603046219500376"><ele>421.0</ele><time>2026-04-11T16:35:48Z</time></trkpt><trkpt lat="43.055785739074956" lon="11.60298896399477"><ele>421.00000000000006</ele><time>2026-04-11T16:35:50Z</time></trkpt><trkpt lat="43.055713767686" lon="11.602914572560058"><ele>421.0</ele><time>2026-04-11T16:35:53Z</time></trkpt><trkpt lat="43.05566322580355" lon="11.602859808363652"><ele>422.00000000000006</ele><time>2026-04-11T16:35:57Z</time></trkpt><trkpt lat="43.055603701906996" lon="11.602806927101964"><ele>423.0</ele><time>2026-04-11T16:36:00Z</time></trkpt><trkpt lat="43.05555201784797" lon="11.602750591060296"><ele>424.0</ele><time>2026-04-11T16:36:03Z</time></trkpt><trkpt lat="43.05547967654119" lon="11.602675694420169"><ele>425.0</ele><time>2026-04-11T16:36:06Z</time></trkpt><trkpt lat="43.05542985535552" lon="11.602610551020478"><ele>426.00000000000006</ele><time>2026-04-11T16:36:08Z</time></trkpt><trkpt lat="43.055363169249325" lon="11.602532972696682"><ele>427.0</ele><time>2026-04-11T16:36:11Z</time></trkpt><trkpt lat="43.05528329709067" lon="11.602456902860387"><ele>427.00000000000006</ele><time>2026-04-11T16:36:14Z</time></trkpt><trkpt lat="43.05521666649711" lon="11.602383360609313"><ele>427.0</ele><time>2026-04-11T16:36:17Z</time></trkpt><trkpt lat="43.05515152883146" lon="11.602320958055872"><ele>427.0</ele><time>2026-04-11T16:36:20Z</time></trkpt><trkpt lat="43.055096579019946" lon="11.602246361267076"><ele>427.0</ele><time>2026-04-11T16:36:23Z</time></trkpt><trkpt lat="43.05504336332581" lon="11.602183415638608"><ele>427.00000000000006</ele><time>2026-04-11T16:36:26Z</time></trkpt><trkpt lat="43.054976511133376" lon="11.60213279465322"><ele>427.0</ele><time>2026-04-11T16:36:29Z</time></trkpt><trkpt lat="43.0549189116195" lon="11.602081008454803"><ele>426.83333333333337</ele><time>2026-04-11T16:36:32Z</time></trkpt><trkpt lat="43.05485716868377" lon="11.60203552277685"><ele>426.6666666666667</ele><time>2026-04-11T16:36:35Z</time></trkpt><trkpt lat="43.05479135615681" lon="11.601983156616749"><ele>426.5</ele><time>2026-04-11T16:36:38Z</time></trkpt><trkpt lat="43.05471854370512" lon="11.60193685188815"><ele>426.33333333333337</ele><time>2026-04-11T16:36:41Z</time></trkpt><trkpt lat="43.05465082947413" lon="11.60191307491395"><ele>426.1666666666667</ele><time>2026-04-11T16:36:44Z</time></trkpt><trkpt lat="43.05457020206103" lon="11.601874330247693"><ele>426.0</ele><time>2026-04-11T16:36:48Z</time></trkpt><trkpt lat="43.054495048920046" lon="11.601831398373012"><ele>425.99999999999994</ele><time>2026-04-11T16:36:51Z</time></trkpt><trkpt lat="43.05443399619116" lon="11.601798501548274"><ele>426.0</ele><time>2026-04-11T16:36:53Z</time></trkpt><trkpt lat="43.054364381491155" lon="11.601776416068157"><ele>426.0</ele><time>2026-04-11T16:36:55Z</time></trkpt><trkpt lat="43.05429714711717" lon="11.601756893671675"><ele>426.0</ele><time>2026-04-11T16:36:57Z</time></trkpt><trkpt lat="43.054232286234516" lon="11.6017234761223"><ele>426.0</ele><time>2026-04-11T16:36:59Z</time></trkpt><trkpt lat="43.054165759538684" lon="11.60170406252777"><ele>425.99999999999994</ele><time>2026-04-11T16:37:01Z</time></trkpt><trkpt lat="43.054100657820996" lon="11.601677661144256"><ele>426.0</ele><time>2026-04-11T16:37:03Z</time></trkpt><trkpt lat="43.054034082086" lon="11.601633599041062"><ele>425.99999999999994</ele><time>2026-04-11T16:37:05Z</time></trkpt><trkpt lat="43.0539749083783" lon="11.60158711785056"><ele>426.0</ele><time>2026-04-11T16:37:07Z</time></trkpt><trkpt lat="43.05391604659577" lon="11.601541662402694"><ele>426.0</ele><time>2026-04-11T16:37:09Z</time></trkpt><trkpt lat="43.05386090141195" lon="11.60149978970377"><ele>426.0</ele><time>2026-04-11T16:37:11Z</time></trkpt><trkpt lat="43.05377898265494" lon="11.60144807708779"><ele>426.0</ele><time>2026-04-11T16:37:14Z</time></trkpt><trkpt lat="43.05372091567736" lon="11.601399648684822"><ele>425.99999999999994</ele><time>2026-04-11T16:37:16Z</time></trkpt><trkpt lat="43.05365505451382" lon="11.601350769740833"><ele>426.0</ele><time>2026-04-11T16:37:18Z</time></trkpt><trkpt lat="43.053574888162345" lon="11.601277500266464"><ele>426.0</ele><time>2026-04-11T16:37:21Z</time></trkpt><trkpt lat="43.053517647090516" lon="11.601234913997434"><ele>426.0</ele><time>2026-04-11T16:37:23Z</time></trkpt><trkpt lat="43.05345509532285" lon="11.601187629518495"><ele>426.0</ele><time>2026-04-11T16:37:25Z</time></trkpt><trkpt lat="43.05339138914506" lon="11.601128840476504"><ele>426.0</ele><time>2026-04-11T16:37:27Z</time></trkpt><trkpt lat="43.053321225203604" lon="11.6010753336263"><ele>426.0</ele><time>2026-04-11T16:37:29Z</time></trkpt><trkpt lat="43.05324550194253" lon="11.601014687811231"><ele>426.0</ele><time>2026-04-11T16:37:31Z</time></trkpt><trkpt lat="43.05317922266336" lon="11.600941082951513"><ele>426.0</ele><time>2026-04-11T16:37:33Z</time></trkpt><trkpt lat="43.05310674730023" lon="11.600870561133132"><ele>426.0</ele><time>2026-04-11T16:37:35Z</time></trkpt><trkpt lat="43.05303527314912" lon="11.600812978854991"><ele>426.0</ele><time>2026-04-11T16:37:37Z</time></trkpt><trkpt lat="43.05296038296619" lon="11.600745004451054"><ele>426.0</ele><time>2026-04-11T16:37:39Z</time></trkpt><trkpt lat="43.052879013343144" lon="11.600664744105954"><ele>426.0</ele><time>2026-04-11T16:37:41Z</time></trkpt><trkpt lat="43.052810159434486" lon="11.600567723357065"><ele>426.0</ele><time>2026-04-11T16:37:43Z</time></trkpt><trkpt lat="43.052737782715205" lon="11.600471172401452"><ele>426.0</ele><time>2026-04-11T16:37:45Z</time></trkpt><trkpt lat="43.052692204365805" lon="11.600348501214775"><ele>426.0</ele><time>2026-04-11T16:37:47Z</time></trkpt><trkpt lat="43.05263323207113" lon="11.600236133185724"><ele>426.0</ele><time>2026-04-11T16:37:49Z</time></trkpt><trkpt lat="43.052557551882614" lon="11.60013499187932"><ele>426.0</ele><time>2026-04-11T16:37:51Z</time></trkpt><trkpt lat="43.05249872124838" lon="11.600006359902295"><ele>424.4</ele><time>2026-04-11T16:37:53Z</time></trkpt><trkpt lat="43.05240446736743" lon="11.599888628815776"><ele>422.8</ele><time>2026-04-11T16:37:55Z</time></trkpt><trkpt lat="43.05229975466973" lon="11.599787849906352"><ele>421.2</ele><time>2026-04-11T16:37:57Z</time></trkpt><trkpt lat="43.052243874306335" lon="11.599743471343276"><ele>419.59999999999997</ele><time>2026-04-11T16:37:58Z</time></trkpt><trkpt lat="43.05218237522208" lon="11.599699842513663"><ele>418.0</ele><time>2026-04-11T16:37:59Z</time></trkpt><trkpt lat="43.052119106510915" lon="11.599656426441214"><ele>418.00000000000006</ele><time>2026-04-11T16:38:00Z</time></trkpt><trkpt lat="43.05200787867746" lon="11.599582673430023"><ele>418.0</ele><time>2026-04-11T16:38:02Z</time></trkpt><trkpt lat="43.05195012621693" lon="11.59954629706171"><ele>418.0</ele><time>2026-04-11T16:38:03Z</time></trkpt><trkpt lat="43.051890424376765" lon="11.599510313189702"><ele>418.0</ele><time>2026-04-11T16:38:04Z</time></trkpt><trkpt lat="43.05182457799706" lon="11.599494374890607"><ele>418.00000000000006</ele><time>2026-04-11T16:38:05Z</time></trkpt><trkpt lat="43.051761857048646" lon="11.59945804771208"><ele>418.0</ele><time>2026-04-11T16:38:06Z</time></trkpt><trkpt lat="43.05170325909198" lon="11.599425670129587"><ele>419.2</ele><time>2026-04-11T16:38:07Z</time></trkpt><trkpt lat="43.05164143172611" lon="11.599405738820192"><ele>420.4</ele><time>2026-04-11T16:38:08Z</time></trkpt><trkpt lat="43.05157935534013" lon="11.599390589797403"><ele>421.59999999999997</ele><time>2026-04-11T16:38:09Z</time></trkpt><trkpt lat="43.051461440610126" lon="11.5993667121749"><ele>422.79999999999995</ele><time>2026-04-11T16:38:11Z</time></trkpt><trkpt lat="43.05133961376572" lon="11.599382540935547"><ele>424.0</ele><time>2026-04-11T16:38:13Z</time></trkpt><trkpt lat="43.05122962509975" lon="11.599402867842043"><ele>424.50000000000006</ele><time>2026-04-11T16:38:15Z</time></trkpt><trkpt lat="43.05113918894699" lon="11.599405341553046"><ele>425.0</ele><time>2026-04-11T16:38:17Z</time></trkpt><trkpt lat="43.05105702290457" lon="11.59942652532683"><ele>425.5</ele><time>2026-04-11T16:38:19Z</time></trkpt><trkpt lat="43.05097143590079" lon="11.599449548021742"><ele>426.0</ele><time>2026-04-11T16:38:21Z</time></trkpt><trkpt lat="43.05090658296566" lon="11.599468916266726"><ele>426.50000000000006</ele><time>2026-04-11T16:38:23Z</time></trkpt><trkpt lat="43.05084448020577" lon="11.59948749904518"><ele>427.0</ele><time>2026-04-11T16:38:25Z</time></trkpt><trkpt lat="43.05075983523009" lon="11.599514254865312"><ele>427.1666666666667</ele><time>2026-04-11T16:38:29Z</time></trkpt><trkpt lat="43.05068492667203" lon="11.599537931543527"><ele>427.33333333333337</ele><time>2026-04-11T16:38:32Z</time></trkpt><trkpt lat="43.050611187985886" lon="11.59957888033485"><ele>427.5</ele><time>2026-04-11T16:38:35Z</time></trkpt><trkpt lat="43.050524892343056" lon="11.599601746884625"><ele>427.66666666666663</ele><time>2026-04-11T16:38:38Z</time></trkpt><trkpt lat="43.050442146405956" lon="11.599625547096966"><ele>427.8333333333333</ele><time>2026-04-11T16:38:41Z</time></trkpt><trkpt lat="43.050356335432944" lon="11.599643404917993"><ele>428.0</ele><time>2026-04-11T16:38:44Z</time></trkpt><trkpt lat="43.050273807727386" lon="11.599676829554559"><ele>427.99999999999994</ele><time>2026-04-11T16:38:47Z</time></trkpt><trkpt lat="43.05018741909578" lon="11.59970830568813"><ele>428.0</ele><time>2026-04-11T16:38:50Z</time></trkpt><trkpt lat="43.050100733028266" lon="11.599719410544383"><ele>428.0</ele><time>2026-04-11T16:38:53Z</time></trkpt><trkpt lat="43.050019723104924" lon="11.599746144048826"><ele>428.0</ele><time>2026-04-11T16:38:56Z</time></trkpt><trkpt lat="43.04993319972624" lon="11.59977624357889"><ele>427.99999999999994</ele><time>2026-04-11T16:38:59Z</time></trkpt><trkpt lat="43.04984412331732" lon="11.59980723064325"><ele>428.0</ele><time>2026-04-11T16:39:02Z</time></trkpt><trkpt lat="43.049758897696215" lon="11.599836877592905"><ele>429.16666666666663</ele><time>2026-04-11T16:39:05Z</time></trkpt><trkpt lat="43.049701380678435" lon="11.599878545796031"><ele>430.3333333333333</ele><time>2026-04-11T16:39:07Z</time></trkpt><trkpt lat="43.049615882092596" lon="11.599926374883353"><ele>431.5</ele><time>2026-04-11T16:39:10Z</time></trkpt><trkpt lat="43.04952964268616" lon="11.599976428392687"><ele>432.66666666666663</ele><time>2026-04-11T16:39:13Z</time></trkpt><trkpt lat="43.049454574750854" lon="11.600036888022329"><ele>433.8333333333333</ele><time>2026-04-11T16:39:16Z</time></trkpt><trkpt lat="43.04939583661459" lon="11.600075267958628"><ele>435.0</ele><time>2026-04-11T16:39:18Z</time></trkpt><trkpt lat="43.04933340801023" lon="11.600112410778195"><ele>435.0</ele><time>2026-04-11T16:39:20Z</time></trkpt><trkpt lat="43.04925347210324" lon="11.600170344866292"><ele>435.0</ele><time>2026-04-11T16:39:23Z</time></trkpt><trkpt lat="43.04917739890588" lon="11.60021784062107"><ele>435.0</ele><time>2026-04-11T16:39:26Z</time></trkpt><trkpt lat="43.049096430594055" lon="11.600253022533229"><ele>435.0</ele><time>2026-04-11T16:39:29Z</time></trkpt><trkpt lat="43.04903316334472" lon="11.600314204749466"><ele>435.0</ele><time>2026-04-11T16:39:32Z</time></trkpt><trkpt lat="43.04896761365015" lon="11.600364107979935"><ele>435.0</ele><time>2026-04-11T16:39:35Z</time></trkpt><trkpt lat="43.04890092313675" lon="11.6004086119044"><ele>435.7142857142857</ele><time>2026-04-11T16:39:38Z</time></trkpt><trkpt lat="43.04883736070988" lon="11.600428979943949"><ele>436.42857142857144</ele><time>2026-04-11T16:39:41Z</time></trkpt><trkpt lat="43.04878045620789" lon="11.600467922834833"><ele>437.1428571428571</ele><time>2026-04-11T16:39:44Z</time></trkpt><trkpt lat="43.048701315296455" lon="11.600522082996196"><ele>437.8571428571429</ele><time>2026-04-11T16:39:48Z</time></trkpt><trkpt lat="43.0486420850974" lon="11.60056531003454"><ele>438.57142857142856</ele><time>2026-04-11T16:39:51Z</time></trkpt><trkpt lat="43.04858554361338" lon="11.600605275700245"><ele>439.2857142857143</ele><time>2026-04-11T16:39:54Z</time></trkpt><trkpt lat="43.0485270845612" lon="11.60064749760842"><ele>440.0</ele><time>2026-04-11T16:39:57Z</time></trkpt><trkpt lat="43.04846474576147" lon="11.600692521820374"><ele>439.99999999999994</ele><time>2026-04-11T16:40:00Z</time></trkpt><trkpt lat="43.048401875531674" lon="11.600737929769014"><ele>440.0</ele><time>2026-04-11T16:40:03Z</time></trkpt><trkpt lat="43.04833435121364" lon="11.600786770282193"><ele>440.0</ele><time>2026-04-11T16:40:07Z</time></trkpt><trkpt lat="43.048270243904064" lon="11.600833149521229"><ele>440.0</ele><time>2026-04-11T16:40:09Z</time></trkpt><trkpt lat="43.04818718864036" lon="11.600893236930993"><ele>439.99999999999994</ele><time>2026-04-11T16:40:11Z</time></trkpt><trkpt lat="43.0480905368965" lon="11.600962894193124"><ele>440.0</ele><time>2026-04-11T16:40:13Z</time></trkpt><trkpt lat="43.0479911379009" lon="11.601032492344846"><ele>440.49999999999994</ele><time>2026-04-11T16:40:15Z</time></trkpt><trkpt lat="43.047890586941094" lon="11.601102897127557"><ele>441.0</ele><time>2026-04-11T16:40:17Z</time></trkpt><trkpt lat="43.04784203183156" lon="11.601158598764977"><ele>441.5</ele><time>2026-04-11T16:40:18Z</time></trkpt><trkpt lat="43.04777405755822" lon="11.601167892808986"><ele>442.0</ele><time>2026-04-11T16:40:19Z</time></trkpt><trkpt lat="43.04766999363251" lon="11.601225997983754"><ele>442.49999999999994</ele><time>2026-04-11T16:40:21Z</time></trkpt><trkpt lat="43.04760201568293" lon="11.601303564738503"><ele>443.0</ele><time>2026-04-11T16:40:25Z</time></trkpt><trkpt lat="43.047531625561945" lon="11.601348761058508"><ele>443.66666666666663</ele><time>2026-04-11T16:40:28Z</time></trkpt><trkpt lat="43.04745605139382" lon="11.601377975198877"><ele>444.3333333333333</ele><time>2026-04-11T16:40:31Z</time></trkpt><trkpt lat="43.04738752722522" lon="11.601436410458696"><ele>445.0</ele><time>2026-04-11T16:40:34Z</time></trkpt><trkpt lat="43.04730453627194" lon="11.601473985767537"><ele>445.66666666666663</ele><time>2026-04-11T16:40:37Z</time></trkpt><trkpt lat="43.04724195722017" lon="11.601498437211156"><ele>446.3333333333333</ele><time>2026-04-11T16:40:39Z</time></trkpt><trkpt lat="43.047168642557736" lon="11.601496498607753"><ele>447.0</ele><time>2026-04-11T16:40:41Z</time></trkpt><trkpt lat="43.04709733452694" lon="11.601503056871529"><ele>447.0</ele><time>2026-04-11T16:40:43Z</time></trkpt><trkpt lat="43.04702194674157" lon="11.601504894978902"><ele>447.0</ele><time>2026-04-11T16:40:45Z</time></trkpt><trkpt lat="43.046950767713206" lon="11.601495518369774"><ele>447.0</ele><time>2026-04-11T16:40:47Z</time></trkpt><trkpt lat="43.04686348758752" lon="11.601478230807267"><ele>447.0</ele><time>2026-04-11T16:40:50Z</time></trkpt><trkpt lat="43.04678408700624" lon="11.601459293581723"><ele>447.0</ele><time>2026-04-11T16:40:53Z</time></trkpt><trkpt lat="43.04671025388607" lon="11.601458222515925"><ele>447.0</ele><time>2026-04-11T16:40:56Z</time></trkpt><trkpt lat="43.04664029080761" lon="11.60141903059733"><ele>447.85714285714283</ele><time>2026-04-11T16:40:59Z</time></trkpt><trkpt lat="43.04656542773935" lon="11.601415644477862"><ele>448.71428571428567</ele><time>2026-04-11T16:41:02Z</time></trkpt><trkpt lat="43.04649266851643" lon="11.601390408711854"><ele>449.57142857142856</ele><time>2026-04-11T16:41:05Z</time></trkpt><trkpt lat="43.04642583024425" lon="11.60135777380277"><ele>450.4285714285714</ele><time>2026-04-11T16:41:08Z</time></trkpt><trkpt lat="43.046363252806955" lon="11.60132370966981"><ele>451.2857142857143</ele><time>2026-04-11T16:41:11Z</time></trkpt><trkpt lat="43.04629057099239" lon="11.601286067839474"><ele>452.14285714285705</ele><time>2026-04-11T16:41:15Z</time></trkpt><trkpt lat="43.046216152750986" lon="11.601244384194455"><ele>452.99999999999994</ele><time>2026-04-11T16:41:19Z</time></trkpt><trkpt lat="43.0461436433178" lon="11.601209080028884"><ele>452.99999999999994</ele><time>2026-04-11T16:41:23Z</time></trkpt><trkpt lat="43.04607564395206" lon="11.601175810795139"><ele>453.0</ele><time>2026-04-11T16:41:27Z</time></trkpt><trkpt lat="43.04601004546885" lon="11.601135900972851"><ele>452.99999999999994</ele><time>2026-04-11T16:41:31Z</time></trkpt><trkpt lat="43.045946268509326" lon="11.601097244725382"><ele>452.99999999999994</ele><time>2026-04-11T16:41:35Z</time></trkpt><trkpt lat="43.04588384549054" lon="11.601063652740283"><ele>453.0</ele><time>2026-04-11T16:41:39Z</time></trkpt><trkpt lat="43.04581635577846" lon="11.601036852883839"><ele>452.99999999999994</ele><time>2026-04-11T16:41:44Z</time></trkpt><trkpt lat="43.04575775019019" lon="11.600998381438806"><ele>452.99999999999994</ele><time>2026-04-11T16:41:48Z</time></trkpt><trkpt lat="43.04569450735162" lon="11.600955619813426"><ele>454.8571428571428</ele><time>2026-04-11T16:41:52Z</time></trkpt><trkpt lat="43.045630412172905" lon="11.60092834197825"><ele>456.71428571428567</ele><time>2026-04-11T16:41:56Z</time></trkpt><trkpt lat="43.04555753555107" lon="11.600886582730505"><ele>458.57142857142856</ele><time>2026-04-11T16:42:01Z</time></trkpt><trkpt lat="43.045487999632236" lon="11.600857526954098"><ele>460.4285714285714</ele><time>2026-04-11T16:42:05Z</time></trkpt><trkpt lat="43.045410817054425" lon="11.600801551416799"><ele>462.2857142857142</ele><time>2026-04-11T16:42:10Z</time></trkpt><trkpt lat="43.04534637491571" lon="11.600771065126612"><ele>464.14285714285717</ele><time>2026-04-11T16:42:14Z</time></trkpt><trkpt lat="43.04528374466717" lon="11.600782639869832"><ele>466.0</ele><time>2026-04-11T16:42:18Z</time></trkpt><trkpt lat="43.045223859522245" lon="11.600752474506633"><ele>466.0</ele><time>2026-04-11T16:42:22Z</time></trkpt><trkpt lat="43.0451590194108" lon="11.600741476618802"><ele>466.0</ele><time>2026-04-11T16:42:26Z</time></trkpt><trkpt lat="43.04509247995987" lon="11.600706995537344"><ele>466.0</ele><time>2026-04-11T16:42:31Z</time></trkpt><trkpt lat="43.045029807723964" lon="11.600685335659044"><ele>466.0</ele><time>2026-04-11T16:42:35Z</time></trkpt><trkpt lat="43.04496473735479" lon="11.600674391334051"><ele>466.0</ele><time>2026-04-11T16:42:39Z</time></trkpt><trkpt lat="43.044897665973416" lon="11.600653919744547"><ele>466.0</ele><time>2026-04-11T16:42:43Z</time></trkpt><trkpt lat="43.04482340229973" lon="11.600632121876862"><ele>466.0</ele><time>2026-04-11T16:42:49Z</time></trkpt><trkpt lat="43.044756806407406" lon="11.600625334755527"><ele>466.7142857142857</ele><time>2026-04-11T16:42:52Z</time></trkpt><trkpt lat="43.04468714215177" lon="11.600615672654342"><ele>467.42857142857144</ele><time>2026-04-11T16:42:55Z</time></trkpt><trkpt lat="43.04461464435945" lon="11.600614544877315"><ele>468.14285714285717</ele><time>2026-04-11T16:42:58Z</time></trkpt><trkpt lat="43.0445408576153" lon="11.600606332377573"><ele>468.8571428571429</ele><time>2026-04-11T16:43:01Z</time></trkpt><trkpt lat="43.04447095285316" lon="11.600598871436397"><ele>469.57142857142856</ele><time>2026-04-11T16:43:04Z</time></trkpt><trkpt lat="43.04439604375465" lon="11.600589906203677"><ele>470.28571428571433</ele><time>2026-04-11T16:43:07Z</time></trkpt><trkpt lat="43.044324569644814" lon="11.600588638736951"><ele>471.00000000000006</ele><time>2026-04-11T16:43:10Z</time></trkpt><trkpt lat="43.04425215211647" lon="11.600599050405151"><ele>471.00000000000006</ele><time>2026-04-11T16:43:13Z</time></trkpt><trkpt lat="43.04417590786941" lon="11.600597750255826"><ele>471.0</ele><time>2026-04-11T16:43:16Z</time></trkpt><trkpt lat="43.044103631626314" lon="11.600593845098803"><ele>471.00000000000006</ele><time>2026-04-11T16:43:19Z</time></trkpt><trkpt lat="43.04402325655027" lon="11.600601816635193"><ele>471.00000000000006</ele><time>2026-04-11T16:43:22Z</time></trkpt><trkpt lat="43.04395065436497" lon="11.600594127677555"><ele>471.0</ele><time>2026-04-11T16:43:25Z</time></trkpt><trkpt lat="43.04387802590772" lon="11.600602817127314"><ele>471.00000000000006</ele><time>2026-04-11T16:43:28Z</time></trkpt><trkpt lat="43.04380739904331" lon="11.600605546915643"><ele>471.00000000000006</ele><time>2026-04-11T16:43:31Z</time></trkpt><trkpt lat="43.04373480286666" lon="11.600607916339944"><ele>471.7142857142858</ele><time>2026-04-11T16:43:34Z</time></trkpt><trkpt lat="43.04366179141922" lon="11.600611701549802"><ele>472.42857142857144</ele><time>2026-04-11T16:43:37Z</time></trkpt><trkpt lat="43.04358774544766" lon="11.600621223855361"><ele>473.14285714285717</ele><time>2026-04-11T16:43:40Z</time></trkpt><trkpt lat="43.04351985447266" lon="11.600614515210268"><ele>473.8571428571429</ele><time>2026-04-11T16:43:43Z</time></trkpt><trkpt lat="43.043450150209345" lon="11.600615770187432"><ele>474.57142857142856</ele><time>2026-04-11T16:43:46Z</time></trkpt><trkpt lat="43.043386316439154" lon="11.600607269656189"><ele>475.2857142857143</ele><time>2026-04-11T16:43:49Z</time></trkpt><trkpt lat="43.04331781917013" lon="11.600601831038238"><ele>476.0</ele><time>2026-04-11T16:43:52Z</time></trkpt><trkpt lat="43.043237195014555" lon="11.600608082740804"><ele>476.8571428571429</ele><time>2026-04-11T16:43:56Z</time></trkpt><trkpt lat="43.04317434709385" lon="11.60059956125791"><ele>477.7142857142857</ele><time>2026-04-11T16:43:59Z</time></trkpt><trkpt lat="43.043106474518495" lon="11.600597479988886"><ele>478.57142857142856</ele><time>2026-04-11T16:44:02Z</time></trkpt><trkpt lat="43.04302514632926" lon="11.60058284983367"><ele>479.42857142857144</ele><time>2026-04-11T16:44:06Z</time></trkpt><trkpt lat="43.042962898846454" lon="11.600554334457291"><ele>480.28571428571433</ele><time>2026-04-11T16:44:09Z</time></trkpt><trkpt lat="43.04288805147816" lon="11.600513223499243"><ele>481.14285714285717</ele><time>2026-04-11T16:44:16Z</time></trkpt><trkpt lat="43.0428328725056" lon="11.600466388650897"><ele>482.0</ele><time>2026-04-11T16:44:19Z</time></trkpt><trkpt lat="43.04276994563088" lon="11.60042480195611"><ele>482.0</ele><time>2026-04-11T16:44:22Z</time></trkpt><trkpt lat="43.04271608791733" lon="11.600378426884657"><ele>482.00000000000006</ele><time>2026-04-11T16:44:25Z</time></trkpt><trkpt lat="43.04265171934964" lon="11.600326616942837"><ele>482.0</ele><time>2026-04-11T16:44:29Z</time></trkpt><trkpt lat="43.0425865231763" lon="11.600268341649581"><ele>482.0</ele><time>2026-04-11T16:44:33Z</time></trkpt><trkpt lat="43.0425281253528" lon="11.600215003950462"><ele>482.00000000000006</ele><time>2026-04-11T16:44:37Z</time></trkpt><trkpt lat="43.04246624448622" lon="11.600170193956663"><ele>482.0</ele><time>2026-04-11T16:44:41Z</time></trkpt><trkpt lat="43.042408634903936" lon="11.600127342473602"><ele>482.0</ele><time>2026-04-11T16:44:45Z</time></trkpt><trkpt lat="43.042349668540055" lon="11.600087187194049"><ele>483.8571428571429</ele><time>2026-04-11T16:44:49Z</time></trkpt><trkpt lat="43.04229116320971" lon="11.600040876207688"><ele>485.7142857142858</ele><time>2026-04-11T16:44:53Z</time></trkpt><trkpt lat="43.04223463212494" lon="11.599995616174924"><ele>487.57142857142856</ele><time>2026-04-11T16:44:57Z</time></trkpt><trkpt lat="43.04217715486975" lon="11.59995373287052"><ele>489.42857142857144</ele><time>2026-04-11T16:45:01Z</time></trkpt><trkpt lat="43.04211919234554" lon="11.599918802678562"><ele>491.2857142857143</ele><time>2026-04-11T16:45:05Z</time></trkpt><trkpt lat="43.04204877412041" lon="11.5998720467489"><ele>493.1428571428571</ele><time>2026-04-11T16:45:10Z</time></trkpt><trkpt lat="43.04199020201386" lon="11.599839800845965"><ele>494.99999999999994</ele><time>2026-04-11T16:45:14Z</time></trkpt><trkpt lat="43.04193009203061" lon="11.599813794995425"><ele>494.99999999999994</ele><time>2026-04-11T16:45:18Z</time></trkpt><trkpt lat="43.04186619008221" lon="11.599778837313464"><ele>495.0</ele><time>2026-04-11T16:45:22Z</time></trkpt><trkpt lat="43.041800405133465" lon="11.599751202319656"><ele>494.99999999999994</ele><time>2026-04-11T16:45:26Z</time></trkpt><trkpt lat="43.04173490529698" lon="11.599722206060004"><ele>494.99999999999994</ele><time>2026-04-11T16:45:30Z</time></trkpt><trkpt lat="43.04166794484059" lon="11.599698634076763"><ele>495.0</ele><time>2026-04-11T16:45:34Z</time></trkpt><trkpt lat="43.041602658514584" lon="11.599683780446716"><ele>494.99999999999994</ele><time>2026-04-11T16:45:38Z</time></trkpt><trkpt lat="43.04152582013435" lon="11.5996654307676"><ele>494.99999999999994</ele><time>2026-04-11T16:45:43Z</time></trkpt><trkpt lat="43.04144928529339" lon="11.599636140869324"><ele>495.99999999999994</ele><time>2026-04-11T16:45:48Z</time></trkpt><trkpt lat="43.04139397364007" lon="11.599594866153764"><ele>497.0</ele><time>2026-04-11T16:45:54Z</time></trkpt><trkpt lat="43.0413626280704" lon="11.599674529267986"><ele>497.99999999999994</ele><time>2026-04-11T16:47:39Z</time></trkpt><trkpt lat="43.04130463437356" lon="11.599744986190974"><ele>498.99999999999994</ele><time>2026-04-11T16:47:43Z</time></trkpt><trkpt lat="43.041236137255915" lon="11.599803174459538"><ele>500.0</ele><time>2026-04-11T16:47:48Z</time></trkpt><trkpt lat="43.04116171831651" lon="11.599838270983827"><ele>500.99999999999994</ele><time>2026-04-11T16:47:52Z</time></trkpt><trkpt lat="43.041095675572365" lon="11.599879253337441"><ele>501.99999999999994</ele><time>2026-04-11T16:47:55Z</time></trkpt><trkpt lat="43.041036854015466" lon="11.599922973470449"><ele>501.99999999999994</ele><time>2026-04-11T16:47:58Z</time></trkpt><trkpt lat="43.04096945579618" lon="11.599957063792981"><ele>502.0</ele><time>2026-04-11T16:48:01Z</time></trkpt><trkpt lat="43.04091201583949" lon="11.59999695392615"><ele>501.99999999999994</ele><time>2026-04-11T16:48:04Z</time></trkpt><trkpt lat="43.04084938459194" lon="11.600049898711262"><ele>501.99999999999994</ele><time>2026-04-11T16:48:07Z</time></trkpt><trkpt lat="43.040782733189296" lon="11.600084674700865"><ele>502.0</ele><time>2026-04-11T16:48:10Z</time></trkpt><trkpt lat="43.04071430327935" lon="11.600131904661367"><ele>501.99999999999994</ele><time>2026-04-11T16:48:13Z</time></trkpt><trkpt lat="43.04064741907741" lon="11.600181157975593"><ele>501.99999999999994</ele><time>2026-04-11T16:48:16Z</time></trkpt><trkpt lat="43.04057713219224" lon="11.600235117753293"><ele>503.00000000000006</ele><time>2026-04-11T16:48:19Z</time></trkpt><trkpt lat="43.040504385232474" lon="11.600310054586295"><ele>504.0</ele><time>2026-04-11T16:48:22Z</time></trkpt><trkpt lat="43.040438475620014" lon="11.600381216146134"><ele>505.0</ele><time>2026-04-11T16:48:25Z</time></trkpt><trkpt lat="43.04037455351447" lon="11.600451007315499"><ele>506.0</ele><time>2026-04-11T16:48:28Z</time></trkpt><trkpt lat="43.04031507357813" lon="11.60052400094534"><ele>507.00000000000006</ele><time>2026-04-11T16:48:31Z</time></trkpt><trkpt lat="43.04025857867643" lon="11.60060578812854"><ele>508.0</ele><time>2026-04-11T16:48:34Z</time></trkpt><trkpt lat="43.04020598627485" lon="11.600684351050008"><ele>508.0</ele><time>2026-04-11T16:48:37Z</time></trkpt><trkpt lat="43.04015774451154" lon="11.6007459809297"><ele>508.0</ele><time>2026-04-11T16:48:40Z</time></trkpt><trkpt lat="43.04010976031389" lon="11.600821053494961"><ele>508.0</ele><time>2026-04-11T16:48:43Z</time></trkpt><trkpt lat="43.04004478770155" lon="11.600860432338857"><ele>508.0</ele><time>2026-04-11T16:48:46Z</time></trkpt><trkpt lat="43.03999116331975" lon="11.60093301506081"><ele>508.0</ele><time>2026-04-11T16:48:49Z</time></trkpt><trkpt lat="43.03994073685708" lon="11.601015474040539"><ele>508.0</ele><time>2026-04-11T16:48:52Z</time></trkpt><trkpt lat="43.039884187392225" lon="11.601094505314038"><ele>508.0</ele><time>2026-04-11T16:48:55Z</time></trkpt><trkpt lat="43.03983049477812" lon="11.601177193024848"><ele>508.00000000000006</ele><time>2026-04-11T16:48:58Z</time></trkpt><trkpt lat="43.03978949785302" lon="11.601275980163892"><ele>508.0</ele><time>2026-04-11T16:49:01Z</time></trkpt><trkpt lat="43.0397604518575" lon="11.601356528388221"><ele>508.0</ele><time>2026-04-11T16:49:03Z</time></trkpt><trkpt lat="43.039738120380996" lon="11.60143934050876"><ele>508.0</ele><time>2026-04-11T16:49:05Z</time></trkpt><trkpt lat="43.0397008279293" lon="11.60153481222999"><ele>508.00000000000006</ele><time>2026-04-11T16:49:08Z</time></trkpt><trkpt lat="43.039666546512" lon="11.601645076255183"><ele>508.0</ele><time>2026-04-11T16:49:11Z</time></trkpt><trkpt lat="43.03964011369162" lon="11.601758354984677"><ele>508.00000000000006</ele><time>2026-04-11T16:49:14Z</time></trkpt><trkpt lat="43.0396219574492" lon="11.601873716866809"><ele>508.0</ele><time>2026-04-11T16:49:17Z</time></trkpt><trkpt lat="43.0396013955818" lon="11.60198838477502"><ele>508.0</ele><time>2026-04-11T16:49:20Z</time></trkpt><trkpt lat="43.03958724396666" lon="11.602102553648038"><ele>508.0</ele><time>2026-04-11T16:49:23Z</time></trkpt><trkpt lat="43.039564997589224" lon="11.602222291140878"><ele>508.00000000000006</ele><time>2026-04-11T16:49:26Z</time></trkpt><trkpt lat="43.03955773272828" lon="11.602312575822584"><ele>508.0</ele><time>2026-04-11T16:49:28Z</time></trkpt><trkpt lat="43.039542975125286" lon="11.602404460039933"><ele>508.6666666666667</ele><time>2026-04-11T16:49:30Z</time></trkpt><trkpt lat="43.039500314215914" lon="11.60249803789701"><ele>509.33333333333337</ele><time>2026-04-11T16:49:32Z</time></trkpt><trkpt lat="43.03947460767219" lon="11.60259583763983"><ele>510.0</ele><time>2026-04-11T16:49:34Z</time></trkpt><trkpt lat="43.03943913488653" lon="11.602699548190342"><ele>510.66666666666663</ele><time>2026-04-11T16:49:36Z</time></trkpt><trkpt lat="43.0393984803377" lon="11.6028019997949"><ele>511.3333333333333</ele><time>2026-04-11T16:49:38Z</time></trkpt><trkpt lat="43.0393521231086" lon="11.602904828281822"><ele>512.0</ele><time>2026-04-11T16:49:40Z</time></trkpt><trkpt lat="43.03930317055328" lon="11.603020535123594"><ele>511.20000000000005</ele><time>2026-04-11T16:49:42Z</time></trkpt><trkpt lat="43.039256506897765" lon="11.60311769098056"><ele>510.40000000000003</ele><time>2026-04-11T16:49:44Z</time></trkpt><trkpt lat="43.03919928911826" lon="11.60319826213844"><ele>509.59999999999997</ele><time>2026-04-11T16:49:46Z</time></trkpt><trkpt lat="43.03913421036593" lon="11.603308203125037"><ele>508.79999999999995</ele><time>2026-04-11T16:49:48Z</time></trkpt><trkpt lat="43.03906365505979" lon="11.603408988191939"><ele>508.0</ele><time>2026-04-11T16:49:50Z</time></trkpt><trkpt lat="43.03899158322113" lon="11.603516073302947"><ele>508.0</ele><time>2026-04-11T16:49:52Z</time></trkpt><trkpt lat="43.038911016556895" lon="11.60362552946476"><ele>507.99999999999994</ele><time>2026-04-11T16:49:54Z</time></trkpt><trkpt lat="43.0388439638694" lon="11.603722541638296"><ele>507.99999999999994</ele><time>2026-04-11T16:49:56Z</time></trkpt><trkpt lat="43.03876430465713" lon="11.60379911154245"><ele>508.0</ele><time>2026-04-11T16:49:58Z</time></trkpt><trkpt lat="43.038695267277575" lon="11.603907851010394"><ele>508.0</ele><time>2026-04-11T16:50:00Z</time></trkpt><trkpt lat="43.0386398338254" lon="11.604012280852425"><ele>509.2</ele><time>2026-04-11T16:50:02Z</time></trkpt><trkpt lat="43.03860173630421" lon="11.604128186301043"><ele>510.4</ele><time>2026-04-11T16:50:04Z</time></trkpt><trkpt lat="43.03857568240476" lon="11.604255279493708"><ele>511.59999999999997</ele><time>2026-04-11T16:50:06Z</time></trkpt><trkpt lat="43.038554552161955" lon="11.604363230543276"><ele>512.8</ele><time>2026-04-11T16:50:08Z</time></trkpt><trkpt lat="43.03852702766681" lon="11.604485852445094"><ele>514.0</ele><time>2026-04-11T16:50:10Z</time></trkpt><trkpt lat="43.03849472968652" lon="11.60463545316463"><ele>514.3333333333334</ele><time>2026-04-11T16:50:12Z</time></trkpt><trkpt lat="43.03848010995361" lon="11.604722436371048"><ele>514.6666666666667</ele><time>2026-04-11T16:50:13Z</time></trkpt><trkpt lat="43.03846784367966" lon="11.604813080105314"><ele>515.0</ele><time>2026-04-11T16:50:14Z</time></trkpt><trkpt lat="43.03845670830093" lon="11.604902563777646"><ele>515.3333333333334</ele><time>2026-04-11T16:50:15Z</time></trkpt><trkpt lat="43.03844168786345" lon="11.60505231678527"><ele>515.6666666666666</ele><time>2026-04-11T16:50:17Z</time></trkpt><trkpt lat="43.03842682148613" lon="11.605197713822895"><ele>516.0</ele><time>2026-04-11T16:50:19Z</time></trkpt><trkpt lat="43.03840962405708" lon="11.605356227060918"><ele>516.1666666666666</ele><time>2026-04-11T16:50:21Z</time></trkpt><trkpt lat="43.03841664204825" lon="11.605445387664078"><ele>516.3333333333334</ele><time>2026-04-11T16:50:22Z</time></trkpt><trkpt lat="43.03838866624752" lon="11.605535033048774"><ele>516.5</ele><time>2026-04-11T16:50:23Z</time></trkpt><trkpt lat="43.038374541461344" lon="11.605627673055816"><ele>516.6666666666667</ele><time>2026-04-11T16:50:24Z</time></trkpt><trkpt lat="43.038357098034155" lon="11.605712374390276"><ele>516.8333333333334</ele><time>2026-04-11T16:50:25Z</time></trkpt><trkpt lat="43.03832302949146" lon="11.605866420198092"><ele>517.0</ele><time>2026-04-11T16:50:27Z</time></trkpt><trkpt lat="43.03824456503478" lon="11.605974452772477"><ele>515.0</ele><time>2026-04-11T16:50:29Z</time></trkpt><trkpt lat="43.03814157108727" lon="11.606050038812693"><ele>513.0</ele><time>2026-04-11T16:50:31Z</time></trkpt><trkpt lat="43.03802472548153" lon="11.606093083132771"><ele>511.0</ele><time>2026-04-11T16:50:33Z</time></trkpt><trkpt lat="43.037956579548876" lon="11.606102103602902"><ele>509.0</ele><time>2026-04-11T16:50:34Z</time></trkpt><trkpt lat="43.037885447431364" lon="11.606114346557689"><ele>507.00000000000006</ele><time>2026-04-11T16:50:35Z</time></trkpt><trkpt lat="43.037817344456116" lon="11.606123668266193"><ele>505.0</ele><time>2026-04-11T16:50:36Z</time></trkpt><trkpt lat="43.03774912774607" lon="11.606121851127131"><ele>505.0</ele><time>2026-04-11T16:50:37Z</time></trkpt><trkpt lat="43.037679933849994" lon="11.606131968600412"><ele>505.0</ele><time>2026-04-11T16:50:38Z</time></trkpt><trkpt lat="43.037614667104236" lon="11.606138738574256"><ele>505.0</ele><time>2026-04-11T16:50:39Z</time></trkpt><trkpt lat="43.03749082077915" lon="11.606155825802736"><ele>505.0</ele><time>2026-04-11T16:50:41Z</time></trkpt><trkpt lat="43.03737437576678" lon="11.606179364989245"><ele>505.0</ele><time>2026-04-11T16:50:43Z</time></trkpt><trkpt lat="43.037266023288275" lon="11.60619484011633"><ele>501.75</ele><time>2026-04-11T16:50:45Z</time></trkpt><trkpt lat="43.037156919612876" lon="11.606217630446558"><ele>498.5</ele><time>2026-04-11T16:50:47Z</time></trkpt><trkpt lat="43.03704655556637" lon="11.606233698524171"><ele>495.25</ele><time>2026-04-11T16:50:49Z</time></trkpt><trkpt lat="43.03693024457153" lon="11.606262940266266"><ele>492.0</ele><time>2026-04-11T16:50:51Z</time></trkpt><trkpt lat="43.03681706022968" lon="11.606347997057922"><ele>492.0</ele><time>2026-04-11T16:50:53Z</time></trkpt><trkpt lat="43.036768366002725" lon="11.6064026327913"><ele>492.0</ele><time>2026-04-11T16:50:54Z</time></trkpt><trkpt lat="43.036721985375046" lon="11.60646191715523"><ele>492.0</ele><time>2026-04-11T16:50:55Z</time></trkpt><trkpt lat="43.036641516120845" lon="11.60658039525438"><ele>492.0</ele><time>2026-04-11T16:50:57Z</time></trkpt><trkpt lat="43.03661126179528" lon="11.606660652021759"><ele>492.0</ele><time>2026-04-11T16:50:58Z</time></trkpt><trkpt lat="43.03656818504404" lon="11.60681024497051"><ele>492.0</ele><time>2026-04-11T16:51:00Z</time></trkpt><trkpt lat="43.03652854730034" lon="11.606969175078325"><ele>488.20000000000005</ele><time>2026-04-11T16:51:02Z</time></trkpt><trkpt lat="43.03650243917307" lon="11.607124802998719"><ele>484.40000000000003</ele><time>2026-04-11T16:51:04Z</time></trkpt><trkpt lat="43.036491597278804" lon="11.607262917525317"><ele>480.59999999999997</ele><time>2026-04-11T16:51:06Z</time></trkpt><trkpt lat="43.036478210465454" lon="11.607360733003313"><ele>476.79999999999995</ele><time>2026-04-11T16:51:08Z</time></trkpt><trkpt lat="43.036429550940575" lon="11.607466845599465"><ele>473.0</ele><time>2026-04-11T16:51:11Z</time></trkpt><trkpt lat="43.03633034630929" lon="11.607512978136159"><ele>472.99999999999994</ele><time>2026-04-11T16:51:13Z</time></trkpt><trkpt lat="43.03623092788829" lon="11.607551267463531"><ele>473.0</ele><time>2026-04-11T16:51:15Z</time></trkpt><trkpt lat="43.03614658426242" lon="11.607593189974752"><ele>473.0</ele><time>2026-04-11T16:51:17Z</time></trkpt><trkpt lat="43.0360609678457" lon="11.60767438195214"><ele>473.0</ele><time>2026-04-11T16:51:19Z</time></trkpt><trkpt lat="43.03602014325896" lon="11.607746320439178"><ele>472.99999999999994</ele><time>2026-04-11T16:51:20Z</time></trkpt><trkpt lat="43.03599347116365" lon="11.607824785272056"><ele>473.0</ele><time>2026-04-11T16:51:21Z</time></trkpt><trkpt lat="43.03599335893368" lon="11.607921777498987"><ele>473.66666666666663</ele><time>2026-04-11T16:51:22Z</time></trkpt><trkpt lat="43.03597625096582" lon="11.608010389929984"><ele>474.3333333333333</ele><time>2026-04-11T16:51:23Z</time></trkpt><trkpt lat="43.03596438910152" lon="11.608179774046468"><ele>475.0</ele><time>2026-04-11T16:51:25Z</time></trkpt><trkpt lat="43.0359580353078" lon="11.608270467887339"><ele>475.66666666666663</ele><time>2026-04-11T16:51:26Z</time></trkpt><trkpt lat="43.03594807940399" lon="11.608363337589148"><ele>476.3333333333333</ele><time>2026-04-11T16:51:27Z</time></trkpt><trkpt lat="43.03595200889573" lon="11.608452836123455"><ele>477.0</ele><time>2026-04-11T16:51:28Z</time></trkpt><trkpt lat="43.035899721404434" lon="11.608581051447484"><ele>477.0</ele><time>2026-04-11T16:51:30Z</time></trkpt><trkpt lat="43.03582841324175" lon="11.608655177535557"><ele>477.00000000000006</ele><time>2026-04-11T16:51:32Z</time></trkpt><trkpt lat="43.0357412966965" lon="11.608750074868283"><ele>477.00000000000006</ele><time>2026-04-11T16:51:34Z</time></trkpt><trkpt lat="43.03570731901542" lon="11.608857307881443"><ele>477.0</ele><time>2026-04-11T16:51:36Z</time></trkpt><trkpt lat="43.035718412390565" lon="11.609016894169018"><ele>477.0</ele><time>2026-04-11T16:51:38Z</time></trkpt><trkpt lat="43.035732792559514" lon="11.60914053415359"><ele>473.3333333333333</ele><time>2026-04-11T16:51:40Z</time></trkpt><trkpt lat="43.0357573650894" lon="11.60931400710749"><ele>469.66666666666663</ele><time>2026-04-11T16:51:43Z</time></trkpt><trkpt lat="43.03576286354732" lon="11.609414273215386"><ele>466.0</ele><time>2026-04-11T16:51:45Z</time></trkpt><trkpt lat="43.03576137916147" lon="11.609512020452636"><ele>462.3333333333333</ele><time>2026-04-11T16:51:47Z</time></trkpt><trkpt lat="43.035725767394254" lon="11.609594809211554"><ele>458.66666666666663</ele><time>2026-04-11T16:51:49Z</time></trkpt><trkpt lat="43.03564045523919" lon="11.609621966016546"><ele>455.0</ele><time>2026-04-11T16:51:52Z</time></trkpt><trkpt lat="43.035568525326674" lon="11.609633677142465"><ele>454.0</ele><time>2026-04-11T16:51:54Z</time></trkpt><trkpt lat="43.03549597271488" lon="11.609654353113035"><ele>453.0</ele><time>2026-04-11T16:51:56Z</time></trkpt><trkpt lat="43.035419956559" lon="11.609662896014967"><ele>452.0</ele><time>2026-04-11T16:51:58Z</time></trkpt><trkpt lat="43.03531583942759" lon="11.6096500032031"><ele>451.0</ele><time>2026-04-11T16:52:00Z</time></trkpt><trkpt lat="43.035204113378214" lon="11.60963606945223"><ele>450.0</ele><time>2026-04-11T16:52:02Z</time></trkpt><trkpt lat="43.03508151297223" lon="11.609641724212329"><ele>450.00000000000006</ele><time>2026-04-11T16:52:04Z</time></trkpt><trkpt lat="43.03501651139998" lon="11.609655892036256"><ele>450.0</ele><time>2026-04-11T16:52:05Z</time></trkpt><trkpt lat="43.03495950695003" lon="11.609698203271575"><ele>450.00000000000006</ele><time>2026-04-11T16:52:06Z</time></trkpt><trkpt lat="43.03489336261185" lon="11.609743665583647"><ele>450.00000000000006</ele><time>2026-04-11T16:52:07Z</time></trkpt><trkpt lat="43.03482669517123" lon="11.609791760607722"><ele>450.0</ele><time>2026-04-11T16:52:08Z</time></trkpt><trkpt lat="43.034758307793105" lon="11.609845967675517"><ele>450.00000000000006</ele><time>2026-04-11T16:52:09Z</time></trkpt><trkpt lat="43.03469598764825" lon="11.609913322981681"><ele>450.00000000000006</ele><time>2026-04-11T16:52:10Z</time></trkpt><trkpt lat="43.03463210564391" lon="11.609967856098146"><ele>449.8333333333333</ele><time>2026-04-11T16:52:11Z</time></trkpt><trkpt lat="43.03457162291152" lon="11.610042950389534"><ele>449.66666666666663</ele><time>2026-04-11T16:52:12Z</time></trkpt><trkpt lat="43.034515483690676" lon="11.610116903465954"><ele>449.5</ele><time>2026-04-11T16:52:13Z</time></trkpt><trkpt lat="43.034458349805234" lon="11.610186414229664"><ele>449.3333333333333</ele><time>2026-04-11T16:52:14Z</time></trkpt><trkpt lat="43.03440382479665" lon="11.610249219726418"><ele>449.16666666666663</ele><time>2026-04-11T16:52:15Z</time></trkpt><trkpt lat="43.03434419585493" lon="11.610307473013634"><ele>449.0</ele><time>2026-04-11T16:52:16Z</time></trkpt><trkpt lat="43.03429572702134" lon="11.610375974833275"><ele>448.16666666666663</ele><time>2026-04-11T16:52:17Z</time></trkpt><trkpt lat="43.03424661992387" lon="11.610431475113156"><ele>447.3333333333333</ele><time>2026-04-11T16:52:18Z</time></trkpt><trkpt lat="43.03416508350362" lon="11.610500016156688"><ele>446.5</ele><time>2026-04-11T16:52:20Z</time></trkpt><trkpt lat="43.03410450617516" lon="11.61056752272616"><ele>445.66666666666663</ele><time>2026-04-11T16:52:22Z</time></trkpt><trkpt lat="43.034069939924116" lon="11.61065047283538"><ele>444.8333333333333</ele><time>2026-04-11T16:52:24Z</time></trkpt><trkpt lat="43.03405788151508" lon="11.610747832802415"><ele>444.0</ele><time>2026-04-11T16:52:26Z</time></trkpt><trkpt lat="43.03403355207411" lon="11.610857451250865"><ele>442.5</ele><time>2026-04-11T16:52:28Z</time></trkpt><trkpt lat="43.03401615747066" lon="11.6109764200752"><ele>441.0</ele><time>2026-04-11T16:52:30Z</time></trkpt><trkpt lat="43.033996402107206" lon="11.611102179937523"><ele>439.5</ele><time>2026-04-11T16:52:32Z</time></trkpt><trkpt lat="43.033979382922816" lon="11.611215205649586"><ele>438.0</ele><time>2026-04-11T16:52:34Z</time></trkpt><trkpt lat="43.03396292298528" lon="11.611340968551666"><ele>436.5</ele><time>2026-04-11T16:52:36Z</time></trkpt><trkpt lat="43.03394992646835" lon="11.61144026907109"><ele>435.0</ele><time>2026-04-11T16:52:38Z</time></trkpt><trkpt lat="43.033952335738945" lon="11.611542961439469"><ele>433.6666666666667</ele><time>2026-04-11T16:52:40Z</time></trkpt><trkpt lat="43.03392386913947" lon="11.61163936123577"><ele>432.33333333333337</ele><time>2026-04-11T16:52:42Z</time></trkpt><trkpt lat="43.033909570634734" lon="11.611748609681607"><ele>431.0</ele><time>2026-04-11T16:52:44Z</time></trkpt><trkpt lat="43.033895544019884" lon="11.611855783759037"><ele>429.6666666666667</ele><time>2026-04-11T16:52:46Z</time></trkpt><trkpt lat="43.0338821027404" lon="11.611945330122001"><ele>428.33333333333337</ele><time>2026-04-11T16:52:48Z</time></trkpt><trkpt lat="43.033868037543236" lon="11.6120437867322"><ele>427.0</ele><time>2026-04-11T16:52:51Z</time></trkpt><trkpt lat="43.03385274363392" lon="11.612150844334348"><ele>426.8</ele><time>2026-04-11T16:52:53Z</time></trkpt><trkpt lat="43.033838706726826" lon="11.612276158173286"><ele>426.6</ele><time>2026-04-11T16:52:55Z</time></trkpt><trkpt lat="43.03383507837285" lon="11.612399350981939"><ele>426.40000000000003</ele><time>2026-04-11T16:52:57Z</time></trkpt><trkpt lat="43.03383758679354" lon="11.612524246530903"><ele>426.20000000000005</ele><time>2026-04-11T16:52:59Z</time></trkpt><trkpt lat="43.033837876800185" lon="11.612642814101964"><ele>426.0</ele><time>2026-04-11T16:53:01Z</time></trkpt><trkpt lat="43.033829992507506" lon="11.61276857259639"><ele>424.6</ele><time>2026-04-11T16:53:03Z</time></trkpt><trkpt lat="43.03382807509289" lon="11.612899748681457"><ele>423.20000000000005</ele><time>2026-04-11T16:53:05Z</time></trkpt><trkpt lat="43.03382371522335" lon="11.613042806394082"><ele>421.79999999999995</ele><time>2026-04-11T16:53:07Z</time></trkpt><trkpt lat="43.03382071237882" lon="11.613177088282272"><ele>420.4</ele><time>2026-04-11T16:53:09Z</time></trkpt><trkpt lat="43.033816173324325" lon="11.61331919000243"><ele>419.0</ele><time>2026-04-11T16:53:11Z</time></trkpt><trkpt lat="43.03381833822175" lon="11.61347045084213"><ele>419.0</ele><time>2026-04-11T16:53:13Z</time></trkpt><trkpt lat="43.03381915511624" lon="11.613610507728906"><ele>419.0</ele><time>2026-04-11T16:53:15Z</time></trkpt><trkpt lat="43.03381770906855" lon="11.613753736875301"><ele>419.0</ele><time>2026-04-11T16:53:17Z</time></trkpt><trkpt lat="43.033816871245115" lon="11.613888768033387"><ele>419.0</ele><time>2026-04-11T16:53:19Z</time></trkpt><trkpt lat="43.03381184614171" lon="11.614021089534814"><ele>419.0</ele><time>2026-04-11T16:53:21Z</time></trkpt><trkpt lat="43.03379934831449" lon="11.614146246989744"><ele>417.3333333333333</ele><time>2026-04-11T16:53:23Z</time></trkpt><trkpt lat="43.03378774239073" lon="11.614264148361519"><ele>415.66666666666663</ele><time>2026-04-11T16:53:25Z</time></trkpt><trkpt lat="43.033754687297005" lon="11.614350091747385"><ele>414.0</ele><time>2026-04-11T16:53:27Z</time></trkpt><trkpt lat="43.0337257195834" lon="11.614451813885227"><ele>412.33333333333337</ele><time>2026-04-11T16:53:29Z</time></trkpt><trkpt lat="43.03369077810165" lon="11.614551695853322"><ele>410.6666666666667</ele><time>2026-04-11T16:53:31Z</time></trkpt><trkpt lat="43.03364708964997" lon="11.614646277235556"><ele>409.0</ele><time>2026-04-11T16:53:33Z</time></trkpt><trkpt lat="43.03359049352414" lon="11.614752566982542"><ele>407.50000000000006</ele><time>2026-04-11T16:53:35Z</time></trkpt><trkpt lat="43.03353290030812" lon="11.614851700048627"><ele>406.0</ele><time>2026-04-11T16:53:37Z</time></trkpt><trkpt lat="43.03347021335035" lon="11.61495467976602"><ele>404.5</ele><time>2026-04-11T16:53:39Z</time></trkpt><trkpt lat="43.03341087830221" lon="11.615052153064827"><ele>403.0</ele><time>2026-04-11T16:53:41Z</time></trkpt><trkpt lat="43.03336076149006" lon="11.615134483063427"><ele>401.50000000000006</ele><time>2026-04-11T16:53:43Z</time></trkpt><trkpt lat="43.033312789814616" lon="11.61521431440482"><ele>400.0</ele><time>2026-04-11T16:53:45Z</time></trkpt><trkpt lat="43.033268426792894" lon="11.61529176922461"><ele>396.83333333333337</ele><time>2026-04-11T16:53:47Z</time></trkpt><trkpt lat="43.03322344657025" lon="11.615370301776744"><ele>393.6666666666667</ele><time>2026-04-11T16:53:49Z</time></trkpt><trkpt lat="43.03317159383227" lon="11.61546083318739"><ele>390.5</ele><time>2026-04-11T16:53:51Z</time></trkpt><trkpt lat="43.033123016780266" lon="11.615537162335945"><ele>387.33333333333337</ele><time>2026-04-11T16:53:53Z</time></trkpt><trkpt lat="43.03307143958016" lon="11.615608188409201"><ele>384.1666666666667</ele><time>2026-04-11T16:53:55Z</time></trkpt><trkpt lat="43.03300942676443" lon="11.615702263749235"><ele>381.0</ele><time>2026-04-11T16:53:58Z</time></trkpt><trkpt lat="43.032992243695716" lon="11.615804279809883"><ele>381.0</ele><time>2026-04-11T16:54:00Z</time></trkpt><trkpt lat="43.03294403099268" lon="11.615895098682328"><ele>381.0</ele><time>2026-04-11T16:54:02Z</time></trkpt><trkpt lat="43.03291618864247" lon="11.616010321524513"><ele>381.0</ele><time>2026-04-11T16:54:04Z</time></trkpt><trkpt lat="43.03287537155282" lon="11.616111031169977"><ele>381.0</ele><time>2026-04-11T16:54:06Z</time></trkpt><trkpt lat="43.0328530050363" lon="11.616241335032798"><ele>381.0</ele><time>2026-04-11T16:54:08Z</time></trkpt><trkpt lat="43.03280240415163" lon="11.61635637810527"><ele>380.20000000000005</ele><time>2026-04-11T16:54:10Z</time></trkpt><trkpt lat="43.03276654434628" lon="11.616505262364441"><ele>379.40000000000003</ele><time>2026-04-11T16:54:12Z</time></trkpt><trkpt lat="43.03273024179629" lon="11.616652244015086"><ele>378.6</ele><time>2026-04-11T16:54:14Z</time></trkpt><trkpt lat="43.03268219867766" lon="11.616808341990524"><ele>377.8</ele><time>2026-04-11T16:54:16Z</time></trkpt><trkpt lat="43.03265727906596" lon="11.6168903931562"><ele>377.0</ele><time>2026-04-11T16:54:17Z</time></trkpt><trkpt lat="43.03259815019504" lon="11.617042387831653"><ele>376.4285714285714</ele><time>2026-04-11T16:54:19Z</time></trkpt><trkpt lat="43.032585696855676" lon="11.617126851212177"><ele>375.85714285714283</ele><time>2026-04-11T16:54:20Z</time></trkpt><trkpt lat="43.03254282408805" lon="11.617194219489638"><ele>375.2857142857143</ele><time>2026-04-11T16:54:21Z</time></trkpt><trkpt lat="43.03251360115073" lon="11.617286422877918"><ele>374.71428571428567</ele><time>2026-04-11T16:54:22Z</time></trkpt><trkpt lat="43.03247372510348" lon="11.617361778128068"><ele>374.14285714285717</ele><time>2026-04-11T16:54:23Z</time></trkpt><trkpt lat="43.03243387200608" lon="11.61743339741165"><ele>373.57142857142856</ele><time>2026-04-11T16:54:24Z</time></trkpt><trkpt lat="43.03236701292919" lon="11.617558465453353"><ele>373.0</ele><time>2026-04-11T16:54:26Z</time></trkpt><trkpt lat="43.03230238316924" lon="11.61768394512666"><ele>370.4</ele><time>2026-04-11T16:54:28Z</time></trkpt><trkpt lat="43.03224827909186" lon="11.617825116345285"><ele>367.79999999999995</ele><time>2026-04-11T16:54:30Z</time></trkpt><trkpt lat="43.03217144289598" lon="11.617923947440778"><ele>365.2</ele><time>2026-04-11T16:54:32Z</time></trkpt><trkpt lat="43.03210023169481" lon="11.618033094519916"><ele>362.6</ele><time>2026-04-11T16:54:34Z</time></trkpt><trkpt lat="43.03201281378992" lon="11.6181176270581"><ele>360.0</ele><time>2026-04-11T16:54:36Z</time></trkpt><trkpt lat="43.031937059341125" lon="11.618227948792212"><ele>360.0</ele><time>2026-04-11T16:54:38Z</time></trkpt><trkpt lat="43.03190586447893" lon="11.61836305391835"><ele>360.0</ele><time>2026-04-11T16:54:40Z</time></trkpt><trkpt lat="43.03190210450232" lon="11.618483657135304"><ele>360.0</ele><time>2026-04-11T16:54:42Z</time></trkpt><trkpt lat="43.031911752975" lon="11.618607455880692"><ele>360.0</ele><time>2026-04-11T16:54:44Z</time></trkpt><trkpt lat="43.03189496328115" lon="11.618735798940122"><ele>360.0</ele><time>2026-04-11T16:54:46Z</time></trkpt><trkpt lat="43.0318617981421" lon="11.618866379635959"><ele>359.8333333333333</ele><time>2026-04-11T16:54:48Z</time></trkpt><trkpt lat="43.03180268415583" lon="11.618952269626199"><ele>359.6666666666667</ele><time>2026-04-11T16:54:50Z</time></trkpt><trkpt lat="43.03173356539175" lon="11.619023407900011"><ele>359.5</ele><time>2026-04-11T16:54:52Z</time></trkpt><trkpt lat="43.03167263206149" lon="11.619050258223382"><ele>359.33333333333337</ele><time>2026-04-11T16:54:54Z</time></trkpt><trkpt lat="43.031591709826856" lon="11.619053290264327"><ele>359.1666666666667</ele><time>2026-04-11T16:54:56Z</time></trkpt><trkpt lat="43.03150334601431" lon="11.619042833137685"><ele>359.0</ele><time>2026-04-11T16:54:58Z</time></trkpt><trkpt lat="43.03142757416072" lon="11.619027683942164"><ele>356.6666666666667</ele><time>2026-04-11T16:55:00Z</time></trkpt><trkpt lat="43.03136356830854" lon="11.618928831032044"><ele>354.33333333333337</ele><time>2026-04-11T16:55:02Z</time></trkpt><trkpt lat="43.03135159475599" lon="11.618793857332765"><ele>352.0</ele><time>2026-04-11T16:55:04Z</time></trkpt><trkpt lat="43.03131945519741" lon="11.618701608822466"><ele>349.6666666666667</ele><time>2026-04-11T16:55:07Z</time></trkpt><trkpt lat="43.031239888364496" lon="11.61863666266177"><ele>347.3333333333333</ele><time>2026-04-11T16:55:10Z</time></trkpt><trkpt lat="43.03116289088591" lon="11.618638987937556"><ele>345.0</ele><time>2026-04-11T16:55:12Z</time></trkpt><trkpt lat="43.03108421127637" lon="11.618664809446877"><ele>345.0</ele><time>2026-04-11T16:55:14Z</time></trkpt><trkpt lat="43.030991195727225" lon="11.618699471525257"><ele>345.0</ele><time>2026-04-11T16:55:16Z</time></trkpt><trkpt lat="43.030899952620736" lon="11.618735268442805"><ele>345.0</ele><time>2026-04-11T16:55:18Z</time></trkpt><trkpt lat="43.03081414169323" lon="11.618755234084063"><ele>345.0</ele><time>2026-04-11T16:55:20Z</time></trkpt><trkpt lat="43.03072839442763" lon="11.61877572182572"><ele>345.0</ele><time>2026-04-11T16:55:22Z</time></trkpt><trkpt lat="43.030639120358515" lon="11.618817892725046"><ele>341.8</ele><time>2026-04-11T16:55:24Z</time></trkpt><trkpt lat="43.030558277181086" lon="11.618901461623942"><ele>338.6</ele><time>2026-04-11T16:55:26Z</time></trkpt><trkpt lat="43.03049290802484" lon="11.618986832146252"><ele>335.4</ele><time>2026-04-11T16:55:28Z</time></trkpt><trkpt lat="43.03044180748451" lon="11.619109216012644"><ele>332.2</ele><time>2026-04-11T16:55:30Z</time></trkpt><trkpt lat="43.03042124357262" lon="11.619216361056111"><ele>329.0</ele><time>2026-04-11T16:55:32Z</time></trkpt><trkpt lat="43.0304003816195" lon="11.619334095055619"><ele>329.0</ele><time>2026-04-11T16:55:34Z</time></trkpt><trkpt lat="43.03041605141605" lon="11.619465032918956"><ele>329.0</ele><time>2026-04-11T16:55:36Z</time></trkpt><trkpt lat="43.030446516190906" lon="11.61960536366582"><ele>329.0</ele><time>2026-04-11T16:55:38Z</time></trkpt><trkpt lat="43.030488069195" lon="11.619731505124557"><ele>329.0</ele><time>2026-04-11T16:55:40Z</time></trkpt><trkpt lat="43.030509883458826" lon="11.61985269443562"><ele>329.0</ele><time>2026-04-11T16:55:42Z</time></trkpt><trkpt lat="43.03055309739745" lon="11.619994297284318"><ele>328.0</ele><time>2026-04-11T16:55:44Z</time></trkpt><trkpt lat="43.03057494957196" lon="11.620080054534649"><ele>327.0</ele><time>2026-04-11T16:55:45Z</time></trkpt><trkpt lat="43.030596594554474" lon="11.62023152008654"><ele>326.0</ele><time>2026-04-11T16:55:47Z</time></trkpt><trkpt lat="43.030595422491935" lon="11.620360740360978"><ele>325.0</ele><time>2026-04-11T16:55:49Z</time></trkpt><trkpt lat="43.0305765144336" lon="11.620466673783652"><ele>324.0</ele><time>2026-04-11T16:55:51Z</time></trkpt><trkpt lat="43.030562651224436" lon="11.62057785334262"><ele>323.0</ele><time>2026-04-11T16:55:53Z</time></trkpt><trkpt lat="43.03051649204842" lon="11.620667691193333"><ele>321.59999999999997</ele><time>2026-04-11T16:55:55Z</time></trkpt><trkpt lat="43.03044995236588" lon="11.620722422789951"><ele>320.2</ele><time>2026-04-11T16:55:57Z</time></trkpt><trkpt lat="43.03037421664876" lon="11.620732524771057"><ele>318.8</ele><time>2026-04-11T16:55:59Z</time></trkpt><trkpt lat="43.030286032065774" lon="11.620682682439387"><ele>317.4</ele><time>2026-04-11T16:56:01Z</time></trkpt><trkpt lat="43.030188976212926" lon="11.620610444257089"><ele>316.0</ele><time>2026-04-11T16:56:03Z</time></trkpt><trkpt lat="43.03007412777872" lon="11.620584932722156"><ele>316.0</ele><time>2026-04-11T16:56:05Z</time></trkpt><trkpt lat="43.03000985482765" lon="11.62059013425486"><ele>316.0</ele><time>2026-04-11T16:56:06Z</time></trkpt><trkpt lat="43.02990937649144" lon="11.62060866244696"><ele>316.0</ele><time>2026-04-11T16:56:08Z</time></trkpt><trkpt lat="43.02980121142527" lon="11.620632196491567"><ele>316.0</ele><time>2026-04-11T16:56:10Z</time></trkpt><trkpt lat="43.02967904101743" lon="11.62064792689948"><ele>316.0</ele><time>2026-04-11T16:56:12Z</time></trkpt><trkpt lat="43.02957081796258" lon="11.62065415884358"><ele>313.8</ele><time>2026-04-11T16:56:14Z</time></trkpt><trkpt lat="43.02945955212948" lon="11.620662345824899"><ele>311.6</ele><time>2026-04-11T16:56:16Z</time></trkpt><trkpt lat="43.029352308452985" lon="11.620649302608674"><ele>309.4</ele><time>2026-04-11T16:56:18Z</time></trkpt><trkpt lat="43.029265786409674" lon="11.620616898550205"><ele>307.2</ele><time>2026-04-11T16:56:20Z</time></trkpt><trkpt lat="43.02916432498131" lon="11.620571573984693"><ele>305.0</ele><time>2026-04-11T16:56:22Z</time></trkpt><trkpt lat="43.029053806330786" lon="11.620552524525356"><ele>302.5</ele><time>2026-04-11T16:56:24Z</time></trkpt><trkpt lat="43.02893786080335" lon="11.620560722154668"><ele>300.0</ele><time>2026-04-11T16:56:26Z</time></trkpt><trkpt lat="43.028843065311044" lon="11.620533957229766"><ele>297.5</ele><time>2026-04-11T16:56:28Z</time></trkpt><trkpt lat="43.02875200887336" lon="11.620436924863743"><ele>295.0</ele><time>2026-04-11T16:56:30Z</time></trkpt><trkpt lat="43.028655895300965" lon="11.620319189329303"><ele>295.0</ele><time>2026-04-11T16:56:32Z</time></trkpt><trkpt lat="43.02857834393758" lon="11.620232824988946"><ele>295.0</ele><time>2026-04-11T16:56:34Z</time></trkpt><trkpt lat="43.028519743960985" lon="11.620186334867324"><ele>295.0</ele><time>2026-04-11T16:56:36Z</time></trkpt><trkpt lat="43.02847184457973" lon="11.620125236907775"><ele>295.0</ele><time>2026-04-11T16:56:39Z</time></trkpt><trkpt lat="43.02841988357379" lon="11.620233919844525"><ele>295.0</ele><time>2026-04-11T16:57:00Z</time></trkpt><trkpt lat="43.028425845650645" lon="11.620342858972329"><ele>295.0</ele><time>2026-04-11T16:57:03Z</time></trkpt><trkpt lat="43.02841294245427" lon="11.62045995092863"><ele>295.0</ele><time>2026-04-11T16:57:05Z</time></trkpt><trkpt lat="43.0283920851179" lon="11.620604480136361"><ele>295.0</ele><time>2026-04-11T16:57:07Z</time></trkpt><trkpt lat="43.028380290699836" lon="11.620762978513035"><ele>295.0</ele><time>2026-04-11T16:57:09Z</time></trkpt><trkpt lat="43.02836539947833" lon="11.6208467344346"><ele>295.0</ele><time>2026-04-11T16:57:10Z</time></trkpt><trkpt lat="43.02835472177254" lon="11.6209413147249"><ele>295.0</ele><time>2026-04-11T16:57:11Z</time></trkpt><trkpt lat="43.02833892527426" lon="11.621033561850023"><ele>295.0</ele><time>2026-04-11T16:57:12Z</time></trkpt><trkpt lat="43.028324929802665" lon="11.621133865741506"><ele>290.0</ele><time>2026-04-11T16:57:13Z</time></trkpt><trkpt lat="43.02830876015476" lon="11.621234162291309"><ele>285.0</ele><time>2026-04-11T16:57:14Z</time></trkpt><trkpt lat="43.028295692718736" lon="11.6213289939363"><ele>280.0</ele><time>2026-04-11T16:57:15Z</time></trkpt><trkpt lat="43.028272217469485" lon="11.621479631031624"><ele>275.0</ele><time>2026-04-11T16:57:17Z</time></trkpt><trkpt lat="43.02824372191056" lon="11.621650625367787"><ele>270.0</ele><time>2026-04-11T16:57:19Z</time></trkpt><trkpt lat="43.02822812030864" lon="11.621744913299787"><ele>270.0</ele><time>2026-04-11T16:57:20Z</time></trkpt><trkpt lat="43.028216067963804" lon="11.621857398479424"><ele>270.0</ele><time>2026-04-11T16:57:21Z</time></trkpt><trkpt lat="43.02820394211538" lon="11.62196732546803"><ele>270.0</ele><time>2026-04-11T16:57:22Z</time></trkpt><trkpt lat="43.02819316828736" lon="11.622074002225345"><ele>270.0</ele><time>2026-04-11T16:57:23Z</time></trkpt><trkpt lat="43.02817119349474" lon="11.62216726292162"><ele>270.0</ele><time>2026-04-11T16:57:24Z</time></trkpt><trkpt lat="43.028158190590105" lon="11.622252439478055"><ele>270.0</ele><time>2026-04-11T16:57:25Z</time></trkpt><trkpt lat="43.028125927288684" lon="11.622412010918149"><ele>269.0</ele><time>2026-04-11T16:57:27Z</time></trkpt><trkpt lat="43.02810301320027" lon="11.622509172551558"><ele>268.0</ele><time>2026-04-11T16:57:28Z</time></trkpt><trkpt lat="43.02807887598362" lon="11.622615849085282"><ele>267.0</ele><time>2026-04-11T16:57:29Z</time></trkpt><trkpt lat="43.02805296051368" lon="11.622726094081505"><ele>266.0</ele><time>2026-04-11T16:57:30Z</time></trkpt><trkpt lat="43.02802837983163" lon="11.622835975207972"><ele>265.0</ele><time>2026-04-11T16:57:31Z</time></trkpt><trkpt lat="43.028000692804675" lon="11.622941866611587"><ele>264.0</ele><time>2026-04-11T16:57:32Z</time></trkpt><trkpt lat="43.02797331061542" lon="11.62304788278247"><ele>263.0</ele><time>2026-04-11T16:57:33Z</time></trkpt><trkpt lat="43.02795239178298" lon="11.623156930314673"><ele>262.0</ele><time>2026-04-11T16:57:34Z</time></trkpt><trkpt lat="43.02793346640322" lon="11.623265151680465"><ele>261.0</ele><time>2026-04-11T16:57:35Z</time></trkpt><trkpt lat="43.02791541930849" lon="11.623371864123888"><ele>260.0</ele><time>2026-04-11T16:57:36Z</time></trkpt><trkpt lat="43.02790729832898" lon="11.623480172851794"><ele>259.0</ele><time>2026-04-11T16:57:37Z</time></trkpt><trkpt lat="43.02790518072178" lon="11.623588236104329"><ele>258.0</ele><time>2026-04-11T16:57:38Z</time></trkpt><trkpt lat="43.02790736187718" lon="11.623696639056403"><ele>257.8333333333333</ele><time>2026-04-11T16:57:39Z</time></trkpt><trkpt lat="43.027914601527186" lon="11.623808065594522"><ele>257.6666666666667</ele><time>2026-04-11T16:57:40Z</time></trkpt><trkpt lat="43.02792971889407" lon="11.62392990590421"><ele>257.5</ele><time>2026-04-11T16:57:41Z</time></trkpt><trkpt lat="43.02794408871433" lon="11.624046404300142"><ele>257.33333333333337</ele><time>2026-04-11T16:57:42Z</time></trkpt><trkpt lat="43.02796227273889" lon="11.624143944867683"><ele>257.1666666666667</ele><time>2026-04-11T16:57:43Z</time></trkpt><trkpt lat="43.02799414668677" lon="11.624298477904416"><ele>257.0</ele><time>2026-04-11T16:57:45Z</time></trkpt><trkpt lat="43.0280379494052" lon="11.624456781200257"><ele>257.1666666666667</ele><time>2026-04-11T16:57:47Z</time></trkpt><trkpt lat="43.02806703329797" lon="11.624539536354238"><ele>257.33333333333337</ele><time>2026-04-11T16:57:48Z</time></trkpt><trkpt lat="43.02809611268273" lon="11.624620841111126"><ele>257.5</ele><time>2026-04-11T16:57:49Z</time></trkpt><trkpt lat="43.02814225603044" lon="11.624761748203605"><ele>257.6666666666667</ele><time>2026-04-11T16:57:51Z</time></trkpt><trkpt lat="43.0281887831144" lon="11.624875250107321"><ele>257.8333333333333</ele><time>2026-04-11T16:57:53Z</time></trkpt><trkpt lat="43.028235003124394" lon="11.624990851009679"><ele>258.0</ele><time>2026-04-11T16:57:55Z</time></trkpt><trkpt lat="43.02828506813777" lon="11.625110136916229"><ele>258.0</ele><time>2026-04-11T16:57:57Z</time></trkpt><trkpt lat="43.02830471763764" lon="11.625215059377147"><ele>258.0</ele><time>2026-04-11T16:57:59Z</time></trkpt><trkpt lat="43.0283279099693" lon="11.6253063864018"><ele>258.0</ele><time>2026-04-11T16:58:01Z</time></trkpt><trkpt lat="43.028425934139925" lon="11.625311654544584"><ele>258.0</ele><time>2026-04-11T16:58:02Z</time></trkpt><trkpt lat="43.02850219012351" lon="11.625383716634063"><ele>258.0</ele><time>2026-04-11T16:58:04Z</time></trkpt><trkpt lat="43.0285723375986" lon="11.625478803387242"><ele>258.0</ele><time>2026-04-11T16:58:06Z</time></trkpt><trkpt lat="43.02863799511459" lon="11.625578378064064"><ele>258.4</ele><time>2026-04-11T16:58:08Z</time></trkpt><trkpt lat="43.02870983853735" lon="11.625668384634507"><ele>258.8</ele><time>2026-04-11T16:58:10Z</time></trkpt><trkpt lat="43.0287904199811" lon="11.625757940897705"><ele>259.2</ele><time>2026-04-11T16:58:12Z</time></trkpt><trkpt lat="43.02888393513861" lon="11.625823492918203"><ele>259.6</ele><time>2026-04-11T16:58:14Z</time></trkpt><trkpt lat="43.028980246256396" lon="11.625878762686225"><ele>260.0</ele><time>2026-04-11T16:58:16Z</time></trkpt><trkpt lat="43.02908706174589" lon="11.625919295494889"><ele>261.75</ele><time>2026-04-11T16:58:18Z</time></trkpt><trkpt lat="43.02919537778715" lon="11.625957089658662"><ele>263.5</ele><time>2026-04-11T16:58:20Z</time></trkpt><trkpt lat="43.02930938771948" lon="11.625994460268377"><ele>265.25</ele><time>2026-04-11T16:58:22Z</time></trkpt><trkpt lat="43.02942443643127" lon="11.626045472488626"><ele>267.0</ele><time>2026-04-11T16:58:24Z</time></trkpt><trkpt lat="43.02953494848042" lon="11.626105692608103"><ele>265.6666666666667</ele><time>2026-04-11T16:58:26Z</time></trkpt><trkpt lat="43.02963334627034" lon="11.62618176452747"><ele>264.3333333333333</ele><time>2026-04-11T16:58:28Z</time></trkpt><trkpt lat="43.02974338737269" lon="11.626245951719751"><ele>263.0</ele><time>2026-04-11T16:58:30Z</time></trkpt><trkpt lat="43.02979643227508" lon="11.62629463192693"><ele>261.66666666666663</ele><time>2026-04-11T16:58:31Z</time></trkpt><trkpt lat="43.02985354391546" lon="11.62633323961813"><ele>260.3333333333333</ele><time>2026-04-11T16:58:32Z</time></trkpt><trkpt lat="43.02991108629757" lon="11.626372060596818"><ele>259.0</ele><time>2026-04-11T16:58:33Z</time></trkpt><trkpt lat="43.03003225053472" lon="11.62642930357717"><ele>259.0</ele><time>2026-04-11T16:58:35Z</time></trkpt><trkpt lat="43.0300951386123" lon="11.62645040228515"><ele>259.0</ele><time>2026-04-11T16:58:36Z</time></trkpt><trkpt lat="43.03016316160242" lon="11.62646845397357"><ele>259.0</ele><time>2026-04-11T16:58:37Z</time></trkpt><trkpt lat="43.03023092416828" lon="11.626485990412233"><ele>259.0</ele><time>2026-04-11T16:58:38Z</time></trkpt><trkpt lat="43.030297455631334" lon="11.62649356237037"><ele>259.0</ele><time>2026-04-11T16:58:39Z</time></trkpt><trkpt lat="43.03036255478679" lon="11.626507585502662"><ele>259.0</ele><time>2026-04-11T16:58:40Z</time></trkpt><trkpt lat="43.03042460804043" lon="11.62652519628317"><ele>259.0</ele><time>2026-04-11T16:58:41Z</time></trkpt><trkpt lat="43.030488130870275" lon="11.626538823025331"><ele>259.0</ele><time>2026-04-11T16:58:42Z</time></trkpt><trkpt lat="43.030606974956974" lon="11.626559952455334"><ele>259.0</ele><time>2026-04-11T16:58:44Z</time></trkpt><trkpt lat="43.0307306496218" lon="11.626591823399616"><ele>259.0</ele><time>2026-04-11T16:58:46Z</time></trkpt><trkpt lat="43.030793772935006" lon="11.626606013365024"><ele>259.0</ele><time>2026-04-11T16:58:47Z</time></trkpt><trkpt lat="43.03085784382725" lon="11.626624972978645"><ele>259.0</ele><time>2026-04-11T16:58:48Z</time></trkpt><trkpt lat="43.030922025326596" lon="11.626644815679512"><ele>259.0</ele><time>2026-04-11T16:58:49Z</time></trkpt><trkpt lat="43.030985441777794" lon="11.626666227167142"><ele>259.7142857142857</ele><time>2026-04-11T16:58:50Z</time></trkpt><trkpt lat="43.03105256972954" lon="11.626690215561194"><ele>260.42857142857144</ele><time>2026-04-11T16:58:51Z</time></trkpt><trkpt lat="43.03112169401776" lon="11.626713222826995"><ele>261.1428571428571</ele><time>2026-04-11T16:58:52Z</time></trkpt><trkpt lat="43.03119149785471" lon="11.626735237368598"><ele>261.8571428571429</ele><time>2026-04-11T16:58:53Z</time></trkpt><trkpt lat="43.031262206671336" lon="11.62675483653665"><ele>262.57142857142856</ele><time>2026-04-11T16:58:54Z</time></trkpt><trkpt lat="43.031331332189815" lon="11.62677508472163"><ele>263.2857142857143</ele><time>2026-04-11T16:58:55Z</time></trkpt><trkpt lat="43.0313998024126" lon="11.62680198813056"><ele>264.0</ele><time>2026-04-11T16:58:56Z</time></trkpt><trkpt lat="43.031466785302456" lon="11.626829142632271"><ele>264.0</ele><time>2026-04-11T16:58:57Z</time></trkpt><trkpt lat="43.031535517607814" lon="11.626849409829404"><ele>264.0</ele><time>2026-04-11T16:58:58Z</time></trkpt><trkpt lat="43.03160324497981" lon="11.626860541471817"><ele>264.0</ele><time>2026-04-11T16:58:59Z</time></trkpt><trkpt lat="43.03167447380028" lon="11.626886362883882"><ele>264.0</ele><time>2026-04-11T16:59:00Z</time></trkpt><trkpt lat="43.03174704023175" lon="11.626907837566838"><ele>264.0</ele><time>2026-04-11T16:59:01Z</time></trkpt><trkpt lat="43.03181679782566" lon="11.626924113663371"><ele>264.0</ele><time>2026-04-11T16:59:02Z</time></trkpt><trkpt lat="43.031889614602996" lon="11.62694180656572"><ele>264.0</ele><time>2026-04-11T16:59:03Z</time></trkpt><trkpt lat="43.03196037226643" lon="11.626966006454941"><ele>262.8333333333333</ele><time>2026-04-11T16:59:04Z</time></trkpt><trkpt lat="43.03203060622767" lon="11.626986697984906"><ele>261.6666666666667</ele><time>2026-04-11T16:59:05Z</time></trkpt><trkpt lat="43.032099091852984" lon="11.627010471071475"><ele>260.5</ele><time>2026-04-11T16:59:06Z</time></trkpt><trkpt lat="43.03216505177905" lon="11.62703312873333"><ele>259.33333333333337</ele><time>2026-04-11T16:59:07Z</time></trkpt><trkpt lat="43.03222836321902" lon="11.627053985356842"><ele>258.1666666666667</ele><time>2026-04-11T16:59:08Z</time></trkpt><trkpt lat="43.03229086948527" lon="11.627072389802997"><ele>257.0</ele><time>2026-04-11T16:59:09Z</time></trkpt><trkpt lat="43.03241220225747" lon="11.627110796429973"><ele>257.0</ele><time>2026-04-11T16:59:11Z</time></trkpt><trkpt lat="43.032525194963945" lon="11.62714821869242"><ele>257.0</ele><time>2026-04-11T16:59:13Z</time></trkpt><trkpt lat="43.03264293580905" lon="11.627189335450606"><ele>257.0</ele><time>2026-04-11T16:59:15Z</time></trkpt><trkpt lat="43.03275436371613" lon="11.627224159019761"><ele>257.0</ele><time>2026-04-11T16:59:17Z</time></trkpt><trkpt lat="43.03286482490201" lon="11.627261213442694"><ele>257.0</ele><time>2026-04-11T16:59:19Z</time></trkpt><trkpt lat="43.03296637209943" lon="11.627294454481216"><ele>257.0</ele><time>2026-04-11T16:59:21Z</time></trkpt><trkpt lat="43.03307573908781" lon="11.62733573928475"><ele>257.0</ele><time>2026-04-11T16:59:23Z</time></trkpt><trkpt lat="43.033184918794795" lon="11.62737188543823"><ele>257.0</ele><time>2026-04-11T16:59:25Z</time></trkpt><trkpt lat="43.03328732943773" lon="11.627408595897867"><ele>257.0</ele><time>2026-04-11T16:59:27Z</time></trkpt><trkpt lat="43.03337467839181" lon="11.62749117423015"><ele>257.1666666666667</ele><time>2026-04-11T16:59:29Z</time></trkpt><trkpt lat="43.03342944582398" lon="11.627625843285372"><ele>257.33333333333337</ele><time>2026-04-11T16:59:31Z</time></trkpt><trkpt lat="43.033450457327966" lon="11.627784467246073"><ele>257.5</ele><time>2026-04-11T16:59:33Z</time></trkpt><trkpt lat="43.03344392281483" lon="11.627871467646953"><ele>257.6666666666667</ele><time>2026-04-11T16:59:34Z</time></trkpt><trkpt lat="43.033433146632184" lon="11.627956777328299"><ele>257.8333333333333</ele><time>2026-04-11T16:59:35Z</time></trkpt><trkpt lat="43.03342376524812" lon="11.628044156959383"><ele>258.0</ele><time>2026-04-11T16:59:36Z</time></trkpt><trkpt lat="43.03341907336779" lon="11.628134660860162"><ele>258.0</ele><time>2026-04-11T16:59:37Z</time></trkpt><trkpt lat="43.033415169302856" lon="11.62831167245633"><ele>258.0</ele><time>2026-04-11T16:59:39Z</time></trkpt><trkpt lat="43.0334060512198" lon="11.62840844418437"><ele>258.0</ele><time>2026-04-11T16:59:40Z</time></trkpt><trkpt lat="43.03339587803025" lon="11.628498065842363"><ele>258.0</ele><time>2026-04-11T16:59:41Z</time></trkpt><trkpt lat="43.0333797718067" lon="11.62858824911092"><ele>258.0</ele><time>2026-04-11T16:59:42Z</time></trkpt><trkpt lat="43.03337707862841" lon="11.628679330387481"><ele>258.0</ele><time>2026-04-11T16:59:43Z</time></trkpt><trkpt lat="43.03337404361584" lon="11.628774750144437"><ele>258.2857142857143</ele><time>2026-04-11T16:59:44Z</time></trkpt><trkpt lat="43.033367596221" lon="11.628866700375823"><ele>258.57142857142856</ele><time>2026-04-11T16:59:45Z</time></trkpt><trkpt lat="43.03336183966572" lon="11.628961152796306"><ele>258.8571428571429</ele><time>2026-04-11T16:59:46Z</time></trkpt><trkpt lat="43.03335204875837" lon="11.629059629796059"><ele>259.1428571428571</ele><time>2026-04-11T16:59:47Z</time></trkpt><trkpt lat="43.03334602955374" lon="11.629153170590158"><ele>259.42857142857144</ele><time>2026-04-11T16:59:48Z</time></trkpt><trkpt lat="43.033340560305646" lon="11.629252114886544"><ele>259.7142857142857</ele><time>2026-04-11T16:59:49Z</time></trkpt><trkpt lat="43.03333389375341" lon="11.62935361415378"><ele>260.0</ele><time>2026-04-11T16:59:50Z</time></trkpt><trkpt lat="43.03332745815601" lon="11.629448260752726"><ele>259.6666666666667</ele><time>2026-04-11T16:59:51Z</time></trkpt><trkpt lat="43.03332134025194" lon="11.62954573690585"><ele>259.33333333333337</ele><time>2026-04-11T16:59:52Z</time></trkpt><trkpt lat="43.03331884191706" lon="11.629640036942785"><ele>259.0</ele><time>2026-04-11T16:59:53Z</time></trkpt><trkpt lat="43.03331673738786" lon="11.629745974530197"><ele>258.6666666666667</ele><time>2026-04-11T16:59:54Z</time></trkpt><trkpt lat="43.03331402424026" lon="11.629858113647582"><ele>258.3333333333333</ele><time>2026-04-11T16:59:55Z</time></trkpt><trkpt lat="43.033314928364064" lon="11.629964587183443"><ele>258.0</ele><time>2026-04-11T16:59:56Z</time></trkpt><trkpt lat="43.03331561398615" lon="11.630072920766567"><ele>258.0</ele><time>2026-04-11T16:59:57Z</time></trkpt><trkpt lat="43.03331220668775" lon="11.63017981100517"><ele>258.0</ele><time>2026-04-11T16:59:58Z</time></trkpt><trkpt lat="43.033319038355955" lon="11.630293474859434"><ele>258.0</ele><time>2026-04-11T16:59:59Z</time></trkpt><trkpt lat="43.03332312725407" lon="11.630403430465662"><ele>258.0</ele><time>2026-04-11T17:00:00Z</time></trkpt><trkpt lat="43.033330438627914" lon="11.630506963258291"><ele>258.0</ele><time>2026-04-11T17:00:01Z</time></trkpt><trkpt lat="43.033337785476995" lon="11.630609478672847"><ele>258.0</ele><time>2026-04-11T17:00:02Z</time></trkpt><trkpt lat="43.03334572478844" lon="11.630709337700775"><ele>258.1428571428571</ele><time>2026-04-11T17:00:03Z</time></trkpt><trkpt lat="43.03335698187014" lon="11.63081023809498"><ele>258.2857142857143</ele><time>2026-04-11T17:00:04Z</time></trkpt><trkpt lat="43.033368606084935" lon="11.63090641624784"><ele>258.42857142857144</ele><time>2026-04-11T17:00:05Z</time></trkpt><trkpt lat="43.0333800491541" lon="11.63100092620958"><ele>258.57142857142856</ele><time>2026-04-11T17:00:06Z</time></trkpt><trkpt lat="43.0333853164242" lon="11.631095356072338"><ele>258.7142857142857</ele><time>2026-04-11T17:00:07Z</time></trkpt><trkpt lat="43.0333940254731" lon="11.631185979790883"><ele>258.85714285714283</ele><time>2026-04-11T17:00:08Z</time></trkpt><trkpt lat="43.03340379649638" lon="11.631281124587536"><ele>259.0</ele><time>2026-04-11T17:00:09Z</time></trkpt><trkpt lat="43.03341200670402" lon="11.631377104892124"><ele>259.14285714285717</ele><time>2026-04-11T17:00:10Z</time></trkpt><trkpt lat="43.0334243622784" lon="11.63147483434912"><ele>259.2857142857143</ele><time>2026-04-11T17:00:11Z</time></trkpt><trkpt lat="43.033435170579686" lon="11.631566622142284"><ele>259.42857142857144</ele><time>2026-04-11T17:00:12Z</time></trkpt><trkpt lat="43.03344455288841" lon="11.63166746781718"><ele>259.57142857142856</ele><time>2026-04-11T17:00:13Z</time></trkpt><trkpt lat="43.03345224343805" lon="11.631773823022396"><ele>259.7142857142857</ele><time>2026-04-11T17:00:14Z</time></trkpt><trkpt lat="43.03346155556993" lon="11.631876487549304"><ele>259.8571428571429</ele><time>2026-04-11T17:00:15Z</time></trkpt><trkpt lat="43.033470572252604" lon="11.63197849160663"><ele>260.0</ele><time>2026-04-11T17:00:16Z</time></trkpt><trkpt lat="43.03347822905061" lon="11.632080294435305"><ele>259.4</ele><time>2026-04-11T17:00:17Z</time></trkpt><trkpt lat="43.03349133164349" lon="11.63217360098074"><ele>258.8</ele><time>2026-04-11T17:00:18Z</time></trkpt><trkpt lat="43.03350328272136" lon="11.632259250047419"><ele>258.2</ele><time>2026-04-11T17:00:19Z</time></trkpt><trkpt lat="43.0335149797642" lon="11.632352954214857"><ele>257.6</ele><time>2026-04-11T17:00:20Z</time></trkpt><trkpt lat="43.03353395928283" lon="11.632526532026247"><ele>257.0</ele><time>2026-04-11T17:00:22Z</time></trkpt><trkpt lat="43.033553048919174" lon="11.632703371166428"><ele>257.0</ele><time>2026-04-11T17:00:24Z</time></trkpt><trkpt lat="43.03355641680007" lon="11.632795548934102"><ele>257.0</ele><time>2026-04-11T17:00:25Z</time></trkpt><trkpt lat="43.03355995194789" lon="11.63288620553096"><ele>257.0</ele><time>2026-04-11T17:00:26Z</time></trkpt><trkpt lat="43.033566696277674" lon="11.632979746107424"><ele>257.0</ele><time>2026-04-11T17:00:27Z</time></trkpt><trkpt lat="43.03357799285453" lon="11.63307500981138"><ele>257.0</ele><time>2026-04-11T17:00:28Z</time></trkpt><trkpt lat="43.03358730079563" lon="11.63316502382383"><ele>257.0</ele><time>2026-04-11T17:00:29Z</time></trkpt><trkpt lat="43.0335960011539" lon="11.633257511003203"><ele>257.0</ele><time>2026-04-11T17:00:30Z</time></trkpt><trkpt lat="43.03359867202438" lon="11.633355566981027"><ele>256.85714285714283</ele><time>2026-04-11T17:00:31Z</time></trkpt><trkpt lat="43.033602306950236" lon="11.633452576628"><ele>256.7142857142857</ele><time>2026-04-11T17:00:32Z</time></trkpt><trkpt lat="43.03360419700817" lon="11.633545593751723"><ele>256.57142857142856</ele><time>2026-04-11T17:00:33Z</time></trkpt><trkpt lat="43.0335992505395" lon="11.633641097159014"><ele>256.42857142857144</ele><time>2026-04-11T17:00:34Z</time></trkpt><trkpt lat="43.033598460210584" lon="11.633733386723337"><ele>256.2857142857143</ele><time>2026-04-11T17:00:35Z</time></trkpt><trkpt lat="43.0335934872024" lon="11.633826452141736"><ele>256.1428571428571</ele><time>2026-04-11T17:00:36Z</time></trkpt><trkpt lat="43.03358977927776" lon="11.633919510757865"><ele>256.0</ele><time>2026-04-11T17:00:37Z</time></trkpt><trkpt lat="43.0335816142988" lon="11.634011377715598"><ele>255.99999999999997</ele><time>2026-04-11T17:00:38Z</time></trkpt><trkpt lat="43.03357464737895" lon="11.634102688984594"><ele>256.0</ele><time>2026-04-11T17:00:39Z</time></trkpt><trkpt lat="43.03356351346536" lon="11.634192089269943"><ele>256.0</ele><time>2026-04-11T17:00:40Z</time></trkpt><trkpt lat="43.03354970841807" lon="11.634279806925818"><ele>256.0</ele><time>2026-04-11T17:00:41Z</time></trkpt><trkpt lat="43.03353816674772" lon="11.63436923112935"><ele>255.99999999999997</ele><time>2026-04-11T17:00:42Z</time></trkpt><trkpt lat="43.03352919016599" lon="11.634457192243948"><ele>256.0</ele><time>2026-04-11T17:00:43Z</time></trkpt><trkpt lat="43.03351200724809" lon="11.634626540191"><ele>256.2857142857143</ele><time>2026-04-11T17:00:45Z</time></trkpt><trkpt lat="43.0335056127271" lon="11.634712374980815"><ele>256.57142857142856</ele><time>2026-04-11T17:00:46Z</time></trkpt><trkpt lat="43.03349656227997" lon="11.634800019350541"><ele>256.85714285714283</ele><time>2026-04-11T17:00:47Z</time></trkpt><trkpt lat="43.033488844305744" lon="11.63488820773969"><ele>257.1428571428571</ele><time>2026-04-11T17:00:48Z</time></trkpt><trkpt lat="43.03348070681368" lon="11.634976850287188"><ele>257.42857142857144</ele><time>2026-04-11T17:00:49Z</time></trkpt><trkpt lat="43.033473390795805" lon="11.635063319148912"><ele>257.71428571428567</ele><time>2026-04-11T17:00:50Z</time></trkpt><trkpt lat="43.03346192175131" lon="11.635148373456444"><ele>258.0</ele><time>2026-04-11T17:00:51Z</time></trkpt><trkpt lat="43.03344503984605" lon="11.635319936310548"><ele>258.5</ele><time>2026-04-11T17:00:53Z</time></trkpt><trkpt lat="43.03343263350663" lon="11.63548920885014"><ele>259.0</ele><time>2026-04-11T17:00:55Z</time></trkpt><trkpt lat="43.03342005847109" lon="11.635655534625505"><ele>259.5</ele><time>2026-04-11T17:00:57Z</time></trkpt><trkpt lat="43.0334193333194" lon="11.6358196735301"><ele>260.0</ele><time>2026-04-11T17:00:59Z</time></trkpt><trkpt lat="43.033425230216714" lon="11.635982783472539"><ele>260.0</ele><time>2026-04-11T17:01:01Z</time></trkpt><trkpt lat="43.03342732453555" lon="11.63615717598412"><ele>260.0</ele><time>2026-04-11T17:01:03Z</time></trkpt><trkpt lat="43.033436230146215" lon="11.6363072398613"><ele>260.0</ele><time>2026-04-11T17:01:05Z</time></trkpt><trkpt lat="43.03344320799373" lon="11.636470497494408"><ele>260.0</ele><time>2026-04-11T17:01:07Z</time></trkpt><trkpt lat="43.03345578279417" lon="11.636618364005933"><ele>260.0</ele><time>2026-04-11T17:01:09Z</time></trkpt><trkpt lat="43.03346749951067" lon="11.636768225416386"><ele>260.0</ele><time>2026-04-11T17:01:11Z</time></trkpt><trkpt lat="43.033472972294334" lon="11.636919304274455"><ele>260.0</ele><time>2026-04-11T17:01:13Z</time></trkpt><trkpt lat="43.03348324283905" lon="11.637059602737018"><ele>260.0</ele><time>2026-04-11T17:01:15Z</time></trkpt><trkpt lat="43.03349171995581" lon="11.63720622566251"><ele>260.0</ele><time>2026-04-11T17:01:17Z</time></trkpt><trkpt lat="43.033495078060184" lon="11.637343225341903"><ele>260.2</ele><time>2026-04-11T17:01:19Z</time></trkpt><trkpt lat="43.03350517665919" lon="11.637472077918652"><ele>260.4</ele><time>2026-04-11T17:01:21Z</time></trkpt><trkpt lat="43.033513951219" lon="11.637595425289511"><ele>260.6</ele><time>2026-04-11T17:01:23Z</time></trkpt><trkpt lat="43.03351865044502" lon="11.637716446675142"><ele>260.8</ele><time>2026-04-11T17:01:25Z</time></trkpt><trkpt lat="43.03352447744986" lon="11.637849540207167"><ele>261.0</ele><time>2026-04-11T17:01:27Z</time></trkpt><trkpt lat="43.033539175762904" lon="11.637970320728396"><ele>261.0</ele><time>2026-04-11T17:01:29Z</time></trkpt><trkpt lat="43.033546490602156" lon="11.638087528966965"><ele>261.0</ele><time>2026-04-11T17:01:31Z</time></trkpt><trkpt lat="43.03356510783394" lon="11.63821434469823"><ele>261.0</ele><time>2026-04-11T17:01:33Z</time></trkpt><trkpt lat="43.03357559295044" lon="11.63837347234595"><ele>261.0</ele><time>2026-04-11T17:01:35Z</time></trkpt><trkpt lat="43.03360670064067" lon="11.638530754894072"><ele>261.0</ele><time>2026-04-11T17:01:37Z</time></trkpt><trkpt lat="43.03363046535305" lon="11.638699973752528"><ele>260.75</ele><time>2026-04-11T17:01:39Z</time></trkpt><trkpt lat="43.03366561776445" lon="11.638863956912427"><ele>260.5</ele><time>2026-04-11T17:01:41Z</time></trkpt><trkpt lat="43.033693723002514" lon="11.639024868056966"><ele>260.25</ele><time>2026-04-11T17:01:43Z</time></trkpt><trkpt lat="43.03372041278896" lon="11.63918154048179"><ele>260.0</ele><time>2026-04-11T17:01:45Z</time></trkpt><trkpt lat="43.033745331628495" lon="11.639331038221181"><ele>260.0</ele><time>2026-04-11T17:01:47Z</time></trkpt><trkpt lat="43.03377579418126" lon="11.639474626451266"><ele>260.0</ele><time>2026-04-11T17:01:49Z</time></trkpt><trkpt lat="43.03381030734437" lon="11.639629985526929"><ele>260.0</ele><time>2026-04-11T17:01:51Z</time></trkpt><trkpt lat="43.03383741481286" lon="11.639796953824554"><ele>260.0</ele><time>2026-04-11T17:01:53Z</time></trkpt><trkpt lat="43.03386835092192" lon="11.639971446600464"><ele>260.00000000000006</ele><time>2026-04-11T17:01:55Z</time></trkpt><trkpt lat="43.03388965301964" lon="11.640057735684886"><ele>260.0</ele><time>2026-04-11T17:01:56Z</time></trkpt><trkpt lat="43.03390464314969" lon="11.64014608041802"><ele>260.0</ele><time>2026-04-11T17:01:57Z</time></trkpt><trkpt lat="43.03391655597107" lon="11.640232252169968"><ele>260.0</ele><time>2026-04-11T17:01:58Z</time></trkpt><trkpt lat="43.03393462779676" lon="11.640321381240748"><ele>260.0</ele><time>2026-04-11T17:01:59Z</time></trkpt><trkpt lat="43.03395140027583" lon="11.640408189390723"><ele>260.00000000000006</ele><time>2026-04-11T17:02:00Z</time></trkpt><trkpt lat="43.03396864906778" lon="11.640495778485985"><ele>260.0</ele><time>2026-04-11T17:02:01Z</time></trkpt><trkpt lat="43.03398795519039" lon="11.640584609163257"><ele>260.00000000000006</ele><time>2026-04-11T17:02:02Z</time></trkpt><trkpt lat="43.034003228057685" lon="11.640674374958277"><ele>260.0</ele><time>2026-04-11T17:02:03Z</time></trkpt><trkpt lat="43.03401895418005" lon="11.640760795301503"><ele>260.0</ele><time>2026-04-11T17:02:04Z</time></trkpt><trkpt lat="43.03403560570546" lon="11.640849079032003"><ele>260.0</ele><time>2026-04-11T17:02:05Z</time></trkpt><trkpt lat="43.03405189876405" lon="11.640939992807782"><ele>260.0</ele><time>2026-04-11T17:02:06Z</time></trkpt><trkpt lat="43.03406843612913" lon="11.641029828209557"><ele>260.00000000000006</ele><time>2026-04-11T17:02:07Z</time></trkpt><trkpt lat="43.03408395775465" lon="11.641117829142846"><ele>260.0</ele><time>2026-04-11T17:02:08Z</time></trkpt><trkpt lat="43.03409802259506" lon="11.641204013151757"><ele>259.8571428571429</ele><time>2026-04-11T17:02:09Z</time></trkpt><trkpt lat="43.03411416469276" lon="11.64129426698743"><ele>259.7142857142857</ele><time>2026-04-11T17:02:10Z</time></trkpt><trkpt lat="43.03413286127416" lon="11.641382987491639"><ele>259.57142857142856</ele><time>2026-04-11T17:02:11Z</time></trkpt><trkpt lat="43.03415002721094" lon="11.641467449471762"><ele>259.42857142857144</ele><time>2026-04-11T17:02:12Z</time></trkpt><trkpt lat="43.034167236502206" lon="11.641555255105017"><ele>259.2857142857143</ele><time>2026-04-11T17:02:13Z</time></trkpt><trkpt lat="43.03418114628896" lon="11.641645614589661"><ele>259.14285714285717</ele><time>2026-04-11T17:02:14Z</time></trkpt><trkpt lat="43.03419655957627" lon="11.64173550605712"><ele>259.0</ele><time>2026-04-11T17:02:15Z</time></trkpt><trkpt lat="43.034211773044255" lon="11.64182564072799"><ele>259.5</ele><time>2026-04-11T17:02:16Z</time></trkpt><trkpt lat="43.03422938040584" lon="11.641914595582334"><ele>260.0</ele><time>2026-04-11T17:02:17Z</time></trkpt><trkpt lat="43.03424413328631" lon="11.642004207630853"><ele>260.5</ele><time>2026-04-11T17:02:18Z</time></trkpt><trkpt lat="43.03426277190372" lon="11.64208959513959"><ele>261.0</ele><time>2026-04-11T17:02:19Z</time></trkpt><trkpt lat="43.0342949501136" lon="11.642252399728443"><ele>261.5</ele><time>2026-04-11T17:02:21Z</time></trkpt><trkpt lat="43.034308132113516" lon="11.642339529179726"><ele>262.0</ele><time>2026-04-11T17:02:22Z</time></trkpt><trkpt lat="43.034342240547225" lon="11.642510298635534"><ele>262.0</ele><time>2026-04-11T17:02:24Z</time></trkpt><trkpt lat="43.034373306990304" lon="11.64268192855316"><ele>262.0</ele><time>2026-04-11T17:02:26Z</time></trkpt><trkpt lat="43.03439051383033" lon="11.642768146844992"><ele>262.0</ele><time>2026-04-11T17:02:27Z</time></trkpt><trkpt lat="43.03440980985698" lon="11.642856212205166"><ele>262.0</ele><time>2026-04-11T17:02:28Z</time></trkpt><trkpt lat="43.03442854597344" lon="11.64294038936956"><ele>262.0</ele><time>2026-04-11T17:02:29Z</time></trkpt><trkpt lat="43.03444664629529" lon="11.643028193523309"><ele>262.0</ele><time>2026-04-11T17:02:30Z</time></trkpt><trkpt lat="43.034463066345936" lon="11.643114548951726"><ele>262.0</ele><time>2026-04-11T17:02:31Z</time></trkpt><trkpt lat="43.03447685700235" lon="11.643202435348115"><ele>262.0</ele><time>2026-04-11T17:02:32Z</time></trkpt><trkpt lat="43.03450707822948" lon="11.643362808693547"><ele>262.0</ele><time>2026-04-11T17:02:34Z</time></trkpt><trkpt lat="43.03453918986532" lon="11.643518849338808"><ele>262.0</ele><time>2026-04-11T17:02:36Z</time></trkpt><trkpt lat="43.03456632720171" lon="11.643675492003107"><ele>262.0</ele><time>2026-04-11T17:02:38Z</time></trkpt><trkpt lat="43.034597900776916" lon="11.643824523426147"><ele>262.0</ele><time>2026-04-11T17:02:40Z</time></trkpt><trkpt lat="43.03462449701269" lon="11.643989291900276"><ele>262.0</ele><time>2026-04-11T17:02:42Z</time></trkpt><trkpt lat="43.03465538953339" lon="11.644144522721108"><ele>262.0</ele><time>2026-04-11T17:02:44Z</time></trkpt><trkpt lat="43.034685528591936" lon="11.644290681673835"><ele>262.0</ele><time>2026-04-11T17:02:46Z</time></trkpt><trkpt lat="43.03471815291909" lon="11.6444279281188"><ele>262.0</ele><time>2026-04-11T17:02:48Z</time></trkpt><trkpt lat="43.03473806679428" lon="11.644553721952365"><ele>262.0</ele><time>2026-04-11T17:02:50Z</time></trkpt><trkpt lat="43.03476112292401" lon="11.644685055856739"><ele>262.0</ele><time>2026-04-11T17:02:52Z</time></trkpt><trkpt lat="43.03478696648729" lon="11.644803859636093"><ele>262.0</ele><time>2026-04-11T17:02:54Z</time></trkpt><trkpt lat="43.03481449827111" lon="11.644911525341383"><ele>262.0</ele><time>2026-04-11T17:02:56Z</time></trkpt><trkpt lat="43.03481599225444" lon="11.6450312915173"><ele>262.0</ele><time>2026-04-11T17:02:58Z</time></trkpt><trkpt lat="43.03482421443695" lon="11.645149524176412"><ele>262.0</ele><time>2026-04-11T17:03:00Z</time></trkpt><trkpt lat="43.03495220661229" lon="11.645235795014038"><ele>262.0</ele><time>2026-04-11T17:03:02Z</time></trkpt><trkpt lat="43.035032352242744" lon="11.64532285554795"><ele>262.0</ele><time>2026-04-11T17:03:04Z</time></trkpt><trkpt lat="43.03511815980641" lon="11.645417581202691"><ele>262.0</ele><time>2026-04-11T17:03:06Z</time></trkpt><trkpt lat="43.035206986785866" lon="11.645527109184131"><ele>262.5</ele><time>2026-04-11T17:03:08Z</time></trkpt><trkpt lat="43.03529726694223" lon="11.64563632972981"><ele>263.0</ele><time>2026-04-11T17:03:10Z</time></trkpt><trkpt lat="43.03534782566168" lon="11.645695147126078"><ele>263.5</ele><time>2026-04-11T17:03:11Z</time></trkpt><trkpt lat="43.03539577018091" lon="11.645756840826836"><ele>264.0</ele><time>2026-04-11T17:03:12Z</time></trkpt><trkpt lat="43.035450959760475" lon="11.645817047400522"><ele>264.5</ele><time>2026-04-11T17:03:13Z</time></trkpt><trkpt lat="43.035504508864946" lon="11.64587588126906"><ele>265.0</ele><time>2026-04-11T17:03:14Z</time></trkpt><trkpt lat="43.03555555887273" lon="11.645937215172694"><ele>264.99999999999994</ele><time>2026-04-11T17:03:15Z</time></trkpt><trkpt lat="43.035609091449416" lon="11.64599856997447"><ele>265.0</ele><time>2026-04-11T17:03:16Z</time></trkpt><trkpt lat="43.0356639911395" lon="11.646060423581764"><ele>265.0</ele><time>2026-04-11T17:03:17Z</time></trkpt><trkpt lat="43.0357214075289" lon="11.646119137370425"><ele>265.0</ele><time>2026-04-11T17:03:18Z</time></trkpt><trkpt lat="43.03577672454333" lon="11.646179706798911"><ele>265.0</ele><time>2026-04-11T17:03:19Z</time></trkpt><trkpt lat="43.03583336683733" lon="11.646235112399607"><ele>264.99999999999994</ele><time>2026-04-11T17:03:20Z</time></trkpt><trkpt lat="43.03588891364027" lon="11.646287172269913"><ele>265.0</ele><time>2026-04-11T17:03:21Z</time></trkpt><trkpt lat="43.035945835143586" lon="11.646339436431461"><ele>264.99999999999994</ele><time>2026-04-11T17:03:22Z</time></trkpt><trkpt lat="43.03600502696423" lon="11.646387289410503"><ele>265.0</ele><time>2026-04-11T17:03:23Z</time></trkpt><trkpt lat="43.03606559716541" lon="11.646432488346703"><ele>265.0</ele><time>2026-04-11T17:03:24Z</time></trkpt><trkpt lat="43.036129583380514" lon="11.646469046538508"><ele>265.0</ele><time>2026-04-11T17:03:25Z</time></trkpt><trkpt lat="43.03619291080588" lon="11.646504692776109"><ele>265.0</ele><time>2026-04-11T17:03:26Z</time></trkpt><trkpt lat="43.03625317077278" lon="11.646540881493506"><ele>264.99999999999994</ele><time>2026-04-11T17:03:27Z</time></trkpt><trkpt lat="43.03631594806897" lon="11.646572960177114"><ele>265.0</ele><time>2026-04-11T17:03:28Z</time></trkpt><trkpt lat="43.03643499957465" lon="11.646634415549999"><ele>264.99999999999994</ele><time>2026-04-11T17:03:30Z</time></trkpt><trkpt lat="43.03649420544756" lon="11.646667950839856"><ele>265.0</ele><time>2026-04-11T17:03:31Z</time></trkpt><trkpt lat="43.036553376657395" lon="11.64670047711064"><ele>265.0</ele><time>2026-04-11T17:03:32Z</time></trkpt><trkpt lat="43.03661637205326" lon="11.646726686382419"><ele>265.0</ele><time>2026-04-11T17:03:33Z</time></trkpt><trkpt lat="43.0366772065359" lon="11.64675555055331"><ele>265.0</ele><time>2026-04-11T17:03:34Z</time></trkpt><trkpt lat="43.03673983180104" lon="11.646779953092597"><ele>264.99999999999994</ele><time>2026-04-11T17:03:35Z</time></trkpt><trkpt lat="43.03680382836788" lon="11.646806140398867"><ele>265.0</ele><time>2026-04-11T17:03:36Z</time></trkpt><trkpt lat="43.03686714951352" lon="11.646829408660894"><ele>264.99999999999994</ele><time>2026-04-11T17:03:37Z</time></trkpt><trkpt lat="43.03692911428233" lon="11.64685773208459"><ele>265.0</ele><time>2026-04-11T17:03:38Z</time></trkpt><trkpt lat="43.03698902551396" lon="11.646893020675982"><ele>265.0</ele><time>2026-04-11T17:03:39Z</time></trkpt><trkpt lat="43.037049582755685" lon="11.646926952217017"><ele>265.0</ele><time>2026-04-11T17:03:40Z</time></trkpt><trkpt lat="43.03710800827912" lon="11.646959463859158"><ele>265.0</ele><time>2026-04-11T17:03:41Z</time></trkpt><trkpt lat="43.037164250869516" lon="11.647001738616874"><ele>264.99999999999994</ele><time>2026-04-11T17:03:42Z</time></trkpt><trkpt lat="43.03722141266379" lon="11.64703935955003"><ele>265.0</ele><time>2026-04-11T17:03:43Z</time></trkpt><trkpt lat="43.037280846826576" lon="11.647075698725924"><ele>265.2</ele><time>2026-04-11T17:03:44Z</time></trkpt><trkpt lat="43.03733368624769" lon="11.647124236858058"><ele>265.4</ele><time>2026-04-11T17:03:45Z</time></trkpt><trkpt lat="43.03743593294127" lon="11.647219922368464"><ele>265.6</ele><time>2026-04-11T17:03:47Z</time></trkpt><trkpt lat="43.03754108014262" lon="11.647306138416758"><ele>265.8</ele><time>2026-04-11T17:03:49Z</time></trkpt><trkpt lat="43.03764629528643" lon="11.647384748830035"><ele>266.0</ele><time>2026-04-11T17:03:51Z</time></trkpt><trkpt lat="43.03774659395848" lon="11.647467775095922"><ele>266.0</ele><time>2026-04-11T17:03:53Z</time></trkpt><trkpt lat="43.03784343151384" lon="11.647546061493859"><ele>266.0</ele><time>2026-04-11T17:03:55Z</time></trkpt><trkpt lat="43.03794203377068" lon="11.647622089613074"><ele>266.0</ele><time>2026-04-11T17:03:57Z</time></trkpt><trkpt lat="43.0380283354563" lon="11.647696204542381"><ele>266.0</ele><time>2026-04-11T17:03:59Z</time></trkpt><trkpt lat="43.038130031107" lon="11.647779464660966"><ele>266.0</ele><time>2026-04-11T17:04:01Z</time></trkpt><trkpt lat="43.03821612239551" lon="11.64786557816374"><ele>266.6</ele><time>2026-04-11T17:04:03Z</time></trkpt><trkpt lat="43.038320854676876" lon="11.647949753242536"><ele>267.20000000000005</ele><time>2026-04-11T17:04:05Z</time></trkpt><trkpt lat="43.038406723498284" lon="11.648016117794368"><ele>267.79999999999995</ele><time>2026-04-11T17:04:07Z</time></trkpt><trkpt lat="43.038487646748976" lon="11.64807389475331"><ele>268.4</ele><time>2026-04-11T17:04:09Z</time></trkpt><trkpt lat="43.038551946503155" lon="11.648095243614572"><ele>269.0</ele><time>2026-04-11T17:04:10Z</time></trkpt><trkpt lat="43.03863749874399" lon="11.648154553602309"><ele>269.0</ele><time>2026-04-11T17:04:12Z</time></trkpt><trkpt lat="43.03872218695226" lon="11.648192549586083"><ele>269.0</ele><time>2026-04-11T17:04:14Z</time></trkpt><trkpt lat="43.03881013270363" lon="11.648226116901416"><ele>269.0</ele><time>2026-04-11T17:04:16Z</time></trkpt><trkpt lat="43.038894701253554" lon="11.648271431975783"><ele>269.0</ele><time>2026-04-11T17:04:18Z</time></trkpt><trkpt lat="43.03899038688015" lon="11.648278877117459"><ele>269.0</ele><time>2026-04-11T17:04:20Z</time></trkpt><trkpt lat="43.0390841181207" lon="11.648298923066209"><ele>269.0</ele><time>2026-04-11T17:04:22Z</time></trkpt><trkpt lat="43.03917927982117" lon="11.648323273885296"><ele>269.0</ele><time>2026-04-11T17:04:24Z</time></trkpt><trkpt lat="43.039274175717935" lon="11.648350475547362"><ele>269.0</ele><time>2026-04-11T17:04:26Z</time></trkpt><trkpt lat="43.03937063451182" lon="11.648369288053104"><ele>269.0</ele><time>2026-04-11T17:04:28Z</time></trkpt><trkpt lat="43.03946146615047" lon="11.648377698053011"><ele>269.0</ele><time>2026-04-11T17:04:30Z</time></trkpt><trkpt lat="43.039551164393615" lon="11.648384620129216"><ele>269.0</ele><time>2026-04-11T17:04:32Z</time></trkpt><trkpt lat="43.03964032156413" lon="11.648381246694367"><ele>269.0</ele><time>2026-04-11T17:04:34Z</time></trkpt><trkpt lat="43.03972618431675" lon="11.64837021697378"><ele>269.0</ele><time>2026-04-11T17:04:36Z</time></trkpt><trkpt lat="43.039805625864865" lon="11.64835075505649"><ele>269.0</ele><time>2026-04-11T17:04:38Z</time></trkpt><trkpt lat="43.039888177405835" lon="11.648325996174222"><ele>269.0</ele><time>2026-04-11T17:04:40Z</time></trkpt><trkpt lat="43.03996911441425" lon="11.64830452596905"><ele>269.0</ele><time>2026-04-11T17:04:42Z</time></trkpt><trkpt lat="43.040055838363415" lon="11.64828058354073"><ele>269.59999999999997</ele><time>2026-04-11T17:04:44Z</time></trkpt><trkpt lat="43.040141911052125" lon="11.648256461249133"><ele>270.2</ele><time>2026-04-11T17:04:46Z</time></trkpt><trkpt lat="43.04023988516553" lon="11.648232553652186"><ele>270.79999999999995</ele><time>2026-04-11T17:04:48Z</time></trkpt><trkpt lat="43.04032939279043" lon="11.648207159943325"><ele>271.4</ele><time>2026-04-11T17:04:50Z</time></trkpt><trkpt lat="43.040422237752786" lon="11.648181436939032"><ele>272.0</ele><time>2026-04-11T17:04:52Z</time></trkpt><trkpt lat="43.04050796578523" lon="11.648154829375608"><ele>272.0</ele><time>2026-04-11T17:04:54Z</time></trkpt><trkpt lat="43.04059112696139" lon="11.64813018791898"><ele>272.0</ele><time>2026-04-11T17:04:56Z</time></trkpt><trkpt lat="43.04067555910326" lon="11.648114546393009"><ele>272.0</ele><time>2026-04-11T17:04:58Z</time></trkpt><trkpt lat="43.04077162604919" lon="11.64808446580818"><ele>272.0</ele><time>2026-04-11T17:05:00Z</time></trkpt><trkpt lat="43.04086212829053" lon="11.648057521298785"><ele>272.0</ele><time>2026-04-11T17:05:02Z</time></trkpt><trkpt lat="43.04094810702452" lon="11.648028918717124"><ele>272.6666666666667</ele><time>2026-04-11T17:05:04Z</time></trkpt><trkpt lat="43.04103244789129" lon="11.648006509002888"><ele>273.33333333333337</ele><time>2026-04-11T17:05:06Z</time></trkpt><trkpt lat="43.04112134267482" lon="11.647982762409569"><ele>274.0</ele><time>2026-04-11T17:05:08Z</time></trkpt><trkpt lat="43.04120541366062" lon="11.647963746857107"><ele>274.6666666666667</ele><time>2026-04-11T17:05:10Z</time></trkpt><trkpt lat="43.041279956168665" lon="11.647940924323091"><ele>275.3333333333333</ele><time>2026-04-11T17:05:12Z</time></trkpt><trkpt lat="43.04135791291697" lon="11.647926969702345"><ele>276.0</ele><time>2026-04-11T17:05:14Z</time></trkpt><trkpt lat="43.041438451735544" lon="11.647930587050206"><ele>276.0</ele><time>2026-04-11T17:05:16Z</time></trkpt><trkpt lat="43.04151821509601" lon="11.64794597224319"><ele>276.0</ele><time>2026-04-11T17:05:18Z</time></trkpt><trkpt lat="43.04159961342369" lon="11.647974493688523"><ele>276.0</ele><time>2026-04-11T17:05:20Z</time></trkpt><trkpt lat="43.04167965581049" lon="11.648020632506"><ele>276.0</ele><time>2026-04-11T17:05:22Z</time></trkpt><trkpt lat="43.04175588084048" lon="11.648067110005705"><ele>276.0</ele><time>2026-04-11T17:05:24Z</time></trkpt><trkpt lat="43.041825518696555" lon="11.648117586887981"><ele>276.0</ele><time>2026-04-11T17:05:26Z</time></trkpt><trkpt lat="43.04189695622693" lon="11.64816666193001"><ele>276.6666666666667</ele><time>2026-04-11T17:05:28Z</time></trkpt><trkpt lat="43.041972359157626" lon="11.648211825050018"><ele>277.3333333333333</ele><time>2026-04-11T17:05:30Z</time></trkpt><trkpt lat="43.04204277590154" lon="11.648254807918525"><ele>278.0</ele><time>2026-04-11T17:05:32Z</time></trkpt><trkpt lat="43.04211904959974" lon="11.648298039023464"><ele>278.66666666666663</ele><time>2026-04-11T17:05:34Z</time></trkpt><trkpt lat="43.04219454460607" lon="11.648341407646475"><ele>279.3333333333333</ele><time>2026-04-11T17:05:36Z</time></trkpt><trkpt lat="43.04227265923667" lon="11.64838485854265"><ele>280.0</ele><time>2026-04-11T17:05:38Z</time></trkpt><trkpt lat="43.04234632557684" lon="11.648422167536756"><ele>280.0</ele><time>2026-04-11T17:05:40Z</time></trkpt><trkpt lat="43.04242254469134" lon="11.648464138901385"><ele>280.0</ele><time>2026-04-11T17:05:42Z</time></trkpt><trkpt lat="43.042496504527385" lon="11.648507809295102"><ele>280.0</ele><time>2026-04-11T17:05:44Z</time></trkpt><trkpt lat="43.042576671403296" lon="11.648543738993489"><ele>280.0</ele><time>2026-04-11T17:05:46Z</time></trkpt><trkpt lat="43.04264887465319" lon="11.648583752179517"><ele>280.0</ele><time>2026-04-11T17:05:48Z</time></trkpt><trkpt lat="43.042726710941565" lon="11.648625783975984"><ele>280.0</ele><time>2026-04-11T17:05:50Z</time></trkpt><trkpt lat="43.042808895544916" lon="11.64867264190895"><ele>281.3333333333333</ele><time>2026-04-11T17:05:52Z</time></trkpt><trkpt lat="43.04288851101629" lon="11.648730874142139"><ele>282.66666666666663</ele><time>2026-04-11T17:05:54Z</time></trkpt><trkpt lat="43.04296159514222" lon="11.64880489731782"><ele>284.0</ele><time>2026-04-11T17:05:56Z</time></trkpt><trkpt lat="43.04302881434235" lon="11.64887693146646"><ele>285.3333333333333</ele><time>2026-04-11T17:05:58Z</time></trkpt><trkpt lat="43.04308504334317" lon="11.648958215850152"><ele>286.6666666666667</ele><time>2026-04-11T17:06:00Z</time></trkpt><trkpt lat="43.04313341954775" lon="11.649051870759608"><ele>288.0</ele><time>2026-04-11T17:06:02Z</time></trkpt><trkpt lat="43.04318542039129" lon="11.649134342589516"><ele>288.0</ele><time>2026-04-11T17:06:04Z</time></trkpt><trkpt lat="43.043225840591234" lon="11.64923286525442"><ele>288.0</ele><time>2026-04-11T17:06:06Z</time></trkpt><trkpt lat="43.04326793823373" lon="11.649325511296416"><ele>288.0</ele><time>2026-04-11T17:06:08Z</time></trkpt><trkpt lat="43.04331095971686" lon="11.649411831456623"><ele>288.0</ele><time>2026-04-11T17:06:10Z</time></trkpt><trkpt lat="43.043344359601065" lon="11.649502586993108"><ele>288.0</ele><time>2026-04-11T17:06:12Z</time></trkpt><trkpt lat="43.04338597838421" lon="11.64958904175477"><ele>288.0</ele><time>2026-04-11T17:06:14Z</time></trkpt><trkpt lat="43.04342725622815" lon="11.649675123330084"><ele>288.0</ele><time>2026-04-11T17:06:16Z</time></trkpt><trkpt lat="43.043465507936865" lon="11.649761662342474"><ele>288.0</ele><time>2026-04-11T17:06:18Z</time></trkpt><trkpt lat="43.04351091480504" lon="11.6498433727419"><ele>288.0</ele><time>2026-04-11T17:06:20Z</time></trkpt><trkpt lat="43.0435512050618" lon="11.649933150228494"><ele>288.0</ele><time>2026-04-11T17:06:22Z</time></trkpt><trkpt lat="43.04359416656089" lon="11.650021417470363"><ele>288.0</ele><time>2026-04-11T17:06:24Z</time></trkpt><trkpt lat="43.04363758957699" lon="11.650115202946262"><ele>288.0</ele><time>2026-04-11T17:06:26Z</time></trkpt><trkpt lat="43.04368255135516" lon="11.650209033400627"><ele>288.6666666666667</ele><time>2026-04-11T17:06:28Z</time></trkpt><trkpt lat="43.04372470117899" lon="11.650301592524867"><ele>289.3333333333333</ele><time>2026-04-11T17:06:30Z</time></trkpt><trkpt lat="43.04376709059819" lon="11.650394453173401"><ele>290.0</ele><time>2026-04-11T17:06:32Z</time></trkpt><trkpt lat="43.04380948546609" lon="11.65048363698689"><ele>290.66666666666663</ele><time>2026-04-11T17:06:34Z</time></trkpt><trkpt lat="43.043852793206625" lon="11.650571054287974"><ele>291.3333333333333</ele><time>2026-04-11T17:06:36Z</time></trkpt><trkpt lat="43.04389602312408" lon="11.650663367278483"><ele>292.0</ele><time>2026-04-11T17:06:38Z</time></trkpt><trkpt lat="43.04393880161417" lon="11.650752706281999"><ele>292.0</ele><time>2026-04-11T17:06:40Z</time></trkpt><trkpt lat="43.04398295452693" lon="11.65084189751638"><ele>292.0</ele><time>2026-04-11T17:06:42Z</time></trkpt><trkpt lat="43.044023315208804" lon="11.650928499386726"><ele>292.0</ele><time>2026-04-11T17:06:44Z</time></trkpt><trkpt lat="43.0440556723154" lon="11.651011390932306"><ele>292.0</ele><time>2026-04-11T17:06:46Z</time></trkpt><trkpt lat="43.04409498728912" lon="11.651107109736817"><ele>292.0</ele><time>2026-04-11T17:06:48Z</time></trkpt><trkpt lat="43.04413348329941" lon="11.65120374159493"><ele>292.0</ele><time>2026-04-11T17:06:50Z</time></trkpt><trkpt lat="43.044172518668184" lon="11.651301748205904"><ele>292.16666666666663</ele><time>2026-04-11T17:06:52Z</time></trkpt><trkpt lat="43.044213316976126" lon="11.651394972276883"><ele>292.3333333333333</ele><time>2026-04-11T17:06:54Z</time></trkpt><trkpt lat="43.04425575390629" lon="11.651482950420245"><ele>292.5</ele><time>2026-04-11T17:06:56Z</time></trkpt><trkpt lat="43.044310506432346" lon="11.651569601879258"><ele>292.6666666666667</ele><time>2026-04-11T17:06:58Z</time></trkpt><trkpt lat="43.04437435011718" lon="11.651646491078601"><ele>292.83333333333337</ele><time>2026-04-11T17:07:00Z</time></trkpt><trkpt lat="43.044443845348134" lon="11.651704873346349"><ele>293.0</ele><time>2026-04-11T17:07:02Z</time></trkpt><trkpt lat="43.04450657110396" lon="11.651747116052368"><ele>293.0</ele><time>2026-04-11T17:07:04Z</time></trkpt><trkpt lat="43.04457030407094" lon="11.6517842509959"><ele>293.0</ele><time>2026-04-11T17:07:06Z</time></trkpt><trkpt lat="43.04463565541726" lon="11.65182843706864"><ele>293.0</ele><time>2026-04-11T17:07:08Z</time></trkpt><trkpt lat="43.04471002469612" lon="11.651879787118814"><ele>293.0</ele><time>2026-04-11T17:07:10Z</time></trkpt><trkpt lat="43.044791475819515" lon="11.65194858050874"><ele>293.0</ele><time>2026-04-11T17:07:12Z</time></trkpt><trkpt lat="43.044874305361866" lon="11.652033030346669"><ele>293.0</ele><time>2026-04-11T17:07:14Z</time></trkpt><trkpt lat="43.04495724526775" lon="11.652135452030366"><ele>292.6666666666667</ele><time>2026-04-11T17:07:16Z</time></trkpt><trkpt lat="43.04503571933775" lon="11.652263399701136"><ele>292.33333333333337</ele><time>2026-04-11T17:07:18Z</time></trkpt><trkpt lat="43.04507207439064" lon="11.652340400253578"><ele>292.0</ele><time>2026-04-11T17:07:19Z</time></trkpt><trkpt lat="43.04510890610595" lon="11.652416471436704"><ele>291.6666666666667</ele><time>2026-04-11T17:07:20Z</time></trkpt><trkpt lat="43.04515094229778" lon="11.652498423357775"><ele>291.3333333333333</ele><time>2026-04-11T17:07:21Z</time></trkpt><trkpt lat="43.045194624099665" lon="11.652583739570428"><ele>291.0</ele><time>2026-04-11T17:07:22Z</time></trkpt><trkpt lat="43.045237995573856" lon="11.652673829268787"><ele>291.0</ele><time>2026-04-11T17:07:23Z</time></trkpt><trkpt lat="43.04528717829748" lon="11.65276611092473"><ele>291.0</ele><time>2026-04-11T17:07:24Z</time></trkpt><trkpt lat="43.04533300331345" lon="11.652857238883081"><ele>291.0</ele><time>2026-04-11T17:07:25Z</time></trkpt><trkpt lat="43.04537844371504" lon="11.652949172200454"><ele>291.0</ele><time>2026-04-11T17:07:26Z</time></trkpt><trkpt lat="43.04542668240588" lon="11.653044218378273"><ele>291.0</ele><time>2026-04-11T17:07:27Z</time></trkpt><trkpt lat="43.0454771034998" lon="11.65314232695817"><ele>291.0</ele><time>2026-04-11T17:07:28Z</time></trkpt><trkpt lat="43.04552522674674" lon="11.653236502963134"><ele>290.8333333333333</ele><time>2026-04-11T17:07:29Z</time></trkpt><trkpt lat="43.0455761638023" lon="11.653334454072779"><ele>290.6666666666667</ele><time>2026-04-11T17:07:30Z</time></trkpt><trkpt lat="43.045625561918136" lon="11.653435364780092"><ele>290.5</ele><time>2026-04-11T17:07:31Z</time></trkpt><trkpt lat="43.04567940792999" lon="11.653532713415647"><ele>290.33333333333337</ele><time>2026-04-11T17:07:32Z</time></trkpt><trkpt lat="43.0457268365851" lon="11.653632995219217"><ele>290.1666666666667</ele><time>2026-04-11T17:07:33Z</time></trkpt><trkpt lat="43.045766688312554" lon="11.653726875615671"><ele>290.0</ele><time>2026-04-11T17:07:34Z</time></trkpt><trkpt lat="43.045808422558494" lon="11.653806663248087"><ele>288.6666666666667</ele><time>2026-04-11T17:07:35Z</time></trkpt><trkpt lat="43.04583430777108" lon="11.653905736009616"><ele>287.33333333333337</ele><time>2026-04-11T17:07:36Z</time></trkpt><trkpt lat="43.04587449251136" lon="11.653989630020012"><ele>286.0</ele><time>2026-04-11T17:07:37Z</time></trkpt><trkpt lat="43.045919203603006" lon="11.65405510147086"><ele>284.6666666666667</ele><time>2026-04-11T17:07:38Z</time></trkpt><trkpt lat="43.045958455259694" lon="11.654131967883655"><ele>283.3333333333333</ele><time>2026-04-11T17:07:39Z</time></trkpt><trkpt lat="43.04599569548279" lon="11.65420390428207"><ele>282.0</ele><time>2026-04-11T17:07:40Z</time></trkpt><trkpt lat="43.04611004252374" lon="11.654370420660092"><ele>281.0</ele><time>2026-04-11T17:07:42Z</time></trkpt><trkpt lat="43.04618682174753" lon="11.654495203968443"><ele>280.0</ele><time>2026-04-11T17:07:44Z</time></trkpt><trkpt lat="43.0462673980922" lon="11.65460549205875"><ele>279.0</ele><time>2026-04-11T17:07:46Z</time></trkpt><trkpt lat="43.04636457296996" lon="11.654684433518813"><ele>278.0</ele><time>2026-04-11T17:07:48Z</time></trkpt><trkpt lat="43.046469386130546" lon="11.654742370242582"><ele>278.0</ele><time>2026-04-11T17:07:50Z</time></trkpt><trkpt lat="43.04658321823377" lon="11.654728951684385"><ele>278.0</ele><time>2026-04-11T17:07:52Z</time></trkpt><trkpt lat="43.04669100693281" lon="11.65474666535004"><ele>278.0</ele><time>2026-04-11T17:07:54Z</time></trkpt><trkpt lat="43.04680582268314" lon="11.654736205041635"><ele>278.0</ele><time>2026-04-11T17:07:56Z</time></trkpt><trkpt lat="43.046922978466775" lon="11.654722553831862"><ele>278.5</ele><time>2026-04-11T17:07:58Z</time></trkpt><trkpt lat="43.04703832601739" lon="11.654685980977609"><ele>279.0</ele><time>2026-04-11T17:08:00Z</time></trkpt><trkpt lat="43.0471011655731" lon="11.654678484592784"><ele>279.5</ele><time>2026-04-11T17:08:01Z</time></trkpt><trkpt lat="43.04723111267767" lon="11.654651627202885"><ele>280.0</ele><time>2026-04-11T17:08:03Z</time></trkpt><trkpt lat="43.04729762252959" lon="11.654645072408002"><ele>280.5</ele><time>2026-04-11T17:08:04Z</time></trkpt><trkpt lat="43.0473648425508" lon="11.654640671567435"><ele>281.0</ele><time>2026-04-11T17:08:05Z</time></trkpt><trkpt lat="43.047490352646804" lon="11.654626852547743"><ele>281.0</ele><time>2026-04-11T17:08:07Z</time></trkpt><trkpt lat="43.047558917584674" lon="11.654621301949808"><ele>281.0</ele><time>2026-04-11T17:08:08Z</time></trkpt><trkpt lat="43.047687776570584" lon="11.654634208812446"><ele>281.0</ele><time>2026-04-11T17:08:10Z</time></trkpt><trkpt lat="43.04780799173478" lon="11.654674154993835"><ele>281.0</ele><time>2026-04-11T17:08:12Z</time></trkpt><trkpt lat="43.04786654719715" lon="11.654711254322327"><ele>281.0</ele><time>2026-04-11T17:08:13Z</time></trkpt><trkpt lat="43.04792334174929" lon="11.654759266196013"><ele>281.0</ele><time>2026-04-11T17:08:14Z</time></trkpt><trkpt lat="43.04797649188108" lon="11.65481401560719"><ele>281.0</ele><time>2026-04-11T17:08:15Z</time></trkpt><trkpt lat="43.048076247670835" lon="11.654906480209366"><ele>281.0</ele><time>2026-04-11T17:08:17Z</time></trkpt><trkpt lat="43.04813330461455" lon="11.654966088327152"><ele>281.0</ele><time>2026-04-11T17:08:18Z</time></trkpt><trkpt lat="43.048188042907945" lon="11.655016122613283"><ele>281.0</ele><time>2026-04-11T17:08:19Z</time></trkpt><trkpt lat="43.04824327832496" lon="11.655072749931037"><ele>281.0</ele><time>2026-04-11T17:08:20Z</time></trkpt><trkpt lat="43.0483016143279" lon="11.65513110965641"><ele>281.33333333333337</ele><time>2026-04-11T17:08:21Z</time></trkpt><trkpt lat="43.04835900158903" lon="11.65518947948609"><ele>281.6666666666667</ele><time>2026-04-11T17:08:22Z</time></trkpt><trkpt lat="43.04842245480627" lon="11.655248904536746"><ele>282.0</ele><time>2026-04-11T17:08:23Z</time></trkpt><trkpt lat="43.048484102166604" lon="11.655311849697277"><ele>282.3333333333333</ele><time>2026-04-11T17:08:24Z</time></trkpt><trkpt lat="43.04854777997113" lon="11.655377817325478"><ele>282.66666666666663</ele><time>2026-04-11T17:08:25Z</time></trkpt><trkpt lat="43.048611825303674" lon="11.655444794147758"><ele>283.0</ele><time>2026-04-11T17:08:26Z</time></trkpt><trkpt lat="43.04867584138875" lon="11.655510641528187"><ele>282.3333333333333</ele><time>2026-04-11T17:08:27Z</time></trkpt><trkpt lat="43.04874246509668" lon="11.655577834815311"><ele>281.66666666666663</ele><time>2026-04-11T17:08:28Z</time></trkpt><trkpt lat="43.048811084747754" lon="11.655647256610516"><ele>281.0</ele><time>2026-04-11T17:08:29Z</time></trkpt><trkpt lat="43.048882023058" lon="11.655715988525323"><ele>280.3333333333333</ele><time>2026-04-11T17:08:30Z</time></trkpt><trkpt lat="43.04894924542973" lon="11.655790533547487"><ele>279.6666666666667</ele><time>2026-04-11T17:08:31Z</time></trkpt><trkpt lat="43.049019440293115" lon="11.655859364103776"><ele>279.0</ele><time>2026-04-11T17:08:32Z</time></trkpt><trkpt lat="43.049084477117084" lon="11.655920814332921"><ele>279.1666666666667</ele><time>2026-04-11T17:08:33Z</time></trkpt><trkpt lat="43.04914838898554" lon="11.655988080149923"><ele>279.3333333333333</ele><time>2026-04-11T17:08:34Z</time></trkpt><trkpt lat="43.04921459010928" lon="11.656047477206373"><ele>279.5</ele><time>2026-04-11T17:08:35Z</time></trkpt><trkpt lat="43.049271463226006" lon="11.656115931680617"><ele>279.66666666666663</ele><time>2026-04-11T17:08:36Z</time></trkpt><trkpt lat="43.04933034265331" lon="11.656179406035623"><ele>279.8333333333333</ele><time>2026-04-11T17:08:37Z</time></trkpt><trkpt lat="43.04938736718632" lon="11.656235273203063"><ele>280.0</ele><time>2026-04-11T17:08:38Z</time></trkpt><trkpt lat="43.049443873870565" lon="11.656290894726995"><ele>280.16666666666663</ele><time>2026-04-11T17:08:39Z</time></trkpt><trkpt lat="43.049492065346776" lon="11.65634963005825"><ele>280.3333333333333</ele><time>2026-04-11T17:08:40Z</time></trkpt><trkpt lat="43.0495853043148" lon="11.656423421811843"><ele>280.5</ele><time>2026-04-11T17:08:42Z</time></trkpt><trkpt lat="43.04965946223956" lon="11.656511768510727"><ele>280.6666666666667</ele><time>2026-04-11T17:08:44Z</time></trkpt><trkpt lat="43.04973514682306" lon="11.656574726548635"><ele>280.83333333333337</ele><time>2026-04-11T17:08:46Z</time></trkpt><trkpt lat="43.04979627336286" lon="11.656650601914805"><ele>281.0</ele><time>2026-04-11T17:08:48Z</time></trkpt><trkpt lat="43.049864467085335" lon="11.656717070979944"><ele>281.0</ele><time>2026-04-11T17:08:50Z</time></trkpt><trkpt lat="43.04992981403828" lon="11.656777440493576"><ele>281.0</ele><time>2026-04-11T17:08:52Z</time></trkpt><trkpt lat="43.049994459339494" lon="11.656843897887875"><ele>281.0</ele><time>2026-04-11T17:08:54Z</time></trkpt><trkpt lat="43.05006179919415" lon="11.656908293602442"><ele>281.0</ele><time>2026-04-11T17:08:56Z</time></trkpt><trkpt lat="43.050130486285575" lon="11.656949359075645"><ele>281.0</ele><time>2026-04-11T17:08:58Z</time></trkpt><trkpt lat="43.050202256450575" lon="11.656980468573229"><ele>281.0</ele><time>2026-04-11T17:09:00Z</time></trkpt><trkpt lat="43.050278039891055" lon="11.65701952979841"><ele>281.33333333333337</ele><time>2026-04-11T17:09:02Z</time></trkpt><trkpt lat="43.0503552536166" lon="11.656997333902984"><ele>281.6666666666667</ele><time>2026-04-11T17:09:04Z</time></trkpt><trkpt lat="43.05043266243686" lon="11.65698665296361"><ele>282.0</ele><time>2026-04-11T17:09:06Z</time></trkpt><trkpt lat="43.050514696239475" lon="11.656989412077161"><ele>282.3333333333333</ele><time>2026-04-11T17:09:08Z</time></trkpt><trkpt lat="43.05058798374344" lon="11.656948338540673"><ele>282.66666666666663</ele><time>2026-04-11T17:09:10Z</time></trkpt><trkpt lat="43.050669054509086" lon="11.656927037526977"><ele>283.0</ele><time>2026-04-11T17:09:12Z</time></trkpt><trkpt lat="43.050752672084066" lon="11.656907274573319"><ele>283.0</ele><time>2026-04-11T17:09:14Z</time></trkpt><trkpt lat="43.05083565218337" lon="11.656887289993978"><ele>283.0</ele><time>2026-04-11T17:09:16Z</time></trkpt><trkpt lat="43.050924119442136" lon="11.656867604390007"><ele>283.0</ele><time>2026-04-11T17:09:18Z</time></trkpt><trkpt lat="43.0510149148461" lon="11.656852546857472"><ele>283.0</ele><time>2026-04-11T17:09:20Z</time></trkpt><trkpt lat="43.051104146977266" lon="11.656844806596341"><ele>283.0</ele><time>2026-04-11T17:09:22Z</time></trkpt><trkpt lat="43.05119590249601" lon="11.656841616246128"><ele>283.0</ele><time>2026-04-11T17:09:24Z</time></trkpt><trkpt lat="43.05129158676917" lon="11.656847562723962"><ele>283.0</ele><time>2026-04-11T17:09:26Z</time></trkpt><trkpt lat="43.05138502490778" lon="11.656867943480574"><ele>283.0</ele><time>2026-04-11T17:09:28Z</time></trkpt><trkpt lat="43.05148005074437" lon="11.656893764544993"><ele>283.0</ele><time>2026-04-11T17:09:30Z</time></trkpt><trkpt lat="43.051571177204515" lon="11.656921102430708"><ele>283.0</ele><time>2026-04-11T17:09:32Z</time></trkpt><trkpt lat="43.05165349903931" lon="11.656936174861555"><ele>283.0</ele><time>2026-04-11T17:09:34Z</time></trkpt><trkpt lat="43.051723820788226" lon="11.65697531266019"><ele>283.0</ele><time>2026-04-11T17:09:36Z</time></trkpt><trkpt lat="43.051793811702105" lon="11.656981416599447"><ele>284.3333333333333</ele><time>2026-04-11T17:09:38Z</time></trkpt><trkpt lat="43.051876433974854" lon="11.657029062116123"><ele>285.66666666666663</ele><time>2026-04-11T17:09:41Z</time></trkpt><trkpt lat="43.05195800589058" lon="11.657068572841192"><ele>287.0</ele><time>2026-04-11T17:09:44Z</time></trkpt><trkpt lat="43.05201798036518" lon="11.65709760407224"><ele>288.3333333333333</ele><time>2026-04-11T17:09:46Z</time></trkpt><trkpt lat="43.0520851855406" lon="11.657151166361738"><ele>289.6666666666667</ele><time>2026-04-11T17:09:48Z</time></trkpt><trkpt lat="43.05216958768357" lon="11.657218731986044"><ele>291.0</ele><time>2026-04-11T17:09:50Z</time></trkpt><trkpt lat="43.05224455528738" lon="11.657271969288482"><ele>291.0</ele><time>2026-04-11T17:09:52Z</time></trkpt><trkpt lat="43.05231319222025" lon="11.65733023007204"><ele>291.0</ele><time>2026-04-11T17:09:54Z</time></trkpt><trkpt lat="43.05237609029469" lon="11.657380182981159"><ele>291.0</ele><time>2026-04-11T17:09:56Z</time></trkpt><trkpt lat="43.05243165959625" lon="11.657431657351369"><ele>291.0</ele><time>2026-04-11T17:09:58Z</time></trkpt><trkpt lat="43.052507933856845" lon="11.657481774026655"><ele>291.0</ele><time>2026-04-11T17:10:01Z</time></trkpt><trkpt lat="43.052581995298695" lon="11.657545628550295"><ele>291.0</ele><time>2026-04-11T17:10:04Z</time></trkpt><trkpt lat="43.052639233892336" lon="11.657593433657906"><ele>290.5</ele><time>2026-04-11T17:10:06Z</time></trkpt><trkpt lat="43.05270569926492" lon="11.657640386423237"><ele>290.0</ele><time>2026-04-11T17:10:08Z</time></trkpt><trkpt lat="43.0527740695753" lon="11.657693466376847"><ele>289.5</ele><time>2026-04-11T17:10:10Z</time></trkpt><trkpt lat="43.052841548336396" lon="11.657760237721858"><ele>289.0</ele><time>2026-04-11T17:10:12Z</time></trkpt><trkpt lat="43.052909222953375" lon="11.657827171074647"><ele>288.5</ele><time>2026-04-11T17:10:14Z</time></trkpt><trkpt lat="43.05296954727802" lon="11.657890601062258"><ele>288.0</ele><time>2026-04-11T17:10:16Z</time></trkpt><trkpt lat="43.05302379133418" lon="11.657956103912815"><ele>288.3333333333333</ele><time>2026-04-11T17:10:18Z</time></trkpt><trkpt lat="43.05306646783125" lon="11.658038434208995"><ele>288.6666666666667</ele><time>2026-04-11T17:10:20Z</time></trkpt><trkpt lat="43.05311601032827" lon="11.658128050278844"><ele>289.0</ele><time>2026-04-11T17:10:22Z</time></trkpt><trkpt lat="43.053169714470314" lon="11.65821997725375"><ele>289.33333333333337</ele><time>2026-04-11T17:10:24Z</time></trkpt><trkpt lat="43.053206512242355" lon="11.65832004317361"><ele>289.6666666666667</ele><time>2026-04-11T17:10:26Z</time></trkpt><trkpt lat="43.05324870733984" lon="11.658414223112416"><ele>290.0</ele><time>2026-04-11T17:10:28Z</time></trkpt><trkpt lat="43.053297852456375" lon="11.658506402363177"><ele>290.0</ele><time>2026-04-11T17:10:30Z</time></trkpt><trkpt lat="43.053346300812706" lon="11.658607486302424"><ele>290.0</ele><time>2026-04-11T17:10:32Z</time></trkpt><trkpt lat="43.05339708436781" lon="11.658720413587677"><ele>290.0</ele><time>2026-04-11T17:10:34Z</time></trkpt><trkpt lat="43.05346370077894" lon="11.658830897119984"><ele>290.0</ele><time>2026-04-11T17:10:36Z</time></trkpt><trkpt lat="43.05352107361171" lon="11.65893842415642"><ele>290.0</ele><time>2026-04-11T17:10:38Z</time></trkpt><trkpt lat="43.05355749105978" lon="11.659040018217711"><ele>291.33333333333337</ele><time>2026-04-11T17:10:40Z</time></trkpt><trkpt lat="43.05360742631535" lon="11.65913725951702"><ele>292.6666666666667</ele><time>2026-04-11T17:10:42Z</time></trkpt><trkpt lat="43.053646222546625" lon="11.65921904536342"><ele>294.0</ele><time>2026-04-11T17:10:44Z</time></trkpt><trkpt lat="43.05369481524018" lon="11.659302163648828"><ele>295.3333333333333</ele><time>2026-04-11T17:10:47Z</time></trkpt><trkpt lat="43.05373956536692" lon="11.659396003473095"><ele>296.66666666666663</ele><time>2026-04-11T17:10:50Z</time></trkpt><trkpt lat="43.05378280868587" lon="11.659510179422941"><ele>298.0</ele><time>2026-04-11T17:10:53Z</time></trkpt><trkpt lat="43.05383587328271" lon="11.659616755627209"><ele>299.66666666666663</ele><time>2026-04-11T17:10:56Z</time></trkpt><trkpt lat="43.05388308185136" lon="11.65971074214129"><ele>301.3333333333333</ele><time>2026-04-11T17:10:59Z</time></trkpt><trkpt lat="43.05392623750381" lon="11.659796550405893"><ele>303.0</ele><time>2026-04-11T17:11:02Z</time></trkpt><trkpt lat="43.053966732658814" lon="11.659875344072887"><ele>304.6666666666667</ele><time>2026-04-11T17:11:04Z</time></trkpt><trkpt lat="43.054005397897484" lon="11.659950577075412"><ele>306.33333333333337</ele><time>2026-04-11T17:11:06Z</time></trkpt><trkpt lat="43.05406765200817" lon="11.660037407396617"><ele>308.0</ele><time>2026-04-11T17:11:09Z</time></trkpt><trkpt lat="43.0541010689873" lon="11.66011456861534"><ele>306.2857142857143</ele><time>2026-04-11T17:11:11Z</time></trkpt><trkpt lat="43.05414352448353" lon="11.660197321048319"><ele>304.57142857142856</ele><time>2026-04-11T17:11:13Z</time></trkpt><trkpt lat="43.054177350025824" lon="11.660272156750365"><ele>302.8571428571429</ele><time>2026-04-11T17:11:15Z</time></trkpt><trkpt lat="43.05421495832288" lon="11.660361189630583"><ele>301.1428571428571</ele><time>2026-04-11T17:11:17Z</time></trkpt><trkpt lat="43.05426430696449" lon="11.660436377701954"><ele>299.42857142857144</ele><time>2026-04-11T17:11:19Z</time></trkpt><trkpt lat="43.05430574357809" lon="11.660521336091247"><ele>297.7142857142857</ele><time>2026-04-11T17:11:21Z</time></trkpt><trkpt lat="43.054348263470764" lon="11.660600141929123"><ele>296.0</ele><time>2026-04-11T17:11:23Z</time></trkpt><trkpt lat="43.05440048729264" lon="11.660674141677218"><ele>296.0</ele><time>2026-04-11T17:11:25Z</time></trkpt><trkpt lat="43.0544593187407" lon="11.660743038499191"><ele>296.0</ele><time>2026-04-11T17:11:27Z</time></trkpt><trkpt lat="43.054529446272156" lon="11.660805777976805"><ele>296.0</ele><time>2026-04-11T17:11:29Z</time></trkpt><trkpt lat="43.054603174732335" lon="11.660867427637582"><ele>296.0</ele><time>2026-04-11T17:11:31Z</time></trkpt><trkpt lat="43.05467904876798" lon="11.6609272248359"><ele>296.0</ele><time>2026-04-11T17:11:33Z</time></trkpt><trkpt lat="43.05476268398665" lon="11.660983849711092"><ele>296.0</ele><time>2026-04-11T17:11:35Z</time></trkpt><trkpt lat="43.05484658361956" lon="11.661047691378013"><ele>295.2</ele><time>2026-04-11T17:11:37Z</time></trkpt><trkpt lat="43.05493233556191" lon="11.66113073349684"><ele>294.40000000000003</ele><time>2026-04-11T17:11:39Z</time></trkpt><trkpt lat="43.05503211147151" lon="11.66117990184358"><ele>293.6</ele><time>2026-04-11T17:11:41Z</time></trkpt><trkpt lat="43.05513401268473" lon="11.661234730452614"><ele>292.8</ele><time>2026-04-11T17:11:43Z</time></trkpt><trkpt lat="43.05523802997483" lon="11.661283658481613"><ele>292.0</ele><time>2026-04-11T17:11:45Z</time></trkpt><trkpt lat="43.05534748851863" lon="11.661319704692364"><ele>292.0</ele><time>2026-04-11T17:11:47Z</time></trkpt><trkpt lat="43.05545573158227" lon="11.661346072125466"><ele>292.0</ele><time>2026-04-11T17:11:49Z</time></trkpt><trkpt lat="43.05557015695452" lon="11.661375110609855"><ele>292.0</ele><time>2026-04-11T17:11:51Z</time></trkpt><trkpt lat="43.0556824981939" lon="11.661404068940763"><ele>292.0</ele><time>2026-04-11T17:11:53Z</time></trkpt><trkpt lat="43.05579217602439" lon="11.661440360307028"><ele>291.4</ele><time>2026-04-11T17:11:55Z</time></trkpt><trkpt lat="43.05589970674833" lon="11.661451776090352"><ele>290.79999999999995</ele><time>2026-04-11T17:11:57Z</time></trkpt><trkpt lat="43.056006184566236" lon="11.661469320334188"><ele>290.2</ele><time>2026-04-11T17:11:59Z</time></trkpt><trkpt lat="43.05611260580036" lon="11.661492482539435"><ele>289.59999999999997</ele><time>2026-04-11T17:12:01Z</time></trkpt><trkpt lat="43.05621251332717" lon="11.661510056877553"><ele>289.0</ele><time>2026-04-11T17:12:03Z</time></trkpt><trkpt lat="43.056302968703015" lon="11.661535463295449"><ele>289.0</ele><time>2026-04-11T17:12:05Z</time></trkpt><trkpt lat="43.05640345130834" lon="11.661552033834207"><ele>289.0</ele><time>2026-04-11T17:12:07Z</time></trkpt><trkpt lat="43.05650314442276" lon="11.661580307880918"><ele>289.0</ele><time>2026-04-11T17:12:09Z</time></trkpt><trkpt lat="43.0566042644644" lon="11.661612212478541"><ele>289.0</ele><time>2026-04-11T17:12:11Z</time></trkpt><trkpt lat="43.05670863413415" lon="11.661638640437115"><ele>289.0</ele><time>2026-04-11T17:12:13Z</time></trkpt><trkpt lat="43.056801174149875" lon="11.661696272092472"><ele>288.8</ele><time>2026-04-11T17:12:15Z</time></trkpt><trkpt lat="43.05688621208653" lon="11.661775379769118"><ele>288.59999999999997</ele><time>2026-04-11T17:12:17Z</time></trkpt><trkpt lat="43.05694843440885" lon="11.661848010617218"><ele>288.4</ele><time>2026-04-11T17:12:19Z</time></trkpt><trkpt lat="43.05703268271286" lon="11.661927471606587"><ele>288.2</ele><time>2026-04-11T17:12:21Z</time></trkpt><trkpt lat="43.057088689703285" lon="11.66201146240228"><ele>288.0</ele><time>2026-04-11T17:12:23Z</time></trkpt><trkpt lat="43.057148260016625" lon="11.662094992646214"><ele>288.0</ele><time>2026-04-11T17:12:25Z</time></trkpt><trkpt lat="43.05721660079628" lon="11.662180113562234"><ele>288.0</ele><time>2026-04-11T17:12:27Z</time></trkpt><trkpt lat="43.05727408002738" lon="11.66225779657763"><ele>288.0</ele><time>2026-04-11T17:12:29Z</time></trkpt><trkpt lat="43.057342993170444" lon="11.662347379503506"><ele>288.0</ele><time>2026-04-11T17:12:31Z</time></trkpt><trkpt lat="43.05740911920056" lon="11.662439688091085"><ele>288.0</ele><time>2026-04-11T17:12:33Z</time></trkpt><trkpt lat="43.05746941630434" lon="11.662518043500073"><ele>288.0</ele><time>2026-04-11T17:12:35Z</time></trkpt><trkpt lat="43.057530437477226" lon="11.662596334289738"><ele>288.0</ele><time>2026-04-11T17:12:37Z</time></trkpt><trkpt lat="43.05759241541439" lon="11.662681416299172"><ele>288.0</ele><time>2026-04-11T17:12:39Z</time></trkpt><trkpt lat="43.057653142621504" lon="11.662767212265871"><ele>288.0</ele><time>2026-04-11T17:12:41Z</time></trkpt><trkpt lat="43.057712721404684" lon="11.662847789817052"><ele>288.0</ele><time>2026-04-11T17:12:43Z</time></trkpt><trkpt lat="43.057781896525476" lon="11.662909503396062"><ele>288.0</ele><time>2026-04-11T17:12:45Z</time></trkpt><trkpt lat="43.057825885241435" lon="11.662994852824356"><ele>288.0</ele><time>2026-04-11T17:12:47Z</time></trkpt><trkpt lat="43.05789279419904" lon="11.663075390321923"><ele>288.0</ele><time>2026-04-11T17:12:50Z</time></trkpt><trkpt lat="43.05794904478926" lon="11.663143124817195"><ele>288.0</ele><time>2026-04-11T17:12:52Z</time></trkpt><trkpt lat="43.058006960350674" lon="11.663219791726391"><ele>288.0</ele><time>2026-04-11T17:12:54Z</time></trkpt><trkpt lat="43.05807475013124" lon="11.663303767972304"><ele>288.0</ele><time>2026-04-11T17:12:56Z</time></trkpt><trkpt lat="43.058128869932894" lon="11.663392308511508"><ele>288.0</ele><time>2026-04-11T17:12:58Z</time></trkpt><trkpt lat="43.05819012342628" lon="11.663464695343794"><ele>288.0</ele><time>2026-04-11T17:13:00Z</time></trkpt><trkpt lat="43.05824385903101" lon="11.66354278716027"><ele>288.00000000000006</ele><time>2026-04-11T17:13:02Z</time></trkpt><trkpt lat="43.05829885608001" lon="11.663600163576723"><ele>288.0</ele><time>2026-04-11T17:13:04Z</time></trkpt><trkpt lat="43.0583560858728" lon="11.663671646582168"><ele>288.0</ele><time>2026-04-11T17:13:06Z</time></trkpt><trkpt lat="43.05840591158117" lon="11.663741797218549"><ele>288.0</ele><time>2026-04-11T17:13:08Z</time></trkpt><trkpt lat="43.05845058243802" lon="11.663812062646024"><ele>288.0</ele><time>2026-04-11T17:13:10Z</time></trkpt><trkpt lat="43.058506317964586" lon="11.663869531585"><ele>288.00000000000006</ele><time>2026-04-11T17:13:12Z</time></trkpt><trkpt lat="43.05855397818049" lon="11.663936926400769"><ele>288.0</ele><time>2026-04-11T17:13:14Z</time></trkpt><trkpt lat="43.05862273846234" lon="11.664026230620395"><ele>288.1666666666667</ele><time>2026-04-11T17:13:17Z</time></trkpt><trkpt lat="43.05868539342993" lon="11.664107177569733"><ele>288.3333333333333</ele><time>2026-04-11T17:13:20Z</time></trkpt><trkpt lat="43.05875158106929" lon="11.6641939563853"><ele>288.5</ele><time>2026-04-11T17:13:23Z</time></trkpt><trkpt lat="43.058797316851106" lon="11.664261288471167"><ele>288.66666666666663</ele><time>2026-04-11T17:13:25Z</time></trkpt><trkpt lat="43.05884342285199" lon="11.664343449400992"><ele>288.8333333333333</ele><time>2026-04-11T17:13:27Z</time></trkpt><trkpt lat="43.05890378775359" lon="11.664393631964556"><ele>289.0</ele><time>2026-04-11T17:13:29Z</time></trkpt><trkpt lat="43.058951611912924" lon="11.664467714497086"><ele>289.0</ele><time>2026-04-11T17:13:31Z</time></trkpt><trkpt lat="43.05901568837917" lon="11.664546042141687"><ele>289.0</ele><time>2026-04-11T17:13:33Z</time></trkpt><trkpt lat="43.059066274037576" lon="11.664623730029602"><ele>289.0</ele><time>2026-04-11T17:13:35Z</time></trkpt><trkpt lat="43.059129302666385" lon="11.664697686430822"><ele>289.0</ele><time>2026-04-11T17:13:37Z</time></trkpt><trkpt lat="43.059179154114744" lon="11.664780829558575"><ele>289.0</ele><time>2026-04-11T17:13:39Z</time></trkpt><trkpt lat="43.059238068280706" lon="11.664851795079192"><ele>289.0</ele><time>2026-04-11T17:13:41Z</time></trkpt><trkpt lat="43.05929318103811" lon="11.664928799277687"><ele>289.59999999999997</ele><time>2026-04-11T17:13:43Z</time></trkpt><trkpt lat="43.059353251509535" lon="11.665021060156532"><ele>290.2</ele><time>2026-04-11T17:13:45Z</time></trkpt><trkpt lat="43.05942376460196" lon="11.665120742649776"><ele>290.79999999999995</ele><time>2026-04-11T17:13:47Z</time></trkpt><trkpt lat="43.05948866322419" lon="11.665214150323235"><ele>291.4</ele><time>2026-04-11T17:13:49Z</time></trkpt><trkpt lat="43.05956155534358" lon="11.665313149359614"><ele>292.0</ele><time>2026-04-11T17:13:51Z</time></trkpt><trkpt lat="43.05962769015842" lon="11.665407978936933"><ele>292.0</ele><time>2026-04-11T17:13:53Z</time></trkpt><trkpt lat="43.05969171944317" lon="11.665503208684436"><ele>292.0</ele><time>2026-04-11T17:13:55Z</time></trkpt><trkpt lat="43.05975946886909" lon="11.665595129996413"><ele>292.0</ele><time>2026-04-11T17:13:57Z</time></trkpt><trkpt lat="43.05982926100301" lon="11.665685872878907"><ele>292.0</ele><time>2026-04-11T17:13:59Z</time></trkpt><trkpt lat="43.05989653674965" lon="11.665772164377039"><ele>292.0</ele><time>2026-04-11T17:14:01Z</time></trkpt><trkpt lat="43.059957404182285" lon="11.665860023036654"><ele>292.4</ele><time>2026-04-11T17:14:03Z</time></trkpt><trkpt lat="43.060020710988894" lon="11.665950442894916"><ele>292.79999999999995</ele><time>2026-04-11T17:14:05Z</time></trkpt><trkpt lat="43.060084569738216" lon="11.66604131452502"><ele>293.2</ele><time>2026-04-11T17:14:07Z</time></trkpt><trkpt lat="43.06014602033738" lon="11.666136471313946"><ele>293.59999999999997</ele><time>2026-04-11T17:14:09Z</time></trkpt><trkpt lat="43.060207071467104" lon="11.666228939661568"><ele>294.0</ele><time>2026-04-11T17:14:11Z</time></trkpt><trkpt lat="43.060268491050174" lon="11.666320002485607"><ele>294.0</ele><time>2026-04-11T17:14:13Z</time></trkpt><trkpt lat="43.060316512059195" lon="11.666422162186814"><ele>294.0</ele><time>2026-04-11T17:14:15Z</time></trkpt><trkpt lat="43.06035983178578" lon="11.666547656069461"><ele>294.0</ele><time>2026-04-11T17:14:17Z</time></trkpt><trkpt lat="43.06039472222965" lon="11.66667745371212"><ele>294.0</ele><time>2026-04-11T17:14:19Z</time></trkpt><trkpt lat="43.060428524466445" lon="11.66680251516376"><ele>294.0</ele><time>2026-04-11T17:14:21Z</time></trkpt><trkpt lat="43.060464090628905" lon="11.666928625083651"><ele>294.0</ele><time>2026-04-11T17:14:23Z</time></trkpt><trkpt lat="43.06049671132369" lon="11.667055891301414"><ele>294.0</ele><time>2026-04-11T17:14:25Z</time></trkpt><trkpt lat="43.06052791520337" lon="11.667180353544289"><ele>294.0</ele><time>2026-04-11T17:14:27Z</time></trkpt><trkpt lat="43.06056088935641" lon="11.667316991691765"><ele>294.0</ele><time>2026-04-11T17:14:29Z</time></trkpt><trkpt lat="43.06060224246196" lon="11.667454578376631"><ele>294.0</ele><time>2026-04-11T17:14:31Z</time></trkpt><trkpt lat="43.0606313162786" lon="11.667591120330094"><ele>294.0</ele><time>2026-04-11T17:14:33Z</time></trkpt><trkpt lat="43.06066987580896" lon="11.667744798391634"><ele>294.0</ele><time>2026-04-11T17:14:35Z</time></trkpt><trkpt lat="43.06070475255982" lon="11.66789844419475"><ele>294.0</ele><time>2026-04-11T17:14:37Z</time></trkpt><trkpt lat="43.06072984857986" lon="11.667978668879233"><ele>294.0</ele><time>2026-04-11T17:14:38Z</time></trkpt><trkpt lat="43.060766433267425" lon="11.668137737274705"><ele>294.0</ele><time>2026-04-11T17:14:40Z</time></trkpt><trkpt lat="43.060784823374036" lon="11.668222070377778"><ele>293.75</ele><time>2026-04-11T17:14:41Z</time></trkpt><trkpt lat="43.06082312600815" lon="11.668379665880407"><ele>293.5</ele><time>2026-04-11T17:14:43Z</time></trkpt><trkpt lat="43.060857200323966" lon="11.668539891932403"><ele>293.25</ele><time>2026-04-11T17:14:45Z</time></trkpt><trkpt lat="43.06088776079624" lon="11.6686780082019"><ele>293.0</ele><time>2026-04-11T17:14:47Z</time></trkpt><trkpt lat="43.060918523950136" lon="11.66881724734592"><ele>293.0</ele><time>2026-04-11T17:14:49Z</time></trkpt><trkpt lat="43.06095410597507" lon="11.668950100313035"><ele>293.0</ele><time>2026-04-11T17:14:51Z</time></trkpt><trkpt lat="43.06099526219012" lon="11.669070717950182"><ele>293.0</ele><time>2026-04-11T17:14:53Z</time></trkpt><trkpt lat="43.06104693038075" lon="11.669175226872307"><ele>293.0</ele><time>2026-04-11T17:14:55Z</time></trkpt><trkpt lat="43.061106540132734" lon="11.669263664054702"><ele>293.0</ele><time>2026-04-11T17:14:57Z</time></trkpt><trkpt lat="43.06117016061446" lon="11.669350282384062"><ele>293.0</ele><time>2026-04-11T17:14:59Z</time></trkpt><trkpt lat="43.061243055743255" lon="11.669421779564505"><ele>293.0</ele><time>2026-04-11T17:15:01Z</time></trkpt><trkpt lat="43.06132704378944" lon="11.669473842866116"><ele>293.0</ele><time>2026-04-11T17:15:03Z</time></trkpt><trkpt lat="43.06139941866991" lon="11.669551880111124"><ele>293.0</ele><time>2026-04-11T17:15:05Z</time></trkpt><trkpt lat="43.061469477376875" lon="11.669617402104432"><ele>293.0</ele><time>2026-04-11T17:15:07Z</time></trkpt><trkpt lat="43.0615451491923" lon="11.669691620881487"><ele>293.1666666666667</ele><time>2026-04-11T17:15:09Z</time></trkpt><trkpt lat="43.06162104604804" lon="11.669758732896604"><ele>293.33333333333337</ele><time>2026-04-11T17:15:11Z</time></trkpt><trkpt lat="43.061693311997715" lon="11.669822016223264"><ele>293.5</ele><time>2026-04-11T17:15:13Z</time></trkpt><trkpt lat="43.06176819265599" lon="11.66987779586624"><ele>293.6666666666667</ele><time>2026-04-11T17:15:15Z</time></trkpt><trkpt lat="43.06183377717596" lon="11.669953662144014"><ele>293.8333333333333</ele><time>2026-04-11T17:15:17Z</time></trkpt><trkpt lat="43.06192168377155" lon="11.669998378072089"><ele>294.0</ele><time>2026-04-11T17:15:19Z</time></trkpt><trkpt lat="43.061998496908814" lon="11.670059893922046"><ele>294.0</ele><time>2026-04-11T17:15:21Z</time></trkpt><trkpt lat="43.062079005049824" lon="11.670108085360942"><ele>294.0</ele><time>2026-04-11T17:15:23Z</time></trkpt><trkpt lat="43.06215754402474" lon="11.67015893173544"><ele>294.0</ele><time>2026-04-11T17:15:25Z</time></trkpt><trkpt lat="43.06223476315243" lon="11.67021791683748"><ele>294.0</ele><time>2026-04-11T17:15:27Z</time></trkpt><trkpt lat="43.0623127908441" lon="11.670266734697654"><ele>294.0</ele><time>2026-04-11T17:15:29Z</time></trkpt><trkpt lat="43.06239188653516" lon="11.670313618014266"><ele>294.0</ele><time>2026-04-11T17:15:31Z</time></trkpt><trkpt lat="43.06246356041458" lon="11.670387661467378"><ele>294.3333333333333</ele><time>2026-04-11T17:15:33Z</time></trkpt><trkpt lat="43.06254042886949" lon="11.670416467314794"><ele>294.6666666666667</ele><time>2026-04-11T17:15:35Z</time></trkpt><trkpt lat="43.0626073029549" lon="11.670461966469325"><ele>295.0</ele><time>2026-04-11T17:15:37Z</time></trkpt><trkpt lat="43.062677600563525" lon="11.670520073146628"><ele>295.33333333333337</ele><time>2026-04-11T17:15:39Z</time></trkpt><trkpt lat="43.06274907403257" lon="11.670567832403798"><ele>295.6666666666667</ele><time>2026-04-11T17:15:41Z</time></trkpt><trkpt lat="43.06281919658412" lon="11.670615503030268"><ele>296.0</ele><time>2026-04-11T17:15:43Z</time></trkpt><trkpt lat="43.06288608797908" lon="11.670664832394662"><ele>296.0</ele><time>2026-04-11T17:15:45Z</time></trkpt><trkpt lat="43.06295663832112" lon="11.670706562385815"><ele>296.0</ele><time>2026-04-11T17:15:47Z</time></trkpt><trkpt lat="43.06302952553226" lon="11.670757156646186"><ele>296.0</ele><time>2026-04-11T17:15:49Z</time></trkpt><trkpt lat="43.06309905438675" lon="11.670802912309723"><ele>296.0</ele><time>2026-04-11T17:15:51Z</time></trkpt><trkpt lat="43.06316911378031" lon="11.670849660200801"><ele>296.0</ele><time>2026-04-11T17:15:53Z</time></trkpt><trkpt lat="43.063236232512935" lon="11.67089549299278"><ele>296.0</ele><time>2026-04-11T17:15:55Z</time></trkpt><trkpt lat="43.0633037935185" lon="11.670941263859488"><ele>296.42857142857144</ele><time>2026-04-11T17:15:57Z</time></trkpt><trkpt lat="43.06337669663022" lon="11.670988794989645"><ele>296.85714285714283</ele><time>2026-04-11T17:15:59Z</time></trkpt><trkpt lat="43.06343892612711" lon="11.671053027201449"><ele>297.2857142857143</ele><time>2026-04-11T17:16:01Z</time></trkpt><trkpt lat="43.063512240786764" lon="11.671084279145983"><ele>297.7142857142857</ele><time>2026-04-11T17:16:03Z</time></trkpt><trkpt lat="43.06357984971028" lon="11.671127087665512"><ele>298.14285714285717</ele><time>2026-04-11T17:16:05Z</time></trkpt><trkpt lat="43.06364600028015" lon="11.671171653134468"><ele>298.57142857142856</ele><time>2026-04-11T17:16:07Z</time></trkpt><trkpt lat="43.06369687585978" lon="11.67122275372122"><ele>299.0</ele><time>2026-04-11T17:16:09Z</time></trkpt><trkpt lat="43.06376998489493" lon="11.67126011619445"><ele>299.1666666666667</ele><time>2026-04-11T17:16:32Z</time></trkpt><trkpt lat="43.06382706271488" lon="11.67129715053579"><ele>299.33333333333337</ele><time>2026-04-11T17:16:34Z</time></trkpt><trkpt lat="43.06390645006323" lon="11.671354923859555"><ele>299.5</ele><time>2026-04-11T17:16:37Z</time></trkpt><trkpt lat="43.063985374732106" lon="11.671393030593094"><ele>299.6666666666667</ele><time>2026-04-11T17:16:39Z</time></trkpt><trkpt lat="43.064059696931345" lon="11.67144017099192"><ele>299.8333333333333</ele><time>2026-04-11T17:16:41Z</time></trkpt><trkpt lat="43.06412933642569" lon="11.671480483849832"><ele>300.0</ele><time>2026-04-11T17:16:43Z</time></trkpt><trkpt lat="43.06420078311753" lon="11.671543152225679"><ele>300.5</ele><time>2026-04-11T17:16:45Z</time></trkpt><trkpt lat="43.06429375609959" lon="11.67160610423614"><ele>301.0</ele><time>2026-04-11T17:16:48Z</time></trkpt><trkpt lat="43.064368151730285" lon="11.671650784172328"><ele>301.5</ele><time>2026-04-11T17:16:50Z</time></trkpt><trkpt lat="43.06443376092511" lon="11.671694923383958"><ele>302.0</ele><time>2026-04-11T17:16:52Z</time></trkpt><trkpt lat="43.0645018220402" lon="11.67171583416648"><ele>302.5</ele><time>2026-04-11T17:16:54Z</time></trkpt><trkpt lat="43.06456283019656" lon="11.671783808258741"><ele>303.0</ele><time>2026-04-11T17:16:56Z</time></trkpt><trkpt lat="43.064624756517894" lon="11.671824133002534"><ele>303.0</ele><time>2026-04-11T17:16:58Z</time></trkpt><trkpt lat="43.06468740820968" lon="11.671863848775983"><ele>303.0</ele><time>2026-04-11T17:17:00Z</time></trkpt><trkpt lat="43.06474763534967" lon="11.671906517701093"><ele>303.0</ele><time>2026-04-11T17:17:02Z</time></trkpt><trkpt lat="43.06480778587857" lon="11.671948190792937"><ele>303.0</ele><time>2026-04-11T17:17:04Z</time></trkpt><trkpt lat="43.06486593663176" lon="11.67199513254172"><ele>303.0</ele><time>2026-04-11T17:17:06Z</time></trkpt><trkpt lat="43.06492020019613" lon="11.672042675245098"><ele>303.0</ele><time>2026-04-11T17:17:08Z</time></trkpt><trkpt lat="43.06497772065626" lon="11.672083883161955"><ele>303.0</ele><time>2026-04-11T17:17:10Z</time></trkpt><trkpt lat="43.06505708058183" lon="11.672136699998894"><ele>303.8571428571429</ele><time>2026-04-11T17:17:13Z</time></trkpt><trkpt lat="43.06511805578818" lon="11.672167620102197"><ele>304.7142857142857</ele><time>2026-04-11T17:17:15Z</time></trkpt><trkpt lat="43.065189368179745" lon="11.672205321762963"><ele>305.57142857142856</ele><time>2026-04-11T17:17:18Z</time></trkpt><trkpt lat="43.06527427660365" lon="11.672215810489392"><ele>306.42857142857144</ele><time>2026-04-11T17:17:21Z</time></trkpt><trkpt lat="43.06533737553107" lon="11.672200750932303"><ele>307.2857142857143</ele><time>2026-04-11T17:17:23Z</time></trkpt><trkpt lat="43.065397670550794" lon="11.672169082919204"><ele>308.14285714285717</ele><time>2026-04-11T17:17:25Z</time></trkpt><trkpt lat="43.06545261955111" lon="11.672127000835918"><ele>309.0</ele><time>2026-04-11T17:17:27Z</time></trkpt><trkpt lat="43.0655103678254" lon="11.672047137800265"><ele>309.0</ele><time>2026-04-11T17:17:31Z</time></trkpt><trkpt lat="43.06557180113855" lon="11.671972674032073"><ele>309.0</ele><time>2026-04-11T17:17:34Z</time></trkpt><trkpt lat="43.06565339473971" lon="11.671934257511607"><ele>309.0</ele><time>2026-04-11T17:17:37Z</time></trkpt><trkpt lat="43.06573841230249" lon="11.671938142574895"><ele>309.0</ele><time>2026-04-11T17:17:40Z</time></trkpt><trkpt lat="43.065813550183" lon="11.671946277813122"><ele>309.0</ele><time>2026-04-11T17:17:43Z</time></trkpt><trkpt lat="43.06587739872229" lon="11.671964416511837"><ele>309.0</ele><time>2026-04-11T17:17:46Z</time></trkpt><trkpt lat="43.06594770677811" lon="11.671984671462472"><ele>310.3333333333333</ele><time>2026-04-11T17:17:49Z</time></trkpt><trkpt lat="43.066018211335106" lon="11.671996366119059"><ele>311.6666666666667</ele><time>2026-04-11T17:17:52Z</time></trkpt><trkpt lat="43.066084290053894" lon="11.672023352271799"><ele>313.0</ele><time>2026-04-11T17:17:55Z</time></trkpt><trkpt lat="43.0661447221324" lon="11.672064438034223"><ele>314.33333333333337</ele><time>2026-04-11T17:17:58Z</time></trkpt><trkpt lat="43.06620483027715" lon="11.672140910842815"><ele>315.6666666666667</ele><time>2026-04-11T17:18:02Z</time></trkpt><trkpt lat="43.066245294820504" lon="11.672237229300853"><ele>317.0</ele><time>2026-04-11T17:18:06Z</time></trkpt><trkpt lat="43.066270837675034" lon="11.672340327024283"><ele>317.0</ele><time>2026-04-11T17:18:10Z</time></trkpt><trkpt lat="43.06633156821382" lon="11.672423697848345"><ele>317.0</ele><time>2026-04-11T17:18:14Z</time></trkpt><trkpt lat="43.06640081879148" lon="11.672497364148361"><ele>317.0</ele><time>2026-04-11T17:18:18Z</time></trkpt><trkpt lat="43.06647562120069" lon="11.672548731024039"><ele>317.0</ele><time>2026-04-11T17:18:22Z</time></trkpt><trkpt lat="43.06653500646559" lon="11.672593611869804"><ele>317.0</ele><time>2026-04-11T17:18:25Z</time></trkpt><trkpt lat="43.06659707894074" lon="11.672645257208098"><ele>317.0</ele><time>2026-04-11T17:18:29Z</time></trkpt><trkpt lat="43.06664411845313" lon="11.672711687837529"><ele>317.6666666666667</ele><time>2026-04-11T17:18:32Z</time></trkpt><trkpt lat="43.066680370354206" lon="11.672814510655568"><ele>318.33333333333337</ele><time>2026-04-11T17:18:36Z</time></trkpt><trkpt lat="43.066695866760334" lon="11.672913329927269"><ele>319.0</ele><time>2026-04-11T17:18:39Z</time></trkpt><trkpt lat="43.066686667145866" lon="11.673011439823673"><ele>319.6666666666667</ele><time>2026-04-11T17:18:43Z</time></trkpt><trkpt lat="43.06666032810258" lon="11.673111724045016"><ele>320.3333333333333</ele><time>2026-04-11T17:18:47Z</time></trkpt><trkpt lat="43.066603577792485" lon="11.673176648780954"><ele>321.0</ele><time>2026-04-11T17:18:51Z</time></trkpt><trkpt lat="43.06656087632257" lon="11.67325294179494"><ele>320.99999999999994</ele><time>2026-04-11T17:18:55Z</time></trkpt><trkpt lat="43.06653483482703" lon="11.673347461174242"><ele>321.0</ele><time>2026-04-11T17:18:59Z</time></trkpt><trkpt lat="43.066497973621686" lon="11.673421064785607"><ele>321.0</ele><time>2026-04-11T17:19:03Z</time></trkpt><trkpt lat="43.066468966274876" lon="11.673511382320184"><ele>321.0</ele><time>2026-04-11T17:19:08Z</time></trkpt><trkpt lat="43.066498784575174" lon="11.673598579629864"><ele>321.0</ele><time>2026-04-11T17:19:11Z</time></trkpt><trkpt lat="43.06651826904471" lon="11.673694639744493"><ele>320.99999999999994</ele><time>2026-04-11T17:19:15Z</time></trkpt><trkpt lat="43.06656323427281" lon="11.673756589384634"><ele>321.0</ele><time>2026-04-11T17:19:18Z</time></trkpt><trkpt lat="43.06659656393191" lon="11.673847658402458"><ele>322.57142857142856</ele><time>2026-04-11T17:19:22Z</time></trkpt><trkpt lat="43.06664550340502" lon="11.673939893853817"><ele>324.1428571428571</ele><time>2026-04-11T17:19:26Z</time></trkpt><trkpt lat="43.066669585688395" lon="11.674034570204201"><ele>325.71428571428567</ele><time>2026-04-11T17:19:29Z</time></trkpt><trkpt lat="43.06667855046383" lon="11.674128289067212"><ele>327.2857142857143</ele><time>2026-04-11T17:19:32Z</time></trkpt><trkpt lat="43.06669190744879" lon="11.674213988050328"><ele>328.8571428571429</ele><time>2026-04-11T17:19:35Z</time></trkpt><trkpt lat="43.066703076740296" lon="11.674322254208064"><ele>330.4285714285714</ele><time>2026-04-11T17:19:40Z</time></trkpt><trkpt lat="43.066721891104095" lon="11.674408830651616"><ele>332.0</ele><time>2026-04-11T17:19:44Z</time></trkpt><trkpt lat="43.06675589486771" lon="11.674488424454628"><ele>332.0</ele><time>2026-04-11T17:19:48Z</time></trkpt><trkpt lat="43.066798572215404" lon="11.674575727425069"><ele>332.0</ele><time>2026-04-11T17:19:52Z</time></trkpt><trkpt lat="43.06685586663354" lon="11.67463965673716"><ele>332.0</ele><time>2026-04-11T17:19:56Z</time></trkpt><trkpt lat="43.06691988017082" lon="11.674692834523743"><ele>332.0</ele><time>2026-04-11T17:19:59Z</time></trkpt><trkpt lat="43.06698368685218" lon="11.674745568383457"><ele>332.0</ele><time>2026-04-11T17:20:02Z</time></trkpt><trkpt lat="43.067048315800086" lon="11.674779092503316"><ele>332.0</ele><time>2026-04-11T17:20:05Z</time></trkpt><trkpt lat="43.06713140162062" lon="11.674814659077903"><ele>332.0</ele><time>2026-04-11T17:20:08Z</time></trkpt><trkpt lat="43.067220627550064" lon="11.67486544786546"><ele>332.0</ele><time>2026-04-11T17:20:11Z</time></trkpt><trkpt lat="43.06728483051739" lon="11.674900674075595"><ele>332.0</ele><time>2026-04-11T17:20:13Z</time></trkpt><trkpt lat="43.067347590463136" lon="11.674930787573299"><ele>332.0</ele><time>2026-04-11T17:20:16Z</time></trkpt><trkpt lat="43.06742834585423" lon="11.674963069907019"><ele>332.0</ele><time>2026-04-11T17:20:20Z</time></trkpt><trkpt lat="43.067499215471074" lon="11.674999106325867"><ele>332.0</ele><time>2026-04-11T17:20:24Z</time></trkpt><trkpt lat="43.06758527120683" lon="11.675053255404917"><ele>332.83333333333337</ele><time>2026-04-11T17:20:27Z</time></trkpt><trkpt lat="43.067653411285136" lon="11.675095394068592"><ele>333.6666666666667</ele><time>2026-04-11T17:20:30Z</time></trkpt><trkpt lat="43.06772404046856" lon="11.67513606717883"><ele>334.5</ele><time>2026-04-11T17:20:34Z</time></trkpt><trkpt lat="43.06779713556619" lon="11.67518386257048"><ele>335.3333333333333</ele><time>2026-04-11T17:20:38Z</time></trkpt><trkpt lat="43.067863226335184" lon="11.675243944797176"><ele>336.16666666666663</ele><time>2026-04-11T17:20:41Z</time></trkpt><trkpt lat="43.06793750642483" lon="11.6753337505397"><ele>337.0</ele><time>2026-04-11T17:20:44Z</time></trkpt><trkpt lat="43.06798705981094" lon="11.67540467046426"><ele>337.00000000000006</ele><time>2026-04-11T17:20:48Z</time></trkpt><trkpt lat="43.06803325586624" lon="11.675479793842177"><ele>337.0</ele><time>2026-04-11T17:20:51Z</time></trkpt><trkpt lat="43.06809302216795" lon="11.67554779329705"><ele>337.0</ele><time>2026-04-11T17:20:55Z</time></trkpt><trkpt lat="43.06816261648573" lon="11.675616954732124"><ele>337.0</ele><time>2026-04-11T17:20:58Z</time></trkpt><trkpt lat="43.068207577563236" lon="11.675687798598688"><ele>337.0</ele><time>2026-04-11T17:21:00Z</time></trkpt><trkpt lat="43.068253880357396" lon="11.675748974380427"><ele>337.00000000000006</ele><time>2026-04-11T17:21:02Z</time></trkpt><trkpt lat="43.06830210763806" lon="11.675808078312304"><ele>337.0</ele><time>2026-04-11T17:21:04Z</time></trkpt><trkpt lat="43.06834962306884" lon="11.675876843875983"><ele>338.0</ele><time>2026-04-11T17:21:06Z</time></trkpt><trkpt lat="43.06842420487161" lon="11.67597357831306"><ele>339.0</ele><time>2026-04-11T17:21:10Z</time></trkpt><trkpt lat="43.0684729283811" lon="11.67604491504794"><ele>340.0</ele><time>2026-04-11T17:21:13Z</time></trkpt><trkpt lat="43.06852523006288" lon="11.676113415463536"><ele>341.0</ele><time>2026-04-11T17:21:16Z</time></trkpt><trkpt lat="43.06857986113676" lon="11.67619136288543"><ele>342.0</ele><time>2026-04-11T17:21:19Z</time></trkpt><trkpt lat="43.06863637543185" lon="11.676268973554507"><ele>343.0</ele><time>2026-04-11T17:21:22Z</time></trkpt><trkpt lat="43.068686635839015" lon="11.67633538777264"><ele>343.0</ele><time>2026-04-11T17:21:24Z</time></trkpt><trkpt lat="43.068745582371" lon="11.676419494891265"><ele>343.0</ele><time>2026-04-11T17:21:27Z</time></trkpt><trkpt lat="43.068803418637366" lon="11.676487478205914"><ele>343.0</ele><time>2026-04-11T17:21:30Z</time></trkpt><trkpt lat="43.06886323117833" lon="11.676563043276781"><ele>343.0</ele><time>2026-04-11T17:21:33Z</time></trkpt><trkpt lat="43.068918761439384" lon="11.67665540253983"><ele>343.0</ele><time>2026-04-11T17:21:36Z</time></trkpt><trkpt lat="43.068960432872814" lon="11.676757385407715"><ele>343.0</ele><time>2026-04-11T17:21:39Z</time></trkpt><trkpt lat="43.06897297109852" lon="11.67688274343662"><ele>343.5</ele><time>2026-04-11T17:21:42Z</time></trkpt><trkpt lat="43.06896984522557" lon="11.677002913858715"><ele>344.0</ele><time>2026-04-11T17:21:45Z</time></trkpt><trkpt lat="43.068952160190314" lon="11.67710794436308"><ele>344.5</ele><time>2026-04-11T17:21:47Z</time></trkpt><trkpt lat="43.06892934336113" lon="11.677246237517583"><ele>345.0</ele><time>2026-04-11T17:21:50Z</time></trkpt><trkpt lat="43.06891965952377" lon="11.677367024342033"><ele>345.5</ele><time>2026-04-11T17:21:53Z</time></trkpt><trkpt lat="43.068896836687784" lon="11.677462800669774"><ele>346.0</ele><time>2026-04-11T17:21:55Z</time></trkpt><trkpt lat="43.06887050792482" lon="11.677573480510791"><ele>346.0</ele><time>2026-04-11T17:21:57Z</time></trkpt><trkpt lat="43.06883456859953" lon="11.677685748567685"><ele>346.0</ele><time>2026-04-11T17:21:59Z</time></trkpt><trkpt lat="43.068802134360396" lon="11.677787477122015"><ele>346.0</ele><time>2026-04-11T17:22:01Z</time></trkpt><trkpt lat="43.06875903880877" lon="11.677884533180151"><ele>346.0</ele><time>2026-04-11T17:22:03Z</time></trkpt><trkpt lat="43.0687197829667" lon="11.677965739447554"><ele>346.0</ele><time>2026-04-11T17:22:05Z</time></trkpt><trkpt lat="43.06867535995589" lon="11.678070729753864"><ele>346.0</ele><time>2026-04-11T17:22:08Z</time></trkpt><trkpt lat="43.068637879792554" lon="11.678160995293975"><ele>347.3333333333333</ele><time>2026-04-11T17:22:11Z</time></trkpt><trkpt lat="43.06860408316021" lon="11.678253156606045"><ele>348.66666666666663</ele><time>2026-04-11T17:22:14Z</time></trkpt><trkpt lat="43.06859210209402" lon="11.67834815831983"><ele>350.0</ele><time>2026-04-11T17:22:17Z</time></trkpt><trkpt lat="43.06856664314495" lon="11.67845534878163"><ele>351.3333333333333</ele><time>2026-04-11T17:22:21Z</time></trkpt><trkpt lat="43.06854376047526" lon="11.678544273489415"><ele>352.6666666666667</ele><time>2026-04-11T17:22:24Z</time></trkpt><trkpt lat="43.06855116141625" lon="11.678652659114327"><ele>354.0</ele><time>2026-04-11T17:22:28Z</time></trkpt><trkpt lat="43.06854142954219" lon="11.678755478150917"><ele>355.0</ele><time>2026-04-11T17:22:32Z</time></trkpt><trkpt lat="43.06852697836429" lon="11.678842964250562"><ele>356.0</ele><time>2026-04-11T17:22:35Z</time></trkpt><trkpt lat="43.06851391094283" lon="11.678930066020342"><ele>357.0</ele><time>2026-04-11T17:22:38Z</time></trkpt><trkpt lat="43.06850699218022" lon="11.679042782740694"><ele>358.0</ele><time>2026-04-11T17:22:42Z</time></trkpt><trkpt lat="43.06846971730458" lon="11.679136901262895"><ele>359.0</ele><time>2026-04-11T17:22:46Z</time></trkpt><trkpt lat="43.06847628192083" lon="11.679236183582244"><ele>360.0</ele><time>2026-04-11T17:22:50Z</time></trkpt><trkpt lat="43.06845390219237" lon="11.67932880168143"><ele>361.0</ele><time>2026-04-11T17:22:54Z</time></trkpt><trkpt lat="43.06844319949296" lon="11.67943417437851"><ele>361.14285714285717</ele><time>2026-04-11T17:22:57Z</time></trkpt><trkpt lat="43.06842593138749" lon="11.67951709843641"><ele>361.2857142857143</ele><time>2026-04-11T17:23:00Z</time></trkpt><trkpt lat="43.068426758751286" lon="11.679612425114682"><ele>361.42857142857144</ele><time>2026-04-11T17:23:04Z</time></trkpt><trkpt lat="43.068450659804036" lon="11.679724589332714"><ele>361.57142857142856</ele><time>2026-04-11T17:23:08Z</time></trkpt><trkpt lat="43.068484652623425" lon="11.679816531332886"><ele>361.71428571428567</ele><time>2026-04-11T17:23:12Z</time></trkpt><trkpt lat="43.06853265928449" lon="11.67988420332116"><ele>361.85714285714283</ele><time>2026-04-11T17:23:15Z</time></trkpt><trkpt lat="43.06860722638051" lon="11.679938215662617"><ele>362.0</ele><time>2026-04-11T17:23:18Z</time></trkpt><trkpt lat="43.068661653705526" lon="11.67998301274488"><ele>362.0</ele><time>2026-04-11T17:23:21Z</time></trkpt><trkpt lat="43.06872522768837" lon="11.679978683435099"><ele>362.0</ele><time>2026-04-11T17:23:24Z</time></trkpt><trkpt lat="43.0688048324336" lon="11.679962132814458"><ele>362.0</ele><time>2026-04-11T17:23:28Z</time></trkpt><trkpt lat="43.06886153607441" lon="11.679921697523893"><ele>362.0</ele><time>2026-04-11T17:23:31Z</time></trkpt><trkpt lat="43.06891725300742" lon="11.679839281308992"><ele>362.0</ele><time>2026-04-11T17:23:35Z</time></trkpt><trkpt lat="43.06896126332408" lon="11.679747162055088"><ele>362.0</ele><time>2026-04-11T17:23:38Z</time></trkpt><trkpt lat="43.06900289829572" lon="11.679642612258746"><ele>362.0</ele><time>2026-04-11T17:23:41Z</time></trkpt><trkpt lat="43.06902378825316" lon="11.679560625020862"><ele>362.0</ele><time>2026-04-11T17:23:43Z</time></trkpt><trkpt lat="43.069039723985526" lon="11.679446495450163"><ele>362.0</ele><time>2026-04-11T17:23:46Z</time></trkpt><trkpt lat="43.06906525699151" lon="11.679325618649964"><ele>362.0</ele><time>2026-04-11T17:23:49Z</time></trkpt><trkpt lat="43.06909244956698" lon="11.679233404769867"><ele>362.0</ele><time>2026-04-11T17:23:52Z</time></trkpt><trkpt lat="43.069134441644856" lon="11.679143950738682"><ele>362.0</ele><time>2026-04-11T17:23:55.001Z</time></trkpt><trkpt lat="43.06919099149841" lon="11.679049530266145"><ele>363.2857142857143</ele><time>2026-04-11T17:23:58Z</time></trkpt><trkpt lat="43.06922287016406" lon="11.678960317700492"><ele>364.57142857142856</ele><time>2026-04-11T17:24:01Z</time></trkpt><trkpt lat="43.069293264121626" lon="11.678930133585053"><ele>365.8571428571429</ele><time>2026-04-11T17:24:04Z</time></trkpt><trkpt lat="43.069359686725555" lon="11.678896289691275"><ele>367.1428571428571</ele><time>2026-04-11T17:24:07Z</time></trkpt><trkpt lat="43.069434130946675" lon="11.678878249686013"><ele>368.42857142857144</ele><time>2026-04-11T17:24:10Z</time></trkpt><trkpt lat="43.06949950076357" lon="11.678876256815698"><ele>369.7142857142857</ele><time>2026-04-11T17:24:13Z</time></trkpt><trkpt lat="43.069563526274095" lon="11.678847605663089"><ele>371.0</ele><time>2026-04-11T17:24:16Z</time></trkpt><trkpt lat="43.0696481646228" lon="11.678837239727976"><ele>371.0</ele><time>2026-04-11T17:24:20Z</time></trkpt><trkpt lat="43.069713515758636" lon="11.678841637280959"><ele>371.0</ele><time>2026-04-11T17:24:23Z</time></trkpt><trkpt lat="43.06979421071934" lon="11.678836033262156"><ele>371.0</ele><time>2026-04-11T17:24:26Z</time></trkpt><trkpt lat="43.06987354749599" lon="11.678814548391378"><ele>371.0</ele><time>2026-04-11T17:24:29Z</time></trkpt><trkpt lat="43.06994941355248" lon="11.678801800027264"><ele>371.0</ele><time>2026-04-11T17:24:32Z</time></trkpt><trkpt lat="43.070021005317095" lon="11.67879224968566"><ele>371.0</ele><time>2026-04-11T17:24:36Z</time></trkpt><trkpt lat="43.07008545098487" lon="11.678772574518895"><ele>371.0</ele><time>2026-04-11T17:24:39Z</time></trkpt><trkpt lat="43.07016829950822" lon="11.67876993554857"><ele>372.5</ele><time>2026-04-11T17:24:43Z</time></trkpt><trkpt lat="43.07025053758179" lon="11.678756505146662"><ele>374.0</ele><time>2026-04-11T17:24:47Z</time></trkpt><trkpt lat="43.07033340528494" lon="11.678749762247193"><ele>375.5</ele><time>2026-04-11T17:24:51Z</time></trkpt><trkpt lat="43.07040580185993" lon="11.678706846665564"><ele>377.0</ele><time>2026-04-11T17:24:55Z</time></trkpt><trkpt lat="43.070474069725385" lon="11.678686373829011"><ele>378.5</ele><time>2026-04-11T17:25:01Z</time></trkpt><trkpt lat="43.07055006567469" lon="11.678704192943387"><ele>380.0</ele><time>2026-04-11T17:25:25Z</time></trkpt><trkpt lat="43.070628961367426" lon="11.678719817825488"><ele>380.0</ele><time>2026-04-11T17:25:28Z</time></trkpt><trkpt lat="43.07070738802494" lon="11.678711667686873"><ele>380.0</ele><time>2026-04-11T17:25:31Z</time></trkpt><trkpt lat="43.07078744172585" lon="11.678710357639304"><ele>380.0</ele><time>2026-04-11T17:25:34Z</time></trkpt><trkpt lat="43.07085535319879" lon="11.678712068919971"><ele>380.0</ele><time>2026-04-11T17:25:37Z</time></trkpt><trkpt lat="43.07093671584573" lon="11.67870471888617"><ele>380.0</ele><time>2026-04-11T17:25:40Z</time></trkpt><trkpt lat="43.0710144404908" lon="11.678695606883972"><ele>380.0</ele><time>2026-04-11T17:25:44Z</time></trkpt><trkpt lat="43.07108537226245" lon="11.678686166175197"><ele>381.1666666666667</ele><time>2026-04-11T17:25:47Z</time></trkpt><trkpt lat="43.0711550328758" lon="11.678684089643788"><ele>382.33333333333337</ele><time>2026-04-11T17:25:50Z</time></trkpt><trkpt lat="43.071228333951275" lon="11.678668511319671"><ele>383.5</ele><time>2026-04-11T17:25:53Z</time></trkpt><trkpt lat="43.07130465634862" lon="11.678656430866148"><ele>384.6666666666667</ele><time>2026-04-11T17:25:56Z</time></trkpt><trkpt lat="43.07138160475058" lon="11.678643227990758"><ele>385.8333333333333</ele><time>2026-04-11T17:25:59Z</time></trkpt><trkpt lat="43.07145998466021" lon="11.67863332820273"><ele>387.0</ele><time>2026-04-11T17:26:02Z</time></trkpt><trkpt lat="43.07153380266523" lon="11.678622407305362"><ele>387.0</ele><time>2026-04-11T17:26:05Z</time></trkpt><trkpt lat="43.07160391454579" lon="11.678602355440495"><ele>387.0</ele><time>2026-04-11T17:26:08Z</time></trkpt><trkpt lat="43.07167980063154" lon="11.678592949294567"><ele>387.0</ele><time>2026-04-11T17:26:11Z</time></trkpt><trkpt lat="43.07175661330637" lon="11.678589159952427"><ele>387.0</ele><time>2026-04-11T17:26:14Z</time></trkpt><trkpt lat="43.071826382410514" lon="11.678575510175639"><ele>387.0</ele><time>2026-04-11T17:26:17Z</time></trkpt><trkpt lat="43.071894784343485" lon="11.678575367055025"><ele>387.0</ele><time>2026-04-11T17:26:20Z</time></trkpt><trkpt lat="43.07196765009297" lon="11.678584089507215"><ele>387.0</ele><time>2026-04-11T17:26:23Z</time></trkpt><trkpt lat="43.072045151990395" lon="11.678619677210463"><ele>388.14285714285717</ele><time>2026-04-11T17:26:26Z</time></trkpt><trkpt lat="43.07210435624551" lon="11.67867365827905"><ele>389.28571428571433</ele><time>2026-04-11T17:26:29Z</time></trkpt><trkpt lat="43.07213299916421" lon="11.678769844109038"><ele>390.42857142857144</ele><time>2026-04-11T17:26:32Z</time></trkpt><trkpt lat="43.0721409933427" lon="11.678872540386083"><ele>391.57142857142856</ele><time>2026-04-11T17:26:35Z</time></trkpt><trkpt lat="43.072139436170104" lon="11.678975074761292"><ele>392.7142857142857</ele><time>2026-04-11T17:26:38Z</time></trkpt><trkpt lat="43.072135534777665" lon="11.679072254187984"><ele>393.85714285714283</ele><time>2026-04-11T17:26:41Z</time></trkpt><trkpt lat="43.07213590312634" lon="11.679167202148417"><ele>395.0</ele><time>2026-04-11T17:26:44Z</time></trkpt><trkpt lat="43.072119668573656" lon="11.679258954641988"><ele>394.99999999999994</ele><time>2026-04-11T17:26:47Z</time></trkpt><trkpt lat="43.07211229466656" lon="11.679355532123271"><ele>395.0</ele><time>2026-04-11T17:26:50Z</time></trkpt><trkpt lat="43.07209257242074" lon="11.679455226920922"><ele>395.0</ele><time>2026-04-11T17:26:53Z</time></trkpt><trkpt lat="43.07208528567905" lon="11.679555477290005"><ele>395.0</ele><time>2026-04-11T17:26:56Z</time></trkpt><trkpt lat="43.07206777537904" lon="11.67965912607212"><ele>394.99999999999994</ele><time>2026-04-11T17:26:59Z</time></trkpt><trkpt lat="43.07204616292695" lon="11.679766366426575"><ele>395.0</ele><time>2026-04-11T17:27:02Z</time></trkpt><trkpt lat="43.07203022531542" lon="11.679888347296737"><ele>395.57142857142856</ele><time>2026-04-11T17:27:05Z</time></trkpt><trkpt lat="43.07200785244261" lon="11.679971499040375"><ele>396.14285714285717</ele><time>2026-04-11T17:27:07Z</time></trkpt><trkpt lat="43.072014316412336" lon="11.680068746502231"><ele>396.7142857142857</ele><time>2026-04-11T17:27:09Z</time></trkpt><trkpt lat="43.072054475162766" lon="11.680164032367928"><ele>397.2857142857143</ele><time>2026-04-11T17:27:12Z</time></trkpt><trkpt lat="43.07213131611204" lon="11.680199677420768"><ele>397.8571428571429</ele><time>2026-04-11T17:27:15Z</time></trkpt><trkpt lat="43.072196589949144" lon="11.680237743815956"><ele>398.42857142857144</ele><time>2026-04-11T17:27:18Z</time></trkpt><trkpt lat="43.07227257561758" lon="11.68021129209856"><ele>399.0</ele><time>2026-04-11T17:27:21Z</time></trkpt><trkpt lat="43.07233642499926" lon="11.680162196558166"><ele>399.0</ele><time>2026-04-11T17:27:24Z</time></trkpt><trkpt lat="43.07238761675005" lon="11.680068383376387"><ele>399.0</ele><time>2026-04-11T17:27:27Z</time></trkpt><trkpt lat="43.07242453994691" lon="11.679996896576988"><ele>399.0</ele><time>2026-04-11T17:27:29Z</time></trkpt><trkpt lat="43.072453285830335" lon="11.67991626676907"><ele>399.0</ele><time>2026-04-11T17:27:31Z</time></trkpt><trkpt lat="43.072490796713154" lon="11.679829038787867"><ele>399.0</ele><time>2026-04-11T17:27:33Z</time></trkpt><trkpt lat="43.07251497435237" lon="11.679732233728613"><ele>399.0</ele><time>2026-04-11T17:27:35Z</time></trkpt><trkpt lat="43.07255856721741" lon="11.679643567174667"><ele>399.0</ele><time>2026-04-11T17:27:37Z</time></trkpt><trkpt lat="43.07261064071934" lon="11.679537257481197"><ele>400.0</ele><time>2026-04-11T17:27:40Z</time></trkpt><trkpt lat="43.072654371879146" lon="11.67944177075282"><ele>401.0</ele><time>2026-04-11T17:27:42Z</time></trkpt><trkpt lat="43.07269747238279" lon="11.679347498658885"><ele>402.0</ele><time>2026-04-11T17:27:45Z</time></trkpt><trkpt lat="43.07274543727386" lon="11.679265670809079"><ele>403.0</ele><time>2026-04-11T17:27:48Z</time></trkpt><trkpt lat="43.07278494154006" lon="11.679180604831252"><ele>404.0</ele><time>2026-04-11T17:27:51Z</time></trkpt><trkpt lat="43.07282767444078" lon="11.679090507353147"><ele>405.0</ele><time>2026-04-11T17:27:54Z</time></trkpt><trkpt lat="43.07288838072508" lon="11.679012665389793"><ele>405.0</ele><time>2026-04-11T17:27:57Z</time></trkpt><trkpt lat="43.072950302603914" lon="11.678931394938093"><ele>405.0</ele><time>2026-04-11T17:28:00Z</time></trkpt><trkpt lat="43.07301462426708" lon="11.678855300657684"><ele>405.0</ele><time>2026-04-11T17:28:03Z</time></trkpt><trkpt lat="43.073068180716554" lon="11.678793852132214"><ele>405.0</ele><time>2026-04-11T17:28:06Z</time></trkpt><trkpt lat="43.07312090200663" lon="11.67872666289495"><ele>405.0</ele><time>2026-04-11T17:28:09Z</time></trkpt><trkpt lat="43.073177594937086" lon="11.678664158792856"><ele>405.0</ele><time>2026-04-11T17:28:12Z</time></trkpt><trkpt lat="43.07323240723903" lon="11.678594352347782"><ele>406.3333333333333</ele><time>2026-04-11T17:28:15Z</time></trkpt><trkpt lat="43.07328938424916" lon="11.67852759724043"><ele>407.66666666666663</ele><time>2026-04-11T17:28:18Z</time></trkpt><trkpt lat="43.0733456852005" lon="11.678455456844672"><ele>409.0</ele><time>2026-04-11T17:28:21Z</time></trkpt><trkpt lat="43.073395835843485" lon="11.678384104904191"><ele>410.3333333333333</ele><time>2026-04-11T17:28:24Z</time></trkpt><trkpt lat="43.073441179135706" lon="11.678302889380747"><ele>411.66666666666663</ele><time>2026-04-11T17:28:27Z</time></trkpt><trkpt lat="43.07349053301377" lon="11.678218797501028"><ele>413.0</ele><time>2026-04-11T17:28:30Z</time></trkpt><trkpt lat="43.073538279058546" lon="11.678110083271081"><ele>412.99999999999994</ele><time>2026-04-11T17:28:33Z</time></trkpt><trkpt lat="43.073572492573554" lon="11.678037256000309"><ele>413.0</ele><time>2026-04-11T17:28:35Z</time></trkpt><trkpt lat="43.07360303622369" lon="11.67795756797517"><ele>413.0</ele><time>2026-04-11T17:28:37Z</time></trkpt><trkpt lat="43.07365709331017" lon="11.677839045058967"><ele>413.0</ele><time>2026-04-11T17:28:39Z</time></trkpt><trkpt lat="43.073700504337914" lon="11.677731754395172"><ele>412.99999999999994</ele><time>2026-04-11T17:28:42Z</time></trkpt><trkpt lat="43.07373310042701" lon="11.677647711374888"><ele>413.0</ele><time>2026-04-11T17:28:44Z</time></trkpt><trkpt lat="43.073759397504574" lon="11.677567142422685"><ele>412.16666666666663</ele><time>2026-04-11T17:28:46Z</time></trkpt><trkpt lat="43.07379146248663" lon="11.677489849547289"><ele>411.3333333333333</ele><time>2026-04-11T17:28:48Z</time></trkpt><trkpt lat="43.073823801539085" lon="11.67741460543541"><ele>410.5</ele><time>2026-04-11T17:28:50Z</time></trkpt><trkpt lat="43.07385489207161" lon="11.677339177704399"><ele>409.66666666666663</ele><time>2026-04-11T17:28:52Z</time></trkpt><trkpt lat="43.07388934666105" lon="11.67721941572379"><ele>408.8333333333333</ele><time>2026-04-11T17:28:55Z</time></trkpt><trkpt lat="43.0739357989231" lon="11.677112074748315"><ele>408.0</ele><time>2026-04-11T17:28:58Z</time></trkpt><trkpt lat="43.07397170192254" lon="11.677006393632423"><ele>407.57142857142856</ele><time>2026-04-11T17:29:01Z</time></trkpt><trkpt lat="43.073995520296634" lon="11.676919144433088"><ele>407.14285714285717</ele><time>2026-04-11T17:29:04Z</time></trkpt><trkpt lat="43.07401002440688" lon="11.676832536503145"><ele>406.71428571428567</ele><time>2026-04-11T17:29:07Z</time></trkpt><trkpt lat="43.074034802546585" lon="11.676749482382458"><ele>406.2857142857143</ele><time>2026-04-11T17:29:10Z</time></trkpt><trkpt lat="43.07405760130408" lon="11.67666158340712"><ele>405.85714285714283</ele><time>2026-04-11T17:29:13Z</time></trkpt><trkpt lat="43.07407264888679" lon="11.676560020847857"><ele>405.4285714285714</ele><time>2026-04-11T17:29:17Z</time></trkpt><trkpt lat="43.07410031772812" lon="11.676473885442382"><ele>405.0</ele><time>2026-04-11T17:29:21Z</time></trkpt><trkpt lat="43.07412948771956" lon="11.676382845369716"><ele>408.8333333333333</ele><time>2026-04-11T17:29:25Z</time></trkpt><trkpt lat="43.07415240295194" lon="11.676284600826413"><ele>412.66666666666663</ele><time>2026-04-11T17:29:29Z</time></trkpt><trkpt lat="43.074193078854535" lon="11.676213145319522"><ele>416.5</ele><time>2026-04-11T17:29:32Z</time></trkpt><trkpt lat="43.07423660271629" lon="11.676111401174683"><ele>420.3333333333333</ele><time>2026-04-11T17:29:36Z</time></trkpt><trkpt lat="43.07427972392066" lon="11.676018035680256"><ele>424.16666666666663</ele><time>2026-04-11T17:29:40Z</time></trkpt><trkpt lat="43.07432355836411" lon="11.675933077166409"><ele>428.0</ele><time>2026-04-11T17:29:44Z</time></trkpt><trkpt lat="43.074362912634555" lon="11.675850788553735"><ele>428.00000000000006</ele><time>2026-04-11T17:29:47Z</time></trkpt><trkpt lat="43.07440209329214" lon="11.675773498021302"><ele>428.0</ele><time>2026-04-11T17:29:50Z</time></trkpt><trkpt lat="43.07443979459062" lon="11.675693138100206"><ele>428.0</ele><time>2026-04-11T17:29:53Z</time></trkpt><trkpt lat="43.0744830570856" lon="11.675606008614427"><ele>428.0</ele><time>2026-04-11T17:29:55Z</time></trkpt><trkpt lat="43.07453236026812" lon="11.675523361115372"><ele>428.0</ele><time>2026-04-11T17:29:59Z</time></trkpt><trkpt lat="43.074581935912995" lon="11.675436703934647"><ele>428.00000000000006</ele><time>2026-04-11T17:30:02Z</time></trkpt><trkpt lat="43.07463213299475" lon="11.675361300106337"><ele>428.0</ele><time>2026-04-11T17:30:05Z</time></trkpt><trkpt lat="43.07469868940033" lon="11.675301997501306"><ele>428.8333333333333</ele><time>2026-04-11T17:30:08Z</time></trkpt><trkpt lat="43.074772034735155" lon="11.675255224290291"><ele>429.66666666666663</ele><time>2026-04-11T17:30:11Z</time></trkpt><trkpt lat="43.07483581542438" lon="11.675218683935952"><ele>430.5</ele><time>2026-04-11T17:30:14Z</time></trkpt><trkpt lat="43.0749034615199" lon="11.675160097143293"><ele>431.33333333333337</ele><time>2026-04-11T17:30:18Z</time></trkpt><trkpt lat="43.07498436917052" lon="11.67512616104166"><ele>432.1666666666667</ele><time>2026-04-11T17:30:22Z</time></trkpt><trkpt lat="43.07506952139825" lon="11.675100634616484"><ele>433.0</ele><time>2026-04-11T17:30:25Z</time></trkpt><trkpt lat="43.07514327480561" lon="11.675050604034737"><ele>432.99999999999994</ele><time>2026-04-11T17:30:28Z</time></trkpt><trkpt lat="43.07520971478829" lon="11.675010061319657"><ele>433.0</ele><time>2026-04-11T17:30:30Z</time></trkpt><trkpt lat="43.07527134742139" lon="11.674961732524693"><ele>433.0</ele><time>2026-04-11T17:30:32Z</time></trkpt><trkpt lat="43.07532809415541" lon="11.674918131170916"><ele>433.0</ele><time>2026-04-11T17:30:34Z</time></trkpt><trkpt lat="43.07538337423638" lon="11.674864772094505"><ele>433.0</ele><time>2026-04-11T17:30:36Z</time></trkpt><trkpt lat="43.075432662816816" lon="11.67481055957326"><ele>432.99999999999994</ele><time>2026-04-11T17:30:38Z</time></trkpt><trkpt lat="43.07549181125451" lon="11.674760277449968"><ele>433.0</ele><time>2026-04-11T17:30:40Z</time></trkpt><trkpt lat="43.07554434871327" lon="11.674709745278516"><ele>433.00000000000006</ele><time>2026-04-11T17:30:42Z</time></trkpt><trkpt lat="43.07562816254024" lon="11.674646929043504"><ele>433.0</ele><time>2026-04-11T17:30:45Z</time></trkpt><trkpt lat="43.07568814967122" lon="11.674575753812745"><ele>433.0</ele><time>2026-04-11T17:30:48Z</time></trkpt><trkpt lat="43.07576448732437" lon="11.674516052019108"><ele>433.0</ele><time>2026-04-11T17:30:51Z</time></trkpt><trkpt lat="43.07582730681871" lon="11.674463789348557"><ele>433.00000000000006</ele><time>2026-04-11T17:30:53Z</time></trkpt><trkpt lat="43.07591389938325" lon="11.674411913205688"><ele>433.0</ele><time>2026-04-11T17:30:56Z</time></trkpt><trkpt lat="43.075978825827015" lon="11.674380403869074"><ele>433.6666666666667</ele><time>2026-04-11T17:30:59Z</time></trkpt><trkpt lat="43.07603539295429" lon="11.674334204349094"><ele>434.33333333333337</ele><time>2026-04-11T17:31:01Z</time></trkpt><trkpt lat="43.076116379066754" lon="11.67428665171712"><ele>435.0</ele><time>2026-04-11T17:31:04Z</time></trkpt><trkpt lat="43.07618071733078" lon="11.674205088777404"><ele>435.66666666666663</ele><time>2026-04-11T17:31:07Z</time></trkpt><trkpt lat="43.07622992261111" lon="11.674147881726213"><ele>436.3333333333333</ele><time>2026-04-11T17:31:09Z</time></trkpt><trkpt lat="43.0762994216723" lon="11.674066234610764"><ele>437.0</ele><time>2026-04-11T17:31:12Z</time></trkpt><trkpt lat="43.07636571971158" lon="11.673982023737155"><ele>437.0</ele><time>2026-04-11T17:31:15Z</time></trkpt><trkpt lat="43.076414216950496" lon="11.673917949988278"><ele>437.0</ele><time>2026-04-11T17:31:18Z</time></trkpt><trkpt lat="43.076461080512985" lon="11.673832330953726"><ele>437.0</ele><time>2026-04-11T17:31:21Z</time></trkpt><trkpt lat="43.076496294192374" lon="11.673757904484578"><ele>437.0</ele><time>2026-04-11T17:31:24Z</time></trkpt><trkpt lat="43.07654230171411" lon="11.673673494498383"><ele>437.0</ele><time>2026-04-11T17:31:27Z</time></trkpt><trkpt lat="43.07657583519345" lon="11.6735792156529"><ele>437.0</ele><time>2026-04-11T17:31:30Z</time></trkpt><trkpt lat="43.07660943201991" lon="11.673495441517241"><ele>437.0</ele><time>2026-04-11T17:31:33Z</time></trkpt><trkpt lat="43.07665279230239" lon="11.673412258816072"><ele>438.2857142857143</ele><time>2026-04-11T17:31:37Z</time></trkpt><trkpt lat="43.076687554259394" lon="11.673332095199434"><ele>439.5714285714286</ele><time>2026-04-11T17:31:40Z</time></trkpt><trkpt lat="43.07674267009714" lon="11.673266118773196"><ele>440.8571428571429</ele><time>2026-04-11T17:31:43Z</time></trkpt><trkpt lat="43.076809812766015" lon="11.67323997784041"><ele>442.1428571428571</ele><time>2026-04-11T17:31:46Z</time></trkpt><trkpt lat="43.076871140683664" lon="11.673263759958504"><ele>443.42857142857144</ele><time>2026-04-11T17:31:49Z</time></trkpt><trkpt lat="43.076894403626845" lon="11.673349300760684"><ele>444.7142857142857</ele><time>2026-04-11T17:31:52Z</time></trkpt><trkpt lat="43.07689418912267" lon="11.673462592401954"><ele>446.0</ele><time>2026-04-11T17:31:56Z</time></trkpt><trkpt lat="43.076902794421045" lon="11.673556383263687"><ele>446.99999999999994</ele><time>2026-04-11T17:31:58Z</time></trkpt><trkpt lat="43.076918717036484" lon="11.67365297537563"><ele>448.0</ele><time>2026-04-11T17:32:00Z</time></trkpt><trkpt lat="43.07691972375665" lon="11.67377161019289"><ele>449.0</ele><time>2026-04-11T17:32:02Z</time></trkpt><trkpt lat="43.0769337935011" lon="11.673890621649909"><ele>450.0</ele><time>2026-04-11T17:32:04Z</time></trkpt><trkpt lat="43.076947542278006" lon="11.673985027971412"><ele>450.99999999999994</ele><time>2026-04-11T17:32:06Z</time></trkpt><trkpt lat="43.07697103106342" lon="11.674107459038476"><ele>452.0</ele><time>2026-04-11T17:32:09Z</time></trkpt><trkpt lat="43.07694546492542" lon="11.674233929639929"><ele>451.99999999999994</ele><time>2026-04-11T17:32:12Z</time></trkpt><trkpt lat="43.076923050232026" lon="11.674350119185359"><ele>452.0</ele><time>2026-04-11T17:32:15Z</time></trkpt><trkpt lat="43.07689293300907" lon="11.674445860300725"><ele>452.0</ele><time>2026-04-11T17:32:18Z</time></trkpt><trkpt lat="43.07686109550605" lon="11.674536858181908"><ele>452.0</ele><time>2026-04-11T17:32:21Z</time></trkpt><trkpt lat="43.07683643611547" lon="11.674641703428032"><ele>451.99999999999994</ele><time>2026-04-11T17:32:24Z</time></trkpt><trkpt lat="43.07680247733624" lon="11.674762274917644"><ele>452.0</ele><time>2026-04-11T17:32:27Z</time></trkpt><trkpt lat="43.076778443312385" lon="11.674885691252856"><ele>453.49999999999994</ele><time>2026-04-11T17:32:30Z</time></trkpt><trkpt lat="43.07675590242498" lon="11.67498832727834"><ele>455.0</ele><time>2026-04-11T17:32:33Z</time></trkpt><trkpt lat="43.0767303406402" lon="11.675083707898246"><ele>456.5</ele><time>2026-04-11T17:32:36Z</time></trkpt><trkpt lat="43.07670260245603" lon="11.675188830703584"><ele>458.0</ele><time>2026-04-11T17:32:39Z</time></trkpt><trkpt lat="43.07667361538151" lon="11.675277325739106"><ele>459.49999999999994</ele><time>2026-04-11T17:32:42Z</time></trkpt><trkpt lat="43.076648407146806" lon="11.67538343855735"><ele>461.0</ele><time>2026-04-11T17:32:45Z</time></trkpt><trkpt lat="43.076627477211765" lon="11.675483020987947"><ele>459.66666666666663</ele><time>2026-04-11T17:32:48Z</time></trkpt><trkpt lat="43.07661007828679" lon="11.675578749200051"><ele>458.3333333333333</ele><time>2026-04-11T17:32:51Z</time></trkpt><trkpt lat="43.07658758692823" lon="11.6756895055661"><ele>457.0</ele><time>2026-04-11T17:32:55Z</time></trkpt><trkpt lat="43.07655659706133" lon="11.675783655957591"><ele>455.66666666666663</ele><time>2026-04-11T17:32:58Z</time></trkpt><trkpt lat="43.076523863457254" lon="11.6758848172777"><ele>454.3333333333333</ele><time>2026-04-11T17:33:01Z</time></trkpt><trkpt lat="43.0764935895655" lon="11.675987572111936"><ele>453.0</ele><time>2026-04-11T17:33:04Z</time></trkpt><trkpt lat="43.076467513842395" lon="11.67608608281895"><ele>454.2857142857142</ele><time>2026-04-11T17:33:07Z</time></trkpt><trkpt lat="43.076442577197994" lon="11.676166482683243"><ele>455.57142857142856</ele><time>2026-04-11T17:33:10Z</time></trkpt><trkpt lat="43.07640018936444" lon="11.676243415271959"><ele>456.85714285714283</ele><time>2026-04-11T17:33:42Z</time></trkpt><trkpt lat="43.07637320539806" lon="11.67633839604757"><ele>458.1428571428571</ele><time>2026-04-11T17:33:45Z</time></trkpt><trkpt lat="43.07634527378789" lon="11.676436718069624"><ele>459.42857142857144</ele><time>2026-04-11T17:33:48Z</time></trkpt><trkpt lat="43.0763163848403" lon="11.676530710630939"><ele>460.7142857142857</ele><time>2026-04-11T17:33:51Z</time></trkpt><trkpt lat="43.07628908450015" lon="11.676626702340268"><ele>462.0</ele><time>2026-04-11T17:33:54Z</time></trkpt><trkpt lat="43.0762550166341" lon="11.676724513871683"><ele>462.0</ele><time>2026-04-11T17:33:57Z</time></trkpt><trkpt lat="43.07621962978393" lon="11.676829816634804"><ele>462.0</ele><time>2026-04-11T17:34:00Z</time></trkpt><trkpt lat="43.07618448206746" lon="11.676910931190243"><ele>462.0</ele><time>2026-04-11T17:34:03Z</time></trkpt><trkpt lat="43.07616256960533" lon="11.677011092974602"><ele>462.0</ele><time>2026-04-11T17:34:06Z</time></trkpt><trkpt lat="43.07615282187969" lon="11.677110724477151"><ele>462.0</ele><time>2026-04-11T17:34:09Z</time></trkpt><trkpt lat="43.076133799458425" lon="11.677212774156594"><ele>462.0</ele><time>2026-04-11T17:34:12Z</time></trkpt><trkpt lat="43.076112327805035" lon="11.677328488673933"><ele>463.1428571428571</ele><time>2026-04-11T17:34:15Z</time></trkpt><trkpt lat="43.07609138677716" lon="11.677409894236222"><ele>464.2857142857143</ele><time>2026-04-11T17:34:17Z</time></trkpt><trkpt lat="43.07608088728342" lon="11.677496484642313"><ele>465.42857142857144</ele><time>2026-04-11T17:34:19Z</time></trkpt><trkpt lat="43.07605802605923" lon="11.677612973026783"><ele>466.57142857142856</ele><time>2026-04-11T17:34:22Z</time></trkpt><trkpt lat="43.07604184696519" lon="11.677696761600757"><ele>467.71428571428567</ele><time>2026-04-11T17:34:24Z</time></trkpt><trkpt lat="43.07602596036266" lon="11.677782767254621"><ele>468.85714285714283</ele><time>2026-04-11T17:34:26Z</time></trkpt><trkpt lat="43.07601523292329" lon="11.67786942528007"><ele>470.0</ele><time>2026-04-11T17:34:28Z</time></trkpt><trkpt lat="43.075996431665594" lon="11.677966449418966"><ele>471.16666666666663</ele><time>2026-04-11T17:34:31Z</time></trkpt><trkpt lat="43.0759813174586" lon="11.678078620584513"><ele>472.3333333333333</ele><time>2026-04-11T17:34:34Z</time></trkpt><trkpt lat="43.07596107318373" lon="11.678183814914654"><ele>473.5</ele><time>2026-04-11T17:34:37Z</time></trkpt><trkpt lat="43.07594386468466" lon="11.678298491005798"><ele>474.66666666666663</ele><time>2026-04-11T17:34:40Z</time></trkpt><trkpt lat="43.07593942129916" lon="11.678410225053435"><ele>475.8333333333333</ele><time>2026-04-11T17:34:43Z</time></trkpt><trkpt lat="43.07594586439543" lon="11.6785079987025"><ele>477.0</ele><time>2026-04-11T17:34:46Z</time></trkpt><trkpt lat="43.07594934365239" lon="11.67862796762541"><ele>477.3333333333333</ele><time>2026-04-11T17:34:49Z</time></trkpt><trkpt lat="43.07596240287393" lon="11.678730498817979"><ele>477.66666666666663</ele><time>2026-04-11T17:34:52Z</time></trkpt><trkpt lat="43.07596204509495" lon="11.678846375059422"><ele>478.0</ele><time>2026-04-11T17:34:55Z</time></trkpt><trkpt lat="43.07598253971905" lon="11.678943901653154"><ele>478.3333333333333</ele><time>2026-04-11T17:34:58Z</time></trkpt><trkpt lat="43.07598349065818" lon="11.679047833562938"><ele>478.66666666666663</ele><time>2026-04-11T17:35:01Z</time></trkpt><trkpt lat="43.07601153418733" lon="11.679137956086894"><ele>479.0</ele><time>2026-04-11T17:35:04Z</time></trkpt><trkpt lat="43.07602361861045" lon="11.679235671973862"><ele>478.99999999999994</ele><time>2026-04-11T17:35:07Z</time></trkpt><trkpt lat="43.0760380782631" lon="11.679338263799533"><ele>479.0</ele><time>2026-04-11T17:35:10Z</time></trkpt><trkpt lat="43.076053501618986" lon="11.67944373243064"><ele>479.0</ele><time>2026-04-11T17:35:13Z</time></trkpt><trkpt lat="43.07605536773417" lon="11.679560649156903"><ele>479.0</ele><time>2026-04-11T17:35:16Z</time></trkpt><trkpt lat="43.07604666029709" lon="11.679692826614646"><ele>478.99999999999994</ele><time>2026-04-11T17:35:19Z</time></trkpt><trkpt lat="43.07602828403048" lon="11.67979084410269"><ele>479.0</ele><time>2026-04-11T17:35:21Z</time></trkpt><trkpt lat="43.07601346115865" lon="11.679911044641894"><ele>478.8333333333333</ele><time>2026-04-11T17:35:24Z</time></trkpt><trkpt lat="43.07600232796032" lon="11.680039382604086"><ele>478.66666666666663</ele><time>2026-04-11T17:35:27Z</time></trkpt><trkpt lat="43.07600488605584" lon="11.680158279100299"><ele>478.5</ele><time>2026-04-11T17:35:29Z</time></trkpt><trkpt lat="43.076002379806766" lon="11.680261033242815"><ele>478.33333333333337</ele><time>2026-04-11T17:35:31Z</time></trkpt><trkpt lat="43.075988311240515" lon="11.680348757943767"><ele>478.1666666666667</ele><time>2026-04-11T17:35:33Z</time></trkpt><trkpt lat="43.07598824223684" lon="11.680480680043695"><ele>478.0</ele><time>2026-04-11T17:35:36Z</time></trkpt><trkpt lat="43.07598182558446" lon="11.680580467161596"><ele>478.00000000000006</ele><time>2026-04-11T17:35:38Z</time></trkpt><trkpt lat="43.07598597064391" lon="11.680687905231162"><ele>478.0</ele><time>2026-04-11T17:35:40Z</time></trkpt><trkpt lat="43.07600702098" lon="11.680797481986483"><ele>478.0</ele><time>2026-04-11T17:35:42Z</time></trkpt><trkpt lat="43.07601951820563" lon="11.680905111171558"><ele>478.0</ele><time>2026-04-11T17:35:44Z</time></trkpt><trkpt lat="43.07603434070918" lon="11.681004205648252"><ele>478.00000000000006</ele><time>2026-04-11T17:35:47Z</time></trkpt><trkpt lat="43.076050614817746" lon="11.681102350898112"><ele>478.0</ele><time>2026-04-11T17:35:50Z</time></trkpt><trkpt lat="43.076067115921184" lon="11.681205469707873"><ele>477.0</ele><time>2026-04-11T17:35:53Z</time></trkpt><trkpt lat="43.076088649244525" lon="11.681318603312096"><ele>475.99999999999994</ele><time>2026-04-11T17:35:57Z</time></trkpt><trkpt lat="43.076118136787244" lon="11.681484472956305"><ele>474.99999999999994</ele><time>2026-04-11T17:36:00Z</time></trkpt><trkpt lat="43.07617047803112" lon="11.681595105417541"><ele>474.0</ele><time>2026-04-11T17:36:02Z</time></trkpt><trkpt lat="43.076245260195634" lon="11.681696229448939"><ele>473.0</ele><time>2026-04-11T17:36:04Z</time></trkpt><trkpt lat="43.07634731840034" lon="11.681766919885177"><ele>472.99999999999994</ele><time>2026-04-11T17:36:06Z</time></trkpt><trkpt lat="43.07638610444906" lon="11.681853865422926"><ele>473.0</ele><time>2026-04-11T17:36:07Z</time></trkpt><trkpt lat="43.07649363433393" lon="11.681853694535052"><ele>473.0</ele><time>2026-04-11T17:36:09Z</time></trkpt><trkpt lat="43.076568000326084" lon="11.681843680941302"><ele>473.0</ele><time>2026-04-11T17:36:11Z</time></trkpt><trkpt lat="43.07663954721932" lon="11.681835012765708"><ele>472.99999999999994</ele><time>2026-04-11T17:36:13Z</time></trkpt><trkpt lat="43.07671204983602" lon="11.68182698490202"><ele>473.0</ele><time>2026-04-11T17:36:15Z</time></trkpt><trkpt lat="43.07678587637206" lon="11.681818810448709"><ele>474.66666666666663</ele><time>2026-04-11T17:36:17Z</time></trkpt><trkpt lat="43.07686221205409" lon="11.681807407533567"><ele>476.3333333333333</ele><time>2026-04-11T17:36:19Z</time></trkpt><trkpt lat="43.076931347151664" lon="11.681786288538046"><ele>478.0</ele><time>2026-04-11T17:36:21Z</time></trkpt><trkpt lat="43.07701433051186" lon="11.681711678231192"><ele>479.66666666666663</ele><time>2026-04-11T17:36:24Z</time></trkpt><trkpt lat="43.07704697290637" lon="11.681627882280727"><ele>481.3333333333333</ele><time>2026-04-11T17:36:26Z</time></trkpt><trkpt lat="43.07703208885828" lon="11.681514949231081"><ele>483.0</ele><time>2026-04-11T17:36:28Z</time></trkpt><trkpt lat="43.0770505827059" lon="11.681429306559082"><ele>483.0</ele><time>2026-04-11T17:36:31Z</time></trkpt><trkpt lat="43.07705416069485" lon="11.681325058050195"><ele>483.0</ele><time>2026-04-11T17:36:34Z</time></trkpt><trkpt lat="43.07707055870119" lon="11.681203964140241"><ele>483.0</ele><time>2026-04-11T17:36:37Z</time></trkpt><trkpt lat="43.077090802809586" lon="11.681081544531322"><ele>483.0</ele><time>2026-04-11T17:36:40Z</time></trkpt><trkpt lat="43.077102877165196" lon="11.68099602784138"><ele>483.0</ele><time>2026-04-11T17:36:42Z</time></trkpt><trkpt lat="43.07710374598837" lon="11.680905799461618"><ele>483.0</ele><time>2026-04-11T17:36:44Z</time></trkpt><trkpt lat="43.07712365778921" lon="11.680805893777746"><ele>484.6666666666667</ele><time>2026-04-11T17:36:47Z</time></trkpt><trkpt lat="43.07714901661717" lon="11.680688066828084"><ele>486.33333333333337</ele><time>2026-04-11T17:36:50Z</time></trkpt><trkpt lat="43.077159841715186" lon="11.680575944059047"><ele>488.0</ele><time>2026-04-11T17:36:52Z</time></trkpt><trkpt lat="43.077173593394924" lon="11.680470869920143"><ele>489.6666666666667</ele><time>2026-04-11T17:36:54Z</time></trkpt><trkpt lat="43.077194757375736" lon="11.680366797224977"><ele>491.33333333333337</ele><time>2026-04-11T17:36:56Z</time></trkpt><trkpt lat="43.07721520997119" lon="11.680267616660808"><ele>493.0</ele><time>2026-04-11T17:40:16Z</time></trkpt><trkpt lat="43.07726025917149" lon="11.680204850990823"><ele>493.50000000000006</ele><time>2026-04-11T17:44:32Z</time></trkpt><trkpt lat="43.07727778554128" lon="11.680096525963762"><ele>494.0</ele><time>2026-04-11T17:44:36Z</time></trkpt><trkpt lat="43.077316485846715" lon="11.680023729653078"><ele>494.5</ele><time>2026-04-11T17:44:38Z</time></trkpt><trkpt lat="43.07734805311998" lon="11.679924032010375"><ele>495.0</ele><time>2026-04-11T17:44:40Z</time></trkpt><trkpt lat="43.077374958840736" lon="11.679826434648678"><ele>495.50000000000006</ele><time>2026-04-11T17:44:42Z</time></trkpt><trkpt lat="43.07739552065395" lon="11.679721978085574"><ele>496.0</ele><time>2026-04-11T17:44:44Z</time></trkpt><trkpt lat="43.07742217959519" lon="11.679623243094547"><ele>495.1666666666667</ele><time>2026-04-11T17:44:46Z</time></trkpt><trkpt lat="43.077444619044066" lon="11.679526346295773"><ele>494.33333333333337</ele><time>2026-04-11T17:44:48Z</time></trkpt><trkpt lat="43.07746986774223" lon="11.679425186003284"><ele>493.5</ele><time>2026-04-11T17:44:50Z</time></trkpt><trkpt lat="43.07748049173381" lon="11.679330263579859"><ele>492.66666666666663</ele><time>2026-04-11T17:44:52Z</time></trkpt><trkpt lat="43.077486779003536" lon="11.679213551434879"><ele>491.8333333333333</ele><time>2026-04-11T17:44:54Z</time></trkpt><trkpt lat="43.07749645927346" lon="11.679098092386864"><ele>491.0</ele><time>2026-04-11T17:44:56Z</time></trkpt><trkpt lat="43.07749735951027" lon="11.679005994938867"><ele>490.99999999999994</ele><time>2026-04-11T17:44:58Z</time></trkpt><trkpt lat="43.07750366032899" lon="11.678900919817638"><ele>491.0</ele><time>2026-04-11T17:45:00Z</time></trkpt><trkpt lat="43.077514170353346" lon="11.678797143055428"><ele>491.0</ele><time>2026-04-11T17:45:02Z</time></trkpt><trkpt lat="43.077518245772914" lon="11.678697653542052"><ele>491.0</ele><time>2026-04-11T17:45:04Z</time></trkpt><trkpt lat="43.077529317413564" lon="11.678593002037593"><ele>490.99999999999994</ele><time>2026-04-11T17:45:06Z</time></trkpt><trkpt lat="43.077537833928154" lon="11.67848098793282"><ele>491.0</ele><time>2026-04-11T17:45:08Z</time></trkpt><trkpt lat="43.07754535892534" lon="11.678351872144862"><ele>491.0</ele><time>2026-04-11T17:45:10Z</time></trkpt><trkpt lat="43.077552899314995" lon="11.678215871915532"><ele>491.0</ele><time>2026-04-11T17:45:12Z</time></trkpt><trkpt lat="43.077563071863565" lon="11.678082144888775"><ele>491.0</ele><time>2026-04-11T17:45:14Z</time></trkpt><trkpt lat="43.07757344174721" lon="11.677956726845427"><ele>491.0</ele><time>2026-04-11T17:45:16Z</time></trkpt><trkpt lat="43.077568907792376" lon="11.677837365560883"><ele>491.0</ele><time>2026-04-11T17:45:18Z</time></trkpt><trkpt lat="43.07757827749456" lon="11.677731125491762"><ele>490.8333333333333</ele><time>2026-04-11T17:45:20Z</time></trkpt><trkpt lat="43.07758917526557" lon="11.677640686375854"><ele>490.66666666666663</ele><time>2026-04-11T17:45:22Z</time></trkpt><trkpt lat="43.07756965498783" lon="11.677544485911898"><ele>490.5</ele><time>2026-04-11T17:45:25Z</time></trkpt><trkpt lat="43.077531422892534" lon="11.677627941592984"><ele>490.33333333333337</ele><time>2026-04-11T17:45:51Z</time></trkpt><trkpt lat="43.077564940602656" lon="11.677725385671641"><ele>490.1666666666667</ele><time>2026-04-11T17:45:55Z</time></trkpt><trkpt lat="43.07757916314861" lon="11.677607457275217"><ele>490.0</ele><time>2026-04-11T17:48:27Z</time></trkpt><trkpt lat="43.077604961304196" lon="11.67750701981492"><ele>490.0</ele><time>2026-04-11T17:48:30Z</time></trkpt><trkpt lat="43.07778346175419" lon="11.677609930182657"><ele>490.0</ele><time>2026-04-11T17:48:35Z</time></trkpt><trkpt lat="43.07788647178696" lon="11.677684145398176"><ele>490.0</ele><time>2026-04-11T17:48:37Z</time></trkpt><trkpt lat="43.07797430616505" lon="11.677815764986494"><ele>490.0</ele><time>2026-04-11T17:48:39Z</time></trkpt><trkpt lat="43.07803039804985" lon="11.677859487601806"><ele>490.1666666666667</ele><time>2026-04-11T17:48:40Z</time></trkpt><trkpt lat="43.078088669707476" lon="11.677900068663634"><ele>490.33333333333337</ele><time>2026-04-11T17:48:41Z</time></trkpt><trkpt lat="43.07821113604535" lon="11.677945236420966"><ele>490.5</ele><time>2026-04-11T17:48:43Z</time></trkpt><trkpt lat="43.07828660869334" lon="11.677919608003828"><ele>490.66666666666663</ele><time>2026-04-11T17:48:44Z</time></trkpt><trkpt lat="43.078348584602075" lon="11.677893726079787"><ele>490.8333333333333</ele><time>2026-04-11T17:48:45Z</time></trkpt><trkpt lat="43.078409007095985" lon="11.67786059100856"><ele>491.0</ele><time>2026-04-11T17:48:46Z</time></trkpt><trkpt lat="43.07846630138337" lon="11.67782420920575"><ele>490.99999999999994</ele><time>2026-04-11T17:48:47Z</time></trkpt><trkpt lat="43.07857444495404" lon="11.677754548593306"><ele>491.0</ele><time>2026-04-11T17:48:49Z</time></trkpt><trkpt lat="43.07863834600943" lon="11.67771308935117"><ele>491.0</ele><time>2026-04-11T17:48:51Z</time></trkpt><trkpt lat="43.07855509277482" lon="11.677767065742197"><ele>491.0</ele><time>2026-04-11T17:49:00Z</time></trkpt><trkpt lat="43.078488932401264" lon="11.677809858834715"><ele>490.99999999999994</ele><time>2026-04-11T17:49:02Z</time></trkpt><trkpt lat="43.07841101299064" lon="11.67785713002295"><ele>491.0</ele><time>2026-04-11T17:49:04Z</time></trkpt><trkpt lat="43.07824676445654" lon="11.678054832056779"><ele>491.0</ele><time>2026-04-11T17:49:05Z</time></trkpt><trkpt lat="43.078315527345865" lon="11.6778699927126"><ele>491.0</ele><time>2026-04-11T17:49:06Z</time></trkpt><trkpt lat="43.07823079093746" lon="11.677890949576264"><ele>491.0</ele><time>2026-04-11T17:49:08Z</time></trkpt><trkpt lat="43.07815780602384" lon="11.677890631169879"><ele>491.0</ele><time>2026-04-11T17:49:10Z</time></trkpt><trkpt lat="43.07807895561462" lon="11.677862878255219"><ele>491.0</ele><time>2026-04-11T17:49:12Z</time></trkpt><trkpt lat="43.07799784659533" lon="11.677797943696456"><ele>490.8333333333333</ele><time>2026-04-11T17:49:14Z</time></trkpt><trkpt lat="43.07792417788338" lon="11.6777336041019"><ele>490.66666666666663</ele><time>2026-04-11T17:49:16Z</time></trkpt><trkpt lat="43.077856332893475" lon="11.677677101197283"><ele>490.5</ele><time>2026-04-11T17:49:18Z</time></trkpt><trkpt lat="43.07779081876393" lon="11.677630524353814"><ele>490.33333333333337</ele><time>2026-04-11T17:49:20Z</time></trkpt><trkpt lat="43.077730440726434" lon="11.677602509544434"><ele>490.1666666666667</ele><time>2026-04-11T17:49:22Z</time></trkpt><trkpt lat="43.0776510255767" lon="11.677560582804784"><ele>490.0</ele><time>2026-04-11T17:49:25Z</time></trkpt><trkpt lat="43.077622528910396" lon="11.67745005674869"><ele>490.00000000000006</ele><time>2026-04-11T17:49:29Z</time></trkpt><trkpt lat="43.07762979686516" lon="11.677327311974905"><ele>490.0</ele><time>2026-04-11T17:49:32Z</time></trkpt><trkpt lat="43.07764383159219" lon="11.677210757748997"><ele>490.0</ele><time>2026-04-11T17:49:35Z</time></trkpt><trkpt lat="43.07765748372476" lon="11.677113324299949"><ele>490.0</ele><time>2026-04-11T17:49:38Z</time></trkpt><trkpt lat="43.077674761459484" lon="11.676992728036938"><ele>490.00000000000006</ele><time>2026-04-11T17:49:40Z</time></trkpt><trkpt lat="43.07769946816929" lon="11.676913056253218"><ele>490.0</ele><time>2026-04-11T17:49:42Z</time></trkpt><trkpt lat="43.07773393958817" lon="11.676830726061207"><ele>489.83333333333337</ele><time>2026-04-11T17:49:44Z</time></trkpt><trkpt lat="43.07777592752945" lon="11.676748869894794"><ele>489.6666666666667</ele><time>2026-04-11T17:49:46Z</time></trkpt><trkpt lat="43.07782869827078" lon="11.67662851405279"><ele>489.5</ele><time>2026-04-11T17:49:49Z</time></trkpt><trkpt lat="43.077871111708696" lon="11.676561746328618"><ele>489.33333333333337</ele><time>2026-04-11T17:49:51Z</time></trkpt><trkpt lat="43.077918997060834" lon="11.676492310272142"><ele>489.1666666666667</ele><time>2026-04-11T17:49:53Z</time></trkpt><trkpt lat="43.07796439124591" lon="11.676421347002782"><ele>489.0</ele><time>2026-04-11T17:49:55Z</time></trkpt><trkpt lat="43.0780040149266" lon="11.676319442413858"><ele>489.0</ele><time>2026-04-11T17:49:58Z</time></trkpt><trkpt lat="43.078052550242305" lon="11.67621569353389"><ele>489.0</ele><time>2026-04-11T17:50:01Z</time></trkpt><trkpt lat="43.07810277859286" lon="11.67614054513017"><ele>489.0</ele><time>2026-04-11T17:50:03Z</time></trkpt><trkpt lat="43.07814391968605" lon="11.676060619708252"><ele>489.0</ele><time>2026-04-11T17:50:05Z</time></trkpt><trkpt lat="43.0781988947373" lon="11.675981521790817"><ele>489.0</ele><time>2026-04-11T17:50:07Z</time></trkpt><trkpt lat="43.0782681399295" lon="11.675893363214893"><ele>489.0</ele><time>2026-04-11T17:50:09Z</time></trkpt><trkpt lat="43.0783332112245" lon="11.675799353167749"><ele>489.0</ele><time>2026-04-11T17:50:11Z</time></trkpt><trkpt lat="43.07839567814352" lon="11.675721778093124"><ele>489.0</ele><time>2026-04-11T17:50:13Z</time></trkpt><trkpt lat="43.07844878015365" lon="11.67563957696246"><ele>489.0</ele><time>2026-04-11T17:50:15Z</time></trkpt><trkpt lat="43.07849379363123" lon="11.675546825119028"><ele>489.0</ele><time>2026-04-11T17:50:17Z</time></trkpt><trkpt lat="43.0785449458674" lon="11.675485819739807"><ele>489.0</ele><time>2026-04-11T17:50:19Z</time></trkpt><trkpt lat="43.07859732331471" lon="11.67539880263153"><ele>489.0</ele><time>2026-04-11T17:50:21Z</time></trkpt><trkpt lat="43.07865380850584" lon="11.675321266074167"><ele>488.8571428571429</ele><time>2026-04-11T17:50:23Z</time></trkpt><trkpt lat="43.078704721423826" lon="11.675248843561091"><ele>488.7142857142858</ele><time>2026-04-11T17:50:25Z</time></trkpt><trkpt lat="43.07875361145188" lon="11.675171397865093"><ele>488.57142857142856</ele><time>2026-04-11T17:50:27Z</time></trkpt><trkpt lat="43.07880270381272" lon="11.675095580984577"><ele>488.42857142857144</ele><time>2026-04-11T17:50:29Z</time></trkpt><trkpt lat="43.07884422622257" lon="11.6750145015211"><ele>488.2857142857143</ele><time>2026-04-11T17:50:31Z</time></trkpt><trkpt lat="43.07888818489405" lon="11.674936784851432"><ele>488.1428571428571</ele><time>2026-04-11T17:50:33Z</time></trkpt><trkpt lat="43.07892989022101" lon="11.674869595090392"><ele>487.99999999999994</ele><time>2026-04-11T17:50:35Z</time></trkpt><trkpt lat="43.07898680950628" lon="11.674800050071248"><ele>487.99999999999994</ele><time>2026-04-11T17:50:37Z</time></trkpt><trkpt lat="43.07903569402305" lon="11.674728394512384"><ele>488.0</ele><time>2026-04-11T17:50:39Z</time></trkpt><trkpt lat="43.07908550063397" lon="11.674668565620706"><ele>488.0</ele><time>2026-04-11T17:50:41Z</time></trkpt><trkpt lat="43.07913525080748" lon="11.67459212872321"><ele>488.0</ele><time>2026-04-11T17:50:43Z</time></trkpt><trkpt lat="43.079195939683025" lon="11.674508051709148"><ele>487.99999999999994</ele><time>2026-04-11T17:50:45Z</time></trkpt><trkpt lat="43.079260768819545" lon="11.674395518116622"><ele>488.0</ele><time>2026-04-11T17:50:47Z</time></trkpt><trkpt lat="43.07932208512956" lon="11.674273232192407"><ele>487.59999999999997</ele><time>2026-04-11T17:50:49Z</time></trkpt><trkpt lat="43.07938688866139" lon="11.674132800246134"><ele>487.19999999999993</ele><time>2026-04-11T17:50:51Z</time></trkpt><trkpt lat="43.07944918825861" lon="11.673983808512073"><ele>486.8</ele><time>2026-04-11T17:50:53Z</time></trkpt><trkpt lat="43.07948512125162" lon="11.673905833730213"><ele>486.4</ele><time>2026-04-11T17:50:54Z</time></trkpt><trkpt lat="43.07952195075219" lon="11.673829696665809"><ele>486.0</ele><time>2026-04-11T17:50:55Z</time></trkpt><trkpt lat="43.0795972216565" lon="11.673693488345599"><ele>486.0</ele><time>2026-04-11T17:50:57Z</time></trkpt><trkpt lat="43.07966251240155" lon="11.673553157642639"><ele>486.0</ele><time>2026-04-11T17:50:59Z</time></trkpt><trkpt lat="43.07973474169213" lon="11.673421141144445"><ele>486.0</ele><time>2026-04-11T17:51:01Z</time></trkpt><trkpt lat="43.07981685362885" lon="11.673289373633066"><ele>486.0</ele><time>2026-04-11T17:51:03Z</time></trkpt><trkpt lat="43.079848277379575" lon="11.673212424840933"><ele>486.0</ele><time>2026-04-11T17:51:04Z</time></trkpt><trkpt lat="43.07993709197753" lon="11.673095901398987"><ele>485.5</ele><time>2026-04-11T17:51:06Z</time></trkpt><trkpt lat="43.080023903285884" lon="11.672970137178506"><ele>485.0</ele><time>2026-04-11T17:51:08Z</time></trkpt><trkpt lat="43.080069076468206" lon="11.672903609999363"><ele>484.5</ele><time>2026-04-11T17:51:09Z</time></trkpt><trkpt lat="43.08011500332325" lon="11.672832987602753"><ele>484.0</ele><time>2026-04-11T17:51:10Z</time></trkpt><trkpt lat="43.08016021126942" lon="11.672760567530007"><ele>483.5</ele><time>2026-04-11T17:51:11Z</time></trkpt><trkpt lat="43.08020983410073" lon="11.672687904034865"><ele>483.0</ele><time>2026-04-11T17:51:12Z</time></trkpt><trkpt lat="43.0802573089511" lon="11.672616613083665"><ele>483.0</ele><time>2026-04-11T17:51:13Z</time></trkpt><trkpt lat="43.080308406358796" lon="11.672542836118629"><ele>483.0</ele><time>2026-04-11T17:51:14Z</time></trkpt><trkpt lat="43.08038338848597" lon="11.672505656903896"><ele>483.0</ele><time>2026-04-11T17:51:15Z</time></trkpt><trkpt lat="43.080439332282225" lon="11.672436164659286"><ele>483.0</ele><time>2026-04-11T17:51:16Z</time></trkpt><trkpt lat="43.08049768619739" lon="11.672363499427894"><ele>483.0</ele><time>2026-04-11T17:51:17Z</time></trkpt><trkpt lat="43.08055147521873" lon="11.672297256692417"><ele>483.0</ele><time>2026-04-11T17:51:18Z</time></trkpt><trkpt lat="43.0806076896643" lon="11.672228026977567"><ele>483.0</ele><time>2026-04-11T17:51:19Z</time></trkpt><trkpt lat="43.08066330187181" lon="11.672159538937175"><ele>483.0</ele><time>2026-04-11T17:51:20Z</time></trkpt><trkpt lat="43.08071844677218" lon="11.672091626398307"><ele>483.0</ele><time>2026-04-11T17:51:21Z</time></trkpt><trkpt lat="43.08077410760217" lon="11.67202438135645"><ele>483.0</ele><time>2026-04-11T17:51:22Z</time></trkpt><trkpt lat="43.08083161418082" lon="11.671955130476416"><ele>483.0</ele><time>2026-04-11T17:51:23Z</time></trkpt><trkpt lat="43.08089150507744" lon="11.671886236539667"><ele>483.0</ele><time>2026-04-11T17:51:24Z</time></trkpt><trkpt lat="43.08095027559026" lon="11.67182035686846"><ele>482.7142857142857</ele><time>2026-04-11T17:51:25Z</time></trkpt><trkpt lat="43.08100895162866" lon="11.671764600004009"><ele>482.42857142857144</ele><time>2026-04-11T17:51:26Z</time></trkpt><trkpt lat="43.08107158297369" lon="11.671716661724757"><ele>482.1428571428571</ele><time>2026-04-11T17:51:27Z</time></trkpt><trkpt lat="43.08113443477835" lon="11.671676719987166"><ele>481.85714285714283</ele><time>2026-04-11T17:51:28Z</time></trkpt><trkpt lat="43.08119788561603" lon="11.671645089430646"><ele>481.57142857142856</ele><time>2026-04-11T17:51:29Z</time></trkpt><trkpt lat="43.08126194865304" lon="11.671621890169815"><ele>481.2857142857142</ele><time>2026-04-11T17:51:30Z</time></trkpt><trkpt lat="43.08132617242256" lon="11.671601225799789"><ele>480.99999999999994</ele><time>2026-04-11T17:51:31Z</time></trkpt><trkpt lat="43.08139409195424" lon="11.671583994775922"><ele>481.0</ele><time>2026-04-11T17:51:32Z</time></trkpt><trkpt lat="43.08146192030919" lon="11.671567147597894"><ele>481.0</ele><time>2026-04-11T17:51:33Z</time></trkpt><trkpt lat="43.08152406109127" lon="11.671551713081097"><ele>481.0</ele><time>2026-04-11T17:51:34Z</time></trkpt><trkpt lat="43.081645852463474" lon="11.671521462589661"><ele>481.0</ele><time>2026-04-11T17:51:36Z</time></trkpt><trkpt lat="43.08176508340012" lon="11.671491851352021"><ele>481.0</ele><time>2026-04-11T17:51:38Z</time></trkpt><trkpt lat="43.08187591820184" lon="11.671463495097047"><ele>480.20000000000005</ele><time>2026-04-11T17:51:40Z</time></trkpt><trkpt lat="43.08198544682146" lon="11.67141202978075"><ele>479.40000000000003</ele><time>2026-04-11T17:51:42Z</time></trkpt><trkpt lat="43.082104121402075" lon="11.671383369271346"><ele>478.6</ele><time>2026-04-11T17:51:44Z</time></trkpt><trkpt lat="43.0822095542877" lon="11.671343894952436"><ele>477.8</ele><time>2026-04-11T17:51:46Z</time></trkpt><trkpt lat="43.082307707664036" lon="11.671334322802187"><ele>477.0</ele><time>2026-04-11T17:51:48Z</time></trkpt><trkpt lat="43.082406514852956" lon="11.671342924964682"><ele>476.8</ele><time>2026-04-11T17:51:50Z</time></trkpt><trkpt lat="43.08251052707182" lon="11.671346070220483"><ele>476.6</ele><time>2026-04-11T17:51:52Z</time></trkpt><trkpt lat="43.08255764937298" lon="11.671270524737812"><ele>476.40000000000003</ele><time>2026-04-11T17:51:53Z</time></trkpt><trkpt lat="43.08255948865476" lon="11.671161955295412"><ele>476.20000000000005</ele><time>2026-04-11T17:51:54Z</time></trkpt><trkpt lat="43.082559236805785" lon="11.670998394573141"><ele>476.0</ele><time>2026-04-11T17:51:56Z</time></trkpt><trkpt lat="43.082575517618984" lon="11.670846646440237"><ele>476.0</ele><time>2026-04-11T17:51:58Z</time></trkpt><trkpt lat="43.08265389860364" lon="11.670709579371183"><ele>476.0</ele><time>2026-04-11T17:52:00Z</time></trkpt><trkpt lat="43.082716971161844" lon="11.670564610584377"><ele>476.0</ele><time>2026-04-11T17:52:02Z</time></trkpt><trkpt lat="43.0827607658949" lon="11.670493068166437"><ele>476.0</ele><time>2026-04-11T17:52:03Z</time></trkpt><trkpt lat="43.08279913927424" lon="11.67041353748536"><ele>476.0</ele><time>2026-04-11T17:52:04Z</time></trkpt><trkpt lat="43.08283256086858" lon="11.670329682271314"><ele>475.8333333333333</ele><time>2026-04-11T17:52:05Z</time></trkpt><trkpt lat="43.082868731400396" lon="11.670238670521185"><ele>475.66666666666663</ele><time>2026-04-11T17:52:06Z</time></trkpt><trkpt lat="43.082902196930824" lon="11.670144348943024"><ele>475.5</ele><time>2026-04-11T17:52:07Z</time></trkpt><trkpt lat="43.0829386575496" lon="11.670047165612297"><ele>475.33333333333337</ele><time>2026-04-11T17:52:08Z</time></trkpt><trkpt lat="43.0829723232677" lon="11.669941337099633"><ele>475.1666666666667</ele><time>2026-04-11T17:52:09Z</time></trkpt><trkpt lat="43.08301296611779" lon="11.669846117857045"><ele>475.0</ele><time>2026-04-11T17:52:10Z</time></trkpt><trkpt lat="43.0830519141173" lon="11.66975005535985"><ele>475.00000000000006</ele><time>2026-04-11T17:52:11Z</time></trkpt><trkpt lat="43.08309219348086" lon="11.669651195337707"><ele>475.0</ele><time>2026-04-11T17:52:12Z</time></trkpt><trkpt lat="43.08312696012023" lon="11.669547987748945"><ele>475.0</ele><time>2026-04-11T17:52:13Z</time></trkpt><trkpt lat="43.083163194451004" lon="11.669454356394972"><ele>475.0</ele><time>2026-04-11T17:52:14Z</time></trkpt><trkpt lat="43.08319742566566" lon="11.669354014394075"><ele>475.00000000000006</ele><time>2026-04-11T17:52:15Z</time></trkpt><trkpt lat="43.08323323019522" lon="11.669250886901223"><ele>475.0</ele><time>2026-04-11T17:52:16Z</time></trkpt><trkpt lat="43.083272012719796" lon="11.669151828275062"><ele>474.00000000000006</ele><time>2026-04-11T17:52:17Z</time></trkpt><trkpt lat="43.083306208977426" lon="11.669049902175912"><ele>473.0</ele><time>2026-04-11T17:52:18Z</time></trkpt><trkpt lat="43.08334359852473" lon="11.668944849018771"><ele>472.0</ele><time>2026-04-11T17:52:19Z</time></trkpt><trkpt lat="43.08337500441353" lon="11.66884827807806"><ele>471.0</ele><time>2026-04-11T17:52:20Z</time></trkpt><trkpt lat="43.083408388154076" lon="11.668759945706121"><ele>470.00000000000006</ele><time>2026-04-11T17:52:21Z</time></trkpt><trkpt lat="43.08344181284293" lon="11.668671546057402"><ele>469.0</ele><time>2026-04-11T17:52:22Z</time></trkpt><trkpt lat="43.08347109422399" lon="11.66858364719133"><ele>468.83333333333337</ele><time>2026-04-11T17:52:23Z</time></trkpt><trkpt lat="43.08350532101429" lon="11.668494350911248"><ele>468.6666666666667</ele><time>2026-04-11T17:52:24Z</time></trkpt><trkpt lat="43.08353781379898" lon="11.668405893880006"><ele>468.5</ele><time>2026-04-11T17:52:25Z</time></trkpt><trkpt lat="43.083572464655106" lon="11.6683172772109"><ele>468.33333333333337</ele><time>2026-04-11T17:52:26Z</time></trkpt><trkpt lat="43.08359925795467" lon="11.668226751081788"><ele>468.1666666666667</ele><time>2026-04-11T17:52:27Z</time></trkpt><trkpt lat="43.08364544204683" lon="11.668085720136041"><ele>468.0</ele><time>2026-04-11T17:52:29Z</time></trkpt><trkpt lat="43.08368921650211" lon="11.667921469905934"><ele>468.0</ele><time>2026-04-11T17:52:31Z</time></trkpt><trkpt lat="43.08371503756856" lon="11.667835048104246"><ele>468.00000000000006</ele><time>2026-04-11T17:52:32Z</time></trkpt><trkpt lat="43.08374393700778" lon="11.667747391478125"><ele>468.0</ele><time>2026-04-11T17:52:33Z</time></trkpt><trkpt lat="43.08377096085532" lon="11.667653525924672"><ele>468.0</ele><time>2026-04-11T17:52:34Z</time></trkpt><trkpt lat="43.08380059199443" lon="11.667556792215862"><ele>468.00000000000006</ele><time>2026-04-11T17:52:35Z</time></trkpt><trkpt lat="43.08383355440993" lon="11.667460810001607"><ele>468.0</ele><time>2026-04-11T17:52:36Z</time></trkpt><trkpt lat="43.083861766494415" lon="11.667356950170195"><ele>468.0</ele><time>2026-04-11T17:52:37Z</time></trkpt><trkpt lat="43.08388692916184" lon="11.667249762513901"><ele>468.0</ele><time>2026-04-11T17:52:38Z</time></trkpt><trkpt lat="43.08392303845041" lon="11.667141522114235"><ele>467.99999999999994</ele><time>2026-04-11T17:52:39Z</time></trkpt><trkpt lat="43.083957458837354" lon="11.667031752919359"><ele>467.99999999999994</ele><time>2026-04-11T17:52:40Z</time></trkpt><trkpt lat="43.0839943936219" lon="11.666918897682233"><ele>468.0</ele><time>2026-04-11T17:52:41Z</time></trkpt><trkpt lat="43.08402966959749" lon="11.666802595004368"><ele>468.0</ele><time>2026-04-11T17:52:42Z</time></trkpt><trkpt lat="43.08407313291994" lon="11.666689536997426"><ele>467.0</ele><time>2026-04-11T17:52:43Z</time></trkpt><trkpt lat="43.08412599144081" lon="11.666567022896142"><ele>465.99999999999994</ele><time>2026-04-11T17:52:44Z</time></trkpt><trkpt lat="43.08417938966891" lon="11.66645168293173"><ele>464.99999999999994</ele><time>2026-04-11T17:52:45Z</time></trkpt><trkpt lat="43.08423411811734" lon="11.666335222642285"><ele>464.0</ele><time>2026-04-11T17:52:46Z</time></trkpt><trkpt lat="43.084292698024626" lon="11.666221953427105"><ele>463.0</ele><time>2026-04-11T17:52:47Z</time></trkpt><trkpt lat="43.08434827147704" lon="11.666118532470428"><ele>462.79999999999995</ele><time>2026-04-11T17:52:48Z</time></trkpt><trkpt lat="43.084396852472004" lon="11.666016360998423"><ele>462.59999999999997</ele><time>2026-04-11T17:52:49Z</time></trkpt><trkpt lat="43.084457726858176" lon="11.66591906665719"><ele>462.40000000000003</ele><time>2026-04-11T17:52:50Z</time></trkpt><trkpt lat="43.08450867704646" lon="11.665812086506547"><ele>462.20000000000005</ele><time>2026-04-11T17:52:51Z</time></trkpt><trkpt lat="43.08455945891918" lon="11.665708518832885"><ele>462.0</ele><time>2026-04-11T17:52:52Z</time></trkpt><trkpt lat="43.08461531767446" lon="11.66560332543269"><ele>462.0</ele><time>2026-04-11T17:52:53Z</time></trkpt><trkpt lat="43.084665823635405" lon="11.665491717259702"><ele>462.00000000000006</ele><time>2026-04-11T17:52:54Z</time></trkpt><trkpt lat="43.0847169339711" lon="11.665388197793733"><ele>462.00000000000006</ele><time>2026-04-11T17:52:55Z</time></trkpt><trkpt lat="43.084768210581004" lon="11.665288084228497"><ele>462.0</ele><time>2026-04-11T17:52:56Z</time></trkpt><trkpt lat="43.08481776310393" lon="11.665186195616737"><ele>462.0</ele><time>2026-04-11T17:52:57Z</time></trkpt><trkpt lat="43.0848699144653" lon="11.665082182927554"><ele>462.0</ele><time>2026-04-11T17:52:58Z</time></trkpt><trkpt lat="43.08491723920624" lon="11.66498484050334"><ele>462.0</ele><time>2026-04-11T17:52:59Z</time></trkpt><trkpt lat="43.084962572481956" lon="11.66489497999463"><ele>462.0</ele><time>2026-04-11T17:53:00Z</time></trkpt><trkpt lat="43.08500410489614" lon="11.66480750491724"><ele>462.0</ele><time>2026-04-11T17:53:01Z</time></trkpt><trkpt lat="43.08504326265745" lon="11.664723292873783"><ele>462.0</ele><time>2026-04-11T17:53:02Z</time></trkpt><trkpt lat="43.08508101485019" lon="11.664634734653234"><ele>462.0</ele><time>2026-04-11T17:53:03Z</time></trkpt><trkpt lat="43.08511228888037" lon="11.66455524620036"><ele>461.42857142857144</ele><time>2026-04-11T17:53:04Z</time></trkpt><trkpt lat="43.08518101501805" lon="11.66444793810915"><ele>460.8571428571429</ele><time>2026-04-11T17:53:06Z</time></trkpt><trkpt lat="43.085246262927775" lon="11.664447703016055"><ele>460.2857142857143</ele><time>2026-04-11T17:53:07Z</time></trkpt><trkpt lat="43.08531225662048" lon="11.664428503679519"><ele>459.7142857142857</ele><time>2026-04-11T17:53:08Z</time></trkpt><trkpt lat="43.085378959413404" lon="11.664409098134962"><ele>459.14285714285717</ele><time>2026-04-11T17:53:09Z</time></trkpt><trkpt lat="43.08544668520202" lon="11.664385074172431"><ele>458.57142857142856</ele><time>2026-04-11T17:53:10Z</time></trkpt><trkpt lat="43.08551585340793" lon="11.664359346154939"><ele>458.0</ele><time>2026-04-11T17:53:11Z</time></trkpt><trkpt lat="43.085584777696695" lon="11.664333559646344"><ele>457.99999999999994</ele><time>2026-04-11T17:53:12Z</time></trkpt><trkpt lat="43.0856576348546" lon="11.66430395467933"><ele>458.0</ele><time>2026-04-11T17:53:13Z</time></trkpt><trkpt lat="43.085732233901176" lon="11.664270198719173"><ele>458.0</ele><time>2026-04-11T17:53:14Z</time></trkpt><trkpt lat="43.085807070226046" lon="11.664232695761756"><ele>458.0</ele><time>2026-04-11T17:53:15Z</time></trkpt><trkpt lat="43.08588237464058" lon="11.664187129966692"><ele>457.99999999999994</ele><time>2026-04-11T17:53:16Z</time></trkpt><trkpt lat="43.08595910430151" lon="11.664135267751861"><ele>458.0</ele><time>2026-04-11T17:53:17Z</time></trkpt><trkpt lat="43.08602767803063" lon="11.664060436035362"><ele>457.0</ele><time>2026-04-11T17:53:18Z</time></trkpt><trkpt lat="43.08611121737669" lon="11.664017009032532"><ele>455.99999999999994</ele><time>2026-04-11T17:53:19Z</time></trkpt><trkpt lat="43.08618652153835" lon="11.663947609741346"><ele>454.99999999999994</ele><time>2026-04-11T17:53:20Z</time></trkpt><trkpt lat="43.08626316610076" lon="11.663872652024402"><ele>454.0</ele><time>2026-04-11T17:53:21Z</time></trkpt><trkpt lat="43.08634015590458" lon="11.663795484702673"><ele>453.0</ele><time>2026-04-11T17:53:22Z</time></trkpt><trkpt lat="43.086418217932554" lon="11.663713798506043"><ele>453.0</ele><time>2026-04-11T17:53:23Z</time></trkpt><trkpt lat="43.08649497719902" lon="11.663633056503125"><ele>452.99999999999994</ele><time>2026-04-11T17:53:24Z</time></trkpt><trkpt lat="43.08656262393245" lon="11.663532754132966"><ele>452.99999999999994</ele><time>2026-04-11T17:53:25Z</time></trkpt><trkpt lat="43.08663560771401" lon="11.663454823377073"><ele>453.0</ele><time>2026-04-11T17:53:26Z</time></trkpt><trkpt lat="43.086710230546416" lon="11.663377991780223"><ele>453.0</ele><time>2026-04-11T17:53:27Z</time></trkpt><trkpt lat="43.08678238739241" lon="11.663299920198964"><ele>452.3333333333333</ele><time>2026-04-11T17:53:28Z</time></trkpt><trkpt lat="43.08684807314833" lon="11.663209910096517"><ele>451.66666666666663</ele><time>2026-04-11T17:53:29Z</time></trkpt><trkpt lat="43.086904974214484" lon="11.663121315568777"><ele>451.0</ele><time>2026-04-11T17:53:30Z</time></trkpt><trkpt lat="43.08696543517357" lon="11.663026283108291"><ele>450.3333333333333</ele><time>2026-04-11T17:53:31Z</time></trkpt><trkpt lat="43.087023025075226" lon="11.662933638702487"><ele>449.66666666666663</ele><time>2026-04-11T17:53:32Z</time></trkpt><trkpt lat="43.08708446827326" lon="11.662847017991925"><ele>449.0</ele><time>2026-04-11T17:53:33Z</time></trkpt><trkpt lat="43.087151229864126" lon="11.662759665043149"><ele>449.0</ele><time>2026-04-11T17:53:34Z</time></trkpt><trkpt lat="43.087222203071164" lon="11.662673780659022"><ele>449.0</ele><time>2026-04-11T17:53:35Z</time></trkpt><trkpt lat="43.08729148921639" lon="11.6625940908197"><ele>449.0</ele><time>2026-04-11T17:53:36Z</time></trkpt><trkpt lat="43.087368775846215" lon="11.662521279249917"><ele>449.0</ele><time>2026-04-11T17:53:37Z</time></trkpt><trkpt lat="43.08744183767252" lon="11.662439528495044"><ele>449.0</ele><time>2026-04-11T17:53:38Z</time></trkpt><trkpt lat="43.08751607161696" lon="11.662360297778646"><ele>447.99999999999994</ele><time>2026-04-11T17:53:39Z</time></trkpt><trkpt lat="43.08759095726257" lon="11.662292699124869"><ele>447.0</ele><time>2026-04-11T17:53:40Z</time></trkpt><trkpt lat="43.08767395109286" lon="11.662238820138864"><ele>446.0</ele><time>2026-04-11T17:53:41Z</time></trkpt><trkpt lat="43.087762980921234" lon="11.66220825904827"><ele>445.0</ele><time>2026-04-11T17:53:42Z</time></trkpt><trkpt lat="43.087847805750684" lon="11.662188053485023"><ele>443.99999999999994</ele><time>2026-04-11T17:53:43Z</time></trkpt><trkpt lat="43.08793511969958" lon="11.662169850011704"><ele>443.0</ele><time>2026-04-11T17:53:44Z</time></trkpt><trkpt lat="43.08802054087395" lon="11.662146791011793"><ele>442.99999999999994</ele><time>2026-04-11T17:53:45Z</time></trkpt><trkpt lat="43.088106435863224" lon="11.662123589621086"><ele>443.0</ele><time>2026-04-11T17:53:46Z</time></trkpt><trkpt lat="43.08819379550265" lon="11.662114849594227"><ele>443.0</ele><time>2026-04-11T17:53:47Z</time></trkpt><trkpt lat="43.088277702950954" lon="11.662094012156098"><ele>443.0</ele><time>2026-04-11T17:53:48Z</time></trkpt><trkpt lat="43.08836404548721" lon="11.66206742754339"><ele>442.99999999999994</ele><time>2026-04-11T17:53:49Z</time></trkpt><trkpt lat="43.08845003709877" lon="11.662034088479276"><ele>443.0</ele><time>2026-04-11T17:53:50Z</time></trkpt><trkpt lat="43.088532701129985" lon="11.661982484263987"><ele>442.0</ele><time>2026-04-11T17:53:51Z</time></trkpt><trkpt lat="43.08861067380551" lon="11.661917445308044"><ele>440.99999999999994</ele><time>2026-04-11T17:53:52Z</time></trkpt><trkpt lat="43.08868428546804" lon="11.661844451622441"><ele>439.99999999999994</ele><time>2026-04-11T17:53:53Z</time></trkpt><trkpt lat="43.08875789754114" lon="11.661764647072248"><ele>439.0</ele><time>2026-04-11T17:53:54Z</time></trkpt><trkpt lat="43.08883342179365" lon="11.661688612716267"><ele>438.0</ele><time>2026-04-11T17:53:55Z</time></trkpt><trkpt lat="43.088910273303625" lon="11.661613927731551"><ele>438.0</ele><time>2026-04-11T17:53:56Z</time></trkpt><trkpt lat="43.08898150520402" lon="11.661542187277878"><ele>438.0</ele><time>2026-04-11T17:53:57Z</time></trkpt><trkpt lat="43.08904719097971" lon="11.661473127067655"><ele>438.0</ele><time>2026-04-11T17:53:58Z</time></trkpt><trkpt lat="43.08911404385556" lon="11.661400654263335"><ele>438.0</ele><time>2026-04-11T17:53:59Z</time></trkpt><trkpt lat="43.08919379828717" lon="11.661347978123139"><ele>438.0</ele><time>2026-04-11T17:54:00Z</time></trkpt><trkpt lat="43.08925989118459" lon="11.661269369273397"><ele>438.0</ele><time>2026-04-11T17:54:01Z</time></trkpt><trkpt lat="43.08934358578584" lon="11.6612188421887"><ele>437.4</ele><time>2026-04-11T17:54:02Z</time></trkpt><trkpt lat="43.08942731532351" lon="11.661174093573834"><ele>436.79999999999995</ele><time>2026-04-11T17:54:03Z</time></trkpt><trkpt lat="43.08951377343182" lon="11.661138040190028"><ele>436.2</ele><time>2026-04-11T17:54:04Z</time></trkpt><trkpt lat="43.089605902183" lon="11.661112948894589"><ele>435.6</ele><time>2026-04-11T17:54:05Z</time></trkpt><trkpt lat="43.0897019397263" lon="11.661121356204879"><ele>435.0</ele><time>2026-04-11T17:54:06Z</time></trkpt><trkpt lat="43.08979711399323" lon="11.661114274562683"><ele>435.0</ele><time>2026-04-11T17:54:07Z</time></trkpt><trkpt lat="43.08988913163729" lon="11.661117687870293"><ele>435.0</ele><time>2026-04-11T17:54:08Z</time></trkpt><trkpt lat="43.08998343885311" lon="11.661113151365315"><ele>435.0</ele><time>2026-04-11T17:54:09Z</time></trkpt><trkpt lat="43.090074076906035" lon="11.661136834183178"><ele>435.0</ele><time>2026-04-11T17:54:10Z</time></trkpt><trkpt lat="43.0901648529596" lon="11.661164450825806"><ele>435.0</ele><time>2026-04-11T17:54:11Z</time></trkpt><trkpt lat="43.0902524371535" lon="11.661192941795102"><ele>433.2</ele><time>2026-04-11T17:54:12Z</time></trkpt><trkpt lat="43.09035275299065" lon="11.66121764617195"><ele>431.4</ele><time>2026-04-11T17:54:13Z</time></trkpt><trkpt lat="43.090446484764854" lon="11.661234882009072"><ele>429.6</ele><time>2026-04-11T17:54:14Z</time></trkpt><trkpt lat="43.0905364231705" lon="11.661251946882757"><ele>427.8</ele><time>2026-04-11T17:54:15Z</time></trkpt><trkpt lat="43.09062778065823" lon="11.66125763906539"><ele>426.0</ele><time>2026-04-11T17:54:16Z</time></trkpt><trkpt lat="43.09071947969356" lon="11.661266583275264"><ele>424.6666666666667</ele><time>2026-04-11T17:54:17Z</time></trkpt><trkpt lat="43.090807734309685" lon="11.66127980093433"><ele>423.33333333333337</ele><time>2026-04-11T17:54:18Z</time></trkpt><trkpt lat="43.09089085355667" lon="11.661282163621944"><ele>422.0</ele><time>2026-04-11T17:54:19Z</time></trkpt><trkpt lat="43.09097556635353" lon="11.661265782703701"><ele>420.6666666666667</ele><time>2026-04-11T17:54:20Z</time></trkpt><trkpt lat="43.09106372347352" lon="11.661245973312283"><ele>419.33333333333337</ele><time>2026-04-11T17:54:21Z</time></trkpt><trkpt lat="43.09115889228643" lon="11.66122915751886"><ele>418.0</ele><time>2026-04-11T17:54:22Z</time></trkpt><trkpt lat="43.09125333048249" lon="11.661214518841687"><ele>418.0</ele><time>2026-04-11T17:54:23Z</time></trkpt><trkpt lat="43.09135310772175" lon="11.661218720150282"><ele>418.0</ele><time>2026-04-11T17:54:24Z</time></trkpt><trkpt lat="43.09145017084082" lon="11.661184124135257"><ele>418.0</ele><time>2026-04-11T17:54:25Z</time></trkpt><trkpt lat="43.091550765558374" lon="11.661176419752115"><ele>418.0</ele><time>2026-04-11T17:54:26Z</time></trkpt><trkpt lat="43.09165319449108" lon="11.66116096046609"><ele>418.0</ele><time>2026-04-11T17:54:27Z</time></trkpt><trkpt lat="43.091755644994244" lon="11.661150811308616"><ele>416.79999999999995</ele><time>2026-04-11T17:54:28Z</time></trkpt><trkpt lat="43.091864394829" lon="11.66113545810343"><ele>415.6</ele><time>2026-04-11T17:54:29Z</time></trkpt><trkpt lat="43.0919723175686" lon="11.661146420214592"><ele>414.4</ele><time>2026-04-11T17:54:30Z</time></trkpt><trkpt lat="43.09208303705739" lon="11.661136051697179"><ele>413.20000000000005</ele><time>2026-04-11T17:54:31Z</time></trkpt><trkpt lat="43.09219619561465" lon="11.661127055634914"><ele>412.0</ele><time>2026-04-11T17:54:32Z</time></trkpt><trkpt lat="43.092314698073245" lon="11.661118172678837"><ele>410.0</ele><time>2026-04-11T17:54:33Z</time></trkpt><trkpt lat="43.09242903359244" lon="11.661110430159297"><ele>408.0</ele><time>2026-04-11T17:54:34Z</time></trkpt><trkpt lat="43.09254108955405" lon="11.66110339714082"><ele>406.0</ele><time>2026-04-11T17:54:35Z</time></trkpt><trkpt lat="43.09265400419924" lon="11.661097993140604"><ele>404.0</ele><time>2026-04-11T17:54:36Z</time></trkpt><trkpt lat="43.09276511889717" lon="11.661093369346208"><ele>404.0</ele><time>2026-04-11T17:54:37Z</time></trkpt><trkpt lat="43.09286931314881" lon="11.661089033534374"><ele>404.0</ele><time>2026-04-11T17:54:38Z</time></trkpt><trkpt lat="43.09297374947804" lon="11.661084585206302"><ele>404.0</ele><time>2026-04-11T17:54:39Z</time></trkpt><trkpt lat="43.09308226486242" lon="11.661056586752254"><ele>404.0</ele><time>2026-04-11T17:54:40Z</time></trkpt><trkpt lat="43.093194409633696" lon="11.661055752828407"><ele>404.0</ele><time>2026-04-11T17:54:41Z</time></trkpt><trkpt lat="43.093305509315535" lon="11.661053285740495"><ele>402.6</ele><time>2026-04-11T17:54:42Z</time></trkpt><trkpt lat="43.09341570322911" lon="11.661044936525522"><ele>401.2</ele><time>2026-04-11T17:54:43Z</time></trkpt><trkpt lat="43.09352305546348" lon="11.661040631915744"><ele>399.8</ele><time>2026-04-11T17:54:44Z</time></trkpt><trkpt lat="43.09363225286578" lon="11.661036711170006"><ele>398.40000000000003</ele><time>2026-04-11T17:54:45Z</time></trkpt><trkpt lat="43.09374379913508" lon="11.661035147702485"><ele>397.0</ele><time>2026-04-11T17:54:46Z</time></trkpt><trkpt lat="43.093848995740295" lon="11.661054337703312"><ele>397.0</ele><time>2026-04-11T17:54:47Z</time></trkpt><trkpt lat="43.0939491965886" lon="11.661053985859667"><ele>397.0</ele><time>2026-04-11T17:54:48Z</time></trkpt><trkpt lat="43.0940482228022" lon="11.661053638139544"><ele>397.0</ele><time>2026-04-11T17:54:49Z</time></trkpt><trkpt lat="43.09414716577512" lon="11.661053290713259"><ele>397.0</ele><time>2026-04-11T17:54:50Z</time></trkpt><trkpt lat="43.09424808115141" lon="11.661053230987461"><ele>397.0</ele><time>2026-04-11T17:54:51Z</time></trkpt><trkpt lat="43.094352227613186" lon="11.66105414843278"><ele>396.20000000000005</ele><time>2026-04-11T17:54:52Z</time></trkpt><trkpt lat="43.09445817863902" lon="11.661055081772977"><ele>395.4</ele><time>2026-04-11T17:54:53Z</time></trkpt><trkpt lat="43.09455927919881" lon="11.661054490433418"><ele>394.6</ele><time>2026-04-11T17:54:54Z</time></trkpt><trkpt lat="43.09466122961138" lon="11.661048414171097"><ele>393.79999999999995</ele><time>2026-04-11T17:54:55Z</time></trkpt><trkpt lat="43.09476176203015" lon="11.661028584594755"><ele>393.0</ele><time>2026-04-11T17:54:56Z</time></trkpt><trkpt lat="43.094863147252234" lon="11.660992271611667"><ele>392.2</ele><time>2026-04-11T17:54:57Z</time></trkpt><trkpt lat="43.09495705353713" lon="11.660944562699441"><ele>391.4</ele><time>2026-04-11T17:54:58Z</time></trkpt><trkpt lat="43.09504402984348" lon="11.660887258709957"><ele>390.59999999999997</ele><time>2026-04-11T17:54:59Z</time></trkpt><trkpt lat="43.09512725665569" lon="11.660838265150153"><ele>389.79999999999995</ele><time>2026-04-11T17:55:00Z</time></trkpt><trkpt lat="43.095212683417635" lon="11.660798018183636"><ele>389.0</ele><time>2026-04-11T17:55:01Z</time></trkpt><trkpt lat="43.09530666672088" lon="11.660778307128012"><ele>389.0</ele><time>2026-04-11T17:55:02Z</time></trkpt><trkpt lat="43.09540820934131" lon="11.660784303736737"><ele>389.0</ele><time>2026-04-11T17:55:03Z</time></trkpt><trkpt lat="43.095508292856955" lon="11.660810908903258"><ele>389.0</ele><time>2026-04-11T17:55:04Z</time></trkpt><trkpt lat="43.095614383041564" lon="11.660848642344655"><ele>389.0</ele><time>2026-04-11T17:55:05Z</time></trkpt><trkpt lat="43.095719759769146" lon="11.660889034631053"><ele>389.0</ele><time>2026-04-11T17:55:06Z</time></trkpt><trkpt lat="43.09582849995248" lon="11.660932307366918"><ele>387.4</ele><time>2026-04-11T17:55:07Z</time></trkpt><trkpt lat="43.095934327337176" lon="11.660975636104173"><ele>385.79999999999995</ele><time>2026-04-11T17:55:08Z</time></trkpt><trkpt lat="43.09603892949631" lon="11.66101631880096"><ele>384.20000000000005</ele><time>2026-04-11T17:55:09Z</time></trkpt><trkpt lat="43.096148052928456" lon="11.66104757821828"><ele>382.6</ele><time>2026-04-11T17:55:10Z</time></trkpt><trkpt lat="43.09626174417898" lon="11.661052381315908"><ele>381.0</ele><time>2026-04-11T17:55:11Z</time></trkpt><trkpt lat="43.09637625885281" lon="11.661064436199963"><ele>381.0</ele><time>2026-04-11T17:55:12Z</time></trkpt><trkpt lat="43.096489177232435" lon="11.661086779724586"><ele>381.0</ele><time>2026-04-11T17:55:13Z</time></trkpt><trkpt lat="43.096604240927235" lon="11.661052223005887"><ele>381.0</ele><time>2026-04-11T17:55:14Z</time></trkpt><trkpt lat="43.09671896608115" lon="11.661036127401143"><ele>381.0</ele><time>2026-04-11T17:55:15Z</time></trkpt><trkpt lat="43.096833229660724" lon="11.661015485616515"><ele>380.0</ele><time>2026-04-11T17:55:16Z</time></trkpt><trkpt lat="43.096943828041304" lon="11.660974184790264"><ele>379.0</ele><time>2026-04-11T17:55:17Z</time></trkpt><trkpt lat="43.09705926861138" lon="11.66097733230885"><ele>378.0</ele><time>2026-04-11T17:55:18Z</time></trkpt><trkpt lat="43.0971645951538" lon="11.660949336269814"><ele>377.0</ele><time>2026-04-11T17:55:19Z</time></trkpt><trkpt lat="43.09726931998738" lon="11.660921500183232"><ele>376.0</ele><time>2026-04-11T17:55:20Z</time></trkpt><trkpt lat="43.09737344520714" lon="11.660893917225314"><ele>375.0</ele><time>2026-04-11T17:55:21Z</time></trkpt><trkpt lat="43.09747749625093" lon="11.660867072972135"><ele>374.0</ele><time>2026-04-11T17:55:22Z</time></trkpt><trkpt lat="43.09758087600566" lon="11.660840401874212"><ele>373.0</ele><time>2026-04-11T17:55:23Z</time></trkpt><trkpt lat="43.09768559048526" lon="11.660813386414159"><ele>372.0</ele><time>2026-04-11T17:55:24Z</time></trkpt><trkpt lat="43.09778398372455" lon="11.660792028054988"><ele>371.0</ele><time>2026-04-11T17:55:25Z</time></trkpt><trkpt lat="43.097882790934705" lon="11.660778539285493"><ele>371.0</ele><time>2026-04-11T17:55:26Z</time></trkpt><trkpt lat="43.09798339371299" lon="11.660775422038736"><ele>371.0</ele><time>2026-04-11T17:55:27Z</time></trkpt><trkpt lat="43.098089987818526" lon="11.660779560124697"><ele>371.0</ele><time>2026-04-11T17:55:28Z</time></trkpt><trkpt lat="43.098201628718165" lon="11.660799436060643"><ele>371.0</ele><time>2026-04-11T17:55:29Z</time></trkpt><trkpt lat="43.098315414643714" lon="11.66082778068923"><ele>371.0</ele><time>2026-04-11T17:55:30Z</time></trkpt><trkpt lat="43.09843095918721" lon="11.660841321726718"><ele>369.25</ele><time>2026-04-11T17:55:31Z</time></trkpt><trkpt lat="43.09853953223489" lon="11.660875784238288"><ele>367.5</ele><time>2026-04-11T17:55:32Z</time></trkpt><trkpt lat="43.09864744721373" lon="11.660905791086655"><ele>365.75</ele><time>2026-04-11T17:55:33Z</time></trkpt><trkpt lat="43.09875678656669" lon="11.660949313766668"><ele>364.0</ele><time>2026-04-11T17:55:34Z</time></trkpt><trkpt lat="43.098872802210614" lon="11.660977601045046"><ele>364.0</ele><time>2026-04-11T17:55:35Z</time></trkpt><trkpt lat="43.09898722703185" lon="11.660983728037307"><ele>364.0</ele><time>2026-04-11T17:55:36Z</time></trkpt><trkpt lat="43.099100934446206" lon="11.661003789534915"><ele>364.0</ele><time>2026-04-11T17:55:37Z</time></trkpt><trkpt lat="43.09921431390763" lon="11.661019682309373"><ele>364.0</ele><time>2026-04-11T17:55:38Z</time></trkpt><trkpt lat="43.099327380601565" lon="11.661032474297022"><ele>363.0</ele><time>2026-04-11T17:55:39Z</time></trkpt><trkpt lat="43.099437705440955" lon="11.661039601645145"><ele>362.0</ele><time>2026-04-11T17:55:40Z</time></trkpt><trkpt lat="43.09954618471017" lon="11.661044368662528"><ele>361.0</ele><time>2026-04-11T17:55:41Z</time></trkpt><trkpt lat="43.099655165514875" lon="11.661071610307562"><ele>360.0</ele><time>2026-04-11T17:55:42Z</time></trkpt><trkpt lat="43.0997687853722" lon="11.661054207007023"><ele>359.0</ele><time>2026-04-11T17:55:43Z</time></trkpt><trkpt lat="43.099884260928064" lon="11.661078522086239"><ele>357.75</ele><time>2026-04-11T17:55:44Z</time></trkpt><trkpt lat="43.10000565930131" lon="11.661049957575386"><ele>356.5</ele><time>2026-04-11T17:55:45Z</time></trkpt><trkpt lat="43.10012381576763" lon="11.661024948931713"><ele>355.25</ele><time>2026-04-11T17:55:46Z</time></trkpt><trkpt lat="43.10023436141597" lon="11.660978825425207"><ele>354.0</ele><time>2026-04-11T17:55:47Z</time></trkpt><trkpt lat="43.10034089665707" lon="11.660915389128768"><ele>354.0</ele><time>2026-04-11T17:55:48Z</time></trkpt><trkpt lat="43.10044108191475" lon="11.660844923180818"><ele>354.0</ele><time>2026-04-11T17:55:49Z</time></trkpt><trkpt lat="43.10054274664135" lon="11.660782789857498"><ele>354.0</ele><time>2026-04-11T17:55:50Z</time></trkpt><trkpt lat="43.10064286395808" lon="11.660720637039685"><ele>354.0</ele><time>2026-04-11T17:55:51Z</time></trkpt><trkpt lat="43.10074631507722" lon="11.660662640505734"><ele>354.0</ele><time>2026-04-11T17:55:52Z</time></trkpt><trkpt lat="43.10084129888884" lon="11.660599674793803"><ele>353.2</ele><time>2026-04-11T17:55:53Z</time></trkpt><trkpt lat="43.10093764183262" lon="11.660547014116611"><ele>352.4</ele><time>2026-04-11T17:55:54Z</time></trkpt><trkpt lat="43.10103683883021" lon="11.660499139233586"><ele>351.6</ele><time>2026-04-11T17:55:55Z</time></trkpt><trkpt lat="43.10113304499126" lon="11.66044336711173"><ele>350.8</ele><time>2026-04-11T17:55:56Z</time></trkpt><trkpt lat="43.10122797017003" lon="11.660391588790738"><ele>350.0</ele><time>2026-04-11T17:55:57Z</time></trkpt><trkpt lat="43.10132348206708" lon="11.66034058399789"><ele>350.0</ele><time>2026-04-11T17:55:58Z</time></trkpt><trkpt lat="43.1014191372716" lon="11.660289327486447"><ele>350.0</ele><time>2026-04-11T17:55:59Z</time></trkpt><trkpt lat="43.10151239543961" lon="11.660234898510046"><ele>350.0</ele><time>2026-04-11T17:56:00Z</time></trkpt><trkpt lat="43.10160576364403" lon="11.66018005793261"><ele>350.0</ele><time>2026-04-11T17:56:01Z</time></trkpt><trkpt lat="43.10170210671105" lon="11.660133198847573"><ele>350.0</ele><time>2026-04-11T17:56:02Z</time></trkpt><trkpt lat="43.10179895104719" lon="11.660098548021594"><ele>349.6</ele><time>2026-04-11T17:56:03Z</time></trkpt><trkpt lat="43.1018945206371" lon="11.66008082039567"><ele>349.2</ele><time>2026-04-11T17:56:04Z</time></trkpt><trkpt lat="43.10199218446283" lon="11.660081634108876"><ele>348.79999999999995</ele><time>2026-04-11T17:56:05Z</time></trkpt><trkpt lat="43.10209629633381" lon="11.660099126783932"><ele>348.4</ele><time>2026-04-11T17:56:06Z</time></trkpt><trkpt lat="43.10220089535567" lon="11.660125664764594"><ele>348.0</ele><time>2026-04-11T17:56:07Z</time></trkpt><trkpt lat="43.10230516713458" lon="11.660162180886191"><ele>348.0</ele><time>2026-04-11T17:56:08Z</time></trkpt><trkpt lat="43.102412698381194" lon="11.66019700060309"><ele>348.0</ele><time>2026-04-11T17:56:09Z</time></trkpt><trkpt lat="43.10252130763798" lon="11.660233756158416"><ele>348.0</ele><time>2026-04-11T17:56:10Z</time></trkpt><trkpt lat="43.102627790261366" lon="11.660268019411307"><ele>348.0</ele><time>2026-04-11T17:56:11Z</time></trkpt><trkpt lat="43.10273841780141" lon="11.66029900226427"><ele>348.0</ele><time>2026-04-11T17:56:12Z</time></trkpt><trkpt lat="43.10284383499219" lon="11.660332235923896"><ele>346.79999999999995</ele><time>2026-04-11T17:56:13Z</time></trkpt><trkpt lat="43.10294178268907" lon="11.660365297437508"><ele>345.6</ele><time>2026-04-11T17:56:14Z</time></trkpt><trkpt lat="43.10303635218015" lon="11.660416824912534"><ele>344.4</ele><time>2026-04-11T17:56:15Z</time></trkpt><trkpt lat="43.10314275132367" lon="11.660430593269556"><ele>343.20000000000005</ele><time>2026-04-11T17:56:16Z</time></trkpt><trkpt lat="43.103244817504844" lon="11.660466732822654"><ele>342.0</ele><time>2026-04-11T17:56:17Z</time></trkpt><trkpt lat="43.103346672063914" lon="11.660507631186556"><ele>341.8</ele><time>2026-04-11T17:56:18Z</time></trkpt><trkpt lat="43.103446011859724" lon="11.660544135614558"><ele>341.6</ele><time>2026-04-11T17:56:19Z</time></trkpt><trkpt lat="43.103552123155225" lon="11.660572363319298"><ele>341.40000000000003</ele><time>2026-04-11T17:56:20Z</time></trkpt><trkpt lat="43.10365578879548" lon="11.66060272309029"><ele>341.20000000000005</ele><time>2026-04-11T17:56:21Z</time></trkpt><trkpt lat="43.103760253443205" lon="11.660629166075768"><ele>341.0</ele><time>2026-04-11T17:56:22Z</time></trkpt><trkpt lat="43.10386240758035" lon="11.660672640039664"><ele>341.0</ele><time>2026-04-11T17:56:23Z</time></trkpt><trkpt lat="43.10396777375312" lon="11.660667073140683"><ele>341.0</ele><time>2026-04-11T17:56:24Z</time></trkpt><trkpt lat="43.104072535342205" lon="11.660660799025512"><ele>341.0</ele><time>2026-04-11T17:56:25Z</time></trkpt><trkpt lat="43.10417453267929" lon="11.660622857170734"><ele>341.0</ele><time>2026-04-11T17:56:26Z</time></trkpt><trkpt lat="43.10427284303316" lon="11.660569767038897"><ele>341.0</ele><time>2026-04-11T17:56:27Z</time></trkpt><trkpt lat="43.104365884003556" lon="11.660505967939452"><ele>341.0</ele><time>2026-04-11T17:56:28Z</time></trkpt><trkpt lat="43.10446704668307" lon="11.660470676893906"><ele>341.0</ele><time>2026-04-11T17:56:29Z</time></trkpt><trkpt lat="43.104561991272114" lon="11.66041261245508"><ele>341.0</ele><time>2026-04-11T17:56:30Z</time></trkpt><trkpt lat="43.10465557681448" lon="11.660353911958685"><ele>341.0</ele><time>2026-04-11T17:56:31Z</time></trkpt><trkpt lat="43.1047450981196" lon="11.660269016722056"><ele>341.0</ele><time>2026-04-11T17:56:32Z</time></trkpt><trkpt lat="43.10484973247242" lon="11.660222772936175"><ele>340.20000000000005</ele><time>2026-04-11T17:56:33Z</time></trkpt><trkpt lat="43.10495315226286" lon="11.66015559219103"><ele>339.40000000000003</ele><time>2026-04-11T17:56:34Z</time></trkpt><trkpt lat="43.10505437500111" lon="11.66009375498189"><ele>338.6</ele><time>2026-04-11T17:56:35Z</time></trkpt><trkpt lat="43.10515298229861" lon="11.660046860624211"><ele>337.8</ele><time>2026-04-11T17:56:36Z</time></trkpt><trkpt lat="43.10523862187991" lon="11.660033479448714"><ele>337.0</ele><time>2026-04-11T17:56:37Z</time></trkpt><trkpt lat="43.105310516638205" lon="11.660027307791404"><ele>337.0</ele><time>2026-04-11T17:56:38Z</time></trkpt><trkpt lat="43.10537027228734" lon="11.659999883222163"><ele>337.0</ele><time>2026-04-11T17:56:39Z</time></trkpt><trkpt lat="43.10546291155356" lon="11.65998062497849"><ele>337.0</ele><time>2026-04-11T17:56:41Z</time></trkpt><trkpt lat="43.10552076940948" lon="11.660045646675052"><ele>337.0</ele><time>2026-04-11T17:56:44Z</time></trkpt><trkpt lat="43.105495879633" lon="11.660159003604662"><ele>337.0</ele><time>2026-04-11T17:56:46Z</time></trkpt><trkpt lat="43.10548399612896" lon="11.66026463150557"><ele>337.0</ele><time>2026-04-11T17:56:49Z</time></trkpt><trkpt lat="43.10547437260634" lon="11.660361459420736"><ele>337.16666666666663</ele><time>2026-04-11T17:56:52Z</time></trkpt><trkpt lat="43.10547045801284" lon="11.660451454106276"><ele>337.3333333333333</ele><time>2026-04-11T17:56:55Z</time></trkpt><trkpt lat="43.105456248438976" lon="11.660550233212621"><ele>337.5</ele><time>2026-04-11T17:56:58Z</time></trkpt><trkpt lat="43.10547513610696" lon="11.660676125669838"><ele>337.6666666666667</ele><time>2026-04-11T17:57:01Z</time></trkpt><trkpt lat="43.1054759589334" lon="11.66079545125722"><ele>337.83333333333337</ele><time>2026-04-11T17:57:04Z</time></trkpt><trkpt lat="43.10549016193987" lon="11.6608832962007"><ele>338.0</ele><time>2026-04-11T17:57:06Z</time></trkpt><trkpt lat="43.105535873015306" lon="11.660955927510825"><ele>338.0</ele><time>2026-04-11T17:57:08Z</time></trkpt><trkpt lat="43.10555252483984" lon="11.661047077022316"><ele>338.0</ele><time>2026-04-11T17:57:10Z</time></trkpt><trkpt lat="43.105574993385815" lon="11.661167433326176"><ele>338.0</ele><time>2026-04-11T17:57:13Z</time></trkpt><trkpt lat="43.1056010812605" lon="11.661273060453803"><ele>338.0</ele><time>2026-04-11T17:57:16Z</time></trkpt><trkpt lat="43.10561875514094" lon="11.661378566273015"><ele>338.0</ele><time>2026-04-11T17:57:19Z</time></trkpt><trkpt lat="43.1056336399478" lon="11.661485336728742"><ele>338.0</ele><time>2026-04-11T17:57:22Z</time></trkpt><trkpt lat="43.105662952713935" lon="11.661595439488377"><ele>338.14285714285717</ele><time>2026-04-11T17:57:25Z</time></trkpt><trkpt lat="43.105678815429755" lon="11.661697934805273"><ele>338.2857142857143</ele><time>2026-04-11T17:57:28Z</time></trkpt><trkpt lat="43.105703313323644" lon="11.661796483995696"><ele>338.42857142857144</ele><time>2026-04-11T17:57:31Z</time></trkpt><trkpt lat="43.10572025464748" lon="11.661895156035488"><ele>338.57142857142856</ele><time>2026-04-11T17:57:34Z</time></trkpt><trkpt lat="43.10573731862925" lon="11.661983718002158"><ele>338.7142857142857</ele><time>2026-04-11T17:57:37Z</time></trkpt><trkpt lat="43.10576325933685" lon="11.662081285963549"><ele>338.85714285714283</ele><time>2026-04-11T17:57:41Z</time></trkpt><trkpt lat="43.105777867674966" lon="11.662165651620422"><ele>339.0</ele><time>2026-04-11T17:57:45Z</time></trkpt><trkpt lat="43.10579870102709" lon="11.662259059781444"><ele>340.0</ele><time>2026-04-11T17:57:48Z</time></trkpt><trkpt lat="43.105818253773" lon="11.662348267254409"><ele>341.0</ele><time>2026-04-11T17:57:52Z</time></trkpt><trkpt lat="43.10583968948911" lon="11.662441933610582"><ele>342.0</ele><time>2026-04-11T17:57:55Z</time></trkpt><trkpt lat="43.10586268037349" lon="11.662548462142983"><ele>343.0</ele><time>2026-04-11T17:57:59Z</time></trkpt><trkpt lat="43.10587630951619" lon="11.662635682457335"><ele>344.0</ele><time>2026-04-11T17:58:02Z</time></trkpt><trkpt lat="43.10589157318161" lon="11.662749596380259"><ele>345.0</ele><time>2026-04-11T17:58:05Z</time></trkpt><trkpt lat="43.105898393884075" lon="11.662837171886363"><ele>346.0</ele><time>2026-04-11T17:58:08Z</time></trkpt><trkpt lat="43.10588065615764" lon="11.662949953053973"><ele>346.2857142857143</ele><time>2026-04-11T17:58:12Z</time></trkpt><trkpt lat="43.10587170814298" lon="11.663036030572975"><ele>346.5714285714286</ele><time>2026-04-11T17:58:15Z</time></trkpt><trkpt lat="43.1058702788767" lon="11.66313205692076"><ele>346.8571428571429</ele><time>2026-04-11T17:58:19Z</time></trkpt><trkpt lat="43.10586989990845" lon="11.663230030208515"><ele>347.1428571428571</ele><time>2026-04-11T17:58:23Z</time></trkpt><trkpt lat="43.10587668043764" lon="11.663322571436037"><ele>347.42857142857144</ele><time>2026-04-11T17:58:27Z</time></trkpt><trkpt lat="43.10590938648866" lon="11.66340799699028"><ele>347.7142857142857</ele><time>2026-04-11T17:58:31Z</time></trkpt><trkpt lat="43.10596028137577" lon="11.663469154025602"><ele>348.0</ele><time>2026-04-11T17:58:35Z</time></trkpt><trkpt lat="43.10602980517515" lon="11.663523704501399"><ele>348.0</ele><time>2026-04-11T17:58:39Z</time></trkpt><trkpt lat="43.10609026635708" lon="11.663562704505425"><ele>348.0</ele><time>2026-04-11T17:58:43Z</time></trkpt><trkpt lat="43.10614302671262" lon="11.663612567767586"><ele>348.0</ele><time>2026-04-11T17:58:46Z</time></trkpt><trkpt lat="43.10619563123226" lon="11.663689930479501"><ele>348.0</ele><time>2026-04-11T17:58:50Z</time></trkpt><trkpt lat="43.106240094138265" lon="11.663756902910531"><ele>348.0</ele><time>2026-04-11T17:58:53Z</time></trkpt><trkpt lat="43.10628998279493" lon="11.663817448092134"><ele>348.0</ele><time>2026-04-11T17:58:56Z</time></trkpt><trkpt lat="43.10633164454936" lon="11.663885977327611"><ele>348.0</ele><time>2026-04-11T17:58:59Z</time></trkpt><trkpt lat="43.10638776163976" lon="11.663972938277801"><ele>347.5</ele><time>2026-04-11T17:59:03Z</time></trkpt><trkpt lat="43.10642617146348" lon="11.66405094574974"><ele>347.0</ele><time>2026-04-11T17:59:06Z</time></trkpt><trkpt lat="43.10647779393701" lon="11.66412615726051"><ele>346.5</ele><time>2026-04-11T17:59:10Z</time></trkpt><trkpt lat="43.10652607079657" lon="11.664200381356965"><ele>346.0</ele><time>2026-04-11T17:59:13Z</time></trkpt><trkpt lat="43.10657381644659" lon="11.66428233160223"><ele>345.5</ele><time>2026-04-11T17:59:16Z</time></trkpt><trkpt lat="43.10663822657409" lon="11.664373594265635"><ele>345.0</ele><time>2026-04-11T17:59:19Z</time></trkpt><trkpt lat="43.10667830286129" lon="11.664441406299984"><ele>345.7142857142857</ele><time>2026-04-11T17:59:21Z</time></trkpt><trkpt lat="43.10673813012949" lon="11.664534680156093"><ele>346.42857142857144</ele><time>2026-04-11T17:59:24Z</time></trkpt><trkpt lat="43.10678066231292" lon="11.664606819151167"><ele>347.1428571428571</ele><time>2026-04-11T17:59:27Z</time></trkpt><trkpt lat="43.1068309194217" lon="11.664691027341734"><ele>347.8571428571429</ele><time>2026-04-11T17:59:30Z</time></trkpt><trkpt lat="43.10688644570089" lon="11.664762057283781"><ele>348.57142857142856</ele><time>2026-04-11T17:59:33Z</time></trkpt><trkpt lat="43.1069322731079" lon="11.664823415239772"><ele>349.2857142857143</ele><time>2026-04-11T17:59:34Z</time></trkpt><trkpt lat="43.10698175701552" lon="11.6648785904313"><ele>350.0</ele><time>2026-04-11T17:59:36Z</time></trkpt><trkpt lat="43.1070374782784" lon="11.664961199839947"><ele>350.0</ele><time>2026-04-11T17:59:38Z</time></trkpt><trkpt lat="43.10708787133339" lon="11.66503908761088"><ele>350.0</ele><time>2026-04-11T17:59:41Z</time></trkpt><trkpt lat="43.107143065176324" lon="11.665117771129983"><ele>350.0</ele><time>2026-04-11T17:59:42Z</time></trkpt><trkpt lat="43.10722792806403" lon="11.665226770617517"><ele>350.0</ele><time>2026-04-11T17:59:44Z</time></trkpt><trkpt lat="43.1072445443635" lon="11.665315563107033"><ele>350.0</ele><time>2026-04-11T17:59:45Z</time></trkpt><trkpt lat="43.107324659262886" lon="11.665430473707934"><ele>350.8</ele><time>2026-04-11T17:59:47Z</time></trkpt><trkpt lat="43.10739882581765" lon="11.665536903669343"><ele>351.6</ele><time>2026-04-11T17:59:49Z</time></trkpt><trkpt lat="43.10747803671272" lon="11.665651856162661"><ele>352.4</ele><time>2026-04-11T17:59:51Z</time></trkpt><trkpt lat="43.1075455278344" lon="11.665749800650543"><ele>353.2</ele><time>2026-04-11T17:59:53Z</time></trkpt><trkpt lat="43.10761812521383" lon="11.665855545645544"><ele>354.0</ele><time>2026-04-11T17:59:55Z</time></trkpt><trkpt lat="43.10768732446324" lon="11.665957025297246"><ele>354.0</ele><time>2026-04-11T17:59:57Z</time></trkpt><trkpt lat="43.107753699675094" lon="11.666054363529616"><ele>354.0</ele><time>2026-04-11T17:59:59Z</time></trkpt><trkpt lat="43.107815812830346" lon="11.666145451316032"><ele>354.0</ele><time>2026-04-11T18:00:01Z</time></trkpt><trkpt lat="43.10786527802381" lon="11.666217991230015"><ele>354.0</ele><time>2026-04-11T18:00:03Z</time></trkpt><trkpt lat="43.10791543379905" lon="11.666289921780194"><ele>354.0</ele><time>2026-04-11T18:00:05Z</time></trkpt><trkpt lat="43.107967845770474" lon="11.666362316181036"><ele>354.0</ele><time>2026-04-11T18:00:07Z</time></trkpt><trkpt lat="43.108029390609424" lon="11.666445070174092"><ele>353.4</ele><time>2026-04-11T18:00:09Z</time></trkpt><trkpt lat="43.108095441649354" lon="11.666533883070807"><ele>352.79999999999995</ele><time>2026-04-11T18:00:11Z</time></trkpt><trkpt lat="43.10817859784139" lon="11.666610317005066"><ele>352.20000000000005</ele><time>2026-04-11T18:00:13Z</time></trkpt><trkpt lat="43.10823758842628" lon="11.666699874269042"><ele>351.6</ele><time>2026-04-11T18:00:15Z</time></trkpt><trkpt lat="43.108308460085375" lon="11.666793309915976"><ele>351.0</ele><time>2026-04-11T18:00:17Z</time></trkpt><trkpt lat="43.10838080249871" lon="11.66688960924403"><ele>350.8333333333333</ele><time>2026-04-11T18:00:19Z</time></trkpt><trkpt lat="43.10845044513573" lon="11.66695640353413"><ele>350.6666666666667</ele><time>2026-04-11T18:00:21Z</time></trkpt><trkpt lat="43.108509620498246" lon="11.667016823892174"><ele>350.5</ele><time>2026-04-11T18:00:23Z</time></trkpt><trkpt lat="43.10858211127394" lon="11.667066664000131"><ele>350.33333333333337</ele><time>2026-04-11T18:00:25Z</time></trkpt><trkpt lat="43.10865168573601" lon="11.667113358901926"><ele>350.1666666666667</ele><time>2026-04-11T18:00:27Z</time></trkpt><trkpt lat="43.10873376281318" lon="11.667160730993409"><ele>350.0</ele><time>2026-04-11T18:00:29Z</time></trkpt><trkpt lat="43.108824674999056" lon="11.66721237106537"><ele>350.0</ele><time>2026-04-11T18:00:31Z</time></trkpt><trkpt lat="43.10889809696664" lon="11.667219168036748"><ele>350.0</ele><time>2026-04-11T18:00:34Z</time></trkpt><trkpt lat="43.1089705282337" lon="11.667240828203107"><ele>350.0</ele><time>2026-04-11T18:00:36Z</time></trkpt><trkpt lat="43.109036754196175" lon="11.667304304236207"><ele>350.0</ele><time>2026-04-11T18:00:39Z</time></trkpt><trkpt lat="43.10910985487658" lon="11.667361158719546"><ele>350.0</ele><time>2026-04-11T18:00:42Z</time></trkpt><trkpt lat="43.10919137218997" lon="11.66742673818134"><ele>350.0</ele><time>2026-04-11T18:00:45Z</time></trkpt><trkpt lat="43.109289500162674" lon="11.667490776305092"><ele>351.33333333333337</ele><time>2026-04-11T18:00:48Z</time></trkpt><trkpt lat="43.10936648226703" lon="11.66752973461186"><ele>352.6666666666667</ele><time>2026-04-11T18:00:51Z</time></trkpt><trkpt lat="43.10942565745686" lon="11.667564122519499"><ele>354.0</ele><time>2026-04-11T18:00:53Z</time></trkpt><trkpt lat="43.109513803638876" lon="11.667604872165873"><ele>355.3333333333333</ele><time>2026-04-11T18:00:56Z</time></trkpt><trkpt lat="43.109588184385885" lon="11.667656240525476"><ele>356.66666666666663</ele><time>2026-04-11T18:00:59Z</time></trkpt><trkpt lat="43.10965453485338" lon="11.6677074658636"><ele>358.0</ele><time>2026-04-11T18:01:02Z</time></trkpt><trkpt lat="43.10972517098157" lon="11.667757458496745"><ele>357.5714285714286</ele><time>2026-04-11T18:01:05Z</time></trkpt><trkpt lat="43.10979650233638" lon="11.667777373268962"><ele>357.14285714285717</ele><time>2026-04-11T18:01:08Z</time></trkpt><trkpt lat="43.10986892202088" lon="11.667791569587802"><ele>356.7142857142857</ele><time>2026-04-11T18:01:11Z</time></trkpt><trkpt lat="43.10993506694615" lon="11.667797337539897"><ele>356.28571428571433</ele><time>2026-04-11T18:01:14Z</time></trkpt><trkpt lat="43.110011343190116" lon="11.667792643892707"><ele>355.8571428571429</ele><time>2026-04-11T18:01:17Z</time></trkpt><trkpt lat="43.11008299365977" lon="11.667769741075256"><ele>355.42857142857144</ele><time>2026-04-11T18:01:21Z</time></trkpt><trkpt lat="43.11015340189111" lon="11.667731736780333"><ele>355.0</ele><time>2026-04-11T18:01:24Z</time></trkpt><trkpt lat="43.1102112768595" lon="11.667682170839068"><ele>356.8333333333333</ele><time>2026-04-11T18:01:27Z</time></trkpt><trkpt lat="43.110269943020185" lon="11.667631497183864"><ele>358.66666666666663</ele><time>2026-04-11T18:01:30Z</time></trkpt><trkpt lat="43.110326610715866" lon="11.667584782159262"><ele>360.5</ele><time>2026-04-11T18:01:32Z</time></trkpt><trkpt lat="43.11040529614509" lon="11.667508543186745"><ele>362.3333333333333</ele><time>2026-04-11T18:01:35Z</time></trkpt><trkpt lat="43.11046130866619" lon="11.667447632456588"><ele>364.1666666666667</ele><time>2026-04-11T18:01:36Z</time></trkpt><trkpt lat="43.1105476335027" lon="11.667368286755638"><ele>366.0</ele><time>2026-04-11T18:01:38Z</time></trkpt><trkpt lat="43.11062395054789" lon="11.667300466553396"><ele>366.0</ele><time>2026-04-11T18:01:40Z</time></trkpt><trkpt lat="43.1107121211902" lon="11.667235840290571"><ele>366.0</ele><time>2026-04-11T18:01:42Z</time></trkpt><trkpt lat="43.11081232050536" lon="11.667216995852563"><ele>366.0</ele><time>2026-04-11T18:01:44Z</time></trkpt><trkpt lat="43.110903222266465" lon="11.667262423328626"><ele>366.0</ele><time>2026-04-11T18:01:46Z</time></trkpt><trkpt lat="43.11097999049666" lon="11.667337435863274"><ele>366.0</ele><time>2026-04-11T18:01:48Z</time></trkpt><trkpt lat="43.11105678864293" lon="11.667404859856264"><ele>365.8</ele><time>2026-04-11T18:01:50Z</time></trkpt><trkpt lat="43.1111427469046" lon="11.667502546844897"><ele>365.6</ele><time>2026-04-11T18:01:52Z</time></trkpt><trkpt lat="43.111228052657424" lon="11.66760602811345"><ele>365.4</ele><time>2026-04-11T18:01:54Z</time></trkpt><trkpt lat="43.11129098640972" lon="11.667725814012575"><ele>365.2</ele><time>2026-04-11T18:01:56Z</time></trkpt><trkpt lat="43.11137148545634" lon="11.667822628437666"><ele>365.0</ele><time>2026-04-11T18:01:58Z</time></trkpt><trkpt lat="43.11145689008535" lon="11.667922918935977"><ele>363.5</ele><time>2026-04-11T18:02:00Z</time></trkpt><trkpt lat="43.11154005130978" lon="11.668012361784424"><ele>362.0</ele><time>2026-04-11T18:02:02Z</time></trkpt><trkpt lat="43.11163125198702" lon="11.668097148754814"><ele>360.5</ele><time>2026-04-11T18:02:04Z</time></trkpt><trkpt lat="43.11172732948528" lon="11.66817715410528"><ele>359.0</ele><time>2026-04-11T18:02:06Z</time></trkpt><trkpt lat="43.11183381541808" lon="11.668263404347986"><ele>359.0</ele><time>2026-04-11T18:02:08Z</time></trkpt><trkpt lat="43.111889158366175" lon="11.668307427553124"><ele>359.0</ele><time>2026-04-11T18:02:09Z</time></trkpt><trkpt lat="43.111947095781176" lon="11.66835351458255"><ele>359.0</ele><time>2026-04-11T18:02:10Z</time></trkpt><trkpt lat="43.11200405425936" lon="11.668398822826562"><ele>359.0</ele><time>2026-04-11T18:02:11Z</time></trkpt><trkpt lat="43.11210685709497" lon="11.66848374833567"><ele>359.0</ele><time>2026-04-11T18:02:13Z</time></trkpt><trkpt lat="43.11218450933609" lon="11.668580635738703"><ele>359.0</ele><time>2026-04-11T18:02:15Z</time></trkpt><trkpt lat="43.11220553666673" lon="11.668714564440856"><ele>358.0</ele><time>2026-04-11T18:02:17Z</time></trkpt><trkpt lat="43.112176132516055" lon="11.668859331013998"><ele>357.0</ele><time>2026-04-11T18:02:19Z</time></trkpt><trkpt lat="43.11216646468894" lon="11.669022609970057"><ele>356.0</ele><time>2026-04-11T18:02:21Z</time></trkpt><trkpt lat="43.11216384851832" lon="11.669176105896112"><ele>355.0</ele><time>2026-04-11T18:02:23Z</time></trkpt><trkpt lat="43.11218382997138" lon="11.669311175193586"><ele>354.0</ele><time>2026-04-11T18:02:25Z</time></trkpt><trkpt lat="43.11221666710523" lon="11.669413356551765"><ele>353.6</ele><time>2026-04-11T18:02:27Z</time></trkpt><trkpt lat="43.11225269363348" lon="11.669514388852743"><ele>353.2</ele><time>2026-04-11T18:02:29Z</time></trkpt><trkpt lat="43.11229147592282" lon="11.669621953816458"><ele>352.8</ele><time>2026-04-11T18:02:31Z</time></trkpt><trkpt lat="43.112327403165615" lon="11.669718277565794"><ele>352.40000000000003</ele><time>2026-04-11T18:02:34Z</time></trkpt><trkpt lat="43.11237509973924" lon="11.669831404808615"><ele>352.0</ele><time>2026-04-11T18:02:37Z</time></trkpt><trkpt lat="43.11246981421718" lon="11.669956087404609"><ele>354.25</ele><time>2026-04-11T18:02:40Z</time></trkpt><trkpt lat="43.112682446903996" lon="11.669979640753011"><ele>356.5</ele><time>2026-04-11T18:02:42Z</time></trkpt><trkpt lat="43.11275885197379" lon="11.669944124766026"><ele>358.75</ele><time>2026-04-11T18:02:44Z</time></trkpt><trkpt lat="43.11282482083141" lon="11.669926306687548"><ele>361.0</ele><time>2026-04-11T18:02:46Z</time></trkpt><trkpt lat="43.11291850887657" lon="11.66992085574389"><ele>361.0</ele><time>2026-04-11T18:02:49Z</time></trkpt><trkpt lat="43.1130093699512" lon="11.669914827121383"><ele>361.0</ele><time>2026-04-11T18:02:52Z</time></trkpt><trkpt lat="43.11309887369193" lon="11.669882092603746"><ele>361.0</ele><time>2026-04-11T18:02:55Z</time></trkpt><trkpt lat="43.11319086962028" lon="11.669882738454776"><ele>361.0</ele><time>2026-04-11T18:02:58Z</time></trkpt><trkpt lat="43.11325492171121" lon="11.669881767394504"><ele>361.0</ele><time>2026-04-11T18:03:00Z</time></trkpt><trkpt lat="43.11333773103101" lon="11.669891370430559"><ele>361.0</ele><time>2026-04-11T18:03:04Z</time></trkpt><trkpt lat="43.113422394009525" lon="11.669915763221775"><ele>362.16666666666663</ele><time>2026-04-11T18:03:07Z</time></trkpt><trkpt lat="43.11351302489261" lon="11.669938890817097"><ele>363.3333333333333</ele><time>2026-04-11T18:03:10Z</time></trkpt><trkpt lat="43.11359505342191" lon="11.669969861315455"><ele>364.5</ele><time>2026-04-11T18:03:12Z</time></trkpt><trkpt lat="43.11368468535513" lon="11.670000815339595"><ele>365.6666666666667</ele><time>2026-04-11T18:03:15Z</time></trkpt><trkpt lat="43.11378161913139" lon="11.670019979408844"><ele>366.83333333333337</ele><time>2026-04-11T18:03:17Z</time></trkpt><trkpt lat="43.11385498584438" lon="11.670030756560543"><ele>368.0</ele><time>2026-04-11T18:03:19Z</time></trkpt><trkpt lat="43.11394904967647" lon="11.670061355488254"><ele>368.0</ele><time>2026-04-11T18:03:22Z</time></trkpt><trkpt lat="43.11402904317748" lon="11.670085539700937"><ele>368.0</ele><time>2026-04-11T18:03:24Z</time></trkpt><trkpt lat="43.114107914930464" lon="11.670094194045314"><ele>368.0</ele><time>2026-04-11T18:03:26Z</time></trkpt><trkpt lat="43.11418489523176" lon="11.670146139983679"><ele>368.0</ele><time>2026-04-11T18:03:28Z</time></trkpt><trkpt lat="43.11425887886898" lon="11.670186478584395"><ele>368.0</ele><time>2026-04-11T18:03:30Z</time></trkpt><trkpt lat="43.11432373719584" lon="11.670216544778217"><ele>368.0</ele><time>2026-04-11T18:03:32Z</time></trkpt><trkpt lat="43.11451314611227" lon="11.670311873024323"><ele>367.6666666666667</ele><time>2026-04-11T18:03:35Z</time></trkpt><trkpt lat="43.114585858188676" lon="11.670342312843305"><ele>367.33333333333337</ele><time>2026-04-11T18:03:37Z</time></trkpt><trkpt lat="43.114665593318946" lon="11.670380630811337"><ele>367.0</ele><time>2026-04-11T18:03:39Z</time></trkpt><trkpt lat="43.114742465096754" lon="11.670421485056348"><ele>366.6666666666667</ele><time>2026-04-11T18:03:41Z</time></trkpt><trkpt lat="43.114819221648936" lon="11.670454277208833"><ele>366.3333333333333</ele><time>2026-04-11T18:03:43Z</time></trkpt><trkpt lat="43.1149025325333" lon="11.670491096788494"><ele>366.0</ele><time>2026-04-11T18:03:45Z</time></trkpt><trkpt lat="43.11498701031477" lon="11.670530162954575"><ele>366.0</ele><time>2026-04-11T18:03:47Z</time></trkpt><trkpt lat="43.11506303170072" lon="11.670566144516085"><ele>366.0</ele><time>2026-04-11T18:03:49Z</time></trkpt><trkpt lat="43.1151448552803" lon="11.670604700163425"><ele>366.0</ele><time>2026-04-11T18:03:51Z</time></trkpt><trkpt lat="43.1152283191953" lon="11.670642474427485"><ele>366.0</ele><time>2026-04-11T18:03:53Z</time></trkpt><trkpt lat="43.115307803038746" lon="11.670678654574377"><ele>366.0</ele><time>2026-04-11T18:03:55Z</time></trkpt><trkpt lat="43.115383164816926" lon="11.670729749285348"><ele>366.0</ele><time>2026-04-11T18:03:57Z</time></trkpt><trkpt lat="43.11547586450957" lon="11.670802045186562"><ele>366.0</ele><time>2026-04-11T18:04:00Z</time></trkpt><trkpt lat="43.115539792299195" lon="11.670880498298333"><ele>366.0</ele><time>2026-04-11T18:04:03Z</time></trkpt><trkpt lat="43.1155925674364" lon="11.670949441896317"><ele>366.0</ele><time>2026-04-11T18:04:05Z</time></trkpt><trkpt lat="43.11564073900164" lon="11.671009301488864"><ele>366.0</ele><time>2026-04-11T18:04:07Z</time></trkpt><trkpt lat="43.11570102063868" lon="11.671091839653307"><ele>366.0</ele><time>2026-04-11T18:04:10Z</time></trkpt><trkpt lat="43.11575472140922" lon="11.671171380007571"><ele>366.0</ele><time>2026-04-11T18:04:12Z</time></trkpt><trkpt lat="43.11582167333688" lon="11.67124043822533"><ele>366.1666666666667</ele><time>2026-04-11T18:04:15Z</time></trkpt><trkpt lat="43.11591060484161" lon="11.671318542528637"><ele>366.3333333333333</ele><time>2026-04-11T18:04:18Z</time></trkpt><trkpt lat="43.115972082828236" lon="11.67136762965787"><ele>366.5</ele><time>2026-04-11T18:04:20Z</time></trkpt><trkpt lat="43.11604277259841" lon="11.671407521992045"><ele>366.66666666666663</ele><time>2026-04-11T18:04:22Z</time></trkpt><trkpt lat="43.11612263927963" lon="11.671438014242774"><ele>366.8333333333333</ele><time>2026-04-11T18:04:24Z</time></trkpt><trkpt lat="43.11619479394054" lon="11.671466951992826"><ele>367.0</ele><time>2026-04-11T18:04:26Z</time></trkpt><trkpt lat="43.116277138357816" lon="11.67152391849788"><ele>367.0</ele><time>2026-04-11T18:04:28Z</time></trkpt><trkpt lat="43.11636157317168" lon="11.67154916235972"><ele>367.0</ele><time>2026-04-11T18:04:30Z</time></trkpt><trkpt lat="43.11653432475309" lon="11.671642549162087"><ele>367.0</ele><time>2026-04-11T18:04:32Z</time></trkpt><trkpt lat="43.116620866589074" lon="11.671691862584643"><ele>367.0</ele><time>2026-04-11T18:04:34Z</time></trkpt><trkpt lat="43.11670513023084" lon="11.671719668876282"><ele>367.0</ele><time>2026-04-11T18:04:36Z</time></trkpt><trkpt lat="43.11679005585309" lon="11.671757106170157"><ele>367.0</ele><time>2026-04-11T18:04:38Z</time></trkpt><trkpt lat="43.11687461782507" lon="11.671776584182012"><ele>367.0</ele><time>2026-04-11T18:04:40Z</time></trkpt><trkpt lat="43.11695502565477" lon="11.671822922321095"><ele>367.0</ele><time>2026-04-11T18:04:42Z</time></trkpt><trkpt lat="43.11702939869894" lon="11.671881877948964"><ele>367.0</ele><time>2026-04-11T18:04:44Z</time></trkpt><trkpt lat="43.117086791879366" lon="11.671971484745226"><ele>367.0</ele><time>2026-04-11T18:04:46Z</time></trkpt><trkpt lat="43.11714481017244" lon="11.67207300452713"><ele>367.0</ele><time>2026-04-11T18:04:48Z</time></trkpt><trkpt lat="43.11719008944036" lon="11.672184991582757"><ele>367.0</ele><time>2026-04-11T18:04:50Z</time></trkpt><trkpt lat="43.11723233644936" lon="11.672284741159753"><ele>367.0</ele><time>2026-04-11T18:04:52Z</time></trkpt><trkpt lat="43.1172459288011" lon="11.672435411946378"><ele>367.0</ele><time>2026-04-11T18:04:54Z</time></trkpt><trkpt lat="43.117282541521206" lon="11.672579590928635"><ele>367.0</ele><time>2026-04-11T18:04:56Z</time></trkpt><trkpt lat="43.11729900705885" lon="11.67270976746257"><ele>366.8</ele><time>2026-04-11T18:04:58Z</time></trkpt><trkpt lat="43.11729210590339" lon="11.672857326523303"><ele>366.6</ele><time>2026-04-11T18:05:00Z</time></trkpt><trkpt lat="43.117263498440074" lon="11.67301258858331"><ele>366.40000000000003</ele><time>2026-04-11T18:05:02Z</time></trkpt><trkpt lat="43.11721967576123" lon="11.673175601129982"><ele>366.20000000000005</ele><time>2026-04-11T18:05:04Z</time></trkpt><trkpt lat="43.1171979193385" lon="11.67326044621357"><ele>366.0</ele><time>2026-04-11T18:05:05Z</time></trkpt><trkpt lat="43.117176609139975" lon="11.673343550985877"><ele>366.0</ele><time>2026-04-11T18:05:06Z</time></trkpt><trkpt lat="43.117155318134714" lon="11.67342658079064"><ele>366.0</ele><time>2026-04-11T18:05:07Z</time></trkpt><trkpt lat="43.117112645694284" lon="11.67359299316423"><ele>366.0</ele><time>2026-04-11T18:05:09Z</time></trkpt><trkpt lat="43.11709123171327" lon="11.673676502618417"><ele>366.0</ele><time>2026-04-11T18:05:10Z</time></trkpt><trkpt lat="43.11706845905323" lon="11.673765310540974"><ele>366.0</ele><time>2026-04-11T18:05:11Z</time></trkpt><trkpt lat="43.11704617416205" lon="11.673852216195286"><ele>366.0</ele><time>2026-04-11T18:05:12Z</time></trkpt><trkpt lat="43.11702380635802" lon="11.673939445432314"><ele>366.0</ele><time>2026-04-11T18:05:13Z</time></trkpt><trkpt lat="43.11700182349841" lon="11.674024632356806"><ele>366.0</ele><time>2026-04-11T18:05:14Z</time></trkpt><trkpt lat="43.11697911526894" lon="11.67411081295306"><ele>366.0</ele><time>2026-04-11T18:05:15Z</time></trkpt><trkpt lat="43.11693692117711" lon="11.674270307496212"><ele>366.0</ele><time>2026-04-11T18:05:17Z</time></trkpt><trkpt lat="43.11689752882301" lon="11.674419008446636"><ele>366.0</ele><time>2026-04-11T18:05:19Z</time></trkpt><trkpt lat="43.11685840524771" lon="11.674570759104006"><ele>366.20000000000005</ele><time>2026-04-11T18:05:21Z</time></trkpt><trkpt lat="43.11682288980136" lon="11.674711185829638"><ele>366.40000000000003</ele><time>2026-04-11T18:05:23Z</time></trkpt><trkpt lat="43.11678879490938" lon="11.67484599558178"><ele>366.6</ele><time>2026-04-11T18:05:25Z</time></trkpt><trkpt lat="43.11675581804746" lon="11.674976384600585"><ele>366.8</ele><time>2026-04-11T18:05:27Z</time></trkpt><trkpt lat="43.116722738324896" lon="11.67510718056196"><ele>367.0</ele><time>2026-04-11T18:05:29Z</time></trkpt><trkpt lat="43.116689381299345" lon="11.67523617961087"><ele>367.40000000000003</ele><time>2026-04-11T18:05:31Z</time></trkpt><trkpt lat="43.11665531040162" lon="11.675363659993755"><ele>367.8</ele><time>2026-04-11T18:05:33Z</time></trkpt><trkpt lat="43.1166200964811" lon="11.67549541666682"><ele>368.2</ele><time>2026-04-11T18:05:35Z</time></trkpt><trkpt lat="43.1165842069159" lon="11.675629701685853"><ele>368.6</ele><time>2026-04-11T18:05:37Z</time></trkpt><trkpt lat="43.11654781059637" lon="11.67576916663085"><ele>369.0</ele><time>2026-04-11T18:05:39Z</time></trkpt><trkpt lat="43.11651291094774" lon="11.675904520492587"><ele>368.2</ele><time>2026-04-11T18:05:41Z</time></trkpt><trkpt lat="43.11647784092861" lon="11.676040534957204"><ele>367.4</ele><time>2026-04-11T18:05:43Z</time></trkpt><trkpt lat="43.116444763113265" lon="11.676168823073144"><ele>366.6</ele><time>2026-04-11T18:05:45Z</time></trkpt><trkpt lat="43.11640973390201" lon="11.676304679225877"><ele>365.8</ele><time>2026-04-11T18:05:47Z</time></trkpt><trkpt lat="43.11637541265065" lon="11.676435933182914"><ele>365.0</ele><time>2026-04-11T18:05:49Z</time></trkpt><trkpt lat="43.11634071111995" lon="11.676567603142452"><ele>365.0</ele><time>2026-04-11T18:05:51Z</time></trkpt><trkpt lat="43.116305420575856" lon="11.676701507854942"><ele>365.0</ele><time>2026-04-11T18:05:53Z</time></trkpt><trkpt lat="43.116270271147656" lon="11.676834877258907"><ele>365.0</ele><time>2026-04-11T18:05:55Z</time></trkpt><trkpt lat="43.116235913138404" lon="11.6769682207212"><ele>365.0</ele><time>2026-04-11T18:05:57Z</time></trkpt><trkpt lat="43.11620415778917" lon="11.677099721654034"><ele>365.0</ele><time>2026-04-11T18:05:59Z</time></trkpt><trkpt lat="43.11617382944824" lon="11.677235856620632"><ele>365.33333333333337</ele><time>2026-04-11T18:06:01Z</time></trkpt><trkpt lat="43.11614682384748" lon="11.677369893288214"><ele>365.6666666666667</ele><time>2026-04-11T18:06:03Z</time></trkpt><trkpt lat="43.11612486228533" lon="11.677493219122951"><ele>366.0</ele><time>2026-04-11T18:06:05Z</time></trkpt><trkpt lat="43.11610733785917" lon="11.677603695333685"><ele>366.3333333333333</ele><time>2026-04-11T18:06:07Z</time></trkpt><trkpt lat="43.116092463322914" lon="11.677708766944146"><ele>366.66666666666663</ele><time>2026-04-11T18:06:09Z</time></trkpt><trkpt lat="43.11607869232767" lon="11.677821008055885"><ele>367.0</ele><time>2026-04-11T18:06:11Z</time></trkpt><trkpt lat="43.116067930946016" lon="11.67794297615609"><ele>367.16666666666663</ele><time>2026-04-11T18:06:14Z</time></trkpt><trkpt lat="43.11606723360137" lon="11.678069257530623"><ele>367.3333333333333</ele><time>2026-04-11T18:06:17Z</time></trkpt><trkpt lat="43.11608330399513" lon="11.678171533881617"><ele>367.5</ele><time>2026-04-11T18:06:19Z</time></trkpt><trkpt lat="43.11611924306299" lon="11.678285020563614"><ele>367.6666666666667</ele><time>2026-04-11T18:06:22Z</time></trkpt><trkpt lat="43.11619020520032" lon="11.678308339086158"><ele>367.83333333333337</ele><time>2026-04-11T18:06:24Z</time></trkpt><trkpt lat="43.11623922464645" lon="11.678382075762592"><ele>368.0</ele><time>2026-04-11T18:06:27Z</time></trkpt><trkpt lat="43.11630531135487" lon="11.67846472947259"><ele>368.0</ele><time>2026-04-11T18:06:30Z</time></trkpt><trkpt lat="43.11638045766345" lon="11.678547742634775"><ele>368.0</ele><time>2026-04-11T18:06:33Z</time></trkpt><trkpt lat="43.116435400225235" lon="11.67860826833978"><ele>368.0</ele><time>2026-04-11T18:06:35Z</time></trkpt><trkpt lat="43.11649193797319" lon="11.678652607266029"><ele>368.0</ele><time>2026-04-11T18:06:37Z</time></trkpt><trkpt lat="43.11655944125974" lon="11.678715859358022"><ele>368.0</ele><time>2026-04-11T18:06:40Z</time></trkpt><trkpt lat="43.116626438016205" lon="11.678766456622968"><ele>368.0</ele><time>2026-04-11T18:06:43Z</time></trkpt><trkpt lat="43.11670304823958" lon="11.678817414718418"><ele>369.0</ele><time>2026-04-11T18:06:46Z</time></trkpt><trkpt lat="43.11678483740472" lon="11.678883153871993"><ele>370.0</ele><time>2026-04-11T18:06:49Z</time></trkpt><trkpt lat="43.11686415743571" lon="11.678938589012477"><ele>371.0</ele><time>2026-04-11T18:06:52Z</time></trkpt><trkpt lat="43.11692233951893" lon="11.678994874102978"><ele>372.0</ele><time>2026-04-11T18:06:54Z</time></trkpt><trkpt lat="43.117002008347775" lon="11.679066901744859"><ele>373.0</ele><time>2026-04-11T18:06:57Z</time></trkpt><trkpt lat="43.11708077700227" lon="11.679117361935036"><ele>374.0</ele><time>2026-04-11T18:07:00Z</time></trkpt><trkpt lat="43.117146215213296" lon="11.679177213509218"><ele>374.0</ele><time>2026-04-11T18:07:01Z</time></trkpt><trkpt lat="43.11720753310872" lon="11.679219115432932"><ele>374.0</ele><time>2026-04-11T18:07:04Z</time></trkpt><trkpt lat="43.11728425777954" lon="11.679268698775791"><ele>374.0</ele><time>2026-04-11T18:07:06Z</time></trkpt><trkpt lat="43.11735767369741" lon="11.679339816770987"><ele>374.0</ele><time>2026-04-11T18:07:09Z</time></trkpt><trkpt lat="43.117431664799405" lon="11.679397205470389"><ele>374.0</ele><time>2026-04-11T18:07:12Z</time></trkpt><trkpt lat="43.11749406270138" lon="11.679436069398418"><ele>374.0</ele><time>2026-04-11T18:07:15Z</time></trkpt><trkpt lat="43.11755599379802" lon="11.679473765450696"><ele>375.0</ele><time>2026-04-11T18:07:18Z</time></trkpt><trkpt lat="43.117618759596915" lon="11.679532164084206"><ele>376.0</ele><time>2026-04-11T18:07:22Z</time></trkpt><trkpt lat="43.11768949628503" lon="11.679581532480226"><ele>377.0</ele><time>2026-04-11T18:07:25Z</time></trkpt><trkpt lat="43.11774587512389" lon="11.67963146627238"><ele>378.0</ele><time>2026-04-11T18:07:28Z</time></trkpt><trkpt lat="43.11780444865175" lon="11.679684980264273"><ele>379.0</ele><time>2026-04-11T18:07:31Z</time></trkpt><trkpt lat="43.11786548621156" lon="11.679753617556985"><ele>380.0</ele><time>2026-04-11T18:07:34Z</time></trkpt><trkpt lat="43.117925520832294" lon="11.679823038335803"><ele>380.0</ele><time>2026-04-11T18:07:37Z</time></trkpt><trkpt lat="43.11798895906071" lon="11.679898272614928"><ele>380.0</ele><time>2026-04-11T18:07:40Z</time></trkpt><trkpt lat="43.11804533038011" lon="11.679964531152587"><ele>380.0</ele><time>2026-04-11T18:07:43Z</time></trkpt><trkpt lat="43.1181074090128" lon="11.680033962577838"><ele>380.0</ele><time>2026-04-11T18:07:47Z</time></trkpt><trkpt lat="43.11817013817874" lon="11.680079373834484"><ele>380.0</ele><time>2026-04-11T18:07:50Z</time></trkpt><trkpt lat="43.11823883531214" lon="11.680122031899437"><ele>380.0</ele><time>2026-04-11T18:07:53Z</time></trkpt><trkpt lat="43.118299874640414" lon="11.680146494936572"><ele>380.0</ele><time>2026-04-11T18:07:56Z</time></trkpt><trkpt lat="43.11836362923056" lon="11.680181608102178"><ele>381.0</ele><time>2026-04-11T18:07:58Z</time></trkpt><trkpt lat="43.118435238811685" lon="11.680232626875124"><ele>382.0</ele><time>2026-04-11T18:08:01Z</time></trkpt><trkpt lat="43.118506936535184" lon="11.680260674197164"><ele>383.0</ele><time>2026-04-11T18:08:04Z</time></trkpt><trkpt lat="43.11858608438193" lon="11.680298750353876"><ele>384.0</ele><time>2026-04-11T18:08:07Z</time></trkpt><trkpt lat="43.11865292223865" lon="11.680337018033821"><ele>384.99999999999994</ele><time>2026-04-11T18:08:09Z</time></trkpt><trkpt lat="43.118738318313234" lon="11.68036320548293"><ele>386.0</ele><time>2026-04-11T18:08:12Z</time></trkpt><trkpt lat="43.11880320159893" lon="11.680394504830437"><ele>385.99999999999994</ele><time>2026-04-11T18:08:14Z</time></trkpt><trkpt lat="43.11887878427036" lon="11.680436047780253"><ele>386.0</ele><time>2026-04-11T18:08:17Z</time></trkpt><trkpt lat="43.1189406987332" lon="11.680479848936363"><ele>386.0</ele><time>2026-04-11T18:08:19Z</time></trkpt><trkpt lat="43.119012758137515" lon="11.680533160253233"><ele>386.0</ele><time>2026-04-11T18:08:22Z</time></trkpt><trkpt lat="43.11908656043188" lon="11.680597467453623"><ele>385.99999999999994</ele><time>2026-04-11T18:08:25Z</time></trkpt><trkpt lat="43.11914413723458" lon="11.680662568471249"><ele>386.0</ele><time>2026-04-11T18:08:28Z</time></trkpt><trkpt lat="43.119196392770064" lon="11.680731674449431"><ele>386.8333333333333</ele><time>2026-04-11T18:08:30Z</time></trkpt><trkpt lat="43.11924629727972" lon="11.680845872997777"><ele>387.66666666666663</ele><time>2026-04-11T18:08:33Z</time></trkpt><trkpt lat="43.11928422384676" lon="11.680962706633887"><ele>388.5</ele><time>2026-04-11T18:08:36Z</time></trkpt><trkpt lat="43.11931964156776" lon="11.681083547833463"><ele>389.33333333333337</ele><time>2026-04-11T18:08:39Z</time></trkpt><trkpt lat="43.119349463540935" lon="11.681209202939527"><ele>390.1666666666667</ele><time>2026-04-11T18:08:42Z</time></trkpt><trkpt lat="43.11936066589476" lon="11.681297986179578"><ele>391.0</ele><time>2026-04-11T18:08:44Z</time></trkpt><trkpt lat="43.11937969945633" lon="11.681396338726804"><ele>391.00000000000006</ele><time>2026-04-11T18:08:47Z</time></trkpt><trkpt lat="43.119383533817434" lon="11.681509772130488"><ele>391.0</ele><time>2026-04-11T18:08:50Z</time></trkpt><trkpt lat="43.11939412738909" lon="11.68160281764666"><ele>391.0</ele><time>2026-04-11T18:08:52Z</time></trkpt><trkpt lat="43.11940267393344" lon="11.681737297184783"><ele>391.0</ele><time>2026-04-11T18:08:54Z</time></trkpt><trkpt lat="43.11940060981277" lon="11.681832113482182"><ele>391.00000000000006</ele><time>2026-04-11T18:08:56Z</time></trkpt><trkpt lat="43.1194050040935" lon="11.681924752090564"><ele>391.0</ele><time>2026-04-11T18:08:58Z</time></trkpt><trkpt lat="43.1194045486589" lon="11.682017081956486"><ele>391.50000000000006</ele><time>2026-04-11T18:09:00Z</time></trkpt><trkpt lat="43.119410283070785" lon="11.682111128728202"><ele>392.0</ele><time>2026-04-11T18:09:02Z</time></trkpt><trkpt lat="43.119418933797704" lon="11.68219796794568"><ele>392.5</ele><time>2026-04-11T18:09:04Z</time></trkpt><trkpt lat="43.11942368903826" lon="11.682321831877939"><ele>393.0</ele><time>2026-04-11T18:09:07Z</time></trkpt><trkpt lat="43.11942638591471" lon="11.682417108381888"><ele>393.50000000000006</ele><time>2026-04-11T18:09:10Z</time></trkpt><trkpt lat="43.11942938386872" lon="11.682520522227755"><ele>394.0</ele><time>2026-04-11T18:09:13Z</time></trkpt><trkpt lat="43.11943384157246" lon="11.682651959030716"><ele>394.00000000000006</ele><time>2026-04-11T18:09:16Z</time></trkpt><trkpt lat="43.119448853466466" lon="11.682758576435653"><ele>394.0</ele><time>2026-04-11T18:09:19Z</time></trkpt><trkpt lat="43.11944965828754" lon="11.682868945607957"><ele>394.0</ele><time>2026-04-11T18:09:22Z</time></trkpt><trkpt lat="43.11944886630854" lon="11.682974447676902"><ele>394.0</ele><time>2026-04-11T18:09:25Z</time></trkpt><trkpt lat="43.11943556581835" lon="11.68309048252524"><ele>394.00000000000006</ele><time>2026-04-11T18:09:29Z</time></trkpt><trkpt lat="43.11944164901539" lon="11.683179787240366"><ele>394.0</ele><time>2026-04-11T18:09:32Z</time></trkpt><trkpt lat="43.11944179705068" lon="11.683302875798745"><ele>395.0</ele><time>2026-04-11T18:09:36Z</time></trkpt><trkpt lat="43.119449209358756" lon="11.683409732947583"><ele>396.0</ele><time>2026-04-11T18:09:40Z</time></trkpt><trkpt lat="43.11944866745973" lon="11.683496082363792"><ele>397.0</ele><time>2026-04-11T18:09:43Z</time></trkpt><trkpt lat="43.119443353312526" lon="11.683594504886653"><ele>398.0</ele><time>2026-04-11T18:09:47Z</time></trkpt><trkpt lat="43.119440381029484" lon="11.68368766860246"><ele>399.0</ele><time>2026-04-11T18:09:51Z</time></trkpt><trkpt lat="43.119456226531106" lon="11.68378502839055"><ele>400.0</ele><time>2026-04-11T18:09:55Z</time></trkpt><trkpt lat="43.119444283701604" lon="11.683872518240829"><ele>401.0</ele><time>2026-04-11T18:09:58Z</time></trkpt><trkpt lat="43.11942998623601" lon="11.683978720410686"><ele>402.3333333333333</ele><time>2026-04-11T18:10:02Z</time></trkpt><trkpt lat="43.119437461148195" lon="11.684071728382488"><ele>403.66666666666663</ele><time>2026-04-11T18:10:06Z</time></trkpt><trkpt lat="43.11942480410056" lon="11.684158143963465"><ele>405.0</ele><time>2026-04-11T18:10:09Z</time></trkpt><trkpt lat="43.11938395686842" lon="11.684275567177522"><ele>406.33333333333337</ele><time>2026-04-11T18:10:13Z</time></trkpt><trkpt lat="43.11932343875388" lon="11.684336177089127"><ele>407.6666666666667</ele><time>2026-04-11T18:10:16Z</time></trkpt><trkpt lat="43.11924483432277" lon="11.684389649315788"><ele>409.0</ele><time>2026-04-11T18:10:19Z</time></trkpt><trkpt lat="43.1191750928831" lon="11.684410773650887"><ele>409.2857142857143</ele><time>2026-04-11T18:10:22Z</time></trkpt><trkpt lat="43.1190896672732" lon="11.684449471039827"><ele>409.5714285714286</ele><time>2026-04-11T18:10:26Z</time></trkpt><trkpt lat="43.11904599428303" lon="11.684513778731912"><ele>409.8571428571429</ele><time>2026-04-11T18:10:29Z</time></trkpt><trkpt lat="43.11902493060674" lon="11.684607513380094"><ele>410.1428571428571</ele><time>2026-04-11T18:10:32Z</time></trkpt><trkpt lat="43.119032744888614" lon="11.684701885356327"><ele>410.42857142857144</ele><time>2026-04-11T18:10:35Z</time></trkpt><trkpt lat="43.119042292376285" lon="11.68480206347651"><ele>410.7142857142857</ele><time>2026-04-11T18:10:38Z</time></trkpt><trkpt lat="43.119049022529275" lon="11.684898352494894"><ele>411.0</ele><time>2026-04-11T18:10:41Z</time></trkpt><trkpt lat="43.119052732126534" lon="11.685011751258989"><ele>411.0</ele><time>2026-04-11T18:10:44Z</time></trkpt><trkpt lat="43.11904976670841" lon="11.685129308027932"><ele>411.0</ele><time>2026-04-11T18:10:47Z</time></trkpt><trkpt lat="43.11904728187022" lon="11.685247148514637"><ele>411.0</ele><time>2026-04-11T18:10:50Z</time></trkpt><trkpt lat="43.1190348122513" lon="11.685357380798319"><ele>411.0</ele><time>2026-04-11T18:10:53Z</time></trkpt><trkpt lat="43.11900709327452" lon="11.685449652851009"><ele>411.0</ele><time>2026-04-11T18:10:55Z</time></trkpt><trkpt lat="43.118980878221116" lon="11.685531158207855"><ele>411.0</ele><time>2026-04-11T18:10:57Z</time></trkpt><trkpt lat="43.118937921064365" lon="11.685638132749151"><ele>411.5</ele><time>2026-04-11T18:11:00Z</time></trkpt><trkpt lat="43.118886844397075" lon="11.685718681542228"><ele>412.0</ele><time>2026-04-11T18:11:03Z</time></trkpt><trkpt lat="43.11883288389167" lon="11.685799221237637"><ele>412.5</ele><time>2026-04-11T18:11:07Z</time></trkpt><trkpt lat="43.11877620971352" lon="11.685864713227556"><ele>413.0</ele><time>2026-04-11T18:11:10Z</time></trkpt><trkpt lat="43.11872264661798" lon="11.68593545917649"><ele>413.5</ele><time>2026-04-11T18:11:13Z</time></trkpt><trkpt lat="43.118659598608595" lon="11.686007251457495"><ele>414.0</ele><time>2026-04-11T18:11:16Z</time></trkpt><trkpt lat="43.11859735103627" lon="11.686079018499525"><ele>415.6666666666667</ele><time>2026-04-11T18:11:19Z</time></trkpt><trkpt lat="43.118531666072364" lon="11.686145256547656"><ele>417.33333333333337</ele><time>2026-04-11T18:11:22Z</time></trkpt><trkpt lat="43.118478985191715" lon="11.686201703514774"><ele>419.0</ele><time>2026-04-11T18:11:24Z</time></trkpt><trkpt lat="43.11841690715141" lon="11.686266426619268"><ele>420.6666666666667</ele><time>2026-04-11T18:11:27Z</time></trkpt><trkpt lat="43.118358754741" lon="11.68633650565984"><ele>422.33333333333337</ele><time>2026-04-11T18:11:30Z</time></trkpt><trkpt lat="43.11830438019564" lon="11.68639991458767"><ele>424.0</ele><time>2026-04-11T18:11:32Z</time></trkpt><trkpt lat="43.11824144833314" lon="11.686481317151184"><ele>423.1666666666667</ele><time>2026-04-11T18:11:35Z</time></trkpt><trkpt lat="43.11816675968881" lon="11.686554038365045"><ele>422.33333333333337</ele><time>2026-04-11T18:11:38Z</time></trkpt><trkpt lat="43.11808806645446" lon="11.68661177950259"><ele>421.5</ele><time>2026-04-11T18:11:41Z</time></trkpt><trkpt lat="43.11803013366473" lon="11.686665390398023"><ele>420.66666666666663</ele><time>2026-04-11T18:11:43Z</time></trkpt><trkpt lat="43.117951273584815" lon="11.686693487479761"><ele>419.8333333333333</ele><time>2026-04-11T18:11:46Z</time></trkpt><trkpt lat="43.11787359271285" lon="11.686742016095737"><ele>419.0</ele><time>2026-04-11T18:11:48Z</time></trkpt><trkpt lat="43.1177624510891" lon="11.686782011896534"><ele>418.99999999999994</ele><time>2026-04-11T18:11:51Z</time></trkpt><trkpt lat="43.117697130379106" lon="11.68680067289222"><ele>419.0</ele><time>2026-04-11T18:11:52Z</time></trkpt><trkpt lat="43.11761772747381" lon="11.686823227811095"><ele>419.0</ele><time>2026-04-11T18:11:54Z</time></trkpt><trkpt lat="43.1175475846788" lon="11.686845578229473"><ele>419.0</ele><time>2026-04-11T18:11:56Z</time></trkpt><trkpt lat="43.11746747737148" lon="11.68687809686326"><ele>418.99999999999994</ele><time>2026-04-11T18:11:58Z</time></trkpt><trkpt lat="43.11737380591402" lon="11.686908607512262"><ele>419.0</ele><time>2026-04-11T18:12:00Z</time></trkpt><trkpt lat="43.11728634344581" lon="11.686952408858424"><ele>419.16666666666663</ele><time>2026-04-11T18:12:02Z</time></trkpt><trkpt lat="43.1172216164217" lon="11.687010536104971"><ele>419.3333333333333</ele><time>2026-04-11T18:12:04Z</time></trkpt><trkpt lat="43.117171589804315" lon="11.68707848371036"><ele>419.5</ele><time>2026-04-11T18:12:06Z</time></trkpt><trkpt lat="43.11711311942437" lon="11.687159363377729"><ele>419.66666666666663</ele><time>2026-04-11T18:12:08Z</time></trkpt><trkpt lat="43.11705382352006" lon="11.687247371664855"><ele>419.8333333333333</ele><time>2026-04-11T18:12:10Z</time></trkpt><trkpt lat="43.11699501099424" lon="11.68734695333392"><ele>420.0</ele><time>2026-04-11T18:12:12Z</time></trkpt><trkpt lat="43.11692448474694" lon="11.687442562984291"><ele>420.0</ele><time>2026-04-11T18:12:14Z</time></trkpt><trkpt lat="43.1168350877013" lon="11.687526604726711"><ele>420.0</ele><time>2026-04-11T18:12:16Z</time></trkpt><trkpt lat="43.11672071360446" lon="11.687567308946106"><ele>420.0</ele><time>2026-04-11T18:12:18Z</time></trkpt><trkpt lat="43.11665374216097" lon="11.687552281679052"><ele>420.0</ele><time>2026-04-11T18:12:19Z</time></trkpt><trkpt lat="43.11653114213166" lon="11.687538709732094"><ele>420.0</ele><time>2026-04-11T18:12:21Z</time></trkpt><trkpt lat="43.11646412418669" lon="11.68752962942436"><ele>419.14285714285717</ele><time>2026-04-11T18:12:22Z</time></trkpt><trkpt lat="43.11639492581211" lon="11.68752030043583"><ele>418.2857142857143</ele><time>2026-04-11T18:12:23Z</time></trkpt><trkpt lat="43.116321178060794" lon="11.68751059546391"><ele>417.42857142857144</ele><time>2026-04-11T18:12:24Z</time></trkpt><trkpt lat="43.116251332132165" lon="11.68750140397384"><ele>416.57142857142856</ele><time>2026-04-11T18:12:25Z</time></trkpt><trkpt lat="43.11618341215598" lon="11.687492465917694"><ele>415.7142857142857</ele><time>2026-04-11T18:12:26Z</time></trkpt><trkpt lat="43.116115563867616" lon="11.687501009996986"><ele>414.8571428571429</ele><time>2026-04-11T18:12:27Z</time></trkpt><trkpt lat="43.11605113229213" lon="11.687487546465135"><ele>414.0</ele><time>2026-04-11T18:12:28Z</time></trkpt><trkpt lat="43.115935793680606" lon="11.68749079936455"><ele>414.0</ele><time>2026-04-11T18:12:30Z</time></trkpt><trkpt lat="43.11582582723226" lon="11.687484061698628"><ele>414.0</ele><time>2026-04-11T18:12:32Z</time></trkpt><trkpt lat="43.11576350589292" lon="11.687512192684329"><ele>414.0</ele><time>2026-04-11T18:12:33Z</time></trkpt><trkpt lat="43.11569954513307" lon="11.687552102639463"><ele>414.0</ele><time>2026-04-11T18:12:34Z</time></trkpt><trkpt lat="43.11564280581212" lon="11.687601004658289"><ele>414.0</ele><time>2026-04-11T18:12:35Z</time></trkpt><trkpt lat="43.115596719152876" lon="11.687683616486728"><ele>414.0</ele><time>2026-04-11T18:12:36Z</time></trkpt><trkpt lat="43.115537708541744" lon="11.68773040647609"><ele>413.7142857142857</ele><time>2026-04-11T18:12:37Z</time></trkpt><trkpt lat="43.11548649167452" lon="11.68779606288439"><ele>413.42857142857144</ele><time>2026-04-11T18:12:38Z</time></trkpt><trkpt lat="43.11543315992307" lon="11.687864430515333"><ele>413.1428571428571</ele><time>2026-04-11T18:12:39Z</time></trkpt><trkpt lat="43.11537842155685" lon="11.687934601235215"><ele>412.8571428571429</ele><time>2026-04-11T18:12:40Z</time></trkpt><trkpt lat="43.115325805040094" lon="11.687997644313993"><ele>412.57142857142856</ele><time>2026-04-11T18:12:41Z</time></trkpt><trkpt lat="43.115273801042406" lon="11.688054744233524"><ele>412.2857142857143</ele><time>2026-04-11T18:12:42Z</time></trkpt><trkpt lat="43.11522333076588" lon="11.688124026621114"><ele>412.0</ele><time>2026-04-11T18:12:43Z</time></trkpt><trkpt lat="43.11515341343578" lon="11.688135341336627"><ele>412.00000000000006</ele><time>2026-04-11T18:12:44Z</time></trkpt><trkpt lat="43.11502572528079" lon="11.688158289041292"><ele>412.0</ele><time>2026-04-11T18:12:46Z</time></trkpt><trkpt lat="43.11496029153754" lon="11.688172071947378"><ele>412.0</ele><time>2026-04-11T18:12:47Z</time></trkpt><trkpt lat="43.11489029197063" lon="11.68818681661074"><ele>412.0</ele><time>2026-04-11T18:12:48Z</time></trkpt><trkpt lat="43.114816881845776" lon="11.688201666281442"><ele>412.00000000000006</ele><time>2026-04-11T18:12:49Z</time></trkpt><trkpt lat="43.114745139295636" lon="11.688215818411754"><ele>412.0</ele><time>2026-04-11T18:12:50Z</time></trkpt><trkpt lat="43.114674198744524" lon="11.688229812358985"><ele>410.85714285714283</ele><time>2026-04-11T18:12:51Z</time></trkpt><trkpt lat="43.114601966002624" lon="11.688244061187488"><ele>409.7142857142857</ele><time>2026-04-11T18:12:52Z</time></trkpt><trkpt lat="43.114528729121275" lon="11.688260691302586"><ele>408.57142857142856</ele><time>2026-04-11T18:12:53Z</time></trkpt><trkpt lat="43.114461458615224" lon="11.688282388632857"><ele>407.42857142857144</ele><time>2026-04-11T18:12:54Z</time></trkpt><trkpt lat="43.114393852263596" lon="11.68830885145982"><ele>406.2857142857143</ele><time>2026-04-11T18:12:55Z</time></trkpt><trkpt lat="43.11432875202353" lon="11.688342240104614"><ele>405.1428571428571</ele><time>2026-04-11T18:12:56Z</time></trkpt><trkpt lat="43.114267522043995" lon="11.68839099554399"><ele>404.0</ele><time>2026-04-11T18:12:57Z</time></trkpt><trkpt lat="43.114212149358885" lon="11.688448735116381"><ele>403.99999999999994</ele><time>2026-04-11T18:12:58Z</time></trkpt><trkpt lat="43.11415890938048" lon="11.688521921891445"><ele>404.0</ele><time>2026-04-11T18:12:59Z</time></trkpt><trkpt lat="43.11411096766072" lon="11.688598820648805"><ele>404.0</ele><time>2026-04-11T18:13:00Z</time></trkpt><trkpt lat="43.11408052291026" lon="11.688698945437096"><ele>404.0</ele><time>2026-04-11T18:13:01Z</time></trkpt><trkpt lat="43.114056548967966" lon="11.688799360141106"><ele>403.99999999999994</ele><time>2026-04-11T18:13:02Z</time></trkpt><trkpt lat="43.11403741044223" lon="11.688897548194626"><ele>404.0</ele><time>2026-04-11T18:13:03Z</time></trkpt><trkpt lat="43.11403786791857" lon="11.688994879031537"><ele>402.79999999999995</ele><time>2026-04-11T18:13:04Z</time></trkpt><trkpt lat="43.114019944292004" lon="11.689084351286313"><ele>401.59999999999997</ele><time>2026-04-11T18:13:05Z</time></trkpt><trkpt lat="43.11397692750167" lon="11.689243575492304"><ele>400.4</ele><time>2026-04-11T18:13:07Z</time></trkpt><trkpt lat="43.11396907114064" lon="11.689401111828428"><ele>399.2</ele><time>2026-04-11T18:13:09Z</time></trkpt><trkpt lat="43.11394587046529" lon="11.68954863903875"><ele>398.0</ele><time>2026-04-11T18:13:11Z</time></trkpt><trkpt lat="43.113923675156826" lon="11.689691069034941"><ele>398.0</ele><time>2026-04-11T18:13:13Z</time></trkpt><trkpt lat="43.113898887834345" lon="11.689826868634182"><ele>398.0</ele><time>2026-04-11T18:13:15Z</time></trkpt><trkpt lat="43.11388150469959" lon="11.689955910247669"><ele>398.0</ele><time>2026-04-11T18:13:17Z</time></trkpt><trkpt lat="43.113859016205176" lon="11.690077502929844"><ele>398.0</ele><time>2026-04-11T18:13:19Z</time></trkpt><trkpt lat="43.11384634876295" lon="11.690199259397877"><ele>398.0</ele><time>2026-04-11T18:13:21Z</time></trkpt><trkpt lat="43.1138276545697" lon="11.690308531101827"><ele>398.57142857142856</ele><time>2026-04-11T18:13:23Z</time></trkpt><trkpt lat="43.11382489110507" lon="11.690400771574982"><ele>399.1428571428571</ele><time>2026-04-11T18:13:26Z</time></trkpt><trkpt lat="43.11382334032717" lon="11.690487765419498"><ele>399.71428571428567</ele><time>2026-04-11T18:13:28Z</time></trkpt><trkpt lat="43.11380763806108" lon="11.690610598778433"><ele>400.2857142857143</ele><time>2026-04-11T18:13:30Z</time></trkpt><trkpt lat="43.113801772501134" lon="11.690708260086042"><ele>400.8571428571429</ele><time>2026-04-11T18:13:32Z</time></trkpt><trkpt lat="43.113784612956614" lon="11.690807563930948"><ele>401.4285714285714</ele><time>2026-04-11T18:13:34Z</time></trkpt><trkpt lat="43.1137697482546" lon="11.690907464879082"><ele>402.0</ele><time>2026-04-11T18:13:36Z</time></trkpt><trkpt lat="43.11375037572054" lon="11.691015447919263"><ele>403.0</ele><time>2026-04-11T18:13:38Z</time></trkpt><trkpt lat="43.11368118837967" lon="11.691252810571278"><ele>404.0</ele><time>2026-04-11T18:13:40Z</time></trkpt><trkpt lat="43.1136648893659" lon="11.691358653924162"><ele>405.0</ele><time>2026-04-11T18:13:42Z</time></trkpt><trkpt lat="43.1136552463851" lon="11.69145066404201"><ele>406.0</ele><time>2026-04-11T18:13:44Z</time></trkpt><trkpt lat="43.11363882209112" lon="11.691553863657683"><ele>407.0</ele><time>2026-04-11T18:13:47Z</time></trkpt><trkpt lat="43.11360879492019" lon="11.691675805820047"><ele>406.99999999999994</ele><time>2026-04-11T18:13:50Z</time></trkpt><trkpt lat="43.11358239931209" lon="11.691759917497304"><ele>407.0</ele><time>2026-04-11T18:13:52Z</time></trkpt><trkpt lat="43.113547769596046" lon="11.691867525091446"><ele>407.0</ele><time>2026-04-11T18:13:55Z</time></trkpt><trkpt lat="43.11347842123583" lon="11.691926687933986"><ele>407.0</ele><time>2026-04-11T18:13:58Z</time></trkpt><trkpt lat="43.11342358332042" lon="11.692013141680546"><ele>406.99999999999994</ele><time>2026-04-11T18:14:00Z</time></trkpt><trkpt lat="43.11337324902485" lon="11.692103409381223"><ele>407.0</ele><time>2026-04-11T18:14:02Z</time></trkpt><trkpt lat="43.11331196423251" lon="11.692198599303685"><ele>407.8333333333333</ele><time>2026-04-11T18:14:04Z</time></trkpt><trkpt lat="43.113250150801576" lon="11.692291058951215"><ele>408.66666666666663</ele><time>2026-04-11T18:14:06Z</time></trkpt><trkpt lat="43.113185848950316" lon="11.692386814669614"><ele>409.5</ele><time>2026-04-11T18:14:08Z</time></trkpt><trkpt lat="43.113130928817164" lon="11.692477470240119"><ele>410.33333333333337</ele><time>2026-04-11T18:14:10Z</time></trkpt><trkpt lat="43.11308548412488" lon="11.692561058116791"><ele>411.1666666666667</ele><time>2026-04-11T18:14:12Z</time></trkpt><trkpt lat="43.11304658097293" lon="11.692664381692063"><ele>412.0</ele><time>2026-04-11T18:14:14Z</time></trkpt><trkpt lat="43.11301948397239" lon="11.692784763119676"><ele>410.0</ele><time>2026-04-11T18:14:16Z</time></trkpt><trkpt lat="43.11300147019695" lon="11.692910453297513"><ele>408.0</ele><time>2026-04-11T18:14:18Z</time></trkpt><trkpt lat="43.11298850718442" lon="11.693039639324631"><ele>406.0</ele><time>2026-04-11T18:14:20Z</time></trkpt><trkpt lat="43.112984541220364" lon="11.693167631609827"><ele>404.0</ele><time>2026-04-11T18:14:22Z</time></trkpt><trkpt lat="43.11298648598612" lon="11.693300237270842"><ele>402.0</ele><time>2026-04-11T18:14:24Z</time></trkpt><trkpt lat="43.112979109150764" lon="11.69342934823968"><ele>402.0</ele><time>2026-04-11T18:14:26Z</time></trkpt><trkpt lat="43.11297319737691" lon="11.693545989796805"><ele>402.0</ele><time>2026-04-11T18:14:28Z</time></trkpt><trkpt lat="43.11296186975953" lon="11.693646343017184"><ele>402.0</ele><time>2026-04-11T18:14:30Z</time></trkpt><trkpt lat="43.11296108622501" lon="11.693734038880931"><ele>402.0</ele><time>2026-04-11T18:14:32Z</time></trkpt><trkpt lat="43.11295747813262" lon="11.693834518414791"><ele>402.0</ele><time>2026-04-11T18:14:34Z</time></trkpt><trkpt lat="43.112954019864155" lon="11.693935428780858"><ele>402.0</ele><time>2026-04-11T18:14:36Z</time></trkpt><trkpt lat="43.11295170178639" lon="11.694040890466429"><ele>402.0</ele><time>2026-04-11T18:14:38Z</time></trkpt><trkpt lat="43.11294594947533" lon="11.694146065408955"><ele>402.5</ele><time>2026-04-11T18:14:40Z</time></trkpt><trkpt lat="43.11295247714882" lon="11.694254180680636"><ele>403.0</ele><time>2026-04-11T18:14:42Z</time></trkpt><trkpt lat="43.112962700749975" lon="11.694357789260643"><ele>403.5</ele><time>2026-04-11T18:14:44Z</time></trkpt><trkpt lat="43.112987876365246" lon="11.694450897180388"><ele>404.0</ele><time>2026-04-11T18:14:46Z</time></trkpt><trkpt lat="43.11301739070582" lon="11.694530054166126"><ele>404.5</ele><time>2026-04-11T18:14:48Z</time></trkpt><trkpt lat="43.11308010585389" lon="11.694627996891674"><ele>405.0</ele><time>2026-04-11T18:14:51Z</time></trkpt><trkpt lat="43.11312586246448" lon="11.694688594256249"><ele>405.8</ele><time>2026-04-11T18:14:53Z</time></trkpt><trkpt lat="43.11319580771738" lon="11.69474932111645"><ele>406.6</ele><time>2026-04-11T18:14:57Z</time></trkpt><trkpt lat="43.113270120323996" lon="11.694811820256447"><ele>407.4</ele><time>2026-04-11T18:15:00Z</time></trkpt><trkpt lat="43.11336384851423" lon="11.69491703526296"><ele>408.2</ele><time>2026-04-11T18:15:03Z</time></trkpt><trkpt lat="43.11342491523692" lon="11.695006367943726"><ele>409.0</ele><time>2026-04-11T18:15:06Z</time></trkpt><trkpt lat="43.11347518361723" lon="11.695109272722988"><ele>409.50000000000006</ele><time>2026-04-11T18:15:09Z</time></trkpt><trkpt lat="43.11350979814537" lon="11.695200508425547"><ele>410.0</ele><time>2026-04-11T18:15:11Z</time></trkpt><trkpt lat="43.11353588755795" lon="11.695293049818732"><ele>410.5</ele><time>2026-04-11T18:15:13Z</time></trkpt><trkpt lat="43.11355247973181" lon="11.695388823256117"><ele>411.0</ele><time>2026-04-11T18:15:15Z</time></trkpt><trkpt lat="43.11356719785916" lon="11.69548433588801"><ele>411.50000000000006</ele><time>2026-04-11T18:15:17Z</time></trkpt><trkpt lat="43.113584709131096" lon="11.695578491906941"><ele>412.0</ele><time>2026-04-11T18:15:19Z</time></trkpt><trkpt lat="43.11360826138224" lon="11.695711260813278"><ele>411.99999999999994</ele><time>2026-04-11T18:15:22Z</time></trkpt><trkpt lat="43.11363586119796" lon="11.695806964925989"><ele>412.0</ele><time>2026-04-11T18:15:24Z</time></trkpt><trkpt lat="43.11367498625024" lon="11.695890758939685"><ele>412.0</ele><time>2026-04-11T18:15:26Z</time></trkpt><trkpt lat="43.113714363643204" lon="11.695967364704527"><ele>412.0</ele><time>2026-04-11T18:15:28Z</time></trkpt><trkpt lat="43.113753691510574" lon="11.696038228782244"><ele>412.0</ele><time>2026-04-11T18:15:30Z</time></trkpt><trkpt lat="43.11380232308971" lon="11.696105589000211"><ele>411.99999999999994</ele><time>2026-04-11T18:15:32Z</time></trkpt><trkpt lat="43.113848929953896" lon="11.696165353041486"><ele>412.0</ele><time>2026-04-11T18:15:34Z</time></trkpt><trkpt lat="43.113898692386876" lon="11.696222516528627"><ele>411.4285714285714</ele><time>2026-04-11T18:15:36Z</time></trkpt><trkpt lat="43.11395276229456" lon="11.696285212769057"><ele>410.85714285714283</ele><time>2026-04-11T18:15:38Z</time></trkpt><trkpt lat="43.11400188800674" lon="11.696342685038399"><ele>410.2857142857143</ele><time>2026-04-11T18:15:40Z</time></trkpt><trkpt lat="43.11405294681369" lon="11.696400748102059"><ele>409.71428571428567</ele><time>2026-04-11T18:15:42Z</time></trkpt><trkpt lat="43.11410154549838" lon="11.696456980915071"><ele>409.14285714285717</ele><time>2026-04-11T18:15:44Z</time></trkpt><trkpt lat="43.114176353037266" lon="11.696541637496743"><ele>408.57142857142856</ele><time>2026-04-11T18:15:47Z</time></trkpt><trkpt lat="43.114237623917184" lon="11.6966139813483"><ele>408.0</ele><time>2026-04-11T18:15:50Z</time></trkpt><trkpt lat="43.11429620376219" lon="11.696694692393482"><ele>408.6666666666667</ele><time>2026-04-11T18:15:52Z</time></trkpt><trkpt lat="43.11437751125958" lon="11.696800167881376"><ele>409.33333333333337</ele><time>2026-04-11T18:15:55Z</time></trkpt><trkpt lat="43.11443966860606" lon="11.696876092211806"><ele>410.0</ele><time>2026-04-11T18:15:58Z</time></trkpt><trkpt lat="43.114480633865305" lon="11.696945278423492"><ele>410.6666666666667</ele><time>2026-04-11T18:16:00Z</time></trkpt><trkpt lat="43.11453814730819" lon="11.697043291139236"><ele>411.33333333333337</ele><time>2026-04-11T18:16:03Z</time></trkpt><trkpt lat="43.11457149572121" lon="11.69712498246891"><ele>412.0</ele><time>2026-04-11T18:16:05Z</time></trkpt><trkpt lat="43.114625501029245" lon="11.697229465589121"><ele>411.99999999999994</ele><time>2026-04-11T18:16:08Z</time></trkpt><trkpt lat="43.11466548713466" lon="11.697308137000075"><ele>412.0</ele><time>2026-04-11T18:16:10Z</time></trkpt><trkpt lat="43.114704458322116" lon="11.697391136572453"><ele>412.0</ele><time>2026-04-11T18:16:12Z</time></trkpt><trkpt lat="43.11474424480205" lon="11.697465480242137"><ele>412.0</ele><time>2026-04-11T18:16:14Z</time></trkpt><trkpt lat="43.11478362299483" lon="11.697543330657815"><ele>412.0</ele><time>2026-04-11T18:16:16Z</time></trkpt><trkpt lat="43.11481821105536" lon="11.697619620377234"><ele>411.99999999999994</ele><time>2026-04-11T18:16:18Z</time></trkpt><trkpt lat="43.11485965931605" lon="11.697705361466365"><ele>412.0</ele><time>2026-04-11T18:16:20Z</time></trkpt><trkpt lat="43.11490266342174" lon="11.697786958031493"><ele>413.6666666666667</ele><time>2026-04-11T18:16:22Z</time></trkpt><trkpt lat="43.114952521101394" lon="11.697884985293943"><ele>415.33333333333337</ele><time>2026-04-11T18:16:24Z</time></trkpt><trkpt lat="43.11501391676587" lon="11.697999951824713"><ele>417.0</ele><time>2026-04-11T18:16:27Z</time></trkpt><trkpt lat="43.11505855973221" lon="11.698079861591557"><ele>418.66666666666663</ele><time>2026-04-11T18:16:29Z</time></trkpt><trkpt lat="43.11510879671439" lon="11.698144858173404"><ele>420.3333333333333</ele><time>2026-04-11T18:16:32Z</time></trkpt><trkpt lat="43.115166888104156" lon="11.6982402132713"><ele>422.0</ele><time>2026-04-11T18:16:35Z</time></trkpt><trkpt lat="43.11521215852147" lon="11.698302730929083"><ele>421.99999999999994</ele><time>2026-04-11T18:16:37Z</time></trkpt><trkpt lat="43.11527396992767" lon="11.69839341160315"><ele>422.0</ele><time>2026-04-11T18:16:39Z</time></trkpt><trkpt lat="43.11532379613987" lon="11.698460570226423"><ele>422.0</ele><time>2026-04-11T18:16:41Z</time></trkpt><trkpt lat="43.11538521941502" lon="11.698546045981306"><ele>422.0</ele><time>2026-04-11T18:16:44Z</time></trkpt><trkpt lat="43.11542826300165" lon="11.698611652646441"><ele>421.99999999999994</ele><time>2026-04-11T18:16:45Z</time></trkpt><trkpt lat="43.115495425143514" lon="11.698700061811012"><ele>422.0</ele><time>2026-04-11T18:16:47Z</time></trkpt><trkpt lat="43.11555754821728" lon="11.698777617230848"><ele>422.99999999999994</ele><time>2026-04-11T18:16:49Z</time></trkpt><trkpt lat="43.115616683986424" lon="11.698862086094815"><ele>424.0</ele><time>2026-04-11T18:16:51Z</time></trkpt><trkpt lat="43.11567558175243" lon="11.698940410865257"><ele>425.0</ele><time>2026-04-11T18:16:53Z</time></trkpt><trkpt lat="43.115738324311565" lon="11.699023413897496"><ele>426.0</ele><time>2026-04-11T18:16:55Z</time></trkpt><trkpt lat="43.115792742800934" lon="11.69910661932738"><ele>426.99999999999994</ele><time>2026-04-11T18:16:57Z</time></trkpt><trkpt lat="43.115849614461624" lon="11.699180596523817"><ele>428.0</ele><time>2026-04-11T18:16:59Z</time></trkpt><trkpt lat="43.11592457616071" lon="11.699268528885314"><ele>427.99999999999994</ele><time>2026-04-11T18:17:01Z</time></trkpt><trkpt lat="43.11597619216704" lon="11.699345208713849"><ele>428.0</ele><time>2026-04-11T18:17:03Z</time></trkpt><trkpt lat="43.11604442679481" lon="11.699435825944157"><ele>428.0</ele><time>2026-04-11T18:17:06Z</time></trkpt><trkpt lat="43.11611063259809" lon="11.699508972074337"><ele>428.0</ele><time>2026-04-11T18:17:08Z</time></trkpt><trkpt lat="43.1161631904335" lon="11.69958304730309"><ele>427.99999999999994</ele><time>2026-04-11T18:17:10Z</time></trkpt><trkpt lat="43.11623815198491" lon="11.699646752512345"><ele>428.0</ele><time>2026-04-11T18:17:13Z</time></trkpt><trkpt lat="43.116313899547166" lon="11.699698439569795"><ele>427.8333333333333</ele><time>2026-04-11T18:17:15Z</time></trkpt><trkpt lat="43.116403561799295" lon="11.699728512548864"><ele>427.66666666666663</ele><time>2026-04-11T18:17:18Z</time></trkpt><trkpt lat="43.116495457345145" lon="11.69972503682932"><ele>427.5</ele><time>2026-04-11T18:17:21Z</time></trkpt><trkpt lat="43.11656697737796" lon="11.699713093577063"><ele>427.33333333333337</ele><time>2026-04-11T18:17:23Z</time></trkpt><trkpt lat="43.116654908161664" lon="11.699704671708652"><ele>427.1666666666667</ele><time>2026-04-11T18:17:26Z</time></trkpt><trkpt lat="43.116717143567435" lon="11.699683126043919"><ele>427.0</ele><time>2026-04-11T18:17:28Z</time></trkpt><trkpt lat="43.116783079539594" lon="11.699666267388382"><ele>427.0</ele><time>2026-04-11T18:17:30Z</time></trkpt><trkpt lat="43.116851580253346" lon="11.69965757353588"><ele>427.0</ele><time>2026-04-11T18:17:32Z</time></trkpt><trkpt lat="43.116924203594905" lon="11.699653389016511"><ele>427.0</ele><time>2026-04-11T18:17:34Z</time></trkpt><trkpt lat="43.11699812356588" lon="11.699666361337767"><ele>427.0</ele><time>2026-04-11T18:17:36Z</time></trkpt><trkpt lat="43.11706607140476" lon="11.699693783159207"><ele>427.0</ele><time>2026-04-11T18:17:38Z</time></trkpt><trkpt lat="43.117134304582095" lon="11.699734998494375"><ele>427.0</ele><time>2026-04-11T18:17:40Z</time></trkpt><trkpt lat="43.117193012654646" lon="11.69977506878785"><ele>427.0</ele><time>2026-04-11T18:17:42Z</time></trkpt><trkpt lat="43.11724595023993" lon="11.69983966796411"><ele>427.00000000000006</ele><time>2026-04-11T18:17:44Z</time></trkpt><trkpt lat="43.117298012231295" lon="11.699904577688955"><ele>427.0</ele><time>2026-04-11T18:17:46Z</time></trkpt><trkpt lat="43.117355926568024" lon="11.699989147322643"><ele>427.0</ele><time>2026-04-11T18:17:49Z</time></trkpt><trkpt lat="43.11741591786254" lon="11.700069030742366"><ele>427.0</ele><time>2026-04-11T18:17:52Z</time></trkpt><trkpt lat="43.1174949611542" lon="11.700173237977387"><ele>427.00000000000006</ele><time>2026-04-11T18:17:55Z</time></trkpt><trkpt lat="43.11754769695899" lon="11.700244401019098"><ele>427.0</ele><time>2026-04-11T18:17:58Z</time></trkpt><trkpt lat="43.117613465999284" lon="11.700335542055118"><ele>427.1666666666667</ele><time>2026-04-11T18:18:01Z</time></trkpt><trkpt lat="43.117686840014706" lon="11.700425014177581"><ele>427.33333333333337</ele><time>2026-04-11T18:18:03Z</time></trkpt><trkpt lat="43.117737298964286" lon="11.700479833108389"><ele>427.5</ele><time>2026-04-11T18:18:05Z</time></trkpt><trkpt lat="43.11781556536599" lon="11.700545086234301"><ele>427.66666666666663</ele><time>2026-04-11T18:18:08Z</time></trkpt><trkpt lat="43.11788767196263" lon="11.700590340700064"><ele>427.8333333333333</ele><time>2026-04-11T18:18:11Z</time></trkpt><trkpt lat="43.117957481667844" lon="11.700609357786405"><ele>428.0</ele><time>2026-04-11T18:18:13Z</time></trkpt><trkpt lat="43.118035075595195" lon="11.700602168192395"><ele>427.99999999999994</ele><time>2026-04-11T18:18:16Z</time></trkpt><trkpt lat="43.118121992448835" lon="11.700588209671094"><ele>428.0</ele><time>2026-04-11T18:18:19Z</time></trkpt><trkpt lat="43.118202101855196" lon="11.700561814333337"><ele>428.0</ele><time>2026-04-11T18:18:22Z</time></trkpt><trkpt lat="43.11827938456495" lon="11.700528781853226"><ele>428.0</ele><time>2026-04-11T18:18:25Z</time></trkpt><trkpt lat="43.11836928349298" lon="11.700504930764865"><ele>427.99999999999994</ele><time>2026-04-11T18:18:28Z</time></trkpt><trkpt lat="43.11843452589079" lon="11.700487801226313"><ele>428.0</ele><time>2026-04-11T18:18:30Z</time></trkpt><trkpt lat="43.118498975752026" lon="11.700461964717315"><ele>429.66666666666663</ele><time>2026-04-11T18:18:32Z</time></trkpt><trkpt lat="43.11857619421895" lon="11.700459357793632"><ele>431.3333333333333</ele><time>2026-04-11T18:18:34Z</time></trkpt><trkpt lat="43.11866140159719" lon="11.700458073389353"><ele>433.0</ele><time>2026-04-11T18:18:36Z</time></trkpt><trkpt lat="43.118742104966444" lon="11.700455475838384"><ele>434.66666666666663</ele><time>2026-04-11T18:18:38Z</time></trkpt><trkpt lat="43.11882672143957" lon="11.700466176868488"><ele>436.3333333333333</ele><time>2026-04-11T18:18:40Z</time></trkpt><trkpt lat="43.11890775869893" lon="11.700488665198211"><ele>438.0</ele><time>2026-04-11T18:18:42Z</time></trkpt><trkpt lat="43.118972934384104" lon="11.700525308642215"><ele>438.0</ele><time>2026-04-11T18:18:44Z</time></trkpt><trkpt lat="43.11903094285286" lon="11.70056930190808"><ele>438.0</ele><time>2026-04-11T18:18:46Z</time></trkpt><trkpt lat="43.119098507744006" lon="11.700631202059625"><ele>438.0</ele><time>2026-04-11T18:18:48Z</time></trkpt><trkpt lat="43.119143196617536" lon="11.700707353580082"><ele>438.0</ele><time>2026-04-11T18:18:50Z</time></trkpt><trkpt lat="43.11919523931047" lon="11.700769509656816"><ele>438.0</ele><time>2026-04-11T18:18:52Z</time></trkpt><trkpt lat="43.11924976814388" lon="11.700854480349422"><ele>438.0</ele><time>2026-04-11T18:18:54Z</time></trkpt><trkpt lat="43.11930184311176" lon="11.700948275299844"><ele>438.4</ele><time>2026-04-11T18:18:57Z</time></trkpt><trkpt lat="43.11935100283313" lon="11.701047544045664"><ele>438.79999999999995</ele><time>2026-04-11T18:19:00Z</time></trkpt><trkpt lat="43.119392559396346" lon="11.701153457166475"><ele>439.2</ele><time>2026-04-11T18:19:03Z</time></trkpt><trkpt lat="43.11944534649923" lon="11.701243086332413"><ele>439.6</ele><time>2026-04-11T18:19:06Z</time></trkpt><trkpt lat="43.11950072218708" lon="11.701384021603173"><ele>440.0</ele><time>2026-04-11T18:19:09Z</time></trkpt><trkpt lat="43.119544473103254" lon="11.70148274790439"><ele>439.99999999999994</ele><time>2026-04-11T18:19:11Z</time></trkpt><trkpt lat="43.119581536485555" lon="11.70158674265091"><ele>440.0</ele><time>2026-04-11T18:19:14Z</time></trkpt><trkpt lat="43.11961726581989" lon="11.701664983694107"><ele>440.0</ele><time>2026-04-11T18:19:16Z</time></trkpt><trkpt lat="43.11965522485941" lon="11.7017495082455"><ele>440.0</ele><time>2026-04-11T18:19:18Z</time></trkpt><trkpt lat="43.11969487450066" lon="11.701839055621253"><ele>439.99999999999994</ele><time>2026-04-11T18:19:20Z</time></trkpt><trkpt lat="43.119739549274904" lon="11.70191582834184"><ele>440.0</ele><time>2026-04-11T18:19:22Z</time></trkpt><trkpt lat="43.11979118830453" lon="11.70201739543432"><ele>440.3333333333333</ele><time>2026-04-11T18:19:25Z</time></trkpt><trkpt lat="43.11983985009158" lon="11.702085485616621"><ele>440.66666666666663</ele><time>2026-04-11T18:19:27Z</time></trkpt><trkpt lat="43.11988974367516" lon="11.702151239564836"><ele>441.0</ele><time>2026-04-11T18:19:29Z</time></trkpt><trkpt lat="43.119966633651806" lon="11.702213483305838"><ele>441.33333333333337</ele><time>2026-04-11T18:19:31Z</time></trkpt><trkpt lat="43.12005652093723" lon="11.702264667924787"><ele>441.6666666666667</ele><time>2026-04-11T18:19:33Z</time></trkpt><trkpt lat="43.12015956291183" lon="11.70229606005018"><ele>442.0</ele><time>2026-04-11T18:19:35Z</time></trkpt><trkpt lat="43.12026519138308" lon="11.70232821707166"><ele>442.00000000000006</ele><time>2026-04-11T18:19:37Z</time></trkpt><trkpt lat="43.1203578293451" lon="11.702389420424469"><ele>442.0</ele><time>2026-04-11T18:19:39Z</time></trkpt><trkpt lat="43.120446997203985" lon="11.702424273859993"><ele>442.0</ele><time>2026-04-11T18:19:41Z</time></trkpt><trkpt lat="43.12052962522099" lon="11.702471828154902"><ele>442.0</ele><time>2026-04-11T18:19:43Z</time></trkpt><trkpt lat="43.120604776084065" lon="11.702514890253433"><ele>442.00000000000006</ele><time>2026-04-11T18:19:45Z</time></trkpt><trkpt lat="43.120644702747605" lon="11.702598908713938"><ele>442.0</ele><time>2026-04-11T18:19:47Z</time></trkpt><trkpt lat="43.120682460130084" lon="11.702673679792511"><ele>441.83333333333337</ele><time>2026-04-11T18:19:49Z</time></trkpt><trkpt lat="43.12073926967998" lon="11.702750568083571"><ele>441.6666666666667</ele><time>2026-04-11T18:19:51Z</time></trkpt><trkpt lat="43.12076741403188" lon="11.702851061917332"><ele>441.5</ele><time>2026-04-11T18:19:53Z</time></trkpt><trkpt lat="43.12080382874365" lon="11.70293086952307"><ele>441.33333333333337</ele><time>2026-04-11T18:19:55Z</time></trkpt><trkpt lat="43.120846381044416" lon="11.70302412826971"><ele>441.1666666666667</ele><time>2026-04-11T18:19:57Z</time></trkpt><trkpt lat="43.1208910960708" lon="11.70311224275673"><ele>441.0</ele><time>2026-04-11T18:19:59Z</time></trkpt><trkpt lat="43.12094812085633" lon="11.703190050241815"><ele>441.0</ele><time>2026-04-11T18:20:01Z</time></trkpt><trkpt lat="43.12098884634917" lon="11.703285488555991"><ele>441.0</ele><time>2026-04-11T18:20:03Z</time></trkpt><trkpt lat="43.12102581272754" lon="11.703376447768562"><ele>441.0</ele><time>2026-04-11T18:20:06Z</time></trkpt><trkpt lat="43.12106198214322" lon="11.703472193528958"><ele>441.0</ele><time>2026-04-11T18:20:08Z</time></trkpt><trkpt lat="43.12109242108757" lon="11.70358763620483"><ele>441.0</ele><time>2026-04-11T18:20:10Z</time></trkpt><trkpt lat="43.121108516806075" lon="11.703672637899352"><ele>441.0</ele><time>2026-04-11T18:20:12Z</time></trkpt><trkpt lat="43.121120792873505" lon="11.703787283160954"><ele>440.8</ele><time>2026-04-11T18:20:15Z</time></trkpt><trkpt lat="43.12115261049808" lon="11.704028675267294"><ele>440.6</ele><time>2026-04-11T18:20:18Z</time></trkpt><trkpt lat="43.12115277693109" lon="11.704127682090501"><ele>440.4</ele><time>2026-04-11T18:20:20Z</time></trkpt><trkpt lat="43.12115645540257" lon="11.704230565937575"><ele>440.2</ele><time>2026-04-11T18:20:22Z</time></trkpt><trkpt lat="43.12115466377855" lon="11.704332911395968"><ele>440.0</ele><time>2026-04-11T18:20:24Z</time></trkpt><trkpt lat="43.121153153508196" lon="11.704433420003452"><ele>440.3333333333333</ele><time>2026-04-11T18:20:26Z</time></trkpt><trkpt lat="43.121155701352265" lon="11.70453052199876"><ele>440.66666666666663</ele><time>2026-04-11T18:20:28Z</time></trkpt><trkpt lat="43.121163384805186" lon="11.704637319548912"><ele>441.0</ele><time>2026-04-11T18:20:31Z</time></trkpt><trkpt lat="43.121189377986354" lon="11.704748933247528"><ele>441.33333333333337</ele><time>2026-04-11T18:20:34Z</time></trkpt><trkpt lat="43.12121882423979" lon="11.704862628208577"><ele>441.6666666666667</ele><time>2026-04-11T18:20:35Z</time></trkpt><trkpt lat="43.12124485402234" lon="11.704951695886358"><ele>442.0</ele><time>2026-04-11T18:20:37Z</time></trkpt><trkpt lat="43.1212761480197" lon="11.705033088925552"><ele>442.00000000000006</ele><time>2026-04-11T18:20:39Z</time></trkpt><trkpt lat="43.121311606821166" lon="11.705110415059748"><ele>442.0</ele><time>2026-04-11T18:20:41Z</time></trkpt><trkpt lat="43.12133903972762" lon="11.705189147441054"><ele>442.0</ele><time>2026-04-11T18:20:43Z</time></trkpt><trkpt lat="43.12136193464794" lon="11.70528339174413"><ele>442.0</ele><time>2026-04-11T18:20:46Z</time></trkpt><trkpt lat="43.12139197785064" lon="11.70540525758121"><ele>442.00000000000006</ele><time>2026-04-11T18:20:49Z</time></trkpt><trkpt lat="43.12141938066599" lon="11.705528613590998"><ele>442.0</ele><time>2026-04-11T18:20:52Z</time></trkpt><trkpt lat="43.12144265557028" lon="11.705629461736901"><ele>442.1666666666667</ele><time>2026-04-11T18:20:55Z</time></trkpt><trkpt lat="43.12144801611564" lon="11.705721178716201"><ele>442.33333333333337</ele><time>2026-04-11T18:20:57Z</time></trkpt><trkpt lat="43.12145066512258" lon="11.705824194190308"><ele>442.5</ele><time>2026-04-11T18:20:59Z</time></trkpt><trkpt lat="43.12144768472086" lon="11.705924570877768"><ele>442.66666666666663</ele><time>2026-04-11T18:21:01Z</time></trkpt><trkpt lat="43.12144117598626" lon="11.706029649637786"><ele>442.8333333333333</ele><time>2026-04-11T18:21:03Z</time></trkpt><trkpt lat="43.121442824890266" lon="11.706138744174993"><ele>443.0</ele><time>2026-04-11T18:21:05Z</time></trkpt><trkpt lat="43.12144321178888" lon="11.706244743233395"><ele>442.66666666666663</ele><time>2026-04-11T18:21:07Z</time></trkpt><trkpt lat="43.12144526147266" lon="11.706354356434291"><ele>442.3333333333333</ele><time>2026-04-11T18:21:09Z</time></trkpt><trkpt lat="43.12143390695212" lon="11.706447728993437"><ele>442.0</ele><time>2026-04-11T18:21:11Z</time></trkpt><trkpt lat="43.12143702333772" lon="11.706566034910765"><ele>441.66666666666663</ele><time>2026-04-11T18:21:13Z</time></trkpt><trkpt lat="43.12143056483304" lon="11.706679879915136"><ele>441.3333333333333</ele><time>2026-04-11T18:21:15Z</time></trkpt><trkpt lat="43.121433785160846" lon="11.706796695703652"><ele>441.0</ele><time>2026-04-11T18:21:17Z</time></trkpt><trkpt lat="43.121439866287446" lon="11.706916303378435"><ele>440.6666666666667</ele><time>2026-04-11T18:21:19Z</time></trkpt><trkpt lat="43.12144179694826" lon="11.707034916395429"><ele>440.33333333333337</ele><time>2026-04-11T18:21:21Z</time></trkpt><trkpt lat="43.12144484306185" lon="11.707157749275286"><ele>440.0</ele><time>2026-04-11T18:21:23Z</time></trkpt><trkpt lat="43.12144219819475" lon="11.707273893324036"><ele>439.6666666666667</ele><time>2026-04-11T18:21:25Z</time></trkpt><trkpt lat="43.12143569814141" lon="11.70738988096244"><ele>439.33333333333337</ele><time>2026-04-11T18:21:27Z</time></trkpt><trkpt lat="43.12144156179132" lon="11.707510537038864"><ele>439.0</ele><time>2026-04-11T18:21:29Z</time></trkpt><trkpt lat="43.12142912552304" lon="11.707622627796736"><ele>439.00000000000006</ele><time>2026-04-11T18:21:31Z</time></trkpt><trkpt lat="43.12142125962454" lon="11.70774168004586"><ele>439.0</ele><time>2026-04-11T18:21:33Z</time></trkpt><trkpt lat="43.121404192140965" lon="11.707851318346018"><ele>439.0</ele><time>2026-04-11T18:21:35Z</time></trkpt><trkpt lat="43.121388587335026" lon="11.70795761509222"><ele>439.0</ele><time>2026-04-11T18:21:37Z</time></trkpt><trkpt lat="43.12138737662452" lon="11.708046597597445"><ele>439.00000000000006</ele><time>2026-04-11T18:21:40Z</time></trkpt><trkpt lat="43.12136932539899" lon="11.708129755600211"><ele>439.0</ele><time>2026-04-11T18:21:42Z</time></trkpt><trkpt lat="43.12133297383364" lon="11.708254075992501"><ele>439.6</ele><time>2026-04-11T18:21:44Z</time></trkpt><trkpt lat="43.121311377703286" lon="11.70835624180836"><ele>440.2</ele><time>2026-04-11T18:21:46Z</time></trkpt><trkpt lat="43.121283059292125" lon="11.708501374526115"><ele>440.80000000000007</ele><time>2026-04-11T18:21:49Z</time></trkpt><trkpt lat="43.12123629863312" lon="11.70872403898625"><ele>441.40000000000003</ele><time>2026-04-11T18:21:51Z</time></trkpt><trkpt lat="43.121202197445896" lon="11.70882695636876"><ele>442.0</ele><time>2026-04-11T18:21:53Z</time></trkpt><trkpt lat="43.12118039324739" lon="11.708940964148107"><ele>442.33333333333337</ele><time>2026-04-11T18:21:55Z</time></trkpt><trkpt lat="43.121160754376376" lon="11.709055342017862"><ele>442.6666666666667</ele><time>2026-04-11T18:21:57Z</time></trkpt><trkpt lat="43.121147859823964" lon="11.709165594100089"><ele>443.0</ele><time>2026-04-11T18:21:59Z</time></trkpt><trkpt lat="43.12114068993789" lon="11.709268766676702"><ele>443.33333333333337</ele><time>2026-04-11T18:22:01Z</time></trkpt><trkpt lat="43.12114139075231" lon="11.709375747415189"><ele>443.6666666666667</ele><time>2026-04-11T18:22:03Z</time></trkpt><trkpt lat="43.12114858297991" lon="11.709483882669513"><ele>444.0</ele><time>2026-04-11T18:22:05Z</time></trkpt><trkpt lat="43.121148036465215" lon="11.709596046669859"><ele>444.3333333333333</ele><time>2026-04-11T18:22:07Z</time></trkpt><trkpt lat="43.121147033326814" lon="11.709697536177702"><ele>444.66666666666663</ele><time>2026-04-11T18:22:09Z</time></trkpt><trkpt lat="43.12115395203115" lon="11.709809786191027"><ele>445.0</ele><time>2026-04-11T18:22:11Z</time></trkpt><trkpt lat="43.12114632116822" lon="11.709921439513193"><ele>445.3333333333333</ele><time>2026-04-11T18:22:14Z</time></trkpt><trkpt lat="43.12117466730371" lon="11.710065448494031"><ele>445.66666666666663</ele><time>2026-04-11T18:22:18Z</time></trkpt><trkpt lat="43.12122003804392" lon="11.710187261636909"><ele>446.0</ele><time>2026-04-11T18:22:21Z</time></trkpt><trkpt lat="43.121278910911414" lon="11.710312818070904"><ele>446.8</ele><time>2026-04-11T18:22:24Z</time></trkpt><trkpt lat="43.12133437242554" lon="11.710407096416972"><ele>447.6</ele><time>2026-04-11T18:22:27Z</time></trkpt><trkpt lat="43.12140278179093" lon="11.710531009031687"><ele>448.4</ele><time>2026-04-11T18:22:30Z</time></trkpt><trkpt lat="43.12145162651741" lon="11.71060271285972"><ele>449.2</ele><time>2026-04-11T18:22:31Z</time></trkpt><trkpt lat="43.12150229794666" lon="11.710687738046909"><ele>450.0</ele><time>2026-04-11T18:22:33Z</time></trkpt><trkpt lat="43.121548391843454" lon="11.710823766416802"><ele>449.4</ele><time>2026-04-11T18:22:36Z</time></trkpt><trkpt lat="43.121618395721825" lon="11.710912507811436"><ele>448.8</ele><time>2026-04-11T18:22:38Z</time></trkpt><trkpt lat="43.12164597370282" lon="11.710997965078965"><ele>448.20000000000005</ele><time>2026-04-11T18:22:40Z</time></trkpt><trkpt lat="43.12177031706546" lon="11.71121993583693"><ele>447.6</ele><time>2026-04-11T18:22:43Z</time></trkpt><trkpt lat="43.12181779840324" lon="11.711304696789611"><ele>447.0</ele><time>2026-04-11T18:22:45Z</time></trkpt><trkpt lat="43.12186742618636" lon="11.71139328949925"><ele>448.6666666666667</ele><time>2026-04-11T18:22:47Z</time></trkpt><trkpt lat="43.12191755689145" lon="11.711481891186994"><ele>450.33333333333337</ele><time>2026-04-11T18:22:49Z</time></trkpt><trkpt lat="43.121970325688565" lon="11.711574147580682"><ele>452.0</ele><time>2026-04-11T18:22:51Z</time></trkpt><trkpt lat="43.12202369459253" lon="11.711663748968435"><ele>453.6666666666667</ele><time>2026-04-11T18:22:53Z</time></trkpt><trkpt lat="43.12207549385791" lon="11.711749640028414"><ele>455.33333333333337</ele><time>2026-04-11T18:22:55Z</time></trkpt><trkpt lat="43.12214111943423" lon="11.711823361516306"><ele>457.0</ele><time>2026-04-11T18:22:57Z</time></trkpt><trkpt lat="43.122180094806424" lon="11.711925101730232"><ele>458.40000000000003</ele><time>2026-04-11T18:23:00Z</time></trkpt><trkpt lat="43.122240409989345" lon="11.711985876275614"><ele>459.80000000000007</ele><time>2026-04-11T18:23:02Z</time></trkpt><trkpt lat="43.12229604690601" lon="11.712105592262088"><ele>461.2</ele><time>2026-04-11T18:23:05Z</time></trkpt><trkpt lat="43.12234359456844" lon="11.712241320513188"><ele>462.6</ele><time>2026-04-11T18:23:08Z</time></trkpt><trkpt lat="43.12237748409912" lon="11.71235411314867"><ele>464.0</ele><time>2026-04-11T18:23:10Z</time></trkpt><trkpt lat="43.12240792636553" lon="11.712463088474403"><ele>462.4</ele><time>2026-04-11T18:23:12Z</time></trkpt><trkpt lat="43.12246438663873" lon="11.712630440310178"><ele>460.79999999999995</ele><time>2026-04-11T18:23:13Z</time></trkpt><trkpt lat="43.12248055111704" lon="11.712749861024637"><ele>459.20000000000005</ele><time>2026-04-11T18:23:15Z</time></trkpt><trkpt lat="43.122496374322736" lon="11.71287153499261"><ele>457.6</ele><time>2026-04-11T18:23:17Z</time></trkpt><trkpt lat="43.12251677741244" lon="11.712989787458705"><ele>456.0</ele><time>2026-04-11T18:23:19Z</time></trkpt><trkpt lat="43.122539718515306" lon="11.713096371271583"><ele>456.0</ele><time>2026-04-11T18:23:21Z</time></trkpt><trkpt lat="43.12256803507565" lon="11.713196716138278"><ele>456.0</ele><time>2026-04-11T18:23:23Z</time></trkpt><trkpt lat="43.122596036635" lon="11.71327433407526"><ele>456.0</ele><time>2026-04-11T18:23:25Z</time></trkpt><trkpt lat="43.122639999109275" lon="11.713358480950028"><ele>456.0</ele><time>2026-04-11T18:23:27Z</time></trkpt><trkpt lat="43.122685365684966" lon="11.713455776865148"><ele>456.0</ele><time>2026-04-11T18:23:29Z</time></trkpt><trkpt lat="43.12274878290131" lon="11.713529511666009"><ele>456.0</ele><time>2026-04-11T18:23:31Z</time></trkpt><trkpt lat="43.12280497117601" lon="11.713600056077139"><ele>456.8333333333333</ele><time>2026-04-11T18:23:33Z</time></trkpt><trkpt lat="43.122868612972326" lon="11.71366480870847"><ele>457.66666666666663</ele><time>2026-04-11T18:23:36Z</time></trkpt><trkpt lat="43.12293201484434" lon="11.713746110986287"><ele>458.5</ele><time>2026-04-11T18:23:37Z</time></trkpt><trkpt lat="43.122993040183516" lon="11.713817488350315"><ele>459.3333333333333</ele><time>2026-04-11T18:23:39Z</time></trkpt><trkpt lat="43.123049140213865" lon="11.713893251099535"><ele>460.16666666666663</ele><time>2026-04-11T18:23:41Z</time></trkpt><trkpt lat="43.123100208833996" lon="11.713982770102387"><ele>461.0</ele><time>2026-04-11T18:23:43Z</time></trkpt><trkpt lat="43.12313063003341" lon="11.71409326919719"><ele>460.99999999999994</ele><time>2026-04-11T18:23:45Z</time></trkpt><trkpt lat="43.12315015214847" lon="11.714213377885109"><ele>461.0</ele><time>2026-04-11T18:23:47Z</time></trkpt><trkpt lat="43.12315172302554" lon="11.714335074101873"><ele>461.0</ele><time>2026-04-11T18:23:49Z</time></trkpt><trkpt lat="43.123147260423615" lon="11.714446797667105"><ele>461.0</ele><time>2026-04-11T18:23:51Z</time></trkpt><trkpt lat="43.12314446617785" lon="11.714568341243332"><ele>460.99999999999994</ele><time>2026-04-11T18:23:53Z</time></trkpt><trkpt lat="43.123141861823584" lon="11.71468803481571"><ele>461.0</ele><time>2026-04-11T18:23:55Z</time></trkpt><trkpt lat="43.12312581979986" lon="11.714807215749087"><ele>460.3333333333333</ele><time>2026-04-11T18:23:58Z</time></trkpt><trkpt lat="43.123152876564795" lon="11.71490360733115"><ele>459.66666666666663</ele><time>2026-04-11T18:24:01Z</time></trkpt><trkpt lat="43.12318665270345" lon="11.71498859349315"><ele>459.0</ele><time>2026-04-11T18:24:03Z</time></trkpt><trkpt lat="43.12325188733544" lon="11.715087833954614"><ele>458.33333333333337</ele><time>2026-04-11T18:24:06Z</time></trkpt><trkpt lat="43.123312490477616" lon="11.715192920352603"><ele>457.6666666666667</ele><time>2026-04-11T18:24:08Z</time></trkpt><trkpt lat="43.123361926806965" lon="11.715259634680464"><ele>457.0</ele><time>2026-04-11T18:24:10Z</time></trkpt><trkpt lat="43.12340935478124" lon="11.715327102352342"><ele>457.00000000000006</ele><time>2026-04-11T18:24:12Z</time></trkpt><trkpt lat="43.123455310361365" lon="11.715402704887937"><ele>457.0</ele><time>2026-04-11T18:24:14Z</time></trkpt><trkpt lat="43.1234945215224" lon="11.715485808568072"><ele>457.00000000000006</ele><time>2026-04-11T18:24:16Z</time></trkpt><trkpt lat="43.123512318811485" lon="11.715576901956531"><ele>457.00000000000006</ele><time>2026-04-11T18:24:18Z</time></trkpt><trkpt lat="43.123520390955115" lon="11.715671342971675"><ele>457.0</ele><time>2026-04-11T18:24:20Z</time></trkpt><trkpt lat="43.12350776206222" lon="11.715765192207655"><ele>457.00000000000006</ele><time>2026-04-11T18:24:22Z</time></trkpt><trkpt lat="43.12350219173287" lon="11.715860294275355"><ele>457.00000000000006</ele><time>2026-04-11T18:24:24Z</time></trkpt><trkpt lat="43.12350664060623" lon="11.715964216834628"><ele>456.50000000000006</ele><time>2026-04-11T18:24:26Z</time></trkpt><trkpt lat="43.12350577127413" lon="11.716075143906714"><ele>456.0</ele><time>2026-04-11T18:24:28Z</time></trkpt><trkpt lat="43.12346929019952" lon="11.716171659349373"><ele>455.5</ele><time>2026-04-11T18:24:30Z</time></trkpt><trkpt lat="43.123496094891365" lon="11.716269028400875"><ele>455.0</ele><time>2026-04-11T18:24:32Z</time></trkpt><trkpt lat="43.123492771336196" lon="11.716377140530158"><ele>454.50000000000006</ele><time>2026-04-11T18:24:34Z</time></trkpt><trkpt lat="43.12349120008668" lon="11.716476585391305"><ele>454.0</ele><time>2026-04-11T18:24:36Z</time></trkpt><trkpt lat="43.12349976732346" lon="11.716570601280823"><ele>454.00000000000006</ele><time>2026-04-11T18:24:38Z</time></trkpt><trkpt lat="43.12351180269636" lon="11.716664676682528"><ele>454.0</ele><time>2026-04-11T18:24:40Z</time></trkpt><trkpt lat="43.123531396405355" lon="11.716770638457243"><ele>454.0</ele><time>2026-04-11T18:24:42Z</time></trkpt><trkpt lat="43.123540579568335" lon="11.716877563420363"><ele>454.0</ele><time>2026-04-11T18:24:44Z</time></trkpt><trkpt lat="43.12357243613948" lon="11.717004404530453"><ele>454.00000000000006</ele><time>2026-04-11T18:24:46Z</time></trkpt><trkpt lat="43.12360531565917" lon="11.717118719981993"><ele>454.0</ele><time>2026-04-11T18:24:48Z</time></trkpt><trkpt lat="43.12363420654961" lon="11.717261990175405"><ele>454.2</ele><time>2026-04-11T18:24:51Z</time></trkpt><trkpt lat="43.12364748822582" lon="11.717391227501878"><ele>454.4</ele><time>2026-04-11T18:24:52Z</time></trkpt><trkpt lat="43.12367498654985" lon="11.7175144284237"><ele>454.6</ele><time>2026-04-11T18:24:54Z</time></trkpt><trkpt lat="43.12369911739123" lon="11.717642451328324"><ele>454.8</ele><time>2026-04-11T18:24:56Z</time></trkpt><trkpt lat="43.12368980099076" lon="11.717774828990212"><ele>455.0</ele><time>2026-04-11T18:24:58Z</time></trkpt><trkpt lat="43.123711461315466" lon="11.717898899059815"><ele>455.8333333333333</ele><time>2026-04-11T18:25:00Z</time></trkpt><trkpt lat="43.123698831307365" lon="11.718011875747964"><ele>456.66666666666663</ele><time>2026-04-11T18:25:02Z</time></trkpt><trkpt lat="43.12370040966424" lon="11.71810301599659"><ele>457.5</ele><time>2026-04-11T18:25:04Z</time></trkpt><trkpt lat="43.12370132645127" lon="11.718235481052007"><ele>458.33333333333337</ele><time>2026-04-11T18:25:07Z</time></trkpt><trkpt lat="43.12370207427225" lon="11.718322070797486"><ele>459.1666666666667</ele><time>2026-04-11T18:25:09Z</time></trkpt><trkpt lat="43.123712962746104" lon="11.71841680570407"><ele>460.0</ele><time>2026-04-11T18:25:12Z</time></trkpt><trkpt lat="43.12371554210969" lon="11.718529307224173"><ele>460.50000000000006</ele><time>2026-04-11T18:25:15Z</time></trkpt><trkpt lat="43.123724515657045" lon="11.7186349597796"><ele>461.0</ele><time>2026-04-11T18:25:18Z</time></trkpt><trkpt lat="43.12372812444302" lon="11.718758148506664"><ele>461.5</ele><time>2026-04-11T18:25:21Z</time></trkpt><trkpt lat="43.12372857127509" lon="11.718877208354563"><ele>462.0</ele><time>2026-04-11T18:25:24Z</time></trkpt><trkpt lat="43.12371690670964" lon="11.718965584060385"><ele>462.50000000000006</ele><time>2026-04-11T18:25:26Z</time></trkpt><trkpt lat="43.12370174981117" lon="11.719064423754949"><ele>463.0</ele><time>2026-04-11T18:25:28Z</time></trkpt><trkpt lat="43.12366786555796" lon="11.719176958330188"><ele>463.00000000000006</ele><time>2026-04-11T18:25:30Z</time></trkpt><trkpt lat="43.123614568001194" lon="11.71925204801993"><ele>463.0</ele><time>2026-04-11T18:25:32Z</time></trkpt><trkpt lat="43.123551361525585" lon="11.719304640233632"><ele>463.0</ele><time>2026-04-11T18:25:34Z</time></trkpt><trkpt lat="43.123476964916506" lon="11.719286585625984"><ele>463.0</ele><time>2026-04-11T18:25:37Z</time></trkpt><trkpt lat="43.12338512797588" lon="11.719271991627094"><ele>463.00000000000006</ele><time>2026-04-11T18:25:40Z</time></trkpt><trkpt lat="43.123290430758786" lon="11.719255313632859"><ele>463.0</ele><time>2026-04-11T18:25:43Z</time></trkpt><trkpt lat="43.12321207973634" lon="11.719229696104199"><ele>463.4285714285714</ele><time>2026-04-11T18:25:46Z</time></trkpt><trkpt lat="43.12313006878638" lon="11.719212573325231"><ele>463.8571428571428</ele><time>2026-04-11T18:25:49Z</time></trkpt><trkpt lat="43.12306621191812" lon="11.719183394995351"><ele>464.2857142857143</ele><time>2026-04-11T18:25:51Z</time></trkpt><trkpt lat="43.12298486580418" lon="11.719177914544357"><ele>464.71428571428567</ele><time>2026-04-11T18:25:53Z</time></trkpt><trkpt lat="43.12292025686888" lon="11.719170287081187"><ele>465.1428571428571</ele><time>2026-04-11T18:25:54Z</time></trkpt><trkpt lat="43.12284893283539" lon="11.719155957805983"><ele>465.57142857142856</ele><time>2026-04-11T18:25:56Z</time></trkpt><trkpt lat="43.122777245595245" lon="11.719164165340443"><ele>466.0</ele><time>2026-04-11T18:25:58Z</time></trkpt><trkpt lat="43.122711526619355" lon="11.719183905974758"><ele>466.00000000000006</ele><time>2026-04-11T18:26:00Z</time></trkpt><trkpt lat="43.12264455486118" lon="11.71923707571745"><ele>466.0</ele><time>2026-04-11T18:26:03Z</time></trkpt><trkpt lat="43.12258645696839" lon="11.719304282832509"><ele>466.0</ele><time>2026-04-11T18:26:06Z</time></trkpt><trkpt lat="43.12253109709622" lon="11.719416560724708"><ele>466.0</ele><time>2026-04-11T18:26:08Z</time></trkpt><trkpt lat="43.12250666513931" lon="11.719496083410139"><ele>466.00000000000006</ele><time>2026-04-11T18:26:10Z</time></trkpt><trkpt lat="43.12248826802447" lon="11.719585531054399"><ele>466.0</ele><time>2026-04-11T18:26:12Z</time></trkpt><trkpt lat="43.12248789470039" lon="11.719715811152996"><ele>466.28571428571433</ele><time>2026-04-11T18:26:15Z</time></trkpt><trkpt lat="43.12250902789269" lon="11.719808262735413"><ele>466.57142857142856</ele><time>2026-04-11T18:26:17Z</time></trkpt><trkpt lat="43.122519432056734" lon="11.719910336349688"><ele>466.8571428571429</ele><time>2026-04-11T18:26:19Z</time></trkpt><trkpt lat="43.12253466233624" lon="11.720005651868984"><ele>467.14285714285717</ele><time>2026-04-11T18:26:21Z</time></trkpt><trkpt lat="43.12254601902481" lon="11.72010663160595"><ele>467.42857142857144</ele><time>2026-04-11T18:26:23Z</time></trkpt><trkpt lat="43.12255662044187" lon="11.720209517148874"><ele>467.7142857142857</ele><time>2026-04-11T18:26:25Z</time></trkpt><trkpt lat="43.12257867275675" lon="11.720303520669608"><ele>468.0</ele><time>2026-04-11T18:26:27Z</time></trkpt><trkpt lat="43.12258988236382" lon="11.720401422218087"><ele>468.0</ele><time>2026-04-11T18:26:29Z</time></trkpt><trkpt lat="43.12260179769277" lon="11.720499138485728"><ele>468.0</ele><time>2026-04-11T18:26:31Z</time></trkpt><trkpt lat="43.12262204488153" lon="11.720585716410364"><ele>468.0</ele><time>2026-04-11T18:26:34Z</time></trkpt><trkpt lat="43.12264274990253" lon="11.720676984646621"><ele>468.0</ele><time>2026-04-11T18:26:36Z</time></trkpt><trkpt lat="43.122695251247926" lon="11.720855957554146"><ele>468.0</ele><time>2026-04-11T18:26:38Z</time></trkpt><trkpt lat="43.1227209744458" lon="11.720941507418814"><ele>468.0</ele><time>2026-04-11T18:26:40Z</time></trkpt><trkpt lat="43.12275858083245" lon="11.721038523726689"><ele>467.7142857142857</ele><time>2026-04-11T18:26:42Z</time></trkpt><trkpt lat="43.12278342543486" lon="11.721144815020759"><ele>467.42857142857144</ele><time>2026-04-11T18:26:44Z</time></trkpt><trkpt lat="43.12279587672866" lon="11.721243530263713"><ele>467.14285714285717</ele><time>2026-04-11T18:26:46Z</time></trkpt><trkpt lat="43.122806453870176" lon="11.72134710772193"><ele>466.8571428571429</ele><time>2026-04-11T18:26:48Z</time></trkpt><trkpt lat="43.12282154570363" lon="11.72146121182673"><ele>466.57142857142856</ele><time>2026-04-11T18:26:50Z</time></trkpt><trkpt lat="43.12281634173658" lon="11.721547572977968"><ele>466.28571428571433</ele><time>2026-04-11T18:26:52Z</time></trkpt><trkpt lat="43.12282569542654" lon="11.721643153495904"><ele>466.0</ele><time>2026-04-11T18:26:54Z</time></trkpt><trkpt lat="43.12285678454753" lon="11.721748816124032"><ele>466.00000000000006</ele><time>2026-04-11T18:26:56Z</time></trkpt><trkpt lat="43.122901577674696" lon="11.721835902996618"><ele>466.0</ele><time>2026-04-11T18:26:58Z</time></trkpt><trkpt lat="43.12294598130374" lon="11.72189849888221"><ele>466.0</ele><time>2026-04-11T18:27:00Z</time></trkpt><trkpt lat="43.1230142051037" lon="11.721967466994933"><ele>466.0</ele><time>2026-04-11T18:27:03Z</time></trkpt><trkpt lat="43.12307224524888" lon="11.722033620361065"><ele>466.00000000000006</ele><time>2026-04-11T18:27:06Z</time></trkpt><trkpt lat="43.123138690996086" lon="11.722097809630567"><ele>466.0</ele><time>2026-04-11T18:27:09Z</time></trkpt><trkpt lat="43.12320372197001" lon="11.722175887678356"><ele>467.33333333333337</ele><time>2026-04-11T18:27:12Z</time></trkpt><trkpt lat="43.12323878578406" lon="11.72226846086165"><ele>468.6666666666667</ele><time>2026-04-11T18:27:15Z</time></trkpt><trkpt lat="43.12327927826588" lon="11.722338868511244"><ele>470.0</ele><time>2026-04-11T18:27:17Z</time></trkpt><trkpt lat="43.1233318269527" lon="11.722448619712887"><ele>471.33333333333337</ele><time>2026-04-11T18:27:20Z</time></trkpt><trkpt lat="43.12338013268157" lon="11.722523322612648"><ele>472.6666666666667</ele><time>2026-04-11T18:27:22Z</time></trkpt><trkpt lat="43.12341282154943" lon="11.722610025207937"><ele>474.0</ele><time>2026-04-11T18:27:24Z</time></trkpt><trkpt lat="43.12345429457538" lon="11.72269465220456"><ele>474.1666666666667</ele><time>2026-04-11T18:27:26Z</time></trkpt><trkpt lat="43.12348423157194" lon="11.722784496550748"><ele>474.33333333333337</ele><time>2026-04-11T18:27:28Z</time></trkpt><trkpt lat="43.12351425360861" lon="11.722878365176427"><ele>474.5</ele><time>2026-04-11T18:27:30Z</time></trkpt><trkpt lat="43.12353974421783" lon="11.722965757376153"><ele>474.6666666666667</ele><time>2026-04-11T18:27:32Z</time></trkpt><trkpt lat="43.12356675862402" lon="11.723144087805412"><ele>474.83333333333337</ele><time>2026-04-11T18:27:35Z</time></trkpt><trkpt lat="43.12356953588466" lon="11.72323716158629"><ele>475.0</ele><time>2026-04-11T18:27:37Z</time></trkpt><trkpt lat="43.12355781193248" lon="11.723341272921608"><ele>475.00000000000006</ele><time>2026-04-11T18:27:40Z</time></trkpt><trkpt lat="43.12353216427273" lon="11.7234635228898"><ele>475.0</ele><time>2026-04-11T18:27:43Z</time></trkpt><trkpt lat="43.123510632723885" lon="11.723581675674378"><ele>475.0</ele><time>2026-04-11T18:27:46Z</time></trkpt><trkpt lat="43.12348603039133" lon="11.723693872864015"><ele>475.0</ele><time>2026-04-11T18:27:48Z</time></trkpt><trkpt lat="43.12347525752454" lon="11.723798910687588"><ele>475.00000000000006</ele><time>2026-04-11T18:27:51Z</time></trkpt><trkpt lat="43.12346713436688" lon="11.723905680413933"><ele>475.0</ele><time>2026-04-11T18:27:55Z</time></trkpt><trkpt lat="43.12350012783578" lon="11.723984976968527"><ele>475.33333333333337</ele><time>2026-04-11T18:27:58Z</time></trkpt><trkpt lat="43.12359644356632" lon="11.724022680431528"><ele>475.6666666666667</ele><time>2026-04-11T18:29:21Z</time></trkpt><trkpt lat="43.12367639413569" lon="11.724037827042642"><ele>476.0</ele><time>2026-04-11T18:29:26Z</time></trkpt><trkpt lat="43.12374088226288" lon="11.724077362554707"><ele>476.33333333333337</ele><time>2026-04-11T18:30:00Z</time></trkpt><trkpt lat="43.123813850935264" lon="11.724066790541173"><ele>476.6666666666667</ele><time>2026-04-11T18:30:06Z</time></trkpt><trkpt lat="43.12387866217789" lon="11.724074337596841"><ele>477.0</ele><time>2026-04-11T18:30:09Z</time></trkpt><trkpt lat="43.12394291122332" lon="11.724084062894464"><ele>477.0</ele><time>2026-04-11T18:30:12Z</time></trkpt><trkpt lat="43.12401491386371" lon="11.724098826368563"><ele>477.0</ele><time>2026-04-11T18:30:16Z</time></trkpt><trkpt lat="43.124090197549684" lon="11.72409407906394"><ele>477.0</ele><time>2026-04-11T18:30:20Z</time></trkpt><trkpt lat="43.12416536522466" lon="11.724117976874847"><ele>477.0</ele><time>2026-04-11T18:30:24Z</time></trkpt><trkpt lat="43.124241682220195" lon="11.72411752826423"><ele>477.0</ele><time>2026-04-11T18:30:28Z</time></trkpt><trkpt lat="43.124319089678785" lon="11.724138726654385"><ele>477.0</ele><time>2026-04-11T18:30:32Z</time></trkpt><trkpt lat="43.12439446042635" lon="11.724148234215157"><ele>478.0</ele><time>2026-04-11T18:30:36Z</time></trkpt><trkpt lat="43.12447177870891" lon="11.724155712492406"><ele>478.99999999999994</ele><time>2026-04-11T18:30:40Z</time></trkpt><trkpt lat="43.12453985015016" lon="11.724161980702167"><ele>480.0</ele><time>2026-04-11T18:30:44Z</time></trkpt><trkpt lat="43.12461889753085" lon="11.724173407110497"><ele>481.0</ele><time>2026-04-11T18:30:48Z</time></trkpt><trkpt lat="43.12468754884632" lon="11.724173118090711"><ele>481.99999999999994</ele><time>2026-04-11T18:30:52Z</time></trkpt><trkpt lat="43.1247586854281" lon="11.724185532964803"><ele>483.0</ele><time>2026-04-11T18:30:56Z</time></trkpt><trkpt lat="43.124829525357505" lon="11.724202516873738"><ele>484.0</ele><time>2026-04-11T18:31:00Z</time></trkpt><trkpt lat="43.12490889185319" lon="11.724215812979772"><ele>485.0</ele><time>2026-04-11T18:31:04Z</time></trkpt><trkpt lat="43.12498703900146" lon="11.72423194736833"><ele>485.99999999999994</ele><time>2026-04-11T18:31:08Z</time></trkpt><trkpt lat="43.12504940294767" lon="11.724254453521187"><ele>487.0</ele><time>2026-04-11T18:31:11Z</time></trkpt><trkpt lat="43.1251103929523" lon="11.724278694741985"><ele>488.0</ele><time>2026-04-11T18:31:14Z</time></trkpt><trkpt lat="43.12517154454068" lon="11.724304046796037"><ele>488.99999999999994</ele><time>2026-04-11T18:31:17Z</time></trkpt><trkpt lat="43.125230364152934" lon="11.724336659945898"><ele>490.0</ele><time>2026-04-11T18:31:20Z</time></trkpt><trkpt lat="43.125305121297366" lon="11.724382179650853"><ele>491.0</ele><time>2026-04-11T18:31:24Z</time></trkpt><trkpt lat="43.12536173850785" lon="11.72444030182981"><ele>491.49999999999994</ele><time>2026-04-11T18:31:27Z</time></trkpt><trkpt lat="43.12542023732786" lon="11.724504919357763"><ele>492.0</ele><time>2026-04-11T18:31:30Z</time></trkpt><trkpt lat="43.12548608557081" lon="11.724567054809585"><ele>492.5</ele><time>2026-04-11T18:31:34Z</time></trkpt><trkpt lat="43.12555314326496" lon="11.7246377216512"><ele>493.0</ele><time>2026-04-11T18:31:38Z</time></trkpt><trkpt lat="43.12562125056929" lon="11.724705878850223"><ele>493.49999999999994</ele><time>2026-04-11T18:31:42Z</time></trkpt><trkpt lat="43.125688106598034" lon="11.724762405772717"><ele>494.0</ele><time>2026-04-11T18:31:46Z</time></trkpt><trkpt lat="43.125753169859884" lon="11.724834682041973"><ele>494.66666666666663</ele><time>2026-04-11T18:31:50Z</time></trkpt><trkpt lat="43.125822601207595" lon="11.724897128268776"><ele>495.3333333333333</ele><time>2026-04-11T18:31:54Z</time></trkpt><trkpt lat="43.12589449481359" lon="11.724939528546093"><ele>496.0</ele><time>2026-04-11T18:31:58Z</time></trkpt><trkpt lat="43.12595444840461" lon="11.724972630040682"><ele>496.66666666666663</ele><time>2026-04-11T18:32:01Z</time></trkpt><trkpt lat="43.12601939364772" lon="11.725040510672564"><ele>497.3333333333333</ele><time>2026-04-11T18:32:04Z</time></trkpt><trkpt lat="43.126106752414685" lon="11.725106497663349"><ele>498.0</ele><time>2026-04-11T18:32:06Z</time></trkpt><trkpt lat="43.12617529613875" lon="11.725159289816428"><ele>498.0</ele><time>2026-04-11T18:32:08Z</time></trkpt><trkpt lat="43.12625466071197" lon="11.725191795067929"><ele>498.0</ele><time>2026-04-11T18:32:10Z</time></trkpt><trkpt lat="43.12633782378803" lon="11.725241884562603"><ele>498.0</ele><time>2026-04-11T18:32:13Z</time></trkpt><trkpt lat="43.12641881204602" lon="11.725285016130474"><ele>498.0</ele><time>2026-04-11T18:32:16Z</time></trkpt><trkpt lat="43.12649914500704" lon="11.725326311305523"><ele>498.0</ele><time>2026-04-11T18:32:19Z</time></trkpt><trkpt lat="43.12656866783733" lon="11.725405248643789"><ele>498.0</ele><time>2026-04-11T18:32:22Z</time></trkpt><trkpt lat="43.12664634006107" lon="11.725468413963009"><ele>499.1666666666667</ele><time>2026-04-11T18:32:25Z</time></trkpt><trkpt lat="43.12670857000895" lon="11.725509340943477"><ele>500.33333333333337</ele><time>2026-04-11T18:32:27Z</time></trkpt><trkpt lat="43.12676676243512" lon="11.725555181395533"><ele>501.5</ele><time>2026-04-11T18:32:28Z</time></trkpt><trkpt lat="43.12683834561838" lon="11.725591933858803"><ele>502.6666666666667</ele><time>2026-04-11T18:32:30Z</time></trkpt><trkpt lat="43.12691082138155" lon="11.72563437557187"><ele>503.83333333333337</ele><time>2026-04-11T18:32:32Z</time></trkpt><trkpt lat="43.12698623410408" lon="11.725676656776486"><ele>505.0</ele><time>2026-04-11T18:32:34Z</time></trkpt><trkpt lat="43.1270582954621" lon="11.725735032812807"><ele>505.00000000000006</ele><time>2026-04-11T18:32:36Z</time></trkpt><trkpt lat="43.12716587558309" lon="11.725776921455239"><ele>505.0</ele><time>2026-04-11T18:32:39Z</time></trkpt><trkpt lat="43.12724713127956" lon="11.725816500931646"><ele>505.0</ele><time>2026-04-11T18:32:41Z</time></trkpt><trkpt lat="43.12732377316277" lon="11.725870201514164"><ele>505.0</ele><time>2026-04-11T18:32:43Z</time></trkpt><trkpt lat="43.12739231738187" lon="11.72591598551203"><ele>505.00000000000006</ele><time>2026-04-11T18:32:45Z</time></trkpt><trkpt lat="43.127450303604235" lon="11.725955292282652"><ele>505.0</ele><time>2026-04-11T18:32:47Z</time></trkpt><trkpt lat="43.1275183708505" lon="11.725993138319884"><ele>504.1666666666667</ele><time>2026-04-11T18:32:49Z</time></trkpt><trkpt lat="43.12758938167127" lon="11.726038329701309"><ele>503.33333333333337</ele><time>2026-04-11T18:32:51Z</time></trkpt><trkpt lat="43.12766713036072" lon="11.726096069904635"><ele>502.5</ele><time>2026-04-11T18:32:53Z</time></trkpt><trkpt lat="43.12774099827104" lon="11.726162011643579"><ele>501.66666666666663</ele><time>2026-04-11T18:32:55Z</time></trkpt><trkpt lat="43.12781718075074" lon="11.726225899013738"><ele>500.8333333333333</ele><time>2026-04-11T18:32:57Z</time></trkpt><trkpt lat="43.12789269806735" lon="11.726290663231792"><ele>500.0</ele><time>2026-04-11T18:32:59Z</time></trkpt><trkpt lat="43.12796204631796" lon="11.726375629486736"><ele>499.8333333333333</ele><time>2026-04-11T18:33:01Z</time></trkpt><trkpt lat="43.12802599213414" lon="11.726463109823365"><ele>499.66666666666663</ele><time>2026-04-11T18:33:03Z</time></trkpt><trkpt lat="43.128086977891996" lon="11.7265523945672"><ele>499.5</ele><time>2026-04-11T18:33:05Z</time></trkpt><trkpt lat="43.12814026544363" lon="11.726662753203357"><ele>499.33333333333337</ele><time>2026-04-11T18:33:07Z</time></trkpt><trkpt lat="43.12818234118012" lon="11.726785009174135"><ele>499.1666666666667</ele><time>2026-04-11T18:33:09Z</time></trkpt><trkpt lat="43.128211081302524" lon="11.726872589649574"><ele>499.0</ele><time>2026-04-11T18:33:11Z</time></trkpt><trkpt lat="43.12821508978279" lon="11.726978967514759"><ele>500.00000000000006</ele><time>2026-04-11T18:33:14Z</time></trkpt><trkpt lat="43.12824404652348" lon="11.727096814180165"><ele>501.0</ele><time>2026-04-11T18:33:17Z</time></trkpt><trkpt lat="43.12825652971437" lon="11.727215039539457"><ele>502.0</ele><time>2026-04-11T18:33:20Z</time></trkpt><trkpt lat="43.12827140596192" lon="11.727334630162947"><ele>503.0</ele><time>2026-04-11T18:33:23Z</time></trkpt><trkpt lat="43.128287005503296" lon="11.727451015659769"><ele>504.00000000000006</ele><time>2026-04-11T18:33:26Z</time></trkpt><trkpt lat="43.128312475580266" lon="11.72757262009158"><ele>505.0</ele><time>2026-04-11T18:33:29Z</time></trkpt><trkpt lat="43.12833406249962" lon="11.72768273444184"><ele>505.6666666666667</ele><time>2026-04-11T18:33:32Z</time></trkpt><trkpt lat="43.12836890098628" lon="11.727783793287312"><ele>506.33333333333337</ele><time>2026-04-11T18:33:35Z</time></trkpt><trkpt lat="43.12840237998243" lon="11.727880121160517"><ele>507.0</ele><time>2026-04-11T18:33:38Z</time></trkpt><trkpt lat="43.128452240681796" lon="11.727942579176927"><ele>507.66666666666663</ele><time>2026-04-11T18:33:41Z</time></trkpt><trkpt lat="43.12854547503123" lon="11.72798801331224"><ele>508.3333333333333</ele><time>2026-04-11T18:33:44Z</time></trkpt><trkpt lat="43.12862448837241" lon="11.728008070230164"><ele>509.0</ele><time>2026-04-11T18:33:47Z</time></trkpt><trkpt lat="43.12871063364616" lon="11.728022757019625"><ele>508.99999999999994</ele><time>2026-04-11T18:33:50Z</time></trkpt><trkpt lat="43.12877372030692" lon="11.728021764901474"><ele>509.0</ele><time>2026-04-11T18:33:52Z</time></trkpt><trkpt lat="43.12885537810391" lon="11.728014203796715"><ele>509.0</ele><time>2026-04-11T18:33:55Z</time></trkpt><trkpt lat="43.12893975963125" lon="11.727997376486401"><ele>509.0</ele><time>2026-04-11T18:33:58Z</time></trkpt><trkpt lat="43.12901690869937" lon="11.72798726557001"><ele>508.99999999999994</ele><time>2026-04-11T18:34:00Z</time></trkpt><trkpt lat="43.12909717635909" lon="11.727973726201876"><ele>509.0</ele><time>2026-04-11T18:34:03Z</time></trkpt><trkpt lat="43.12917940219855" lon="11.727963421391"><ele>509.99999999999994</ele><time>2026-04-11T18:34:06Z</time></trkpt><trkpt lat="43.129247090130605" lon="11.727949966179054"><ele>511.0</ele><time>2026-04-11T18:34:08Z</time></trkpt><trkpt lat="43.12931831578314" lon="11.72793940792255"><ele>512.0</ele><time>2026-04-11T18:34:11Z</time></trkpt><trkpt lat="43.129385909782854" lon="11.727948683812864"><ele>513.0</ele><time>2026-04-11T18:34:14Z</time></trkpt><trkpt lat="43.12949300408094" lon="11.727970700809465"><ele>514.0</ele><time>2026-04-11T18:34:31Z</time></trkpt><trkpt lat="43.12957907321278" lon="11.727960736799766"><ele>515.0</ele><time>2026-04-11T18:34:36Z</time></trkpt><trkpt lat="43.12967236356527" lon="11.727949144728388"><ele>515.0</ele><time>2026-04-11T18:34:39Z</time></trkpt><trkpt lat="43.1297594633845" lon="11.727967342527217"><ele>515.0</ele><time>2026-04-11T18:34:41Z</time></trkpt><trkpt lat="43.129838445045934" lon="11.727987734638788"><ele>515.0</ele><time>2026-04-11T18:34:43Z</time></trkpt><trkpt lat="43.12991452046514" lon="11.728014281412895"><ele>515.0</ele><time>2026-04-11T18:34:45Z</time></trkpt><trkpt lat="43.129990310804125" lon="11.72802232302619"><ele>515.0</ele><time>2026-04-11T18:34:47Z</time></trkpt><trkpt lat="43.13005830776982" lon="11.728042294269926"><ele>515.0</ele><time>2026-04-11T18:34:49Z</time></trkpt><trkpt lat="43.130148198308696" lon="11.728061371718967"><ele>514.5</ele><time>2026-04-11T18:34:52Z</time></trkpt><trkpt lat="43.13021607325543" lon="11.728080755057793"><ele>514.0</ele><time>2026-04-11T18:34:54Z</time></trkpt><trkpt lat="43.1247586854281" lon="11.724185532964803"><ele>510.71428571428567</ele><time>2026-04-11T18:30:56Z</time></trkpt><trkpt lat="43.124829525357505" lon="11.724202516873738"><ele>507.42857142857144</ele><time>2026-04-11T18:31:00Z</time></trkpt><trkpt lat="43.12490889185319" lon="11.724215812979772"><ele>504.1428571428571</ele><time>2026-04-11T18:31:04Z</time></trkpt><trkpt lat="43.12498703900146" lon="11.72423194736833"><ele>500.85714285714283</ele><time>2026-04-11T18:31:08Z</time></trkpt><trkpt lat="43.12504940294767" lon="11.724254453521187"><ele>497.57142857142856</ele><time>2026-04-11T18:31:11Z</time></trkpt><trkpt lat="43.1251103929523" lon="11.724278694741985"><ele>494.2857142857143</ele><time>2026-04-11T18:31:14Z</time></trkpt><trkpt lat="43.12517154454068" lon="11.724304046796037"><ele>491.0</ele><time>2026-04-11T18:31:17Z</time></trkpt><trkpt lat="43.125230364152934" lon="11.724336659945898"><ele>490.99999999999994</ele><time>2026-04-11T18:31:20Z</time></trkpt><trkpt lat="43.125305121297366" lon="11.724382179650853"><ele>491.0</ele><time>2026-04-11T18:31:24Z</time></trkpt><trkpt lat="43.12536173850785" lon="11.72444030182981"><ele>491.0</ele><time>2026-04-11T18:31:27Z</time></trkpt><trkpt lat="43.12542023732786" lon="11.724504919357763"><ele>491.0</ele><time>2026-04-11T18:31:30Z</time></trkpt><trkpt lat="43.12548608557081" lon="11.724567054809585"><ele>490.99999999999994</ele><time>2026-04-11T18:31:34Z</time></trkpt><trkpt lat="43.12555314326496" lon="11.7246377216512"><ele>491.0</ele><time>2026-04-11T18:31:38Z</time></trkpt><trkpt lat="43.12562125056929" lon="11.724705878850223"><ele>491.49999999999994</ele><time>2026-04-11T18:31:42Z</time></trkpt><trkpt lat="43.125688106598034" lon="11.724762405772717"><ele>492.0</ele><time>2026-04-11T18:31:46Z</time></trkpt><trkpt lat="43.125753169859884" lon="11.724834682041973"><ele>492.5</ele><time>2026-04-11T18:31:50Z</time></trkpt><trkpt lat="43.125822601207595" lon="11.724897128268776"><ele>493.0</ele><time>2026-04-11T18:31:54Z</time></trkpt><trkpt lat="43.12589449481359" lon="11.724939528546093"><ele>493.49999999999994</ele><time>2026-04-11T18:31:58Z</time></trkpt><trkpt lat="43.12595444840461" lon="11.724972630040682"><ele>494.0</ele><time>2026-04-11T18:32:01Z</time></trkpt><trkpt lat="43.12601939364772" lon="11.725040510672564"><ele>494.66666666666663</ele><time>2026-04-11T18:32:04Z</time></trkpt><trkpt lat="43.126106752414685" lon="11.725106497663349"><ele>495.3333333333333</ele><time>2026-04-11T18:32:06Z</time></trkpt><trkpt lat="43.12617529613875" lon="11.725159289816428"><ele>496.0</ele><time>2026-04-11T18:32:08Z</time></trkpt><trkpt lat="43.12625466071197" lon="11.725191795067929"><ele>496.66666666666663</ele><time>2026-04-11T18:32:10Z</time></trkpt><trkpt lat="43.12633782378803" lon="11.725241884562603"><ele>497.3333333333333</ele><time>2026-04-11T18:32:13Z</time></trkpt><trkpt lat="43.12641881204602" lon="11.725285016130474"><ele>498.0</ele><time>2026-04-11T18:32:16Z</time></trkpt><trkpt lat="43.12649914500704" lon="11.725326311305523"><ele>499.1666666666667</ele><time>2026-04-11T18:32:19Z</time></trkpt><trkpt lat="43.12656866783733" lon="11.725405248643789"><ele>500.33333333333337</ele><time>2026-04-11T18:32:22Z</time></trkpt><trkpt lat="43.12664634006107" lon="11.725468413963009"><ele>501.5</ele><time>2026-04-11T18:32:25Z</time></trkpt><trkpt lat="43.12670857000895" lon="11.725509340943477"><ele>502.6666666666667</ele><time>2026-04-11T18:32:27Z</time></trkpt><trkpt lat="43.12676676243512" lon="11.725555181395533"><ele>503.83333333333337</ele><time>2026-04-11T18:32:28Z</time></trkpt><trkpt lat="43.12683834561838" lon="11.725591933858803"><ele>505.0</ele><time>2026-04-11T18:32:30Z</time></trkpt><trkpt lat="43.12691082138155" lon="11.72563437557187"><ele>505.00000000000006</ele><time>2026-04-11T18:32:32Z</time></trkpt><trkpt lat="43.12698623410408" lon="11.725676656776486"><ele>505.0</ele><time>2026-04-11T18:32:34Z</time></trkpt><trkpt lat="43.1270582954621" lon="11.725735032812807"><ele>505.0</ele><time>2026-04-11T18:32:36Z</time></trkpt><trkpt lat="43.12716587558309" lon="11.725776921455239"><ele>505.0</ele><time>2026-04-11T18:32:39Z</time></trkpt><trkpt lat="43.12724713127956" lon="11.725816500931646"><ele>505.00000000000006</ele><time>2026-04-11T18:32:41Z</time></trkpt><trkpt lat="43.12732377316277" lon="11.725870201514164"><ele>505.0</ele><time>2026-04-11T18:32:43Z</time></trkpt><trkpt lat="43.12739231738187" lon="11.72591598551203"><ele>504.1666666666667</ele><time>2026-04-11T18:32:45Z</time></trkpt><trkpt lat="43.127450303604235" lon="11.725955292282652"><ele>503.33333333333337</ele><time>2026-04-11T18:32:47Z</time></trkpt><trkpt lat="43.1275183708505" lon="11.725993138319884"><ele>502.5</ele><time>2026-04-11T18:32:49Z</time></trkpt><trkpt lat="43.12758938167127" lon="11.726038329701309"><ele>501.66666666666663</ele><time>2026-04-11T18:32:51Z</time></trkpt><trkpt lat="43.12766713036072" lon="11.726096069904635"><ele>500.8333333333333</ele><time>2026-04-11T18:32:53Z</time></trkpt><trkpt lat="43.12774099827104" lon="11.726162011643579"><ele>500.0</ele><time>2026-04-11T18:32:55Z</time></trkpt><trkpt lat="43.12781718075074" lon="11.726225899013738"><ele>499.8</ele><time>2026-04-11T18:32:57Z</time></trkpt><trkpt lat="43.12789269806735" lon="11.726290663231792"><ele>499.6</ele><time>2026-04-11T18:32:59Z</time></trkpt><trkpt lat="43.12796204631796" lon="11.726375629486736"><ele>499.4</ele><time>2026-04-11T18:33:01Z</time></trkpt><trkpt lat="43.12802599213414" lon="11.726463109823365"><ele>499.2</ele><time>2026-04-11T18:33:03Z</time></trkpt><trkpt lat="43.128086977891996" lon="11.7265523945672"><ele>499.0</ele><time>2026-04-11T18:33:05Z</time></trkpt><trkpt lat="43.12814026544363" lon="11.726662753203357"><ele>499.00000000000006</ele><time>2026-04-11T18:33:07Z</time></trkpt><trkpt lat="43.12818234118012" lon="11.726785009174135"><ele>499.0</ele><time>2026-04-11T18:33:09Z</time></trkpt><trkpt lat="43.128211081302524" lon="11.726872589649574"><ele>499.0</ele><time>2026-04-11T18:33:11Z</time></trkpt><trkpt lat="43.12821508978279" lon="11.726978967514759"><ele>499.0</ele><time>2026-04-11T18:33:14Z</time></trkpt><trkpt lat="43.12824404652348" lon="11.727096814180165"><ele>499.00000000000006</ele><time>2026-04-11T18:33:17Z</time></trkpt><trkpt lat="43.12825652971437" lon="11.727215039539457"><ele>499.0</ele><time>2026-04-11T18:33:20Z</time></trkpt><trkpt lat="43.12827140596192" lon="11.727334630162947"><ele>500.00000000000006</ele><time>2026-04-11T18:33:23Z</time></trkpt><trkpt lat="43.128287005503296" lon="11.727451015659769"><ele>501.0</ele><time>2026-04-11T18:33:26Z</time></trkpt><trkpt lat="43.128312475580266" lon="11.72757262009158"><ele>502.0</ele><time>2026-04-11T18:33:29Z</time></trkpt><trkpt lat="43.12833406249962" lon="11.72768273444184"><ele>503.0</ele><time>2026-04-11T18:33:32Z</time></trkpt><trkpt lat="43.12836890098628" lon="11.727783793287312"><ele>504.00000000000006</ele><time>2026-04-11T18:33:35Z</time></trkpt><trkpt lat="43.12840237998243" lon="11.727880121160517"><ele>505.0</ele><time>2026-04-11T18:33:38Z</time></trkpt><trkpt lat="43.128452240681796" lon="11.727942579176927"><ele>505.6666666666667</ele><time>2026-04-11T18:33:41Z</time></trkpt><trkpt lat="43.12854547503123" lon="11.72798801331224"><ele>506.33333333333337</ele><time>2026-04-11T18:33:44Z</time></trkpt><trkpt lat="43.12862448837241" lon="11.728008070230164"><ele>507.0</ele><time>2026-04-11T18:33:47Z</time></trkpt><trkpt lat="43.12871063364616" lon="11.728022757019625"><ele>507.66666666666663</ele><time>2026-04-11T18:33:50Z</time></trkpt><trkpt lat="43.12877372030692" lon="11.728021764901474"><ele>508.3333333333333</ele><time>2026-04-11T18:33:52Z</time></trkpt><trkpt lat="43.12885537810391" lon="11.728014203796715"><ele>509.0</ele><time>2026-04-11T18:33:55Z</time></trkpt><trkpt lat="43.12893975963125" lon="11.727997376486401"><ele>508.99999999999994</ele><time>2026-04-11T18:33:58Z</time></trkpt><trkpt lat="43.12901690869937" lon="11.72798726557001"><ele>509.0</ele><time>2026-04-11T18:34:00Z</time></trkpt><trkpt lat="43.12909717635909" lon="11.727973726201876"><ele>508.99999999999994</ele><time>2026-04-11T18:34:03Z</time></trkpt><trkpt lat="43.12917940219855" lon="11.727963421391"><ele>508.99999999999994</ele><time>2026-04-11T18:34:06Z</time></trkpt><trkpt lat="43.129247090130605" lon="11.727949966179054"><ele>509.0</ele><time>2026-04-11T18:34:08Z</time></trkpt><trkpt lat="43.12931831578314" lon="11.72793940792255"><ele>508.99999999999994</ele><time>2026-04-11T18:34:11Z</time></trkpt><trkpt lat="43.129385909782854" lon="11.727948683812864"><ele>508.99999999999994</ele><time>2026-04-11T18:34:14Z</time></trkpt><trkpt lat="43.12949300408094" lon="11.727970700809465"><ele>509.8333333333333</ele><time>2026-04-11T18:34:31Z</time></trkpt><trkpt lat="43.12957907321278" lon="11.727960736799766"><ele>510.66666666666663</ele><time>2026-04-11T18:34:36Z</time></trkpt><trkpt lat="43.12967236356527" lon="11.727949144728388"><ele>511.5</ele><time>2026-04-11T18:34:39Z</time></trkpt><trkpt lat="43.1297594633845" lon="11.727967342527217"><ele>512.3333333333334</ele><time>2026-04-11T18:34:41Z</time></trkpt><trkpt lat="43.129838445045934" lon="11.727987734638788"><ele>513.1666666666667</ele><time>2026-04-11T18:34:43Z</time></trkpt><trkpt lat="43.12991452046514" lon="11.728014281412895"><ele>514.0</ele><time>2026-04-11T18:34:45Z</time></trkpt><trkpt lat="43.129990310804125" lon="11.72802232302619"><ele>514.0</ele><time>2026-04-11T18:34:47Z</time></trkpt><trkpt lat="43.13005830776982" lon="11.728042294269926"><ele>514.0</ele><time>2026-04-11T18:34:49Z</time></trkpt><trkpt lat="43.130148198308696" lon="11.728061371718967"><ele>514.0</ele><time>2026-04-11T18:34:52Z</time></trkpt><trkpt lat="43.13021607325543" lon="11.728080755057793"><ele>514.0</ele><time>2026-04-11T18:34:54Z</time></trkpt><trkpt lat="43.13028876313382" lon="11.728095144877098"><ele>514.0</ele><time>2026-04-11T18:34:56Z</time></trkpt><trkpt lat="43.13035987087477" lon="11.728111688736442"><ele>514.0</ele><time>2026-04-11T18:34:58Z</time></trkpt><trkpt lat="43.13043353209661" lon="11.728135596992828"><ele>514.0</ele><time>2026-04-11T18:35:00Z</time></trkpt><trkpt lat="43.130505802132426" lon="11.728152328776515"><ele>514.0</ele><time>2026-04-11T18:35:02Z</time></trkpt><trkpt lat="43.13058067936917" lon="11.728170359197406"><ele>514.0</ele><time>2026-04-11T18:35:04Z</time></trkpt><trkpt lat="43.13065139169361" lon="11.728188303692574"><ele>514.0</ele><time>2026-04-11T18:35:06Z</time></trkpt><trkpt lat="43.13071898605561" lon="11.72821101343798"><ele>514.0</ele><time>2026-04-11T18:35:08Z</time></trkpt><trkpt lat="43.13078541860418" lon="11.728234889187558"><ele>514.0</ele><time>2026-04-11T18:35:10Z</time></trkpt><trkpt lat="43.13085261290916" lon="11.728263087486816"><ele>514.0</ele><time>2026-04-11T18:35:13Z</time></trkpt><trkpt lat="43.13092076266598" lon="11.72830621639974"><ele>515.5</ele><time>2026-04-11T18:35:16Z</time></trkpt><trkpt lat="43.13098386874079" lon="11.72837743263604"><ele>517.0</ele><time>2026-04-11T18:35:19Z</time></trkpt><trkpt lat="43.13104535984595" lon="11.728454690336397"><ele>518.5</ele><time>2026-04-11T18:35:22Z</time></trkpt><trkpt lat="43.13111292035826" lon="11.72854485682414"><ele>520.0</ele><time>2026-04-11T18:35:25Z</time></trkpt><trkpt lat="43.131286340249574" lon="11.728701366516788"><ele>520.2</ele><time>2026-04-11T18:35:26Z</time></trkpt><trkpt lat="43.131347917514" lon="11.728767328108821"><ele>520.4</ele><time>2026-04-11T18:35:28Z</time></trkpt><trkpt lat="43.131422625372984" lon="11.728826018733029"><ele>520.6</ele><time>2026-04-11T18:35:30Z</time></trkpt><trkpt lat="43.13148316650431" lon="11.72893212517529"><ele>520.8</ele><time>2026-04-11T18:35:32Z</time></trkpt><trkpt lat="43.13156159155637" lon="11.7290197592892"><ele>521.0</ele><time>2026-04-11T18:35:34Z</time></trkpt><trkpt lat="43.131654917481185" lon="11.729116513540248"><ele>521.0</ele><time>2026-04-11T18:35:36Z</time></trkpt><trkpt lat="43.13171367192119" lon="11.729148104072657"><ele>521.0</ele><time>2026-04-11T18:35:37Z</time></trkpt><trkpt lat="43.1318278555485" lon="11.729229116028485"><ele>521.0</ele><time>2026-04-11T18:35:39Z</time></trkpt><trkpt lat="43.1318926423828" lon="11.729257438396019"><ele>521.0</ele><time>2026-04-11T18:35:40Z</time></trkpt><trkpt lat="43.13195755869373" lon="11.729293131005717"><ele>521.0</ele><time>2026-04-11T18:35:41Z</time></trkpt><trkpt lat="43.13202734178729" lon="11.729331748667827"><ele>521.0</ele><time>2026-04-11T18:35:42Z</time></trkpt><trkpt lat="43.13209556224349" lon="11.729367080095404"><ele>521.1428571428571</ele><time>2026-04-11T18:35:43Z</time></trkpt><trkpt lat="43.132168126874" lon="11.729415433193445"><ele>521.2857142857143</ele><time>2026-04-11T18:35:44Z</time></trkpt><trkpt lat="43.132234421287905" lon="11.729469414801624"><ele>521.4285714285714</ele><time>2026-04-11T18:35:45Z</time></trkpt><trkpt lat="43.132298088352506" lon="11.729488917763867"><ele>521.5714285714286</ele><time>2026-04-11T18:35:46Z</time></trkpt><trkpt lat="43.13237005127673" lon="11.729548005477072"><ele>521.7142857142857</ele><time>2026-04-11T18:35:47Z</time></trkpt><trkpt lat="43.13243429919583" lon="11.729603897342992"><ele>521.8571428571429</ele><time>2026-04-11T18:35:48Z</time></trkpt><trkpt lat="43.13248515267383" lon="11.729661465784208"><ele>522.0</ele><time>2026-04-11T18:35:49Z</time></trkpt><trkpt lat="43.13254698588297" lon="11.729723361749285"><ele>521.5</ele><time>2026-04-11T18:35:50Z</time></trkpt><trkpt lat="43.13261163671662" lon="11.729779814021953"><ele>521.0</ele><time>2026-04-11T18:35:51Z</time></trkpt><trkpt lat="43.132676758728586" lon="11.729840414467008"><ele>520.5</ele><time>2026-04-11T18:35:52Z</time></trkpt><trkpt lat="43.13274515969892" lon="11.729890336911872"><ele>520.0</ele><time>2026-04-11T18:35:53Z</time></trkpt><trkpt lat="43.13281793915447" lon="11.729936006952249"><ele>519.5</ele><time>2026-04-11T18:35:54Z</time></trkpt><trkpt lat="43.13289618812716" lon="11.729972714388554"><ele>519.0</ele><time>2026-04-11T18:35:55Z</time></trkpt><trkpt lat="43.13298109724432" lon="11.729984019243682"><ele>519.0</ele><time>2026-04-11T18:35:56Z</time></trkpt><trkpt lat="43.133065046116336" lon="11.729974824075594"><ele>519.0</ele><time>2026-04-11T18:35:57Z</time></trkpt><trkpt lat="43.133151100947345" lon="11.729954823367143"><ele>519.0</ele><time>2026-04-11T18:35:58Z</time></trkpt><trkpt lat="43.133225916036196" lon="11.729925123125415"><ele>519.0</ele><time>2026-04-11T18:35:59Z</time></trkpt><trkpt lat="43.133301064117674" lon="11.729885408488402"><ele>519.0</ele><time>2026-04-11T18:36:00Z</time></trkpt><trkpt lat="43.133375880554" lon="11.72982543267091"><ele>519.0</ele><time>2026-04-11T18:36:01Z</time></trkpt><trkpt lat="43.133449673075695" lon="11.729774875325415"><ele>517.8333333333334</ele><time>2026-04-11T18:36:02Z</time></trkpt><trkpt lat="43.133527391297264" lon="11.729734795578436"><ele>516.6666666666666</ele><time>2026-04-11T18:36:03Z</time></trkpt><trkpt lat="43.13360455714686" lon="11.729693430185003"><ele>515.5</ele><time>2026-04-11T18:36:04Z</time></trkpt><trkpt lat="43.13368300090465" lon="11.72965698742804"><ele>514.3333333333333</ele><time>2026-04-11T18:36:05Z</time></trkpt><trkpt lat="43.133761643309406" lon="11.729623223983397"><ele>513.1666666666666</ele><time>2026-04-11T18:36:06Z</time></trkpt><trkpt lat="43.133828539261664" lon="11.729600159075295"><ele>512.0</ele><time>2026-04-11T18:36:07Z</time></trkpt><trkpt lat="43.133890794607694" lon="11.729580921644928"><ele>511.99999999999994</ele><time>2026-04-11T18:36:08Z</time></trkpt><trkpt lat="43.13399069005258" lon="11.729563144393984"><ele>512.0</ele><time>2026-04-11T18:36:10Z</time></trkpt><trkpt lat="43.134070306114175" lon="11.729546381094998"><ele>512.0</ele><time>2026-04-11T18:36:12Z</time></trkpt><trkpt lat="43.13415425099188" lon="11.729535315686332"><ele>512.0</ele><time>2026-04-11T18:36:14Z</time></trkpt><trkpt lat="43.13423466648142" lon="11.729554423801922"><ele>511.99999999999994</ele><time>2026-04-11T18:36:16Z</time></trkpt><trkpt lat="43.134311671485165" lon="11.729486431602362"><ele>512.0</ele><time>2026-04-11T18:36:18Z</time></trkpt><trkpt lat="43.13438339208931" lon="11.729445209762586"><ele>512.5</ele><time>2026-04-11T18:36:20Z</time></trkpt><trkpt lat="43.13444632396827" lon="11.72943650359298"><ele>513.0</ele><time>2026-04-11T18:36:22Z</time></trkpt><trkpt lat="43.13452850780264" lon="11.72942333524806"><ele>513.5</ele><time>2026-04-11T18:36:25Z</time></trkpt><trkpt lat="43.13460905761108" lon="11.729403568815842"><ele>514.0</ele><time>2026-04-11T18:36:28Z</time></trkpt><trkpt lat="43.13468907201806" lon="11.7294039739088"><ele>514.5</ele><time>2026-04-11T18:36:31Z</time></trkpt><trkpt lat="43.134776433814366" lon="11.729384082840658"><ele>515.0</ele><time>2026-04-11T18:36:35Z</time></trkpt><trkpt lat="43.13485865495906" lon="11.729371306066017"><ele>515.3333333333333</ele><time>2026-04-11T18:36:39Z</time></trkpt><trkpt lat="43.13494304132085" lon="11.729362181731796"><ele>515.6666666666666</ele><time>2026-04-11T18:36:42Z</time></trkpt><trkpt lat="43.13501938054481" lon="11.729352454571044"><ele>516.0</ele><time>2026-04-11T18:36:45Z</time></trkpt><trkpt lat="43.13509925408889" lon="11.729344056846593"><ele>516.3333333333334</ele><time>2026-04-11T18:36:48Z</time></trkpt><trkpt lat="43.13518039593418" lon="11.729342199256838"><ele>516.6666666666667</ele><time>2026-04-11T18:36:51Z</time></trkpt><trkpt lat="43.13526231438275" lon="11.729347064765346"><ele>517.0</ele><time>2026-04-11T18:36:54Z</time></trkpt><trkpt lat="43.13533204422238" lon="11.729344325807316"><ele>517.0</ele><time>2026-04-11T18:36:57Z</time></trkpt><trkpt lat="43.13540101553847" lon="11.72932449595078"><ele>517.0</ele><time>2026-04-11T18:37:00Z</time></trkpt><trkpt lat="43.13546406436164" lon="11.729312020251632"><ele>517.0</ele><time>2026-04-11T18:37:03Z</time></trkpt><trkpt lat="43.135536221009225" lon="11.729304481760346"><ele>517.0</ele><time>2026-04-11T18:37:07Z</time></trkpt><trkpt lat="43.135616452662525" lon="11.729302426887417"><ele>517.0</ele><time>2026-04-11T18:37:11Z</time></trkpt><trkpt lat="43.135679489127824" lon="11.729300718511427"><ele>517.0</ele><time>2026-04-11T18:37:14Z</time></trkpt><trkpt lat="43.13574634296986" lon="11.729290705182198"><ele>517.0</ele><time>2026-04-11T18:37:17Z</time></trkpt><trkpt lat="43.135812018466964" lon="11.729266365512396"><ele>518.3333333333334</ele><time>2026-04-11T18:37:20Z</time></trkpt><trkpt lat="43.13588683594193" lon="11.729264600629133"><ele>519.6666666666667</ele><time>2026-04-11T18:37:23Z</time></trkpt><trkpt lat="43.13595381391797" lon="11.729237288303345"><ele>521.0</ele><time>2026-04-11T18:37:26Z</time></trkpt><trkpt lat="43.13602664332767" lon="11.729217776209985"><ele>522.3333333333334</ele><time>2026-04-11T18:37:29Z</time></trkpt><trkpt lat="43.136106239187" lon="11.72918937237848"><ele>523.6666666666666</ele><time>2026-04-11T18:37:32Z</time></trkpt><trkpt lat="43.13618217505612" lon="11.729158995585127"><ele>525.0</ele><time>2026-04-11T18:37:35Z</time></trkpt><trkpt lat="43.136264864120065" lon="11.729129237576526"><ele>525.0</ele><time>2026-04-11T18:37:38Z</time></trkpt><trkpt lat="43.136348231660385" lon="11.72909499772429"><ele>525.0</ele><time>2026-04-11T18:37:41Z</time></trkpt><trkpt lat="43.13643548065788" lon="11.72907380401788"><ele>525.0</ele><time>2026-04-11T18:37:44Z</time></trkpt><trkpt lat="43.13651596274233" lon="11.72904185915047"><ele>525.0</ele><time>2026-04-11T18:37:47Z</time></trkpt><trkpt lat="43.13659421616522" lon="11.729013830609743"><ele>525.0</ele><time>2026-04-11T18:37:50Z</time></trkpt><trkpt lat="43.136670954016004" lon="11.728993040356666"><ele>525.0</ele><time>2026-04-11T18:37:53Z</time></trkpt><trkpt lat="43.13674933721369" lon="11.728973311540427"><ele>525.8333333333334</ele><time>2026-04-11T18:37:56Z</time></trkpt><trkpt lat="43.13682585666024" lon="11.728939970035466"><ele>526.6666666666666</ele><time>2026-04-11T18:37:59Z</time></trkpt><trkpt lat="43.13690578750463" lon="11.7289083096164"><ele>527.5</ele><time>2026-04-11T18:38:02Z</time></trkpt><trkpt lat="43.136986467740904" lon="11.728874676888859"><ele>528.3333333333333</ele><time>2026-04-11T18:38:05Z</time></trkpt><trkpt lat="43.13706224991895" lon="11.72883678603068"><ele>529.1666666666666</ele><time>2026-04-11T18:38:08Z</time></trkpt><trkpt lat="43.13713847459951" lon="11.728800677568122"><ele>530.0</ele><time>2026-04-11T18:38:11Z</time></trkpt><trkpt lat="43.137214034397594" lon="11.728766092434604"><ele>530.0</ele><time>2026-04-11T18:38:14Z</time></trkpt><trkpt lat="43.1372950424822" lon="11.728753678312792"><ele>530.0</ele><time>2026-04-11T18:38:16Z</time></trkpt><trkpt lat="43.137385246067396" lon="11.728752558266528"><ele>530.0</ele><time>2026-04-11T18:38:18Z</time></trkpt><trkpt lat="43.13746492448188" lon="11.7287548700859"><ele>530.0</ele><time>2026-04-11T18:38:20Z</time></trkpt><trkpt lat="43.137543181388374" lon="11.72877603352826"><ele>530.0</ele><time>2026-04-11T18:38:22Z</time></trkpt><trkpt lat="43.13760971905353" lon="11.72879315145909"><ele>530.0</ele><time>2026-04-11T18:38:24Z</time></trkpt><trkpt lat="43.13767389424326" lon="11.728814450831202"><ele>529.9999999999999</ele><time>2026-04-11T18:38:26Z</time></trkpt><trkpt lat="43.13775260350782" lon="11.7288478052206"><ele>530.0</ele><time>2026-04-11T18:38:29Z</time></trkpt><trkpt lat="43.13781801235069" lon="11.728848344353556"><ele>530.0</ele><time>2026-04-11T18:38:32Z</time></trkpt><trkpt lat="43.13789593707966" lon="11.728863606042678"><ele>530.0</ele><time>2026-04-11T18:38:36Z</time></trkpt><trkpt lat="43.137968747988694" lon="11.728852406645037"><ele>530.0</ele><time>2026-04-11T18:38:39Z</time></trkpt><trkpt lat="43.13803881912374" lon="11.728840427747452"><ele>529.9999999999999</ele><time>2026-04-11T18:38:42Z</time></trkpt><trkpt lat="43.13811057950869" lon="11.728829980350884"><ele>530.0</ele><time>2026-04-11T18:38:45Z</time></trkpt><trkpt lat="43.13818963964553" lon="11.728808753217114"><ele>530.5</ele><time>2026-04-11T18:38:48Z</time></trkpt><trkpt lat="43.13827019319576" lon="11.728783415646104"><ele>531.0</ele><time>2026-04-11T18:38:51Z</time></trkpt><trkpt lat="43.13833830870679" lon="11.728770882201504"><ele>531.5</ele><time>2026-04-11T18:38:54Z</time></trkpt><trkpt lat="43.13841095504431" lon="11.728742067350707"><ele>532.0</ele><time>2026-04-11T18:38:57Z</time></trkpt><trkpt lat="43.138485057230326" lon="11.728710418195218"><ele>532.5</ele><time>2026-04-11T18:39:00Z</time></trkpt><trkpt lat="43.13855752225115" lon="11.72867829047368"><ele>533.0</ele><time>2026-04-11T18:39:03Z</time></trkpt><trkpt lat="43.138630950078465" lon="11.728636180596887"><ele>533.0</ele><time>2026-04-11T18:39:06Z</time></trkpt><trkpt lat="43.138696167205616" lon="11.728593989084198"><ele>533.0</ele><time>2026-04-11T18:39:09Z</time></trkpt><trkpt lat="43.138768355840135" lon="11.7285361621229"><ele>533.0</ele><time>2026-04-11T18:39:12Z</time></trkpt><trkpt lat="43.138848563145956" lon="11.728471345435793"><ele>533.0</ele><time>2026-04-11T18:39:15Z</time></trkpt><trkpt lat="43.13891169471251" lon="11.72842745470012"><ele>533.0</ele><time>2026-04-11T18:39:17Z</time></trkpt><trkpt lat="43.13898177700592" lon="11.728378843484851"><ele>533.0</ele><time>2026-04-11T18:39:18Z</time></trkpt><trkpt lat="43.13905934263203" lon="11.728345304697566"><ele>533.8333333333333</ele><time>2026-04-11T18:39:20Z</time></trkpt><trkpt lat="43.13912850584192" lon="11.728309911186042"><ele>534.6666666666666</ele><time>2026-04-11T18:39:22Z</time></trkpt><trkpt lat="43.139198841310204" lon="11.72827287285105"><ele>535.5</ele><time>2026-04-11T18:39:24Z</time></trkpt><trkpt lat="43.13928078011832" lon="11.728228108847011"><ele>536.3333333333334</ele><time>2026-04-11T18:39:26Z</time></trkpt><trkpt lat="43.13935582874619" lon="11.728182904243955"><ele>537.1666666666667</ele><time>2026-04-11T18:39:28Z</time></trkpt><trkpt lat="43.139438582694645" lon="11.728146967730558"><ele>538.0</ele><time>2026-04-11T18:39:30Z</time></trkpt><trkpt lat="43.139521557136256" lon="11.728112993199039"><ele>538.0</ele><time>2026-04-11T18:39:32Z</time></trkpt><trkpt lat="43.139603295241756" lon="11.728084912028406"><ele>538.0</ele><time>2026-04-11T18:39:34Z</time></trkpt><trkpt lat="43.13966811243207" lon="11.728062547465626"><ele>538.0</ele><time>2026-04-11T18:39:36Z</time></trkpt><trkpt lat="43.13976091543165" lon="11.728041256080576"><ele>538.0</ele><time>2026-04-11T18:39:39Z</time></trkpt><trkpt lat="43.13984229067081" lon="11.728037035099286"><ele>538.0</ele><time>2026-04-11T18:39:42Z</time></trkpt><trkpt lat="43.13993333417844" lon="11.728033677133098"><ele>538.0</ele><time>2026-04-11T18:39:45Z</time></trkpt><trkpt lat="43.140008087462945" lon="11.728019204926277"><ele>538.4285714285714</ele><time>2026-04-11T18:39:49Z</time></trkpt><trkpt lat="43.140072382412974" lon="11.728013301027463"><ele>538.8571428571429</ele><time>2026-04-11T18:39:52Z</time></trkpt><trkpt lat="43.14014118403237" lon="11.72801013126111"><ele>539.2857142857143</ele><time>2026-04-11T18:39:55Z</time></trkpt><trkpt lat="43.140210583125224" lon="11.727994837024344"><ele>539.7142857142858</ele><time>2026-04-11T18:39:58Z</time></trkpt><trkpt lat="43.14028129643546" lon="11.727987783877273"><ele>540.1428571428571</ele><time>2026-04-11T18:40:01Z</time></trkpt><trkpt lat="43.14034849318488" lon="11.727987730487133"><ele>540.5714285714287</ele><time>2026-04-11T18:40:04Z</time></trkpt><trkpt lat="43.14042170937626" lon="11.727958609452491"><ele>541.0</ele><time>2026-04-11T18:40:07Z</time></trkpt><trkpt lat="43.14048751445316" lon="11.72792148746359"><ele>541.0</ele><time>2026-04-11T18:40:10Z</time></trkpt><trkpt lat="43.14056671670859" lon="11.727894735437395"><ele>541.0</ele><time>2026-04-11T18:40:13Z</time></trkpt><trkpt lat="43.14064688597375" lon="11.727870850992394"><ele>541.0</ele><time>2026-04-11T18:40:16Z</time></trkpt><trkpt lat="43.140721054378986" lon="11.727837883807146"><ele>541.0</ele><time>2026-04-11T18:40:19Z</time></trkpt><trkpt lat="43.14079255915937" lon="11.727812430804004"><ele>541.0</ele><time>2026-04-11T18:40:22Z</time></trkpt><trkpt lat="43.14087330323678" lon="11.727778365106827"><ele>541.0</ele><time>2026-04-11T18:40:25Z</time></trkpt><trkpt lat="43.14095525311953" lon="11.727739179462537"><ele>541.8333333333334</ele><time>2026-04-11T18:40:28Z</time></trkpt><trkpt lat="43.14103688482595" lon="11.72769839000806"><ele>542.6666666666667</ele><time>2026-04-11T18:40:31Z</time></trkpt><trkpt lat="43.14110459314094" lon="11.727662285618951"><ele>543.5</ele><time>2026-04-11T18:40:34Z</time></trkpt><trkpt lat="43.141174118723704" lon="11.727619603349389"><ele>544.3333333333334</ele><time>2026-04-11T18:40:37Z</time></trkpt><trkpt lat="43.14124226159609" lon="11.727588292913648"><ele>545.1666666666666</ele><time>2026-04-11T18:40:39Z</time></trkpt><trkpt lat="43.141324800376154" lon="11.727538581026838"><ele>546.0</ele><time>2026-04-11T18:40:42Z</time></trkpt><trkpt lat="43.14141690239952" lon="11.72748607688518"><ele>546.0</ele><time>2026-04-11T18:40:45Z</time></trkpt><trkpt lat="43.14151243659957" lon="11.727444641697103"><ele>546.0</ele><time>2026-04-11T18:40:48Z</time></trkpt><trkpt lat="43.14159161227483" lon="11.727406540319542"><ele>546.0</ele><time>2026-04-11T18:40:50Z</time></trkpt><trkpt lat="43.141691279237065" lon="11.727347796256835"><ele>546.0</ele><time>2026-04-11T18:40:53Z</time></trkpt><trkpt lat="43.141792455409444" lon="11.727298379987706"><ele>546.0</ele><time>2026-04-11T18:40:55Z</time></trkpt><trkpt lat="43.14186040546492" lon="11.727271677220902"><ele>546.8</ele><time>2026-04-11T18:40:58Z</time></trkpt><trkpt lat="43.14192375476445" lon="11.727236957682203"><ele>547.6</ele><time>2026-04-11T18:41:00Z</time></trkpt><trkpt lat="43.14199841881654" lon="11.727200382650349"><ele>548.4</ele><time>2026-04-11T18:41:02Z</time></trkpt><trkpt lat="43.14207701421843" lon="11.72715140248626"><ele>549.2</ele><time>2026-04-11T18:41:05Z</time></trkpt><trkpt lat="43.14214243061593" lon="11.727123732444573"><ele>550.0</ele><time>2026-04-11T18:41:07Z</time></trkpt><trkpt lat="43.14240007494535" lon="11.727014437827496"><ele>549.8333333333334</ele><time>2026-04-11T18:41:09Z</time></trkpt><trkpt lat="43.14246698571519" lon="11.72697226996709"><ele>549.6666666666667</ele><time>2026-04-11T18:41:11Z</time></trkpt><trkpt lat="43.1425379794672" lon="11.726955056864213"><ele>549.5</ele><time>2026-04-11T18:41:13Z</time></trkpt><trkpt lat="43.1426113496942" lon="11.726916924533677"><ele>549.3333333333334</ele><time>2026-04-11T18:41:15Z</time></trkpt><trkpt lat="43.142697068354735" lon="11.726882552962286"><ele>549.1666666666666</ele><time>2026-04-11T18:41:17Z</time></trkpt><trkpt lat="43.14278439961155" lon="11.726834029477736"><ele>549.0</ele><time>2026-04-11T18:41:19Z</time></trkpt><trkpt lat="43.14289222500772" lon="11.726790596620193"><ele>549.0</ele><time>2026-04-11T18:41:21Z</time></trkpt><trkpt lat="43.142999948255834" lon="11.726745245859084"><ele>549.0</ele><time>2026-04-11T18:41:23Z</time></trkpt><trkpt lat="43.14313511161413" lon="11.726690603753019"><ele>549.0</ele><time>2026-04-11T18:41:25Z</time></trkpt><trkpt lat="43.143204334117854" lon="11.726657281119909"><ele>549.0</ele><time>2026-04-11T18:41:26Z</time></trkpt><trkpt lat="43.14327012371001" lon="11.726620532049457"><ele>549.0</ele><time>2026-04-11T18:41:27Z</time></trkpt><trkpt lat="43.143340133043566" lon="11.726580239692616"><ele>549.1428571428571</ele><time>2026-04-11T18:41:28Z</time></trkpt><trkpt lat="43.14340845704781" lon="11.72653981483329"><ele>549.2857142857143</ele><time>2026-04-11T18:41:29Z</time></trkpt><trkpt lat="43.143478729378" lon="11.726507828733132"><ele>549.4285714285714</ele><time>2026-04-11T18:41:30Z</time></trkpt><trkpt lat="43.1435449191549" lon="11.726472344763815"><ele>549.5714285714286</ele><time>2026-04-11T18:41:31Z</time></trkpt><trkpt lat="43.14361481630507" lon="11.72643631597112"><ele>549.7142857142857</ele><time>2026-04-11T18:41:32Z</time></trkpt><trkpt lat="43.1436822595469" lon="11.7264052817108"><ele>549.8571428571429</ele><time>2026-04-11T18:41:33Z</time></trkpt><trkpt lat="43.14375868606742" lon="11.726392915879986"><ele>550.0</ele><time>2026-04-11T18:41:34Z</time></trkpt><trkpt lat="43.14382897890583" lon="11.72634532642366"><ele>550.0</ele><time>2026-04-11T18:41:35Z</time></trkpt><trkpt lat="43.14391822212858" lon="11.726323904307247"><ele>550.0</ele><time>2026-04-11T18:41:36Z</time></trkpt><trkpt lat="43.14399324347694" lon="11.726291343504988"><ele>550.0</ele><time>2026-04-11T18:41:37Z</time></trkpt><trkpt lat="43.144079661099624" lon="11.726261012462865"><ele>550.0</ele><time>2026-04-11T18:41:38Z</time></trkpt><trkpt lat="43.144156209782494" lon="11.726235011328464"><ele>550.0</ele><time>2026-04-11T18:41:39Z</time></trkpt><trkpt lat="43.14423145030438" lon="11.72619770776024"><ele>550.0</ele><time>2026-04-11T18:41:40Z</time></trkpt><trkpt lat="43.14430158898163" lon="11.726143520393634"><ele>549.5</ele><time>2026-04-11T18:41:41Z</time></trkpt><trkpt lat="43.14436782302754" lon="11.726079668280706"><ele>549.0</ele><time>2026-04-11T18:41:42Z</time></trkpt><trkpt lat="43.144430565982276" lon="11.726008576442497"><ele>548.5</ele><time>2026-04-11T18:41:43Z</time></trkpt><trkpt lat="43.1444935318732" lon="11.72592786697649"><ele>548.0</ele><time>2026-04-11T18:41:44Z</time></trkpt><trkpt lat="43.14456249935726" lon="11.725845255278834"><ele>547.5</ele><time>2026-04-11T18:41:45Z</time></trkpt><trkpt lat="43.14462512434402" lon="11.725765958127695"><ele>547.0</ele><time>2026-04-11T18:41:46Z</time></trkpt><trkpt lat="43.14468969215634" lon="11.725681889008756"><ele>546.6666666666667</ele><time>2026-04-11T18:41:47Z</time></trkpt><trkpt lat="43.14475620616088" lon="11.72560979378139"><ele>546.3333333333334</ele><time>2026-04-11T18:41:48Z</time></trkpt><trkpt lat="43.14482194094803" lon="11.72552824598749"><ele>546.0</ele><time>2026-04-11T18:41:49Z</time></trkpt><trkpt lat="43.14488782225026" lon="11.725449716225905"><ele>545.6666666666666</ele><time>2026-04-11T18:41:50Z</time></trkpt><trkpt lat="43.144956815656066" lon="11.725369883315826"><ele>545.3333333333333</ele><time>2026-04-11T18:41:51Z</time></trkpt><trkpt lat="43.14502476406135" lon="11.72529778266417"><ele>545.0</ele><time>2026-04-11T18:41:52Z</time></trkpt><trkpt lat="43.145091599168694" lon="11.725226428386994"><ele>543.1666666666666</ele><time>2026-04-11T18:41:53Z</time></trkpt><trkpt lat="43.145159472498165" lon="11.72515167934929"><ele>541.3333333333333</ele><time>2026-04-11T18:41:54Z</time></trkpt><trkpt lat="43.145222389127206" lon="11.725079328753475"><ele>539.5</ele><time>2026-04-11T18:41:55Z</time></trkpt><trkpt lat="43.14529196711829" lon="11.725007637740626"><ele>537.6666666666666</ele><time>2026-04-11T18:41:56Z</time></trkpt><trkpt lat="43.145358842644335" lon="11.724925954215943"><ele>535.8333333333334</ele><time>2026-04-11T18:41:57Z</time></trkpt><trkpt lat="43.14542643151844" lon="11.724848191498316"><ele>534.0</ele><time>2026-04-11T18:41:58Z</time></trkpt><trkpt lat="43.14549122269208" lon="11.724763262914445"><ele>534.0</ele><time>2026-04-11T18:41:59Z</time></trkpt><trkpt lat="43.14555730375204" lon="11.724680216372432"><ele>534.0</ele><time>2026-04-11T18:42:00Z</time></trkpt><trkpt lat="43.14561991219774" lon="11.72459777727892"><ele>534.0</ele><time>2026-04-11T18:42:01Z</time></trkpt><trkpt lat="43.1456804224075" lon="11.724517893738245"><ele>534.0</ele><time>2026-04-11T18:42:02Z</time></trkpt><trkpt lat="43.1457375265215" lon="11.72443417123456"><ele>534.0</ele><time>2026-04-11T18:42:03Z</time></trkpt><trkpt lat="43.14579423294593" lon="11.724350039597502"><ele>534.0</ele><time>2026-04-11T18:42:04Z</time></trkpt><trkpt lat="43.14585998702723" lon="11.724272123768841"><ele>533.0</ele><time>2026-04-11T18:42:05Z</time></trkpt><trkpt lat="43.14592428349794" lon="11.72419698262019"><ele>532.0</ele><time>2026-04-11T18:42:06Z</time></trkpt><trkpt lat="43.14599082238159" lon="11.72413239198085"><ele>531.0</ele><time>2026-04-11T18:42:07Z</time></trkpt><trkpt lat="43.14605836577779" lon="11.7240778778113"><ele>530.0</ele><time>2026-04-11T18:42:08Z</time></trkpt><trkpt lat="43.14612585639864" lon="11.72403038919164"><ele>529.0</ele><time>2026-04-11T18:42:09Z</time></trkpt><trkpt lat="43.14619257683627" lon="11.723983415863858"><ele>528.0</ele><time>2026-04-11T18:42:10Z</time></trkpt><trkpt lat="43.14626125980413" lon="11.723940324343063"><ele>528.0</ele><time>2026-04-11T18:42:11Z</time></trkpt><trkpt lat="43.14633029676781" lon="11.723907466245285"><ele>528.0</ele><time>2026-04-11T18:42:12Z</time></trkpt><trkpt lat="43.146398419689646" lon="11.723881452515064"><ele>528.0</ele><time>2026-04-11T18:42:13Z</time></trkpt><trkpt lat="43.146460954144864" lon="11.723853719976267"><ele>528.0</ele><time>2026-04-11T18:42:14Z</time></trkpt><trkpt lat="43.14657925952857" lon="11.723804780972126"><ele>528.0</ele><time>2026-04-11T18:42:16Z</time></trkpt><trkpt lat="43.146682337328194" lon="11.723759811723843"><ele>528.0</ele><time>2026-04-11T18:42:18Z</time></trkpt><trkpt lat="43.14676427917283" lon="11.723729027622436"><ele>527.8333333333334</ele><time>2026-04-11T18:42:20Z</time></trkpt><trkpt lat="43.14683106910117" lon="11.723696851510773"><ele>527.6666666666666</ele><time>2026-04-11T18:42:22Z</time></trkpt><trkpt lat="43.14689445751306" lon="11.72367025318022"><ele>527.5</ele><time>2026-04-11T18:42:24Z</time></trkpt><trkpt lat="43.14698555131578" lon="11.723637420491384"><ele>527.3333333333333</ele><time>2026-04-11T18:42:27Z</time></trkpt><trkpt lat="43.14706815799631" lon="11.723595376073696"><ele>527.1666666666666</ele><time>2026-04-11T18:42:30Z</time></trkpt><trkpt lat="43.147155505755244" lon="11.72353880959617"><ele>527.0</ele><time>2026-04-11T18:42:33Z</time></trkpt><trkpt lat="43.14721611561605" lon="11.723486868487202"><ele>527.0</ele><time>2026-04-11T18:42:35Z</time></trkpt><trkpt lat="43.147271791562034" lon="11.72342330242226"><ele>527.0</ele><time>2026-04-11T18:42:37Z</time></trkpt><trkpt lat="43.147318300222395" lon="11.723324083688633"><ele>527.0</ele><time>2026-04-11T18:42:41Z</time></trkpt><trkpt lat="43.147369639546454" lon="11.72317744550735"><ele>527.0</ele><time>2026-04-11T18:42:44Z</time></trkpt><trkpt lat="43.14738104027882" lon="11.723086381783869"><ele>527.0</ele><time>2026-04-11T18:42:46Z</time></trkpt><trkpt lat="43.14738379017404" lon="11.722995947535146"><ele>527.0</ele><time>2026-04-11T18:42:48Z</time></trkpt><trkpt lat="43.14737924243237" lon="11.722901725284839"><ele>527.0000000000001</ele><time>2026-04-11T18:42:50Z</time></trkpt><trkpt lat="43.147362126682516" lon="11.722810059778633"><ele>527.0</ele><time>2026-04-11T18:42:52Z</time></trkpt><trkpt lat="43.14734814539792" lon="11.722722090492544"><ele>527.0</ele><time>2026-04-11T18:42:54Z</time></trkpt><trkpt lat="43.147332533369976" lon="11.722622501308763"><ele>527.0</ele><time>2026-04-11T18:42:56Z</time></trkpt><trkpt lat="43.14731695174532" lon="11.722518022584232"><ele>527.0</ele><time>2026-04-11T18:42:58Z</time></trkpt><trkpt lat="43.147297632318434" lon="11.722423553105665"><ele>527.0000000000001</ele><time>2026-04-11T18:43:00Z</time></trkpt><trkpt lat="43.14728885136713" lon="11.722321992488446"><ele>527.0</ele><time>2026-04-11T18:43:02Z</time></trkpt><trkpt lat="43.14729238752676" lon="11.722219803635902"><ele>526.0</ele><time>2026-04-11T18:43:04Z</time></trkpt><trkpt lat="43.14729905062678" lon="11.722103299443177"><ele>525.0</ele><time>2026-04-11T18:43:06Z</time></trkpt><trkpt lat="43.147320133284744" lon="11.722000218151283"><ele>524.0</ele><time>2026-04-11T18:43:08Z</time></trkpt><trkpt lat="43.147356833986954" lon="11.721895606152323"><ele>523.0</ele><time>2026-04-11T18:43:10Z</time></trkpt><trkpt lat="43.14738912845661" lon="11.721780348827336"><ele>522.0</ele><time>2026-04-11T18:43:12Z</time></trkpt><trkpt lat="43.14743764479472" lon="11.721662765571839"><ele>521.0</ele><time>2026-04-11T18:43:14Z</time></trkpt><trkpt lat="43.14748481316591" lon="11.721536229854305"><ele>524.5</ele><time>2026-04-11T18:43:16Z</time></trkpt><trkpt lat="43.147534252835406" lon="11.721402044924426"><ele>528.0</ele><time>2026-04-11T18:43:18Z</time></trkpt><trkpt lat="43.14758249521429" lon="11.72125590014487"><ele>531.5</ele><time>2026-04-11T18:43:20Z</time></trkpt><trkpt lat="43.14763121194613" lon="11.721104230231001"><ele>535.0</ele><time>2026-04-11T18:43:22Z</time></trkpt><trkpt lat="43.147669230485725" lon="11.72095376189405"><ele>535.0</ele><time>2026-04-11T18:43:24Z</time></trkpt><trkpt lat="43.14770451274422" lon="11.720801989421721"><ele>535.0</ele><time>2026-04-11T18:43:26Z</time></trkpt><trkpt lat="43.14774118087758" lon="11.720666631674636"><ele>535.0</ele><time>2026-04-11T18:43:28Z</time></trkpt><trkpt lat="43.14776805303432" lon="11.720531790079047"><ele>535.0</ele><time>2026-04-11T18:43:30Z</time></trkpt><trkpt lat="43.147798088783674" lon="11.720415491028819"><ele>535.0</ele><time>2026-04-11T18:43:32Z</time></trkpt><trkpt lat="43.14782414391966" lon="11.720297748896122"><ele>535.3333333333334</ele><time>2026-04-11T18:43:34Z</time></trkpt><trkpt lat="43.14785695747643" lon="11.720208301748094"><ele>535.6666666666667</ele><time>2026-04-11T18:43:37Z</time></trkpt><trkpt lat="43.14791454841235" lon="11.72004097678671"><ele>536.0</ele><time>2026-04-11T18:43:39Z</time></trkpt><trkpt lat="43.14794585318689" lon="11.719948427549422"><ele>536.3333333333334</ele><time>2026-04-11T18:43:41Z</time></trkpt><trkpt lat="43.14798333921661" lon="11.71983291711222"><ele>536.6666666666666</ele><time>2026-04-11T18:43:44Z</time></trkpt><trkpt lat="43.14801457754028" lon="11.719749801813716"><ele>537.0</ele><time>2026-04-11T18:43:46Z</time></trkpt><trkpt lat="43.14804992206614" lon="11.719661825299053"><ele>537.0</ele><time>2026-04-11T18:43:48Z</time></trkpt><trkpt lat="43.14808528067025" lon="11.7195729408044"><ele>537.0</ele><time>2026-04-11T18:43:50Z</time></trkpt><trkpt lat="43.14812505986466" lon="11.719481542699413"><ele>537.0</ele><time>2026-04-11T18:43:52Z</time></trkpt><trkpt lat="43.14816861834718" lon="11.71939208663303"><ele>537.0</ele><time>2026-04-11T18:43:54Z</time></trkpt><trkpt lat="43.148212899866" lon="11.71932089014785"><ele>537.0</ele><time>2026-04-11T18:43:56Z</time></trkpt><trkpt lat="43.148273845644596" lon="11.719222432774249"><ele>537.0</ele><time>2026-04-11T18:43:59Z</time></trkpt><trkpt lat="43.14833407706808" lon="11.719156057700708"><ele>538.2</ele><time>2026-04-11T18:44:01Z</time></trkpt><trkpt lat="43.148404502378064" lon="11.719096678005558"><ele>539.4000000000001</ele><time>2026-04-11T18:44:03Z</time></trkpt><trkpt lat="43.14848409804279" lon="11.719030078533715"><ele>540.5999999999999</ele><time>2026-04-11T18:44:05Z</time></trkpt><trkpt lat="43.14859824279457" lon="11.718982732695164"><ele>541.8</ele><time>2026-04-11T18:44:07Z</time></trkpt><trkpt lat="43.14872807256391" lon="11.718968120435996"><ele>543.0</ele><time>2026-04-11T18:44:09Z</time></trkpt><trkpt lat="43.148793656792854" lon="11.718944332551327"><ele>543.0</ele><time>2026-04-11T18:44:10Z</time></trkpt><trkpt lat="43.14885356042156" lon="11.718899828484778"><ele>543.0</ele><time>2026-04-11T18:44:11Z</time></trkpt><trkpt lat="43.14891395524894" lon="11.718863690275029"><ele>543.0</ele><time>2026-04-11T18:44:12Z</time></trkpt><trkpt lat="43.14901705448971" lon="11.718768413082714"><ele>543.0</ele><time>2026-04-11T18:44:14Z</time></trkpt><trkpt lat="43.14907632243542" lon="11.718734589671168"><ele>543.0</ele><time>2026-04-11T18:44:15Z</time></trkpt><trkpt lat="43.149107715107654" lon="11.71865906966194"><ele>543.0</ele><time>2026-04-11T18:44:16Z</time></trkpt><trkpt lat="43.14917871387348" lon="11.71854387333365"><ele>542.6</ele><time>2026-04-11T18:44:18Z</time></trkpt><trkpt lat="43.14922373573138" lon="11.718400987961614"><ele>542.1999999999999</ele><time>2026-04-11T18:44:20Z</time></trkpt><trkpt lat="43.1492429955696" lon="11.718251134693794"><ele>541.8</ele><time>2026-04-11T18:44:22Z</time></trkpt><trkpt lat="43.14926001835069" lon="11.71809977502333"><ele>541.4</ele><time>2026-04-11T18:44:24Z</time></trkpt><trkpt lat="43.14925710989886" lon="11.717955694645344"><ele>541.0</ele><time>2026-04-11T18:44:26Z</time></trkpt><trkpt lat="43.149279254262744" lon="11.71781189338366"><ele>540.4</ele><time>2026-04-11T18:44:28Z</time></trkpt><trkpt lat="43.14929058528599" lon="11.717664568406295"><ele>539.8</ele><time>2026-04-11T18:44:30Z</time></trkpt><trkpt lat="43.14929947059799" lon="11.71751734243393"><ele>539.1999999999999</ele><time>2026-04-11T18:44:32Z</time></trkpt><trkpt lat="43.14930750697483" lon="11.717366091846925"><ele>538.6</ele><time>2026-04-11T18:44:34Z</time></trkpt><trkpt lat="43.1493086788691" lon="11.71722353837615"><ele>538.0</ele><time>2026-04-11T18:44:36Z</time></trkpt><trkpt lat="43.149297641881226" lon="11.717095586609982"><ele>538.0</ele><time>2026-04-11T18:44:38Z</time></trkpt><trkpt lat="43.14928062568862" lon="11.716903504028847"><ele>538.0</ele><time>2026-04-11T18:44:41Z</time></trkpt><trkpt lat="43.149238572648635" lon="11.716780673141264"><ele>538.0</ele><time>2026-04-11T18:44:43Z</time></trkpt><trkpt lat="43.14920303810698" lon="11.716660625896074"><ele>538.0</ele><time>2026-04-11T18:44:45Z</time></trkpt><trkpt lat="43.14916903306561" lon="11.716563710028026"><ele>538.0</ele><time>2026-04-11T18:44:47Z</time></trkpt><trkpt lat="43.14915114689715" lon="11.716478911063927"><ele>537.7142857142858</ele><time>2026-04-11T18:44:49Z</time></trkpt><trkpt lat="43.14912887521005" lon="11.716398106623348"><ele>537.4285714285714</ele><time>2026-04-11T18:44:51Z</time></trkpt><trkpt lat="43.14911115388211" lon="11.716309556697768"><ele>537.1428571428571</ele><time>2026-04-11T18:44:53Z</time></trkpt><trkpt lat="43.1490856309864" lon="11.71618096588637"><ele>536.8571428571429</ele><time>2026-04-11T18:44:56Z</time></trkpt><trkpt lat="43.149063133474186" lon="11.716086439479264"><ele>536.5714285714286</ele><time>2026-04-11T18:44:58Z</time></trkpt><trkpt lat="43.14901646516852" lon="11.716019562588578"><ele>536.2857142857143</ele><time>2026-04-11T18:45:00Z</time></trkpt><trkpt lat="43.14898903736269" lon="11.715916916468935"><ele>536.0</ele><time>2026-04-11T18:45:03Z</time></trkpt><trkpt lat="43.14896648261106" lon="11.715835830424002"><ele>536.0</ele><time>2026-04-11T18:45:05Z</time></trkpt><trkpt lat="43.14893641467815" lon="11.715719748630523"><ele>536.0</ele><time>2026-04-11T18:45:07Z</time></trkpt><trkpt lat="43.14888158792661" lon="11.715617901635216"><ele>536.0</ele><time>2026-04-11T18:45:09Z</time></trkpt><trkpt lat="43.1488279643161" lon="11.71550300730376"><ele>536.0</ele><time>2026-04-11T18:45:11Z</time></trkpt><trkpt lat="43.14876636439907" lon="11.715395561204687"><ele>536.0</ele><time>2026-04-11T18:45:13Z</time></trkpt><trkpt lat="43.148686006448436" lon="11.715289469400398"><ele>537.2</ele><time>2026-04-11T18:45:15Z</time></trkpt><trkpt lat="43.14860277312388" lon="11.715189855913952"><ele>538.4000000000001</ele><time>2026-04-11T18:45:17Z</time></trkpt><trkpt lat="43.148525052506706" lon="11.71509013157561"><ele>539.6</ele><time>2026-04-11T18:45:19Z</time></trkpt><trkpt lat="43.148448587651444" lon="11.714991605768203"><ele>540.8000000000001</ele><time>2026-04-11T18:45:21Z</time></trkpt><trkpt lat="43.148367349321624" lon="11.714898683157893"><ele>542.0</ele><time>2026-04-11T18:45:23Z</time></trkpt><trkpt lat="43.14829193788857" lon="11.71481274182388"><ele>542.0</ele><time>2026-04-11T18:45:25Z</time></trkpt><trkpt lat="43.14823067654942" lon="11.714714067825309"><ele>542.0</ele><time>2026-04-11T18:45:27Z</time></trkpt><trkpt lat="43.14814637519836" lon="11.714614326112084"><ele>542.0</ele><time>2026-04-11T18:45:29Z</time></trkpt><trkpt lat="43.14807925808792" lon="11.714487190486189"><ele>542.0</ele><time>2026-04-11T18:45:31Z</time></trkpt><trkpt lat="43.14801502335382" lon="11.714347219038517"><ele>542.0</ele><time>2026-04-11T18:45:33Z</time></trkpt><trkpt lat="43.1479758202798" lon="11.714188554085533"><ele>542.0</ele><time>2026-04-11T18:45:35Z</time></trkpt><trkpt lat="43.14795598499188" lon="11.714101277562694"><ele>542.0</ele><time>2026-04-11T18:45:36Z</time></trkpt><trkpt lat="43.14791505776816" lon="11.713929915502078"><ele>542.0</ele><time>2026-04-11T18:45:38Z</time></trkpt><trkpt lat="43.14787840322616" lon="11.713742156937386"><ele>542.0</ele><time>2026-04-11T18:45:40Z</time></trkpt><trkpt lat="43.14787025910621" lon="11.713644727213117"><ele>542.0</ele><time>2026-04-11T18:45:41Z</time></trkpt><trkpt lat="43.14785000853464" lon="11.713548096894485"><ele>541.5714285714286</ele><time>2026-04-11T18:45:42Z</time></trkpt><trkpt lat="43.147838019636495" lon="11.713459163556529"><ele>541.1428571428571</ele><time>2026-04-11T18:45:43Z</time></trkpt><trkpt lat="43.14781930383334" lon="11.713357988785415"><ele>540.7142857142858</ele><time>2026-04-11T18:45:44Z</time></trkpt><trkpt lat="43.14779853644216" lon="11.713258390355875"><ele>540.2857142857142</ele><time>2026-04-11T18:45:45Z</time></trkpt><trkpt lat="43.14778307266015" lon="11.713160195223088"><ele>539.8571428571429</ele><time>2026-04-11T18:45:46Z</time></trkpt><trkpt lat="43.147784454020226" lon="11.71305841796086"><ele>539.4285714285714</ele><time>2026-04-11T18:45:47Z</time></trkpt><trkpt lat="43.14776924638113" lon="11.712955844007176"><ele>539.0</ele><time>2026-04-11T18:45:48Z</time></trkpt><trkpt lat="43.14775295791786" lon="11.712845980151972"><ele>539.0</ele><time>2026-04-11T18:45:49Z</time></trkpt><trkpt lat="43.147722567864754" lon="11.712751815333165"><ele>539.0</ele><time>2026-04-11T18:45:50Z</time></trkpt><trkpt lat="43.14772555271734" lon="11.712652159215803"><ele>539.0</ele><time>2026-04-11T18:45:51Z</time></trkpt><trkpt lat="43.147710802371726" lon="11.71253930307834"><ele>539.0</ele><time>2026-04-11T18:45:52Z</time></trkpt><trkpt lat="43.147700374923204" lon="11.712444491491084"><ele>539.0</ele><time>2026-04-11T18:45:53Z</time></trkpt><trkpt lat="43.14768902180921" lon="11.712342984248544"><ele>539.0</ele><time>2026-04-11T18:45:54Z</time></trkpt><trkpt lat="43.14768054279586" lon="11.712236634592811"><ele>538.3333333333333</ele><time>2026-04-11T18:45:55Z</time></trkpt><trkpt lat="43.14767805091467" lon="11.712142432280931"><ele>537.6666666666666</ele><time>2026-04-11T18:45:56Z</time></trkpt><trkpt lat="43.14768131088113" lon="11.712046750634435"><ele>537.0</ele><time>2026-04-11T18:45:57Z</time></trkpt><trkpt lat="43.14768727558275" lon="11.711953603626075"><ele>536.3333333333334</ele><time>2026-04-11T18:45:58Z</time></trkpt><trkpt lat="43.147695334040904" lon="11.71186325207425"><ele>535.6666666666667</ele><time>2026-04-11T18:45:59Z</time></trkpt><trkpt lat="43.14770656888131" lon="11.711771272288605"><ele>535.0</ele><time>2026-04-11T18:46:00Z</time></trkpt><trkpt lat="43.147716370208336" lon="11.711599512885437"><ele>534.8</ele><time>2026-04-11T18:46:02Z</time></trkpt><trkpt lat="43.14773039755539" lon="11.711514760905096"><ele>534.6</ele><time>2026-04-11T18:46:03Z</time></trkpt><trkpt lat="43.14774853609249" lon="11.711429907678912"><ele>534.4</ele><time>2026-04-11T18:46:04Z</time></trkpt><trkpt lat="43.1477753925035" lon="11.711266142141083"><ele>534.2</ele><time>2026-04-11T18:46:06Z</time></trkpt><trkpt lat="43.14780518665495" lon="11.711112031419981"><ele>534.0</ele><time>2026-04-11T18:46:08Z</time></trkpt><trkpt lat="43.1478307014515" lon="11.710960551021447"><ele>534.0</ele><time>2026-04-11T18:46:10Z</time></trkpt><trkpt lat="43.14785519647242" lon="11.710813858806114"><ele>534.0</ele><time>2026-04-11T18:46:12Z</time></trkpt><trkpt lat="43.14787765614891" lon="11.710675822845694"><ele>534.0</ele><time>2026-04-11T18:46:14Z</time></trkpt><trkpt lat="43.147903657820436" lon="11.710550749339607"><ele>534.0</ele><time>2026-04-11T18:46:16Z</time></trkpt><trkpt lat="43.147921319568816" lon="11.710432566049263"><ele>534.0</ele><time>2026-04-11T18:46:18Z</time></trkpt><trkpt lat="43.14793380522893" lon="11.710301409751262"><ele>535.5</ele><time>2026-04-11T18:46:21Z</time></trkpt><trkpt lat="43.1479493105596" lon="11.710199235828627"><ele>537.0</ele><time>2026-04-11T18:46:23Z</time></trkpt><trkpt lat="43.14794345978442" lon="11.710104637696015"><ele>538.5</ele><time>2026-04-11T18:46:26Z</time></trkpt><trkpt lat="43.14793665675472" lon="11.71001709555814"><ele>540.0</ele><time>2026-04-11T18:46:28Z</time></trkpt><trkpt lat="43.14789379875043" lon="11.709917274089046"><ele>541.5</ele><time>2026-04-11T18:46:30Z</time></trkpt><trkpt lat="43.14783837574503" lon="11.709811417715024"><ele>543.0</ele><time>2026-04-11T18:46:33Z</time></trkpt><trkpt lat="43.147801714481034" lon="11.709738004329198"><ele>543.0</ele><time>2026-04-11T18:46:35Z</time></trkpt><trkpt lat="43.14774907550114" lon="11.709637390548291"><ele>543.0</ele><time>2026-04-11T18:46:38Z</time></trkpt><trkpt lat="43.14768991321228" lon="11.709547646200207"><ele>543.0</ele><time>2026-04-11T18:46:41Z</time></trkpt><trkpt lat="43.14763095473105" lon="11.709460406888086"><ele>543.0</ele><time>2026-04-11T18:46:44Z</time></trkpt><trkpt lat="43.14757944840664" lon="11.709379581275359"><ele>543.0</ele><time>2026-04-11T18:46:47Z</time></trkpt><trkpt lat="43.14752619763996" lon="11.709306550229826"><ele>543.0</ele><time>2026-04-11T18:46:50Z</time></trkpt><trkpt lat="43.14747362732717" lon="11.70924212951479"><ele>544.5</ele><time>2026-04-11T18:46:53Z</time></trkpt><trkpt lat="43.1474293173343" lon="11.709174044872382"><ele>546.0</ele><time>2026-04-11T18:46:56Z</time></trkpt><trkpt lat="43.147355449259024" lon="11.709093317999102"><ele>547.5</ele><time>2026-04-11T18:46:59Z</time></trkpt><trkpt lat="43.14730019473443" lon="11.709025178674382"><ele>549.0</ele><time>2026-04-11T18:47:03Z</time></trkpt><trkpt lat="43.147245871923005" lon="11.70892848777098"><ele>550.5</ele><time>2026-04-11T18:47:06Z</time></trkpt><trkpt lat="43.147196052388416" lon="11.708831793404665"><ele>552.0</ele><time>2026-04-11T18:47:09Z</time></trkpt><trkpt lat="43.147154411864335" lon="11.708730923144067"><ele>552.5</ele><time>2026-04-11T18:47:12Z</time></trkpt><trkpt lat="43.14712172437282" lon="11.708633824588928"><ele>553.0</ele><time>2026-04-11T18:47:15Z</time></trkpt><trkpt lat="43.147094576833545" lon="11.708529502518111"><ele>553.5</ele><time>2026-04-11T18:47:18Z</time></trkpt><trkpt lat="43.14707064845742" lon="11.708425795969847"><ele>554.0</ele><time>2026-04-11T18:47:21Z</time></trkpt><trkpt lat="43.1470487948496" lon="11.708323605469834"><ele>554.5</ele><time>2026-04-11T18:47:24Z</time></trkpt><trkpt lat="43.14702187236855" lon="11.708222348293425"><ele>555.0</ele><time>2026-04-11T18:47:27Z</time></trkpt><trkpt lat="43.14699927795554" lon="11.708123170785068"><ele>555.0</ele><time>2026-04-11T18:47:30Z</time></trkpt><trkpt lat="43.146982646551336" lon="11.708016151732084"><ele>555.0</ele><time>2026-04-11T18:47:33Z</time></trkpt><trkpt lat="43.14695623640934" lon="11.707913483705637"><ele>555.0</ele><time>2026-04-11T18:47:36Z</time></trkpt><trkpt lat="43.1469288513581" lon="11.7078111527953"><ele>555.0</ele><time>2026-04-11T18:47:39Z</time></trkpt><trkpt lat="43.146896782488504" lon="11.707716644499287"><ele>555.0</ele><time>2026-04-11T18:47:42Z</time></trkpt><trkpt lat="43.146859189379825" lon="11.707623512612575"><ele>555.0</ele><time>2026-04-11T18:47:45Z</time></trkpt><trkpt lat="43.14682244267035" lon="11.707529593270156"><ele>555.3333333333334</ele><time>2026-04-11T18:47:48Z</time></trkpt><trkpt lat="43.146773669937005" lon="11.707450863509253"><ele>555.6666666666666</ele><time>2026-04-11T18:47:51Z</time></trkpt><trkpt lat="43.14672178287585" lon="11.707358693361352"><ele>556.0</ele><time>2026-04-11T18:47:55Z</time></trkpt><trkpt lat="43.14666502077808" lon="11.707276075430158"><ele>556.3333333333333</ele><time>2026-04-11T18:47:59Z</time></trkpt><trkpt lat="43.14661244714137" lon="11.707218668051393"><ele>556.6666666666666</ele><time>2026-04-11T18:48:02Z</time></trkpt><trkpt lat="43.14656485731449" lon="11.707148630758082"><ele>557.0</ele><time>2026-04-11T18:48:05Z</time></trkpt><trkpt lat="43.146511977413326" lon="11.707074097414182"><ele>557.0</ele><time>2026-04-11T18:48:08Z</time></trkpt><trkpt lat="43.14646777263406" lon="11.70699103102246"><ele>557.0</ele><time>2026-04-11T18:48:11Z</time></trkpt><trkpt lat="43.146438991993" lon="11.706885794227881"><ele>557.0</ele><time>2026-04-11T18:48:14Z</time></trkpt><trkpt lat="43.14643049613998" lon="11.706766325397911"><ele>557.0</ele><time>2026-04-11T18:48:17Z</time></trkpt><trkpt lat="43.14642218408411" lon="11.706678755695293"><ele>557.0</ele><time>2026-04-11T18:48:19Z</time></trkpt><trkpt lat="43.14642352888324" lon="11.706564899803707"><ele>557.0</ele><time>2026-04-11T18:48:22Z</time></trkpt><trkpt lat="43.14641671792929" lon="11.70646675444603"><ele>557.6666666666666</ele><time>2026-04-11T18:48:24Z</time></trkpt><trkpt lat="43.14639446740238" lon="11.706369683641805"><ele>558.3333333333333</ele><time>2026-04-11T18:48:26Z</time></trkpt><trkpt lat="43.1463925540564" lon="11.706275181304113"><ele>559.0</ele><time>2026-04-11T18:48:27Z</time></trkpt><trkpt lat="43.14638526165551" lon="11.706125420298743"><ele>559.6666666666666</ele><time>2026-04-11T18:48:30Z</time></trkpt><trkpt lat="43.14638116802618" lon="11.705999964709907"><ele>560.3333333333334</ele><time>2026-04-11T18:48:32Z</time></trkpt><trkpt lat="43.14638372253993" lon="11.705863995601677"><ele>561.0</ele><time>2026-04-11T18:48:34Z</time></trkpt><trkpt lat="43.146379436833904" lon="11.705733696159962"><ele>561.0</ele><time>2026-04-11T18:48:36Z</time></trkpt><trkpt lat="43.146391049699226" lon="11.705542181615774"><ele>561.0</ele><time>2026-04-11T18:48:37Z</time></trkpt><trkpt lat="43.14638213608545" lon="11.705442862955062"><ele>561.0</ele><time>2026-04-11T18:48:39Z</time></trkpt><trkpt lat="43.146367169073955" lon="11.705344891070505"><ele>561.0</ele><time>2026-04-11T18:48:41Z</time></trkpt><trkpt lat="43.14635960690975" lon="11.705236622937115"><ele>561.0</ele><time>2026-04-11T18:48:43Z</time></trkpt><trkpt lat="43.14634100765786" lon="11.705136386782378"><ele>561.0</ele><time>2026-04-11T18:48:45Z</time></trkpt><trkpt lat="43.14633135540158" lon="11.705033830814564"><ele>561.6666666666666</ele><time>2026-04-11T18:48:47Z</time></trkpt><trkpt lat="43.1463213380565" lon="11.704927533883419"><ele>562.3333333333334</ele><time>2026-04-11T18:48:49Z</time></trkpt><trkpt lat="43.14630179020875" lon="11.70480144921181"><ele>563.0</ele><time>2026-04-11T18:48:52Z</time></trkpt><trkpt lat="43.14629666598228" lon="11.704696891837154"><ele>563.6666666666667</ele><time>2026-04-11T18:48:54Z</time></trkpt><trkpt lat="43.14626004954319" lon="11.70461643748388"><ele>564.3333333333334</ele><time>2026-04-11T18:48:56Z</time></trkpt><trkpt lat="43.14625900658515" lon="11.704493729076802"><ele>565.0</ele><time>2026-04-11T18:49:00Z</time></trkpt><trkpt lat="43.146260593431776" lon="11.704361314587949"><ele>565.8</ele><time>2026-04-11T18:49:03Z</time></trkpt><trkpt lat="43.146262620401075" lon="11.704251655955435"><ele>566.6</ele><time>2026-04-11T18:49:06Z</time></trkpt><trkpt lat="43.14627150388066" lon="11.704162321745672"><ele>567.4</ele><time>2026-04-11T18:49:08Z</time></trkpt><trkpt lat="43.14630336049269" lon="11.704056761543905"><ele>568.2</ele><time>2026-04-11T18:49:11Z</time></trkpt><trkpt lat="43.146413975603735" lon="11.703882627917013"><ele>569.0</ele><time>2026-04-11T18:49:14Z</time></trkpt><trkpt lat="43.14651617313173" lon="11.703839011980916"><ele>568.8</ele><time>2026-04-11T18:49:16Z</time></trkpt><trkpt lat="43.14662014782008" lon="11.70381173827386"><ele>568.5999999999999</ele><time>2026-04-11T18:49:18Z</time></trkpt><trkpt lat="43.14672508281017" lon="11.703817443933062"><ele>568.4</ele><time>2026-04-11T18:49:20Z</time></trkpt><trkpt lat="43.14682564545796" lon="11.703822876985432"><ele>568.1999999999999</ele><time>2026-04-11T18:49:22Z</time></trkpt><trkpt lat="43.146940560821804" lon="11.703830171350525"><ele>568.0</ele><time>2026-04-11T18:49:24Z</time></trkpt><trkpt lat="43.14704942956728" lon="11.703837568671954"><ele>568.0</ele><time>2026-04-11T18:49:26Z</time></trkpt><trkpt lat="43.14716275757757" lon="11.703856972074432"><ele>568.0</ele><time>2026-04-11T18:49:28Z</time></trkpt><trkpt lat="43.147280754278036" lon="11.703877267913196"><ele>568.0</ele><time>2026-04-11T18:49:30Z</time></trkpt><trkpt lat="43.147342472519426" lon="11.703900551014504"><ele>568.0</ele><time>2026-04-11T18:49:31Z</time></trkpt><trkpt lat="43.147441156257386" lon="11.703944811117415"><ele>568.0</ele><time>2026-04-11T18:49:33Z</time></trkpt><trkpt lat="43.14750267987346" lon="11.703971556184193"><ele>566.6</ele><time>2026-04-11T18:49:34Z</time></trkpt><trkpt lat="43.147627607532726" lon="11.704024419161236"><ele>565.1999999999999</ele><time>2026-04-11T18:49:36Z</time></trkpt><trkpt lat="43.14775652505706" lon="11.704055611205641"><ele>563.8</ele><time>2026-04-11T18:49:38Z</time></trkpt><trkpt lat="43.1478286973694" lon="11.704052280210988"><ele>562.4</ele><time>2026-04-11T18:49:39Z</time></trkpt><trkpt lat="43.14789911743379" lon="11.704033564145313"><ele>561.0</ele><time>2026-04-11T18:49:40Z</time></trkpt><trkpt lat="43.14796547986408" lon="11.703972861571916"><ele>561.0</ele><time>2026-04-11T18:49:41Z</time></trkpt><trkpt lat="43.1480139585131" lon="11.703898991846321"><ele>561.0</ele><time>2026-04-11T18:49:42Z</time></trkpt><trkpt lat="43.14807371221991" lon="11.703850968621165"><ele>561.0</ele><time>2026-04-11T18:49:43Z</time></trkpt><trkpt lat="43.148111116448675" lon="11.703774910664979"><ele>561.0</ele><time>2026-04-11T18:49:44Z</time></trkpt><trkpt lat="43.1481574567447" lon="11.70371555725428"><ele>561.0</ele><time>2026-04-11T18:49:45Z</time></trkpt><trkpt lat="43.148236005362925" lon="11.703593024602801"><ele>561.0</ele><time>2026-04-11T18:49:47Z</time></trkpt><trkpt lat="43.14830736081635" lon="11.703478903734105"><ele>561.3333333333334</ele><time>2026-04-11T18:49:49Z</time></trkpt><trkpt lat="43.148351560216064" lon="11.703361417494888"><ele>561.6666666666666</ele><time>2026-04-11T18:49:51Z</time></trkpt><trkpt lat="43.14839950724036" lon="11.703265514767745"><ele>562.0</ele><time>2026-04-11T18:49:53Z</time></trkpt><trkpt lat="43.14841407442458" lon="11.70317016145892"><ele>562.3333333333333</ele><time>2026-04-11T18:49:55Z</time></trkpt><trkpt lat="43.14844638838883" lon="11.703083025760106"><ele>562.6666666666666</ele><time>2026-04-11T18:49:57Z</time></trkpt><trkpt lat="43.14848716411791" lon="11.702969264985104"><ele>563.0</ele><time>2026-04-11T18:50:00Z</time></trkpt><trkpt lat="43.14852475908997" lon="11.702894695918426"><ele>563.0</ele><time>2026-04-11T18:50:02Z</time></trkpt><trkpt lat="43.14857526159705" lon="11.702837884261271"><ele>563.0</ele><time>2026-04-11T18:50:04Z</time></trkpt><trkpt lat="43.14866184643255" lon="11.702788882238126"><ele>563.0</ele><time>2026-04-11T18:50:07Z</time></trkpt><trkpt lat="43.1487381763723" lon="11.702760530477505"><ele>563.0</ele><time>2026-04-11T18:50:09Z</time></trkpt><trkpt lat="43.148825610102335" lon="11.702743933334085"><ele>563.0</ele><time>2026-04-11T18:50:11Z</time></trkpt><trkpt lat="43.14890890765349" lon="11.702763840648965"><ele>563.0</ele><time>2026-04-11T18:50:13Z</time></trkpt><trkpt lat="43.149006078590865" lon="11.702767322747984"><ele>563.0</ele><time>2026-04-11T18:50:15Z</time></trkpt><trkpt lat="43.149114208596544" lon="11.70277466257013"><ele>563.0</ele><time>2026-04-11T18:50:17Z</time></trkpt><trkpt lat="43.14923071652386" lon="11.702782693471445"><ele>563.0</ele><time>2026-04-11T18:50:19Z</time></trkpt><trkpt lat="43.149342153628574" lon="11.702790374848732"><ele>563.0</ele><time>2026-04-11T18:50:21Z</time></trkpt><trkpt lat="43.14946200033147" lon="11.702798553447995"><ele>563.0</ele><time>2026-04-11T18:50:23Z</time></trkpt><trkpt lat="43.149575974439884" lon="11.702806288040039"><ele>563.0</ele><time>2026-04-11T18:50:25Z</time></trkpt><trkpt lat="43.149691993038374" lon="11.70281523663701"><ele>563.0</ele><time>2026-04-11T18:50:27Z</time></trkpt><trkpt lat="43.14980826459859" lon="11.702825581094343"><ele>563.0</ele><time>2026-04-11T18:50:29Z</time></trkpt><trkpt lat="43.149926516594164" lon="11.702832975893502"><ele>562.8333333333333</ele><time>2026-04-11T18:50:31Z</time></trkpt><trkpt lat="43.15004645770049" lon="11.702811468935723"><ele>562.6666666666666</ele><time>2026-04-11T18:50:33Z</time></trkpt><trkpt lat="43.150116406467376" lon="11.702826878546485"><ele>562.5</ele><time>2026-04-11T18:50:34Z</time></trkpt><trkpt lat="43.15018014584109" lon="11.70281010592901"><ele>562.3333333333334</ele><time>2026-04-11T18:50:35Z</time></trkpt><trkpt lat="43.15028996836282" lon="11.702751722802624"><ele>562.1666666666667</ele><time>2026-04-11T18:50:37Z</time></trkpt><trkpt lat="43.150350504371225" lon="11.70271404535032"><ele>562.0</ele><time>2026-04-11T18:50:38Z</time></trkpt><trkpt lat="43.150416745447146" lon="11.702666559864472"><ele>560.6666666666667</ele><time>2026-04-11T18:50:39Z</time></trkpt><trkpt lat="43.15047413120798" lon="11.702621925655217"><ele>559.3333333333334</ele><time>2026-04-11T18:50:40Z</time></trkpt><trkpt lat="43.15053162047776" lon="11.702564624366344"><ele>558.0</ele><time>2026-04-11T18:50:41Z</time></trkpt><trkpt lat="43.150584046526056" lon="11.70251677015518"><ele>556.6666666666666</ele><time>2026-04-11T18:50:42Z</time></trkpt><trkpt lat="43.15069172681188" lon="11.702422497888637"><ele>555.3333333333333</ele><time>2026-04-11T18:50:44Z</time></trkpt><trkpt lat="43.15075376376004" lon="11.70236818560895"><ele>554.0</ele><time>2026-04-11T18:50:45Z</time></trkpt><trkpt lat="43.15081003069213" lon="11.702318924825812"><ele>553.25</ele><time>2026-04-11T18:50:46Z</time></trkpt><trkpt lat="43.150906622055615" lon="11.70222314202686"><ele>552.5</ele><time>2026-04-11T18:50:48Z</time></trkpt><trkpt lat="43.151019100385106" lon="11.7021338320817"><ele>551.75</ele><time>2026-04-11T18:50:50Z</time></trkpt><trkpt lat="43.15112041335721" lon="11.702036129946576"><ele>551.0</ele><time>2026-04-11T18:50:52Z</time></trkpt><trkpt lat="43.151220379736365" lon="11.701949533915712"><ele>551.0</ele><time>2026-04-11T18:50:54Z</time></trkpt><trkpt lat="43.15131564035178" lon="11.701874292625853"><ele>551.0</ele><time>2026-04-11T18:50:56Z</time></trkpt><trkpt lat="43.151403313777735" lon="11.701798217762402"><ele>551.0</ele><time>2026-04-11T18:50:58Z</time></trkpt><trkpt lat="43.15147757332929" lon="11.7017181082639"><ele>551.0</ele><time>2026-04-11T18:51:00Z</time></trkpt><trkpt lat="43.15154234838001" lon="11.701643017271893"><ele>551.0</ele><time>2026-04-11T18:51:02Z</time></trkpt><trkpt lat="43.15159935595726" lon="11.701558201093592"><ele>551.0</ele><time>2026-04-11T18:51:04Z</time></trkpt><trkpt lat="43.15164591199028" lon="11.701470518159953"><ele>551.0</ele><time>2026-04-11T18:51:06Z</time></trkpt><trkpt lat="43.15168714647171" lon="11.701371246072501"><ele>551.0</ele><time>2026-04-11T18:51:08Z</time></trkpt><trkpt lat="43.15172090327799" lon="11.701271712791485"><ele>551.0</ele><time>2026-04-11T18:51:10Z</time></trkpt><trkpt lat="43.15176287667654" lon="11.701170804123818"><ele>551.0</ele><time>2026-04-11T18:51:12Z</time></trkpt><trkpt lat="43.151785618990296" lon="11.701061699090955"><ele>551.0</ele><time>2026-04-11T18:51:14Z</time></trkpt><trkpt lat="43.151822544188484" lon="11.700965638125956"><ele>551.8333333333333</ele><time>2026-04-11T18:51:16Z</time></trkpt><trkpt lat="43.151859624403386" lon="11.700875108331456"><ele>552.6666666666666</ele><time>2026-04-11T18:51:18Z</time></trkpt><trkpt lat="43.15190089748079" lon="11.700788452924002"><ele>553.5</ele><time>2026-04-11T18:51:20Z</time></trkpt><trkpt lat="43.1519370288559" lon="11.70069665456761"><ele>554.3333333333334</ele><time>2026-04-11T18:51:22Z</time></trkpt><trkpt lat="43.15197691819027" lon="11.700605803335204"><ele>555.1666666666667</ele><time>2026-04-11T18:51:24Z</time></trkpt><trkpt lat="43.15201703149587" lon="11.700516327456578"><ele>556.0</ele><time>2026-04-11T18:51:26Z</time></trkpt><trkpt lat="43.152057401630046" lon="11.70041606218649"><ele>556.0</ele><time>2026-04-11T18:51:28Z</time></trkpt><trkpt lat="43.152095949234955" lon="11.700309206346999"><ele>556.0</ele><time>2026-04-11T18:51:30Z</time></trkpt><trkpt lat="43.152136518247694" lon="11.70019916317602"><ele>556.0</ele><time>2026-04-11T18:51:32Z</time></trkpt><trkpt lat="43.152167450323375" lon="11.70009583960801"><ele>556.0</ele><time>2026-04-11T18:51:34Z</time></trkpt><trkpt lat="43.15220308027281" lon="11.700010477621124"><ele>556.0</ele><time>2026-04-11T18:51:36Z</time></trkpt><trkpt lat="43.15223717910105" lon="11.699918834015936"><ele>556.0</ele><time>2026-04-11T18:51:38Z</time></trkpt><trkpt lat="43.15226270516124" lon="11.699826815661329"><ele>555.8</ele><time>2026-04-11T18:51:40Z</time></trkpt><trkpt lat="43.152309038169534" lon="11.699738216146471"><ele>555.6</ele><time>2026-04-11T18:51:42Z</time></trkpt><trkpt lat="43.15233582071183" lon="11.69962136405353"><ele>555.4</ele><time>2026-04-11T18:51:44Z</time></trkpt><trkpt lat="43.15237971761399" lon="11.699513408744592"><ele>555.2</ele><time>2026-04-11T18:51:46Z</time></trkpt><trkpt lat="43.152447674921525" lon="11.699434813204752"><ele>555.0</ele><time>2026-04-11T18:51:48Z</time></trkpt><trkpt lat="43.15255143453232" lon="11.699393555432064"><ele>555.0</ele><time>2026-04-11T18:51:50Z</time></trkpt><trkpt lat="43.15266033073248" lon="11.699428998320865"><ele>555.0</ele><time>2026-04-11T18:51:52Z</time></trkpt><trkpt lat="43.152777808936946" lon="11.699458876293319"><ele>555.0</ele><time>2026-04-11T18:51:54Z</time></trkpt><trkpt lat="43.15289720956523" lon="11.699493801065623"><ele>555.0</ele><time>2026-04-11T18:51:56Z</time></trkpt><trkpt lat="43.153007063015565" lon="11.699525933291763"><ele>555.0</ele><time>2026-04-11T18:51:58Z</time></trkpt><trkpt lat="43.1531026456326" lon="11.69954849190653"><ele>555.0</ele><time>2026-04-11T18:52:00Z</time></trkpt><trkpt lat="43.15318577900053" lon="11.699550142487047"><ele>555.0</ele><time>2026-04-11T18:52:02Z</time></trkpt><trkpt lat="43.15325226685879" lon="11.699529208650578"><ele>555.0</ele><time>2026-04-11T18:52:04Z</time></trkpt><trkpt lat="43.153327685741914" lon="11.699541440630542"><ele>555.0</ele><time>2026-04-11T18:52:07Z</time></trkpt><trkpt lat="43.15332961389272" lon="11.699444517257515"><ele>555.0</ele><time>2026-04-11T18:52:09Z</time></trkpt><trkpt lat="43.15338728842479" lon="11.699404472188686"><ele>554.2857142857143</ele><time>2026-04-11T18:52:39Z</time></trkpt><trkpt lat="43.1534442816799" lon="11.699464431392911"><ele>553.5714285714286</ele><time>2026-04-11T18:52:42Z</time></trkpt><trkpt lat="43.153511560404674" lon="11.699505814060652"><ele>552.8571428571429</ele><time>2026-04-11T18:52:46Z</time></trkpt><trkpt lat="43.15358159636054" lon="11.699520874384628"><ele>552.1428571428571</ele><time>2026-04-11T18:52:49Z</time></trkpt><trkpt lat="43.1536643372331" lon="11.699526743393802"><ele>551.4285714285714</ele><time>2026-04-11T18:52:52Z</time></trkpt><trkpt lat="43.15373214555594" lon="11.699533647386883"><ele>550.7142857142858</ele><time>2026-04-11T18:52:54Z</time></trkpt><trkpt lat="43.15381026866413" lon="11.699556289269772"><ele>550.0</ele><time>2026-04-11T18:52:56Z</time></trkpt><trkpt lat="43.15389299792448" lon="11.699580272604464"><ele>550.0</ele><time>2026-04-11T18:52:58Z</time></trkpt><trkpt lat="43.15398312704092" lon="11.699595912002676"><ele>550.0</ele><time>2026-04-11T18:53:00Z</time></trkpt><trkpt lat="43.15408166212153" lon="11.699616908944336"><ele>550.0</ele><time>2026-04-11T18:53:02Z</time></trkpt><trkpt lat="43.154178918877946" lon="11.699633752827033"><ele>550.0</ele><time>2026-04-11T18:53:04Z</time></trkpt><trkpt lat="43.15428176538686" lon="11.699649471586152"><ele>550.0</ele><time>2026-04-11T18:53:06Z</time></trkpt><trkpt lat="43.15437295756976" lon="11.69970230915304"><ele>548.8333333333334</ele><time>2026-04-11T18:53:08Z</time></trkpt><trkpt lat="43.15446821174291" lon="11.699720830168795"><ele>547.6666666666667</ele><time>2026-04-11T18:53:10Z</time></trkpt><trkpt lat="43.15455950438842" lon="11.699738700849283"><ele>546.5</ele><time>2026-04-11T18:53:12Z</time></trkpt><trkpt lat="43.15465479210404" lon="11.699758204199574"><ele>545.3333333333334</ele><time>2026-04-11T18:53:14Z</time></trkpt><trkpt lat="43.1547263124361" lon="11.699772842842282"><ele>544.1666666666666</ele><time>2026-04-11T18:53:16Z</time></trkpt><trkpt lat="43.15479059604128" lon="11.699786000303092"><ele>543.0</ele><time>2026-04-11T18:53:18Z</time></trkpt><trkpt lat="43.15488169086332" lon="11.699804645453629"><ele>542.4285714285714</ele><time>2026-04-11T18:53:21Z</time></trkpt><trkpt lat="43.15495033802111" lon="11.69981869607799"><ele>541.8571428571429</ele><time>2026-04-11T18:53:23Z</time></trkpt><trkpt lat="43.155020182955994" lon="11.699832754764676"><ele>541.2857142857142</ele><time>2026-04-11T18:53:25Z</time></trkpt><trkpt lat="43.15508468914574" lon="11.699845764588341"><ele>540.7142857142858</ele><time>2026-04-11T18:53:27Z</time></trkpt><trkpt lat="43.15515732904639" lon="11.699860414835692"><ele>540.1428571428571</ele><time>2026-04-11T18:53:30Z</time></trkpt><trkpt lat="43.155222480269664" lon="11.699849375550007"><ele>539.5714285714286</ele><time>2026-04-11T18:53:38Z</time></trkpt><trkpt lat="43.155170781787675" lon="11.699796142540885"><ele>539.0</ele><time>2026-04-11T18:53:43Z</time></trkpt><trkpt lat="43.15508066409942" lon="11.69980289837742"><ele>539.0</ele><time>2026-04-11T18:53:46Z</time></trkpt><trkpt lat="43.15500930531451" lon="11.699800454083855"><ele>539.0</ele><time>2026-04-11T18:53:48Z</time></trkpt><trkpt lat="43.154936331088344" lon="11.699793885864102"><ele>539.0</ele><time>2026-04-11T18:53:50Z</time></trkpt><trkpt lat="43.154851992504724" lon="11.699769609741036"><ele>539.0</ele><time>2026-04-11T18:53:52Z</time></trkpt><trkpt lat="43.15476350486628" lon="11.699755230046438"><ele>539.0</ele><time>2026-04-11T18:53:54Z</time></trkpt><trkpt lat="43.15467531034792" lon="11.699761548249326"><ele>539.0</ele><time>2026-04-11T18:53:56Z</time></trkpt><trkpt lat="43.15459798637089" lon="11.699744121337458"><ele>539.6666666666666</ele><time>2026-04-11T18:53:58Z</time></trkpt><trkpt lat="43.15453212478429" lon="11.699735525781087"><ele>540.3333333333333</ele><time>2026-04-11T18:54:00Z</time></trkpt><trkpt lat="43.15442357407403" lon="11.69969912384878"><ele>541.0</ele><time>2026-04-11T18:54:04Z</time></trkpt><trkpt lat="43.15434488835843" lon="11.699675285567587"><ele>541.6666666666666</ele><time>2026-04-11T18:54:06Z</time></trkpt><trkpt lat="43.15427254945592" lon="11.699663165962713"><ele>542.3333333333334</ele><time>2026-04-11T18:54:08Z</time></trkpt><trkpt lat="43.15419484814147" lon="11.699645218970105"><ele>543.0</ele><time>2026-04-11T18:54:10Z</time></trkpt><trkpt lat="43.154101073778556" lon="11.69963764155345"><ele>544.1666666666666</ele><time>2026-04-11T18:54:13Z</time></trkpt><trkpt lat="43.15402393046755" lon="11.699621725708061"><ele>545.3333333333334</ele><time>2026-04-11T18:54:15Z</time></trkpt><trkpt lat="43.15394057979484" lon="11.699594594009493"><ele>546.5</ele><time>2026-04-11T18:54:17Z</time></trkpt><trkpt lat="43.15385825114501" lon="11.699582429007153"><ele>547.6666666666667</ele><time>2026-04-11T18:54:20Z</time></trkpt><trkpt lat="43.15377999727338" lon="11.699569707587457"><ele>548.8333333333334</ele><time>2026-04-11T18:54:23Z</time></trkpt><trkpt lat="43.15371585881712" lon="11.699538627755405"><ele>550.0</ele><time>2026-04-11T18:54:26Z</time></trkpt><trkpt lat="43.153650827757815" lon="11.699536910741504"><ele>550.0</ele><time>2026-04-11T18:54:28Z</time></trkpt><trkpt lat="43.15357080683856" lon="11.699532745361479"><ele>550.0</ele><time>2026-04-11T18:54:30Z</time></trkpt><trkpt lat="43.15351043666571" lon="11.699499302776623"><ele>550.0</ele><time>2026-04-11T18:54:31Z</time></trkpt><trkpt lat="43.15343164680947" lon="11.699432498462235"><ele>550.0</ele><time>2026-04-11T18:54:33Z</time></trkpt><trkpt lat="43.15336956521288" lon="11.699340818827226"><ele>550.0</ele><time>2026-04-11T18:54:35Z</time></trkpt><trkpt lat="43.15332419608617" lon="11.699242523217734"><ele>550.0</ele><time>2026-04-11T18:54:37Z</time></trkpt><trkpt lat="43.15330489939828" lon="11.69914324165841"><ele>550.3333333333334</ele><time>2026-04-11T18:54:39Z</time></trkpt><trkpt lat="43.153305415037316" lon="11.69904723755228"><ele>550.6666666666667</ele><time>2026-04-11T18:54:41Z</time></trkpt><trkpt lat="43.15331410946914" lon="11.698916650207488"><ele>551.0</ele><time>2026-04-11T18:54:45Z</time></trkpt><trkpt lat="43.15333809895844" lon="11.698820473600229"><ele>551.3333333333334</ele><time>2026-04-11T18:54:48Z</time></trkpt><trkpt lat="43.15336756560856" lon="11.698726818257715"><ele>551.6666666666666</ele><time>2026-04-11T18:54:51Z</time></trkpt><trkpt lat="43.153390181184555" lon="11.69862344041081"><ele>552.0</ele><time>2026-04-11T18:54:54Z</time></trkpt><trkpt lat="43.153412240289974" lon="11.698528014433368"><ele>552.1428571428571</ele><time>2026-04-11T18:54:57Z</time></trkpt><trkpt lat="43.15344596054199" lon="11.698445936550334"><ele>552.2857142857143</ele><time>2026-04-11T18:55:00Z</time></trkpt><trkpt lat="43.153501276159524" lon="11.698362948296406"><ele>552.4285714285714</ele><time>2026-04-11T18:55:04Z</time></trkpt><trkpt lat="43.15353792347302" lon="11.698289425656958"><ele>552.5714285714286</ele><time>2026-04-11T18:55:07Z</time></trkpt><trkpt lat="43.15356917769546" lon="11.69820246597315"><ele>552.7142857142858</ele><time>2026-04-11T18:55:10Z</time></trkpt><trkpt lat="43.153610433444534" lon="11.69811950218874"><ele>552.8571428571429</ele><time>2026-04-11T18:55:13Z</time></trkpt><trkpt lat="43.15365429508996" lon="11.698026044828161"><ele>553.0</ele><time>2026-04-11T18:55:16Z</time></trkpt><trkpt lat="43.153695201914005" lon="11.697946844389229"><ele>553.0</ele><time>2026-04-11T18:55:18Z</time></trkpt><trkpt lat="43.153740075825034" lon="11.697880633856037"><ele>553.0</ele><time>2026-04-11T18:55:20Z</time></trkpt><trkpt lat="43.15378109190025" lon="11.697803945099716"><ele>553.0</ele><time>2026-04-11T18:55:22Z</time></trkpt><trkpt lat="43.15381777393859" lon="11.697726065312773"><ele>553.0</ele><time>2026-04-11T18:55:24Z</time></trkpt><trkpt lat="43.15386022681919" lon="11.697644350767396"><ele>553.0</ele><time>2026-04-11T18:55:26Z</time></trkpt><trkpt lat="43.15389993419569" lon="11.697564840178815"><ele>553.0</ele><time>2026-04-11T18:55:28Z</time></trkpt><trkpt lat="43.15394003469248" lon="11.69748213174315"><ele>553.0</ele><time>2026-04-11T18:55:30Z</time></trkpt><trkpt lat="43.153979350463054" lon="11.69739812218546"><ele>553.1428571428571</ele><time>2026-04-11T18:55:32Z</time></trkpt><trkpt lat="43.154025163621085" lon="11.69731715657573"><ele>553.2857142857142</ele><time>2026-04-11T18:55:34Z</time></trkpt><trkpt lat="43.154066063738675" lon="11.697239760736474"><ele>553.4285714285714</ele><time>2026-04-11T18:55:36Z</time></trkpt><trkpt lat="43.15410805987333" lon="11.697160672067485"><ele>553.5714285714286</ele><time>2026-04-11T18:55:38Z</time></trkpt><trkpt lat="43.15415124639297" lon="11.697078484947433"><ele>553.7142857142857</ele><time>2026-04-11T18:55:40Z</time></trkpt><trkpt lat="43.154191611973374" lon="11.697004404772592"><ele>553.8571428571429</ele><time>2026-04-11T18:55:42Z</time></trkpt><trkpt lat="43.15422904018738" lon="11.696923023651575"><ele>554.0</ele><time>2026-04-11T18:55:44Z</time></trkpt><trkpt lat="43.15426892636123" lon="11.696848459921206"><ele>554.0</ele><time>2026-04-11T18:55:46Z</time></trkpt><trkpt lat="43.15431553345515" lon="11.696771233691535"><ele>554.0</ele><time>2026-04-11T18:55:48Z</time></trkpt><trkpt lat="43.15435986913005" lon="11.696703206253535"><ele>554.0</ele><time>2026-04-11T18:55:50Z</time></trkpt><trkpt lat="43.15442872457719" lon="11.696610794070848"><ele>554.0</ele><time>2026-04-11T18:55:53Z</time></trkpt><trkpt lat="43.154503028707865" lon="11.696510177399219"><ele>554.0</ele><time>2026-04-11T18:55:57Z</time></trkpt><trkpt lat="43.15457675964649" lon="11.696436442877818"><ele>554.0</ele><time>2026-04-11T18:56:00Z</time></trkpt><trkpt lat="43.15463817365243" lon="11.69638207663743"><ele>554.0</ele><time>2026-04-11T18:56:02Z</time></trkpt><trkpt lat="43.154708515831686" lon="11.696342562425668"><ele>554.0</ele><time>2026-04-11T18:56:04Z</time></trkpt><trkpt lat="43.154777335591895" lon="11.696297538005513"><ele>554.0</ele><time>2026-04-11T18:56:06Z</time></trkpt><trkpt lat="43.15484453122094" lon="11.69625894366421"><ele>554.0</ele><time>2026-04-11T18:56:08Z</time></trkpt><trkpt lat="43.15492875765897" lon="11.696216167678086"><ele>554.0</ele><time>2026-04-11T18:56:11Z</time></trkpt><trkpt lat="43.154985724390855" lon="11.696179225135763"><ele>554.0</ele><time>2026-04-11T18:56:13Z</time></trkpt><trkpt lat="43.15505893579181" lon="11.696120469380155"><ele>554.8333333333333</ele><time>2026-04-11T18:56:16Z</time></trkpt><trkpt lat="43.15513407869354" lon="11.696066221277917"><ele>555.6666666666666</ele><time>2026-04-11T18:56:19Z</time></trkpt><trkpt lat="43.15519857735659" lon="11.695991032793062"><ele>556.5</ele><time>2026-04-11T18:56:22Z</time></trkpt><trkpt lat="43.155258771143025" lon="11.695913164828337"><ele>557.3333333333334</ele><time>2026-04-11T18:56:25Z</time></trkpt><trkpt lat="43.15530106676871" lon="11.695830692176294"><ele>558.1666666666667</ele><time>2026-04-11T18:56:28Z</time></trkpt><trkpt lat="43.15534534835419" lon="11.695728038564988"><ele>559.0</ele><time>2026-04-11T18:56:31Z</time></trkpt><trkpt lat="43.15541857288037" lon="11.69560560390067"><ele>559.0</ele><time>2026-04-11T18:56:34Z</time></trkpt><trkpt lat="43.15545120192198" lon="11.695524306202115"><ele>559.0</ele><time>2026-04-11T18:56:36Z</time></trkpt><trkpt lat="43.15550749353482" lon="11.695440538740426"><ele>559.0</ele><time>2026-04-11T18:56:39Z</time></trkpt><trkpt lat="43.155561735870826" lon="11.695357277401412"><ele>559.0</ele><time>2026-04-11T18:56:42Z</time></trkpt><trkpt lat="43.1556101222279" lon="11.695272911719806"><ele>559.0</ele><time>2026-04-11T18:56:45Z</time></trkpt><trkpt lat="43.15566778417821" lon="11.695176187427219"><ele>559.0</ele><time>2026-04-11T18:56:48Z</time></trkpt><trkpt lat="43.155719299493995" lon="11.695104131220358"><ele>560.0</ele><time>2026-04-11T18:56:50Z</time></trkpt><trkpt lat="43.15578651710542" lon="11.695032242546251"><ele>561.0</ele><time>2026-04-11T18:56:53Z</time></trkpt><trkpt lat="43.15584967041239" lon="11.694974154236533"><ele>562.0</ele><time>2026-04-11T18:56:55Z</time></trkpt><trkpt lat="43.1559236128342" lon="11.694921160569724"><ele>563.0</ele><time>2026-04-11T18:56:58Z</time></trkpt><trkpt lat="43.15599479086889" lon="11.694876481396154"><ele>564.0</ele><time>2026-04-11T18:57:01Z</time></trkpt><trkpt lat="43.156053221408534" lon="11.694836836012"><ele>565.0</ele><time>2026-04-11T18:57:03Z</time></trkpt><trkpt lat="43.1561433598469" lon="11.69479389130664"><ele>565.0</ele><time>2026-04-11T18:57:06Z</time></trkpt><trkpt lat="43.156224191880995" lon="11.694754717093856"><ele>565.0</ele><time>2026-04-11T18:57:09Z</time></trkpt><trkpt lat="43.156306252826084" lon="11.694697236733225"><ele>565.0</ele><time>2026-04-11T18:57:12Z</time></trkpt><trkpt lat="43.15636925388354" lon="11.694651536461203"><ele>565.0</ele><time>2026-04-11T18:57:14Z</time></trkpt><trkpt lat="43.15644360792898" lon="11.69460177843996"><ele>565.0</ele><time>2026-04-11T18:57:17Z</time></trkpt><trkpt lat="43.15652403047693" lon="11.694533149279986"><ele>565.0</ele><time>2026-04-11T18:57:20Z</time></trkpt><trkpt lat="43.1566040713843" lon="11.69446530239146"><ele>565.1666666666667</ele><time>2026-04-11T18:57:23Z</time></trkpt><trkpt lat="43.15667167704007" lon="11.694416197699896"><ele>565.3333333333334</ele><time>2026-04-11T18:57:25Z</time></trkpt><trkpt lat="43.15674850088945" lon="11.694360409150466"><ele>565.5</ele><time>2026-04-11T18:57:27Z</time></trkpt><trkpt lat="43.156816232602026" lon="11.694325991727407"><ele>565.6666666666666</ele><time>2026-04-11T18:57:30Z</time></trkpt><trkpt lat="43.15691299669709" lon="11.694270025774303"><ele>565.8333333333333</ele><time>2026-04-11T18:57:33Z</time></trkpt><trkpt lat="43.15697198425592" lon="11.694230160134042"><ele>566.0</ele><time>2026-04-11T18:57:35Z</time></trkpt><trkpt lat="43.15704256724771" lon="11.694198416338306"><ele>566.0</ele><time>2026-04-11T18:57:37Z</time></trkpt><trkpt lat="43.15712117214425" lon="11.694173487543368"><ele>566.0</ele><time>2026-04-11T18:57:40Z</time></trkpt><trkpt lat="43.15722345991902" lon="11.694142974545956"><ele>566.0</ele><time>2026-04-11T18:57:43Z</time></trkpt><trkpt lat="43.15730734331639" lon="11.694097853422495"><ele>566.0</ele><time>2026-04-11T18:57:46Z</time></trkpt><trkpt lat="43.157372174280376" lon="11.694067094859076"><ele>566.0</ele><time>2026-04-11T18:57:48Z</time></trkpt><trkpt lat="43.15749570034086" lon="11.694011076828584"><ele>567.3333333333333</ele><time>2026-04-11T18:57:51Z</time></trkpt><trkpt lat="43.157581828927555" lon="11.69398021479112"><ele>568.6666666666666</ele><time>2026-04-11T18:57:53Z</time></trkpt><trkpt lat="43.15765429252223" lon="11.693929296402064"><ele>570.0</ele><time>2026-04-11T18:57:55Z</time></trkpt><trkpt lat="43.15770902789387" lon="11.693874175891686"><ele>571.3333333333334</ele><time>2026-04-11T18:57:57Z</time></trkpt><trkpt lat="43.15775929766172" lon="11.693796984459365"><ele>572.6666666666667</ele><time>2026-04-11T18:57:59Z</time></trkpt><trkpt lat="43.15778712632934" lon="11.693713126567792"><ele>574.0</ele><time>2026-04-11T18:58:02Z</time></trkpt><trkpt lat="43.15780232313469" lon="11.693602278184606"><ele>573.8333333333334</ele><time>2026-04-11T18:58:05Z</time></trkpt><trkpt lat="43.15780688704273" lon="11.69351221408536"><ele>573.6666666666667</ele><time>2026-04-11T18:58:07Z</time></trkpt><trkpt lat="43.15782164096441" lon="11.693382994632598"><ele>573.5</ele><time>2026-04-11T18:58:10Z</time></trkpt><trkpt lat="43.15783860538973" lon="11.693297416551475"><ele>573.3333333333334</ele><time>2026-04-11T18:58:12Z</time></trkpt><trkpt lat="43.157858870564695" lon="11.693213822029943"><ele>573.1666666666666</ele><time>2026-04-11T18:58:15Z</time></trkpt><trkpt lat="43.15789579377534" lon="11.69311333610104"><ele>573.0</ele><time>2026-04-11T18:58:18Z</time></trkpt><trkpt lat="43.157926668455154" lon="11.693007477950564"><ele>573.0</ele><time>2026-04-11T18:58:21Z</time></trkpt><trkpt lat="43.15794637033175" lon="11.692921696262491"><ele>573.0</ele><time>2026-04-11T18:58:24Z</time></trkpt><trkpt lat="43.15798269286041" lon="11.69282470231843"><ele>573.0</ele><time>2026-04-11T18:58:27Z</time></trkpt><trkpt lat="43.158011270160095" lon="11.692726292286693"><ele>573.0</ele><time>2026-04-11T18:58:30Z</time></trkpt><trkpt lat="43.158038580351146" lon="11.692647220400765"><ele>573.0</ele><time>2026-04-11T18:58:32Z</time></trkpt><trkpt lat="43.15810442541128" lon="11.692534657601575"><ele>573.0</ele><time>2026-04-11T18:58:35Z</time></trkpt><trkpt lat="43.15817787623175" lon="11.692433899834707"><ele>574.0</ele><time>2026-04-11T18:58:37Z</time></trkpt><trkpt lat="43.1582647323874" lon="11.692354405381014"><ele>575.0</ele><time>2026-04-11T18:58:39Z</time></trkpt><trkpt lat="43.15835288279167" lon="11.692292231885157"><ele>576.0</ele><time>2026-04-11T18:58:41Z</time></trkpt><trkpt lat="43.15845317569869" lon="11.692228101410748"><ele>577.0</ele><time>2026-04-11T18:58:43Z</time></trkpt><trkpt lat="43.15854431821319" lon="11.692170767148042"><ele>578.0</ele><time>2026-04-11T18:58:45Z</time></trkpt><trkpt lat="43.15863507346904" lon="11.6921111502284"><ele>578.0</ele><time>2026-04-11T18:58:47Z</time></trkpt><trkpt lat="43.15874283705327" lon="11.692058410380726"><ele>578.0</ele><time>2026-04-11T18:58:49Z</time></trkpt><trkpt lat="43.15886030032019" lon="11.692006309658796"><ele>578.0</ele><time>2026-04-11T18:58:51Z</time></trkpt><trkpt lat="43.15897451265309" lon="11.691974099193551"><ele>578.0</ele><time>2026-04-11T18:58:53Z</time></trkpt><trkpt lat="43.159069163068374" lon="11.69190620652274"><ele>575.6</ele><time>2026-04-11T18:58:55Z</time></trkpt><trkpt lat="43.15917080455208" lon="11.69186082080083"><ele>573.1999999999999</ele><time>2026-04-11T18:58:57Z</time></trkpt><trkpt lat="43.159273377793994" lon="11.69183011794107"><ele>570.8</ele><time>2026-04-11T18:58:59Z</time></trkpt><trkpt lat="43.1593717593902" lon="11.691763893921891"><ele>568.4</ele><time>2026-04-11T18:59:01Z</time></trkpt><trkpt lat="43.15946354478513" lon="11.691686335965603"><ele>566.0</ele><time>2026-04-11T18:59:03Z</time></trkpt><trkpt lat="43.15954757321731" lon="11.691600732645917"><ele>566.0</ele><time>2026-04-11T18:59:05Z</time></trkpt><trkpt lat="43.15962088425544" lon="11.691512885762867"><ele>566.0</ele><time>2026-04-11T18:59:07Z</time></trkpt><trkpt lat="43.15962537679263" lon="11.691423839715734"><ele>566.0</ele><time>2026-04-11T18:59:08Z</time></trkpt><trkpt lat="43.15972362209491" lon="11.69134760445652"><ele>566.0</ele><time>2026-04-11T18:59:10Z</time></trkpt><trkpt lat="43.15977859143681" lon="11.691212691508609"><ele>566.0</ele><time>2026-04-11T18:59:12Z</time></trkpt><trkpt lat="43.15979918340714" lon="11.691076999484368"><ele>564.3333333333333</ele><time>2026-04-11T18:59:14Z</time></trkpt><trkpt lat="43.15979663953245" lon="11.690952274842392"><ele>562.6666666666666</ele><time>2026-04-11T18:59:16Z</time></trkpt><trkpt lat="43.15978794758112" lon="11.690855165837759"><ele>561.0</ele><time>2026-04-11T18:59:18Z</time></trkpt><trkpt lat="43.159779211471" lon="11.690763287765177"><ele>559.3333333333334</ele><time>2026-04-11T18:59:20Z</time></trkpt><trkpt lat="43.15977595080051" lon="11.69067325051177"><ele>557.6666666666667</ele><time>2026-04-11T18:59:24Z</time></trkpt><trkpt lat="43.15977934857693" lon="11.69055411391659"><ele>556.0</ele><time>2026-04-11T18:59:28Z</time></trkpt><trkpt lat="43.15979239529725" lon="11.690438372570284"><ele>556.0</ele><time>2026-04-11T18:59:30Z</time></trkpt><trkpt lat="43.159825220844716" lon="11.690322983003329"><ele>556.0</ele><time>2026-04-11T18:59:33Z</time></trkpt><trkpt lat="43.15984899662495" lon="11.690237685943428"><ele>556.0</ele><time>2026-04-11T18:59:35Z</time></trkpt><trkpt lat="43.159910543785095" lon="11.690154740891163"><ele>556.0</ele><time>2026-04-11T18:59:39Z</time></trkpt><trkpt lat="43.16000219918294" lon="11.690086612930713"><ele>556.0</ele><time>2026-04-11T18:59:42Z</time></trkpt><trkpt lat="43.160066466917215" lon="11.69007485498811"><ele>556.0</ele><time>2026-04-11T18:59:44Z</time></trkpt><trkpt lat="43.16015007421952" lon="11.69008307646524"><ele>558.1666666666667</ele><time>2026-04-11T18:59:48Z</time></trkpt><trkpt lat="43.16021999405475" lon="11.69010678756938"><ele>560.3333333333334</ele><time>2026-04-11T18:59:51Z</time></trkpt><trkpt lat="43.1602987917123" lon="11.690142288376547"><ele>562.5</ele><time>2026-04-11T18:59:54Z</time></trkpt><trkpt lat="43.16042337093332" lon="11.690197522674081"><ele>564.6666666666666</ele><time>2026-04-11T18:59:57Z</time></trkpt><trkpt lat="43.16048500609688" lon="11.690225766260248"><ele>566.8333333333333</ele><time>2026-04-11T18:59:58Z</time></trkpt><trkpt lat="43.16055540667783" lon="11.690296540147068"><ele>569.0</ele><time>2026-04-11T19:00:00Z</time></trkpt><trkpt lat="43.16063302628848" lon="11.690333133668048"><ele>572.6666666666666</ele><time>2026-04-11T19:00:02Z</time></trkpt><trkpt lat="43.16071239956906" lon="11.690366642677287"><ele>576.3333333333333</ele><time>2026-04-11T19:00:04Z</time></trkpt><trkpt lat="43.16079448577807" lon="11.690399282755052"><ele>580.0</ele><time>2026-04-11T19:00:06Z</time></trkpt><trkpt lat="43.1608817172148" lon="11.690427626956481"><ele>583.6666666666666</ele><time>2026-04-11T19:00:08Z</time></trkpt><trkpt lat="43.16097089456654" lon="11.690451055417945"><ele>587.3333333333334</ele><time>2026-04-11T19:00:10Z</time></trkpt><trkpt lat="43.161042862299595" lon="11.690467089032703"><ele>591.0</ele><time>2026-04-11T19:00:12Z</time></trkpt><trkpt lat="43.161118381013694" lon="11.690481731033032"><ele>591.0</ele><time>2026-04-11T19:00:14Z</time></trkpt><trkpt lat="43.16119799680697" lon="11.690493896310063"><ele>591.0</ele><time>2026-04-11T19:00:17Z</time></trkpt><trkpt lat="43.16127786946146" lon="11.690501905789867"><ele>591.0</ele><time>2026-04-11T19:00:20Z</time></trkpt><trkpt lat="43.16137712738131" lon="11.690484716685367"><ele>591.0</ele><time>2026-04-11T19:00:23Z</time></trkpt><trkpt lat="43.16144405280826" lon="11.690454073090697"><ele>591.0</ele><time>2026-04-11T19:00:25Z</time></trkpt><trkpt lat="43.1615129875682" lon="11.690406214602701"><ele>591.0</ele><time>2026-04-11T19:00:27Z</time></trkpt><trkpt lat="43.16150627558368" lon="11.690238263602154"><ele>589.1666666666666</ele><time>2026-04-11T19:00:29Z</time></trkpt><trkpt lat="43.161550067608154" lon="11.690146299849008"><ele>587.3333333333334</ele><time>2026-04-11T19:00:32Z</time></trkpt><trkpt lat="43.161589160441295" lon="11.690049683135552"><ele>585.5</ele><time>2026-04-11T19:00:35Z</time></trkpt><trkpt lat="43.161591946738405" lon="11.689958899000606"><ele>583.6666666666667</ele><time>2026-04-11T19:00:37Z</time></trkpt><trkpt lat="43.16160702157098" lon="11.689870804316486"><ele>581.8333333333334</ele><time>2026-04-11T19:00:39Z</time></trkpt><trkpt lat="43.16161492713908" lon="11.689769412714561"><ele>580.0</ele><time>2026-04-11T19:00:42Z</time></trkpt><trkpt lat="43.161644520764504" lon="11.689655257075076"><ele>580.0</ele><time>2026-04-11T19:00:45Z</time></trkpt><trkpt lat="43.161677163186035" lon="11.689570727097964"><ele>580.0</ele><time>2026-04-11T19:00:46Z</time></trkpt><trkpt lat="43.16175201528628" lon="11.689497330642102"><ele>580.0</ele><time>2026-04-11T19:00:48Z</time></trkpt><trkpt lat="43.16184186573249" lon="11.689477006654284"><ele>580.0</ele><time>2026-04-11T19:00:50Z</time></trkpt><trkpt lat="43.16193993753219" lon="11.689483391392873"><ele>580.0</ele><time>2026-04-11T19:00:52Z</time></trkpt><trkpt lat="43.16202803389799" lon="11.689486988607172"><ele>580.0</ele><time>2026-04-11T19:00:54Z</time></trkpt><trkpt lat="43.16211875880123" lon="11.689508032673817"><ele>580.0</ele><time>2026-04-11T19:00:56Z</time></trkpt><trkpt lat="43.16220515143375" lon="11.689517080911882"><ele>580.0</ele><time>2026-04-11T19:00:58Z</time></trkpt><trkpt lat="43.16229658193225" lon="11.689535984162209"><ele>580.0</ele><time>2026-04-11T19:01:00Z</time></trkpt><trkpt lat="43.16239332295881" lon="11.689543883551627"><ele>580.0</ele><time>2026-04-11T19:01:02Z</time></trkpt><trkpt lat="43.16248899764316" lon="11.689548173218656"><ele>580.0</ele><time>2026-04-11T19:01:04Z</time></trkpt><trkpt lat="43.1625916787998" lon="11.689567414057477"><ele>581.2</ele><time>2026-04-11T19:01:06Z</time></trkpt><trkpt lat="43.1626934714143" lon="11.689621603335102"><ele>582.4</ele><time>2026-04-11T19:01:08Z</time></trkpt><trkpt lat="43.16280523419111" lon="11.68962775733291"><ele>583.6</ele><time>2026-04-11T19:01:10Z</time></trkpt><trkpt lat="43.16290965231353" lon="11.689629676248387"><ele>584.8</ele><time>2026-04-11T19:01:12Z</time></trkpt><trkpt lat="43.163026195144724" lon="11.68962962571601"><ele>586.0</ele><time>2026-04-11T19:01:14Z</time></trkpt><trkpt lat="43.163141293922024" lon="11.689617811299614"><ele>585.5</ele><time>2026-04-11T19:01:16Z</time></trkpt><trkpt lat="43.16326171741634" lon="11.689602030892411"><ele>585.0</ele><time>2026-04-11T19:01:18Z</time></trkpt><trkpt lat="43.16338421072959" lon="11.689591590116924"><ele>584.5</ele><time>2026-04-11T19:01:20Z</time></trkpt><trkpt lat="43.16344728837301" lon="11.689588351485321"><ele>584.0</ele><time>2026-04-11T19:01:21Z</time></trkpt><trkpt lat="43.163514920974606" lon="11.689585292784768"><ele>583.5</ele><time>2026-04-11T19:01:22Z</time></trkpt><trkpt lat="43.16357958941093" lon="11.68957823260228"><ele>583.0</ele><time>2026-04-11T19:01:23Z</time></trkpt><trkpt lat="43.163646034397225" lon="11.68956746304156"><ele>583.0</ele><time>2026-04-11T19:01:24Z</time></trkpt><trkpt lat="43.163710070917006" lon="11.68954920941868"><ele>583.0</ele><time>2026-04-11T19:01:25Z</time></trkpt><trkpt lat="43.16383184423787" lon="11.68951426184576"><ele>583.0</ele><time>2026-04-11T19:01:27Z</time></trkpt><trkpt lat="43.16393822120676" lon="11.689455949429338"><ele>583.0</ele><time>2026-04-11T19:01:29Z</time></trkpt><trkpt lat="43.16402415900139" lon="11.689368044402508"><ele>583.0</ele><time>2026-04-11T19:01:31Z</time></trkpt><trkpt lat="43.16406921981306" lon="11.689237894386071"><ele>580.6</ele><time>2026-04-11T19:01:33Z</time></trkpt><trkpt lat="43.16408365078747" lon="11.689098768372762"><ele>578.1999999999999</ele><time>2026-04-11T19:01:35Z</time></trkpt><trkpt lat="43.164042769036826" lon="11.688983529775017"><ele>575.8</ele><time>2026-04-11T19:01:37Z</time></trkpt><trkpt lat="43.16402544559574" lon="11.688887326741032"><ele>573.4</ele><time>2026-04-11T19:01:39Z</time></trkpt><trkpt lat="43.16401819561775" lon="11.688773351024967"><ele>571.0</ele><time>2026-04-11T19:01:41Z</time></trkpt><trkpt lat="43.164064026173705" lon="11.688642004064462"><ele>569.5</ele><time>2026-04-11T19:01:43Z</time></trkpt><trkpt lat="43.164131168736425" lon="11.688544822766808"><ele>568.0</ele><time>2026-04-11T19:01:45Z</time></trkpt><trkpt lat="43.16420621074852" lon="11.688478665837044"><ele>566.5</ele><time>2026-04-11T19:01:47Z</time></trkpt><trkpt lat="43.1642795753469" lon="11.688424164873314"><ele>565.0</ele><time>2026-04-11T19:01:49Z</time></trkpt><trkpt lat="43.164333561501834" lon="11.688364348913645"><ele>563.5</ele><time>2026-04-11T19:01:51Z</time></trkpt><trkpt lat="43.16437468389204" lon="11.688291323936127"><ele>562.0</ele><time>2026-04-11T19:01:53Z</time></trkpt><trkpt lat="43.16440370823064" lon="11.688197083957025"><ele>562.0</ele><time>2026-04-11T19:01:55Z</time></trkpt><trkpt lat="43.16441097040353" lon="11.68808723234061"><ele>562.0</ele><time>2026-04-11T19:01:57Z</time></trkpt><trkpt lat="43.16437835945247" lon="11.687989171787681"><ele>562.0</ele><time>2026-04-11T19:01:59Z</time></trkpt><trkpt lat="43.16432680534814" lon="11.687894794644112"><ele>562.0</ele><time>2026-04-11T19:02:01Z</time></trkpt><trkpt lat="43.16429487300319" lon="11.687793001485403"><ele>562.0</ele><time>2026-04-11T19:02:03Z</time></trkpt><trkpt lat="43.16425145532351" lon="11.687678774792236"><ele>562.0</ele><time>2026-04-11T19:02:05Z</time></trkpt><trkpt lat="43.164203346423776" lon="11.687557893192485"><ele>560.8000000000001</ele><time>2026-04-11T19:02:07Z</time></trkpt><trkpt lat="43.16415596516866" lon="11.687449226454792"><ele>559.6</ele><time>2026-04-11T19:02:09Z</time></trkpt><trkpt lat="43.16409925758661" lon="11.68733685440135"><ele>558.4000000000001</ele><time>2026-04-11T19:02:11Z</time></trkpt><trkpt lat="43.16403320455938" lon="11.68724805296317"><ele>557.2</ele><time>2026-04-11T19:02:13Z</time></trkpt><trkpt lat="43.16396803877504" lon="11.687154674409678"><ele>556.0</ele><time>2026-04-11T19:02:15Z</time></trkpt><trkpt lat="43.1638939039975" lon="11.687046227524307"><ele>552.4</ele><time>2026-04-11T19:02:17Z</time></trkpt><trkpt lat="43.16384891122613" lon="11.686926802094401"><ele>548.8</ele><time>2026-04-11T19:02:19Z</time></trkpt><trkpt lat="43.1637783711782" lon="11.686827061797766"><ele>545.1999999999999</ele><time>2026-04-11T19:02:21Z</time></trkpt><trkpt lat="43.16372115201492" lon="11.686731692151634"><ele>541.6</ele><time>2026-04-11T19:02:23Z</time></trkpt><trkpt lat="43.16368438371432" lon="11.686616602221548"><ele>538.0</ele><time>2026-04-11T19:02:26Z</time></trkpt><trkpt lat="43.163661848755446" lon="11.686474732129366"><ele>538.0</ele><time>2026-04-11T19:02:28Z</time></trkpt><trkpt lat="43.16365918634789" lon="11.68632327459491"><ele>538.0</ele><time>2026-04-11T19:02:30Z</time></trkpt><trkpt lat="43.16366884206542" lon="11.686179786384061"><ele>538.0</ele><time>2026-04-11T19:02:32Z</time></trkpt><trkpt lat="43.16366647114864" lon="11.686033713618707"><ele>538.0</ele><time>2026-04-11T19:02:34Z</time></trkpt><trkpt lat="43.16366495085205" lon="11.685895848978246"><ele>538.0</ele><time>2026-04-11T19:02:36Z</time></trkpt><trkpt lat="43.16366616434924" lon="11.685769144011614"><ele>539.1999999999999</ele><time>2026-04-11T19:02:38Z</time></trkpt><trkpt lat="43.163671226123505" lon="11.685632845908275"><ele>540.4</ele><time>2026-04-11T19:02:40Z</time></trkpt><trkpt lat="43.16367810218456" lon="11.685472277225005"><ele>541.5999999999999</ele><time>2026-04-11T19:02:42Z</time></trkpt><trkpt lat="43.16368030752851" lon="11.685330293810473"><ele>542.8</ele><time>2026-04-11T19:02:44Z</time></trkpt><trkpt lat="43.16368108758714" lon="11.685179523729868"><ele>544.0</ele><time>2026-04-11T19:02:46Z</time></trkpt><trkpt lat="43.16367533765257" lon="11.685032078146783"><ele>544.0</ele><time>2026-04-11T19:02:48Z</time></trkpt><trkpt lat="43.163656726980925" lon="11.684907403631607"><ele>544.0</ele><time>2026-04-11T19:02:50Z</time></trkpt><trkpt lat="43.163630352471436" lon="11.684779278658777"><ele>544.0</ele><time>2026-04-11T19:02:52Z</time></trkpt><trkpt lat="43.16360505758308" lon="11.684652421540417"><ele>544.0</ele><time>2026-04-11T19:02:54Z</time></trkpt><trkpt lat="43.163580783674725" lon="11.684522090084405"><ele>544.0</ele><time>2026-04-11T19:02:56Z</time></trkpt><trkpt lat="43.163556004126036" lon="11.684384154686974"><ele>541.8</ele><time>2026-04-11T19:02:58Z</time></trkpt><trkpt lat="43.163532460893464" lon="11.684253101174146"><ele>539.5999999999999</ele><time>2026-04-11T19:03:00Z</time></trkpt><trkpt lat="43.16350869439106" lon="11.684120804892665"><ele>537.4</ele><time>2026-04-11T19:03:02Z</time></trkpt><trkpt lat="43.16348389518744" lon="11.683993383722749"><ele>535.1999999999999</ele><time>2026-04-11T19:03:04Z</time></trkpt><trkpt lat="43.16344589389081" lon="11.683886189800365"><ele>533.0</ele><time>2026-04-11T19:03:06Z</time></trkpt><trkpt lat="43.16344475692993" lon="11.683779285913209"><ele>533.0</ele><time>2026-04-11T19:03:08Z</time></trkpt><trkpt lat="43.16343566008567" lon="11.683679464402108"><ele>533.0</ele><time>2026-04-11T19:03:10Z</time></trkpt><trkpt lat="43.16343910305236" lon="11.683578504289084"><ele>533.0</ele><time>2026-04-11T19:03:12Z</time></trkpt><trkpt lat="43.16346280112304" lon="11.683479068080288"><ele>533.0</ele><time>2026-04-11T19:03:14Z</time></trkpt><trkpt lat="43.163539320540835" lon="11.683413797125894"><ele>533.0</ele><time>2026-04-11T19:03:16Z</time></trkpt><trkpt lat="43.16363022520246" lon="11.68338956307444"><ele>533.0</ele><time>2026-04-11T19:03:18Z</time></trkpt><trkpt lat="43.16371962921975" lon="11.68336704829509"><ele>532.6</ele><time>2026-04-11T19:03:20Z</time></trkpt><trkpt lat="43.1638116730325" lon="11.683338455051949"><ele>532.1999999999999</ele><time>2026-04-11T19:03:22Z</time></trkpt><trkpt lat="43.16389824261884" lon="11.683316587845084"><ele>531.8</ele><time>2026-04-11T19:03:24Z</time></trkpt><trkpt lat="43.16398575607564" lon="11.683296648704673"><ele>531.4</ele><time>2026-04-11T19:03:26Z</time></trkpt><trkpt lat="43.16407314634732" lon="11.683230358746181"><ele>531.0</ele><time>2026-04-11T19:03:28Z</time></trkpt><trkpt lat="43.16413264762759" lon="11.683124532711915"><ele>531.0</ele><time>2026-04-11T19:03:30Z</time></trkpt><trkpt lat="43.16416487722873" lon="11.683009891689329"><ele>531.0</ele><time>2026-04-11T19:03:32Z</time></trkpt><trkpt lat="43.16417779428102" lon="11.682892748024306"><ele>531.0</ele><time>2026-04-11T19:03:34Z</time></trkpt><trkpt lat="43.164196675179085" lon="11.682774635448293"><ele>531.0</ele><time>2026-04-11T19:03:36Z</time></trkpt><trkpt lat="43.16419487477091" lon="11.68268363082225"><ele>531.0</ele><time>2026-04-11T19:03:37Z</time></trkpt><trkpt lat="43.16422705663449" lon="11.682557072280941"><ele>531.0</ele><time>2026-04-11T19:03:39Z</time></trkpt><trkpt lat="43.16422763600498" lon="11.682416538874753"><ele>529.1666666666666</ele><time>2026-04-11T19:03:41Z</time></trkpt><trkpt lat="43.16422957397499" lon="11.682276738033684"><ele>527.3333333333334</ele><time>2026-04-11T19:03:43Z</time></trkpt><trkpt lat="43.16422945091656" lon="11.682174507586707"><ele>525.5</ele><time>2026-04-11T19:03:45Z</time></trkpt><trkpt lat="43.16422186999995" lon="11.682052721147645"><ele>523.6666666666667</ele><time>2026-04-11T19:03:47Z</time></trkpt><trkpt lat="43.16420645409298" lon="11.68194198131911"><ele>521.8333333333334</ele><time>2026-04-11T19:03:49Z</time></trkpt><trkpt lat="43.16419094050295" lon="11.68181708352469"><ele>520.0</ele><time>2026-04-11T19:03:51Z</time></trkpt><trkpt lat="43.16418437117129" lon="11.681690208916356"><ele>518.8333333333334</ele><time>2026-04-11T19:03:53Z</time></trkpt><trkpt lat="43.16417895263773" lon="11.681567240895696"><ele>517.6666666666667</ele><time>2026-04-11T19:03:55Z</time></trkpt><trkpt lat="43.1642044836283" lon="11.681434952644004"><ele>516.5</ele><time>2026-04-11T19:03:57Z</time></trkpt><trkpt lat="43.16423786325827" lon="11.681318751524847"><ele>515.3333333333334</ele><time>2026-04-11T19:03:59Z</time></trkpt><trkpt lat="43.16428022408527" lon="11.681225995269731"><ele>514.1666666666666</ele><time>2026-04-11T19:04:01Z</time></trkpt><trkpt lat="43.16431231514466" lon="11.681125942764782"><ele>513.0</ele><time>2026-04-11T19:04:03Z</time></trkpt><trkpt lat="43.16433276675764" lon="11.681011568407968"><ele>512.0</ele><time>2026-04-11T19:04:05Z</time></trkpt><trkpt lat="43.164327852414374" lon="11.680887764485444"><ele>510.99999999999994</ele><time>2026-04-11T19:04:07Z</time></trkpt><trkpt lat="43.16431604648167" lon="11.680767340259882"><ele>509.99999999999994</ele><time>2026-04-11T19:04:09Z</time></trkpt><trkpt lat="43.164272409296935" lon="11.680643369224448"><ele>509.0</ele><time>2026-04-11T19:04:11Z</time></trkpt><trkpt lat="43.16423857895189" lon="11.680523897209715"><ele>508.0</ele><time>2026-04-11T19:04:13Z</time></trkpt><trkpt lat="43.1641983216902" lon="11.680409486833438"><ele>508.00000000000006</ele><time>2026-04-11T19:04:15Z</time></trkpt><trkpt lat="43.16415924575" lon="11.680305935197238"><ele>508.0</ele><time>2026-04-11T19:04:17Z</time></trkpt><trkpt lat="43.16412403258069" lon="11.680196472745095"><ele>508.0</ele><time>2026-04-11T19:04:19Z</time></trkpt><trkpt lat="43.16409865210502" lon="11.68008639246822"><ele>508.0</ele><time>2026-04-11T19:04:21Z</time></trkpt><trkpt lat="43.16408523151108" lon="11.679975975604036"><ele>508.00000000000006</ele><time>2026-04-11T19:04:23Z</time></trkpt><trkpt lat="43.16406903160775" lon="11.679863390254107"><ele>508.0</ele><time>2026-04-11T19:04:25Z</time></trkpt><trkpt lat="43.16405458910393" lon="11.679741055964795"><ele>507.59999999999997</ele><time>2026-04-11T19:04:27Z</time></trkpt><trkpt lat="43.164032221828265" lon="11.67961537488203"><ele>507.19999999999993</ele><time>2026-04-11T19:04:29Z</time></trkpt><trkpt lat="43.164003699321626" lon="11.679497712851587"><ele>506.8</ele><time>2026-04-11T19:04:31Z</time></trkpt><trkpt lat="43.163982245463274" lon="11.679364089315882"><ele>506.4</ele><time>2026-04-11T19:04:33Z</time></trkpt><trkpt lat="43.16396849164149" lon="11.679225295441006"><ele>506.0</ele><time>2026-04-11T19:04:35Z</time></trkpt><trkpt lat="43.16398061431615" lon="11.679085561004268"><ele>503.0</ele><time>2026-04-11T19:04:37Z</time></trkpt><trkpt lat="43.163972214229474" lon="11.67895359254906"><ele>500.0</ele><time>2026-04-11T19:04:39Z</time></trkpt><trkpt lat="43.16395512383383" lon="11.678809363564728"><ele>497.0</ele><time>2026-04-11T19:04:41Z</time></trkpt><trkpt lat="43.16397253606931" lon="11.678658859003512"><ele>494.0</ele><time>2026-04-11T19:04:43Z</time></trkpt><trkpt lat="43.163980888797454" lon="11.678500150523048"><ele>491.0</ele><time>2026-04-11T19:04:45Z</time></trkpt><trkpt lat="43.163987347129364" lon="11.678413825836243"><ele>490.0</ele><time>2026-04-11T19:04:46Z</time></trkpt><trkpt lat="43.164001827443094" lon="11.678248494980883"><ele>489.0</ele><time>2026-04-11T19:04:48Z</time></trkpt><trkpt lat="43.16402023739198" lon="11.678087218614968"><ele>488.0</ele><time>2026-04-11T19:04:50Z</time></trkpt><trkpt lat="43.16404235371766" lon="11.677928586515744"><ele>487.0</ele><time>2026-04-11T19:04:52Z</time></trkpt><trkpt lat="43.164068292381025" lon="11.67777888255819"><ele>487.8</ele><time>2026-04-11T19:04:54Z</time></trkpt><trkpt lat="43.16410130188955" lon="11.677635118189622"><ele>488.6</ele><time>2026-04-11T19:04:56Z</time></trkpt><trkpt lat="43.16412999283639" lon="11.677499899587156"><ele>489.40000000000003</ele><time>2026-04-11T19:04:58Z</time></trkpt><trkpt lat="43.164144645887056" lon="11.677360401205883"><ele>490.20000000000005</ele><time>2026-04-11T19:05:00Z</time></trkpt><trkpt lat="43.16418324239972" lon="11.67722922698144"><ele>491.0</ele><time>2026-04-11T19:05:02Z</time></trkpt><trkpt lat="43.164183064872105" lon="11.677094597992104"><ele>491.0</ele><time>2026-04-11T19:05:04Z</time></trkpt><trkpt lat="43.164189587198166" lon="11.676959739873855"><ele>491.0</ele><time>2026-04-11T19:05:06Z</time></trkpt><trkpt lat="43.16418957798498" lon="11.676826612489382"><ele>491.0</ele><time>2026-04-11T19:05:08Z</time></trkpt><trkpt lat="43.16417907487649" lon="11.676700593425325"><ele>491.0</ele><time>2026-04-11T19:05:10Z</time></trkpt><trkpt lat="43.164168900118426" lon="11.67656661667127"><ele>491.0</ele><time>2026-04-11T19:05:12Z</time></trkpt><trkpt lat="43.164145611986584" lon="11.67642444320851"><ele>491.4</ele><time>2026-04-11T19:05:14Z</time></trkpt><trkpt lat="43.164124729420266" lon="11.676284380848214"><ele>491.8</ele><time>2026-04-11T19:05:16Z</time></trkpt><trkpt lat="43.16410517934352" lon="11.676151688668904"><ele>492.19999999999993</ele><time>2026-04-11T19:05:18Z</time></trkpt><trkpt lat="43.16408212327035" lon="11.676028690445081"><ele>492.59999999999997</ele><time>2026-04-11T19:05:20Z</time></trkpt><trkpt lat="43.164057927462245" lon="11.675902773026982"><ele>493.0</ele><time>2026-04-11T19:05:22Z</time></trkpt><trkpt lat="43.16403024791369" lon="11.675770617150494"><ele>493.0</ele><time>2026-04-11T19:05:24Z</time></trkpt><trkpt lat="43.16405310589059" lon="11.675632807923796"><ele>492.99999999999994</ele><time>2026-04-11T19:05:26Z</time></trkpt><trkpt lat="43.16404371480911" lon="11.67551353352683"><ele>492.99999999999994</ele><time>2026-04-11T19:05:28Z</time></trkpt><trkpt lat="43.164038484389316" lon="11.675393499896975"><ele>493.0</ele><time>2026-04-11T19:05:30Z</time></trkpt><trkpt lat="43.16403856829902" lon="11.675279552446606"><ele>493.0</ele><time>2026-04-11T19:05:32Z</time></trkpt><trkpt lat="43.16404771799569" lon="11.675144736975913"><ele>491.6666666666667</ele><time>2026-04-11T19:05:34Z</time></trkpt><trkpt lat="43.16407173272091" lon="11.67501209787402"><ele>490.33333333333337</ele><time>2026-04-11T19:05:36Z</time></trkpt><trkpt lat="43.16411618324028" lon="11.674893049570985"><ele>489.0</ele><time>2026-04-11T19:05:38Z</time></trkpt><trkpt lat="43.164186312495964" lon="11.674778301431077"><ele>487.66666666666663</ele><time>2026-04-11T19:05:40Z</time></trkpt><trkpt lat="43.164224910556825" lon="11.67470495554454"><ele>486.3333333333333</ele><time>2026-04-11T19:05:41Z</time></trkpt><trkpt lat="43.1642574192024" lon="11.674623113672189"><ele>485.0</ele><time>2026-04-11T19:05:42Z</time></trkpt><trkpt lat="43.16430392909061" lon="11.674488941073086"><ele>483.2</ele><time>2026-04-11T19:05:44Z</time></trkpt><trkpt lat="43.16434986637269" lon="11.674348151101746"><ele>481.4</ele><time>2026-04-11T19:05:46Z</time></trkpt><trkpt lat="43.16439316538281" lon="11.674209006028223"><ele>479.6</ele><time>2026-04-11T19:05:48Z</time></trkpt><trkpt lat="43.16443340226955" lon="11.674078019983085"><ele>477.8</ele><time>2026-04-11T19:05:50Z</time></trkpt><trkpt lat="43.16447289422918" lon="11.67394955910177"><ele>476.0</ele><time>2026-04-11T19:05:52Z</time></trkpt><trkpt lat="43.164508521071944" lon="11.673830898529543"><ele>475.99999999999994</ele><time>2026-04-11T19:05:54Z</time></trkpt><trkpt lat="43.16453495457513" lon="11.67372077626029"><ele>476.0</ele><time>2026-04-11T19:05:56Z</time></trkpt><trkpt lat="43.16455164490041" lon="11.673613179996833"><ele>476.0</ele><time>2026-04-11T19:05:59Z</time></trkpt><trkpt lat="43.16453287812608" lon="11.673510260091604"><ele>476.0</ele><time>2026-04-11T19:08:42Z</time></trkpt><trkpt lat="43.16454531231782" lon="11.673416261433387"><ele>475.99999999999994</ele><time>2026-04-11T19:08:57Z</time></trkpt><trkpt lat="43.16456124923845" lon="11.673310769608722"><ele>476.0</ele><time>2026-04-11T19:09:00Z</time></trkpt><trkpt lat="43.16455396868198" lon="11.673181574488"><ele>474.99999999999994</ele><time>2026-04-11T19:09:03Z</time></trkpt><trkpt lat="43.16452974831697" lon="11.6730632664636"><ele>474.0</ele><time>2026-04-11T19:09:06Z</time></trkpt><trkpt lat="43.16451951459354" lon="11.67297200349519"><ele>473.0</ele><time>2026-04-11T19:09:08Z</time></trkpt><trkpt lat="43.16450235862308" lon="11.672839011061317"><ele>472.0</ele><time>2026-04-11T19:09:11Z</time></trkpt><trkpt lat="43.16449701356577" lon="11.6727395924278"><ele>470.99999999999994</ele><time>2026-04-11T19:09:13Z</time></trkpt><trkpt lat="43.16449670498165" lon="11.672629070199887"><ele>470.0</ele><time>2026-04-11T19:09:15Z</time></trkpt><trkpt lat="43.164488544561664" lon="11.672526840087604"><ele>469.3333333333333</ele><time>2026-04-11T19:09:17Z</time></trkpt><trkpt lat="43.16448708604668" lon="11.672434414831526"><ele>468.66666666666663</ele><time>2026-04-11T19:09:19Z</time></trkpt><trkpt lat="43.16448545963566" lon="11.67231850846311"><ele>468.0</ele><time>2026-04-11T19:09:21Z</time></trkpt><trkpt lat="43.16448463226111" lon="11.672217867072273"><ele>467.33333333333337</ele><time>2026-04-11T19:09:23Z</time></trkpt><trkpt lat="43.1644871503043" lon="11.672109903383738"><ele>466.6666666666667</ele><time>2026-04-11T19:09:25Z</time></trkpt><trkpt lat="43.164486698709595" lon="11.671999918537091"><ele>466.0</ele><time>2026-04-11T19:09:27Z</time></trkpt><trkpt lat="43.16448524692375" lon="11.67189198982105"><ele>465.50000000000006</ele><time>2026-04-11T19:09:29Z</time></trkpt><trkpt lat="43.16448316069295" lon="11.671786483800664"><ele>465.0</ele><time>2026-04-11T19:09:31Z</time></trkpt><trkpt lat="43.164486791326546" lon="11.671677913588622"><ele>464.5</ele><time>2026-04-11T19:09:33Z</time></trkpt><trkpt lat="43.16449183700973" lon="11.671572357731652"><ele>464.0</ele><time>2026-04-11T19:09:35Z</time></trkpt><trkpt lat="43.16450151043596" lon="11.671466866677363"><ele>463.50000000000006</ele><time>2026-04-11T19:09:37Z</time></trkpt><trkpt lat="43.164509902198716" lon="11.67135416636296"><ele>463.0</ele><time>2026-04-11T19:09:39Z</time></trkpt><trkpt lat="43.16451302292869" lon="11.671243232348901"><ele>463.00000000000006</ele><time>2026-04-11T19:09:41Z</time></trkpt><trkpt lat="43.16452840901438" lon="11.67113214360581"><ele>463.0</ele><time>2026-04-11T19:09:43Z</time></trkpt><trkpt lat="43.164542905979516" lon="11.671036960718949"><ele>463.0</ele><time>2026-04-11T19:09:46Z</time></trkpt><trkpt lat="43.16455218986694" lon="11.670944266844083"><ele>463.0</ele><time>2026-04-11T19:09:47Z</time></trkpt><trkpt lat="43.16456136523974" lon="11.67084848648474"><ele>463.00000000000006</ele><time>2026-04-11T19:09:49Z</time></trkpt><trkpt lat="43.164580088996345" lon="11.670745448857852"><ele>463.0</ele><time>2026-04-11T19:09:51Z</time></trkpt><trkpt lat="43.16459435638788" lon="11.670591976315173"><ele>462.33333333333337</ele><time>2026-04-11T19:09:53Z</time></trkpt><trkpt lat="43.16461765214066" lon="11.670472056223696"><ele>461.6666666666667</ele><time>2026-04-11T19:09:55Z</time></trkpt><trkpt lat="43.16463032838806" lon="11.67035121073136"><ele>461.0</ele><time>2026-04-11T19:09:57Z</time></trkpt><trkpt lat="43.16464301699047" lon="11.670227111202113"><ele>460.33333333333337</ele><time>2026-04-11T19:09:59Z</time></trkpt><trkpt lat="43.16463828371306" lon="11.67010451739358"><ele>459.6666666666667</ele><time>2026-04-11T19:10:01Z</time></trkpt><trkpt lat="43.164641364494734" lon="11.670009995321596"><ele>459.0</ele><time>2026-04-11T19:10:03Z</time></trkpt><trkpt lat="43.16464945710171" lon="11.669917005621778"><ele>458.7142857142857</ele><time>2026-04-11T19:10:05Z</time></trkpt><trkpt lat="43.16462693107776" lon="11.669817937244598"><ele>458.42857142857144</ele><time>2026-04-11T19:10:07Z</time></trkpt><trkpt lat="43.16459173660985" lon="11.66973329678754"><ele>458.14285714285717</ele><time>2026-04-11T19:10:09Z</time></trkpt><trkpt lat="43.16457942674937" lon="11.669637552789201"><ele>457.8571428571429</ele><time>2026-04-11T19:10:11Z</time></trkpt><trkpt lat="43.16454699126724" lon="11.6695463558448"><ele>457.57142857142856</ele><time>2026-04-11T19:10:13Z</time></trkpt><trkpt lat="43.16451247969423" lon="11.669462913997352"><ele>457.28571428571433</ele><time>2026-04-11T19:10:15Z</time></trkpt><trkpt lat="43.16447210317043" lon="11.669381355787593"><ele>457.00000000000006</ele><time>2026-04-11T19:10:17Z</time></trkpt><trkpt lat="43.164430255476695" lon="11.669307284614682"><ele>457.00000000000006</ele><time>2026-04-11T19:10:19Z</time></trkpt><trkpt lat="43.16438174118689" lon="11.669224035930208"><ele>457.0</ele><time>2026-04-11T19:10:21Z</time></trkpt><trkpt lat="43.16433080532085" lon="11.669142532307886"><ele>457.0</ele><time>2026-04-11T19:10:23Z</time></trkpt><trkpt lat="43.16426190250448" lon="11.669084586035444"><ele>457.0</ele><time>2026-04-11T19:10:25Z</time></trkpt><trkpt lat="43.16421311369525" lon="11.669008519414069"><ele>457.00000000000006</ele><time>2026-04-11T19:10:27Z</time></trkpt><trkpt lat="43.164154850415294" lon="11.668942994143338"><ele>457.0</ele><time>2026-04-11T19:10:29Z</time></trkpt><trkpt lat="43.16409998066846" lon="11.668873309394463"><ele>457.00000000000006</ele><time>2026-04-11T19:10:31Z</time></trkpt><trkpt lat="43.16404207794346" lon="11.668798899621624"><ele>457.0</ele><time>2026-04-11T19:10:33Z</time></trkpt><trkpt lat="43.16398059740408" lon="11.668728006906608"><ele>457.0</ele><time>2026-04-11T19:10:35Z</time></trkpt><trkpt lat="43.16392023329834" lon="11.668646498733944"><ele>457.0</ele><time>2026-04-11T19:10:37Z</time></trkpt><trkpt lat="43.16386685353179" lon="11.668554682063895"><ele>457.00000000000006</ele><time>2026-04-11T19:10:39Z</time></trkpt><trkpt lat="43.16382548662732" lon="11.668449469773275"><ele>457.0</ele><time>2026-04-11T19:10:41Z</time></trkpt><trkpt lat="43.16378740981932" lon="11.668342381983452"><ele>454.6666666666667</ele><time>2026-04-11T19:10:43Z</time></trkpt><trkpt lat="43.16374980826762" lon="11.668244156195437"><ele>452.33333333333337</ele><time>2026-04-11T19:10:45Z</time></trkpt><trkpt lat="43.163716897700766" lon="11.668150118318492"><ele>450.0</ele><time>2026-04-11T19:10:47Z</time></trkpt><trkpt lat="43.1636816561517" lon="11.668057765140253"><ele>447.66666666666663</ele><time>2026-04-11T19:10:49Z</time></trkpt><trkpt lat="43.163648087499006" lon="11.66796023018269"><ele>445.3333333333333</ele><time>2026-04-11T19:10:51Z</time></trkpt><trkpt lat="43.163602572515416" lon="11.667861682849626"><ele>443.0</ele><time>2026-04-11T19:10:53Z</time></trkpt><trkpt lat="43.16356413807982" lon="11.667763555733671"><ele>442.4</ele><time>2026-04-11T19:10:55Z</time></trkpt><trkpt lat="43.16352443636483" lon="11.667669587653409"><ele>441.79999999999995</ele><time>2026-04-11T19:10:57Z</time></trkpt><trkpt lat="43.16347971524427" lon="11.667565012905747"><ele>441.2</ele><time>2026-04-11T19:10:59Z</time></trkpt><trkpt lat="43.16344204191916" lon="11.667456953341391"><ele>440.6</ele><time>2026-04-11T19:11:01Z</time></trkpt><trkpt lat="43.163389209970866" lon="11.66734059389246"><ele>440.0</ele><time>2026-04-11T19:11:03Z</time></trkpt><trkpt lat="43.16332950928476" lon="11.667189109597217"><ele>440.0</ele><time>2026-04-11T19:11:05Z</time></trkpt><trkpt lat="43.16333253640217" lon="11.667080329642394"><ele>440.0</ele><time>2026-04-11T19:11:06Z</time></trkpt><trkpt lat="43.16327842793795" lon="11.666938584576236"><ele>440.0</ele><time>2026-04-11T19:11:08Z</time></trkpt><trkpt lat="43.16322613865145" lon="11.666795285661918"><ele>440.0</ele><time>2026-04-11T19:11:10Z</time></trkpt><trkpt lat="43.16318211453698" lon="11.666664751314421"><ele>440.0</ele><time>2026-04-11T19:11:12Z</time></trkpt><trkpt lat="43.163147785481044" lon="11.666556759547415"><ele>438.5</ele><time>2026-04-11T19:11:14Z</time></trkpt><trkpt lat="43.16311097449156" lon="11.666411914148833"><ele>437.0</ele><time>2026-04-11T19:11:16Z</time></trkpt><trkpt lat="43.16307472420273" lon="11.66625290336619"><ele>435.5</ele><time>2026-04-11T19:11:18Z</time></trkpt><trkpt lat="43.16301562865411" lon="11.666112626315773"><ele>434.0</ele><time>2026-04-11T19:11:20Z</time></trkpt><trkpt lat="43.16297768544577" lon="11.665957412169236"><ele>433.6</ele><time>2026-04-11T19:11:22Z</time></trkpt><trkpt lat="43.162919633926485" lon="11.665839159295247"><ele>433.2</ele><time>2026-04-11T19:11:24Z</time></trkpt><trkpt lat="43.162852076967724" lon="11.66574554860072"><ele>432.80000000000007</ele><time>2026-04-11T19:11:26Z</time></trkpt><trkpt lat="43.16278803701877" lon="11.665666461583193"><ele>432.40000000000003</ele><time>2026-04-11T19:11:28Z</time></trkpt><trkpt lat="43.16270795095389" lon="11.66555946708497"><ele>432.0</ele><time>2026-04-11T19:11:30Z</time></trkpt><trkpt lat="43.16263943985508" lon="11.665458059304777"><ele>432.0</ele><time>2026-04-11T19:11:32Z</time></trkpt><trkpt lat="43.162588053646594" lon="11.665348640397365"><ele>432.0</ele><time>2026-04-11T19:11:34Z</time></trkpt><trkpt lat="43.16253306504192" lon="11.66530488815489"><ele>432.0</ele><time>2026-04-11T19:11:35Z</time></trkpt><trkpt lat="43.16249653576518" lon="11.665185319831398"><ele>432.0</ele><time>2026-04-11T19:11:37Z</time></trkpt><trkpt lat="43.162453890383446" lon="11.665061294391176"><ele>432.0</ele><time>2026-04-11T19:11:39Z</time></trkpt><trkpt lat="43.162409777123635" lon="11.664943767451506"><ele>432.0</ele><time>2026-04-11T19:11:41Z</time></trkpt><trkpt lat="43.16234355765047" lon="11.664852910977977"><ele>432.20000000000005</ele><time>2026-04-11T19:11:43Z</time></trkpt><trkpt lat="43.16227467839213" lon="11.664789207382382"><ele>432.40000000000003</ele><time>2026-04-11T19:11:45Z</time></trkpt><trkpt lat="43.162207496616496" lon="11.664741388035097"><ele>432.59999999999997</ele><time>2026-04-11T19:11:47Z</time></trkpt><trkpt lat="43.16212718515961" lon="11.6646660623652"><ele>432.79999999999995</ele><time>2026-04-11T19:11:49Z</time></trkpt><trkpt lat="43.16204254523587" lon="11.664580084197384"><ele>433.0</ele><time>2026-04-11T19:11:51Z</time></trkpt><trkpt lat="43.16199507618052" lon="11.664428472281887"><ele>432.2</ele><time>2026-04-11T19:11:53Z</time></trkpt><trkpt lat="43.16191179647017" lon="11.664349354586486"><ele>431.4</ele><time>2026-04-11T19:11:55Z</time></trkpt><trkpt lat="43.16181631910192" lon="11.664275064950708"><ele>430.59999999999997</ele><time>2026-04-11T19:11:57Z</time></trkpt><trkpt lat="43.16172780770623" lon="11.664224681870367"><ele>429.79999999999995</ele><time>2026-04-11T19:11:59Z</time></trkpt><trkpt lat="43.16165456583919" lon="11.664174776416473"><ele>429.0</ele><time>2026-04-11T19:12:01Z</time></trkpt><trkpt lat="43.161569128771696" lon="11.664115888733924"><ele>431.75</ele><time>2026-04-11T19:12:03Z</time></trkpt><trkpt lat="43.16147889219145" lon="11.664045721714873"><ele>434.5</ele><time>2026-04-11T19:12:05Z</time></trkpt><trkpt lat="43.161379042894005" lon="11.663951794828913"><ele>437.25</ele><time>2026-04-11T19:12:07Z</time></trkpt><trkpt lat="43.161290137261076" lon="11.66385497338923"><ele>440.0</ele><time>2026-04-11T19:12:09Z</time></trkpt><trkpt lat="43.161200899307126" lon="11.663748061191079"><ele>440.0</ele><time>2026-04-11T19:12:11Z</time></trkpt><trkpt lat="43.16112641850969" lon="11.66361987011577"><ele>440.0</ele><time>2026-04-11T19:12:13Z</time></trkpt><trkpt lat="43.16107679703471" lon="11.663465629402893"><ele>440.0</ele><time>2026-04-11T19:12:15Z</time></trkpt><trkpt lat="43.16106026854026" lon="11.663299765186265"><ele>440.0</ele><time>2026-04-11T19:12:17Z</time></trkpt><trkpt lat="43.16103951565996" lon="11.6631418372025"><ele>438.66666666666663</ele><time>2026-04-11T19:12:19Z</time></trkpt><trkpt lat="43.16101955328405" lon="11.662972591945536"><ele>437.3333333333333</ele><time>2026-04-11T19:12:21Z</time></trkpt><trkpt lat="43.16099987371939" lon="11.662881535230204"><ele>436.0</ele><time>2026-04-11T19:12:22Z</time></trkpt><trkpt lat="43.160984578592895" lon="11.662790185209579"><ele>434.66666666666663</ele><time>2026-04-11T19:12:23Z</time></trkpt><trkpt lat="43.16097102295286" lon="11.662700224953358"><ele>433.3333333333333</ele><time>2026-04-11T19:12:24Z</time></trkpt><trkpt lat="43.16094585735996" lon="11.66261647349778"><ele>432.0</ele><time>2026-04-11T19:12:25Z</time></trkpt><trkpt lat="43.16092039196907" lon="11.662535301874772"><ele>430.0</ele><time>2026-04-11T19:12:26Z</time></trkpt><trkpt lat="43.16085359039174" lon="11.662399667405108"><ele>428.00000000000006</ele><time>2026-04-11T19:12:28Z</time></trkpt><trkpt lat="43.16077688613464" lon="11.66226274430809"><ele>426.0</ele><time>2026-04-11T19:12:30Z</time></trkpt><trkpt lat="43.16073427066901" lon="11.6621962038522"><ele>424.0</ele><time>2026-04-11T19:12:31Z</time></trkpt><trkpt lat="43.16065480340758" lon="11.662060224357429"><ele>422.0</ele><time>2026-04-11T19:12:33Z</time></trkpt><trkpt lat="43.16058983669374" lon="11.661924422580386"><ele>419.0</ele><time>2026-04-11T19:12:35Z</time></trkpt><trkpt lat="43.16054455806874" lon="11.661781051622539"><ele>416.0</ele><time>2026-04-11T19:12:37Z</time></trkpt><trkpt lat="43.16049146536797" lon="11.661648945221199"><ele>413.0</ele><time>2026-04-11T19:12:39Z</time></trkpt><trkpt lat="43.16043442392115" lon="11.661523185214959"><ele>410.0</ele><time>2026-04-11T19:12:41Z</time></trkpt><trkpt lat="43.16038594177879" lon="11.661391205256935"><ele>407.0</ele><time>2026-04-11T19:12:43Z</time></trkpt><trkpt lat="43.16040169372097" lon="11.661253565374642"><ele>406.99999999999994</ele><time>2026-04-11T19:12:45Z</time></trkpt><trkpt lat="43.16043890095813" lon="11.661182857555715"><ele>407.0</ele><time>2026-04-11T19:12:46Z</time></trkpt><trkpt lat="43.16048776728792" lon="11.661116827482637"><ele>407.0</ele><time>2026-04-11T19:12:47Z</time></trkpt><trkpt lat="43.160531624227474" lon="11.661045580809166"><ele>407.0</ele><time>2026-04-11T19:12:48Z</time></trkpt><trkpt lat="43.16056589614084" lon="11.660966572085679"><ele>406.99999999999994</ele><time>2026-04-11T19:12:49Z</time></trkpt><trkpt lat="43.160586703614904" lon="11.66088240084726"><ele>407.0</ele><time>2026-04-11T19:12:50Z</time></trkpt><trkpt lat="43.160601544441086" lon="11.660716855198888"><ele>404.40000000000003</ele><time>2026-04-11T19:12:52Z</time></trkpt><trkpt lat="43.16059966275886" lon="11.660564029500234"><ele>401.8</ele><time>2026-04-11T19:12:54Z</time></trkpt><trkpt lat="43.16060055884415" lon="11.660406898496307"><ele>399.2</ele><time>2026-04-11T19:12:56Z</time></trkpt><trkpt lat="43.160614598162816" lon="11.660266009876011"><ele>396.6</ele><time>2026-04-11T19:12:58Z</time></trkpt><trkpt lat="43.16062380048977" lon="11.660128710556004"><ele>394.0</ele><time>2026-04-11T19:13:00Z</time></trkpt><trkpt lat="43.16064124122627" lon="11.659986272103156"><ele>392.2</ele><time>2026-04-11T19:13:02Z</time></trkpt><trkpt lat="43.16066143805704" lon="11.659834470917858"><ele>390.4</ele><time>2026-04-11T19:13:04Z</time></trkpt><trkpt lat="43.16066535123109" lon="11.659691435149657"><ele>388.6</ele><time>2026-04-11T19:13:06Z</time></trkpt><trkpt lat="43.160621820513704" lon="11.659541244411129"><ele>386.8</ele><time>2026-04-11T19:13:08Z</time></trkpt><trkpt lat="43.160563616764335" lon="11.659417531918209"><ele>385.0</ele><time>2026-04-11T19:13:10Z</time></trkpt><trkpt lat="43.160511798982526" lon="11.65930349682571"><ele>385.00000000000006</ele><time>2026-04-11T19:13:12Z</time></trkpt><trkpt lat="43.16046697329008" lon="11.659201344373606"><ele>385.0</ele><time>2026-04-11T19:13:14Z</time></trkpt><trkpt lat="43.160432354466806" lon="11.659109297456425"><ele>385.0</ele><time>2026-04-11T19:13:16Z</time></trkpt><trkpt lat="43.160399945711326" lon="11.65900382713188"><ele>385.0</ele><time>2026-04-11T19:13:18Z</time></trkpt><trkpt lat="43.16036886575469" lon="11.658899448692363"><ele>385.00000000000006</ele><time>2026-04-11T19:13:20Z</time></trkpt><trkpt lat="43.16031380291112" lon="11.658821115611211"><ele>385.0</ele><time>2026-04-11T19:13:22Z</time></trkpt><trkpt lat="43.160289240930204" lon="11.658724372310683"><ele>385.00000000000006</ele><time>2026-04-11T19:13:24Z</time></trkpt><trkpt lat="43.16026411909914" lon="11.658633820866864"><ele>385.0</ele><time>2026-04-11T19:13:26Z</time></trkpt><trkpt lat="43.16023275069288" lon="11.658532743694932"><ele>385.0</ele><time>2026-04-11T19:13:29Z</time></trkpt><trkpt lat="43.160203867627565" lon="11.658417867917413"><ele>385.0</ele><time>2026-04-11T19:13:32Z</time></trkpt><trkpt lat="43.16016612177133" lon="11.65830843431975"><ele>385.00000000000006</ele><time>2026-04-11T19:13:35Z</time></trkpt><trkpt lat="43.16013414629416" lon="11.658189567821372"><ele>385.0</ele><time>2026-04-11T19:13:38Z</time></trkpt><trkpt lat="43.16009774647121" lon="11.658078976764424"><ele>387.33333333333337</ele><time>2026-04-11T19:13:41Z</time></trkpt><trkpt lat="43.16005577449655" lon="11.657978490797323"><ele>389.6666666666667</ele><time>2026-04-11T19:13:44Z</time></trkpt><trkpt lat="43.160030569611955" lon="11.657881011425628"><ele>392.0</ele><time>2026-04-11T19:13:46Z</time></trkpt><trkpt lat="43.159989174762224" lon="11.65776442867373"><ele>394.33333333333337</ele><time>2026-04-11T19:13:49Z</time></trkpt><trkpt lat="43.15995142346478" lon="11.65765626001761"><ele>396.6666666666667</ele><time>2026-04-11T19:13:52Z</time></trkpt><trkpt lat="43.159922162517375" lon="11.657549631733477"><ele>399.0</ele><time>2026-04-11T19:13:55Z</time></trkpt><trkpt lat="43.15989216507331" lon="11.657430358727787"><ele>398.3333333333333</ele><time>2026-04-11T19:13:57Z</time></trkpt><trkpt lat="43.15986838195533" lon="11.657315047671824"><ele>397.66666666666663</ele><time>2026-04-11T19:13:59Z</time></trkpt><trkpt lat="43.15984819394744" lon="11.657220041002141"><ele>397.0</ele><time>2026-04-11T19:14:01Z</time></trkpt><trkpt lat="43.15982170196419" lon="11.657128360516625"><ele>396.3333333333333</ele><time>2026-04-11T19:14:03Z</time></trkpt><trkpt lat="43.15979933065095" lon="11.657027931200954"><ele>395.66666666666663</ele><time>2026-04-11T19:14:05Z</time></trkpt><trkpt lat="43.159770707702116" lon="11.656929672323052"><ele>395.0</ele><time>2026-04-11T19:14:07Z</time></trkpt><trkpt lat="43.15975210633104" lon="11.656835859497395"><ele>394.99999999999994</ele><time>2026-04-11T19:14:09Z</time></trkpt><trkpt lat="43.15971976329255" lon="11.6567521183292"><ele>395.0</ele><time>2026-04-11T19:14:11Z</time></trkpt><trkpt lat="43.15968054839105" lon="11.656675609135988"><ele>395.0</ele><time>2026-04-11T19:14:13Z</time></trkpt><trkpt lat="43.159644741921284" lon="11.656600694649518"><ele>395.0</ele><time>2026-04-11T19:14:15Z</time></trkpt><trkpt lat="43.1596045396504" lon="11.656504917875422"><ele>394.99999999999994</ele><time>2026-04-11T19:14:17Z</time></trkpt><trkpt lat="43.15955877108118" lon="11.656403027224242"><ele>395.0</ele><time>2026-04-11T19:14:19Z</time></trkpt><trkpt lat="43.15951866456088" lon="11.656294789766251"><ele>394.99999999999994</ele><time>2026-04-11T19:14:21Z</time></trkpt><trkpt lat="43.15948404947119" lon="11.656188174668715"><ele>395.0</ele><time>2026-04-11T19:14:23Z</time></trkpt><trkpt lat="43.1594482013715" lon="11.656084865789056"><ele>395.0</ele><time>2026-04-11T19:14:25Z</time></trkpt><trkpt lat="43.15941836692472" lon="11.65598717607774"><ele>395.0</ele><time>2026-04-11T19:14:27Z</time></trkpt><trkpt lat="43.15938167124388" lon="11.655884199032913"><ele>394.99999999999994</ele><time>2026-04-11T19:14:29Z</time></trkpt><trkpt lat="43.15934534067965" lon="11.65578206348265"><ele>395.0</ele><time>2026-04-11T19:14:31Z</time></trkpt><trkpt lat="43.15930088297039" lon="11.655680929533327"><ele>396.66666666666663</ele><time>2026-04-11T19:14:33Z</time></trkpt><trkpt lat="43.15926262850489" lon="11.655576546063546"><ele>398.3333333333333</ele><time>2026-04-11T19:14:35Z</time></trkpt><trkpt lat="43.15922663321791" lon="11.655486930702521"><ele>400.0</ele><time>2026-04-11T19:14:37Z</time></trkpt><trkpt lat="43.159191018387126" lon="11.655388653343069"><ele>401.66666666666663</ele><time>2026-04-11T19:14:39Z</time></trkpt><trkpt lat="43.15914831758558" lon="11.6553070951102"><ele>403.3333333333333</ele><time>2026-04-11T19:14:41Z</time></trkpt><trkpt lat="43.159114197454905" lon="11.655219768280189"><ele>405.0</ele><time>2026-04-11T19:14:43Z</time></trkpt><trkpt lat="43.15907355409439" lon="11.655143408237635"><ele>404.8333333333333</ele><time>2026-04-11T19:14:45Z</time></trkpt><trkpt lat="43.15903390932897" lon="11.655068026208165"><ele>404.66666666666663</ele><time>2026-04-11T19:14:47Z</time></trkpt><trkpt lat="43.159001653285586" lon="11.654990357580507"><ele>404.5</ele><time>2026-04-11T19:14:49Z</time></trkpt><trkpt lat="43.1589484385229" lon="11.654898329758067"><ele>404.3333333333333</ele><time>2026-04-11T19:14:52Z</time></trkpt><trkpt lat="43.15890385379154" lon="11.654832545238385"><ele>404.16666666666663</ele><time>2026-04-11T19:14:57Z</time></trkpt><trkpt lat="43.15898594870198" lon="11.65493803374199"><ele>404.0</ele><time>2026-04-11T19:15:06Z</time></trkpt><trkpt lat="43.15903791890502" lon="11.655005791948845"><ele>404.16666666666663</ele><time>2026-04-11T19:15:09Z</time></trkpt><trkpt lat="43.15908866117192" lon="11.65510799986105"><ele>404.3333333333333</ele><time>2026-04-11T19:15:12Z</time></trkpt><trkpt lat="43.159119978410246" lon="11.655202104813704"><ele>404.5</ele><time>2026-04-11T19:15:14Z</time></trkpt><trkpt lat="43.15918434256669" lon="11.655276781797332"><ele>404.66666666666663</ele><time>2026-04-11T19:15:16Z</time></trkpt><trkpt lat="43.159222680886124" lon="11.655380950056418"><ele>404.8333333333333</ele><time>2026-04-11T19:15:18Z</time></trkpt><trkpt lat="43.1592726781453" lon="11.655480393550087"><ele>405.0</ele><time>2026-04-11T19:15:20Z</time></trkpt><trkpt lat="43.159326830355035" lon="11.655574928252928"><ele>405.0</ele><time>2026-04-11T19:15:22Z</time></trkpt><trkpt lat="43.159372420893035" lon="11.655679135472992"><ele>405.0</ele><time>2026-04-11T19:15:24Z</time></trkpt><trkpt lat="43.1594117348692" lon="11.655785429354982"><ele>405.0</ele><time>2026-04-11T19:15:26Z</time></trkpt><trkpt lat="43.159456430351895" lon="11.655892951417638"><ele>405.0</ele><time>2026-04-11T19:15:28Z</time></trkpt><trkpt lat="43.159503062916244" lon="11.656003541522532"><ele>405.0</ele><time>2026-04-11T19:15:30Z</time></trkpt><trkpt lat="43.15953782237698" lon="11.656117160439845"><ele>405.0</ele><time>2026-04-11T19:15:32Z</time></trkpt><trkpt lat="43.15955194020688" lon="11.656218164900213"><ele>403.3333333333333</ele><time>2026-04-11T19:15:34Z</time></trkpt><trkpt lat="43.15959308459212" lon="11.656299396465544"><ele>401.66666666666663</ele><time>2026-04-11T19:15:36Z</time></trkpt><trkpt lat="43.15961874772382" lon="11.656391656841546"><ele>400.0</ele><time>2026-04-11T19:15:38Z</time></trkpt><trkpt lat="43.159668599789406" lon="11.656478621124199"><ele>398.3333333333333</ele><time>2026-04-11T19:15:40Z</time></trkpt><trkpt lat="43.15972154858618" lon="11.6565781045186"><ele>396.66666666666663</ele><time>2026-04-11T19:15:43Z</time></trkpt><trkpt lat="43.15977890386151" lon="11.656644957787641"><ele>395.0</ele><time>2026-04-11T19:15:46Z</time></trkpt><trkpt lat="43.15985079552396" lon="11.65667357537344"><ele>395.66666666666663</ele><time>2026-04-11T19:15:49Z</time></trkpt><trkpt lat="43.15994198992127" lon="11.656709340775375"><ele>396.3333333333333</ele><time>2026-04-11T19:15:52Z</time></trkpt><trkpt lat="43.16002539033614" lon="11.656730837155395"><ele>397.0</ele><time>2026-04-11T19:15:54Z</time></trkpt><trkpt lat="43.16010547435833" lon="11.656757742720302"><ele>397.66666666666663</ele><time>2026-04-11T19:15:56Z</time></trkpt><trkpt lat="43.16019538725768" lon="11.656773164664303"><ele>398.3333333333333</ele><time>2026-04-11T19:15:58Z</time></trkpt><trkpt lat="43.16027900851994" lon="11.656787096013028"><ele>399.0</ele><time>2026-04-11T19:16:00Z</time></trkpt><trkpt lat="43.160355090022115" lon="11.656808105340147"><ele>399.0</ele><time>2026-04-11T19:16:02Z</time></trkpt><trkpt lat="43.16043515213279" lon="11.656825073616117"><ele>399.0</ele><time>2026-04-11T19:16:04Z</time></trkpt><trkpt lat="43.16051321470093" lon="11.656839630709356"><ele>399.0</ele><time>2026-04-11T19:16:06Z</time></trkpt><trkpt lat="43.160585332154405" lon="11.656849595802765"><ele>399.0</ele><time>2026-04-11T19:16:08Z</time></trkpt><trkpt lat="43.16066036369674" lon="11.656859134286014"><ele>399.0</ele><time>2026-04-11T19:16:10Z</time></trkpt><trkpt lat="43.1607315474349" lon="11.656852270314225"><ele>399.0</ele><time>2026-04-11T19:16:12Z</time></trkpt><trkpt lat="43.16080387656481" lon="11.656836271697543"><ele>399.0</ele><time>2026-04-11T19:16:14Z</time></trkpt><trkpt lat="43.16087926164905" lon="11.656817228131844"><ele>399.0</ele><time>2026-04-11T19:16:17Z</time></trkpt><trkpt lat="43.160978195550854" lon="11.656799481509424"><ele>399.0</ele><time>2026-04-11T19:16:19Z</time></trkpt><trkpt lat="43.16104328944235" lon="11.656780887740561"><ele>399.0</ele><time>2026-04-11T19:16:22Z</time></trkpt><trkpt lat="43.16112152770502" lon="11.656772878008992"><ele>399.0</ele><time>2026-04-11T19:16:24Z</time></trkpt><trkpt lat="43.16120102684507" lon="11.6567770470374"><ele>399.0</ele><time>2026-04-11T19:16:26Z</time></trkpt><trkpt lat="43.16127391446769" lon="11.656795985558588"><ele>399.0</ele><time>2026-04-11T19:16:29Z</time></trkpt><trkpt lat="43.161343239861644" lon="11.656826619048827"><ele>399.0</ele><time>2026-04-11T19:16:30Z</time></trkpt><trkpt lat="43.161396702393674" lon="11.656881235648358"><ele>399.0</ele><time>2026-04-11T19:16:32Z</time></trkpt><trkpt lat="43.16146659855719" lon="11.656955867936428"><ele>399.0</ele><time>2026-04-11T19:16:35Z</time></trkpt><trkpt lat="43.161511956304864" lon="11.657025302563717"><ele>399.0</ele><time>2026-04-11T19:16:37Z</time></trkpt><trkpt lat="43.16157957804891" lon="11.657138650737128"><ele>399.0</ele><time>2026-04-11T19:16:40Z</time></trkpt><trkpt lat="43.16163616114624" lon="11.6572318632829"><ele>401.3333333333333</ele><time>2026-04-11T19:16:43Z</time></trkpt><trkpt lat="43.161698830672535" lon="11.657332596773715"><ele>403.66666666666663</ele><time>2026-04-11T19:16:46Z</time></trkpt><trkpt lat="43.16174911415145" lon="11.657421904020364"><ele>406.0</ele><time>2026-04-11T19:16:49Z</time></trkpt><trkpt lat="43.16178860498195" lon="11.657517326994272"><ele>408.3333333333333</ele><time>2026-04-11T19:16:51Z</time></trkpt><trkpt lat="43.16183608292997" lon="11.657614383077302"><ele>410.66666666666663</ele><time>2026-04-11T19:16:54Z</time></trkpt><trkpt lat="43.16187194309911" lon="11.657726066745656"><ele>413.0</ele><time>2026-04-11T19:16:57Z</time></trkpt><trkpt lat="43.16189652424563" lon="11.65780748813706"><ele>415.99999999999994</ele><time>2026-04-11T19:16:59Z</time></trkpt><trkpt lat="43.16192512802223" lon="11.657884535066735"><ele>419.0</ele><time>2026-04-11T19:17:01Z</time></trkpt><trkpt lat="43.16195701074573" lon="11.657959737554705"><ele>422.0</ele><time>2026-04-11T19:17:03Z</time></trkpt><trkpt lat="43.16198006365351" lon="11.658052109844476"><ele>425.0</ele><time>2026-04-11T19:17:05Z</time></trkpt><trkpt lat="43.16202847923327" lon="11.65816444275049"><ele>427.99999999999994</ele><time>2026-04-11T19:17:08Z</time></trkpt><trkpt lat="43.16207014867155" lon="11.65826590475974"><ele>431.0</ele><time>2026-04-11T19:17:11Z</time></trkpt><trkpt lat="43.162112390682736" lon="11.658365952997615"><ele>430.99999999999994</ele><time>2026-04-11T19:17:13Z</time></trkpt><trkpt lat="43.16215336543297" lon="11.658465991170646"><ele>431.0</ele><time>2026-04-11T19:17:16Z</time></trkpt><trkpt lat="43.16218477075345" lon="11.658574039031635"><ele>431.0</ele><time>2026-04-11T19:17:19Z</time></trkpt><trkpt lat="43.16222530046914" lon="11.658667531386673"><ele>431.0</ele><time>2026-04-11T19:17:22Z</time></trkpt><trkpt lat="43.16227394454457" lon="11.658736423819485"><ele>430.99999999999994</ele><time>2026-04-11T19:17:24Z</time></trkpt><trkpt lat="43.16234786557246" lon="11.6587942934689"><ele>431.0</ele><time>2026-04-11T19:17:27Z</time></trkpt><trkpt lat="43.162420988042385" lon="11.658826590222333"><ele>431.3333333333333</ele><time>2026-04-11T19:17:30Z</time></trkpt><trkpt lat="43.16248932980273" lon="11.65882451351922"><ele>431.66666666666663</ele><time>2026-04-11T19:17:32Z</time></trkpt><trkpt lat="43.1625749091805" lon="11.658807080024655"><ele>432.0</ele><time>2026-04-11T19:17:35Z</time></trkpt><trkpt lat="43.162637176941836" lon="11.658761548810272"><ele>432.33333333333337</ele><time>2026-04-11T19:17:37Z</time></trkpt><trkpt lat="43.16269800371166" lon="11.658692300054994"><ele>432.6666666666667</ele><time>2026-04-11T19:17:40Z</time></trkpt><trkpt lat="43.16275417186181" lon="11.658629426440504"><ele>433.0</ele><time>2026-04-11T19:17:42Z</time></trkpt><trkpt lat="43.16280869913576" lon="11.658554953727709"><ele>431.6666666666667</ele><time>2026-04-11T19:17:44Z</time></trkpt><trkpt lat="43.162861512121395" lon="11.658493407825409"><ele>430.33333333333337</ele><time>2026-04-11T19:17:47Z</time></trkpt><trkpt lat="43.16296460142761" lon="11.658381028781331"><ele>429.0</ele><time>2026-04-11T19:17:50Z</time></trkpt><trkpt lat="43.16305268833363" lon="11.658372858188603"><ele>427.66666666666663</ele><time>2026-04-11T19:17:51Z</time></trkpt><trkpt lat="43.16311525917826" lon="11.658314348155598"><ele>426.3333333333333</ele><time>2026-04-11T19:17:53Z</time></trkpt><trkpt lat="43.16318160025498" lon="11.658252049025814"><ele>425.0</ele><time>2026-04-11T19:17:55Z</time></trkpt><trkpt lat="43.16325427336361" lon="11.658202511126508"><ele>424.99999999999994</ele><time>2026-04-11T19:17:57Z</time></trkpt><trkpt lat="43.16333319249086" lon="11.658153981694785"><ele>425.0</ele><time>2026-04-11T19:17:59Z</time></trkpt><trkpt lat="43.16341723197386" lon="11.658125572023058"><ele>425.0</ele><time>2026-04-11T19:18:01Z</time></trkpt><trkpt lat="43.163506736319405" lon="11.658114115064288"><ele>425.0</ele><time>2026-04-11T19:18:03Z</time></trkpt><trkpt lat="43.16359640226684" lon="11.658116385614187"><ele>424.99999999999994</ele><time>2026-04-11T19:18:05Z</time></trkpt><trkpt lat="43.16368409439387" lon="11.658128839481966"><ele>425.0</ele><time>2026-04-11T19:18:07Z</time></trkpt><trkpt lat="43.163772304967665" lon="11.65814184881877"><ele>425.0</ele><time>2026-04-11T19:18:09Z</time></trkpt><trkpt lat="43.16384436853026" lon="11.658135682723026"><ele>425.0</ele><time>2026-04-11T19:18:11Z</time></trkpt><trkpt lat="43.163932029382316" lon="11.658145478801726"><ele>425.0</ele><time>2026-04-11T19:18:14Z</time></trkpt><trkpt lat="43.16404648032888" lon="11.658155692904808"><ele>425.0</ele><time>2026-04-11T19:18:16Z</time></trkpt><trkpt lat="43.16415487035969" lon="11.658162034093712"><ele>425.0</ele><time>2026-04-11T19:18:18Z</time></trkpt><trkpt lat="43.16426745815302" lon="11.658165708713396"><ele>425.6</ele><time>2026-04-11T19:18:20Z</time></trkpt><trkpt lat="43.164378211624104" lon="11.658198982793568"><ele>426.2</ele><time>2026-04-11T19:18:22Z</time></trkpt><trkpt lat="43.16448573240098" lon="11.658185710284071"><ele>426.79999999999995</ele><time>2026-04-11T19:18:24Z</time></trkpt><trkpt lat="43.16459149795599" lon="11.658212998343725"><ele>427.4</ele><time>2026-04-11T19:18:26Z</time></trkpt><trkpt lat="43.164692774367246" lon="11.658219653458692"><ele>428.0</ele><time>2026-04-11T19:18:28Z</time></trkpt><trkpt lat="43.16479122597971" lon="11.658225758110166"><ele>427.3333333333333</ele><time>2026-04-11T19:18:30Z</time></trkpt><trkpt lat="43.16487967437241" lon="11.658231099149706"><ele>426.66666666666663</ele><time>2026-04-11T19:18:32Z</time></trkpt><trkpt lat="43.164967143519355" lon="11.658213828422634"><ele>426.0</ele><time>2026-04-11T19:18:34Z</time></trkpt><trkpt lat="43.16505016475473" lon="11.65822310709812"><ele>425.33333333333337</ele><time>2026-04-11T19:18:36Z</time></trkpt><trkpt lat="43.16512924582244" lon="11.658225898729182"><ele>424.6666666666667</ele><time>2026-04-11T19:18:38Z</time></trkpt><trkpt lat="43.16520709765287" lon="11.658244661954972"><ele>424.0</ele><time>2026-04-11T19:18:40Z</time></trkpt><trkpt lat="43.16530066551524" lon="11.658262448598071"><ele>424.0</ele><time>2026-04-11T19:18:42Z</time></trkpt><trkpt lat="43.1654046775206" lon="11.658292448512606"><ele>424.0</ele><time>2026-04-11T19:18:44Z</time></trkpt><trkpt lat="43.16548884644276" lon="11.658371690331313"><ele>424.0</ele><time>2026-04-11T19:18:46Z</time></trkpt><trkpt lat="43.1655758299655" lon="11.65844956638335"><ele>424.0</ele><time>2026-04-11T19:18:48Z</time></trkpt><trkpt lat="43.165657165637676" lon="11.658529740417743"><ele>424.0</ele><time>2026-04-11T19:18:50Z</time></trkpt><trkpt lat="43.16575535509612" lon="11.658611627633658"><ele>425.0</ele><time>2026-04-11T19:18:52Z</time></trkpt><trkpt lat="43.165838752518006" lon="11.658719867557057"><ele>426.0</ele><time>2026-04-11T19:18:54Z</time></trkpt><trkpt lat="43.1659400782469" lon="11.658799991745239"><ele>427.0</ele><time>2026-04-11T19:18:56Z</time></trkpt><trkpt lat="43.16602314475484" lon="11.658892034410638"><ele>428.0</ele><time>2026-04-11T19:18:58Z</time></trkpt><trkpt lat="43.16609250870759" lon="11.658989336515315"><ele>429.0</ele><time>2026-04-11T19:19:00Z</time></trkpt><trkpt lat="43.16615303067802" lon="11.659091466662328"><ele>429.0</ele><time>2026-04-11T19:19:02Z</time></trkpt><trkpt lat="43.16620929362083" lon="11.659201087407425"><ele>429.0</ele><time>2026-04-11T19:19:04Z</time></trkpt><trkpt lat="43.166244221160014" lon="11.659318893440622"><ele>429.0</ele><time>2026-04-11T19:19:06Z</time></trkpt><trkpt lat="43.16629400319618" lon="11.659425947280207"><ele>429.0</ele><time>2026-04-11T19:19:08Z</time></trkpt><trkpt lat="43.16634579183304" lon="11.659537316461064"><ele>429.0</ele><time>2026-04-11T19:19:10Z</time></trkpt><trkpt lat="43.16639461999557" lon="11.65964232020678"><ele>430.3333333333333</ele><time>2026-04-11T19:19:12Z</time></trkpt><trkpt lat="43.166440940733025" lon="11.65974193106288"><ele>431.66666666666663</ele><time>2026-04-11T19:19:14Z</time></trkpt><trkpt lat="43.16648831060408" lon="11.65984379777468"><ele>433.0</ele><time>2026-04-11T19:19:16Z</time></trkpt><trkpt lat="43.166532383663395" lon="11.659939449868224"><ele>434.3333333333333</ele><time>2026-04-11T19:19:18Z</time></trkpt><trkpt lat="43.16660359534914" lon="11.660040344067127"><ele>435.66666666666663</ele><time>2026-04-11T19:19:21Z</time></trkpt><trkpt lat="43.166642538515596" lon="11.660129528358707"><ele>437.0</ele><time>2026-04-11T19:19:23Z</time></trkpt><trkpt lat="43.16668355265802" lon="11.660224208010312"><ele>436.3333333333333</ele><time>2026-04-11T19:19:25Z</time></trkpt><trkpt lat="43.166732409512306" lon="11.660337276156053"><ele>435.66666666666663</ele><time>2026-04-11T19:19:27Z</time></trkpt><trkpt lat="43.166784424491716" lon="11.660445300832006"><ele>435.0</ele><time>2026-04-11T19:19:29Z</time></trkpt><trkpt lat="43.16682656761612" lon="11.66053128805753"><ele>434.33333333333337</ele><time>2026-04-11T19:19:31Z</time></trkpt><trkpt lat="43.16686288951024" lon="11.660633240920767"><ele>433.6666666666667</ele><time>2026-04-11T19:19:33Z</time></trkpt><trkpt lat="43.166877239886034" lon="11.660747283136963"><ele>433.0</ele><time>2026-04-11T19:19:35Z</time></trkpt><trkpt lat="43.16689015988225" lon="11.660854963707985"><ele>433.00000000000006</ele><time>2026-04-11T19:19:37Z</time></trkpt><trkpt lat="43.16688627999903" lon="11.660962330618547"><ele>433.0</ele><time>2026-04-11T19:19:39Z</time></trkpt><trkpt lat="43.16688059346819" lon="11.661072950922692"><ele>433.0</ele><time>2026-04-11T19:19:41Z</time></trkpt><trkpt lat="43.16686986851144" lon="11.661189406744699"><ele>433.0</ele><time>2026-04-11T19:19:43Z</time></trkpt><trkpt lat="43.16685933321564" lon="11.661308581386963"><ele>433.00000000000006</ele><time>2026-04-11T19:19:45Z</time></trkpt><trkpt lat="43.16684734346691" lon="11.661428610524066"><ele>433.0</ele><time>2026-04-11T19:19:47Z</time></trkpt><trkpt lat="43.16682695277654" lon="11.661552927481617"><ele>433.0</ele><time>2026-04-11T19:19:49Z</time></trkpt><trkpt lat="43.166815825200295" lon="11.661677448380797"><ele>432.99999999999994</ele><time>2026-04-11T19:19:51Z</time></trkpt><trkpt lat="43.16680525083839" lon="11.661808250090594"><ele>432.99999999999994</ele><time>2026-04-11T19:19:53Z</time></trkpt><trkpt lat="43.16679888216587" lon="11.66192974724767"><ele>433.0</ele><time>2026-04-11T19:19:56Z</time></trkpt><trkpt lat="43.16680720374154" lon="11.662067777890314"><ele>433.0</ele><time>2026-04-11T19:19:57Z</time></trkpt><trkpt lat="43.16681993562077" lon="11.662200651152691"><ele>433.0</ele><time>2026-04-11T19:19:59Z</time></trkpt><trkpt lat="43.16685672958649" lon="11.66233175782506"><ele>432.99999999999994</ele><time>2026-04-11T19:20:01Z</time></trkpt><trkpt lat="43.166912426394696" lon="11.662449370604854"><ele>432.99999999999994</ele><time>2026-04-11T19:20:03Z</time></trkpt><trkpt lat="43.166957174695206" lon="11.662562870059011"><ele>433.0</ele><time>2026-04-11T19:20:05Z</time></trkpt><trkpt lat="43.167006887298555" lon="11.662634562781271"><ele>433.0</ele><time>2026-04-11T19:20:07Z</time></trkpt><trkpt lat="43.167039302958095" lon="11.662737381320268"><ele>434.79999999999995</ele><time>2026-04-11T19:20:09Z</time></trkpt><trkpt lat="43.16709973486273" lon="11.662857417663131"><ele>436.59999999999997</ele><time>2026-04-11T19:20:11Z</time></trkpt><trkpt lat="43.16715311422923" lon="11.662971534116608"><ele>438.40000000000003</ele><time>2026-04-11T19:20:13Z</time></trkpt><trkpt lat="43.167214131020486" lon="11.663081407376941"><ele>440.20000000000005</ele><time>2026-04-11T19:20:15Z</time></trkpt><trkpt lat="43.16727059234666" lon="11.66318307757956"><ele>442.0</ele><time>2026-04-11T19:20:17Z</time></trkpt><trkpt lat="43.167342094517885" lon="11.663276441740425"><ele>440.0</ele><time>2026-04-11T19:20:19Z</time></trkpt><trkpt lat="43.16740656147949" lon="11.663398603966113"><ele>438.00000000000006</ele><time>2026-04-11T19:20:21Z</time></trkpt><trkpt lat="43.16747155252229" lon="11.663516551451632"><ele>436.00000000000006</ele><time>2026-04-11T19:20:23Z</time></trkpt><trkpt lat="43.167539326394746" lon="11.663632146693335"><ele>434.0</ele><time>2026-04-11T19:20:25Z</time></trkpt><trkpt lat="43.167606468649346" lon="11.663753498512119"><ele>432.0</ele><time>2026-04-11T19:20:27Z</time></trkpt><trkpt lat="43.16767411422392" lon="11.663873379374136"><ele>432.0</ele><time>2026-04-11T19:20:29Z</time></trkpt><trkpt lat="43.1677402738603" lon="11.663999109664744"><ele>432.00000000000006</ele><time>2026-04-11T19:20:31Z</time></trkpt><trkpt lat="43.16781144205184" lon="11.664127407430872"><ele>432.00000000000006</ele><time>2026-04-11T19:20:33Z</time></trkpt><trkpt lat="43.16788804962438" lon="11.664266327238613"><ele>432.0</ele><time>2026-04-11T19:20:35Z</time></trkpt><trkpt lat="43.16791215690828" lon="11.664352930927535"><ele>432.0</ele><time>2026-04-11T19:20:36Z</time></trkpt><trkpt lat="43.167945473928135" lon="11.664434010059159"><ele>432.5</ele><time>2026-04-11T19:20:37Z</time></trkpt><trkpt lat="43.16797964827943" lon="11.664519776649884"><ele>433.0</ele><time>2026-04-11T19:20:38Z</time></trkpt><trkpt lat="43.168014913698826" lon="11.664608281448436"><ele>433.5</ele><time>2026-04-11T19:20:39Z</time></trkpt><trkpt lat="43.16804826272292" lon="11.664694162032687"><ele>434.0</ele><time>2026-04-11T19:20:40Z</time></trkpt><trkpt lat="43.16810946275527" lon="11.664853316163335"><ele>434.5</ele><time>2026-04-11T19:20:42Z</time></trkpt><trkpt lat="43.16814471044126" lon="11.664944979720428"><ele>435.0</ele><time>2026-04-11T19:20:43Z</time></trkpt><trkpt lat="43.168175574919694" lon="11.665025244523356"><ele>433.00000000000006</ele><time>2026-04-11T19:20:44Z</time></trkpt><trkpt lat="43.16821095792479" lon="11.665117204836129"><ele>431.0</ele><time>2026-04-11T19:20:45Z</time></trkpt><trkpt lat="43.16824346104291" lon="11.665201467096004"><ele>429.0</ele><time>2026-04-11T19:20:46Z</time></trkpt><trkpt lat="43.16827630445725" lon="11.665286611569696"><ele>427.0</ele><time>2026-04-11T19:20:47Z</time></trkpt><trkpt lat="43.168313470937065" lon="11.665375077931513"><ele>425.0</ele><time>2026-04-11T19:20:48Z</time></trkpt><trkpt lat="43.16835059829275" lon="11.66546357593686"><ele>423.00000000000006</ele><time>2026-04-11T19:20:49Z</time></trkpt><trkpt lat="43.16838819680775" lon="11.665542990490488"><ele>421.0</ele><time>2026-04-11T19:20:50Z</time></trkpt><trkpt lat="43.16844112509664" lon="11.665595724332128"><ele>420.83333333333337</ele><time>2026-04-11T19:20:51Z</time></trkpt><trkpt lat="43.16849386597644" lon="11.665665267977854"><ele>420.6666666666667</ele><time>2026-04-11T19:20:52Z</time></trkpt><trkpt lat="43.16856072457645" lon="11.665728164869975"><ele>420.5</ele><time>2026-04-11T19:20:53Z</time></trkpt><trkpt lat="43.16862515173721" lon="11.665799740930911"><ele>420.33333333333337</ele><time>2026-04-11T19:20:54Z</time></trkpt><trkpt lat="43.168706037867956" lon="11.665826527590141"><ele>420.1666666666667</ele><time>2026-04-11T19:20:55Z</time></trkpt><trkpt lat="43.16878683865314" lon="11.665862575658847"><ele>420.0</ele><time>2026-04-11T19:20:56Z</time></trkpt><trkpt lat="43.168862496332835" lon="11.665895035476323"><ele>420.0</ele><time>2026-04-11T19:20:57Z</time></trkpt><trkpt lat="43.168933849486606" lon="11.665930141260942"><ele>420.0</ele><time>2026-04-11T19:20:58Z</time></trkpt><trkpt lat="43.16900872204178" lon="11.66596347077596"><ele>420.0</ele><time>2026-04-11T19:20:59Z</time></trkpt><trkpt lat="43.169084784219436" lon="11.666003011104479"><ele>420.0</ele><time>2026-04-11T19:21:00Z</time></trkpt><trkpt lat="43.16916469781821" lon="11.66603750498179"><ele>420.0</ele><time>2026-04-11T19:21:01Z</time></trkpt><trkpt lat="43.1692414224518" lon="11.666094733963819"><ele>420.0</ele><time>2026-04-11T19:21:02Z</time></trkpt><trkpt lat="43.169324836821055" lon="11.666132992586578"><ele>420.0</ele><time>2026-04-11T19:21:03Z</time></trkpt><trkpt lat="43.16941330054978" lon="11.666150725004282"><ele>420.0</ele><time>2026-04-11T19:21:04Z</time></trkpt><trkpt lat="43.16950034837663" lon="11.666190138282506"><ele>420.0</ele><time>2026-04-11T19:21:05Z</time></trkpt><trkpt lat="43.16958606713879" lon="11.666233504355498"><ele>420.0</ele><time>2026-04-11T19:21:06Z</time></trkpt><trkpt lat="43.16967094868908" lon="11.666271520970305"><ele>420.0</ele><time>2026-04-11T19:21:07Z</time></trkpt><trkpt lat="43.16975029292679" lon="11.666329196409661"><ele>420.0</ele><time>2026-04-11T19:21:08Z</time></trkpt><trkpt lat="43.16983496431347" lon="11.666368944931204"><ele>420.0</ele><time>2026-04-11T19:21:09Z</time></trkpt><trkpt lat="43.169924496055096" lon="11.666410975132328"><ele>420.0</ele><time>2026-04-11T19:21:10Z</time></trkpt><trkpt lat="43.17001595970566" lon="11.666433031544937"><ele>420.0</ele><time>2026-04-11T19:21:11Z</time></trkpt><trkpt lat="43.17009299433469" lon="11.666490075671248"><ele>420.0</ele><time>2026-04-11T19:21:12Z</time></trkpt><trkpt lat="43.17017433413102" lon="11.666505052550757"><ele>420.0</ele><time>2026-04-11T19:21:13Z</time></trkpt><trkpt lat="43.17024903801352" lon="11.666537696950384"><ele>418.8333333333333</ele><time>2026-04-11T19:21:14Z</time></trkpt><trkpt lat="43.170323869613924" lon="11.66656901162545"><ele>417.66666666666663</ele><time>2026-04-11T19:21:15Z</time></trkpt><trkpt lat="43.17040042192509" lon="11.666618431631079"><ele>416.5</ele><time>2026-04-11T19:21:16Z</time></trkpt><trkpt lat="43.17048357300089" lon="11.666635752821923"><ele>415.3333333333333</ele><time>2026-04-11T19:21:17Z</time></trkpt><trkpt lat="43.170568617990135" lon="11.666623096778057"><ele>414.16666666666663</ele><time>2026-04-11T19:21:18Z</time></trkpt><trkpt lat="43.17065538843523" lon="11.666638487391845"><ele>413.0</ele><time>2026-04-11T19:21:19Z</time></trkpt><trkpt lat="43.1707421303758" lon="11.66664276617635"><ele>411.3333333333333</ele><time>2026-04-11T19:21:20Z</time></trkpt><trkpt lat="43.17082840189571" lon="11.666671230609774"><ele>409.66666666666663</ele><time>2026-04-11T19:21:21Z</time></trkpt><trkpt lat="43.17091032475857" lon="11.66667943684831"><ele>408.0</ele><time>2026-04-11T19:21:22Z</time></trkpt><trkpt lat="43.1709946382443" lon="11.666687968222085"><ele>406.33333333333337</ele><time>2026-04-11T19:21:23Z</time></trkpt><trkpt lat="43.17107461898733" lon="11.666696145293962"><ele>404.6666666666667</ele><time>2026-04-11T19:21:24Z</time></trkpt><trkpt lat="43.17114780237905" lon="11.666703620099838"><ele>403.0</ele><time>2026-04-11T19:21:25Z</time></trkpt><trkpt lat="43.17121924432665" lon="11.666711266461041"><ele>403.00000000000006</ele><time>2026-04-11T19:21:26Z</time></trkpt><trkpt lat="43.17128732391493" lon="11.666718553002585"><ele>403.0</ele><time>2026-04-11T19:21:27Z</time></trkpt><trkpt lat="43.17140077012255" lon="11.666721249831578"><ele>403.0</ele><time>2026-04-11T19:21:29Z</time></trkpt><trkpt lat="43.17149204481431" lon="11.66670405196581"><ele>403.0</ele><time>2026-04-11T19:21:31Z</time></trkpt><trkpt lat="43.17155668532702" lon="11.666649709658007"><ele>403.00000000000006</ele><time>2026-04-11T19:21:33Z</time></trkpt><trkpt lat="43.17162515178359" lon="11.666627795876096"><ele>403.0</ele><time>2026-04-11T19:21:35Z</time></trkpt><trkpt lat="43.17167222892018" lon="11.666555960690268"><ele>402.83333333333337</ele><time>2026-04-11T19:21:37Z</time></trkpt><trkpt lat="43.17173676446008" lon="11.666465055020078"><ele>402.6666666666667</ele><time>2026-04-11T19:21:40Z</time></trkpt><trkpt lat="43.171798798246336" lon="11.666368088033256"><ele>402.5</ele><time>2026-04-11T19:21:43Z</time></trkpt><trkpt lat="43.17184419048594" lon="11.666301731288543"><ele>402.33333333333337</ele><time>2026-04-11T19:21:45Z</time></trkpt><trkpt lat="43.171895426144104" lon="11.666218332037825"><ele>402.1666666666667</ele><time>2026-04-11T19:21:49Z</time></trkpt><trkpt lat="43.17194969313238" lon="11.666148933452291"><ele>402.0</ele><time>2026-04-11T19:21:52Z</time></trkpt><trkpt lat="43.172016629671255" lon="11.666087397713115"><ele>402.0</ele><time>2026-04-11T19:21:55Z</time></trkpt><trkpt lat="43.1720847612949" lon="11.666033051531903"><ele>402.0</ele><time>2026-04-11T19:21:58Z</time></trkpt><trkpt lat="43.17216045745424" lon="11.66600802035469"><ele>402.0</ele><time>2026-04-11T19:22:01Z</time></trkpt><trkpt lat="43.17223153351964" lon="11.665994030103741"><ele>402.0</ele><time>2026-04-11T19:22:04Z</time></trkpt><trkpt lat="43.172302734251375" lon="11.665974290832425"><ele>402.0</ele><time>2026-04-11T19:22:07Z</time></trkpt><trkpt lat="43.17237591502752" lon="11.665961522944597"><ele>402.0</ele><time>2026-04-11T19:22:10Z</time></trkpt><trkpt lat="43.172446988437635" lon="11.665948479558327"><ele>402.0</ele><time>2026-04-11T19:22:13Z</time></trkpt><trkpt lat="43.172521298013855" lon="11.6659424094408"><ele>403.0</ele><time>2026-04-11T19:22:16Z</time></trkpt><trkpt lat="43.17259264142397" lon="11.665924477418834"><ele>404.0</ele><time>2026-04-11T19:22:19Z</time></trkpt><trkpt lat="43.17266084091453" lon="11.665913878135592"><ele>405.0</ele><time>2026-04-11T19:22:22Z</time></trkpt><trkpt lat="43.172727950410945" lon="11.66590374985838"><ele>406.0</ele><time>2026-04-11T19:22:25Z</time></trkpt><trkpt lat="43.17279823829533" lon="11.665891343668596"><ele>407.0</ele><time>2026-04-11T19:22:28Z</time></trkpt><trkpt lat="43.17286656564124" lon="11.665879273789031"><ele>408.0</ele><time>2026-04-11T19:22:31Z</time></trkpt><trkpt lat="43.172935473866346" lon="11.665871811100926"><ele>409.0</ele><time>2026-04-11T19:22:34Z</time></trkpt><trkpt lat="43.1730067298188" lon="11.665875027194993"><ele>409.0</ele><time>2026-04-11T19:22:37Z</time></trkpt><trkpt lat="43.17307750358943" lon="11.665872742476674"><ele>409.0</ele><time>2026-04-11T19:22:40Z</time></trkpt><trkpt lat="43.17314740993603" lon="11.665887362033903"><ele>409.0</ele><time>2026-04-11T19:22:43Z</time></trkpt><trkpt lat="43.17321257555381" lon="11.665906587958228"><ele>409.0</ele><time>2026-04-11T19:22:46Z</time></trkpt><trkpt lat="43.173279852919755" lon="11.665924073771416"><ele>409.0</ele><time>2026-04-11T19:22:49Z</time></trkpt><trkpt lat="43.17334800938708" lon="11.665950656158271"><ele>409.0</ele><time>2026-04-11T19:22:52Z</time></trkpt><trkpt lat="43.17341533570137" lon="11.66597892800931"><ele>409.0</ele><time>2026-04-11T19:22:55Z</time></trkpt><trkpt lat="43.173484953657834" lon="11.666008988512088"><ele>409.7142857142857</ele><time>2026-04-11T19:22:58Z</time></trkpt><trkpt lat="43.17355318137104" lon="11.666045020543773"><ele>410.42857142857144</ele><time>2026-04-11T19:23:01Z</time></trkpt><trkpt lat="43.17362187611128" lon="11.666082790135254"><ele>411.14285714285717</ele><time>2026-04-11T19:23:04Z</time></trkpt><trkpt lat="43.17369207958619" lon="11.66611615937373"><ele>411.8571428571429</ele><time>2026-04-11T19:23:07Z</time></trkpt><trkpt lat="43.17376241632578" lon="11.666149216878809"><ele>412.57142857142856</ele><time>2026-04-11T19:23:10Z</time></trkpt><trkpt lat="43.17382633599394" lon="11.666190048315178"><ele>413.28571428571433</ele><time>2026-04-11T19:23:13Z</time></trkpt><trkpt lat="43.17388897041657" lon="11.666225871089505"><ele>414.0</ele><time>2026-04-11T19:23:16Z</time></trkpt><trkpt lat="43.17395039376629" lon="11.666269896195082"><ele>415.7142857142857</ele><time>2026-04-11T19:23:19Z</time></trkpt><trkpt lat="43.17400783474337" lon="11.666322078503704"><ele>417.42857142857144</ele><time>2026-04-11T19:23:22Z</time></trkpt><trkpt lat="43.174061440410085" lon="11.666378130644615"><ele>419.1428571428571</ele><time>2026-04-11T19:23:25Z</time></trkpt><trkpt lat="43.17411459278835" lon="11.666433703489647"><ele>420.8571428571429</ele><time>2026-04-11T19:23:28Z</time></trkpt><trkpt lat="43.17417378245568" lon="11.666477984632552"><ele>422.57142857142856</ele><time>2026-04-11T19:23:31Z</time></trkpt><trkpt lat="43.174230748208025" lon="11.666530679289332"><ele>424.2857142857143</ele><time>2026-04-11T19:23:34Z</time></trkpt><trkpt lat="43.174289592790004" lon="11.666570571959877"><ele>426.0</ele><time>2026-04-11T19:23:37Z</time></trkpt><trkpt lat="43.17435279427491" lon="11.666590236416441"><ele>427.0</ele><time>2026-04-11T19:23:40Z</time></trkpt><trkpt lat="43.174416497100864" lon="11.666582247055828"><ele>428.0</ele><time>2026-04-11T19:23:43Z</time></trkpt><trkpt lat="43.17449468940421" lon="11.666570597471427"><ele>429.0</ele><time>2026-04-11T19:23:47Z</time></trkpt><trkpt lat="43.17457152911998" lon="11.666520270154853"><ele>430.0</ele><time>2026-04-11T19:23:51Z</time></trkpt><trkpt lat="43.174618460319884" lon="11.666458826265584"><ele>431.0</ele><time>2026-04-11T19:23:54Z</time></trkpt><trkpt lat="43.17466595251782" lon="11.666369819242998"><ele>432.0</ele><time>2026-04-11T19:23:58Z</time></trkpt><trkpt lat="43.17470603966035" lon="11.666273298683691"><ele>432.0</ele><time>2026-04-11T19:24:02Z</time></trkpt><trkpt lat="43.17473437065436" lon="11.666169317525052"><ele>432.0</ele><time>2026-04-11T19:24:06Z</time></trkpt><trkpt lat="43.17475799570337" lon="11.666084478520693"><ele>432.0</ele><time>2026-04-11T19:24:09Z</time></trkpt><trkpt lat="43.17478206524172" lon="11.666000573490495"><ele>432.0</ele><time>2026-04-11T19:24:12Z</time></trkpt><trkpt lat="43.174807707881" lon="11.665912646571709"><ele>432.0</ele><time>2026-04-11T19:24:15Z</time></trkpt><trkpt lat="43.1748337541503" lon="11.665825098093707"><ele>432.0</ele><time>2026-04-11T19:24:18Z</time></trkpt><trkpt lat="43.17486535496394" lon="11.665739201258797"><ele>432.0</ele><time>2026-04-11T19:24:21Z</time></trkpt><trkpt lat="43.17490234983926" lon="11.665656288895281"><ele>432.57142857142856</ele><time>2026-04-11T19:24:24Z</time></trkpt><trkpt lat="43.174953767120776" lon="11.665585490414863"><ele>433.1428571428571</ele><time>2026-04-11T19:24:27Z</time></trkpt><trkpt lat="43.175010097565966" lon="11.665525755991206"><ele>433.7142857142857</ele><time>2026-04-11T19:24:30Z</time></trkpt><trkpt lat="43.17506967345063" lon="11.665480334500955"><ele>434.2857142857143</ele><time>2026-04-11T19:24:33Z</time></trkpt><trkpt lat="43.175135655130795" lon="11.665456425527667"><ele>434.8571428571429</ele><time>2026-04-11T19:24:36Z</time></trkpt><trkpt lat="43.17520188831882" lon="11.665444255754666"><ele>435.42857142857144</ele><time>2026-04-11T19:24:39Z</time></trkpt><trkpt lat="43.17526813370941" lon="11.665448841495994"><ele>436.0</ele><time>2026-04-11T19:24:42Z</time></trkpt><trkpt lat="43.175332720595605" lon="11.665472649364032"><ele>436.0</ele><time>2026-04-11T19:24:45Z</time></trkpt><trkpt lat="43.17538877124498" lon="11.665520258528307"><ele>436.0</ele><time>2026-04-11T19:24:48Z</time></trkpt><trkpt lat="43.175443315508254" lon="11.665575768930355"><ele>436.0</ele><time>2026-04-11T19:24:51Z</time></trkpt><trkpt lat="43.17549315550874" lon="11.665639884863788"><ele>436.0</ele><time>2026-04-11T19:24:54Z</time></trkpt><trkpt lat="43.17554110031479" lon="11.665704645867915"><ele>436.0</ele><time>2026-04-11T19:24:57Z</time></trkpt><trkpt lat="43.1755888487785" lon="11.665773918600582"><ele>436.0</ele><time>2026-04-11T19:25:00Z</time></trkpt><trkpt lat="43.17563532672294" lon="11.665847881506641"><ele>436.0</ele><time>2026-04-11T19:25:03Z</time></trkpt><trkpt lat="43.175689620964086" lon="11.665910620853348"><ele>437.42857142857144</ele><time>2026-04-11T19:25:06Z</time></trkpt><trkpt lat="43.17573895047724" lon="11.665976472710767"><ele>438.8571428571429</ele><time>2026-04-11T19:25:09Z</time></trkpt><trkpt lat="43.17578560200629" lon="11.666044900706385"><ele>440.2857142857143</ele><time>2026-04-11T19:25:12Z</time></trkpt><trkpt lat="43.17583147311312" lon="11.666111703705825"><ele>441.7142857142857</ele><time>2026-04-11T19:25:15Z</time></trkpt><trkpt lat="43.175876411693636" lon="11.666179671265665"><ele>443.1428571428571</ele><time>2026-04-11T19:25:18Z</time></trkpt><trkpt lat="43.17591974147519" lon="11.666248682933567"><ele>444.57142857142856</ele><time>2026-04-11T19:25:21Z</time></trkpt><trkpt lat="43.17596800348297" lon="11.666311148981542"><ele>446.0</ele><time>2026-04-11T19:25:24Z</time></trkpt><trkpt lat="43.17601206695758" lon="11.666381867535668"><ele>446.85714285714283</ele><time>2026-04-11T19:25:27Z</time></trkpt><trkpt lat="43.17605594962485" lon="11.666454287409778"><ele>447.71428571428567</ele><time>2026-04-11T19:25:30Z</time></trkpt><trkpt lat="43.17609788043273" lon="11.666529725953291"><ele>448.57142857142856</ele><time>2026-04-11T19:25:33Z</time></trkpt><trkpt lat="43.176143448016724" lon="11.666607530262773"><ele>449.42857142857144</ele><time>2026-04-11T19:25:36Z</time></trkpt><trkpt lat="43.176185381889226" lon="11.666686064991405"><ele>450.2857142857143</ele><time>2026-04-11T19:25:39Z</time></trkpt><trkpt lat="43.17621829222409" lon="11.666768465564413"><ele>451.14285714285717</ele><time>2026-04-11T19:25:42Z</time></trkpt><trkpt lat="43.17625655942266" lon="11.666842721628342"><ele>452.0</ele><time>2026-04-11T19:25:45Z</time></trkpt><trkpt lat="43.17628869381792" lon="11.666920928652637"><ele>453.14285714285717</ele><time>2026-04-11T19:25:48Z</time></trkpt><trkpt lat="43.17631908167855" lon="11.667004070604728"><ele>454.2857142857142</ele><time>2026-04-11T19:25:51Z</time></trkpt><trkpt lat="43.176349628587275" lon="11.667087960493372"><ele>455.4285714285714</ele><time>2026-04-11T19:25:54Z</time></trkpt><trkpt lat="43.17638606498829" lon="11.66717069955515"><ele>456.57142857142856</ele><time>2026-04-11T19:25:57Z</time></trkpt><trkpt lat="43.17643236666006" lon="11.667251522397754"><ele>457.71428571428567</ele><time>2026-04-11T19:26:00Z</time></trkpt><trkpt lat="43.17646566666165" lon="11.667336259024582"><ele>458.8571428571428</ele><time>2026-04-11T19:26:03Z</time></trkpt><trkpt lat="43.17649758530354" lon="11.667425540959893"><ele>459.99999999999994</ele><time>2026-04-11T19:26:06Z</time></trkpt><trkpt lat="43.17653631289244" lon="11.66750418073309"><ele>460.8571428571428</ele><time>2026-04-11T19:26:09Z</time></trkpt><trkpt lat="43.17656910278683" lon="11.667594428246945"><ele>461.71428571428567</ele><time>2026-04-11T19:26:12Z</time></trkpt><trkpt lat="43.17661080161257" lon="11.667680711013707"><ele>462.57142857142856</ele><time>2026-04-11T19:26:15Z</time></trkpt><trkpt lat="43.17665351695442" lon="11.667756543457308"><ele>463.4285714285714</ele><time>2026-04-11T19:26:18Z</time></trkpt><trkpt lat="43.1766940829776" lon="11.66783696975316"><ele>464.2857142857142</ele><time>2026-04-11T19:26:21Z</time></trkpt><trkpt lat="43.17673035910305" lon="11.667916134672168"><ele>465.14285714285717</ele><time>2026-04-11T19:26:24Z</time></trkpt><trkpt lat="43.17676511633169" lon="11.668000054655126"><ele>466.0</ele><time>2026-04-11T19:26:27Z</time></trkpt><trkpt lat="43.17679982552702" lon="11.66808566695551"><ele>466.83333333333337</ele><time>2026-04-11T19:26:30Z</time></trkpt><trkpt lat="43.17683401047975" lon="11.668182680461394"><ele>467.6666666666667</ele><time>2026-04-11T19:26:33Z</time></trkpt><trkpt lat="43.176864697371286" lon="11.668288480795397"><ele>468.5</ele><time>2026-04-11T19:26:36Z</time></trkpt><trkpt lat="43.17688520986641" lon="11.668389176061115"><ele>469.33333333333337</ele><time>2026-04-11T19:26:39Z</time></trkpt><trkpt lat="43.176892988114794" lon="11.668503735526716"><ele>470.1666666666667</ele><time>2026-04-11T19:26:42Z</time></trkpt><trkpt lat="43.176892207421105" lon="11.66861919917165"><ele>471.0</ele><time>2026-04-11T19:26:45Z</time></trkpt><trkpt lat="43.17689684033238" lon="11.668715551601808"><ele>471.6666666666667</ele><time>2026-04-11T19:26:48Z</time></trkpt><trkpt lat="43.176906725661794" lon="11.6688178215756"><ele>472.33333333333337</ele><time>2026-04-11T19:26:51Z</time></trkpt><trkpt lat="43.176908757136175" lon="11.668929121135367"><ele>473.0</ele><time>2026-04-11T19:26:54Z</time></trkpt><trkpt lat="43.176906138205126" lon="11.669039315190116"><ele>473.6666666666667</ele><time>2026-04-11T19:26:57Z</time></trkpt><trkpt lat="43.176908613239455" lon="11.66915330912205"><ele>474.33333333333337</ele><time>2026-04-11T19:27:00Z</time></trkpt><trkpt lat="43.176927669075766" lon="11.669254697258268"><ele>475.0</ele><time>2026-04-11T19:27:03Z</time></trkpt><trkpt lat="43.17695171686468" lon="11.66935542727535"><ele>476.00000000000006</ele><time>2026-04-11T19:27:06Z</time></trkpt><trkpt lat="43.17697476007567" lon="11.669458068664404"><ele>477.0</ele><time>2026-04-11T19:27:09Z</time></trkpt><trkpt lat="43.17700486787545" lon="11.669560025966321"><ele>478.0</ele><time>2026-04-11T19:27:12Z</time></trkpt><trkpt lat="43.177041106575764" lon="11.669659690769514"><ele>479.0</ele><time>2026-04-11T19:27:15Z</time></trkpt><trkpt lat="43.17708913690123" lon="11.669754206345635"><ele>480.00000000000006</ele><time>2026-04-11T19:27:18Z</time></trkpt><trkpt lat="43.177139134763955" lon="11.6698474207438"><ele>481.0</ele><time>2026-04-11T19:27:21Z</time></trkpt><trkpt lat="43.177189742706176" lon="11.669943139676072"><ele>480.99999999999994</ele><time>2026-04-11T19:27:24Z</time></trkpt><trkpt lat="43.17724282471673" lon="11.670044968054814"><ele>481.0</ele><time>2026-04-11T19:27:27Z</time></trkpt><trkpt lat="43.17727244131019" lon="11.670121477609474"><ele>480.99999999999994</ele><time>2026-04-11T19:27:29Z</time></trkpt><trkpt lat="43.17731468171745" lon="11.670191311660934"><ele>480.99999999999994</ele><time>2026-04-11T19:27:31Z</time></trkpt><trkpt lat="43.17734782533433" lon="11.670265678040405"><ele>481.0</ele><time>2026-04-11T19:27:33Z</time></trkpt><trkpt lat="43.17737887736506" lon="11.670347472692285"><ele>480.99999999999994</ele><time>2026-04-11T19:27:35Z</time></trkpt><trkpt lat="43.1774201764907" lon="11.670433610304826"><ele>480.99999999999994</ele><time>2026-04-11T19:27:37Z</time></trkpt><trkpt lat="43.177459902037334" lon="11.67051644834213"><ele>480.1428571428571</ele><time>2026-04-11T19:27:39Z</time></trkpt><trkpt lat="43.177485277684305" lon="11.670599529689982"><ele>479.2857142857143</ele><time>2026-04-11T19:27:41Z</time></trkpt><trkpt lat="43.17752068656989" lon="11.670675210743797"><ele>478.42857142857144</ele><time>2026-04-11T19:27:43Z</time></trkpt><trkpt lat="43.17756223938278" lon="11.67075811020583"><ele>477.57142857142856</ele><time>2026-04-11T19:27:45Z</time></trkpt><trkpt lat="43.17760513829622" lon="11.6708565367855"><ele>476.7142857142858</ele><time>2026-04-11T19:27:48Z</time></trkpt><trkpt lat="43.17763812676089" lon="11.6709347004617"><ele>475.8571428571429</ele><time>2026-04-11T19:27:50Z</time></trkpt><trkpt lat="43.17766519813576" lon="11.671028612889625"><ele>475.0</ele><time>2026-04-11T19:27:52Z</time></trkpt><trkpt lat="43.17770748413286" lon="11.671102420309078"><ele>475.7142857142857</ele><time>2026-04-11T19:27:54Z</time></trkpt><trkpt lat="43.177741054392015" lon="11.671178873495046"><ele>476.42857142857144</ele><time>2026-04-11T19:27:56Z</time></trkpt><trkpt lat="43.177781163635395" lon="11.671263390540847"><ele>477.14285714285717</ele><time>2026-04-11T19:27:58Z</time></trkpt><trkpt lat="43.177828003243576" lon="11.671334691414192"><ele>477.8571428571429</ele><time>2026-04-11T19:28:00Z</time></trkpt><trkpt lat="43.17789080624267" lon="11.671430859067117"><ele>478.57142857142856</ele><time>2026-04-11T19:28:03Z</time></trkpt><trkpt lat="43.17794406889722" lon="11.67149640534137"><ele>479.28571428571433</ele><time>2026-04-11T19:28:05Z</time></trkpt><trkpt lat="43.178003499974366" lon="11.671548483647774"><ele>480.0</ele><time>2026-04-11T19:28:07Z</time></trkpt><trkpt lat="43.1780532474551" lon="11.671607474028024"><ele>480.0</ele><time>2026-04-11T19:28:09Z</time></trkpt><trkpt lat="43.17812819493645" lon="11.671681044803462"><ele>480.0</ele><time>2026-04-11T19:28:12Z</time></trkpt><trkpt lat="43.178182147550466" lon="11.671741097500469"><ele>480.0</ele><time>2026-04-11T19:28:14Z</time></trkpt><trkpt lat="43.17825834061273" lon="11.67181518023238"><ele>480.0</ele><time>2026-04-11T19:28:17Z</time></trkpt><trkpt lat="43.17832392072845" lon="11.671893880988895"><ele>480.0</ele><time>2026-04-11T19:28:20Z</time></trkpt><trkpt lat="43.178399856955195" lon="11.67197301479206"><ele>480.0</ele><time>2026-04-11T19:28:23Z</time></trkpt><trkpt lat="43.178453270151415" lon="11.672039903002112"><ele>480.14285714285717</ele><time>2026-04-11T19:28:25Z</time></trkpt><trkpt lat="43.178507506051645" lon="11.672087823690841"><ele>480.2857142857142</ele><time>2026-04-11T19:28:27Z</time></trkpt><trkpt lat="43.17856283119171" lon="11.672141993633746"><ele>480.4285714285714</ele><time>2026-04-11T19:28:29Z</time></trkpt><trkpt lat="43.17861133614691" lon="11.672202809031592"><ele>480.57142857142856</ele><time>2026-04-11T19:28:31Z</time></trkpt><trkpt lat="43.17865910856993" lon="11.672259589817466"><ele>480.71428571428567</ele><time>2026-04-11T19:28:33Z</time></trkpt><trkpt lat="43.17873206284649" lon="11.672337957161975"><ele>480.8571428571428</ele><time>2026-04-11T19:28:36Z</time></trkpt><trkpt lat="43.17878553268585" lon="11.67238669512933"><ele>480.99999999999994</ele><time>2026-04-11T19:28:38Z</time></trkpt><trkpt lat="43.17883441978828" lon="11.67244396029522"><ele>481.00000000000006</ele><time>2026-04-11T19:28:40Z</time></trkpt><trkpt lat="43.17887959992018" lon="11.672510014243086"><ele>481.0</ele><time>2026-04-11T19:28:42Z</time></trkpt><trkpt lat="43.17892699085185" lon="11.67258051169025"><ele>481.0</ele><time>2026-04-11T19:28:44Z</time></trkpt><trkpt lat="43.178968684756164" lon="11.672660656038058"><ele>481.0</ele><time>2026-04-11T19:28:46Z</time></trkpt><trkpt lat="43.179008672467745" lon="11.67275074427724"><ele>481.00000000000006</ele><time>2026-04-11T19:28:48Z</time></trkpt><trkpt lat="43.179048382541545" lon="11.672847605553"><ele>481.0</ele><time>2026-04-11T19:28:50Z</time></trkpt><trkpt lat="43.179091529800054" lon="11.672947175897354"><ele>479.0</ele><time>2026-04-11T19:28:52Z</time></trkpt><trkpt lat="43.179125856644845" lon="11.673063354761222"><ele>477.0</ele><time>2026-04-11T19:28:54Z</time></trkpt><trkpt lat="43.17915226138801" lon="11.67318172828249"><ele>475.0</ele><time>2026-04-11T19:28:56Z</time></trkpt><trkpt lat="43.17918474733322" lon="11.673307501546464"><ele>473.0</ele><time>2026-04-11T19:28:58Z</time></trkpt><trkpt lat="43.17921638369235" lon="11.673434466619568"><ele>471.0</ele><time>2026-04-11T19:29:00Z</time></trkpt><trkpt lat="43.1792389195299" lon="11.673568259345341"><ele>471.8</ele><time>2026-04-11T19:29:02Z</time></trkpt><trkpt lat="43.179266284805045" lon="11.673711617281565"><ele>472.6</ele><time>2026-04-11T19:29:04Z</time></trkpt><trkpt lat="43.17927604959546" lon="11.67387321823206"><ele>473.4</ele><time>2026-04-11T19:29:06Z</time></trkpt><trkpt lat="43.17931132819156" lon="11.674038217959046"><ele>474.2</ele><time>2026-04-11T19:29:08Z</time></trkpt><trkpt lat="43.179329213860555" lon="11.674121870089051"><ele>475.0</ele><time>2026-04-11T19:29:09Z</time></trkpt><trkpt lat="43.17934768841587" lon="11.674208276649667"><ele>475.0</ele><time>2026-04-11T19:29:10Z</time></trkpt><trkpt lat="43.17936731372477" lon="11.674298711345324"><ele>475.00000000000006</ele><time>2026-04-11T19:29:11Z</time></trkpt><trkpt lat="43.17938965919616" lon="11.674390807853184"><ele>475.0</ele><time>2026-04-11T19:29:12Z</time></trkpt><trkpt lat="43.179414705204785" lon="11.674479069068026"><ele>475.0</ele><time>2026-04-11T19:29:13Z</time></trkpt><trkpt lat="43.17944583243865" lon="11.674568670623549"><ele>475.00000000000006</ele><time>2026-04-11T19:29:14Z</time></trkpt><trkpt lat="43.179485537154804" lon="11.674645262329127"><ele>475.0</ele><time>2026-04-11T19:29:15Z</time></trkpt><trkpt lat="43.17952321522182" lon="11.674726173736826"><ele>475.0</ele><time>2026-04-11T19:29:16Z</time></trkpt><trkpt lat="43.17955049818802" lon="11.674815976606185"><ele>475.42857142857144</ele><time>2026-04-11T19:29:17Z</time></trkpt><trkpt lat="43.17960438650351" lon="11.674881430315532"><ele>475.8571428571429</ele><time>2026-04-11T19:29:18Z</time></trkpt><trkpt lat="43.17963664565589" lon="11.67496771777815"><ele>476.28571428571433</ele><time>2026-04-11T19:29:19Z</time></trkpt><trkpt lat="43.17968317035895" lon="11.675038382589964"><ele>476.7142857142858</ele><time>2026-04-11T19:29:20Z</time></trkpt><trkpt lat="43.17972909120341" lon="11.675105421857584"><ele>477.14285714285717</ele><time>2026-04-11T19:29:21Z</time></trkpt><trkpt lat="43.179773720276046" lon="11.675170380199132"><ele>477.57142857142867</ele><time>2026-04-11T19:29:22Z</time></trkpt><trkpt lat="43.179818676644636" lon="11.67523489028399"><ele>478.00000000000006</ele><time>2026-04-11T19:29:23Z</time></trkpt><trkpt lat="43.17986526345495" lon="11.675300513994209"><ele>475.7142857142858</ele><time>2026-04-11T19:29:24Z</time></trkpt><trkpt lat="43.17991455283981" lon="11.67536716339228"><ele>473.42857142857144</ele><time>2026-04-11T19:29:25Z</time></trkpt><trkpt lat="43.17996262759526" lon="11.675431967399454"><ele>471.14285714285717</ele><time>2026-04-11T19:29:26Z</time></trkpt><trkpt lat="43.18001340021273" lon="11.675495193757977"><ele>468.8571428571429</ele><time>2026-04-11T19:29:27Z</time></trkpt><trkpt lat="43.180067814055555" lon="11.67555342762256"><ele>466.57142857142856</ele><time>2026-04-11T19:29:28Z</time></trkpt><trkpt lat="43.18012725059815" lon="11.675605489887872"><ele>464.2857142857143</ele><time>2026-04-11T19:29:29Z</time></trkpt><trkpt lat="43.18018827224009" lon="11.675644937721819"><ele>462.0</ele><time>2026-04-11T19:29:30Z</time></trkpt><trkpt lat="43.18025056420416" lon="11.675674777301033"><ele>462.0</ele><time>2026-04-11T19:29:31Z</time></trkpt><trkpt lat="43.180316264130425" lon="11.675696619860684"><ele>462.0</ele><time>2026-04-11T19:29:32Z</time></trkpt><trkpt lat="43.180387985809766" lon="11.675703981137781"><ele>462.0</ele><time>2026-04-11T19:29:33Z</time></trkpt><trkpt lat="43.18045545503418" lon="11.675701647841478"><ele>462.0</ele><time>2026-04-11T19:29:34Z</time></trkpt><trkpt lat="43.180525066991784" lon="11.675670027392329"><ele>462.0</ele><time>2026-04-11T19:29:35Z</time></trkpt><trkpt lat="43.18059546809464" lon="11.675654900965089"><ele>462.0</ele><time>2026-04-11T19:29:36Z</time></trkpt><trkpt lat="43.18066593749879" lon="11.67562887723858"><ele>462.0</ele><time>2026-04-11T19:29:37Z</time></trkpt><trkpt lat="43.18073722493718" lon="11.675591429373997"><ele>459.6666666666667</ele><time>2026-04-11T19:29:38Z</time></trkpt><trkpt lat="43.18080728074472" lon="11.675556847827016"><ele>457.33333333333337</ele><time>2026-04-11T19:29:39Z</time></trkpt><trkpt lat="43.18087117644955" lon="11.675525490833655"><ele>455.0</ele><time>2026-04-11T19:29:40Z</time></trkpt><trkpt lat="43.180937788320925" lon="11.675492578727493"><ele>452.6666666666667</ele><time>2026-04-11T19:29:41Z</time></trkpt><trkpt lat="43.181009109866835" lon="11.67546080829683"><ele>450.33333333333337</ele><time>2026-04-11T19:29:42Z</time></trkpt><trkpt lat="43.18112721310825" lon="11.675402318121238"><ele>448.0</ele><time>2026-04-11T19:29:44Z</time></trkpt><trkpt lat="43.18119200350609" lon="11.67537777266809"><ele>448.00000000000006</ele><time>2026-04-11T19:29:45Z</time></trkpt><trkpt lat="43.1812546102442" lon="11.67535136464946"><ele>448.0</ele><time>2026-04-11T19:29:46Z</time></trkpt><trkpt lat="43.181314024359786" lon="11.67531906324777"><ele>448.0</ele><time>2026-04-11T19:29:47Z</time></trkpt><trkpt lat="43.18137226726407" lon="11.675286075743568"><ele>448.0</ele><time>2026-04-11T19:29:48Z</time></trkpt><trkpt lat="43.181480293332726" lon="11.67523047118231"><ele>448.00000000000006</ele><time>2026-04-11T19:29:50Z</time></trkpt><trkpt lat="43.18158330284898" lon="11.675192963528843"><ele>448.0</ele><time>2026-04-11T19:29:52Z</time></trkpt><trkpt lat="43.18166885039644" lon="11.675143803224133"><ele>447.85714285714283</ele><time>2026-04-11T19:29:54Z</time></trkpt><trkpt lat="43.18174516546134" lon="11.675097179704364"><ele>447.7142857142857</ele><time>2026-04-11T19:29:56Z</time></trkpt><trkpt lat="43.181819707010575" lon="11.675063646908153"><ele>447.57142857142856</ele><time>2026-04-11T19:29:58Z</time></trkpt><trkpt lat="43.18188278049392" lon="11.675032134220626"><ele>447.42857142857144</ele><time>2026-04-11T19:30:00Z</time></trkpt><trkpt lat="43.18196272644729" lon="11.674979787391262"><ele>447.2857142857143</ele><time>2026-04-11T19:30:03Z</time></trkpt><trkpt lat="43.18202375162" lon="11.674944695801631"><ele>447.1428571428571</ele><time>2026-04-11T19:30:05Z</time></trkpt><trkpt lat="43.18208555061332" lon="11.674918517306383"><ele>447.0</ele><time>2026-04-11T19:30:07Z</time></trkpt><trkpt lat="43.1821482910647" lon="11.674887408346729"><ele>447.0</ele><time>2026-04-11T19:30:09Z</time></trkpt><trkpt lat="43.18220602733173" lon="11.674849311238054"><ele>447.0</ele><time>2026-04-11T19:30:11Z</time></trkpt><trkpt lat="43.18227620995707" lon="11.674816753949914"><ele>447.0</ele><time>2026-04-11T19:30:14Z</time></trkpt><trkpt lat="43.18233947499963" lon="11.674766328129772"><ele>447.0</ele><time>2026-04-11T19:30:18Z</time></trkpt><trkpt lat="43.18240667957574" lon="11.674723762492347"><ele>447.0</ele><time>2026-04-11T19:30:21Z</time></trkpt><trkpt lat="43.18248961705892" lon="11.674668415931004"><ele>447.0</ele><time>2026-04-11T19:30:24Z</time></trkpt><trkpt lat="43.182563007190566" lon="11.674613674562488"><ele>447.5</ele><time>2026-04-11T19:30:27Z</time></trkpt><trkpt lat="43.182617389587946" lon="11.674564687720299"><ele>448.0</ele><time>2026-04-11T19:30:30Z</time></trkpt><trkpt lat="43.182688930723344" lon="11.674522774176113"><ele>448.5</ele><time>2026-04-11T19:30:33Z</time></trkpt><trkpt lat="43.18276214216656" lon="11.674473921621871"><ele>449.0</ele><time>2026-04-11T19:30:36Z</time></trkpt><trkpt lat="43.182837737933305" lon="11.674426772019421"><ele>449.5</ele><time>2026-04-11T19:30:39Z</time></trkpt><trkpt lat="43.1829092859551" lon="11.67436559106525"><ele>450.0</ele><time>2026-04-11T19:30:42Z</time></trkpt><trkpt lat="43.18298320354197" lon="11.674301156320636"><ele>450.8333333333333</ele><time>2026-04-11T19:30:45Z</time></trkpt><trkpt lat="43.18306140606645" lon="11.674246284374433"><ele>451.66666666666663</ele><time>2026-04-11T19:30:48Z</time></trkpt><trkpt lat="43.18311433997593" lon="11.67419615503338"><ele>452.5</ele><time>2026-04-11T19:30:51Z</time></trkpt><trkpt lat="43.18318654547201" lon="11.67413508537039"><ele>453.3333333333333</ele><time>2026-04-11T19:30:55Z</time></trkpt><trkpt lat="43.183257429407725" lon="11.674073270610915"><ele>454.16666666666663</ele><time>2026-04-11T19:30:58Z</time></trkpt><trkpt lat="43.18332828021916" lon="11.674001284798672"><ele>455.0</ele><time>2026-04-11T19:31:01Z</time></trkpt><trkpt lat="43.18338025773395" lon="11.673935193220053"><ele>454.99999999999994</ele><time>2026-04-11T19:31:03Z</time></trkpt><trkpt lat="43.18342760618382" lon="11.673859636793832"><ele>455.0</ele><time>2026-04-11T19:31:05Z</time></trkpt><trkpt lat="43.183461562764954" lon="11.673775423810463"><ele>455.0</ele><time>2026-04-11T19:31:07Z</time></trkpt><trkpt lat="43.18349736315547" lon="11.673686184369979"><ele>455.0</ele><time>2026-04-11T19:31:09Z</time></trkpt><trkpt lat="43.18353573627837" lon="11.673594981581708"><ele>454.99999999999994</ele><time>2026-04-11T19:31:11Z</time></trkpt><trkpt lat="43.18357531909852" lon="11.673499929814573"><ele>455.0</ele><time>2026-04-11T19:31:13Z</time></trkpt><trkpt lat="43.18361559329236" lon="11.673390279180678"><ele>454.49999999999994</ele><time>2026-04-11T19:31:16Z</time></trkpt><trkpt lat="43.183658202512795" lon="11.673281407316496"><ele>454.0</ele><time>2026-04-11T19:31:19Z</time></trkpt><trkpt lat="43.18370106124394" lon="11.673170200673775"><ele>453.5</ele><time>2026-04-11T19:31:21Z</time></trkpt><trkpt lat="43.1837347537818" lon="11.673087852329807"><ele>453.0</ele><time>2026-04-11T19:31:23Z</time></trkpt><trkpt lat="43.18376569827532" lon="11.673007335640687"><ele>452.49999999999994</ele><time>2026-04-11T19:31:25Z</time></trkpt><trkpt lat="43.183743842494565" lon="11.672888969345864"><ele>452.0</ele><time>2026-04-11T19:34:21Z</time></trkpt><trkpt lat="43.18376337079302" lon="11.672792250032597"><ele>450.66666666666663</ele><time>2026-04-11T19:34:24Z</time></trkpt><trkpt lat="43.18377912624672" lon="11.672674869170711"><ele>449.3333333333333</ele><time>2026-04-11T19:34:27Z</time></trkpt><trkpt lat="43.18379893599303" lon="11.672586475285494"><ele>448.0</ele><time>2026-04-11T19:34:29Z</time></trkpt><trkpt lat="43.18380860186366" lon="11.672485876116868"><ele>446.66666666666663</ele><time>2026-04-11T19:34:31Z</time></trkpt><trkpt lat="43.18383154217227" lon="11.672371064616875"><ele>445.3333333333333</ele><time>2026-04-11T19:34:33Z</time></trkpt><trkpt lat="43.18384565382598" lon="11.672250239859979"><ele>444.0</ele><time>2026-04-11T19:34:35Z</time></trkpt><trkpt lat="43.18386163252796" lon="11.672124336578003"><ele>444.0</ele><time>2026-04-11T19:34:37Z</time></trkpt><trkpt lat="43.18388862515027" lon="11.671988169596286"><ele>444.0</ele><time>2026-04-11T19:34:39Z</time></trkpt><trkpt lat="43.183929887176824" lon="11.671845120423257"><ele>444.0</ele><time>2026-04-11T19:34:41Z</time></trkpt><trkpt lat="43.1839939258859" lon="11.671702839272589"><ele>444.0</ele><time>2026-04-11T19:34:43Z</time></trkpt><trkpt lat="43.18403452091793" lon="11.67162902571095"><ele>444.0</ele><time>2026-04-11T19:34:44Z</time></trkpt><trkpt lat="43.18407422119628" lon="11.671555471876733"><ele>443.57142857142856</ele><time>2026-04-11T19:34:45Z</time></trkpt><trkpt lat="43.18411419306339" lon="11.671483794079279"><ele>443.14285714285717</ele><time>2026-04-11T19:34:46Z</time></trkpt><trkpt lat="43.184157225101146" lon="11.671406269552689"><ele>442.7142857142857</ele><time>2026-04-11T19:34:47Z</time></trkpt><trkpt lat="43.18420052265716" lon="11.671331094428691"><ele>442.2857142857143</ele><time>2026-04-11T19:34:48Z</time></trkpt><trkpt lat="43.18424499965181" lon="11.671255908669405"><ele>441.8571428571429</ele><time>2026-04-11T19:34:49Z</time></trkpt><trkpt lat="43.184287581355605" lon="11.67117764204363"><ele>441.42857142857144</ele><time>2026-04-11T19:34:50Z</time></trkpt><trkpt lat="43.18432776547086" lon="11.671099030247564"><ele>441.0</ele><time>2026-04-11T19:34:51Z</time></trkpt><trkpt lat="43.184370791905764" lon="11.671022850344121"><ele>441.0</ele><time>2026-04-11T19:34:52Z</time></trkpt><trkpt lat="43.18442109232599" lon="11.670943292634625"><ele>441.0</ele><time>2026-04-11T19:34:53Z</time></trkpt><trkpt lat="43.18447478343063" lon="11.670867360619384"><ele>441.0</ele><time>2026-04-11T19:34:54Z</time></trkpt><trkpt lat="43.184536241632415" lon="11.670794727469382"><ele>441.0</ele><time>2026-04-11T19:34:55Z</time></trkpt><trkpt lat="43.184607381809414" lon="11.670735654054207"><ele>441.0</ele><time>2026-04-11T19:34:56Z</time></trkpt><trkpt lat="43.1846815002198" lon="11.670683174103848"><ele>441.0</ele><time>2026-04-11T19:34:57Z</time></trkpt><trkpt lat="43.18475628094718" lon="11.67063552425705"><ele>441.0</ele><time>2026-04-11T19:34:58Z</time></trkpt><trkpt lat="43.184833387817555" lon="11.67058908861491"><ele>441.0</ele><time>2026-04-11T19:34:59Z</time></trkpt><trkpt lat="43.18491515326158" lon="11.670543784615273"><ele>441.0</ele><time>2026-04-11T19:35:00Z</time></trkpt><trkpt lat="43.18499352128808" lon="11.670492389793315"><ele>441.0</ele><time>2026-04-11T19:35:01Z</time></trkpt><trkpt lat="43.18506577049371" lon="11.670445168757537"><ele>441.0</ele><time>2026-04-11T19:35:02Z</time></trkpt><trkpt lat="43.18514193386767" lon="11.670401844192288"><ele>441.0</ele><time>2026-04-11T19:35:03Z</time></trkpt><trkpt lat="43.185219644679606" lon="11.670352058695714"><ele>440.3333333333333</ele><time>2026-04-11T19:35:04Z</time></trkpt><trkpt lat="43.185298259018786" lon="11.670293526565125"><ele>439.66666666666663</ele><time>2026-04-11T19:35:05Z</time></trkpt><trkpt lat="43.18538040207608" lon="11.670238193989173"><ele>439.0</ele><time>2026-04-11T19:35:06Z</time></trkpt><trkpt lat="43.185459847209906" lon="11.670183339741799"><ele>438.3333333333333</ele><time>2026-04-11T19:35:07Z</time></trkpt><trkpt lat="43.18553638623767" lon="11.670129701021427"><ele>437.66666666666663</ele><time>2026-04-11T19:35:08Z</time></trkpt><trkpt lat="43.18561422144494" lon="11.670074660009119"><ele>437.0</ele><time>2026-04-11T19:35:09Z</time></trkpt><trkpt lat="43.18568759461729" lon="11.670022856819388"><ele>436.99999999999994</ele><time>2026-04-11T19:35:10Z</time></trkpt><trkpt lat="43.1857619168771" lon="11.669974168190851"><ele>437.0</ele><time>2026-04-11T19:35:11Z</time></trkpt><trkpt lat="43.18583310068456" lon="11.669925371504835"><ele>437.0</ele><time>2026-04-11T19:35:12Z</time></trkpt><trkpt lat="43.18589757716265" lon="11.66987770717261"><ele>437.0</ele><time>2026-04-11T19:35:13Z</time></trkpt><trkpt lat="43.18596016008722" lon="11.669830241710502"><ele>436.99999999999994</ele><time>2026-04-11T19:35:14Z</time></trkpt><trkpt lat="43.186024884850504" lon="11.66978206869241"><ele>437.0</ele><time>2026-04-11T19:35:15Z</time></trkpt><trkpt lat="43.186092618950994" lon="11.669733614081935"><ele>437.0</ele><time>2026-04-11T19:35:16Z</time></trkpt><trkpt lat="43.18615773843174" lon="11.66969021251714"><ele>437.0</ele><time>2026-04-11T19:35:17Z</time></trkpt><trkpt lat="43.18622003980552" lon="11.66964499059389"><ele>437.0</ele><time>2026-04-11T19:35:18Z</time></trkpt><trkpt lat="43.186283735131305" lon="11.669602611436577"><ele>437.0</ele><time>2026-04-11T19:35:19Z</time></trkpt><trkpt lat="43.18634558300385" lon="11.669563513545794"><ele>437.0</ele><time>2026-04-11T19:35:20Z</time></trkpt><trkpt lat="43.18640499895515" lon="11.669524283018308"><ele>437.0</ele><time>2026-04-11T19:35:21Z</time></trkpt><trkpt lat="43.186462218728664" lon="11.66948218841077"><ele>437.0</ele><time>2026-04-11T19:35:22Z</time></trkpt><trkpt lat="43.186521046985106" lon="11.669448535210119"><ele>436.20000000000005</ele><time>2026-04-11T19:35:23Z</time></trkpt><trkpt lat="43.186627428638026" lon="11.669403280881683"><ele>435.40000000000003</ele><time>2026-04-11T19:35:25Z</time></trkpt><trkpt lat="43.186725600141926" lon="11.669379442809376"><ele>434.59999999999997</ele><time>2026-04-11T19:35:27Z</time></trkpt><trkpt lat="43.18681122933516" lon="11.669364425158989"><ele>433.79999999999995</ele><time>2026-04-11T19:35:29Z</time></trkpt><trkpt lat="43.18689614278939" lon="11.669362373862194"><ele>433.0</ele><time>2026-04-11T19:35:31Z</time></trkpt><trkpt lat="43.18696795329033" lon="11.669353906298694"><ele>432.99999999999994</ele><time>2026-04-11T19:35:33Z</time></trkpt><trkpt lat="43.18704267722942" lon="11.66934294703749"><ele>433.0</ele><time>2026-04-11T19:35:35Z</time></trkpt><trkpt lat="43.18711359906582" lon="11.669339015816051"><ele>433.0</ele><time>2026-04-11T19:35:37Z</time></trkpt><trkpt lat="43.187177826748005" lon="11.669354597644759"><ele>433.0</ele><time>2026-04-11T19:35:41Z</time></trkpt><trkpt lat="43.18718102407097" lon="11.669263678851403"><ele>433.0</ele><time>2026-04-11T19:35:46Z</time></trkpt><trkpt lat="43.18716620773731" lon="11.669158872556936"><ele>432.99999999999994</ele><time>2026-04-11T19:35:49Z</time></trkpt><trkpt lat="43.18718325469424" lon="11.669072771275662"><ele>433.0</ele><time>2026-04-11T19:35:51Z</time></trkpt><trkpt lat="43.18721112602215" lon="11.66898607589273"><ele>433.00000000000006</ele><time>2026-04-11T19:35:53Z</time></trkpt><trkpt lat="43.18723010796263" lon="11.668881366243793"><ele>433.0</ele><time>2026-04-11T19:35:55Z</time></trkpt><trkpt lat="43.18725406386571" lon="11.66880061789365"><ele>433.0</ele><time>2026-04-11T19:35:57Z</time></trkpt><trkpt lat="43.18730061609142" lon="11.668718156300846"><ele>433.0</ele><time>2026-04-11T19:36:00Z</time></trkpt><trkpt lat="43.187337153608084" lon="11.668627784015515"><ele>433.00000000000006</ele><time>2026-04-11T19:36:03Z</time></trkpt><trkpt lat="43.187372813328636" lon="11.668523674669748"><ele>433.0</ele><time>2026-04-11T19:36:06Z</time></trkpt><trkpt lat="43.187426185734246" lon="11.668412521217414"><ele>433.1666666666667</ele><time>2026-04-11T19:36:09Z</time></trkpt><trkpt lat="43.1874828501315" lon="11.668344711397244"><ele>433.33333333333337</ele><time>2026-04-11T19:36:11Z</time></trkpt><trkpt lat="43.187542255660794" lon="11.668267303268658"><ele>433.5</ele><time>2026-04-11T19:36:13Z</time></trkpt><trkpt lat="43.18761041640177" lon="11.668214036104827"><ele>433.66666666666663</ele><time>2026-04-11T19:36:15Z</time></trkpt><trkpt lat="43.1876652032841" lon="11.66816171058791"><ele>433.8333333333333</ele><time>2026-04-11T19:36:17Z</time></trkpt><trkpt lat="43.187718007062216" lon="11.66809237851944"><ele>434.0</ele><time>2026-04-11T19:36:19Z</time></trkpt><trkpt lat="43.18776967604854" lon="11.667992490826665"><ele>433.99999999999994</ele><time>2026-04-11T19:36:21Z</time></trkpt><trkpt lat="43.18780406819713" lon="11.667837608358614"><ele>434.0</ele><time>2026-04-11T19:36:23Z</time></trkpt><trkpt lat="43.18781521441267" lon="11.667748805865386"><ele>434.0</ele><time>2026-04-11T19:36:24Z</time></trkpt><trkpt lat="43.1878337735005" lon="11.6676542870448"><ele>434.0</ele><time>2026-04-11T19:36:25Z</time></trkpt><trkpt lat="43.1878519406152" lon="11.667557393667487"><ele>433.99999999999994</ele><time>2026-04-11T19:36:26Z</time></trkpt><trkpt lat="43.18787070632378" lon="11.66746376144424"><ele>434.0</ele><time>2026-04-11T19:36:27Z</time></trkpt><trkpt lat="43.187906473536124" lon="11.667310529498472"><ele>432.66666666666663</ele><time>2026-04-11T19:36:29Z</time></trkpt><trkpt lat="43.1879253911031" lon="11.667224630261089"><ele>431.3333333333333</ele><time>2026-04-11T19:36:30Z</time></trkpt><trkpt lat="43.187956442864014" lon="11.667081733849631"><ele>430.0</ele><time>2026-04-11T19:36:32Z</time></trkpt><trkpt lat="43.18797591760266" lon="11.666998866601661"><ele>428.66666666666663</ele><time>2026-04-11T19:36:34Z</time></trkpt><trkpt lat="43.18794396336554" lon="11.667084229049689"><ele>427.3333333333333</ele><time>2026-04-11T19:36:40Z</time></trkpt><trkpt lat="43.187941263317335" lon="11.667204007546928"><ele>426.0</ele><time>2026-04-11T19:36:43Z</time></trkpt><trkpt lat="43.187875934086414" lon="11.667148441822269"><ele>426.0</ele><time>2026-04-11T19:36:50Z</time></trkpt><trkpt lat="43.187879375799675" lon="11.66703815479912"><ele>426.0</ele><time>2026-04-11T19:36:53Z</time></trkpt><trkpt lat="43.18786289827457" lon="11.666909930963818"><ele>426.0</ele><time>2026-04-11T19:36:55Z</time></trkpt><trkpt lat="43.18785792242627" lon="11.66677108695976"><ele>426.0</ele><time>2026-04-11T19:36:57Z</time></trkpt><trkpt lat="43.18785662379542" lon="11.666619823318397"><ele>426.0</ele><time>2026-04-11T19:36:59Z</time></trkpt><trkpt lat="43.187847494676845" lon="11.666465640107257"><ele>424.3333333333333</ele><time>2026-04-11T19:37:01Z</time></trkpt><trkpt lat="43.18784697206815" lon="11.666378519094277"><ele>422.66666666666663</ele><time>2026-04-11T19:37:02Z</time></trkpt><trkpt lat="43.18783895391149" lon="11.666288463972892"><ele>421.0</ele><time>2026-04-11T19:37:03Z</time></trkpt><trkpt lat="43.18782661237139" lon="11.666198209039909"><ele>419.3333333333333</ele><time>2026-04-11T19:37:04Z</time></trkpt><trkpt lat="43.18781004660254" lon="11.666026255216662"><ele>417.66666666666663</ele><time>2026-04-11T19:37:06Z</time></trkpt><trkpt lat="43.187796962316476" lon="11.665855486356751"><ele>416.0</ele><time>2026-04-11T19:37:08Z</time></trkpt><trkpt lat="43.1877802212119" lon="11.665682511583528"><ele>415.0</ele><time>2026-04-11T19:37:10Z</time></trkpt><trkpt lat="43.187769340623255" lon="11.665595597853276"><ele>414.0</ele><time>2026-04-11T19:37:11Z</time></trkpt><trkpt lat="43.187765300994094" lon="11.665508174935884"><ele>413.0</ele><time>2026-04-11T19:37:12Z</time></trkpt><trkpt lat="43.18776461180941" lon="11.665414046934039"><ele>412.0</ele><time>2026-04-11T19:37:13Z</time></trkpt><trkpt lat="43.187766894360294" lon="11.665309717880685"><ele>411.0</ele><time>2026-04-11T19:37:14Z</time></trkpt><trkpt lat="43.187771492909015" lon="11.665210825005602"><ele>410.0</ele><time>2026-04-11T19:37:15Z</time></trkpt><trkpt lat="43.187770974012544" lon="11.66510778437164"><ele>409.0</ele><time>2026-04-11T19:37:16Z</time></trkpt><trkpt lat="43.18776822850042" lon="11.665008086250563"><ele>408.1666666666667</ele><time>2026-04-11T19:37:17Z</time></trkpt><trkpt lat="43.18776289648038" lon="11.664902843089994"><ele>407.33333333333337</ele><time>2026-04-11T19:37:18Z</time></trkpt><trkpt lat="43.187758188615184" lon="11.664800438118837"><ele>406.5</ele><time>2026-04-11T19:37:19Z</time></trkpt><trkpt lat="43.18775014402131" lon="11.664693861757486"><ele>405.66666666666663</ele><time>2026-04-11T19:37:20Z</time></trkpt><trkpt lat="43.18774362248515" lon="11.664585393004604"><ele>404.8333333333333</ele><time>2026-04-11T19:37:21Z</time></trkpt><trkpt lat="43.18773745769231" lon="11.66448248805108"><ele>404.0</ele><time>2026-04-11T19:37:22Z</time></trkpt><trkpt lat="43.18773531712337" lon="11.664369628199394"><ele>402.8333333333333</ele><time>2026-04-11T19:37:23Z</time></trkpt><trkpt lat="43.18773686493999" lon="11.664239433289936"><ele>401.66666666666663</ele><time>2026-04-11T19:37:24Z</time></trkpt><trkpt lat="43.18774552955394" lon="11.664119074890193"><ele>400.5</ele><time>2026-04-11T19:37:25Z</time></trkpt><trkpt lat="43.18776059890539" lon="11.664008559058063"><ele>399.33333333333337</ele><time>2026-04-11T19:37:26Z</time></trkpt><trkpt lat="43.187781653057336" lon="11.663902765403517"><ele>398.1666666666667</ele><time>2026-04-11T19:37:27Z</time></trkpt><trkpt lat="43.18780604174728" lon="11.663800958592246"><ele>397.0</ele><time>2026-04-11T19:37:28Z</time></trkpt><trkpt lat="43.18783119525312" lon="11.663692174175926"><ele>396.1666666666667</ele><time>2026-04-11T19:37:29Z</time></trkpt><trkpt lat="43.187852575286335" lon="11.663580565278735"><ele>395.33333333333337</ele><time>2026-04-11T19:37:30Z</time></trkpt><trkpt lat="43.187880931743415" lon="11.663477280655204"><ele>394.5</ele><time>2026-04-11T19:37:31Z</time></trkpt><trkpt lat="43.18790719129563" lon="11.66337662584746"><ele>393.66666666666663</ele><time>2026-04-11T19:37:32Z</time></trkpt><trkpt lat="43.187931600934576" lon="11.663282442088155"><ele>392.8333333333333</ele><time>2026-04-11T19:37:33Z</time></trkpt><trkpt lat="43.18795061555777" lon="11.663184745655023"><ele>392.0</ele><time>2026-04-11T19:37:34Z</time></trkpt><trkpt lat="43.18796226687231" lon="11.663082872845514"><ele>391.99999999999994</ele><time>2026-04-11T19:37:35Z</time></trkpt><trkpt lat="43.187971681101835" lon="11.662986002192762"><ele>392.0</ele><time>2026-04-11T19:37:36Z</time></trkpt><trkpt lat="43.18797696279243" lon="11.662879050149142"><ele>392.0</ele><time>2026-04-11T19:37:37Z</time></trkpt><trkpt lat="43.1879824065067" lon="11.662762430246312"><ele>392.0</ele><time>2026-04-11T19:37:38Z</time></trkpt><trkpt lat="43.18798772920372" lon="11.662653682676815"><ele>391.99999999999994</ele><time>2026-04-11T19:37:39Z</time></trkpt><trkpt lat="43.1879915468328" lon="11.662556030964272"><ele>392.0</ele><time>2026-04-11T19:37:40Z</time></trkpt><trkpt lat="43.18799408476093" lon="11.662464113066182"><ele>390.66666666666663</ele><time>2026-04-11T19:37:41Z</time></trkpt><trkpt lat="43.18799418978578" lon="11.662372991517852"><ele>389.3333333333333</ele><time>2026-04-11T19:37:42Z</time></trkpt><trkpt lat="43.1879901105971" lon="11.662275702990494"><ele>388.0</ele><time>2026-04-11T19:37:43Z</time></trkpt><trkpt lat="43.18797558386334" lon="11.662174470126892"><ele>386.66666666666663</ele><time>2026-04-11T19:37:44Z</time></trkpt><trkpt lat="43.187954748775304" lon="11.662080248741239"><ele>385.3333333333333</ele><time>2026-04-11T19:37:45Z</time></trkpt><trkpt lat="43.187931403012584" lon="11.66197309571132"><ele>384.0</ele><time>2026-04-11T19:37:46Z</time></trkpt><trkpt lat="43.18790437725249" lon="11.661857348141538"><ele>382.79999999999995</ele><time>2026-04-11T19:37:47Z</time></trkpt><trkpt lat="43.18788746634786" lon="11.66173014823367"><ele>381.59999999999997</ele><time>2026-04-11T19:37:48Z</time></trkpt><trkpt lat="43.187878420868145" lon="11.661610642877434"><ele>380.4</ele><time>2026-04-11T19:37:49Z</time></trkpt><trkpt lat="43.18788151919591" lon="11.661487040261717"><ele>379.2</ele><time>2026-04-11T19:37:50Z</time></trkpt><trkpt lat="43.18787954421953" lon="11.66136193848798"><ele>378.0</ele><time>2026-04-11T19:37:51Z</time></trkpt><trkpt lat="43.18788592188586" lon="11.661236186705251"><ele>376.59999999999997</ele><time>2026-04-11T19:37:52Z</time></trkpt><trkpt lat="43.18789028625121" lon="11.661110428539022"><ele>375.2</ele><time>2026-04-11T19:37:53Z</time></trkpt><trkpt lat="43.187892716647006" lon="11.660979747360619"><ele>373.8</ele><time>2026-04-11T19:37:54Z</time></trkpt><trkpt lat="43.187895966262694" lon="11.660844433118395"><ele>372.4</ele><time>2026-04-11T19:37:55Z</time></trkpt><trkpt lat="43.18789881745442" lon="11.660728156059921"><ele>371.0</ele><time>2026-04-11T19:37:56Z</time></trkpt><trkpt lat="43.18789804914705" lon="11.660612712761738"><ele>371.0</ele><time>2026-04-11T19:37:57Z</time></trkpt><trkpt lat="43.18790136953084" lon="11.66050681179889"><ele>371.0</ele><time>2026-04-11T19:37:58Z</time></trkpt><trkpt lat="43.18791044667947" lon="11.660405460823117"><ele>371.0</ele><time>2026-04-11T19:37:59Z</time></trkpt><trkpt lat="43.18792952143932" lon="11.660298938847422"><ele>371.0</ele><time>2026-04-11T19:38:00Z</time></trkpt><trkpt lat="43.187946167029246" lon="11.660196779685672"><ele>371.0</ele><time>2026-04-11T19:38:01Z</time></trkpt><trkpt lat="43.1879647355283" lon="11.660100689929223"><ele>371.0</ele><time>2026-04-11T19:38:02Z</time></trkpt><trkpt lat="43.18799128480823" lon="11.66000067520352"><ele>370.14285714285717</ele><time>2026-04-11T19:38:03Z</time></trkpt><trkpt lat="43.18801486218975" lon="11.659907003797285"><ele>369.2857142857143</ele><time>2026-04-11T19:38:04Z</time></trkpt><trkpt lat="43.18803759792365" lon="11.659814203971177"><ele>368.42857142857144</ele><time>2026-04-11T19:38:05Z</time></trkpt><trkpt lat="43.188055051652384" lon="11.65972149977373"><ele>367.57142857142856</ele><time>2026-04-11T19:38:06Z</time></trkpt><trkpt lat="43.18806768244444" lon="11.659629175084048"><ele>366.7142857142857</ele><time>2026-04-11T19:38:07Z</time></trkpt><trkpt lat="43.188078250494485" lon="11.659524703434215"><ele>365.8571428571429</ele><time>2026-04-11T19:38:08Z</time></trkpt><trkpt lat="43.188084756395874" lon="11.659421360921174"><ele>365.0</ele><time>2026-04-11T19:38:09Z</time></trkpt><trkpt lat="43.18808638486376" lon="11.659321340994628"><ele>363.8571428571429</ele><time>2026-04-11T19:38:10Z</time></trkpt><trkpt lat="43.18808618313947" lon="11.659231066962002"><ele>362.7142857142857</ele><time>2026-04-11T19:38:11Z</time></trkpt><trkpt lat="43.18808564318621" lon="11.659142654971738"><ele>361.57142857142856</ele><time>2026-04-11T19:38:12Z</time></trkpt><trkpt lat="43.18808229033201" lon="11.65905051622211"><ele>360.42857142857144</ele><time>2026-04-11T19:38:13Z</time></trkpt><trkpt lat="43.18807607306297" lon="11.658952331559238"><ele>359.2857142857143</ele><time>2026-04-11T19:38:14Z</time></trkpt><trkpt lat="43.188068539304254" lon="11.658851695562849"><ele>358.14285714285717</ele><time>2026-04-11T19:38:15Z</time></trkpt><trkpt lat="43.188056081938704" lon="11.65874989129629"><ele>357.0</ele><time>2026-04-11T19:38:16Z</time></trkpt><trkpt lat="43.18804936176231" lon="11.658648099534716"><ele>356.3333333333333</ele><time>2026-04-11T19:38:17Z</time></trkpt><trkpt lat="43.18803172541707" lon="11.658548390354726"><ele>355.6666666666667</ele><time>2026-04-11T19:38:18Z</time></trkpt><trkpt lat="43.188010168923384" lon="11.658445724950042"><ele>355.0</ele><time>2026-04-11T19:38:19Z</time></trkpt><trkpt lat="43.18798116666093" lon="11.658341492580139"><ele>354.33333333333337</ele><time>2026-04-11T19:38:20Z</time></trkpt><trkpt lat="43.18794763464944" lon="11.658236389698624"><ele>353.6666666666667</ele><time>2026-04-11T19:38:21Z</time></trkpt><trkpt lat="43.187910024417036" lon="11.658133896565525"><ele>353.0</ele><time>2026-04-11T19:38:22Z</time></trkpt><trkpt lat="43.187871807465775" lon="11.658029357193906"><ele>353.0</ele><time>2026-04-11T19:38:23Z</time></trkpt><trkpt lat="43.187838326805704" lon="11.657917251396492"><ele>353.0</ele><time>2026-04-11T19:38:24Z</time></trkpt><trkpt lat="43.18781317802067" lon="11.657802006755425"><ele>353.0</ele><time>2026-04-11T19:38:25Z</time></trkpt><trkpt lat="43.18779467650564" lon="11.657683952087982"><ele>353.0</ele><time>2026-04-11T19:38:26Z</time></trkpt><trkpt lat="43.18778637226904" lon="11.657571852720778"><ele>353.0</ele><time>2026-04-11T19:38:27Z</time></trkpt><trkpt lat="43.18778873434974" lon="11.65746142068397"><ele>353.0</ele><time>2026-04-11T19:38:28Z</time></trkpt><trkpt lat="43.18779514378764" lon="11.657354496942599"><ele>353.0</ele><time>2026-04-11T19:38:29Z</time></trkpt><trkpt lat="43.18780217641435" lon="11.657251504307114"><ele>353.0</ele><time>2026-04-11T19:38:30Z</time></trkpt><trkpt lat="43.187809051600595" lon="11.65714337940564"><ele>353.0</ele><time>2026-04-11T19:38:31Z</time></trkpt><trkpt lat="43.18781705833709" lon="11.657042851198831"><ele>353.0</ele><time>2026-04-11T19:38:32Z</time></trkpt><trkpt lat="43.18782839951443" lon="11.656950556304352"><ele>353.0</ele><time>2026-04-11T19:38:33Z</time></trkpt><trkpt lat="43.18784280588928" lon="11.656858568879427"><ele>353.0</ele><time>2026-04-11T19:38:34Z</time></trkpt><trkpt lat="43.18785922329792" lon="11.65677233576242"><ele>353.0</ele><time>2026-04-11T19:38:35Z</time></trkpt><trkpt lat="43.187875238651166" lon="11.656683196250253"><ele>352.7142857142857</ele><time>2026-04-11T19:38:36Z</time></trkpt><trkpt lat="43.18788968682257" lon="11.656595783299506"><ele>352.42857142857144</ele><time>2026-04-11T19:38:37Z</time></trkpt><trkpt lat="43.187903743119016" lon="11.656504959157719"><ele>352.14285714285717</ele><time>2026-04-11T19:38:38Z</time></trkpt><trkpt lat="43.18791490819806" lon="11.65640397928525"><ele>351.8571428571429</ele><time>2026-04-11T19:38:39Z</time></trkpt><trkpt lat="43.18792785286392" lon="11.65630510274467"><ele>351.57142857142856</ele><time>2026-04-11T19:38:40Z</time></trkpt><trkpt lat="43.187942515860776" lon="11.656207953365001"><ele>351.28571428571433</ele><time>2026-04-11T19:38:41Z</time></trkpt><trkpt lat="43.18795212062902" lon="11.65611378765676"><ele>351.0</ele><time>2026-04-11T19:38:42Z</time></trkpt><trkpt lat="43.18795973817609" lon="11.656027116500356"><ele>351.8333333333333</ele><time>2026-04-11T19:38:43Z</time></trkpt><trkpt lat="43.187969027346426" lon="11.655887334843106"><ele>352.6666666666667</ele><time>2026-04-11T19:38:45Z</time></trkpt><trkpt lat="43.187925304298346" lon="11.655789970096498"><ele>353.5</ele><time>2026-04-11T19:38:47Z</time></trkpt><trkpt lat="43.187895372766135" lon="11.655712387139564"><ele>354.33333333333337</ele><time>2026-04-11T19:38:49Z</time></trkpt><trkpt lat="43.187855268193914" lon="11.655623838552623"><ele>355.1666666666667</ele><time>2026-04-11T19:38:52Z</time></trkpt><trkpt lat="43.1878131784993" lon="11.655548960031743"><ele>356.0</ele><time>2026-04-11T19:38:55Z</time></trkpt><trkpt lat="43.18776011288143" lon="11.655464408589692"><ele>356.0</ele><time>2026-04-11T19:38:58Z</time></trkpt><trkpt lat="43.1877108552514" lon="11.655365794167398"><ele>356.0</ele><time>2026-04-11T19:39:01Z</time></trkpt><trkpt lat="43.18767458561397" lon="11.65524831061018"><ele>356.0</ele><time>2026-04-11T19:39:04Z</time></trkpt><trkpt lat="43.187649227648556" lon="11.655146125270102"><ele>356.0</ele><time>2026-04-11T19:39:06Z</time></trkpt><trkpt lat="43.187651865076745" lon="11.655020363305363"><ele>356.0</ele><time>2026-04-11T19:39:08Z</time></trkpt><trkpt lat="43.18766370477957" lon="11.654889461450304"><ele>356.0</ele><time>2026-04-11T19:39:10Z</time></trkpt><trkpt lat="43.187712319977386" lon="11.65476888480452"><ele>356.0</ele><time>2026-04-11T19:39:12Z</time></trkpt><trkpt lat="43.18776713642372" lon="11.654663455784489"><ele>356.0</ele><time>2026-04-11T19:39:14Z</time></trkpt><trkpt lat="43.18782744239855" lon="11.654583181563163"><ele>356.0</ele><time>2026-04-11T19:39:16Z</time></trkpt><trkpt lat="43.18788162152643" lon="11.65450449832287"><ele>356.0</ele><time>2026-04-11T19:39:18Z</time></trkpt><trkpt lat="43.18794145131978" lon="11.65442422519116"><ele>356.0</ele><time>2026-04-11T19:39:20Z</time></trkpt><trkpt lat="43.187992653725004" lon="11.654337289578237"><ele>356.0</ele><time>2026-04-11T19:39:22Z</time></trkpt><trkpt lat="43.18802987982801" lon="11.654244600892024"><ele>357.0</ele><time>2026-04-11T19:39:24Z</time></trkpt><trkpt lat="43.1880569769286" lon="11.65412326221722"><ele>358.0</ele><time>2026-04-11T19:39:26Z</time></trkpt><trkpt lat="43.18806156868532" lon="11.654002072863163"><ele>359.0</ele><time>2026-04-11T19:39:28Z</time></trkpt><trkpt lat="43.18805316259933" lon="11.653899900455"><ele>360.0</ele><time>2026-04-11T19:39:31Z</time></trkpt><trkpt lat="43.18804571262425" lon="11.653788151899809"><ele>361.0</ele><time>2026-04-11T19:39:34Z</time></trkpt><trkpt lat="43.18803216690565" lon="11.653669492049971"><ele>362.0</ele><time>2026-04-11T19:39:36Z</time></trkpt><trkpt lat="43.18802018196267" lon="11.653562355553895"><ele>363.6666666666667</ele><time>2026-04-11T19:39:39Z</time></trkpt><trkpt lat="43.18799935996698" lon="11.653433367416895"><ele>365.33333333333337</ele><time>2026-04-11T19:39:43Z</time></trkpt><trkpt lat="43.187984748554555" lon="11.653314291620775"><ele>367.0</ele><time>2026-04-11T19:39:46Z</time></trkpt><trkpt lat="43.18797453489525" lon="11.653202928530416"><ele>368.6666666666667</ele><time>2026-04-11T19:39:49Z</time></trkpt><trkpt lat="43.187976145970616" lon="11.65309247326658"><ele>370.3333333333333</ele><time>2026-04-11T19:39:53Z</time></trkpt><trkpt lat="43.187994317021975" lon="11.652979949241473"><ele>372.0</ele><time>2026-04-11T19:39:57Z</time></trkpt><trkpt lat="43.18803558116723" lon="11.652853040731912"><ele>372.5714285714286</ele><time>2026-04-11T19:40:01Z</time></trkpt><trkpt lat="43.18808002792474" lon="11.652771833642731"><ele>373.14285714285717</ele><time>2026-04-11T19:40:05Z</time></trkpt><trkpt lat="43.18811936219629" lon="11.652676090850857"><ele>373.7142857142857</ele><time>2026-04-11T19:40:08Z</time></trkpt><trkpt lat="43.18815022987529" lon="11.65258720858964"><ele>374.28571428571433</ele><time>2026-04-11T19:40:11Z</time></trkpt><trkpt lat="43.18817866350029" lon="11.652494359438077"><ele>374.85714285714283</ele><time>2026-04-11T19:40:13Z</time></trkpt><trkpt lat="43.18822541004124" lon="11.652402285133741"><ele>375.42857142857144</ele><time>2026-04-11T19:40:14Z</time></trkpt><trkpt lat="43.1882637399671" lon="11.65233084400225"><ele>376.0</ele><time>2026-04-11T19:40:15Z</time></trkpt><trkpt lat="43.18832494974311" lon="11.652283669878239"><ele>371.6</ele><time>2026-04-11T19:40:16Z</time></trkpt><trkpt lat="43.18837864725653" lon="11.652156740264326"><ele>367.20000000000005</ele><time>2026-04-11T19:40:18Z</time></trkpt><trkpt lat="43.188413877295375" lon="11.652022063519867"><ele>362.79999999999995</ele><time>2026-04-11T19:40:20Z</time></trkpt><trkpt lat="43.188414033525724" lon="11.651886333787266"><ele>358.4</ele><time>2026-04-11T19:40:22Z</time></trkpt><trkpt lat="43.18837382928741" lon="11.651764166147293"><ele>354.0</ele><time>2026-04-11T19:40:24Z</time></trkpt><trkpt lat="43.18833909557083" lon="11.65163828589598"><ele>354.0</ele><time>2026-04-11T19:40:26Z</time></trkpt><trkpt lat="43.188281428093894" lon="11.651525957821478"><ele>354.0</ele><time>2026-04-11T19:40:28Z</time></trkpt><trkpt lat="43.18822242079346" lon="11.651401471840504"><ele>354.0</ele><time>2026-04-11T19:40:30Z</time></trkpt><trkpt lat="43.18817454575012" lon="11.651280074348728"><ele>354.0</ele><time>2026-04-11T19:40:32Z</time></trkpt><trkpt lat="43.188159495261885" lon="11.6511632328092"><ele>354.0</ele><time>2026-04-11T19:40:34Z</time></trkpt><trkpt lat="43.1881672906483" lon="11.651040608442814"><ele>354.1666666666667</ele><time>2026-04-11T19:40:36Z</time></trkpt><trkpt lat="43.18821322283662" lon="11.650960512650595"><ele>354.3333333333333</ele><time>2026-04-11T19:40:38Z</time></trkpt><trkpt lat="43.188263056157346" lon="11.650891888986829"><ele>354.5</ele><time>2026-04-11T19:40:40Z</time></trkpt><trkpt lat="43.18832719575874" lon="11.65080793546629"><ele>354.66666666666663</ele><time>2026-04-11T19:40:43Z</time></trkpt><trkpt lat="43.18838488931778" lon="11.650725304581538"><ele>354.8333333333333</ele><time>2026-04-11T19:40:46Z</time></trkpt><trkpt lat="43.188444201122394" lon="11.650647767896345"><ele>355.0</ele><time>2026-04-11T19:40:49Z</time></trkpt><trkpt lat="43.18849106140711" lon="11.65056164797237"><ele>355.0</ele><time>2026-04-11T19:40:53Z</time></trkpt><trkpt lat="43.1885272478751" lon="11.650460827386134"><ele>355.0</ele><time>2026-04-11T19:40:57Z</time></trkpt><trkpt lat="43.18854162156313" lon="11.650376588357275"><ele>355.0</ele><time>2026-04-11T19:41:00Z</time></trkpt><trkpt lat="43.18855684602679" lon="11.650269603281158"><ele>355.0</ele><time>2026-04-11T19:41:04Z</time></trkpt><trkpt lat="43.188563228825224" lon="11.650154630025531"><ele>355.0</ele><time>2026-04-11T19:41:08Z</time></trkpt><trkpt lat="43.18857327215031" lon="11.650067906753701"><ele>355.0</ele><time>2026-04-11T19:41:12Z</time></trkpt><trkpt lat="43.188578416110126" lon="11.649967380196383"><ele>355.0</ele><time>2026-04-11T19:41:16Z</time></trkpt><trkpt lat="43.18857145602246" lon="11.64985236148874"><ele>356.3333333333333</ele><time>2026-04-11T19:41:20Z</time></trkpt><trkpt lat="43.18857924257491" lon="11.649750816458416"><ele>357.66666666666663</ele><time>2026-04-11T19:41:24Z</time></trkpt><trkpt lat="43.18857869306474" lon="11.649640089163439"><ele>359.0</ele><time>2026-04-11T19:41:28Z</time></trkpt><trkpt lat="43.18858873742573" lon="11.649536899812928"><ele>360.3333333333333</ele><time>2026-04-11T19:41:32Z</time></trkpt><trkpt lat="43.188586613747056" lon="11.64942775867002"><ele>361.6666666666667</ele><time>2026-04-11T19:41:36Z</time></trkpt><trkpt lat="43.18857537837799" lon="11.649316221577834"><ele>363.0</ele><time>2026-04-11T19:41:40Z</time></trkpt><trkpt lat="43.188558033161335" lon="11.64922686023399"><ele>364.0</ele><time>2026-04-11T19:41:43Z</time></trkpt><trkpt lat="43.188542451712394" lon="11.649138741620849"><ele>365.0</ele><time>2026-04-11T19:41:46Z</time></trkpt><trkpt lat="43.18852705791842" lon="11.649028395967825"><ele>366.0</ele><time>2026-04-11T19:41:50Z</time></trkpt><trkpt lat="43.18851487103743" lon="11.648917519283893"><ele>367.0</ele><time>2026-04-11T19:41:54Z</time></trkpt><trkpt lat="43.18851408459031" lon="11.648803347197225"><ele>368.0</ele><time>2026-04-11T19:41:58Z</time></trkpt><trkpt lat="43.18851213940661" lon="11.648694461864014"><ele>369.0</ele><time>2026-04-11T19:42:02Z</time></trkpt><trkpt lat="43.18851075389758" lon="11.64859934298141"><ele>369.5</ele><time>2026-04-11T19:42:04Z</time></trkpt><trkpt lat="43.18850042598518" lon="11.648513043868869"><ele>370.0</ele><time>2026-04-11T19:42:06Z</time></trkpt><trkpt lat="43.1884983041907" lon="11.648414724977188"><ele>370.5</ele><time>2026-04-11T19:42:08Z</time></trkpt><trkpt lat="43.188475895317566" lon="11.648298285584703"><ele>371.0</ele><time>2026-04-11T19:42:11Z</time></trkpt><trkpt lat="43.18843552078589" lon="11.648204833187007"><ele>371.5</ele><time>2026-04-11T19:42:14Z</time></trkpt><trkpt lat="43.18838908165187" lon="11.64810399601456"><ele>372.0</ele><time>2026-04-11T19:42:17Z</time></trkpt><trkpt lat="43.188349156453455" lon="11.648020386013627"><ele>372.00000000000006</ele><time>2026-04-11T19:42:19Z</time></trkpt><trkpt lat="43.18830448791462" lon="11.647946340287353"><ele>372.0</ele><time>2026-04-11T19:42:21Z</time></trkpt><trkpt lat="43.188259844888265" lon="11.647873031900582"><ele>372.0</ele><time>2026-04-11T19:42:23Z</time></trkpt><trkpt lat="43.188206902536294" lon="11.647819324093318"><ele>372.0</ele><time>2026-04-11T19:42:25Z</time></trkpt><trkpt lat="43.18815242295795" lon="11.647735425751867"><ele>372.0</ele><time>2026-04-11T19:42:28Z</time></trkpt><trkpt lat="43.18809959221318" lon="11.64768111257652"><ele>372.00000000000006</ele><time>2026-04-11T19:42:31Z</time></trkpt><trkpt lat="43.188048950515764" lon="11.647611042664446"><ele>372.0</ele><time>2026-04-11T19:42:34Z</time></trkpt><trkpt lat="43.18799170182229" lon="11.647551295925293"><ele>373.5714285714286</ele><time>2026-04-11T19:42:37Z</time></trkpt><trkpt lat="43.18793739474178" lon="11.647487096401393"><ele>375.14285714285717</ele><time>2026-04-11T19:42:40Z</time></trkpt><trkpt lat="43.18788480716659" lon="11.647433620070005"><ele>376.7142857142857</ele><time>2026-04-11T19:42:43Z</time></trkpt><trkpt lat="43.187816098648206" lon="11.647370065620848"><ele>378.28571428571433</ele><time>2026-04-11T19:42:47Z</time></trkpt><trkpt lat="43.18775985721751" lon="11.647325662888315"><ele>379.85714285714283</ele><time>2026-04-11T19:42:51Z</time></trkpt><trkpt lat="43.187694672073945" lon="11.647267098487308"><ele>381.42857142857144</ele><time>2026-04-11T19:42:55Z</time></trkpt><trkpt lat="43.18763026263609" lon="11.647201540374933"><ele>383.0</ele><time>2026-04-11T19:42:59Z</time></trkpt><trkpt lat="43.187568190779906" lon="11.64715090540519"><ele>383.0</ele><time>2026-04-11T19:43:02Z</time></trkpt><trkpt lat="43.18751055959745" lon="11.647111111730183"><ele>383.0</ele><time>2026-04-11T19:43:05Z</time></trkpt><trkpt lat="43.18745783996948" lon="11.647038192852424"><ele>383.0</ele><time>2026-04-11T19:43:08Z</time></trkpt><trkpt lat="43.187404293999435" lon="11.646961285928592"><ele>383.0</ele><time>2026-04-11T19:43:11Z</time></trkpt><trkpt lat="43.18736849154093" lon="11.646870990929312"><ele>383.0</ele><time>2026-04-11T19:43:14Z</time></trkpt><trkpt lat="43.187350025959894" lon="11.646782408266308"><ele>383.0</ele><time>2026-04-11T19:43:17Z</time></trkpt><trkpt lat="43.18734736292879" lon="11.646683307839682"><ele>383.0</ele><time>2026-04-11T19:43:19Z</time></trkpt><trkpt lat="43.18735489664084" lon="11.64658325594876"><ele>382.4</ele><time>2026-04-11T19:43:20Z</time></trkpt><trkpt lat="43.18737613519066" lon="11.646478116539617"><ele>381.79999999999995</ele><time>2026-04-11T19:43:21Z</time></trkpt><trkpt lat="43.18739737642663" lon="11.64639632256846"><ele>381.2</ele><time>2026-04-11T19:43:22Z</time></trkpt><trkpt lat="43.187459519367266" lon="11.646263354556343"><ele>380.6</ele><time>2026-04-11T19:43:24Z</time></trkpt><trkpt lat="43.187540828908865" lon="11.646149523948168"><ele>380.0</ele><time>2026-04-11T19:43:26Z</time></trkpt><trkpt lat="43.187631126564696" lon="11.646052633115444"><ele>380.0</ele><time>2026-04-11T19:43:28Z</time></trkpt><trkpt lat="43.18768638679105" lon="11.645998486198888"><ele>380.0</ele><time>2026-04-11T19:43:29Z</time></trkpt><trkpt lat="43.1877750679186" lon="11.64589581162559"><ele>380.0</ele><time>2026-04-11T19:43:31Z</time></trkpt><trkpt lat="43.18784248435401" lon="11.64578699759867"><ele>380.0</ele><time>2026-04-11T19:43:33Z</time></trkpt><trkpt lat="43.18789238544716" lon="11.645698201246157"><ele>380.0</ele><time>2026-04-11T19:43:35Z</time></trkpt><trkpt lat="43.18791116207296" lon="11.645614082310164"><ele>380.0</ele><time>2026-04-11T19:43:37Z</time></trkpt><trkpt lat="43.18792453593462" lon="11.645490742223235"><ele>380.0</ele><time>2026-04-11T19:43:40Z</time></trkpt><trkpt lat="43.18792432310017" lon="11.64536282743393"><ele>380.0</ele><time>2026-04-11T19:43:43Z</time></trkpt><trkpt lat="43.18791621072035" lon="11.645237321489478"><ele>380.0</ele><time>2026-04-11T19:43:46Z</time></trkpt><trkpt lat="43.187913593063065" lon="11.645113452319828"><ele>380.0</ele><time>2026-04-11T19:43:49Z</time></trkpt><trkpt lat="43.18786996112789" lon="11.645007562378048"><ele>380.0</ele><time>2026-04-11T19:43:52Z</time></trkpt><trkpt lat="43.1878452977666" lon="11.644915305522797"><ele>380.0</ele><time>2026-04-11T19:43:56Z</time></trkpt><trkpt lat="43.18782550294757" lon="11.644809307087515"><ele>380.1666666666667</ele><time>2026-04-11T19:43:59Z</time></trkpt><trkpt lat="43.18780924683008" lon="11.644708106449878"><ele>380.33333333333337</ele><time>2026-04-11T19:44:02Z</time></trkpt><trkpt lat="43.18778442836587" lon="11.644618118049815"><ele>380.5</ele><time>2026-04-11T19:44:05Z</time></trkpt><trkpt lat="43.18778153002537" lon="11.644518810080474"><ele>380.6666666666667</ele><time>2026-04-11T19:44:08Z</time></trkpt><trkpt lat="43.18776528157331" lon="11.644409971014554"><ele>380.8333333333333</ele><time>2026-04-11T19:44:10Z</time></trkpt><trkpt lat="43.18775346779582" lon="11.644302019327162"><ele>381.0</ele><time>2026-04-11T19:44:13Z</time></trkpt><trkpt lat="43.1877405776703" lon="11.644206272692838"><ele>381.0</ele><time>2026-04-11T19:44:16Z</time></trkpt><trkpt lat="43.1877204740661" lon="11.644115323041385"><ele>381.0</ele><time>2026-04-11T19:44:19Z</time></trkpt><trkpt lat="43.187701737850155" lon="11.64401587604687"><ele>381.0</ele><time>2026-04-11T19:44:22Z</time></trkpt><trkpt lat="43.187677568527185" lon="11.643922987932362"><ele>381.0</ele><time>2026-04-11T19:44:25Z</time></trkpt><trkpt lat="43.187658601794446" lon="11.643831884976404"><ele>381.0</ele><time>2026-04-11T19:44:29Z</time></trkpt><trkpt lat="43.18764512597117" lon="11.643740172463252"><ele>381.0</ele><time>2026-04-11T19:44:32Z</time></trkpt><trkpt lat="43.18764596999823" lon="11.643638670353061"><ele>381.0</ele><time>2026-04-11T19:44:36Z</time></trkpt><trkpt lat="43.1876658919162" lon="11.643531472541168"><ele>380.1666666666667</ele><time>2026-04-11T19:44:39Z</time></trkpt><trkpt lat="43.18769316625479" lon="11.643440187081701"><ele>379.3333333333333</ele><time>2026-04-11T19:44:42Z</time></trkpt><trkpt lat="43.18771648703213" lon="11.64334485212527"><ele>378.5</ele><time>2026-04-11T19:44:46Z</time></trkpt><trkpt lat="43.18776223381251" lon="11.643242242435527"><ele>377.66666666666663</ele><time>2026-04-11T19:44:50Z</time></trkpt><trkpt lat="43.18780033479243" lon="11.643138741621915"><ele>376.8333333333333</ele><time>2026-04-11T19:44:53Z</time></trkpt><trkpt lat="43.187839544915185" lon="11.643037167028167"><ele>376.0</ele><time>2026-04-11T19:44:56Z</time></trkpt><trkpt lat="43.18787209779773" lon="11.642938131030702"><ele>376.0</ele><time>2026-04-11T19:44:59Z</time></trkpt><trkpt lat="43.187917326790064" lon="11.642823707385045"><ele>376.0</ele><time>2026-04-11T19:45:02Z</time></trkpt><trkpt lat="43.18797089019347" lon="11.64272671801344"><ele>376.0</ele><time>2026-04-11T19:45:05Z</time></trkpt><trkpt lat="43.188006853855406" lon="11.642650786110174"><ele>376.0</ele><time>2026-04-11T19:45:08Z</time></trkpt><trkpt lat="43.18807624218251" lon="11.642635977094534"><ele>376.0</ele><time>2026-04-11T19:45:11Z</time></trkpt><trkpt lat="43.18814987557291" lon="11.642590021942356"><ele>376.0</ele><time>2026-04-11T19:45:15Z</time></trkpt><trkpt lat="43.18823164440104" lon="11.642584163457693"><ele>375.66666666666663</ele><time>2026-04-11T19:45:19Z</time></trkpt><trkpt lat="43.18830972840622" lon="11.642621687002553"><ele>375.3333333333333</ele><time>2026-04-11T19:45:22Z</time></trkpt><trkpt lat="43.18837783022765" lon="11.64266522771126"><ele>375.0</ele><time>2026-04-11T19:45:26Z</time></trkpt><trkpt lat="43.18843991232948" lon="11.642719205187085"><ele>374.6666666666667</ele><time>2026-04-11T19:45:29Z</time></trkpt><trkpt lat="43.18850309885492" lon="11.642782288900056"><ele>374.33333333333337</ele><time>2026-04-11T19:45:32Z</time></trkpt><trkpt lat="43.188566716603134" lon="11.64281404195196"><ele>374.0</ele><time>2026-04-11T19:45:35Z</time></trkpt><trkpt lat="43.18864216446609" lon="11.642832633083168"><ele>374.0</ele><time>2026-04-11T19:45:38Z</time></trkpt><trkpt lat="43.18870679104183" lon="11.642844599516065"><ele>374.0</ele><time>2026-04-11T19:45:41Z</time></trkpt><trkpt lat="43.18877088302368" lon="11.642830848889508"><ele>374.0</ele><time>2026-04-11T19:45:44Z</time></trkpt><trkpt lat="43.18883970297348" lon="11.642808239863847"><ele>374.0</ele><time>2026-04-11T19:45:47Z</time></trkpt><trkpt lat="43.1889052186346" lon="11.642785997635235"><ele>374.0</ele><time>2026-04-11T19:45:50Z</time></trkpt><trkpt lat="43.188976812028436" lon="11.642756436450158"><ele>374.0</ele><time>2026-04-11T19:45:53Z</time></trkpt><trkpt lat="43.18905132251042" lon="11.642724811708117"><ele>374.0</ele><time>2026-04-11T19:45:56Z</time></trkpt><trkpt lat="43.189108191595466" lon="11.64266044180151"><ele>376.6666666666667</ele><time>2026-04-11T19:45:59Z</time></trkpt><trkpt lat="43.18916658248968" lon="11.642609623945692"><ele>379.33333333333337</ele><time>2026-04-11T19:46:02Z</time></trkpt><trkpt lat="43.18926154630361" lon="11.642557160706994"><ele>382.0</ele><time>2026-04-11T19:46:05Z</time></trkpt><trkpt lat="43.18932734011879" lon="11.642527656445587"><ele>384.6666666666667</ele><time>2026-04-11T19:46:07Z</time></trkpt><trkpt lat="43.189405906974464" lon="11.642477341840248"><ele>387.3333333333333</ele><time>2026-04-11T19:46:10Z</time></trkpt><trkpt lat="43.18949823034654" lon="11.642464356441424"><ele>390.0</ele><time>2026-04-11T19:46:13Z</time></trkpt><trkpt lat="43.18959383538342" lon="11.642449429350195"><ele>390.0</ele><time>2026-04-11T19:46:16Z</time></trkpt><trkpt lat="43.18966974830897" lon="11.642468246716858"><ele>390.0</ele><time>2026-04-11T19:46:18Z</time></trkpt><trkpt lat="43.189738043017755" lon="11.642486568722108"><ele>390.0</ele><time>2026-04-11T19:46:20Z</time></trkpt><trkpt lat="43.189824034439674" lon="11.64247649186574"><ele>390.0</ele><time>2026-04-11T19:46:23Z</time></trkpt><trkpt lat="43.1899162570558" lon="11.642470545046354"><ele>390.0</ele><time>2026-04-11T19:46:26Z</time></trkpt><trkpt lat="43.19000489405197" lon="11.642444794327876"><ele>390.0</ele><time>2026-04-11T19:46:29Z</time></trkpt><trkpt lat="43.19008096460121" lon="11.642443938244993"><ele>389.6666666666667</ele><time>2026-04-11T19:46:32Z</time></trkpt><trkpt lat="43.19014320139605" lon="11.642383467205454"><ele>389.33333333333337</ele><time>2026-04-11T19:46:35Z</time></trkpt><trkpt lat="43.19019950062456" lon="11.642289813502149"><ele>389.0</ele><time>2026-04-11T19:46:38Z</time></trkpt><trkpt lat="43.19024409277064" lon="11.642224334341591"><ele>388.6666666666667</ele><time>2026-04-11T19:46:40Z</time></trkpt><trkpt lat="43.1903027677983" lon="11.642136693959245"><ele>388.33333333333337</ele><time>2026-04-11T19:46:43Z</time></trkpt><trkpt lat="43.190371105219135" lon="11.642061041207688"><ele>388.0</ele><time>2026-04-11T19:46:46Z</time></trkpt><trkpt lat="43.19043227581443" lon="11.641973437902687"><ele>387.6666666666667</ele><time>2026-04-11T19:46:49Z</time></trkpt><trkpt lat="43.19047748698659" lon="11.641871870653025"><ele>387.33333333333337</ele><time>2026-04-11T19:46:52Z</time></trkpt><trkpt lat="43.190538502723456" lon="11.641778489844052"><ele>387.0</ele><time>2026-04-11T19:46:55Z</time></trkpt><trkpt lat="43.19059720500294" lon="11.641684616129476"><ele>386.66666666666663</ele><time>2026-04-11T19:46:58Z</time></trkpt><trkpt lat="43.19064247431036" lon="11.641624545686579"><ele>386.3333333333333</ele><time>2026-04-11T19:47:00Z</time></trkpt><trkpt lat="43.19070291816878" lon="11.641521600949815"><ele>386.0</ele><time>2026-04-11T19:47:03Z</time></trkpt><trkpt lat="43.190740213340696" lon="11.641450324771618"><ele>385.99999999999994</ele><time>2026-04-11T19:47:05Z</time></trkpt><trkpt lat="43.190790988920924" lon="11.641358918540679"><ele>386.0</ele><time>2026-04-11T19:47:08Z</time></trkpt><trkpt lat="43.190820163938994" lon="11.641271901560428"><ele>386.0</ele><time>2026-04-11T19:47:11Z</time></trkpt><trkpt lat="43.190841145864354" lon="11.641172416294456"><ele>386.0</ele><time>2026-04-11T19:47:14Z</time></trkpt><trkpt lat="43.19084353381585" lon="11.64104693865389"><ele>385.99999999999994</ele><time>2026-04-11T19:47:17Z</time></trkpt><trkpt lat="43.190839980673516" lon="11.640933488166702"><ele>386.0</ele><time>2026-04-11T19:47:19Z</time></trkpt><trkpt lat="43.19083134332536" lon="11.640815873705323"><ele>385.99999999999994</ele><time>2026-04-11T19:47:21Z</time></trkpt><trkpt lat="43.190831317791584" lon="11.640698659492672"><ele>386.0</ele><time>2026-04-11T19:47:23Z</time></trkpt><trkpt lat="43.190830650679395" lon="11.640580988066551"><ele>386.0</ele><time>2026-04-11T19:47:25Z</time></trkpt><trkpt lat="43.19081496875706" lon="11.640466287552487"><ele>386.0</ele><time>2026-04-11T19:47:27Z</time></trkpt><trkpt lat="43.19081007187577" lon="11.640350222473787"><ele>385.99999999999994</ele><time>2026-04-11T19:47:29Z</time></trkpt><trkpt lat="43.19080556093283" lon="11.640247632743497"><ele>386.0</ele><time>2026-04-11T19:47:31Z</time></trkpt><trkpt lat="43.1908088731142" lon="11.640141281518796"><ele>385.99999999999994</ele><time>2026-04-11T19:47:33Z</time></trkpt><trkpt lat="43.19081148900324" lon="11.640027755366427"><ele>386.0</ele><time>2026-04-11T19:47:35Z</time></trkpt><trkpt lat="43.19082272277422" lon="11.639909150087488"><ele>386.0</ele><time>2026-04-11T19:47:37Z</time></trkpt><trkpt lat="43.19083591730634" lon="11.639790359010593"><ele>386.0</ele><time>2026-04-11T19:47:39Z</time></trkpt><trkpt lat="43.19086101357043" lon="11.63966690533358"><ele>385.99999999999994</ele><time>2026-04-11T19:47:41Z</time></trkpt><trkpt lat="43.19089053647557" lon="11.639540041606509"><ele>386.0</ele><time>2026-04-11T19:47:43Z</time></trkpt><trkpt lat="43.19092633619716" lon="11.63941250896361"><ele>386.20000000000005</ele><time>2026-04-11T19:47:45Z</time></trkpt><trkpt lat="43.190974844490036" lon="11.639284913349513"><ele>386.40000000000003</ele><time>2026-04-11T19:47:47Z</time></trkpt><trkpt lat="43.19103238932624" lon="11.639168870973881"><ele>386.6</ele><time>2026-04-11T19:47:49Z</time></trkpt><trkpt lat="43.19108046684026" lon="11.63904798884902"><ele>386.8</ele><time>2026-04-11T19:47:51Z</time></trkpt><trkpt lat="43.191134871184836" lon="11.638957215618056"><ele>387.0</ele><time>2026-04-11T19:47:54Z</time></trkpt><trkpt lat="43.19117478870156" lon="11.638855266676613"><ele>387.0</ele><time>2026-04-11T19:47:57Z</time></trkpt><trkpt lat="43.191204791648694" lon="11.638778639200831"><ele>387.0</ele><time>2026-04-11T19:47:58Z</time></trkpt><trkpt lat="43.19123508390313" lon="11.638685371209846"><ele>387.0</ele><time>2026-04-11T19:48:00Z</time></trkpt><trkpt lat="43.19126583834839" lon="11.638597743703825"><ele>387.0</ele><time>2026-04-11T19:48:02Z</time></trkpt><trkpt lat="43.19129928413367" lon="11.638501139128703"><ele>387.0</ele><time>2026-04-11T19:48:04Z</time></trkpt><trkpt lat="43.19132988182757" lon="11.638380495861483"><ele>387.0</ele><time>2026-04-11T19:48:08Z</time></trkpt><trkpt lat="43.19138661563003" lon="11.638246236799082"><ele>387.3333333333333</ele><time>2026-04-11T19:48:11Z</time></trkpt><trkpt lat="43.19142485141628" lon="11.638148311950447"><ele>387.66666666666663</ele><time>2026-04-11T19:48:14Z</time></trkpt><trkpt lat="43.19144374886735" lon="11.638037866302852"><ele>388.0</ele><time>2026-04-11T19:48:17Z</time></trkpt><trkpt lat="43.19145581771579" lon="11.637949731950915"><ele>388.3333333333333</ele><time>2026-04-11T19:48:19Z</time></trkpt><trkpt lat="43.19144676320647" lon="11.637817062167299"><ele>388.66666666666663</ele><time>2026-04-11T19:48:22Z</time></trkpt><trkpt lat="43.19142568962929" lon="11.637703552800891"><ele>389.0</ele><time>2026-04-11T19:48:25Z</time></trkpt><trkpt lat="43.19139847151111" lon="11.637622814720608"><ele>389.0</ele><time>2026-04-11T19:48:27Z</time></trkpt><trkpt lat="43.19135478591353" lon="11.637478370347763"><ele>389.0</ele><time>2026-04-11T19:48:30Z</time></trkpt><trkpt lat="43.191308615347864" lon="11.637347897920332"><ele>389.0</ele><time>2026-04-11T19:48:33Z</time></trkpt><trkpt lat="43.19126266557168" lon="11.637218785496803"><ele>389.0</ele><time>2026-04-11T19:48:35Z</time></trkpt><trkpt lat="43.191234020590585" lon="11.637104495758194"><ele>389.0</ele><time>2026-04-11T19:48:36Z</time></trkpt><trkpt lat="43.19119116810248" lon="11.637000873893678"><ele>388.79999999999995</ele><time>2026-04-11T19:48:38Z</time></trkpt><trkpt lat="43.191149499511496" lon="11.636892919728746"><ele>388.59999999999997</ele><time>2026-04-11T19:48:40Z</time></trkpt><trkpt lat="43.19110446285362" lon="11.636796353135678"><ele>388.4</ele><time>2026-04-11T19:48:42Z</time></trkpt><trkpt lat="43.19107045465171" lon="11.636668196729268"><ele>388.2</ele><time>2026-04-11T19:48:44Z</time></trkpt><trkpt lat="43.19102754444632" lon="11.636556109214077"><ele>388.0</ele><time>2026-04-11T19:48:46Z</time></trkpt><trkpt lat="43.19098742636695" lon="11.636442983705178"><ele>388.0</ele><time>2026-04-11T19:48:48Z</time></trkpt><trkpt lat="43.19093802603849" lon="11.636329442727561"><ele>388.0</ele><time>2026-04-11T19:48:50Z</time></trkpt><trkpt lat="43.19089303346623" lon="11.636200461750821"><ele>388.0</ele><time>2026-04-11T19:48:52Z</time></trkpt><trkpt lat="43.19086029136504" lon="11.636055578506358"><ele>388.0</ele><time>2026-04-11T19:48:54Z</time></trkpt><trkpt lat="43.19082237018373" lon="11.635983356639446"><ele>388.0</ele><time>2026-04-11T19:48:55Z</time></trkpt><trkpt lat="43.1907744308568" lon="11.635853508526669"><ele>387.79999999999995</ele><time>2026-04-11T19:48:57Z</time></trkpt><trkpt lat="43.19074713484622" lon="11.635774157871491"><ele>387.6</ele><time>2026-04-11T19:48:58Z</time></trkpt><trkpt lat="43.1906973063685" lon="11.635629246605202"><ele>387.4</ele><time>2026-04-11T19:49:00Z</time></trkpt><trkpt lat="43.190639898048374" lon="11.63547995289799"><ele>387.20000000000005</ele><time>2026-04-11T19:49:02Z</time></trkpt><trkpt lat="43.19058402961524" lon="11.635336230305773"><ele>387.0</ele><time>2026-04-11T19:49:04Z</time></trkpt><trkpt lat="43.190529262136174" lon="11.635187415161637"><ele>386.40000000000003</ele><time>2026-04-11T19:49:06Z</time></trkpt><trkpt lat="43.190469492744896" lon="11.635041178570367"><ele>385.8</ele><time>2026-04-11T19:49:08Z</time></trkpt><trkpt lat="43.190406636369495" lon="11.63489270158488"><ele>385.2</ele><time>2026-04-11T19:49:10Z</time></trkpt><trkpt lat="43.19037935434472" lon="11.634813785715998"><ele>384.6</ele><time>2026-04-11T19:49:11Z</time></trkpt><trkpt lat="43.19032400626275" lon="11.634669199019259"><ele>384.0</ele><time>2026-04-11T19:49:13Z</time></trkpt><trkpt lat="43.190271589445636" lon="11.634524220107954"><ele>383.5</ele><time>2026-04-11T19:49:15Z</time></trkpt><trkpt lat="43.19022162612885" lon="11.634400427899841"><ele>383.0</ele><time>2026-04-11T19:49:17Z</time></trkpt><trkpt lat="43.190175247670346" lon="11.63426353616666"><ele>382.5</ele><time>2026-04-11T19:49:19Z</time></trkpt><trkpt lat="43.19011852826014" lon="11.634116560776516"><ele>382.0</ele><time>2026-04-11T19:49:21Z</time></trkpt><trkpt lat="43.19005483911602" lon="11.633976432942639"><ele>382.0</ele><time>2026-04-11T19:49:23Z</time></trkpt><trkpt lat="43.18999485745795" lon="11.633822922609937"><ele>382.0</ele><time>2026-04-11T19:49:25Z</time></trkpt><trkpt lat="43.189946940426495" lon="11.633690033465317"><ele>382.0</ele><time>2026-04-11T19:49:27Z</time></trkpt><trkpt lat="43.18988921431866" lon="11.633540754986278"><ele>382.0</ele><time>2026-04-11T19:49:29Z</time></trkpt><trkpt lat="43.18985179302786" lon="11.63346393331877"><ele>382.0</ele><time>2026-04-11T19:49:30Z</time></trkpt><trkpt lat="43.18980513867719" lon="11.633403357084058"><ele>381.0</ele><time>2026-04-11T19:49:31Z</time></trkpt><trkpt lat="43.18976264446733" lon="11.633336199197847"><ele>380.0</ele><time>2026-04-11T19:49:32Z</time></trkpt><trkpt lat="43.189681367459364" lon="11.633228301234427"><ele>379.0</ele><time>2026-04-11T19:49:34Z</time></trkpt><trkpt lat="43.18960333611129" lon="11.633137919787849"><ele>378.0</ele><time>2026-04-11T19:49:36Z</time></trkpt><trkpt lat="43.18952336959662" lon="11.633035305336984"><ele>377.0</ele><time>2026-04-11T19:49:38Z</time></trkpt><trkpt lat="43.18944986174906" lon="11.63290678957637"><ele>375.75</ele><time>2026-04-11T19:49:40Z</time></trkpt><trkpt lat="43.1893914385115" lon="11.632763723619616"><ele>374.5</ele><time>2026-04-11T19:49:42Z</time></trkpt><trkpt lat="43.18934146854876" lon="11.632614108280379"><ele>373.25</ele><time>2026-04-11T19:49:44Z</time></trkpt><trkpt lat="43.18929843640807" lon="11.632476897145306"><ele>372.0</ele><time>2026-04-11T19:49:46Z</time></trkpt><trkpt lat="43.18925202990383" lon="11.632350889319017"><ele>372.0</ele><time>2026-04-11T19:49:48Z</time></trkpt><trkpt lat="43.18919738746303" lon="11.632197076739834"><ele>372.0</ele><time>2026-04-11T19:49:50Z</time></trkpt><trkpt lat="43.189120552366546" lon="11.632055863947803"><ele>372.0</ele><time>2026-04-11T19:49:52Z</time></trkpt><trkpt lat="43.18907815592575" lon="11.631985546272391"><ele>372.0</ele><time>2026-04-11T19:49:53Z</time></trkpt><trkpt lat="43.18903761529236" lon="11.631914188729239"><ele>372.0</ele><time>2026-04-11T19:49:54Z</time></trkpt><trkpt lat="43.18898933198574" lon="11.631849426838128"><ele>370.7142857142857</ele><time>2026-04-11T19:49:55Z</time></trkpt><trkpt lat="43.18895555221981" lon="11.631767853991128"><ele>369.42857142857144</ele><time>2026-04-11T19:49:56Z</time></trkpt><trkpt lat="43.188911307782014" lon="11.631692232963754"><ele>368.1428571428571</ele><time>2026-04-11T19:49:57Z</time></trkpt><trkpt lat="43.18887264154347" lon="11.631612729619965"><ele>366.8571428571429</ele><time>2026-04-11T19:49:58Z</time></trkpt><trkpt lat="43.18883649656953" lon="11.631530479971817"><ele>365.57142857142856</ele><time>2026-04-11T19:49:59Z</time></trkpt><trkpt lat="43.18880397886793" lon="11.631450281997138"><ele>364.2857142857143</ele><time>2026-04-11T19:50:00Z</time></trkpt><trkpt lat="43.188759283311434" lon="11.631379425140148"><ele>363.0</ele><time>2026-04-11T19:50:01Z</time></trkpt><trkpt lat="43.18873562873299" lon="11.63129774183996"><ele>363.0</ele><time>2026-04-11T19:50:02Z</time></trkpt><trkpt lat="43.18869279437305" lon="11.631145189786162"><ele>363.0</ele><time>2026-04-11T19:50:04Z</time></trkpt><trkpt lat="43.18865098189384" lon="11.631022694354334"><ele>363.0</ele><time>2026-04-11T19:50:06Z</time></trkpt><trkpt lat="43.18861675718851" lon="11.630897289550234"><ele>363.0</ele><time>2026-04-11T19:50:08Z</time></trkpt><trkpt lat="43.18857500166854" lon="11.630788580500226"><ele>363.0</ele><time>2026-04-11T19:50:10Z</time></trkpt><trkpt lat="43.18853287816872" lon="11.630685945717412"><ele>363.0</ele><time>2026-04-11T19:50:12Z</time></trkpt><trkpt lat="43.18849081977361" lon="11.630584517589257"><ele>363.0</ele><time>2026-04-11T19:50:14Z</time></trkpt><trkpt lat="43.188452271221095" lon="11.630483145533892"><ele>363.0</ele><time>2026-04-11T19:50:16Z</time></trkpt><trkpt lat="43.1884023241824" lon="11.630393823973991"><ele>363.0</ele><time>2026-04-11T19:50:18Z</time></trkpt><trkpt lat="43.18835745439286" lon="11.630304166220816"><ele>363.0</ele><time>2026-04-11T19:50:20Z</time></trkpt><trkpt lat="43.18831380804828" lon="11.630214327273599"><ele>363.0</ele><time>2026-04-11T19:50:22Z</time></trkpt><trkpt lat="43.1882721118618" lon="11.630125599708533"><ele>362.8333333333333</ele><time>2026-04-11T19:50:24Z</time></trkpt><trkpt lat="43.18822480538218" lon="11.630045224461046"><ele>362.6666666666667</ele><time>2026-04-11T19:50:26Z</time></trkpt><trkpt lat="43.18817230530272" lon="11.629961020849283"><ele>362.5</ele><time>2026-04-11T19:50:28Z</time></trkpt><trkpt lat="43.188116338209866" lon="11.62989953117321"><ele>362.33333333333337</ele><time>2026-04-11T19:50:31Z</time></trkpt><trkpt lat="43.18805926328937" lon="11.629825498670497"><ele>362.1666666666667</ele><time>2026-04-11T19:50:33Z</time></trkpt><trkpt lat="43.1879970938607" lon="11.629744574773607"><ele>362.0</ele><time>2026-04-11T19:50:35Z</time></trkpt><trkpt lat="43.18795056591681" lon="11.629681214623668"><ele>362.0</ele><time>2026-04-11T19:50:37Z</time></trkpt><trkpt lat="43.18788460338511" lon="11.629617183435537"><ele>362.0</ele><time>2026-04-11T19:50:39Z</time></trkpt><trkpt lat="43.18783465907138" lon="11.629545036109391"><ele>362.0</ele><time>2026-04-11T19:50:41Z</time></trkpt><trkpt lat="43.187782473705234" lon="11.629461272014556"><ele>362.0</ele><time>2026-04-11T19:50:43Z</time></trkpt><trkpt lat="43.187707543314296" lon="11.629381853468384"><ele>362.0</ele><time>2026-04-11T19:50:46Z</time></trkpt><trkpt lat="43.18763839544954" lon="11.62928884559038"><ele>362.0</ele><time>2026-04-11T19:50:49Z</time></trkpt><trkpt lat="43.18758263944283" lon="11.629190928646324"><ele>362.20000000000005</ele><time>2026-04-11T19:50:51Z</time></trkpt><trkpt lat="43.18750520099595" lon="11.629084310813903"><ele>362.4</ele><time>2026-04-11T19:50:53Z</time></trkpt><trkpt lat="43.18743749451348" lon="11.628981763780294"><ele>362.6</ele><time>2026-04-11T19:50:55Z</time></trkpt><trkpt lat="43.18736663662028" lon="11.628887686977347"><ele>362.79999999999995</ele><time>2026-04-11T19:50:57Z</time></trkpt><trkpt lat="43.1873076074832" lon="11.628784871022633"><ele>363.0</ele><time>2026-04-11T19:50:59Z</time></trkpt><trkpt lat="43.187253746377955" lon="11.628675242067473"><ele>363.2</ele><time>2026-04-11T19:51:01Z</time></trkpt><trkpt lat="43.18720631574347" lon="11.628566731219715"><ele>363.4</ele><time>2026-04-11T19:51:03Z</time></trkpt><trkpt lat="43.187155176326605" lon="11.628443253089372"><ele>363.59999999999997</ele><time>2026-04-11T19:51:05Z</time></trkpt><trkpt lat="43.187108574348855" lon="11.62830986189195"><ele>363.79999999999995</ele><time>2026-04-11T19:51:07Z</time></trkpt><trkpt lat="43.187073421119564" lon="11.628172092254715"><ele>364.0</ele><time>2026-04-11T19:51:09Z</time></trkpt><trkpt lat="43.18702845069339" lon="11.628040702956783"><ele>364.0</ele><time>2026-04-11T19:51:11Z</time></trkpt><trkpt lat="43.186986385334606" lon="11.6278878480704"><ele>364.0</ele><time>2026-04-11T19:51:13Z</time></trkpt><trkpt lat="43.186930858170044" lon="11.62773671546305"><ele>364.0</ele><time>2026-04-11T19:51:15Z</time></trkpt><trkpt lat="43.18686143341491" lon="11.62761081497457"><ele>364.0</ele><time>2026-04-11T19:51:17Z</time></trkpt><trkpt lat="43.18678174310199" lon="11.62750193102075"><ele>363.79999999999995</ele><time>2026-04-11T19:51:19Z</time></trkpt><trkpt lat="43.18671963322316" lon="11.62741774306359"><ele>363.59999999999997</ele><time>2026-04-11T19:51:21Z</time></trkpt><trkpt lat="43.18665056267476" lon="11.627320562529727"><ele>363.4</ele><time>2026-04-11T19:51:23Z</time></trkpt><trkpt lat="43.186595773566225" lon="11.627193896422304"><ele>363.2</ele><time>2026-04-11T19:51:25Z</time></trkpt><trkpt lat="43.186555303771115" lon="11.627038423578536"><ele>363.0</ele><time>2026-04-11T19:51:27Z</time></trkpt><trkpt lat="43.1865357164386" lon="11.626952343514501"><ele>362.5</ele><time>2026-04-11T19:51:28Z</time></trkpt><trkpt lat="43.18651513078417" lon="11.62686215091349"><ele>362.0</ele><time>2026-04-11T19:51:29Z</time></trkpt><trkpt lat="43.186494583661755" lon="11.626769275400095"><ele>361.5</ele><time>2026-04-11T19:51:30Z</time></trkpt><trkpt lat="43.18647062924042" lon="11.626677378106336"><ele>361.0</ele><time>2026-04-11T19:51:31Z</time></trkpt><trkpt lat="43.18645124674766" lon="11.626586016309348"><ele>360.5</ele><time>2026-04-11T19:51:32Z</time></trkpt><trkpt lat="43.18643260515197" lon="11.626503415326223"><ele>360.0</ele><time>2026-04-11T19:51:33Z</time></trkpt><trkpt lat="43.18639274162045" lon="11.626339335082188"><ele>359.85714285714283</ele><time>2026-04-11T19:51:35Z</time></trkpt><trkpt lat="43.18637441043152" lon="11.626251556673651"><ele>359.7142857142857</ele><time>2026-04-11T19:51:36Z</time></trkpt><trkpt lat="43.18635750777782" lon="11.626157867175062"><ele>359.57142857142856</ele><time>2026-04-11T19:51:37Z</time></trkpt><trkpt lat="43.1863454027919" lon="11.626058753183274"><ele>359.42857142857144</ele><time>2026-04-11T19:51:38Z</time></trkpt><trkpt lat="43.186340941242065" lon="11.625957662915015"><ele>359.28571428571433</ele><time>2026-04-11T19:51:39Z</time></trkpt><trkpt lat="43.18634203049351" lon="11.62585424130297"><ele>359.14285714285717</ele><time>2026-04-11T19:51:40Z</time></trkpt><trkpt lat="43.186356787311134" lon="11.62575032971203"><ele>359.0</ele><time>2026-04-11T19:51:41Z</time></trkpt><trkpt lat="43.186381609188594" lon="11.625646304557463"><ele>359.0</ele><time>2026-04-11T19:51:42Z</time></trkpt><trkpt lat="43.186401319502245" lon="11.625553156607957"><ele>359.0</ele><time>2026-04-11T19:51:43Z</time></trkpt><trkpt lat="43.18644245426514" lon="11.62539974206555"><ele>359.0</ele><time>2026-04-11T19:51:45Z</time></trkpt><trkpt lat="43.18649118162913" lon="11.625229923326108"><ele>359.0</ele><time>2026-04-11T19:51:47Z</time></trkpt><trkpt lat="43.186511919334684" lon="11.625134727545072"><ele>359.0</ele><time>2026-04-11T19:51:48Z</time></trkpt><trkpt lat="43.18653169681414" lon="11.625035350958083"><ele>358.14285714285717</ele><time>2026-04-11T19:51:49Z</time></trkpt><trkpt lat="43.18654867751852" lon="11.624941016837255"><ele>357.28571428571433</ele><time>2026-04-11T19:51:50Z</time></trkpt><trkpt lat="43.18656313043734" lon="11.624847687133398"><ele>356.42857142857144</ele><time>2026-04-11T19:51:51Z</time></trkpt><trkpt lat="43.186577298003265" lon="11.624757105520935"><ele>355.57142857142856</ele><time>2026-04-11T19:51:52Z</time></trkpt><trkpt lat="43.18659149427977" lon="11.624657839491569"><ele>354.7142857142857</ele><time>2026-04-11T19:51:53Z</time></trkpt><trkpt lat="43.18660269459385" lon="11.624556781162214"><ele>353.85714285714283</ele><time>2026-04-11T19:51:54Z</time></trkpt><trkpt lat="43.18661435145096" lon="11.62445671629999"><ele>353.0</ele><time>2026-04-11T19:51:55Z</time></trkpt><trkpt lat="43.186627521847775" lon="11.624357995437368"><ele>353.0</ele><time>2026-04-11T19:51:56Z</time></trkpt><trkpt lat="43.18664434675738" lon="11.624258925806496"><ele>353.0</ele><time>2026-04-11T19:51:57Z</time></trkpt><trkpt lat="43.1866647025399" lon="11.624157052429092"><ele>353.0</ele><time>2026-04-11T19:51:58Z</time></trkpt><trkpt lat="43.18669563874981" lon="11.624065453530438"><ele>353.0</ele><time>2026-04-11T19:51:59Z</time></trkpt><trkpt lat="43.186726534526" lon="11.623969909271047"><ele>353.0</ele><time>2026-04-11T19:52:00Z</time></trkpt><trkpt lat="43.186757299905935" lon="11.623880044100764"><ele>353.0</ele><time>2026-04-11T19:52:01Z</time></trkpt><trkpt lat="43.18678283336359" lon="11.623798922054162"><ele>353.0</ele><time>2026-04-11T19:52:02Z</time></trkpt><trkpt lat="43.18681175433615" lon="11.623718692867211"><ele>353.1666666666667</ele><time>2026-04-11T19:52:03Z</time></trkpt><trkpt lat="43.18684006463857" lon="11.623639657477726"><ele>353.33333333333337</ele><time>2026-04-11T19:52:04Z</time></trkpt><trkpt lat="43.186894697000604" lon="11.623482965574299"><ele>353.5</ele><time>2026-04-11T19:52:06Z</time></trkpt><trkpt lat="43.18692417421401" lon="11.623399568912367"><ele>353.6666666666667</ele><time>2026-04-11T19:52:07Z</time></trkpt><trkpt lat="43.18695851741246" lon="11.623325040094011"><ele>353.8333333333333</ele><time>2026-04-11T19:52:08Z</time></trkpt><trkpt lat="43.187038594757595" lon="11.623202750238368"><ele>354.0</ele><time>2026-04-11T19:52:10Z</time></trkpt><trkpt lat="43.18712729111946" lon="11.623111108556783"><ele>354.0</ele><time>2026-04-11T19:52:12Z</time></trkpt><trkpt lat="43.187224858357446" lon="11.623024606070459"><ele>354.0</ele><time>2026-04-11T19:52:14Z</time></trkpt><trkpt lat="43.18728131949333" lon="11.622971024695339"><ele>354.0</ele><time>2026-04-11T19:52:15Z</time></trkpt><trkpt lat="43.18733525994434" lon="11.622913108880123"><ele>354.0</ele><time>2026-04-11T19:52:16Z</time></trkpt><trkpt lat="43.18740317535915" lon="11.622878581765953"><ele>354.0</ele><time>2026-04-11T19:52:17Z</time></trkpt><trkpt lat="43.18745730980785" lon="11.622804165780275"><ele>354.0</ele><time>2026-04-11T19:52:18Z</time></trkpt><trkpt lat="43.18752039307331" lon="11.622752751672886"><ele>354.3333333333333</ele><time>2026-04-11T19:52:19Z</time></trkpt><trkpt lat="43.18758490020751" lon="11.62270166688665"><ele>354.6666666666667</ele><time>2026-04-11T19:52:20Z</time></trkpt><trkpt lat="43.187646191834965" lon="11.622651516176356"><ele>355.0</ele><time>2026-04-11T19:52:21Z</time></trkpt><trkpt lat="43.187703497078466" lon="11.622600507771445"><ele>355.33333333333337</ele><time>2026-04-11T19:52:22Z</time></trkpt><trkpt lat="43.18775688130639" lon="11.622551275923488"><ele>355.6666666666667</ele><time>2026-04-11T19:52:23Z</time></trkpt><trkpt lat="43.18781137250347" lon="11.622504925076443"><ele>356.0</ele><time>2026-04-11T19:52:24Z</time></trkpt><trkpt lat="43.18790637188706" lon="11.62241065636353"><ele>356.0</ele><time>2026-04-11T19:52:26Z</time></trkpt><trkpt lat="43.18797316170594" lon="11.622306755070747"><ele>356.0</ele><time>2026-04-11T19:52:28Z</time></trkpt><trkpt lat="43.188030256695846" lon="11.622201948297072"><ele>356.0</ele><time>2026-04-11T19:52:30Z</time></trkpt><trkpt lat="43.18809202819746" lon="11.62208437162911"><ele>356.0</ele><time>2026-04-11T19:52:32Z</time></trkpt><trkpt lat="43.18816593929788" lon="11.621949373667043"><ele>356.0</ele><time>2026-04-11T19:52:34Z</time></trkpt><trkpt lat="43.18819956534497" lon="11.621871172482836"><ele>356.8</ele><time>2026-04-11T19:52:35Z</time></trkpt><trkpt lat="43.188237222752406" lon="11.621800384610244"><ele>357.6</ele><time>2026-04-11T19:52:36Z</time></trkpt><trkpt lat="43.18830240472216" lon="11.621665907864019"><ele>358.4</ele><time>2026-04-11T19:52:38Z</time></trkpt><trkpt lat="43.188354680908" lon="11.621541480308965"><ele>359.2</ele><time>2026-04-11T19:52:40Z</time></trkpt><trkpt lat="43.18841390726359" lon="11.621430270585536"><ele>360.0</ele><time>2026-04-11T19:52:42Z</time></trkpt><trkpt lat="43.1884663978318" lon="11.621322559470139"><ele>360.0</ele><time>2026-04-11T19:52:44Z</time></trkpt><trkpt lat="43.18851734413051" lon="11.621194455382527"><ele>360.0</ele><time>2026-04-11T19:52:46Z</time></trkpt><trkpt lat="43.18856795262843" lon="11.621044909466608"><ele>360.0</ele><time>2026-04-11T19:52:48Z</time></trkpt><trkpt lat="43.188612269656694" lon="11.620977197255177"><ele>360.0</ele><time>2026-04-11T19:52:49Z</time></trkpt><trkpt lat="43.188654239442585" lon="11.620827912872087"><ele>360.0</ele><time>2026-04-11T19:52:51Z</time></trkpt><trkpt lat="43.18872133111509" lon="11.620714253147192"><ele>360.0</ele><time>2026-04-11T19:52:53Z</time></trkpt><trkpt lat="43.18877385981781" lon="11.620614852297791"><ele>360.0</ele><time>2026-04-11T19:52:55Z</time></trkpt><trkpt lat="43.188832704587895" lon="11.620534434356376"><ele>360.0</ele><time>2026-04-11T19:52:57Z</time></trkpt><trkpt lat="43.18889675403637" lon="11.62047344337365"><ele>360.0</ele><time>2026-04-11T19:52:59Z</time></trkpt><trkpt lat="43.18896170646832" lon="11.620434533854395"><ele>360.0</ele><time>2026-04-11T19:53:01Z</time></trkpt><trkpt lat="43.18903533206432" lon="11.620390598625313"><ele>360.0</ele><time>2026-04-11T19:53:03Z</time></trkpt><trkpt lat="43.18910635301371" lon="11.620344551058366"><ele>360.1666666666667</ele><time>2026-04-11T19:53:05Z</time></trkpt><trkpt lat="43.189165754523955" lon="11.620279590919088"><ele>360.3333333333333</ele><time>2026-04-11T19:53:07Z</time></trkpt><trkpt lat="43.18922814887251" lon="11.620215400109002"><ele>360.5</ele><time>2026-04-11T19:53:09Z</time></trkpt><trkpt lat="43.18928365215015" lon="11.620154882218612"><ele>360.66666666666663</ele><time>2026-04-11T19:53:11Z</time></trkpt><trkpt lat="43.18933547733214" lon="11.620079428945198"><ele>360.8333333333333</ele><time>2026-04-11T19:53:13Z</time></trkpt><trkpt lat="43.189390283821155" lon="11.620001881410417"><ele>361.0</ele><time>2026-04-11T19:53:15Z</time></trkpt><trkpt lat="43.18944210376929" lon="11.619914806613986"><ele>361.0</ele><time>2026-04-11T19:53:17Z</time></trkpt><trkpt lat="43.189495496440955" lon="11.619829197147485"><ele>361.0</ele><time>2026-04-11T19:53:19Z</time></trkpt><trkpt lat="43.189554250695295" lon="11.619748060968972"><ele>361.0</ele><time>2026-04-11T19:53:21Z</time></trkpt><trkpt lat="43.189601934424005" lon="11.619659849173052"><ele>361.0</ele><time>2026-04-11T19:53:23Z</time></trkpt><trkpt lat="43.189648426030836" lon="11.619586051738965"><ele>361.0</ele><time>2026-04-11T19:53:26Z</time></trkpt><trkpt lat="43.189744586401886" lon="11.619469034053214"><ele>361.0</ele><time>2026-04-11T19:53:29Z</time></trkpt><trkpt lat="43.189783529324984" lon="11.619353647571087"><ele>360.8333333333333</ele><time>2026-04-11T19:53:31Z</time></trkpt><trkpt lat="43.189855705588506" lon="11.61924379229058"><ele>360.66666666666663</ele><time>2026-04-11T19:53:33Z</time></trkpt><trkpt lat="43.18990611918163" lon="11.619164849883537"><ele>360.5</ele><time>2026-04-11T19:53:34Z</time></trkpt><trkpt lat="43.18997364190964" lon="11.61902558422283"><ele>360.3333333333333</ele><time>2026-04-11T19:53:36Z</time></trkpt><trkpt lat="43.19002095788758" lon="11.618964487827803"><ele>360.1666666666667</ele><time>2026-04-11T19:53:37Z</time></trkpt><trkpt lat="43.19005619016503" lon="11.618886730665713"><ele>360.0</ele><time>2026-04-11T19:53:38Z</time></trkpt><trkpt lat="43.19009600861164" lon="11.618745476117104"><ele>359.25</ele><time>2026-04-11T19:53:40Z</time></trkpt><trkpt lat="43.1901453081498" lon="11.61861506841354"><ele>358.5</ele><time>2026-04-11T19:53:42Z</time></trkpt><trkpt lat="43.190175717570916" lon="11.618476142820887"><ele>357.75</ele><time>2026-04-11T19:53:44Z</time></trkpt><trkpt lat="43.190200019945216" lon="11.618301464433465"><ele>357.0</ele><time>2026-04-11T19:53:47Z</time></trkpt><trkpt lat="43.19018420988451" lon="11.618105418367684"><ele>357.0</ele><time>2026-04-11T19:53:49Z</time></trkpt><trkpt lat="43.19016483984946" lon="11.617954532910383"><ele>357.0</ele><time>2026-04-11T19:53:51Z</time></trkpt><trkpt lat="43.19013331247847" lon="11.617806790002007"><ele>357.0</ele><time>2026-04-11T19:53:53Z</time></trkpt><trkpt lat="43.19009387646818" lon="11.617678482908834"><ele>357.0</ele><time>2026-04-11T19:53:55Z</time></trkpt><trkpt lat="43.19006320987055" lon="11.617537569108187"><ele>357.0</ele><time>2026-04-11T19:53:57Z</time></trkpt><trkpt lat="43.19002701937892" lon="11.617397121709848"><ele>356.8</ele><time>2026-04-11T19:53:59Z</time></trkpt><trkpt lat="43.1899848382365" lon="11.617252448023285"><ele>356.6</ele><time>2026-04-11T19:54:01Z</time></trkpt><trkpt lat="43.189952200561535" lon="11.617109873113211"><ele>356.40000000000003</ele><time>2026-04-11T19:54:03Z</time></trkpt><trkpt lat="43.18991003137736" lon="11.616968384717799"><ele>356.20000000000005</ele><time>2026-04-11T19:54:05Z</time></trkpt><trkpt lat="43.189871844638134" lon="11.61684025848159"><ele>356.0</ele><time>2026-04-11T19:54:07Z</time></trkpt><trkpt lat="43.18983493145967" lon="11.616716405337698"><ele>352.6</ele><time>2026-04-11T19:54:09Z</time></trkpt><trkpt lat="43.18980274992291" lon="11.616608428093107"><ele>349.20000000000005</ele><time>2026-04-11T19:54:11Z</time></trkpt><trkpt lat="43.18976631662822" lon="11.616486185105916"><ele>345.79999999999995</ele><time>2026-04-11T19:54:13Z</time></trkpt><trkpt lat="43.18972644030905" lon="11.6163523898756"><ele>342.4</ele><time>2026-04-11T19:54:15Z</time></trkpt><trkpt lat="43.18968819790145" lon="11.61622407683793"><ele>339.0</ele><time>2026-04-11T19:54:17Z</time></trkpt><trkpt lat="43.189646817977504" lon="11.616085180772858"><ele>338.6</ele><time>2026-04-11T19:54:19Z</time></trkpt><trkpt lat="43.18960656781494" lon="11.615948738410166"><ele>338.2</ele><time>2026-04-11T19:54:21Z</time></trkpt><trkpt lat="43.18954955519743" lon="11.615800999869656"><ele>337.8</ele><time>2026-04-11T19:54:23Z</time></trkpt><trkpt lat="43.18951103819863" lon="11.61563296746947"><ele>337.40000000000003</ele><time>2026-04-11T19:54:25Z</time></trkpt><trkpt lat="43.189485373821505" lon="11.615546450434001"><ele>337.0</ele><time>2026-04-11T19:54:26Z</time></trkpt><trkpt lat="43.189460216134826" lon="11.615463971539"><ele>337.00000000000006</ele><time>2026-04-11T19:54:27Z</time></trkpt><trkpt lat="43.18943310773479" lon="11.615373087366248"><ele>337.0</ele><time>2026-04-11T19:54:28Z</time></trkpt><trkpt lat="43.18940656465138" lon="11.615282829684714"><ele>337.0</ele><time>2026-04-11T19:54:29Z</time></trkpt><trkpt lat="43.18938073779714" lon="11.615192554127574"><ele>337.0</ele><time>2026-04-11T19:54:30Z</time></trkpt><trkpt lat="43.189356765605204" lon="11.615102918663254"><ele>337.0</ele><time>2026-04-11T19:54:31Z</time></trkpt><trkpt lat="43.18932830037462" lon="11.615018928578879"><ele>337.00000000000006</ele><time>2026-04-11T19:54:32Z</time></trkpt><trkpt lat="43.18930476349694" lon="11.614931892687641"><ele>337.0</ele><time>2026-04-11T19:54:33Z</time></trkpt><trkpt lat="43.18928258754481" lon="11.614844228652187"><ele>337.42857142857144</ele><time>2026-04-11T19:54:34Z</time></trkpt><trkpt lat="43.1892660513489" lon="11.614756264029639"><ele>337.8571428571429</ele><time>2026-04-11T19:54:35Z</time></trkpt><trkpt lat="43.1892510247005" lon="11.614665468669324"><ele>338.28571428571433</ele><time>2026-04-11T19:54:36Z</time></trkpt><trkpt lat="43.18923489978625" lon="11.61457748680351"><ele>338.7142857142857</ele><time>2026-04-11T19:54:37Z</time></trkpt><trkpt lat="43.18922435600481" lon="11.614486014615979"><ele>339.1428571428571</ele><time>2026-04-11T19:54:38Z</time></trkpt><trkpt lat="43.18921575611615" lon="11.614393812016363"><ele>339.5714285714286</ele><time>2026-04-11T19:54:39Z</time></trkpt><trkpt lat="43.189207132232525" lon="11.614305827283506"><ele>340.0</ele><time>2026-04-11T19:54:40Z</time></trkpt><trkpt lat="43.18921061124004" lon="11.614215015931146"><ele>340.0</ele><time>2026-04-11T19:54:41Z</time></trkpt><trkpt lat="43.18922485415311" lon="11.614040568837943"><ele>340.0</ele><time>2026-04-11T19:54:43Z</time></trkpt><trkpt lat="43.189249635036916" lon="11.61395840159764"><ele>340.0</ele><time>2026-04-11T19:54:44Z</time></trkpt><trkpt lat="43.18926345425066" lon="11.613873879037374"><ele>340.0</ele><time>2026-04-11T19:54:45Z</time></trkpt><trkpt lat="43.18929442358554" lon="11.613712235634347"><ele>340.0</ele><time>2026-04-11T19:54:47Z</time></trkpt><trkpt lat="43.189317037758606" lon="11.613543273291299"><ele>340.0</ele><time>2026-04-11T19:54:49Z</time></trkpt><trkpt lat="43.18933809607569" lon="11.613455383756458"><ele>340.0</ele><time>2026-04-11T19:54:50Z</time></trkpt><trkpt lat="43.18935805550989" lon="11.613366570591785"><ele>340.0</ele><time>2026-04-11T19:54:51Z</time></trkpt><trkpt lat="43.18937925720374" lon="11.613278658020098"><ele>340.0</ele><time>2026-04-11T19:54:52Z</time></trkpt><trkpt lat="43.18939747161018" lon="11.613184290736738"><ele>340.0</ele><time>2026-04-11T19:54:53Z</time></trkpt><trkpt lat="43.18941241620862" lon="11.61308960569166"><ele>340.0</ele><time>2026-04-11T19:54:54Z</time></trkpt><trkpt lat="43.18943069137846" lon="11.612994349586458"><ele>340.0</ele><time>2026-04-11T19:54:55Z</time></trkpt><trkpt lat="43.18945015165335" lon="11.612899224867862"><ele>340.0</ele><time>2026-04-11T19:54:56Z</time></trkpt><trkpt lat="43.18947267660115" lon="11.612805660932677"><ele>340.0</ele><time>2026-04-11T19:54:57Z</time></trkpt><trkpt lat="43.189494696388564" lon="11.612713057940047"><ele>340.0</ele><time>2026-04-11T19:54:58Z</time></trkpt><trkpt lat="43.18951543791941" lon="11.612617789885293"><ele>340.0</ele><time>2026-04-11T19:54:59Z</time></trkpt><trkpt lat="43.18953370229881" lon="11.612521570609422"><ele>340.0</ele><time>2026-04-11T19:55:00Z</time></trkpt><trkpt lat="43.18955378724114" lon="11.61242638878868"><ele>340.0</ele><time>2026-04-11T19:55:01Z</time></trkpt><trkpt lat="43.18957157215678" lon="11.612330929209511"><ele>340.0</ele><time>2026-04-11T19:55:02Z</time></trkpt><trkpt lat="43.189588535537766" lon="11.612239302267168"><ele>340.0</ele><time>2026-04-11T19:55:03Z</time></trkpt><trkpt lat="43.18960471860337" lon="11.612145066984436"><ele>340.0</ele><time>2026-04-11T19:55:04Z</time></trkpt><trkpt lat="43.189623242204746" lon="11.612056190083525"><ele>340.0</ele><time>2026-04-11T19:55:05Z</time></trkpt><trkpt lat="43.189642510323374" lon="11.611972584398533"><ele>340.0</ele><time>2026-04-11T19:55:06Z</time></trkpt><trkpt lat="43.18966267928156" lon="11.61188799929845"><ele>340.0</ele><time>2026-04-11T19:55:07Z</time></trkpt><trkpt lat="43.18968462667213" lon="11.61180606790013"><ele>340.0</ele><time>2026-04-11T19:55:08Z</time></trkpt><trkpt lat="43.18970713636323" lon="11.611724322780688"><ele>340.0</ele><time>2026-04-11T19:55:09Z</time></trkpt><trkpt lat="43.18975374357046" lon="11.611572245990953"><ele>340.0</ele><time>2026-04-11T19:55:11Z</time></trkpt><trkpt lat="43.189816374129165" lon="11.611440220319434"><ele>340.0</ele><time>2026-04-11T19:55:13Z</time></trkpt><trkpt lat="43.18988689735267" lon="11.611305938017468"><ele>340.0</ele><time>2026-04-11T19:55:15Z</time></trkpt><trkpt lat="43.1899590609147" lon="11.611167093095526"><ele>340.0</ele><time>2026-04-11T19:55:17Z</time></trkpt><trkpt lat="43.19003036872831" lon="11.61102948843611"><ele>340.0</ele><time>2026-04-11T19:55:19Z</time></trkpt><trkpt lat="43.190091197094645" lon="11.610900105424774"><ele>340.0</ele><time>2026-04-11T19:55:21Z</time></trkpt><trkpt lat="43.19014962156634" lon="11.610781829325731"><ele>340.0</ele><time>2026-04-11T19:55:23Z</time></trkpt><trkpt lat="43.19021883770495" lon="11.61068083850415"><ele>340.0</ele><time>2026-04-11T19:55:25Z</time></trkpt><trkpt lat="43.19028720024537" lon="11.61057887652716"><ele>340.0</ele><time>2026-04-11T19:55:27Z</time></trkpt><trkpt lat="43.19035356725752" lon="11.610477451859943"><ele>340.0</ele><time>2026-04-11T19:55:29Z</time></trkpt><trkpt lat="43.190411927649954" lon="11.610398967971406"><ele>340.0</ele><time>2026-04-11T19:55:31Z</time></trkpt><trkpt lat="43.19047542685464" lon="11.61031326300607"><ele>340.0</ele><time>2026-04-11T19:55:33Z</time></trkpt><trkpt lat="43.19053837028525" lon="11.610206166577578"><ele>340.0</ele><time>2026-04-11T19:55:35Z</time></trkpt><trkpt lat="43.190592500471865" lon="11.610090860362517"><ele>340.0</ele><time>2026-04-11T19:55:37Z</time></trkpt><trkpt lat="43.190648714408646" lon="11.609939637286715"><ele>339.8333333333333</ele><time>2026-04-11T19:55:39Z</time></trkpt><trkpt lat="43.19069777453759" lon="11.60979627370057"><ele>339.66666666666663</ele><time>2026-04-11T19:55:41Z</time></trkpt><trkpt lat="43.19071909786633" lon="11.609713994982341"><ele>339.5</ele><time>2026-04-11T19:55:42Z</time></trkpt><trkpt lat="43.19073021030779" lon="11.60962555894317"><ele>339.3333333333333</ele><time>2026-04-11T19:55:43Z</time></trkpt><trkpt lat="43.190736575015805" lon="11.609532524959132"><ele>339.1666666666667</ele><time>2026-04-11T19:55:44Z</time></trkpt><trkpt lat="43.19073133274924" lon="11.609435720938016"><ele>339.0</ele><time>2026-04-11T19:55:45Z</time></trkpt><trkpt lat="43.19072018334125" lon="11.609338533904833"><ele>338.85714285714283</ele><time>2026-04-11T19:55:46Z</time></trkpt><trkpt lat="43.190706817850916" lon="11.609239389392524"><ele>338.7142857142857</ele><time>2026-04-11T19:55:47Z</time></trkpt><trkpt lat="43.19071805900636" lon="11.609135417923609"><ele>338.57142857142856</ele><time>2026-04-11T19:55:48Z</time></trkpt><trkpt lat="43.190716909846614" lon="11.609046127702559"><ele>338.42857142857144</ele><time>2026-04-11T19:55:49Z</time></trkpt><trkpt lat="43.19072654314749" lon="11.608948312962546"><ele>338.2857142857143</ele><time>2026-04-11T19:55:50Z</time></trkpt><trkpt lat="43.19074241258694" lon="11.608855781405545"><ele>338.14285714285717</ele><time>2026-04-11T19:55:51Z</time></trkpt><trkpt lat="43.19076302851442" lon="11.608772835771202"><ele>338.0</ele><time>2026-04-11T19:55:52Z</time></trkpt><trkpt lat="43.19078525355544" lon="11.608688208761636"><ele>337.33333333333337</ele><time>2026-04-11T19:55:53Z</time></trkpt><trkpt lat="43.19083646660507" lon="11.608526141640219"><ele>336.6666666666667</ele><time>2026-04-11T19:55:55Z</time></trkpt><trkpt lat="43.19086311170331" lon="11.60844673872602"><ele>336.0</ele><time>2026-04-11T19:55:56Z</time></trkpt><trkpt lat="43.19089200547712" lon="11.60836070592041"><ele>335.3333333333333</ele><time>2026-04-11T19:55:57Z</time></trkpt><trkpt lat="43.190908406059464" lon="11.608267148547048"><ele>334.66666666666663</ele><time>2026-04-11T19:55:58Z</time></trkpt><trkpt lat="43.190943052607714" lon="11.608186551816324"><ele>334.0</ele><time>2026-04-11T19:55:59Z</time></trkpt><trkpt lat="43.19096909229733" lon="11.608106109473166"><ele>334.0</ele><time>2026-04-11T19:56:00Z</time></trkpt><trkpt lat="43.191019756378296" lon="11.607971925928407"><ele>334.0</ele><time>2026-04-11T19:56:02Z</time></trkpt><trkpt lat="43.19106168121827" lon="11.607845022577596"><ele>334.0</ele><time>2026-04-11T19:56:04Z</time></trkpt><trkpt lat="43.19110310790438" lon="11.607707746962568"><ele>334.0</ele><time>2026-04-11T19:56:06Z</time></trkpt><trkpt lat="43.19114643823863" lon="11.607562649421821"><ele>334.0</ele><time>2026-04-11T19:56:08Z</time></trkpt><trkpt lat="43.19120332416819" lon="11.607416889518134"><ele>332.75</ele><time>2026-04-11T19:56:10Z</time></trkpt><trkpt lat="43.19124269473161" lon="11.607283374963016"><ele>331.5</ele><time>2026-04-11T19:56:12Z</time></trkpt><trkpt lat="43.191293546209096" lon="11.607140160635293"><ele>330.25</ele><time>2026-04-11T19:56:14Z</time></trkpt><trkpt lat="43.19135399907775" lon="11.60699426544266"><ele>329.0</ele><time>2026-04-11T19:56:16Z</time></trkpt><trkpt lat="43.19142945841181" lon="11.606863395252077"><ele>328.33333333333337</ele><time>2026-04-11T19:56:18Z</time></trkpt><trkpt lat="43.19152087987859" lon="11.606753478267263"><ele>327.6666666666667</ele><time>2026-04-11T19:56:20Z</time></trkpt><trkpt lat="43.191575780467055" lon="11.606708495764728"><ele>327.0</ele><time>2026-04-11T19:56:21Z</time></trkpt><trkpt lat="43.19163865179721" lon="11.606673072926473"><ele>326.3333333333333</ele><time>2026-04-11T19:56:22Z</time></trkpt><trkpt lat="43.19170725793116" lon="11.606667092158725"><ele>325.66666666666663</ele><time>2026-04-11T19:56:23Z</time></trkpt><trkpt lat="43.19177576928356" lon="11.606656780690399"><ele>325.0</ele><time>2026-04-11T19:56:24Z</time></trkpt><trkpt lat="43.191839578308176" lon="11.606649212207873"><ele>325.0</ele><time>2026-04-11T19:56:25Z</time></trkpt><trkpt lat="43.19190361284557" lon="11.606641226478233"><ele>325.0</ele><time>2026-04-11T19:56:26Z</time></trkpt><trkpt lat="43.19203178517868" lon="11.606627760820214"><ele>325.0</ele><time>2026-04-11T19:56:28Z</time></trkpt><trkpt lat="43.192100306866955" lon="11.606620517168851"><ele>325.0</ele><time>2026-04-11T19:56:29Z</time></trkpt><trkpt lat="43.19223067309899" lon="11.606605770729553"><ele>325.0</ele><time>2026-04-11T19:56:31Z</time></trkpt><trkpt lat="43.19235061441874" lon="11.606567641280678"><ele>324.0</ele><time>2026-04-11T19:56:33Z</time></trkpt><trkpt lat="43.19247289958092" lon="11.60655773351856"><ele>323.0</ele><time>2026-04-11T19:56:35Z</time></trkpt><trkpt lat="43.19254406918886" lon="11.606557219777535"><ele>322.0</ele><time>2026-04-11T19:56:36Z</time></trkpt><trkpt lat="43.192617371706405" lon="11.606564975049368"><ele>321.0</ele><time>2026-04-11T19:56:37Z</time></trkpt><trkpt lat="43.192681199303216" lon="11.606595640901586"><ele>320.0</ele><time>2026-04-11T19:56:38Z</time></trkpt><trkpt lat="43.19274676377075" lon="11.606611692659023"><ele>319.0</ele><time>2026-04-11T19:56:39Z</time></trkpt><trkpt lat="43.19281416615905" lon="11.606634023280128"><ele>319.0</ele><time>2026-04-11T19:56:40Z</time></trkpt><trkpt lat="43.192881932544935" lon="11.60666251029525"><ele>319.0</ele><time>2026-04-11T19:56:41Z</time></trkpt><trkpt lat="43.19295065008359" lon="11.606691197234792"><ele>319.0</ele><time>2026-04-11T19:56:42Z</time></trkpt><trkpt lat="43.193020781343414" lon="11.606722208329314"><ele>319.0</ele><time>2026-04-11T19:56:43Z</time></trkpt><trkpt lat="43.19309045235178" lon="11.606730982803587"><ele>319.0</ele><time>2026-04-11T19:56:44Z</time></trkpt><trkpt lat="43.193148098647264" lon="11.606785317578826"><ele>319.0</ele><time>2026-04-11T19:56:45Z</time></trkpt><trkpt lat="43.19325584916158" lon="11.606869676554076"><ele>318.7142857142857</ele><time>2026-04-11T19:56:47Z</time></trkpt><trkpt lat="43.19331348019502" lon="11.606920906579377"><ele>318.4285714285714</ele><time>2026-04-11T19:56:48Z</time></trkpt><trkpt lat="43.1933756469914" lon="11.606980660067368"><ele>318.1428571428571</ele><time>2026-04-11T19:56:49Z</time></trkpt><trkpt lat="43.193435364923715" lon="11.607042827937487"><ele>317.8571428571429</ele><time>2026-04-11T19:56:50Z</time></trkpt><trkpt lat="43.19349679480602" lon="11.607106853388807"><ele>317.57142857142856</ele><time>2026-04-11T19:56:51Z</time></trkpt><trkpt lat="43.19355363030992" lon="11.607166090589121"><ele>317.2857142857143</ele><time>2026-04-11T19:56:52Z</time></trkpt><trkpt lat="43.193607220896155" lon="11.607217770115431"><ele>317.0</ele><time>2026-04-11T19:56:53Z</time></trkpt><trkpt lat="43.19370272585252" lon="11.60729546522778"><ele>317.0</ele><time>2026-04-11T19:56:55Z</time></trkpt><trkpt lat="43.19381674498657" lon="11.607291185104389"><ele>317.0</ele><time>2026-04-11T19:56:57Z</time></trkpt><trkpt lat="43.19390820329401" lon="11.607211969362458"><ele>317.0</ele><time>2026-04-11T19:56:59Z</time></trkpt><trkpt lat="43.193963096300536" lon="11.60708749321816"><ele>317.0</ele><time>2026-04-11T19:57:01Z</time></trkpt><trkpt lat="43.194018030428964" lon="11.606937965837567"><ele>314.5</ele><time>2026-04-11T19:57:03Z</time></trkpt><trkpt lat="43.19404842121017" lon="11.606861383497826"><ele>312.0</ele><time>2026-04-11T19:57:04Z</time></trkpt><trkpt lat="43.19407811503989" lon="11.606776525517871"><ele>309.5</ele><time>2026-04-11T19:57:05Z</time></trkpt><trkpt lat="43.19410573489571" lon="11.606692025222614"><ele>307.0</ele><time>2026-04-11T19:57:06Z</time></trkpt><trkpt lat="43.19413694057884" lon="11.606609702642736"><ele>304.5</ele><time>2026-04-11T19:57:07Z</time></trkpt><trkpt lat="43.19416652665772" lon="11.606524808058966"><ele>302.0</ele><time>2026-04-11T19:57:08Z</time></trkpt><trkpt lat="43.19422710244699" lon="11.60636473230791"><ele>302.0</ele><time>2026-04-11T19:57:10Z</time></trkpt><trkpt lat="43.1942620512367" lon="11.606277374574695"><ele>302.0</ele><time>2026-04-11T19:57:11Z</time></trkpt><trkpt lat="43.194293244225754" lon="11.60619314715201"><ele>302.0</ele><time>2026-04-11T19:57:12Z</time></trkpt><trkpt lat="43.19434197146423" lon="11.606052350431264"><ele>302.0</ele><time>2026-04-11T19:57:14Z</time></trkpt><trkpt lat="43.19437887087079" lon="11.605900582323768"><ele>302.0</ele><time>2026-04-11T19:57:16Z</time></trkpt><trkpt lat="43.19438989181982" lon="11.605808520473122"><ele>302.0</ele><time>2026-04-11T19:57:17Z</time></trkpt><trkpt lat="43.194399327310485" lon="11.605717237903097"><ele>301.5</ele><time>2026-04-11T19:57:18Z</time></trkpt><trkpt lat="43.194401617250385" lon="11.60562385743704"><ele>301.0</ele><time>2026-04-11T19:57:19Z</time></trkpt><trkpt lat="43.19440477385898" lon="11.605534686933915"><ele>300.5</ele><time>2026-04-11T19:57:20Z</time></trkpt><trkpt lat="43.19442829621262" lon="11.605375116908975"><ele>300.0</ele><time>2026-04-11T19:57:22Z</time></trkpt><trkpt lat="43.19442762604838" lon="11.60522521385795"><ele>299.5</ele><time>2026-04-11T19:57:24Z</time></trkpt><trkpt lat="43.19443623012491" lon="11.60513736612771"><ele>299.0</ele><time>2026-04-11T19:57:25Z</time></trkpt><trkpt lat="43.19444100792596" lon="11.605042499887029"><ele>298.33333333333337</ele><time>2026-04-11T19:57:26Z</time></trkpt><trkpt lat="43.19444395540156" lon="11.604950828256255"><ele>297.6666666666667</ele><time>2026-04-11T19:57:27Z</time></trkpt><trkpt lat="43.19445045468983" lon="11.604850208493358"><ele>297.0</ele><time>2026-04-11T19:57:28Z</time></trkpt><trkpt lat="43.19445612215551" lon="11.604752085314535"><ele>296.3333333333333</ele><time>2026-04-11T19:57:29Z</time></trkpt><trkpt lat="43.194456875540055" lon="11.604661102363846"><ele>295.66666666666663</ele><time>2026-04-11T19:57:30Z</time></trkpt><trkpt lat="43.1944579475922" lon="11.604497910154915"><ele>295.0</ele><time>2026-04-11T19:57:32Z</time></trkpt><trkpt lat="43.19440119427805" lon="11.604368335544224"><ele>294.2</ele><time>2026-04-11T19:57:34Z</time></trkpt><trkpt lat="43.19435733742327" lon="11.604237749012508"><ele>293.4</ele><time>2026-04-11T19:57:36Z</time></trkpt><trkpt lat="43.194277586316865" lon="11.604113086067397"><ele>292.6</ele><time>2026-04-11T19:57:38Z</time></trkpt><trkpt lat="43.19423896703729" lon="11.60404312710102"><ele>291.8</ele><time>2026-04-11T19:57:39Z</time></trkpt><trkpt lat="43.19417798676249" lon="11.60388964767921"><ele>291.0</ele><time>2026-04-11T19:57:41Z</time></trkpt><trkpt lat="43.19411794268218" lon="11.603772953487763"><ele>291.0</ele><time>2026-04-11T19:57:43Z</time></trkpt><trkpt lat="43.19407241690462" lon="11.60368447525819"><ele>291.0</ele><time>2026-04-11T19:57:45Z</time></trkpt><trkpt lat="43.19402606856519" lon="11.60359434677615"><ele>291.0</ele><time>2026-04-11T19:57:48Z</time></trkpt><trkpt lat="43.19398429913288" lon="11.603513015512108"><ele>291.0</ele><time>2026-04-11T19:57:51Z</time></trkpt><trkpt lat="43.19394610956909" lon="11.603438654778051"><ele>291.0</ele><time>2026-04-11T19:57:54Z</time></trkpt><trkpt lat="43.19388786788231" lon="11.603350483153404"><ele>291.0</ele><time>2026-04-11T19:57:57Z</time></trkpt><trkpt lat="43.19388205240401" lon="11.60326341823926"><ele>291.0</ele><time>2026-04-11T19:57:59Z</time></trkpt><trkpt lat="43.19390838877722" lon="11.603143541619923"><ele>290.42857142857144</ele><time>2026-04-11T19:58:02Z</time></trkpt><trkpt lat="43.19394792282404" lon="11.603057696841514"><ele>289.85714285714283</ele><time>2026-04-11T19:58:04Z</time></trkpt><trkpt lat="43.19401468902729" lon="11.60296743645525"><ele>289.2857142857143</ele><time>2026-04-11T19:58:07Z</time></trkpt><trkpt lat="43.19407272473931" lon="11.602902401963656"><ele>288.7142857142857</ele><time>2026-04-11T19:58:09Z</time></trkpt><trkpt lat="43.19413310384766" lon="11.602844419518833"><ele>288.1428571428571</ele><time>2026-04-11T19:58:11Z</time></trkpt><trkpt lat="43.19417551707719" lon="11.602770783948335"><ele>287.57142857142856</ele><time>2026-04-11T19:58:13Z</time></trkpt><trkpt lat="43.1942309296323" lon="11.602725658965813"><ele>287.0</ele><time>2026-04-11T19:58:15Z</time></trkpt><trkpt lat="43.19430115231965" lon="11.60268816276519"><ele>286.83333333333337</ele><time>2026-04-11T19:58:17Z</time></trkpt><trkpt lat="43.19437836546334" lon="11.60265556035374"><ele>286.6666666666667</ele><time>2026-04-11T19:58:19Z</time></trkpt><trkpt lat="43.194452805954086" lon="11.602624222851366"><ele>286.5</ele><time>2026-04-11T19:58:21Z</time></trkpt><trkpt lat="43.19452558470463" lon="11.60260336442737"><ele>286.3333333333333</ele><time>2026-04-11T19:58:23Z</time></trkpt><trkpt lat="43.194592864385505" lon="11.602589780156565"><ele>286.16666666666663</ele><time>2026-04-11T19:58:25Z</time></trkpt><trkpt lat="43.19467713589461" lon="11.602554843640553"><ele>286.0</ele><time>2026-04-11T19:58:28Z</time></trkpt><trkpt lat="43.19474817941096" lon="11.602527712983836"><ele>285.99999999999994</ele><time>2026-04-11T19:58:31Z</time></trkpt><trkpt lat="43.194814593102926" lon="11.602517259458935"><ele>286.0</ele><time>2026-04-11T19:58:34Z</time></trkpt><trkpt lat="43.194894575481506" lon="11.602512474703126"><ele>286.0</ele><time>2026-04-11T19:58:38Z</time></trkpt><trkpt lat="43.1949690072612" lon="11.602497386191873"><ele>286.0</ele><time>2026-04-11T19:58:41Z</time></trkpt><trkpt lat="43.195045558023104" lon="11.602477229080186"><ele>286.0</ele><time>2026-04-11T19:58:44Z</time></trkpt><trkpt lat="43.19512194388593" lon="11.602457650623217"><ele>285.99999999999994</ele><time>2026-04-11T19:58:47Z</time></trkpt><trkpt lat="43.19518812574226" lon="11.602441523819172"><ele>286.0</ele><time>2026-04-11T19:58:50Z</time></trkpt><trkpt lat="43.19526012463203" lon="11.602424265126913"><ele>286.8333333333333</ele><time>2026-04-11T19:58:53Z</time></trkpt><trkpt lat="43.195336423867786" lon="11.602408640834632"><ele>287.66666666666663</ele><time>2026-04-11T19:58:56Z</time></trkpt><trkpt lat="43.1954123361793" lon="11.60238942250056"><ele>288.5</ele><time>2026-04-11T19:58:59Z</time></trkpt><trkpt lat="43.19548665563567" lon="11.602376368254102"><ele>289.3333333333333</ele><time>2026-04-11T19:59:02Z</time></trkpt><trkpt lat="43.195573825479464" lon="11.602355953800677"><ele>290.1666666666667</ele><time>2026-04-11T19:59:05Z</time></trkpt><trkpt lat="43.195639385482075" lon="11.602343696850415"><ele>291.0</ele><time>2026-04-11T19:59:08Z</time></trkpt><trkpt lat="43.195704246142675" lon="11.60232807033258"><ele>291.8333333333333</ele><time>2026-04-11T19:59:10Z</time></trkpt><trkpt lat="43.19578036153277" lon="11.602317638602695"><ele>292.6666666666667</ele><time>2026-04-11T19:59:13Z</time></trkpt><trkpt lat="43.1958604811579" lon="11.602286856092466"><ele>293.5</ele><time>2026-04-11T19:59:16Z</time></trkpt><trkpt lat="43.19594272161802" lon="11.602268418622323"><ele>294.33333333333337</ele><time>2026-04-11T19:59:19Z</time></trkpt><trkpt lat="43.196010193771926" lon="11.602255026738609"><ele>295.1666666666667</ele><time>2026-04-11T19:59:21Z</time></trkpt><trkpt lat="43.196092649728534" lon="11.602237119880613"><ele>296.0</ele><time>2026-04-11T19:59:24Z</time></trkpt><trkpt lat="43.196172656515195" lon="11.60222573735509"><ele>296.0</ele><time>2026-04-11T19:59:26Z</time></trkpt><trkpt lat="43.196249461543054" lon="11.602220318154282"><ele>296.0</ele><time>2026-04-11T19:59:29Z</time></trkpt><trkpt lat="43.19633210438068" lon="11.60221104144102"><ele>296.0</ele><time>2026-04-11T19:59:32Z</time></trkpt><trkpt lat="43.19640644714367" lon="11.60220293496074"><ele>296.0</ele><time>2026-04-11T19:59:34Z</time></trkpt><trkpt lat="43.19647601400279" lon="11.60219600752668"><ele>296.0</ele><time>2026-04-11T19:59:37Z</time></trkpt><trkpt lat="43.19654193763808" lon="11.602191304357754"><ele>296.0</ele><time>2026-04-11T19:59:39Z</time></trkpt><trkpt lat="43.19660755046028" lon="11.602184922410279"><ele>296.0</ele><time>2026-04-11T19:59:42Z</time></trkpt><trkpt lat="43.1966790215825" lon="11.602185508134388"><ele>296.0</ele><time>2026-04-11T19:59:45Z</time></trkpt><trkpt lat="43.19674942134734" lon="11.602185283192563"><ele>296.0</ele><time>2026-04-11T19:59:48Z</time></trkpt><trkpt lat="43.19682039381594" lon="11.6021911797253"><ele>296.0</ele><time>2026-04-11T19:59:51Z</time></trkpt><trkpt lat="43.19688967806942" lon="11.602207941132548"><ele>296.0</ele><time>2026-04-11T19:59:54Z</time></trkpt><trkpt lat="43.19697227963183" lon="11.60222367492614"><ele>296.0</ele><time>2026-04-11T19:59:57Z</time></trkpt><trkpt lat="43.19703429934415" lon="11.602244018547857"><ele>296.0</ele><time>2026-04-11T20:00:00Z</time></trkpt><trkpt lat="43.19711304640432" lon="11.602275236972691"><ele>296.0</ele><time>2026-04-11T20:00:04Z</time></trkpt><trkpt lat="43.19718166951006" lon="11.602304662077277"><ele>296.0</ele><time>2026-04-11T20:00:07Z</time></trkpt><trkpt lat="43.19725019166" lon="11.60233093710035"><ele>296.0</ele><time>2026-04-11T20:00:10Z</time></trkpt><trkpt lat="43.19732538071259" lon="11.602368447855143"><ele>296.0</ele><time>2026-04-11T20:00:14Z</time></trkpt><trkpt lat="43.197388068262704" lon="11.60239105902921"><ele>296.0</ele><time>2026-04-11T20:00:17Z</time></trkpt><trkpt lat="43.19746167971986" lon="11.60243133502401"><ele>296.0</ele><time>2026-04-11T20:00:20Z</time></trkpt><trkpt lat="43.19753088401106" lon="11.602474803834626"><ele>296.0</ele><time>2026-04-11T20:00:24Z</time></trkpt><trkpt lat="43.19759423601499" lon="11.602526718123935"><ele>296.0</ele><time>2026-04-11T20:00:27Z</time></trkpt><trkpt lat="43.19765563103055" lon="11.602578628302544"><ele>296.1666666666667</ele><time>2026-04-11T20:00:30Z</time></trkpt><trkpt lat="43.19772449225125" lon="11.602636004574443"><ele>296.33333333333337</ele><time>2026-04-11T20:00:33Z</time></trkpt><trkpt lat="43.19779203548099" lon="11.602694951371356"><ele>296.5</ele><time>2026-04-11T20:00:37Z</time></trkpt><trkpt lat="43.19785295464983" lon="11.602749723987676"><ele>296.6666666666667</ele><time>2026-04-11T20:00:40Z</time></trkpt><trkpt lat="43.19791042732531" lon="11.6028067688721"><ele>296.8333333333333</ele><time>2026-04-11T20:00:43Z</time></trkpt><trkpt lat="43.19797650938771" lon="11.60288026389528"><ele>297.0</ele><time>2026-04-11T20:00:46Z</time></trkpt><trkpt lat="43.198044627841874" lon="11.60292773181575"><ele>297.0</ele><time>2026-04-11T20:00:50Z</time></trkpt><trkpt lat="43.198105539225956" lon="11.60296972517117"><ele>297.0</ele><time>2026-04-11T20:00:53Z</time></trkpt><trkpt lat="43.19816874215546" lon="11.603008895839594"><ele>297.0</ele><time>2026-04-11T20:00:56Z</time></trkpt><trkpt lat="43.198239210083656" lon="11.603055564848828"><ele>297.0</ele><time>2026-04-11T20:00:59Z</time></trkpt><trkpt lat="43.19831074675623" lon="11.603101392836589"><ele>297.0</ele><time>2026-04-11T20:01:03Z</time></trkpt><trkpt lat="43.19838042659007" lon="11.603138364273983"><ele>297.0</ele><time>2026-04-11T20:01:06Z</time></trkpt><trkpt lat="43.19846128785635" lon="11.603180664517026"><ele>299.0</ele><time>2026-04-11T20:01:09Z</time></trkpt><trkpt lat="43.19853269489627" lon="11.60322772000301"><ele>301.0</ele><time>2026-04-11T20:01:13Z</time></trkpt><trkpt lat="43.198603129404646" lon="11.603253587515335"><ele>303.0</ele><time>2026-04-11T20:01:16Z</time></trkpt><trkpt lat="43.19867318073998" lon="11.603288911868898"><ele>305.0</ele><time>2026-04-11T20:01:19Z</time></trkpt><trkpt lat="43.198741451568054" lon="11.603322032559499"><ele>307.0</ele><time>2026-04-11T20:01:22Z</time></trkpt><trkpt lat="43.19881788896582" lon="11.603365314658603"><ele>309.0</ele><time>2026-04-11T20:01:25Z</time></trkpt><trkpt lat="43.198890089563065" lon="11.603408205935597"><ele>309.00000000000006</ele><time>2026-04-11T20:01:28Z</time></trkpt><trkpt lat="43.19895521551552" lon="11.603442055220356"><ele>309.0</ele><time>2026-04-11T20:01:31Z</time></trkpt><trkpt lat="43.199014729661066" lon="11.603489602285386"><ele>309.0</ele><time>2026-04-11T20:01:34Z</time></trkpt><trkpt lat="43.19907652530512" lon="11.603529420393453"><ele>309.0</ele><time>2026-04-11T20:01:37Z</time></trkpt><trkpt lat="43.199134979971696" lon="11.603594924119134"><ele>309.0</ele><time>2026-04-11T20:01:40Z</time></trkpt><trkpt lat="43.19918148827867" lon="11.603687877192135"><ele>309.00000000000006</ele><time>2026-04-11T20:01:43Z</time></trkpt><trkpt lat="43.19923315991943" lon="11.60375014659429"><ele>309.0</ele><time>2026-04-11T20:01:46Z</time></trkpt><trkpt lat="43.199272317230246" lon="11.603827521311272"><ele>309.5714285714286</ele><time>2026-04-11T20:01:49Z</time></trkpt><trkpt lat="43.199316500587365" lon="11.603900125268096"><ele>310.14285714285717</ele><time>2026-04-11T20:01:52Z</time></trkpt><trkpt lat="43.199370426485515" lon="11.603978665126093"><ele>310.7142857142857</ele><time>2026-04-11T20:01:56Z</time></trkpt><trkpt lat="43.19942016856359" lon="11.604053944343104"><ele>311.28571428571433</ele><time>2026-04-11T20:01:59Z</time></trkpt><trkpt lat="43.19946222128674" lon="11.604131851767317"><ele>311.8571428571429</ele><time>2026-04-11T20:02:02Z</time></trkpt><trkpt lat="43.19950503175778" lon="11.604203489264089"><ele>312.42857142857144</ele><time>2026-04-11T20:02:05Z</time></trkpt><trkpt lat="43.199562838562095" lon="11.604288305806223"><ele>313.0</ele><time>2026-04-11T20:02:08Z</time></trkpt><trkpt lat="43.19962758083235" lon="11.604346240174083"><ele>313.0</ele><time>2026-04-11T20:02:12Z</time></trkpt><trkpt lat="43.19969242686221" lon="11.604402725785537"><ele>313.0</ele><time>2026-04-11T20:02:15Z</time></trkpt><trkpt lat="43.199775756249856" lon="11.604450188542033"><ele>313.0</ele><time>2026-04-11T20:02:18Z</time></trkpt><trkpt lat="43.199851975878715" lon="11.604496374778615"><ele>313.0</ele><time>2026-04-11T20:02:22Z</time></trkpt><trkpt lat="43.19993199163568" lon="11.604525292703121"><ele>313.0</ele><time>2026-04-11T20:02:25Z</time></trkpt><trkpt lat="43.200020312468155" lon="11.604541166268218"><ele>313.0</ele><time>2026-04-11T20:02:28Z</time></trkpt><trkpt lat="43.20009341236001" lon="11.604546943448838"><ele>314.0</ele><time>2026-04-11T20:02:31Z</time></trkpt><trkpt lat="43.20016039226702" lon="11.604547725669564"><ele>315.0</ele><time>2026-04-11T20:02:34Z</time></trkpt><trkpt lat="43.200233854898954" lon="11.604529667453663"><ele>316.0</ele><time>2026-04-11T20:02:37Z</time></trkpt><trkpt lat="43.20029850238637" lon="11.604498427391716"><ele>317.0</ele><time>2026-04-11T20:02:40Z</time></trkpt><trkpt lat="43.20036075299423" lon="11.604432657196515"><ele>318.0</ele><time>2026-04-11T20:02:43Z</time></trkpt><trkpt lat="43.2004319886007" lon="11.604347695108052"><ele>319.0</ele><time>2026-04-11T20:02:47Z</time></trkpt><trkpt lat="43.200450557704436" lon="11.604221071476893"><ele>319.16666666666663</ele><time>2026-04-11T20:02:50Z</time></trkpt><trkpt lat="43.20045024445507" lon="11.604116170660694"><ele>319.3333333333333</ele><time>2026-04-11T20:02:52Z</time></trkpt><trkpt lat="43.2004214215878" lon="11.604013657655202"><ele>319.5</ele><time>2026-04-11T20:02:54Z</time></trkpt><trkpt lat="43.20037836732543" lon="11.603941041392874"><ele>319.6666666666667</ele><time>2026-04-11T20:02:56Z</time></trkpt><trkpt lat="43.200320140469486" lon="11.603873390895126"><ele>319.83333333333337</ele><time>2026-04-11T20:02:58Z</time></trkpt><trkpt lat="43.200253955849334" lon="11.603782483171846"><ele>320.0</ele><time>2026-04-11T20:03:00Z</time></trkpt><trkpt lat="43.20020167450403" lon="11.6036598190264"><ele>318.8</ele><time>2026-04-11T20:03:02Z</time></trkpt><trkpt lat="43.20017850414135" lon="11.603530379869907"><ele>317.6</ele><time>2026-04-11T20:03:04Z</time></trkpt><trkpt lat="43.20016200639395" lon="11.603399429244751"><ele>316.4</ele><time>2026-04-11T20:03:06Z</time></trkpt><trkpt lat="43.200149664530656" lon="11.603260356477985"><ele>315.2</ele><time>2026-04-11T20:03:08Z</time></trkpt><trkpt lat="43.200127274765485" lon="11.60313636375686"><ele>314.0</ele><time>2026-04-11T20:03:10Z</time></trkpt><trkpt lat="43.2001087110746" lon="11.603024943339468"><ele>314.0</ele><time>2026-04-11T20:03:12Z</time></trkpt><trkpt lat="43.20009665843835" lon="11.602893141299436"><ele>314.0</ele><time>2026-04-11T20:03:14Z</time></trkpt><trkpt lat="43.200106314871164" lon="11.602737675895034"><ele>314.0</ele><time>2026-04-11T20:03:16Z</time></trkpt><trkpt lat="43.20012196109495" lon="11.602594075315544"><ele>314.0</ele><time>2026-04-11T20:03:18Z</time></trkpt><trkpt lat="43.20013516468655" lon="11.602460177842545"><ele>314.0</ele><time>2026-04-11T20:03:20Z</time></trkpt><trkpt lat="43.20015555250748" lon="11.602309082485931"><ele>312.8</ele><time>2026-04-11T20:03:22Z</time></trkpt><trkpt lat="43.20019043703456" lon="11.602174387041979"><ele>311.59999999999997</ele><time>2026-04-11T20:03:24Z</time></trkpt><trkpt lat="43.20025842723766" lon="11.602060287405898"><ele>310.4</ele><time>2026-04-11T20:03:26Z</time></trkpt><trkpt lat="43.2003518524427" lon="11.601966324714265"><ele>309.2</ele><time>2026-04-11T20:03:28Z</time></trkpt><trkpt lat="43.20044253027337" lon="11.601907278840265"><ele>308.0</ele><time>2026-04-11T20:03:30Z</time></trkpt><trkpt lat="43.20053610565126" lon="11.601834110501734"><ele>308.2</ele><time>2026-04-11T20:03:32Z</time></trkpt><trkpt lat="43.20062084961986" lon="11.601743557252144"><ele>308.4</ele><time>2026-04-11T20:03:34Z</time></trkpt><trkpt lat="43.20069493645565" lon="11.601659847288042"><ele>308.59999999999997</ele><time>2026-04-11T20:03:36Z</time></trkpt><trkpt lat="43.200785462956546" lon="11.601574184726223"><ele>308.8</ele><time>2026-04-11T20:03:38Z</time></trkpt><trkpt lat="43.200879853226375" lon="11.601507892924694"><ele>309.0</ele><time>2026-04-11T20:03:40Z</time></trkpt><trkpt lat="43.200973409975006" lon="11.601459655251958"><ele>309.0</ele><time>2026-04-11T20:03:42Z</time></trkpt><trkpt lat="43.20105685503516" lon="11.601426530901554"><ele>309.0</ele><time>2026-04-11T20:03:44Z</time></trkpt><trkpt lat="43.20112649405458" lon="11.601395350192819"><ele>309.0</ele><time>2026-04-11T20:03:46Z</time></trkpt><trkpt lat="43.201196983640486" lon="11.601363107391256"><ele>309.0</ele><time>2026-04-11T20:03:49Z</time></trkpt><trkpt lat="43.20127343343739" lon="11.601312065857977"><ele>309.0</ele><time>2026-04-11T20:03:52Z</time></trkpt><trkpt lat="43.20135020031921" lon="11.601250050020063"><ele>309.0</ele><time>2026-04-11T20:03:55Z</time></trkpt><trkpt lat="43.20140782020173" lon="11.601209368807874"><ele>308.3333333333333</ele><time>2026-04-11T20:03:57Z</time></trkpt><trkpt lat="43.201466445127885" lon="11.601164453150027"><ele>307.6666666666667</ele><time>2026-04-11T20:03:59Z</time></trkpt><trkpt lat="43.20153258897892" lon="11.601103338361641"><ele>307.0</ele><time>2026-04-11T20:04:02Z</time></trkpt><trkpt lat="43.201605150597494" lon="11.601065718007215"><ele>306.33333333333337</ele><time>2026-04-11T20:04:06Z</time></trkpt><trkpt lat="43.20166065230623" lon="11.601009873145065"><ele>305.6666666666667</ele><time>2026-04-11T20:04:59Z</time></trkpt><trkpt lat="43.201736850239925" lon="11.600991947948401"><ele>305.0</ele><time>2026-04-11T20:05:02Z</time></trkpt><trkpt lat="43.20182683872131" lon="11.600958290989007"><ele>305.0</ele><time>2026-04-11T20:05:05Z</time></trkpt><trkpt lat="43.201893773173026" lon="11.600932107681189"><ele>305.0</ele><time>2026-04-11T20:05:07Z</time></trkpt><trkpt lat="43.201980390823344" lon="11.600889819864904"><ele>305.0</ele><time>2026-04-11T20:05:10Z</time></trkpt><trkpt lat="43.20204310762865" lon="11.600862031772488"><ele>305.0</ele><time>2026-04-11T20:05:12Z</time></trkpt><trkpt lat="43.20213124003061" lon="11.60084174439879"><ele>305.0</ele><time>2026-04-11T20:05:15Z</time></trkpt><trkpt lat="43.20219465495715" lon="11.600836292263262"><ele>305.0</ele><time>2026-04-11T20:05:17Z</time></trkpt><trkpt lat="43.2022841868382" lon="11.600812334715698"><ele>306.1666666666667</ele><time>2026-04-11T20:05:20Z</time></trkpt><trkpt lat="43.20237016361605" lon="11.60080510823505"><ele>307.33333333333337</ele><time>2026-04-11T20:05:24Z</time></trkpt><trkpt lat="43.202453297385524" lon="11.600812385116006"><ele>308.5</ele><time>2026-04-11T20:05:27Z</time></trkpt><trkpt lat="43.202534114956514" lon="11.60080927874986"><ele>309.6666666666667</ele><time>2026-04-11T20:05:30Z</time></trkpt><trkpt lat="43.20260580354411" lon="11.600785527160681"><ele>310.8333333333333</ele><time>2026-04-11T20:05:33Z</time></trkpt><trkpt lat="43.202670026397875" lon="11.600750391639009"><ele>312.0</ele><time>2026-04-11T20:05:36Z</time></trkpt><trkpt lat="43.20274647185417" lon="11.600733707264595"><ele>312.0</ele><time>2026-04-11T20:05:39Z</time></trkpt><trkpt lat="43.20282767436017" lon="11.600731936806438"><ele>312.0</ele><time>2026-04-11T20:05:42Z</time></trkpt><trkpt lat="43.20290518232497" lon="11.60076086354741"><ele>312.0</ele><time>2026-04-11T20:05:45Z</time></trkpt><trkpt lat="43.2029631187913" lon="11.600814022146885"><ele>312.0</ele><time>2026-04-11T20:05:48Z</time></trkpt><trkpt lat="43.20304174495494" lon="11.600851791707154"><ele>312.0</ele><time>2026-04-11T20:05:52Z</time></trkpt><trkpt lat="43.20312267868688" lon="11.600868211637362"><ele>312.0</ele><time>2026-04-11T20:05:56Z</time></trkpt><trkpt lat="43.203200743002434" lon="11.600879956694115"><ele>313.0</ele><time>2026-04-11T20:06:00Z</time></trkpt><trkpt lat="43.2032699613004" lon="11.60088463304233"><ele>314.0</ele><time>2026-04-11T20:06:04Z</time></trkpt><trkpt lat="43.20335191120119" lon="11.600889655030725"><ele>315.0</ele><time>2026-04-11T20:06:08Z</time></trkpt><trkpt lat="43.203441701490256" lon="11.600884495066833"><ele>316.0</ele><time>2026-04-11T20:06:12Z</time></trkpt><trkpt lat="43.203510293732386" lon="11.600887804135525"><ele>317.0</ele><time>2026-04-11T20:06:16Z</time></trkpt><trkpt lat="43.20357802750667" lon="11.600878931416151"><ele>318.0</ele><time>2026-04-11T20:06:19Z</time></trkpt><trkpt lat="43.20365321210038" lon="11.600855482975604"><ele>318.0</ele><time>2026-04-11T20:06:22Z</time></trkpt><trkpt lat="43.203724682799255" lon="11.600819342642339"><ele>318.0</ele><time>2026-04-11T20:06:26Z</time></trkpt><trkpt lat="43.20378066018815" lon="11.600762528805337"><ele>318.0</ele><time>2026-04-11T20:06:29Z</time></trkpt><trkpt lat="43.20382490983236" lon="11.600669025235058"><ele>318.0</ele><time>2026-04-11T20:06:32Z</time></trkpt><trkpt lat="43.20382605174062" lon="11.600579474985471"><ele>318.0</ele><time>2026-04-11T20:06:36Z</time></trkpt><trkpt lat="43.203798345222694" lon="11.600464193690085"><ele>318.0</ele><time>2026-04-11T20:06:53Z</time></trkpt><trkpt lat="43.20377519044858" lon="11.600383658637938"><ele>318.0</ele><time>2026-04-11T20:06:55Z</time></trkpt><trkpt lat="43.20374227480395" lon="11.60030232329881"><ele>317.3333333333333</ele><time>2026-04-11T20:06:57Z</time></trkpt><trkpt lat="43.20370724121427" lon="11.600210756756551"><ele>316.6666666666667</ele><time>2026-04-11T20:06:59Z</time></trkpt><trkpt lat="43.203671367741805" lon="11.600122439173063"><ele>316.0</ele><time>2026-04-11T20:07:01Z</time></trkpt><trkpt lat="43.20363987937879" lon="11.600028689152323"><ele>315.33333333333337</ele><time>2026-04-11T20:07:03Z</time></trkpt><trkpt lat="43.20360584636561" lon="11.599933980876123"><ele>314.6666666666667</ele><time>2026-04-11T20:07:05Z</time></trkpt><trkpt lat="43.203570959994344" lon="11.599832516575033"><ele>314.0</ele><time>2026-04-11T20:07:07Z</time></trkpt><trkpt lat="43.20353542181835" lon="11.599738163939174"><ele>314.0</ele><time>2026-04-11T20:07:09Z</time></trkpt><trkpt lat="43.20350820241209" lon="11.599645568579001"><ele>314.0</ele><time>2026-04-11T20:07:11Z</time></trkpt><trkpt lat="43.20348400444966" lon="11.599553686231383"><ele>314.0</ele><time>2026-04-11T20:07:13Z</time></trkpt><trkpt lat="43.20346556990125" lon="11.59945327135162"><ele>314.0</ele><time>2026-04-11T20:07:15Z</time></trkpt><trkpt lat="43.203440689884914" lon="11.599332510856538"><ele>314.0</ele><time>2026-04-11T20:07:17Z</time></trkpt><trkpt lat="43.20340170245299" lon="11.599205409329619"><ele>314.0</ele><time>2026-04-11T20:07:19Z</time></trkpt><trkpt lat="43.20334719761293" lon="11.599084118147026"><ele>314.0</ele><time>2026-04-11T20:07:21Z</time></trkpt><trkpt lat="43.20327445607258" lon="11.598975168461255"><ele>314.0</ele><time>2026-04-11T20:07:23Z</time></trkpt><trkpt lat="43.2031807302199" lon="11.598878923352512"><ele>314.0</ele><time>2026-04-11T20:07:25Z</time></trkpt><trkpt lat="43.20307916380549" lon="11.59882776218625"><ele>314.0</ele><time>2026-04-11T20:07:27Z</time></trkpt><trkpt lat="43.202976976510506" lon="11.598793212578736"><ele>314.0</ele><time>2026-04-11T20:07:29Z</time></trkpt><trkpt lat="43.20287485909316" lon="11.598763883670928"><ele>314.0</ele><time>2026-04-11T20:07:31Z</time></trkpt><trkpt lat="43.20278075017752" lon="11.59870182181649"><ele>314.0</ele><time>2026-04-11T20:07:33Z</time></trkpt><trkpt lat="43.20272274234532" lon="11.598601598813875"><ele>314.0</ele><time>2026-04-11T20:07:35Z</time></trkpt><trkpt lat="43.20273102407594" lon="11.598463420726949"><ele>314.0</ele><time>2026-04-11T20:07:37Z</time></trkpt><trkpt lat="43.20266069947757" lon="11.598340683059012"><ele>314.0</ele><time>2026-04-11T20:07:39Z</time></trkpt><trkpt lat="43.202595602749554" lon="11.598249794204598"><ele>314.0</ele><time>2026-04-11T20:07:41Z</time></trkpt><trkpt lat="43.20253305955837" lon="11.59816498055808"><ele>314.0</ele><time>2026-04-11T20:07:43Z</time></trkpt><trkpt lat="43.2024682409982" lon="11.598069659255605"><ele>314.0</ele><time>2026-04-11T20:07:45Z</time></trkpt><trkpt lat="43.20240994776948" lon="11.59798056028796"><ele>314.0</ele><time>2026-04-11T20:07:47Z</time></trkpt><trkpt lat="43.20235614195177" lon="11.597889243854077"><ele>314.0</ele><time>2026-04-11T20:07:49Z</time></trkpt><trkpt lat="43.20230494680657" lon="11.59778729193969"><ele>314.0</ele><time>2026-04-11T20:07:51Z</time></trkpt><trkpt lat="43.2022614518353" lon="11.597680605651732"><ele>315.79999999999995</ele><time>2026-04-11T20:07:53Z</time></trkpt><trkpt lat="43.202219887838595" lon="11.597573039506976"><ele>317.59999999999997</ele><time>2026-04-11T20:07:55Z</time></trkpt><trkpt lat="43.20218069057912" lon="11.597454950696545"><ele>319.4</ele><time>2026-04-11T20:07:57Z</time></trkpt><trkpt lat="43.20214075854604" lon="11.59733909942122"><ele>321.2</ele><time>2026-04-11T20:07:59Z</time></trkpt><trkpt lat="43.20209930334459" lon="11.59723217168662"><ele>323.0</ele><time>2026-04-11T20:08:01Z</time></trkpt><trkpt lat="43.20206140211822" lon="11.597117369006206"><ele>323.0</ele><time>2026-04-11T20:08:03Z</time></trkpt><trkpt lat="43.20202183408075" lon="11.597014635560585"><ele>323.0</ele><time>2026-04-11T20:08:05Z</time></trkpt><trkpt lat="43.20197454801151" lon="11.596907956351249"><ele>323.0</ele><time>2026-04-11T20:08:07Z</time></trkpt><trkpt lat="43.20192307955531" lon="11.596809006759962"><ele>323.0</ele><time>2026-04-11T20:08:09Z</time></trkpt><trkpt lat="43.20187406312405" lon="11.596722883461055"><ele>323.0</ele><time>2026-04-11T20:08:11Z</time></trkpt><trkpt lat="43.201827631927976" lon="11.596617083450543"><ele>323.0</ele><time>2026-04-11T20:08:13Z</time></trkpt><trkpt lat="43.201789445129975" lon="11.59650266089013"><ele>322.5</ele><time>2026-04-11T20:08:15Z</time></trkpt><trkpt lat="43.201763765983074" lon="11.596389446567027"><ele>322.0</ele><time>2026-04-11T20:08:17Z</time></trkpt><trkpt lat="43.20174691043789" lon="11.596269791362015"><ele>321.5</ele><time>2026-04-11T20:08:19Z</time></trkpt><trkpt lat="43.20172949651355" lon="11.596161880289197"><ele>321.0</ele><time>2026-04-11T20:08:21Z</time></trkpt><trkpt lat="43.20171627132395" lon="11.59604702335476"><ele>320.5</ele><time>2026-04-11T20:08:23Z</time></trkpt><trkpt lat="43.20170209985578" lon="11.595930667261097"><ele>320.0</ele><time>2026-04-11T20:08:25Z</time></trkpt><trkpt lat="43.20167998557474" lon="11.59581771307036"><ele>319.1666666666667</ele><time>2026-04-11T20:08:27Z</time></trkpt><trkpt lat="43.20165699407661" lon="11.595705844364298"><ele>318.33333333333337</ele><time>2026-04-11T20:08:29Z</time></trkpt><trkpt lat="43.201624158368624" lon="11.595608719685984"><ele>317.5</ele><time>2026-04-11T20:08:31Z</time></trkpt><trkpt lat="43.20158618369239" lon="11.595506233737332"><ele>316.6666666666667</ele><time>2026-04-11T20:08:33Z</time></trkpt><trkpt lat="43.20153675029598" lon="11.595410009417687"><ele>315.8333333333333</ele><time>2026-04-11T20:08:35Z</time></trkpt><trkpt lat="43.20149870440266" lon="11.595318431238306"><ele>315.0</ele><time>2026-04-11T20:08:37Z</time></trkpt><trkpt lat="43.201469690451106" lon="11.595218705350554"><ele>317.0</ele><time>2026-04-11T20:08:39Z</time></trkpt><trkpt lat="43.201442128388486" lon="11.595116185067077"><ele>319.0</ele><time>2026-04-11T20:08:41Z</time></trkpt><trkpt lat="43.201413082603324" lon="11.595012630217047"><ele>321.0</ele><time>2026-04-11T20:08:43Z</time></trkpt><trkpt lat="43.20138703013289" lon="11.594910979829095"><ele>323.0</ele><time>2026-04-11T20:08:45Z</time></trkpt><trkpt lat="43.201362474436465" lon="11.594806651763058"><ele>325.0</ele><time>2026-04-11T20:08:47Z</time></trkpt><trkpt lat="43.201337770145464" lon="11.594687987971197"><ele>327.0</ele><time>2026-04-11T20:08:49Z</time></trkpt><trkpt lat="43.20131199387678" lon="11.59456861647701"><ele>326.0</ele><time>2026-04-11T20:08:51Z</time></trkpt><trkpt lat="43.201289039689414" lon="11.594456579766065"><ele>325.0</ele><time>2026-04-11T20:08:53Z</time></trkpt><trkpt lat="43.20127258423962" lon="11.594354346251126"><ele>324.0</ele><time>2026-04-11T20:08:55Z</time></trkpt><trkpt lat="43.20124778198243" lon="11.594245407891808"><ele>323.0</ele><time>2026-04-11T20:08:57Z</time></trkpt><trkpt lat="43.20122532684093" lon="11.594128463091902"><ele>322.0</ele><time>2026-04-11T20:08:59Z</time></trkpt><trkpt lat="43.201204886351036" lon="11.594016090752902"><ele>321.0</ele><time>2026-04-11T20:09:01Z</time></trkpt><trkpt lat="43.20118379272922" lon="11.593902052321557"><ele>321.0</ele><time>2026-04-11T20:09:03Z</time></trkpt><trkpt lat="43.201164090950286" lon="11.593791122350932"><ele>321.0</ele><time>2026-04-11T20:09:05Z</time></trkpt><trkpt lat="43.20114598135281" lon="11.59368412285861"><ele>321.0</ele><time>2026-04-11T20:09:07Z</time></trkpt><trkpt lat="43.20112014315022" lon="11.593572155024404"><ele>321.0</ele><time>2026-04-11T20:09:09Z</time></trkpt><trkpt lat="43.20108766546969" lon="11.593454440091644"><ele>321.0</ele><time>2026-04-11T20:09:11Z</time></trkpt><trkpt lat="43.20103830484341" lon="11.59334416169343"><ele>321.0</ele><time>2026-04-11T20:09:13Z</time></trkpt><trkpt lat="43.20098706365745" lon="11.593233768048405"><ele>320.1666666666667</ele><time>2026-04-11T20:09:15Z</time></trkpt><trkpt lat="43.20093711867422" lon="11.593127849415875"><ele>319.3333333333333</ele><time>2026-04-11T20:09:17Z</time></trkpt><trkpt lat="43.200886279367666" lon="11.593021329047422"><ele>318.5</ele><time>2026-04-11T20:09:19Z</time></trkpt><trkpt lat="43.20084844958216" lon="11.592916423619528"><ele>317.66666666666663</ele><time>2026-04-11T20:09:21Z</time></trkpt><trkpt lat="43.200819157622135" lon="11.592820176490791"><ele>316.8333333333333</ele><time>2026-04-11T20:09:23Z</time></trkpt><trkpt lat="43.2007826794792" lon="11.592705435776592"><ele>316.0</ele><time>2026-04-11T20:09:25Z</time></trkpt><trkpt lat="43.20075119827599" lon="11.592587223079407"><ele>316.0</ele><time>2026-04-11T20:09:27Z</time></trkpt><trkpt lat="43.20072377835587" lon="11.592464462009772"><ele>316.0</ele><time>2026-04-11T20:09:29Z</time></trkpt><trkpt lat="43.20069799724369" lon="11.592342327046474"><ele>316.0</ele><time>2026-04-11T20:09:31Z</time></trkpt><trkpt lat="43.200671289225" lon="11.592221943303915"><ele>316.0</ele><time>2026-04-11T20:09:33Z</time></trkpt><trkpt lat="43.200656286271595" lon="11.592101571663452"><ele>316.0</ele><time>2026-04-11T20:09:35Z</time></trkpt><trkpt lat="43.20063314743481" lon="11.591987769760822"><ele>316.0</ele><time>2026-04-11T20:09:37Z</time></trkpt><trkpt lat="43.20062066402225" lon="11.591853124294307"><ele>316.0</ele><time>2026-04-11T20:09:39Z</time></trkpt><trkpt lat="43.20059842680554" lon="11.591711659506574"><ele>316.0</ele><time>2026-04-11T20:09:41Z</time></trkpt><trkpt lat="43.200588160267515" lon="11.591575120918955"><ele>316.0</ele><time>2026-04-11T20:09:43Z</time></trkpt><trkpt lat="43.2005872133053" lon="11.591442331045172"><ele>316.0</ele><time>2026-04-11T20:09:45Z</time></trkpt><trkpt lat="43.20059565296712" lon="11.591306079394073"><ele>316.0</ele><time>2026-04-11T20:09:47Z</time></trkpt><trkpt lat="43.2005959245944" lon="11.591176748344898"><ele>316.0</ele><time>2026-04-11T20:09:49Z</time></trkpt><trkpt lat="43.20059819896713" lon="11.591068012664532"><ele>316.0</ele><time>2026-04-11T20:09:51Z</time></trkpt><trkpt lat="43.200602299711825" lon="11.590961714963273"><ele>316.0</ele><time>2026-04-11T20:09:53Z</time></trkpt><trkpt lat="43.200592123603315" lon="11.590852318784178"><ele>316.0</ele><time>2026-04-11T20:09:55Z</time></trkpt><trkpt lat="43.200569978873645" lon="11.590746498089567"><ele>316.0</ele><time>2026-04-11T20:09:57Z</time></trkpt><trkpt lat="43.20054085470997" lon="11.590654769366006"><ele>316.8571428571429</ele><time>2026-04-11T20:09:59Z</time></trkpt><trkpt lat="43.20049629080597" lon="11.590577227450597"><ele>317.7142857142857</ele><time>2026-04-11T20:10:01Z</time></trkpt><trkpt lat="43.2004371895755" lon="11.590512342879558"><ele>318.57142857142856</ele><time>2026-04-11T20:10:03Z</time></trkpt><trkpt lat="43.200375712227114" lon="11.590451241208578"><ele>319.42857142857144</ele><time>2026-04-11T20:10:05Z</time></trkpt><trkpt lat="43.20031436901397" lon="11.590401057588949"><ele>320.2857142857143</ele><time>2026-04-11T20:10:07Z</time></trkpt><trkpt lat="43.20024937548121" lon="11.59035398288018"><ele>321.14285714285717</ele><time>2026-04-11T20:10:09Z</time></trkpt><trkpt lat="43.20018903790309" lon="11.59031357288924"><ele>322.0</ele><time>2026-04-11T20:10:11Z</time></trkpt><trkpt lat="43.20010671280615" lon="11.5902736127213"><ele>322.16666666666663</ele><time>2026-04-11T20:10:14Z</time></trkpt><trkpt lat="43.2000396032567" lon="11.590228711086048"><ele>322.3333333333333</ele><time>2026-04-11T20:10:17Z</time></trkpt><trkpt lat="43.199963223783534" lon="11.590192323877918"><ele>322.5</ele><time>2026-04-11T20:10:20Z</time></trkpt><trkpt lat="43.19988619322094" lon="11.590148708938887"><ele>322.6666666666667</ele><time>2026-04-11T20:10:23Z</time></trkpt><trkpt lat="43.19980732884485" lon="11.590098972337676"><ele>322.83333333333337</ele><time>2026-04-11T20:10:26Z</time></trkpt><trkpt lat="43.1997224856404" lon="11.590038804852899"><ele>323.0</ele><time>2026-04-11T20:10:29Z</time></trkpt><trkpt lat="43.1996691949295" lon="11.589989632371786"><ele>324.5</ele><time>2026-04-11T20:10:32Z</time></trkpt><trkpt lat="43.19961175761481" lon="11.58991752589003"><ele>326.0</ele><time>2026-04-11T20:10:35Z</time></trkpt><trkpt lat="43.199559471377064" lon="11.589847045184987"><ele>327.5</ele><time>2026-04-11T20:10:38Z</time></trkpt><trkpt lat="43.199510163923456" lon="11.58976536706302"><ele>329.0</ele><time>2026-04-11T20:10:41Z</time></trkpt><trkpt lat="43.19947152806164" lon="11.589693272330756"><ele>330.5</ele><time>2026-04-11T20:10:43Z</time></trkpt><trkpt lat="43.19943021760681" lon="11.589607856026038"><ele>332.0</ele><time>2026-04-11T20:10:46Z</time></trkpt><trkpt lat="43.199377816644876" lon="11.589511491023776"><ele>331.8</ele><time>2026-04-11T20:10:49Z</time></trkpt><trkpt lat="43.19932655556795" lon="11.589411984266864"><ele>331.6</ele><time>2026-04-11T20:10:52Z</time></trkpt><trkpt lat="43.199278088295365" lon="11.589321934777256"><ele>331.40000000000003</ele><time>2026-04-11T20:10:55Z</time></trkpt><trkpt lat="43.1992265219603" lon="11.589232641952123"><ele>331.20000000000005</ele><time>2026-04-11T20:10:58Z</time></trkpt><trkpt lat="43.19917047830753" lon="11.589142992758461"><ele>331.0</ele><time>2026-04-11T20:11:01Z</time></trkpt><trkpt lat="43.19909354055558" lon="11.589028162398138"><ele>331.0</ele><time>2026-04-11T20:11:04Z</time></trkpt><trkpt lat="43.199038472850376" lon="11.58893532702046"><ele>331.0</ele><time>2026-04-11T20:11:06Z</time></trkpt><trkpt lat="43.1989916587517" lon="11.588857325397212"><ele>331.0</ele><time>2026-04-11T20:11:08Z</time></trkpt><trkpt lat="43.198948137638276" lon="11.58876589260833"><ele>331.0</ele><time>2026-04-11T20:11:10Z</time></trkpt><trkpt lat="43.1989032429439" lon="11.588679254807484"><ele>331.0</ele><time>2026-04-11T20:11:12Z</time></trkpt><trkpt lat="43.198856685489815" lon="11.58859956874682"><ele>331.0</ele><time>2026-04-11T20:11:14Z</time></trkpt><trkpt lat="43.198812722908336" lon="11.588520433604106"><ele>331.66666666666663</ele><time>2026-04-11T20:11:16Z</time></trkpt><trkpt lat="43.198767202540715" lon="11.588453779729782"><ele>332.3333333333333</ele><time>2026-04-11T20:11:18Z</time></trkpt><trkpt lat="43.1987228217434" lon="11.588381185311327"><ele>333.0</ele><time>2026-04-11T20:11:20Z</time></trkpt><trkpt lat="43.198665525239804" lon="11.588291670033877"><ele>333.6666666666667</ele><time>2026-04-11T20:11:23Z</time></trkpt><trkpt lat="43.19860402313306" lon="11.588194138604576"><ele>334.33333333333337</ele><time>2026-04-11T20:11:26Z</time></trkpt><trkpt lat="43.198529910101925" lon="11.58809952412204"><ele>335.0</ele><time>2026-04-11T20:11:29Z</time></trkpt><trkpt lat="43.19847682150236" lon="11.588040087848624"><ele>335.0</ele><time>2026-04-11T20:11:31Z</time></trkpt><trkpt lat="43.19841953215195" lon="11.587968210050903"><ele>335.0</ele><time>2026-04-11T20:11:33Z</time></trkpt><trkpt lat="43.19836680062821" lon="11.58790516158315"><ele>335.0</ele><time>2026-04-11T20:11:35Z</time></trkpt><trkpt lat="43.19829778262191" lon="11.587819396555862"><ele>335.0</ele><time>2026-04-11T20:11:38Z</time></trkpt><trkpt lat="43.19824429896119" lon="11.587748023199852"><ele>335.0</ele><time>2026-04-11T20:11:41Z</time></trkpt><trkpt lat="43.19817148526621" lon="11.587667032705511"><ele>335.0</ele><time>2026-04-11T20:11:44Z</time></trkpt><trkpt lat="43.198117815711996" lon="11.587596020757644"><ele>334.33333333333337</ele><time>2026-04-11T20:11:46Z</time></trkpt><trkpt lat="43.19805534142094" lon="11.587541677340022"><ele>333.6666666666667</ele><time>2026-04-11T20:11:48Z</time></trkpt><trkpt lat="43.197999316013494" lon="11.58746054160385"><ele>333.0</ele><time>2026-04-11T20:11:50Z</time></trkpt><trkpt lat="43.19794226801519" lon="11.587388513413671"><ele>332.3333333333333</ele><time>2026-04-11T20:11:52Z</time></trkpt><trkpt lat="43.19788592584239" lon="11.587318571918974"><ele>331.66666666666663</ele><time>2026-04-11T20:11:54Z</time></trkpt><trkpt lat="43.197835475842034" lon="11.587253085582462"><ele>331.0</ele><time>2026-04-11T20:11:56Z</time></trkpt><trkpt lat="43.19778107804873" lon="11.587189160393692"><ele>331.0</ele><time>2026-04-11T20:11:58Z</time></trkpt><trkpt lat="43.197724375358725" lon="11.587112547931396"><ele>331.0</ele><time>2026-04-11T20:12:00Z</time></trkpt><trkpt lat="43.19766717204575" lon="11.587031581891083"><ele>331.0</ele><time>2026-04-11T20:12:02Z</time></trkpt><trkpt lat="43.19760954693316" lon="11.586962973263034"><ele>331.0</ele><time>2026-04-11T20:12:04Z</time></trkpt><trkpt lat="43.19756171888854" lon="11.586888030813553"><ele>331.0</ele><time>2026-04-11T20:12:06Z</time></trkpt><trkpt lat="43.19750972343293" lon="11.586821500386955"><ele>331.0</ele><time>2026-04-11T20:12:08Z</time></trkpt><trkpt lat="43.19745460216771" lon="11.586758275960447"><ele>330.5</ele><time>2026-04-11T20:12:10Z</time></trkpt><trkpt lat="43.19740655376994" lon="11.586695695506126"><ele>330.0</ele><time>2026-04-11T20:12:12Z</time></trkpt><trkpt lat="43.197360656387325" lon="11.586622562968142"><ele>329.5</ele><time>2026-04-11T20:12:14Z</time></trkpt><trkpt lat="43.19730274478991" lon="11.586551524156437"><ele>329.0</ele><time>2026-04-11T20:12:16Z</time></trkpt><trkpt lat="43.1972355503292" lon="11.586468647714291"><ele>328.5</ele><time>2026-04-11T20:12:18Z</time></trkpt><trkpt lat="43.19717215195169" lon="11.586375276798828"><ele>328.0</ele><time>2026-04-11T20:12:20Z</time></trkpt><trkpt lat="43.19710509903574" lon="11.586285947158405"><ele>327.79999999999995</ele><time>2026-04-11T20:12:22Z</time></trkpt><trkpt lat="43.19703513323369" lon="11.5861973885316"><ele>327.6</ele><time>2026-04-11T20:12:24Z</time></trkpt><trkpt lat="43.19696123716271" lon="11.586103477145635"><ele>327.4</ele><time>2026-04-11T20:12:26Z</time></trkpt><trkpt lat="43.19688643370029" lon="11.5860087005724"><ele>327.20000000000005</ele><time>2026-04-11T20:12:28Z</time></trkpt><trkpt lat="43.19681097326496" lon="11.585912136182165"><ele>327.0</ele><time>2026-04-11T20:12:30Z</time></trkpt><trkpt lat="43.19673744889118" lon="11.585820023688491"><ele>327.0</ele><time>2026-04-11T20:12:32Z</time></trkpt><trkpt lat="43.196672671042066" lon="11.58573213405228"><ele>327.0</ele><time>2026-04-11T20:12:34Z</time></trkpt><trkpt lat="43.196611788395685" lon="11.585648933987839"><ele>327.0</ele><time>2026-04-11T20:12:36Z</time></trkpt><trkpt lat="43.19655066877796" lon="11.585565000985598"><ele>327.0</ele><time>2026-04-11T20:12:38Z</time></trkpt><trkpt lat="43.196486856071026" lon="11.585477191766227"><ele>327.0</ele><time>2026-04-11T20:12:40Z</time></trkpt><trkpt lat="43.196433806505475" lon="11.585393943612482"><ele>327.0</ele><time>2026-04-11T20:12:42Z</time></trkpt><trkpt lat="43.196379990219484" lon="11.58531884265983"><ele>327.0</ele><time>2026-04-11T20:12:44Z</time></trkpt><trkpt lat="43.19632953158354" lon="11.585251954587699"><ele>327.0</ele><time>2026-04-11T20:12:46Z</time></trkpt><trkpt lat="43.19627891958654" lon="11.58518366601459"><ele>327.0</ele><time>2026-04-11T20:12:48Z</time></trkpt><trkpt lat="43.1962189365172" lon="11.585098912092949"><ele>327.0</ele><time>2026-04-11T20:12:50Z</time></trkpt><trkpt lat="43.1961597647121" lon="11.585007293807548"><ele>327.0</ele><time>2026-04-11T20:12:52Z</time></trkpt><trkpt lat="43.1960959811555" lon="11.584911241484484"><ele>327.0</ele><time>2026-04-11T20:12:54Z</time></trkpt><trkpt lat="43.196033885531726" lon="11.584822155351581"><ele>327.0</ele><time>2026-04-11T20:12:56Z</time></trkpt><trkpt lat="43.195972661822594" lon="11.584727375924897"><ele>327.0</ele><time>2026-04-11T20:12:58Z</time></trkpt><trkpt lat="43.195911814927015" lon="11.584639164460484"><ele>327.0</ele><time>2026-04-11T20:13:00Z</time></trkpt><trkpt lat="43.19585267678498" lon="11.584557748116842"><ele>327.0</ele><time>2026-04-11T20:13:02Z</time></trkpt><trkpt lat="43.195796679135135" lon="11.584474567407502"><ele>327.0</ele><time>2026-04-11T20:13:04Z</time></trkpt><trkpt lat="43.1957366585247" lon="11.58438294985942"><ele>327.0</ele><time>2026-04-11T20:13:06Z</time></trkpt><trkpt lat="43.19567321877531" lon="11.584288255049499"><ele>327.20000000000005</ele><time>2026-04-11T20:13:08Z</time></trkpt><trkpt lat="43.1956059908917" lon="11.584183521304933"><ele>327.4</ele><time>2026-04-11T20:13:10Z</time></trkpt><trkpt lat="43.195538166160134" lon="11.584089621534828"><ele>327.6</ele><time>2026-04-11T20:13:12Z</time></trkpt><trkpt lat="43.19547591479353" lon="11.584000039602895"><ele>327.79999999999995</ele><time>2026-04-11T20:13:14Z</time></trkpt><trkpt lat="43.19542265464079" lon="11.58390913972946"><ele>328.0</ele><time>2026-04-11T20:13:16Z</time></trkpt><trkpt lat="43.195365120337335" lon="11.583816221146956"><ele>328.0</ele><time>2026-04-11T20:13:18Z</time></trkpt><trkpt lat="43.19530163923935" lon="11.583725057554329"><ele>328.0</ele><time>2026-04-11T20:13:20Z</time></trkpt><trkpt lat="43.195238612086484" lon="11.583630519295346"><ele>328.0</ele><time>2026-04-11T20:13:22Z</time></trkpt><trkpt lat="43.19517658898136" lon="11.583538681910516"><ele>328.0</ele><time>2026-04-11T20:13:24Z</time></trkpt><trkpt lat="43.1951165103053" lon="11.58345854632882"><ele>328.0</ele><time>2026-04-11T20:13:26Z</time></trkpt><trkpt lat="43.1950645788043" lon="11.583375682056063"><ele>328.0</ele><time>2026-04-11T20:13:28Z</time></trkpt><trkpt lat="43.19501266107496" lon="11.58328939204401"><ele>328.66666666666663</ele><time>2026-04-11T20:13:30Z</time></trkpt><trkpt lat="43.19494959265075" lon="11.58320623654573"><ele>329.3333333333333</ele><time>2026-04-11T20:13:32Z</time></trkpt><trkpt lat="43.19488899749531" lon="11.58311334409306"><ele>330.0</ele><time>2026-04-11T20:13:34Z</time></trkpt><trkpt lat="43.19483074760436" lon="11.583040969926056"><ele>330.6666666666667</ele><time>2026-04-11T20:13:36Z</time></trkpt><trkpt lat="43.194777536450616" lon="11.582947188022482"><ele>331.33333333333337</ele><time>2026-04-11T20:13:38Z</time></trkpt><trkpt lat="43.19470915147355" lon="11.5828538752342"><ele>332.0</ele><time>2026-04-11T20:13:40Z</time></trkpt><trkpt lat="43.1946336521256" lon="11.582777913539802"><ele>332.40000000000003</ele><time>2026-04-11T20:13:42Z</time></trkpt><trkpt lat="43.19454700217462" lon="11.582724457443303"><ele>332.8</ele><time>2026-04-11T20:13:44Z</time></trkpt><trkpt lat="43.19445506967555" lon="11.582695323109236"><ele>333.2</ele><time>2026-04-11T20:13:46Z</time></trkpt><trkpt lat="43.194357551507906" lon="11.582704103682689"><ele>333.6</ele><time>2026-04-11T20:13:48Z</time></trkpt><trkpt lat="43.194260829939985" lon="11.582744002715668"><ele>334.0</ele><time>2026-04-11T20:13:50Z</time></trkpt><trkpt lat="43.19417857297847" lon="11.582792226660985"><ele>333.8333333333333</ele><time>2026-04-11T20:13:52Z</time></trkpt><trkpt lat="43.19411633560502" lon="11.582854437712603"><ele>333.66666666666663</ele><time>2026-04-11T20:13:54Z</time></trkpt><trkpt lat="43.19404945995523" lon="11.582940399845128"><ele>333.5</ele><time>2026-04-11T20:13:56Z</time></trkpt><trkpt lat="43.19398497548552" lon="11.583032862915235"><ele>333.3333333333333</ele><time>2026-04-11T20:13:58Z</time></trkpt><trkpt lat="43.19393041195679" lon="11.583138210143034"><ele>333.1666666666667</ele><time>2026-04-11T20:14:00Z</time></trkpt><trkpt lat="43.19387143237763" lon="11.583236802364913"><ele>333.0</ele><time>2026-04-11T20:14:02Z</time></trkpt><trkpt lat="43.19381702477386" lon="11.583338632785939"><ele>332.79999999999995</ele><time>2026-04-11T20:14:04Z</time></trkpt><trkpt lat="43.19376050495366" lon="11.583448449206623"><ele>332.6</ele><time>2026-04-11T20:14:06Z</time></trkpt><trkpt lat="43.19370633270717" lon="11.583552797238495"><ele>332.4</ele><time>2026-04-11T20:14:08Z</time></trkpt><trkpt lat="43.19364874037329" lon="11.58365557148896"><ele>332.20000000000005</ele><time>2026-04-11T20:14:10Z</time></trkpt><trkpt lat="43.19359435546693" lon="11.583756111197355"><ele>332.0</ele><time>2026-04-11T20:14:12Z</time></trkpt><trkpt lat="43.19353156609503" lon="11.583860162277283"><ele>332.0</ele><time>2026-04-11T20:14:14Z</time></trkpt><trkpt lat="43.193498103961154" lon="11.58394612547156"><ele>332.0</ele><time>2026-04-11T20:14:16Z</time></trkpt><trkpt lat="43.1934156547339" lon="11.584026539994095"><ele>332.0</ele><time>2026-04-11T20:14:17Z</time></trkpt><trkpt lat="43.19336183576214" lon="11.584130308177139"><ele>332.0</ele><time>2026-04-11T20:14:19Z</time></trkpt><trkpt lat="43.19329788388428" lon="11.5842286681422"><ele>332.0</ele><time>2026-04-11T20:14:21Z</time></trkpt><trkpt lat="43.193241766261046" lon="11.584338747534792"><ele>332.0</ele><time>2026-04-11T20:14:23Z</time></trkpt><trkpt lat="43.1931867728053" lon="11.584442015832291"><ele>332.0</ele><time>2026-04-11T20:14:25Z</time></trkpt><trkpt lat="43.19312429576688" lon="11.584539796263858"><ele>332.0</ele><time>2026-04-11T20:14:27Z</time></trkpt><trkpt lat="43.19306824702224" lon="11.584637733564895"><ele>332.0</ele><time>2026-04-11T20:14:29Z</time></trkpt><trkpt lat="43.193010311939574" lon="11.584740301340934"><ele>332.0</ele><time>2026-04-11T20:14:31Z</time></trkpt><trkpt lat="43.19295069004142" lon="11.584836836189002"><ele>332.0</ele><time>2026-04-11T20:14:33Z</time></trkpt><trkpt lat="43.19290425368636" lon="11.584924158931448"><ele>332.0</ele><time>2026-04-11T20:14:35Z</time></trkpt><trkpt lat="43.19286560110896" lon="11.5850430209041"><ele>332.0</ele><time>2026-04-11T20:14:37Z</time></trkpt><trkpt lat="43.19284218369319" lon="11.585132924745611"><ele>332.0</ele><time>2026-04-11T20:14:39Z</time></trkpt><trkpt lat="43.19277897747628" lon="11.585240184751852"><ele>332.0</ele><time>2026-04-11T20:14:41Z</time></trkpt><trkpt lat="43.19272053633828" lon="11.585341021821288"><ele>332.0</ele><time>2026-04-11T20:14:43Z</time></trkpt><trkpt lat="43.192664258677574" lon="11.58544491456972"><ele>333.20000000000005</ele><time>2026-04-11T20:14:45Z</time></trkpt><trkpt lat="43.19261021965431" lon="11.58555166266364"><ele>334.4</ele><time>2026-04-11T20:14:47Z</time></trkpt><trkpt lat="43.19255078140799" lon="11.585654345174827"><ele>335.6</ele><time>2026-04-11T20:14:49Z</time></trkpt><trkpt lat="43.19248954598384" lon="11.585756141824676"><ele>336.79999999999995</ele><time>2026-04-11T20:14:51Z</time></trkpt><trkpt lat="43.192424995436596" lon="11.585858410502448"><ele>338.0</ele><time>2026-04-11T20:14:53Z</time></trkpt><trkpt lat="43.1923610544532" lon="11.58596267619782"><ele>338.4</ele><time>2026-04-11T20:14:55Z</time></trkpt><trkpt lat="43.19230593577503" lon="11.586069593936653"><ele>338.79999999999995</ele><time>2026-04-11T20:14:57Z</time></trkpt><trkpt lat="43.19224544986363" lon="11.586169103858305"><ele>339.2</ele><time>2026-04-11T20:14:59Z</time></trkpt><trkpt lat="43.192181672170406" lon="11.586272254081301"><ele>339.6</ele><time>2026-04-11T20:15:01Z</time></trkpt><trkpt lat="43.192110914552906" lon="11.586364603275314"><ele>340.0</ele><time>2026-04-11T20:15:03Z</time></trkpt><trkpt lat="43.1920296266682" lon="11.586430671612577"><ele>340.0</ele><time>2026-04-11T20:15:05Z</time></trkpt><trkpt lat="43.19194823870685" lon="11.586493673071683"><ele>340.0</ele><time>2026-04-11T20:15:07Z</time></trkpt><trkpt lat="43.19185693647228" lon="11.58654826982039"><ele>340.0</ele><time>2026-04-11T20:15:09Z</time></trkpt><trkpt lat="43.19177093555069" lon="11.58658856371991"><ele>340.0</ele><time>2026-04-11T20:15:11Z</time></trkpt><trkpt lat="43.19167775605452" lon="11.586616145683145"><ele>340.0</ele><time>2026-04-11T20:15:13Z</time></trkpt><trkpt lat="43.19158805337651" lon="11.586636360724638"><ele>340.0</ele><time>2026-04-11T20:15:15Z</time></trkpt><trkpt lat="43.19149947371611" lon="11.586651401141346"><ele>340.0</ele><time>2026-04-11T20:15:17Z</time></trkpt><trkpt lat="43.19140857752674" lon="11.586659344932894"><ele>340.0</ele><time>2026-04-11T20:15:19Z</time></trkpt><trkpt lat="43.19131892786142" lon="11.586662584573846"><ele>340.0</ele><time>2026-04-11T20:15:21Z</time></trkpt><trkpt lat="43.191227597680566" lon="11.58665201159076"><ele>340.0</ele><time>2026-04-11T20:15:23Z</time></trkpt><trkpt lat="43.19113640984506" lon="11.586634972688318"><ele>340.0</ele><time>2026-04-11T20:15:25Z</time></trkpt><trkpt lat="43.19104396730383" lon="11.586616513772952"><ele>340.0</ele><time>2026-04-11T20:15:27Z</time></trkpt><trkpt lat="43.19095500084459" lon="11.586581039230602"><ele>340.0</ele><time>2026-04-11T20:15:29Z</time></trkpt><trkpt lat="43.19086158959478" lon="11.58654278667911"><ele>340.0</ele><time>2026-04-11T20:15:31Z</time></trkpt><trkpt lat="43.19077800088585" lon="11.58650785887478"><ele>340.0</ele><time>2026-04-11T20:15:33Z</time></trkpt><trkpt lat="43.19070918163653" lon="11.586456089042606"><ele>340.0</ele><time>2026-04-11T20:15:35Z</time></trkpt><trkpt lat="43.190649957907524" lon="11.586407308890902"><ele>339.66666666666663</ele><time>2026-04-11T20:15:37Z</time></trkpt><trkpt lat="43.19057402502345" lon="11.586357006052753"><ele>339.3333333333333</ele><time>2026-04-11T20:15:40Z</time></trkpt><trkpt lat="43.19051884572854" lon="11.58629739525388"><ele>339.0</ele><time>2026-04-11T20:15:43Z</time></trkpt><trkpt lat="43.19047022452352" lon="11.58623736762087"><ele>338.6666666666667</ele><time>2026-04-11T20:15:45Z</time></trkpt><trkpt lat="43.19042376351774" lon="11.586160834089833"><ele>338.33333333333337</ele><time>2026-04-11T20:15:47Z</time></trkpt><trkpt lat="43.19036989006761" lon="11.586095682674202"><ele>338.0</ele><time>2026-04-11T20:15:49Z</time></trkpt><trkpt lat="43.190302813809495" lon="11.586012045811719"><ele>338.0</ele><time>2026-04-11T20:15:52Z</time></trkpt><trkpt lat="43.19024961232454" lon="11.585925967239994"><ele>338.0</ele><time>2026-04-11T20:15:55Z</time></trkpt><trkpt lat="43.19019468891719" lon="11.585844196097662"><ele>338.0</ele><time>2026-04-11T20:15:57Z</time></trkpt><trkpt lat="43.19013576217692" lon="11.585790253754979"><ele>338.0</ele><time>2026-04-11T20:15:59Z</time></trkpt><trkpt lat="43.1900904867037" lon="11.585716496593994"><ele>338.0</ele><time>2026-04-11T20:16:01Z</time></trkpt><trkpt lat="43.19003838970855" lon="11.58563686215547"><ele>338.0</ele><time>2026-04-11T20:16:03Z</time></trkpt><trkpt lat="43.18998212965923" lon="11.585558293496614"><ele>338.0</ele><time>2026-04-11T20:16:05Z</time></trkpt><trkpt lat="43.18991833141073" lon="11.585483668810587"><ele>338.0</ele><time>2026-04-11T20:16:07Z</time></trkpt><trkpt lat="43.18985451745424" lon="11.585422386472075"><ele>338.0</ele><time>2026-04-11T20:16:09Z</time></trkpt><trkpt lat="43.18980191254763" lon="11.585360046898137"><ele>338.0</ele><time>2026-04-11T20:16:11Z</time></trkpt><trkpt lat="43.189754416726494" lon="11.585286271693333"><ele>338.0</ele><time>2026-04-11T20:16:13Z</time></trkpt><trkpt lat="43.18969242223734" lon="11.585212803263115"><ele>338.0</ele><time>2026-04-11T20:16:15Z</time></trkpt><trkpt lat="43.189628559494395" lon="11.585136936282362"><ele>337.5</ele><time>2026-04-11T20:16:17Z</time></trkpt><trkpt lat="43.18955940819889" lon="11.585060570795472"><ele>337.0</ele><time>2026-04-11T20:16:19Z</time></trkpt><trkpt lat="43.18949467576676" lon="11.584961647264018"><ele>336.5</ele><time>2026-04-11T20:16:21Z</time></trkpt><trkpt lat="43.18942932689113" lon="11.584886674919987"><ele>336.0</ele><time>2026-04-11T20:16:23Z</time></trkpt><trkpt lat="43.18936321118829" lon="11.584822123403669"><ele>335.5</ele><time>2026-04-11T20:16:25Z</time></trkpt><trkpt lat="43.1893067212988" lon="11.584744659712872"><ele>335.0</ele><time>2026-04-11T20:16:27Z</time></trkpt><trkpt lat="43.18925265980724" lon="11.584679224505074"><ele>335.0</ele><time>2026-04-11T20:16:29Z</time></trkpt><trkpt lat="43.18919242769355" lon="11.584613499744075"><ele>335.0</ele><time>2026-04-11T20:16:31Z</time></trkpt><trkpt lat="43.18912339702452" lon="11.584537293573586"><ele>335.0</ele><time>2026-04-11T20:16:33Z</time></trkpt><trkpt lat="43.1890532767409" lon="11.584459151318184"><ele>335.0</ele><time>2026-04-11T20:16:35Z</time></trkpt><trkpt lat="43.188982798152395" lon="11.58437873165801"><ele>335.0</ele><time>2026-04-11T20:16:37Z</time></trkpt><trkpt lat="43.188910809132715" lon="11.58430253689072"><ele>335.0</ele><time>2026-04-11T20:16:39Z</time></trkpt><trkpt lat="43.18884284595575" lon="11.584224629343032"><ele>335.5</ele><time>2026-04-11T20:16:41Z</time></trkpt><trkpt lat="43.188776011979726" lon="11.58415104869746"><ele>336.0</ele><time>2026-04-11T20:16:43Z</time></trkpt><trkpt lat="43.188714220776454" lon="11.584076930085354"><ele>336.5</ele><time>2026-04-11T20:16:45Z</time></trkpt><trkpt lat="43.188650969641664" lon="11.584011624448623"><ele>337.0</ele><time>2026-04-11T20:16:47Z</time></trkpt><trkpt lat="43.18858703556992" lon="11.583935297317794"><ele>337.5</ele><time>2026-04-11T20:16:49Z</time></trkpt><trkpt lat="43.188529017857356" lon="11.583873433535787"><ele>338.0</ele><time>2026-04-11T20:16:51Z</time></trkpt><trkpt lat="43.1884514651261" lon="11.583794114968413"><ele>338.0</ele><time>2026-04-11T20:16:54Z</time></trkpt><trkpt lat="43.18839395547343" lon="11.583727828614572"><ele>338.0</ele><time>2026-04-11T20:16:56Z</time></trkpt><trkpt lat="43.18833796839497" lon="11.583666578825587"><ele>338.0</ele><time>2026-04-11T20:16:58Z</time></trkpt><trkpt lat="43.18827565522384" lon="11.583615394703079"><ele>338.0</ele><time>2026-04-11T20:17:00Z</time></trkpt><trkpt lat="43.18820386110922" lon="11.583566080092867"><ele>338.0</ele><time>2026-04-11T20:17:02Z</time></trkpt><trkpt lat="43.18813008703724" lon="11.583533279031757"><ele>338.0</ele><time>2026-04-11T20:17:04Z</time></trkpt><trkpt lat="43.18805414261563" lon="11.583498048363852"><ele>338.0</ele><time>2026-04-11T20:17:06Z</time></trkpt><trkpt lat="43.187974793347415" lon="11.58347398317494"><ele>338.0</ele><time>2026-04-11T20:17:08Z</time></trkpt><trkpt lat="43.187891933911786" lon="11.583454420868073"><ele>338.0</ele><time>2026-04-11T20:17:10Z</time></trkpt><trkpt lat="43.18780816547979" lon="11.58344418934222"><ele>338.0</ele><time>2026-04-11T20:17:12Z</time></trkpt><trkpt lat="43.18772575223233" lon="11.583445192229519"><ele>338.0</ele><time>2026-04-11T20:17:14Z</time></trkpt><trkpt lat="43.18764133707012" lon="11.583444397490808"><ele>338.0</ele><time>2026-04-11T20:17:16Z</time></trkpt><trkpt lat="43.18755542111354" lon="11.58344481769476"><ele>338.0</ele><time>2026-04-11T20:17:18Z</time></trkpt><trkpt lat="43.18747491858504" lon="11.583439556139236"><ele>338.0</ele><time>2026-04-11T20:17:20Z</time></trkpt><trkpt lat="43.18738850462279" lon="11.583428207772888"><ele>338.0</ele><time>2026-04-11T20:17:22Z</time></trkpt><trkpt lat="43.18730012815073" lon="11.58341522478775"><ele>338.0</ele><time>2026-04-11T20:17:24Z</time></trkpt><trkpt lat="43.18721511377573" lon="11.58338282186474"><ele>338.0</ele><time>2026-04-11T20:17:26Z</time></trkpt><trkpt lat="43.18713789540953" lon="11.583340563444635"><ele>338.0</ele><time>2026-04-11T20:17:28Z</time></trkpt><trkpt lat="43.18706735475958" lon="11.583285166664284"><ele>339.14285714285717</ele><time>2026-04-11T20:17:30Z</time></trkpt><trkpt lat="43.187010030563876" lon="11.583234540640138"><ele>340.2857142857143</ele><time>2026-04-11T20:17:32Z</time></trkpt><trkpt lat="43.18696194614272" lon="11.583173781134125"><ele>341.42857142857144</ele><time>2026-04-11T20:17:34Z</time></trkpt><trkpt lat="43.186917815444474" lon="11.58310045575469"><ele>342.57142857142856</ele><time>2026-04-11T20:17:36Z</time></trkpt><trkpt lat="43.1868756019349" lon="11.583014842980022"><ele>343.7142857142857</ele><time>2026-04-11T20:17:38Z</time></trkpt><trkpt lat="43.18683955997089" lon="11.582919557268852"><ele>344.85714285714283</ele><time>2026-04-11T20:17:40Z</time></trkpt><trkpt lat="43.18680773188701" lon="11.58282352697878"><ele>346.0</ele><time>2026-04-11T20:17:42Z</time></trkpt><trkpt lat="43.18678221783346" lon="11.582723573796923"><ele>346.2857142857143</ele><time>2026-04-11T20:17:44Z</time></trkpt><trkpt lat="43.18676392030257" lon="11.582624664236096"><ele>346.5714285714286</ele><time>2026-04-11T20:17:46Z</time></trkpt><trkpt lat="43.18674322831643" lon="11.582529167485411"><ele>346.8571428571429</ele><time>2026-04-11T20:17:48Z</time></trkpt><trkpt lat="43.1867270893335" lon="11.58242871457262"><ele>347.1428571428571</ele><time>2026-04-11T20:17:50Z</time></trkpt><trkpt lat="43.18671026036107" lon="11.582326023843844"><ele>347.42857142857144</ele><time>2026-04-11T20:17:52Z</time></trkpt><trkpt lat="43.1866909071822" lon="11.582226488451374"><ele>347.7142857142857</ele><time>2026-04-11T20:17:54Z</time></trkpt><trkpt lat="43.186670676907994" lon="11.582128035552985"><ele>348.0</ele><time>2026-04-11T20:17:56Z</time></trkpt><trkpt lat="43.18664163047624" lon="11.582032975784589"><ele>347.6666666666667</ele><time>2026-04-11T20:17:58Z</time></trkpt><trkpt lat="43.186606973972395" lon="11.581941691432911"><ele>347.3333333333333</ele><time>2026-04-11T20:18:00Z</time></trkpt><trkpt lat="43.18655177847478" lon="11.581880454419045"><ele>347.0</ele><time>2026-04-11T20:18:03Z</time></trkpt><trkpt lat="43.186478181582764" lon="11.581816518986495"><ele>346.66666666666663</ele><time>2026-04-11T20:18:06Z</time></trkpt><trkpt lat="43.18639369156821" lon="11.581772252572986"><ele>346.3333333333333</ele><time>2026-04-11T20:18:09Z</time></trkpt><trkpt lat="43.186332965357174" lon="11.581741704533286"><ele>346.0</ele><time>2026-04-11T20:18:11Z</time></trkpt><trkpt lat="43.18627260468272" lon="11.581709919315063"><ele>347.66666666666663</ele><time>2026-04-11T20:18:13Z</time></trkpt><trkpt lat="43.18619290806775" lon="11.581662061416573"><ele>349.3333333333333</ele><time>2026-04-11T20:18:16Z</time></trkpt><trkpt lat="43.1861179661738" lon="11.58160663940783"><ele>351.0</ele><time>2026-04-11T20:18:19Z</time></trkpt><trkpt lat="43.186041971581815" lon="11.581552076940799"><ele>352.6666666666667</ele><time>2026-04-11T20:18:22Z</time></trkpt><trkpt lat="43.18596250747604" lon="11.581498728671221"><ele>354.33333333333337</ele><time>2026-04-11T20:18:25Z</time></trkpt><trkpt lat="43.185879041274426" lon="11.581441565180887"><ele>356.0</ele><time>2026-04-11T20:18:28Z</time></trkpt><trkpt lat="43.185822068520075" lon="11.581399483943189"><ele>356.0</ele><time>2026-04-11T20:18:30Z</time></trkpt><trkpt lat="43.18577082273003" lon="11.581339107565086"><ele>356.0</ele><time>2026-04-11T20:18:32Z</time></trkpt><trkpt lat="43.18570079099338" lon="11.581270434572824"><ele>356.0</ele><time>2026-04-11T20:18:35Z</time></trkpt><trkpt lat="43.185639424395696" lon="11.581198920969914"><ele>356.0</ele><time>2026-04-11T20:18:38Z</time></trkpt><trkpt lat="43.185568742531366" lon="11.5811223901122"><ele>356.0</ele><time>2026-04-11T20:18:40Z</time></trkpt><trkpt lat="43.185523153063116" lon="11.581042366497341"><ele>356.0</ele><time>2026-04-11T20:18:42Z</time></trkpt><trkpt lat="43.18547404586266" lon="11.58097609732964"><ele>357.0</ele><time>2026-04-11T20:18:44Z</time></trkpt><trkpt lat="43.18542389560948" lon="11.580922532090822"><ele>358.0</ele><time>2026-04-11T20:18:46Z</time></trkpt><trkpt lat="43.18535198031783" lon="11.580844398625214"><ele>359.0</ele><time>2026-04-11T20:18:49Z</time></trkpt><trkpt lat="43.185280378527885" lon="11.580777677547465"><ele>360.0</ele><time>2026-04-11T20:18:52Z</time></trkpt><trkpt lat="43.185218156462554" lon="11.580733692490933"><ele>361.0</ele><time>2026-04-11T20:18:55Z</time></trkpt><trkpt lat="43.18514851046549" lon="11.580695493829172"><ele>362.0</ele><time>2026-04-11T20:18:58Z</time></trkpt><trkpt lat="43.185075653595575" lon="11.580665687669109"><ele>362.0</ele><time>2026-04-11T20:19:01Z</time></trkpt><trkpt lat="43.18500140663804" lon="11.580619145036422"><ele>362.0</ele><time>2026-04-11T20:19:04Z</time></trkpt><trkpt lat="43.18492780589705" lon="11.58056025313944"><ele>362.0</ele><time>2026-04-11T20:19:07Z</time></trkpt><trkpt lat="43.18485492851048" lon="11.580491283323513"><ele>362.0</ele><time>2026-04-11T20:19:10Z</time></trkpt><trkpt lat="43.18481199665694" lon="11.580427475833138"><ele>362.0</ele><time>2026-04-11T20:19:12Z</time></trkpt><trkpt lat="43.184768380181374" lon="11.580361624178982"><ele>362.0</ele><time>2026-04-11T20:19:14Z</time></trkpt><trkpt lat="43.18470869503403" lon="11.580268590876447"><ele>363.6666666666667</ele><time>2026-04-11T20:19:17Z</time></trkpt><trkpt lat="43.18465647469869" lon="11.580161077801227"><ele>365.33333333333337</ele><time>2026-04-11T20:19:20Z</time></trkpt><trkpt lat="43.184623112347566" lon="11.58008712283108"><ele>367.0</ele><time>2026-04-11T20:19:22Z</time></trkpt><trkpt lat="43.18457052482402" lon="11.57998986834176"><ele>368.6666666666667</ele><time>2026-04-11T20:19:25Z</time></trkpt><trkpt lat="43.184524198773445" lon="11.579881387500913"><ele>370.3333333333333</ele><time>2026-04-11T20:19:28Z</time></trkpt><trkpt lat="43.18448116529557" lon="11.579775498715907"><ele>372.0</ele><time>2026-04-11T20:19:31Z</time></trkpt><trkpt lat="43.18444932344424" lon="11.579657382734135"><ele>372.00000000000006</ele><time>2026-04-11T20:19:34Z</time></trkpt><trkpt lat="43.184431822184386" lon="11.579574282891068"><ele>372.0</ele><time>2026-04-11T20:19:36Z</time></trkpt><trkpt lat="43.184423386972504" lon="11.579483226072673"><ele>372.0</ele><time>2026-04-11T20:19:37Z</time></trkpt><trkpt lat="43.18441732453148" lon="11.579393438608342"><ele>372.0</ele><time>2026-04-11T20:19:39Z</time></trkpt><trkpt lat="43.18443560010341" lon="11.579296362176896"><ele>372.0</ele><time>2026-04-11T20:19:41Z</time></trkpt><trkpt lat="43.18444062631035" lon="11.579200132870861"><ele>372.00000000000006</ele><time>2026-04-11T20:19:43Z</time></trkpt><trkpt lat="43.18445460832153" lon="11.579111642653523"><ele>372.0</ele><time>2026-04-11T20:19:45Z</time></trkpt><trkpt lat="43.18445934278985" lon="11.579024413780234"><ele>370.8333333333333</ele><time>2026-04-11T20:19:47Z</time></trkpt><trkpt lat="43.18445973337533" lon="11.578935554546414"><ele>369.6666666666667</ele><time>2026-04-11T20:19:49Z</time></trkpt><trkpt lat="43.18447085910013" lon="11.578838472389837"><ele>368.5</ele><time>2026-04-11T20:19:51Z</time></trkpt><trkpt lat="43.18447444942445" lon="11.578728157499448"><ele>367.33333333333337</ele><time>2026-04-11T20:19:53Z</time></trkpt><trkpt lat="43.18445801404636" lon="11.578616433055728"><ele>366.1666666666667</ele><time>2026-04-11T20:19:55Z</time></trkpt><trkpt lat="43.184421013791585" lon="11.578504869716355"><ele>365.0</ele><time>2026-04-11T20:19:57Z</time></trkpt><trkpt lat="43.18436121713106" lon="11.57839964292416"><ele>364.25</ele><time>2026-04-11T20:19:59Z</time></trkpt><trkpt lat="43.18427471522676" lon="11.578319407783034"><ele>363.5</ele><time>2026-04-11T20:20:01Z</time></trkpt><trkpt lat="43.18417700483355" lon="11.57825467573388"><ele>362.75</ele><time>2026-04-11T20:20:03Z</time></trkpt><trkpt lat="43.184064769169424" lon="11.578202736308603"><ele>362.0</ele><time>2026-04-11T20:20:05Z</time></trkpt><trkpt lat="43.18394209846883" lon="11.578160019640045"><ele>362.0</ele><time>2026-04-11T20:20:07Z</time></trkpt><trkpt lat="43.18387644068643" lon="11.578140161103898"><ele>362.0</ele><time>2026-04-11T20:20:08Z</time></trkpt><trkpt lat="43.18381037781338" lon="11.57811690659633"><ele>362.0</ele><time>2026-04-11T20:20:09Z</time></trkpt><trkpt lat="43.183743640916624" lon="11.578086827941418"><ele>362.0</ele><time>2026-04-11T20:20:10Z</time></trkpt><trkpt lat="43.18367753351876" lon="11.578053460356035"><ele>362.0</ele><time>2026-04-11T20:20:11Z</time></trkpt><trkpt lat="43.183609089149" lon="11.578030259039068"><ele>362.0</ele><time>2026-04-11T20:20:12Z</time></trkpt><trkpt lat="43.18354442073341" lon="11.577998336335972"><ele>362.0</ele><time>2026-04-11T20:20:13Z</time></trkpt><trkpt lat="43.18347866309294" lon="11.57796074045915"><ele>362.0</ele><time>2026-04-11T20:20:14Z</time></trkpt><trkpt lat="43.18341302718204" lon="11.577931668010747"><ele>362.0</ele><time>2026-04-11T20:20:15Z</time></trkpt><trkpt lat="43.18334749935209" lon="11.57790664570265"><ele>362.0</ele><time>2026-04-11T20:20:16Z</time></trkpt><trkpt lat="43.18328453976018" lon="11.577893801538044"><ele>362.0</ele><time>2026-04-11T20:20:17Z</time></trkpt><trkpt lat="43.18316435981929" lon="11.577912600070167"><ele>362.0</ele><time>2026-04-11T20:20:19Z</time></trkpt><trkpt lat="43.183074114716256" lon="11.57798221892483"><ele>362.0</ele><time>2026-04-11T20:20:21Z</time></trkpt><trkpt lat="43.183009887428526" lon="11.578056728850067"><ele>360.85714285714283</ele><time>2026-04-11T20:20:23Z</time></trkpt><trkpt lat="43.182950704222975" lon="11.57813963717267"><ele>359.71428571428567</ele><time>2026-04-11T20:20:26Z</time></trkpt><trkpt lat="43.18290477697732" lon="11.578202334600606"><ele>358.57142857142856</ele><time>2026-04-11T20:20:29Z</time></trkpt><trkpt lat="43.182856735649395" lon="11.578283265596761"><ele>357.42857142857144</ele><time>2026-04-11T20:20:32Z</time></trkpt><trkpt lat="43.182806093470134" lon="11.578355385303855"><ele>356.2857142857143</ele><time>2026-04-11T20:20:35Z</time></trkpt><trkpt lat="43.18275338199565" lon="11.578422453534294"><ele>355.14285714285717</ele><time>2026-04-11T20:20:38Z</time></trkpt><trkpt lat="43.1827155079124" lon="11.578495928498805"><ele>354.0</ele><time>2026-04-11T20:20:41Z</time></trkpt><trkpt lat="43.18266644285464" lon="11.578563598992773"><ele>354.0</ele><time>2026-04-11T20:20:44Z</time></trkpt><trkpt lat="43.18262333572592" lon="11.578636162159365"><ele>354.0</ele><time>2026-04-11T20:20:47Z</time></trkpt><trkpt lat="43.182587272741905" lon="11.578711140338404"><ele>354.0</ele><time>2026-04-11T20:20:50Z</time></trkpt><trkpt lat="43.18255417660033" lon="11.578787464229439"><ele>354.0</ele><time>2026-04-11T20:20:53Z</time></trkpt><trkpt lat="43.18253411134879" lon="11.578875052098407"><ele>354.0</ele><time>2026-04-11T20:20:56Z</time></trkpt><trkpt lat="43.18252119219663" lon="11.578966096080071"><ele>354.0</ele><time>2026-04-11T20:20:59Z</time></trkpt><trkpt lat="43.182516714946395" lon="11.579056416207484"><ele>354.0</ele><time>2026-04-11T20:21:02Z</time></trkpt><trkpt lat="43.18251230365802" lon="11.57914634156299"><ele>355.0</ele><time>2026-04-11T20:21:05Z</time></trkpt><trkpt lat="43.182522704688424" lon="11.579245029013697"><ele>356.0</ele><time>2026-04-11T20:21:08Z</time></trkpt><trkpt lat="43.18253204135405" lon="11.57933937152479"><ele>357.0</ele><time>2026-04-11T20:21:11Z</time></trkpt><trkpt lat="43.18254203224456" lon="11.57943516571993"><ele>358.0</ele><time>2026-04-11T20:21:14Z</time></trkpt><trkpt lat="43.18256314112595" lon="11.579524697352793"><ele>359.0</ele><time>2026-04-11T20:21:17Z</time></trkpt><trkpt lat="43.182568714286596" lon="11.579620454382159"><ele>360.0</ele><time>2026-04-11T20:21:20Z</time></trkpt><trkpt lat="43.18259869870031" lon="11.579715630734809"><ele>361.0</ele><time>2026-04-11T20:21:23Z</time></trkpt><trkpt lat="43.1826335464695" lon="11.579806688716731"><ele>361.14285714285717</ele><time>2026-04-11T20:21:26Z</time></trkpt><trkpt lat="43.18268147189554" lon="11.579882518590656"><ele>361.2857142857143</ele><time>2026-04-11T20:21:29Z</time></trkpt><trkpt lat="43.182720329597984" lon="11.579967771091596"><ele>361.42857142857144</ele><time>2026-04-11T20:21:32Z</time></trkpt><trkpt lat="43.182765700685046" lon="11.580043382458786"><ele>361.57142857142856</ele><time>2026-04-11T20:21:35Z</time></trkpt><trkpt lat="43.182814057106455" lon="11.580119516384663"><ele>361.71428571428567</ele><time>2026-04-11T20:21:38Z</time></trkpt><trkpt lat="43.182849448581834" lon="11.580205048050313"><ele>361.85714285714283</ele><time>2026-04-11T20:21:41Z</time></trkpt><trkpt lat="43.182879865294545" lon="11.580297224602718"><ele>362.0</ele><time>2026-04-11T20:21:44Z</time></trkpt><trkpt lat="43.18291020474777" lon="11.580400931031088"><ele>362.1428571428571</ele><time>2026-04-11T20:21:47Z</time></trkpt><trkpt lat="43.182938335922216" lon="11.580503771958274"><ele>362.2857142857143</ele><time>2026-04-11T20:21:51Z</time></trkpt><trkpt lat="43.18294639719577" lon="11.580612927683061"><ele>362.42857142857144</ele><time>2026-04-11T20:21:54Z</time></trkpt><trkpt lat="43.18295024546601" lon="11.580704746369607"><ele>362.57142857142856</ele><time>2026-04-11T20:21:57Z</time></trkpt><trkpt lat="43.18295548720159" lon="11.580806912449956"><ele>362.7142857142857</ele><time>2026-04-11T20:22:00Z</time></trkpt><trkpt lat="43.182965314534854" lon="11.58090587093325"><ele>362.85714285714283</ele><time>2026-04-11T20:22:03Z</time></trkpt><trkpt lat="43.18297911225355" lon="11.580991464117766"><ele>363.0</ele><time>2026-04-11T20:22:05Z</time></trkpt><trkpt lat="43.18299104271459" lon="11.58108352133791"><ele>363.99999999999994</ele><time>2026-04-11T20:22:08Z</time></trkpt><trkpt lat="43.1829949176542" lon="11.581187234275593"><ele>365.0</ele><time>2026-04-11T20:22:11Z</time></trkpt><trkpt lat="43.18299612191942" lon="11.581288878354698"><ele>366.0</ele><time>2026-04-11T20:22:14Z</time></trkpt><trkpt lat="43.18298890636314" lon="11.581392073673788"><ele>367.0</ele><time>2026-04-11T20:22:17Z</time></trkpt><trkpt lat="43.18297522086728" lon="11.581496747975047"><ele>368.0</ele><time>2026-04-11T20:22:20Z</time></trkpt><trkpt lat="43.182954309113086" lon="11.581594882301637"><ele>368.99999999999994</ele><time>2026-04-11T20:22:23Z</time></trkpt><trkpt lat="43.1829304294917" lon="11.58168769921794"><ele>370.0</ele><time>2026-04-11T20:22:26Z</time></trkpt><trkpt lat="43.182898743339386" lon="11.58177928152625"><ele>370.0</ele><time>2026-04-11T20:22:29Z</time></trkpt><trkpt lat="43.18285541156057" lon="11.581850422702281"><ele>370.0</ele><time>2026-04-11T20:22:32Z</time></trkpt><trkpt lat="43.18279734929532" lon="11.581901134584589"><ele>370.0</ele><time>2026-04-11T20:22:35Z</time></trkpt><trkpt lat="43.18273354433288" lon="11.581955045218258"><ele>370.0</ele><time>2026-04-11T20:27:25Z</time></trkpt><trkpt lat="43.18266318168677" lon="11.582016798037914"><ele>370.0</ele><time>2026-04-11T20:28:38Z</time></trkpt><trkpt lat="43.18259038967194" lon="11.582082940240985"><ele>370.0</ele><time>2026-04-11T20:28:41Z</time></trkpt><trkpt lat="43.18252168257208" lon="11.582132435087285"><ele>369.8333333333333</ele><time>2026-04-11T20:28:43Z</time></trkpt><trkpt lat="43.18243745338341" lon="11.58219634413652"><ele>369.66666666666663</ele><time>2026-04-11T20:28:45Z</time></trkpt><trkpt lat="43.182329179104826" lon="11.58227356492996"><ele>369.5</ele><time>2026-04-11T20:28:47Z</time></trkpt><trkpt lat="43.182272051568255" lon="11.582312044007637"><ele>369.3333333333333</ele><time>2026-04-11T20:28:48Z</time></trkpt><trkpt lat="43.182204487795495" lon="11.582349474109552"><ele>369.1666666666667</ele><time>2026-04-11T20:28:49Z</time></trkpt><trkpt lat="43.18213687940403" lon="11.582388144640078"><ele>369.0</ele><time>2026-04-11T20:28:50Z</time></trkpt><trkpt lat="43.18206920222297" lon="11.582424839654808"><ele>368.57142857142856</ele><time>2026-04-11T20:28:51Z</time></trkpt><trkpt lat="43.182000268485126" lon="11.582464563165226"><ele>368.1428571428571</ele><time>2026-04-11T20:28:52Z</time></trkpt><trkpt lat="43.18193312561587" lon="11.582508861573611"><ele>367.7142857142857</ele><time>2026-04-11T20:28:53Z</time></trkpt><trkpt lat="43.181866037180825" lon="11.582552361126256"><ele>367.2857142857143</ele><time>2026-04-11T20:28:54Z</time></trkpt><trkpt lat="43.181801365487445" lon="11.582594539726312"><ele>366.8571428571429</ele><time>2026-04-11T20:28:55Z</time></trkpt><trkpt lat="43.181738044744804" lon="11.582636699315614"><ele>366.42857142857144</ele><time>2026-04-11T20:28:56Z</time></trkpt><trkpt lat="43.18167773845602" lon="11.582674733678084"><ele>366.0</ele><time>2026-04-11T20:28:57Z</time></trkpt><trkpt lat="43.18161672210395" lon="11.582712560686435"><ele>366.0</ele><time>2026-04-11T20:28:58Z</time></trkpt><trkpt lat="43.18155892417469" lon="11.582750772506582"><ele>366.0</ele><time>2026-04-11T20:28:59Z</time></trkpt><trkpt lat="43.18144889610581" lon="11.58282537857334"><ele>366.0</ele><time>2026-04-11T20:29:01Z</time></trkpt><trkpt lat="43.181342354247356" lon="11.582891912942237"><ele>366.0</ele><time>2026-04-11T20:29:03Z</time></trkpt><trkpt lat="43.18124008520415" lon="11.582950574202192"><ele>366.0</ele><time>2026-04-11T20:29:05Z</time></trkpt><trkpt lat="43.18114968316924" lon="11.583007024010445"><ele>366.20000000000005</ele><time>2026-04-11T20:29:07Z</time></trkpt><trkpt lat="43.18105885179693" lon="11.583051476274852"><ele>366.40000000000003</ele><time>2026-04-11T20:29:09Z</time></trkpt><trkpt lat="43.18097123352615" lon="11.583095938848293"><ele>366.6</ele><time>2026-04-11T20:29:11Z</time></trkpt><trkpt lat="43.180886751652366" lon="11.583144026982165"><ele>366.8</ele><time>2026-04-11T20:29:13Z</time></trkpt><trkpt lat="43.18080139627884" lon="11.583184751399537"><ele>367.0</ele><time>2026-04-11T20:29:15Z</time></trkpt><trkpt lat="43.180713038151254" lon="11.583229230305319"><ele>368.20000000000005</ele><time>2026-04-11T20:29:17Z</time></trkpt><trkpt lat="43.180623833062825" lon="11.583281323144925"><ele>369.4</ele><time>2026-04-11T20:29:19Z</time></trkpt><trkpt lat="43.180533635212086" lon="11.583326978131133"><ele>370.6</ele><time>2026-04-11T20:29:21Z</time></trkpt><trkpt lat="43.180439125825544" lon="11.583379681380379"><ele>371.79999999999995</ele><time>2026-04-11T20:29:23Z</time></trkpt><trkpt lat="43.18034946994889" lon="11.583439830422357"><ele>373.0</ele><time>2026-04-11T20:29:25Z</time></trkpt><trkpt lat="43.180251329433865" lon="11.583484609822905"><ele>373.0</ele><time>2026-04-11T20:29:27Z</time></trkpt><trkpt lat="43.180158769847836" lon="11.583529139153487"><ele>373.0</ele><time>2026-04-11T20:29:29Z</time></trkpt><trkpt lat="43.180059729924764" lon="11.583567047689781"><ele>373.0</ele><time>2026-04-11T20:29:31Z</time></trkpt><trkpt lat="43.179965215706645" lon="11.583608671532716"><ele>373.0</ele><time>2026-04-11T20:29:33Z</time></trkpt><trkpt lat="43.17987224583396" lon="11.583645104892833"><ele>373.0</ele><time>2026-04-11T20:29:35Z</time></trkpt><trkpt lat="43.179783677174456" lon="11.583680304998051"><ele>372.0</ele><time>2026-04-11T20:29:37Z</time></trkpt><trkpt lat="43.17968815331958" lon="11.583711980462974"><ele>371.0</ele><time>2026-04-11T20:29:39Z</time></trkpt><trkpt lat="43.1795956670942" lon="11.583739451954289"><ele>370.0</ele><time>2026-04-11T20:29:41Z</time></trkpt><trkpt lat="43.1795068660278" lon="11.583759753925886"><ele>369.0</ele><time>2026-04-11T20:29:43Z</time></trkpt><trkpt lat="43.179425356710865" lon="11.58376921291344"><ele>368.0</ele><time>2026-04-11T20:29:45Z</time></trkpt><trkpt lat="43.17934269011905" lon="11.583763584850947"><ele>367.0</ele><time>2026-04-11T20:29:47Z</time></trkpt><trkpt lat="43.17926492995912" lon="11.583760055097368"><ele>367.0</ele><time>2026-04-11T20:29:49Z</time></trkpt><trkpt lat="43.17918932680339" lon="11.58374988366389"><ele>367.0</ele><time>2026-04-11T20:29:51Z</time></trkpt><trkpt lat="43.17911687636152" lon="11.583736773214271"><ele>367.0</ele><time>2026-04-11T20:29:53Z</time></trkpt><trkpt lat="43.179044389637376" lon="11.583713694253237"><ele>367.0</ele><time>2026-04-11T20:29:55Z</time></trkpt><trkpt lat="43.17896914327829" lon="11.583703134630772"><ele>367.0</ele><time>2026-04-11T20:29:57Z</time></trkpt><trkpt lat="43.178893707643276" lon="11.583690377433546"><ele>367.0</ele><time>2026-04-11T20:29:59Z</time></trkpt><trkpt lat="43.17881838835094" lon="11.583667124518378"><ele>367.2857142857143</ele><time>2026-04-11T20:30:01Z</time></trkpt><trkpt lat="43.1787452495118" lon="11.583652095379822"><ele>367.5714285714286</ele><time>2026-04-11T20:30:03Z</time></trkpt><trkpt lat="43.17867575292435" lon="11.583638117617927"><ele>367.8571428571429</ele><time>2026-04-11T20:30:05Z</time></trkpt><trkpt lat="43.178605400195536" lon="11.58362932114645"><ele>368.1428571428571</ele><time>2026-04-11T20:30:07Z</time></trkpt><trkpt lat="43.17853477237395" lon="11.583617242043411"><ele>368.42857142857144</ele><time>2026-04-11T20:30:09Z</time></trkpt><trkpt lat="43.17846534718545" lon="11.583610922180558"><ele>368.7142857142857</ele><time>2026-04-11T20:30:11Z</time></trkpt><trkpt lat="43.17839337827249" lon="11.5836010493281"><ele>369.0</ele><time>2026-04-11T20:30:13Z</time></trkpt><trkpt lat="43.17832508190508" lon="11.583589327226958"><ele>369.0</ele><time>2026-04-11T20:30:15Z</time></trkpt><trkpt lat="43.17825237515687" lon="11.583566774243106"><ele>369.0</ele><time>2026-04-11T20:30:17Z</time></trkpt><trkpt lat="43.17817975830661" lon="11.583546554684322"><ele>369.0</ele><time>2026-04-11T20:30:19Z</time></trkpt><trkpt lat="43.17809289536107" lon="11.583536689158386"><ele>369.0</ele><time>2026-04-11T20:30:22Z</time></trkpt><trkpt lat="43.17802350258925" lon="11.583514616725395"><ele>369.0</ele><time>2026-04-11T20:30:24Z</time></trkpt><trkpt lat="43.17794822334284" lon="11.583487237112877"><ele>369.0</ele><time>2026-04-11T20:30:26Z</time></trkpt><trkpt lat="43.17786788495178" lon="11.583462847095989"><ele>368.4</ele><time>2026-04-11T20:30:28Z</time></trkpt><trkpt lat="43.17778354712404" lon="11.583425874457646"><ele>367.79999999999995</ele><time>2026-04-11T20:30:30Z</time></trkpt><trkpt lat="43.177687629353855" lon="11.583386635591264"><ele>367.20000000000005</ele><time>2026-04-11T20:30:32Z</time></trkpt><trkpt lat="43.17758591767179" lon="11.583351295980234"><ele>366.6</ele><time>2026-04-11T20:30:34Z</time></trkpt><trkpt lat="43.1774765799179" lon="11.583298000851288"><ele>366.0</ele><time>2026-04-11T20:30:36Z</time></trkpt><trkpt lat="43.17736107914516" lon="11.583250842910175"><ele>365.0</ele><time>2026-04-11T20:30:38Z</time></trkpt><trkpt lat="43.1772462719477" lon="11.583208013634328"><ele>364.0</ele><time>2026-04-11T20:30:40Z</time></trkpt><trkpt lat="43.17713354388444" lon="11.583160317629664"><ele>363.0</ele><time>2026-04-11T20:30:42Z</time></trkpt><trkpt lat="43.17702641502484" lon="11.583120310548908"><ele>362.0</ele><time>2026-04-11T20:30:44Z</time></trkpt><trkpt lat="43.1769202461832" lon="11.583085602467674"><ele>362.0</ele><time>2026-04-11T20:30:46Z</time></trkpt><trkpt lat="43.1768232032463" lon="11.583062306694602"><ele>362.0</ele><time>2026-04-11T20:30:48Z</time></trkpt><trkpt lat="43.17672667589898" lon="11.583040742272583"><ele>362.0</ele><time>2026-04-11T20:30:50Z</time></trkpt><trkpt lat="43.17662931512428" lon="11.583022484100617"><ele>362.0</ele><time>2026-04-11T20:30:52Z</time></trkpt><trkpt lat="43.17653097851974" lon="11.583009317875016"><ele>362.0</ele><time>2026-04-11T20:30:54Z</time></trkpt><trkpt lat="43.176432016328256" lon="11.582998126488244"><ele>361.6</ele><time>2026-04-11T20:30:56Z</time></trkpt><trkpt lat="43.176333918795336" lon="11.58297470239479"><ele>361.20000000000005</ele><time>2026-04-11T20:30:58Z</time></trkpt><trkpt lat="43.17623413324373" lon="11.582958784405871"><ele>360.8</ele><time>2026-04-11T20:31:00Z</time></trkpt><trkpt lat="43.17613319588967" lon="11.582943612927146"><ele>360.4</ele><time>2026-04-11T20:31:02Z</time></trkpt><trkpt lat="43.176032724659535" lon="11.582932624859806"><ele>360.0</ele><time>2026-04-11T20:31:04Z</time></trkpt><trkpt lat="43.17593889132632" lon="11.582919745427944"><ele>360.0</ele><time>2026-04-11T20:31:06Z</time></trkpt><trkpt lat="43.17583465816272" lon="11.582904115194355"><ele>360.0</ele><time>2026-04-11T20:31:08Z</time></trkpt><trkpt lat="43.17572855652864" lon="11.582905335497966"><ele>360.0</ele><time>2026-04-11T20:31:10Z</time></trkpt><trkpt lat="43.175622317781304" lon="11.582914766250518"><ele>360.0</ele><time>2026-04-11T20:31:12Z</time></trkpt><trkpt lat="43.17551315340849" lon="11.582932128235855"><ele>360.0</ele><time>2026-04-11T20:31:14Z</time></trkpt><trkpt lat="43.1753977958087" lon="11.582965340114082"><ele>360.0</ele><time>2026-04-11T20:31:16Z</time></trkpt><trkpt lat="43.175282217567855" lon="11.583007541522207"><ele>360.0</ele><time>2026-04-11T20:31:18Z</time></trkpt><trkpt lat="43.17516769259968" lon="11.58305196277099"><ele>360.0</ele><time>2026-04-11T20:31:20Z</time></trkpt><trkpt lat="43.175107387397375" lon="11.583078355934262"><ele>360.0</ele><time>2026-04-11T20:31:21Z</time></trkpt><trkpt lat="43.174989099878495" lon="11.583125376910278"><ele>360.0</ele><time>2026-04-11T20:31:23Z</time></trkpt><trkpt lat="43.17487982741204" lon="11.583172517365814"><ele>360.75</ele><time>2026-04-11T20:31:25Z</time></trkpt><trkpt lat="43.1747664454335" lon="11.583213215436801"><ele>361.5</ele><time>2026-04-11T20:31:27Z</time></trkpt><trkpt lat="43.17465666843298" lon="11.583260321075546"><ele>362.25</ele><time>2026-04-11T20:31:29Z</time></trkpt><trkpt lat="43.17454526621629" lon="11.583319793578418"><ele>363.0</ele><time>2026-04-11T20:31:31Z</time></trkpt><trkpt lat="43.1744446237019" lon="11.583391267259955"><ele>363.0</ele><time>2026-04-11T20:31:33Z</time></trkpt><trkpt lat="43.17435373703287" lon="11.583468796941919"><ele>363.0</ele><time>2026-04-11T20:31:35Z</time></trkpt><trkpt lat="43.17426301130307" lon="11.583559903531894"><ele>363.0</ele><time>2026-04-11T20:31:37Z</time></trkpt><trkpt lat="43.1741658037393" lon="11.583652946499893"><ele>363.0</ele><time>2026-04-11T20:31:39Z</time></trkpt><trkpt lat="43.17407364814152" lon="11.583757665776673"><ele>362.1666666666667</ele><time>2026-04-11T20:31:41Z</time></trkpt><trkpt lat="43.17397502638139" lon="11.583863587628361"><ele>361.3333333333333</ele><time>2026-04-11T20:31:43Z</time></trkpt><trkpt lat="43.17392082612632" lon="11.583918545477985"><ele>360.5</ele><time>2026-04-11T20:31:44Z</time></trkpt><trkpt lat="43.17386464613907" lon="11.583973759583019"><ele>359.66666666666663</ele><time>2026-04-11T20:31:45Z</time></trkpt><trkpt lat="43.17380788846906" lon="11.58402950584128"><ele>358.8333333333333</ele><time>2026-04-11T20:31:46Z</time></trkpt><trkpt lat="43.17375101355163" lon="11.584087027225598"><ele>358.0</ele><time>2026-04-11T20:31:47Z</time></trkpt><trkpt lat="43.173692444438885" lon="11.584146419392837"><ele>358.00000000000006</ele><time>2026-04-11T20:31:48Z</time></trkpt><trkpt lat="43.17363377209664" lon="11.584210073988919"><ele>358.0</ele><time>2026-04-11T20:31:49Z</time></trkpt><trkpt lat="43.17357653865079" lon="11.584274734396255"><ele>358.0</ele><time>2026-04-11T20:31:50Z</time></trkpt><trkpt lat="43.17352156886331" lon="11.584337681306886"><ele>358.0</ele><time>2026-04-11T20:31:51Z</time></trkpt><trkpt lat="43.1734609570517" lon="11.584400923299405"><ele>358.0</ele><time>2026-04-11T20:31:52Z</time></trkpt><trkpt lat="43.173402474920024" lon="11.584461226796673"><ele>358.00000000000006</ele><time>2026-04-11T20:31:53Z</time></trkpt><trkpt lat="43.17334229607211" lon="11.584523042017983"><ele>358.0</ele><time>2026-04-11T20:31:54Z</time></trkpt><trkpt lat="43.17328317570195" lon="11.584585795788586"><ele>357.7142857142857</ele><time>2026-04-11T20:31:55Z</time></trkpt><trkpt lat="43.173226927936064" lon="11.58464957842232"><ele>357.42857142857144</ele><time>2026-04-11T20:31:56Z</time></trkpt><trkpt lat="43.173171617231965" lon="11.584706796487021"><ele>357.1428571428571</ele><time>2026-04-11T20:31:57Z</time></trkpt><trkpt lat="43.17311344508059" lon="11.58476515025583"><ele>356.8571428571429</ele><time>2026-04-11T20:31:58Z</time></trkpt><trkpt lat="43.17305734937246" lon="11.584824355636236"><ele>356.57142857142856</ele><time>2026-04-11T20:31:59Z</time></trkpt><trkpt lat="43.17300104024101" lon="11.584882468042201"><ele>356.2857142857143</ele><time>2026-04-11T20:32:00Z</time></trkpt><trkpt lat="43.172945999044295" lon="11.584944494284533"><ele>356.0</ele><time>2026-04-11T20:32:01Z</time></trkpt><trkpt lat="43.172894462541784" lon="11.585005504384563"><ele>355.85714285714283</ele><time>2026-04-11T20:32:02Z</time></trkpt><trkpt lat="43.17283975457423" lon="11.585065080474132"><ele>355.7142857142857</ele><time>2026-04-11T20:32:03Z</time></trkpt><trkpt lat="43.172783959133255" lon="11.585124348837809"><ele>355.57142857142856</ele><time>2026-04-11T20:32:04Z</time></trkpt><trkpt lat="43.172730611734686" lon="11.585180197931392"><ele>355.42857142857144</ele><time>2026-04-11T20:32:05Z</time></trkpt><trkpt lat="43.172676868639165" lon="11.585237249761716"><ele>355.2857142857143</ele><time>2026-04-11T20:32:06Z</time></trkpt><trkpt lat="43.172622764791655" lon="11.58529264283824"><ele>355.1428571428571</ele><time>2026-04-11T20:32:07Z</time></trkpt><trkpt lat="43.17256944992281" lon="11.585343823585815"><ele>355.0</ele><time>2026-04-11T20:32:08Z</time></trkpt><trkpt lat="43.172516636205145" lon="11.585393450346704"><ele>355.0</ele><time>2026-04-11T20:32:09Z</time></trkpt><trkpt lat="43.172461987786974" lon="11.58543898660442"><ele>355.0</ele><time>2026-04-11T20:32:10Z</time></trkpt><trkpt lat="43.172352887671686" lon="11.585514651062148"><ele>355.0</ele><time>2026-04-11T20:32:12Z</time></trkpt><trkpt lat="43.172243669669015" lon="11.585570018148411"><ele>355.0</ele><time>2026-04-11T20:32:14Z</time></trkpt><trkpt lat="43.17213799979297" lon="11.585610762284343"><ele>355.0</ele><time>2026-04-11T20:32:16Z</time></trkpt><trkpt lat="43.17202666627941" lon="11.585622607113093"><ele>355.8</ele><time>2026-04-11T20:32:18Z</time></trkpt><trkpt lat="43.17192235255452" lon="11.585625208446052"><ele>356.6</ele><time>2026-04-11T20:32:20Z</time></trkpt><trkpt lat="43.17181239751273" lon="11.585628782971732"><ele>357.4</ele><time>2026-04-11T20:32:22Z</time></trkpt><trkpt lat="43.171712734884146" lon="11.585641967001695"><ele>358.2</ele><time>2026-04-11T20:32:24Z</time></trkpt><trkpt lat="43.17163544668709" lon="11.585652540453832"><ele>359.0</ele><time>2026-04-11T20:32:26Z</time></trkpt><trkpt lat="43.17155139636825" lon="11.585662418994154"><ele>359.1666666666667</ele><time>2026-04-11T20:32:28Z</time></trkpt><trkpt lat="43.17146174607345" lon="11.585672277418999"><ele>359.33333333333337</ele><time>2026-04-11T20:32:30Z</time></trkpt><trkpt lat="43.17137862904488" lon="11.585670594116868"><ele>359.5</ele><time>2026-04-11T20:32:32Z</time></trkpt><trkpt lat="43.17129684004803" lon="11.585683042762458"><ele>359.6666666666667</ele><time>2026-04-11T20:32:34Z</time></trkpt><trkpt lat="43.171225696359016" lon="11.585688591547028"><ele>359.8333333333333</ele><time>2026-04-11T20:32:36Z</time></trkpt><trkpt lat="43.171152329842045" lon="11.58570702552726"><ele>360.0</ele><time>2026-04-11T20:32:38Z</time></trkpt><trkpt lat="43.1710657037127" lon="11.585726820818898"><ele>360.0</ele><time>2026-04-11T20:32:40Z</time></trkpt><trkpt lat="43.17096988209136" lon="11.585752396729244"><ele>360.0</ele><time>2026-04-11T20:32:42Z</time></trkpt><trkpt lat="43.17087422068362" lon="11.585784148293081"><ele>360.0</ele><time>2026-04-11T20:32:44Z</time></trkpt><trkpt lat="43.17076645498474" lon="11.585823056516949"><ele>360.0</ele><time>2026-04-11T20:32:46Z</time></trkpt><trkpt lat="43.170642072754944" lon="11.585843552697781"><ele>360.0</ele><time>2026-04-11T20:32:48Z</time></trkpt><trkpt lat="43.17057763081013" lon="11.585846302339332"><ele>359.1428571428571</ele><time>2026-04-11T20:32:49Z</time></trkpt><trkpt lat="43.17051069526578" lon="11.5858454632253"><ele>358.28571428571433</ele><time>2026-04-11T20:32:50Z</time></trkpt><trkpt lat="43.17044321241666" lon="11.585834237468436"><ele>357.42857142857144</ele><time>2026-04-11T20:32:51Z</time></trkpt><trkpt lat="43.17037129405693" lon="11.585818988743304"><ele>356.57142857142856</ele><time>2026-04-11T20:32:52Z</time></trkpt><trkpt lat="43.17029904327777" lon="11.585798858962306"><ele>355.71428571428567</ele><time>2026-04-11T20:32:53Z</time></trkpt><trkpt lat="43.170235171367146" lon="11.585780645372203"><ele>354.8571428571429</ele><time>2026-04-11T20:32:54Z</time></trkpt><trkpt lat="43.170168225221765" lon="11.585766108651205"><ele>354.0</ele><time>2026-04-11T20:32:55Z</time></trkpt><trkpt lat="43.17009708854002" lon="11.585751015838666"><ele>354.0</ele><time>2026-04-11T20:32:56Z</time></trkpt><trkpt lat="43.17002409226988" lon="11.585740428912688"><ele>354.0</ele><time>2026-04-11T20:32:57Z</time></trkpt><trkpt lat="43.16995007639202" lon="11.585732272536825"><ele>354.0</ele><time>2026-04-11T20:32:58Z</time></trkpt><trkpt lat="43.16987138196784" lon="11.585728718897782"><ele>354.0</ele><time>2026-04-11T20:32:59Z</time></trkpt><trkpt lat="43.16979444077873" lon="11.585732366373142"><ele>354.0</ele><time>2026-04-11T20:33:00Z</time></trkpt><trkpt lat="43.169717117753734" lon="11.585727276942228"><ele>354.0</ele><time>2026-04-11T20:33:01Z</time></trkpt><trkpt lat="43.16964072635736" lon="11.585733296245705"><ele>353.7142857142857</ele><time>2026-04-11T20:33:02Z</time></trkpt><trkpt lat="43.169563216797606" lon="11.585731084233633"><ele>353.4285714285714</ele><time>2026-04-11T20:33:03Z</time></trkpt><trkpt lat="43.16949086358156" lon="11.585745812483692"><ele>353.1428571428571</ele><time>2026-04-11T20:33:04Z</time></trkpt><trkpt lat="43.16941770607839" lon="11.58575585665034"><ele>352.8571428571429</ele><time>2026-04-11T20:33:05Z</time></trkpt><trkpt lat="43.16935135188993" lon="11.585766506344113"><ele>352.57142857142856</ele><time>2026-04-11T20:33:06Z</time></trkpt><trkpt lat="43.169284055195895" lon="11.585777717766456"><ele>352.2857142857143</ele><time>2026-04-11T20:33:07Z</time></trkpt><trkpt lat="43.169214247397356" lon="11.58577864198921"><ele>352.0</ele><time>2026-04-11T20:33:08Z</time></trkpt><trkpt lat="43.16914644380435" lon="11.585787139759445"><ele>352.0</ele><time>2026-04-11T20:33:09Z</time></trkpt><trkpt lat="43.16907952632197" lon="11.585793892512527"><ele>352.0</ele><time>2026-04-11T20:33:10Z</time></trkpt><trkpt lat="43.16895480308306" lon="11.58581700069298"><ele>352.0</ele><time>2026-04-11T20:33:12Z</time></trkpt><trkpt lat="43.16889180529625" lon="11.58583602527532"><ele>352.0</ele><time>2026-04-11T20:33:13Z</time></trkpt><trkpt lat="43.16877071717699" lon="11.585862448234176"><ele>352.0</ele><time>2026-04-11T20:33:15Z</time></trkpt><trkpt lat="43.16864831763842" lon="11.585889946929836"><ele>352.75</ele><time>2026-04-11T20:33:17Z</time></trkpt><trkpt lat="43.168528972170904" lon="11.585916215008979"><ele>353.5</ele><time>2026-04-11T20:33:19Z</time></trkpt><trkpt lat="43.16840538769287" lon="11.585948886623713"><ele>354.25</ele><time>2026-04-11T20:33:21Z</time></trkpt><trkpt lat="43.16828358242508" lon="11.585972545437906"><ele>355.0</ele><time>2026-04-11T20:33:23Z</time></trkpt><trkpt lat="43.1681569239677" lon="11.585982149825867"><ele>353.7142857142857</ele><time>2026-04-11T20:33:25Z</time></trkpt><trkpt lat="43.16809204878126" lon="11.585972380299609"><ele>352.42857142857144</ele><time>2026-04-11T20:33:26Z</time></trkpt><trkpt lat="43.16802729530491" lon="11.585959849900453"><ele>351.1428571428571</ele><time>2026-04-11T20:33:27Z</time></trkpt><trkpt lat="43.16796338809622" lon="11.585934726581502"><ele>349.8571428571429</ele><time>2026-04-11T20:33:28Z</time></trkpt><trkpt lat="43.16790162246255" lon="11.585891446636094"><ele>348.5714285714286</ele><time>2026-04-11T20:33:29Z</time></trkpt><trkpt lat="43.16784660197612" lon="11.585825837834093"><ele>347.2857142857143</ele><time>2026-04-11T20:33:30Z</time></trkpt><trkpt lat="43.16778686292706" lon="11.585757372693287"><ele>346.0</ele><time>2026-04-11T20:33:31Z</time></trkpt><trkpt lat="43.16772880048796" lon="11.585689797727145"><ele>346.0</ele><time>2026-04-11T20:33:32Z</time></trkpt><trkpt lat="43.167667655540406" lon="11.585626106184446"><ele>346.0</ele><time>2026-04-11T20:33:33Z</time></trkpt><trkpt lat="43.16761346822663" lon="11.585538846700837"><ele>346.0</ele><time>2026-04-11T20:33:34Z</time></trkpt><trkpt lat="43.167557523627025" lon="11.585465314496366"><ele>346.0</ele><time>2026-04-11T20:33:35Z</time></trkpt><trkpt lat="43.16749613147773" lon="11.585391035062846"><ele>346.0</ele><time>2026-04-11T20:33:36Z</time></trkpt><trkpt lat="43.16744040057768" lon="11.585306563597108"><ele>346.0</ele><time>2026-04-11T20:33:37Z</time></trkpt><trkpt lat="43.16737625700525" lon="11.585235097132527"><ele>346.3333333333333</ele><time>2026-04-11T20:33:38Z</time></trkpt><trkpt lat="43.16730511369521" lon="11.585170999100248"><ele>346.66666666666663</ele><time>2026-04-11T20:33:39Z</time></trkpt><trkpt lat="43.167232597435145" lon="11.585114147510337"><ele>347.0</ele><time>2026-04-11T20:33:40Z</time></trkpt><trkpt lat="43.16715799549405" lon="11.585069426968262"><ele>347.3333333333333</ele><time>2026-04-11T20:33:41Z</time></trkpt><trkpt lat="43.16707900222874" lon="11.585033395184421"><ele>347.6666666666667</ele><time>2026-04-11T20:33:42Z</time></trkpt><trkpt lat="43.167000933064685" lon="11.585003889323875"><ele>348.0</ele><time>2026-04-11T20:33:43Z</time></trkpt><trkpt lat="43.16692020599543" lon="11.58498383377807"><ele>348.0</ele><time>2026-04-11T20:33:44Z</time></trkpt><trkpt lat="43.166844359277036" lon="11.584979657623691"><ele>348.0</ele><time>2026-04-11T20:33:45Z</time></trkpt><trkpt lat="43.16677134318703" lon="11.584979198525275"><ele>348.0</ele><time>2026-04-11T20:33:46Z</time></trkpt><trkpt lat="43.16669714574148" lon="11.58498283308709"><ele>348.0</ele><time>2026-04-11T20:33:47Z</time></trkpt><trkpt lat="43.16662497646428" lon="11.585003152209442"><ele>348.0</ele><time>2026-04-11T20:33:48Z</time></trkpt><trkpt lat="43.16655644089543" lon="11.58501795636817"><ele>348.0</ele><time>2026-04-11T20:33:49Z</time></trkpt><trkpt lat="43.166488493055596" lon="11.58503079532307"><ele>348.0</ele><time>2026-04-11T20:33:50Z</time></trkpt><trkpt lat="43.16642236320769" lon="11.585045601292952"><ele>348.1428571428571</ele><time>2026-04-11T20:33:51Z</time></trkpt><trkpt lat="43.16635167141489" lon="11.58505976092101"><ele>348.2857142857143</ele><time>2026-04-11T20:33:52Z</time></trkpt><trkpt lat="43.166281952933346" lon="11.585070076131766"><ele>348.42857142857144</ele><time>2026-04-11T20:33:53Z</time></trkpt><trkpt lat="43.16621174158153" lon="11.58507932797307"><ele>348.57142857142856</ele><time>2026-04-11T20:33:54Z</time></trkpt><trkpt lat="43.166142708237444" lon="11.585088517541916"><ele>348.7142857142857</ele><time>2026-04-11T20:33:55Z</time></trkpt><trkpt lat="43.16607524816677" lon="11.585102763954978"><ele>348.85714285714283</ele><time>2026-04-11T20:33:56Z</time></trkpt><trkpt lat="43.16600567225863" lon="11.585113370319323"><ele>349.0</ele><time>2026-04-11T20:33:57Z</time></trkpt><trkpt lat="43.165938600265356" lon="11.58512066237437"><ele>349.0</ele><time>2026-04-11T20:33:58Z</time></trkpt><trkpt lat="43.165873490727584" lon="11.585134081770152"><ele>349.0</ele><time>2026-04-11T20:33:59Z</time></trkpt><trkpt lat="43.165754021174855" lon="11.58514937921377"><ele>349.0</ele><time>2026-04-11T20:34:01Z</time></trkpt><trkpt lat="43.16564126731397" lon="11.585157940294547"><ele>349.0</ele><time>2026-04-11T20:34:03Z</time></trkpt><trkpt lat="43.165537973891865" lon="11.585172976493375"><ele>349.0</ele><time>2026-04-11T20:34:05Z</time></trkpt><trkpt lat="43.1654388615688" lon="11.585154294729437"><ele>348.3333333333333</ele><time>2026-04-11T20:34:07Z</time></trkpt><trkpt lat="43.16533520596122" lon="11.585118822932754"><ele>347.66666666666663</ele><time>2026-04-11T20:34:09Z</time></trkpt><trkpt lat="43.16522089022854" lon="11.58504651830606"><ele>347.0</ele><time>2026-04-11T20:34:11Z</time></trkpt><trkpt lat="43.165163175748106" lon="11.58500434868937"><ele>346.3333333333333</ele><time>2026-04-11T20:34:12Z</time></trkpt><trkpt lat="43.16509620950541" lon="11.584977578831785"><ele>345.6666666666667</ele><time>2026-04-11T20:34:13Z</time></trkpt><trkpt lat="43.165039010459715" lon="11.584932280167372"><ele>345.0</ele><time>2026-04-11T20:34:14Z</time></trkpt><trkpt lat="43.16498358517327" lon="11.584885430656813"><ele>345.0</ele><time>2026-04-11T20:34:15Z</time></trkpt><trkpt lat="43.16487194429503" lon="11.584813115747538"><ele>345.0</ele><time>2026-04-11T20:34:17Z</time></trkpt><trkpt lat="43.164764853395845" lon="11.584769756424606"><ele>345.0</ele><time>2026-04-11T20:34:19Z</time></trkpt><trkpt lat="43.16466170531072" lon="11.584793535324051"><ele>345.0</ele><time>2026-04-11T20:34:21Z</time></trkpt><trkpt lat="43.16455879906953" lon="11.584846885158594"><ele>346.0</ele><time>2026-04-11T20:34:23Z</time></trkpt><trkpt lat="43.16445199763187" lon="11.58489284882245"><ele>347.0</ele><time>2026-04-11T20:34:25Z</time></trkpt><trkpt lat="43.16434320078719" lon="11.58494115756757"><ele>348.0</ele><time>2026-04-11T20:34:27Z</time></trkpt><trkpt lat="43.16422704664596" lon="11.584982101584332"><ele>349.0</ele><time>2026-04-11T20:34:29Z</time></trkpt><trkpt lat="43.1641150161525" lon="11.585003831904299"><ele>348.75</ele><time>2026-04-11T20:34:31Z</time></trkpt><trkpt lat="43.16399434411413" lon="11.585009198221034"><ele>348.5</ele><time>2026-04-11T20:34:33Z</time></trkpt><trkpt lat="43.16386834506681" lon="11.585005962843175"><ele>348.25</ele><time>2026-04-11T20:34:35Z</time></trkpt><trkpt lat="43.16374955147048" lon="11.58500209749234"><ele>348.0</ele><time>2026-04-11T20:34:37Z</time></trkpt><trkpt lat="43.163633835574345" lon="11.585007579069645"><ele>348.0</ele><time>2026-04-11T20:34:39Z</time></trkpt><trkpt lat="43.16351987767235" lon="11.585016045664984"><ele>348.0</ele><time>2026-04-11T20:34:41Z</time></trkpt><trkpt lat="43.1633966916075" lon="11.585007757807784"><ele>348.0</ele><time>2026-04-11T20:34:43Z</time></trkpt><trkpt lat="43.163331901644625" lon="11.58500344063121"><ele>348.0</ele><time>2026-04-11T20:34:44Z</time></trkpt><trkpt lat="43.16320749500236" lon="11.584996865803747"><ele>348.0</ele><time>2026-04-11T20:34:46Z</time></trkpt><trkpt lat="43.16313780183862" lon="11.584980696711478"><ele>347.42857142857144</ele><time>2026-04-11T20:34:47Z</time></trkpt><trkpt lat="43.163067200788184" lon="11.585002197731848"><ele>346.8571428571429</ele><time>2026-04-11T20:34:48Z</time></trkpt><trkpt lat="43.16299697585701" lon="11.585003625411645"><ele>346.28571428571433</ele><time>2026-04-11T20:34:49Z</time></trkpt><trkpt lat="43.16292940129727" lon="11.585003027812919"><ele>345.7142857142857</ele><time>2026-04-11T20:34:50Z</time></trkpt><trkpt lat="43.16286202988659" lon="11.585004238725698"><ele>345.14285714285717</ele><time>2026-04-11T20:34:51Z</time></trkpt><trkpt lat="43.162797864945226" lon="11.585003696680857"><ele>344.5714285714286</ele><time>2026-04-11T20:34:52Z</time></trkpt><trkpt lat="43.16273064432012" lon="11.585016739992238"><ele>344.0</ele><time>2026-04-11T20:34:53Z</time></trkpt><trkpt lat="43.162659558142586" lon="11.585024647050666"><ele>344.0</ele><time>2026-04-11T20:34:54Z</time></trkpt><trkpt lat="43.162588864717186" lon="11.585044246942621"><ele>344.0</ele><time>2026-04-11T20:34:55Z</time></trkpt><trkpt lat="43.162518347155256" lon="11.585061629418005"><ele>344.0</ele><time>2026-04-11T20:34:56Z</time></trkpt><trkpt lat="43.16244744435977" lon="11.585082387040316"><ele>344.0</ele><time>2026-04-11T20:34:57Z</time></trkpt><trkpt lat="43.162372904912424" lon="11.585107972471189"><ele>344.0</ele><time>2026-04-11T20:34:58Z</time></trkpt><trkpt lat="43.16229391563038" lon="11.585139068516046"><ele>344.0</ele><time>2026-04-11T20:34:59Z</time></trkpt><trkpt lat="43.162217640703425" lon="11.585171097788917"><ele>343.1666666666667</ele><time>2026-04-11T20:35:00Z</time></trkpt><trkpt lat="43.162141598371576" lon="11.585200803713986"><ele>342.33333333333337</ele><time>2026-04-11T20:35:01Z</time></trkpt><trkpt lat="43.16205976393182" lon="11.58521895331523"><ele>341.5</ele><time>2026-04-11T20:35:02Z</time></trkpt><trkpt lat="43.16198390965408" lon="11.585260524144699"><ele>340.6666666666667</ele><time>2026-04-11T20:35:03Z</time></trkpt><trkpt lat="43.161906875278454" lon="11.58531017084637"><ele>339.8333333333333</ele><time>2026-04-11T20:35:04Z</time></trkpt><trkpt lat="43.16183042617107" lon="11.585378073514331"><ele>339.0</ele><time>2026-04-11T20:35:05Z</time></trkpt><trkpt lat="43.16176137299384" lon="11.585464101737237"><ele>339.0</ele><time>2026-04-11T20:35:06Z</time></trkpt><trkpt lat="43.161686437753225" lon="11.58551822037466"><ele>339.0</ele><time>2026-04-11T20:35:07Z</time></trkpt><trkpt lat="43.1616248761452" lon="11.58559597331739"><ele>339.0</ele><time>2026-04-11T20:35:08Z</time></trkpt><trkpt lat="43.16153982671644" lon="11.585641771504331"><ele>339.0</ele><time>2026-04-11T20:35:09Z</time></trkpt><trkpt lat="43.16144426934582" lon="11.585673821172323"><ele>339.0</ele><time>2026-04-11T20:35:10Z</time></trkpt><trkpt lat="43.16133664001945" lon="11.585681940323864"><ele>336.79999999999995</ele><time>2026-04-11T20:35:11Z</time></trkpt><trkpt lat="43.16122850448659" lon="11.585688668239063"><ele>334.59999999999997</ele><time>2026-04-11T20:35:12Z</time></trkpt><trkpt lat="43.161124181479636" lon="11.58568938751138"><ele>332.4</ele><time>2026-04-11T20:35:13Z</time></trkpt><trkpt lat="43.16101934309578" lon="11.585687900195998"><ele>330.2</ele><time>2026-04-11T20:35:14Z</time></trkpt><trkpt lat="43.16091878364927" lon="11.585700362270751"><ele>328.0</ele><time>2026-04-11T20:35:15Z</time></trkpt><trkpt lat="43.16082612044744" lon="11.5857147203809"><ele>328.0</ele><time>2026-04-11T20:35:16Z</time></trkpt><trkpt lat="43.16072918099476" lon="11.585726994998785"><ele>328.0</ele><time>2026-04-11T20:35:17Z</time></trkpt><trkpt lat="43.160630952871685" lon="11.58575274761693"><ele>328.0</ele><time>2026-04-11T20:35:18Z</time></trkpt><trkpt lat="43.16052683582893" lon="11.585777051834832"><ele>328.0</ele><time>2026-04-11T20:35:19Z</time></trkpt><trkpt lat="43.160426585908674" lon="11.585806544926625"><ele>328.0</ele><time>2026-04-11T20:35:20Z</time></trkpt><trkpt lat="43.16033153371605" lon="11.58583608508391"><ele>326.79999999999995</ele><time>2026-04-11T20:35:21Z</time></trkpt><trkpt lat="43.16023574009259" lon="11.585876552435112"><ele>325.6</ele><time>2026-04-11T20:35:22Z</time></trkpt><trkpt lat="43.160144073369096" lon="11.585927915464017"><ele>324.4</ele><time>2026-04-11T20:35:23Z</time></trkpt><trkpt lat="43.16005249432671" lon="11.58598029882672"><ele>323.20000000000005</ele><time>2026-04-11T20:35:24Z</time></trkpt><trkpt lat="43.15995936105114" lon="11.586029793769152"><ele>322.0</ele><time>2026-04-11T20:35:25Z</time></trkpt><trkpt lat="43.15986970325104" lon="11.58607921989497"><ele>321.20000000000005</ele><time>2026-04-11T20:35:26Z</time></trkpt><trkpt lat="43.15978051139804" lon="11.586129580522602"><ele>320.40000000000003</ele><time>2026-04-11T20:35:27Z</time></trkpt><trkpt lat="43.15969279046673" lon="11.586177732752049"><ele>319.6</ele><time>2026-04-11T20:35:28Z</time></trkpt><trkpt lat="43.159607380804566" lon="11.586222406575972"><ele>318.8</ele><time>2026-04-11T20:35:29Z</time></trkpt><trkpt lat="43.15952381926459" lon="11.586271835099081"><ele>318.0</ele><time>2026-04-11T20:35:30Z</time></trkpt><trkpt lat="43.15943706635475" lon="11.58632606949424"><ele>318.0</ele><time>2026-04-11T20:35:31Z</time></trkpt><trkpt lat="43.1593542179024" lon="11.586388159824876"><ele>318.0</ele><time>2026-04-11T20:35:32Z</time></trkpt><trkpt lat="43.15927289796363" lon="11.586454416349119"><ele>318.0</ele><time>2026-04-11T20:35:33Z</time></trkpt><trkpt lat="43.159190671810286" lon="11.58652582976245"><ele>318.0</ele><time>2026-04-11T20:35:34Z</time></trkpt><trkpt lat="43.15910991083007" lon="11.586601865441487"><ele>318.0</ele><time>2026-04-11T20:35:35Z</time></trkpt><trkpt lat="43.159036967117466" lon="11.586684758108861"><ele>318.4</ele><time>2026-04-11T20:35:36Z</time></trkpt><trkpt lat="43.15897367099868" lon="11.586776328862166"><ele>318.8</ele><time>2026-04-11T20:35:37Z</time></trkpt><trkpt lat="43.15891515431139" lon="11.586876726833705"><ele>319.2</ele><time>2026-04-11T20:35:38Z</time></trkpt><trkpt lat="43.158848285455704" lon="11.586970884934107"><ele>319.6</ele><time>2026-04-11T20:35:39Z</time></trkpt><trkpt lat="43.158796274675545" lon="11.587075888691157"><ele>320.0</ele><time>2026-04-11T20:35:40Z</time></trkpt><trkpt lat="43.15874803583454" lon="11.587182111709124"><ele>320.0</ele><time>2026-04-11T20:35:41Z</time></trkpt><trkpt lat="43.158699076486926" lon="11.587284649121537"><ele>320.0</ele><time>2026-04-11T20:35:42Z</time></trkpt><trkpt lat="43.15865968407305" lon="11.587393169834854"><ele>320.0</ele><time>2026-04-11T20:35:43Z</time></trkpt><trkpt lat="43.158612491136" lon="11.587496737205178"><ele>320.0</ele><time>2026-04-11T20:35:44Z</time></trkpt><trkpt lat="43.15856762410488" lon="11.587598024672"><ele>320.0</ele><time>2026-04-11T20:35:45Z</time></trkpt><trkpt lat="43.1585175603308" lon="11.587695765273308"><ele>320.0</ele><time>2026-04-11T20:35:46Z</time></trkpt><trkpt lat="43.15846394275218" lon="11.587784891375035"><ele>320.6666666666667</ele><time>2026-04-11T20:35:47Z</time></trkpt><trkpt lat="43.15839877812767" lon="11.587854833192146"><ele>321.33333333333337</ele><time>2026-04-11T20:35:48Z</time></trkpt><trkpt lat="43.15832953606615" lon="11.58790939760942"><ele>322.0</ele><time>2026-04-11T20:35:49Z</time></trkpt><trkpt lat="43.15826237805706" lon="11.587957818994171"><ele>322.6666666666667</ele><time>2026-04-11T20:35:50Z</time></trkpt><trkpt lat="43.15819424620063" lon="11.588000660277883"><ele>323.3333333333333</ele><time>2026-04-11T20:35:51Z</time></trkpt><trkpt lat="43.15808072597925" lon="11.58808375659322"><ele>324.0</ele><time>2026-04-11T20:35:53Z</time></trkpt><trkpt lat="43.15801937720952" lon="11.588115083830793"><ele>324.2</ele><time>2026-04-11T20:35:54Z</time></trkpt><trkpt lat="43.157958012975605" lon="11.588141425982894"><ele>324.4</ele><time>2026-04-11T20:35:55Z</time></trkpt><trkpt lat="43.15783711063305" lon="11.588166356226"><ele>324.6</ele><time>2026-04-11T20:35:57Z</time></trkpt><trkpt lat="43.15771782384924" lon="11.58815095237847"><ele>324.8</ele><time>2026-04-11T20:35:59Z</time></trkpt><trkpt lat="43.15761334209237" lon="11.588090195075155"><ele>325.0</ele><time>2026-04-11T20:36:01Z</time></trkpt><trkpt lat="43.15751023184424" lon="11.588032814248193"><ele>325.0</ele><time>2026-04-11T20:36:03Z</time></trkpt><trkpt lat="43.15742196644341" lon="11.587979306002529"><ele>325.0</ele><time>2026-04-11T20:36:05Z</time></trkpt><trkpt lat="43.1573359223919" lon="11.587926331560025"><ele>325.0</ele><time>2026-04-11T20:36:07Z</time></trkpt><trkpt lat="43.15724607875319" lon="11.587910054400684"><ele>325.0</ele><time>2026-04-11T20:36:09Z</time></trkpt><trkpt lat="43.15715995773211" lon="11.587884907391008"><ele>325.0</ele><time>2026-04-11T20:36:11Z</time></trkpt><trkpt lat="43.157073916296355" lon="11.58784266073408"><ele>324.16666666666663</ele><time>2026-04-11T20:36:13Z</time></trkpt><trkpt lat="43.157000452490024" lon="11.587812001161012"><ele>323.3333333333333</ele><time>2026-04-11T20:36:15Z</time></trkpt><trkpt lat="43.156927508361846" lon="11.587787809824746"><ele>322.5</ele><time>2026-04-11T20:36:17Z</time></trkpt><trkpt lat="43.156864200985204" lon="11.587760107723916"><ele>321.6666666666667</ele><time>2026-04-11T20:36:19Z</time></trkpt><trkpt lat="43.15679290182031" lon="11.587737361373684"><ele>320.83333333333337</ele><time>2026-04-11T20:36:21Z</time></trkpt><trkpt lat="43.15671394331584" lon="11.58771982521582"><ele>320.0</ele><time>2026-04-11T20:36:23Z</time></trkpt><trkpt lat="43.15663028187473" lon="11.587702993075132"><ele>320.0</ele><time>2026-04-11T20:36:25Z</time></trkpt><trkpt lat="43.1565424090631" lon="11.587672546032968"><ele>320.0</ele><time>2026-04-11T20:36:27Z</time></trkpt><trkpt lat="43.156444043462216" lon="11.587639826085827"><ele>320.0</ele><time>2026-04-11T20:36:29Z</time></trkpt><trkpt lat="43.156346720117526" lon="11.587629048036888"><ele>320.0</ele><time>2026-04-11T20:36:31Z</time></trkpt><trkpt lat="43.15624928749449" lon="11.587609676054777"><ele>320.0</ele><time>2026-04-11T20:36:33Z</time></trkpt><trkpt lat="43.15616103070165" lon="11.587631881195987"><ele>319.5</ele><time>2026-04-11T20:36:35Z</time></trkpt><trkpt lat="43.15607222134139" lon="11.587653902829375"><ele>319.0</ele><time>2026-04-11T20:36:37Z</time></trkpt><trkpt lat="43.155985179666715" lon="11.587674763821719"><ele>318.5</ele><time>2026-04-11T20:36:39Z</time></trkpt><trkpt lat="43.15589340779452" lon="11.587709584524694"><ele>318.0</ele><time>2026-04-11T20:36:41Z</time></trkpt><trkpt lat="43.15580332333499" lon="11.58772536705002"><ele>317.5</ele><time>2026-04-11T20:36:43Z</time></trkpt><trkpt lat="43.15572194636353" lon="11.587747460255917"><ele>317.0</ele><time>2026-04-11T20:36:45Z</time></trkpt><trkpt lat="43.15566029575193" lon="11.587795639728908"><ele>317.33333333333337</ele><time>2026-04-11T20:36:47Z</time></trkpt><trkpt lat="43.15558097048876" lon="11.587875132972464"><ele>317.6666666666667</ele><time>2026-04-11T20:36:50Z</time></trkpt><trkpt lat="43.1555272915919" lon="11.587945416008916"><ele>318.0</ele><time>2026-04-11T20:36:52Z</time></trkpt><trkpt lat="43.15546943326991" lon="11.588031910616154"><ele>318.3333333333333</ele><time>2026-04-11T20:36:54Z</time></trkpt><trkpt lat="43.155422403068606" lon="11.588133966998967"><ele>318.66666666666663</ele><time>2026-04-11T20:36:56Z</time></trkpt><trkpt lat="43.155357864218075" lon="11.588230890252506"><ele>319.0</ele><time>2026-04-11T20:36:58Z</time></trkpt><trkpt lat="43.15530629957486" lon="11.588328452164772"><ele>319.0</ele><time>2026-04-11T20:37:00Z</time></trkpt><trkpt lat="43.15525787130911" lon="11.588419273535456"><ele>319.0</ele><time>2026-04-11T20:37:02Z</time></trkpt><trkpt lat="43.155209256641974" lon="11.58850816590419"><ele>319.0</ele><time>2026-04-11T20:37:04Z</time></trkpt><trkpt lat="43.15514352963606" lon="11.58859558110607"><ele>319.0</ele><time>2026-04-11T20:37:06Z</time></trkpt><trkpt lat="43.15508637048168" lon="11.588699983132114"><ele>319.0</ele><time>2026-04-11T20:37:08Z</time></trkpt><trkpt lat="43.15501513356071" lon="11.588807214873738"><ele>318.8333333333333</ele><time>2026-04-11T20:37:10Z</time></trkpt><trkpt lat="43.15493802241959" lon="11.588891662163862"><ele>318.66666666666663</ele><time>2026-04-11T20:37:12Z</time></trkpt><trkpt lat="43.15486591173601" lon="11.588955022208049"><ele>318.5</ele><time>2026-04-11T20:37:14Z</time></trkpt><trkpt lat="43.15480905377302" lon="11.58902330711675"><ele>318.3333333333333</ele><time>2026-04-11T20:37:16Z</time></trkpt><trkpt lat="43.1547337018689" lon="11.589070625318378"><ele>318.1666666666667</ele><time>2026-04-11T20:37:18Z</time></trkpt><trkpt lat="43.15464735808123" lon="11.589093263322626"><ele>318.0</ele><time>2026-04-11T20:37:20Z</time></trkpt><trkpt lat="43.15455371474211" lon="11.58912952662156"><ele>318.0</ele><time>2026-04-11T20:37:22Z</time></trkpt><trkpt lat="43.1544688287098" lon="11.589177736981036"><ele>318.0</ele><time>2026-04-11T20:37:24Z</time></trkpt><trkpt lat="43.15437123911571" lon="11.589236993515035"><ele>318.0</ele><time>2026-04-11T20:37:26Z</time></trkpt><trkpt lat="43.15428310134282" lon="11.589276947848377"><ele>318.0</ele><time>2026-04-11T20:37:28Z</time></trkpt><trkpt lat="43.15418148923447" lon="11.589327365169536"><ele>318.0</ele><time>2026-04-11T20:37:30Z</time></trkpt><trkpt lat="43.15407997671972" lon="11.589377684668612"><ele>315.6</ele><time>2026-04-11T20:37:32Z</time></trkpt><trkpt lat="43.154009540119304" lon="11.589328288734333"><ele>313.20000000000005</ele><time>2026-04-11T20:37:33Z</time></trkpt><trkpt lat="43.15392541494664" lon="11.589364629668932"><ele>310.8</ele><time>2026-04-11T20:37:35Z</time></trkpt><trkpt lat="43.15382278907456" lon="11.589398897317304"><ele>308.40000000000003</ele><time>2026-04-11T20:37:37Z</time></trkpt><trkpt lat="43.15370343198791" lon="11.589433004849205"><ele>306.0</ele><time>2026-04-11T20:37:39Z</time></trkpt><trkpt lat="43.15359196883256" lon="11.58946670564977"><ele>308.2</ele><time>2026-04-11T20:37:41Z</time></trkpt><trkpt lat="43.153488836294365" lon="11.589533289119547"><ele>310.40000000000003</ele><time>2026-04-11T20:37:43Z</time></trkpt><trkpt lat="43.153418000018945" lon="11.589654783798851"><ele>312.6</ele><time>2026-04-11T20:37:45Z</time></trkpt><trkpt lat="43.153373002684454" lon="11.589791545559674"><ele>314.8</ele><time>2026-04-11T20:37:47Z</time></trkpt><trkpt lat="43.153408938516336" lon="11.589889424343703"><ele>317.0</ele><time>2026-04-11T20:37:48Z</time></trkpt><trkpt lat="43.153459083107066" lon="11.590025479868597"><ele>317.0</ele><time>2026-04-11T20:37:50Z</time></trkpt><trkpt lat="43.153543808404535" lon="11.59012768583745"><ele>317.0</ele><time>2026-04-11T20:37:52Z</time></trkpt><trkpt lat="43.1536109909469" lon="11.590214946948162"><ele>317.0</ele><time>2026-04-11T20:37:54Z</time></trkpt><trkpt lat="43.15366606682624" lon="11.590301371869193"><ele>317.0</ele><time>2026-04-11T20:37:56Z</time></trkpt><trkpt lat="43.15372764697744" lon="11.590387708457019"><ele>317.0</ele><time>2026-04-11T20:37:58Z</time></trkpt><trkpt lat="43.15378758919236" lon="11.590474466924505"><ele>315.0</ele><time>2026-04-11T20:38:00Z</time></trkpt><trkpt lat="43.15381929227115" lon="11.590615895258223"><ele>313.0</ele><time>2026-04-11T20:38:02Z</time></trkpt><trkpt lat="43.153815367019774" lon="11.590760223006283"><ele>311.0</ele><time>2026-04-11T20:38:04Z</time></trkpt><trkpt lat="43.153813294010554" lon="11.590884610276955"><ele>309.0</ele><time>2026-04-11T20:38:06Z</time></trkpt><trkpt lat="43.1538016673528" lon="11.591006585853412"><ele>307.0</ele><time>2026-04-11T20:38:08Z</time></trkpt><trkpt lat="43.15376904888131" lon="11.591105211112158"><ele>307.0</ele><time>2026-04-11T20:38:10Z</time></trkpt><trkpt lat="43.15366585574077" lon="11.591152446891577"><ele>307.0</ele><time>2026-04-11T20:38:12Z</time></trkpt><trkpt lat="43.153551208352674" lon="11.591131711683149"><ele>307.0</ele><time>2026-04-11T20:38:14Z</time></trkpt><trkpt lat="43.15343651015145" lon="11.591115698694471"><ele>307.0</ele><time>2026-04-11T20:38:16Z</time></trkpt><trkpt lat="43.15332492503202" lon="11.591089921543075"><ele>307.0</ele><time>2026-04-11T20:38:18Z</time></trkpt><trkpt lat="43.15321412538357" lon="11.591070287243127"><ele>307.0</ele><time>2026-04-11T20:38:20Z</time></trkpt><trkpt lat="43.15310017007823" lon="11.591061930431012"><ele>307.0</ele><time>2026-04-11T20:38:22Z</time></trkpt><trkpt lat="43.15298426886999" lon="11.59104048111917"><ele>307.0</ele><time>2026-04-11T20:38:24Z</time></trkpt><trkpt lat="43.15287038936657" lon="11.591019749218963"><ele>305.5</ele><time>2026-04-11T20:38:26Z</time></trkpt><trkpt lat="43.15275374919667" lon="11.591000230610204"><ele>304.0</ele><time>2026-04-11T20:38:28Z</time></trkpt><trkpt lat="43.152635113545195" lon="11.590984290887844"><ele>302.5</ele><time>2026-04-11T20:38:30Z</time></trkpt><trkpt lat="43.15251752703987" lon="11.590972254306516"><ele>301.0</ele><time>2026-04-11T20:38:32Z</time></trkpt><trkpt lat="43.152409019914344" lon="11.590946789909802"><ele>296.6</ele><time>2026-04-11T20:38:34Z</time></trkpt><trkpt lat="43.15230451568174" lon="11.590926603228128"><ele>292.20000000000005</ele><time>2026-04-11T20:38:36Z</time></trkpt><trkpt lat="43.15219961193288" lon="11.590888622349045"><ele>287.79999999999995</ele><time>2026-04-11T20:38:38Z</time></trkpt><trkpt lat="43.152095071918716" lon="11.590833723606952"><ele>283.4</ele><time>2026-04-11T20:38:40Z</time></trkpt><trkpt lat="43.15200760212875" lon="11.590726666679236"><ele>279.0</ele><time>2026-04-11T20:38:42Z</time></trkpt><trkpt lat="43.151938632848086" lon="11.59058637056394"><ele>279.0</ele><time>2026-04-11T20:38:44Z</time></trkpt><trkpt lat="43.15188452093469" lon="11.59043824204368"><ele>279.0</ele><time>2026-04-11T20:38:46Z</time></trkpt><trkpt lat="43.1518501344123" lon="11.590275872718475"><ele>279.0</ele><time>2026-04-11T20:38:48Z</time></trkpt><trkpt lat="43.15183977121224" lon="11.59018835875881"><ele>279.0</ele><time>2026-04-11T20:38:49Z</time></trkpt><trkpt lat="43.15184315675839" lon="11.590019548250496"><ele>279.0</ele><time>2026-04-11T20:38:51Z</time></trkpt><trkpt lat="43.15186821031849" lon="11.589859516597071"><ele>278.59999999999997</ele><time>2026-04-11T20:38:53Z</time></trkpt><trkpt lat="43.151898753549816" lon="11.589710897494882"><ele>278.2</ele><time>2026-04-11T20:38:55Z</time></trkpt><trkpt lat="43.15192698976364" lon="11.589583218915756"><ele>277.79999999999995</ele><time>2026-04-11T20:38:57Z</time></trkpt><trkpt lat="43.151948428908746" lon="11.589437179387149"><ele>277.4</ele><time>2026-04-11T20:38:59Z</time></trkpt><trkpt lat="43.15195293714791" lon="11.589344756372016"><ele>277.0</ele><time>2026-04-11T20:39:00Z</time></trkpt><trkpt lat="43.151943240055445" lon="11.589255506503735"><ele>277.0</ele><time>2026-04-11T20:39:01Z</time></trkpt><trkpt lat="43.151924278798504" lon="11.589168945492931"><ele>277.0</ele><time>2026-04-11T20:39:02Z</time></trkpt><trkpt lat="43.15187730755969" lon="11.589018986767833"><ele>277.0</ele><time>2026-04-11T20:39:04Z</time></trkpt><trkpt lat="43.15184836725504" lon="11.588930077109884"><ele>277.0</ele><time>2026-04-11T20:39:05Z</time></trkpt><trkpt lat="43.1518142611862" lon="11.588846691942239"><ele>277.0</ele><time>2026-04-11T20:39:06Z</time></trkpt><trkpt lat="43.15178934914349" lon="11.588756833842341"><ele>277.0</ele><time>2026-04-11T20:39:07Z</time></trkpt><trkpt lat="43.15176112363087" lon="11.588674331571632"><ele>276.8333333333333</ele><time>2026-04-11T20:39:08Z</time></trkpt><trkpt lat="43.15172308253522" lon="11.588597804420987"><ele>276.66666666666663</ele><time>2026-04-11T20:39:09Z</time></trkpt><trkpt lat="43.15168649835259" lon="11.588515380776286"><ele>276.5</ele><time>2026-04-11T20:39:10Z</time></trkpt><trkpt lat="43.15165244460754" lon="11.588430501729547"><ele>276.3333333333333</ele><time>2026-04-11T20:39:11Z</time></trkpt><trkpt lat="43.151618621234505" lon="11.588347239528428"><ele>276.1666666666667</ele><time>2026-04-11T20:39:12Z</time></trkpt><trkpt lat="43.1515874324004" lon="11.588267476872105"><ele>276.0</ele><time>2026-04-11T20:39:13Z</time></trkpt><trkpt lat="43.151518187496656" lon="11.588123357451343"><ele>275.0</ele><time>2026-04-11T20:39:15Z</time></trkpt><trkpt lat="43.1514572800931" lon="11.587977859587772"><ele>274.0</ele><time>2026-04-11T20:39:17Z</time></trkpt><trkpt lat="43.15139646058927" lon="11.587832586451132"><ele>273.0</ele><time>2026-04-11T20:39:19Z</time></trkpt><trkpt lat="43.15133455974687" lon="11.587694164832842"><ele>272.0</ele><time>2026-04-11T20:39:21Z</time></trkpt><trkpt lat="43.15128072000199" lon="11.587551421912103"><ele>271.75</ele><time>2026-04-11T20:39:23Z</time></trkpt><trkpt lat="43.15122497199914" lon="11.587421491498459"><ele>271.5</ele><time>2026-04-11T20:39:25Z</time></trkpt><trkpt lat="43.151166084183835" lon="11.587284618111878"><ele>271.25</ele><time>2026-04-11T20:39:27Z</time></trkpt><trkpt lat="43.151105223092955" lon="11.587144103189404"><ele>271.0</ele><time>2026-04-11T20:39:29Z</time></trkpt><trkpt lat="43.15104886485134" lon="11.587002401631704"><ele>271.0</ele><time>2026-04-11T20:39:31Z</time></trkpt><trkpt lat="43.15099659929072" lon="11.5868702325841"><ele>271.0</ele><time>2026-04-11T20:39:33Z</time></trkpt><trkpt lat="43.15093847608507" lon="11.586728913329845"><ele>271.0</ele><time>2026-04-11T20:39:35Z</time></trkpt><trkpt lat="43.150879366038836" lon="11.586587280796335"><ele>271.0</ele><time>2026-04-11T20:39:37Z</time></trkpt><trkpt lat="43.15081679634996" lon="11.58644285262952"><ele>271.0</ele><time>2026-04-11T20:39:39Z</time></trkpt><trkpt lat="43.150788267221245" lon="11.586362684160456"><ele>271.0</ele><time>2026-04-11T20:39:40Z</time></trkpt><trkpt lat="43.15075646377524" lon="11.586282878195933"><ele>271.0</ele><time>2026-04-11T20:39:41Z</time></trkpt><trkpt lat="43.15072331773815" lon="11.58620392124132"><ele>271.0</ele><time>2026-04-11T20:39:42Z</time></trkpt><trkpt lat="43.150692315192835" lon="11.586125339538949"><ele>271.0</ele><time>2026-04-11T20:39:43Z</time></trkpt><trkpt lat="43.15066215517455" lon="11.586046826471163"><ele>271.0</ele><time>2026-04-11T20:39:44Z</time></trkpt><trkpt lat="43.150631040833495" lon="11.585967161378043"><ele>271.0</ele><time>2026-04-11T20:39:45Z</time></trkpt><trkpt lat="43.150600924082156" lon="11.58588760828712"><ele>270.85714285714283</ele><time>2026-04-11T20:39:46Z</time></trkpt><trkpt lat="43.15057145400708" lon="11.585807938978604"><ele>270.7142857142857</ele><time>2026-04-11T20:39:47Z</time></trkpt><trkpt lat="43.150543401521574" lon="11.58572620607147"><ele>270.57142857142856</ele><time>2026-04-11T20:39:48Z</time></trkpt><trkpt lat="43.150514028161496" lon="11.585644810652392"><ele>270.42857142857144</ele><time>2026-04-11T20:39:49Z</time></trkpt><trkpt lat="43.150483909804436" lon="11.585561328943493"><ele>270.2857142857143</ele><time>2026-04-11T20:39:50Z</time></trkpt><trkpt lat="43.150454542413996" lon="11.585473086249149"><ele>270.1428571428571</ele><time>2026-04-11T20:39:51Z</time></trkpt><trkpt lat="43.15042511484669" lon="11.5853840456713"><ele>270.0</ele><time>2026-04-11T20:39:52Z</time></trkpt><trkpt lat="43.150395940131084" lon="11.58529354641593"><ele>270.2857142857143</ele><time>2026-04-11T20:39:53Z</time></trkpt><trkpt lat="43.15036422498024" lon="11.585201633012675"><ele>270.57142857142856</ele><time>2026-04-11T20:39:54Z</time></trkpt><trkpt lat="43.150334729432885" lon="11.58510964254202"><ele>270.85714285714283</ele><time>2026-04-11T20:39:55Z</time></trkpt><trkpt lat="43.15030743544862" lon="11.585027387053461"><ele>271.1428571428571</ele><time>2026-04-11T20:39:56Z</time></trkpt><trkpt lat="43.15027719835129" lon="11.58493870442267"><ele>271.42857142857144</ele><time>2026-04-11T20:39:57Z</time></trkpt><trkpt lat="43.150250169857365" lon="11.58484377429056"><ele>271.71428571428567</ele><time>2026-04-11T20:39:58Z</time></trkpt><trkpt lat="43.15021827343805" lon="11.584744541187726"><ele>272.0</ele><time>2026-04-11T20:39:59Z</time></trkpt><trkpt lat="43.15018499402108" lon="11.58464907260227"><ele>272.0</ele><time>2026-04-11T20:40:00Z</time></trkpt><trkpt lat="43.15015485646682" lon="11.58455226262583"><ele>272.0</ele><time>2026-04-11T20:40:01Z</time></trkpt><trkpt lat="43.15012398042318" lon="11.584456728273276"><ele>272.0</ele><time>2026-04-11T20:40:02Z</time></trkpt><trkpt lat="43.15009047812204" lon="11.584356604328876"><ele>272.0</ele><time>2026-04-11T20:40:03Z</time></trkpt><trkpt lat="43.150048454131785" lon="11.584258197699578"><ele>272.0</ele><time>2026-04-11T20:40:04Z</time></trkpt><trkpt lat="43.14999796321651" lon="11.584159195243906"><ele>272.0</ele><time>2026-04-11T20:40:05Z</time></trkpt><trkpt lat="43.149941384011875" lon="11.584064694246045"><ele>271.8</ele><time>2026-04-11T20:40:06Z</time></trkpt><trkpt lat="43.14987789516409" lon="11.583974862968391"><ele>271.6</ele><time>2026-04-11T20:40:07Z</time></trkpt><trkpt lat="43.149804318534116" lon="11.583895943812285"><ele>271.40000000000003</ele><time>2026-04-11T20:40:08Z</time></trkpt><trkpt lat="43.14972968602836" lon="11.583818269519508"><ele>271.2</ele><time>2026-04-11T20:40:09Z</time></trkpt><trkpt lat="43.149653358063894" lon="11.583739914565887"><ele>271.0</ele><time>2026-04-11T20:40:10Z</time></trkpt><trkpt lat="43.149581083983946" lon="11.583660562259208"><ele>271.0</ele><time>2026-04-11T20:40:11Z</time></trkpt><trkpt lat="43.14950909681199" lon="11.583583263210068"><ele>271.0</ele><time>2026-04-11T20:40:12Z</time></trkpt><trkpt lat="43.14944019918991" lon="11.58351039150406"><ele>271.0</ele><time>2026-04-11T20:40:13Z</time></trkpt><trkpt lat="43.149367721788394" lon="11.583443752979"><ele>271.0</ele><time>2026-04-11T20:40:14Z</time></trkpt><trkpt lat="43.14929006372967" lon="11.583404626147525"><ele>271.0</ele><time>2026-04-11T20:40:15Z</time></trkpt><trkpt lat="43.14921353223966" lon="11.58339604374892"><ele>271.0</ele><time>2026-04-11T20:40:16Z</time></trkpt><trkpt lat="43.14914288318203" lon="11.583395062858104"><ele>271.0</ele><time>2026-04-11T20:40:17Z</time></trkpt><trkpt lat="43.149021481605715" lon="11.583431895936375"><ele>271.0</ele><time>2026-04-11T20:40:19Z</time></trkpt><trkpt lat="43.14891527343921" lon="11.58348155757706"><ele>271.0</ele><time>2026-04-11T20:40:21Z</time></trkpt><trkpt lat="43.14881855570974" lon="11.583530918448421"><ele>271.0</ele><time>2026-04-11T20:40:23Z</time></trkpt><trkpt lat="43.148730026087826" lon="11.583575865885125"><ele>271.0</ele><time>2026-04-11T20:40:25Z</time></trkpt><trkpt lat="43.14864639924738" lon="11.583614604965735"><ele>271.0</ele><time>2026-04-11T20:40:27Z</time></trkpt><trkpt lat="43.14856103285747" lon="11.583646869365378"><ele>271.0</ele><time>2026-04-11T20:40:29Z</time></trkpt><trkpt lat="43.148485372730796" lon="11.583680964653784"><ele>271.0</ele><time>2026-04-11T20:40:31Z</time></trkpt><trkpt lat="43.148404431056" lon="11.583694907838636"><ele>271.0</ele><time>2026-04-11T20:40:33Z</time></trkpt><trkpt lat="43.14833209029249" lon="11.58371115669447"><ele>271.0</ele><time>2026-04-11T20:40:35Z</time></trkpt><trkpt lat="43.14825826851234" lon="11.583712959399106"><ele>271.0</ele><time>2026-04-11T20:40:37Z</time></trkpt><trkpt lat="43.148183079441026" lon="11.583707810087477"><ele>271.0</ele><time>2026-04-11T20:40:39Z</time></trkpt><trkpt lat="43.14810859467228" lon="11.583706362655448"><ele>271.0</ele><time>2026-04-11T20:40:41Z</time></trkpt><trkpt lat="43.14803586561772" lon="11.58370055861065"><ele>271.0</ele><time>2026-04-11T20:40:43Z</time></trkpt><trkpt lat="43.147962325541876" lon="11.583687250781146"><ele>271.0</ele><time>2026-04-11T20:40:45Z</time></trkpt><trkpt lat="43.14788524498054" lon="11.583671613128525"><ele>271.0</ele><time>2026-04-11T20:40:47Z</time></trkpt><trkpt lat="43.14780096215016" lon="11.583661339657418"><ele>271.0</ele><time>2026-04-11T20:40:49Z</time></trkpt><trkpt lat="43.14771210958483" lon="11.58363912347021"><ele>271.0</ele><time>2026-04-11T20:40:51Z</time></trkpt><trkpt lat="43.147627464418306" lon="11.583627663399584"><ele>271.0</ele><time>2026-04-11T20:40:53Z</time></trkpt><trkpt lat="43.1475476136691" lon="11.583613378371856"><ele>271.0</ele><time>2026-04-11T20:40:55Z</time></trkpt><trkpt lat="43.14747224662358" lon="11.583594209633242"><ele>271.0</ele><time>2026-04-11T20:40:57Z</time></trkpt><trkpt lat="43.147396351601664" lon="11.583585762026772"><ele>271.0</ele><time>2026-04-11T20:40:59Z</time></trkpt><trkpt lat="43.14731101681126" lon="11.583569060358784"><ele>271.0</ele><time>2026-04-11T20:41:01Z</time></trkpt><trkpt lat="43.14722741425042" lon="11.583546560461482"><ele>270.8</ele><time>2026-04-11T20:41:03Z</time></trkpt><trkpt lat="43.14714703868293" lon="11.58353951688001"><ele>270.6</ele><time>2026-04-11T20:41:05Z</time></trkpt><trkpt lat="43.147057490809" lon="11.583529698745414"><ele>270.4</ele><time>2026-04-11T20:41:07Z</time></trkpt><trkpt lat="43.14696558565752" lon="11.583511499088615"><ele>270.2</ele><time>2026-04-11T20:41:09Z</time></trkpt><trkpt lat="43.146872750006956" lon="11.583501727526217"><ele>270.0</ele><time>2026-04-11T20:41:11Z</time></trkpt><trkpt lat="43.146778356127584" lon="11.583485342395432"><ele>270.0</ele><time>2026-04-11T20:41:13Z</time></trkpt><trkpt lat="43.1466810799592" lon="11.58346924341515"><ele>270.0</ele><time>2026-04-11T20:41:15Z</time></trkpt><trkpt lat="43.146581562910946" lon="11.58344377992883"><ele>270.0</ele><time>2026-04-11T20:41:17Z</time></trkpt><trkpt lat="43.14648000871657" lon="11.583431424735068"><ele>270.0</ele><time>2026-04-11T20:41:19Z</time></trkpt><trkpt lat="43.14638346245381" lon="11.583419455729345"><ele>270.0</ele><time>2026-04-11T20:41:21Z</time></trkpt><trkpt lat="43.1462881529446" lon="11.583398779990059"><ele>270.2</ele><time>2026-04-11T20:41:23Z</time></trkpt><trkpt lat="43.14619707745892" lon="11.58338366879492"><ele>270.4</ele><time>2026-04-11T20:41:25Z</time></trkpt><trkpt lat="43.14610766702806" lon="11.583366739800693"><ele>270.6</ele><time>2026-04-11T20:41:27Z</time></trkpt><trkpt lat="43.14600986732325" lon="11.583347890802688"><ele>270.8</ele><time>2026-04-11T20:41:29Z</time></trkpt><trkpt lat="43.145912252355025" lon="11.58332463043342"><ele>271.0</ele><time>2026-04-11T20:41:31Z</time></trkpt><trkpt lat="43.14580873055456" lon="11.583301292256627"><ele>270.40000000000003</ele><time>2026-04-11T20:41:33Z</time></trkpt><trkpt lat="43.14570612354859" lon="11.583281967553408"><ele>269.8</ele><time>2026-04-11T20:41:35Z</time></trkpt><trkpt lat="43.14560918802455" lon="11.583261550697092"><ele>269.20000000000005</ele><time>2026-04-11T20:41:37Z</time></trkpt><trkpt lat="43.14551527538318" lon="11.583232433668053"><ele>268.6</ele><time>2026-04-11T20:41:39Z</time></trkpt><trkpt lat="43.1454254444258" lon="11.583199838513034"><ele>268.0</ele><time>2026-04-11T20:41:41Z</time></trkpt><trkpt lat="43.14533434649381" lon="11.583163670595082"><ele>268.0</ele><time>2026-04-11T20:41:43Z</time></trkpt><trkpt lat="43.14523986539807" lon="11.583118284305742"><ele>268.0</ele><time>2026-04-11T20:41:45Z</time></trkpt><trkpt lat="43.145145304942425" lon="11.583079821620533"><ele>268.0</ele><time>2026-04-11T20:41:47Z</time></trkpt><trkpt lat="43.145049801730295" lon="11.583028660961165"><ele>268.0</ele><time>2026-04-11T20:41:49Z</time></trkpt><trkpt lat="43.14495888172136" lon="11.582983906743134"><ele>268.0</ele><time>2026-04-11T20:41:51Z</time></trkpt><trkpt lat="43.14486565273702" lon="11.582932943768713"><ele>268.16666666666663</ele><time>2026-04-11T20:41:53Z</time></trkpt><trkpt lat="43.14477979613149" lon="11.582888494010037"><ele>268.3333333333333</ele><time>2026-04-11T20:41:55Z</time></trkpt><trkpt lat="43.14470504899363" lon="11.582844951019773"><ele>268.5</ele><time>2026-04-11T20:41:57Z</time></trkpt><trkpt lat="43.144629564543266" lon="11.58280652660075"><ele>268.6666666666667</ele><time>2026-04-11T20:41:59Z</time></trkpt><trkpt lat="43.14455300693692" lon="11.582757911524494"><ele>268.83333333333337</ele><time>2026-04-11T20:42:01Z</time></trkpt><trkpt lat="43.144474088479505" lon="11.5827066745745"><ele>269.0</ele><time>2026-04-11T20:42:03Z</time></trkpt><trkpt lat="43.144388678945525" lon="11.582659931001377"><ele>269.2</ele><time>2026-04-11T20:42:05Z</time></trkpt><trkpt lat="43.1443021741283" lon="11.582607116587342"><ele>269.4</ele><time>2026-04-11T20:42:07Z</time></trkpt><trkpt lat="43.1442148722115" lon="11.58255314714764"><ele>269.6</ele><time>2026-04-11T20:42:09Z</time></trkpt><trkpt lat="43.14412573890633" lon="11.58250469382938"><ele>269.8</ele><time>2026-04-11T20:42:11Z</time></trkpt><trkpt lat="43.144036248307174" lon="11.582452897994134"><ele>270.0</ele><time>2026-04-11T20:42:13Z</time></trkpt><trkpt lat="43.143953161427476" lon="11.58240839784262"><ele>270.0</ele><time>2026-04-11T20:42:15Z</time></trkpt><trkpt lat="43.143876568855276" lon="11.582365490413956"><ele>270.0</ele><time>2026-04-11T20:42:17Z</time></trkpt><trkpt lat="43.14379556368395" lon="11.582319326025656"><ele>270.0</ele><time>2026-04-11T20:42:19Z</time></trkpt><trkpt lat="43.143712252175405" lon="11.582272217483187"><ele>270.0</ele><time>2026-04-11T20:42:21Z</time></trkpt><trkpt lat="43.14362796973009" lon="11.582224198106298"><ele>270.0</ele><time>2026-04-11T20:42:23Z</time></trkpt><trkpt lat="43.14354341845761" lon="11.582169762345867"><ele>270.0</ele><time>2026-04-11T20:42:25Z</time></trkpt><trkpt lat="43.143456330588656" lon="11.582125453105824"><ele>270.0</ele><time>2026-04-11T20:42:27Z</time></trkpt><trkpt lat="43.143367556822156" lon="11.582073994901235"><ele>270.0</ele><time>2026-04-11T20:42:29Z</time></trkpt><trkpt lat="43.14327373685435" lon="11.58203959248216"><ele>270.0</ele><time>2026-04-11T20:42:31Z</time></trkpt><trkpt lat="43.14317606038147" lon="11.581994627632236"><ele>270.0</ele><time>2026-04-11T20:42:33Z</time></trkpt><trkpt lat="43.14308043108776" lon="11.581955487984047"><ele>270.0</ele><time>2026-04-11T20:42:35Z</time></trkpt><trkpt lat="43.142988633272545" lon="11.581922448417586"><ele>271.8</ele><time>2026-04-11T20:42:37Z</time></trkpt><trkpt lat="43.14290262204522" lon="11.581895351488482"><ele>273.6</ele><time>2026-04-11T20:42:39Z</time></trkpt><trkpt lat="43.142811420185765" lon="11.581873257520376"><ele>275.4</ele><time>2026-04-11T20:42:41Z</time></trkpt><trkpt lat="43.14271907784156" lon="11.58185104509718"><ele>277.2</ele><time>2026-04-11T20:42:43Z</time></trkpt><trkpt lat="43.14262487213048" lon="11.581824761130616"><ele>279.0</ele><time>2026-04-11T20:42:45Z</time></trkpt><trkpt lat="43.14253439821517" lon="11.5818013462926"><ele>279.0</ele><time>2026-04-11T20:42:47Z</time></trkpt><trkpt lat="43.14243991547639" lon="11.58176536548207"><ele>279.0</ele><time>2026-04-11T20:42:49Z</time></trkpt><trkpt lat="43.14234054665745" lon="11.58173641425598"><ele>279.0</ele><time>2026-04-11T20:42:51Z</time></trkpt><trkpt lat="43.1422393167382" lon="11.581715822746228"><ele>279.0</ele><time>2026-04-11T20:42:53Z</time></trkpt><trkpt lat="43.1421294455665" lon="11.581684575164436"><ele>279.0</ele><time>2026-04-11T20:42:55Z</time></trkpt><trkpt lat="43.142015424356714" lon="11.581638746218692"><ele>277.59999999999997</ele><time>2026-04-11T20:42:57Z</time></trkpt><trkpt lat="43.14189816119444" lon="11.581587153870188"><ele>276.2</ele><time>2026-04-11T20:42:59Z</time></trkpt><trkpt lat="43.14178135122451" lon="11.581539335448538"><ele>274.79999999999995</ele><time>2026-04-11T20:43:01Z</time></trkpt><trkpt lat="43.14172087753976" lon="11.581508573068454"><ele>273.4</ele><time>2026-04-11T20:43:02Z</time></trkpt><trkpt lat="43.14166158382291" lon="11.581475874741237"><ele>272.0</ele><time>2026-04-11T20:43:03Z</time></trkpt><trkpt lat="43.14154344780089" lon="11.581407262604335"><ele>271.71428571428567</ele><time>2026-04-11T20:43:05Z</time></trkpt><trkpt lat="43.1414842493717" lon="11.581368415499464"><ele>271.42857142857144</ele><time>2026-04-11T20:43:06Z</time></trkpt><trkpt lat="43.14142322722415" lon="11.581332675861951"><ele>271.1428571428571</ele><time>2026-04-11T20:43:07Z</time></trkpt><trkpt lat="43.14136387618285" lon="11.58129635926195"><ele>270.85714285714283</ele><time>2026-04-11T20:43:08Z</time></trkpt><trkpt lat="43.14130276885447" lon="11.581261284657108"><ele>270.57142857142856</ele><time>2026-04-11T20:43:09Z</time></trkpt><trkpt lat="43.141240540730806" lon="11.581220431883892"><ele>270.2857142857143</ele><time>2026-04-11T20:43:10Z</time></trkpt><trkpt lat="43.141177657495554" lon="11.581184701964066"><ele>270.0</ele><time>2026-04-11T20:43:11Z</time></trkpt><trkpt lat="43.14111500807097" lon="11.58114833646578"><ele>270.0</ele><time>2026-04-11T20:43:12Z</time></trkpt><trkpt lat="43.14105202088055" lon="11.581113430070522"><ele>270.0</ele><time>2026-04-11T20:43:13Z</time></trkpt><trkpt lat="43.14098869068697" lon="11.581077536175712"><ele>270.0</ele><time>2026-04-11T20:43:14Z</time></trkpt><trkpt lat="43.140928959741444" lon="11.581044627960985"><ele>270.0</ele><time>2026-04-11T20:43:15Z</time></trkpt><trkpt lat="43.14086710764388" lon="11.581007350923052"><ele>270.0</ele><time>2026-04-11T20:43:16Z</time></trkpt><trkpt lat="43.14080654775684" lon="11.580974973774373"><ele>270.0</ele><time>2026-04-11T20:43:17Z</time></trkpt><trkpt lat="43.14074666344517" lon="11.580943062710574"><ele>270.0</ele><time>2026-04-11T20:43:18Z</time></trkpt><trkpt lat="43.14068786070884" lon="11.580904622702116"><ele>269.5</ele><time>2026-04-11T20:43:19Z</time></trkpt><trkpt lat="43.14057112851345" lon="11.580831030408325"><ele>269.0</ele><time>2026-04-11T20:43:21Z</time></trkpt><trkpt lat="43.1405112946038" lon="11.580797626044191"><ele>268.5</ele><time>2026-04-11T20:43:22Z</time></trkpt><trkpt lat="43.140452549350805" lon="11.58076446078797"><ele>268.0</ele><time>2026-04-11T20:43:23Z</time></trkpt><trkpt lat="43.14039304434776" lon="11.58072799302619"><ele>267.5</ele><time>2026-04-11T20:43:24Z</time></trkpt><trkpt lat="43.14027812363902" lon="11.580664934342115"><ele>267.0</ele><time>2026-04-11T20:43:26Z</time></trkpt><trkpt lat="43.14016660518743" lon="11.580602968171343"><ele>267.0</ele><time>2026-04-11T20:43:28Z</time></trkpt><trkpt lat="43.140057289906885" lon="11.580529785319898"><ele>267.0</ele><time>2026-04-11T20:43:30Z</time></trkpt><trkpt lat="43.13995247436289" lon="11.580465579379794"><ele>267.0</ele><time>2026-04-11T20:43:32Z</time></trkpt><trkpt lat="43.13984803864778" lon="11.580399213015918"><ele>267.0</ele><time>2026-04-11T20:43:34Z</time></trkpt><trkpt lat="43.13974300426363" lon="11.580335232089952"><ele>267.0</ele><time>2026-04-11T20:43:36Z</time></trkpt><trkpt lat="43.139636745248495" lon="11.580275330737294"><ele>267.0</ele><time>2026-04-11T20:43:38Z</time></trkpt><trkpt lat="43.13953487258059" lon="11.580209511444401"><ele>267.0</ele><time>2026-04-11T20:43:40Z</time></trkpt><trkpt lat="43.139432473318415" lon="11.580146909751985"><ele>267.0</ele><time>2026-04-11T20:43:42Z</time></trkpt><trkpt lat="43.13932900547734" lon="11.580089066339351"><ele>267.0</ele><time>2026-04-11T20:43:44Z</time></trkpt><trkpt lat="43.13922898606758" lon="11.580024619598433"><ele>267.0</ele><time>2026-04-11T20:43:46Z</time></trkpt><trkpt lat="43.13912867568454" lon="11.579961983313451"><ele>267.0</ele><time>2026-04-11T20:43:48Z</time></trkpt><trkpt lat="43.139030491320945" lon="11.579907005056553"><ele>267.0</ele><time>2026-04-11T20:43:50Z</time></trkpt><trkpt lat="43.13893707295791" lon="11.579851393530994"><ele>267.0</ele><time>2026-04-11T20:43:52Z</time></trkpt><trkpt lat="43.13884475804443" lon="11.579789333511425"><ele>267.0</ele><time>2026-04-11T20:43:54Z</time></trkpt><trkpt lat="43.13874000515165" lon="11.579723172697785"><ele>267.0</ele><time>2026-04-11T20:43:56Z</time></trkpt><trkpt lat="43.13863479018188" lon="11.579659954172559"><ele>267.0</ele><time>2026-04-11T20:43:58Z</time></trkpt><trkpt lat="43.13852847464966" lon="11.57958189895774"><ele>267.0</ele><time>2026-04-11T20:44:00Z</time></trkpt><trkpt lat="43.138425696617865" lon="11.579499477707433"><ele>267.4</ele><time>2026-04-11T20:44:02Z</time></trkpt><trkpt lat="43.13833203255471" lon="11.579411863448346"><ele>267.79999999999995</ele><time>2026-04-11T20:44:04Z</time></trkpt><trkpt lat="43.138239171299745" lon="11.579325827366343"><ele>268.2</ele><time>2026-04-11T20:44:06Z</time></trkpt><trkpt lat="43.13815326068342" lon="11.57924658497769"><ele>268.59999999999997</ele><time>2026-04-11T20:44:08Z</time></trkpt><trkpt lat="43.138064214916504" lon="11.579170404557484"><ele>269.0</ele><time>2026-04-11T20:44:10Z</time></trkpt><trkpt lat="43.13797998687654" lon="11.579099117293037"><ele>268.83333333333337</ele><time>2026-04-11T20:44:12Z</time></trkpt><trkpt lat="43.137901334052344" lon="11.579024464499245"><ele>268.6666666666667</ele><time>2026-04-11T20:44:14Z</time></trkpt><trkpt lat="43.13782785143182" lon="11.578947433913811"><ele>268.5</ele><time>2026-04-11T20:44:16Z</time></trkpt><trkpt lat="43.137758332753926" lon="11.578886523427792"><ele>268.3333333333333</ele><time>2026-04-11T20:44:18Z</time></trkpt><trkpt lat="43.13769222004747" lon="11.578821601909848"><ele>268.16666666666663</ele><time>2026-04-11T20:44:20Z</time></trkpt><trkpt lat="43.1376566145759" lon="11.578731067627015"><ele>268.0</ele><time>2026-04-11T20:44:22Z</time></trkpt><trkpt lat="43.137669077595646" lon="11.578629407358461"><ele>268.0</ele><time>2026-04-11T20:44:24Z</time></trkpt><trkpt lat="43.13770897802242" lon="11.578551670782629"><ele>268.0</ele><time>2026-04-11T20:44:26Z</time></trkpt><trkpt lat="43.137743205979916" lon="11.578472659944596"><ele>268.0</ele><time>2026-04-11T20:44:28Z</time></trkpt><trkpt lat="43.13778636153115" lon="11.578399797587513"><ele>268.0</ele><time>2026-04-11T20:44:30Z</time></trkpt><trkpt lat="43.13783427383619" lon="11.578335551154654"><ele>268.0</ele><time>2026-04-11T20:44:32Z</time></trkpt><trkpt lat="43.1378893880823" lon="11.578235096377126"><ele>268.0</ele><time>2026-04-11T20:44:35Z</time></trkpt><trkpt lat="43.13792876738115" lon="11.578154452764936"><ele>268.0</ele><time>2026-04-11T20:44:38Z</time></trkpt><trkpt lat="43.13798847673623" lon="11.578079809461087"><ele>268.0</ele><time>2026-04-11T20:44:42Z</time></trkpt><trkpt lat="43.138031653147344" lon="11.578016159018762"><ele>268.0</ele><time>2026-04-11T20:44:45Z</time></trkpt><trkpt lat="43.13806550595248" lon="11.577930339134559"><ele>268.0</ele><time>2026-04-11T20:44:49Z</time></trkpt><trkpt lat="43.138104164606005" lon="11.57785975622675"><ele>268.0</ele><time>2026-04-11T20:44:53Z</time></trkpt><trkpt lat="43.13815554645187" lon="11.577775071931308"><ele>268.0</ele><time>2026-04-11T20:44:57Z</time></trkpt><trkpt lat="43.13819936336025" lon="11.577691874926359"><ele>268.0</ele><time>2026-04-11T20:45:01Z</time></trkpt><trkpt lat="43.138244261358395" lon="11.577626685259766"><ele>268.0</ele><time>2026-04-11T20:45:04Z</time></trkpt><trkpt lat="43.13827790391602" lon="11.577547041947419"><ele>269.0</ele><time>2026-04-11T20:45:08Z</time></trkpt><trkpt lat="43.138327302778826" lon="11.577463086063133"><ele>270.0</ele><time>2026-04-11T20:45:12Z</time></trkpt><trkpt lat="43.13837774000265" lon="11.57738673972372"><ele>271.0</ele><time>2026-04-11T20:45:16Z</time></trkpt><trkpt lat="43.138421617185244" lon="11.577318510487705"><ele>272.0</ele><time>2026-04-11T20:45:20Z</time></trkpt><trkpt lat="43.138464142344944" lon="11.577239584710705"><ele>273.0</ele><time>2026-04-11T20:45:24Z</time></trkpt><trkpt lat="43.13851126450649" lon="11.577164636622994"><ele>274.0</ele><time>2026-04-11T20:45:28Z</time></trkpt><trkpt lat="43.138553777343795" lon="11.577080131688943"><ele>275.0</ele><time>2026-04-11T20:45:32Z</time></trkpt><trkpt lat="43.138602171282315" lon="11.576996783390806"><ele>275.42857142857144</ele><time>2026-04-11T20:45:36Z</time></trkpt><trkpt lat="43.13865253746153" lon="11.576909268283618"><ele>275.85714285714283</ele><time>2026-04-11T20:45:41Z</time></trkpt><trkpt lat="43.138684015305316" lon="11.576832257398335"><ele>276.2857142857143</ele><time>2026-04-11T20:45:45Z</time></trkpt><trkpt lat="43.138706580187815" lon="11.576742327468311"><ele>276.7142857142857</ele><time>2026-04-11T20:45:48Z</time></trkpt><trkpt lat="43.138730037134124" lon="11.576642756231948"><ele>277.14285714285717</ele><time>2026-04-11T20:45:52Z</time></trkpt><trkpt lat="43.138749311177676" lon="11.576534962905779"><ele>277.57142857142856</ele><time>2026-04-11T20:45:57Z</time></trkpt><trkpt lat="43.13875486332262" lon="11.576443700622349"><ele>278.0</ele><time>2026-04-11T20:46:01Z</time></trkpt><trkpt lat="43.13875304599495" lon="11.576356459879753"><ele>278.0</ele><time>2026-04-11T20:46:05Z</time></trkpt><trkpt lat="43.13875644739449" lon="11.576261819631606"><ele>278.0</ele><time>2026-04-11T20:46:09Z</time></trkpt><trkpt lat="43.13875965213748" lon="11.576151811936342"><ele>278.0</ele><time>2026-04-11T20:46:13Z</time></trkpt><trkpt lat="43.138760540227224" lon="11.576050279622073"><ele>278.0</ele><time>2026-04-11T20:46:17Z</time></trkpt><trkpt lat="43.13875973228809" lon="11.575931986357208"><ele>278.0</ele><time>2026-04-11T20:46:21Z</time></trkpt><trkpt lat="43.13875216549659" lon="11.575820470118183"><ele>278.0</ele><time>2026-04-11T20:46:25Z</time></trkpt><trkpt lat="43.138750398838155" lon="11.575700079112059"><ele>279.0</ele><time>2026-04-11T20:46:29Z</time></trkpt><trkpt lat="43.13873892978447" lon="11.575610023671173"><ele>280.0</ele><time>2026-04-11T20:46:33Z</time></trkpt><trkpt lat="43.138713501912896" lon="11.575515844120343"><ele>281.0</ele><time>2026-04-11T20:46:37Z</time></trkpt><trkpt lat="43.13867623211795" lon="11.575418669732919"><ele>282.0</ele><time>2026-04-11T20:46:41Z</time></trkpt><trkpt lat="43.13862495878994" lon="11.575330650744872"><ele>283.0</ele><time>2026-04-11T20:46:46Z</time></trkpt><trkpt lat="43.138583753425294" lon="11.575235806253184"><ele>284.0</ele><time>2026-04-11T20:46:51Z</time></trkpt><trkpt lat="43.13853018248154" lon="11.57518147668412"><ele>285.0</ele><time>2026-04-11T20:46:55Z</time></trkpt><trkpt lat="43.1384676437904" lon="11.575124969401058"><ele>287.1666666666667</ele><time>2026-04-11T20:46:59Z</time></trkpt><trkpt lat="43.138413671499585" lon="11.575053634253242"><ele>289.3333333333333</ele><time>2026-04-11T20:47:03Z</time></trkpt><trkpt lat="43.13833474216391" lon="11.574995777262894"><ele>291.5</ele><time>2026-04-11T20:47:08Z</time></trkpt><trkpt lat="43.13827873243125" lon="11.574928182169877"><ele>293.66666666666663</ele><time>2026-04-11T20:47:12Z</time></trkpt><trkpt lat="43.1382222678668" lon="11.5748585321852"><ele>295.8333333333333</ele><time>2026-04-11T20:47:15Z</time></trkpt><trkpt lat="43.1381716575504" lon="11.574791277813915"><ele>298.0</ele><time>2026-04-11T20:47:19Z</time></trkpt><trkpt lat="43.138120739782515" lon="11.574718075676987"><ele>298.42857142857144</ele><time>2026-04-11T20:47:22Z</time></trkpt><trkpt lat="43.138079654972074" lon="11.574639877942039"><ele>298.85714285714283</ele><time>2026-04-11T20:47:26Z</time></trkpt><trkpt lat="43.138042663574524" lon="11.574565306613827"><ele>299.2857142857143</ele><time>2026-04-11T20:47:29Z</time></trkpt><trkpt lat="43.13800932375886" lon="11.57447588840877"><ele>299.7142857142857</ele><time>2026-04-11T20:47:33Z</time></trkpt><trkpt lat="43.1379928632203" lon="11.574374378854044"><ele>300.1428571428571</ele><time>2026-04-11T20:47:36Z</time></trkpt><trkpt lat="43.13798135936049" lon="11.574260285084973"><ele>300.57142857142856</ele><time>2026-04-11T20:47:40Z</time></trkpt><trkpt lat="43.137970586527324" lon="11.574157168885382"><ele>301.0</ele><time>2026-04-11T20:47:44Z</time></trkpt><trkpt lat="43.137968894273435" lon="11.574069174842522"><ele>301.0</ele><time>2026-04-11T20:47:47Z</time></trkpt><trkpt lat="43.13796656787839" lon="11.573981096435638"><ele>301.0</ele><time>2026-04-11T20:47:50Z</time></trkpt><trkpt lat="43.13795712034634" lon="11.573879227218299"><ele>301.0</ele><time>2026-04-11T20:47:54Z</time></trkpt><trkpt lat="43.13795581010515" lon="11.573792378865022"><ele>301.0</ele><time>2026-04-11T20:47:57Z</time></trkpt><trkpt lat="43.13794586100463" lon="11.573699674025804"><ele>301.0</ele><time>2026-04-11T20:48:00Z</time></trkpt><trkpt lat="43.1379471068887" lon="11.573600221073468"><ele>301.0</ele><time>2026-04-11T20:48:03Z</time></trkpt><trkpt lat="43.13794236150432" lon="11.573506455912792"><ele>301.0</ele><time>2026-04-11T20:48:06Z</time></trkpt><trkpt lat="43.137944133318754" lon="11.573413785902567"><ele>300.5</ele><time>2026-04-11T20:48:09Z</time></trkpt><trkpt lat="43.137936310171966" lon="11.573312044525007"><ele>300.0</ele><time>2026-04-11T20:48:12Z</time></trkpt><trkpt lat="43.137931588941356" lon="11.57322351903589"><ele>299.5</ele><time>2026-04-11T20:48:14Z</time></trkpt><trkpt lat="43.1379216997548" lon="11.573111329180655"><ele>299.0</ele><time>2026-04-11T20:48:17Z</time></trkpt><trkpt lat="43.137920850312845" lon="11.572991929531401"><ele>298.5</ele><time>2026-04-11T20:48:20Z</time></trkpt><trkpt lat="43.13792948785453" lon="11.57288993337718"><ele>298.0</ele><time>2026-04-11T20:48:23Z</time></trkpt><trkpt lat="43.137918790307104" lon="11.57276047018281"><ele>297.3333333333333</ele><time>2026-04-11T20:48:26Z</time></trkpt><trkpt lat="43.13791297186986" lon="11.572632252509038"><ele>296.66666666666663</ele><time>2026-04-11T20:48:29Z</time></trkpt><trkpt lat="43.13791002230633" lon="11.572546063519157"><ele>296.0</ele><time>2026-04-11T20:48:31Z</time></trkpt><trkpt lat="43.13792064752229" lon="11.572431753100904"><ele>295.3333333333333</ele><time>2026-04-11T20:48:34Z</time></trkpt><trkpt lat="43.137932531216" lon="11.572336364467516"><ele>294.6666666666667</ele><time>2026-04-11T20:48:37Z</time></trkpt><trkpt lat="43.13794435369734" lon="11.572223231644218"><ele>294.0</ele><time>2026-04-11T20:48:40Z</time></trkpt><trkpt lat="43.13797462934177" lon="11.572121689570602"><ele>294.0</ele><time>2026-04-11T20:48:43Z</time></trkpt><trkpt lat="43.138024854488926" lon="11.572028347333013"><ele>294.0</ele><time>2026-04-11T20:48:46Z</time></trkpt><trkpt lat="43.138074791197276" lon="11.571967657403313"><ele>294.0</ele><time>2026-04-11T20:48:48Z</time></trkpt><trkpt lat="43.138143743933554" lon="11.571929117464963"><ele>294.0</ele><time>2026-04-11T20:48:50Z</time></trkpt><trkpt lat="43.13820993916591" lon="11.571885108932175"><ele>294.0</ele><time>2026-04-11T20:48:52Z</time></trkpt><trkpt lat="43.138285628219094" lon="11.571846576974915"><ele>294.0</ele><time>2026-04-11T20:48:54Z</time></trkpt><trkpt lat="43.13835170816176" lon="11.571797362183839"><ele>295.3333333333333</ele><time>2026-04-11T20:48:56Z</time></trkpt><trkpt lat="43.13842135168094" lon="11.57176184451544"><ele>296.6666666666667</ele><time>2026-04-11T20:48:58Z</time></trkpt><trkpt lat="43.13848231016756" lon="11.57172026144354"><ele>298.0</ele><time>2026-04-11T20:49:00Z</time></trkpt><trkpt lat="43.138555329391345" lon="11.571641529886097"><ele>299.33333333333337</ele><time>2026-04-11T20:49:03Z</time></trkpt><trkpt lat="43.13860948062994" lon="11.571568821929864"><ele>300.6666666666667</ele><time>2026-04-11T20:49:05Z</time></trkpt><trkpt lat="43.13864726129883" lon="11.571486724637825"><ele>302.0</ele><time>2026-04-11T20:49:07Z</time></trkpt><trkpt lat="43.13868302879472" lon="11.571378089248645"><ele>302.0</ele><time>2026-04-11T20:49:09Z</time></trkpt><trkpt lat="43.138704651503694" lon="11.571267059255954"><ele>302.0</ele><time>2026-04-11T20:49:11Z</time></trkpt><trkpt lat="43.13871009184437" lon="11.571147777836854"><ele>302.0</ele><time>2026-04-11T20:49:13Z</time></trkpt><trkpt lat="43.13869612685513" lon="11.571037032294322"><ele>302.0</ele><time>2026-04-11T20:49:15Z</time></trkpt><trkpt lat="43.13867436988506" lon="11.570937068245371"><ele>302.0</ele><time>2026-04-11T20:49:17Z</time></trkpt><trkpt lat="43.138641171009844" lon="11.57085452161285"><ele>302.0</ele><time>2026-04-11T20:49:19Z</time></trkpt><trkpt lat="43.13858998840437" lon="11.570757178749437"><ele>301.6666666666667</ele><time>2026-04-11T20:49:22Z</time></trkpt><trkpt lat="43.1385335005416" lon="11.57065310637099"><ele>301.33333333333337</ele><time>2026-04-11T20:49:25Z</time></trkpt><trkpt lat="43.13849942455282" lon="11.570572307035087"><ele>301.0</ele><time>2026-04-11T20:49:27Z</time></trkpt><trkpt lat="43.13847079573626" lon="11.570485367590303"><ele>300.6666666666667</ele><time>2026-04-11T20:49:29Z</time></trkpt><trkpt lat="43.13844855010801" lon="11.570371614653075"><ele>300.3333333333333</ele><time>2026-04-11T20:49:32Z</time></trkpt><trkpt lat="43.138443725498064" lon="11.57027981780987"><ele>300.0</ele><time>2026-04-11T20:49:34Z</time></trkpt><trkpt lat="43.13844293249773" lon="11.570191729349583"><ele>300.8333333333333</ele><time>2026-04-11T20:49:36Z</time></trkpt><trkpt lat="43.13846468368136" lon="11.570069413951552"><ele>301.6666666666667</ele><time>2026-04-11T20:49:39Z</time></trkpt><trkpt lat="43.138484951037775" lon="11.569952547680074"><ele>302.5</ele><time>2026-04-11T20:49:43Z</time></trkpt><trkpt lat="43.13849814258352" lon="11.56984165186311"><ele>303.33333333333337</ele><time>2026-04-11T20:49:46Z</time></trkpt><trkpt lat="43.13849840975048" lon="11.569725390432511"><ele>304.1666666666667</ele><time>2026-04-11T20:49:49Z</time></trkpt><trkpt lat="43.13849998690457" lon="11.56959775435808"><ele>305.0</ele><time>2026-04-11T20:49:52Z</time></trkpt><trkpt lat="43.138498197732154" lon="11.569447691785646"><ele>305.1666666666667</ele><time>2026-04-11T20:49:55Z</time></trkpt><trkpt lat="43.13849241452853" lon="11.569337658620475"><ele>305.33333333333337</ele><time>2026-04-11T20:49:58Z</time></trkpt><trkpt lat="43.138484728109034" lon="11.569218747317743"><ele>305.5</ele><time>2026-04-11T20:50:01Z</time></trkpt><trkpt lat="43.13846009454967" lon="11.569118009809179"><ele>305.6666666666667</ele><time>2026-04-11T20:50:03Z</time></trkpt><trkpt lat="43.138430468996866" lon="11.56899642944078"><ele>305.8333333333333</ele><time>2026-04-11T20:50:06Z</time></trkpt><trkpt lat="43.138387386795486" lon="11.568865506881211"><ele>306.0</ele><time>2026-04-11T20:50:09Z</time></trkpt><trkpt lat="43.13833848334779" lon="11.568762430644187"><ele>306.1666666666667</ele><time>2026-04-11T20:50:11Z</time></trkpt><trkpt lat="43.138310142832395" lon="11.56867532848463"><ele>306.3333333333333</ele><time>2026-04-11T20:50:13Z</time></trkpt><trkpt lat="43.138250011833755" lon="11.568575821508064"><ele>306.5</ele><time>2026-04-11T20:50:16Z</time></trkpt><trkpt lat="43.13817856997916" lon="11.568480670152189"><ele>306.66666666666663</ele><time>2026-04-11T20:50:18Z</time></trkpt><trkpt lat="43.1381188078541" lon="11.56838049767086"><ele>306.8333333333333</ele><time>2026-04-11T20:50:20Z</time></trkpt><trkpt lat="43.13805929223384" lon="11.568302953466821"><ele>307.0</ele><time>2026-04-11T20:50:22Z</time></trkpt><trkpt lat="43.13799979174484" lon="11.568223600632322"><ele>303.4</ele><time>2026-04-11T20:50:24Z</time></trkpt><trkpt lat="43.13793852390609" lon="11.568135669328118"><ele>299.79999999999995</ele><time>2026-04-11T20:50:26Z</time></trkpt><trkpt lat="43.137890801156864" lon="11.56803310460867"><ele>296.2</ele><time>2026-04-11T20:50:28Z</time></trkpt><trkpt lat="43.13786079559146" lon="11.567910838494077"><ele>292.59999999999997</ele><time>2026-04-11T20:50:30Z</time></trkpt><trkpt lat="43.13785000548933" lon="11.567781189124373"><ele>289.0</ele><time>2026-04-11T20:50:32Z</time></trkpt><trkpt lat="43.13786047786358" lon="11.567652282316597"><ele>289.0</ele><time>2026-04-11T20:50:34Z</time></trkpt><trkpt lat="43.13787435305827" lon="11.567525895904083"><ele>289.0</ele><time>2026-04-11T20:50:36Z</time></trkpt><trkpt lat="43.137903483271856" lon="11.567382368883699"><ele>289.0</ele><time>2026-04-11T20:50:38Z</time></trkpt><trkpt lat="43.137913505209085" lon="11.567224789755763"><ele>289.0</ele><time>2026-04-11T20:50:40Z</time></trkpt><trkpt lat="43.13792808080321" lon="11.567076971720175"><ele>289.0</ele><time>2026-04-11T20:50:42Z</time></trkpt><trkpt lat="43.137933178099196" lon="11.566928218974995"><ele>288.8</ele><time>2026-04-11T20:50:44Z</time></trkpt><trkpt lat="43.13794137056629" lon="11.566775654049865"><ele>288.59999999999997</ele><time>2026-04-11T20:50:46Z</time></trkpt><trkpt lat="43.13793134358025" lon="11.566627092255192"><ele>288.4</ele><time>2026-04-11T20:50:48Z</time></trkpt><trkpt lat="43.13792025854862" lon="11.566490959635603"><ele>288.2</ele><time>2026-04-11T20:50:50Z</time></trkpt><trkpt lat="43.13790775677777" lon="11.566349084309566"><ele>288.0</ele><time>2026-04-11T20:50:52Z</time></trkpt><trkpt lat="43.13789717522596" lon="11.56619892389092"><ele>287.0</ele><time>2026-04-11T20:50:54Z</time></trkpt><trkpt lat="43.13788800662059" lon="11.566038226746633"><ele>286.0</ele><time>2026-04-11T20:50:56Z</time></trkpt><trkpt lat="43.137879890499796" lon="11.565884934654337"><ele>285.0</ele><time>2026-04-11T20:50:58Z</time></trkpt><trkpt lat="43.13787514621314" lon="11.565730406115193"><ele>284.0</ele><time>2026-04-11T20:51:00Z</time></trkpt><trkpt lat="43.137870115312204" lon="11.565576862437645"><ele>284.0</ele><time>2026-04-11T20:51:02Z</time></trkpt><trkpt lat="43.137859021555094" lon="11.565430513616175"><ele>284.0</ele><time>2026-04-11T20:51:04Z</time></trkpt><trkpt lat="43.137841116948756" lon="11.565296087803217"><ele>284.0</ele><time>2026-04-11T20:51:06Z</time></trkpt><trkpt lat="43.13780176260915" lon="11.565176179024107"><ele>284.0</ele><time>2026-04-11T20:51:08Z</time></trkpt><trkpt lat="43.13776332198389" lon="11.565057950800092"><ele>284.0</ele><time>2026-04-11T20:51:10Z</time></trkpt><trkpt lat="43.137715756194055" lon="11.564946057962446"><ele>284.6666666666667</ele><time>2026-04-11T20:51:12Z</time></trkpt><trkpt lat="43.137677575573086" lon="11.56482411398329"><ele>285.33333333333337</ele><time>2026-04-11T20:51:14Z</time></trkpt><trkpt lat="43.137626165608054" lon="11.564715020986009"><ele>286.0</ele><time>2026-04-11T20:51:16Z</time></trkpt><trkpt lat="43.13757824017566" lon="11.564621571884436"><ele>286.6666666666667</ele><time>2026-04-11T20:51:18Z</time></trkpt><trkpt lat="43.13753356474129" lon="11.56453713093311"><ele>287.3333333333333</ele><time>2026-04-11T20:51:20Z</time></trkpt><trkpt lat="43.13748626434791" lon="11.56445120670616"><ele>288.0</ele><time>2026-04-11T20:51:22Z</time></trkpt><trkpt lat="43.137427529606946" lon="11.564365281464358"><ele>284.2</ele><time>2026-04-11T20:51:24Z</time></trkpt><trkpt lat="43.1373396588237" lon="11.564305327456177"><ele>280.4</ele><time>2026-04-11T20:51:26Z</time></trkpt><trkpt lat="43.13723352460732" lon="11.5643050537527"><ele>276.59999999999997</ele><time>2026-04-11T20:51:28Z</time></trkpt><trkpt lat="43.13713709959182" lon="11.564342790390853"><ele>272.8</ele><time>2026-04-11T20:51:30Z</time></trkpt><trkpt lat="43.137055589265685" lon="11.564421186818905"><ele>269.0</ele><time>2026-04-11T20:51:32Z</time></trkpt><trkpt lat="43.137008548079905" lon="11.564534770625617"><ele>269.0</ele><time>2026-04-11T20:51:34Z</time></trkpt><trkpt lat="43.13696387853852" lon="11.564639644061034"><ele>269.0</ele><time>2026-04-11T20:51:36Z</time></trkpt><trkpt lat="43.13695388438679" lon="11.564761214938706"><ele>269.0</ele><time>2026-04-11T20:51:38Z</time></trkpt><trkpt lat="43.13695425865081" lon="11.564901246417206"><ele>269.0</ele><time>2026-04-11T20:51:40Z</time></trkpt><trkpt lat="43.13698968089844" lon="11.565047491493296"><ele>269.0</ele><time>2026-04-11T20:51:42Z</time></trkpt><trkpt lat="43.137069020472545" lon="11.565172994525996"><ele>269.0</ele><time>2026-04-11T20:51:44Z</time></trkpt><trkpt lat="43.137124327598336" lon="11.565313594680221"><ele>269.0</ele><time>2026-04-11T20:51:46Z</time></trkpt><trkpt lat="43.1371950579517" lon="11.565415760589552"><ele>269.0</ele><time>2026-04-11T20:51:48Z</time></trkpt><trkpt lat="43.13723545665047" lon="11.56553729424428"><ele>269.0</ele><time>2026-04-11T20:51:50Z</time></trkpt><trkpt lat="43.13723767260413" lon="11.56568538831305"><ele>269.0</ele><time>2026-04-11T20:51:52Z</time></trkpt><trkpt lat="43.13723037828762" lon="11.565830688342"><ele>268.59999999999997</ele><time>2026-04-11T20:51:54Z</time></trkpt><trkpt lat="43.137198115684946" lon="11.56595909470238"><ele>268.2</ele><time>2026-04-11T20:51:56Z</time></trkpt><trkpt lat="43.13715092637376" lon="11.5660620950203"><ele>267.79999999999995</ele><time>2026-04-11T20:51:58Z</time></trkpt><trkpt lat="43.137088010413514" lon="11.566161414010878"><ele>267.4</ele><time>2026-04-11T20:52:00Z</time></trkpt><trkpt lat="43.13700420318916" lon="11.56625378379423"><ele>267.0</ele><time>2026-04-11T20:52:02Z</time></trkpt><trkpt lat="43.13695714202123" lon="11.566311148904227"><ele>268.0</ele><time>2026-04-11T20:52:03Z</time></trkpt><trkpt lat="43.13683907575725" lon="11.566370257946812"><ele>269.0</ele><time>2026-04-11T20:52:05Z</time></trkpt><trkpt lat="43.13672612275184" lon="11.566416262943182"><ele>270.0</ele><time>2026-04-11T20:52:07Z</time></trkpt><trkpt lat="43.136617224540494" lon="11.566446223957616"><ele>271.0</ele><time>2026-04-11T20:52:09Z</time></trkpt><trkpt lat="43.136519302425434" lon="11.566484794978553"><ele>267.16666666666663</ele><time>2026-04-11T20:52:11Z</time></trkpt><trkpt lat="43.13643130085436" lon="11.566536302915003"><ele>263.3333333333333</ele><time>2026-04-11T20:52:13Z</time></trkpt><trkpt lat="43.13634843470423" lon="11.566548050110287"><ele>259.5</ele><time>2026-04-11T20:52:15Z</time></trkpt><trkpt lat="43.13627717368636" lon="11.566563273379984"><ele>255.66666666666669</ele><time>2026-04-11T20:52:17Z</time></trkpt><trkpt lat="43.13620968285858" lon="11.566558909242026"><ele>251.83333333333334</ele><time>2026-04-11T20:52:19Z</time></trkpt><trkpt lat="43.13613303430825" lon="11.566495379649975"><ele>248.0</ele><time>2026-04-11T20:52:22Z</time></trkpt><trkpt lat="43.13610525165874" lon="11.566368699513024"><ele>248.00000000000003</ele><time>2026-04-11T20:52:25Z</time></trkpt><trkpt lat="43.13613728053539" lon="11.56626753403494"><ele>248.0</ele><time>2026-04-11T20:52:27Z</time></trkpt><trkpt lat="43.136181735725415" lon="11.566174747252314"><ele>248.0</ele><time>2026-04-11T20:52:29Z</time></trkpt><trkpt lat="43.13623447891558" lon="11.566097464445528"><ele>248.0</ele><time>2026-04-11T20:52:31Z</time></trkpt><trkpt lat="43.13629775586892" lon="11.566006625902679"><ele>248.00000000000003</ele><time>2026-04-11T20:52:33Z</time></trkpt><trkpt lat="43.13635154529487" lon="11.565910784389947"><ele>248.0</ele><time>2026-04-11T20:52:35Z</time></trkpt><trkpt lat="43.1363968754261" lon="11.565777994742183"><ele>248.0</ele><time>2026-04-11T20:52:37Z</time></trkpt><trkpt lat="43.13639750010973" lon="11.565616019851493"><ele>248.0</ele><time>2026-04-11T20:52:39Z</time></trkpt><trkpt lat="43.13634841608183" lon="11.565487562060952"><ele>248.0</ele><time>2026-04-11T20:52:41Z</time></trkpt><trkpt lat="43.13629048291006" lon="11.565388480228368"><ele>248.0</ele><time>2026-04-11T20:52:43Z</time></trkpt><trkpt lat="43.13623014357719" lon="11.565308257175808"><ele>248.0</ele><time>2026-04-11T20:52:45Z</time></trkpt><trkpt lat="43.13616534313928" lon="11.565251395058631"><ele>247.50000000000003</ele><time>2026-04-11T20:52:47Z</time></trkpt><trkpt lat="43.13610974250872" lon="11.565167695861359"><ele>247.0</ele><time>2026-04-11T20:52:49Z</time></trkpt><trkpt lat="43.13606790997285" lon="11.565082824597843"><ele>246.5</ele><time>2026-04-11T20:52:51Z</time></trkpt><trkpt lat="43.13604710515936" lon="11.56498762901431"><ele>246.0</ele><time>2026-04-11T20:52:53Z</time></trkpt><trkpt lat="43.13604131261354" lon="11.564897553068059"><ele>245.50000000000003</ele><time>2026-04-11T20:52:55Z</time></trkpt><trkpt lat="43.13604473397891" lon="11.564791337384829"><ele>245.0</ele><time>2026-04-11T20:52:57Z</time></trkpt><trkpt lat="43.13606360429573" lon="11.56468747352544"><ele>245.00000000000003</ele><time>2026-04-11T20:52:59Z</time></trkpt><trkpt lat="43.136095624828904" lon="11.56458343534602"><ele>245.0</ele><time>2026-04-11T20:53:01Z</time></trkpt><trkpt lat="43.1361393724168" lon="11.564486408999889"><ele>245.0</ele><time>2026-04-11T20:53:03Z</time></trkpt><trkpt lat="43.13618929945271" lon="11.564382628724255"><ele>245.0</ele><time>2026-04-11T20:53:05Z</time></trkpt><trkpt lat="43.13622441827007" lon="11.56426312824557"><ele>245.00000000000003</ele><time>2026-04-11T20:53:07Z</time></trkpt><trkpt lat="43.13627838549908" lon="11.564177787420665"><ele>245.0</ele><time>2026-04-11T20:53:09Z</time></trkpt><trkpt lat="43.136320064031906" lon="11.564085269328453"><ele>244.33333333333334</ele><time>2026-04-11T20:53:11Z</time></trkpt><trkpt lat="43.13634176268749" lon="11.563980525206116"><ele>243.66666666666669</ele><time>2026-04-11T20:53:13Z</time></trkpt><trkpt lat="43.13637501235648" lon="11.563866671507112"><ele>243.0</ele><time>2026-04-11T20:53:15Z</time></trkpt><trkpt lat="43.136384581197866" lon="11.563747684467026"><ele>242.33333333333331</ele><time>2026-04-11T20:53:17Z</time></trkpt><trkpt lat="43.13637999984212" lon="11.563627037435662"><ele>241.66666666666666</ele><time>2026-04-11T20:53:19Z</time></trkpt><trkpt lat="43.136360143301" lon="11.563490365050155"><ele>241.0</ele><time>2026-04-11T20:53:21Z</time></trkpt><trkpt lat="43.13630653992868" lon="11.56337080860975"><ele>240.99999999999997</ele><time>2026-04-11T20:53:23Z</time></trkpt><trkpt lat="43.136257230244084" lon="11.56326030045395"><ele>241.0</ele><time>2026-04-11T20:53:25Z</time></trkpt><trkpt lat="43.136203041843956" lon="11.563156483323652"><ele>241.0</ele><time>2026-04-11T20:53:27Z</time></trkpt><trkpt lat="43.136140099662015" lon="11.563074535818288"><ele>241.0</ele><time>2026-04-11T20:53:29Z</time></trkpt><trkpt lat="43.13608082577982" lon="11.563004148290272"><ele>240.99999999999997</ele><time>2026-04-11T20:53:31Z</time></trkpt><trkpt lat="43.136020202999624" lon="11.562937180998132"><ele>241.0</ele><time>2026-04-11T20:53:33Z</time></trkpt><trkpt lat="43.13596218469305" lon="11.562872448099302"><ele>242.14285714285717</ele><time>2026-04-11T20:53:35Z</time></trkpt><trkpt lat="43.1358995431804" lon="11.562816411712692"><ele>243.2857142857143</ele><time>2026-04-11T20:53:37Z</time></trkpt><trkpt lat="43.13584585399419" lon="11.562751605490964"><ele>244.42857142857144</ele><time>2026-04-11T20:53:39Z</time></trkpt><trkpt lat="43.135796073272566" lon="11.562687357867803"><ele>245.57142857142856</ele><time>2026-04-11T20:53:41Z</time></trkpt><trkpt lat="43.13574280085444" lon="11.562629444479867"><ele>246.7142857142857</ele><time>2026-04-11T20:53:43Z</time></trkpt><trkpt lat="43.1356909681619" lon="11.562566924836363"><ele>247.85714285714283</ele><time>2026-04-11T20:53:45Z</time></trkpt><trkpt lat="43.13563670791723" lon="11.562503000617252"><ele>249.0</ele><time>2026-04-11T20:53:47Z</time></trkpt><trkpt lat="43.135590773219164" lon="11.562413663373555"><ele>246.33333333333334</ele><time>2026-04-11T20:53:49Z</time></trkpt><trkpt lat="43.135531833097126" lon="11.562331796024194"><ele>243.66666666666669</ele><time>2026-04-11T20:53:51Z</time></trkpt><trkpt lat="43.13547747919257" lon="11.56225249506258"><ele>241.0</ele><time>2026-04-11T20:53:53Z</time></trkpt><trkpt lat="43.13542443209541" lon="11.562170101789965"><ele>238.33333333333334</ele><time>2026-04-11T20:53:55Z</time></trkpt><trkpt lat="43.135373273078486" lon="11.562085873670974"><ele>235.66666666666669</ele><time>2026-04-11T20:53:57Z</time></trkpt><trkpt lat="43.13532052294598" lon="11.561993016010192"><ele>233.0</ele><time>2026-04-11T20:53:59Z</time></trkpt><trkpt lat="43.13525611198053" lon="11.56191010829124"><ele>233.00000000000003</ele><time>2026-04-11T20:54:01Z</time></trkpt><trkpt lat="43.135206166932925" lon="11.56180442609799"><ele>233.0</ele><time>2026-04-11T20:54:03Z</time></trkpt><trkpt lat="43.13515364473787" lon="11.561719523906126"><ele>233.0</ele><time>2026-04-11T20:54:05Z</time></trkpt><trkpt lat="43.13510534699229" lon="11.561623720437156"><ele>233.0</ele><time>2026-04-11T20:54:07Z</time></trkpt><trkpt lat="43.13506258107569" lon="11.561535104786365"><ele>233.00000000000003</ele><time>2026-04-11T20:54:09Z</time></trkpt><trkpt lat="43.13501482955826" lon="11.561447161693087"><ele>233.0</ele><time>2026-04-11T20:54:11Z</time></trkpt><trkpt lat="43.13496519538344" lon="11.561363933699186"><ele>233.00000000000003</ele><time>2026-04-11T20:54:13Z</time></trkpt><trkpt lat="43.13493636728939" lon="11.56126722003486"><ele>233.0</ele><time>2026-04-11T20:54:15Z</time></trkpt><trkpt lat="43.13489072564141" lon="11.561176536564098"><ele>233.0</ele><time>2026-04-11T20:54:17Z</time></trkpt><trkpt lat="43.134838865725186" lon="11.561073498280741"><ele>233.0</ele><time>2026-04-11T20:54:19Z</time></trkpt><trkpt lat="43.13478657222731" lon="11.560971588914772"><ele>233.00000000000003</ele><time>2026-04-11T20:54:21Z</time></trkpt><trkpt lat="43.13473160648139" lon="11.560865386246707"><ele>233.0</ele><time>2026-04-11T20:54:23Z</time></trkpt><trkpt lat="43.13468042943385" lon="11.560767206475287"><ele>230.16666666666669</ele><time>2026-04-11T20:54:25Z</time></trkpt><trkpt lat="43.13462861811221" lon="11.560668678941514"><ele>227.33333333333334</ele><time>2026-04-11T20:54:27Z</time></trkpt><trkpt lat="43.13456497177033" lon="11.560578318890197"><ele>224.5</ele><time>2026-04-11T20:54:29Z</time></trkpt><trkpt lat="43.134520640200314" lon="11.560487288843767"><ele>221.66666666666669</ele><time>2026-04-11T20:54:31Z</time></trkpt><trkpt lat="43.13447022651058" lon="11.560387787351077"><ele>218.83333333333334</ele><time>2026-04-11T20:54:33Z</time></trkpt><trkpt lat="43.134411974191394" lon="11.560287736178426"><ele>216.0</ele><time>2026-04-11T20:54:35Z</time></trkpt><trkpt lat="43.13435826158917" lon="11.560188977455072"><ele>216.0</ele><time>2026-04-11T20:54:37Z</time></trkpt><trkpt lat="43.13430301563083" lon="11.560088648834602"><ele>216.0</ele><time>2026-04-11T20:54:39Z</time></trkpt><trkpt lat="43.13426160853944" lon="11.559986016466514"><ele>216.0</ele><time>2026-04-11T20:54:41Z</time></trkpt><trkpt lat="43.1342119448892" lon="11.559900784876033"><ele>216.0</ele><time>2026-04-11T20:54:43Z</time></trkpt><trkpt lat="43.13415820263915" lon="11.559808553690141"><ele>216.0</ele><time>2026-04-11T20:54:45Z</time></trkpt><trkpt lat="43.134093590768884" lon="11.55972305525578"><ele>216.0</ele><time>2026-04-11T20:54:47Z</time></trkpt><trkpt lat="43.13405306671148" lon="11.559617175709677"><ele>212.8</ele><time>2026-04-11T20:54:49Z</time></trkpt><trkpt lat="43.134021184327175" lon="11.559498854880411"><ele>209.60000000000002</ele><time>2026-04-11T20:54:51Z</time></trkpt><trkpt lat="43.133998838032056" lon="11.559385014771317"><ele>206.4</ele><time>2026-04-11T20:54:53Z</time></trkpt><trkpt lat="43.13400341306695" lon="11.559263013904827"><ele>203.2</ele><time>2026-04-11T20:54:55Z</time></trkpt><trkpt lat="43.13400168936473" lon="11.559139250562144"><ele>200.0</ele><time>2026-04-11T20:54:57Z</time></trkpt><trkpt lat="43.13400492269086" lon="11.559005504934822"><ele>200.0</ele><time>2026-04-11T20:54:59Z</time></trkpt><trkpt lat="43.13399524723871" lon="11.558865375573502"><ele>200.0</ele><time>2026-04-11T20:55:01Z</time></trkpt><trkpt lat="43.1340047825282" lon="11.558720273773604"><ele>200.0</ele><time>2026-04-11T20:55:03Z</time></trkpt><trkpt lat="43.13401262264335" lon="11.558568399214698"><ele>200.0</ele><time>2026-04-11T20:55:05Z</time></trkpt><trkpt lat="43.13401886922019" lon="11.558425412838771"><ele>200.0</ele><time>2026-04-11T20:55:07Z</time></trkpt><trkpt lat="43.13401819824149" lon="11.558282815138666"><ele>200.0</ele><time>2026-04-11T20:55:09Z</time></trkpt><trkpt lat="43.13401817419367" lon="11.558141202700122"><ele>200.0</ele><time>2026-04-11T20:55:11Z</time></trkpt><trkpt lat="43.13401587234962" lon="11.557995553697264"><ele>200.0</ele><time>2026-04-11T20:55:13Z</time></trkpt><trkpt lat="43.13400614384927" lon="11.557858646571699"><ele>200.0</ele><time>2026-04-11T20:55:15Z</time></trkpt><trkpt lat="43.133988871439094" lon="11.557725240176444"><ele>200.0</ele><time>2026-04-11T20:55:17Z</time></trkpt><trkpt lat="43.13397912475483" lon="11.557578454117266"><ele>200.0</ele><time>2026-04-11T20:55:19Z</time></trkpt><trkpt lat="43.133960275890715" lon="11.557426560976621"><ele>200.0</ele><time>2026-04-11T20:55:21Z</time></trkpt><trkpt lat="43.133934274915305" lon="11.557266765282606"><ele>200.0</ele><time>2026-04-11T20:55:23Z</time></trkpt><trkpt lat="43.13391285467405" lon="11.557104378848976"><ele>200.0</ele><time>2026-04-11T20:55:25Z</time></trkpt><trkpt lat="43.133882643367734" lon="11.556952270568472"><ele>201.0</ele><time>2026-04-11T20:55:27Z</time></trkpt><trkpt lat="43.13385334312029" lon="11.556793731926918"><ele>202.0</ele><time>2026-04-11T20:55:29Z</time></trkpt><trkpt lat="43.13385610958001" lon="11.556706938893749"><ele>203.0</ele><time>2026-04-11T20:55:30Z</time></trkpt><trkpt lat="43.13382984492908" lon="11.556543560140545"><ele>204.0</ele><time>2026-04-11T20:55:32Z</time></trkpt><trkpt lat="43.13380056739552" lon="11.556402812438268"><ele>205.0</ele><time>2026-04-11T20:55:34Z</time></trkpt><trkpt lat="43.13377377417712" lon="11.556294998290182"><ele>205.0</ele><time>2026-04-11T20:55:36Z</time></trkpt><trkpt lat="43.1337307397868" lon="11.556204169905715"><ele>205.0</ele><time>2026-04-11T20:55:39Z</time></trkpt><trkpt lat="43.13371289982531" lon="11.556118616529568"><ele>205.0</ele><time>2026-04-11T20:55:42Z</time></trkpt><trkpt lat="43.133673179650565" lon="11.556042229884591"><ele>205.0</ele><time>2026-04-11T20:55:45Z</time></trkpt><trkpt lat="43.133622882817846" lon="11.55597807809634"><ele>205.0</ele><time>2026-04-11T20:55:48Z</time></trkpt><trkpt lat="43.13354771092466" lon="11.555964182724326"><ele>205.0</ele><time>2026-04-11T20:55:51Z</time></trkpt><trkpt lat="43.13348071210121" lon="11.55591979520787"><ele>205.0</ele><time>2026-04-11T20:55:53Z</time></trkpt><trkpt lat="43.133394600947945" lon="11.555884538720182"><ele>206.42857142857144</ele><time>2026-04-11T20:55:56Z</time></trkpt><trkpt lat="43.1333092548506" lon="11.55586771490654"><ele>207.85714285714283</ele><time>2026-04-11T20:56:00Z</time></trkpt><trkpt lat="43.13323599759979" lon="11.555880885776933"><ele>209.28571428571428</ele><time>2026-04-11T20:56:04Z</time></trkpt><trkpt lat="43.133168986296305" lon="11.55590101357511"><ele>210.71428571428572</ele><time>2026-04-11T20:56:06Z</time></trkpt><trkpt lat="43.13310327542635" lon="11.555932950138486"><ele>212.14285714285717</ele><time>2026-04-11T20:56:09Z</time></trkpt><trkpt lat="43.13303939530506" lon="11.555980111089802"><ele>213.57142857142856</ele><time>2026-04-11T20:56:13Z</time></trkpt><trkpt lat="43.13298177576514" lon="11.556039089189197"><ele>215.0</ele><time>2026-04-11T20:56:16Z</time></trkpt><trkpt lat="43.132915132309336" lon="11.55611188240847"><ele>215.50000000000003</ele><time>2026-04-11T20:56:20Z</time></trkpt><trkpt lat="43.13286830300714" lon="11.556191824467037"><ele>216.0</ele><time>2026-04-11T20:56:24Z</time></trkpt><trkpt lat="43.1328203166505" lon="11.556274601975701"><ele>216.5</ele><time>2026-04-11T20:56:28Z</time></trkpt><trkpt lat="43.13277551135418" lon="11.556360683209924"><ele>217.0</ele><time>2026-04-11T20:56:32Z</time></trkpt><trkpt lat="43.13272100528938" lon="11.556438261412016"><ele>217.50000000000003</ele><time>2026-04-11T20:56:36Z</time></trkpt><trkpt lat="43.13267278788534" lon="11.556512383922655"><ele>218.0</ele><time>2026-04-11T20:56:40Z</time></trkpt><trkpt lat="43.13261561578307" lon="11.556589695294612"><ele>218.0</ele><time>2026-04-11T20:56:44Z</time></trkpt><trkpt lat="43.13257107366908" lon="11.55666886525523"><ele>218.0</ele><time>2026-04-11T20:56:48Z</time></trkpt><trkpt lat="43.13251942376537" lon="11.556737872923692"><ele>218.0</ele><time>2026-04-11T20:56:51Z</time></trkpt><trkpt lat="43.132478884106554" lon="11.556804258374841"><ele>218.0</ele><time>2026-04-11T20:56:54Z</time></trkpt><trkpt lat="43.13243271330643" lon="11.556863123773184"><ele>218.0</ele><time>2026-04-11T20:56:57Z</time></trkpt><trkpt lat="43.13237653890411" lon="11.556924760455487"><ele>218.0</ele><time>2026-04-11T20:57:00Z</time></trkpt><trkpt lat="43.132317381017735" lon="11.556983579907126"><ele>218.0</ele><time>2026-04-11T20:57:03Z</time></trkpt><trkpt lat="43.13225488137504" lon="11.557035710848469"><ele>217.33333333333334</ele><time>2026-04-11T20:57:06Z</time></trkpt><trkpt lat="43.13217460962701" lon="11.55709646508429"><ele>216.66666666666669</ele><time>2026-04-11T20:57:09Z</time></trkpt><trkpt lat="43.13209664393551" lon="11.557136132456474"><ele>216.0</ele><time>2026-04-11T20:57:12Z</time></trkpt><trkpt lat="43.132013594650466" lon="11.557175944994215"><ele>215.33333333333331</ele><time>2026-04-11T20:57:15Z</time></trkpt><trkpt lat="43.131939029956925" lon="11.557210692858488"><ele>214.66666666666666</ele><time>2026-04-11T20:57:18Z</time></trkpt><trkpt lat="43.131866741278266" lon="11.557234148866078"><ele>214.0</ele><time>2026-04-11T20:57:21Z</time></trkpt><trkpt lat="43.131792459894776" lon="11.557270493546355"><ele>214.00000000000003</ele><time>2026-04-11T20:57:24Z</time></trkpt><trkpt lat="43.13171525110862" lon="11.557303622896905"><ele>214.0</ele><time>2026-04-11T20:57:27Z</time></trkpt><trkpt lat="43.13164802380134" lon="11.55733306124597"><ele>214.0</ele><time>2026-04-11T20:57:30Z</time></trkpt><trkpt lat="43.13157324520545" lon="11.557359938742753"><ele>214.0</ele><time>2026-04-11T20:57:33Z</time></trkpt><trkpt lat="43.13150137461544" lon="11.557391793879429"><ele>214.0</ele><time>2026-04-11T20:57:36Z</time></trkpt><trkpt lat="43.13142979454361" lon="11.55739889390541"><ele>214.00000000000003</ele><time>2026-04-11T20:57:39Z</time></trkpt><trkpt lat="43.1313594158273" lon="11.557399142918065"><ele>214.0</ele><time>2026-04-11T20:57:42Z</time></trkpt><trkpt lat="43.13129632744749" lon="11.55739059738751"><ele>213.71428571428572</ele><time>2026-04-11T20:57:45Z</time></trkpt><trkpt lat="43.13123055526355" lon="11.557366336457859"><ele>213.42857142857144</ele><time>2026-04-11T20:57:48Z</time></trkpt><trkpt lat="43.13117372525856" lon="11.557306724501622"><ele>213.14285714285717</ele><time>2026-04-11T20:57:52Z</time></trkpt><trkpt lat="43.13112245633158" lon="11.557250568977471"><ele>212.85714285714286</ele><time>2026-04-11T20:57:56Z</time></trkpt><trkpt lat="43.131085130869664" lon="11.557173605933912"><ele>212.57142857142856</ele><time>2026-04-11T20:58:00Z</time></trkpt><trkpt lat="43.13105515633656" lon="11.557093805629448"><ele>212.2857142857143</ele><time>2026-04-11T20:58:03Z</time></trkpt><trkpt lat="43.13102889700116" lon="11.557001001057108"><ele>212.0</ele><time>2026-04-11T20:58:07Z</time></trkpt><trkpt lat="43.1310263082775" lon="11.556912117276998"><ele>214.57142857142858</ele><time>2026-04-11T20:58:11Z</time></trkpt><trkpt lat="43.131033710549254" lon="11.556812280057759"><ele>217.1428571428571</ele><time>2026-04-11T20:58:15Z</time></trkpt><trkpt lat="43.13105900481007" lon="11.556723964566576"><ele>219.7142857142857</ele><time>2026-04-11T20:58:18Z</time></trkpt><trkpt lat="43.13110704630412" lon="11.556625829734319"><ele>222.28571428571428</ele><time>2026-04-11T20:58:23Z</time></trkpt><trkpt lat="43.131152947747644" lon="11.556561871782373"><ele>224.85714285714283</ele><time>2026-04-11T20:58:27Z</time></trkpt><trkpt lat="43.13121871429998" lon="11.556508895266104"><ele>227.4285714285714</ele><time>2026-04-11T20:58:31Z</time></trkpt><trkpt lat="43.13128754664253" lon="11.556463733688165"><ele>229.99999999999997</ele><time>2026-04-11T20:58:35Z</time></trkpt><trkpt lat="43.131357726747694" lon="11.556416041202091"><ele>229.99999999999997</ele><time>2026-04-11T20:58:39Z</time></trkpt><trkpt lat="43.131414869012225" lon="11.556374578488555"><ele>230.0</ele><time>2026-04-11T20:58:42Z</time></trkpt><trkpt lat="43.13148513218297" lon="11.556317614281436"><ele>229.99999999999997</ele><time>2026-04-11T20:58:46Z</time></trkpt><trkpt lat="43.13154766139696" lon="11.55626235050514"><ele>229.99999999999997</ele><time>2026-04-11T20:58:49Z</time></trkpt><trkpt lat="43.131607248837454" lon="11.556212002782944"><ele>230.0</ele><time>2026-04-11T20:58:52Z</time></trkpt><trkpt lat="43.13167042360618" lon="11.556164271631305"><ele>229.99999999999997</ele><time>2026-04-11T20:58:56Z</time></trkpt><trkpt lat="43.13172720162539" lon="11.5561138397098"><ele>229.99999999999997</ele><time>2026-04-11T20:58:59Z</time></trkpt><trkpt lat="43.13178288765304" lon="11.556062084036293"><ele>231.85714285714283</ele><time>2026-04-11T20:59:02Z</time></trkpt><trkpt lat="43.13185637453383" lon="11.556001132367873"><ele>233.71428571428572</ele><time>2026-04-11T20:59:06Z</time></trkpt><trkpt lat="43.13192630218075" lon="11.5559596965862"><ele>235.57142857142856</ele><time>2026-04-11T20:59:10Z</time></trkpt><trkpt lat="43.131978498877416" lon="11.555901924851588"><ele>237.42857142857142</ele><time>2026-04-11T20:59:13Z</time></trkpt><trkpt lat="43.132032636991966" lon="11.555837780404042"><ele>239.28571428571428</ele><time>2026-04-11T20:59:17Z</time></trkpt><trkpt lat="43.132085996497004" lon="11.5557831992266"><ele>241.14285714285714</ele><time>2026-04-11T20:59:20Z</time></trkpt><trkpt lat="43.13214373334107" lon="11.555738015214704"><ele>243.0</ele><time>2026-04-11T20:59:24Z</time></trkpt><trkpt lat="43.132214965767844" lon="11.555668625896121"><ele>243.0</ele><time>2026-04-11T20:59:28Z</time></trkpt><trkpt lat="43.13227633723428" lon="11.55560581151127"><ele>243.0</ele><time>2026-04-11T20:59:32Z</time></trkpt><trkpt lat="43.13233123306275" lon="11.555540327027506"><ele>243.0</ele><time>2026-04-11T20:59:36Z</time></trkpt><trkpt lat="43.132386385389694" lon="11.555481817094533"><ele>243.0</ele><time>2026-04-11T20:59:39Z</time></trkpt><trkpt lat="43.13245418687811" lon="11.555410160846442"><ele>243.0</ele><time>2026-04-11T20:59:42Z</time></trkpt><trkpt lat="43.13250847409204" lon="11.555341503823847"><ele>243.0</ele><time>2026-04-11T20:59:46Z</time></trkpt><trkpt lat="43.13255754622824" lon="11.555285620964911"><ele>243.0</ele><time>2026-04-11T20:59:49Z</time></trkpt><trkpt lat="43.132611808424755" lon="11.555219779757051"><ele>243.42857142857142</ele><time>2026-04-11T20:59:52Z</time></trkpt><trkpt lat="43.13267231133477" lon="11.555154669668955"><ele>243.8571428571429</ele><time>2026-04-11T20:59:55Z</time></trkpt><trkpt lat="43.132726848316565" lon="11.555081180070438"><ele>244.2857142857143</ele><time>2026-04-11T20:59:59Z</time></trkpt><trkpt lat="43.13277294822011" lon="11.555000213826837"><ele>244.71428571428572</ele><time>2026-04-11T21:00:02Z</time></trkpt><trkpt lat="43.132802898296326" lon="11.55491467370558"><ele>245.14285714285717</ele><time>2026-04-11T21:00:05Z</time></trkpt><trkpt lat="43.13282061920239" lon="11.554816780434901"><ele>245.5714285714286</ele><time>2026-04-11T21:00:08Z</time></trkpt><trkpt lat="43.132819095653076" lon="11.554714434850322"><ele>246.00000000000003</ele><time>2026-04-11T21:00:12Z</time></trkpt><trkpt lat="43.132799186042696" lon="11.554600594356387"><ele>246.5714285714286</ele><time>2026-04-11T21:00:16Z</time></trkpt><trkpt lat="43.132767926613646" lon="11.55451713118536"><ele>247.14285714285717</ele><time>2026-04-11T21:00:19Z</time></trkpt><trkpt lat="43.13273077633242" lon="11.554439236589104"><ele>247.71428571428572</ele><time>2026-04-11T21:00:23Z</time></trkpt><trkpt lat="43.13269075827739" lon="11.554362986006932"><ele>248.2857142857143</ele><time>2026-04-11T21:00:26Z</time></trkpt><trkpt lat="43.132644674149844" lon="11.554295345687757"><ele>248.8571428571429</ele><time>2026-04-11T21:00:30Z</time></trkpt><trkpt lat="43.132593136056286" lon="11.554244427310257"><ele>249.42857142857142</ele><time>2026-04-11T21:00:33Z</time></trkpt><trkpt lat="43.13253254458263" lon="11.554182826578238"><ele>250.0</ele><time>2026-04-11T21:00:36Z</time></trkpt><trkpt lat="43.13245387779411" lon="11.554123615912788"><ele>252.66666666666666</ele><time>2026-04-11T21:00:40Z</time></trkpt><trkpt lat="43.132381865761474" lon="11.55409323852534"><ele>255.33333333333331</ele><time>2026-04-11T21:00:43Z</time></trkpt><trkpt lat="43.132312564490874" lon="11.554089280136623"><ele>258.0</ele><time>2026-04-11T21:00:47Z</time></trkpt><trkpt lat="43.132220780028476" lon="11.554131334903015"><ele>260.6666666666667</ele><time>2026-04-11T21:00:51Z</time></trkpt><trkpt lat="43.132163193449045" lon="11.55418949157813"><ele>263.33333333333337</ele><time>2026-04-11T21:00:55Z</time></trkpt><trkpt lat="43.132117154774406" lon="11.554251003833222"><ele>266.0</ele><time>2026-04-11T21:00:58Z</time></trkpt><trkpt lat="43.13206829230211" lon="11.5543286852732"><ele>266.0</ele><time>2026-04-11T21:01:01Z</time></trkpt><trkpt lat="43.132021318702726" lon="11.554403585534027"><ele>266.0</ele><time>2026-04-11T21:01:04Z</time></trkpt><trkpt lat="43.13197170899603" lon="11.55447659393379"><ele>266.0</ele><time>2026-04-11T21:01:07Z</time></trkpt><trkpt lat="43.13192278496514" lon="11.554536715904124"><ele>266.0</ele><time>2026-04-11T21:01:10Z</time></trkpt><trkpt lat="43.13186716688651" lon="11.554612971991148"><ele>266.0</ele><time>2026-04-11T21:01:13Z</time></trkpt><trkpt lat="43.13180767741927" lon="11.554682733282476"><ele>266.0</ele><time>2026-04-11T21:01:16Z</time></trkpt><trkpt lat="43.131751361258694" lon="11.554752773278233"><ele>266.0</ele><time>2026-04-11T21:01:19Z</time></trkpt><trkpt lat="43.13170005084842" lon="11.554818604935717"><ele>265.42857142857144</ele><time>2026-04-11T21:01:22Z</time></trkpt><trkpt lat="43.13164679174625" lon="11.554881547202676"><ele>264.8571428571429</ele><time>2026-04-11T21:01:25Z</time></trkpt><trkpt lat="43.13159003519527" lon="11.554940424315177"><ele>264.2857142857143</ele><time>2026-04-11T21:01:28Z</time></trkpt><trkpt lat="43.131538511359196" lon="11.555005626474385"><ele>263.7142857142857</ele><time>2026-04-11T21:01:31Z</time></trkpt><trkpt lat="43.13148092681292" lon="11.555064057630432"><ele>263.14285714285717</ele><time>2026-04-11T21:01:34Z</time></trkpt><trkpt lat="43.13142287834737" lon="11.555117601398187"><ele>262.57142857142856</ele><time>2026-04-11T21:01:37Z</time></trkpt><trkpt lat="43.13136042359681" lon="11.55515279149474"><ele>262.0</ele><time>2026-04-11T21:01:40Z</time></trkpt><trkpt lat="43.13129243208618" lon="11.555175350531195"><ele>262.0</ele><time>2026-04-11T21:01:43Z</time></trkpt><trkpt lat="43.131224876816376" lon="11.555189389287605"><ele>262.0</ele><time>2026-04-11T21:01:46Z</time></trkpt><trkpt lat="43.13115147294606" lon="11.55518408073816"><ele>262.0</ele><time>2026-04-11T21:01:49Z</time></trkpt><trkpt lat="43.13107952162879" lon="11.555169884146347"><ele>262.0</ele><time>2026-04-11T21:01:52Z</time></trkpt><trkpt lat="43.131011834903084" lon="11.555133116240464"><ele>262.0</ele><time>2026-04-11T21:01:56Z</time></trkpt><trkpt lat="43.13095736825132" lon="11.555082743112386"><ele>262.0</ele><time>2026-04-11T21:01:59Z</time></trkpt><trkpt lat="43.130913908279325" lon="11.555008740901066"><ele>262.0</ele><time>2026-04-11T21:02:02Z</time></trkpt><trkpt lat="43.130843899410245" lon="11.554939186299253"><ele>262.0</ele><time>2026-04-11T21:02:06Z</time></trkpt><trkpt lat="43.13079743509245" lon="11.554871200962623"><ele>262.0</ele><time>2026-04-11T21:02:09Z</time></trkpt><trkpt lat="43.13075611392017" lon="11.554804836881685"><ele>262.0</ele><time>2026-04-11T21:02:12Z</time></trkpt><trkpt lat="43.13071462178184" lon="11.554726424613627"><ele>262.0</ele><time>2026-04-11T21:02:15Z</time></trkpt><trkpt lat="43.13067091745415" lon="11.554656506241129"><ele>262.0</ele><time>2026-04-11T21:02:18Z</time></trkpt><trkpt lat="43.130623304537735" lon="11.554596297091372"><ele>262.0</ele><time>2026-04-11T21:02:21Z</time></trkpt><trkpt lat="43.13056403190132" lon="11.554540958669982"><ele>262.0</ele><time>2026-04-11T21:02:24Z</time></trkpt><trkpt lat="43.130495119160756" lon="11.554496693518807"><ele>262.57142857142856</ele><time>2026-04-11T21:02:28Z</time></trkpt><trkpt lat="43.13043078475258" lon="11.55446185336808"><ele>263.14285714285717</ele><time>2026-04-11T21:02:31Z</time></trkpt><trkpt lat="43.13036898089725" lon="11.55440783042857"><ele>263.7142857142857</ele><time>2026-04-11T21:02:34Z</time></trkpt><trkpt lat="43.13031123506027" lon="11.554333961127085"><ele>264.2857142857143</ele><time>2026-04-11T21:02:37Z</time></trkpt><trkpt lat="43.13025744306373" lon="11.554280487370093"><ele>264.8571428571429</ele><time>2026-04-11T21:02:40Z</time></trkpt><trkpt lat="43.13020030014297" lon="11.554213020556876"><ele>265.42857142857144</ele><time>2026-04-11T21:02:43Z</time></trkpt><trkpt lat="43.130149993653426" lon="11.554151719690434"><ele>266.0</ele><time>2026-04-11T21:02:45Z</time></trkpt><trkpt lat="43.13010137367505" lon="11.554086845356132"><ele>266.0</ele><time>2026-04-11T21:02:48Z</time></trkpt><trkpt lat="43.130033674989214" lon="11.553995842494897"><ele>266.0</ele><time>2026-04-11T21:02:50Z</time></trkpt><trkpt lat="43.12995732106496" lon="11.55393273138894"><ele>266.0</ele><time>2026-04-11T21:02:53Z</time></trkpt><trkpt lat="43.129881795233175" lon="11.553882016256702"><ele>266.0</ele><time>2026-04-11T21:02:56Z</time></trkpt><trkpt lat="43.12981553144089" lon="11.553859821126476"><ele>266.0</ele><time>2026-04-11T21:02:59Z</time></trkpt><trkpt lat="43.12974152823863" lon="11.553840644127535"><ele>266.0</ele><time>2026-04-11T21:03:03Z</time></trkpt><trkpt lat="43.12967761693333" lon="11.553826168556316"><ele>266.1666666666667</ele><time>2026-04-11T21:03:06Z</time></trkpt><trkpt lat="43.12961099654462" lon="11.553827123746714"><ele>266.33333333333337</ele><time>2026-04-11T21:03:09Z</time></trkpt><trkpt lat="43.12954136622834" lon="11.553812805938012"><ele>266.5</ele><time>2026-04-11T21:03:12Z</time></trkpt><trkpt lat="43.12946170653231" lon="11.553783999517995"><ele>266.6666666666667</ele><time>2026-04-11T21:03:16Z</time></trkpt><trkpt lat="43.12938303210793" lon="11.553731550449887"><ele>266.8333333333333</ele><time>2026-04-11T21:03:20Z</time></trkpt><trkpt lat="43.12933707741961" lon="11.553640303273784"><ele>267.0</ele><time>2026-04-11T21:03:24Z</time></trkpt><trkpt lat="43.12930906053488" lon="11.553544590464085"><ele>268.5714285714286</ele><time>2026-04-11T21:03:27Z</time></trkpt><trkpt lat="43.129310637187565" lon="11.553452275695847"><ele>270.14285714285717</ele><time>2026-04-11T21:03:30Z</time></trkpt><trkpt lat="43.12931784115741" lon="11.553356217568172"><ele>271.7142857142857</ele><time>2026-04-11T21:03:33Z</time></trkpt><trkpt lat="43.12934498762809" lon="11.553267176746715"><ele>273.28571428571433</ele><time>2026-04-11T21:03:37Z</time></trkpt><trkpt lat="43.12939028522668" lon="11.553194527268804"><ele>274.8571428571429</ele><time>2026-04-11T21:03:39Z</time></trkpt><trkpt lat="43.129453652445946" lon="11.553146897013548"><ele>276.42857142857144</ele><time>2026-04-11T21:03:42Z</time></trkpt><trkpt lat="43.12952566127481" lon="11.553108409834067"><ele>278.0</ele><time>2026-04-11T21:03:45Z</time></trkpt><trkpt lat="43.129604076848636" lon="11.553097180316895"><ele>278.0</ele><time>2026-04-11T21:03:48Z</time></trkpt><trkpt lat="43.12968620675055" lon="11.553096324117773"><ele>278.0</ele><time>2026-04-11T21:03:51Z</time></trkpt><trkpt lat="43.12976271515675" lon="11.553111326458385"><ele>278.0</ele><time>2026-04-11T21:03:54Z</time></trkpt><trkpt lat="43.12983676070271" lon="11.553136134171956"><ele>278.0</ele><time>2026-04-11T21:03:57Z</time></trkpt><trkpt lat="43.129910312805066" lon="11.553155806849869"><ele>278.0</ele><time>2026-04-11T21:04:00Z</time></trkpt><trkpt lat="43.12997769483392" lon="11.553179999487623"><ele>278.0</ele><time>2026-04-11T21:04:04Z</time></trkpt><trkpt lat="43.13004305881829" lon="11.55320309054704"><ele>278.0</ele><time>2026-04-11T21:04:07Z</time></trkpt><trkpt lat="43.13011136082138" lon="11.553222830818921"><ele>278.0</ele><time>2026-04-11T21:04:10Z</time></trkpt><trkpt lat="43.13017538910627" lon="11.553246722065206"><ele>278.0</ele><time>2026-04-11T21:04:13Z</time></trkpt><trkpt lat="43.13023807538059" lon="11.553276168316408"><ele>278.0</ele><time>2026-04-11T21:04:16Z</time></trkpt><trkpt lat="43.130313580121964" lon="11.553308944865368"><ele>278.0</ele><time>2026-04-11T21:04:20Z</time></trkpt><trkpt lat="43.13038214526393" lon="11.553349564337744"><ele>278.0</ele><time>2026-04-11T21:04:23Z</time></trkpt><trkpt lat="43.130449753634146" lon="11.553357002160132"><ele>278.0</ele><time>2026-04-11T21:04:26Z</time></trkpt><trkpt lat="43.130513453664406" lon="11.553378278991072"><ele>278.0</ele><time>2026-04-11T21:04:29Z</time></trkpt><trkpt lat="43.13057948690441" lon="11.553384078186802"><ele>278.0</ele><time>2026-04-11T21:04:33Z</time></trkpt><trkpt lat="43.13065836419738" lon="11.55338089253336"><ele>278.0</ele><time>2026-04-11T21:04:37Z</time></trkpt><trkpt lat="43.130737559279815" lon="11.553366166050957"><ele>278.0</ele><time>2026-04-11T21:04:41Z</time></trkpt><trkpt lat="43.13080033035297" lon="11.55335331920573"><ele>278.0</ele><time>2026-04-11T21:04:44Z</time></trkpt><trkpt lat="43.13087566903299" lon="11.553303358455812"><ele>278.0</ele><time>2026-04-11T21:04:48Z</time></trkpt><trkpt lat="43.13092973351622" lon="11.553251418303654"><ele>278.0</ele><time>2026-04-11T21:04:51Z</time></trkpt><trkpt lat="43.13097627150714" lon="11.553186738353695"><ele>278.0</ele><time>2026-04-11T21:04:54Z</time></trkpt><trkpt lat="43.131021679073086" lon="11.55311602503758"><ele>278.7142857142857</ele><time>2026-04-11T21:04:57Z</time></trkpt><trkpt lat="43.13105298759052" lon="11.553036646612444"><ele>279.42857142857144</ele><time>2026-04-11T21:05:00Z</time></trkpt><trkpt lat="43.1310714266356" lon="11.55295354170612"><ele>280.14285714285717</ele><time>2026-04-11T21:05:03Z</time></trkpt><trkpt lat="43.13109253325219" lon="11.552859799228884"><ele>280.8571428571429</ele><time>2026-04-11T21:05:06Z</time></trkpt><trkpt lat="43.13110291946051" lon="11.552751353592893"><ele>281.5714285714286</ele><time>2026-04-11T21:05:10Z</time></trkpt><trkpt lat="43.13109195898376" lon="11.552642710274863"><ele>282.2857142857143</ele><time>2026-04-11T21:05:14Z</time></trkpt><trkpt lat="43.13108028528413" lon="11.552534482435647"><ele>283.0</ele><time>2026-04-11T21:05:18Z</time></trkpt><trkpt lat="43.13107065069878" lon="11.552441596513317"><ele>284.2857142857143</ele><time>2026-04-11T21:05:21Z</time></trkpt><trkpt lat="43.13106674229145" lon="11.552346788991027"><ele>285.5714285714286</ele><time>2026-04-11T21:05:25Z</time></trkpt><trkpt lat="43.13105954955341" lon="11.552242679161086"><ele>286.8571428571429</ele><time>2026-04-11T21:05:29Z</time></trkpt><trkpt lat="43.13105961483677" lon="11.552145444595615"><ele>288.14285714285717</ele><time>2026-04-11T21:05:32Z</time></trkpt><trkpt lat="43.13106654056327" lon="11.552057053902544"><ele>289.42857142857144</ele><time>2026-04-11T21:05:35Z</time></trkpt><trkpt lat="43.13108069435616" lon="11.55195705031744"><ele>290.7142857142857</ele><time>2026-04-11T21:05:39Z</time></trkpt><trkpt lat="43.13110627087591" lon="11.551856875954082"><ele>292.0</ele><time>2026-04-11T21:05:43Z</time></trkpt><trkpt lat="43.13112319523917" lon="11.551762690062484"><ele>293.2857142857143</ele><time>2026-04-11T21:05:47Z</time></trkpt><trkpt lat="43.13115377982805" lon="11.55166807261973"><ele>294.57142857142856</ele><time>2026-04-11T21:05:50Z</time></trkpt><trkpt lat="43.13118889934457" lon="11.551595639600533"><ele>295.8571428571429</ele><time>2026-04-11T21:05:52Z</time></trkpt><trkpt lat="43.131236281271484" lon="11.551507218079548"><ele>297.1428571428571</ele><time>2026-04-11T21:05:54Z</time></trkpt><trkpt lat="43.13127887970484" lon="11.55143181820695"><ele>298.42857142857144</ele><time>2026-04-11T21:05:56Z</time></trkpt><trkpt lat="43.1313295939065" lon="11.55135587658899"><ele>299.7142857142857</ele><time>2026-04-11T21:05:59Z</time></trkpt><trkpt lat="43.13137049254966" lon="11.551285354833583"><ele>301.0</ele><time>2026-04-11T21:06:02Z</time></trkpt><trkpt lat="43.13140551616159" lon="11.551211722768"><ele>300.57142857142856</ele><time>2026-04-11T21:06:05Z</time></trkpt><trkpt lat="43.13144517279293" lon="11.551136133523705"><ele>300.1428571428571</ele><time>2026-04-11T21:06:08Z</time></trkpt><trkpt lat="43.1314836601133" lon="11.55106431451566"><ele>299.7142857142857</ele><time>2026-04-11T21:06:11Z</time></trkpt><trkpt lat="43.13153370353875" lon="11.55096577219197"><ele>299.2857142857143</ele><time>2026-04-11T21:06:15Z</time></trkpt><trkpt lat="43.13157093236799" lon="11.550890276564653"><ele>298.85714285714283</ele><time>2026-04-11T21:06:18Z</time></trkpt><trkpt lat="43.13161818163087" lon="11.550820109356488"><ele>298.42857142857144</ele><time>2026-04-11T21:06:21Z</time></trkpt><trkpt lat="43.131660910691046" lon="11.550743071211453"><ele>298.0</ele><time>2026-04-11T21:06:24Z</time></trkpt><trkpt lat="43.13170332470621" lon="11.55067077740149"><ele>298.0</ele><time>2026-04-11T21:06:27Z</time></trkpt><trkpt lat="43.13174560619821" lon="11.550595708854347"><ele>298.0</ele><time>2026-04-11T21:06:30Z</time></trkpt><trkpt lat="43.13178566687703" lon="11.550521423604579"><ele>298.0</ele><time>2026-04-11T21:06:33Z</time></trkpt><trkpt lat="43.13182739829769" lon="11.5504426077156"><ele>298.0</ele><time>2026-04-11T21:06:36Z</time></trkpt><trkpt lat="43.131868246620286" lon="11.550354965649506"><ele>298.0</ele><time>2026-04-11T21:06:39Z</time></trkpt><trkpt lat="43.131912938588655" lon="11.550272641972184"><ele>298.0</ele><time>2026-04-11T21:06:42Z</time></trkpt><trkpt lat="43.1319567902669" lon="11.550184102797223"><ele>298.0</ele><time>2026-04-11T21:06:45Z</time></trkpt><trkpt lat="43.13200453915053" lon="11.550101392118112"><ele>299.5</ele><time>2026-04-11T21:06:48Z</time></trkpt><trkpt lat="43.132048373606104" lon="11.550012257476583"><ele>301.0</ele><time>2026-04-11T21:06:51Z</time></trkpt><trkpt lat="43.132097326862706" lon="11.549923347545006"><ele>302.5</ele><time>2026-04-11T21:06:54Z</time></trkpt><trkpt lat="43.13214417291705" lon="11.549836153086531"><ele>304.0</ele><time>2026-04-11T21:06:57Z</time></trkpt><trkpt lat="43.13218868529959" lon="11.549746728503797"><ele>305.5</ele><time>2026-04-11T21:07:00Z</time></trkpt><trkpt lat="43.13224026825627" lon="11.549656927412968"><ele>307.0</ele><time>2026-04-11T21:07:03Z</time></trkpt><trkpt lat="43.13227902865459" lon="11.549581492989004"><ele>306.8333333333333</ele><time>2026-04-11T21:07:06Z</time></trkpt><trkpt lat="43.13232216588859" lon="11.549501295687483"><ele>306.66666666666663</ele><time>2026-04-11T21:07:09Z</time></trkpt><trkpt lat="43.13236835420721" lon="11.54941845927618"><ele>306.5</ele><time>2026-04-11T21:07:12Z</time></trkpt><trkpt lat="43.13243390270757" lon="11.549325024948887"><ele>306.3333333333333</ele><time>2026-04-11T21:07:15Z</time></trkpt><trkpt lat="43.13249243694437" lon="11.549257586559316"><ele>306.1666666666667</ele><time>2026-04-11T21:07:18Z</time></trkpt><trkpt lat="43.13254576130267" lon="11.549204290409673"><ele>306.0</ele><time>2026-04-11T21:07:21Z</time></trkpt><trkpt lat="43.13260960644504" lon="11.549144745329835"><ele>306.5</ele><time>2026-04-11T21:07:24Z</time></trkpt><trkpt lat="43.13268623754209" lon="11.549091234113138"><ele>307.0</ele><time>2026-04-11T21:07:27Z</time></trkpt><trkpt lat="43.132762549393455" lon="11.54904089340763"><ele>307.5</ele><time>2026-04-11T21:07:30Z</time></trkpt><trkpt lat="43.13283310720205" lon="11.5489854309651"><ele>308.0</ele><time>2026-04-11T21:07:33Z</time></trkpt><trkpt lat="43.13290826724634" lon="11.548932456058548"><ele>308.5</ele><time>2026-04-11T21:07:36Z</time></trkpt><trkpt lat="43.13297636462346" lon="11.548869661637958"><ele>309.0</ele><time>2026-04-11T21:07:39Z</time></trkpt><trkpt lat="43.13305046112206" lon="11.548815065805437"><ele>309.0</ele><time>2026-04-11T21:07:42Z</time></trkpt><trkpt lat="43.13312083997624" lon="11.54875444274266"><ele>309.0</ele><time>2026-04-11T21:07:45Z</time></trkpt><trkpt lat="43.133191115090646" lon="11.54869033911937"><ele>309.0</ele><time>2026-04-11T21:07:48Z</time></trkpt><trkpt lat="43.133250858304365" lon="11.548604940198523"><ele>309.0</ele><time>2026-04-11T21:07:51Z</time></trkpt><trkpt lat="43.13329832486413" lon="11.548518627964977"><ele>309.0</ele><time>2026-04-11T21:07:53Z</time></trkpt><trkpt lat="43.13334291461556" lon="11.548428875823227"><ele>309.0</ele><time>2026-04-11T21:07:55Z</time></trkpt><trkpt lat="43.13338323102955" lon="11.548338484188166"><ele>309.3333333333333</ele><time>2026-04-11T21:07:57Z</time></trkpt><trkpt lat="43.1333955589418" lon="11.54825289448617"><ele>309.6666666666667</ele><time>2026-04-11T21:08:00Z</time></trkpt><trkpt lat="43.133414990493826" lon="11.548150730690924"><ele>310.0</ele><time>2026-04-11T21:08:03Z</time></trkpt><trkpt lat="43.13342566309893" lon="11.548019413844337"><ele>310.33333333333337</ele><time>2026-04-11T21:08:06Z</time></trkpt><trkpt lat="43.133471042757186" lon="11.547912639891985"><ele>310.6666666666667</ele><time>2026-04-11T21:09:11Z</time></trkpt><trkpt lat="43.13342904914135" lon="11.5478104650018"><ele>311.0</ele><time>2026-04-11T21:09:16Z</time></trkpt><trkpt lat="43.13341184098216" lon="11.547704860592178"><ele>311.0</ele><time>2026-04-11T21:09:18Z</time></trkpt><trkpt lat="43.133383874807805" lon="11.547575968354993"><ele>311.0</ele><time>2026-04-11T21:09:20Z</time></trkpt><trkpt lat="43.13333868302551" lon="11.547435227095747"><ele>311.0</ele><time>2026-04-11T21:09:22Z</time></trkpt><trkpt lat="43.13332605716538" lon="11.54726863915936"><ele>311.0</ele><time>2026-04-11T21:09:24Z</time></trkpt><trkpt lat="43.133287080788115" lon="11.547108875912"><ele>310.83333333333337</ele><time>2026-04-11T21:09:26Z</time></trkpt><trkpt lat="43.1332495133417" lon="11.546947384842255"><ele>310.6666666666667</ele><time>2026-04-11T21:09:28Z</time></trkpt><trkpt lat="43.13321331559177" lon="11.546788439353422"><ele>310.5</ele><time>2026-04-11T21:09:30Z</time></trkpt><trkpt lat="43.13319421063564" lon="11.54670454886864"><ele>310.3333333333333</ele><time>2026-04-11T21:09:31Z</time></trkpt><trkpt lat="43.133174117573205" lon="11.546616319594033"><ele>310.16666666666663</ele><time>2026-04-11T21:09:32Z</time></trkpt><trkpt lat="43.1331388593672" lon="11.546534352102608"><ele>310.0</ele><time>2026-04-11T21:09:33Z</time></trkpt><trkpt lat="43.13311912648783" lon="11.546447388651801"><ele>307.5</ele><time>2026-04-11T21:09:34Z</time></trkpt><trkpt lat="43.133100131048224" lon="11.546364716405819"><ele>305.0</ele><time>2026-04-11T21:09:35Z</time></trkpt><trkpt lat="43.13308040450608" lon="11.546276961437199"><ele>302.5</ele><time>2026-04-11T21:09:36Z</time></trkpt><trkpt lat="43.133065617686896" lon="11.546190626774184"><ele>300.0</ele><time>2026-04-11T21:09:37Z</time></trkpt><trkpt lat="43.13302844139852" lon="11.546043164320075"><ele>297.5</ele><time>2026-04-11T21:09:39Z</time></trkpt><trkpt lat="43.132989940774685" lon="11.545890892588602"><ele>295.0</ele><time>2026-04-11T21:09:41Z</time></trkpt><trkpt lat="43.13296131308658" lon="11.545735002508872"><ele>295.0</ele><time>2026-04-11T21:09:43Z</time></trkpt><trkpt lat="43.132925946149314" lon="11.54558025873021"><ele>295.0</ele><time>2026-04-11T21:09:45Z</time></trkpt><trkpt lat="43.13288656764242" lon="11.545420596614992"><ele>295.0</ele><time>2026-04-11T21:09:47Z</time></trkpt><trkpt lat="43.13286513403756" lon="11.54533854474465"><ele>295.0</ele><time>2026-04-11T21:09:48Z</time></trkpt><trkpt lat="43.132847297936024" lon="11.545255268036001"><ele>295.0</ele><time>2026-04-11T21:09:49Z</time></trkpt><trkpt lat="43.132825602287916" lon="11.545173657314761"><ele>295.0</ele><time>2026-04-11T21:09:50Z</time></trkpt><trkpt lat="43.13280652534871" lon="11.545087939460897"><ele>295.42857142857144</ele><time>2026-04-11T21:09:51Z</time></trkpt><trkpt lat="43.13278581780454" lon="11.545004614979316"><ele>295.8571428571429</ele><time>2026-04-11T21:09:52Z</time></trkpt><trkpt lat="43.13276407058253" lon="11.544922794651852"><ele>296.2857142857143</ele><time>2026-04-11T21:09:53Z</time></trkpt><trkpt lat="43.13274599124299" lon="11.544838460775415"><ele>296.7142857142857</ele><time>2026-04-11T21:09:54Z</time></trkpt><trkpt lat="43.13272633667844" lon="11.54475008357517"><ele>297.1428571428571</ele><time>2026-04-11T21:09:55Z</time></trkpt><trkpt lat="43.132707023367246" lon="11.544657425767982"><ele>297.57142857142856</ele><time>2026-04-11T21:09:56Z</time></trkpt><trkpt lat="43.13268527109022" lon="11.544566570220807"><ele>298.0</ele><time>2026-04-11T21:09:57Z</time></trkpt><trkpt lat="43.13266431869154" lon="11.544477686417661"><ele>298.66666666666663</ele><time>2026-04-11T21:09:58Z</time></trkpt><trkpt lat="43.13264736281721" lon="11.544388889386683"><ele>299.3333333333333</ele><time>2026-04-11T21:09:59Z</time></trkpt><trkpt lat="43.132624001345256" lon="11.544305308402254"><ele>300.0</ele><time>2026-04-11T21:10:00Z</time></trkpt><trkpt lat="43.132601651157074" lon="11.544222083314429"><ele>300.6666666666667</ele><time>2026-04-11T21:10:01Z</time></trkpt><trkpt lat="43.13258335784761" lon="11.544134293560044"><ele>301.33333333333337</ele><time>2026-04-11T21:10:02Z</time></trkpt><trkpt lat="43.13253466860208" lon="11.543976165181984"><ele>302.0</ele><time>2026-04-11T21:10:04Z</time></trkpt><trkpt lat="43.13251017785182" lon="11.543895552600217"><ele>302.0</ele><time>2026-04-11T21:10:05Z</time></trkpt><trkpt lat="43.13248534563922" lon="11.543815780826195"><ele>302.0</ele><time>2026-04-11T21:10:06Z</time></trkpt><trkpt lat="43.132429319976346" lon="11.54366335561634"><ele>302.0</ele><time>2026-04-11T21:10:08Z</time></trkpt><trkpt lat="43.13237039282793" lon="11.543516857618425"><ele>302.0</ele><time>2026-04-11T21:10:10Z</time></trkpt><trkpt lat="43.13230722109196" lon="11.543370752530688"><ele>302.0</ele><time>2026-04-11T21:10:12Z</time></trkpt><trkpt lat="43.132252342653814" lon="11.543222210622911"><ele>302.00000000000006</ele><time>2026-04-11T21:10:14Z</time></trkpt><trkpt lat="43.13220798161059" lon="11.543153084439357"><ele>302.0</ele><time>2026-04-11T21:10:15Z</time></trkpt><trkpt lat="43.132176280145856" lon="11.543070701718326"><ele>302.0</ele><time>2026-04-11T21:10:16Z</time></trkpt><trkpt lat="43.132140829699665" lon="11.542991541848727"><ele>302.0</ele><time>2026-04-11T21:10:17Z</time></trkpt><trkpt lat="43.13210544179064" lon="11.542901467803908"><ele>302.0</ele><time>2026-04-11T21:10:18Z</time></trkpt><trkpt lat="43.132071431068375" lon="11.542812072880654"><ele>302.00000000000006</ele><time>2026-04-11T21:10:19Z</time></trkpt><trkpt lat="43.13203486880788" lon="11.542724593546062"><ele>302.0</ele><time>2026-04-11T21:10:20Z</time></trkpt><trkpt lat="43.13199917609812" lon="11.542644928988949"><ele>302.33333333333337</ele><time>2026-04-11T21:10:21Z</time></trkpt><trkpt lat="43.1319674565246" lon="11.54256665277735"><ele>302.6666666666667</ele><time>2026-04-11T21:10:22Z</time></trkpt><trkpt lat="43.131901570741285" lon="11.542431710315926"><ele>303.0</ele><time>2026-04-11T21:10:24Z</time></trkpt><trkpt lat="43.13190684264731" lon="11.542337863004864"><ele>303.3333333333333</ele><time>2026-04-11T21:10:25Z</time></trkpt><trkpt lat="43.13184906015371" lon="11.542277321615174"><ele>303.66666666666663</ele><time>2026-04-11T21:10:26Z</time></trkpt><trkpt lat="43.13181321591832" lon="11.542138867843862"><ele>304.0</ele><time>2026-04-11T21:10:28Z</time></trkpt><trkpt lat="43.13179449306997" lon="11.541979099760526"><ele>304.16666666666663</ele><time>2026-04-11T21:10:30Z</time></trkpt><trkpt lat="43.13180115933612" lon="11.541815061061454"><ele>304.3333333333333</ele><time>2026-04-11T21:10:32Z</time></trkpt><trkpt lat="43.13181446412865" lon="11.541727626651562"><ele>304.5</ele><time>2026-04-11T21:10:33Z</time></trkpt><trkpt lat="43.131844060084916" lon="11.541645011419837"><ele>304.6666666666667</ele><time>2026-04-11T21:10:34Z</time></trkpt><trkpt lat="43.1318653601205" lon="11.541563590286046"><ele>304.83333333333337</ele><time>2026-04-11T21:10:35Z</time></trkpt><trkpt lat="43.131888685494935" lon="11.541473767982257"><ele>305.0</ele><time>2026-04-11T21:10:36Z</time></trkpt><trkpt lat="43.131906606141904" lon="11.541381885675158"><ele>305.2</ele><time>2026-04-11T21:10:37Z</time></trkpt><trkpt lat="43.1319286346182" lon="11.541204856295968"><ele>305.4</ele><time>2026-04-11T21:10:39Z</time></trkpt><trkpt lat="43.13193817138192" lon="11.54111311717251"><ele>305.6</ele><time>2026-04-11T21:10:40Z</time></trkpt><trkpt lat="43.13194858615179" lon="11.541022660192391"><ele>305.8</ele><time>2026-04-11T21:10:41Z</time></trkpt><trkpt lat="43.1319593950829" lon="11.540935035623654"><ele>306.0</ele><time>2026-04-11T21:10:42Z</time></trkpt><trkpt lat="43.13198387785086" lon="11.540763095450396"><ele>306.0</ele><time>2026-04-11T21:10:44Z</time></trkpt><trkpt lat="43.13199982341708" lon="11.540676501564931"><ele>306.0</ele><time>2026-04-11T21:10:45Z</time></trkpt><trkpt lat="43.132019245492444" lon="11.540590344200858"><ele>306.0</ele><time>2026-04-11T21:10:46Z</time></trkpt><trkpt lat="43.132042622004725" lon="11.54050267422583"><ele>306.0</ele><time>2026-04-11T21:10:47Z</time></trkpt><trkpt lat="43.13206637434601" lon="11.540415447570698"><ele>306.0</ele><time>2026-04-11T21:10:48Z</time></trkpt><trkpt lat="43.132091041267536" lon="11.540324862418998"><ele>306.0</ele><time>2026-04-11T21:10:49Z</time></trkpt><trkpt lat="43.1321148800867" lon="11.540230938869668"><ele>306.0</ele><time>2026-04-11T21:10:50Z</time></trkpt><trkpt lat="43.13213452314398" lon="11.540142779940103"><ele>306.0</ele><time>2026-04-11T21:10:51Z</time></trkpt><trkpt lat="43.132162449067174" lon="11.540010386482345"><ele>306.0</ele><time>2026-04-11T21:10:53Z</time></trkpt><trkpt lat="43.13218238917471" lon="11.53988888883677"><ele>306.0</ele><time>2026-04-11T21:10:55Z</time></trkpt><trkpt lat="43.132199868307815" lon="11.539740602308793"><ele>306.0</ele><time>2026-04-11T21:10:57Z</time></trkpt><trkpt lat="43.132204751588745" lon="11.539605125891644"><ele>306.0</ele><time>2026-04-11T21:10:59Z</time></trkpt><trkpt lat="43.13220276961183" lon="11.539486576737556"><ele>305.1666666666667</ele><time>2026-04-11T21:11:01Z</time></trkpt><trkpt lat="43.13216837883352" lon="11.539365678932155"><ele>304.3333333333333</ele><time>2026-04-11T21:11:03Z</time></trkpt><trkpt lat="43.132172433380696" lon="11.539243128314286"><ele>303.5</ele><time>2026-04-11T21:11:05Z</time></trkpt><trkpt lat="43.13217200035504" lon="11.539132588797052"><ele>302.66666666666663</ele><time>2026-04-11T21:11:07Z</time></trkpt><trkpt lat="43.132179370187814" lon="11.538995726269766"><ele>301.8333333333333</ele><time>2026-04-11T21:11:10Z</time></trkpt><trkpt lat="43.13218627594491" lon="11.538899603974153"><ele>301.0</ele><time>2026-04-11T21:11:12Z</time></trkpt><trkpt lat="43.13219584793387" lon="11.53879964467246"><ele>299.40000000000003</ele><time>2026-04-11T21:11:14Z</time></trkpt><trkpt lat="43.13221241579776" lon="11.538675347440616"><ele>297.8</ele><time>2026-04-11T21:11:16Z</time></trkpt><trkpt lat="43.132228868263326" lon="11.538551289277109"><ele>296.20000000000005</ele><time>2026-04-11T21:11:18Z</time></trkpt><trkpt lat="43.13225432012236" lon="11.538422078584453"><ele>294.6</ele><time>2026-04-11T21:11:20Z</time></trkpt><trkpt lat="43.1322807675797" lon="11.538293102929114"><ele>293.0</ele><time>2026-04-11T21:11:22Z</time></trkpt><trkpt lat="43.132322908287314" lon="11.538175048619435"><ele>293.0</ele><time>2026-04-11T21:11:24Z</time></trkpt><trkpt lat="43.13235695043825" lon="11.538063972427745"><ele>293.0</ele><time>2026-04-11T21:11:26Z</time></trkpt><trkpt lat="43.13238810609558" lon="11.537965480213082"><ele>293.0</ele><time>2026-04-11T21:11:28Z</time></trkpt><trkpt lat="43.132416376262185" lon="11.537862455707293"><ele>293.0</ele><time>2026-04-11T21:11:30Z</time></trkpt><trkpt lat="43.1324435822856" lon="11.537748421723661"><ele>293.0</ele><time>2026-04-11T21:11:32Z</time></trkpt><trkpt lat="43.13248150912654" lon="11.537620972483396"><ele>293.0</ele><time>2026-04-11T21:11:34Z</time></trkpt><trkpt lat="43.13252123918968" lon="11.537498813054205"><ele>291.0</ele><time>2026-04-11T21:11:36Z</time></trkpt><trkpt lat="43.13259350903644" lon="11.537408119769177"><ele>289.0</ele><time>2026-04-11T21:11:38Z</time></trkpt><trkpt lat="43.132636628440316" lon="11.537305080327213"><ele>287.0</ele><time>2026-04-11T21:11:40Z</time></trkpt><trkpt lat="43.13268431224085" lon="11.537200019235582"><ele>285.0</ele><time>2026-04-11T21:11:42Z</time></trkpt><trkpt lat="43.132737481799076" lon="11.537094601947135"><ele>283.0</ele><time>2026-04-11T21:11:44Z</time></trkpt><trkpt lat="43.13280095913828" lon="11.536987518709337"><ele>281.4</ele><time>2026-04-11T21:11:46Z</time></trkpt><trkpt lat="43.1328700512098" lon="11.536887247699516"><ele>279.8</ele><time>2026-04-11T21:11:48Z</time></trkpt><trkpt lat="43.1329471890081" lon="11.536782516563939"><ele>278.2</ele><time>2026-04-11T21:11:50Z</time></trkpt><trkpt lat="43.13302375798078" lon="11.536679882495697"><ele>276.6</ele><time>2026-04-11T21:11:52Z</time></trkpt><trkpt lat="43.13310599781807" lon="11.536572282561378"><ele>275.0</ele><time>2026-04-11T21:11:54Z</time></trkpt><trkpt lat="43.13318741337132" lon="11.53646404603018"><ele>275.2</ele><time>2026-04-11T21:11:56Z</time></trkpt><trkpt lat="43.133260501152854" lon="11.536361203575558"><ele>275.4</ele><time>2026-04-11T21:11:58Z</time></trkpt><trkpt lat="43.133330997910555" lon="11.536255140775205"><ele>275.6</ele><time>2026-04-11T21:12:00Z</time></trkpt><trkpt lat="43.13340166133813" lon="11.536142506349323"><ele>275.8</ele><time>2026-04-11T21:12:02Z</time></trkpt><trkpt lat="43.13345743248534" lon="11.536005049806654"><ele>276.0</ele><time>2026-04-11T21:12:04Z</time></trkpt><trkpt lat="43.133518887627595" lon="11.535884068665714"><ele>275.25</ele><time>2026-04-11T21:12:06Z</time></trkpt><trkpt lat="43.13359743949218" lon="11.535763304695656"><ele>274.5</ele><time>2026-04-11T21:12:08Z</time></trkpt><trkpt lat="43.13366189316417" lon="11.535622955787755"><ele>273.75</ele><time>2026-04-11T21:12:10Z</time></trkpt><trkpt lat="43.13372446770209" lon="11.535481902874967"><ele>273.0</ele><time>2026-04-11T21:12:12Z</time></trkpt><trkpt lat="43.13378476944499" lon="11.535340988678412"><ele>271.2</ele><time>2026-04-11T21:12:14Z</time></trkpt><trkpt lat="43.133844254520504" lon="11.535201983260695"><ele>269.4</ele><time>2026-04-11T21:12:16Z</time></trkpt><trkpt lat="43.13389095729473" lon="11.535055830192613"><ele>267.59999999999997</ele><time>2026-04-11T21:12:18Z</time></trkpt><trkpt lat="43.133943111840985" lon="11.534931909881513"><ele>265.8</ele><time>2026-04-11T21:12:20Z</time></trkpt><trkpt lat="43.133998890790195" lon="11.534813897760253"><ele>264.0</ele><time>2026-04-11T21:12:22Z</time></trkpt><trkpt lat="43.134048503656885" lon="11.53469714745288"><ele>264.8</ele><time>2026-04-11T21:12:24Z</time></trkpt><trkpt lat="43.13409872862369" lon="11.534582486636602"><ele>265.59999999999997</ele><time>2026-04-11T21:12:26Z</time></trkpt><trkpt lat="43.13415874074983" lon="11.534471653133203"><ele>266.4</ele><time>2026-04-11T21:12:28Z</time></trkpt><trkpt lat="43.1342016134754" lon="11.534344425783452"><ele>267.2</ele><time>2026-04-11T21:12:30Z</time></trkpt><trkpt lat="43.13424973084388" lon="11.53422608002744"><ele>268.0</ele><time>2026-04-11T21:12:32Z</time></trkpt><trkpt lat="43.134297642729315" lon="11.534111776743291"><ele>268.0</ele><time>2026-04-11T21:12:34Z</time></trkpt><trkpt lat="43.134343103827966" lon="11.53399589757944"><ele>268.0</ele><time>2026-04-11T21:12:36Z</time></trkpt><trkpt lat="43.13438737527215" lon="11.533881764313177"><ele>268.0</ele><time>2026-04-11T21:12:38Z</time></trkpt><trkpt lat="43.13444593004058" lon="11.533774024582517"><ele>268.0</ele><time>2026-04-11T21:12:40Z</time></trkpt><trkpt lat="43.134485684618475" lon="11.533658375071276"><ele>268.0</ele><time>2026-04-11T21:12:42Z</time></trkpt><trkpt lat="43.1345227986803" lon="11.533547446528877"><ele>267.3333333333333</ele><time>2026-04-11T21:12:44Z</time></trkpt><trkpt lat="43.134555111336745" lon="11.533444256020264"><ele>266.66666666666663</ele><time>2026-04-11T21:12:46Z</time></trkpt><trkpt lat="43.13458497984878" lon="11.53334308057137"><ele>266.0</ele><time>2026-04-11T21:12:48Z</time></trkpt><trkpt lat="43.13461405063691" lon="11.533241580547196"><ele>265.3333333333333</ele><time>2026-04-11T21:12:50Z</time></trkpt><trkpt lat="43.134641629516146" lon="11.533141775743678"><ele>264.6666666666667</ele><time>2026-04-11T21:12:52Z</time></trkpt><trkpt lat="43.134641758118555" lon="11.533035271643856"><ele>264.0</ele><time>2026-04-11T21:12:54Z</time></trkpt><trkpt lat="43.1346782546108" lon="11.532938278166041"><ele>263.8333333333333</ele><time>2026-04-11T21:12:56Z</time></trkpt><trkpt lat="43.13470534718439" lon="11.532835575313271"><ele>263.6666666666667</ele><time>2026-04-11T21:12:58Z</time></trkpt><trkpt lat="43.134730818847196" lon="11.532734915300951"><ele>263.5</ele><time>2026-04-11T21:13:00Z</time></trkpt><trkpt lat="43.134748441407545" lon="11.532629362751814"><ele>263.33333333333337</ele><time>2026-04-11T21:13:02Z</time></trkpt><trkpt lat="43.13476655341271" lon="11.53251946793743"><ele>263.1666666666667</ele><time>2026-04-11T21:13:05Z</time></trkpt><trkpt lat="43.13478819148822" lon="11.532412504764357"><ele>263.0</ele><time>2026-04-11T21:13:07Z</time></trkpt><trkpt lat="43.13481816552885" lon="11.53228737644845"><ele>263.0</ele><time>2026-04-11T21:13:09Z</time></trkpt><trkpt lat="43.134840923641065" lon="11.53217356448367"><ele>263.0</ele><time>2026-04-11T21:13:11Z</time></trkpt><trkpt lat="43.1348595997169" lon="11.532048407559538"><ele>263.0</ele><time>2026-04-11T21:13:13Z</time></trkpt><trkpt lat="43.134882102789135" lon="11.53194023540154"><ele>263.0</ele><time>2026-04-11T21:13:15Z</time></trkpt><trkpt lat="43.13489985632052" lon="11.531834027898658"><ele>263.0</ele><time>2026-04-11T21:13:17Z</time></trkpt><trkpt lat="43.1349206312253" lon="11.531727049858167"><ele>263.0</ele><time>2026-04-11T21:13:19Z</time></trkpt><trkpt lat="43.13493861991562" lon="11.531615640308448"><ele>264.33333333333337</ele><time>2026-04-11T21:13:21Z</time></trkpt><trkpt lat="43.134960151074594" lon="11.53150431944009"><ele>265.6666666666667</ele><time>2026-04-11T21:13:23Z</time></trkpt><trkpt lat="43.13498423798199" lon="11.531393980072087"><ele>267.0</ele><time>2026-04-11T21:13:25Z</time></trkpt><trkpt lat="43.134999958423585" lon="11.531291325723934"><ele>268.3333333333333</ele><time>2026-04-11T21:13:27Z</time></trkpt><trkpt lat="43.13501318856377" lon="11.531196992851745"><ele>269.66666666666663</ele><time>2026-04-11T21:13:30Z</time></trkpt><trkpt lat="43.13502127852248" lon="11.531077720821873"><ele>271.0</ele><time>2026-04-11T21:13:52Z</time></trkpt><trkpt lat="43.135028554093104" lon="11.530952117373076"><ele>271.57142857142856</ele><time>2026-04-11T21:13:55Z</time></trkpt><trkpt lat="43.135029085997004" lon="11.530864220131635"><ele>272.14285714285717</ele><time>2026-04-11T21:13:57Z</time></trkpt><trkpt lat="43.13503854817357" lon="11.53077815843548"><ele>272.7142857142857</ele><time>2026-04-11T21:13:59Z</time></trkpt><trkpt lat="43.1350376002464" lon="11.53068897678697"><ele>273.2857142857143</ele><time>2026-04-11T21:14:01Z</time></trkpt><trkpt lat="43.13503052760726" lon="11.530602668143489"><ele>273.85714285714283</ele><time>2026-04-11T21:14:03Z</time></trkpt><trkpt lat="43.13501391026957" lon="11.530519070116673"><ele>274.42857142857144</ele><time>2026-04-11T21:14:05Z</time></trkpt><trkpt lat="43.13499076877209" lon="11.530416226363695"><ele>275.0</ele><time>2026-04-11T21:14:07Z</time></trkpt><trkpt lat="43.13495798459566" lon="11.530303327398354"><ele>275.0</ele><time>2026-04-11T21:14:09Z</time></trkpt><trkpt lat="43.134905983290714" lon="11.530176747271984"><ele>275.0</ele><time>2026-04-11T21:14:11Z</time></trkpt><trkpt lat="43.13485217362596" lon="11.530027235762736"><ele>275.0</ele><time>2026-04-11T21:14:13Z</time></trkpt><trkpt lat="43.13480177721687" lon="11.529870404969898"><ele>275.0</ele><time>2026-04-11T21:14:15Z</time></trkpt><trkpt lat="43.1347487114582" lon="11.529715703684943"><ele>273.14285714285717</ele><time>2026-04-11T21:14:17Z</time></trkpt><trkpt lat="43.13471936081169" lon="11.529636671687154"><ele>271.2857142857143</ele><time>2026-04-11T21:14:18Z</time></trkpt><trkpt lat="43.13469007411244" lon="11.529553277047594"><ele>269.42857142857144</ele><time>2026-04-11T21:14:19Z</time></trkpt><trkpt lat="43.134661159938695" lon="11.529468083489947"><ele>267.57142857142856</ele><time>2026-04-11T21:14:20Z</time></trkpt><trkpt lat="43.134630716537735" lon="11.529391568157335"><ele>265.7142857142857</ele><time>2026-04-11T21:14:21Z</time></trkpt><trkpt lat="43.13460045371864" lon="11.529313436525602"><ele>263.8571428571429</ele><time>2026-04-11T21:14:22Z</time></trkpt><trkpt lat="43.13456972632237" lon="11.529236258716171"><ele>262.0</ele><time>2026-04-11T21:14:23Z</time></trkpt><trkpt lat="43.13454356772312" lon="11.529155412644236"><ele>262.0</ele><time>2026-04-11T21:14:24Z</time></trkpt><trkpt lat="43.1344930686017" lon="11.529002854008855"><ele>262.0</ele><time>2026-04-11T21:14:26Z</time></trkpt><trkpt lat="43.1344457631681" lon="11.528870132097671"><ele>262.0</ele><time>2026-04-11T21:14:28Z</time></trkpt><trkpt lat="43.13441869112898" lon="11.528724440187682"><ele>262.0</ele><time>2026-04-11T21:14:30Z</time></trkpt><trkpt lat="43.134396926080996" lon="11.528640548969275"><ele>262.0</ele><time>2026-04-11T21:14:31Z</time></trkpt><trkpt lat="43.13438034115074" lon="11.528548638763569"><ele>262.16666666666663</ele><time>2026-04-11T21:14:32Z</time></trkpt><trkpt lat="43.134368753217124" lon="11.528456120819724"><ele>262.3333333333333</ele><time>2026-04-11T21:14:33Z</time></trkpt><trkpt lat="43.1343628022445" lon="11.528365623711533"><ele>262.5</ele><time>2026-04-11T21:14:34Z</time></trkpt><trkpt lat="43.13436393771208" lon="11.528241694006297"><ele>262.6666666666667</ele><time>2026-04-11T21:14:36Z</time></trkpt><trkpt lat="43.13435302311036" lon="11.528129933940221"><ele>262.83333333333337</ele><time>2026-04-11T21:14:38Z</time></trkpt><trkpt lat="43.13436945848563" lon="11.527981242091645"><ele>263.0</ele><time>2026-04-11T21:14:40Z</time></trkpt><trkpt lat="43.134383786698734" lon="11.52781563985656"><ele>262.4</ele><time>2026-04-11T21:14:42Z</time></trkpt><trkpt lat="43.13440842131135" lon="11.52766879400899"><ele>261.8</ele><time>2026-04-11T21:14:44Z</time></trkpt><trkpt lat="43.1344228108805" lon="11.527509854569137"><ele>261.2</ele><time>2026-04-11T21:14:46Z</time></trkpt><trkpt lat="43.13443863348514" lon="11.527334618044309"><ele>260.6</ele><time>2026-04-11T21:14:48Z</time></trkpt><trkpt lat="43.13444636704857" lon="11.527242871539173"><ele>260.0</ele><time>2026-04-11T21:14:49Z</time></trkpt><trkpt lat="43.134440884470465" lon="11.527148575057746"><ele>258.8</ele><time>2026-04-11T21:14:50Z</time></trkpt><trkpt lat="43.13445821976933" lon="11.52705427324882"><ele>257.6</ele><time>2026-04-11T21:14:51Z</time></trkpt><trkpt lat="43.134466632553824" lon="11.526954313961891"><ele>256.4</ele><time>2026-04-11T21:14:52Z</time></trkpt><trkpt lat="43.134472966169334" lon="11.526857353442459"><ele>255.2</ele><time>2026-04-11T21:14:53Z</time></trkpt><trkpt lat="43.13448763781852" lon="11.526704205158223"><ele>254.0</ele><time>2026-04-11T21:14:55Z</time></trkpt><trkpt lat="43.13450003366579" lon="11.526536681309294"><ele>254.0</ele><time>2026-04-11T21:14:57Z</time></trkpt><trkpt lat="43.1345080323197" lon="11.526450537884973"><ele>254.0</ele><time>2026-04-11T21:14:58Z</time></trkpt><trkpt lat="43.13451251932102" lon="11.526360916624277"><ele>254.0</ele><time>2026-04-11T21:14:59Z</time></trkpt><trkpt lat="43.13451881453407" lon="11.526270437376377"><ele>254.0</ele><time>2026-04-11T21:15:00Z</time></trkpt><trkpt lat="43.13452914880847" lon="11.526179140885171"><ele>254.0</ele><time>2026-04-11T21:15:01Z</time></trkpt><trkpt lat="43.13453856996486" lon="11.526083580604443"><ele>254.0</ele><time>2026-04-11T21:15:02Z</time></trkpt><trkpt lat="43.13455347911099" lon="11.525989413214223"><ele>254.0</ele><time>2026-04-11T21:15:03Z</time></trkpt><trkpt lat="43.1345768557619" lon="11.525899396558728"><ele>253.0</ele><time>2026-04-11T21:15:04Z</time></trkpt><trkpt lat="43.134621825449884" lon="11.525750701700838"><ele>252.0</ele><time>2026-04-11T21:15:06Z</time></trkpt><trkpt lat="43.134679763578674" lon="11.525616451240566"><ele>251.0</ele><time>2026-04-11T21:15:08Z</time></trkpt><trkpt lat="43.13474525888924" lon="11.52547837032058"><ele>250.0</ele><time>2026-04-11T21:15:10Z</time></trkpt><trkpt lat="43.1347981300888" lon="11.525334755452887"><ele>249.8</ele><time>2026-04-11T21:15:12Z</time></trkpt><trkpt lat="43.134845464472264" lon="11.525189874970643"><ele>249.6</ele><time>2026-04-11T21:15:14Z</time></trkpt><trkpt lat="43.134886764121795" lon="11.525045495067255"><ele>249.39999999999998</ele><time>2026-04-11T21:15:16Z</time></trkpt><trkpt lat="43.134935101364846" lon="11.52491244681124"><ele>249.2</ele><time>2026-04-11T21:15:18Z</time></trkpt><trkpt lat="43.13498043784949" lon="11.52477410893072"><ele>249.0</ele><time>2026-04-11T21:15:20Z</time></trkpt><trkpt lat="43.13501239679301" lon="11.524625870918383"><ele>249.6</ele><time>2026-04-11T21:15:22Z</time></trkpt><trkpt lat="43.13504225587425" lon="11.52447571135323"><ele>250.2</ele><time>2026-04-11T21:15:24Z</time></trkpt><trkpt lat="43.135057202320986" lon="11.524326705942189"><ele>250.79999999999998</ele><time>2026-04-11T21:15:26Z</time></trkpt><trkpt lat="43.13505550362158" lon="11.524179185686833"><ele>251.39999999999998</ele><time>2026-04-11T21:15:28Z</time></trkpt><trkpt lat="43.135056662384905" lon="11.524091833570948"><ele>252.0</ele><time>2026-04-11T21:15:29Z</time></trkpt><trkpt lat="43.13505595980644" lon="11.52400298590148"><ele>252.0</ele><time>2026-04-11T21:15:30Z</time></trkpt><trkpt lat="43.13504064802702" lon="11.523837693122807"><ele>252.0</ele><time>2026-04-11T21:15:32Z</time></trkpt><trkpt lat="43.13503479254818" lon="11.523680174955043"><ele>252.0</ele><time>2026-04-11T21:15:34Z</time></trkpt><trkpt lat="43.1350220560297" lon="11.523541342861625"><ele>252.0</ele><time>2026-04-11T21:15:36Z</time></trkpt><trkpt lat="43.13501430619836" lon="11.523378717401592"><ele>251.0</ele><time>2026-04-11T21:15:38Z</time></trkpt><trkpt lat="43.13500072710116" lon="11.523224217155294"><ele>250.0</ele><time>2026-04-11T21:15:40Z</time></trkpt><trkpt lat="43.13499102066717" lon="11.523040408561302"><ele>249.0</ele><time>2026-04-11T21:15:42Z</time></trkpt><trkpt lat="43.1349821977392" lon="11.522951287695586"><ele>248.0</ele><time>2026-04-11T21:15:43Z</time></trkpt><trkpt lat="43.13499250126091" lon="11.522854999732742"><ele>247.0</ele><time>2026-04-11T21:15:44Z</time></trkpt><trkpt lat="43.134972417693135" lon="11.522758160379212"><ele>246.14285714285717</ele><time>2026-04-11T21:15:45Z</time></trkpt><trkpt lat="43.13498309113143" lon="11.522658411215948"><ele>245.28571428571428</ele><time>2026-04-11T21:15:46Z</time></trkpt><trkpt lat="43.134978914065094" lon="11.522561999971726"><ele>244.42857142857144</ele><time>2026-04-11T21:15:47Z</time></trkpt><trkpt lat="43.134975911834914" lon="11.522460904471611"><ele>243.57142857142858</ele><time>2026-04-11T21:15:48Z</time></trkpt><trkpt lat="43.134959320458044" lon="11.522364207388799"><ele>242.71428571428572</ele><time>2026-04-11T21:15:49Z</time></trkpt><trkpt lat="43.13495898363549" lon="11.52227329428156"><ele>241.85714285714286</ele><time>2026-04-11T21:15:50Z</time></trkpt><trkpt lat="43.13496193605397" lon="11.522180354290965"><ele>241.0</ele><time>2026-04-11T21:15:51Z</time></trkpt><trkpt lat="43.134968051302245" lon="11.522092521794727"><ele>240.20000000000002</ele><time>2026-04-11T21:15:52Z</time></trkpt><trkpt lat="43.13497504196323" lon="11.522006658056112"><ele>239.40000000000003</ele><time>2026-04-11T21:15:53Z</time></trkpt><trkpt lat="43.1349753552415" lon="11.521842842437017"><ele>238.6</ele><time>2026-04-11T21:15:55Z</time></trkpt><trkpt lat="43.13498255527229" lon="11.52167786106221"><ele>237.8</ele><time>2026-04-11T21:15:57Z</time></trkpt><trkpt lat="43.134986256754296" lon="11.521520220948362"><ele>237.0</ele><time>2026-04-11T21:15:59Z</time></trkpt><trkpt lat="43.134987177842305" lon="11.52136327872665"><ele>236.8</ele><time>2026-04-11T21:16:01Z</time></trkpt><trkpt lat="43.134986232578136" lon="11.52120789002413"><ele>236.6</ele><time>2026-04-11T21:16:03Z</time></trkpt><trkpt lat="43.13500444217061" lon="11.521053619960009"><ele>236.40000000000003</ele><time>2026-04-11T21:16:05Z</time></trkpt><trkpt lat="43.13500474305229" lon="11.520905375966224"><ele>236.20000000000002</ele><time>2026-04-11T21:16:07Z</time></trkpt><trkpt lat="43.13500234265649" lon="11.520787656108208"><ele>236.0</ele><time>2026-04-11T21:16:09Z</time></trkpt><trkpt lat="43.13499503739094" lon="11.520669992924137"><ele>236.00000000000003</ele><time>2026-04-11T21:16:11Z</time></trkpt><trkpt lat="43.13498360110136" lon="11.520557418356432"><ele>236.0</ele><time>2026-04-11T21:16:13Z</time></trkpt><trkpt lat="43.13496680976623" lon="11.520439347498348"><ele>236.0</ele><time>2026-04-11T21:16:15Z</time></trkpt><trkpt lat="43.134948093181" lon="11.520329212387296"><ele>236.0</ele><time>2026-04-11T21:16:17Z</time></trkpt><trkpt lat="43.13492598766614" lon="11.520213380464552"><ele>236.00000000000003</ele><time>2026-04-11T21:16:19Z</time></trkpt><trkpt lat="43.13489908276971" lon="11.520087366474847"><ele>236.0</ele><time>2026-04-11T21:16:21Z</time></trkpt><trkpt lat="43.134870617480104" lon="11.519963972756592"><ele>235.00000000000003</ele><time>2026-04-11T21:16:23Z</time></trkpt><trkpt lat="43.13484003277577" lon="11.519836303142293"><ele>234.0</ele><time>2026-04-11T21:16:25Z</time></trkpt><trkpt lat="43.13479995795367" lon="11.519719139305964"><ele>233.0</ele><time>2026-04-11T21:16:27Z</time></trkpt><trkpt lat="43.13477090066064" lon="11.519614693708109"><ele>232.0</ele><time>2026-04-11T21:16:29Z</time></trkpt><trkpt lat="43.1347518406381" lon="11.519523521383224"><ele>231.00000000000003</ele><time>2026-04-11T21:16:31Z</time></trkpt><trkpt lat="43.13472700816054" lon="11.519423591233446"><ele>230.0</ele><time>2026-04-11T21:16:34Z</time></trkpt><trkpt lat="43.134708078773585" lon="11.51932188567945"><ele>230.00000000000003</ele><time>2026-04-11T21:16:40Z</time></trkpt><trkpt lat="43.13468942431468" lon="11.519189486511536"><ele>230.0</ele><time>2026-04-11T21:16:43Z</time></trkpt><trkpt lat="43.13466527942963" lon="11.519083194787065"><ele>230.0</ele><time>2026-04-11T21:16:45Z</time></trkpt><trkpt lat="43.13465005079375" lon="11.518969483516909"><ele>230.0</ele><time>2026-04-11T21:16:47Z</time></trkpt><trkpt lat="43.134645087203474" lon="11.518865365062295"><ele>230.00000000000003</ele><time>2026-04-11T21:16:49Z</time></trkpt><trkpt lat="43.13463483273038" lon="11.518763589059585"><ele>230.0</ele><time>2026-04-11T21:16:51Z</time></trkpt><trkpt lat="43.13464854886817" lon="11.51866044403677"><ele>232.16666666666669</ele><time>2026-04-11T21:16:53Z</time></trkpt><trkpt lat="43.13464538752712" lon="11.518547926084716"><ele>234.33333333333334</ele><time>2026-04-11T21:16:55Z</time></trkpt><trkpt lat="43.134643851723524" lon="11.518435561895162"><ele>236.5</ele><time>2026-04-11T21:16:57Z</time></trkpt><trkpt lat="43.13463052367879" lon="11.518319236554808"><ele>238.66666666666669</ele><time>2026-04-11T21:16:59Z</time></trkpt><trkpt lat="43.13463447465015" lon="11.518192219287934"><ele>240.83333333333334</ele><time>2026-04-11T21:17:01Z</time></trkpt><trkpt lat="43.13465807611106" lon="11.518073832556203"><ele>243.0</ele><time>2026-04-11T21:17:03Z</time></trkpt><trkpt lat="43.13468274462819" lon="11.517946207200918"><ele>243.83333333333334</ele><time>2026-04-11T21:17:05Z</time></trkpt><trkpt lat="43.134726153136825" lon="11.517829129630435"><ele>244.66666666666669</ele><time>2026-04-11T21:17:07Z</time></trkpt><trkpt lat="43.13477778912724" lon="11.517725282185298"><ele>245.5</ele><time>2026-04-11T21:17:09Z</time></trkpt><trkpt lat="43.134832149532066" lon="11.517635115229426"><ele>246.33333333333334</ele><time>2026-04-11T21:17:11Z</time></trkpt><trkpt lat="43.13488916600616" lon="11.517545149129512"><ele>247.16666666666669</ele><time>2026-04-11T21:17:13Z</time></trkpt><trkpt lat="43.13494154822074" lon="11.517462495573868"><ele>248.0</ele><time>2026-04-11T21:17:15Z</time></trkpt><trkpt lat="43.13499841819074" lon="11.517371551670516"><ele>246.4</ele><time>2026-04-11T21:17:17Z</time></trkpt><trkpt lat="43.13505468388066" lon="11.517279778696995"><ele>244.8</ele><time>2026-04-11T21:17:19Z</time></trkpt><trkpt lat="43.13511331527187" lon="11.517184146880185"><ele>243.2</ele><time>2026-04-11T21:17:21Z</time></trkpt><trkpt lat="43.13517393624472" lon="11.517085270452002"><ele>241.6</ele><time>2026-04-11T21:17:23Z</time></trkpt><trkpt lat="43.13523869496816" lon="11.516978744705831"><ele>240.0</ele><time>2026-04-11T21:17:25Z</time></trkpt><trkpt lat="43.13531896964041" lon="11.516846261542902"><ele>240.0</ele><time>2026-04-11T21:17:27Z</time></trkpt><trkpt lat="43.13536284482218" lon="11.516773851375678"><ele>240.0</ele><time>2026-04-11T21:17:28Z</time></trkpt><trkpt lat="43.135408853497225" lon="11.516697920046735"><ele>240.0</ele><time>2026-04-11T21:17:29Z</time></trkpt><trkpt lat="43.135454630983205" lon="11.516622370136458"><ele>240.0</ele><time>2026-04-11T21:17:30Z</time></trkpt><trkpt lat="43.13549991072119" lon="11.516547074899744"><ele>240.0</ele><time>2026-04-11T21:17:31Z</time></trkpt><trkpt lat="43.13554337621234" lon="11.516473119955558"><ele>240.0</ele><time>2026-04-11T21:17:32Z</time></trkpt><trkpt lat="43.13558777136685" lon="11.516392924674644"><ele>240.0</ele><time>2026-04-11T21:17:33Z</time></trkpt><trkpt lat="43.135631879709855" lon="11.516313753506408"><ele>239.66666666666666</ele><time>2026-04-11T21:17:34Z</time></trkpt><trkpt lat="43.135662637278436" lon="11.516224069467876"><ele>239.33333333333331</ele><time>2026-04-11T21:17:35Z</time></trkpt><trkpt lat="43.13571343488685" lon="11.51614770937915"><ele>239.0</ele><time>2026-04-11T21:17:36Z</time></trkpt><trkpt lat="43.13577106679918" lon="11.516076057551322"><ele>238.66666666666666</ele><time>2026-04-11T21:17:37Z</time></trkpt><trkpt lat="43.135831978161846" lon="11.516007950473089"><ele>238.33333333333331</ele><time>2026-04-11T21:17:38Z</time></trkpt><trkpt lat="43.13589239296899" lon="11.515947928002548"><ele>238.0</ele><time>2026-04-11T21:17:39Z</time></trkpt><trkpt lat="43.13595290950146" lon="11.51589283038001"><ele>236.49999999999997</ele><time>2026-04-11T21:17:40Z</time></trkpt><trkpt lat="43.136016750032276" lon="11.51583886519256"><ele>235.0</ele><time>2026-04-11T21:17:41Z</time></trkpt><trkpt lat="43.136079244202286" lon="11.515782508283714"><ele>233.5</ele><time>2026-04-11T21:17:42Z</time></trkpt><trkpt lat="43.13613771107414" lon="11.515714652507386"><ele>232.0</ele><time>2026-04-11T21:17:43Z</time></trkpt><trkpt lat="43.13618736555124" lon="11.515638906537907"><ele>230.49999999999997</ele><time>2026-04-11T21:17:44Z</time></trkpt><trkpt lat="43.136233117859284" lon="11.51555667661582"><ele>229.0</ele><time>2026-04-11T21:17:45Z</time></trkpt><trkpt lat="43.13626944315832" lon="11.515465793464015"><ele>228.57142857142856</ele><time>2026-04-11T21:17:46Z</time></trkpt><trkpt lat="43.13628957667132" lon="11.515370045653759"><ele>228.14285714285717</ele><time>2026-04-11T21:17:47Z</time></trkpt><trkpt lat="43.13630208866174" lon="11.51527417314615"><ele>227.71428571428572</ele><time>2026-04-11T21:17:48Z</time></trkpt><trkpt lat="43.136310926364075" lon="11.515181069802532"><ele>227.28571428571428</ele><time>2026-04-11T21:17:49Z</time></trkpt><trkpt lat="43.13631451495377" lon="11.515088607938786"><ele>226.85714285714283</ele><time>2026-04-11T21:17:50Z</time></trkpt><trkpt lat="43.13631679528962" lon="11.51499289482165"><ele>226.42857142857144</ele><time>2026-04-11T21:17:51Z</time></trkpt><trkpt lat="43.1363154481516" lon="11.51490003710572"><ele>226.0</ele><time>2026-04-11T21:17:52Z</time></trkpt><trkpt lat="43.13631107800514" lon="11.514803246757346"><ele>226.0</ele><time>2026-04-11T21:17:53Z</time></trkpt><trkpt lat="43.13630050688047" lon="11.514706565252421"><ele>226.0</ele><time>2026-04-11T21:17:54Z</time></trkpt><trkpt lat="43.136281618204" lon="11.514620036814748"><ele>226.0</ele><time>2026-04-11T21:17:55Z</time></trkpt><trkpt lat="43.13626302747609" lon="11.514534670178529"><ele>226.0</ele><time>2026-04-11T21:17:56Z</time></trkpt><trkpt lat="43.13623635471652" lon="11.514445111772954"><ele>226.0</ele><time>2026-04-11T21:17:57Z</time></trkpt><trkpt lat="43.136196321425146" lon="11.514372519548472"><ele>226.0</ele><time>2026-04-11T21:17:58Z</time></trkpt><trkpt lat="43.13617355210374" lon="11.51427862565101"><ele>226.0</ele><time>2026-04-11T21:17:59Z</time></trkpt><trkpt lat="43.13612068916773" lon="11.514216942797884"><ele>226.60000000000002</ele><time>2026-04-11T21:18:00Z</time></trkpt><trkpt lat="43.13608306613528" lon="11.514147667693175"><ele>227.20000000000002</ele><time>2026-04-11T21:18:01Z</time></trkpt><trkpt lat="43.13602189776715" lon="11.514001593141332"><ele>227.79999999999998</ele><time>2026-04-11T21:18:03Z</time></trkpt><trkpt lat="43.1359521686784" lon="11.513875277601429"><ele>228.39999999999998</ele><time>2026-04-11T21:18:05Z</time></trkpt><trkpt lat="43.135889858008326" lon="11.513755225329863"><ele>229.0</ele><time>2026-04-11T21:18:07Z</time></trkpt><trkpt lat="43.13583077016359" lon="11.513638137040964"><ele>227.6</ele><time>2026-04-11T21:18:09Z</time></trkpt><trkpt lat="43.135775297601214" lon="11.513520602818822"><ele>226.2</ele><time>2026-04-11T21:18:11Z</time></trkpt><trkpt lat="43.13572215963235" lon="11.51339983852327"><ele>224.79999999999998</ele><time>2026-04-11T21:18:13Z</time></trkpt><trkpt lat="43.13566707966918" lon="11.51325844067179"><ele>223.39999999999998</ele><time>2026-04-11T21:18:15Z</time></trkpt><trkpt lat="43.13563934615093" lon="11.5131803221956"><ele>222.0</ele><time>2026-04-11T21:18:16Z</time></trkpt><trkpt lat="43.13561171090589" lon="11.513100305755147"><ele>222.0</ele><time>2026-04-11T21:18:17Z</time></trkpt><trkpt lat="43.13558436145122" lon="11.513017493413974"><ele>222.0</ele><time>2026-04-11T21:18:18Z</time></trkpt><trkpt lat="43.135557641131506" lon="11.51293626191805"><ele>222.0</ele><time>2026-04-11T21:18:19Z</time></trkpt><trkpt lat="43.13553391547782" lon="11.51285372139546"><ele>222.0</ele><time>2026-04-11T21:18:20Z</time></trkpt><trkpt lat="43.13550966807737" lon="11.51276687707462"><ele>222.0</ele><time>2026-04-11T21:18:21Z</time></trkpt><trkpt lat="43.13548608490902" lon="11.51268364268182"><ele>222.0</ele><time>2026-04-11T21:18:22Z</time></trkpt><trkpt lat="43.13545816484215" lon="11.512593280989483"><ele>222.0</ele><time>2026-04-11T21:18:23Z</time></trkpt><trkpt lat="43.13541953193112" lon="11.51251683630143"><ele>222.83333333333334</ele><time>2026-04-11T21:18:24Z</time></trkpt><trkpt lat="43.13538852299511" lon="11.512435306142695"><ele>223.66666666666669</ele><time>2026-04-11T21:18:25Z</time></trkpt><trkpt lat="43.13535662721919" lon="11.512354859106871"><ele>224.5</ele><time>2026-04-11T21:18:26Z</time></trkpt><trkpt lat="43.135326554793856" lon="11.51227513318891"><ele>225.33333333333334</ele><time>2026-04-11T21:18:27Z</time></trkpt><trkpt lat="43.135251894357175" lon="11.512150540563816"><ele>226.16666666666669</ele><time>2026-04-11T21:18:29Z</time></trkpt><trkpt lat="43.13519438829948" lon="11.51201445777399"><ele>227.0</ele><time>2026-04-11T21:18:31Z</time></trkpt><trkpt lat="43.13513031799063" lon="11.511901326531877"><ele>227.8</ele><time>2026-04-11T21:18:33Z</time></trkpt><trkpt lat="43.13505608399759" lon="11.51180383583277"><ele>228.6</ele><time>2026-04-11T21:18:35Z</time></trkpt><trkpt lat="43.13499477516602" lon="11.511707416979275"><ele>229.40000000000003</ele><time>2026-04-11T21:18:37Z</time></trkpt><trkpt lat="43.13493998394803" lon="11.511609119052972"><ele>230.20000000000002</ele><time>2026-04-11T21:18:39Z</time></trkpt><trkpt lat="43.134883871844934" lon="11.511506446452552"><ele>231.0</ele><time>2026-04-11T21:18:41Z</time></trkpt><trkpt lat="43.134833342047095" lon="11.511404980274301"><ele>231.0</ele><time>2026-04-11T21:18:43Z</time></trkpt><trkpt lat="43.134784472594596" lon="11.511307814225114"><ele>231.0</ele><time>2026-04-11T21:18:45Z</time></trkpt><trkpt lat="43.13474337181785" lon="11.511212212703242"><ele>231.0</ele><time>2026-04-11T21:18:47Z</time></trkpt><trkpt lat="43.1347035644871" lon="11.511118504876531"><ele>231.0</ele><time>2026-04-11T21:18:49Z</time></trkpt><trkpt lat="43.134672672168605" lon="11.511020471947765"><ele>231.0</ele><time>2026-04-11T21:18:51Z</time></trkpt><trkpt lat="43.134634145792496" lon="11.510925785130453"><ele>231.0</ele><time>2026-04-11T21:18:53Z</time></trkpt><trkpt lat="43.13457875492798" lon="11.510826897184876"><ele>231.5</ele><time>2026-04-11T21:18:55Z</time></trkpt><trkpt lat="43.1345240162744" lon="11.51070617105157"><ele>232.0</ele><time>2026-04-11T21:18:57Z</time></trkpt><trkpt lat="43.13444663197533" lon="11.510549600237347"><ele>232.5</ele><time>2026-04-11T21:18:59Z</time></trkpt><trkpt lat="43.13439461179112" lon="11.510431210580887"><ele>233.0</ele><time>2026-04-11T21:19:01Z</time></trkpt><trkpt lat="43.13433373774568" lon="11.510300242844524"><ele>233.0</ele><time>2026-04-11T21:19:03Z</time></trkpt><trkpt lat="43.13427613767068" lon="11.510168757933624"><ele>233.0</ele><time>2026-04-11T21:19:05Z</time></trkpt><trkpt lat="43.13425614883407" lon="11.510085139409616"><ele>233.0</ele><time>2026-04-11T21:19:06Z</time></trkpt><trkpt lat="43.134182088874695" lon="11.509959604795352"><ele>233.0</ele><time>2026-04-11T21:19:08Z</time></trkpt><trkpt lat="43.13411928909649" lon="11.509825621359957"><ele>233.0</ele><time>2026-04-11T21:19:10Z</time></trkpt><trkpt lat="43.13406876122566" lon="11.50967609114705"><ele>231.83333333333334</ele><time>2026-04-11T21:19:12Z</time></trkpt><trkpt lat="43.13399011434538" lon="11.50954746804911"><ele>230.66666666666669</ele><time>2026-04-11T21:19:14Z</time></trkpt><trkpt lat="43.13395603619471" lon="11.509467810505983"><ele>229.5</ele><time>2026-04-11T21:19:15Z</time></trkpt><trkpt lat="43.133915670638196" lon="11.509383196754904"><ele>228.33333333333331</ele><time>2026-04-11T21:19:16Z</time></trkpt><trkpt lat="43.13387642855428" lon="11.509291736063506"><ele>227.16666666666666</ele><time>2026-04-11T21:19:17Z</time></trkpt><trkpt lat="43.13384533518403" lon="11.509192568003074"><ele>226.0</ele><time>2026-04-11T21:19:18Z</time></trkpt><trkpt lat="43.13381069348816" lon="11.509090972066575"><ele>226.0</ele><time>2026-04-11T21:19:19Z</time></trkpt><trkpt lat="43.13378219339407" lon="11.50899013980517"><ele>226.0</ele><time>2026-04-11T21:19:20Z</time></trkpt><trkpt lat="43.13376057257843" lon="11.508892403253128"><ele>226.0</ele><time>2026-04-11T21:19:21Z</time></trkpt><trkpt lat="43.1337388027712" lon="11.5088006883305"><ele>226.0</ele><time>2026-04-11T21:19:22Z</time></trkpt><trkpt lat="43.13371650188457" lon="11.508710054899298"><ele>226.0</ele><time>2026-04-11T21:19:23Z</time></trkpt><trkpt lat="43.133689196607726" lon="11.508609387365565"><ele>226.0</ele><time>2026-04-11T21:19:24Z</time></trkpt><trkpt lat="43.133669880026076" lon="11.508508970968329"><ele>226.0</ele><time>2026-04-11T21:19:25Z</time></trkpt><trkpt lat="43.133645871101976" lon="11.508401107586433"><ele>224.99999999999997</ele><time>2026-04-11T21:19:26Z</time></trkpt><trkpt lat="43.133620247780236" lon="11.50828912307143"><ele>224.0</ele><time>2026-04-11T21:19:27Z</time></trkpt><trkpt lat="43.13359916249427" lon="11.508170727461575"><ele>223.0</ele><time>2026-04-11T21:19:28Z</time></trkpt><trkpt lat="43.133576556608965" lon="11.508051010814299"><ele>222.0</ele><time>2026-04-11T21:19:29Z</time></trkpt><trkpt lat="43.13355704709265" lon="11.507933320748526"><ele>220.99999999999997</ele><time>2026-04-11T21:19:30Z</time></trkpt><trkpt lat="43.13354517773496" lon="11.507811897834035"><ele>220.0</ele><time>2026-04-11T21:19:31Z</time></trkpt><trkpt lat="43.13353802081027" lon="11.507685536430332"><ele>218.99999999999997</ele><time>2026-04-11T21:19:32Z</time></trkpt><trkpt lat="43.13354602315833" lon="11.507564711487044"><ele>218.0</ele><time>2026-04-11T21:19:33Z</time></trkpt><trkpt lat="43.13355184927954" lon="11.507446241826253"><ele>217.0</ele><time>2026-04-11T21:19:34Z</time></trkpt><trkpt lat="43.133561531802215" lon="11.507327885440251"><ele>216.0</ele><time>2026-04-11T21:19:35Z</time></trkpt><trkpt lat="43.133571830450556" lon="11.507210527206711"><ele>214.99999999999997</ele><time>2026-04-11T21:19:36Z</time></trkpt><trkpt lat="43.13358557295889" lon="11.50709916199361"><ele>214.0</ele><time>2026-04-11T21:19:37Z</time></trkpt><trkpt lat="43.13360123250882" lon="11.506990199123996"><ele>213.71428571428572</ele><time>2026-04-11T21:19:38Z</time></trkpt><trkpt lat="43.13361284588155" lon="11.506888215066981"><ele>213.42857142857144</ele><time>2026-04-11T21:19:39Z</time></trkpt><trkpt lat="43.13362161207433" lon="11.506787923291064"><ele>213.14285714285717</ele><time>2026-04-11T21:19:40Z</time></trkpt><trkpt lat="43.1336328315356" lon="11.506687849946106"><ele>212.85714285714286</ele><time>2026-04-11T21:19:41Z</time></trkpt><trkpt lat="43.13364528707599" lon="11.506589350340887"><ele>212.57142857142856</ele><time>2026-04-11T21:19:42Z</time></trkpt><trkpt lat="43.13365962470148" lon="11.506494121416758"><ele>212.2857142857143</ele><time>2026-04-11T21:19:43Z</time></trkpt><trkpt lat="43.13367337067911" lon="11.506399994698596"><ele>212.0</ele><time>2026-04-11T21:19:44Z</time></trkpt><trkpt lat="43.13369021722995" lon="11.506305398332755"><ele>211.50000000000003</ele><time>2026-04-11T21:19:45Z</time></trkpt><trkpt lat="43.13370422204958" lon="11.506210642267362"><ele>211.0</ele><time>2026-04-11T21:19:46Z</time></trkpt><trkpt lat="43.13371889976177" lon="11.506109180681939"><ele>210.5</ele><time>2026-04-11T21:19:47Z</time></trkpt><trkpt lat="43.13372838115321" lon="11.50601059227962"><ele>210.0</ele><time>2026-04-11T21:19:48Z</time></trkpt><trkpt lat="43.13373831117435" lon="11.505910986087452"><ele>209.50000000000003</ele><time>2026-04-11T21:19:49Z</time></trkpt><trkpt lat="43.13375804547425" lon="11.505805175484431"><ele>209.0</ele><time>2026-04-11T21:19:50Z</time></trkpt><trkpt lat="43.13376132054801" lon="11.505697883984055"><ele>209.0</ele><time>2026-04-11T21:19:51Z</time></trkpt><trkpt lat="43.13377197901285" lon="11.505593034051852"><ele>209.0</ele><time>2026-04-11T21:19:52Z</time></trkpt><trkpt lat="43.133782350301814" lon="11.505488241433591"><ele>209.0</ele><time>2026-04-11T21:19:53Z</time></trkpt><trkpt lat="43.13379257079968" lon="11.505386960842733"><ele>209.0</ele><time>2026-04-11T21:19:54Z</time></trkpt><trkpt lat="43.13380466954699" lon="11.505289334961345"><ele>209.0</ele><time>2026-04-11T21:19:55Z</time></trkpt><trkpt lat="43.13381751224494" lon="11.505192608681028"><ele>209.0</ele><time>2026-04-11T21:19:56Z</time></trkpt><trkpt lat="43.13383062410366" lon="11.505091002795481"><ele>209.0</ele><time>2026-04-11T21:19:57Z</time></trkpt><trkpt lat="43.13384288523713" lon="11.504986851685418"><ele>209.33333333333334</ele><time>2026-04-11T21:19:58Z</time></trkpt><trkpt lat="43.13385657993254" lon="11.504876889751907"><ele>209.66666666666669</ele><time>2026-04-11T21:19:59Z</time></trkpt><trkpt lat="43.13387062168763" lon="11.504766718453725"><ele>210.0</ele><time>2026-04-11T21:20:00Z</time></trkpt><trkpt lat="43.133881131024" lon="11.504665207103464"><ele>210.33333333333331</ele><time>2026-04-11T21:20:01Z</time></trkpt><trkpt lat="43.13389108780267" lon="11.504566426454481"><ele>210.66666666666666</ele><time>2026-04-11T21:20:02Z</time></trkpt><trkpt lat="43.133904979264365" lon="11.504474551533852"><ele>211.0</ele><time>2026-04-11T21:20:03Z</time></trkpt><trkpt lat="43.13391431463481" lon="11.504367815652019"><ele>211.33333333333331</ele><time>2026-04-11T21:20:04Z</time></trkpt><trkpt lat="43.13393067864341" lon="11.504268294615484"><ele>211.66666666666666</ele><time>2026-04-11T21:20:05Z</time></trkpt><trkpt lat="43.13394883137851" lon="11.504159195812866"><ele>212.0</ele><time>2026-04-11T21:20:06Z</time></trkpt><trkpt lat="43.13396525035884" lon="11.504049011303307"><ele>212.33333333333331</ele><time>2026-04-11T21:20:07Z</time></trkpt><trkpt lat="43.13397930341935" lon="11.50393619681628"><ele>212.66666666666666</ele><time>2026-04-11T21:20:08Z</time></trkpt><trkpt lat="43.13399767577298" lon="11.503824652766909"><ele>213.0</ele><time>2026-04-11T21:20:09Z</time></trkpt><trkpt lat="43.134022802174776" lon="11.503706739717186"><ele>212.2</ele><time>2026-04-11T21:20:10Z</time></trkpt><trkpt lat="43.134050864880244" lon="11.503582880426205"><ele>211.4</ele><time>2026-04-11T21:20:11Z</time></trkpt><trkpt lat="43.13407954500983" lon="11.503455487014513"><ele>210.6</ele><time>2026-04-11T21:20:12Z</time></trkpt><trkpt lat="43.1341062476154" lon="11.503326928472484"><ele>209.79999999999998</ele><time>2026-04-11T21:20:13Z</time></trkpt><trkpt lat="43.13413102502225" lon="11.503202350970605"><ele>209.0</ele><time>2026-04-11T21:20:14Z</time></trkpt><trkpt lat="43.134161532555595" lon="11.503086929906505"><ele>209.0</ele><time>2026-04-11T21:20:15Z</time></trkpt><trkpt lat="43.134182022690474" lon="11.502965716799086"><ele>209.0</ele><time>2026-04-11T21:20:16Z</time></trkpt><trkpt lat="43.13420414146334" lon="11.50284419728745"><ele>209.0</ele><time>2026-04-11T21:20:17Z</time></trkpt><trkpt lat="43.13422771032751" lon="11.502715721283597"><ele>209.0</ele><time>2026-04-11T21:20:18Z</time></trkpt><trkpt lat="43.134252426321275" lon="11.502592545777325"><ele>209.0</ele><time>2026-04-11T21:20:19Z</time></trkpt><trkpt lat="43.134277000651956" lon="11.502462033155506"><ele>207.6</ele><time>2026-04-11T21:20:20Z</time></trkpt><trkpt lat="43.134305321183305" lon="11.502328283135551"><ele>206.2</ele><time>2026-04-11T21:20:21Z</time></trkpt><trkpt lat="43.1343320476288" lon="11.502196415333724"><ele>204.79999999999998</ele><time>2026-04-11T21:20:22Z</time></trkpt><trkpt lat="43.13435478481684" lon="11.502061100639214"><ele>203.39999999999998</ele><time>2026-04-11T21:20:23Z</time></trkpt><trkpt lat="43.13438324073561" lon="11.501925049003553"><ele>202.0</ele><time>2026-04-11T21:20:24Z</time></trkpt><trkpt lat="43.13441072966973" lon="11.5017897253676"><ele>200.39999999999998</ele><time>2026-04-11T21:20:25Z</time></trkpt><trkpt lat="43.134436216761536" lon="11.501657714325896"><ele>198.79999999999998</ele><time>2026-04-11T21:20:26Z</time></trkpt><trkpt lat="43.134461151695035" lon="11.501530848521583"><ele>197.2</ele><time>2026-04-11T21:20:27Z</time></trkpt><trkpt lat="43.13448297230914" lon="11.501409494593311"><ele>195.6</ele><time>2026-04-11T21:20:28Z</time></trkpt><trkpt lat="43.13450770115729" lon="11.50128914418216"><ele>194.0</ele><time>2026-04-11T21:20:29Z</time></trkpt><trkpt lat="43.134529183137786" lon="11.501169774618083"><ele>192.2</ele><time>2026-04-11T21:20:30Z</time></trkpt><trkpt lat="43.13454936353185" lon="11.50104179285596"><ele>190.39999999999998</ele><time>2026-04-11T21:20:31Z</time></trkpt><trkpt lat="43.13457105992094" lon="11.500908250079473"><ele>188.6</ele><time>2026-04-11T21:20:32Z</time></trkpt><trkpt lat="43.13459586719963" lon="11.500778612081481"><ele>186.8</ele><time>2026-04-11T21:20:33Z</time></trkpt><trkpt lat="43.134620439718525" lon="11.500651274198"><ele>185.0</ele><time>2026-04-11T21:20:34Z</time></trkpt><trkpt lat="43.13464620504936" lon="11.500520521990987"><ele>183.2</ele><time>2026-04-11T21:20:35Z</time></trkpt><trkpt lat="43.13467113601934" lon="11.500392515017415"><ele>181.4</ele><time>2026-04-11T21:20:36Z</time></trkpt><trkpt lat="43.1346975042975" lon="11.500265106712378"><ele>179.60000000000002</ele><time>2026-04-11T21:20:37Z</time></trkpt><trkpt lat="43.134722086927184" lon="11.500137911570443"><ele>177.8</ele><time>2026-04-11T21:20:38Z</time></trkpt><trkpt lat="43.1347473651339" lon="11.500014529726434"><ele>176.0</ele><time>2026-04-11T21:20:39Z</time></trkpt><trkpt lat="43.13477361321777" lon="11.499887563542812"><ele>176.0</ele><time>2026-04-11T21:20:40Z</time></trkpt><trkpt lat="43.13480263903342" lon="11.499769725833392"><ele>176.0</ele><time>2026-04-11T21:20:41Z</time></trkpt><trkpt lat="43.13483066565069" lon="11.499652999284233"><ele>176.0</ele><time>2026-04-11T21:20:42Z</time></trkpt><trkpt lat="43.134863124172945" lon="11.499526526621665"><ele>176.0</ele><time>2026-04-11T21:20:43Z</time></trkpt><trkpt lat="43.13491270197429" lon="11.49940942579204"><ele>176.0</ele><time>2026-04-11T21:20:44Z</time></trkpt><trkpt lat="43.13494118511118" lon="11.49928353869462"><ele>174.60000000000002</ele><time>2026-04-11T21:20:45Z</time></trkpt><trkpt lat="43.13497576072526" lon="11.499163745959924"><ele>173.2</ele><time>2026-04-11T21:20:46Z</time></trkpt><trkpt lat="43.13501294028215" lon="11.499041205584051"><ele>171.8</ele><time>2026-04-11T21:20:47Z</time></trkpt><trkpt lat="43.13505547998366" lon="11.498907339455037"><ele>170.39999999999998</ele><time>2026-04-11T21:20:48Z</time></trkpt><trkpt lat="43.13509917287819" lon="11.498767713121724"><ele>169.0</ele><time>2026-04-11T21:20:49Z</time></trkpt><trkpt lat="43.13514524592274" lon="11.498626931427879"><ele>167.6</ele><time>2026-04-11T21:20:50Z</time></trkpt><trkpt lat="43.13519005025126" lon="11.498485258529145"><ele>166.2</ele><time>2026-04-11T21:20:51Z</time></trkpt><trkpt lat="43.13523206736819" lon="11.49834380238343"><ele>164.79999999999998</ele><time>2026-04-11T21:20:52Z</time></trkpt><trkpt lat="43.135275710582974" lon="11.49820508051497"><ele>163.39999999999998</ele><time>2026-04-11T21:20:53Z</time></trkpt><trkpt lat="43.135315522841616" lon="11.498070454835421"><ele>162.0</ele><time>2026-04-11T21:20:54Z</time></trkpt><trkpt lat="43.13535806854278" lon="11.49793464837918"><ele>161.8</ele><time>2026-04-11T21:20:55Z</time></trkpt><trkpt lat="43.13539892283693" lon="11.497799996199436"><ele>161.6</ele><time>2026-04-11T21:20:56Z</time></trkpt><trkpt lat="43.13543968770983" lon="11.497672269345784"><ele>161.4</ele><time>2026-04-11T21:20:57Z</time></trkpt><trkpt lat="43.13548828666805" lon="11.497552523619001"><ele>161.20000000000002</ele><time>2026-04-11T21:20:58Z</time></trkpt><trkpt lat="43.13553392873682" lon="11.497435482646242"><ele>161.0</ele><time>2026-04-11T21:20:59Z</time></trkpt><trkpt lat="43.13558407705877" lon="11.497326387959466"><ele>161.0</ele><time>2026-04-11T21:21:00Z</time></trkpt><trkpt lat="43.13563559880868" lon="11.497219078362969"><ele>161.0</ele><time>2026-04-11T21:21:01Z</time></trkpt><trkpt lat="43.13569010686037" lon="11.497118696548672"><ele>161.0</ele><time>2026-04-11T21:21:02Z</time></trkpt><trkpt lat="43.13574327930866" lon="11.49701881465916"><ele>161.0</ele><time>2026-04-11T21:21:03Z</time></trkpt><trkpt lat="43.13580834288308" lon="11.49693650730784"><ele>161.0</ele><time>2026-04-11T21:21:04Z</time></trkpt><trkpt lat="43.135861957664815" lon="11.496844087991235"><ele>161.16666666666666</ele><time>2026-04-11T21:21:05Z</time></trkpt><trkpt lat="43.13590419644867" lon="11.496739515447784"><ele>161.33333333333331</ele><time>2026-04-11T21:21:06Z</time></trkpt><trkpt lat="43.13595830007904" lon="11.496650066070597"><ele>161.5</ele><time>2026-04-11T21:21:07Z</time></trkpt><trkpt lat="43.13600971246326" lon="11.496563115386627"><ele>161.66666666666666</ele><time>2026-04-11T21:21:08Z</time></trkpt><trkpt lat="43.13606036903432" lon="11.496479529228946"><ele>161.83333333333334</ele><time>2026-04-11T21:21:09Z</time></trkpt><trkpt lat="43.13611105258055" lon="11.496397425344131"><ele>162.0</ele><time>2026-04-11T21:21:10Z</time></trkpt><trkpt lat="43.136160525717756" lon="11.49631225174124"><ele>162.14285714285714</ele><time>2026-04-11T21:21:11Z</time></trkpt><trkpt lat="43.136209683954924" lon="11.496228996123385"><ele>162.28571428571428</ele><time>2026-04-11T21:21:12Z</time></trkpt><trkpt lat="43.13625516508154" lon="11.496148516909715"><ele>162.42857142857144</ele><time>2026-04-11T21:21:13Z</time></trkpt><trkpt lat="43.13630234504589" lon="11.49607133953031"><ele>162.57142857142856</ele><time>2026-04-11T21:21:14Z</time></trkpt><trkpt lat="43.136347792213265" lon="11.495990390393114"><ele>162.7142857142857</ele><time>2026-04-11T21:21:15Z</time></trkpt><trkpt lat="43.136390391008824" lon="11.495911652722828"><ele>162.85714285714286</ele><time>2026-04-11T21:21:16Z</time></trkpt><trkpt lat="43.13643221552548" lon="11.495833833432835"><ele>163.0</ele><time>2026-04-11T21:21:17Z</time></trkpt><trkpt lat="43.13647784142008" lon="11.49575924111685"><ele>163.0</ele><time>2026-04-11T21:21:18Z</time></trkpt><trkpt lat="43.13651750802554" lon="11.49568410247533"><ele>163.0</ele><time>2026-04-11T21:21:19Z</time></trkpt><trkpt lat="43.13655857964957" lon="11.49560743647571"><ele>163.0</ele><time>2026-04-11T21:21:20Z</time></trkpt><trkpt lat="43.13663876035117" lon="11.495459466907935"><ele>163.0</ele><time>2026-04-11T21:21:22Z</time></trkpt><trkpt lat="43.13668231545863" lon="11.495386143648588"><ele>163.0</ele><time>2026-04-11T21:21:23Z</time></trkpt><trkpt lat="43.13672372372964" lon="11.495314232842615"><ele>163.0</ele><time>2026-04-11T21:21:24Z</time></trkpt><trkpt lat="43.136764381453816" lon="11.49523867462122"><ele>163.66666666666669</ele><time>2026-04-11T21:21:25Z</time></trkpt><trkpt lat="43.13680125291611" lon="11.495165170051798"><ele>164.33333333333334</ele><time>2026-04-11T21:21:26Z</time></trkpt><trkpt lat="43.13683899847434" lon="11.49509391221482"><ele>165.0</ele><time>2026-04-11T21:21:27Z</time></trkpt><trkpt lat="43.136880079479646" lon="11.49502571050532"><ele>165.66666666666666</ele><time>2026-04-11T21:21:28Z</time></trkpt><trkpt lat="43.136921737783204" lon="11.494955648051008"><ele>166.33333333333331</ele><time>2026-04-11T21:21:29Z</time></trkpt><trkpt lat="43.1369993709339" lon="11.49482799981335"><ele>167.0</ele><time>2026-04-11T21:21:31Z</time></trkpt><trkpt lat="43.13707102800531" lon="11.494693699106827"><ele>169.5</ele><time>2026-04-11T21:21:33Z</time></trkpt><trkpt lat="43.13714188502769" lon="11.494556297817493"><ele>172.0</ele><time>2026-04-11T21:21:35Z</time></trkpt><trkpt lat="43.137212855049135" lon="11.49441952347555"><ele>174.5</ele><time>2026-04-11T21:21:37Z</time></trkpt><trkpt lat="43.13729255347092" lon="11.494293387084817"><ele>177.0</ele><time>2026-04-11T21:21:39Z</time></trkpt><trkpt lat="43.137346243134445" lon="11.494154487394391"><ele>175.0</ele><time>2026-04-11T21:21:41Z</time></trkpt><trkpt lat="43.13738932473133" lon="11.494001306636735"><ele>173.0</ele><time>2026-04-11T21:21:43Z</time></trkpt><trkpt lat="43.13742099181073" lon="11.493848118785916"><ele>171.0</ele><time>2026-04-11T21:21:45Z</time></trkpt><trkpt lat="43.13743618058701" lon="11.493698751881928"><ele>169.0</ele><time>2026-04-11T21:21:47Z</time></trkpt><trkpt lat="43.13745904015817" lon="11.49355285257625"><ele>169.0</ele><time>2026-04-11T21:21:49Z</time></trkpt><trkpt lat="43.137470966751195" lon="11.4934164295709"><ele>169.0</ele><time>2026-04-11T21:21:51Z</time></trkpt><trkpt lat="43.1374854109848" lon="11.493282136858738"><ele>169.0</ele><time>2026-04-11T21:21:53Z</time></trkpt><trkpt lat="43.137503599009406" lon="11.493161348884167"><ele>169.0</ele><time>2026-04-11T21:21:55Z</time></trkpt><trkpt lat="43.13751882178241" lon="11.493034666847507"><ele>169.0</ele><time>2026-04-11T21:21:57Z</time></trkpt><trkpt lat="43.137531056559155" lon="11.492915333336807"><ele>169.33333333333334</ele><time>2026-04-11T21:21:59Z</time></trkpt><trkpt lat="43.137540519343624" lon="11.492767892381169"><ele>169.66666666666669</ele><time>2026-04-11T21:22:02Z</time></trkpt><trkpt lat="43.13754422934106" lon="11.492674353453978"><ele>170.0</ele><time>2026-04-11T21:22:05Z</time></trkpt><trkpt lat="43.13755071198101" lon="11.492573817399705"><ele>170.33333333333334</ele><time>2026-04-11T21:22:06Z</time></trkpt><trkpt lat="43.137558031784216" lon="11.492470824108894"><ele>170.66666666666666</ele><time>2026-04-11T21:22:08Z</time></trkpt><trkpt lat="43.13757158048535" lon="11.492358312626845"><ele>171.0</ele><time>2026-04-11T21:22:10Z</time></trkpt><trkpt lat="43.1375855068482" lon="11.492245975817859"><ele>171.0</ele><time>2026-04-11T21:22:12Z</time></trkpt><trkpt lat="43.13760186682967" lon="11.492140222764313"><ele>171.0</ele><time>2026-04-11T21:22:14Z</time></trkpt><trkpt lat="43.13761963159907" lon="11.492029202880671"><ele>171.0</ele><time>2026-04-11T21:22:16Z</time></trkpt><trkpt lat="43.13763833581666" lon="11.491911147002071"><ele>171.0</ele><time>2026-04-11T21:22:19Z</time></trkpt><trkpt lat="43.137650900144" lon="11.49179812786269"><ele>171.0</ele><time>2026-04-11T21:22:22Z</time></trkpt><trkpt lat="43.13765967262772" lon="11.49168016007092"><ele>171.0</ele><time>2026-04-11T21:22:25Z</time></trkpt><trkpt lat="43.137666390972285" lon="11.491565396388548"><ele>172.16666666666666</ele><time>2026-04-11T21:22:28Z</time></trkpt><trkpt lat="43.137671138059694" lon="11.491466333025558"><ele>173.33333333333334</ele><time>2026-04-11T21:22:31Z</time></trkpt><trkpt lat="43.13768152626278" lon="11.491356264384208"><ele>174.5</ele><time>2026-04-11T21:22:34Z</time></trkpt><trkpt lat="43.13768012442031" lon="11.491238800467993"><ele>175.66666666666669</ele><time>2026-04-11T21:22:37Z</time></trkpt><trkpt lat="43.13769316543184" lon="11.49112343361764"><ele>176.83333333333334</ele><time>2026-04-11T21:22:40Z</time></trkpt><trkpt lat="43.13769964176417" lon="11.491036396845871"><ele>178.0</ele><time>2026-04-11T21:22:42Z</time></trkpt><trkpt lat="43.137720197968655" lon="11.490941318420726"><ele>177.75</ele><time>2026-04-11T21:22:44Z</time></trkpt><trkpt lat="43.13773182268127" lon="11.490846961649831"><ele>177.5</ele><time>2026-04-11T21:22:46Z</time></trkpt><trkpt lat="43.137750963844894" lon="11.49070594021551"><ele>177.25</ele><time>2026-04-11T21:22:48Z</time></trkpt><trkpt lat="43.13773996141988" lon="11.490576491842095"><ele>177.0</ele><time>2026-04-11T21:22:50Z</time></trkpt><trkpt lat="43.13775295800318" lon="11.490285293779904"><ele>177.0</ele><time>2026-04-11T21:22:51Z</time></trkpt><trkpt lat="43.137745439536104" lon="11.490197320227287"><ele>177.0</ele><time>2026-04-11T21:22:52Z</time></trkpt><trkpt lat="43.13773243978211" lon="11.490029604061096"><ele>177.0</ele><time>2026-04-11T21:22:54Z</time></trkpt><trkpt lat="43.13772176106239" lon="11.489942774410249"><ele>177.0</ele><time>2026-04-11T21:22:55Z</time></trkpt><trkpt lat="43.13771237333033" lon="11.48977345997357"><ele>177.0</ele><time>2026-04-11T21:22:57Z</time></trkpt><trkpt lat="43.137709864839124" lon="11.489680602499906"><ele>177.0</ele><time>2026-04-11T21:22:58Z</time></trkpt><trkpt lat="43.137702319397896" lon="11.489571261185791"><ele>174.6</ele><time>2026-04-11T21:22:59Z</time></trkpt><trkpt lat="43.137700088584516" lon="11.489477579398681"><ele>172.2</ele><time>2026-04-11T21:23:00Z</time></trkpt><trkpt lat="43.13771668969331" lon="11.48930026376402"><ele>169.8</ele><time>2026-04-11T21:23:02Z</time></trkpt><trkpt lat="43.1377086814432" lon="11.4891285492966"><ele>167.4</ele><time>2026-04-11T21:23:04Z</time></trkpt><trkpt lat="43.13768946617449" lon="11.488972578764198"><ele>165.0</ele><time>2026-04-11T21:23:06Z</time></trkpt><trkpt lat="43.13768483008544" lon="11.488798691387487"><ele>163.0</ele><time>2026-04-11T21:23:08Z</time></trkpt><trkpt lat="43.137689059238156" lon="11.488640750148372"><ele>161.0</ele><time>2026-04-11T21:23:10Z</time></trkpt><trkpt lat="43.1376782798127" lon="11.488509566624984"><ele>159.0</ele><time>2026-04-11T21:23:12Z</time></trkpt><trkpt lat="43.137678888035644" lon="11.488350837445655"><ele>157.0</ele><time>2026-04-11T21:23:14Z</time></trkpt><trkpt lat="43.13768072856596" lon="11.488251639444247"><ele>155.0</ele><time>2026-04-11T21:23:15Z</time></trkpt><trkpt lat="43.13767944696604" lon="11.488144483382156"><ele>155.0</ele><time>2026-04-11T21:23:16Z</time></trkpt><trkpt lat="43.13767360894961" lon="11.488034599348346"><ele>155.0</ele><time>2026-04-11T21:23:17Z</time></trkpt><trkpt lat="43.13767593358628" lon="11.48791781615932"><ele>155.0</ele><time>2026-04-11T21:23:18Z</time></trkpt><trkpt lat="43.137676251170426" lon="11.48780141105813"><ele>155.0</ele><time>2026-04-11T21:23:19Z</time></trkpt><trkpt lat="43.13767833828293" lon="11.487694674629475"><ele>155.0</ele><time>2026-04-11T21:23:20Z</time></trkpt><trkpt lat="43.13767893390071" lon="11.487592699855524"><ele>155.0</ele><time>2026-04-11T21:23:21Z</time></trkpt><trkpt lat="43.13768333795259" lon="11.487485776891155"><ele>154.33333333333331</ele><time>2026-04-11T21:23:22Z</time></trkpt><trkpt lat="43.137682611059496" lon="11.48737966156684"><ele>153.66666666666666</ele><time>2026-04-11T21:23:23Z</time></trkpt><trkpt lat="43.13768101995723" lon="11.487274936791438"><ele>153.0</ele><time>2026-04-11T21:23:24Z</time></trkpt><trkpt lat="43.13767905025882" lon="11.487167103564943"><ele>152.33333333333334</ele><time>2026-04-11T21:23:25Z</time></trkpt><trkpt lat="43.13767467455869" lon="11.487070761429967"><ele>151.66666666666669</ele><time>2026-04-11T21:23:26Z</time></trkpt><trkpt lat="43.137675086423336" lon="11.486912676933686"><ele>151.0</ele><time>2026-04-11T21:23:28Z</time></trkpt><trkpt lat="43.13768078032825" lon="11.486754515601998"><ele>150.4</ele><time>2026-04-11T21:23:30Z</time></trkpt><trkpt lat="43.137675145397296" lon="11.486605728234313"><ele>149.8</ele><time>2026-04-11T21:23:32Z</time></trkpt><trkpt lat="43.137687445670664" lon="11.486452954598962"><ele>149.20000000000002</ele><time>2026-04-11T21:23:34Z</time></trkpt><trkpt lat="43.137688484824345" lon="11.486303910361297"><ele>148.6</ele><time>2026-04-11T21:23:36Z</time></trkpt><trkpt lat="43.137689493500964" lon="11.48615923752308"><ele>148.0</ele><time>2026-04-11T21:23:38Z</time></trkpt><trkpt lat="43.137690414042126" lon="11.486027205391347"><ele>148.0</ele><time>2026-04-11T21:23:40Z</time></trkpt><trkpt lat="43.13769136258969" lon="11.485891156650146"><ele>148.0</ele><time>2026-04-11T21:23:42Z</time></trkpt><trkpt lat="43.13769206507751" lon="11.485790398728666"><ele>148.0</ele><time>2026-04-11T21:23:45Z</time></trkpt><trkpt lat="43.13758010739857" lon="11.485788601793448"><ele>148.0</ele><time>2026-04-11T21:23:46Z</time></trkpt><trkpt lat="43.13749678708982" lon="11.485814357388469"><ele>148.0</ele><time>2026-04-11T21:23:48Z</time></trkpt><trkpt lat="43.13740151980028" lon="11.48582285344404"><ele>147.6</ele><time>2026-04-11T21:23:50Z</time></trkpt><trkpt lat="43.13729594544492" lon="11.485831497192263"><ele>147.20000000000002</ele><time>2026-04-11T21:23:52Z</time></trkpt><trkpt lat="43.137195560958666" lon="11.485822117817852"><ele>146.8</ele><time>2026-04-11T21:23:54Z</time></trkpt><trkpt lat="43.13709958691647" lon="11.485828257621424"><ele>146.4</ele><time>2026-04-11T21:23:56Z</time></trkpt><trkpt lat="43.13701573552594" lon="11.485837012836361"><ele>146.0</ele><time>2026-04-11T21:23:58Z</time></trkpt><trkpt lat="43.13694539283044" lon="11.485826302681978"><ele>146.0</ele><time>2026-04-11T21:24:00Z</time></trkpt><trkpt lat="43.13686790619933" lon="11.485816462161198"><ele>146.0</ele><time>2026-04-11T21:24:02Z</time></trkpt><trkpt lat="43.13677743271899" lon="11.485804322757986"><ele>146.0</ele><time>2026-04-11T21:24:04Z</time></trkpt><trkpt lat="43.13668286879821" lon="11.48579512279284"><ele>146.0</ele><time>2026-04-11T21:24:06Z</time></trkpt><trkpt lat="43.13658437616706" lon="11.48579244640688"><ele>146.0</ele><time>2026-04-11T21:24:08Z</time></trkpt><trkpt lat="43.13648179212327" lon="11.485787921818826"><ele>146.2</ele><time>2026-04-11T21:24:10Z</time></trkpt><trkpt lat="43.136376804868995" lon="11.485798348152743"><ele>146.39999999999998</ele><time>2026-04-11T21:24:12Z</time></trkpt><trkpt lat="43.13627146737368" lon="11.485797797176778"><ele>146.6</ele><time>2026-04-11T21:24:14Z</time></trkpt><trkpt lat="43.13617153224928" lon="11.485798139848637"><ele>146.79999999999998</ele><time>2026-04-11T21:24:16Z</time></trkpt><trkpt lat="43.13606513571771" lon="11.485799582623224"><ele>147.0</ele><time>2026-04-11T21:24:18Z</time></trkpt><trkpt lat="43.13595492603015" lon="11.48579362909982"><ele>147.0</ele><time>2026-04-11T21:24:20Z</time></trkpt><trkpt lat="43.13584422311778" lon="11.4857904191555"><ele>147.0</ele><time>2026-04-11T21:24:22Z</time></trkpt><trkpt lat="43.13573331424967" lon="11.485794526454066"><ele>147.0</ele><time>2026-04-11T21:24:24Z</time></trkpt><trkpt lat="43.13562102362959" lon="11.485787374571716"><ele>147.0</ele><time>2026-04-11T21:24:26Z</time></trkpt><trkpt lat="43.13550219844984" lon="11.485786361691286"><ele>147.0</ele><time>2026-04-11T21:24:28Z</time></trkpt><trkpt lat="43.13538488013917" lon="11.48577863237733"><ele>147.0</ele><time>2026-04-11T21:24:30Z</time></trkpt><trkpt lat="43.135267306590684" lon="11.485775951250242"><ele>147.0</ele><time>2026-04-11T21:24:32Z</time></trkpt><trkpt lat="43.1351548981462" lon="11.485756856166137"><ele>147.0</ele><time>2026-04-11T21:24:34Z</time></trkpt><trkpt lat="43.13505011751063" lon="11.485751626525149"><ele>147.0</ele><time>2026-04-11T21:24:36Z</time></trkpt><trkpt lat="43.13495191017179" lon="11.485745385573738"><ele>147.0</ele><time>2026-04-11T21:24:38Z</time></trkpt><trkpt lat="43.13485352702514" lon="11.485704865843585"><ele>147.0</ele><time>2026-04-11T21:24:40Z</time></trkpt><trkpt lat="43.13477770247953" lon="11.485627211115755"><ele>147.0</ele><time>2026-04-11T21:24:42Z</time></trkpt><trkpt lat="43.134705879495534" lon="11.48553347280016"><ele>147.0</ele><time>2026-04-11T21:24:44Z</time></trkpt><trkpt lat="43.13466447693504" lon="11.485382326106429"><ele>146.75</ele><time>2026-04-11T21:24:46Z</time></trkpt><trkpt lat="43.13461791175377" lon="11.48522345735549"><ele>146.5</ele><time>2026-04-11T21:24:48Z</time></trkpt><trkpt lat="43.13457669635047" lon="11.485064806472545"><ele>146.25</ele><time>2026-04-11T21:24:50Z</time></trkpt><trkpt lat="43.13453356463397" lon="11.484911460975898"><ele>146.0</ele><time>2026-04-11T21:24:52Z</time></trkpt><trkpt lat="43.13449703876805" lon="11.484756371455408"><ele>146.0</ele><time>2026-04-11T21:24:54Z</time></trkpt><trkpt lat="43.134459003343196" lon="11.484611712009961"><ele>146.0</ele><time>2026-04-11T21:24:56Z</time></trkpt><trkpt lat="43.13441891565231" lon="11.484480543724587"><ele>146.0</ele><time>2026-04-11T21:24:58Z</time></trkpt><trkpt lat="43.13438591509204" lon="11.484345707431848"><ele>146.0</ele><time>2026-04-11T21:25:00Z</time></trkpt><trkpt lat="43.13435183891705" lon="11.484218819730788"><ele>146.0</ele><time>2026-04-11T21:25:02Z</time></trkpt><trkpt lat="43.134313738274265" lon="11.484100995560656"><ele>145.83333333333331</ele><time>2026-04-11T21:25:04Z</time></trkpt><trkpt lat="43.13427515245806" lon="11.483988314929743"><ele>145.66666666666666</ele><time>2026-04-11T21:25:06Z</time></trkpt><trkpt lat="43.13424728552964" lon="11.483870125047472"><ele>145.5</ele><time>2026-04-11T21:25:08Z</time></trkpt><trkpt lat="43.13421903147021" lon="11.483760926701983"><ele>145.33333333333334</ele><time>2026-04-11T21:25:10Z</time></trkpt><trkpt lat="43.13419656825811" lon="11.483660490952147"><ele>145.16666666666669</ele><time>2026-04-11T21:25:12Z</time></trkpt><trkpt lat="43.13416399813592" lon="11.48357411430806"><ele>145.0</ele><time>2026-04-11T21:25:14Z</time></trkpt><trkpt lat="43.13413516098143" lon="11.483460932092806"><ele>145.0</ele><time>2026-04-11T21:25:16Z</time></trkpt><trkpt lat="43.13410021101138" lon="11.483339038066182"><ele>145.0</ele><time>2026-04-11T21:25:18Z</time></trkpt><trkpt lat="43.13407277023565" lon="11.483215920967417"><ele>145.0</ele><time>2026-04-11T21:25:20Z</time></trkpt><trkpt lat="43.134027303212896" lon="11.483136430116076"><ele>145.0</ele><time>2026-04-11T21:25:22Z</time></trkpt><trkpt lat="43.13396192949849" lon="11.483127939550187"><ele>145.0</ele><time>2026-04-11T21:25:24Z</time></trkpt><trkpt lat="43.13389358063102" lon="11.483102309775647"><ele>145.0</ele><time>2026-04-11T21:25:26Z</time></trkpt><trkpt lat="43.133804887182784" lon="11.483085879731641"><ele>145.0</ele><time>2026-04-11T21:25:29Z</time></trkpt><trkpt lat="43.13371551214819" lon="11.483074451811916"><ele>145.0</ele><time>2026-04-11T21:25:32Z</time></trkpt><trkpt lat="43.13363589754971" lon="11.483012066129659"><ele>145.0</ele><time>2026-04-11T21:25:35Z</time></trkpt><trkpt lat="43.13357380730504" lon="11.482970743105732"><ele>145.0</ele><time>2026-04-11T21:25:37Z</time></trkpt><trkpt lat="43.13350404514633" lon="11.48294181789773"><ele>145.0</ele><time>2026-04-11T21:25:39Z</time></trkpt><trkpt lat="43.13342111871065" lon="11.48290919973697"><ele>145.0</ele><time>2026-04-11T21:25:41Z</time></trkpt><trkpt lat="43.133330332312156" lon="11.482872671733709"><ele>145.0</ele><time>2026-04-11T21:25:43Z</time></trkpt><trkpt lat="43.13322986820831" lon="11.482834572604252"><ele>145.0</ele><time>2026-04-11T21:25:45Z</time></trkpt><trkpt lat="43.13312729319263" lon="11.482798486186411"><ele>145.0</ele><time>2026-04-11T21:25:47Z</time></trkpt><trkpt lat="43.13302134631202" lon="11.482757964563612"><ele>145.0</ele><time>2026-04-11T21:25:49Z</time></trkpt><trkpt lat="43.132916205463495" lon="11.482713158459408"><ele>145.0</ele><time>2026-04-11T21:25:51Z</time></trkpt><trkpt lat="43.132808374647844" lon="11.48267230967559"><ele>144.8</ele><time>2026-04-11T21:25:53Z</time></trkpt><trkpt lat="43.132701444839164" lon="11.482631451662561"><ele>144.6</ele><time>2026-04-11T21:25:55Z</time></trkpt><trkpt lat="43.13259452015836" lon="11.48259009323738"><ele>144.4</ele><time>2026-04-11T21:25:57Z</time></trkpt><trkpt lat="43.132495390005694" lon="11.482557314639962"><ele>144.2</ele><time>2026-04-11T21:25:59Z</time></trkpt><trkpt lat="43.13240189684493" lon="11.482524595331565"><ele>144.0</ele><time>2026-04-11T21:26:01Z</time></trkpt><trkpt lat="43.13231331402169" lon="11.482485355441067"><ele>144.0</ele><time>2026-04-11T21:26:03Z</time></trkpt><trkpt lat="43.13223617846316" lon="11.48243137751661"><ele>144.0</ele><time>2026-04-11T21:26:05Z</time></trkpt><trkpt lat="43.13226892080557" lon="11.482323939300505"><ele>144.0</ele><time>2026-04-11T21:26:07Z</time></trkpt><trkpt lat="43.132358659451036" lon="11.48229984556144"><ele>144.0</ele><time>2026-04-11T21:26:09Z</time></trkpt><trkpt lat="43.13245676942548" lon="11.482301917091446"><ele>144.0</ele><time>2026-04-11T21:26:11Z</time></trkpt><trkpt lat="43.13256062199373" lon="11.482276079919176"><ele>143.83333333333334</ele><time>2026-04-11T21:26:13Z</time></trkpt><trkpt lat="43.13267049617014" lon="11.482252068085183"><ele>143.66666666666666</ele><time>2026-04-11T21:26:15Z</time></trkpt><trkpt lat="43.132738145595816" lon="11.48223452888025"><ele>143.5</ele><time>2026-04-11T21:26:16Z</time></trkpt><trkpt lat="43.132800037217294" lon="11.482218522794483"><ele>143.33333333333331</ele><time>2026-04-11T21:26:17Z</time></trkpt><trkpt lat="43.1328630343489" lon="11.482215569087458"><ele>143.16666666666666</ele><time>2026-04-11T21:26:18Z</time></trkpt><trkpt lat="43.13298471982941" lon="11.4822221227914"><ele>143.0</ele><time>2026-04-11T21:26:20Z</time></trkpt><trkpt lat="43.13308663427236" lon="11.482208824115077"><ele>143.0</ele><time>2026-04-11T21:26:22Z</time></trkpt><trkpt lat="43.13318971941394" lon="11.48219527304611"><ele>143.0</ele><time>2026-04-11T21:26:24Z</time></trkpt><trkpt lat="43.13329778191033" lon="11.482186232360416"><ele>143.0</ele><time>2026-04-11T21:26:26Z</time></trkpt><trkpt lat="43.13341420944233" lon="11.4821754823194"><ele>143.0</ele><time>2026-04-11T21:26:28Z</time></trkpt><trkpt lat="43.13353457502688" lon="11.48216644742242"><ele>143.0</ele><time>2026-04-11T21:26:30Z</time></trkpt><trkpt lat="43.13359784277942" lon="11.482157167768577"><ele>143.20000000000002</ele><time>2026-04-11T21:26:31Z</time></trkpt><trkpt lat="43.13366238352975" lon="11.482146535225937"><ele>143.4</ele><time>2026-04-11T21:26:32Z</time></trkpt><trkpt lat="43.133785158392854" lon="11.482136473293334"><ele>143.60000000000002</ele><time>2026-04-11T21:26:34Z</time></trkpt><trkpt lat="43.13384799600706" lon="11.482130092217849"><ele>143.8</ele><time>2026-04-11T21:26:35Z</time></trkpt><trkpt lat="43.13396873870902" lon="11.482121698912414"><ele>144.0</ele><time>2026-04-11T21:26:37Z</time></trkpt><trkpt lat="43.13408844836665" lon="11.482110151995736"><ele>144.0</ele><time>2026-04-11T21:26:39Z</time></trkpt><trkpt lat="43.13415275652895" lon="11.482174466360862"><ele>144.0</ele><time>2026-04-11T21:26:40Z</time></trkpt><trkpt lat="43.13426867776675" lon="11.482093464761943"><ele>144.0</ele><time>2026-04-11T21:26:42Z</time></trkpt><trkpt lat="43.13433204934347" lon="11.482157301894665"><ele>144.0</ele><time>2026-04-11T21:26:43Z</time></trkpt><trkpt lat="43.1344545692419" lon="11.482145002175178"><ele>144.0</ele><time>2026-04-11T21:26:45Z</time></trkpt><trkpt lat="43.134578042056795" lon="11.482132438628959"><ele>144.2</ele><time>2026-04-11T21:26:47Z</time></trkpt><trkpt lat="43.134635089575724" lon="11.482083197402488"><ele>144.4</ele><time>2026-04-11T21:26:48Z</time></trkpt><trkpt lat="43.13475911453119" lon="11.482071307765953"><ele>144.6</ele><time>2026-04-11T21:26:50Z</time></trkpt><trkpt lat="43.134880434230055" lon="11.482061709125293"><ele>144.8</ele><time>2026-04-11T21:26:52Z</time></trkpt><trkpt lat="43.134994619415366" lon="11.482043116998517"><ele>145.0</ele><time>2026-04-11T21:26:54Z</time></trkpt><trkpt lat="43.13510175653612" lon="11.48203636263107"><ele>145.0</ele><time>2026-04-11T21:26:56Z</time></trkpt><trkpt lat="43.135208392677775" lon="11.482024531963395"><ele>145.0</ele><time>2026-04-11T21:26:58Z</time></trkpt><trkpt lat="43.135303794069635" lon="11.482026505822297"><ele>145.0</ele><time>2026-04-11T21:27:00Z</time></trkpt><trkpt lat="43.13537908976208" lon="11.482010584588673"><ele>145.0</ele><time>2026-04-11T21:27:02Z</time></trkpt><trkpt lat="43.135593013551535" lon="11.481985698943374"><ele>145.0</ele><time>2026-04-11T21:27:07Z</time></trkpt><trkpt lat="43.13568582870785" lon="11.481980161905822"><ele>145.0</ele><time>2026-04-11T21:27:09Z</time></trkpt><trkpt lat="43.13578571562657" lon="11.481952909259698"><ele>145.0</ele><time>2026-04-11T21:27:11Z</time></trkpt><trkpt lat="43.13587586555142" lon="11.481950795352047"><ele>145.0</ele><time>2026-04-11T21:27:13Z</time></trkpt><trkpt lat="43.135957566604766" lon="11.481937384334062"><ele>145.0</ele><time>2026-04-11T21:27:15Z</time></trkpt><trkpt lat="43.136130818552324" lon="11.481904014770361"><ele>145.16666666666669</ele><time>2026-04-11T21:27:19Z</time></trkpt><trkpt lat="43.13624558207218" lon="11.481913278589873"><ele>145.33333333333334</ele><time>2026-04-11T21:27:21Z</time></trkpt><trkpt lat="43.136309364365644" lon="11.481904303808985"><ele>145.5</ele><time>2026-04-11T21:27:22Z</time></trkpt><trkpt lat="43.13637301075804" lon="11.481896045866698"><ele>145.66666666666666</ele><time>2026-04-11T21:27:23Z</time></trkpt><trkpt lat="43.13643473532001" lon="11.481878518642718"><ele>145.83333333333331</ele><time>2026-04-11T21:27:24Z</time></trkpt><trkpt lat="43.136501181136005" lon="11.481870599624658"><ele>146.0</ele><time>2026-04-11T21:27:25Z</time></trkpt><trkpt lat="43.13661215276932" lon="11.481855466940186"><ele>147.0</ele><time>2026-04-11T21:27:27Z</time></trkpt><trkpt lat="43.13671794029612" lon="11.481843874740305"><ele>147.0</ele><time>2026-04-11T21:27:29Z</time></trkpt><trkpt lat="43.13683367522524" lon="11.481852488795363"><ele>147.0</ele><time>2026-04-11T21:27:31Z</time></trkpt><trkpt lat="43.13693488896718" lon="11.481870322395826"><ele>147.0</ele><time>2026-04-11T21:27:33Z</time></trkpt><trkpt lat="43.13701914793853" lon="11.481855060801173"><ele>147.0</ele><time>2026-04-11T21:27:35Z</time></trkpt></trkseg></trk></gpx>